{
  "fields": [{"type":"int","id":"_id"},{"info":{"type_override":"text","notes":"Hora UTC de lectura de los datos (AAAA-MM-DD HH:mm:SS)(+1 para CET invierno, +2 para CET verano)","label":"date"},"type":"text","id":"TIMESTAMP"},{"info":{"type_override":"text","notes":"Record Number - identificador del registro","label":"int"},"type":"text","id":"RECORD"},{"info":{"type_override":"text","notes":"Velocidad media del viento en el periodo de 10 minutos leído","label":"float"},"type":"text","id":"VV_S_WVT"},{"info":{"type_override":"text","notes":"Dirección media del viento en el periodo de 10 minutos leído","label":"float"},"type":"text","id":"DV_D1_WVT"},{"info":{"type_override":"text","notes":"Velocidad máxima del viento en el periodo de 10 minutos leído","label":"float"},"type":"text","id":"VV10m3Seg_Max"},{"info":{"type_override":"text","notes":"Dirección de la racha máxima del viento en el periodo de 10 minutos leído","label":"text"},"type":"text","id":"DV10m3Seg_SMM"},{"info":{"type_override":"text","notes":"Presión atmosférica media en el periodo de 10 minutos leído","label":"text"},"type":"text","id":"PRE_Avg"},{"info":{"type_override":"text","notes":"Temperatura del aire media en el periodo de 10 minutos leído","label":"text"},"type":"text","id":"TEM_Avg"},{"info":{"type_override":"text","notes":"Humedad relativa del aire promedio en el periodo de 10 minutos leído","label":"text"},"type":"text","id":"HUM_Avg"},{"info":{"type_override":"text","notes":"Radiación solar media en el periodo de 10 minutos leído","label":"text"},"type":"text","id":"RAD_Avg"},{"info":{"type_override":"text","notes":"Precipitación acumulada en el periodo de 10 minutos leído","label":"text"},"type":"text","id":"PLU_Tot"}],
  "records": [
    [1500694,"2026-01-01 00:00:00","47191","1.1179999999999999","268.5","1.9269999999999998","274.6","1020.565","9.26","69.23","0.0","0.0"],
    [1500695,"2026-01-01 00:10:00","47192","1.371","263.2","1.829","270.9","1020.439","9.24","69.27","0.0","0.0"],
    [1500696,"2026-01-01 00:20:00","47193","1.219","256.5","2.0580000000000003","278.3","1020.458","9.26","69.29","0.0","0.0"],
    [1500697,"2026-01-01 00:30:00","47194","1.4880000000000002","260.9","2.156","261.8","1020.425","9.19","68.71","0.0","0.0"],
    [1500698,"2026-01-01 00:40:00","47195","1.568","262.5","2.221","261.9","1020.343","9.08","68.94","0.0","0.0"],
    [1500699,"2026-01-01 00:50:00","47196","1.6159999999999999","262.2","1.8619999999999999","262.3","1020.292","8.93","69.58","0.0","0.0"],
    [1500700,"2026-01-01 01:00:00","47197","1.7730000000000001","261.9","2.352","262.1","1020.274","8.8","70.05","0.0","0.0"],
    [1500701,"2026-01-01 01:10:00","47198","2.0669999999999997","266.0","2.6460000000000004","266.8","1020.204","8.67","70.73","0.0","0.0"],
    [1500702,"2026-01-01 01:20:00","47199","1.835","266.0","2.385","269.2","1020.176","8.59","71.23","0.0","0.0"],
    [1500703,"2026-01-01 01:30:00","47200","2.1519999999999997","270.6","2.483","269.0","1020.214","8.49","71.67","0.0","0.0"],
    [1500704,"2026-01-01 01:40:00","47201","2.189","264.0","2.8089999999999997","258.8","1020.285","8.3","72.16","0.0","0.0"],
    [1500705,"2026-01-01 01:50:00","47202","1.9709999999999999","264.2","2.417","260.9","1020.308","8.21","72.68","0.0","0.0"],
    [1500706,"2026-01-01 02:00:00","47203","1.986","260.3","2.352","258.3","1020.339","8.12","72.93","0.0","0.0"],
    [1500707,"2026-01-01 02:10:00","47204","2.178","263.2","2.679","262.9","1020.381","8.08","73.08","0.0","0.0"],
    [1500708,"2026-01-01 02:20:00","47205","1.906","268.1","2.483","268.7","1020.277","8.08","72.86","0.0","0.0"],
    [1500709,"2026-01-01 02:30:00","47206","1.933","265.2","2.319","270.4","1020.257","8.09","72.98","0.0","0.0"],
    [1500710,"2026-01-01 02:40:00","47207","2.0269999999999997","267.0","2.483","269.2","1020.171","8.08","72.79","0.0","0.0"],
    [1500711,"2026-01-01 02:50:00","47208","2.0669999999999997","267.6","2.548","271.8","1020.121","8.06","71.75","0.0","0.0"],
    [1500712,"2026-01-01 03:00:00","47209","2.31","265.4","2.9730000000000003","261.0","1020.059","7.849","71.8","0.0","0.0"],
    [1500713,"2026-01-01 03:10:00","47210","1.8","259.8","2.515","259.4","1019.963","7.774","72.44","0.0","0.0"],
    [1500714,"2026-01-01 03:20:00","47211","1.787","264.1","2.189","268.5","1019.797","7.667000000000001","72.57","0.0","0.0"],
    [1500715,"2026-01-01 03:30:00","47212","1.246","265.6","1.699","244.1","1019.706","7.582000000000001","73.08","0.0","0.0"],
    [1500716,"2026-01-01 03:40:00","47213","1.082","272.2","1.797","261.1","1019.63","7.539","73.89","0.0","0.0"],
    [1500717,"2026-01-01 03:50:00","47214","1.6640000000000001","275.7","2.254","276.8","1019.502","7.56","73.58","0.0","0.0"],
    [1500718,"2026-01-01 04:00:00","47215","1.963","282.8","3.005","288.7","1019.39","7.843999999999999","71.67","0.0","0.0"],
    [1500719,"2026-01-01 04:10:00","47216","2.003","280.0","2.5810000000000004","277.4","1019.378","7.912000000000001","70.22","0.0","0.0"],
    [1500720,"2026-01-01 04:20:00","47217","1.9469999999999998","270.1","2.613","281.0","1019.402","7.707999999999999","70.21","0.0","0.0"],
    [1500721,"2026-01-01 04:30:00","47218","2.144","281.5","3.855","284.0","1019.291","7.72","70.66","0.0","0.0"],
    [1500722,"2026-01-01 04:40:00","47219","2.6839999999999997","288.4","3.7569999999999997","279.5","1019.246","8.14","69.07","0.0","0.0"],
    [1500723,"2026-01-01 04:50:00","47220","2.502","292.5","3.6910000000000003","282.2","1019.295","8.18","68.16","0.0","0.0"],
    [1500724,"2026-01-01 05:00:00","47221","2.7030000000000003","288.2","3.5610000000000004","296.9","1019.142","8.1","67.61","0.0","0.0"],
    [1500725,"2026-01-01 05:10:00","47222","2.677","286.8","3.659","282.7","1019.027","8.02","67.67","0.0","0.0"],
    [1500726,"2026-01-01 05:20:00","47223","2.6430000000000002","281.0","3.6910000000000003","275.9","1018.936","7.898","67.92","0.0","0.0"],
    [1500727,"2026-01-01 05:30:00","47224","3.2889999999999997","285.5","4.279","280.7","1018.851","7.937","67.62","0.0","0.0"],
    [1500728,"2026-01-01 05:40:00","47225","2.92","280.9","4.345","281.8","1018.802","7.757999999999999","67.77","0.0","0.0"],
    [1500729,"2026-01-01 05:50:00","47226","2.017","263.8","3.5610000000000004","268.4","1018.861","7.409","69.35","0.0","0.0"],
    [1500730,"2026-01-01 06:00:00","47227","1.729","262.4","3.071","248.9","1018.915","7.245","70.84","0.0","0.0"],
    [1500731,"2026-01-01 06:10:00","47228","2.009","266.4","3.397","271.6","1018.995","7.104","71.74","0.0","0.0"],
    [1500732,"2026-01-01 06:20:00","47229","2.03","266.0","2.907","258.3","1019.003","7.029","72.12","0.0","0.0"],
    [1500733,"2026-01-01 06:30:00","47230","1.847","262.9","3.593","256.7","1018.984","7.102","72.18","0.0","0.0"],
    [1500734,"2026-01-01 06:40:00","47231","1.5719999999999998","260.8","2.8089999999999997","254.5","1018.999","7.189","71.8","0.0","0.0"],
    [1500735,"2026-01-01 06:50:00","47232","1.568","258.3","2.548","260.7","1018.939","7.122000000000001","71.9","0.0","0.0"],
    [1500736,"2026-01-01 07:00:00","47233","1.8719999999999999","257.4","3.234","252.2","1018.932","6.97","72.16","0.0","0.0"],
    [1500737,"2026-01-01 07:10:00","47234","1.825","254.4","3.593","256.9","1018.93","6.831","72.51","0.106","0.0"],
    [1500738,"2026-01-01 07:20:00","47235","2.306","257.7","3.593","246.1","1018.894","6.649","72.82","2.605","0.0"],
    [1500739,"2026-01-01 07:30:00","47236","2.146","259.9","3.005","260.7","1018.908","6.584","73.13","8.87","0.0"],
    [1500740,"2026-01-01 07:40:00","47237","2.086","259.3","3.43","263.3","1018.866","6.6610000000000005","73.43","24.38","0.0"],
    [1500741,"2026-01-01 07:50:00","47238","2.093","261.3","3.1689999999999996","262.8","1018.846","6.767","73.1","45.97","0.0"],
    [1500742,"2026-01-01 08:00:00","47239","1.9269999999999998","269.0","3.528","273.0","1018.804","7.056","72.44","66.18","0.0"],
    [1500743,"2026-01-01 08:10:00","47240","1.709","264.1","2.8089999999999997","270.2","1018.782","7.434","70.65","83.8","0.0"],
    [1500744,"2026-01-01 08:20:00","47241","1.7519999999999998","262.3","3.103","258.3","1018.807","7.494","70.16","107.3","0.0"],
    [1500745,"2026-01-01 08:30:00","47242","2.1069999999999998","262.1","2.907","260.8","1018.795","7.361000000000001","70.33","134.1","0.0"],
    [1500746,"2026-01-01 08:40:00","47243","2.06","260.8","2.9730000000000003","255.6","1018.734","7.575","70.35","162.0","0.0"],
    [1500747,"2026-01-01 08:50:00","47244","1.9880000000000002","265.1","3.0380000000000003","267.0","1018.786","7.794","69.95","197.8","0.0"],
    [1500748,"2026-01-01 09:00:00","47245","1.805","259.2","3.136","250.9","1018.936","7.976","69.24","195.1","0.0"],
    [1500749,"2026-01-01 09:10:00","47246","1.335","257.1","2.6460000000000004","261.4","1019.015","8.2","68.75","159.7","0.0"],
    [1500750,"2026-01-01 09:20:00","47247","1.5959999999999999","258.5","2.679","250.4","1019.015","8.43","68.04","229.7","0.0"],
    [1500751,"2026-01-01 09:30:00","47248","1.9409999999999998","252.5","3.201","271.0","1019.113","8.71","66.7","262.4","0.0"],
    [1500752,"2026-01-01 09:40:00","47249","1.676","253.7","2.907","257.0","1019.133","8.99","65.42","289.1","0.0"],
    [1500753,"2026-01-01 09:50:00","47250","1.348","260.0","2.483","264.0","1019.129","9.4","64.18","323.0","0.0"],
    [1500754,"2026-01-01 10:00:00","47251","1.538","258.5","3.267","258.0","1019.129","9.74","62.75","341.0","0.0"],
    [1500755,"2026-01-01 10:10:00","47252","1.564","257.8","2.6460000000000004","260.8","1019.065","9.92","61.46","347.1","0.0"],
    [1500756,"2026-01-01 10:20:00","47253","1.5219999999999998","250.0","2.875","270.4","1018.963","10.24","60.28","366.5","0.0"],
    [1500757,"2026-01-01 10:30:00","47254","1.847","250.4","3.234","260.8","1018.84","10.49","59.48","393.4","0.0"],
    [1500758,"2026-01-01 10:40:00","47255","1.94","246.5","3.299","225.3","1018.701","10.61","59.24","406.7","0.0"],
    [1500759,"2026-01-01 10:50:00","47256","2.502","260.3","3.9530000000000003","262.1","1018.629","10.68","59.23","408.8","0.0"],
    [1500760,"2026-01-01 11:00:00","47257","2.479","265.3","3.7889999999999997","269.7","1018.442","10.77","59.8","377.4","0.0"],
    [1500761,"2026-01-01 11:10:00","47258","2.201","267.6","3.593","287.4","1018.278","10.95","60.22","453.6","0.0"],
    [1500762,"2026-01-01 11:20:00","47259","1.992","255.6","4.018","261.1","1018.082","11.1","60.18","391.2","0.0"],
    [1500763,"2026-01-01 11:30:00","47260","1.6840000000000002","234.0","3.6910000000000003","240.0","1017.94","11.44","60.48","484.7","0.0"],
    [1500764,"2026-01-01 11:40:00","47261","2.12","235.2","3.822","221.1","1017.718","11.45","61.04","392.7","0.0"],
    [1500765,"2026-01-01 11:50:00","47262","2.102","239.6","4.1160000000000005","216.7","1017.512","11.43","62.09","460.4","0.0"],
    [1500766,"2026-01-01 12:00:00","47263","2.47","229.9","4.149","212.3","1017.309","11.49","62.37","448.0","0.0"],
    [1500767,"2026-01-01 12:10:00","47264","2.379","236.9","3.6260000000000003","244.5","1017.137","11.5","63.1","455.7","0.0"],
    [1500768,"2026-01-01 12:20:00","47265","1.7690000000000001","233.2","3.136","202.0","1016.899","11.7","63.35","446.3","0.0"],
    [1500769,"2026-01-01 12:30:00","47266","1.909","233.6","3.299","224.4","1016.73","12.06","63.02","431.6","0.0"],
    [1500770,"2026-01-01 12:40:00","47267","3.085","217.5","6.697","226.0","1016.542","12.6","63.35","458.6","0.0"],
    [1500771,"2026-01-01 12:50:00","47268","4.615","223.2","8.62","224.9","1016.279","12.65","64.3","349.1","0.0"],
    [1500772,"2026-01-01 13:00:00","47269","6.077999999999999","218.3","9.96","224.5","1016.006","12.6","64.47","447.7","0.0"],
    [1500773,"2026-01-01 13:10:00","47270","5.317","220.5","10.62","224.4","1015.859","12.72","63.88","397.1","0.0"],
    [1500774,"2026-01-01 13:20:00","47271","5.002","222.4","8.69","209.2","1015.8","12.86","61.94","375.0","0.0"],
    [1500775,"2026-01-01 13:30:00","47272","6.2860000000000005","219.3","9.24","215.8","1015.668","12.81","62.41","392.2","0.0"],
    [1500776,"2026-01-01 13:40:00","47273","5.001","221.5","8.3","216.0","1015.597","12.88","63.78","373.8","0.0"],
    [1500777,"2026-01-01 13:50:00","47274","5.042","222.7","8.66","235.6","1015.473","12.98","62.73","353.8","0.0"],
    [1500778,"2026-01-01 14:00:00","47275","5.771","219.2","9.11","216.9","1015.361","12.86","62.47","347.1","0.0"],
    [1500779,"2026-01-01 14:10:00","47276","5.23","218.3","8.59","226.1","1015.264","12.89","62.66","325.3","0.0"],
    [1500780,"2026-01-01 14:20:00","47277","4.997","219.8","8.66","235.5","1015.176","12.95","61.9","291.6","0.0"],
    [1500781,"2026-01-01 14:30:00","47278","5.256","217.9","8.59","211.9","1015.106","12.91","61.42","259.0","0.0"],
    [1500782,"2026-01-01 14:40:00","47279","5.6579999999999995","220.5","9.77","228.8","1015.011","12.84","60.88","187.0","0.0"],
    [1500783,"2026-01-01 14:50:00","47280","6.175","220.6","9.64","219.5","1014.995","12.76","60.26","171.9","0.0"],
    [1500784,"2026-01-01 15:00:00","47281","5.595","218.3","8.98","213.9","1014.993","12.72","61.06","157.3","0.0"],
    [1500785,"2026-01-01 15:10:00","47282","5.039","219.4","7.807","203.0","1014.972","12.67","61.94","142.3","0.0"],
    [1500786,"2026-01-01 15:20:00","47283","4.05","219.8","6.697","212.8","1014.954","12.63","63.28","115.4","0.0"],
    [1500787,"2026-01-01 15:30:00","47284","4.178","218.6","7.35","211.0","1014.913","12.5","65.03","87.9","0.0"],
    [1500788,"2026-01-01 15:40:00","47285","4.422","217.9","7.415","213.0","1014.887","12.38","65.99","59.5","0.0"],
    [1500789,"2026-01-01 15:50:00","47286","3.595","218.8","6.109","214.3","1014.865","12.32","66.16","43.88","0.0"],
    [1500790,"2026-01-01 16:00:00","47287","3.3080000000000003","218.9","6.011","202.6","1014.827","12.27","66.09","31.78","0.0"],
    [1500791,"2026-01-01 16:10:00","47288","2.9589999999999996","220.2","5.586","231.1","1014.744","12.2","66.31","23.36","0.0"],
    [1500792,"2026-01-01 16:20:00","47289","2.7060000000000004","225.0","5.129","215.6","1014.66","12.11","66.56","13.64","0.0"],
    [1500793,"2026-01-01 16:30:00","47290","2.8569999999999998","227.5","4.638999999999999","226.1","1014.607","12.04","66.78","4.507","0.0"],
    [1500794,"2026-01-01 16:40:00","47291","2.655","225.0","4.802","206.8","1014.541","11.95","67.14","0.284","0.0"],
    [1500795,"2026-01-01 16:50:00","47292","2.8510000000000004","234.4","4.638999999999999","229.8","1014.468","11.84","67.26","0.0","0.0"],
    [1500796,"2026-01-01 17:00:00","47293","3.042","233.0","4.802","223.3","1014.443","11.78","67.7","0.0","0.0"],
    [1500797,"2026-01-01 17:10:00","47294","2.7710000000000004","236.3","5.031000000000001","226.2","1014.415","11.65","68.66","0.0","0.0"],
    [1500798,"2026-01-01 17:20:00","47295","2.68","238.5","4.41","212.6","1014.447","11.5","70.2","0.0","0.0"],
    [1500799,"2026-01-01 17:30:00","47296","2.8160000000000003","240.6","5.096","243.3","1014.467","11.37","71.79","0.0","0.0"],
    [1500800,"2026-01-01 17:40:00","47297","2.074","252.3","4.312","286.6","1014.499","11.2","73.35","0.0","0.0"],
    [1500801,"2026-01-01 17:50:00","47298","2.752","269.7","4.541","279.4","1014.512","10.81","74.87","0.0","0.0"],
    [1500802,"2026-01-01 18:00:00","47299","2.476","267.7","3.9530000000000003","278.1","1014.492","10.65","76.03","0.0","0.0"],
    [1500803,"2026-01-01 18:10:00","47300","2.745","271.1","4.247","270.7","1014.462","10.67","76.99","0.0","0.0"],
    [1500804,"2026-01-01 18:20:00","47301","2.818","269.5","4.2139999999999995","276.6","1014.421","10.64","77.14","0.0","0.0"],
    [1500805,"2026-01-01 18:30:00","47302","2.358","268.9","3.593","267.9","1014.509","10.49","77.36","0.0","0.0"],
    [1500806,"2026-01-01 18:40:00","47303","2.39","269.7","3.136","270.1","1014.519","10.46","77.16","0.0","0.0"],
    [1500807,"2026-01-01 18:50:00","47304","1.916","262.0","2.679","251.0","1014.439","10.29","77.13","0.0","0.0"],
    [1500808,"2026-01-01 19:00:00","47305","1.149","239.1","2.0909999999999997","247.9","1014.395","10.38","77.37","0.0","0.0"],
    [1500809,"2026-01-01 19:10:00","47306","1.35","254.8","2.221","270.6","1014.269","10.26","77.21","0.0","0.0"],
    [1500810,"2026-01-01 19:20:00","47307","1.75","255.9","2.613","259.2","1014.34","10.04","77.73","0.0","0.0"],
    [1500811,"2026-01-01 19:30:00","47308","1.9069999999999998","261.3","2.875","264.8","1014.33","9.99","77.78","0.0","0.0"],
    [1500812,"2026-01-01 19:40:00","47309","1.54","255.7","2.287","275.0","1014.395","9.87","78.11","0.0","0.0"],
    [1500813,"2026-01-01 19:50:00","47310","2.063","259.6","3.005","255.9","1014.356","9.76","78.72","0.0","0.0"],
    [1500814,"2026-01-01 20:00:00","47311","2.0140000000000002","258.0","3.103","253.7","1014.427","9.69","79.3","0.0","0.0"],
    [1500815,"2026-01-01 20:10:00","47312","2.102","271.5","3.299","285.4","1014.348","9.47","80.0","0.0","0.0"],
    [1500816,"2026-01-01 20:20:00","47313","2.43","281.7","3.267","280.1","1014.342","9.68","80.2","0.0","0.0"],
    [1500817,"2026-01-01 20:30:00","47314","2.571","291.0","3.593","291.8","1014.339","9.89","79.33","0.0","0.0"],
    [1500818,"2026-01-01 20:40:00","47315","2.249","294.5","3.332","304.0","1014.392","9.99","78.58","0.0","0.0"],
    [1500819,"2026-01-01 20:50:00","47316","1.499","295.9","2.548","307.4","1014.492","9.95","78.24","0.0","0.0"],
    [1500820,"2026-01-01 21:00:00","47317","1.6280000000000001","299.0","2.483","303.8","1014.495","9.82","78.37","0.0","0.0"],
    [1500821,"2026-01-01 21:10:00","47318","1.2990000000000002","279.1","2.189","275.0","1014.537","9.7","78.35","0.0","0.0"],
    [1500822,"2026-01-01 21:20:00","47319","1.129","273.1","2.025","286.9","1014.597","9.68","77.33","0.0","0.0"],
    [1500823,"2026-01-01 21:30:00","47320","0.451","270.9","1.209","269.8","1014.495","9.67","77.09","0.0","0.0"],
    [1500824,"2026-01-01 21:40:00","47321","1.251","287.5","1.96","281.5","1014.461","9.64","76.95","0.0","0.0"],
    [1500825,"2026-01-01 21:50:00","47322","1.401","272.3","2.0580000000000003","268.9","1014.423","9.42","76.75","0.0","0.0"],
    [1500826,"2026-01-01 22:00:00","47323","1.4140000000000001","284.0","1.8619999999999999","267.8","1014.364","9.29","77.07","0.0","0.0"],
    [1500827,"2026-01-01 22:10:00","47324","1.251","299.6","1.895","309.1","1014.288","9.28","77.82","0.0","0.0"],
    [1500828,"2026-01-01 22:20:00","47325","1.399","295.1","1.8619999999999999","309.6","1014.279","9.15","78.17","0.0","0.0"],
    [1500829,"2026-01-01 22:30:00","47326","1.607","274.1","2.025","283.4","1014.163","8.87","77.87","0.0","0.0"],
    [1500830,"2026-01-01 22:40:00","47327","1.9480000000000002","279.0","2.352","282.7","1014.214","8.81","77.9","0.0","0.0"],
    [1500831,"2026-01-01 22:50:00","47328","2.123","277.3","2.45","275.5","1014.237","8.66","78.8","0.0","0.0"],
    [1500832,"2026-01-01 23:00:00","47329","1.8969999999999998","269.7","2.548","250.8","1014.357","8.68","78.97","0.0","0.0"],
    [1500833,"2026-01-01 23:10:00","47330","1.8019999999999998","282.5","2.679","265.6","1014.47","8.51","78.71","0.0","0.0"],
    [1500834,"2026-01-01 23:20:00","47331","1.546","307.4","2.483","304.8","1014.335","9.04","78.41","0.0","0.0"],
    [1500835,"2026-01-01 23:30:00","47332","1.44","311.9","2.7439999999999998","318.7","1014.129","9.61","74.39","0.0","0.0"],
    [1500836,"2026-01-01 23:40:00","47333","0.645","251.6","1.176","266.2","1013.829","9.67","71.36","0.0","0.0"],
    [1500837,"2026-01-01 23:50:00","47334","1.037","252.4","1.568","263.8","1013.618","9.6","69.08","0.0","0.0"],
    [1500838,"2026-01-02 00:00:00","47335","1.15","261.2","1.9269999999999998","264.2","1013.375","9.6","67.9","0.0","0.0"],
    [1500839,"2026-01-02 00:10:00","47336","1.729","263.4","2.319","263.3","1013.251","9.6","66.9","0.0","0.0"],
    [1500840,"2026-01-02 00:20:00","47337","1.314","237.4","2.221","260.6","1013.224","9.47","66.61","0.0","0.0"],
    [1500841,"2026-01-02 00:30:00","47338","0.846","233.7","1.3719999999999999","250.0","1013.175","9.37","65.77","0.0","0.0"],
    [1500842,"2026-01-02 00:40:00","47339","0.579","235.4","1.307","219.3","1013.254","9.09","65.94","0.0","0.0"],
    [1500843,"2026-01-02 00:50:00","47340","0.631","200.5","1.601","161.5","1013.305","9.08","67.08","0.0","0.0"],
    [1500844,"2026-01-02 01:00:00","47341","1.3769999999999998","227.2","2.254","186.6","1013.202","9.03","67.55","0.0","0.0"],
    [1500845,"2026-01-02 01:10:00","47342","0.737","295.4","1.764","322.0","1013.255","8.65","67.54","0.0","0.0"],
    [1500846,"2026-01-02 01:20:00","47343","1.143","283.4","3.5610000000000004","261.5","1013.115","8.51","68.05","0.0","0.0"],
    [1500847,"2026-01-02 01:30:00","47344","2.3040000000000003","279.7","3.495","289.7","1013.024","8.77","65.08","0.0","0.0"],
    [1500848,"2026-01-02 01:40:00","47345","2.707","284.6","3.7569999999999997","278.0","1013.049","9.06","62.0","0.0","0.0"],
    [1500849,"2026-01-02 01:50:00","47346","2.595","277.6","3.5610000000000004","285.0","1013.009","8.95","60.37","0.0","0.0"],
    [1500850,"2026-01-02 02:00:00","47347","2.408","268.5","3.071","276.6","1012.836","8.79","60.14","0.0","0.0"],
    [1500851,"2026-01-02 02:10:00","47348","2.069","258.6","2.7769999999999997","265.7","1012.744","8.79","60.13","0.0","0.0"],
    [1500852,"2026-01-02 02:20:00","47349","2.266","260.5","3.528","272.5","1012.591","8.66","60.05","0.0","0.0"],
    [1500853,"2026-01-02 02:30:00","47350","2.009","253.0","3.528","260.3","1012.495","8.77","60.15","0.0","0.0"],
    [1500854,"2026-01-02 02:40:00","47351","1.595","248.9","3.005","266.0","1012.43","8.76","59.94","0.0","0.0"],
    [1500855,"2026-01-02 02:50:00","47352","1.402","245.1","3.103","268.0","1012.285","8.4","60.56","0.0","0.0"],
    [1500856,"2026-01-02 03:00:00","47353","1.774","227.4","3.136","216.1","1012.181","8.19","62.08","0.0","0.0"],
    [1500857,"2026-01-02 03:10:00","47354","1.7409999999999999","264.6","3.005","280.4","1012.039","7.847","63.18","0.0","0.0"],
    [1500858,"2026-01-02 03:20:00","47355","1.7109999999999999","263.1","2.875","269.3","1011.922","7.61","64.5","0.0","0.0"],
    [1500859,"2026-01-02 03:30:00","47356","2.182","279.2","3.7889999999999997","282.7","1011.907","7.962999999999999","64.47","0.0","0.0"],
    [1500860,"2026-01-02 03:40:00","47357","3.446","296.9","5.194","300.8","1011.81","8.63","61.89","0.0","0.0"],
    [1500861,"2026-01-02 03:50:00","47358","4.626","297.2","7.056","299.3","1011.744","8.54","60.67","0.0","0.0"],
    [1500862,"2026-01-02 04:00:00","47359","5.156000000000001","309.2","8.89","311.7","1011.415","8.41","61.66","0.0","0.0"],
    [1500863,"2026-01-02 04:10:00","47360","3.0860000000000003","285.7","4.671","284.8","1011.472","8.22","61.88","0.0","0.0"],
    [1500864,"2026-01-02 04:20:00","47361","2.943","283.1","5.227","273.3","1011.453","8.21","61.98","0.0","0.0"],
    [1500865,"2026-01-02 04:30:00","47362","1.9669999999999999","274.1","4.998","282.5","1011.296","8.19","61.94","0.0","0.0"],
    [1500866,"2026-01-02 04:40:00","47363","1.892","221.0","3.071","219.6","1011.253","8.25","62.46","0.0","0.0"],
    [1500867,"2026-01-02 04:50:00","47364","1.946","262.9","3.593","286.3","1011.258","8.23","62.04","0.0","0.0"],
    [1500868,"2026-01-02 05:00:00","47365","2.6630000000000003","284.2","4.051","303.5","1011.203","8.21","62.49","0.0","0.0"],
    [1500869,"2026-01-02 05:10:00","47366","2.491","277.1","4.312","280.8","1011.157","8.08","62.48","0.0","0.0"],
    [1500870,"2026-01-02 05:20:00","47367","1.3019999999999998","237.7","2.221","272.3","1011.017","8.08","63.16","0.0","0.0"],
    [1500871,"2026-01-02 05:30:00","47368","1.683","228.7","2.221","268.4","1010.91","8.18","63.66","0.0","0.0"],
    [1500872,"2026-01-02 05:40:00","47369","1.92","245.3","2.7769999999999997","232.3","1010.96","8.24","62.66","0.0","0.0"],
    [1500873,"2026-01-02 05:50:00","47370","2.108","237.7","3.299","269.0","1011.098","8.33","61.96","0.0","0.0"],
    [1500874,"2026-01-02 06:00:00","47371","1.797","240.8","3.332","242.5","1011.028","8.22","62.0","0.0","0.0"],
    [1500875,"2026-01-02 06:10:00","47372","2.056","272.8","3.593","308.5","1011.057","8.11","62.32","0.0","0.0"],
    [1500876,"2026-01-02 06:20:00","47373","3.497","319.6","5.129","329.4","1011.225","8.22","63.04","0.0","0.0"],
    [1500877,"2026-01-02 06:30:00","47374","4.598","325.3","6.239","325.5","1011.26","7.768","64.18","0.0","0.0"],
    [1500878,"2026-01-02 06:40:00","47375","4.314","323.0","6.501","319.1","1011.43","7.614","64.28","0.0","0.0"],
    [1500879,"2026-01-02 06:50:00","47376","3.9939999999999998","314.6","5.782","312.8","1011.479","7.8","64.19","0.0","0.0"],
    [1500880,"2026-01-02 07:00:00","47377","4.548","313.7","5.912999999999999","310.3","1011.455","7.914","64.44","0.0","0.0"],
    [1500881,"2026-01-02 07:10:00","47378","4.59","321.1","6.7620000000000005","325.0","1011.448","8.13","63.3","0.0","0.0"],
    [1500882,"2026-01-02 07:20:00","47379","4.38","317.0","6.729","316.4","1011.488","8.21","60.82","0.847","0.0"],
    [1500883,"2026-01-02 07:30:00","47380","2.885","293.9","4.247","318.6","1011.598","7.767","62.17","5.2170000000000005","0.0"],
    [1500884,"2026-01-02 07:40:00","47381","2.404","294.0","3.528","298.5","1011.612","7.278","64.02","12.55","0.0"],
    [1500885,"2026-01-02 07:50:00","47382","2.8760000000000003","295.1","3.92","297.4","1011.568","7.1129999999999995","64.79","22.62","0.0"],
    [1500886,"2026-01-02 08:00:00","47383","3.275","293.0","5.292000000000001","287.5","1011.509","7.542999999999999","64.07","36.43","0.0"],
    [1500887,"2026-01-02 08:10:00","47384","4.041","290.8","5.912999999999999","294.1","1011.568","7.803","62.1","43.13","0.0"],
    [1500888,"2026-01-02 08:20:00","47385","4.7010000000000005","284.5","6.729","283.9","1011.623","7.775","61.27","53.73","0.0"],
    [1500889,"2026-01-02 08:30:00","47386","4.579","293.2","6.795","312.1","1011.729","7.856","61.57","74.25","0.0"],
    [1500890,"2026-01-02 08:40:00","47387","4.138","299.2","5.912999999999999","318.2","1011.693","8.22","60.96","71.05","0.0"],
    [1500891,"2026-01-02 08:50:00","47388","4.756","291.4","7.252000000000001","297.5","1011.722","8.28","59.76","109.1","0.0"],
    [1500892,"2026-01-02 09:00:00","47389","4.98","281.9","7.4479999999999995","282.2","1011.751","8.05","59.34","153.9","0.0"],
    [1500893,"2026-01-02 09:10:00","47390","4.3580000000000005","285.2","6.599","280.4","1011.803","8.15","59.19","259.4","0.0"],
    [1500894,"2026-01-02 09:20:00","47391","4.288","296.8","6.599","301.5","1011.72","8.33","58.95","287.0","0.0"],
    [1500895,"2026-01-02 09:30:00","47392","5.345","301.8","8.62","298.6","1011.684","8.6","57.84","269.9","0.0"],
    [1500896,"2026-01-02 09:40:00","47393","5.995","292.7","8.46","302.9","1011.708","8.29","58.34","261.8","0.0"],
    [1500897,"2026-01-02 09:50:00","47394","3.3310000000000004","268.8","6.501","270.5","1011.879","8.47","58.79","276.8","0.0"],
    [1500898,"2026-01-02 10:00:00","47395","4.577","288.8","6.86","286.9","1011.874","8.72","58.31","306.6","0.0"],
    [1500899,"2026-01-02 10:10:00","47396","5.726","299.3","8.69","296.3","1011.719","9.11","56.66","339.7","0.0"],
    [1500900,"2026-01-02 10:20:00","47397","6.186","298.2","9.57","304.4","1011.543","9.66","54.2","335.7","0.0"],
    [1500901,"2026-01-02 10:30:00","47398","4.173","295.7","6.925","304.3","1011.565","9.93","53.57","368.4","0.0"],
    [1500902,"2026-01-02 10:40:00","47399","3.819","294.1","5.815","312.4","1011.544","10.26","52.61","399.5","0.0"],
    [1500903,"2026-01-02 10:50:00","47400","3.3280000000000003","272.1","5.4879999999999995","281.9","1011.513","10.22","52.81","248.0","0.0"],
    [1500904,"2026-01-02 11:00:00","47401","3.693","271.0","5.782","274.0","1011.501","10.08","54.1","265.9","0.0"],
    [1500905,"2026-01-02 11:10:00","47402","5.459","287.0","8.13","295.5","1011.4","9.87","54.89","352.5","0.0"],
    [1500906,"2026-01-02 11:20:00","47403","4.756","283.4","7.546","277.2","1011.256","10.07","54.56","333.7","0.0"],
    [1500907,"2026-01-02 11:30:00","47404","3.9819999999999998","280.6","5.455","262.5","1011.068","10.22","54.53","293.2","0.0"],
    [1500908,"2026-01-02 11:40:00","47405","3.109","287.9","4.41","277.5","1010.684","10.3","54.58","216.8","0.0"],
    [1500909,"2026-01-02 11:50:00","47406","2.6430000000000002","292.0","4.247","281.1","1010.428","10.65","54.32","219.5","0.0"],
    [1500910,"2026-01-02 12:00:00","47407","2.6689999999999996","285.5","3.593","276.1","1010.183","10.94","53.27","212.3","0.0"],
    [1500911,"2026-01-02 12:10:00","47408","3.358","289.7","5.096","289.1","1009.97","11.4","51.82","295.6","0.0"],
    [1500912,"2026-01-02 12:20:00","47409","3.022","272.1","5.194","284.1","1009.843","11.62","50.65","417.4","0.0"],
    [1500913,"2026-01-02 12:30:00","47410","3.148","279.7","4.998","290.9","1009.627","11.75","50.16","414.5","0.0"],
    [1500914,"2026-01-02 12:40:00","47411","3.435","280.5","5.651","289.9","1009.512","11.82","49.86","241.3","0.0"],
    [1500915,"2026-01-02 12:50:00","47412","2.9589999999999996","264.2","6.501","254.6","1009.406","11.84","49.72","245.5","0.0"],
    [1500916,"2026-01-02 13:00:00","47413","2.693","241.8","5.2589999999999995","252.2","1009.337","11.75","49.51","259.0","0.0"],
    [1500917,"2026-01-02 13:10:00","47414","1.732","242.2","3.071","253.3","1009.164","11.75","50.82","229.7","0.0"],
    [1500918,"2026-01-02 13:20:00","47415","2.9730000000000003","248.9","5.227","249.9","1008.969","11.75","51.2","275.2","0.0"],
    [1500919,"2026-01-02 13:30:00","47416","2.716","241.8","4.606","273.0","1008.763","11.93","51.39","281.3","0.0"],
    [1500920,"2026-01-02 13:40:00","47417","2.523","219.0","4.998","205.4","1008.674","11.74","52.65","191.2","0.0"],
    [1500921,"2026-01-02 13:50:00","47418","2.291","218.4","3.6260000000000003","206.2","1008.662","11.78","52.84","185.3","0.0"],
    [1500922,"2026-01-02 14:00:00","47419","2.099","214.4","3.43","216.3","1008.562","11.92","53.49","200.7","0.0"],
    [1500923,"2026-01-02 14:10:00","47420","2.376","211.6","3.201","202.5","1008.494","11.9","54.82","162.8","0.0"],
    [1500924,"2026-01-02 14:20:00","47421","2.62","207.5","3.92","200.8","1008.658","11.89","56.11","136.9","0.0"],
    [1500925,"2026-01-02 14:30:00","47422","1.52","227.2","2.385","244.6","1008.606","12.02","56.36","147.6","0.0"],
    [1500926,"2026-01-02 14:40:00","47423","1.406","224.4","2.221","224.7","1008.531","12.13","56.48","141.2","0.0"],
    [1500927,"2026-01-02 14:50:00","47424","0.975","264.4","1.764","265.5","1008.472","12.27","56.81","118.3","0.0"],
    [1500928,"2026-01-02 15:00:00","47425","1.1179999999999999","268.3","2.123","235.9","1008.48","12.35","56.82","89.1","0.0"],
    [1500929,"2026-01-02 15:10:00","47426","1.7530000000000001","294.9","2.7110000000000003","300.6","1008.435","12.38","57.53","67.04","0.0"],
    [1500930,"2026-01-02 15:20:00","47427","1.7209999999999999","289.0","2.515","296.4","1008.452","12.36","57.68","61.53","0.0"],
    [1500931,"2026-01-02 15:30:00","47428","1.7519999999999998","286.2","2.613","281.1","1008.5","12.35","57.6","58.76","0.0"],
    [1500932,"2026-01-02 15:40:00","47429","1.265","261.2","2.189","281.9","1008.6","12.4","57.31","60.52","0.0"],
    [1500933,"2026-01-02 15:50:00","47430","0.846","263.8","1.699","245.8","1008.562","12.45","58.58","47.83","0.0"],
    [1500934,"2026-01-02 16:00:00","47431","0.89","273.7","1.8619999999999999","278.1","1008.473","12.35","59.01","29.96","0.0"],
    [1500935,"2026-01-02 16:10:00","47432","0.833","274.9","1.339","290.4","1008.347","12.31","59.11","15.9","0.0"],
    [1500936,"2026-01-02 16:20:00","47433","1.1059999999999999","297.7","1.9269999999999998","298.2","1008.266","12.35","58.81","8.08","0.0"],
    [1500937,"2026-01-02 16:30:00","47434","1.287","296.5","2.025","297.0","1008.149","12.39","60.35","3.062","0.0"],
    [1500938,"2026-01-02 16:40:00","47435","0.872","283.4","1.993","297.0","1007.997","12.36","61.04","0.40299999999999997","0.0"],
    [1500939,"2026-01-02 16:50:00","47436","1.263","276.6","1.8619999999999999","281.5","1008.078","12.25","60.93","0.0","0.0"],
    [1500940,"2026-01-02 17:00:00","47437","1.062","274.0","1.5030000000000001","282.5","1008.113","12.2","59.99","0.0","0.0"],
    [1500941,"2026-01-02 17:10:00","47438","1.208","335.6","1.8619999999999999","345.6","1008.189","12.28","60.18","0.0","0.0"],
    [1500942,"2026-01-02 17:20:00","47439","0.289","331.4","0.98","352.8","1008.251","12.25","60.49","0.0","0.0"],
    [1500943,"2026-01-02 17:30:00","47440","0.1","275.0","0.6859999999999999","267.3","1008.213","12.08","60.14","0.0","0.0"],
    [1500944,"2026-01-02 17:40:00","47441","0.0","0.0","0.0","0.0","1008.209","12.11","59.65","0.0","0.0"],
    [1500945,"2026-01-02 17:50:00","47442","0.282","333.1","1.307","328.0","1008.088","12.08","60.53","0.0","0.0"],
    [1500946,"2026-01-02 18:00:00","47443","0.519","276.4","1.339","339.5","1008.206","11.87","62.09","0.0","0.0"],
    [1500947,"2026-01-02 18:10:00","47444","0.9309999999999999","306.5","1.47","300.5","1008.234","11.77","62.0","0.0","0.0"],
    [1500948,"2026-01-02 18:20:00","47445","0.536","241.3","1.535","248.6","1008.186","11.53","62.27","0.0","0.0"],
    [1500949,"2026-01-02 18:30:00","47446","0.795","236.6","1.568","294.3","1008.301","11.43","62.69","0.0","0.0"],
    [1500950,"2026-01-02 18:40:00","47447","1.01","283.4","1.568","258.0","1008.37","11.32","62.52","0.0","0.0"],
    [1500951,"2026-01-02 18:50:00","47448","1.234","280.0","1.5030000000000001","285.9","1008.416","11.33","62.33","0.0","0.0"],
    [1500952,"2026-01-02 19:00:00","47449","1.149","310.7","1.764","324.4","1008.321","11.44","62.66","0.0","0.0"],
    [1500953,"2026-01-02 19:10:00","47450","1.193","294.1","1.895","293.3","1008.265","11.25","64.11","0.0","0.0"],
    [1500954,"2026-01-02 19:20:00","47451","1.391","306.2","2.7439999999999998","332.1","1008.296","11.33","63.5","0.0","0.0"],
    [1500955,"2026-01-02 19:30:00","47452","2.19","320.7","2.7439999999999998","322.7","1008.307","11.6","61.61","0.0","0.0"],
    [1500956,"2026-01-02 19:40:00","47453","2.088","280.2","2.94","319.6","1008.34","11.19","61.72","0.0","0.0"],
    [1500957,"2026-01-02 19:50:00","47454","1.338","260.3","1.829","257.5","1008.187","10.83","63.76","0.0","0.0"],
    [1500958,"2026-01-02 20:00:00","47455","2.342","262.7","2.9730000000000003","262.0","1008.193","10.59","63.76","0.0","0.0"],
    [1500959,"2026-01-02 20:10:00","47456","2.312","277.6","2.842","263.5","1008.096","10.52","64.24","0.0","0.0"],
    [1500960,"2026-01-02 20:20:00","47457","2.161","252.0","3.495","251.8","1008.247","10.41","63.82","0.0","0.0"],
    [1500961,"2026-01-02 20:30:00","47458","2.7539999999999996","257.7","3.7569999999999997","258.8","1008.288","10.24","63.81","0.0","0.0"],
    [1500962,"2026-01-02 20:40:00","47459","2.2119999999999997","256.6","3.822","251.5","1008.166","10.14","64.09","0.0","0.0"],
    [1500963,"2026-01-02 20:50:00","47460","2.0580000000000003","253.2","2.94","272.4","1008.04","9.98","64.72","0.0","0.0"],
    [1500964,"2026-01-02 21:00:00","47461","2.109","234.6","3.234","251.1","1008.035","10.23","64.22","0.0","0.0"],
    [1500965,"2026-01-02 21:10:00","47462","2.324","241.3","3.495","231.0","1008.108","10.17","63.63","0.0","0.0"],
    [1500966,"2026-01-02 21:20:00","47463","2.104","256.8","3.7889999999999997","264.8","1008.227","9.93","64.33","0.0","0.0"],
    [1500967,"2026-01-02 21:30:00","47464","1.935","251.9","3.495","264.8","1008.229","9.81","64.63","0.0","0.0"],
    [1500968,"2026-01-02 21:40:00","47465","1.839","257.2","3.201","270.3","1008","9.93","64.13","0.0","0.0"],
    [1500969,"2026-01-02 21:50:00","47466","1.7719999999999998","250.9","2.9730000000000003","244.7","1007.902","10.14","63.68","0.0","0.0"],
    [1500970,"2026-01-02 22:00:00","47467","1.554","239.5","2.8089999999999997","219.4","1007.996","10.47","62.6","0.0","0.0"],
    [1500971,"2026-01-02 22:10:00","47468","2.029","246.8","3.495","275.6","1008.125","10.61","61.63","0.0","0.0"],
    [1500972,"2026-01-02 22:20:00","47469","2.055","253.3","3.6260000000000003","248.9","1008.201","10.25","62.48","0.0","0.0"],
    [1500973,"2026-01-02 22:30:00","47470","1.8619999999999999","286.9","3.593","305.6","1008.096","10.35","63.0","0.0","0.0"],
    [1500974,"2026-01-02 22:40:00","47471","2.013","287.3","3.659","307.2","1007.964","10.73","62.19","0.0","0.0"],
    [1500975,"2026-01-02 22:50:00","47472","1.8619999999999999","270.4","2.5810000000000004","265.3","1007.934","10.54","62.02","0.0","0.0"],
    [1500976,"2026-01-02 23:00:00","47473","2.036","262.1","2.9730000000000003","274.6","1007.866","10.42","62.78","0.0","0.0"],
    [1500977,"2026-01-02 23:10:00","47474","2.162","258.2","2.875","259.2","1007.782","10.46","63.59","0.0","0.0"],
    [1500978,"2026-01-02 23:20:00","47475","2.508","257.9","3.103","264.9","1007.627","10.45","63.61","0.0","0.0"],
    [1500979,"2026-01-02 23:30:00","47476","2.031","264.4","3.136","256.4","1007.61","10.52","63.7","0.0","0.0"],
    [1500980,"2026-01-02 23:40:00","47477","2.083","261.9","2.7110000000000003","267.8","1007.537","10.55","63.62","0.0","0.0"],
    [1500981,"2026-01-02 23:50:00","47478","2.128","265.1","2.875","271.6","1007.407","10.39","63.37","0.0","0.0"],
    [1500982,"2026-01-03 00:00:00","47479","1.932","248.7","2.9730000000000003","213.2","1007.504","10.43","63.83","0.0","0.0"],
    [1500983,"2026-01-03 00:10:00","47480","2.415","264.7","2.907","266.7","1007.392","10.02","64.25","0.0","0.0"],
    [1500984,"2026-01-03 00:20:00","47481","2.185","258.6","3.005","255.4","1007.478","9.78","65.25","0.0","0.0"],
    [1500985,"2026-01-03 00:30:00","47482","2.405","263.3","3.267","261.8","1007.55","9.47","66.27","0.0","0.0"],
    [1500986,"2026-01-03 00:40:00","47483","2.166","275.0","2.548","277.9","1007.501","9.54","66.55","0.0","0.0"],
    [1500987,"2026-01-03 00:50:00","47484","1.534","285.9","2.385","274.9","1007.421","9.7","66.78","0.0","0.0"],
    [1500988,"2026-01-03 01:00:00","47485","0.20600000000000002","290.8","1.176","290.7","1007.469","10.13","67.51","0.0","0.0"],
    [1500989,"2026-01-03 01:10:00","47486","0.0","0.0","0.0","0.0","1007.547","10.22","67.1","0.0","0.0"],
    [1500990,"2026-01-03 01:20:00","47487","0.114","301.5","1.274","293.8","1007.534","10.4","66.87","0.0","0.0"],
    [1500991,"2026-01-03 01:30:00","47488","1.6159999999999999","286.5","2.156","301.4","1007.479","10.16","67.11","0.0","0.0"],
    [1500992,"2026-01-03 01:40:00","47489","1.591","270.6","2.254","269.7","1007.607","9.8","67.45","0.0","0.0"],
    [1500993,"2026-01-03 01:50:00","47490","1.07","284.4","1.9269999999999998","262.7","1007.598","9.56","67.61","0.0","0.0"],
    [1500994,"2026-01-03 02:00:00","47491","1.256","273.1","1.9269999999999998","263.5","1007.75","9.84","67.18","0.0","0.0"],
    [1500995,"2026-01-03 02:10:00","47492","1.38","281.4","2.123","265.9","1007.787","9.7","67.1","0.0","0.0"],
    [1500996,"2026-01-03 02:20:00","47493","1.6269999999999998","281.3","2.6460000000000004","263.7","1007.821","9.6","67.11","0.019","0.0"],
    [1500997,"2026-01-03 02:30:00","47494","1.311","286.0","1.895","279.0","1007.711","9.87","67.12","0.0","0.0"],
    [1500998,"2026-01-03 02:40:00","47495","1.775","270.7","2.548","258.5","1007.691","9.86","67.2","0.004","0.0"],
    [1500999,"2026-01-03 02:50:00","47496","1.46","282.5","2.0909999999999997","268.7","1007.549","9.91","67.65","0.0","0.0"],
    [1501000,"2026-01-03 03:00:00","47497","1.465","268.9","2.189","265.8","1007.459","10.07","68.38","0.005","0.0"],
    [1501001,"2026-01-03 03:10:00","47498","1.2990000000000002","256.8","1.993","265.5","1007.476","10.26","68.33","0.0","0.0"],
    [1501002,"2026-01-03 03:20:00","47499","1.665","272.1","2.123","270.2","1007.331","9.93","68.02","0.0","0.0"],
    [1501003,"2026-01-03 03:30:00","47500","1.774","296.9","2.287","305.8","1007.223","10.0","68.71","0.0","0.0"],
    [1501004,"2026-01-03 03:40:00","47501","1.4769999999999999","287.2","2.221","280.8","1007.299","10.19","69.56","0.0","0.0"],
    [1501005,"2026-01-03 03:50:00","47502","1.459","296.7","2.319","318.9","1007.219","10.43","69.18","0.0","0.0"],
    [1501006,"2026-01-03 04:00:00","47503","0.7170000000000001","290.4","1.895","284.2","1007.274","10.6","68.71","0.0","0.0"],
    [1501007,"2026-01-03 04:10:00","47504","2.262","7.307","3.365","4.783","1007.256","11.13","67.23","0.0","0.0"],
    [1501008,"2026-01-03 04:20:00","47505","3.609","6.4","4.508","8.87","1007.104","11.38","63.87","0.0","0.0"],
    [1501009,"2026-01-03 04:30:00","47506","3.245","4.812","4.638999999999999","8.95","1007.144","11.32","62.12","0.0","0.0"],
    [1501010,"2026-01-03 04:40:00","47507","3.0260000000000002","1.214","4.1160000000000005","3.891","1007.173","11.3","60.66","0.0","0.0"],
    [1501011,"2026-01-03 04:50:00","47508","3.492","13.72","4.312","20.65","1006.989","11.4","59.64","0.0","0.0"],
    [1501012,"2026-01-03 05:00:00","47509","4.343999999999999","16.06","5.357","11.4","1006.835","11.39","60.56","0.0","0.0"],
    [1501013,"2026-01-03 05:10:00","47510","4.545","9.61","5.4879999999999995","6.874","1006.891","11.37","59.9","0.0","0.0"],
    [1501014,"2026-01-03 05:20:00","47511","4.166","6.28","5.422999999999999","3.94","1006.936","11.48","58.33","0.0","0.0"],
    [1501015,"2026-01-03 05:30:00","47512","3.4","6.178","5.194","17.7","1007.061","11.52","57.88","0.0","0.0"],
    [1501016,"2026-01-03 05:40:00","47513","3.1910000000000003","3.978","4.638999999999999","5.075","1007.291","11.46","57.58","0.0","0.0"],
    [1501017,"2026-01-03 05:50:00","47514","3.278","2.6039999999999996","4.737","351.3","1007.292","11.46","56.97","0.0","0.0"],
    [1501018,"2026-01-03 06:00:00","47515","2.557","8.38","3.528","11.23","1007.349","11.53","58.11","0.0","0.0"],
    [1501019,"2026-01-03 06:10:00","47516","2.035","10.12","3.332","33.18","1007.519","11.46","58.2","0.0","0.0"],
    [1501020,"2026-01-03 06:20:00","47517","1.621","353.4","2.7110000000000003","6.76","1007.707","11.43","58.25","0.0","0.0"],
    [1501021,"2026-01-03 06:30:00","47518","1.787","351.5","2.515","8.38","1007.78","11.52","57.97","0.0","0.0"],
    [1501022,"2026-01-03 06:40:00","47519","1.6980000000000002","354.6","2.287","343.9","1008.016","11.61","58.98","0.0","0.0"],
    [1501023,"2026-01-03 06:50:00","47520","3.21","22.25","4.606","30.87","1007.983","11.65","62.24","0.0","0.0"],
    [1501024,"2026-01-03 07:00:00","47521","4.218","21.03","5.553","28.17","1007.885","11.47","67.66","0.0","0.0"],
    [1501025,"2026-01-03 07:10:00","47522","4.823","30.76","7.546","33.56","1007.731","11.45","71.84","0.0","0.0"],
    [1501026,"2026-01-03 07:20:00","47523","6.5760000000000005","44.99","9.18","46.9","1007.559","11.64","75.33","1.3980000000000001","0.0"],
    [1501027,"2026-01-03 07:30:00","47524","6.772","46.63","9.38","53.94","1007.421","11.56","74.99","7.542000000000001","0.0"],
    [1501028,"2026-01-03 07:40:00","47525","7.681","47.46","9.41","51.42","1007.357","11.51","74.09","16.35","0.0"],
    [1501029,"2026-01-03 07:50:00","47526","6.862","46.95","9.08","55.7","1007.634","11.54","73.59","21.33","0.0"],
    [1501030,"2026-01-03 08:00:00","47527","6.837000000000001","49.3","8.89","50.53","1007.565","11.59","72.28","32.18","0.0"],
    [1501031,"2026-01-03 08:10:00","47528","6.882000000000001","46.61","8.75","41.59","1007.635","11.53","71.57","46.58","0.0"],
    [1501032,"2026-01-03 08:20:00","47529","7.112","47.95","8.53","49.78","1007.65","11.45","71.16","58.1","0.0"],
    [1501033,"2026-01-03 08:30:00","47530","6.997999999999999","47.53","9.24","48.6","1007.704","11.42","71.12","71.31","0.0"],
    [1501034,"2026-01-03 08:40:00","47531","6.9239999999999995","46.02","8.59","38.42","1007.83","11.37","70.95","81.8","0.0"],
    [1501035,"2026-01-03 08:50:00","47532","6.185","47.3","7.905","44.27","1008.126","11.39","70.69","111.1","0.0"],
    [1501036,"2026-01-03 09:00:00","47533","6.079","45.14","7.742000000000001","44.12","1008.2","11.41","70.27","155.3","0.0"],
    [1501037,"2026-01-03 09:10:00","47534","6.295","45.89","8.13","45.31","1008.161","11.44","70.42","155.7","0.0"],
    [1501038,"2026-01-03 09:20:00","47535","6.0520000000000005","46.83","7.872999999999999","47.38","1008.269","11.48","70.22","135.9","0.0"],
    [1501039,"2026-01-03 09:30:00","47536","6.568","47.52","9.24","38.22","1008.403","11.49","70.14","204.5","0.0"],
    [1501040,"2026-01-03 09:40:00","47537","5.72","42.96","8.66","36.07","1008.641","11.55","70.61","178.5","0.0"],
    [1501041,"2026-01-03 09:50:00","47538","5.93","45.21","8.49","39.78","1008.748","11.47","71.15","168.4","0.0"],
    [1501042,"2026-01-03 10:00:00","47539","5.78","45.79","7.546","52.34","1008.912","11.44","71.79","162.0","0.0"],
    [1501043,"2026-01-03 10:10:00","47540","5.693","45.12","7.317","43.25","1008.865","11.4","71.94","143.6","0.0"],
    [1501044,"2026-01-03 10:20:00","47541","6.317","44.19","7.742000000000001","43.6","1008.683","11.27","72.1","170.0","0.0"],
    [1501045,"2026-01-03 10:30:00","47542","6.527","44.4","8.98","44.74","1008.52","11.23","72.48","201.9","0.0"],
    [1501046,"2026-01-03 10:40:00","47543","6.25","42.68","7.971","39.05","1008.507","11.27","73.02","146.3","0.0"],
    [1501047,"2026-01-03 10:50:00","47544","6.206","37.4","7.84","30.43","1008.598","11.17","73.52","104.2","0.0"],
    [1501048,"2026-01-03 11:00:00","47545","5.845","38.65","7.513","38.64","1008.504","11.15","73.47","169.7","0.0"],
    [1501049,"2026-01-03 11:10:00","47546","5.822","40.11","7.742000000000001","42.34","1008.455","11.26","73.62","272.6","0.0"],
    [1501050,"2026-01-03 11:20:00","47547","6.33","47.39","7.579","41.11","1008.329","11.3","72.11","236.9","0.0"],
    [1501051,"2026-01-03 11:30:00","47548","6.0360000000000005","45.65","7.938","31.89","1008.256","11.4","72.36","181.6","0.0"],
    [1501052,"2026-01-03 11:40:00","47549","5.915","43.96","7.6770000000000005","42.9","1008.12","11.28","73.08","180.1","0.0"],
    [1501053,"2026-01-03 11:50:00","47550","5.827999999999999","39.26","7.187","31.8","1007.995","11.12","74.05","145.1","0.0"],
    [1501054,"2026-01-03 12:00:00","47551","6.138999999999999","40.87","7.4479999999999995","45.68","1007.752","11.07","74.08","157.6","0.0"],
    [1501055,"2026-01-03 12:10:00","47552","5.487","43.85","7.121","44.61","1007.746","11.05","73.94","176.9","0.0"],
    [1501056,"2026-01-03 12:20:00","47553","5.412000000000001","45.18","6.795","45.68","1007.752","11.01","73.25","117.2","0.0"],
    [1501057,"2026-01-03 12:30:00","47554","4.746","43.3","6.501","48.76","1007.656","11.05","73.07","91.3","0.0"],
    [1501058,"2026-01-03 12:40:00","47555","5.542000000000001","41.95","7.579","40.01","1007.403","11.05","73.15","125.6","0.0"],
    [1501059,"2026-01-03 12:50:00","47556","5.08","39.98","6.925","48.99","1007.302","11.07","73.72","120.3","0.0"],
    [1501060,"2026-01-03 13:00:00","47557","4.944","39.12","6.37","29.84","1007.245","11.18","74.1","84.5","0.0"],
    [1501061,"2026-01-03 13:10:00","47558","5.229","39.74","6.7620000000000005","34.58","1007.087","11.22","74.51","104.3","0.0"],
    [1501062,"2026-01-03 13:20:00","47559","4.69","47.89","6.795","56.25","1006.989","11.32","73.25","137.7","0.0"],
    [1501063,"2026-01-03 13:30:00","47560","4.543","45.03","6.566","40.1","1007.041","11.46","71.85","101.8","0.0"],
    [1501064,"2026-01-03 13:40:00","47561","5.122000000000001","43.05","7.0889999999999995","37.66","1006.968","11.47","71.89","89.7","0.0"],
    [1501065,"2026-01-03 13:50:00","47562","4.848","42.47","6.795","43.82","1007.024","11.51","72.12","66.78","0.0"],
    [1501066,"2026-01-03 14:00:00","47563","5.1739999999999995","43.48","6.925","42.45","1006.853","11.44","71.99","66.82","0.0"],
    [1501067,"2026-01-03 14:10:00","47564","5.081","45.7","6.827000000000001","44.71","1006.978","11.48","71.87","58.5","0.0"],
    [1501068,"2026-01-03 14:20:00","47565","4.542","39.7","7.218999999999999","47.27","1007.006","11.53","72.23","60.9","0.0"],
    [1501069,"2026-01-03 14:30:00","47566","4.323","46.58","6.795","46.59","1007.052","11.51","72.22","53.01","0.0"],
    [1501070,"2026-01-03 14:40:00","47567","4.857","43.15","7.84","29.76","1006.984","11.49","72.07","39.73","0.0"],
    [1501071,"2026-01-03 14:50:00","47568","5.553","43.5","7.154","41.25","1006.84","11.47","72.12","36.67","0.0"],
    [1501072,"2026-01-03 15:00:00","47569","6.042000000000001","44.31","7.938","38.99","1006.632","11.4","71.95","43.43","0.0"],
    [1501073,"2026-01-03 15:10:00","47570","5.821000000000001","39.92","7.35","26.11","1006.656","11.47","72.2","45.17","0.0"],
    [1501074,"2026-01-03 15:20:00","47571","6.035","41.75","7.775","43.18","1006.646","11.43","72.13","38.64","0.0"],
    [1501075,"2026-01-03 15:30:00","47572","6.223","40.77","7.644","46.33","1006.62","11.43","71.51","31.14","0.0"],
    [1501076,"2026-01-03 15:40:00","47573","5.962000000000001","44.56","7.481","50.19","1006.53","11.45","72.01","28.02","0.0"],
    [1501077,"2026-01-03 15:50:00","47574","6.027","46.03","7.644","45.71","1006.507","11.49","72.24","19.45","0.0"],
    [1501078,"2026-01-03 16:00:00","47575","5.836","47.94","7.317","46.75","1006.388","11.5","71.94","13.73","0.0"],
    [1501079,"2026-01-03 16:10:00","47576","5.737","43.66","7.742000000000001","43.17","1006.41","11.53","72.79","8.82","0.0"],
    [1501080,"2026-01-03 16:20:00","47577","5.468999999999999","40.66","7.382999999999999","40.8","1006.458","11.5","72.81","5.96","0.0"],
    [1501081,"2026-01-03 16:30:00","47578","5.505","46.03","7.056","50.22","1006.326","11.52","72.99","3.236","0.0"],
    [1501082,"2026-01-03 16:40:00","47579","4.365","43.99","6.5329999999999995","46.85","1006.416","11.58","72.76","0.747","0.0"],
    [1501083,"2026-01-03 16:50:00","47580","4.643","44.21","7.023","37.3","1006.504","11.63","73.06","0.055999999999999994","0.0"],
    [1501084,"2026-01-03 17:00:00","47581","4.663","46.79","6.9910000000000005","55.57","1006.496","11.59","73.27","0.0","0.0"],
    [1501085,"2026-01-03 17:10:00","47582","4.288","40.15","6.403","43.32","1006.563","11.64","74.26","0.0","0.0"],
    [1501086,"2026-01-03 17:20:00","47583","4.058","46.0","8.49","29.21","1006.48","11.63","75.1","0.0","0.0"],
    [1501087,"2026-01-03 17:30:00","47584","4.382","61.25","6.109","79.11","1006.524","11.6","75.8","0.0","0.0"],
    [1501088,"2026-01-03 17:40:00","47585","4.9110000000000005","72.4","6.566","67.94","1006.568","11.62","75.8","0.0","0.0"],
    [1501089,"2026-01-03 17:50:00","47586","4.622","66.95","6.566","47.11","1006.63","11.67","75.63","0.0","0.0"],
    [1501090,"2026-01-03 18:00:00","47587","4.606","65.46","6.403","57.14","1006.665","11.67","74.9","0.0","0.0"],
    [1501091,"2026-01-03 18:10:00","47588","5.19","72.04","6.925","72.73","1006.704","11.67","74.52","0.0","0.0"],
    [1501092,"2026-01-03 18:20:00","47589","5.31","70.57","6.86","70.22","1006.721","11.65","73.76","0.0","0.0"],
    [1501093,"2026-01-03 18:30:00","47590","4.946000000000001","68.78","6.631","49.23","1006.737","11.65","73.03","0.0","0.0"],
    [1501094,"2026-01-03 18:40:00","47591","4.766","62.59","6.468","64.6","1006.707","11.68","73.03","0.0","0.0"],
    [1501095,"2026-01-03 18:50:00","47592","4.987","63.4","7.154","66.85","1006.699","11.74","73.29","0.0","0.0"],
    [1501096,"2026-01-03 19:00:00","47593","4.47","53.47","6.5329999999999995","42.1","1006.788","11.75","73.69","0.0","0.0"],
    [1501097,"2026-01-03 19:10:00","47594","4.675","52.33","6.272","55.15","1006.789","11.7","73.63","0.0","0.0"],
    [1501098,"2026-01-03 19:20:00","47595","4.707","51.61","6.893","56.24","1006.743","11.73","73.97","0.0","0.0"],
    [1501099,"2026-01-03 19:30:00","47596","4.962","46.11","7.121","40.33","1006.765","11.65","74.3","0.0","0.0"],
    [1501100,"2026-01-03 19:40:00","47597","5.122999999999999","48.69","7.154","60.17","1006.793","11.59","74.04","0.0","0.0"],
    [1501101,"2026-01-03 19:50:00","47598","5.232","35.32","7.317","30.13","1006.842","11.56","74.05","0.0","0.0"],
    [1501102,"2026-01-03 20:00:00","47599","4.593999999999999","51.93","6.599","65.54","1006.85","11.48","74.43","0.0","0.0"],
    [1501103,"2026-01-03 20:10:00","47600","4.665","47.43","7.0889999999999995","57.27","1006.857","11.47","75.31","0.0","0.0"],
    [1501104,"2026-01-03 20:20:00","47601","5.155","39.95","7.252000000000001","22.95","1006.844","11.24","76.32","0.0","0.0"],
    [1501105,"2026-01-03 20:30:00","47602","4.362","47.88","6.239","67.18","1006.917","11.11","77.05","0.0","0.0"],
    [1501106,"2026-01-03 20:40:00","47603","4.707","40.92","6.305","46.18","1006.899","11.05","77.61","0.0","0.0"],
    [1501107,"2026-01-03 20:50:00","47604","4.9430000000000005","42.37","6.599","47.17","1006.856","10.96","78.54","0.0","0.0"],
    [1501108,"2026-01-03 21:00:00","47605","4.583","46.34","6.729","35.8","1006.873","10.87","80.1","0.0","0.0"],
    [1501109,"2026-01-03 21:10:00","47606","4.789","43.88","7.317","29.8","1006.873","10.72","82.0","0.0","0.1"],
    [1501110,"2026-01-03 21:20:00","47607","4.9639999999999995","41.94","8.46","35.41","1006.824","10.57","83.5","0.0","0.0"],
    [1501111,"2026-01-03 21:30:00","47608","5.66","39.53","8.53","36.13","1006.813","10.49","84.3","0.0","0.0"],
    [1501112,"2026-01-03 21:40:00","47609","5.351","37.92","7.709","30.41","1006.824","10.42","84.4","0.0","0.0"],
    [1501113,"2026-01-03 21:50:00","47610","4.99","44.2","7.513","43.35","1006.841","10.4","83.7","0.0","0.0"],
    [1501114,"2026-01-03 22:00:00","47611","4.694","49.38","6.7620000000000005","52.69","1006.892","10.42","82.5","0.0","0.0"],
    [1501115,"2026-01-03 22:10:00","47612","4.465","43.14","6.5329999999999995","47.03","1006.956","10.44","81.4","0.0","0.0"],
    [1501116,"2026-01-03 22:20:00","47613","4.1080000000000005","43.51","6.042999999999999","30.06","1007.004","10.51","81.1","0.0","0.0"],
    [1501117,"2026-01-03 22:30:00","47614","3.884","41.84","6.011","53.79","1007.029","10.55","81.0","0.0","0.0"],
    [1501118,"2026-01-03 22:40:00","47615","3.8939999999999997","52.51","4.998","75.57","1007.034","10.52","80.8","0.0","0.0"],
    [1501119,"2026-01-03 22:50:00","47616","3.458","47.77","4.965","53.42","1007.061","10.57","80.1","0.0","0.0"],
    [1501120,"2026-01-03 23:00:00","47617","3.1239999999999997","38.97","4.802","37.48","1007.045","10.58","80.2","0.0","0.0"],
    [1501121,"2026-01-03 23:10:00","47618","3.4330000000000003","34.54","5.063","34.03","1007.009","10.61","80.3","0.0","0.0"],
    [1501122,"2026-01-03 23:20:00","47619","3.377","35.97","4.867","41.36","1007.004","10.55","80.6","0.0","0.0"],
    [1501123,"2026-01-03 23:30:00","47620","3.935","51.26","5.782","64.74","1006.915","10.49","81.4","0.0","0.0"],
    [1501124,"2026-01-03 23:40:00","47621","3.968","61.7","5.227","79.98","1006.81","10.27","82.9","0.0","0.0"],
    [1501125,"2026-01-03 23:50:00","47622","3.5660000000000003","54.02","5.553","63.46","1006.82","10.19","84.2","0.0","0.0"],
    [1501126,"2026-01-04 00:00:00","47623","4.063","47.56","5.945","72.15","1006.757","10.08","85.6","0.0","0.1"],
    [1501127,"2026-01-04 00:10:00","47624","4.383","61.95","5.684","68.06","1006.721","9.99","86.7","0.0","0.0"],
    [1501128,"2026-01-04 00:20:00","47625","4.325","61.31","6.37","64.56","1006.654","9.95","87.1","0.0","0.0"],
    [1501129,"2026-01-04 00:30:00","47626","5.225","71.64","6.957999999999999","71.3","1006.626","9.86","87.4","0.003","0.0"],
    [1501130,"2026-01-04 00:40:00","47627","5.195","72.0","7.187","66.94","1006.591","9.82","86.4","0.0","0.0"],
    [1501131,"2026-01-04 00:50:00","47628","5.492000000000001","68.48","7.056","64.75","1006.606","9.75","85.4","0.004","0.0"],
    [1501132,"2026-01-04 01:00:00","47629","5.68","67.96","7.742000000000001","63.83","1006.579","9.76","84.7","0.017","0.0"],
    [1501133,"2026-01-04 01:10:00","47630","5.39","61.8","7.546","55.37","1006.555","9.65","83.9","0.065","0.1"],
    [1501134,"2026-01-04 01:20:00","47631","4.658","61.11","6.827000000000001","78.62","1006.551","9.76","83.0","0.008","0.1"],
    [1501135,"2026-01-04 01:30:00","47632","5.245","56.61","7.579","54.67","1006.569","9.59","81.6","0.008","0.0"],
    [1501136,"2026-01-04 01:40:00","47633","5.593999999999999","57.37","8.17","59.8","1006.568","9.67","77.3","0.044000000000000004","0.0"],
    [1501137,"2026-01-04 01:50:00","47634","5.513999999999999","57.35","7.382999999999999","57.61","1006.536","9.74","75.57","0.943","0.0"],
    [1501138,"2026-01-04 02:00:00","47635","5.185","55.65","7.0889999999999995","37.81","1006.512","9.81","75.74","1.31","0.0"],
    [1501139,"2026-01-04 02:10:00","47636","5.4510000000000005","39.08","7.579","36.0","1006.456","9.67","76.55","1.64","0.0"],
    [1501140,"2026-01-04 02:20:00","47637","4.584","54.45","7.382999999999999","66.95","1006.48","9.54","76.38","1.391","0.0"],
    [1501141,"2026-01-04 02:30:00","47638","5.815","68.2","7.742000000000001","67.64","1006.419","9.53","74.76","0.7709999999999999","0.0"],
    [1501142,"2026-01-04 02:40:00","47639","6.075","70.35","8.4","68.66","1006.357","9.65","74.91","0.726","0.0"],
    [1501143,"2026-01-04 02:50:00","47640","6.233","63.46","9.51","68.14","1006.259","9.52","71.6","0.39399999999999996","0.0"],
    [1501144,"2026-01-04 03:00:00","47641","6.593999999999999","71.29","10.36","81.5","1006.124","9.65","70.08","0.419","0.0"],
    [1501145,"2026-01-04 03:10:00","47642","7.121","55.34","12.51","51.93","1005.99","9.67","67.15","0.0","0.0"],
    [1501146,"2026-01-04 03:20:00","47643","7.122000000000001","46.08","10.16","58.14","1005.952","9.43","68.84","0.0","0.0"],
    [1501147,"2026-01-04 03:30:00","47644","6.484","44.57","10.06","47.96","1005.931","9.35","70.26","0.08","0.0"],
    [1501148,"2026-01-04 03:40:00","47645","6.393","44.09","9.41","42.0","1005.918","9.13","73.56","0.017","0.1"],
    [1501149,"2026-01-04 03:50:00","47646","5.316","48.97","9.8","49.15","1005.95","9.07","74.52","0.006","0.0"],
    [1501150,"2026-01-04 04:00:00","47647","6.108","51.93","8.92","51.03","1005.905","8.97","74.92","0.019","0.1"],
    [1501151,"2026-01-04 04:10:00","47648","6.624","52.47","9.44","51.42","1005.823","8.99","72.86","0.049","0.0"],
    [1501152,"2026-01-04 04:20:00","47649","6.696000000000001","42.82","10.0","36.94","1005.775","8.96","70.64","0.017","0.0"],
    [1501153,"2026-01-04 04:30:00","47650","7.207000000000001","37.22","9.64","32.56","1005.726","8.85","69.42","0.0","0.0"],
    [1501154,"2026-01-04 04:40:00","47651","6.746","45.39","10.42","33.76","1005.704","8.85","70.95","0.01","0.0"],
    [1501155,"2026-01-04 04:50:00","47652","7.069","34.27","9.8","33.65","1005.71","8.78","71.63","0.0","0.0"],
    [1501156,"2026-01-04 05:00:00","47653","5.33","40.55","8.75","42.91","1005.772","8.83","72.57","0.0","0.1"],
    [1501157,"2026-01-04 05:10:00","47654","6.644","37.28","10.09","33.29","1005.774","8.68","73.38","0.004","0.0"],
    [1501158,"2026-01-04 05:20:00","47655","6.968","38.73","10.49","38.94","1005.819","8.58","72.01","0.017","0.0"],
    [1501159,"2026-01-04 05:30:00","47656","7.722","38.49","10.0","34.71","1005.805","8.39","69.38","0.0","0.0"],
    [1501160,"2026-01-04 05:40:00","47657","7.852","39.03","10.36","37.95","1005.759","8.29","70.24","0.012","0.1"],
    [1501161,"2026-01-04 05:50:00","47658","6.486000000000001","43.12","9.87","33.91","1005.784","8.33","70.9","0.001","0.0"],
    [1501162,"2026-01-04 06:00:00","47659","5.907","53.96","8.82","56.76","1005.798","8.36","72.87","0.0","0.0"],
    [1501163,"2026-01-04 06:10:00","47660","4.712","47.04","7.905","57.23","1005.854","8.35","74.64","0.0","0.0"],
    [1501164,"2026-01-04 06:20:00","47661","5.5120000000000005","62.63","7.611000000000001","51.87","1005.782","8.29","75.96","0.0","0.0"],
    [1501165,"2026-01-04 06:30:00","47662","4.445","52.96","6.664","78.84","1005.746","8.36","77.06","0.0","0.0"],
    [1501166,"2026-01-04 06:40:00","47663","4.129","21.21","6.501","28.48","1005.845","8.2","77.84","0.0","0.0"],
    [1501167,"2026-01-04 06:50:00","47664","3.4610000000000003","34.46","5.553","57.38","1005.871","8.4","77.94","0.0","0.0"],
    [1501168,"2026-01-04 07:00:00","47665","2.987","356.9","4.573","62.72","1005.96","8.34","78.54","0.0","0.0"],
    [1501169,"2026-01-04 07:10:00","47666","2.256","338.6","3.495","334.2","1006.072","8.2","79.21","0.033","0.0"],
    [1501170,"2026-01-04 07:20:00","47667","2.369","353.0","3.136","356.7","1006.162","8.14","79.5","0.536","0.0"],
    [1501171,"2026-01-04 07:30:00","47668","2.717","8.02","3.887","15.96","1006.248","8.2","79.69","1.683","0.0"],
    [1501172,"2026-01-04 07:40:00","47669","3.2289999999999996","15.95","4.345","27.19","1006.352","8.12","82.5","4.136","0.0"],
    [1501173,"2026-01-04 07:50:00","47670","2.574","20.43","3.463","16.75","1006.448","8.08","84.0","7.05","0.0"],
    [1501174,"2026-01-04 08:00:00","47671","1.642","27.39","2.45","30.84","1006.502","7.996","84.0","9.92","0.0"],
    [1501175,"2026-01-04 08:10:00","47672","1.209","359.3","1.8619999999999999","17.87","1006.561","8.01","83.1","13.07","0.0"],
    [1501176,"2026-01-04 08:20:00","47673","1.2790000000000001","332.3","1.96","319.5","1006.523","8.13","82.4","19.72","0.0"],
    [1501177,"2026-01-04 08:30:00","47674","1.631","301.8","2.0909999999999997","313.3","1006.525","8.18","82.3","23.82","0.0"],
    [1501178,"2026-01-04 08:40:00","47675","1.444","290.5","2.0909999999999997","295.1","1006.655","8.08","81.7","23.19","0.0"],
    [1501179,"2026-01-04 08:50:00","47676","1.565","303.3","2.0580000000000003","301.3","1006.601","8.17","81.4","37.36","0.0"],
    [1501180,"2026-01-04 09:00:00","47677","1.713","294.8","2.385","304.2","1006.596","8.26","81.6","54.97","0.0"],
    [1501181,"2026-01-04 09:10:00","47678","1.5319999999999998","294.3","2.156","291.2","1006.669","8.22","82.0","62.94","0.0"],
    [1501182,"2026-01-04 09:20:00","47679","1.327","321.8","1.895","331.8","1006.74","8.31","82.2","64.02","0.0"],
    [1501183,"2026-01-04 09:30:00","47680","1.281","335.0","1.993","325.7","1006.826","8.3","81.7","60.22","0.0"],
    [1501184,"2026-01-04 09:40:00","47681","0.9940000000000001","338.0","1.666","318.5","1006.933","8.36","81.2","54.07","0.0"],
    [1501185,"2026-01-04 09:50:00","47682","1.063","354.8","1.7309999999999999","337.5","1007.051","8.45","80.8","51.07","0.0"],
    [1501186,"2026-01-04 10:00:00","47683","0.608","356.2","1.307","346.5","1007.15","8.48","80.5","55.61","0.0"],
    [1501187,"2026-01-04 10:10:00","47684","0.536","338.5","1.307","1.492","1007.159","8.57","80.3","54.39","0.0"],
    [1501188,"2026-01-04 10:20:00","47685","0.147","10.32","0.784","13.81","1007.146","8.68","80.2","59.81","0.0"],
    [1501189,"2026-01-04 10:30:00","47686","0.852","249.9","1.4369999999999998","274.5","1007.119","8.73","80.3","71.39","0.0"],
    [1501190,"2026-01-04 10:40:00","47687","0.987","233.9","1.535","227.0","1007.078","8.67","82.1","70.62","0.0"],
    [1501191,"2026-01-04 10:50:00","47688","0.9059999999999999","236.2","1.633","219.4","1007.052","8.59","83.4","58.05","0.0"],
    [1501192,"2026-01-04 11:00:00","47689","1.1059999999999999","240.2","1.829","262.0","1007.031","8.56","84.3","52.87","0.0"],
    [1501193,"2026-01-04 11:10:00","47690","1.192","240.9","1.8619999999999999","265.4","1006.97","8.43","84.8","52.44","0.0"],
    [1501194,"2026-01-04 11:20:00","47691","1.3980000000000001","248.1","2.287","267.1","1006.867","8.48","84.9","62.74","0.0"],
    [1501195,"2026-01-04 11:30:00","47692","1.454","250.6","2.189","263.1","1006.675","8.5","85.0","85.1","0.0"],
    [1501196,"2026-01-04 11:40:00","47693","1.472","239.5","2.025","242.9","1006.53","8.4","85.0","106.6","0.0"],
    [1501197,"2026-01-04 11:50:00","47694","1.3159999999999998","242.7","2.385","265.3","1006.38","8.4","86.0","123.1","0.0"],
    [1501198,"2026-01-04 12:00:00","47695","1.3359999999999999","233.9","2.123","206.0","1006.287","8.22","87.1","78.3","0.0"],
    [1501199,"2026-01-04 12:10:00","47696","1.172","254.1","2.123","260.1","1006.23","8.3","88.1","53.1","0.1"],
    [1501200,"2026-01-04 12:20:00","47697","1.426","269.4","2.189","267.6","1006.111","8.31","88.8","63.37","0.0"],
    [1501201,"2026-01-04 12:30:00","47698","0.809","237.4","1.47","235.6","1006.08","8.23","89.3","73.91","0.0"],
    [1501202,"2026-01-04 12:40:00","47699","1.065","228.6","2.123","225.3","1005.953","8.24","89.4","70.97","0.0"],
    [1501203,"2026-01-04 12:50:00","47700","1.17","247.8","1.993","266.7","1005.831","8.29","89.4","83.4","0.0"],
    [1501204,"2026-01-04 13:00:00","47701","1.2409999999999999","240.8","2.613","223.1","1005.756","8.37","89.3","89.5","0.0"],
    [1501205,"2026-01-04 13:10:00","47702","1.215","246.1","2.417","241.6","1005.654","8.45","89.2","87.4","0.0"],
    [1501206,"2026-01-04 13:20:00","47703","1.2670000000000001","262.1","2.025","271.5","1005.605","8.54","89.3","54.58","0.0"],
    [1501207,"2026-01-04 13:30:00","47704","1.172","279.5","2.025","276.5","1005.537","8.65","89.5","54.16","0.0"],
    [1501208,"2026-01-04 13:40:00","47705","0.997","286.0","2.189","283.5","1005.488","8.74","89.5","47.73","0.0"],
    [1501209,"2026-01-04 13:50:00","47706","1.084","300.2","1.96","312.8","1005.384","8.88","89.5","45.26","0.0"],
    [1501210,"2026-01-04 14:00:00","47707","1.409","302.4","2.221","305.2","1005.303","8.89","89.3","44.55","0.0"],
    [1501211,"2026-01-04 14:10:00","47708","1.591","304.7","2.221","317.7","1005.291","9.02","89.3","48.11","0.0"],
    [1501212,"2026-01-04 14:20:00","47709","1.699","324.3","2.45","316.5","1005.256","9.09","89.2","53.09","0.0"],
    [1501213,"2026-01-04 14:30:00","47710","1.254","311.4","2.417","332.5","1005.316","9.02","89.0","45.63","0.0"],
    [1501214,"2026-01-04 14:40:00","47711","0.998","341.3","1.764","353.0","1005.398","9.19","88.9","48.12","0.0"],
    [1501215,"2026-01-04 14:50:00","47712","0.8079999999999999","340.7","1.601","339.2","1005.458","9.22","88.6","44.14","0.0"],
    [1501216,"2026-01-04 15:00:00","47713","0.287","347.7","0.98","0.8859999999999999","1005.598","9.34","88.3","41.76","0.0"],
    [1501217,"2026-01-04 15:10:00","47714","0.365","211.7","1.2409999999999999","188.8","1005.702","9.44","88.0","28.37","0.0"],
    [1501218,"2026-01-04 15:20:00","47715","1.079","211.5","1.4369999999999998","211.8","1005.793","9.44","87.7","11.53","0.0"],
    [1501219,"2026-01-04 15:30:00","47716","1.36","212.6","2.254","198.2","1005.842","9.51","87.4","6.824","0.0"],
    [1501220,"2026-01-04 15:40:00","47717","1.2309999999999999","215.9","1.829","210.6","1005.893","9.47","87.1","5.845","0.0"],
    [1501221,"2026-01-04 15:50:00","47718","0.89","234.2","1.633","230.4","1005.932","9.49","86.9","4.801","0.0"],
    [1501222,"2026-01-04 16:00:00","47719","1.119","242.9","1.9269999999999998","267.2","1005.962","9.51","87.0","2.3369999999999997","0.0"],
    [1501223,"2026-01-04 16:10:00","47720","1.827","278.3","3.103","283.1","1005.97","9.45","87.2","1.276","0.0"],
    [1501224,"2026-01-04 16:20:00","47721","1.953","295.7","2.7769999999999997","286.6","1005.967","9.39","87.5","0.254","0.0"],
    [1501225,"2026-01-04 16:30:00","47722","2.044","297.6","3.267","298.7","1005.952","9.28","87.3","0.065","0.0"],
    [1501226,"2026-01-04 16:40:00","47723","2.161","291.1","3.1689999999999996","283.8","1005.978","9.24","85.9","0.402","0.0"],
    [1501227,"2026-01-04 16:50:00","47724","1.9069999999999998","324.6","2.6460000000000004","339.0","1006.076","9.51","85.0","0.044000000000000004","0.0"],
    [1501228,"2026-01-04 17:00:00","47725","2.269","337.1","2.842","335.5","1006.09","9.43","84.8","0.0","0.0"],
    [1501229,"2026-01-04 17:10:00","47726","2.269","16.17","3.43","36.11","1006.176","9.46","84.6","0.0","0.0"],
    [1501230,"2026-01-04 17:20:00","47727","2.613","38.03","4.769","50.02","1006.243","9.34","84.8","0.0","0.0"],
    [1501231,"2026-01-04 17:30:00","47728","2.224","20.93","3.92","17.15","1006.345","9.04","84.9","0.0","0.0"],
    [1501232,"2026-01-04 17:40:00","47729","2.8369999999999997","15.11","4.1160000000000005","25.32","1006.469","8.91","85.9","0.0","0.0"],
    [1501233,"2026-01-04 17:50:00","47730","2.437","13.23","4.41","23.23","1006.61","8.85","86.5","0.0","0.0"],
    [1501234,"2026-01-04 18:00:00","47731","3.733","23.26","5.129","32.49","1006.677","8.7","85.6","0.0","0.0"],
    [1501235,"2026-01-04 18:10:00","47732","3.082","62.36","5.096","92.8","1006.794","8.99","78.73","0.0","0.0"],
    [1501236,"2026-01-04 18:20:00","47733","1.7080000000000002","356.7","2.842","24.74","1006.934","9.12","77.76","0.0","0.0"],
    [1501237,"2026-01-04 18:30:00","47734","2.562","25.67","3.887","25.99","1007.074","9.05","77.54","0.0","0.0"],
    [1501238,"2026-01-04 18:40:00","47735","2.294","14.86","3.6910000000000003","4.88","1007.203","9.07","76.63","0.0","0.0"],
    [1501239,"2026-01-04 18:50:00","47736","1.869","9.91","2.842","14.35","1007.214","9.09","76.4","0.0","0.0"],
    [1501240,"2026-01-04 19:00:00","47737","2.25","22.48","4.2139999999999995","76.11","1007.251","8.99","73.05","0.0","0.0"],
    [1501241,"2026-01-04 19:10:00","47738","5.138999999999999","66.33","7.023","67.28","1007.248","9.4","60.79","0.0","0.0"],
    [1501242,"2026-01-04 19:20:00","47739","5.274","69.52","7.285","74.84","1007.265","9.56","52.8","0.0","0.0"],
    [1501243,"2026-01-04 19:30:00","47740","5.318","61.78","7.481","69.25","1007.282","9.59","48.96","0.0","0.0"],
    [1501244,"2026-01-04 19:40:00","47741","5.5120000000000005","64.76","7.187","60.94","1007.261","9.59","49.36","0.0","0.0"],
    [1501245,"2026-01-04 19:50:00","47742","5.343999999999999","67.51","7.35","71.77","1007.279","9.51","48.74","0.0","0.0"],
    [1501246,"2026-01-04 20:00:00","47743","4.979","63.46","6.957999999999999","71.79","1007.317","9.56","49.47","0.0","0.0"],
    [1501247,"2026-01-04 20:10:00","47744","4.638","67.28","6.337000000000001","65.65","1007.354","9.64","51.27","0.0","0.0"],
    [1501248,"2026-01-04 20:20:00","47745","2.9810000000000003","33.79","4.933","16.47","1007.482","9.56","57.49","0.0","0.0"],
    [1501249,"2026-01-04 20:30:00","47746","2.912","26.79","4.802","33.12","1007.567","9.41","58.67","0.0","0.0"],
    [1501250,"2026-01-04 20:40:00","47747","3.1839999999999997","21.54","4.377","22.88","1007.611","9.36","60.06","0.0","0.0"],
    [1501251,"2026-01-04 20:50:00","47748","2.998","27.9","4.638999999999999","29.31","1007.664","9.23","58.96","0.0","0.0"],
    [1501252,"2026-01-04 21:00:00","47749","2.529","25.69","3.6910000000000003","20.04","1007.662","9.32","59.15","0.0","0.0"],
    [1501253,"2026-01-04 21:10:00","47750","2.759","24.1","4.018","33.01","1007.622","9.13","58.75","0.0","0.0"],
    [1501254,"2026-01-04 21:20:00","47751","2.447","14.71","3.822","19.42","1007.605","9.04","58.36","0.0","0.0"],
    [1501255,"2026-01-04 21:30:00","47752","2.013","358.0","2.8089999999999997","354.3","1007.581","9.18","59.21","0.0","0.0"],
    [1501256,"2026-01-04 21:40:00","47753","1.2919999999999998","327.8","2.0909999999999997","338.2","1007.588","9.04","62.57","0.0","0.0"],
    [1501257,"2026-01-04 21:50:00","47754","0.9329999999999999","297.6","1.307","280.1","1007.63","8.91","62.0","0.0","0.0"],
    [1501258,"2026-01-04 22:00:00","47755","0.8540000000000001","293.9","1.633","281.0","1007.733","9.03","62.2","0.0","0.0"],
    [1501259,"2026-01-04 22:10:00","47756","1.03","325.4","1.764","342.4","1007.825","9.01","64.87","0.0","0.0"],
    [1501260,"2026-01-04 22:20:00","47757","0.8690000000000001","343.2","2.123","333.6","1007.893","9.01","67.18","0.0","0.0"],
    [1501261,"2026-01-04 22:30:00","47758","1.5130000000000001","300.1","2.156","292.6","1007.963","8.85","69.23","0.0","0.0"],
    [1501262,"2026-01-04 22:40:00","47759","2.055","280.0","2.7110000000000003","282.8","1008.072","8.65","71.11","0.0","0.0"],
    [1501263,"2026-01-04 22:50:00","47760","2.4459999999999997","284.2","3.103","289.3","1008.096","8.34","73.95","0.0","0.0"],
    [1501264,"2026-01-04 23:00:00","47761","2.109","288.5","3.103","289.1","1008.105","8.21","75.49","0.0","0.0"],
    [1501265,"2026-01-04 23:10:00","47762","2.697","317.0","3.7239999999999998","319.8","1008.128","8.34","76.72","0.0","0.0"],
    [1501266,"2026-01-04 23:20:00","47763","2.705","321.8","3.528","309.3","1008.13","8.2","77.99","0.0","0.0"],
    [1501267,"2026-01-04 23:30:00","47764","3.45","328.7","4.769","328.8","1008.18","8.14","78.73","0.0","0.0"],
    [1501268,"2026-01-04 23:40:00","47765","3.826","329.9","4.933","336.3","1008.174","7.999","78.76","0.0","0.0"],
    [1501269,"2026-01-04 23:50:00","47766","4.074","324.7","5.357","322.6","1008.113","7.896","78.5","0.0","0.0"],
    [1501270,"2026-01-05 00:00:00","47767","4.203","315.0","5.521","321.9","1008.047","7.8660000000000005","78.26","0.0","0.0"],
    [1501271,"2026-01-05 00:10:00","47768","3.699","311.6","5.39","305.0","1008.057","7.905","78.76","0.0","0.0"],
    [1501272,"2026-01-05 00:20:00","47769","3.7539999999999996","316.8","5.096","315.7","1008.018","7.808","79.6","0.0","0.0"],
    [1501273,"2026-01-05 00:30:00","47770","3.97","320.6","5.357","319.6","1008.012","7.705","79.76","0.0","0.0"],
    [1501274,"2026-01-05 00:40:00","47771","3.227","319.1","4.737","326.8","1008.013","7.8020000000000005","79.68","0.0","0.0"],
    [1501275,"2026-01-05 00:50:00","47772","3.7239999999999998","327.6","4.867","327.6","1007.945","7.702000000000001","79.34","0.0","0.0"],
    [1501276,"2026-01-05 01:00:00","47773","3.8160000000000003","325.1","5.227","329.6","1007.923","7.627999999999999","78.75","0.0","0.0"],
    [1501277,"2026-01-05 01:10:00","47774","2.476","321.2","3.9530000000000003","322.8","1007.947","7.682","78.1","0.0","0.0"],
    [1501278,"2026-01-05 01:20:00","47775","2.687","326.3","3.7889999999999997","317.1","1007.952","7.624","77.61","0.0","0.0"],
    [1501279,"2026-01-05 01:30:00","47776","1.528","318.6","2.9730000000000003","329.9","1007.993","7.642","77.42","0.0","0.0"],
    [1501280,"2026-01-05 01:40:00","47777","1.4469999999999998","308.0","2.548","329.3","1008.028","7.664","77.63","0.0","0.0"],
    [1501281,"2026-01-05 01:50:00","47778","2.568","327.4","3.9530000000000003","341.0","1008.087","7.605","78.39","0.0","0.0"],
    [1501282,"2026-01-05 02:00:00","47779","2.032","317.4","3.5610000000000004","339.1","1008.122","7.506","79.76","0.0","0.0"],
    [1501283,"2026-01-05 02:10:00","47780","2.437","290.6","3.887","300.4","1008.164","7.252000000000001","81.2","0.0","0.0"],
    [1501284,"2026-01-05 02:20:00","47781","2.909","288.6","4.345","288.1","1008.185","7.024","82.7","0.0","0.1"],
    [1501285,"2026-01-05 02:30:00","47782","2.9760000000000004","291.5","3.985","289.6","1008.287","6.903","84.0","0.0","0.0"],
    [1501286,"2026-01-05 02:40:00","47783","3.095","292.4","4.508","287.4","1008.2","6.782","84.6","0.0","0.0"],
    [1501287,"2026-01-05 02:50:00","47784","3.2939999999999996","292.5","4.867","288.4","1008.11","6.684","84.3","0.0","0.0"],
    [1501288,"2026-01-05 03:00:00","47785","3.661","290.8","5.357","283.6","1008.037","6.575","83.9","0.0","0.0"],
    [1501289,"2026-01-05 03:10:00","47786","4.217","289.7","6.5329999999999995","289.5","1007.981","6.484","83.5","0.0","0.0"],
    [1501290,"2026-01-05 03:20:00","47787","4.569","283.9","6.566","289.0","1007.939","6.398","82.8","0.0","0.0"],
    [1501291,"2026-01-05 03:30:00","47788","4.587","280.7","6.697","275.7","1007.886","6.268","83.0","0.0","0.0"],
    [1501292,"2026-01-05 03:40:00","47789","5.325","280.8","7.938","292.7","1007.82","6.178","82.8","0.0","0.0"],
    [1501293,"2026-01-05 03:50:00","47790","6.007000000000001","286.5","8.49","286.1","1007.759","6.082999999999999","82.0","0.0","0.0"],
    [1501294,"2026-01-05 04:00:00","47791","5.341","289.4","7.775","281.4","1007.734","5.9639999999999995","81.8","0.0","0.0"],
    [1501295,"2026-01-05 04:10:00","47792","3.806","290.9","5.912999999999999","281.5","1007.894","6.032","81.8","0.0","0.0"],
    [1501296,"2026-01-05 04:20:00","47793","3.958","279.8","6.1739999999999995","276.2","1007.852","5.997000000000001","81.5","0.0","0.0"],
    [1501297,"2026-01-05 04:30:00","47794","4.092","285.7","6.86","292.7","1007.856","6.0360000000000005","80.3","0.0","0.0"],
    [1501298,"2026-01-05 04:40:00","47795","4.126","285.7","5.684","285.7","1007.912","6.01","79.13","0.0","0.0"],
    [1501299,"2026-01-05 04:50:00","47796","3.69","290.3","5.325","290.1","1007.991","6.032","78.56","0.0","0.0"],
    [1501300,"2026-01-05 05:00:00","47797","3.763","295.1","5.586","296.2","1008.059","5.97","78.02","0.0","0.0"],
    [1501301,"2026-01-05 05:10:00","47798","3.295","288.1","4.9","309.3","1008.098","5.9239999999999995","77.17","0.0","0.0"],
    [1501302,"2026-01-05 05:20:00","47799","3.844","286.2","5.455","278.7","1008.092","5.841","76.04","0.0","0.0"],
    [1501303,"2026-01-05 05:30:00","47800","3.522","287.0","4.933","282.6","1008.122","5.854","75.24","0.0","0.0"],
    [1501304,"2026-01-05 05:40:00","47801","3.14","286.7","4.508","283.3","1008.207","5.851","74.76","0.0","0.0"],
    [1501305,"2026-01-05 05:50:00","47802","3.0189999999999997","287.8","4.737","285.3","1008.173","5.763","74.66","0.0","0.0"],
    [1501306,"2026-01-05 06:00:00","47803","3.0180000000000002","291.9","4.606","281.1","1008.257","5.757999999999999","74.81","0.0","0.0"],
    [1501307,"2026-01-05 06:10:00","47804","3.9189999999999996","289.5","5.912999999999999","289.0","1008.315","5.542999999999999","74.33","0.0","0.0"],
    [1501308,"2026-01-05 06:20:00","47805","4.442","286.9","6.664","289.4","1008.294","5.407","74.34","0.0","0.0"],
    [1501309,"2026-01-05 06:30:00","47806","4.87","290.0","6.697","294.2","1008.307","5.313","73.61","0.0","0.0"],
    [1501310,"2026-01-05 06:40:00","47807","4.954","294.5","7.218999999999999","299.3","1008.261","5.372000000000001","72.58","0.0","0.0"],
    [1501311,"2026-01-05 06:50:00","47808","4.656000000000001","293.1","6.9910000000000005","282.4","1008.294","5.399","72.03","0.0","0.0"],
    [1501312,"2026-01-05 07:00:00","47809","5.007","288.5","6.631","301.8","1008.358","5.327000000000001","71.92","0.0","0.0"],
    [1501313,"2026-01-05 07:10:00","47810","4.566","289.5","6.501","289.8","1008.457","5.336","72.21","0.20199999999999999","0.0"],
    [1501314,"2026-01-05 07:20:00","47811","4.346","286.7","6.599","291.5","1008.576","5.227","72.47","1.246","0.0"],
    [1501315,"2026-01-05 07:30:00","47812","3.8489999999999998","286.0","5.651","304.0","1008.636","5.197","73.36","2.8689999999999998","0.0"],
    [1501316,"2026-01-05 07:40:00","47813","3.7310000000000003","281.7","5.227","288.4","1008.692","5.162000000000001","74.04","11.7","0.0"],
    [1501317,"2026-01-05 07:50:00","47814","3.4760000000000004","285.0","5.39","281.4","1008.798","5.196000000000001","74.54","21.32","0.0"],
    [1501318,"2026-01-05 08:00:00","47815","3.137","284.5","5.422999999999999","285.4","1008.93","5.193","74.93","30.56","0.0"],
    [1501319,"2026-01-05 08:10:00","47816","3.0869999999999997","285.6","4.769","279.9","1008.928","5.269","75.37","42.22","0.0"],
    [1501320,"2026-01-05 08:20:00","47817","2.747","281.3","4.1160000000000005","280.5","1009.003","5.311","75.32","44.45","0.0"],
    [1501321,"2026-01-05 08:30:00","47818","2.427","283.3","4.638999999999999","303.0","1009.124","5.402","75.14","54.1","0.0"],
    [1501322,"2026-01-05 08:40:00","47819","2.372","287.3","3.397","297.2","1009.249","5.468999999999999","74.88","60.83","0.0"],
    [1501323,"2026-01-05 08:50:00","47820","2.863","288.2","4.508","310.3","1009.203","5.422999999999999","74.76","63.73","0.0"],
    [1501324,"2026-01-05 09:00:00","47821","3.511","288.5","5.063","307.7","1009.218","5.355","74.83","68.5","0.0"],
    [1501325,"2026-01-05 09:10:00","47822","3.659","287.4","5.129","299.8","1009.278","5.235","75.24","65.12","0.0"],
    [1501326,"2026-01-05 09:20:00","47823","3.463","283.9","4.965","281.0","1009.368","5.204","75.17","67.76","0.0"],
    [1501327,"2026-01-05 09:30:00","47824","3.002","286.2","4.41","277.5","1009.509","5.234","75.15","69.75","0.0"],
    [1501328,"2026-01-05 09:40:00","47825","3.2680000000000002","286.1","4.541","291.7","1009.556","5.3","74.94","79.35","0.0"],
    [1501329,"2026-01-05 09:50:00","47826","4.138","288.2","5.521","294.9","1009.635","5.141","74.42","89.5","0.0"],
    [1501330,"2026-01-05 10:00:00","47827","3.9210000000000003","307.2","6.631","316.6","1009.641","5.475","74.36","106.6","0.0"],
    [1501331,"2026-01-05 10:10:00","47828","5.1739999999999995","317.6","7.285","321.3","1009.664","5.436","73.95","126.7","0.0"],
    [1501332,"2026-01-05 10:20:00","47829","4.405","314.4","7.252000000000001","311.8","1009.705","5.517","73.91","139.9","0.0"],
    [1501333,"2026-01-05 10:30:00","47830","3.4330000000000003","305.6","6.337000000000001","317.1","1009.892","5.48","73.15","128.4","0.0"],
    [1501334,"2026-01-05 10:40:00","47831","2.804","307.6","4.704","319.6","1009.938","5.682","72.36","111.3","0.0"],
    [1501335,"2026-01-05 10:50:00","47832","1.996","302.5","3.985","319.2","1009.8","5.836","71.65","106.5","0.0"],
    [1501336,"2026-01-05 11:00:00","47833","2.8289999999999997","296.8","4.475","296.0","1009.696","5.778","70.46","115.6","0.0"],
    [1501337,"2026-01-05 11:10:00","47834","2.535","288.9","3.6910000000000003","304.2","1009.665","5.971","69.73","120.6","0.0"],
    [1501338,"2026-01-05 11:20:00","47835","2.8539999999999996","278.3","3.985","279.2","1009.513","6.254","69.59","121.2","0.0"],
    [1501339,"2026-01-05 11:30:00","47836","3.247","285.5","4.377","283.4","1009.359","6.153","70.17","110.3","0.0"],
    [1501340,"2026-01-05 11:40:00","47837","3.137","287.4","4.475","287.7","1009.289","6.229","70.61","111.8","0.0"],
    [1501341,"2026-01-05 11:50:00","47838","3.109","286.3","4.279","296.7","1009.13","6.374","70.94","100.8","0.0"],
    [1501342,"2026-01-05 12:00:00","47839","2.702","278.7","4.051","303.0","1008.976","6.476","70.82","99.0","0.0"],
    [1501343,"2026-01-05 12:10:00","47840","1.724","266.5","3.299","284.2","1008.858","6.643","72.26","100.6","0.0"],
    [1501344,"2026-01-05 12:20:00","47841","2.739","265.2","4.671","264.2","1008.797","6.489","73.07","118.8","0.0"],
    [1501345,"2026-01-05 12:30:00","47842","3.4589999999999996","273.4","4.835","269.4","1008.68","6.421","73.92","136.3","0.0"],
    [1501346,"2026-01-05 12:40:00","47843","3.385","263.6","6.011","266.6","1008.573","6.562","74.48","138.2","0.0"],
    [1501347,"2026-01-05 12:50:00","47844","3.2460000000000004","260.1","5.1610000000000005","261.9","1008.398","6.388","75.06","136.3","0.0"],
    [1501348,"2026-01-05 13:00:00","47845","3.641","256.2","6.239","253.2","1008.386","6.011","75.43","139.1","0.0"],
    [1501349,"2026-01-05 13:10:00","47846","4.234","283.1","6.501","289.9","1008.402","5.931","75.84","92.1","0.0"],
    [1501350,"2026-01-05 13:20:00","47847","4.834","286.4","6.893","276.7","1008.242","5.752000000000001","75.38","80.6","0.0"],
    [1501351,"2026-01-05 13:30:00","47848","4.297","283.2","6.729","304.4","1008.365","5.944","74.09","67.42","0.0"],
    [1501352,"2026-01-05 13:40:00","47849","3.451","285.7","4.573","297.8","1008.184","6.155","73.04","78.03","0.0"],
    [1501353,"2026-01-05 13:50:00","47850","4.074","279.2","6.697","280.8","1008.268","6.172000000000001","71.98","77.95","0.0"],
    [1501354,"2026-01-05 14:00:00","47851","5.122999999999999","282.8","6.893","287.6","1008.455","5.916","71.13","61.76","0.0"],
    [1501355,"2026-01-05 14:10:00","47852","4.4430000000000005","289.0","6.272","293.5","1008.572","5.909","71.17","63.99","0.0"],
    [1501356,"2026-01-05 14:20:00","47853","4.688","296.1","6.664","317.1","1008.646","5.821000000000001","71.11","57.58","0.0"],
    [1501357,"2026-01-05 14:30:00","47854","4.569","293.5","6.5329999999999995","297.2","1008.644","5.8389999999999995","70.45","49.59","0.0"],
    [1501358,"2026-01-05 14:40:00","47855","4.2010000000000005","295.0","6.795","297.1","1008.616","5.97","69.32","46.51","0.0"],
    [1501359,"2026-01-05 14:50:00","47856","3.803","288.1","6.305","308.4","1008.666","6.111000000000001","68.38","36.44","0.0"],
    [1501360,"2026-01-05 15:00:00","47857","3.5580000000000003","294.2","6.305","308.4","1008.621","6.32","67.92","45.31","0.0"],
    [1501361,"2026-01-05 15:10:00","47858","3.4560000000000004","303.0","5.586","313.1","1008.672","6.685","68.06","56.83","0.0"],
    [1501362,"2026-01-05 15:20:00","47859","3.2260000000000004","307.1","5.292000000000001","313.1","1008.755","6.785","68.3","65.26","0.0"],
    [1501363,"2026-01-05 15:30:00","47860","3.3280000000000003","292.8","4.41","307.7","1008.766","6.641","67.79","55.38","0.0"],
    [1501364,"2026-01-05 15:40:00","47861","3.4389999999999996","293.0","4.9","301.0","1008.784","6.636","67.32","37.78","0.0"],
    [1501365,"2026-01-05 15:50:00","47862","4.194","287.7","5.4879999999999995","289.9","1008.822","6.452999999999999","66.43","25.77","0.0"],
    [1501366,"2026-01-05 16:00:00","47863","4.079","287.4","6.042999999999999","293.4","1008.863","6.263","66.82","17.12","0.0"],
    [1501367,"2026-01-05 16:10:00","47864","4.058","287.5","5.292000000000001","285.7","1008.87","6.138999999999999","67.2","10.25","0.0"],
    [1501368,"2026-01-05 16:20:00","47865","3.8960000000000004","289.5","5.978","281.2","1008.879","6.07","67.72","5.196000000000001","0.0"],
    [1501369,"2026-01-05 16:30:00","47866","3.825","290.1","5.815","286.3","1008.874","5.994","67.93","3.0869999999999997","0.0"],
    [1501370,"2026-01-05 16:40:00","47867","4.013999999999999","287.1","5.7170000000000005","272.7","1008.886","5.85","68.36","1.357","0.0"],
    [1501371,"2026-01-05 16:50:00","47868","4.06","290.2","6.0760000000000005","302.3","1008.905","5.797000000000001","68.86","0.225","0.0"],
    [1501372,"2026-01-05 17:00:00","47869","4.387","288.1","6.305","286.5","1008.886","5.69","68.78","0.0","0.0"],
    [1501373,"2026-01-05 17:10:00","47870","4.324","289.8","6.599","284.9","1008.925","5.651","68.58","0.0","0.0"],
    [1501374,"2026-01-05 17:20:00","47871","4.005","292.1","5.782","296.4","1008.918","5.735","68.49","0.0","0.0"],
    [1501375,"2026-01-05 17:30:00","47872","3.653","291.8","5.194","286.9","1008.921","5.775","68.39","0.0","0.0"],
    [1501376,"2026-01-05 17:40:00","47873","3.968","286.0","5.684","290.9","1008.912","5.707000000000001","67.6","0.0","0.0"],
    [1501377,"2026-01-05 17:50:00","47874","3.952","286.8","5.4879999999999995","273.6","1008.901","5.688","67.43","0.0","0.0"],
    [1501378,"2026-01-05 18:00:00","47875","4.029","288.5","5.521","303.2","1008.853","5.813","66.68","0.0","0.0"],
    [1501379,"2026-01-05 18:10:00","47876","3.266","288.3","5.063","287.5","1008.846","5.893","65.72","0.0","0.0"],
    [1501380,"2026-01-05 18:20:00","47877","3.028","286.0","4.312","291.3","1008.842","5.935","65.3","0.0","0.0"],
    [1501381,"2026-01-05 18:30:00","47878","2.69","281.5","3.7239999999999998","269.2","1008.97","5.933","65.32","0.0","0.0"],
    [1501382,"2026-01-05 18:40:00","47879","2.102","288.3","3.071","282.1","1009.083","5.952999999999999","65.62","0.0","0.0"],
    [1501383,"2026-01-05 18:50:00","47880","2.364","288.5","3.332","285.3","1009.185","6.093","65.63","0.0","0.0"],
    [1501384,"2026-01-05 19:00:00","47881","2.142","296.3","3.463","292.4","1009.361","6.242999999999999","64.97","0.0","0.0"],
    [1501385,"2026-01-05 19:10:00","47882","2.376","307.2","4.083","317.0","1009.488","6.456","64.83","0.0","0.0"],
    [1501386,"2026-01-05 19:20:00","47883","3.509","294.0","5.2589999999999995","300.9","1009.505","6.155","63.95","0.0","0.0"],
    [1501387,"2026-01-05 19:30:00","47884","3.715","291.5","5.782","299.4","1009.537","6.199","62.71","0.0","0.0"],
    [1501388,"2026-01-05 19:40:00","47885","2.6189999999999998","280.6","3.9530000000000003","283.5","1009.608","6.218999999999999","62.5","0.0","0.0"],
    [1501389,"2026-01-05 19:50:00","47886","2.78","277.2","3.6260000000000003","276.6","1009.634","6.132999999999999","62.55","0.0","0.0"],
    [1501390,"2026-01-05 20:00:00","47887","2.615","272.3","3.5610000000000004","260.6","1009.669","6.172000000000001","62.22","0.0","0.0"],
    [1501391,"2026-01-05 20:10:00","47888","2.64","270.7","4.149","270.5","1009.759","6.024","63.25","0.0","0.0"],
    [1501392,"2026-01-05 20:20:00","47889","3.264","278.4","4.9","276.2","1009.622","5.916","63.66","0.0","0.0"],
    [1501393,"2026-01-05 20:30:00","47890","2.76","276.1","3.659","274.0","1009.59","5.966","63.1","0.0","0.0"],
    [1501394,"2026-01-05 20:40:00","47891","2.303","268.9","3.234","263.1","1009.568","5.8839999999999995","63.32","0.0","0.0"],
    [1501395,"2026-01-05 20:50:00","47892","2.622","278.0","3.7239999999999998","272.5","1009.473","5.992000000000001","63.3","0.0","0.0"],
    [1501396,"2026-01-05 21:00:00","47893","2.541","287.1","4.312","278.2","1009.518","6.1160000000000005","61.99","0.0","0.0"],
    [1501397,"2026-01-05 21:10:00","47894","2.406","292.6","3.7569999999999997","313.8","1009.57","6.252000000000001","61.57","0.0","0.0"],
    [1501398,"2026-01-05 21:20:00","47895","2.6439999999999997","288.6","3.985","282.3","1009.61","6.324","61.03","0.0","0.0"],
    [1501399,"2026-01-05 21:30:00","47896","2.677","277.2","3.855","269.6","1009.631","6.0920000000000005","61.56","0.0","0.0"],
    [1501400,"2026-01-05 21:40:00","47897","3.0380000000000003","284.0","4.181","283.3","1009.559","6.074","61.95","0.0","0.0"],
    [1501401,"2026-01-05 21:50:00","47898","2.681","280.4","3.855","272.1","1009.618","6.167999999999999","61.98","0.0","0.0"],
    [1501402,"2026-01-05 22:00:00","47899","2.81","275.1","3.855","281.5","1009.718","5.994","62.6","0.0","0.0"],
    [1501403,"2026-01-05 22:10:00","47900","3.153","289.9","4.149","279.7","1009.7","5.999","62.92","0.0","0.0"],
    [1501404,"2026-01-05 22:20:00","47901","2.839","288.1","4.475","305.5","1009.724","6.215","62.68","0.0","0.0"],
    [1501405,"2026-01-05 22:30:00","47902","2.889","276.4","3.985","287.0","1009.87","6.074","62.04","0.0","0.0"],
    [1501406,"2026-01-05 22:40:00","47903","2.725","277.3","3.7889999999999997","279.8","1009.896","5.96","62.67","0.0","0.0"],
    [1501407,"2026-01-05 22:50:00","47904","3.1839999999999997","273.4","4.769","275.7","1009.958","5.767","63.02","0.0","0.0"],
    [1501408,"2026-01-05 23:00:00","47905","2.733","282.6","3.9530000000000003","277.4","1009.988","5.865","63.1","0.0","0.0"],
    [1501409,"2026-01-05 23:10:00","47906","3.3110000000000004","282.1","4.508","276.0","1010.065","5.862","62.95","0.0","0.0"],
    [1501410,"2026-01-05 23:20:00","47907","3.0269999999999997","283.6","4.279","288.2","1010.128","5.916","62.56","0.0","0.0"],
    [1501411,"2026-01-05 23:30:00","47908","2.9130000000000003","288.6","4.051","284.0","1010.083","5.851","62.79","0.0","0.0"],
    [1501412,"2026-01-05 23:40:00","47909","2.69","287.9","4.1160000000000005","284.9","1009.994","5.8870000000000005","63.01","0.0","0.0"],
    [1501413,"2026-01-05 23:50:00","47910","3.0860000000000003","279.5","4.083","275.8","1009.896","5.61","63.21","0.0","0.0"],
    [1501414,"2026-01-06 00:00:00","47911","2.8930000000000002","293.9","4.933","328.1","1009.854","5.577000000000001","64.23","0.0","0.0"],
    [1501415,"2026-01-06 00:10:00","47912","2.9189999999999996","294.8","5.325","307.0","1009.749","5.874","63.95","0.0","0.0"],
    [1501416,"2026-01-06 00:20:00","47913","2.891","266.4","3.92","285.9","1009.667","5.4079999999999995","63.79","0.0","0.0"],
    [1501417,"2026-01-06 00:30:00","47914","2.665","270.4","3.985","260.7","1009.678","5.038","65.89","0.0","0.0"],
    [1501418,"2026-01-06 00:40:00","47915","2.7689999999999997","272.8","4.149","271.3","1009.683","5.03","66.56","0.0","0.0"],
    [1501419,"2026-01-06 00:50:00","47916","2.9819999999999998","281.4","4.149","289.3","1009.746","5.098","66.6","0.0","0.0"],
    [1501420,"2026-01-06 01:00:00","47917","3.676","290.6","5.4879999999999995","287.7","1009.856","5.012","66.5","0.0","0.0"],
    [1501421,"2026-01-06 01:10:00","47918","4.546","288.9","6.468","295.1","1009.834","4.6739999999999995","67.18","0.0","0.0"],
    [1501422,"2026-01-06 01:20:00","47919","4.364","285.2","8.07","284.3","1009.851","4.511","68.17","0.0","0.0"],
    [1501423,"2026-01-06 01:30:00","47920","4.768","289.6","6.599","273.8","1009.734","4.415","68.41","0.0","0.0"],
    [1501424,"2026-01-06 01:40:00","47921","4.757","287.3","6.435","281.0","1009.753","4.381","68.86","0.0","0.0"],
    [1501425,"2026-01-06 01:50:00","47922","4.367","279.8","6.468","286.2","1009.782","4.257","69.12","0.0","0.0"],
    [1501426,"2026-01-06 02:00:00","47923","4.502","286.3","6.37","289.0","1009.91","4.105","69.63","0.0","0.0"],
    [1501427,"2026-01-06 02:10:00","47924","4.059","284.6","6.5329999999999995","285.2","1010.034","3.91","70.55","0.0","0.0"],
    [1501428,"2026-01-06 02:20:00","47925","4.166","288.6","6.5329999999999995","284.2","1010.066","3.7969999999999997","71.3","0.0","0.0"],
    [1501429,"2026-01-06 02:30:00","47926","3.897","288.7","5.782","286.6","1010.198","3.727","71.63","0.0","0.0"],
    [1501430,"2026-01-06 02:40:00","47927","4.915","287.1","7.415","296.4","1010.156","3.6689999999999996","71.93","0.0","0.0"],
    [1501431,"2026-01-06 02:50:00","47928","6.2410000000000005","287.6","8.98","290.8","1009.936","3.6319999999999997","71.77","0.0","0.0"],
    [1501432,"2026-01-06 03:00:00","47929","6.532","283.6","8.79","310.9","1009.825","3.555","71.24","0.0","0.0"],
    [1501433,"2026-01-06 03:10:00","47930","5.888999999999999","285.6","8.75","282.9","1009.798","3.486","71.64","0.0","0.0"],
    [1501434,"2026-01-06 03:20:00","47931","6.468","284.5","9.54","289.9","1009.694","3.431","71.48","0.0","0.0"],
    [1501435,"2026-01-06 03:30:00","47932","7.188","284.9","9.51","278.1","1009.542","3.2460000000000004","71.08","0.0","0.0"],
    [1501436,"2026-01-06 03:40:00","47933","6.27","287.0","8.36","282.2","1009.573","3.298","69.77","0.0","0.0"],
    [1501437,"2026-01-06 03:50:00","47934","5.199","292.4","7.35","297.7","1009.662","3.377","69.11","0.0","0.0"],
    [1501438,"2026-01-06 04:00:00","47935","5.669","291.4","8.79","282.3","1009.703","3.5069999999999997","68.16","0.0","0.0"],
    [1501439,"2026-01-06 04:10:00","47936","6.776","289.0","8.75","290.8","1009.548","3.41","66.45","0.0","0.0"],
    [1501440,"2026-01-06 04:20:00","47937","6.388","288.2","8.04","286.3","1009.548","3.24","66.57","0.0","0.0"],
    [1501441,"2026-01-06 04:30:00","47938","5.071000000000001","292.7","6.86","289.2","1009.582","3.487","66.15","0.0","0.0"],
    [1501442,"2026-01-06 04:40:00","47939","5.051","291.1","6.468","284.7","1009.667","3.5589999999999997","65.03","0.0","0.0"],
    [1501443,"2026-01-06 04:50:00","47940","4.495","290.0","5.782","300.0","1009.741","3.4810000000000003","64.26","0.0","0.0"],
    [1501444,"2026-01-06 05:00:00","47941","3.891","288.0","5.553","297.5","1009.798","3.508","63.31","0.0","0.0"],
    [1501445,"2026-01-06 05:10:00","47942","2.885","281.4","4.9","286.2","1009.725","3.44","63.36","0.0","0.0"],
    [1501446,"2026-01-06 05:20:00","47943","2.427","285.9","4.083","292.6","1009.739","3.406","63.92","0.0","0.0"],
    [1501447,"2026-01-06 05:30:00","47944","2.915","292.1","4.181","290.0","1009.797","3.5589999999999997","63.49","0.0","0.0"],
    [1501448,"2026-01-06 05:40:00","47945","2.6710000000000003","286.1","3.659","293.2","1009.814","3.5039999999999996","61.89","0.0","0.0"],
    [1501449,"2026-01-06 05:50:00","47946","3.073","287.3","4.41","306.0","1009.753","3.545","61.41","0.0","0.0"],
    [1501450,"2026-01-06 06:00:00","47947","2.455","290.1","3.6260000000000003","299.0","1009.81","3.6239999999999997","61.49","0.0","0.0"],
    [1501451,"2026-01-06 06:10:00","47948","2.333","289.1","3.1689999999999996","290.1","1009.875","3.533","61.15","0.0","0.0"],
    [1501452,"2026-01-06 06:20:00","47949","2.122","295.2","2.94","291.0","1010.047","3.728","61.26","0.0","0.0"],
    [1501453,"2026-01-06 06:30:00","47950","2.27","291.3","3.365","278.0","1010.122","3.727","61.22","0.0","0.0"],
    [1501454,"2026-01-06 06:40:00","47951","2.56","292.7","3.528","285.6","1010.182","3.595","60.95","0.0","0.0"],
    [1501455,"2026-01-06 06:50:00","47952","1.858","283.6","2.875","278.3","1010.345","3.472","60.44","0.0","0.0"],
    [1501456,"2026-01-06 07:00:00","47953","2.841","294.4","4.541","307.8","1010.436","3.667","59.65","0.0","0.0"],
    [1501457,"2026-01-06 07:10:00","47954","2.793","290.7","4.051","304.0","1010.57","3.713","58.24","0.0","0.0"],
    [1501458,"2026-01-06 07:20:00","47955","2.844","297.5","4.279","291.7","1010.746","3.6919999999999997","57.65","1.287","0.0"],
    [1501459,"2026-01-06 07:30:00","47956","3.5439999999999996","307.1","5.619","289.4","1010.78","3.972","57.99","7.568","0.0"],
    [1501460,"2026-01-06 07:40:00","47957","3.344","296.6","5.325","292.1","1010.742","3.78","56.6","8.38","0.0"],
    [1501461,"2026-01-06 07:50:00","47958","2.773","302.6","4.41","312.8","1010.832","3.8280000000000003","56.52","13.7","0.0"],
    [1501462,"2026-01-06 08:00:00","47959","3.1510000000000002","290.5","5.39","286.8","1010.826","3.7760000000000002","56.28","35.89","0.0"],
    [1501463,"2026-01-06 08:10:00","47960","3.623","288.7","4.965","285.1","1010.821","3.8369999999999997","55.86","70.77","0.0"],
    [1501464,"2026-01-06 08:20:00","47961","2.371","283.3","3.855","285.0","1011.019","4.031000000000001","55.72","122.8","0.0"],
    [1501465,"2026-01-06 08:30:00","47962","2.1430000000000002","274.4","3.267","284.2","1011.166","3.875","57.19","146.5","0.0"],
    [1501466,"2026-01-06 08:40:00","47963","2.8510000000000004","289.8","4.606","284.6","1011.318","4.197","56.28","165.1","0.0"],
    [1501467,"2026-01-06 08:50:00","47964","2.929","292.8","4.083","288.6","1011.404","4.548","54.64","200.4","0.0"],
    [1501468,"2026-01-06 09:00:00","47965","2.488","289.9","4.345","305.0","1011.571","4.755","53.63","226.5","0.0"],
    [1501469,"2026-01-06 09:10:00","47966","2.421","297.1","3.92","304.0","1011.664","4.986000000000001","53.67","254.1","0.0"],
    [1501470,"2026-01-06 09:20:00","47967","2.551","289.1","3.528","279.5","1011.79","5.182","52.7","279.8","0.0"],
    [1501471,"2026-01-06 09:30:00","47968","2.594","285.5","3.6260000000000003","291.4","1011.883","5.5","50.79","303.4","0.0"],
    [1501472,"2026-01-06 09:40:00","47969","2.6830000000000003","291.8","3.855","285.2","1011.964","5.897","49.21","324.4","0.0"],
    [1501473,"2026-01-06 09:50:00","47970","2.909","299.3","4.2139999999999995","287.6","1012.057","6.11","48.22","346.0","0.0"],
    [1501474,"2026-01-06 10:00:00","47971","2.719","301.6","4.051","298.3","1012.139","6.367000000000001","46.88","365.5","0.0"],
    [1501475,"2026-01-06 10:10:00","47972","2.71","289.7","4.051","298.6","1012.269","6.622999999999999","45.73","384.3","0.0"],
    [1501476,"2026-01-06 10:20:00","47973","2.322","261.6","3.9530000000000003","262.7","1012.307","6.678999999999999","46.92","401.7","0.0"],
    [1501477,"2026-01-06 10:30:00","47974","2.72","270.2","4.345","264.6","1012.325","6.803","48.47","419.7","0.0"],
    [1501478,"2026-01-06 10:40:00","47975","3.463","275.2","4.867","271.3","1012.316","6.916","47.46","435.2","0.0"],
    [1501479,"2026-01-06 10:50:00","47976","3.617","278.7","4.965","273.7","1012.291","6.939","46.94","447.5","0.0"],
    [1501480,"2026-01-06 11:00:00","47977","3.49","276.8","4.638999999999999","275.7","1012.249","7.15","45.89","457.3","0.0"],
    [1501481,"2026-01-06 11:10:00","47978","3.388","281.9","4.606","267.5","1012.192","7.401","44.92","466.7","0.0"],
    [1501482,"2026-01-06 11:20:00","47979","3.597","306.2","5.945","302.5","1012.129","7.921","42.45","474.1","0.0"],
    [1501483,"2026-01-06 11:30:00","47980","3.7489999999999997","304.0","5.651","315.3","1012.045","7.989","39.5","480.4","0.0"],
    [1501484,"2026-01-06 11:40:00","47981","3.173","298.1","5.2589999999999995","322.0","1011.993","8.11","38.45","483.4","0.0"],
    [1501485,"2026-01-06 11:50:00","47982","3.325","305.5","4.475","306.7","1011.95","8.25","38.78","485.4","0.0"],
    [1501486,"2026-01-06 12:00:00","47983","2.846","295.1","4.051","314.1","1011.809","8.5","40.3","485.7","0.0"],
    [1501487,"2026-01-06 12:10:00","47984","2.97","283.6","4.279","281.0","1011.736","8.42","41.27","485.2","0.0"],
    [1501488,"2026-01-06 12:20:00","47985","2.862","271.0","4.737","260.4","1011.648","8.55","41.15","483.5","0.0"],
    [1501489,"2026-01-06 12:30:00","47986","3.591","274.5","5.031000000000001","278.6","1011.625","8.41","40.27","480.0","0.0"],
    [1501490,"2026-01-06 12:40:00","47987","2.888","272.8","4.475","283.0","1011.516","8.59","40.34","474.2","0.0"],
    [1501491,"2026-01-06 12:50:00","47988","2.636","278.7","3.7239999999999998","273.0","1011.396","8.87","39.5","468.4","0.0"],
    [1501492,"2026-01-06 13:00:00","47989","1.8219999999999998","270.4","2.9730000000000003","274.1","1011.337","9.31","39.62","461.8","0.0"],
    [1501493,"2026-01-06 13:10:00","47990","2.117","264.4","3.528","256.9","1011.269","9.49","38.61","441.4","0.0"],
    [1501494,"2026-01-06 13:20:00","47991","2.51","255.2","4.704","252.8","1011.263","9.37","37.78","351.2","0.0"],
    [1501495,"2026-01-06 13:30:00","47992","3.1839999999999997","268.1","4.606","281.8","1011.2","9.36","37.37","468.3","0.0"],
    [1501496,"2026-01-06 13:40:00","47993","3.282","274.1","4.704","278.2","1011.247","9.43","36.89","445.8","0.0"],
    [1501497,"2026-01-06 13:50:00","47994","3.605","277.1","4.835","267.6","1011.268","9.05","37.23","315.4","0.0"],
    [1501498,"2026-01-06 14:00:00","47995","3.3680000000000003","277.9","4.573","277.5","1011.364","9.08","37.88","368.0","0.0"],
    [1501499,"2026-01-06 14:10:00","47996","3.8539999999999996","276.9","5.096","265.8","1011.335","9.01","38.59","363.7","0.0"],
    [1501500,"2026-01-06 14:20:00","47997","3.972","285.7","5.194","288.4","1011.417","8.93","40.33","314.4","0.0"],
    [1501501,"2026-01-06 14:30:00","47998","4.418","281.8","6.109","287.0","1011.497","8.91","41.7","275.0","0.0"],
    [1501502,"2026-01-06 14:40:00","47999","4.332","283.1","6.042999999999999","279.1","1011.542","8.8","43.14","226.3","0.0"],
    [1501503,"2026-01-06 14:50:00","48000","4.0969999999999995","286.7","5.619","281.8","1011.601","8.67","44.05","244.3","0.0"],
    [1501504,"2026-01-06 15:00:00","48001","3.965","295.0","5.978","308.0","1011.69","8.69","44.35","232.3","0.0"],
    [1501505,"2026-01-06 15:10:00","48002","4.254","289.3","6.011","302.7","1011.753","8.58","44.47","189.0","0.0"],
    [1501506,"2026-01-06 15:20:00","48003","3.883","291.7","6.042999999999999","295.5","1011.83","8.61","44.9","189.4","0.0"],
    [1501507,"2026-01-06 15:30:00","48004","3.812","286.2","5.651","293.7","1011.895","8.54","45.11","161.1","0.0"],
    [1501508,"2026-01-06 15:40:00","48005","3.884","282.9","5.455","277.6","1011.933","8.33","45.74","133.6","0.0"],
    [1501509,"2026-01-06 15:50:00","48006","4.04","295.4","6.109","301.9","1011.993","8.27","46.35","81.5","0.0"],
    [1501510,"2026-01-06 16:00:00","48007","3.9139999999999997","296.1","5.945","294.0","1012.096","8.06","47.38","23.23","0.0"],
    [1501511,"2026-01-06 16:10:00","48008","3.1639999999999997","284.1","4.998","290.6","1012.196","7.987","47.91","18.4","0.0"],
    [1501512,"2026-01-06 16:20:00","48009","4.637","283.0","7.709","285.0","1012.264","7.789","48.49","13.44","0.0"],
    [1501513,"2026-01-06 16:30:00","48010","4.271","290.8","6.729","285.7","1012.417","7.636","48.94","8.2","0.0"],
    [1501514,"2026-01-06 16:40:00","48011","3.5639999999999996","276.8","5.39","274.4","1012.597","7.3660000000000005","48.64","3.25","0.0"],
    [1501515,"2026-01-06 16:50:00","48012","1.8719999999999999","285.2","3.43","282.1","1012.689","7.263999999999999","48.57","0.19899999999999998","0.0"],
    [1501516,"2026-01-06 17:00:00","48013","2.6910000000000003","285.1","3.822","275.3","1012.724","7.202999999999999","48.08","0.0","0.0"],
    [1501517,"2026-01-06 17:10:00","48014","2.6180000000000003","285.7","3.7239999999999998","287.4","1012.84","7.165","48.1","0.0","0.0"],
    [1501518,"2026-01-06 17:20:00","48015","3.1830000000000003","293.1","5.292000000000001","284.3","1012.915","7.212000000000001","47.3","0.0","0.0"],
    [1501519,"2026-01-06 17:30:00","48016","3.43","281.9","5.455","294.5","1012.994","7.081","47.24","0.0","0.0"],
    [1501520,"2026-01-06 17:40:00","48017","4.349","285.4","6.403","282.7","1012.986","6.979","47.16","0.0","0.0"],
    [1501521,"2026-01-06 17:50:00","48018","3.827","277.3","6.697","282.4","1013.083","6.814","47.33","0.0","0.0"],
    [1501522,"2026-01-06 18:00:00","48019","3.194","284.0","5.455","281.6","1013.174","6.7829999999999995","47.36","0.0","0.0"],
    [1501523,"2026-01-06 18:10:00","48020","2.6639999999999997","291.3","4.508","307.6","1013.422","6.817","46.59","0.0","0.0"],
    [1501524,"2026-01-06 18:20:00","48021","2.6239999999999997","301.3","4.9","308.6","1013.618","6.92","45.96","0.0","0.0"],
    [1501525,"2026-01-06 18:30:00","48022","2.8789999999999996","339.1","5.749","346.8","1013.761","7.252000000000001","44.29","0.0","0.0"],
    [1501526,"2026-01-06 18:40:00","48023","4.547","331.3","7.775","315.9","1013.845","7.269","42.75","0.0","0.0"],
    [1501527,"2026-01-06 18:50:00","48024","3.9560000000000004","316.6","6.435","313.9","1013.969","7.3629999999999995","44.82","0.0","0.0"],
    [1501528,"2026-01-06 19:00:00","48025","0.721","301.8","2.352","313.8","1014.291","7.45","43.47","0.0","0.0"],
    [1501529,"2026-01-06 19:10:00","48026","1.031","347.6","2.613","35.55","1014.504","7.332999999999999","45.7","0.0","0.0"],
    [1501530,"2026-01-06 19:20:00","48027","3.0589999999999997","357.6","5.096","12.16","1014.581","7.303","46.96","0.0","0.0"],
    [1501531,"2026-01-06 19:30:00","48028","3.178","351.9","4.573","346.1","1014.635","7.097","46.54","0.0","0.0"],
    [1501532,"2026-01-06 19:40:00","48029","3.347","341.0","5.651","347.5","1014.753","7.369","46.37","0.0","0.0"],
    [1501533,"2026-01-06 19:50:00","48030","4.255","325.1","6.141","350.9","1014.901","7.284","46.96","0.0","0.0"],
    [1501534,"2026-01-06 20:00:00","48031","4.593","328.1","6.795","316.3","1015.026","7.371","48.24","0.0","0.0"],
    [1501535,"2026-01-06 20:10:00","48032","3.516","349.2","4.9","340.4","1015.155","7.459","48.99","0.0","0.0"],
    [1501536,"2026-01-06 20:20:00","48033","3.299","345.4","4.475","351.3","1015.159","7.426","46.72","0.0","0.0"],
    [1501537,"2026-01-06 20:30:00","48034","3.574","337.9","4.508","337.2","1015.138","7.496","46.76","0.0","0.0"],
    [1501538,"2026-01-06 20:40:00","48035","2.8689999999999998","320.8","4.018","329.9","1015.155","7.324","46.81","0.0","0.0"],
    [1501539,"2026-01-06 20:50:00","48036","2.636","317.5","3.9530000000000003","321.1","1015.259","7.24","46.26","0.0","0.0"],
    [1501540,"2026-01-06 21:00:00","48037","2.423","273.8","3.7889999999999997","267.1","1015.389","6.815","47.01","0.0","0.0"],
    [1501541,"2026-01-06 21:10:00","48038","2.454","255.4","4.1160000000000005","275.5","1015.478","6.095","49.79","0.0","0.0"],
    [1501542,"2026-01-06 21:20:00","48039","3.509","265.6","4.737","275.1","1015.53","5.803999999999999","50.65","0.0","0.0"],
    [1501543,"2026-01-06 21:30:00","48040","3.235","268.4","4.312","265.7","1015.57","5.667000000000001","51.09","0.0","0.0"],
    [1501544,"2026-01-06 21:40:00","48041","3.322","272.4","4.345","282.7","1015.565","5.6770000000000005","50.91","0.0","0.0"],
    [1501545,"2026-01-06 21:50:00","48042","3.341","274.9","4.4430000000000005","276.6","1015.604","5.861000000000001","48.72","0.0","0.0"],
    [1501546,"2026-01-06 22:00:00","48043","3.085","271.4","4.247","259.4","1015.693","5.869","46.63","0.0","0.0"],
    [1501547,"2026-01-06 22:10:00","48044","3.305","272.3","4.541","276.9","1015.725","5.941","43.64","0.0","0.0"],
    [1501548,"2026-01-06 22:20:00","48045","3.4930000000000003","276.5","5.2589999999999995","286.1","1015.747","6.019","42.46","0.0","0.0"],
    [1501549,"2026-01-06 22:30:00","48046","4.164","283.6","5.978","284.1","1015.791","6.307","39.41","0.0","0.0"],
    [1501550,"2026-01-06 22:40:00","48047","4.835","286.3","6.305","282.2","1015.776","6.497000000000001","37.37","0.0","0.0"],
    [1501551,"2026-01-06 22:50:00","48048","5.1579999999999995","285.8","6.827000000000001","282.7","1015.808","6.504","36.53","0.0","0.0"],
    [1501552,"2026-01-06 23:00:00","48049","5.356","288.3","7.513","278.8","1015.837","6.465","36.45","0.0","0.0"],
    [1501553,"2026-01-06 23:10:00","48050","5.521","290.4","7.84","303.7","1015.851","6.42","37.27","0.0","0.0"],
    [1501554,"2026-01-06 23:20:00","48051","5.831","289.0","8.13","289.7","1015.853","6.249","41.1","0.0","0.0"],
    [1501555,"2026-01-06 23:30:00","48052","5.51","287.5","7.285","294.8","1015.781","6.053","43.82","0.0","0.0"],
    [1501556,"2026-01-06 23:40:00","48053","5.178","287.1","7.4479999999999995","280.9","1015.755","5.825","46.27","0.0","0.0"],
    [1501557,"2026-01-06 23:50:00","48054","4.954","291.8","6.795","286.0","1015.69","5.752999999999999","47.18","0.0","0.0"],
    [1501558,"2026-01-07 00:00:00","48055","4.439","290.2","6.664","283.8","1015.618","5.707000000000001","46.85","0.0","0.0"],
    [1501559,"2026-01-07 00:10:00","48056","4.565","283.6","6.697","283.4","1015.649","5.601","46.72","0.0","0.0"],
    [1501560,"2026-01-07 00:20:00","48057","4.712","284.3","6.86","283.5","1015.617","5.417000000000001","48.51","0.0","0.0"],
    [1501561,"2026-01-07 00:30:00","48058","4.909","279.8","6.893","290.4","1015.556","5.199","49.34","0.0","0.0"],
    [1501562,"2026-01-07 00:40:00","48059","5.03","284.2","6.925","279.6","1015.518","4.95","51.86","0.0","0.0"],
    [1501563,"2026-01-07 00:50:00","48060","5.065","288.0","7.056","289.4","1015.473","4.921","51.9","0.0","0.0"],
    [1501564,"2026-01-07 01:00:00","48061","6.246","289.8","8.95","289.5","1015.561","4.877","50.62","0.0","0.0"],
    [1501565,"2026-01-07 01:10:00","48062","5.834","294.3","9.47","299.9","1015.612","4.611000000000001","52.5","0.0","0.0"],
    [1501566,"2026-01-07 01:20:00","48063","5.735","292.5","8.69","290.1","1015.576","4.419","52.79","0.0","0.0"],
    [1501567,"2026-01-07 01:30:00","48064","5.5920000000000005","287.7","8.33","281.4","1015.59","4.275","52.33","0.0","0.0"],
    [1501568,"2026-01-07 01:40:00","48065","5.862","288.4","9.02","289.7","1015.677","4.159","52.43","0.0","0.0"],
    [1501569,"2026-01-07 01:50:00","48066","6.147","290.0","8.79","278.6","1015.787","4.043","52.52","0.0","0.0"],
    [1501570,"2026-01-07 02:00:00","48067","5.546","293.8","8.69","281.0","1015.801","4.001","52.37","0.0","0.0"],
    [1501571,"2026-01-07 02:10:00","48068","5.343999999999999","283.4","7.807","298.2","1015.866","3.7880000000000003","53.04","0.0","0.0"],
    [1501572,"2026-01-07 02:20:00","48069","5.749","293.1","10.39","307.5","1015.901","3.85","53.05","0.0","0.0"],
    [1501573,"2026-01-07 02:30:00","48070","6.396","287.0","8.98","278.6","1015.924","3.747","52.53","0.0","0.0"],
    [1501574,"2026-01-07 02:40:00","48071","5.296","287.6","8.62","304.9","1015.989","3.7310000000000003","52.35","0.0","0.0"],
    [1501575,"2026-01-07 02:50:00","48072","6.127000000000001","294.8","10.0","280.3","1015.89","3.7430000000000003","52.02","0.0","0.0"],
    [1501576,"2026-01-07 03:00:00","48073","5.928999999999999","293.8","9.57","283.2","1015.812","3.69","51.55","0.0","0.0"],
    [1501577,"2026-01-07 03:10:00","48074","6.655","311.4","10.52","299.1","1015.782","3.858","52.81","0.0","0.0"],
    [1501578,"2026-01-07 03:20:00","48075","5.8660000000000005","312.3","10.39","319.8","1015.798","3.87","53.11","0.0","0.0"],
    [1501579,"2026-01-07 03:30:00","48076","5.702000000000001","311.5","10.03","321.7","1015.863","3.665","53.48","0.0","0.0"],
    [1501580,"2026-01-07 03:40:00","48077","6.531000000000001","308.7","9.73","317.0","1016.029","3.7039999999999997","53.1","0.0","0.0"],
    [1501581,"2026-01-07 03:50:00","48078","5.768","307.4","11.83","300.9","1016.183","3.6639999999999997","51.85","0.0","0.0"],
    [1501582,"2026-01-07 04:00:00","48079","4.58","279.4","7.35","263.0","1016.352","3.3930000000000002","51.57","0.0","0.0"],
    [1501583,"2026-01-07 04:10:00","48080","4.079","285.9","7.154","283.6","1016.46","3.2560000000000002","51.79","0.0","0.0"],
    [1501584,"2026-01-07 04:20:00","48081","4.496","294.1","7.252000000000001","280.2","1016.474","3.326","52.9","0.0","0.0"],
    [1501585,"2026-01-07 04:30:00","48082","3.827","286.4","6.337000000000001","287.6","1016.634","3.375","52.47","0.0","0.0"],
    [1501586,"2026-01-07 04:40:00","48083","3.353","295.7","5.031000000000001","273.7","1016.532","3.661","52.73","0.0","0.0"],
    [1501587,"2026-01-07 04:50:00","48084","3.3169999999999997","297.8","4.638999999999999","299.8","1016.368","3.786","53.4","0.0","0.0"],
    [1501588,"2026-01-07 05:00:00","48085","3.57","293.4","5.749","284.9","1016.314","3.5860000000000003","52.72","0.0","0.0"],
    [1501589,"2026-01-07 05:10:00","48086","4.495","297.3","6.566","300.3","1016.235","3.5439999999999996","52.58","0.0","0.0"],
    [1501590,"2026-01-07 05:20:00","48087","4.956","297.9","7.187","313.6","1016.118","3.654","52.75","0.0","0.0"],
    [1501591,"2026-01-07 05:30:00","48088","5.392","306.7","7.35","299.6","1016.159","3.659","53.89","0.0","0.0"],
    [1501592,"2026-01-07 05:40:00","48089","5.831","319.7","7.775","317.1","1016.324","3.697","55.08","0.0","0.0"],
    [1501593,"2026-01-07 05:50:00","48090","6.327999999999999","316.1","9.31","317.7","1016.586","3.554","55.49","0.0","0.0"],
    [1501594,"2026-01-07 06:00:00","48091","6.805","318.2","9.05","321.9","1016.783","3.378","55.32","0.0","0.0"],
    [1501595,"2026-01-07 06:10:00","48092","7.907","332.8","10.32","328.2","1017.06","3.358","55.27","0.0","0.0"],
    [1501596,"2026-01-07 06:20:00","48093","8.27","327.3","10.85","337.6","1017.057","3.54","53.75","0.0","0.0"],
    [1501597,"2026-01-07 06:30:00","48094","7.57","316.8","10.16","311.4","1016.953","3.636","52.73","0.0","0.0"],
    [1501598,"2026-01-07 06:40:00","48095","7.497000000000001","309.5","10.16","311.7","1016.88","3.654","53.77","0.0","0.0"],
    [1501599,"2026-01-07 06:50:00","48096","7.483","309.7","10.71","308.0","1016.959","3.563","53.4","0.0","0.0"],
    [1501600,"2026-01-07 07:00:00","48097","4.9","287.8","7.971","303.6","1017.136","3.1860000000000004","51.26","0.0","0.0"],
    [1501601,"2026-01-07 07:10:00","48098","4.394","281.4","7.742000000000001","305.7","1017.201","3.2489999999999997","50.49","0.0","0.0"],
    [1501602,"2026-01-07 07:20:00","48099","3.0469999999999997","252.8","5.031000000000001","254.8","1017.347","2.87","51.57","1.538","0.0"],
    [1501603,"2026-01-07 07:30:00","48100","1.9409999999999998","255.0","4.606","244.1","1017.399","2.927","52.42","10.31","0.0"],
    [1501604,"2026-01-07 07:40:00","48101","1.916","258.8","3.855","253.2","1017.519","3.3810000000000002","50.85","22.19","0.0"],
    [1501605,"2026-01-07 07:50:00","48102","2.79","301.7","5.945","316.8","1017.591","4.031000000000001","48.83","41.48","0.0"],
    [1501606,"2026-01-07 08:00:00","48103","4.144","314.8","6.403","312.8","1017.76","4.183","49.64","67.89","0.0"],
    [1501607,"2026-01-07 08:10:00","48104","4.551","310.1","8.17","319.3","1017.856","4.093999999999999","49.25","96.5","0.0"],
    [1501608,"2026-01-07 08:20:00","48105","2.56","288.4","3.985","302.5","1017.916","4.041","47.93","123.3","0.0"],
    [1501609,"2026-01-07 08:30:00","48106","3.154","290.3","5.945","295.2","1018.021","4.2219999999999995","45.83","152.3","0.0"],
    [1501610,"2026-01-07 08:40:00","48107","5.184","292.4","7.807","286.3","1017.859","4.107","44.47","181.6","0.0"],
    [1501611,"2026-01-07 08:50:00","48108","4.621","296.1","6.468","298.8","1017.781","4.111000000000001","45.22","207.9","0.0"],
    [1501612,"2026-01-07 09:00:00","48109","3.423","286.1","5.553","277.9","1017.996","4.266","44.83","232.7","0.0"],
    [1501613,"2026-01-07 09:10:00","48110","1.901","278.4","3.9530000000000003","267.4","1018.189","4.446000000000001","43.37","256.8","0.0"],
    [1501614,"2026-01-07 09:20:00","48111","1.266","270.1","3.0380000000000003","256.4","1018.285","4.955","42.77","278.6","0.0"],
    [1501615,"2026-01-07 09:30:00","48112","2.153","249.6","3.7569999999999997","295.3","1018.369","4.921","41.66","303.1","0.0"],
    [1501616,"2026-01-07 09:40:00","48113","2.2880000000000003","277.4","4.018","259.3","1018.434","5.074","41.28","325.7","0.0"],
    [1501617,"2026-01-07 09:50:00","48114","2.403","273.8","3.7889999999999997","262.4","1018.548","5.165","41.57","347.3","0.0"],
    [1501618,"2026-01-07 10:00:00","48115","2.7760000000000002","307.5","4.998","321.3","1018.672","5.565","41.27","367.8","0.0"],
    [1501619,"2026-01-07 10:10:00","48116","3.832","321.2","5.2589999999999995","319.3","1018.628","5.643","39.68","390.3","0.0"],
    [1501620,"2026-01-07 10:20:00","48117","3.885","312.4","5.912999999999999","317.7","1018.492","5.942","38.3","409.0","0.0"],
    [1501621,"2026-01-07 10:30:00","48118","2.852","292.9","4.769","305.8","1018.564","6.287000000000001","36.48","423.2","0.0"],
    [1501622,"2026-01-07 10:40:00","48119","3.815","287.4","6.0760000000000005","282.7","1018.561","6.61","35.75","440.0","0.0"],
    [1501623,"2026-01-07 10:50:00","48120","4.563","291.1","6.795","280.9","1018.642","6.84","34.25","456.9","0.0"],
    [1501624,"2026-01-07 11:00:00","48121","5.099","299.0","7.709","301.6","1018.652","6.819","34.89","468.3","0.0"],
    [1501625,"2026-01-07 11:10:00","48122","5.827000000000001","310.4","8.62","319.3","1018.592","6.822","35.66","477.9","0.0"],
    [1501626,"2026-01-07 11:20:00","48123","5.277","300.5","8.13","310.0","1018.444","6.9079999999999995","36.34","484.2","0.0"],
    [1501627,"2026-01-07 11:30:00","48124","4.226","300.0","6.501","322.1","1018.402","7.03","36.73","488.4","0.0"],
    [1501628,"2026-01-07 11:40:00","48125","4.611000000000001","292.0","6.9910000000000005","290.4","1018.287","6.999","36.88","491.1","0.0"],
    [1501629,"2026-01-07 11:50:00","48126","4.657","282.7","7.6770000000000005","280.4","1018.158","6.981","37.82","494.2","0.0"],
    [1501630,"2026-01-07 12:00:00","48127","4.315","276.3","6.893","280.3","1018.053","6.917999999999999","38.29","496.4","0.0"],
    [1501631,"2026-01-07 12:10:00","48128","4.051","275.4","6.957999999999999","282.6","1017.979","7.007999999999999","38.27","496.1","0.0"],
    [1501632,"2026-01-07 12:20:00","48129","5.162999999999999","283.9","7.513","279.3","1017.823","7.135","36.87","496.6","0.0"],
    [1501633,"2026-01-07 12:30:00","48130","4.503","286.1","6.729","291.0","1017.836","7.311","36.15","491.0","0.0"],
    [1501634,"2026-01-07 12:40:00","48131","4.079","280.1","6.925","288.6","1017.858","7.4510000000000005","35.4","466.9","0.0"],
    [1501635,"2026-01-07 12:50:00","48132","3.946","295.5","6.86","296.3","1017.777","7.696000000000001","34.72","447.1","0.0"],
    [1501636,"2026-01-07 13:00:00","48133","4.4110000000000005","302.1","6.729","317.2","1017.668","8.04","33.54","404.2","0.0"],
    [1501637,"2026-01-07 13:10:00","48134","4.753","298.7","8.59","299.0","1017.514","8.27","31.17","357.1","0.0"],
    [1501638,"2026-01-07 13:20:00","48135","4.008","298.1","6.141","305.6","1017.345","8.19","31.67","269.9","0.0"],
    [1501639,"2026-01-07 13:30:00","48136","4.519","292.2","7.154","286.8","1017.24","8.09","32.32","300.8","0.0"],
    [1501640,"2026-01-07 13:40:00","48137","4.184","291.5","7.938","303.2","1017.256","7.992999999999999","33.32","337.6","0.0"],
    [1501641,"2026-01-07 13:50:00","48138","4.048","293.4","6.86","307.6","1017.235","8.05","34.63","202.5","0.0"],
    [1501642,"2026-01-07 14:00:00","48139","4.572","291.9","6.109","292.7","1017.171","7.922000000000001","34.9","249.6","0.0"],
    [1501643,"2026-01-07 14:10:00","48140","4.002","292.6","5.749","289.7","1017.09","8.2","34.71","357.5","0.0"],
    [1501644,"2026-01-07 14:20:00","48141","3.457","287.6","5.521","291.2","1017.116","8.62","34.93","334.5","0.0"],
    [1501645,"2026-01-07 14:30:00","48142","3.9130000000000003","292.5","5.586","303.1","1017.046","8.79","34.79","314.6","0.0"],
    [1501646,"2026-01-07 14:40:00","48143","4.644","290.6","6.501","294.0","1017.105","8.65","35.01","288.5","0.0"],
    [1501647,"2026-01-07 14:50:00","48144","4.066","291.7","5.88","302.4","1017.254","8.73","35.3","264.7","0.0"],
    [1501648,"2026-01-07 15:00:00","48145","4.5969999999999995","289.2","5.912999999999999","304.2","1017.332","8.62","34.98","241.9","0.0"],
    [1501649,"2026-01-07 15:10:00","48146","3.528","294.5","6.109","313.2","1017.399","8.78","35.9","217.7","0.0"],
    [1501650,"2026-01-07 15:20:00","48147","4.128","290.6","6.599","282.2","1017.466","8.63","36.28","192.4","0.0"],
    [1501651,"2026-01-07 15:30:00","48148","4.637","295.4","7.317","282.9","1017.521","8.47","37.44","166.1","0.0"],
    [1501652,"2026-01-07 15:40:00","48149","4.2330000000000005","289.5","6.239","286.1","1017.533","8.38","37.97","140.8","0.0"],
    [1501653,"2026-01-07 15:50:00","48150","3.832","289.7","6.011","288.0","1017.434","8.29","38.26","95.1","0.0"],
    [1501654,"2026-01-07 16:00:00","48151","3.384","292.2","5.651","289.5","1017.401","8.15","38.98","38.7","0.0"],
    [1501655,"2026-01-07 16:10:00","48152","3.1430000000000002","283.4","5.684","281.9","1017.408","8.01","38.92","27.13","0.0"],
    [1501656,"2026-01-07 16:20:00","48153","2.1069999999999998","272.2","5.031000000000001","287.2","1017.418","8.04","39.44","21.13","0.0"],
    [1501657,"2026-01-07 16:30:00","48154","2.6689999999999996","284.9","5.39","277.3","1017.488","8.12","39.62","12.46","0.0"],
    [1501658,"2026-01-07 16:40:00","48155","3.822","297.3","6.468","286.7","1017.51","8.23","39.97","4.325","0.0"],
    [1501659,"2026-01-07 16:50:00","48156","4.546","300.4","6.599","311.2","1017.464","8.12","40.52","1.547","0.0"],
    [1501660,"2026-01-07 17:00:00","48157","4.315","302.8","6.0760000000000005","315.5","1017.512","8.0","41.45","0.0","0.0"],
    [1501661,"2026-01-07 17:10:00","48158","3.781","297.3","5.945","301.9","1017.709","7.916","42.04","0.0","0.0"],
    [1501662,"2026-01-07 17:20:00","48159","4.425","288.0","6.631","289.5","1017.855","7.825","42.41","0.0","0.0"],
    [1501663,"2026-01-07 17:30:00","48160","4.92","282.4","7.611000000000001","282.6","1017.918","7.809","43.39","0.0","0.0"],
    [1501664,"2026-01-07 17:40:00","48161","4.543","279.4","7.154","281.3","1017.896","7.732","44.26","0.0","0.0"],
    [1501665,"2026-01-07 17:50:00","48162","5.268","281.1","8.04","282.9","1017.815","7.707000000000001","45.44","0.0","0.0"],
    [1501666,"2026-01-07 18:00:00","48163","4.399","278.8","6.664","282.4","1017.887","7.568","46.63","0.0","0.0"],
    [1501667,"2026-01-07 18:10:00","48164","3.385","264.9","6.0760000000000005","277.5","1017.961","7.447","47.29","0.0","0.0"],
    [1501668,"2026-01-07 18:20:00","48165","4.002","266.5","6.566","261.7","1017.984","7.371","47.37","0.0","0.0"],
    [1501669,"2026-01-07 18:30:00","48166","3.9419999999999997","274.6","6.664","274.2","1018.157","7.4510000000000005","47.95","0.0","0.0"],
    [1501670,"2026-01-07 18:40:00","48167","2.7239999999999998","263.4","5.357","284.7","1018.169","7.4510000000000005","48.54","0.0","0.0"],
    [1501671,"2026-01-07 18:50:00","48168","2.634","255.4","4.508","262.3","1018.368","7.608","48.57","0.0","0.0"],
    [1501672,"2026-01-07 19:00:00","48169","2.456","256.3","4.1160000000000005","260.3","1018.399","7.7589999999999995","48.63","0.0","0.0"],
    [1501673,"2026-01-07 19:10:00","48170","3.01","269.7","4.737","283.2","1018.431","7.734","49.78","0.0","0.0"],
    [1501674,"2026-01-07 19:20:00","48171","3.4739999999999998","276.4","5.945","282.1","1018.557","7.843","50.74","0.0","0.0"],
    [1501675,"2026-01-07 19:30:00","48172","4.0680000000000005","285.5","5.978","279.0","1018.405","8.17","50.24","0.0","0.0"],
    [1501676,"2026-01-07 19:40:00","48173","2.843","273.9","5.227","290.4","1018.379","8.11","50.6","0.0","0.0"],
    [1501677,"2026-01-07 19:50:00","48174","2.002","267.9","3.365","289.2","1018.548","8.08","51.51","0.0","0.0"],
    [1501678,"2026-01-07 20:00:00","48175","1.3230000000000002","244.1","2.5810000000000004","258.8","1018.512","8.05","51.7","0.0","0.0"],
    [1501679,"2026-01-07 20:10:00","48176","1.8659999999999999","270.7","3.201","267.5","1018.554","7.87","52.06","0.0","0.0"],
    [1501680,"2026-01-07 20:20:00","48177","2.295","286.6","3.6260000000000003","280.5","1018.59","8.14","52.89","0.0","0.0"],
    [1501681,"2026-01-07 20:30:00","48178","1.895","262.2","3.822","312.2","1018.756","8.17","52.77","0.0","0.0"],
    [1501682,"2026-01-07 20:40:00","48179","1.358","252.3","2.842","255.2","1018.933","8.12","53.2","0.0","0.0"],
    [1501683,"2026-01-07 20:50:00","48180","3.091","277.7","7.481","291.3","1019.021","8.45","54.33","0.0","0.0"],
    [1501684,"2026-01-07 21:00:00","48181","4.296","282.8","7.579","282.8","1018.88","8.92","54.52","0.0","0.0"],
    [1501685,"2026-01-07 21:10:00","48182","2.7739999999999996","273.6","5.847","284.3","1019.241","8.76","55.6","0.0","0.0"],
    [1501686,"2026-01-07 21:20:00","48183","2.782","289.5","5.2589999999999995","296.1","1019.333","8.88","55.84","0.0","0.0"],
    [1501687,"2026-01-07 21:30:00","48184","1.5430000000000001","270.4","2.875","274.3","1019.464","8.7","56.21","0.0","0.0"],
    [1501688,"2026-01-07 21:40:00","48185","1.385","263.1","2.5810000000000004","288.4","1019.542","8.51","57.12","0.0","0.0"],
    [1501689,"2026-01-07 21:50:00","48186","1.8719999999999999","290.4","2.94","289.4","1019.575","8.59","57.81","0.0","0.0"],
    [1501690,"2026-01-07 22:00:00","48187","2.066","288.5","3.6260000000000003","324.9","1019.59","8.58","58.27","0.0","0.0"],
    [1501691,"2026-01-07 22:10:00","48188","1.9469999999999998","288.3","3.7889999999999997","294.1","1019.844","8.61","58.86","0.0","0.0"],
    [1501692,"2026-01-07 22:20:00","48189","2.322","290.2","4.051","284.1","1019.944","8.54","59.1","0.0","0.0"],
    [1501693,"2026-01-07 22:30:00","48190","3.799","296.4","5.749","306.4","1019.925","8.68","58.87","0.0","0.0"],
    [1501694,"2026-01-07 22:40:00","48191","2.3930000000000002","290.8","4.802","302.9","1020.199","8.74","58.38","0.0","0.0"],
    [1501695,"2026-01-07 22:50:00","48192","1.5019999999999998","297.6","2.5810000000000004","277.6","1020.386","8.68","58.46","0.0","0.0"],
    [1501696,"2026-01-07 23:00:00","48193","1.601","307.6","2.907","339.2","1020.471","8.46","58.83","0.0","0.0"],
    [1501697,"2026-01-07 23:10:00","48194","1.4240000000000002","337.6","3.103","3.168","1020.583","8.35","59.18","0.0","0.0"],
    [1501698,"2026-01-07 23:20:00","48195","1.0170000000000001","333.0","2.025","340.4","1020.672","8.38","60.13","0.0","0.0"],
    [1501699,"2026-01-07 23:30:00","48196","1.281","336.2","2.0580000000000003","344.4","1020.728","8.39","60.13","0.0","0.0"],
    [1501700,"2026-01-07 23:40:00","48197","1.829","328.8","2.548","352.4","1020.661","8.37","59.29","0.0","0.0"],
    [1501701,"2026-01-07 23:50:00","48198","0.8959999999999999","347.5","1.96","347.5","1020.63","8.3","59.92","0.0","0.0"],
    [1501702,"2026-01-08 00:00:00","48199","1.739","334.0","3.234","290.6","1020.492","8.53","59.42","0.0","0.0"],
    [1501703,"2026-01-08 00:10:00","48200","2.338","327.2","3.7239999999999998","312.9","1020.73","8.53","59.86","0.0","0.0"],
    [1501704,"2026-01-08 00:20:00","48201","1.113","251.7","3.201","258.0","1020.818","7.721","61.21","0.0","0.0"],
    [1501705,"2026-01-08 00:30:00","48202","1.453","247.0","2.45","238.4","1020.834","7.148","62.37","0.0","0.0"],
    [1501706,"2026-01-08 00:40:00","48203","1.996","234.8","3.136","194.2","1020.673","6.505","64.39","0.0","0.0"],
    [1501707,"2026-01-08 00:50:00","48204","2.075","252.3","3.267","252.0","1020.492","5.795","65.6","0.0","0.0"],
    [1501708,"2026-01-08 01:00:00","48205","1.585","242.2","2.7439999999999998","257.3","1020.446","5.436","66.83","0.0","0.0"],
    [1501709,"2026-01-08 01:10:00","48206","2.272","268.0","3.299","261.1","1020.421","5.48","67.77","0.0","0.0"],
    [1501710,"2026-01-08 01:20:00","48207","2.205","251.1","3.1689999999999996","219.4","1020.499","5.553","68.34","0.0","0.0"],
    [1501711,"2026-01-08 01:30:00","48208","1.796","252.4","3.1689999999999996","252.4","1020.523","5.667000000000001","68.7","0.0","0.0"],
    [1501712,"2026-01-08 01:40:00","48209","2.459","276.6","4.018","299.1","1020.714","5.807","68.98","0.0","0.0"],
    [1501713,"2026-01-08 01:50:00","48210","3.1210000000000004","294.1","4.508","307.1","1020.837","6.824","68.5","0.0","0.0"],
    [1501714,"2026-01-08 02:00:00","48211","4.431","292.4","7.415","309.6","1020.566","7.07","67.34","0.0","0.0"],
    [1501715,"2026-01-08 02:10:00","48212","5.957999999999999","300.6","8.92","298.9","1020.527","7.721","66.27","0.0","0.0"],
    [1501716,"2026-01-08 02:20:00","48213","6.042999999999999","303.3","8.59","302.3","1020.643","7.945","65.43","0.0","0.0"],
    [1501717,"2026-01-08 02:30:00","48214","5.644","302.8","8.59","310.9","1020.625","7.862","65.37","0.0","0.0"],
    [1501718,"2026-01-08 02:40:00","48215","5.266","299.7","7.154","302.2","1020.649","7.792999999999999","65.72","0.0","0.0"],
    [1501719,"2026-01-08 02:50:00","48216","5.233","299.6","7.121","304.3","1020.656","7.711","65.8","0.0","0.0"],
    [1501720,"2026-01-08 03:00:00","48217","4.198","301.0","7.121","306.2","1020.499","7.725","66.4","0.0","0.0"],
    [1501721,"2026-01-08 03:10:00","48218","4.058","300.0","6.042999999999999","300.1","1020.441","7.605","66.6","0.0","0.0"],
    [1501722,"2026-01-08 03:20:00","48219","3.657","300.5","5.357","303.9","1020.597","7.691","66.93","0.0","0.0"],
    [1501723,"2026-01-08 03:30:00","48220","3.565","292.8","5.651","300.1","1020.843","7.667999999999999","67.03","0.0","0.0"],
    [1501724,"2026-01-08 03:40:00","48221","1.913","259.8","3.855","285.2","1020.857","7.547999999999999","67.03","0.0","0.0"],
    [1501725,"2026-01-08 03:50:00","48222","2.265","268.8","4.508","276.4","1020.688","7.261","67.67","0.0","0.0"],
    [1501726,"2026-01-08 04:00:00","48223","3.094","293.5","4.475","288.2","1020.601","7.33","68.16","0.0","0.0"],
    [1501727,"2026-01-08 04:10:00","48224","3.182","296.8","4.475","304.3","1020.736","7.284","68.22","0.0","0.0"],
    [1501728,"2026-01-08 04:20:00","48225","3.093","290.9","4.638999999999999","279.5","1020.693","7.272","68.59","0.0","0.0"],
    [1501729,"2026-01-08 04:30:00","48226","3.628","290.3","5.651","290.8","1020.566","7.349","68.64","0.0","0.0"],
    [1501730,"2026-01-08 04:40:00","48227","3.91","293.1","5.422999999999999","305.1","1020.458","7.492000000000001","68.72","0.0","0.0"],
    [1501731,"2026-01-08 04:50:00","48228","3.094","289.4","5.912999999999999","279.5","1020.598","7.556","68.91","0.0","0.0"],
    [1501732,"2026-01-08 05:00:00","48229","2.5860000000000003","265.3","4.998","285.6","1020.708","7.489","69.09","0.0","0.0"],
    [1501733,"2026-01-08 05:10:00","48230","2.8169999999999997","274.4","4.541","287.0","1020.619","7.449","69.73","0.0","0.0"],
    [1501734,"2026-01-08 05:20:00","48231","2.531","264.1","4.475","262.2","1020.658","7.61","69.77","0.0","0.0"],
    [1501735,"2026-01-08 05:30:00","48232","2.2840000000000003","232.2","4.9","212.2","1020.665","7.723","69.4","0.0","0.0"],
    [1501736,"2026-01-08 05:40:00","48233","2.3569999999999998","241.1","4.149","217.7","1020.632","7.7170000000000005","69.15","0.0","0.0"],
    [1501737,"2026-01-08 05:50:00","48234","4.605","273.0","7.4479999999999995","274.6","1020.479","7.952999999999999","69.17","0.0","0.0"],
    [1501738,"2026-01-08 06:00:00","48235","3.665","268.2","6.403","273.5","1020.61","7.925","68.71","0.0","0.0"],
    [1501739,"2026-01-08 06:10:00","48236","5.015","279.8","7.6770000000000005","283.5","1020.561","8.12","68.62","0.0","0.0"],
    [1501740,"2026-01-08 06:20:00","48237","4.936","280.3","7.971","281.9","1020.43","8.14","67.86","0.0","0.0"],
    [1501741,"2026-01-08 06:30:00","48238","5.016","282.3","7.709","280.7","1020.381","8.16","67.78","0.0","0.0"],
    [1501742,"2026-01-08 06:40:00","48239","4.471","282.0","6.337000000000001","280.4","1020.539","8.07","68.22","0.0","0.0"],
    [1501743,"2026-01-08 06:50:00","48240","3.155","256.3","6.7620000000000005","260.5","1020.72","8.22","68.86","0.0","0.0"],
    [1501744,"2026-01-08 07:00:00","48241","2.404","231.8","3.855","220.4","1020.783","8.13","69.15","0.0","0.0"],
    [1501745,"2026-01-08 07:10:00","48242","2.239","239.2","3.7239999999999998","217.4","1020.734","7.761","69.69","0.252","0.0"],
    [1501746,"2026-01-08 07:20:00","48243","1.621","258.3","4.018","264.0","1020.7","7.443","70.97","2.506","0.0"],
    [1501747,"2026-01-08 07:30:00","48244","2.542","214.6","4.508","220.8","1020.663","8.1","71.76","11.25","0.0"],
    [1501748,"2026-01-08 07:40:00","48245","2.735","197.9","4.737","208.6","1020.698","8.39","72.47","18.29","0.0"],
    [1501749,"2026-01-08 07:50:00","48246","2.968","206.7","5.194","192.9","1020.729","8.38","72.73","19.26","0.0"],
    [1501750,"2026-01-08 08:00:00","48247","2.968","219.9","5.847","248.2","1020.875","8.39","72.37","36.54","0.0"],
    [1501751,"2026-01-08 08:10:00","48248","2.773","254.8","5.651","288.7","1020.933","8.67","71.59","73.01","0.0"],
    [1501752,"2026-01-08 08:20:00","48249","3.4339999999999997","268.5","7.285","307.2","1020.934","9.06","70.53","118.5","0.0"],
    [1501753,"2026-01-08 08:30:00","48250","2.86","258.9","6.0760000000000005","276.6","1021.033","9.42","69.11","146.0","0.0"],
    [1501754,"2026-01-08 08:40:00","48251","3.033","222.0","4.704","249.4","1021.15","9.71","67.69","173.9","0.0"],
    [1501755,"2026-01-08 08:50:00","48252","2.6510000000000002","253.1","4.998","267.5","1021.223","9.97","66.82","157.8","0.0"],
    [1501756,"2026-01-08 09:00:00","48253","2.9","266.7","4.475","273.4","1021.348","10.07","66.21","222.7","0.0"],
    [1501757,"2026-01-08 09:10:00","48254","3.153","277.3","5.325","281.1","1021.448","10.35","65.62","250.4","0.0"],
    [1501758,"2026-01-08 09:20:00","48255","2.908","263.0","6.501","278.3","1021.344","10.58","64.81","283.7","0.0"],
    [1501759,"2026-01-08 09:30:00","48256","3.016","276.2","6.9910000000000005","275.3","1021.203","10.72","64.64","276.3","0.0"],
    [1501760,"2026-01-08 09:40:00","48257","4.167","285.7","6.925","268.7","1021.134","10.93","64.01","253.6","0.0"],
    [1501761,"2026-01-08 09:50:00","48258","4.3389999999999995","282.0","7.775","291.9","1021.153","11.22","63.2","323.9","0.0"],
    [1501762,"2026-01-08 10:00:00","48259","3.19","268.4","5.227","279.8","1021.166","11.41","62.61","295.4","0.0"],
    [1501763,"2026-01-08 10:10:00","48260","2.83","271.5","4.573","298.6","1021.109","11.61","62.49","256.4","0.0"],
    [1501764,"2026-01-08 10:20:00","48261","3.655","282.0","5.847","286.4","1021.071","11.67","62.23","195.9","0.0"],
    [1501765,"2026-01-08 10:30:00","48262","4.946000000000001","290.3","7.252000000000001","281.6","1020.948","11.77","62.44","142.8","0.0"],
    [1501766,"2026-01-08 10:40:00","48263","5.247000000000001","293.0","8.1","306.9","1020.797","12.02","62.02","240.3","0.0"],
    [1501767,"2026-01-08 10:50:00","48264","5.343","294.1","7.84","290.0","1020.536","12.21","61.24","216.1","0.0"],
    [1501768,"2026-01-08 11:00:00","48265","6.395","289.1","9.57","285.8","1020.086","12.36","60.74","181.6","0.0"],
    [1501769,"2026-01-08 11:10:00","48266","6.734","287.8","9.31","290.2","1019.982","12.58","59.7","236.2","0.0"],
    [1501770,"2026-01-08 11:20:00","48267","5.291","284.7","9.08","284.1","1020.023","12.87","58.94","468.1","0.0"],
    [1501771,"2026-01-08 11:30:00","48268","4.625","274.5","7.481","289.3","1020.2","13.31","57.77","472.1","0.0"],
    [1501772,"2026-01-08 11:40:00","48269","5.542000000000001","276.8","8.3","271.2","1020.051","13.7","56.45","474.6","0.0"],
    [1501773,"2026-01-08 11:50:00","48270","5.73","278.6","8.98","290.1","1019.826","13.77","55.78","476.8","0.0"],
    [1501774,"2026-01-08 12:00:00","48271","5.297999999999999","280.4","9.02","293.6","1019.909","13.82","55.44","379.5","0.0"],
    [1501775,"2026-01-08 12:10:00","48272","3.537","280.8","7.4479999999999995","289.8","1019.88","14.13","54.75","469.0","0.0"],
    [1501776,"2026-01-08 12:20:00","48273","4.7989999999999995","285.4","8.07","293.0","1019.785","14.19","54.05","464.5","0.0"],
    [1501777,"2026-01-08 12:30:00","48274","4.082","291.5","6.305","287.8","1019.698","14.41","53.5","448.6","0.0"],
    [1501778,"2026-01-08 12:40:00","48275","5.407","294.7","8.13","303.8","1019.447","14.55","53.04","432.7","0.0"],
    [1501779,"2026-01-08 12:50:00","48276","4.803999999999999","288.1","8.66","285.8","1019.357","14.84","52.48","430.8","0.0"],
    [1501780,"2026-01-08 13:00:00","48277","4.949","290.2","8.75","316.8","1019.259","15.02","52.04","421.4","0.0"],
    [1501781,"2026-01-08 13:10:00","48278","4.934","291.8","9.73","302.7","1019.069","15.07","51.85","410.1","0.0"],
    [1501782,"2026-01-08 13:20:00","48279","4.68","285.9","9.44","286.5","1019.108","15.11","51.81","409.6","0.0"],
    [1501783,"2026-01-08 13:30:00","48280","4.444","282.0","7.905","304.3","1019.119","15.22","51.43","401.0","0.0"],
    [1501784,"2026-01-08 13:40:00","48281","4.479","267.6","8.2","278.3","1019.157","15.41","50.6","407.9","0.0"],
    [1501785,"2026-01-08 13:50:00","48282","5.681","277.6","9.96","279.9","1019.043","15.34","50.32","395.5","0.0"],
    [1501786,"2026-01-08 14:00:00","48283","5.349","293.3","10.0","282.4","1018.861","15.31","50.88","359.5","0.0"],
    [1501787,"2026-01-08 14:10:00","48284","6.749","291.3","12.41","283.6","1018.781","15.36","50.39","301.0","0.0"],
    [1501788,"2026-01-08 14:20:00","48285","7.678999999999999","283.1","10.94","279.2","1018.857","15.4","50.22","262.9","0.0"],
    [1501789,"2026-01-08 14:30:00","48286","5.154","291.8","9.02","283.0","1018.927","15.45","50.36","247.8","0.0"],
    [1501790,"2026-01-08 14:40:00","48287","6.064","287.7","9.38","278.9","1018.922","15.62","49.76","289.0","0.0"],
    [1501791,"2026-01-08 14:50:00","48288","4.909","289.7","7.4479999999999995","297.2","1018.9","15.77","49.46","230.8","0.0"],
    [1501792,"2026-01-08 15:00:00","48289","4.56","287.4","7.579","277.0","1018.901","16.0","48.99","249.6","0.0"],
    [1501793,"2026-01-08 15:10:00","48290","4.877","292.7","7.971","316.8","1018.958","15.81","49.6","73.11","0.0"],
    [1501794,"2026-01-08 15:20:00","48291","3.3760000000000003","297.8","6.042999999999999","299.4","1019.107","15.74","50.04","95.1","0.0"],
    [1501795,"2026-01-08 15:30:00","48292","4.867","296.7","8.43","323.1","1018.982","15.97","49.54","169.6","0.0"],
    [1501796,"2026-01-08 15:40:00","48293","5.471","283.9","7.513","298.6","1019.108","15.87","49.39","78.56","0.0"],
    [1501797,"2026-01-08 15:50:00","48294","6.1610000000000005","287.5","10.98","292.4","1019.07","15.57","50.18","37.03","0.0"],
    [1501798,"2026-01-08 16:00:00","48295","5.461","279.1","8.75","277.1","1019.263","15.37","50.31","26.77","0.0"],
    [1501799,"2026-01-08 16:10:00","48296","6.074","277.7","10.16","278.9","1019.22","15.26","50.54","15.01","0.0"],
    [1501800,"2026-01-08 16:20:00","48297","7.152","291.5","11.69","286.8","1018.752","15.32","50.37","8.99","0.0"],
    [1501801,"2026-01-08 16:30:00","48298","5.474","291.0","10.85","294.0","1018.921","15.13","51.03","4.747","0.0"],
    [1501802,"2026-01-08 16:40:00","48299","5.7989999999999995","281.0","8.43","286.3","1019.132","15.04","51.06","0.9990000000000001","0.0"],
    [1501803,"2026-01-08 16:50:00","48300","4.477","286.0","7.218999999999999","283.2","1019.165","15.03","51.0","0.003","0.0"],
    [1501804,"2026-01-08 17:00:00","48301","3.8810000000000002","284.2","6.109","292.1","1019.044","15.01","50.89","0.0","0.0"],
    [1501805,"2026-01-08 17:10:00","48302","2.911","268.9","5.129","276.5","1019.287","14.95","50.71","0.0","0.0"],
    [1501806,"2026-01-08 17:20:00","48303","1.9080000000000001","274.2","3.495","268.2","1019.396","14.65","51.89","0.0","0.0"],
    [1501807,"2026-01-08 17:30:00","48304","3.141","286.9","4.279","295.1","1019.334","14.77","51.85","0.0","0.0"],
    [1501808,"2026-01-08 17:40:00","48305","2.9010000000000002","281.0","4.345","285.7","1019.318","14.75","51.21","0.0","0.0"],
    [1501809,"2026-01-08 17:50:00","48306","2.127","263.5","3.5610000000000004","277.8","1019.287","14.53","51.7","0.0","0.0"],
    [1501810,"2026-01-08 18:00:00","48307","1.6159999999999999","262.5","2.8089999999999997","279.1","1019.26","14.32","52.32","0.0","0.0"],
    [1501811,"2026-01-08 18:10:00","48308","2.252","269.8","3.005","279.7","1019.358","14.11","53.15","0.0","0.0"],
    [1501812,"2026-01-08 18:20:00","48309","2.484","267.0","3.659","267.5","1019.376","14.15","53.6","0.0","0.0"],
    [1501813,"2026-01-08 18:30:00","48310","2.441","258.0","4.2139999999999995","257.7","1019.27","14.35","53.27","0.0","0.0"],
    [1501814,"2026-01-08 18:40:00","48311","2.32","260.2","4.377","255.3","1019.145","14.14","53.94","0.0","0.0"],
    [1501815,"2026-01-08 18:50:00","48312","2.131","276.4","3.365","279.8","1019.146","14.09","53.86","0.0","0.0"],
    [1501816,"2026-01-08 19:00:00","48313","2.3040000000000003","285.8","4.2139999999999995","266.3","1019.025","14.16","53.85","0.0","0.0"],
    [1501817,"2026-01-08 19:10:00","48314","2.98","278.7","4.606","276.0","1019.002","14.08","53.17","0.0","0.0"],
    [1501818,"2026-01-08 19:20:00","48315","2.364","261.4","4.573","270.7","1018.809","13.94","52.57","0.0","0.0"],
    [1501819,"2026-01-08 19:30:00","48316","2.354","250.2","4.835","256.8","1018.741","14.27","50.82","0.0","0.0"],
    [1501820,"2026-01-08 19:40:00","48317","2.858","242.8","6.109","258.6","1018.701","14.52","49.08","0.0","0.0"],
    [1501821,"2026-01-08 19:50:00","48318","2.8280000000000003","252.0","5.651","256.7","1018.617","14.27","49.54","0.0","0.0"],
    [1501822,"2026-01-08 20:00:00","48319","1.9669999999999999","255.6","4.149","249.7","1018.671","13.98","50.3","0.0","0.0"],
    [1501823,"2026-01-08 20:10:00","48320","1.778","248.4","4.508","266.7","1018.627","13.93","50.57","0.0","0.0"],
    [1501824,"2026-01-08 20:20:00","48321","1.9669999999999999","280.9","2.875","288.3","1018.466","13.8","50.88","0.0","0.0"],
    [1501825,"2026-01-08 20:30:00","48322","2.033","259.4","3.855","278.9","1018.301","13.72","50.84","0.0","0.0"],
    [1501826,"2026-01-08 20:40:00","48323","2.211","251.5","3.822","268.9","1018.188","13.68","50.52","0.0","0.0"],
    [1501827,"2026-01-08 20:50:00","48324","2.401","265.4","3.7569999999999997","278.3","1018.027","13.49","50.93","0.0","0.0"],
    [1501828,"2026-01-08 21:00:00","48325","1.854","247.7","3.463","259.6","1017.91","13.38","51.75","0.0","0.0"],
    [1501829,"2026-01-08 21:10:00","48326","1.7369999999999999","252.0","3.6260000000000003","263.0","1017.965","13.46","51.32","0.0","0.0"],
    [1501830,"2026-01-08 21:20:00","48327","1.9269999999999998","261.0","3.267","269.9","1018.047","13.46","51.02","0.0","0.0"],
    [1501831,"2026-01-08 21:30:00","48328","1.318","254.8","2.221","256.6","1018.008","13.33","51.11","0.0","0.0"],
    [1501832,"2026-01-08 21:40:00","48329","1.273","269.2","2.0580000000000003","276.8","1017.948","13.38","51.0","0.0","0.0"],
    [1501833,"2026-01-08 21:50:00","48330","1.581","277.1","3.005","277.8","1017.762","13.28","51.21","0.0","0.0"],
    [1501834,"2026-01-08 22:00:00","48331","1.64","227.5","2.875","212.9","1017.684","13.37","50.86","0.0","0.0"],
    [1501835,"2026-01-08 22:10:00","48332","1.3259999999999998","210.9","2.352","217.6","1017.791","13.45","51.0","0.0","0.0"],
    [1501836,"2026-01-08 22:20:00","48333","1.702","221.4","3.332","223.5","1017.579","13.53","50.37","0.0","0.0"],
    [1501837,"2026-01-08 22:30:00","48334","1.433","204.0","2.679","216.1","1017.355","13.55","50.57","0.0","0.0"],
    [1501838,"2026-01-08 22:40:00","48335","1.973","203.7","4.247","251.7","1017.094","13.47","50.19","0.0","0.0"],
    [1501839,"2026-01-08 22:50:00","48336","4.195","276.7","8.36","280.8","1017.048","13.65","48.44","0.0","0.0"],
    [1501840,"2026-01-08 23:00:00","48337","4.236000000000001","267.4","7.579","274.4","1016.931","13.51","48.73","0.0","0.0"],
    [1501841,"2026-01-08 23:10:00","48338","4.467","267.1","8.85","274.7","1016.749","13.59","48.8","0.0","0.0"],
    [1501842,"2026-01-08 23:20:00","48339","3.523","250.0","8.13","266.4","1016.684","13.42","49.15","0.0","0.0"],
    [1501843,"2026-01-08 23:30:00","48340","1.868","229.9","4.279","258.2","1016.753","13.28","50.39","0.0","0.0"],
    [1501844,"2026-01-08 23:40:00","48341","1.315","229.6","2.94","252.1","1016.744","13.13","50.73","0.0","0.0"],
    [1501845,"2026-01-08 23:50:00","48342","1.723","251.1","4.9","252.8","1016.466","12.93","51.02","0.0","0.0"],
    [1501846,"2026-01-09 00:00:00","48343","3.2060000000000004","236.7","5.521","231.4","1016.251","12.94","51.13","0.0","0.0"],
    [1501847,"2026-01-09 00:10:00","48344","4.03","235.2","7.187","219.9","1016.044","12.82","51.61","0.0","0.0"],
    [1501848,"2026-01-09 00:20:00","48345","4.365","237.7","7.775","224.8","1015.779","13.07","51.96","0.0","0.0"],
    [1501849,"2026-01-09 00:30:00","48346","4.914","244.8","10.16","222.6","1015.493","13.54","50.41","0.0","0.0"],
    [1501850,"2026-01-09 00:40:00","48347","3.825","259.7","9.08","255.7","1015.515","13.41","50.82","0.0","0.0"],
    [1501851,"2026-01-09 00:50:00","48348","3.1","253.9","6.795","233.2","1015.507","13.58","51.31","0.0","0.0"],
    [1501852,"2026-01-09 01:00:00","48349","2.997","243.2","7.218999999999999","257.4","1015.386","13.43","51.53","0.0","0.0"],
    [1501853,"2026-01-09 01:10:00","48350","3.906","267.8","9.08","247.7","1015.338","13.58","50.98","0.0","0.0"],
    [1501854,"2026-01-09 01:20:00","48351","4.508","259.5","10.03","290.4","1015.166","13.74","50.35","0.0","0.0"],
    [1501855,"2026-01-09 01:30:00","48352","5.249","264.7","10.75","252.6","1015.12","13.54","51.13","0.0","0.0"],
    [1501856,"2026-01-09 01:40:00","48353","6.904","271.2","11.5","271.4","1015.035","13.82","51.16","0.0","0.0"],
    [1501857,"2026-01-09 01:50:00","48354","7.5","275.6","11.6","271.3","1015.084","14.08","50.15","0.0","0.0"],
    [1501858,"2026-01-09 02:00:00","48355","5.444","273.6","8.66","260.5","1015.258","13.75","51.68","0.0","0.0"],
    [1501859,"2026-01-09 02:10:00","48356","6.406000000000001","276.2","11.99","283.2","1015.29","13.79","51.71","0.0","0.0"],
    [1501860,"2026-01-09 02:20:00","48357","6.731","279.6","9.6","293.1","1015.27","13.96","50.69","0.0","0.0"],
    [1501861,"2026-01-09 02:30:00","48358","6.936","284.7","10.22","291.9","1015.194","13.9","50.59","0.0","0.0"],
    [1501862,"2026-01-09 02:40:00","48359","6.287999999999999","282.1","9.24","280.5","1015.139","13.61","51.37","0.0","0.0"],
    [1501863,"2026-01-09 02:50:00","48360","6.542000000000001","284.4","10.26","286.7","1015.108","13.6","51.23","0.0","0.0"],
    [1501864,"2026-01-09 03:00:00","48361","5.081","287.3","7.35","292.6","1015.195","13.39","51.63","0.0","0.0"],
    [1501865,"2026-01-09 03:10:00","48362","4.373","278.7","7.742000000000001","275.0","1015.166","13.2","52.45","0.0","0.0"],
    [1501866,"2026-01-09 03:20:00","48363","5.337000000000001","276.4","9.67","267.6","1015.061","13.23","51.92","0.0","0.0"],
    [1501867,"2026-01-09 03:30:00","48364","4.104","272.4","6.599","281.6","1015.202","12.98","52.17","0.0","0.0"],
    [1501868,"2026-01-09 03:40:00","48365","4.664","280.6","6.501","283.4","1015.101","12.94","52.08","0.0","0.0"],
    [1501869,"2026-01-09 03:50:00","48366","3.825","277.5","6.795","286.9","1015.072","12.62","52.64","0.0","0.0"],
    [1501870,"2026-01-09 04:00:00","48367","4.927","284.5","7.742000000000001","281.9","1015.028","12.46","53.36","0.0","0.0"],
    [1501871,"2026-01-09 04:10:00","48368","4.7","284.9","7.187","270.7","1015.02","12.45","53.21","0.0","0.0"],
    [1501872,"2026-01-09 04:20:00","48369","4.61","292.2","7.187","310.6","1014.987","12.4","53.41","0.0","0.0"],
    [1501873,"2026-01-09 04:30:00","48370","4.781000000000001","290.7","6.9910000000000005","293.3","1014.935","12.43","53.55","0.0","0.0"],
    [1501874,"2026-01-09 04:40:00","48371","5.2010000000000005","295.0","8.85","301.3","1014.91","12.53","53.45","0.0","0.0"],
    [1501875,"2026-01-09 04:50:00","48372","5.392","295.9","9.18","309.8","1014.648","12.48","53.42","0.0","0.0"],
    [1501876,"2026-01-09 05:00:00","48373","6.057","297.1","10.45","318.4","1014.416","12.5","53.68","0.0","0.0"],
    [1501877,"2026-01-09 05:10:00","48374","7.399","299.4","10.45","299.5","1014.296","12.66","53.15","0.0","0.0"],
    [1501878,"2026-01-09 05:20:00","48375","6.305","298.3","8.98","304.7","1014.272","12.6","53.61","0.0","0.0"],
    [1501879,"2026-01-09 05:30:00","48376","6.65","298.7","9.83","302.8","1014.18","12.55","53.74","0.0","0.0"],
    [1501880,"2026-01-09 05:40:00","48377","6.372000000000001","300.0","10.88","300.0","1014.136","12.54","53.99","0.0","0.0"],
    [1501881,"2026-01-09 05:50:00","48378","4.865","294.6","6.86","297.5","1014.204","12.48","54.12","0.0","0.0"],
    [1501882,"2026-01-09 06:00:00","48379","3.1919999999999997","268.7","5.651","283.9","1014.399","12.26","55.03","0.0","0.0"],
    [1501883,"2026-01-09 06:10:00","48380","2.044","260.0","4.2139999999999995","281.9","1014.458","11.78","56.7","0.0","0.0"],
    [1501884,"2026-01-09 06:20:00","48381","1.996","271.0","4.508","280.4","1014.364","11.91","57.36","0.0","0.0"],
    [1501885,"2026-01-09 06:30:00","48382","2.6439999999999997","284.6","4.606","284.5","1014.409","12.13","57.58","0.0","0.0"],
    [1501886,"2026-01-09 06:40:00","48383","2.716","276.8","4.769","284.2","1014.419","11.89","57.33","0.0","0.0"],
    [1501887,"2026-01-09 06:50:00","48384","2.173","271.2","3.6910000000000003","259.9","1014.413","11.75","58.21","0.0","0.0"],
    [1501888,"2026-01-09 07:00:00","48385","1.577","273.3","3.365","264.2","1014.463","12.22","57.8","0.0","0.0"],
    [1501889,"2026-01-09 07:10:00","48386","2.29","270.5","3.7569999999999997","233.8","1014.44","12.13","57.51","0.0","0.0"],
    [1501890,"2026-01-09 07:20:00","48387","3.128","233.0","5.455","231.1","1014.348","13.28","56.39","1.3","0.0"],
    [1501891,"2026-01-09 07:30:00","48388","4.05","221.5","6.827000000000001","216.6","1014.224","13.54","55.81","4.4110000000000005","0.0"],
    [1501892,"2026-01-09 07:40:00","48389","3.74","224.9","6.011","237.6","1014.267","13.59","55.41","16.54","0.0"],
    [1501893,"2026-01-09 07:50:00","48390","4.688","222.5","7.971","197.7","1014.409","13.71","54.63","40.13","0.0"],
    [1501894,"2026-01-09 08:00:00","48391","4.632","218.4","7.971","197.7","1014.458","13.83","55.24","64.11","0.0"],
    [1501895,"2026-01-09 08:10:00","48392","5.042","217.2","8.07","208.6","1014.501","13.97","54.42","93.6","0.0"],
    [1501896,"2026-01-09 08:20:00","48393","3.975","227.2","6.9910000000000005","227.5","1014.42","14.19","55.6","120.8","0.0"],
    [1501897,"2026-01-09 08:30:00","48394","3.81","237.9","6.1739999999999995","239.0","1014.35","14.18","54.29","147.4","0.0"],
    [1501898,"2026-01-09 08:40:00","48395","4.668","235.6","8.3","225.0","1014.27","14.27","53.97","173.7","0.0"],
    [1501899,"2026-01-09 08:50:00","48396","4.542","241.3","8.49","221.3","1014.224","14.4","52.39","200.3","0.0"],
    [1501900,"2026-01-09 09:00:00","48397","4.132","240.2","8.2","229.1","1014.369","14.63","50.82","225.1","0.0"],
    [1501901,"2026-01-09 09:10:00","48398","4.659","239.3","7.742000000000001","225.4","1014.346","14.73","49.73","249.4","0.0"],
    [1501902,"2026-01-09 09:20:00","48399","4.303","241.9","7.0889999999999995","253.5","1014.356","14.9","48.64","272.0","0.0"],
    [1501903,"2026-01-09 09:30:00","48400","4.581","245.7","8.36","262.8","1014.323","15.23","46.69","295.3","0.0"],
    [1501904,"2026-01-09 09:40:00","48401","4.239","250.7","9.08","265.5","1014.372","15.46","45.27","316.5","0.0"],
    [1501905,"2026-01-09 09:50:00","48402","4.189","241.4","7.415","239.5","1014.37","15.65","44.65","339.1","0.0"],
    [1501906,"2026-01-09 10:00:00","48403","4.331","253.6","8.66","246.8","1014.38","15.76","44.28","393.0","0.0"],
    [1501907,"2026-01-09 10:10:00","48404","4.303","251.9","9.21","264.3","1014.306","15.88","44.01","386.1","0.0"],
    [1501908,"2026-01-09 10:20:00","48405","4.916","259.7","9.7","248.0","1014.099","15.89","43.89","338.3","0.0"],
    [1501909,"2026-01-09 10:30:00","48406","4.252","254.7","10.81","267.0","1013.998","15.96","43.42","362.3","0.0"],
    [1501910,"2026-01-09 10:40:00","48407","5.062","251.9","11.96","281.0","1013.962","16.11","42.43","430.0","0.0"],
    [1501911,"2026-01-09 10:50:00","48408","5.587999999999999","252.6","11.43","290.4","1013.79","16.25","41.06","438.7","0.0"],
    [1501912,"2026-01-09 11:00:00","48409","5.126","262.5","9.96","267.0","1013.727","16.42","39.65","448.0","0.0"],
    [1501913,"2026-01-09 11:10:00","48410","6.279","264.8","11.24","274.3","1013.563","16.51","38.31","458.8","0.0"],
    [1501914,"2026-01-09 11:20:00","48411","7.103","260.2","14.57","261.5","1013.396","16.48","37.47","466.5","0.0"],
    [1501915,"2026-01-09 11:30:00","48412","6.51","269.7","13.75","261.6","1013.365","16.59","37.35","470.0","0.0"],
    [1501916,"2026-01-09 11:40:00","48413","7.599","274.3","12.45","281.7","1013.226","16.43","37.34","441.3","0.0"],
    [1501917,"2026-01-09 11:50:00","48414","6.263","254.5","12.81","258.0","1013.236","16.39","37.34","354.5","0.0"],
    [1501918,"2026-01-09 12:00:00","48415","6.917000000000001","262.3","13.33","254.3","1013.156","16.3","37.12","416.8","0.0"],
    [1501919,"2026-01-09 12:10:00","48416","7.034","270.9","12.94","268.0","1013.014","16.25","37.31","358.8","0.0"],
    [1501920,"2026-01-09 12:20:00","48417","6.516","258.3","11.6","221.0","1012.878","16.24","37.37","412.3","0.0"],
    [1501921,"2026-01-09 12:30:00","48418","5.0680000000000005","248.8","11.6","224.8","1012.836","16.24","37.78","332.2","0.0"],
    [1501922,"2026-01-09 12:40:00","48419","6.722","242.7","11.73","221.1","1012.431","16.04","37.35","287.4","0.0"],
    [1501923,"2026-01-09 12:50:00","48420","6.566","240.4","13.39","278.6","1012.257","16.03","37.19","282.2","0.0"],
    [1501924,"2026-01-09 13:00:00","48421","4.962","254.7","9.8","284.9","1012.187","16.14","36.9","387.7","0.0"],
    [1501925,"2026-01-09 13:10:00","48422","6.257999999999999","264.8","10.68","239.9","1011.97","16.24","36.26","435.6","0.0"],
    [1501926,"2026-01-09 13:20:00","48423","6.811","265.0","13.33","264.7","1011.833","16.24","35.18","428.3","0.0"],
    [1501927,"2026-01-09 13:30:00","48424","8.32","280.0","13.23","272.5","1011.608","16.17","34.72","417.3","0.0"],
    [1501928,"2026-01-09 13:40:00","48425","6.614","278.3","12.97","291.3","1011.584","16.22","34.83","401.0","0.0"],
    [1501929,"2026-01-09 13:50:00","48426","7.791","276.8","13.62","285.1","1011.417","16.27","34.82","387.8","0.0"],
    [1501930,"2026-01-09 14:00:00","48427","8.81","284.2","14.9","278.8","1011.185","16.18","33.86","379.9","0.0"],
    [1501931,"2026-01-09 14:10:00","48428","8.26","287.1","12.22","278.6","1011.099","16.25","34.03","358.9","0.0"],
    [1501932,"2026-01-09 14:20:00","48429","6.602","279.5","10.03","275.2","1011.052","16.35","34.04","335.6","0.0"],
    [1501933,"2026-01-09 14:30:00","48430","6.58","273.4","14.44","266.8","1011.035","16.48","34.31","292.8","0.0"],
    [1501934,"2026-01-09 14:40:00","48431","8.43","278.3","13.92","273.0","1010.88","16.28","33.45","289.8","0.0"],
    [1501935,"2026-01-09 14:50:00","48432","7.231","276.3","13.43","272.0","1010.931","16.33","33.02","268.8","0.0"],
    [1501936,"2026-01-09 15:00:00","48433","4.658","265.8","8.33","274.0","1010.966","16.49","32.82","243.6","0.0"],
    [1501937,"2026-01-09 15:10:00","48434","3.889","246.3","8.49","213.6","1010.906","16.58","33.16","215.6","0.0"],
    [1501938,"2026-01-09 15:20:00","48435","3.937","259.3","9.93","275.4","1010.979","16.57","33.71","189.2","0.0"],
    [1501939,"2026-01-09 15:30:00","48436","5.749","273.4","10.36","266.8","1011.035","16.45","33.83","164.2","0.0"],
    [1501940,"2026-01-09 15:40:00","48437","5.353","272.8","10.94","284.9","1011.026","16.42","33.95","137.3","0.0"],
    [1501941,"2026-01-09 15:50:00","48438","4.3069999999999995","260.7","10.0","254.9","1010.946","16.31","34.73","96.8","0.0"],
    [1501942,"2026-01-09 16:00:00","48439","3.545","248.3","7.905","282.0","1010.957","16.19","34.5","25.58","0.0"],
    [1501943,"2026-01-09 16:10:00","48440","3.725","258.6","8.69","290.5","1011.219","16.08","34.25","20.43","0.0"],
    [1501944,"2026-01-09 16:20:00","48441","6.553","268.8","13.98","253.6","1011.639","16.01","35.02","9.89","0.0"],
    [1501945,"2026-01-09 16:30:00","48442","9.22","271.0","16.63","278.6","1011.785","14.29","45.91","4.823","0.0"],
    [1501946,"2026-01-09 16:40:00","48443","5.223","244.2","10.91","267.0","1011.439","13.46","50.74","2.924","0.0"],
    [1501947,"2026-01-09 16:50:00","48444","5.486000000000001","254.4","10.91","262.3","1011.474","13.5","47.71","0.6990000000000001","0.0"],
    [1501948,"2026-01-09 17:00:00","48445","4.6419999999999995","257.2","11.3","264.9","1011.508","13.39","44.77","0.0","0.0"],
    [1501949,"2026-01-09 17:10:00","48446","4.2860000000000005","251.2","9.24","268.1","1011.453","13.22","43.66","0.0","0.0"],
    [1501950,"2026-01-09 17:20:00","48447","4.47","255.5","9.38","282.2","1011.524","13.15","42.76","0.0","0.0"],
    [1501951,"2026-01-09 17:30:00","48448","3.745","250.9","9.31","254.3","1011.413","13.17","41.47","0.0","0.0"],
    [1501952,"2026-01-09 17:40:00","48449","4.681","245.6","9.9","260.1","1011.567","13.44","36.95","0.0","0.0"],
    [1501953,"2026-01-09 17:50:00","48450","5.034","260.4","9.34","256.6","1011.95","13.18","36.16","0.0","0.0"],
    [1501954,"2026-01-09 18:00:00","48451","5.027","271.6","9.15","272.1","1012.244","13.04","36.15","0.0","0.0"],
    [1501955,"2026-01-09 18:10:00","48452","5.865","283.4","10.91","289.5","1012.529","13.19","34.71","0.0","0.0"],
    [1501956,"2026-01-09 18:20:00","48453","6.016","282.2","10.0","278.2","1012.832","13.06","34.63","0.0","0.0"],
    [1501957,"2026-01-09 18:30:00","48454","7.654","285.1","13.43","262.2","1012.778","12.94","34.63","0.0","0.0"],
    [1501958,"2026-01-09 18:40:00","48455","8.6","282.9","12.71","274.5","1012.645","12.76","34.87","0.0","0.0"],
    [1501959,"2026-01-09 18:50:00","48456","8.3","285.5","13.43","293.7","1012.591","12.43","36.77","0.0","0.0"],
    [1501960,"2026-01-09 19:00:00","48457","10.15","286.0","14.37","288.0","1012.551","12.2","38.19","0.0","0.0"],
    [1501961,"2026-01-09 19:10:00","48458","9.32","289.1","14.73","286.7","1012.757","12.02","39.69","0.0","0.0"],
    [1501962,"2026-01-09 19:20:00","48459","7.757000000000001","289.4","13.07","282.3","1013.038","11.83","40.95","0.0","0.0"],
    [1501963,"2026-01-09 19:30:00","48460","7.933","286.5","11.66","266.8","1013.209","11.67","41.81","0.0","0.0"],
    [1501964,"2026-01-09 19:40:00","48461","6.914","284.3","11.01","277.6","1013.253","11.51","42.34","0.0","0.0"],
    [1501965,"2026-01-09 19:50:00","48462","5.407","278.7","9.44","273.3","1013.527","11.39","43.08","0.0","0.0"],
    [1501966,"2026-01-09 20:00:00","48463","4.954","279.9","7.415","285.2","1013.613","11.25","43.38","0.0","0.0"],
    [1501967,"2026-01-09 20:10:00","48464","5.547999999999999","287.2","8.04","291.5","1013.744","11.31","42.28","0.0","0.0"],
    [1501968,"2026-01-09 20:20:00","48465","4.771","284.8","7.056","283.9","1013.783","11.16","42.51","0.0","0.0"],
    [1501969,"2026-01-09 20:30:00","48466","6.0329999999999995","281.3","10.65","273.8","1013.904","11.09","42.46","0.0","0.0"],
    [1501970,"2026-01-09 20:40:00","48467","5.395","268.9","9.93","278.0","1013.939","10.84","42.76","0.0","0.0"],
    [1501971,"2026-01-09 20:50:00","48468","6.103","269.4","12.77","285.5","1014.003","10.71","42.92","0.0","0.0"],
    [1501972,"2026-01-09 21:00:00","48469","8.03","282.6","12.71","283.4","1014.084","10.71","42.25","0.0","0.0"],
    [1501973,"2026-01-09 21:10:00","48470","8.63","280.2","13.2","272.2","1014.077","10.56","42.21","0.0","0.0"],
    [1501974,"2026-01-09 21:20:00","48471","7.401","282.6","11.17","281.0","1014.104","10.42","42.96","0.0","0.0"],
    [1501975,"2026-01-09 21:30:00","48472","7.853","287.1","14.86","291.5","1013.959","10.32","43.33","0.0","0.0"],
    [1501976,"2026-01-09 21:40:00","48473","8.82","291.4","13.85","285.7","1013.756","10.26","43.72","0.0","0.0"],
    [1501977,"2026-01-09 21:50:00","48474","9.97","289.0","15.71","287.7","1013.712","10.13","44.38","0.0","0.0"],
    [1501978,"2026-01-09 22:00:00","48475","9.21","289.1","13.0","292.2","1013.89","10.03","45.25","0.0","0.0"],
    [1501979,"2026-01-09 22:10:00","48476","9.18","292.6","14.6","297.2","1013.962","10.02","45.84","0.0","0.0"],
    [1501980,"2026-01-09 22:20:00","48477","9.53","288.3","15.16","288.8","1013.91","9.95","46.18","0.0","0.0"],
    [1501981,"2026-01-09 22:30:00","48478","8.47","291.3","14.86","288.2","1014.162","9.8","47.22","0.0","0.0"],
    [1501982,"2026-01-09 22:40:00","48479","8.95","294.6","13.39","299.7","1014.339","9.68","47.58","0.0","0.0"],
    [1501983,"2026-01-09 22:50:00","48480","8.05","295.0","13.43","300.8","1014.568","9.6","48.38","0.0","0.0"],
    [1501984,"2026-01-09 23:00:00","48481","8.82","299.0","14.44","306.5","1014.644","9.54","49.07","0.0","0.0"],
    [1501985,"2026-01-09 23:10:00","48482","8.88","299.5","12.64","298.2","1014.717","9.41","49.55","0.0","0.0"],
    [1501986,"2026-01-09 23:20:00","48483","8.22","301.2","14.34","307.9","1014.938","9.37","49.96","0.0","0.0"],
    [1501987,"2026-01-09 23:30:00","48484","9.0","297.6","13.65","302.4","1014.804","9.32","50.23","0.0","0.0"],
    [1501988,"2026-01-09 23:40:00","48485","8.61","296.5","14.34","287.9","1014.778","9.23","50.8","0.0","0.0"],
    [1501989,"2026-01-09 23:50:00","48486","8.62","296.4","12.22","308.4","1014.669","9.13","51.53","0.0","0.0"],
    [1501990,"2026-01-10 00:00:00","48487","8.86","296.2","12.48","301.5","1014.659","9.14","51.89","0.0","0.0"],
    [1501991,"2026-01-10 00:10:00","48488","9.41","299.5","15.19","280.5","1014.655","9.11","52.27","0.0","0.0"],
    [1501992,"2026-01-10 00:20:00","48489","9.35","299.2","15.97","304.9","1014.543","9.07","52.67","0.0","0.0"],
    [1501993,"2026-01-10 00:30:00","48490","8.58","297.6","14.24","317.2","1014.659","8.98","53.25","0.0","0.0"],
    [1501994,"2026-01-10 00:40:00","48491","9.3","299.6","13.52","301.6","1014.678","8.99","53.44","0.0","0.0"],
    [1501995,"2026-01-10 00:50:00","48492","8.63","303.4","13.72","300.9","1014.781","9.06","53.5","0.0","0.0"],
    [1501996,"2026-01-10 01:00:00","48493","10.08","301.8","14.96","308.1","1014.59","9.0","53.35","0.0","0.0"],
    [1501997,"2026-01-10 01:10:00","48494","9.82","299.1","16.69","299.8","1014.639","8.95","53.48","0.0","0.0"],
    [1501998,"2026-01-10 01:20:00","48495","9.26","300.2","15.65","313.1","1014.823","8.9","53.97","0.0","0.0"],
    [1501999,"2026-01-10 01:30:00","48496","8.34","300.8","14.54","301.4","1014.971","8.82","54.07","0.0","0.0"],
    [1502000,"2026-01-10 01:40:00","48497","7.912999999999999","299.8","12.18","298.5","1015.169","8.8","54.67","0.0","0.0"],
    [1502001,"2026-01-10 01:50:00","48498","7.81","302.0","11.73","299.6","1015.39","8.81","55.06","0.0","0.0"],
    [1502002,"2026-01-10 02:00:00","48499","7.406000000000001","303.1","11.76","319.6","1015.63","8.68","55.7","0.0","0.0"],
    [1502003,"2026-01-10 02:10:00","48500","8.24","301.3","13.07","307.0","1015.53","8.62","56.24","0.0","0.0"],
    [1502004,"2026-01-10 02:20:00","48501","9.25","301.1","13.59","305.2","1015.576","8.57","56.29","0.0","0.0"],
    [1502005,"2026-01-10 02:30:00","48502","8.33","300.5","15.19","300.2","1015.676","8.53","56.8","0.0","0.0"],
    [1502006,"2026-01-10 02:40:00","48503","8.31","302.0","14.28","292.3","1015.751","8.46","57.19","0.0","0.0"],
    [1502007,"2026-01-10 02:50:00","48504","8.05","301.1","14.44","298.8","1015.656","8.43","57.46","0.0","0.0"],
    [1502008,"2026-01-10 03:00:00","48505","9.17","298.8","14.34","289.4","1015.709","8.44","57.22","0.0","0.0"],
    [1502009,"2026-01-10 03:10:00","48506","8.11","293.7","13.95","276.3","1015.884","8.39","57.12","0.0","0.0"],
    [1502010,"2026-01-10 03:20:00","48507","8.7","292.5","13.75","299.8","1015.872","8.35","57.31","0.0","0.0"],
    [1502011,"2026-01-10 03:30:00","48508","9.0","291.6","14.54","287.9","1015.911","8.28","57.51","0.0","0.0"],
    [1502012,"2026-01-10 03:40:00","48509","8.99","291.4","13.46","290.2","1015.923","8.28","57.6","0.0","0.0"],
    [1502013,"2026-01-10 03:50:00","48510","8.58","290.9","12.61","278.0","1015.934","8.22","57.94","0.0","0.0"],
    [1502014,"2026-01-10 04:00:00","48511","8.54","296.7","13.56","286.6","1016.051","8.21","58.25","0.0","0.0"],
    [1502015,"2026-01-10 04:10:00","48512","8.26","297.1","12.94","296.2","1016.005","8.19","58.43","0.0","0.0"],
    [1502016,"2026-01-10 04:20:00","48513","8.98","293.3","13.82","303.0","1016.042","8.16","58.53","0.0","0.0"],
    [1502017,"2026-01-10 04:30:00","48514","8.69","292.8","13.07","291.0","1016.295","8.12","58.68","0.0","0.0"],
    [1502018,"2026-01-10 04:40:00","48515","9.12","294.1","13.82","286.4","1016.223","8.09","59.1","0.0","0.0"],
    [1502019,"2026-01-10 04:50:00","48516","8.92","294.2","13.59","281.0","1016.138","8.06","59.18","0.0","0.0"],
    [1502020,"2026-01-10 05:00:00","48517","9.18","298.2","13.13","300.5","1016.021","8.05","59.19","0.0","0.0"],
    [1502021,"2026-01-10 05:10:00","48518","8.36","300.6","12.94","281.0","1016.121","8.02","59.54","0.0","0.0"],
    [1502022,"2026-01-10 05:20:00","48519","8.02","307.0","12.09","305.9","1016.429","8.03","60.27","0.0","0.0"],
    [1502023,"2026-01-10 05:30:00","48520","8.03","310.1","13.33","310.2","1016.526","8.01","60.46","0.0","0.0"],
    [1502024,"2026-01-10 05:40:00","48521","7.933","305.5","12.77","303.5","1016.743","7.916","60.4","0.0","0.0"],
    [1502025,"2026-01-10 05:50:00","48522","7.7989999999999995","302.0","14.37","300.9","1016.857","7.89","60.54","0.0","0.0"],
    [1502026,"2026-01-10 06:00:00","48523","8.96","305.8","13.26","295.1","1016.799","7.917000000000001","60.47","0.0","0.0"],
    [1502027,"2026-01-10 06:10:00","48524","9.51","317.7","13.2","307.3","1016.977","7.97","60.78","0.0","0.0"],
    [1502028,"2026-01-10 06:20:00","48525","7.272","309.5","12.45","290.1","1016.959","7.99","60.91","0.0","0.0"],
    [1502029,"2026-01-10 06:30:00","48526","6.992000000000001","314.2","9.6","308.5","1017.282","7.968999999999999","60.77","0.0","0.0"],
    [1502030,"2026-01-10 06:40:00","48527","7.416","306.5","12.84","302.2","1017.115","8.0","60.37","0.0","0.0"],
    [1502031,"2026-01-10 06:50:00","48528","8.57","306.8","13.39","300.2","1017.234","8.06","59.54","0.0","0.0"],
    [1502032,"2026-01-10 07:00:00","48529","8.37","303.2","12.61","304.4","1017.304","8.03","59.25","0.0","0.0"],
    [1502033,"2026-01-10 07:10:00","48530","7.982","301.4","12.67","302.2","1017.407","7.925","59.47","0.057","0.0"],
    [1502034,"2026-01-10 07:20:00","48531","7.443","298.6","11.37","309.9","1017.453","7.835","59.67","2.537","0.0"],
    [1502035,"2026-01-10 07:30:00","48532","6.531000000000001","298.1","12.22","309.1","1017.648","7.854","59.64","11.3","0.0"],
    [1502036,"2026-01-10 07:40:00","48533","6.21","302.7","9.83","316.4","1017.774","7.921","59.43","22.95","0.0"],
    [1502037,"2026-01-10 07:50:00","48534","6.101","298.3","10.81","312.8","1017.908","7.973","59.21","42.27","0.0"],
    [1502038,"2026-01-10 08:00:00","48535","6.347","302.2","10.29","292.1","1018.172","8.12","58.95","68.26","0.0"],
    [1502039,"2026-01-10 08:10:00","48536","6.074","305.8","10.0","301.4","1018.413","8.21","59.08","96.4","0.0"],
    [1502040,"2026-01-10 08:20:00","48537","6.357","306.5","11.37","311.2","1018.723","8.22","59.08","124.6","0.0"],
    [1502041,"2026-01-10 08:30:00","48538","3.5010000000000003","312.1","7.187","310.8","1019.094","8.32","59.11","149.7","0.0"],
    [1502042,"2026-01-10 08:40:00","48539","3.3360000000000003","303.6","5.684","299.8","1019.21","8.38","58.75","174.2","0.0"],
    [1502043,"2026-01-10 08:50:00","48540","4.6","304.1","8.92","302.3","1019.35","8.42","58.23","199.8","0.0"],
    [1502044,"2026-01-10 09:00:00","48541","3.359","309.8","7.971","311.9","1019.664","8.6","58.08","227.9","0.0"],
    [1502045,"2026-01-10 09:10:00","48542","3.3510000000000004","310.8","6.566","310.2","1019.817","8.75","57.62","252.1","0.0"],
    [1502046,"2026-01-10 09:20:00","48543","3.281","338.6","5.357","347.0","1019.949","8.9","57.71","301.7","0.0"],
    [1502047,"2026-01-10 09:30:00","48544","2.608","337.1","5.553","330.4","1020.045","9.12","57.07","320.3","0.0"],
    [1502048,"2026-01-10 09:40:00","48545","2.332","334.2","4.181","331.7","1020.159","9.23","56.79","302.9","0.0"],
    [1502049,"2026-01-10 09:50:00","48546","2.783","327.7","4.867","320.4","1020.272","9.29","55.93","297.4","0.0"],
    [1502050,"2026-01-10 10:00:00","48547","1.3459999999999999","330.3","4.149","337.1","1020.269","9.39","54.91","269.3","0.0"],
    [1502051,"2026-01-10 10:10:00","48548","3.552","302.2","6.957999999999999","285.2","1020.233","9.5","54.36","311.9","0.0"],
    [1502052,"2026-01-10 10:20:00","48549","4.373","296.5","6.86","305.3","1020.102","9.64","53.86","312.1","0.0"],
    [1502053,"2026-01-10 10:30:00","48550","3.267","289.2","4.835","275.7","1020.045","9.72","53.63","309.7","0.0"],
    [1502054,"2026-01-10 10:40:00","48551","4.093999999999999","293.8","6.9910000000000005","281.5","1019.927","9.85","53.54","354.6","0.0"],
    [1502055,"2026-01-10 10:50:00","48552","5.492999999999999","301.2","7.35","308.5","1019.698","10.05","53.06","508.8","0.0"],
    [1502056,"2026-01-10 11:00:00","48553","6.2989999999999995","296.3","10.22","292.6","1019.464","10.18","52.15","477.6","0.0"],
    [1502057,"2026-01-10 11:10:00","48554","6.291","299.2","8.92","305.7","1019.338","10.43","51.62","469.5","0.0"],
    [1502058,"2026-01-10 11:20:00","48555","5.513","299.4","8.46","308.2","1019.182","10.77","51.04","473.0","0.0"],
    [1502059,"2026-01-10 11:30:00","48556","5.803999999999999","303.2","10.32","316.7","1019.092","11.04","49.93","476.3","0.0"],
    [1502060,"2026-01-10 11:40:00","48557","5.727","300.6","9.57","313.1","1018.961","11.24","49.27","478.8","0.0"],
    [1502061,"2026-01-10 11:50:00","48558","5.324","297.3","9.31","305.3","1018.815","11.4","48.42","480.4","0.0"],
    [1502062,"2026-01-10 12:00:00","48559","6.853","290.9","10.91","289.7","1018.633","11.46","48.12","481.9","0.0"],
    [1502063,"2026-01-10 12:10:00","48560","7.2010000000000005","291.3","11.63","300.2","1018.483","11.66","47.28","480.5","0.0"],
    [1502064,"2026-01-10 12:20:00","48561","6.483","293.3","9.96","282.1","1018.236","11.85","46.26","477.4","0.0"],
    [1502065,"2026-01-10 12:30:00","48562","6.046","292.2","10.26","292.9","1017.958","12.2","45.37","473.0","0.0"],
    [1502066,"2026-01-10 12:40:00","48563","6.73","286.9","11.27","288.6","1017.825","12.3","44.33","467.2","0.0"],
    [1502067,"2026-01-10 12:50:00","48564","6.159","282.0","9.73","291.5","1017.636","12.66","43.14","460.6","0.0"],
    [1502068,"2026-01-10 13:00:00","48565","6.681","285.1","9.77","294.3","1017.629","12.69","42.12","452.4","0.0"],
    [1502069,"2026-01-10 13:10:00","48566","7.334","284.9","10.55","282.6","1017.55","12.77","41.53","443.6","0.0"],
    [1502070,"2026-01-10 13:20:00","48567","7.095","284.1","11.34","275.7","1017.481","12.79","41.87","433.0","0.0"],
    [1502071,"2026-01-10 13:30:00","48568","7.388999999999999","284.3","10.94","280.7","1017.289","12.86","42.27","421.8","0.0"],
    [1502072,"2026-01-10 13:40:00","48569","7.537000000000001","284.7","13.2","288.1","1017.217","13.11","41.55","410.6","0.0"],
    [1502073,"2026-01-10 13:50:00","48570","8.59","284.0","12.61","288.4","1017.096","13.12","40.68","405.4","0.0"],
    [1502074,"2026-01-10 14:00:00","48571","7.013999999999999","279.7","10.91","269.3","1017.199","13.16","41.72","384.4","0.0"],
    [1502075,"2026-01-10 14:10:00","48572","5.282","270.9","8.53","259.1","1017.37","13.37","41.98","360.9","0.0"],
    [1502076,"2026-01-10 14:20:00","48573","5.452000000000001","272.8","9.02","272.4","1017.451","13.4","42.69","340.3","0.0"],
    [1502077,"2026-01-10 14:30:00","48574","6.475","275.4","10.13","268.3","1017.552","13.44","42.94","320.1","0.0"],
    [1502078,"2026-01-10 14:40:00","48575","5.905","271.8","10.32","276.8","1017.598","13.46","42.74","296.1","0.0"],
    [1502079,"2026-01-10 14:50:00","48576","5.845","279.8","9.96","275.6","1017.603","13.53","42.92","270.8","0.0"],
    [1502080,"2026-01-10 15:00:00","48577","7.199","287.2","10.62","275.8","1017.473","13.44","42.99","248.2","0.0"],
    [1502081,"2026-01-10 15:10:00","48578","5.819","275.3","11.04","269.3","1017.57","13.51","42.93","222.8","0.0"],
    [1502082,"2026-01-10 15:20:00","48579","6.105","283.0","10.0","288.0","1017.594","13.48","43.2","198.0","0.0"],
    [1502083,"2026-01-10 15:30:00","48580","5.184","290.8","10.06","308.7","1017.682","13.56","43.28","170.7","0.0"],
    [1502084,"2026-01-10 15:40:00","48581","4.427","278.2","9.11","288.1","1017.71","13.54","43.67","142.6","0.0"],
    [1502085,"2026-01-10 15:50:00","48582","4.925","282.5","8.46","269.6","1017.71","13.46","43.87","110.9","0.0"],
    [1502086,"2026-01-10 16:00:00","48583","3.702","269.9","7.481","282.3","1017.833","13.27","44.29","25.33","0.0"],
    [1502087,"2026-01-10 16:10:00","48584","3.4389999999999996","277.0","6.9910000000000005","283.7","1017.931","13.25","44.46","20.07","0.0"],
    [1502088,"2026-01-10 16:20:00","48585","3.532","274.0","5.978","269.7","1018.098","13.22","44.57","15.62","0.0"],
    [1502089,"2026-01-10 16:30:00","48586","2.842","269.8","5.782","269.7","1018.29","13.13","44.95","9.43","0.0"],
    [1502090,"2026-01-10 16:40:00","48587","2.702","264.7","5.912999999999999","263.8","1018.425","13.08","45.16","4.078","0.0"],
    [1502091,"2026-01-10 16:50:00","48588","2.3169999999999997","273.1","6.957999999999999","275.7","1018.502","13.01","45.39","0.462","0.0"],
    [1502092,"2026-01-10 17:00:00","48589","2.312","268.7","4.737","306.8","1018.629","12.83","45.93","0.0","0.0"],
    [1502093,"2026-01-10 17:10:00","48590","1.5659999999999998","249.0","4.573","250.3","1018.717","12.73","46.3","0.0","0.0"],
    [1502094,"2026-01-10 17:20:00","48591","2.555","266.1","6.501","298.4","1018.696","12.62","46.33","0.0","0.0"],
    [1502095,"2026-01-10 17:30:00","48592","1.827","269.1","4.508","293.6","1018.655","12.56","46.44","0.0","0.0"],
    [1502096,"2026-01-10 17:40:00","48593","2.249","257.1","5.782","253.9","1018.75","12.46","46.76","0.0","0.0"],
    [1502097,"2026-01-10 17:50:00","48594","2.6439999999999997","275.5","5.292000000000001","289.3","1018.849","12.41","46.77","0.0","0.0"],
    [1502098,"2026-01-10 18:00:00","48595","4.829","284.5","9.08","283.0","1018.76","12.42","46.69","0.0","0.0"],
    [1502099,"2026-01-10 18:10:00","48596","5.768","289.6","9.77","287.3","1018.627","12.35","47.18","0.0","0.0"],
    [1502100,"2026-01-10 18:20:00","48597","6.697","290.2","10.29","302.0","1018.687","12.3","47.4","0.0","0.0"],
    [1502101,"2026-01-10 18:30:00","48598","6.244","290.9","9.47","308.8","1018.749","12.21","47.56","0.0","0.0"],
    [1502102,"2026-01-10 18:40:00","48599","5.812","290.9","9.44","272.6","1018.852","12.09","47.89","0.0","0.0"],
    [1502103,"2026-01-10 18:50:00","48600","5.135","288.1","7.709","278.8","1018.997","12.0","48.12","0.0","0.0"],
    [1502104,"2026-01-10 19:00:00","48601","5.853","289.4","8.3","280.3","1019.077","11.92","48.42","0.0","0.0"],
    [1502105,"2026-01-10 19:10:00","48602","5.734","291.7","10.29","287.4","1019.182","11.84","48.9","0.0","0.0"],
    [1502106,"2026-01-10 19:20:00","48603","5.607","294.0","8.89","294.0","1019.168","11.74","49.3","0.0","0.0"],
    [1502107,"2026-01-10 19:30:00","48604","5.382999999999999","300.4","8.1","301.1","1019.216","11.66","49.87","0.0","0.0"],
    [1502108,"2026-01-10 19:40:00","48605","5.16","299.3","7.84","300.4","1019.352","11.58","50.31","0.0","0.0"],
    [1502109,"2026-01-10 19:50:00","48606","4.735","303.7","7.35","317.5","1019.53","11.51","50.36","0.0","0.0"],
    [1502110,"2026-01-10 20:00:00","48607","4.831","300.9","7.415","284.4","1019.602","11.41","50.44","0.0","0.0"],
    [1502111,"2026-01-10 20:10:00","48608","4.77","301.0","7.317","312.3","1019.678","11.33","50.86","0.0","0.0"],
    [1502112,"2026-01-10 20:20:00","48609","3.8369999999999997","297.7","6.042999999999999","289.2","1019.771","11.2","51.35","0.0","0.0"],
    [1502113,"2026-01-10 20:30:00","48610","4.582","301.2","7.4479999999999995","324.5","1019.798","11.12","51.43","0.0","0.0"],
    [1502114,"2026-01-10 20:40:00","48611","4.323","287.9","8.26","288.3","1019.722","11.0","51.41","0.0","0.0"],
    [1502115,"2026-01-10 20:50:00","48612","4.141","292.8","7.056","302.5","1019.769","10.91","51.84","0.0","0.0"],
    [1502116,"2026-01-10 21:00:00","48613","3.9730000000000003","293.8","7.056","279.2","1019.713","10.83","52.17","0.0","0.0"],
    [1502117,"2026-01-10 21:10:00","48614","4.0760000000000005","290.4","6.5329999999999995","290.4","1019.695","10.73","52.32","0.0","0.0"],
    [1502118,"2026-01-10 21:20:00","48615","3.7910000000000004","294.1","6.37","307.9","1019.713","10.67","52.65","0.0","0.0"],
    [1502119,"2026-01-10 21:30:00","48616","4.103","298.9","6.0760000000000005","315.7","1019.608","10.65","53.09","0.0","0.0"],
    [1502120,"2026-01-10 21:40:00","48617","4.73","297.6","7.154","302.2","1019.494","10.59","52.86","0.0","0.0"],
    [1502121,"2026-01-10 21:50:00","48618","4.498","295.1","7.644","306.1","1019.536","10.53","52.61","0.0","0.0"],
    [1502122,"2026-01-10 22:00:00","48619","3.926","311.5","6.501","289.9","1019.745","10.57","52.65","0.0","0.0"],
    [1502123,"2026-01-10 22:10:00","48620","4.805","317.7","6.729","315.7","1019.875","10.63","52.57","0.0","0.0"],
    [1502124,"2026-01-10 22:20:00","48621","2.138","11.81","5.945","314.4","1020.121","10.66","52.02","0.0","0.0"],
    [1502125,"2026-01-10 22:30:00","48622","1.348","15.4","2.6460000000000004","36.37","1020.31","10.77","51.32","0.0","0.0"],
    [1502126,"2026-01-10 22:40:00","48623","1.732","1.761","3.92","40.29","1020.418","11.0","50.14","0.0","0.0"],
    [1502127,"2026-01-10 22:50:00","48624","3.563","21.53","4.541","25.97","1020.423","10.66","56.47","0.0","0.0"],
    [1502128,"2026-01-10 23:00:00","48625","3.111","36.84","4.4430000000000005","48.51","1020.426","10.33","57.41","0.0","0.0"],
    [1502129,"2026-01-10 23:10:00","48626","2.41","29.78","3.528","37.73","1020.502","10.28","57.28","0.0","0.0"],
    [1502130,"2026-01-10 23:20:00","48627","2.656","3.998","3.528","358.2","1020.469","10.16","57.9","0.0","0.0"],
    [1502131,"2026-01-10 23:30:00","48628","3.005","333.4","4.181","346.2","1020.463","9.94","58.09","0.0","0.0"],
    [1502132,"2026-01-10 23:40:00","48629","2.34","325.3","3.9530000000000003","323.7","1020.504","10.21","54.64","0.0","0.0"],
    [1502133,"2026-01-10 23:50:00","48630","2.844","308.9","4.9","312.5","1020.504","9.98","54.32","0.0","0.0"],
    [1502134,"2026-01-11 00:00:00","48631","2.237","318.7","3.593","303.0","1020.742","9.83","55.03","0.0","0.0"],
    [1502135,"2026-01-11 00:10:00","48632","2.9219999999999997","307.2","4.377","304.8","1020.727","9.63","55.41","0.0","0.0"],
    [1502136,"2026-01-11 00:20:00","48633","3.563","295.0","5.7170000000000005","297.4","1020.714","9.31","55.87","0.0","0.0"],
    [1502137,"2026-01-11 00:30:00","48634","3.1910000000000003","295.4","4.998","303.2","1020.764","9.22","56.34","0.0","0.0"],
    [1502138,"2026-01-11 00:40:00","48635","2.673","289.6","4.181","296.4","1020.739","9.11","56.8","0.0","0.0"],
    [1502139,"2026-01-11 00:50:00","48636","1.973","281.6","3.1689999999999996","269.3","1020.759","8.95","57.23","0.0","0.0"],
    [1502140,"2026-01-11 01:00:00","48637","1.953","271.3","2.515","261.8","1020.803","8.69","57.56","0.0","0.0"],
    [1502141,"2026-01-11 01:10:00","48638","2.299","277.2","3.136","282.7","1020.876","8.58","58.34","0.0","0.0"],
    [1502142,"2026-01-11 01:20:00","48639","2.1630000000000003","282.0","3.136","277.7","1021.01","8.67","58.17","0.0","0.0"],
    [1502143,"2026-01-11 01:30:00","48640","1.7819999999999998","269.3","2.319","271.9","1021.104","8.56","58.33","0.0","0.0"],
    [1502144,"2026-01-11 01:40:00","48641","1.143","278.0","1.535","267.7","1021.241","8.64","59.03","0.0","0.0"],
    [1502145,"2026-01-11 01:50:00","48642","1.8940000000000001","270.6","2.254","275.3","1021.378","8.6","59.24","0.0","0.0"],
    [1502146,"2026-01-11 02:00:00","48643","1.6480000000000001","270.2","2.0909999999999997","264.1","1021.416","8.46","60.38","0.0","0.0"],
    [1502147,"2026-01-11 02:10:00","48644","1.982","262.7","2.7110000000000003","262.7","1021.511","8.7","60.04","0.0","0.0"],
    [1502148,"2026-01-11 02:20:00","48645","2.9139999999999997","264.0","3.659","250.1","1021.706","8.27","60.97","0.0","0.0"],
    [1502149,"2026-01-11 02:30:00","48646","2.9339999999999997","268.4","3.528","262.9","1021.736","8.11","62.2","0.0","0.0"],
    [1502150,"2026-01-11 02:40:00","48647","3.2260000000000004","271.0","3.9530000000000003","273.7","1021.768","8.36","62.6","0.0","0.0"],
    [1502151,"2026-01-11 02:50:00","48648","2.8710000000000004","273.0","3.855","271.6","1021.902","8.32","62.69","0.0","0.0"],
    [1502152,"2026-01-11 03:00:00","48649","2.728","277.2","3.495","285.6","1021.968","8.5","62.95","0.0","0.0"],
    [1502153,"2026-01-11 03:10:00","48650","2.498","279.8","3.1689999999999996","284.5","1021.966","8.96","62.71","0.0","0.0"],
    [1502154,"2026-01-11 03:20:00","48651","3.2310000000000003","266.1","4.1160000000000005","259.3","1022.02","8.81","62.83","0.0","0.0"],
    [1502155,"2026-01-11 03:30:00","48652","3.2539999999999996","263.9","4.2139999999999995","265.1","1022.006","8.46","62.63","0.0","0.0"],
    [1502156,"2026-01-11 03:40:00","48653","2.209","259.0","3.267","264.1","1022.084","8.64","61.88","0.0","0.0"],
    [1502157,"2026-01-11 03:50:00","48654","2.638","267.1","3.365","264.2","1022.061","8.55","60.85","0.0","0.0"],
    [1502158,"2026-01-11 04:00:00","48655","2.855","281.4","3.43","285.4","1022.05","8.69","60.38","0.0","0.0"],
    [1502159,"2026-01-11 04:10:00","48656","2.339","265.1","3.397","274.3","1022.081","8.51","60.22","0.0","0.0"],
    [1502160,"2026-01-11 04:20:00","48657","2.0580000000000003","265.8","2.7110000000000003","263.8","1022.165","8.39","60.25","0.0","0.0"],
    [1502161,"2026-01-11 04:30:00","48658","2.865","275.0","3.659","285.4","1022.167","8.37","60.56","0.0","0.0"],
    [1502162,"2026-01-11 04:40:00","48659","2.592","268.1","3.6910000000000003","276.9","1022.147","8.52","61.21","0.0","0.0"],
    [1502163,"2026-01-11 04:50:00","48660","3.216","282.6","4.606","295.9","1022.178","8.67","61.94","0.0","0.0"],
    [1502164,"2026-01-11 05:00:00","48661","2.798","289.0","4.606","295.9","1022.3","9.1","60.17","0.0","0.0"],
    [1502165,"2026-01-11 05:10:00","48662","2.8310000000000004","294.0","4.377","302.5","1022.479","9.18","57.87","0.0","0.0"],
    [1502166,"2026-01-11 05:20:00","48663","4.004","289.0","5.4879999999999995","285.3","1022.471","9.14","55.76","0.0","0.0"],
    [1502167,"2026-01-11 05:30:00","48664","4.109","290.2","5.782","293.1","1022.436","9.12","54.93","0.0","0.0"],
    [1502168,"2026-01-11 05:40:00","48665","3.9819999999999998","284.0","5.455","291.7","1022.535","8.98","55.29","0.0","0.0"],
    [1502169,"2026-01-11 05:50:00","48666","3.397","286.2","4.867","301.1","1022.7","8.78","56.5","0.0","0.0"],
    [1502170,"2026-01-11 06:00:00","48667","3.8760000000000003","290.1","5.815","287.8","1022.816","8.73","57.51","0.0","0.0"],
    [1502171,"2026-01-11 06:10:00","48668","4.482","288.6","6.664","279.7","1022.932","8.68","58.16","0.0","0.0"],
    [1502172,"2026-01-11 06:20:00","48669","4.1419999999999995","290.2","6.042999999999999","291.2","1023.028","8.61","59.18","0.0","0.0"],
    [1502173,"2026-01-11 06:30:00","48670","4.371","288.3","6.631","304.5","1023.104","8.57","59.73","0.0","0.0"],
    [1502174,"2026-01-11 06:40:00","48671","4.819","301.6","7.481","312.9","1023.194","8.76","60.11","0.0","0.0"],
    [1502175,"2026-01-11 06:50:00","48672","4.2989999999999995","294.3","6.272","295.4","1023.251","8.61","60.53","0.0","0.0"],
    [1502176,"2026-01-11 07:00:00","48673","4.0360000000000005","293.3","6.631","291.8","1023.417","8.55","60.89","0.0","0.0"],
    [1502177,"2026-01-11 07:10:00","48674","4.1530000000000005","291.7","6.468","282.6","1023.552","8.53","61.2","0.045","0.0"],
    [1502178,"2026-01-11 07:20:00","48675","3.9219999999999997","290.0","5.325","298.5","1023.587","8.45","61.51","1.909","0.0"],
    [1502179,"2026-01-11 07:30:00","48676","3.5060000000000002","294.6","5.455","295.0","1023.838","8.34","62.08","5.939","0.0"],
    [1502180,"2026-01-11 07:40:00","48677","3.387","294.0","5.553","294.1","1024.007","8.29","62.38","11.97","0.0"],
    [1502181,"2026-01-11 07:50:00","48678","3.1860000000000004","295.4","4.541","297.6","1024.12","8.21","62.82","23.03","0.0"],
    [1502182,"2026-01-11 08:00:00","48679","3.384","296.1","5.619","302.1","1024.094","8.2","62.86","44.45","0.0"],
    [1502183,"2026-01-11 08:10:00","48680","3.242","297.5","5.227","297.0","1024.13","8.26","62.48","59.79","0.0"],
    [1502184,"2026-01-11 08:20:00","48681","2.875","295.3","4.2139999999999995","299.9","1024.151","8.38","62.24","114.7","0.0"],
    [1502185,"2026-01-11 08:30:00","48682","2.76","287.5","3.593","281.6","1024.11","8.46","62.04","146.5","0.0"],
    [1502186,"2026-01-11 08:40:00","48683","3.827","284.2","5.684","285.1","1024.018","8.66","62.08","172.2","0.0"],
    [1502187,"2026-01-11 08:50:00","48684","3.145","287.5","5.357","282.3","1024.106","8.89","61.44","192.7","0.0"],
    [1502188,"2026-01-11 09:00:00","48685","4.4030000000000005","281.9","6.337000000000001","283.0","1024.155","8.92","61.04","219.0","0.0"],
    [1502189,"2026-01-11 09:10:00","48686","4.268","283.0","6.239","282.0","1024.306","9.04","60.73","251.7","0.0"],
    [1502190,"2026-01-11 09:20:00","48687","5.104","282.1","6.925","285.4","1024.355","9.07","60.31","272.8","0.0"],
    [1502191,"2026-01-11 09:30:00","48688","4.1","285.2","6.0760000000000005","284.4","1024.571","9.26","60.16","294.3","0.0"],
    [1502192,"2026-01-11 09:40:00","48689","4.1160000000000005","286.3","6.403","269.0","1024.737","9.37","60.14","319.1","0.0"],
    [1502193,"2026-01-11 09:50:00","48690","4.343","287.5","6.305","302.0","1024.932","9.4","59.96","339.0","0.0"],
    [1502194,"2026-01-11 10:00:00","48691","4.471","286.1","6.239","286.5","1024.923","9.38","59.9","357.1","0.0"],
    [1502195,"2026-01-11 10:10:00","48692","4.115","279.9","6.566","276.3","1024.89","9.5","59.11","377.5","0.0"],
    [1502196,"2026-01-11 10:20:00","48693","4.178999999999999","293.4","6.729","315.0","1024.729","9.73","58.17","396.8","0.0"],
    [1502197,"2026-01-11 10:30:00","48694","4.274","289.5","5.88","302.2","1024.818","9.76","57.76","412.9","0.0"],
    [1502198,"2026-01-11 10:40:00","48695","3.9930000000000003","298.8","5.978","307.4","1024.848","9.91","57.39","428.2","0.0"],
    [1502199,"2026-01-11 10:50:00","48696","4.343999999999999","294.5","7.121","280.5","1024.737","9.99","56.99","441.8","0.0"],
    [1502200,"2026-01-11 11:00:00","48697","4.66","294.4","7.056","290.6","1024.612","10.05","55.99","453.3","0.0"],
    [1502201,"2026-01-11 11:10:00","48698","4.457","293.3","7.252000000000001","287.7","1024.616","10.17","55.23","465.6","0.0"],
    [1502202,"2026-01-11 11:20:00","48699","4.1080000000000005","296.6","6.729","289.4","1024.534","10.55","54.31","459.4","0.0"],
    [1502203,"2026-01-11 11:30:00","48700","3.9760000000000004","298.5","5.7170000000000005","284.2","1024.487","10.78","53.01","471.1","0.0"],
    [1502204,"2026-01-11 11:40:00","48701","3.5380000000000003","289.5","4.9","286.0","1024.453","11.11","51.67","478.3","0.0"],
    [1502205,"2026-01-11 11:50:00","48702","3.529","295.5","5.194","282.2","1024.401","11.34","50.75","479.4","0.0"],
    [1502206,"2026-01-11 12:00:00","48703","2.681","290.2","4.181","288.4","1024.399","11.62","50.09","477.0","0.0"],
    [1502207,"2026-01-11 12:10:00","48704","2.064","283.0","3.397","276.3","1024.16","11.79","48.9","479.2","0.0"],
    [1502208,"2026-01-11 12:20:00","48705","3.102","305.2","4.737","315.6","1024.15","11.89","48.5","487.6","0.0"],
    [1502209,"2026-01-11 12:30:00","48706","3.636","309.7","5.096","311.6","1024.044","12.02","48.92","414.1","0.0"],
    [1502210,"2026-01-11 12:40:00","48707","2.425","287.2","3.6910000000000003","309.1","1023.953","12.27","48.07","402.9","0.0"],
    [1502211,"2026-01-11 12:50:00","48708","1.556","272.5","2.483","326.9","1023.696","12.58","47.95","472.0","0.0"],
    [1502212,"2026-01-11 13:00:00","48709","2.168","235.0","3.201","223.0","1023.642","12.54","47.91","298.9","0.0"],
    [1502213,"2026-01-11 13:10:00","48710","2.089","204.3","3.397","192.7","1023.516","12.38","49.25","267.2","0.0"],
    [1502214,"2026-01-11 13:20:00","48711","3.825","197.4","5.096","197.1","1023.376","12.14","54.84","383.3","0.0"],
    [1502215,"2026-01-11 13:30:00","48712","3.892","190.4","5.422999999999999","190.9","1023.259","11.87","57.71","372.7","0.0"],
    [1502216,"2026-01-11 13:40:00","48713","4.107","190.4","5.357","198.6","1023.07","11.82","57.51","356.3","0.0"],
    [1502217,"2026-01-11 13:50:00","48714","4.093999999999999","184.7","5.586","190.4","1022.925","11.67","58.44","371.3","0.0"],
    [1502218,"2026-01-11 14:00:00","48715","3.417","178.9","4.802","170.0","1022.817","11.83","57.71","366.5","0.0"],
    [1502219,"2026-01-11 14:10:00","48716","3.138","186.7","4.671","185.5","1022.872","11.86","58.22","299.6","0.0"],
    [1502220,"2026-01-11 14:20:00","48717","1.9909999999999999","214.7","3.365","209.5","1022.912","12.39","55.22","336.4","0.0"],
    [1502221,"2026-01-11 14:30:00","48718","3.43","182.3","5.194","172.9","1022.91","12.23","57.87","341.9","0.0"],
    [1502222,"2026-01-11 14:40:00","48719","4.377","170.8","5.422999999999999","173.6","1022.774","11.69","61.95","292.0","0.0"],
    [1502223,"2026-01-11 14:50:00","48720","3.263","179.3","4.149","172.1","1022.841","11.87","61.26","288.4","0.0"],
    [1502224,"2026-01-11 15:00:00","48721","3.48","187.2","5.194","190.5","1023.019","11.9","61.0","258.0","0.0"],
    [1502225,"2026-01-11 15:10:00","48722","2.736","184.8","3.495","173.7","1023.115","12.01","61.74","237.4","0.0"],
    [1502226,"2026-01-11 15:20:00","48723","2.2680000000000002","184.7","3.201","181.7","1023.218","12.2","60.14","210.0","0.0"],
    [1502227,"2026-01-11 15:30:00","48724","2.867","196.6","4.1160000000000005","195.4","1023.207","12.2","59.37","174.9","0.0"],
    [1502228,"2026-01-11 15:40:00","48725","2.603","204.1","3.7569999999999997","192.6","1023.23","12.18","58.58","145.0","0.0"],
    [1502229,"2026-01-11 15:50:00","48726","2.752","202.4","4.1160000000000005","189.2","1023.243","12.13","58.43","122.9","0.0"],
    [1502230,"2026-01-11 16:00:00","48727","2.153","204.9","3.299","191.7","1023.323","11.95","58.96","44.04","0.0"],
    [1502231,"2026-01-11 16:10:00","48728","2.275","219.1","3.985","227.8","1023.313","11.84","59.0","31.69","0.0"],
    [1502232,"2026-01-11 16:20:00","48729","2.161","213.2","4.573","213.1","1023.413","11.83","60.12","21.82","0.0"],
    [1502233,"2026-01-11 16:30:00","48730","1.7719999999999998","238.9","4.279","230.1","1023.393","11.78","61.16","14.07","0.0"],
    [1502234,"2026-01-11 16:40:00","48731","1.8230000000000002","225.2","3.7889999999999997","231.4","1023.429","11.69","61.36","6.791","0.0"],
    [1502235,"2026-01-11 16:50:00","48732","1.32","217.4","2.9730000000000003","198.1","1023.301","11.61","61.58","1.3019999999999998","0.0"],
    [1502236,"2026-01-11 17:00:00","48733","2.605","195.5","3.332","190.8","1023.308","11.51","62.18","0.0","0.0"],
    [1502237,"2026-01-11 17:10:00","48734","2.189","212.7","3.43","216.4","1023.349","11.46","62.32","0.0","0.0"],
    [1502238,"2026-01-11 17:20:00","48735","2.129","210.7","3.659","202.3","1023.382","11.45","62.54","0.0","0.0"],
    [1502239,"2026-01-11 17:30:00","48736","2.7960000000000003","205.1","4.2139999999999995","193.1","1023.303","11.38","63.32","0.0","0.0"],
    [1502240,"2026-01-11 17:40:00","48737","2.738","212.5","4.279","211.6","1023.401","11.41","63.56","0.0","0.0"],
    [1502241,"2026-01-11 17:50:00","48738","2.625","226.4","5.847","225.1","1023.659","11.62","63.08","0.0","0.0"],
    [1502242,"2026-01-11 18:00:00","48739","1.604","228.1","3.136","239.7","1023.553","11.39","63.85","0.0","0.0"],
    [1502243,"2026-01-11 18:10:00","48740","2.381","254.4","3.92","244.6","1023.657","10.96","63.77","0.0","0.0"],
    [1502244,"2026-01-11 18:20:00","48741","2.043","265.8","3.201","250.5","1023.756","10.68","64.64","0.0","0.0"],
    [1502245,"2026-01-11 18:30:00","48742","1.804","257.5","2.7439999999999998","264.0","1023.947","10.3","66.24","0.0","0.0"],
    [1502246,"2026-01-11 18:40:00","48743","1.7630000000000001","259.9","2.548","252.1","1024.07","10.23","67.24","0.0","0.0"],
    [1502247,"2026-01-11 18:50:00","48744","2.025","262.2","2.875","264.3","1024.099","10.05","68.31","0.0","0.0"],
    [1502248,"2026-01-11 19:00:00","48745","1.9509999999999998","272.3","2.221","276.9","1024.134","9.94","69.66","0.0","0.0"],
    [1502249,"2026-01-11 19:10:00","48746","2.112","282.7","2.515","288.6","1024.193","10.11","70.08","0.0","0.0"],
    [1502250,"2026-01-11 19:20:00","48747","1.781","272.0","2.7110000000000003","282.7","1024.219","10.42","68.95","0.0","0.0"],
    [1502251,"2026-01-11 19:30:00","48748","1.129","252.3","1.96","263.1","1024.257","10.46","67.45","0.0","0.0"],
    [1502252,"2026-01-11 19:40:00","48749","1.537","258.8","2.0580000000000003","256.1","1024.195","10.24","67.26","0.0","0.0"],
    [1502253,"2026-01-11 19:50:00","48750","1.8","272.1","2.319","269.8","1024.085","10.1","68.03","0.0","0.0"],
    [1502254,"2026-01-11 20:00:00","48751","1.6969999999999998","269.5","1.993","276.6","1023.952","9.86","69.38","0.0","0.0"],
    [1502255,"2026-01-11 20:10:00","48752","1.676","266.0","1.9269999999999998","267.5","1023.963","9.85","69.33","0.0","0.0"],
    [1502256,"2026-01-11 20:20:00","48753","1.8230000000000002","271.3","2.221","269.6","1023.942","9.99","68.23","0.0","0.0"],
    [1502257,"2026-01-11 20:30:00","48754","1.7590000000000001","269.3","2.156","279.2","1024.008","10.07","66.97","0.0","0.0"],
    [1502258,"2026-01-11 20:40:00","48755","1.6980000000000002","261.8","2.221","263.9","1024.073","9.94","66.97","0.0","0.0"],
    [1502259,"2026-01-11 20:50:00","48756","1.5519999999999998","262.7","1.993","261.1","1024.173","9.84","67.65","0.0","0.0"],
    [1502260,"2026-01-11 21:00:00","48757","1.631","278.6","2.025","285.2","1024.168","9.8","67.87","0.0","0.0"],
    [1502261,"2026-01-11 21:10:00","48758","1.705","282.0","2.123","279.0","1024.179","10.11","67.4","0.0","0.0"],
    [1502262,"2026-01-11 21:20:00","48759","1.735","263.6","2.0909999999999997","272.8","1024.227","10.01","67.16","0.0","0.0"],
    [1502263,"2026-01-11 21:30:00","48760","1.895","272.6","2.319","284.6","1024.189","9.95","66.97","0.0","0.0"],
    [1502264,"2026-01-11 21:40:00","48761","1.993","279.6","2.287","284.6","1024.127","10.11","66.55","0.0","0.0"],
    [1502265,"2026-01-11 21:50:00","48762","2.248","278.8","2.515","277.7","1024.098","10.16","66.24","0.0","0.0"],
    [1502266,"2026-01-11 22:00:00","48763","1.944","253.7","2.352","263.7","1024.075","9.96","66.3","0.0","0.0"],
    [1502267,"2026-01-11 22:10:00","48764","2.102","257.4","2.907","262.4","1024.013","9.08","68.42","0.0","0.0"],
    [1502268,"2026-01-11 22:20:00","48765","2.613","263.0","3.103","266.1","1023.949","8.95","70.06","0.0","0.0"],
    [1502269,"2026-01-11 22:30:00","48766","2.469","264.9","2.875","262.3","1024.048","8.85","70.59","0.0","0.0"],
    [1502270,"2026-01-11 22:40:00","48767","2.336","259.8","2.8089999999999997","265.7","1024.018","9.02","69.59","0.0","0.0"],
    [1502271,"2026-01-11 22:50:00","48768","1.76","255.8","2.7110000000000003","262.8","1024.037","9.12","68.92","0.0","0.0"],
    [1502272,"2026-01-11 23:00:00","48769","2.332","256.7","2.842","261.1","1023.923","8.77","68.18","0.0","0.0"],
    [1502273,"2026-01-11 23:10:00","48770","1.23","247.4","1.8619999999999999","251.0","1023.999","9.2","67.95","0.0","0.0"],
    [1502274,"2026-01-11 23:20:00","48771","1.361","245.3","1.993","252.9","1023.903","9.5","66.32","0.0","0.0"],
    [1502275,"2026-01-11 23:30:00","48772","1.6019999999999999","247.0","2.189","253.6","1023.909","9.52","65.52","0.0","0.0"],
    [1502276,"2026-01-11 23:40:00","48773","1.67","248.0","2.548","256.8","1023.802","9.29","65.64","0.0","0.0"],
    [1502277,"2026-01-11 23:50:00","48774","1.804","253.9","2.417","261.2","1023.848","9.13","65.9","0.0","0.0"],
    [1502278,"2026-01-12 00:00:00","48775","1.146","242.7","1.9269999999999998","254.3","1023.771","8.99","66.3","0.0","0.0"],
    [1502279,"2026-01-12 00:10:00","48776","1.655","250.8","2.287","259.8","1023.746","8.8","66.32","0.0","0.0"],
    [1502280,"2026-01-12 00:20:00","48777","2.556","260.6","3.103","259.3","1023.768","8.37","67.46","0.0","0.0"],
    [1502281,"2026-01-12 00:30:00","48778","2.6310000000000002","264.0","3.005","266.4","1023.719","8.14","69.66","0.0","0.0"],
    [1502282,"2026-01-12 00:40:00","48779","2.2119999999999997","253.8","3.005","261.3","1023.654","8.48","69.43","0.0","0.0"],
    [1502283,"2026-01-12 00:50:00","48780","2.137","257.6","2.875","256.1","1023.599","8.62","68.23","0.0","0.0"],
    [1502284,"2026-01-12 01:00:00","48781","2.1519999999999997","257.0","2.7110000000000003","254.8","1023.485","8.49","68.69","0.0","0.0"],
    [1502285,"2026-01-12 01:10:00","48782","2.265","266.9","3.136","262.7","1023.449","8.39","69.37","0.0","0.0"],
    [1502286,"2026-01-12 01:20:00","48783","1.876","249.8","3.234","269.0","1023.37","8.18","70.59","0.0","0.0"],
    [1502287,"2026-01-12 01:30:00","48784","1.9240000000000002","253.4","2.907","269.9","1023.302","8.33","69.43","0.0","0.0"],
    [1502288,"2026-01-12 01:40:00","48785","1.844","249.4","2.7769999999999997","256.3","1023.412","8.22","68.98","0.0","0.0"],
    [1502289,"2026-01-12 01:50:00","48786","2.465","262.9","2.9730000000000003","265.9","1023.537","7.971","68.62","0.0","0.0"],
    [1502290,"2026-01-12 02:00:00","48787","1.589","254.1","2.7110000000000003","255.6","1023.65","8.27","68.79","0.0","0.0"],
    [1502291,"2026-01-12 02:10:00","48788","1.946","259.1","2.6460000000000004","256.4","1023.489","8.25","68.28","0.0","0.0"],
    [1502292,"2026-01-12 02:20:00","48789","2.0909999999999997","261.6","2.875","259.7","1023.596","8.29","68.55","0.0","0.0"],
    [1502293,"2026-01-12 02:30:00","48790","1.5659999999999998","247.7","2.875","247.4","1023.528","8.86","68.01","0.0","0.0"],
    [1502294,"2026-01-12 02:40:00","48791","1.4609999999999999","238.9","2.417","220.3","1023.377","9.13","66.32","0.0","0.0"],
    [1502295,"2026-01-12 02:50:00","48792","1.536","244.9","2.842","253.3","1023.189","8.92","65.88","0.0","0.0"],
    [1502296,"2026-01-12 03:00:00","48793","1.6340000000000001","235.0","2.679","249.9","1023.137","9.37","65.59","0.0","0.0"],
    [1502297,"2026-01-12 03:10:00","48794","1.41","241.6","2.45","255.2","1023.094","9.49","64.84","0.0","0.0"],
    [1502298,"2026-01-12 03:20:00","48795","1.899","246.1","3.267","272.3","1023.121","9.62","63.12","0.0","0.0"],
    [1502299,"2026-01-12 03:30:00","48796","1.979","252.9","3.267","263.2","1023.023","9.51","62.19","0.0","0.0"],
    [1502300,"2026-01-12 03:40:00","48797","2.004","250.7","2.842","245.0","1022.905","9.37","61.84","0.0","0.0"],
    [1502301,"2026-01-12 03:50:00","48798","2.516","246.1","3.887","263.0","1022.623","8.88","63.39","0.0","0.0"],
    [1502302,"2026-01-12 04:00:00","48799","2.767","264.0","3.887","273.2","1022.527","8.07","65.17","0.0","0.0"],
    [1502303,"2026-01-12 04:10:00","48800","3.21","269.4","4.377","267.0","1022.38","7.532","67.59","0.0","0.0"],
    [1502304,"2026-01-12 04:20:00","48801","2.573","257.7","4.149","261.2","1022.4","7.534","69.07","0.0","0.0"],
    [1502305,"2026-01-12 04:30:00","48802","2.394","261.2","3.463","269.8","1022.431","7.7139999999999995","68.03","0.0","0.0"],
    [1502306,"2026-01-12 04:40:00","48803","2.8819999999999997","268.5","3.43","272.9","1022.383","7.709","67.84","0.0","0.0"],
    [1502307,"2026-01-12 04:50:00","48804","2.349","260.5","3.071","260.0","1022.441","7.775","68.12","0.0","0.0"],
    [1502308,"2026-01-12 05:00:00","48805","2.439","261.2","3.43","258.1","1022.43","7.7860000000000005","67.96","0.0","0.0"],
    [1502309,"2026-01-12 05:10:00","48806","2.148","254.1","3.299","253.7","1022.528","7.959","67.54","0.0","0.0"],
    [1502310,"2026-01-12 05:20:00","48807","1.641","247.3","2.7110000000000003","238.9","1022.528","8.43","66.2","0.0","0.0"],
    [1502311,"2026-01-12 05:30:00","48808","2.136","258.8","2.94","264.2","1022.481","8.5","64.87","0.0","0.0"],
    [1502312,"2026-01-12 05:40:00","48809","1.9580000000000002","249.9","2.875","237.9","1022.438","8.22","65.74","0.0","0.0"],
    [1502313,"2026-01-12 05:50:00","48810","1.665","238.6","2.5810000000000004","267.3","1022.504","8.7","65.78","0.0","0.0"],
    [1502314,"2026-01-12 06:00:00","48811","1.6130000000000002","242.7","2.9730000000000003","251.8","1022.546","8.84","64.92","0.0","0.0"],
    [1502315,"2026-01-12 06:10:00","48812","2.5639999999999996","261.6","3.332","259.3","1022.389","8.8","63.98","0.0","0.0"],
    [1502316,"2026-01-12 06:20:00","48813","2.471","259.8","3.43","262.0","1022.441","8.33","64.91","0.0","0.0"],
    [1502317,"2026-01-12 06:30:00","48814","2.378","264.2","3.332","275.5","1022.45","7.94","65.93","0.0","0.0"],
    [1502318,"2026-01-12 06:40:00","48815","2.444","267.2","3.6260000000000003","281.5","1022.502","7.443","67.54","0.0","0.0"],
    [1502319,"2026-01-12 06:50:00","48816","2.34","257.3","3.659","268.6","1022.507","7.207999999999999","68.84","0.0","0.0"],
    [1502320,"2026-01-12 07:00:00","48817","2.121","260.0","3.267","264.8","1022.463","7.369","69.05","0.0","0.0"],
    [1502321,"2026-01-12 07:10:00","48818","2.8310000000000004","264.3","3.9530000000000003","259.5","1022.433","7.591","68.46","0.027000000000000003","0.0"],
    [1502322,"2026-01-12 07:20:00","48819","2.713","259.5","3.92","268.7","1022.402","7.691","68.4","1.484","0.0"],
    [1502323,"2026-01-12 07:30:00","48820","2.093","254.2","3.332","256.3","1022.459","7.814","67.72","8.21","0.0"],
    [1502324,"2026-01-12 07:40:00","48821","2.54","257.9","3.7239999999999998","246.2","1022.494","7.641","67.3","21.41","0.0"],
    [1502325,"2026-01-12 07:50:00","48822","2.975","264.9","3.985","271.8","1022.453","7.599","67.57","35.08","0.0"],
    [1502326,"2026-01-12 08:00:00","48823","2.4290000000000003","254.8","3.528","265.5","1022.484","7.925","67.54","51.62","0.0"],
    [1502327,"2026-01-12 08:10:00","48824","2.408","245.3","4.1160000000000005","258.2","1022.558","8.44","65.86","80.8","0.0"],
    [1502328,"2026-01-12 08:20:00","48825","2.431","246.9","3.593","259.4","1022.581","8.89","63.62","101.9","0.0"],
    [1502329,"2026-01-12 08:30:00","48826","2.436","247.0","3.495","259.2","1022.607","8.77","63.0","128.7","0.0"],
    [1502330,"2026-01-12 08:40:00","48827","2.818","252.5","4.377","261.7","1022.653","8.81","62.7","148.0","0.0"],
    [1502331,"2026-01-12 08:50:00","48828","2.801","253.2","4.247","244.9","1022.738","8.92","62.69","168.4","0.0"],
    [1502332,"2026-01-12 09:00:00","48829","2.3369999999999997","255.8","3.7239999999999998","244.2","1022.838","9.11","62.23","202.9","0.0"],
    [1502333,"2026-01-12 09:10:00","48830","1.785","257.8","3.267","264.4","1022.84","9.54","61.44","213.7","0.0"],
    [1502334,"2026-01-12 09:20:00","48831","2.005","256.5","3.136","261.1","1022.894","9.74","60.7","191.1","0.0"],
    [1502335,"2026-01-12 09:30:00","48832","1.992","257.0","3.267","264.1","1022.854","9.83","60.35","281.5","0.0"],
    [1502336,"2026-01-12 09:40:00","48833","1.8330000000000002","266.9","2.7769999999999997","260.1","1022.798","10.08","59.88","232.7","0.0"],
    [1502337,"2026-01-12 09:50:00","48834","2.01","262.8","2.7439999999999998","265.0","1022.821","10.41","59.4","300.7","0.0"],
    [1502338,"2026-01-12 10:00:00","48835","1.7890000000000001","256.3","2.679","286.5","1022.771","10.87","58.43","432.3","0.0"],
    [1502339,"2026-01-12 10:10:00","48836","1.5419999999999998","247.8","2.7110000000000003","268.6","1022.736","11.39","57.79","268.0","0.0"],
    [1502340,"2026-01-12 10:20:00","48837","2.362","268.5","3.822","240.7","1022.634","11.88","57.48","314.3","0.0"],
    [1502341,"2026-01-12 10:30:00","48838","1.8159999999999998","267.9","3.365","279.6","1022.545","12.16","57.81","217.7","0.0"],
    [1502342,"2026-01-12 10:40:00","48839","1.8119999999999998","247.3","3.332","259.4","1022.564","12.26","58.19","249.5","0.0"],
    [1502343,"2026-01-12 10:50:00","48840","2.21","240.7","4.181","217.1","1022.483","12.1","58.31","257.0","0.0"],
    [1502344,"2026-01-12 11:00:00","48841","1.679","235.8","2.8089999999999997","215.9","1022.427","11.9","58.57","265.9","0.0"],
    [1502345,"2026-01-12 11:10:00","48842","2.18","253.3","3.495","271.8","1022.254","11.93","59.03","259.0","0.0"],
    [1502346,"2026-01-12 11:20:00","48843","2.175","252.6","4.638999999999999","259.3","1022.083","12.14","59.61","321.2","0.0"],
    [1502347,"2026-01-12 11:30:00","48844","2.185","242.1","3.43","260.2","1021.883","12.31","59.33","387.7","0.0"],
    [1502348,"2026-01-12 11:40:00","48845","2.461","245.3","3.6910000000000003","240.2","1021.664","12.5","59.51","394.9","0.0"],
    [1502349,"2026-01-12 11:50:00","48846","2.384","242.7","3.7569999999999997","256.5","1021.536","12.64","59.56","359.6","0.0"],
    [1502350,"2026-01-12 12:00:00","48847","2.18","251.2","3.6260000000000003","259.3","1021.37","12.76","58.81","318.6","0.0"],
    [1502351,"2026-01-12 12:10:00","48848","1.67","247.2","3.332","254.1","1021.168","13.31","59.04","306.8","0.0"],
    [1502352,"2026-01-12 12:20:00","48849","1.8259999999999998","244.7","3.6260000000000003","268.8","1021.037","13.72","59.97","296.7","0.0"],
    [1502353,"2026-01-12 12:30:00","48850","2.461","232.1","4.671","201.1","1020.94","13.84","60.93","280.7","0.0"],
    [1502354,"2026-01-12 12:40:00","48851","2.133","230.1","3.0380000000000003","235.3","1020.83","13.99","60.55","290.5","0.0"],
    [1502355,"2026-01-12 12:50:00","48852","2.506","232.6","4.279","236.2","1020.682","14.01","60.05","292.2","0.0"],
    [1502356,"2026-01-12 13:00:00","48853","2.97","221.3","4.312","227.2","1020.576","14.11","59.64","350.0","0.0"],
    [1502357,"2026-01-12 13:10:00","48854","3.157","220.1","5.292000000000001","216.1","1020.439","14.26","59.72","339.4","0.0"],
    [1502358,"2026-01-12 13:20:00","48855","2.966","224.4","5.129","212.1","1020.372","14.56","60.18","318.9","0.0"],
    [1502359,"2026-01-12 13:30:00","48856","4.4239999999999995","220.8","8.13","224.1","1020.292","14.79","62.92","351.3","0.0"],
    [1502360,"2026-01-12 13:40:00","48857","5.016","220.2","7.938","212.3","1020.199","14.71","66.73","365.1","0.0"],
    [1502361,"2026-01-12 13:50:00","48858","4.801","219.4","7.481","225.0","1020.098","14.77","68.39","376.2","0.0"],
    [1502362,"2026-01-12 14:00:00","48859","4.732","217.7","7.513","222.4","1020.018","14.73","69.43","369.5","0.0"],
    [1502363,"2026-01-12 14:10:00","48860","5.0489999999999995","219.9","7.513","221.4","1019.914","14.57","69.76","323.1","0.0"],
    [1502364,"2026-01-12 14:20:00","48861","4.598","221.6","8.79","217.1","1019.93","14.62","70.24","299.1","0.0"],
    [1502365,"2026-01-12 14:30:00","48862","4.363","215.2","7.742000000000001","225.0","1019.926","14.52","70.78","245.4","0.0"],
    [1502366,"2026-01-12 14:40:00","48863","4.798","225.1","7.35","221.1","1019.853","14.39","71.81","238.6","0.0"],
    [1502367,"2026-01-12 14:50:00","48864","4.0680000000000005","220.4","6.5329999999999995","244.3","1019.854","14.36","72.93","223.8","0.0"],
    [1502368,"2026-01-12 15:00:00","48865","4.332","209.7","7.415","218.1","1019.796","14.29","74.69","238.0","0.0"],
    [1502369,"2026-01-12 15:10:00","48866","5.274","203.8","8.36","202.0","1019.761","14.18","76.47","226.7","0.0"],
    [1502370,"2026-01-12 15:20:00","48867","5.291","206.3","8.79","205.1","1019.741","14.2","78.58","237.7","0.0"],
    [1502371,"2026-01-12 15:30:00","48868","5.432","203.1","8.23","203.3","1019.766","14.06","80.7","171.0","0.0"],
    [1502372,"2026-01-12 15:40:00","48869","5.147","204.1","7.644","211.0","1019.712","13.84","84.0","120.3","0.0"],
    [1502373,"2026-01-12 15:50:00","48870","5.189","205.7","7.84","208.6","1019.61","13.73","85.8","92.9","0.0"],
    [1502374,"2026-01-12 16:00:00","48871","4.426","211.6","8.49","201.1","1019.676","13.65","87.1","63.09","0.0"],
    [1502375,"2026-01-12 16:10:00","48872","3.3789999999999996","214.2","6.403","200.2","1019.662","13.61","88.4","49.59","0.0"],
    [1502376,"2026-01-12 16:20:00","48873","3.787","216.3","6.042999999999999","235.7","1019.66","13.58","89.4","34.96","0.0"],
    [1502377,"2026-01-12 16:30:00","48874","5.03","221.6","7.938","219.1","1019.587","13.54","90.0","19.33","0.0"],
    [1502378,"2026-01-12 16:40:00","48875","3.903","216.3","7.252000000000001","223.3","1019.582","13.58","90.5","7.182","0.0"],
    [1502379,"2026-01-12 16:50:00","48876","2.455","222.0","5.422999999999999","209.9","1019.637","13.57","91.3","0.802","0.0"],
    [1502380,"2026-01-12 17:00:00","48877","2.275","232.0","3.822","286.9","1019.717","13.4","91.9","0.0","0.0"],
    [1502381,"2026-01-12 17:10:00","48878","2.504","218.2","4.737","225.3","1019.766","13.42","92.4","0.0","0.0"],
    [1502382,"2026-01-12 17:20:00","48879","3.53","215.4","6.795","215.2","1019.739","13.31","92.5","0.0","0.0"],
    [1502383,"2026-01-12 17:30:00","48880","3.907","215.1","7.0889999999999995","215.8","1019.663","13.24","92.3","0.0","0.0"],
    [1502384,"2026-01-12 17:40:00","48881","4.235","218.3","6.631","220.4","1019.722","13.26","92.0","0.0","0.0"],
    [1502385,"2026-01-12 17:50:00","48882","3.695","217.9","6.337000000000001","217.5","1019.827","13.39","91.8","0.0","0.0"],
    [1502386,"2026-01-12 18:00:00","48883","3.6010000000000004","221.6","6.599","206.3","1019.87","13.36","91.9","0.0","0.0"],
    [1502387,"2026-01-12 18:10:00","48884","2.572","235.2","5.292000000000001","218.8","1019.888","13.3","91.8","0.0","0.0"],
    [1502388,"2026-01-12 18:20:00","48885","2.617","243.8","5.194","261.3","1019.939","13.16","91.4","0.0","0.0"],
    [1502389,"2026-01-12 18:30:00","48886","2.476","250.2","3.659","253.3","1019.999","12.98","90.5","0.0","0.0"],
    [1502390,"2026-01-12 18:40:00","48887","2.6039999999999996","250.4","4.247","269.8","1020.041","12.99","89.8","0.0","0.0"],
    [1502391,"2026-01-12 18:50:00","48888","2.314","248.9","4.345","254.5","1020.12","12.87","89.3","0.0","0.0"],
    [1502392,"2026-01-12 19:00:00","48889","2.398","253.4","3.7889999999999997","255.4","1020.107","12.86","88.8","0.0","0.0"],
    [1502393,"2026-01-12 19:10:00","48890","1.6019999999999999","252.2","2.7439999999999998","246.5","1020.105","12.74","88.3","0.0","0.0"],
    [1502394,"2026-01-12 19:20:00","48891","1.671","263.9","2.613","261.5","1020.14","12.56","87.9","0.0","0.0"],
    [1502395,"2026-01-12 19:30:00","48892","1.618","272.7","2.7769999999999997","255.4","1020.143","12.45","87.6","0.0","0.0"],
    [1502396,"2026-01-12 19:40:00","48893","1.6740000000000002","273.7","1.96","272.7","1020.169","12.33","87.4","0.0","0.0"],
    [1502397,"2026-01-12 19:50:00","48894","1.117","253.2","1.764","261.0","1020.19","12.2","86.6","0.0","0.0"],
    [1502398,"2026-01-12 20:00:00","48895","0.831","255.6","1.7309999999999999","276.7","1020.113","12.27","86.4","0.0","0.0"],
    [1502399,"2026-01-12 20:10:00","48896","1.604","287.6","2.025","296.8","1020.032","12.19","85.9","0.0","0.0"],
    [1502400,"2026-01-12 20:20:00","48897","1.266","277.3","1.993","297.5","1020.002","12.16","85.9","0.0","0.0"],
    [1502401,"2026-01-12 20:30:00","48898","0.835","272.0","1.274","262.9","1020.064","11.96","85.8","0.0","0.0"],
    [1502402,"2026-01-12 20:40:00","48899","0.40700000000000003","254.4","1.339","271.3","1020.034","11.93","85.8","0.0","0.0"],
    [1502403,"2026-01-12 20:50:00","48900","0.4","259.3","0.8170000000000001","258.8","1019.991","11.89","85.8","0.0","0.0"],
    [1502404,"2026-01-12 21:00:00","48901","0.662","284.7","1.111","287.9","1019.937","11.85","85.7","0.0","0.0"],
    [1502405,"2026-01-12 21:10:00","48902","1.541","289.8","1.993","288.5","1019.886","11.8","85.9","0.0","0.0"],
    [1502406,"2026-01-12 21:20:00","48903","1.635","278.2","2.0909999999999997","264.3","1019.889","11.96","85.6","0.0","0.0"],
    [1502407,"2026-01-12 21:30:00","48904","1.83","260.6","2.319","260.3","1019.833","11.91","84.8","0.0","0.0"],
    [1502408,"2026-01-12 21:40:00","48905","1.6469999999999998","274.3","2.189","280.8","1019.751","11.9","84.2","0.0","0.0"],
    [1502409,"2026-01-12 21:50:00","48906","1.492","269.4","1.829","267.2","1019.748","11.69","84.8","0.0","0.0"],
    [1502410,"2026-01-12 22:00:00","48907","1.5819999999999999","263.2","1.8619999999999999","260.9","1019.734","11.84","85.0","0.001","0.0"],
    [1502411,"2026-01-12 22:10:00","48908","1.6380000000000001","267.5","2.189","285.8","1019.733","11.75","85.0","0.0","0.0"],
    [1502412,"2026-01-12 22:20:00","48909","2.032","286.8","2.45","287.6","1019.734","11.48","85.6","0.0","0.0"],
    [1502413,"2026-01-12 22:30:00","48910","1.795","285.9","2.417","280.5","1019.761","11.82","86.1","0.035","0.0"],
    [1502414,"2026-01-12 22:40:00","48911","1.672","275.8","1.96","257.8","1019.764","11.85","85.3","0.0","0.0"],
    [1502415,"2026-01-12 22:50:00","48912","1.4380000000000002","279.8","1.797","277.5","1019.823","11.96","84.9","0.0","0.0"],
    [1502416,"2026-01-12 23:00:00","48913","1.719","272.7","1.993","277.7","1019.786","11.88","84.1","0.0","0.0"],
    [1502417,"2026-01-12 23:10:00","48914","1.713","264.7","2.287","261.4","1019.768","11.68","84.0","0.0","0.0"],
    [1502418,"2026-01-12 23:20:00","48915","2.126","270.7","2.5810000000000004","267.2","1019.704","11.62","84.4","0.0","0.0"],
    [1502419,"2026-01-12 23:30:00","48916","1.228","246.0","1.96","261.4","1019.625","11.8","84.9","0.0","0.0"],
    [1502420,"2026-01-12 23:40:00","48917","0.6609999999999999","217.4","1.5030000000000001","216.7","1019.579","11.91","85.0","0.0","0.0"],
    [1502421,"2026-01-12 23:50:00","48918","1.079","253.7","2.025","252.7","1019.483","11.71","85.2","0.0","0.0"],
    [1502422,"2026-01-13 00:00:00","48919","1.493","249.0","2.287","259.8","1019.385","11.41","85.5","0.0","0.0"],
    [1502423,"2026-01-13 00:10:00","48920","1.4509999999999998","250.7","2.254","263.1","1019.333","11.39","86.0","0.015","0.0"],
    [1502424,"2026-01-13 00:20:00","48921","1.8319999999999999","259.2","2.287","267.5","1019.179","11.14","86.4","0.013000000000000001","0.0"],
    [1502425,"2026-01-13 00:30:00","48922","2.024","259.2","2.6460000000000004","270.6","1019.059","11.22","86.5","0.012","0.0"],
    [1502426,"2026-01-13 00:40:00","48923","2.329","266.3","2.7439999999999998","265.3","1019.031","10.9","87.0","0.05","0.0"],
    [1502427,"2026-01-13 00:50:00","48924","1.6059999999999999","245.1","2.515","253.8","1018.978","11.07","87.6","0.032","0.0"],
    [1502428,"2026-01-13 01:00:00","48925","1.5","253.5","1.993","257.4","1018.883","11.37","87.1","0.157","0.0"],
    [1502429,"2026-01-13 01:10:00","48926","0.9840000000000001","245.5","1.535","257.3","1018.824","11.63","86.6","0.20199999999999999","0.0"],
    [1502430,"2026-01-13 01:20:00","48927","1.511","255.5","2.156","262.3","1018.752","11.61","85.3","0.052000000000000005","0.0"],
    [1502431,"2026-01-13 01:30:00","48928","1.453","257.1","1.764","256.4","1018.735","11.6","85.1","0.006999999999999999","0.0"],
    [1502432,"2026-01-13 01:40:00","48929","1.484","264.6","1.8619999999999999","264.4","1018.645","11.44","85.0","0.0","0.0"],
    [1502433,"2026-01-13 01:50:00","48930","1.175","254.2","1.633","259.7","1018.598","11.64","85.5","0.039","0.0"],
    [1502434,"2026-01-13 02:00:00","48931","1.515","251.0","3.528","270.8","1018.607","11.61","84.7","0.07200000000000001","0.0"],
    [1502435,"2026-01-13 02:10:00","48932","1.642","251.9","2.189","257.0","1018.516","11.18","85.9","0.0","0.0"],
    [1502436,"2026-01-13 02:20:00","48933","1.8130000000000002","253.5","2.319","253.6","1018.393","11.04","86.3","0.0","0.0"],
    [1502437,"2026-01-13 02:30:00","48934","2.036","252.8","2.7439999999999998","257.7","1018.306","10.83","86.9","0.0","0.0"],
    [1502438,"2026-01-13 02:40:00","48935","1.5190000000000001","249.8","2.385","258.2","1018.168","10.85","87.3","0.0","0.0"],
    [1502439,"2026-01-13 02:50:00","48936","1.053","254.2","1.993","266.1","1018.068","11.19","87.6","0.001","0.0"],
    [1502440,"2026-01-13 03:00:00","48937","1.358","265.4","2.156","269.6","1017.993","10.96","86.6","0.0","0.0"],
    [1502441,"2026-01-13 03:10:00","48938","1.881","263.4","2.842","252.4","1017.899","10.56","87.5","0.0","0.0"],
    [1502442,"2026-01-13 03:20:00","48939","1.8019999999999998","262.7","2.515","269.1","1017.855","10.54","87.8","0.0","0.0"],
    [1502443,"2026-01-13 03:30:00","48940","1.788","265.3","2.254","266.6","1017.734","10.47","87.7","0.0","0.0"],
    [1502444,"2026-01-13 03:40:00","48941","1.995","268.8","2.613","278.8","1017.626","10.55","87.7","0.071","0.0"],
    [1502445,"2026-01-13 03:50:00","48942","1.215","281.4","2.025","274.6","1017.634","10.54","87.5","0.0","0.0"],
    [1502446,"2026-01-13 04:00:00","48943","2.1109999999999998","269.8","2.548","271.0","1017.66","10.36","87.4","0.0","0.0"],
    [1502447,"2026-01-13 04:10:00","48944","1.8940000000000001","275.6","2.254","262.7","1017.588","10.28","87.6","0.114","0.0"],
    [1502448,"2026-01-13 04:20:00","48945","1.8969999999999998","276.6","2.287","274.0","1017.595","10.37","87.3","0.04","0.0"],
    [1502449,"2026-01-13 04:30:00","48946","1.9480000000000002","273.9","2.221","272.0","1017.602","10.42","86.9","0.03","0.0"],
    [1502450,"2026-01-13 04:40:00","48947","2.6260000000000003","273.0","3.528","261.1","1017.649","10.34","86.7","0.012","0.0"],
    [1502451,"2026-01-13 04:50:00","48948","1.8419999999999999","267.2","2.483","265.0","1017.639","10.42","86.6","0.035","0.0"],
    [1502452,"2026-01-13 05:00:00","48949","0.667","243.4","1.4369999999999998","265.7","1017.585","10.57","86.4","0.08","0.0"],
    [1502453,"2026-01-13 05:10:00","48950","0.196","281.3","0.98","275.3","1017.612","10.75","86.2","0.257","0.0"],
    [1502454,"2026-01-13 05:20:00","48951","1.334","287.4","2.45","264.7","1017.646","10.81","85.8","0.12","0.0"],
    [1502455,"2026-01-13 05:30:00","48952","1.8940000000000001","272.4","2.483","261.9","1017.682","10.6","85.8","0.012","0.0"],
    [1502456,"2026-01-13 05:40:00","48953","1.57","271.0","2.5810000000000004","264.8","1017.729","10.66","85.5","0.049","0.0"],
    [1502457,"2026-01-13 05:50:00","48954","1.0290000000000001","277.1","1.5030000000000001","283.2","1017.72","10.82","85.2","0.09","0.0"],
    [1502458,"2026-01-13 06:00:00","48955","1.224","274.0","1.829","273.2","1017.709","10.77","84.9","0.04","0.0"],
    [1502459,"2026-01-13 06:10:00","48956","1.228","269.2","1.993","276.3","1017.699","10.68","84.6","0.015","0.0"],
    [1502460,"2026-01-13 06:20:00","48957","1.4269999999999998","270.1","2.385","271.7","1017.744","10.69","84.3","0.004","0.0"],
    [1502461,"2026-01-13 06:30:00","48958","1.965","267.5","2.6460000000000004","271.8","1017.793","10.75","83.8","0.005","0.0"],
    [1502462,"2026-01-13 06:40:00","48959","2.312","265.1","3.005","270.3","1017.905","10.71","83.1","0.0","0.0"],
    [1502463,"2026-01-13 06:50:00","48960","2.2319999999999998","266.5","2.7439999999999998","260.6","1017.913","10.74","83.1","0.0","0.0"],
    [1502464,"2026-01-13 07:00:00","48961","1.9809999999999999","270.4","2.515","263.9","1017.932","10.81","82.8","0.298","0.0"],
    [1502465,"2026-01-13 07:10:00","48962","1.683","265.0","2.025","272.4","1017.923","10.95","82.6","1.516","0.0"],
    [1502466,"2026-01-13 07:20:00","48963","1.6219999999999999","274.3","2.0580000000000003","258.3","1017.905","11.05","82.3","1.945","0.0"],
    [1502467,"2026-01-13 07:30:00","48964","1.949","260.6","2.6460000000000004","257.5","1017.937","11.06","81.8","4.72","0.0"],
    [1502468,"2026-01-13 07:40:00","48965","1.516","262.1","2.123","263.1","1017.992","10.95","81.5","12.05","0.0"],
    [1502469,"2026-01-13 07:50:00","48966","1.584","260.2","2.515","258.5","1018.008","10.99","80.7","13.69","0.0"],
    [1502470,"2026-01-13 08:00:00","48967","1.9880000000000002","262.1","2.483","258.8","1018.041","11.0","80.1","23.27","0.0"],
    [1502471,"2026-01-13 08:10:00","48968","2.016","266.4","2.515","263.4","1018.065","11.02","79.95","32.95","0.0"],
    [1502472,"2026-01-13 08:20:00","48969","1.4340000000000002","265.0","2.156","256.5","1018.165","11.1","79.83","39.47","0.0"],
    [1502473,"2026-01-13 08:30:00","48970","1.385","252.1","2.156","257.3","1018.162","11.18","79.5","44.61","0.0"],
    [1502474,"2026-01-13 08:40:00","48971","1.48","254.1","2.221","256.6","1018.182","11.22","79.0","50.42","0.0"],
    [1502475,"2026-01-13 08:50:00","48972","1.1179999999999999","250.7","1.9269999999999998","275.7","1018.221","11.37","78.59","105.1","0.0"],
    [1502476,"2026-01-13 09:00:00","48973","1.216","249.5","2.221","263.3","1018.326","11.64","77.77","138.7","0.0"],
    [1502477,"2026-01-13 09:10:00","48974","1.7719999999999998","260.7","2.8089999999999997","268.4","1018.407","11.79","76.83","215.6","0.0"],
    [1502478,"2026-01-13 09:20:00","48975","2.499","274.9","3.332","273.3","1018.347","12.19","75.72","313.7","0.0"],
    [1502479,"2026-01-13 09:30:00","48976","2.325","282.6","3.136","275.2","1018.407","12.57","74.44","306.7","0.0"],
    [1502480,"2026-01-13 09:40:00","48977","1.864","272.7","2.8089999999999997","268.4","1018.457","13.12","73.39","339.2","0.0"],
    [1502481,"2026-01-13 09:50:00","48978","1.73","267.3","2.45","275.5","1018.512","13.55","72.67","344.1","0.0"],
    [1502482,"2026-01-13 10:00:00","48979","2.195","269.4","3.267","266.3","1018.564","13.85","72.51","377.8","0.0"],
    [1502483,"2026-01-13 10:10:00","48980","2.123","270.6","3.071","271.2","1018.614","14.15","72.39","495.6","0.0"],
    [1502484,"2026-01-13 10:20:00","48981","2.27","268.4","3.659","261.4","1018.626","14.48","73.01","422.3","0.0"],
    [1502485,"2026-01-13 10:30:00","48982","1.4769999999999999","260.9","3.005","280.8","1018.598","14.66","73.78","358.3","0.0"],
    [1502486,"2026-01-13 10:40:00","48983","2.142","255.0","3.855","270.8","1018.52","14.53","74.27","374.7","0.0"],
    [1502487,"2026-01-13 10:50:00","48984","2.061","259.8","3.855","270.8","1018.406","14.5","73.54","368.0","0.0"],
    [1502488,"2026-01-13 11:00:00","48985","2.063","255.1","3.495","260.3","1018.268","14.68","72.72","410.2","0.0"],
    [1502489,"2026-01-13 11:10:00","48986","2.2840000000000003","247.4","4.573","262.4","1018.039","14.84","72.38","429.2","0.0"],
    [1502490,"2026-01-13 11:20:00","48987","2.483","246.5","4.345","259.0","1017.838","14.91","72.9","422.5","0.0"],
    [1502491,"2026-01-13 11:30:00","48988","2.055","217.2","3.267","198.3","1017.695","15.14","73.06","417.1","0.0"],
    [1502492,"2026-01-13 11:40:00","48989","2.022","220.0","3.43","203.6","1017.428","15.33","72.94","469.0","0.0"],
    [1502493,"2026-01-13 11:50:00","48990","2.148","205.7","4.247","222.7","1017.239","15.37","72.71","446.4","0.0"],
    [1502494,"2026-01-13 12:00:00","48991","2.112","223.2","4.247","204.7","1017.035","15.43","72.72","465.5","0.0"],
    [1502495,"2026-01-13 12:10:00","48992","2.61","242.5","5.586","282.2","1016.876","15.73","72.62","449.1","0.0"],
    [1502496,"2026-01-13 12:20:00","48993","2.805","243.4","4.704","257.6","1016.71","15.68","72.01","403.1","0.0"],
    [1502497,"2026-01-13 12:30:00","48994","3.319","221.5","6.337000000000001","211.1","1016.551","15.58","71.57","342.4","0.0"],
    [1502498,"2026-01-13 12:40:00","48995","3.165","232.4","5.88","265.1","1016.405","15.75","70.64","377.2","0.0"],
    [1502499,"2026-01-13 12:50:00","48996","2.7110000000000003","238.0","4.965","260.1","1016.337","15.88","69.61","394.8","0.0"],
    [1502500,"2026-01-13 13:00:00","48997","2.892","228.3","6.0760000000000005","225.5","1016.237","15.94","68.8","454.9","0.0"],
    [1502501,"2026-01-13 13:10:00","48998","4.01","215.2","6.468","212.2","1016.186","15.76","66.53","383.8","0.0"],
    [1502502,"2026-01-13 13:20:00","48999","3.515","222.8","6.37","194.1","1016.127","15.85","65.96","355.8","0.0"],
    [1502503,"2026-01-13 13:30:00","49000","3.35","224.5","6.042999999999999","210.6","1016.036","15.85","66.82","360.3","0.0"],
    [1502504,"2026-01-13 13:40:00","49001","4.039","216.8","7.546","215.9","1016.015","15.77","67.87","352.7","0.0"],
    [1502505,"2026-01-13 13:50:00","49002","3.909","216.1","7.546","214.3","1016.006","15.75","69.66","347.6","0.0"],
    [1502506,"2026-01-13 14:00:00","49003","5.456","222.2","7.938","218.8","1015.944","15.54","71.46","370.0","0.0"],
    [1502507,"2026-01-13 14:10:00","49004","4.9110000000000005","207.3","8.07","185.6","1015.897","15.5","73.42","358.0","0.0"],
    [1502508,"2026-01-13 14:20:00","49005","4.671","206.3","6.501","227.8","1015.844","15.58","73.12","339.2","0.0"],
    [1502509,"2026-01-13 14:30:00","49006","4.404","205.8","7.415","203.6","1015.794","15.61","72.69","322.7","0.0"],
    [1502510,"2026-01-13 14:40:00","49007","4.47","223.5","7.807","224.5","1015.771","15.63","72.84","296.8","0.0"],
    [1502511,"2026-01-13 14:50:00","49008","4.114","220.1","7.056","228.9","1015.716","15.7","72.44","252.0","0.0"],
    [1502512,"2026-01-13 15:00:00","49009","3.3819999999999997","210.6","6.0760000000000005","224.2","1015.675","15.61","72.94","229.7","0.0"],
    [1502513,"2026-01-13 15:10:00","49010","4.356","199.4","5.978","195.1","1015.634","15.49","73.1","216.8","0.0"],
    [1502514,"2026-01-13 15:20:00","49011","3.842","200.7","5.815","200.4","1015.66","15.39","73.4","193.5","0.0"],
    [1502515,"2026-01-13 15:30:00","49012","4.065","196.5","5.815","185.3","1015.661","15.29","73.9","148.9","0.0"],
    [1502516,"2026-01-13 15:40:00","49013","3.952","190.8","5.1610000000000005","205.4","1015.733","15.08","76.08","113.5","0.0"],
    [1502517,"2026-01-13 15:50:00","49014","4.135","194.8","5.325","199.1","1015.803","14.98","77.69","114.2","0.0"],
    [1502518,"2026-01-13 16:00:00","49015","3.3569999999999998","194.4","4.867","203.4","1015.817","14.86","78.73","59.14","0.0"],
    [1502519,"2026-01-13 16:10:00","49016","2.785","199.3","3.6910000000000003","203.9","1015.85","14.75","79.8","31.27","0.0"],
    [1502520,"2026-01-13 16:20:00","49017","1.774","215.1","3.267","198.2","1015.872","14.71","80.6","18.81","0.0"],
    [1502521,"2026-01-13 16:30:00","49018","1.43","228.3","2.94","201.9","1015.944","14.68","81.1","9.38","0.0"],
    [1502522,"2026-01-13 16:40:00","49019","1.639","235.8","3.299","235.8","1015.947","14.61","81.7","3.988","0.0"],
    [1502523,"2026-01-13 16:50:00","49020","1.463","223.6","2.7110000000000003","240.4","1016.05","14.57","82.5","1.27","0.0"],
    [1502524,"2026-01-13 17:00:00","49021","1.666","253.1","3.365","262.5","1016.177","14.49","83.3","0.0","0.0"],
    [1502525,"2026-01-13 17:10:00","49022","1.745","264.9","2.679","257.6","1016.346","14.4","84.0","0.0","0.0"],
    [1502526,"2026-01-13 17:20:00","49023","1.85","269.4","3.103","280.8","1016.427","14.33","84.5","0.0","0.0"],
    [1502527,"2026-01-13 17:30:00","49024","1.4609999999999999","268.2","2.417","270.0","1016.453","14.28","84.8","0.0","0.0"],
    [1502528,"2026-01-13 17:40:00","49025","0.71","253.4","2.0909999999999997","270.3","1016.417","14.3","84.7","0.0","0.0"],
    [1502529,"2026-01-13 17:50:00","49026","0.342","165.4","1.143","160.4","1016.455","14.29","84.8","0.0","0.0"],
    [1502530,"2026-01-13 18:00:00","49027","0.122","176.1","0.621","168.5","1016.495","14.23","85.0","0.0","0.0"],
    [1502531,"2026-01-13 18:10:00","49028","0.106","270.4","1.013","256.1","1016.477","14.24","85.3","0.0","0.0"],
    [1502532,"2026-01-13 18:20:00","49029","0.361","143.6","0.915","135.7","1016.509","14.17","85.8","0.0","0.0"],
    [1502533,"2026-01-13 18:30:00","49030","0.408","141.3","1.078","146.0","1016.581","14.01","86.9","0.0","0.0"],
    [1502534,"2026-01-13 18:40:00","49031","1.743","126.6","2.417","123.6","1016.538","14.01","89.4","0.0","0.0"],
    [1502535,"2026-01-13 18:50:00","49032","1.8780000000000001","122.4","2.156","122.1","1016.593","13.95","91.1","0.0","0.0"],
    [1502536,"2026-01-13 19:00:00","49033","1.784","118.7","2.156","116.1","1016.721","13.97","91.5","0.0","0.0"],
    [1502537,"2026-01-13 19:10:00","49034","1.662","125.4","2.221","122.9","1016.76","14.03","91.9","0.0","0.0"],
    [1502538,"2026-01-13 19:20:00","49035","2.045","120.2","2.7769999999999997","124.1","1016.775","14.01","92.8","0.0","0.0"],
    [1502539,"2026-01-13 19:30:00","49036","2.077","113.6","2.515","115.4","1016.814","14.04","94.0","0.0","0.0"],
    [1502540,"2026-01-13 19:40:00","49037","1.819","118.8","2.352","112.7","1016.895","14.05","96.0","0.0","0.0"],
    [1502541,"2026-01-13 19:50:00","49038","1.89","109.7","2.483","109.7","1016.937","14.02","98.2","0.0","0.0"],
    [1502542,"2026-01-13 20:00:00","49039","1.757","107.1","2.254","105.6","1016.993","13.96","99.7","0.0","0.0"],
    [1502543,"2026-01-13 20:10:00","49040","1.801","110.7","2.254","110.9","1017.013","13.96","100.0","0.0","0.0"],
    [1502544,"2026-01-13 20:20:00","49041","1.653","100.4","2.287","103.4","1017.023","13.93","100.0","0.0","0.0"],
    [1502545,"2026-01-13 20:30:00","49042","1.5230000000000001","90.3","2.123","89.3","1017.023","13.95","100.0","0.0","0.0"],
    [1502546,"2026-01-13 20:40:00","49043","0.831","47.68","1.339","71.13","1017.133","13.95","100.0","0.0","0.0"],
    [1502547,"2026-01-13 20:50:00","49044","0.7070000000000001","319.9","1.078","338.1","1017.268","13.69","100.0","0.0","0.0"],
    [1502548,"2026-01-13 21:00:00","49045","1.0270000000000001","335.4","1.568","334.0","1017.296","13.67","100.0","0.0","0.0"],
    [1502549,"2026-01-13 21:10:00","49046","1.183","15.43","1.47","354.8","1017.325","13.77","100.0","0.0","0.0"],
    [1502550,"2026-01-13 21:20:00","49047","1.385","56.95","1.895","62.59","1017.237","13.81","100.0","0.0","0.0"],
    [1502551,"2026-01-13 21:30:00","49048","1.625","39.69","2.45","38.61","1017.314","13.75","100.0","0.0","0.0"],
    [1502552,"2026-01-13 21:40:00","49049","1.482","25.66","2.0909999999999997","36.04","1017.319","13.6","100.0","0.0","0.0"],
    [1502553,"2026-01-13 21:50:00","49050","1.338","7.459","1.9269999999999998","6.952000000000001","1017.254","13.25","100.0","0.0","0.0"],
    [1502554,"2026-01-13 22:00:00","49051","1.107","11.89","1.3719999999999999","6.11","1017.255","13.23","100.0","0.0","0.0"],
    [1502555,"2026-01-13 22:10:00","49052","1.091","304.1","1.797","268.4","1017.349","12.89","100.0","0.0","0.0"],
    [1502556,"2026-01-13 22:20:00","49053","1.121","276.1","2.156","264.8","1017.366","12.62","100.0","0.0","0.0"],
    [1502557,"2026-01-13 22:30:00","49054","0.514","311.2","1.47","273.0","1017.366","12.65","100.0","0.0","0.0"],
    [1502558,"2026-01-13 22:40:00","49055","0.66","283.1","1.2409999999999999","261.7","1017.341","12.53","100.0","0.0","0.0"],
    [1502559,"2026-01-13 22:50:00","49056","0.371","293.7","1.143","280.5","1017.378","12.55","100.0","0.0","0.0"],
    [1502560,"2026-01-13 23:00:00","49057","0.877","286.4","1.993","273.8","1017.354","12.32","100.0","0.0","0.0"],
    [1502561,"2026-01-13 23:10:00","49058","0.8959999999999999","302.7","1.47","282.7","1017.345","12.16","100.0","0.0","0.0"],
    [1502562,"2026-01-13 23:20:00","49059","1.689","272.4","2.319","261.6","1017.407","12.0","100.0","0.0","0.0"],
    [1502563,"2026-01-13 23:30:00","49060","1.8619999999999999","275.4","2.156","276.0","1017.415","11.74","100.0","0.0","0.0"],
    [1502564,"2026-01-13 23:40:00","49061","2.365","269.0","3.0380000000000003","264.0","1017.456","11.66","100.0","0.0","0.0"],
    [1502565,"2026-01-13 23:50:00","49062","2.707","266.3","3.495","264.7","1017.565","11.54","100.0","0.0","0.0"],
    [1502566,"2026-01-14 00:00:00","49063","2.591","265.2","3.071","263.2","1017.478","11.47","100.0","0.0","0.0"],
    [1502567,"2026-01-14 00:10:00","49064","2.512","269.9","2.875","267.3","1017.437","11.39","100.0","0.0","0.0"],
    [1502568,"2026-01-14 00:20:00","49065","2.327","265.6","2.679","265.5","1017.408","11.5","100.0","0.0","0.0"],
    [1502569,"2026-01-14 00:30:00","49066","2.7260000000000004","264.9","3.1689999999999996","267.0","1017.371","11.49","100.0","0.0","0.0"],
    [1502570,"2026-01-14 00:40:00","49067","2.636","263.2","3.005","263.5","1017.287","11.36","100.0","0.0","0.0"],
    [1502571,"2026-01-14 00:50:00","49068","2.289","263.1","2.6460000000000004","256.0","1017.267","11.29","100.0","0.0","0.0"],
    [1502572,"2026-01-14 01:00:00","49069","2.316","264.7","2.7110000000000003","261.8","1017.281","11.22","100.0","0.0","0.0"],
    [1502573,"2026-01-14 01:10:00","49070","2.214","270.0","2.7769999999999997","262.6","1017.357","11.12","100.0","0.0","0.0"],
    [1502574,"2026-01-14 01:20:00","49071","2.4730000000000003","273.0","3.0380000000000003","268.8","1017.38","10.78","100.0","0.0","0.0"],
    [1502575,"2026-01-14 01:30:00","49072","2.778","268.2","3.1689999999999996","265.2","1017.439","10.77","100.0","0.0","0.0"],
    [1502576,"2026-01-14 01:40:00","49073","2.924","266.0","3.267","266.4","1017.406","10.67","100.0","0.0","0.0"],
    [1502577,"2026-01-14 01:50:00","49074","2.7319999999999998","269.4","3.201","271.1","1017.416","10.58","100.0","0.0","0.0"],
    [1502578,"2026-01-14 02:00:00","49075","2.542","266.4","2.8089999999999997","272.1","1017.441","10.56","100.0","0.0","0.0"],
    [1502579,"2026-01-14 02:10:00","49076","2.7030000000000003","265.1","3.005","266.1","1017.4","10.47","100.0","0.0","0.0"],
    [1502580,"2026-01-14 02:20:00","49077","2.827","265.3","3.071","265.7","1017.375","10.39","100.0","0.0","0.0"],
    [1502581,"2026-01-14 02:30:00","49078","2.748","266.2","3.071","266.2","1017.304","10.33","100.0","0.0","0.0"],
    [1502582,"2026-01-14 02:40:00","49079","2.3409999999999997","275.1","2.7110000000000003","276.5","1017.253","10.31","100.0","0.0","0.0"],
    [1502583,"2026-01-14 02:50:00","49080","2.589","270.7","2.875","270.7","1017.234","10.28","100.0","0.0","0.0"],
    [1502584,"2026-01-14 03:00:00","49081","2.522","263.5","2.875","260.4","1017.199","10.23","99.9","0.0","0.0"],
    [1502585,"2026-01-14 03:10:00","49082","2.5980000000000003","263.3","2.875","257.5","1017.237","10.39","100.0","0.0","0.0"],
    [1502586,"2026-01-14 03:20:00","49083","2.582","263.4","3.1689999999999996","259.7","1017.161","10.41","100.0","0.0","0.0"],
    [1502587,"2026-01-14 03:30:00","49084","2.511","266.5","2.875","268.1","1017.076","10.52","100.0","0.0","0.0"],
    [1502588,"2026-01-14 03:40:00","49085","2.7569999999999997","265.6","3.136","267.9","1017.078","10.38","99.8","0.0","0.0"],
    [1502589,"2026-01-14 03:50:00","49086","2.251","265.4","3.299","269.6","1017.101","10.18","99.0","0.0","0.0"],
    [1502590,"2026-01-14 04:00:00","49087","2.9530000000000003","263.5","3.7889999999999997","264.9","1017.095","10.15","98.2","0.0","0.0"],
    [1502591,"2026-01-14 04:10:00","49088","2.674","261.0","3.463","271.9","1017.112","10.13","97.4","0.0","0.0"],
    [1502592,"2026-01-14 04:20:00","49089","2.392","263.9","3.397","270.2","1017.084","10.21","96.8","0.0","0.0"],
    [1502593,"2026-01-14 04:30:00","49090","2.316","263.9","3.299","258.0","1017.022","10.17","96.4","0.0","0.0"],
    [1502594,"2026-01-14 04:40:00","49091","2.2","264.4","3.332","262.4","1016.973","10.25","95.9","0.0","0.0"],
    [1502595,"2026-01-14 04:50:00","49092","2.1","262.3","3.1689999999999996","257.6","1016.885","10.16","95.4","0.0","0.0"],
    [1502596,"2026-01-14 05:00:00","49093","2.469","263.6","3.593","264.3","1016.941","10.12","94.8","0.0","0.0"],
    [1502597,"2026-01-14 05:10:00","49094","2.256","263.6","3.365","267.3","1016.915","10.07","94.3","0.0","0.0"],
    [1502598,"2026-01-14 05:20:00","49095","2.417","259.6","3.985","257.8","1016.973","10.14","94.2","0.0","0.0"],
    [1502599,"2026-01-14 05:30:00","49096","2.3409999999999997","261.3","3.5610000000000004","256.1","1017.038","10.07","93.9","0.0","0.0"],
    [1502600,"2026-01-14 05:40:00","49097","2.688","258.7","4.149","256.3","1017.113","9.89","93.7","0.0","0.0"],
    [1502601,"2026-01-14 05:50:00","49098","1.6569999999999998","257.0","3.234","257.8","1017.125","9.97","93.5","0.0","0.0"],
    [1502602,"2026-01-14 06:00:00","49099","1.791","271.1","2.6460000000000004","268.6","1017.138","9.93","93.4","0.0","0.0"],
    [1502603,"2026-01-14 06:10:00","49100","2.021","269.8","2.875","265.1","1017.134","9.92","93.6","0.0","0.0"],
    [1502604,"2026-01-14 06:20:00","49101","2.346","261.9","3.593","260.1","1017.234","9.88","93.9","0.0","0.0"],
    [1502605,"2026-01-14 06:30:00","49102","2.305","263.0","3.136","260.3","1017.374","9.78","93.8","0.0","0.0"],
    [1502606,"2026-01-14 06:40:00","49103","2.4819999999999998","266.6","3.495","259.1","1017.484","9.68","93.8","0.0","0.0"],
    [1502607,"2026-01-14 06:50:00","49104","2.596","269.2","3.299","266.5","1017.509","9.67","94.0","0.0","0.0"],
    [1502608,"2026-01-14 07:00:00","49105","2.694","270.0","3.463","271.7","1017.592","9.69","94.3","0.0","0.0"],
    [1502609,"2026-01-14 07:10:00","49106","2.7039999999999997","266.7","3.495","263.9","1017.755","9.65","94.6","0.222","0.0"],
    [1502610,"2026-01-14 07:20:00","49107","2.66","270.4","3.43","275.1","1017.824","9.65","95.0","2.511","0.0"],
    [1502611,"2026-01-14 07:30:00","49108","2.658","270.7","3.103","272.3","1017.829","9.62","95.4","8.92","0.0"],
    [1502612,"2026-01-14 07:40:00","49109","1.899","264.1","2.8089999999999997","268.1","1017.929","9.66","95.8","12.05","0.0"],
    [1502613,"2026-01-14 07:50:00","49110","2.764","269.6","3.6260000000000003","261.0","1017.978","9.76","96.2","21.74","0.0"],
    [1502614,"2026-01-14 08:00:00","49111","2.932","277.0","3.92","275.5","1018.084","9.93","96.3","27.45","0.0"],
    [1502615,"2026-01-14 08:10:00","49112","2.721","275.6","3.299","263.7","1018.219","10.04","96.1","32.64","0.0"],
    [1502616,"2026-01-14 08:20:00","49113","2.335","261.3","3.43","264.4","1018.351","9.99","95.7","43.66","0.0"],
    [1502617,"2026-01-14 08:30:00","49114","2.316","263.6","3.7239999999999998","261.8","1018.411","10.01","95.5","64.55","0.0"],
    [1502618,"2026-01-14 08:40:00","49115","2.969","267.8","3.985","262.4","1018.502","10.1","95.4","101.5","0.0"],
    [1502619,"2026-01-14 08:50:00","49116","3.3489999999999998","279.1","4.018","275.2","1018.572","10.39","95.0","253.3","0.0"],
    [1502620,"2026-01-14 09:00:00","49117","2.401","271.8","3.822","287.0","1018.671","10.71","93.9","225.0","0.0"],
    [1502621,"2026-01-14 09:10:00","49118","1.9780000000000002","261.1","2.94","264.6","1018.83","11.11","92.6","237.4","0.0"],
    [1502622,"2026-01-14 09:20:00","49119","2.051","262.8","3.005","253.6","1018.916","11.32","90.9","276.0","0.0"],
    [1502623,"2026-01-14 09:30:00","49120","1.4869999999999999","264.6","2.0909999999999997","257.1","1018.962","11.6","89.4","283.2","0.0"],
    [1502624,"2026-01-14 09:40:00","49121","1.639","257.4","2.875","256.9","1019.087","11.96","87.8","291.2","0.0"],
    [1502625,"2026-01-14 09:50:00","49122","2.0269999999999997","266.9","3.234","256.8","1019.126","12.25","86.0","317.7","0.0"],
    [1502626,"2026-01-14 10:00:00","49123","2.412","262.6","3.332","260.0","1019.117","12.45","84.4","323.0","0.0"],
    [1502627,"2026-01-14 10:10:00","49124","2.116","261.9","2.875","261.5","1019.175","12.56","83.4","351.2","0.0"],
    [1502628,"2026-01-14 10:20:00","49125","1.651","263.4","2.45","261.6","1019.222","12.9","82.4","343.9","0.0"],
    [1502629,"2026-01-14 10:30:00","49126","1.228","263.8","2.156","258.6","1019.164","13.25","81.0","389.8","0.0"],
    [1502630,"2026-01-14 10:40:00","49127","1.092","268.2","2.123","331.3","1019.152","13.56","79.27","416.4","0.0"],
    [1502631,"2026-01-14 10:50:00","49128","1.972","31.83","3.0380000000000003","61.36","1019.119","13.33","81.0","419.4","0.0"],
    [1502632,"2026-01-14 11:00:00","49129","2.164","55.97","2.7110000000000003","50.37","1019.068","12.8","85.0","441.1","0.0"],
    [1502633,"2026-01-14 11:10:00","49130","2.231","55.98","2.907","73.24","1018.984","12.58","88.2","461.6","0.0"],
    [1502634,"2026-01-14 11:20:00","49131","2.3480000000000003","80.9","2.907","86.8","1018.913","12.47","89.4","469.2","0.0"],
    [1502635,"2026-01-14 11:30:00","49132","2.313","79.76","2.7439999999999998","65.03","1018.788","12.53","90.1","479.1","0.0"],
    [1502636,"2026-01-14 11:40:00","49133","1.891","86.3","2.613","89.0","1018.721","12.73","90.1","491.1","0.0"],
    [1502637,"2026-01-14 11:50:00","49134","1.845","85.8","2.45","91.8","1018.663","12.76","90.0","484.3","0.0"],
    [1502638,"2026-01-14 12:00:00","49135","1.946","73.21","2.5810000000000004","80.4","1018.581","12.72","89.6","463.7","0.0"],
    [1502639,"2026-01-14 12:10:00","49136","1.9580000000000002","84.9","2.319","77.52","1018.458","12.63","89.5","408.6","0.0"],
    [1502640,"2026-01-14 12:20:00","49137","1.838","97.8","2.483","98.2","1018.308","12.66","89.4","341.3","0.0"],
    [1502641,"2026-01-14 12:30:00","49138","2.3","110.9","2.94","113.8","1018.157","12.67","89.4","392.1","0.0"],
    [1502642,"2026-01-14 12:40:00","49139","2.557","119.4","3.201","116.6","1018.065","12.76","89.8","469.4","0.0"],
    [1502643,"2026-01-14 12:50:00","49140","2.386","115.7","3.103","119.6","1017.952","12.9","90.2","430.0","0.0"],
    [1502644,"2026-01-14 13:00:00","49141","2.2359999999999998","120.6","3.201","132.6","1017.853","12.94","90.2","441.7","0.0"],
    [1502645,"2026-01-14 13:10:00","49142","2.252","121.7","2.842","121.2","1017.8","13.0","90.4","321.5","0.0"],
    [1502646,"2026-01-14 13:20:00","49143","1.962","124.0","2.875","130.4","1017.705","13.17","91.3","418.2","0.0"],
    [1502647,"2026-01-14 13:30:00","49144","2.207","146.2","2.9730000000000003","141.1","1017.688","13.32","91.6","459.7","0.0"],
    [1502648,"2026-01-14 13:40:00","49145","2.7230000000000003","157.1","3.332","162.5","1017.658","13.32","92.0","337.9","0.0"],
    [1502649,"2026-01-14 13:50:00","49146","3.114","159.0","4.149","160.9","1017.573","13.32","92.8","347.1","0.0"],
    [1502650,"2026-01-14 14:00:00","49147","3.5269999999999997","167.7","3.9530000000000003","164.0","1017.456","13.26","93.6","193.4","0.0"],
    [1502651,"2026-01-14 14:10:00","49148","3.6839999999999997","172.2","4.312","172.7","1017.454","13.21","94.0","152.0","0.0"],
    [1502652,"2026-01-14 14:20:00","49149","3.392","168.0","3.92","164.3","1017.428","13.23","94.8","183.5","0.0"],
    [1502653,"2026-01-14 14:30:00","49150","3.279","164.0","3.7239999999999998","163.3","1017.48","13.29","95.3","186.1","0.0"],
    [1502654,"2026-01-14 14:40:00","49151","2.755","167.1","3.234","168.3","1017.459","13.31","96.1","154.2","0.0"],
    [1502655,"2026-01-14 14:50:00","49152","2.506","175.9","2.9730000000000003","174.3","1017.509","13.29","95.9","162.5","0.0"],
    [1502656,"2026-01-14 15:00:00","49153","2.535","167.8","2.8089999999999997","170.6","1017.492","13.33","95.7","131.7","0.0"],
    [1502657,"2026-01-14 15:10:00","49154","2.522","165.6","2.7769999999999997","167.9","1017.458","13.35","96.0","123.8","0.0"],
    [1502658,"2026-01-14 15:20:00","49155","2.452","169.6","2.7769999999999997","165.2","1017.479","13.38","96.4","119.6","0.0"],
    [1502659,"2026-01-14 15:30:00","49156","2.339","165.1","2.679","164.6","1017.451","13.41","96.7","93.8","0.0"],
    [1502660,"2026-01-14 15:40:00","49157","2.1919999999999997","171.0","2.45","168.9","1017.54","13.39","97.3","68.61","0.0"],
    [1502661,"2026-01-14 15:50:00","49158","1.77","192.0","2.123","182.1","1017.632","13.42","97.7","89.4","0.0"],
    [1502662,"2026-01-14 16:00:00","49159","1.6119999999999999","187.8","1.895","194.0","1017.65","13.38","97.6","58.81","0.0"],
    [1502663,"2026-01-14 16:10:00","49160","1.268","197.1","1.829","190.7","1017.731","13.4","97.6","43.95","0.0"],
    [1502664,"2026-01-14 16:20:00","49161","1.3559999999999999","192.1","2.123","181.0","1017.863","13.43","97.8","29.65","0.0"],
    [1502665,"2026-01-14 16:30:00","49162","2.019","181.8","2.417","179.8","1017.902","13.43","98.3","27.35","0.0"],
    [1502666,"2026-01-14 16:40:00","49163","1.9380000000000002","176.1","2.45","181.8","1017.861","13.38","98.6","9.97","0.0"],
    [1502667,"2026-01-14 16:50:00","49164","1.7380000000000002","177.0","1.9269999999999998","177.7","1017.836","13.41","99.0","3.1660000000000004","0.0"],
    [1502668,"2026-01-14 17:00:00","49165","0.43799999999999994","235.7","1.764","184.9","1017.883","13.33","99.5","0.473","0.0"],
    [1502669,"2026-01-14 17:10:00","49166","1.068","182.1","1.8619999999999999","177.5","1017.861","13.37","99.8","0.0","0.0"],
    [1502670,"2026-01-14 17:20:00","49167","0.8540000000000001","281.4","1.699","191.2","1017.831","13.32","100.0","0.0","0.0"],
    [1502671,"2026-01-14 17:30:00","49168","0.34299999999999997","301.9","1.078","315.9","1017.863","13.26","100.0","0.0","0.0"],
    [1502672,"2026-01-14 17:40:00","49169","0.293","246.1","0.6859999999999999","250.9","1018.009","13.26","100.0","0.0","0.0"],
    [1502673,"2026-01-14 17:50:00","49170","0.251","270.1","1.209","273.4","1018.082","13.26","100.0","0.0","0.0"],
    [1502674,"2026-01-14 18:00:00","49171","0.17","244.9","0.653","273.5","1018.21","13.24","100.0","0.0","0.0"],
    [1502675,"2026-01-14 18:10:00","49172","0.182","313.8","1.176","300.6","1018.253","13.19","100.0","0.0","0.0"],
    [1502676,"2026-01-14 18:20:00","49173","0.33899999999999997","152.0","1.045","141.9","1018.379","13.26","100.0","0.0","0.0"],
    [1502677,"2026-01-14 18:30:00","49174","0.003","4.703","0.22899999999999998","4.765","1018.352","13.27","100.0","0.0","0.0"],
    [1502678,"2026-01-14 18:40:00","49175","0.049","164.3","0.588","161.5","1018.328","13.24","100.0","0.0","0.0"],
    [1502679,"2026-01-14 18:50:00","49176","0.129","196.3","0.7190000000000001","201.6","1018.418","13.24","100.0","0.0","0.0"],
    [1502680,"2026-01-14 19:00:00","49177","0.504","197.5","1.405","169.1","1018.371","13.2","100.0","0.0","0.0"],
    [1502681,"2026-01-14 19:10:00","49178","1.3459999999999999","203.7","2.679","205.7","1018.498","13.09","100.0","0.0","0.0"],
    [1502682,"2026-01-14 19:20:00","49179","1.274","256.4","2.515","189.2","1018.638","13.0","100.0","0.0","0.0"],
    [1502683,"2026-01-14 19:30:00","49180","0.503","271.2","2.0580000000000003","299.1","1018.636","12.95","100.0","0.0","0.0"],
    [1502684,"2026-01-14 19:40:00","49181","0.289","177.4","1.3719999999999999","182.6","1018.65","12.96","100.0","0.0","0.0"],
    [1502685,"2026-01-14 19:50:00","49182","0.8029999999999999","200.9","1.568","205.3","1018.578","12.91","100.0","0.0","0.0"],
    [1502686,"2026-01-14 20:00:00","49183","0.257","177.4","1.2409999999999999","193.8","1018.591","12.77","100.0","0.0","0.0"],
    [1502687,"2026-01-14 20:10:00","49184","0.377","283.9","1.078","260.4","1018.567","12.62","100.0","0.0","0.0"],
    [1502688,"2026-01-14 20:20:00","49185","0.40399999999999997","238.4","1.2409999999999999","254.7","1018.582","12.46","100.0","0.0","0.0"],
    [1502689,"2026-01-14 20:30:00","49186","0.508","256.9","1.601","240.5","1018.484","12.39","100.0","0.0","0.0"],
    [1502690,"2026-01-14 20:40:00","49187","1.364","271.2","2.287","283.0","1018.471","12.32","100.0","0.0","0.0"],
    [1502691,"2026-01-14 20:50:00","49188","1.538","280.7","1.96","285.5","1018.41","12.18","100.0","0.0","0.0"],
    [1502692,"2026-01-14 21:00:00","49189","1.2830000000000001","278.2","2.417","292.1","1018.494","12.02","100.0","0.0","0.0"],
    [1502693,"2026-01-14 21:10:00","49190","2.07","270.7","2.7439999999999998","267.8","1018.535","11.67","100.0","0.0","0.0"],
    [1502694,"2026-01-14 21:20:00","49191","2.358","269.6","2.842","264.6","1018.567","11.25","100.0","0.0","0.0"],
    [1502695,"2026-01-14 21:30:00","49192","2.66","265.8","2.9730000000000003","264.1","1018.561","11.01","100.0","0.0","0.0"],
    [1502696,"2026-01-14 21:40:00","49193","2.8489999999999998","269.7","3.201","269.2","1018.528","10.98","100.0","0.0","0.0"],
    [1502697,"2026-01-14 21:50:00","49194","2.965","269.3","3.7569999999999997","272.8","1018.599","10.85","100.0","0.0","0.0"],
    [1502698,"2026-01-14 22:00:00","49195","2.217","268.8","3.0380000000000003","272.5","1018.61","10.79","100.0","0.0","0.0"],
    [1502699,"2026-01-14 22:10:00","49196","2.119","270.7","2.45","271.3","1018.669","10.86","100.0","0.0","0.0"],
    [1502700,"2026-01-14 22:20:00","49197","1.462","276.0","2.025","270.9","1018.759","11.01","100.0","0.0","0.0"],
    [1502701,"2026-01-14 22:30:00","49198","1.3630000000000002","266.9","2.319","263.9","1018.784","10.96","100.0","0.0","0.0"],
    [1502702,"2026-01-14 22:40:00","49199","2.233","263.9","2.8089999999999997","264.4","1018.798","10.75","100.0","0.0","0.0"],
    [1502703,"2026-01-14 22:50:00","49200","0.6409999999999999","229.8","1.4369999999999998","266.3","1018.795","11.06","100.0","0.0","0.0"],
    [1502704,"2026-01-14 23:00:00","49201","0.615","273.2","1.535","280.6","1018.75","10.91","100.0","0.0","0.0"],
    [1502705,"2026-01-14 23:10:00","49202","1.6580000000000001","291.2","2.385","306.9","1018.729","10.61","100.0","0.0","0.0"],
    [1502706,"2026-01-14 23:20:00","49203","1.073","255.6","2.189","265.0","1018.737","10.7","100.0","0.0","0.0"],
    [1502707,"2026-01-14 23:30:00","49204","0.39","241.2","1.111","255.8","1018.797","10.81","100.0","0.0","0.0"],
    [1502708,"2026-01-14 23:40:00","49205","1.472","267.7","2.515","271.6","1018.781","10.37","100.0","0.0","0.0"],
    [1502709,"2026-01-14 23:50:00","49206","2.316","270.6","3.0380000000000003","267.0","1018.731","10.1","100.0","0.0","0.0"],
    [1502710,"2026-01-15 00:00:00","49207","2.296","272.3","3.103","266.9","1018.699","9.89","100.0","0.0","0.0"],
    [1502711,"2026-01-15 00:10:00","49208","1.954","283.5","2.613","281.7","1018.686","9.84","100.0","0.0","0.0"],
    [1502712,"2026-01-15 00:20:00","49209","1.226","304.9","1.7309999999999999","293.5","1018.672","10.54","100.0","0.0","0.0"],
    [1502713,"2026-01-15 00:30:00","49210","0.657","329.8","1.111","331.3","1018.561","10.74","100.0","0.0","0.0"],
    [1502714,"2026-01-15 00:40:00","49211","0.273","303.9","0.784","290.0","1018.442","11.08","100.0","0.0","0.0"],
    [1502715,"2026-01-15 00:50:00","49212","0.93","271.6","2.9730000000000003","262.8","1018.445","10.69","100.0","0.0","0.0"],
    [1502716,"2026-01-15 01:00:00","49213","1.8","252.5","2.907","260.0","1018.527","9.75","100.0","0.0","0.0"],
    [1502717,"2026-01-15 01:10:00","49214","2.009","262.2","2.842","266.0","1018.655","9.51","98.8","0.0","0.0"],
    [1502718,"2026-01-15 01:20:00","49215","2.525","267.1","3.201","266.7","1018.758","8.97","96.5","0.0","0.0"],
    [1502719,"2026-01-15 01:30:00","49216","2.064","268.9","2.5810000000000004","262.6","1018.789","8.93","95.4","0.0","0.0"],
    [1502720,"2026-01-15 01:40:00","49217","1.9909999999999999","272.5","2.352","271.4","1018.747","9.04","94.2","0.0","0.0"],
    [1502721,"2026-01-15 01:50:00","49218","1.607","279.3","2.221","268.3","1018.764","9.32","92.5","0.0","0.0"],
    [1502722,"2026-01-15 02:00:00","49219","1.486","268.9","2.189","266.7","1018.79","9.51","91.0","0.0","0.0"],
    [1502723,"2026-01-15 02:10:00","49220","2.075","267.3","2.613","266.6","1018.786","9.32","89.9","0.0","0.0"],
    [1502724,"2026-01-15 02:20:00","49221","1.58","273.3","2.352","264.7","1018.669","9.36","90.5","0.0","0.0"],
    [1502725,"2026-01-15 02:30:00","49222","2.381","263.7","2.7439999999999998","261.5","1018.542","9.21","90.0","0.0","0.0"],
    [1502726,"2026-01-15 02:40:00","49223","2.27","267.7","3.234","266.8","1018.555","9.2","89.7","0.0","0.0"],
    [1502727,"2026-01-15 02:50:00","49224","2.972","261.4","3.495","258.6","1018.532","8.86","90.2","0.0","0.0"],
    [1502728,"2026-01-15 03:00:00","49225","3.375","264.4","4.1160000000000005","264.3","1018.555","8.64","91.3","0.0","0.0"],
    [1502729,"2026-01-15 03:10:00","49226","3.261","264.0","3.92","259.9","1018.379","8.64","92.3","0.0","0.0"],
    [1502730,"2026-01-15 03:20:00","49227","3.699","263.6","4.051","261.1","1018.29","8.54","92.6","0.0","0.0"],
    [1502731,"2026-01-15 03:30:00","49228","3.4739999999999998","264.2","4.508","264.0","1018.289","8.45","93.2","0.0","0.0"],
    [1502732,"2026-01-15 03:40:00","49229","3.053","264.0","4.1160000000000005","267.1","1018.365","8.4","93.6","0.0","0.0"],
    [1502733,"2026-01-15 03:50:00","49230","3.022","260.9","4.41","264.3","1018.411","8.31","94.2","0.0","0.0"],
    [1502734,"2026-01-15 04:00:00","49231","3.0239999999999996","273.6","4.1160000000000005","262.5","1018.36","8.35","95.3","0.0","0.0"],
    [1502735,"2026-01-15 04:10:00","49232","3.0180000000000002","273.3","3.6910000000000003","273.2","1018.339","8.59","95.8","0.0","0.0"],
    [1502736,"2026-01-15 04:20:00","49233","2.208","271.1","2.875","268.0","1018.291","8.69","95.8","0.0","0.0"],
    [1502737,"2026-01-15 04:30:00","49234","1.1520000000000001","287.8","2.483","266.7","1018.377","8.95","96.2","0.0","0.0"],
    [1502738,"2026-01-15 04:40:00","49235","1.411","278.9","2.613","260.6","1018.429","9.31","96.2","0.0","0.0"],
    [1502739,"2026-01-15 04:50:00","49236","1.903","260.0","2.45","258.8","1018.474","9.23","95.9","0.0","0.0"],
    [1502740,"2026-01-15 05:00:00","49237","2.311","256.8","2.7769999999999997","263.7","1018.428","9.0","95.5","0.0","0.0"],
    [1502741,"2026-01-15 05:10:00","49238","2.525","262.3","3.103","263.2","1018.46","8.88","95.5","0.0","0.0"],
    [1502742,"2026-01-15 05:20:00","49239","2.22","265.9","3.1689999999999996","269.2","1018.368","8.84","96.0","0.0","0.0"],
    [1502743,"2026-01-15 05:30:00","49240","2.133","268.9","2.9730000000000003","266.9","1018.261","8.91","96.2","0.0","0.0"],
    [1502744,"2026-01-15 05:40:00","49241","2.5989999999999998","268.9","3.234","267.9","1018.284","8.61","96.3","0.0","0.0"],
    [1502745,"2026-01-15 05:50:00","49242","1.945","264.6","3.103","264.3","1018.311","8.26","96.7","0.0","0.0"],
    [1502746,"2026-01-15 06:00:00","49243","2.097","265.0","3.267","266.9","1018.284","8.1","96.6","0.0","0.0"],
    [1502747,"2026-01-15 06:10:00","49244","2.267","275.4","3.234","263.1","1018.359","7.9879999999999995","96.1","0.0","0.0"],
    [1502748,"2026-01-15 06:20:00","49245","2.625","283.6","3.332","275.8","1018.371","8.19","95.5","0.0","0.0"],
    [1502749,"2026-01-15 06:30:00","49246","2.114","275.1","3.234","278.4","1018.424","8.18","95.0","0.0","0.0"],
    [1502750,"2026-01-15 06:40:00","49247","2.024","270.5","3.267","260.4","1018.365","8.27","94.6","0.0","0.0"],
    [1502751,"2026-01-15 06:50:00","49248","2.523","267.6","3.593","265.8","1018.362","8.29","93.8","0.0","0.0"],
    [1502752,"2026-01-15 07:00:00","49249","2.526","268.8","3.1689999999999996","271.0","1018.326","8.26","92.9","0.0","0.0"],
    [1502753,"2026-01-15 07:10:00","49250","2.623","274.1","3.365","284.5","1018.3","8.39","92.2","0.044000000000000004","0.0"],
    [1502754,"2026-01-15 07:20:00","49251","2.376","279.3","3.1689999999999996","294.5","1018.318","8.73","91.2","2.5610000000000004","0.0"],
    [1502755,"2026-01-15 07:30:00","49252","2.2880000000000003","294.1","3.234","295.1","1018.287","9.12","90.1","10.47","0.0"],
    [1502756,"2026-01-15 07:40:00","49253","2.6189999999999998","300.2","3.985","310.0","1018.249","9.66","88.3","19.95","0.0"],
    [1502757,"2026-01-15 07:50:00","49254","3.8139999999999996","306.6","5.815","309.3","1018.216","10.46","84.9","48.22","0.0"],
    [1502758,"2026-01-15 08:00:00","49255","2.888","292.1","4.149","304.9","1018.157","10.8","81.2","79.54","0.0"],
    [1502759,"2026-01-15 08:10:00","49256","2.577","268.4","3.7889999999999997","274.9","1018.12","9.99","80.8","107.3","0.0"],
    [1502760,"2026-01-15 08:20:00","49257","2.5660000000000003","264.8","3.365","262.6","1018.093","9.92","81.4","134.5","0.0"],
    [1502761,"2026-01-15 08:30:00","49258","2.291","258.0","3.6260000000000003","261.1","1018.11","9.86","81.7","161.2","0.0"],
    [1502762,"2026-01-15 08:40:00","49259","2.344","257.8","3.234","259.3","1018.175","9.91","81.0","185.3","0.0"],
    [1502763,"2026-01-15 08:50:00","49260","2.127","253.3","3.1689999999999996","254.8","1018.301","10.3","80.3","208.9","0.0"],
    [1502764,"2026-01-15 09:00:00","49261","1.8259999999999998","251.4","3.495","261.9","1018.404","10.83","78.74","231.3","0.0"],
    [1502765,"2026-01-15 09:10:00","49262","2.241","241.4","3.7569999999999997","249.6","1018.472","11.13","76.54","254.2","0.0"],
    [1502766,"2026-01-15 09:20:00","49263","2.21","248.1","3.299","248.9","1018.476","11.27","74.49","275.0","0.0"],
    [1502767,"2026-01-15 09:30:00","49264","2.162","249.3","3.136","254.6","1018.552","11.4","73.52","297.0","0.0"],
    [1502768,"2026-01-15 09:40:00","49265","2.237","244.9","3.7239999999999998","253.2","1018.644","11.61","72.92","318.2","0.0"],
    [1502769,"2026-01-15 09:50:00","49266","2.302","247.4","3.6260000000000003","257.8","1018.73","11.82","72.24","337.7","0.0"],
    [1502770,"2026-01-15 10:00:00","49267","2.5610000000000004","265.4","4.018","259.7","1018.735","12.07","71.16","357.4","0.0"],
    [1502771,"2026-01-15 10:10:00","49268","3.1519999999999997","276.9","4.345","269.0","1018.63","12.43","69.72","377.7","0.0"],
    [1502772,"2026-01-15 10:20:00","49269","2.182","266.9","4.1160000000000005","280.8","1018.571","12.94","67.96","393.1","0.0"],
    [1502773,"2026-01-15 10:30:00","49270","1.619","239.7","2.679","221.2","1018.627","13.29","66.58","406.3","0.0"],
    [1502774,"2026-01-15 10:40:00","49271","2.057","253.8","3.5610000000000004","272.2","1018.56","13.37","67.41","420.5","0.0"],
    [1502775,"2026-01-15 10:50:00","49272","1.8159999999999998","231.3","3.0380000000000003","222.6","1018.511","13.39","69.52","434.0","0.0"],
    [1502776,"2026-01-15 11:00:00","49273","1.756","239.8","3.136","224.4","1018.384","13.38","71.9","442.4","0.0"],
    [1502777,"2026-01-15 11:10:00","49274","1.294","241.3","3.103","274.1","1018.269","13.56","71.8","449.5","0.0"],
    [1502778,"2026-01-15 11:20:00","49275","1.8769999999999998","235.5","2.875","236.9","1018.148","13.49","71.54","457.3","0.0"],
    [1502779,"2026-01-15 11:30:00","49276","2.089","225.4","3.659","200.7","1018.061","13.55","71.34","464.6","0.0"],
    [1502780,"2026-01-15 11:40:00","49277","2.142","231.9","4.41","263.9","1017.927","13.58","71.9","463.9","0.0"],
    [1502781,"2026-01-15 11:50:00","49278","3.048","216.3","4.4430000000000005","226.7","1017.824","13.65","73.01","466.7","0.0"],
    [1502782,"2026-01-15 12:00:00","49279","1.963","230.5","3.201","203.3","1017.672","13.91","73.99","469.9","0.0"],
    [1502783,"2026-01-15 12:10:00","49280","3.332","203.2","6.5329999999999995","199.7","1017.522","14.0","75.23","473.9","0.0"],
    [1502784,"2026-01-15 12:20:00","49281","3.887","207.3","6.011","189.8","1017.441","13.71","77.38","468.6","0.0"],
    [1502785,"2026-01-15 12:30:00","49282","2.665","209.5","4.737","186.8","1017.293","13.93","79.13","462.2","0.0"],
    [1502786,"2026-01-15 12:40:00","49283","3.6489999999999996","195.9","5.129","189.2","1017.097","13.76","81.3","458.6","0.0"],
    [1502787,"2026-01-15 12:50:00","49284","2.695","199.5","5.031000000000001","198.9","1016.979","13.93","82.5","457.7","0.0"],
    [1502788,"2026-01-15 13:00:00","49285","3.634","193.7","6.011","182.4","1016.769","13.81","83.5","445.6","0.0"],
    [1502789,"2026-01-15 13:10:00","49286","5.039","184.7","6.697","185.6","1016.567","13.55","86.4","444.6","0.0"],
    [1502790,"2026-01-15 13:20:00","49287","4.212","190.5","5.945","192.0","1016.461","13.46","89.5","419.6","0.0"],
    [1502791,"2026-01-15 13:30:00","49288","4.073","197.3","6.501","187.5","1016.289","13.49","90.6","406.5","0.0"],
    [1502792,"2026-01-15 13:40:00","49289","4.548","192.1","6.5329999999999995","192.2","1016.172","13.56","90.6","395.2","0.0"],
    [1502793,"2026-01-15 13:50:00","49290","4.687","197.3","6.664","218.1","1016.041","13.56","91.5","379.6","0.0"],
    [1502794,"2026-01-15 14:00:00","49291","3.569","213.1","5.782","205.4","1015.972","13.88","90.3","369.8","0.0"],
    [1502795,"2026-01-15 14:10:00","49292","3.853","201.0","6.0760000000000005","191.9","1015.834","14.15","88.2","355.2","0.0"],
    [1502796,"2026-01-15 14:20:00","49293","3.128","215.9","5.39","227.5","1015.688","14.23","84.5","337.3","0.0"],
    [1502797,"2026-01-15 14:30:00","49294","3.6060000000000003","212.7","6.86","195.9","1015.597","14.47","76.63","320.5","0.0"],
    [1502798,"2026-01-15 14:40:00","49295","3.5980000000000003","205.7","6.501","193.7","1015.512","14.58","73.01","300.2","0.0"],
    [1502799,"2026-01-15 14:50:00","49296","3.636","212.7","6.435","202.4","1015.49","14.5","71.75","278.7","0.0"],
    [1502800,"2026-01-15 15:00:00","49297","5.531000000000001","204.4","8.2","195.6","1015.461","14.33","68.51","255.4","0.0"],
    [1502801,"2026-01-15 15:10:00","49298","6.196000000000001","200.0","8.59","198.8","1015.481","14.19","70.38","231.0","0.0"],
    [1502802,"2026-01-15 15:20:00","49299","5.078","203.2","7.285","191.2","1015.512","14.18","71.27","203.2","0.0"],
    [1502803,"2026-01-15 15:30:00","49300","4.489","207.6","6.1739999999999995","213.2","1015.51","14.24","70.3","178.5","0.0"],
    [1502804,"2026-01-15 15:40:00","49301","4.042","202.7","6.631","198.1","1015.442","14.3","69.44","154.0","0.0"],
    [1502805,"2026-01-15 15:50:00","49302","4.22","200.0","6.1739999999999995","189.6","1015.466","14.19","69.95","111.9","0.0"],
    [1502806,"2026-01-15 16:00:00","49303","3.867","205.2","6.272","191.0","1015.489","13.94","71.65","49.42","0.0"],
    [1502807,"2026-01-15 16:10:00","49304","3.59","207.7","5.651","211.7","1015.538","13.78","71.98","23.27","0.0"],
    [1502808,"2026-01-15 16:20:00","49305","3.7960000000000003","202.9","5.684","201.1","1015.541","13.72","71.62","17.35","0.0"],
    [1502809,"2026-01-15 16:30:00","49306","4.211","198.3","6.1739999999999995","194.5","1015.518","13.53","73.89","12.29","0.0"],
    [1502810,"2026-01-15 16:40:00","49307","4.175","199.8","5.847","204.4","1015.46","13.4","75.35","6.308","0.0"],
    [1502811,"2026-01-15 16:50:00","49308","3.373","206.8","6.272","194.0","1015.414","13.37","75.89","1.2930000000000001","0.0"],
    [1502812,"2026-01-15 17:00:00","49309","3.573","214.1","7.35","230.9","1015.461","13.46","76.22","0.0","0.0"],
    [1502813,"2026-01-15 17:10:00","49310","3.665","212.9","6.631","240.0","1015.508","13.37","76.91","0.0","0.0"],
    [1502814,"2026-01-15 17:20:00","49311","3.053","212.1","5.978","220.6","1015.588","13.27","77.96","0.0","0.0"],
    [1502815,"2026-01-15 17:30:00","49312","3.092","211.1","4.835","227.2","1015.71","13.19","79.59","0.0","0.0"],
    [1502816,"2026-01-15 17:40:00","49313","2.364","225.3","4.704","207.3","1015.856","13.23","81.5","0.0","0.0"],
    [1502817,"2026-01-15 17:50:00","49314","2.985","256.7","5.031000000000001","258.8","1015.897","12.99","82.7","0.0","0.0"],
    [1502818,"2026-01-15 18:00:00","49315","2.367","221.9","3.7889999999999997","206.0","1016.066","13.04","83.6","0.0","0.0"],
    [1502819,"2026-01-15 18:10:00","49316","2.031","215.6","3.43","193.7","1016.161","12.97","84.6","0.0","0.0"],
    [1502820,"2026-01-15 18:20:00","49317","2.447","246.6","4.377","269.4","1016.222","12.79","84.4","0.0","0.0"],
    [1502821,"2026-01-15 18:30:00","49318","2.915","255.7","5.129","242.7","1016.25","12.69","83.3","0.0","0.0"],
    [1502822,"2026-01-15 18:40:00","49319","2.178","236.7","4.2139999999999995","257.3","1016.259","13.04","82.8","0.0","0.0"],
    [1502823,"2026-01-15 18:50:00","49320","2.395","208.5","3.365","212.1","1016.174","12.85","83.2","0.0","0.0"],
    [1502824,"2026-01-15 19:00:00","49321","2.061","251.1","4.181","271.2","1016.177","12.6","83.5","0.0","0.0"],
    [1502825,"2026-01-15 19:10:00","49322","2.226","257.4","4.181","261.8","1016.172","12.39","84.1","0.0","0.0"],
    [1502826,"2026-01-15 19:20:00","49323","2.931","265.8","4.4430000000000005","260.1","1016.158","12.46","83.4","0.0","0.0"],
    [1502827,"2026-01-15 19:30:00","49324","2.184","269.9","3.267","258.1","1016.219","12.2","83.6","0.0","0.0"],
    [1502828,"2026-01-15 19:40:00","49325","2.241","272.4","3.0380000000000003","280.1","1016.251","12.04","84.0","0.0","0.0"],
    [1502829,"2026-01-15 19:50:00","49326","2.353","267.1","3.1689999999999996","260.7","1016.328","11.8","83.6","0.0","0.0"],
    [1502830,"2026-01-15 20:00:00","49327","2.1390000000000002","275.3","2.613","280.5","1016.261","11.85","82.1","0.0","0.0"],
    [1502831,"2026-01-15 20:10:00","49328","2.394","278.0","2.8089999999999997","280.9","1016.226","11.89","80.1","0.0","0.0"],
    [1502832,"2026-01-15 20:20:00","49329","1.956","286.4","2.515","281.8","1016.249","11.9","78.55","0.0","0.0"],
    [1502833,"2026-01-15 20:30:00","49330","2.013","288.3","2.613","283.6","1016.294","11.88","77.6","0.0","0.0"],
    [1502834,"2026-01-15 20:40:00","49331","1.857","290.5","2.287","297.7","1016.251","11.82","76.91","0.0","0.0"],
    [1502835,"2026-01-15 20:50:00","49332","1.778","288.4","2.254","282.9","1016.177","11.77","76.59","0.0","0.0"],
    [1502836,"2026-01-15 21:00:00","49333","2.003","272.8","2.613","267.7","1016.175","11.97","74.76","0.0","0.0"],
    [1502837,"2026-01-15 21:10:00","49334","2.0069999999999997","269.0","2.483","265.8","1016.104","12.09","73.48","0.0","0.0"],
    [1502838,"2026-01-15 21:20:00","49335","2.225","275.0","2.679","277.1","1016.03","11.99","73.29","0.0","0.0"],
    [1502839,"2026-01-15 21:30:00","49336","2.424","273.6","2.679","268.9","1015.974","11.85","74.24","0.0","0.0"],
    [1502840,"2026-01-15 21:40:00","49337","2.115","277.8","3.103","259.9","1015.864","11.85","75.11","0.0","0.0"],
    [1502841,"2026-01-15 21:50:00","49338","2.281","277.0","2.6460000000000004","271.8","1015.838","11.56","76.7","0.0","0.0"],
    [1502842,"2026-01-15 22:00:00","49339","2.539","274.0","2.907","276.7","1015.801","11.39","77.43","0.0","0.0"],
    [1502843,"2026-01-15 22:10:00","49340","2.0709999999999997","272.7","2.548","269.6","1015.781","11.05","79.17","0.0","0.0"],
    [1502844,"2026-01-15 22:20:00","49341","1.99","266.6","2.352","263.6","1015.766","11.14","80.3","0.0","0.0"],
    [1502845,"2026-01-15 22:30:00","49342","1.9240000000000002","261.3","3.005","259.1","1015.838","11.15","81.0","0.0","0.0"],
    [1502846,"2026-01-15 22:40:00","49343","1.8119999999999998","262.2","2.287","275.1","1015.841","11.21","81.8","0.0","0.0"],
    [1502847,"2026-01-15 22:50:00","49344","2.275","262.9","3.005","257.6","1015.772","11.0","81.7","0.0","0.0"],
    [1502848,"2026-01-15 23:00:00","49345","2.395","266.9","2.907","272.7","1015.647","10.47","81.8","0.0","0.0"],
    [1502849,"2026-01-15 23:10:00","49346","2.148","260.4","2.515","262.0","1015.567","10.34","82.6","0.0","0.0"],
    [1502850,"2026-01-15 23:20:00","49347","2.464","274.1","2.94","275.5","1015.501","10.13","82.7","0.0","0.0"],
    [1502851,"2026-01-15 23:30:00","49348","2.2680000000000002","273.8","2.6460000000000004","267.4","1015.483","10.38","83.7","0.0","0.0"],
    [1502852,"2026-01-15 23:40:00","49349","1.8530000000000002","259.4","2.483","277.5","1015.506","10.55","83.3","0.0","0.0"],
    [1502853,"2026-01-15 23:50:00","49350","1.835","265.0","2.0580000000000003","257.7","1015.476","10.69","83.6","0.0","0.0"],
    [1502854,"2026-01-16 00:00:00","49351","1.855","261.8","2.123","262.4","1015.448","10.73","83.8","0.0","0.0"],
    [1502855,"2026-01-16 00:10:00","49352","1.835","255.9","2.156","245.8","1015.373","10.87","84.4","0.0","0.0"],
    [1502856,"2026-01-16 00:20:00","49353","1.905","257.5","2.483","259.5","1015.271","10.71","84.6","0.0","0.0"],
    [1502857,"2026-01-16 00:30:00","49354","2.476","260.0","2.94","257.0","1015.218","9.76","85.1","0.0","0.0"],
    [1502858,"2026-01-16 00:40:00","49355","2.487","256.1","2.842","256.9","1015.111","9.63","86.8","0.0","0.0"],
    [1502859,"2026-01-16 00:50:00","49356","2.253","255.9","2.842","259.3","1015.029","9.8","87.4","0.0","0.0"],
    [1502860,"2026-01-16 01:00:00","49357","2.283","256.0","2.7110000000000003","257.0","1015.061","9.74","87.3","0.0","0.0"],
    [1502861,"2026-01-16 01:10:00","49358","2.406","258.6","2.7439999999999998","258.0","1015.06","9.53","87.2","0.0","0.0"],
    [1502862,"2026-01-16 01:20:00","49359","2.637","257.7","3.103","260.0","1015.097","9.44","87.0","0.0","0.0"],
    [1502863,"2026-01-16 01:30:00","49360","2.603","259.0","3.201","259.5","1015.079","9.28","87.4","0.0","0.0"],
    [1502864,"2026-01-16 01:40:00","49361","2.221","267.0","2.7439999999999998","263.5","1015.036","9.74","88.0","0.0","0.0"],
    [1502865,"2026-01-16 01:50:00","49362","2.385","275.7","2.8089999999999997","272.5","1014.928","9.66","87.7","0.0","0.0"],
    [1502866,"2026-01-16 02:00:00","49363","2.443","276.4","2.7769999999999997","278.1","1014.907","9.93","87.9","0.0","0.0"],
    [1502867,"2026-01-16 02:10:00","49364","2.355","273.5","2.7110000000000003","277.8","1014.953","9.88","87.6","0.0","0.0"],
    [1502868,"2026-01-16 02:20:00","49365","2.036","274.7","2.45","269.3","1014.863","9.81","87.8","0.0","0.0"],
    [1502869,"2026-01-16 02:30:00","49366","2.021","266.3","2.417","272.5","1014.826","9.97","88.3","0.0","0.0"],
    [1502870,"2026-01-16 02:40:00","49367","1.376","251.2","2.025","256.4","1014.775","9.67","88.4","0.0","0.0"],
    [1502871,"2026-01-16 02:50:00","49368","1.2890000000000001","246.3","2.189","258.4","1014.783","9.88","89.3","0.0","0.0"],
    [1502872,"2026-01-16 03:00:00","49369","1.966","261.4","2.45","261.4","1014.738","9.27","89.2","0.0","0.0"],
    [1502873,"2026-01-16 03:10:00","49370","1.199","271.2","1.666","259.0","1014.656","9.37","89.9","0.0","0.0"],
    [1502874,"2026-01-16 03:20:00","49371","0.319","325.1","1.143","280.1","1014.64","8.85","90.0","0.0","0.0"],
    [1502875,"2026-01-16 03:30:00","49372","0.002","190.8","0.163","194.5","1014.595","9.01","90.6","0.0","0.0"],
    [1502876,"2026-01-16 03:40:00","49373","1.0979999999999999","298.7","1.9269999999999998","279.2","1014.532","9.07","90.9","0.0","0.0"],
    [1502877,"2026-01-16 03:50:00","49374","1.624","272.4","2.287","268.4","1014.54","8.67","91.3","0.0","0.0"],
    [1502878,"2026-01-16 04:00:00","49375","1.6669999999999998","274.5","2.5810000000000004","262.6","1014.574","8.79","92.1","0.0","0.0"],
    [1502879,"2026-01-16 04:10:00","49376","1.2309999999999999","263.6","2.548","256.6","1014.555","8.49","92.5","0.0","0.0"],
    [1502880,"2026-01-16 04:20:00","49377","0.9359999999999999","276.0","1.7309999999999999","279.8","1014.49","8.62","93.0","0.0","0.0"],
    [1502881,"2026-01-16 04:30:00","49378","1.044","262.1","2.156","271.1","1014.477","8.21","92.9","0.0","0.0"],
    [1502882,"2026-01-16 04:40:00","49379","0.5329999999999999","266.3","2.287","260.1","1014.522","8.75","93.5","0.0","0.0"],
    [1502883,"2026-01-16 04:50:00","49380","3.295","262.7","4.018","263.6","1014.555","7.936","92.7","0.0","0.0"],
    [1502884,"2026-01-16 05:00:00","49381","3.386","263.6","3.9530000000000003","263.6","1014.586","7.5760000000000005","92.5","0.0","0.0"],
    [1502885,"2026-01-16 05:10:00","49382","3.193","264.8","3.593","262.5","1014.523","7.608","92.3","0.0","0.0"],
    [1502886,"2026-01-16 05:20:00","49383","3.187","269.6","3.822","258.9","1014.466","7.656000000000001","92.1","0.0","0.0"],
    [1502887,"2026-01-16 05:30:00","49384","2.3480000000000003","277.4","2.907","267.6","1014.413","7.638999999999999","92.1","0.0","0.0"],
    [1502888,"2026-01-16 05:40:00","49385","2.156","268.1","2.7769999999999997","253.5","1014.387","7.805","92.1","0.0","0.0"],
    [1502889,"2026-01-16 05:50:00","49386","1.276","246.5","2.156","262.2","1014.323","8.21","92.8","0.0","0.0"],
    [1502890,"2026-01-16 06:00:00","49387","1.8219999999999998","265.2","2.5810000000000004","262.0","1014.401","8.26","92.9","0.0","0.0"],
    [1502891,"2026-01-16 06:10:00","49388","1.805","265.0","3.7569999999999997","262.8","1014.447","8.24","92.6","0.0","0.0"],
    [1502892,"2026-01-16 06:20:00","49389","3.247","261.7","4.1160000000000005","270.0","1014.502","7.5329999999999995","91.6","0.0","0.0"],
    [1502893,"2026-01-16 06:30:00","49390","3.367","265.9","4.1160000000000005","272.6","1014.476","7.334","91.0","0.0","0.0"],
    [1502894,"2026-01-16 06:40:00","49391","2.8939999999999997","266.7","3.5610000000000004","264.5","1014.467","7.627000000000001","90.5","0.0","0.0"],
    [1502895,"2026-01-16 06:50:00","49392","2.865","264.8","3.5610000000000004","268.3","1014.524","7.746","89.5","0.0","0.0"],
    [1502896,"2026-01-16 07:00:00","49393","1.682","239.4","3.103","262.3","1014.583","7.808","88.8","0.0","0.0"],
    [1502897,"2026-01-16 07:10:00","49394","1.278","258.3","3.397","271.6","1014.545","8.12","88.6","0.161","0.0"],
    [1502898,"2026-01-16 07:20:00","49395","2.231","281.0","3.463","270.2","1014.559","7.632000000000001","87.4","5.682","0.0"],
    [1502899,"2026-01-16 07:30:00","49396","1.811","276.7","2.613","275.3","1014.653","7.646","86.6","12.23","0.0"],
    [1502900,"2026-01-16 07:40:00","49397","1.3769999999999998","292.5","2.385","275.9","1014.711","7.739","86.4","31.49","0.0"],
    [1502901,"2026-01-16 07:50:00","49398","1.088","284.1","2.189","270.5","1014.703","7.902","85.9","42.72","0.0"],
    [1502902,"2026-01-16 08:00:00","49399","2.4659999999999997","266.9","2.842","266.7","1014.746","7.707999999999999","85.1","52.14","0.0"],
    [1502903,"2026-01-16 08:10:00","49400","2.872","269.5","3.234","271.0","1014.809","7.824","84.3","81.5","0.0"],
    [1502904,"2026-01-16 08:20:00","49401","1.704","281.2","2.7439999999999998","272.0","1014.842","8.14","83.7","120.9","0.0"],
    [1502905,"2026-01-16 08:30:00","49402","2.057","267.7","2.6460000000000004","261.9","1014.879","8.44","82.7","148.9","0.0"],
    [1502906,"2026-01-16 08:40:00","49403","2.273","264.0","3.103","263.9","1014.925","8.72","81.6","188.2","0.0"],
    [1502907,"2026-01-16 08:50:00","49404","2.456","264.8","3.071","261.5","1014.993","9.01","80.4","182.2","0.0"],
    [1502908,"2026-01-16 09:00:00","49405","2.325","260.7","3.136","266.6","1015.003","9.54","79.24","239.2","0.0"],
    [1502909,"2026-01-16 09:10:00","49406","2.276","261.4","3.103","259.7","1015.019","10.08","76.87","251.2","0.0"],
    [1502910,"2026-01-16 09:20:00","49407","2.074","265.4","3.201","276.3","1015.016","10.62","75.1","275.4","0.0"],
    [1502911,"2026-01-16 09:30:00","49408","1.393","255.8","2.417","248.5","1015.168","11.14","73.34","288.6","0.0"],
    [1502912,"2026-01-16 09:40:00","49409","0.28600000000000003","256.7","1.5030000000000001","255.6","1015.324","11.74","70.95","278.2","0.0"],
    [1502913,"2026-01-16 09:50:00","49410","0.675","192.5","1.274","216.8","1015.421","12.19","67.36","293.0","0.0"],
    [1502914,"2026-01-16 10:00:00","49411","1.24","145.3","2.025","121.2","1015.474","12.23","66.27","251.2","0.0"],
    [1502915,"2026-01-16 10:10:00","49412","1.5330000000000001","130.4","2.515","116.4","1015.497","12.03","67.21","220.4","0.0"],
    [1502916,"2026-01-16 10:20:00","49413","1.157","128.5","2.287","132.7","1015.475","11.91","68.12","208.3","0.0"],
    [1502917,"2026-01-16 10:30:00","49414","0.39799999999999996","141.5","0.882","108.7","1015.394","12.08","67.43","200.3","0.0"],
    [1502918,"2026-01-16 10:40:00","49415","0.203","112.9","0.588","137.6","1015.337","12.21","67.04","174.7","0.0"],
    [1502919,"2026-01-16 10:50:00","49416","0.278","81.6","1.307","104.2","1015.362","12.39","67.22","154.7","0.0"],
    [1502920,"2026-01-16 11:00:00","49417","1.22","102.2","1.797","99.6","1015.349","12.02","67.06","156.8","0.0"],
    [1502921,"2026-01-16 11:10:00","49418","0.451","84.3","1.013","84.7","1015.245","12.13","67.3","169.9","0.0"],
    [1502922,"2026-01-16 11:20:00","49419","0.0","0.0","0.0","0.0","1015.138","12.4","66.9","214.5","0.0"],
    [1502923,"2026-01-16 11:30:00","49420","0.42","17.04","1.143","17.24","1014.991","12.71","65.9","220.9","0.0"],
    [1502924,"2026-01-16 11:40:00","49421","1.577","86.9","2.417","89.2","1014.813","12.39","68.15","185.1","0.0"],
    [1502925,"2026-01-16 11:50:00","49422","1.883","93.0","2.483","96.2","1014.758","12.19","73.55","161.0","0.0"],
    [1502926,"2026-01-16 12:00:00","49423","1.5119999999999998","90.8","2.385","84.4","1014.533","12.38","77.14","213.9","0.0"],
    [1502927,"2026-01-16 12:10:00","49424","1.535","81.3","2.0580000000000003","82.6","1014.392","12.52","79.08","552.1","0.0"],
    [1502928,"2026-01-16 12:20:00","49425","1.284","94.2","2.123","78.63","1014.286","12.71","79.13","551.1","0.0"],
    [1502929,"2026-01-16 12:30:00","49426","1.033","105.8","1.96","109.2","1014.181","12.91","77.45","468.1","0.0"],
    [1502930,"2026-01-16 12:40:00","49427","0.728","97.9","0.882","98.4","1014.007","12.8","75.57","352.5","0.0"],
    [1502931,"2026-01-16 12:50:00","49428","1.234","96.4","1.9269999999999998","86.1","1013.845","12.98","74.0","452.4","0.0"],
    [1502932,"2026-01-16 13:00:00","49429","1.5930000000000002","94.6","2.548","96.3","1013.721","12.98","76.17","376.7","0.0"],
    [1502933,"2026-01-16 13:10:00","49430","2.47","93.8","3.0380000000000003","90.6","1013.578","12.72","78.16","460.9","0.0"],
    [1502934,"2026-01-16 13:20:00","49431","2.069","92.1","2.6460000000000004","87.9","1013.59","12.76","79.48","262.3","0.0"],
    [1502935,"2026-01-16 13:30:00","49432","2.066","95.2","2.8089999999999997","86.0","1013.588","12.71","81.1","211.0","0.0"],
    [1502936,"2026-01-16 13:40:00","49433","1.821","110.3","2.352","100.9","1013.653","12.76","81.8","280.9","0.0"],
    [1502937,"2026-01-16 13:50:00","49434","1.849","108.0","2.45","103.0","1013.703","12.82","82.5","299.1","0.0"],
    [1502938,"2026-01-16 14:00:00","49435","2.1069999999999998","112.5","2.907","104.8","1013.624","12.87","82.1","267.5","0.0"],
    [1502939,"2026-01-16 14:10:00","49436","2.499","109.8","3.103","118.8","1013.562","12.94","81.2","447.5","0.0"],
    [1502940,"2026-01-16 14:20:00","49437","2.14","95.0","2.7110000000000003","80.8","1013.578","13.04","80.2","271.8","0.0"],
    [1502941,"2026-01-16 14:30:00","49438","2.356","103.0","3.071","111.3","1013.651","13.0","79.98","142.5","0.0"],
    [1502942,"2026-01-16 14:40:00","49439","2.146","110.1","2.679","113.1","1013.676","13.05","80.6","111.3","0.0"],
    [1502943,"2026-01-16 14:50:00","49440","1.777","107.6","2.319","110.7","1013.679","12.97","79.52","88.0","0.0"],
    [1502944,"2026-01-16 15:00:00","49441","1.476","106.2","1.895","103.6","1013.659","13.12","79.57","86.2","0.0"],
    [1502945,"2026-01-16 15:10:00","49442","1.765","101.9","2.189","109.9","1013.688","13.18","81.7","86.1","0.0"],
    [1502946,"2026-01-16 15:20:00","49443","1.662","87.1","2.319","60.9","1013.641","13.13","84.0","90.8","0.0"],
    [1502947,"2026-01-16 15:30:00","49444","2.108","82.6","2.7769999999999997","88.4","1013.535","13.11","85.4","94.2","0.0"],
    [1502948,"2026-01-16 15:40:00","49445","1.4469999999999998","79.35","2.548","79.27","1013.485","13.17","86.4","51.81","0.0"],
    [1502949,"2026-01-16 15:50:00","49446","1.599","42.65","2.7769999999999997","36.59","1013.478","13.21","86.8","28.36","0.0"],
    [1502950,"2026-01-16 16:00:00","49447","1.147","47.02","2.417","27.82","1013.523","13.25","87.2","14.27","0.0"],
    [1502951,"2026-01-16 16:10:00","49448","2.206","40.72","3.822","25.12","1013.596","13.23","87.5","11.1","0.0"],
    [1502952,"2026-01-16 16:20:00","49449","2.8160000000000003","30.78","3.9530000000000003","24.75","1013.544","13.26","87.7","18.86","0.0"],
    [1502953,"2026-01-16 16:30:00","49450","2.795","30.17","4.41","17.8","1013.54","13.4","88.9","6.63","0.0"],
    [1502954,"2026-01-16 16:40:00","49451","2.6689999999999996","30.77","4.541","35.03","1013.546","13.43","90.7","1.5","0.0"],
    [1502955,"2026-01-16 16:50:00","49452","3.9419999999999997","41.75","5.194","27.71","1013.44","13.29","91.9","0.8959999999999999","0.0"],
    [1502956,"2026-01-16 17:00:00","49453","3.478","39.35","5.063","28.22","1013.476","13.37","93.0","0.18899999999999997","0.0"],
    [1502957,"2026-01-16 17:10:00","49454","3.284","37.71","4.41","38.83","1013.557","13.52","95.1","0.0","0.0"],
    [1502958,"2026-01-16 17:20:00","49455","3.217","36.85","4.312","35.59","1013.578","13.46","96.6","0.0","0.0"],
    [1502959,"2026-01-16 17:30:00","49456","2.31","37.67","3.6910000000000003","25.77","1013.679","13.42","97.1","0.0","0.0"],
    [1502960,"2026-01-16 17:40:00","49457","1.2919999999999998","18.4","2.0909999999999997","354.4","1013.77","13.55","97.2","0.0","0.0"],
    [1502961,"2026-01-16 17:50:00","49458","0.5379999999999999","338.0","1.7309999999999999","333.9","1013.844","13.37","97.0","0.0","0.0"],
    [1502962,"2026-01-16 18:00:00","49459","0.88","69.63","2.156","97.8","1013.905","13.3","96.1","0.024","0.0"],
    [1502963,"2026-01-16 18:10:00","49460","0.853","161.1","2.352","183.5","1013.913","13.46","94.3","0.0","0.0"],
    [1502964,"2026-01-16 18:20:00","49461","0.5429999999999999","173.0","2.0580000000000003","174.7","1013.971","13.45","93.0","0.0","0.0"],
    [1502965,"2026-01-16 18:30:00","49462","1.9280000000000002","168.3","2.417","165.4","1014.002","13.54","90.2","0.0","0.0"],
    [1502966,"2026-01-16 18:40:00","49463","1.61","154.4","1.993","151.9","1014.054","13.77","86.6","0.0","0.0"],
    [1502967,"2026-01-16 18:50:00","49464","1.483","149.8","1.829","153.0","1014.081","13.86","85.1","0.0","0.0"],
    [1502968,"2026-01-16 19:00:00","49465","2.162","141.3","2.8089999999999997","138.4","1014.071","13.9","84.5","0.0","0.0"],
    [1502969,"2026-01-16 19:10:00","49466","2.388","134.9","2.7769999999999997","132.6","1014.103","13.88","85.0","0.0","0.0"],
    [1502970,"2026-01-16 19:20:00","49467","2.553","132.6","3.397","132.4","1014.114","13.97","85.7","0.0","0.0"],
    [1502971,"2026-01-16 19:30:00","49468","2.455","143.8","3.201","138.2","1014.124","13.91","86.7","0.0","0.0"],
    [1502972,"2026-01-16 19:40:00","49469","2.719","151.5","4.1160000000000005","148.9","1014.147","13.9","86.1","0.0","0.0"],
    [1502973,"2026-01-16 19:50:00","49470","3.3360000000000003","148.6","4.279","150.4","1014.142","13.98","85.6","0.0","0.0"],
    [1502974,"2026-01-16 20:00:00","49471","3.3689999999999998","150.0","4.312","151.6","1014.132","13.91","86.1","0.0","0.0"],
    [1502975,"2026-01-16 20:10:00","49472","3.02","149.9","4.018","146.5","1014.107","13.9","86.0","0.0","0.0"],
    [1502976,"2026-01-16 20:20:00","49473","2.655","161.3","3.7889999999999997","175.3","1014.055","13.92","86.2","0.0","0.0"],
    [1502977,"2026-01-16 20:30:00","49474","2.955","159.0","3.6910000000000003","171.1","1014.045","13.97","87.1","0.0","0.0"],
    [1502978,"2026-01-16 20:40:00","49475","2.68","146.6","3.201","144.9","1014.109","13.94","88.9","0.0","0.0"],
    [1502979,"2026-01-16 20:50:00","49476","2.161","147.0","2.679","143.5","1014.099","13.93","89.4","0.0","0.0"],
    [1502980,"2026-01-16 21:00:00","49477","2.32","141.4","3.005","144.2","1014.083","13.98","90.2","0.0","0.0"],
    [1502981,"2026-01-16 21:10:00","49478","2.555","142.6","3.365","128.9","1014.104","13.95","90.6","0.0","0.0"],
    [1502982,"2026-01-16 21:20:00","49479","2.383","123.0","3.0380000000000003","130.3","1014.094","13.92","90.3","0.0","0.0"],
    [1502983,"2026-01-16 21:30:00","49480","2.059","116.5","2.45","117.6","1014.05","14.0","90.7","0.0","0.0"],
    [1502984,"2026-01-16 21:40:00","49481","2.148","116.5","2.6460000000000004","121.5","1014.067","13.94","91.3","0.0","0.0"],
    [1502985,"2026-01-16 21:50:00","49482","1.6380000000000001","107.1","2.352","119.3","1014.046","13.97","91.2","0.0","0.0"],
    [1502986,"2026-01-16 22:00:00","49483","1.65","112.6","1.96","116.7","1014.005","13.96","91.5","0.0","0.0"],
    [1502987,"2026-01-16 22:10:00","49484","2.063","122.5","2.7769999999999997","130.5","1013.966","13.91","91.7","0.0","0.0"],
    [1502988,"2026-01-16 22:20:00","49485","2.146","133.5","2.6460000000000004","137.0","1013.964","13.91","90.6","0.0","0.0"],
    [1502989,"2026-01-16 22:30:00","49486","1.7380000000000002","121.2","2.352","133.0","1013.932","13.99","89.5","0.0","0.0"],
    [1502990,"2026-01-16 22:40:00","49487","2.9139999999999997","126.4","3.855","121.1","1013.929","14.03","90.5","0.0","0.0"],
    [1502991,"2026-01-16 22:50:00","49488","2.877","125.5","3.6260000000000003","121.9","1013.839","13.9","91.6","0.0","0.0"],
    [1502992,"2026-01-16 23:00:00","49489","2.7430000000000003","122.7","3.463","116.9","1013.765","13.89","91.5","0.0","0.0"],
    [1502993,"2026-01-16 23:10:00","49490","2.8789999999999996","115.1","3.822","110.6","1013.678","13.91","91.7","0.0","0.0"],
    [1502994,"2026-01-16 23:20:00","49491","3.0180000000000002","114.4","4.181","118.1","1013.593","13.92","91.6","0.0","0.0"],
    [1502995,"2026-01-16 23:30:00","49492","2.443","101.6","3.43","109.9","1013.461","13.9","91.5","0.0","0.0"],
    [1502996,"2026-01-16 23:40:00","49493","2.7439999999999998","94.5","3.397","97.1","1013.303","13.91","91.2","0.0","0.0"],
    [1502997,"2026-01-16 23:50:00","49494","3.8","105.1","5.357","109.1","1013.175","13.89","90.9","0.0","0.0"],
    [1502998,"2026-01-17 00:00:00","49495","2.135","114.9","4.149","108.6","1013.212","13.7","93.0","0.0","0.0"],
    [1502999,"2026-01-17 00:10:00","49496","2.033","92.2","2.8089999999999997","87.6","1013.154","13.53","93.8","0.93","0.0"],
    [1503000,"2026-01-17 00:20:00","49497","2.193","66.49","2.8089999999999997","52.97","1013.043","13.67","92.6","1.4240000000000002","0.0"],
    [1503001,"2026-01-17 00:30:00","49498","2.8930000000000002","65.33","4.1160000000000005","65.43","1012.914","13.81","92.6","1.652","0.0"],
    [1503002,"2026-01-17 00:40:00","49499","3.013","71.73","3.985","69.27","1012.913","13.88","91.7","1.567","0.0"],
    [1503003,"2026-01-17 00:50:00","49500","3.3310000000000004","63.93","4.312","74.36","1012.804","13.97","92.2","1.31","0.0"],
    [1503004,"2026-01-17 01:00:00","49501","3.36","58.02","4.671","52.17","1012.712","13.95","93.1","0.878","0.0"],
    [1503005,"2026-01-17 01:10:00","49502","3.7110000000000003","58.29","5.619","60.42","1012.577","13.89","93.4","0.447","0.0"],
    [1503006,"2026-01-17 01:20:00","49503","3.733","60.5","5.292000000000001","51.8","1012.467","14.0","94.0","0.419","0.0"],
    [1503007,"2026-01-17 01:30:00","49504","3.9019999999999997","60.87","5.2589999999999995","76.48","1012.398","13.99","95.5","0.155","0.0"],
    [1503008,"2026-01-17 01:40:00","49505","4.03","57.92","5.586","68.75","1012.417","13.96","96.5","0.226","0.0"],
    [1503009,"2026-01-17 01:50:00","49506","4.2139999999999995","61.83","5.357","62.35","1012.394","13.98","97.0","0.002","0.0"],
    [1503010,"2026-01-17 02:00:00","49507","4.273","68.38","5.912999999999999","81.7","1012.31","14.08","98.1","0.0","0.0"],
    [1503011,"2026-01-17 02:10:00","49508","4.95","75.09","6.272","74.24","1012.243","14.04","99.5","0.0","0.0"],
    [1503012,"2026-01-17 02:20:00","49509","4.4510000000000005","70.83","6.011","74.24","1012.191","14.05","100.0","0.0","0.0"],
    [1503013,"2026-01-17 02:30:00","49510","4.917","75.7","6.566","78.26","1012.104","14.07","100.0","0.0","0.0"],
    [1503014,"2026-01-17 02:40:00","49511","4.9910000000000005","77.95","6.501","82.5","1012.047","14.11","100.0","0.0","0.0"],
    [1503015,"2026-01-17 02:50:00","49512","4.948","88.8","6.5329999999999995","102.2","1011.941","14.04","100.0","0.0","0.0"],
    [1503016,"2026-01-17 03:00:00","49513","5.297999999999999","112.6","6.9910000000000005","121.2","1011.843","13.83","100.0","0.0","0.0"],
    [1503017,"2026-01-17 03:10:00","49514","4.977","119.3","6.37","118.6","1011.817","13.87","100.0","0.0","0.0"],
    [1503018,"2026-01-17 03:20:00","49515","4.822","127.1","7.056","121.3","1011.816","13.85","100.0","0.0","0.0"],
    [1503019,"2026-01-17 03:30:00","49516","5.872000000000001","130.1","7.481","123.0","1011.679","13.85","100.0","0.0","0.0"],
    [1503020,"2026-01-17 03:40:00","49517","6.662000000000001","131.6","7.938","122.7","1011.652","13.93","100.0","0.0","0.0"],
    [1503021,"2026-01-17 03:50:00","49518","6.301","130.1","8.4","135.4","1011.557","14.01","100.0","0.0","0.0"],
    [1503022,"2026-01-17 04:00:00","49519","5.987","127.6","8.2","126.8","1011.432","14.01","99.7","0.0","0.0"],
    [1503023,"2026-01-17 04:10:00","49520","5.209","117.2","6.827000000000001","124.7","1011.348","14.09","99.7","0.0","0.0"],
    [1503024,"2026-01-17 04:20:00","49521","5.5","113.2","7.023","110.7","1011.179","14.03","100.0","0.0","0.0"],
    [1503025,"2026-01-17 04:30:00","49522","5.1579999999999995","107.9","6.697","109.2","1011.068","14.03","100.0","0.0","0.0"],
    [1503026,"2026-01-17 04:40:00","49523","5.742999999999999","107.2","7.4479999999999995","107.6","1010.978","14.04","99.9","0.0","0.0"],
    [1503027,"2026-01-17 04:50:00","49524","5.33","114.4","7.285","103.8","1011.071","14.08","99.9","0.0","0.0"],
    [1503028,"2026-01-17 05:00:00","49525","4.743","104.6","5.978","107.9","1011.056","14.1","100.0","0.0","0.0"],
    [1503029,"2026-01-17 05:10:00","49526","5.0760000000000005","98.8","6.664","99.5","1010.979","14.09","100.0","0.0","0.0"],
    [1503030,"2026-01-17 05:20:00","49527","4.747","96.6","6.37","95.3","1011.004","14.09","100.0","0.0","0.0"],
    [1503031,"2026-01-17 05:30:00","49528","5.0569999999999995","97.3","6.337000000000001","91.5","1010.954","14.11","100.0","0.0","0.0"],
    [1503032,"2026-01-17 05:40:00","49529","5.587000000000001","90.6","7.579","94.5","1010.843","14.09","100.0","0.0","0.0"],
    [1503033,"2026-01-17 05:50:00","49530","5.882000000000001","89.1","7.872999999999999","89.7","1010.814","14.08","100.0","0.0","0.0"],
    [1503034,"2026-01-17 06:00:00","49531","6.355","89.6","8.23","81.1","1010.739","14.0","100.0","0.0","0.0"],
    [1503035,"2026-01-17 06:10:00","49532","6.164","88.5","8.62","83.9","1010.798","14.03","100.0","0.0","0.0"],
    [1503036,"2026-01-17 06:20:00","49533","5.811","90.1","8.72","98.4","1010.758","14.05","100.0","0.0","0.0"],
    [1503037,"2026-01-17 06:30:00","49534","6.233","89.7","8.62","95.5","1010.768","14.03","100.0","0.0","0.0"],
    [1503038,"2026-01-17 06:40:00","49535","6.722","92.1","9.18","87.6","1010.778","14.04","100.0","0.0","0.0"],
    [1503039,"2026-01-17 06:50:00","49536","6.77","90.5","9.24","87.9","1010.719","14.09","100.0","0.0","0.0"],
    [1503040,"2026-01-17 07:00:00","49537","7.271","99.9","9.51","104.7","1010.752","14.1","100.0","0.0","0.0"],
    [1503041,"2026-01-17 07:10:00","49538","6.355","104.2","8.4","109.0","1010.739","14.11","100.0","0.062","0.0"],
    [1503042,"2026-01-17 07:20:00","49539","6.112","105.3","8.89","102.4","1010.801","14.1","100.0","0.7709999999999999","0.0"],
    [1503043,"2026-01-17 07:30:00","49540","7.2589999999999995","98.8","9.41","97.1","1010.723","14.06","100.0","2.478","0.0"],
    [1503044,"2026-01-17 07:40:00","49541","7.27","95.9","9.73","94.7","1010.72","14.07","100.0","5.212999999999999","0.0"],
    [1503045,"2026-01-17 07:50:00","49542","7.182","99.7","9.93","99.1","1010.766","14.08","100.0","8.36","0.0"],
    [1503046,"2026-01-17 08:00:00","49543","7.35","94.5","9.64","96.3","1010.84","14.09","100.0","12.97","0.0"],
    [1503047,"2026-01-17 08:10:00","49544","7.023","100.3","9.24","103.3","1010.9","14.11","100.0","8.56","0.0"],
    [1503048,"2026-01-17 08:20:00","49545","7.301","100.9","9.38","98.5","1010.893","14.06","100.0","17.36","0.1"],
    [1503049,"2026-01-17 08:30:00","49546","6.893","95.6","9.38","104.6","1010.916","14.05","100.0","25.78","0.0"],
    [1503050,"2026-01-17 08:40:00","49547","7.457999999999999","94.4","9.73","89.8","1010.954","14.02","100.0","28.21","0.0"],
    [1503051,"2026-01-17 08:50:00","49548","7.742999999999999","95.2","9.93","100.3","1010.997","14.01","100.0","35.41","0.0"],
    [1503052,"2026-01-17 09:00:00","49549","6.962999999999999","97.6","9.96","98.0","1011.07","14.07","100.0","24.66","0.0"],
    [1503053,"2026-01-17 09:10:00","49550","7.905","96.5","10.03","92.4","1011.068","14.09","100.0","25.05","0.0"],
    [1503054,"2026-01-17 09:20:00","49551","8.12","96.8","10.58","97.8","1011.076","14.08","100.0","57.16","0.0"],
    [1503055,"2026-01-17 09:30:00","49552","8.05","96.4","10.98","96.2","1011.106","14.07","100.0","74.16","0.0"],
    [1503056,"2026-01-17 09:40:00","49553","7.996","95.7","10.75","95.4","1011.108","14.09","100.0","75.54","0.0"],
    [1503057,"2026-01-17 09:50:00","49554","8.4","96.8","11.07","97.9","1011.134","14.09","100.0","68.4","0.0"],
    [1503058,"2026-01-17 10:00:00","49555","8.12","98.8","10.58","101.8","1011.145","14.11","100.0","76.5","0.0"],
    [1503059,"2026-01-17 10:10:00","49556","8.39","96.9","10.88","96.5","1011.077","14.19","100.0","50.79","0.0"],
    [1503060,"2026-01-17 10:20:00","49557","8.13","97.5","10.52","101.9","1011.164","14.18","100.0","39.6","0.0"],
    [1503061,"2026-01-17 10:30:00","49558","8.23","95.8","10.88","93.4","1011.147","14.06","100.0","78.2","0.1"],
    [1503062,"2026-01-17 10:40:00","49559","8.61","95.7","11.37","90.6","1011.047","13.98","100.0","104.0","0.0"],
    [1503063,"2026-01-17 10:50:00","49560","7.611000000000001","94.1","10.09","92.3","1011.079","14.03","100.0","86.0","0.0"],
    [1503064,"2026-01-17 11:00:00","49561","7.357","93.1","10.36","100.4","1011.025","13.97","100.0","82.0","0.0"],
    [1503065,"2026-01-17 11:10:00","49562","7.095","91.3","9.83","89.3","1010.956","13.99","100.0","64.94","0.0"],
    [1503066,"2026-01-17 11:20:00","49563","7.334","96.0","9.77","98.8","1010.864","13.99","100.0","76.99","0.0"],
    [1503067,"2026-01-17 11:30:00","49564","7.537000000000001","96.5","9.93","92.2","1010.715","13.98","100.0","59.54","0.0"],
    [1503068,"2026-01-17 11:40:00","49565","7.72","94.9","10.13","95.8","1010.475","14.0","100.0","64.58","0.0"],
    [1503069,"2026-01-17 11:50:00","49566","7.797999999999999","95.0","10.75","92.3","1010.271","13.97","100.0","70.45","0.0"],
    [1503070,"2026-01-17 12:00:00","49567","7.742000000000001","97.2","10.65","93.4","1010.141","13.98","100.0","49.04","0.0"],
    [1503071,"2026-01-17 12:10:00","49568","8.08","99.1","9.96","100.8","1009.959","13.98","100.0","119.2","0.0"],
    [1503072,"2026-01-17 12:20:00","49569","7.622000000000001","100.5","10.0","90.9","1009.838","13.94","100.0","213.7","0.2"],
    [1503073,"2026-01-17 12:30:00","49570","7.03","104.6","8.89","107.0","1009.783","13.97","100.0","87.7","0.0"],
    [1503074,"2026-01-17 12:40:00","49571","7.297999999999999","108.7","9.96","107.0","1009.663","13.96","100.0","132.9","0.0"],
    [1503075,"2026-01-17 12:50:00","49572","7.4270000000000005","111.9","9.54","112.8","1009.541","13.92","100.0","125.5","0.0"],
    [1503076,"2026-01-17 13:00:00","49573","7.332999999999999","110.4","9.9","117.8","1009.408","13.84","100.0","82.0","0.0"],
    [1503077,"2026-01-17 13:10:00","49574","7.961","113.4","10.29","117.8","1009.295","13.9","100.0","138.7","0.0"],
    [1503078,"2026-01-17 13:20:00","49575","7.058","119.0","9.57","108.8","1009.271","13.95","100.0","211.3","0.0"],
    [1503079,"2026-01-17 13:30:00","49576","6.803","121.3","9.21","115.2","1009.217","14.08","100.0","210.7","0.0"],
    [1503080,"2026-01-17 13:40:00","49577","7.09","116.6","9.08","114.9","1009.158","14.09","100.0","117.2","0.0"],
    [1503081,"2026-01-17 13:50:00","49578","6.5889999999999995","115.3","8.53","109.0","1009.16","14.1","100.0","59.32","0.0"],
    [1503082,"2026-01-17 14:00:00","49579","6.555","121.9","9.05","114.4","1009.201","14.11","100.0","33.05","0.0"],
    [1503083,"2026-01-17 14:10:00","49580","6.978","124.8","8.75","117.5","1009.149","14.06","100.0","28.03","0.4"],
    [1503084,"2026-01-17 14:20:00","49581","6.773","127.2","8.53","130.0","1009.128","13.77","100.0","33.44","0.4"],
    [1503085,"2026-01-17 14:30:00","49582","6.371","125.5","8.1","110.1","1009.01","13.79","100.0","15.57","0.1"],
    [1503086,"2026-01-17 14:40:00","49583","7.202999999999999","142.7","12.74","155.3","1008.997","13.28","100.0","8.2","1.4"],
    [1503087,"2026-01-17 14:50:00","49584","5.172000000000001","223.1","11.63","191.5","1009.411","11.47","100.0","6.202000000000001","3.3"],
    [1503088,"2026-01-17 15:00:00","49585","3.3539999999999996","227.3","6.827000000000001","225.6","1009.395","11.51","100.0","8.31","0.7"],
    [1503089,"2026-01-17 15:10:00","49586","2.379","266.7","5.292000000000001","268.7","1009.36","11.38","100.0","8.21","0.4"],
    [1503090,"2026-01-17 15:20:00","49587","1.6219999999999999","282.8","3.299","268.3","1009.324","11.33","100.0","7.827999999999999","0.4"],
    [1503091,"2026-01-17 15:30:00","49588","1.615","314.7","2.5810000000000004","324.0","1009.221","11.36","100.0","13.39","0.3"],
    [1503092,"2026-01-17 15:40:00","49589","1.36","355.1","2.7110000000000003","334.3","1009.155","11.35","100.0","17.25","0.1"],
    [1503093,"2026-01-17 15:50:00","49590","0.574","353.1","1.339","339.5","1009.169","11.35","100.0","18.38","0.0"],
    [1503094,"2026-01-17 16:00:00","49591","1.011","7.45","1.666","7.489","1009.177","11.32","100.0","21.42","0.0"],
    [1503095,"2026-01-17 16:10:00","49592","1.585","25.71","2.221","29.1","1009.129","11.29","100.0","12.58","0.0"],
    [1503096,"2026-01-17 16:20:00","49593","2.187","39.57","3.234","41.97","1009.169","11.43","100.0","6.319","0.2"],
    [1503097,"2026-01-17 16:30:00","49594","2.8080000000000003","36.07","3.299","37.06","1009.221","11.53","100.0","2.545","0.1"],
    [1503098,"2026-01-17 16:40:00","49595","2.8369999999999997","22.68","3.528","21.24","1009.148","11.59","100.0","0.958","0.3"],
    [1503099,"2026-01-17 16:50:00","49596","2.675","34.48","3.365","34.79","1009.178","11.71","100.0","0.542","0.2"],
    [1503100,"2026-01-17 17:00:00","49597","3.4939999999999998","32.51","4.312","29.5","1009.083","11.73","100.0","0.41100000000000003","0.0"],
    [1503101,"2026-01-17 17:10:00","49598","3.748","24.32","4.737","23.86","1009.078","11.72","100.0","0.29","0.0"],
    [1503102,"2026-01-17 17:20:00","49599","3.82","24.58","4.638999999999999","18.4","1009.117","11.67","100.0","0.469","0.0"],
    [1503103,"2026-01-17 17:30:00","49600","4.031000000000001","31.84","4.704","35.66","1009.162","11.68","100.0","0.7440000000000001","0.0"],
    [1503104,"2026-01-17 17:40:00","49601","4.091","32.45","4.867","27.46","1009.226","11.68","100.0","1.547","0.0"],
    [1503105,"2026-01-17 17:50:00","49602","4.383","29.37","5.847","23.94","1009.32","11.77","100.0","1.834","0.0"],
    [1503106,"2026-01-17 18:00:00","49603","4.21","32.8","5.39","32.1","1009.309","11.81","100.0","1.706","0.0"],
    [1503107,"2026-01-17 18:10:00","49604","4.415","31.8","5.096","30.8","1009.308","11.82","100.0","0.474","0.1"],
    [1503108,"2026-01-17 18:20:00","49605","4.76","25.9","5.39","26.02","1009.277","11.76","100.0","0.284","0.0"],
    [1503109,"2026-01-17 18:30:00","49606","4.671","25.97","5.422999999999999","27.01","1009.321","11.85","100.0","0.534","0.0"],
    [1503110,"2026-01-17 18:40:00","49607","3.983","20.59","4.867","21.24","1009.331","11.94","100.0","0.961","0.1"],
    [1503111,"2026-01-17 18:50:00","49608","3.4160000000000004","19.24","4.4430000000000005","22.66","1009.408","11.94","100.0","0.085","0.3"],
    [1503112,"2026-01-17 19:00:00","49609","3.2239999999999998","18.14","3.855","19.68","1009.476","11.95","100.0","0.0","0.6"],
    [1503113,"2026-01-17 19:10:00","49610","3.3510000000000004","20.87","4.018","18.03","1009.365","11.94","100.0","0.005","0.8"],
    [1503114,"2026-01-17 19:20:00","49611","3.5060000000000002","27.87","4.2139999999999995","28.01","1009.387","11.8","100.0","0.031","0.5"],
    [1503115,"2026-01-17 19:30:00","49612","3.636","23.57","4.41","28.53","1009.327","11.82","100.0","0.107","0.1"],
    [1503116,"2026-01-17 19:40:00","49613","3.725","22.94","4.4430000000000005","21.92","1009.361","11.81","100.0","0.27899999999999997","0.1"],
    [1503117,"2026-01-17 19:50:00","49614","3.91","25.09","4.704","18.12","1009.314","11.86","100.0","0.228","0.0"],
    [1503118,"2026-01-17 20:00:00","49615","4.531000000000001","18.47","5.422999999999999","16.79","1009.212","11.8","100.0","0.247","0.1"],
    [1503119,"2026-01-17 20:10:00","49616","4.571000000000001","17.2","5.357","14.25","1009.102","11.84","100.0","0.45299999999999996","0.0"],
    [1503120,"2026-01-17 20:20:00","49617","4.415","20.69","5.39","23.91","1009.109","11.9","100.0","0.294","0.1"],
    [1503121,"2026-01-17 20:30:00","49618","4.89","25.72","6.207000000000001","30.07","1009.13","11.93","100.0","0.243","0.2"],
    [1503122,"2026-01-17 20:40:00","49619","4.997","19.35","6.305","18.46","1009.171","11.93","100.0","0.195","0.2"],
    [1503123,"2026-01-17 20:50:00","49620","5.093","20.18","6.272","24.59","1009.087","11.93","100.0","0.289","0.0"],
    [1503124,"2026-01-17 21:00:00","49621","5.711","20.74","6.795","22.84","1008.999","11.97","100.0","0.195","0.0"],
    [1503125,"2026-01-17 21:10:00","49622","5.8389999999999995","21.19","6.697","20.98","1009.014","12.05","100.0","0.321","0.0"],
    [1503126,"2026-01-17 21:20:00","49623","5.757999999999999","24.63","7.84","40.09","1008.974","12.1","100.0","0.713","0.0"],
    [1503127,"2026-01-17 21:30:00","49624","7.037000000000001","34.56","8.59","35.5","1008.831","12.17","100.0","0.703","0.1"],
    [1503128,"2026-01-17 21:40:00","49625","6.917999999999999","33.3","8.66","28.14","1008.734","12.19","100.0","0.27","0.0"],
    [1503129,"2026-01-17 21:50:00","49626","6.234","33.7","7.6770000000000005","27.77","1008.742","12.32","100.0","1.006","0.0"],
    [1503130,"2026-01-17 22:00:00","49627","5.765","32.07","7.252000000000001","36.73","1008.758","12.47","100.0","1.234","0.0"],
    [1503131,"2026-01-17 22:10:00","49628","6.202999999999999","34.3","8.0","36.57","1008.699","12.66","100.0","1.135","0.2"],
    [1503132,"2026-01-17 22:20:00","49629","6.86","35.31","8.53","36.62","1008.68","12.75","100.0","0.35600000000000004","0.5"],
    [1503133,"2026-01-17 22:30:00","49630","5.306","27.44","7.742000000000001","35.21","1008.69","12.67","100.0","0.040999999999999995","1.3"],
    [1503134,"2026-01-17 22:40:00","49631","3.947","14.9","5.2589999999999995","22.01","1008.795","12.33","100.0","0.0","1.4"],
    [1503135,"2026-01-17 22:50:00","49632","2.8710000000000004","23.27","4.9","56.23","1008.823","12.25","100.0","0.322","0.2"],
    [1503136,"2026-01-17 23:00:00","49633","4.605","44.09","7.285","62.8","1008.865","12.75","100.0","1.495","0.2"],
    [1503137,"2026-01-17 23:10:00","49634","5.327000000000001","64.78","7.121","68.18","1008.857","13.07","100.0","0.092","0.6"],
    [1503138,"2026-01-17 23:20:00","49635","6.644","92.5","8.72","93.3","1008.785","13.1","100.0","0.147","0.6"],
    [1503139,"2026-01-17 23:30:00","49636","7.205","115.6","9.02","106.3","1008.758","12.97","100.0","0.33899999999999997","0.5"],
    [1503140,"2026-01-17 23:40:00","49637","7.015","134.1","9.24","134.1","1008.8","12.42","100.0","1.025","0.1"],
    [1503141,"2026-01-17 23:50:00","49638","5.58","147.9","7.481","153.4","1008.876","12.21","100.0","0.513","0.1"],
    [1503142,"2026-01-18 00:00:00","49639","3.5010000000000003","140.7","5.227","141.5","1008.915","12.22","100.0","0.877","0.0"],
    [1503143,"2026-01-18 00:10:00","49640","2.793","117.3","3.463","106.4","1008.816","12.37","100.0","1.318","0.0"],
    [1503144,"2026-01-18 00:20:00","49641","2.292","112.1","2.94","103.5","1008.787","12.97","100.0","0.889","0.0"],
    [1503145,"2026-01-18 00:30:00","49642","2.03","139.1","3.005","162.2","1008.828","12.8","100.0","1.7109999999999999","0.0"],
    [1503146,"2026-01-18 00:40:00","49643","3.134","158.9","3.985","158.5","1008.778","12.6","99.1","3.222","0.0"],
    [1503147,"2026-01-18 00:50:00","49644","3.627","164.9","4.181","163.8","1008.795","12.77","96.7","3.0269999999999997","0.0"],
    [1503148,"2026-01-18 01:00:00","49645","2.983","180.8","3.7569999999999997","172.5","1008.825","12.79","94.8","2.665","0.0"],
    [1503149,"2026-01-18 01:10:00","49646","2.715","170.9","3.201","161.6","1008.84","12.88","94.2","1.956","0.0"],
    [1503150,"2026-01-18 01:20:00","49647","2.923","164.2","3.528","156.6","1008.822","12.8","93.8","1.801","0.0"],
    [1503151,"2026-01-18 01:30:00","49648","2.924","172.1","3.5610000000000004","170.4","1008.874","12.8","92.2","1.7819999999999998","0.0"],
    [1503152,"2026-01-18 01:40:00","49649","1.4569999999999999","207.7","2.842","167.3","1008.96","12.76","91.4","0.28600000000000003","0.0"],
    [1503153,"2026-01-18 01:50:00","49650","1.063","234.1","1.601","261.5","1009.001","12.55","92.0","0.018000000000000002","0.0"],
    [1503154,"2026-01-18 02:00:00","49651","1.161","268.8","1.699","276.2","1009.009","12.46","93.2","0.0","0.0"],
    [1503155,"2026-01-18 02:10:00","49652","1.119","288.6","1.699","271.1","1009.015","12.34","95.5","0.0","0.0"],
    [1503156,"2026-01-18 02:20:00","49653","0.9109999999999999","287.0","1.339","261.9","1009.028","12.31","97.5","0.0","0.0"],
    [1503157,"2026-01-18 02:30:00","49654","0.602","217.3","1.2409999999999999","235.6","1009.189","12.21","98.5","0.0","0.0"],
    [1503158,"2026-01-18 02:40:00","49655","0.204","240.3","0.8490000000000001","203.1","1009.316","12.13","98.7","0.0","0.0"],
    [1503159,"2026-01-18 02:50:00","49656","0.49","278.7","0.915","286.1","1009.343","12.13","99.0","0.0","0.0"],
    [1503160,"2026-01-18 03:00:00","49657","0.956","324.6","1.307","333.2","1009.39","12.09","99.5","0.0","0.0"],
    [1503161,"2026-01-18 03:10:00","49658","1.214","347.0","1.3719999999999999","341.1","1009.406","11.96","100.0","0.212","0.0"],
    [1503162,"2026-01-18 03:20:00","49659","1.26","2.3169999999999997","1.601","2.156","1009.434","12.02","100.0","0.365","0.0"],
    [1503163,"2026-01-18 03:30:00","49660","1.295","357.0","1.633","354.0","1009.418","12.12","100.0","0.09","0.0"],
    [1503164,"2026-01-18 03:40:00","49661","0.981","356.5","1.568","354.8","1009.405","12.13","100.0","0.04","0.4"],
    [1503165,"2026-01-18 03:50:00","49662","1.69","8.62","2.45","18.93","1009.383","12.14","100.0","0.447","0.0"],
    [1503166,"2026-01-18 04:00:00","49663","1.224","61.23","2.417","11.75","1009.337","12.37","100.0","0.645","0.1"],
    [1503167,"2026-01-18 04:10:00","49664","0.441","104.6","1.993","112.1","1009.361","12.49","100.0","0.049","0.0"],
    [1503168,"2026-01-18 04:20:00","49665","0.504","339.6","1.013","341.8","1009.431","12.52","100.0","0.027000000000000003","0.0"],
    [1503169,"2026-01-18 04:30:00","49666","0.24","299.2","1.307","248.1","1009.461","12.53","100.0","0.18","0.0"],
    [1503170,"2026-01-18 04:40:00","49667","0.43200000000000005","296.9","1.209","298.7","1009.448","12.5","100.0","0.596","0.0"],
    [1503171,"2026-01-18 04:50:00","49668","0.925","233.8","4.541","154.7","1009.492","12.57","100.0","1.5819999999999999","0.0"],
    [1503172,"2026-01-18 05:00:00","49669","4.669","139.8","6.042999999999999","149.8","1009.489","13.2","98.9","3.937","0.0"],
    [1503173,"2026-01-18 05:10:00","49670","4.75","135.6","5.978","137.1","1009.49","13.59","93.3","3.69","0.1"],
    [1503174,"2026-01-18 05:20:00","49671","5.854","148.5","7.579","135.5","1009.48","13.52","91.2","3.8480000000000003","0.0"],
    [1503175,"2026-01-18 05:30:00","49672","6.082999999999999","163.5","7.317","163.2","1009.551","12.84","91.8","0.73","0.1"],
    [1503176,"2026-01-18 05:40:00","49673","5.781000000000001","164.6","7.546","171.9","1009.633","12.7","93.3","0.37799999999999995","0.5"],
    [1503177,"2026-01-18 05:50:00","49674","5.357","166.7","6.795","162.2","1009.775","12.25","97.0","0.149","0.6"],
    [1503178,"2026-01-18 06:00:00","49675","3.5780000000000003","174.2","5.553","170.3","1009.929","12.11","97.2","0.584","0.1"],
    [1503179,"2026-01-18 06:10:00","49676","2.785","153.9","4.1160000000000005","157.1","1010.074","12.41","95.1","0.259","0.1"],
    [1503180,"2026-01-18 06:20:00","49677","3.735","155.1","5.129","159.4","1010.192","12.37","93.2","0.593","0.2"],
    [1503181,"2026-01-18 06:30:00","49678","2.585","154.9","3.6910000000000003","160.6","1010.245","12.53","92.4","0.128","0.2"],
    [1503182,"2026-01-18 06:40:00","49679","1.7080000000000002","146.1","2.548","143.7","1010.318","12.45","92.0","0.504","0.1"],
    [1503183,"2026-01-18 06:50:00","49680","1.9780000000000002","142.3","2.483","142.8","1010.497","12.47","90.7","2.224","0.0"],
    [1503184,"2026-01-18 07:00:00","49681","1.7369999999999999","126.2","2.907","143.2","1010.644","12.57","88.5","3.0639999999999996","0.0"],
    [1503185,"2026-01-18 07:10:00","49682","2.296","93.8","3.267","88.9","1010.751","12.65","88.0","2.0869999999999997","0.1"],
    [1503186,"2026-01-18 07:20:00","49683","1.726","88.2","3.136","84.7","1010.812","12.55","90.1","1.354","0.2"],
    [1503187,"2026-01-18 07:30:00","49684","1.558","54.34","2.123","41.06","1010.857","12.44","92.5","5.691","0.0"],
    [1503188,"2026-01-18 07:40:00","49685","2.454","18.9","2.842","17.57","1010.947","12.29","93.7","10.6","0.0"],
    [1503189,"2026-01-18 07:50:00","49686","2.5780000000000003","16.15","2.9730000000000003","20.94","1011.088","12.33","94.4","17.58","0.0"],
    [1503190,"2026-01-18 08:00:00","49687","2.314","7.707000000000001","3.005","15.66","1011.139","12.21","95.8","17.97","0.0"],
    [1503191,"2026-01-18 08:10:00","49688","2.735","13.04","3.299","21.56","1011.187","12.18","96.4","18.94","0.0"],
    [1503192,"2026-01-18 08:20:00","49689","2.9339999999999997","21.34","3.43","18.19","1011.274","12.24","97.3","15.9","0.2"],
    [1503193,"2026-01-18 08:30:00","49690","3.082","23.44","3.985","17.34","1011.4","12.23","98.1","34.15","0.7"],
    [1503194,"2026-01-18 08:40:00","49691","3.786","20.06","4.508","16.79","1011.498","12.27","99.6","48.65","0.1"],
    [1503195,"2026-01-18 08:50:00","49692","3.362","16.15","4.083","22.14","1011.562","12.2","100.0","73.31","0.0"],
    [1503196,"2026-01-18 09:00:00","49693","3.721","15.68","4.149","14.09","1011.644","12.12","100.0","60.05","0.0"],
    [1503197,"2026-01-18 09:10:00","49694","3.531","15.29","4.149","15.98","1011.709","12.13","100.0","62.62","0.0"],
    [1503198,"2026-01-18 09:20:00","49695","3.517","14.97","4.149","12.95","1011.828","12.16","100.0","117.4","0.0"],
    [1503199,"2026-01-18 09:30:00","49696","3.3710000000000004","20.62","3.855","16.05","1011.952","12.24","99.7","168.3","0.0"],
    [1503200,"2026-01-18 09:40:00","49697","2.843","21.98","3.5610000000000004","22.89","1012.119","12.27","98.8","126.1","0.0"],
    [1503201,"2026-01-18 09:50:00","49698","3.67","25.44","4.541","24.3","1012.237","12.41","98.0","124.3","0.0"],
    [1503202,"2026-01-18 10:00:00","49699","3.862","21.36","4.835","21.12","1012.346","12.35","97.5","102.9","0.1"],
    [1503203,"2026-01-18 10:10:00","49700","4.2410000000000005","27.47","5.978","32.87","1012.408","12.38","97.2","68.84","0.0"],
    [1503204,"2026-01-18 10:20:00","49701","4.4639999999999995","23.72","5.7170000000000005","18.48","1012.459","12.34","98.1","52.17","0.0"],
    [1503205,"2026-01-18 10:30:00","49702","4.607","22.79","5.684","24.38","1012.454","12.02","99.3","69.61","0.3"],
    [1503206,"2026-01-18 10:40:00","49703","3.342","4.037","4.9","12.81","1012.297","11.93","100.0","150.6","0.0"],
    [1503207,"2026-01-18 10:50:00","49704","3.318","8.41","4.508","8.36","1012.236","11.87","100.0","163.6","0.0"],
    [1503208,"2026-01-18 11:00:00","49705","3.9619999999999997","12.64","4.671","19.08","1012.195","11.96","100.0","106.9","0.0"],
    [1503209,"2026-01-18 11:10:00","49706","3.3139999999999996","11.05","4.345","22.14","1012.232","11.99","99.9","74.68","0.2"],
    [1503210,"2026-01-18 11:20:00","49707","1.9280000000000002","6.8","2.319","353.7","1012.089","12.08","99.8","202.2","0.0"],
    [1503211,"2026-01-18 11:30:00","49708","2.475","6.7829999999999995","2.875","4.637","1011.898","12.11","99.1","294.6","0.0"],
    [1503212,"2026-01-18 11:40:00","49709","2.418","5.0760000000000005","3.071","2.334","1011.737","12.33","96.1","389.8","0.0"],
    [1503213,"2026-01-18 11:50:00","49710","2.995","15.17","3.7889999999999997","13.65","1011.751","12.69","92.4","339.2","0.0"],
    [1503214,"2026-01-18 12:00:00","49711","4.279","18.2","5.455","21.69","1011.721","12.85","90.6","155.0","0.0"],
    [1503215,"2026-01-18 12:10:00","49712","4.062","13.06","4.998","8.96","1011.646","12.81","90.0","75.18","0.0"],
    [1503216,"2026-01-18 12:20:00","49713","3.6310000000000002","6.154","5.031000000000001","11.57","1011.533","12.75","89.8","50.02","0.2"],
    [1503217,"2026-01-18 12:30:00","49714","4.096","7.846","5.978","20.84","1011.435","12.57","91.0","86.3","0.3"],
    [1503218,"2026-01-18 12:40:00","49715","3.557","2.9960000000000004","4.671","351.5","1011.333","12.4","93.6","121.6","0.1"],
    [1503219,"2026-01-18 12:50:00","49716","3.42","8.74","4.704","7.343","1011.266","12.33","95.5","158.1","0.0"],
    [1503220,"2026-01-18 13:00:00","49717","3.924","7.787999999999999","5.227","11.59","1011.15","12.33","97.1","154.3","0.0"],
    [1503221,"2026-01-18 13:10:00","49718","4.235","6.237","5.422999999999999","14.33","1011.119","12.25","98.4","146.2","0.0"],
    [1503222,"2026-01-18 13:20:00","49719","3.623","0.725","5.129","5.284","1011.007","12.31","99.2","128.0","0.0"],
    [1503223,"2026-01-18 13:30:00","49720","3.43","3.8289999999999997","4.9","344.6","1010.904","12.26","99.6","136.4","0.0"],
    [1503224,"2026-01-18 13:40:00","49721","4.0089999999999995","8.32","5.422999999999999","10.76","1010.975","12.25","99.5","98.7","0.0"],
    [1503225,"2026-01-18 13:50:00","49722","3.95","8.59","5.2589999999999995","16.78","1010.984","12.32","99.3","100.2","0.0"],
    [1503226,"2026-01-18 14:00:00","49723","5.199","8.3","6.957999999999999","16.87","1011.009","12.4","98.9","139.6","0.0"],
    [1503227,"2026-01-18 14:10:00","49724","4.752","23.84","5.847","14.81","1011.039","12.39","98.6","176.5","0.0"],
    [1503228,"2026-01-18 14:20:00","49725","5.256","26.32","6.664","24.93","1011.061","12.43","97.6","225.0","0.0"],
    [1503229,"2026-01-18 14:30:00","49726","5.565","32.7","6.86","32.64","1011.129","12.35","95.4","201.3","0.0"],
    [1503230,"2026-01-18 14:40:00","49727","5.466","25.52","6.729","17.23","1011.23","12.58","95.0","148.3","0.0"],
    [1503231,"2026-01-18 14:50:00","49728","6.316","25.92","8.49","26.47","1011.274","12.54","97.0","88.9","0.0"],
    [1503232,"2026-01-18 15:00:00","49729","6.394","25.37","8.17","29.14","1011.317","12.42","97.8","106.0","0.0"],
    [1503233,"2026-01-18 15:10:00","49730","5.992999999999999","22.83","7.415","28.49","1011.337","12.4","98.2","125.6","0.0"],
    [1503234,"2026-01-18 15:20:00","49731","5.36","18.14","7.187","13.71","1011.374","12.5","97.7","107.2","0.0"],
    [1503235,"2026-01-18 15:30:00","49732","5.207999999999999","18.85","6.566","17.0","1011.364","12.71","98.0","80.6","0.0"],
    [1503236,"2026-01-18 15:40:00","49733","5.962999999999999","22.29","7.35","24.73","1011.393","12.79","98.6","60.39","0.0"],
    [1503237,"2026-01-18 15:50:00","49734","5.972","24.07","7.709","22.56","1011.417","12.92","99.3","66.84","0.0"],
    [1503238,"2026-01-18 16:00:00","49735","5.665","27.48","6.957999999999999","30.91","1011.415","12.83","100.0","62.78","0.0"],
    [1503239,"2026-01-18 16:10:00","49736","6.03","36.12","7.317","41.43","1011.42","12.83","100.0","45.91","0.0"],
    [1503240,"2026-01-18 16:20:00","49737","5.909","34.4","7.154","33.97","1011.437","12.95","100.0","29.37","0.0"],
    [1503241,"2026-01-18 16:30:00","49738","5.502000000000001","33.46","6.697","33.84","1011.532","12.98","100.0","19.18","0.0"],
    [1503242,"2026-01-18 16:40:00","49739","5.359","38.55","6.501","46.24","1011.576","12.98","100.0","9.97","0.0"],
    [1503243,"2026-01-18 16:50:00","49740","5.104","46.19","7.056","43.87","1011.596","13.06","100.0","4.4830000000000005","0.0"],
    [1503244,"2026-01-18 17:00:00","49741","5.8389999999999995","42.33","8.04","46.58","1011.671","13.13","100.0","1.725","0.0"],
    [1503245,"2026-01-18 17:10:00","49742","5.5329999999999995","43.06","7.121","49.85","1011.765","13.23","99.7","0.612","0.0"],
    [1503246,"2026-01-18 17:20:00","49743","5.263","38.27","6.957999999999999","32.5","1011.856","13.2","99.2","0.057999999999999996","0.0"],
    [1503247,"2026-01-18 17:30:00","49744","4.706","39.87","6.7620000000000005","19.89","1011.968","12.97","99.1","0.223","0.0"],
    [1503248,"2026-01-18 17:40:00","49745","6.007999999999999","32.22","7.742000000000001","33.63","1012.082","12.95","98.2","0.593","0.0"],
    [1503249,"2026-01-18 17:50:00","49746","6.189","28.53","8.2","35.82","1012.145","12.91","99.2","0.207","0.0"],
    [1503250,"2026-01-18 18:00:00","49747","5.4270000000000005","29.36","7.023","35.53","1012.198","12.9","99.8","0.21600000000000003","0.0"],
    [1503251,"2026-01-18 18:10:00","49748","4.605","43.69","7.023","38.03","1012.262","13.03","99.9","0.21100000000000002","0.0"],
    [1503252,"2026-01-18 18:20:00","49749","5.012","66.34","6.501","70.15","1012.356","13.04","97.7","0.09","0.0"],
    [1503253,"2026-01-18 18:30:00","49750","4.955","69.83","6.631","69.87","1012.452","13.21","94.5","0.023","0.0"],
    [1503254,"2026-01-18 18:40:00","49751","5.5729999999999995","69.83","7.546","65.67","1012.541","13.28","93.1","0.153","0.0"],
    [1503255,"2026-01-18 18:50:00","49752","5.792999999999999","68.45","7.4479999999999995","66.58","1012.621","13.21","91.8","0.0","0.0"],
    [1503256,"2026-01-18 19:00:00","49753","6.109","65.91","8.23","53.14","1012.724","13.34","90.4","0.177","0.0"],
    [1503257,"2026-01-18 19:10:00","49754","6.615","58.5","8.69","50.44","1012.791","13.31","91.6","0.107","0.0"],
    [1503258,"2026-01-18 19:20:00","49755","6.006","58.58","8.3","67.55","1012.914","13.27","91.3","0.042","0.0"],
    [1503259,"2026-01-18 19:30:00","49756","4.874","52.54","6.337000000000001","43.01","1012.909","13.28","90.8","0.0","0.0"],
    [1503260,"2026-01-18 19:40:00","49757","6.916","39.37","8.95","33.94","1012.83","13.3","91.5","0.006999999999999999","0.0"],
    [1503261,"2026-01-18 19:50:00","49758","7.021","33.89","8.56","38.27","1012.922","13.04","94.2","0.0","0.0"],
    [1503262,"2026-01-18 20:00:00","49759","7.454","35.11","9.21","33.19","1013.007","13.03","94.4","0.0","0.0"],
    [1503263,"2026-01-18 20:10:00","49760","8.45","35.46","10.65","42.66","1013.09","13.0","93.9","0.22399999999999998","0.1"],
    [1503264,"2026-01-18 20:20:00","49761","8.47","34.55","10.55","37.55","1013.176","12.76","95.2","0.043","0.1"],
    [1503265,"2026-01-18 20:30:00","49762","6.165","31.2","8.92","37.16","1013.292","12.65","97.8","0.07200000000000001","0.0"],
    [1503266,"2026-01-18 20:40:00","49763","6.921","31.76","8.69","30.73","1013.313","12.55","97.8","0.662","0.1"],
    [1503267,"2026-01-18 20:50:00","49764","7.609","34.26","9.31","36.39","1013.392","12.47","97.7","0.017","1.1"],
    [1503268,"2026-01-18 21:00:00","49765","6.94","30.27","8.66","28.19","1013.467","12.27","99.9","0.217","0.3"],
    [1503269,"2026-01-18 21:10:00","49766","6.625","26.88","8.98","20.45","1013.555","12.21","100.0","0.84","0.0"],
    [1503270,"2026-01-18 21:20:00","49767","6.651","25.41","7.971","25.32","1013.549","12.26","100.0","0.573","0.1"],
    [1503271,"2026-01-18 21:30:00","49768","5.801","21.03","7.481","21.09","1013.59","12.2","100.0","1.489","0.0"],
    [1503272,"2026-01-18 21:40:00","49769","6.263","25.36","9.31","15.82","1013.542","12.39","100.0","2.156","0.0"],
    [1503273,"2026-01-18 21:50:00","49770","6.0489999999999995","21.11","8.79","21.53","1013.534","12.48","100.0","2.1430000000000002","0.0"],
    [1503274,"2026-01-18 22:00:00","49771","4.91","15.82","6.141","20.53","1013.618","12.37","100.0","1.5230000000000001","0.0"],
    [1503275,"2026-01-18 22:10:00","49772","6.246","20.36","8.17","19.27","1013.607","12.48","99.7","1.9880000000000002","0.0"],
    [1503276,"2026-01-18 22:20:00","49773","6.574","26.44","8.69","30.3","1013.555","12.63","98.2","2.18","0.0"],
    [1503277,"2026-01-18 22:30:00","49774","7.312","27.24","8.75","28.5","1013.472","12.74","96.6","3.158","0.0"],
    [1503278,"2026-01-18 22:40:00","49775","7.603","28.56","9.21","22.84","1013.383","12.8","95.4","2.8819999999999997","0.0"],
    [1503279,"2026-01-18 22:50:00","49776","7.902","28.83","9.47","30.33","1013.41","12.78","95.1","2.207","0.0"],
    [1503280,"2026-01-18 23:00:00","49777","7.968","28.07","9.83","28.58","1013.433","12.63","96.7","0.391","0.0"],
    [1503281,"2026-01-18 23:10:00","49778","7.692","27.01","9.34","28.14","1013.478","12.57","97.8","0.304","0.0"],
    [1503282,"2026-01-18 23:20:00","49779","8.3","27.19","10.45","29.45","1013.515","12.54","97.2","0.58","0.1"],
    [1503283,"2026-01-18 23:30:00","49780","7.5120000000000005","27.78","9.21","25.98","1013.57","12.62","96.7","0.35600000000000004","0.0"],
    [1503284,"2026-01-18 23:40:00","49781","6.931","30.09","9.54","29.88","1013.629","12.64","96.8","0.17300000000000001","0.0"],
    [1503285,"2026-01-18 23:50:00","49782","6.931","26.97","8.59","29.68","1013.603","12.66","95.7","1.365","0.0"],
    [1503286,"2026-01-19 00:00:00","49783","6.854","28.71","8.49","27.51","1013.524","12.72","94.2","2.31","0.0"],
    [1503287,"2026-01-19 00:10:00","49784","6.192","32.46","8.1","26.68","1013.49","12.84","93.4","2.471","0.0"],
    [1503288,"2026-01-19 00:20:00","49785","6.665","30.61","8.43","30.35","1013.412","12.8","93.1","1.315","0.0"],
    [1503289,"2026-01-19 00:30:00","49786","6.129","28.42","7.84","33.81","1013.375","12.68","92.0","1.581","0.0"],
    [1503290,"2026-01-19 00:40:00","49787","6.2829999999999995","27.48","8.0","29.13","1013.352","12.69","90.7","1.899","0.0"],
    [1503291,"2026-01-19 00:50:00","49788","5.507999999999999","23.22","6.893","26.99","1013.386","12.56","89.8","1.585","0.0"],
    [1503292,"2026-01-19 01:00:00","49789","5.41","24.97","6.795","26.78","1013.399","12.59","89.1","0.784","0.0"],
    [1503293,"2026-01-19 01:10:00","49790","5.521","23.62","7.121","21.45","1013.361","12.59","87.8","1.618","0.0"],
    [1503294,"2026-01-19 01:20:00","49791","5.655","23.81","7.317","12.82","1013.383","12.55","87.3","0.252","0.1"],
    [1503295,"2026-01-19 01:30:00","49792","5.4270000000000005","20.75","7.187","23.73","1013.396","12.45","87.7","0.031","0.1"],
    [1503296,"2026-01-19 01:40:00","49793","5.686","28.33","7.513","29.62","1013.355","12.51","87.7","0.055","0.0"],
    [1503297,"2026-01-19 01:50:00","49794","6.706","34.58","9.8","43.94","1013.382","12.61","87.6","0.5429999999999999","0.0"],
    [1503298,"2026-01-19 02:00:00","49795","7.35","34.31","9.34","42.65","1013.435","12.64","89.0","0.539","0.0"],
    [1503299,"2026-01-19 02:10:00","49796","6.978","30.64","8.72","30.7","1013.486","12.47","89.6","0.33399999999999996","0.0"],
    [1503300,"2026-01-19 02:20:00","49797","6.178","28.64","8.4","31.17","1013.5","12.39","89.9","0.0","0.0"],
    [1503301,"2026-01-19 02:30:00","49798","5.502999999999999","27.06","7.481","26.33","1013.577","12.28","89.7","0.0","0.0"],
    [1503302,"2026-01-19 02:40:00","49799","4.942","23.31","5.978","22.92","1013.592","12.21","89.9","0.0","0.0"],
    [1503303,"2026-01-19 02:50:00","49800","4.641","23.68","6.468","30.46","1013.609","12.21","90.1","0.0","0.0"],
    [1503304,"2026-01-19 03:00:00","49801","5.237","34.71","7.218999999999999","25.66","1013.516","12.33","91.0","0.0","0.0"],
    [1503305,"2026-01-19 03:10:00","49802","4.992","33.13","6.697","33.17","1013.457","12.24","92.8","0.0","0.2"],
    [1503306,"2026-01-19 03:20:00","49803","5.327999999999999","29.03","6.9910000000000005","25.79","1013.324","12.23","94.8","0.0","0.2"],
    [1503307,"2026-01-19 03:30:00","49804","4.565","17.76","5.945","21.43","1013.244","12.18","94.9","0.23","0.1"],
    [1503308,"2026-01-19 03:40:00","49805","4.263","13.84","5.749","11.22","1013.098","12.17","94.9","0.847","0.0"],
    [1503309,"2026-01-19 03:50:00","49806","4.063","17.3","5.031000000000001","28.16","1013.015","12.26","94.2","1.198","0.0"],
    [1503310,"2026-01-19 04:00:00","49807","3.594","15.37","4.867","9.81","1012.992","12.34","92.9","1.655","0.0"],
    [1503311,"2026-01-19 04:10:00","49808","4.186","13.94","5.88","16.26","1013.006","12.33","92.2","2.278","0.0"],
    [1503312,"2026-01-19 04:20:00","49809","3.926","18.76","6.109","19.53","1012.967","12.34","91.0","2.291","0.0"],
    [1503313,"2026-01-19 04:30:00","49810","3.975","9.66","5.194","4.734","1012.956","12.16","90.6","1.8319999999999999","0.0"],
    [1503314,"2026-01-19 04:40:00","49811","4.59","14.7","5.553","12.4","1012.931","12.12","89.5","1.815","0.0"],
    [1503315,"2026-01-19 04:50:00","49812","3.988","10.98","5.096","8.38","1012.848","12.2","88.2","0.8959999999999999","0.0"],
    [1503316,"2026-01-19 05:00:00","49813","3.668","4.277","5.031000000000001","5.544","1012.8","12.11","87.0","0.609","0.0"],
    [1503317,"2026-01-19 05:10:00","49814","3.3739999999999997","3.84","4.606","5.332000000000001","1012.808","12.04","86.6","0.887","0.0"],
    [1503318,"2026-01-19 05:20:00","49815","3.5039999999999996","7.636","4.835","4.361000000000001","1012.79","12.07","85.8","0.586","0.0"],
    [1503319,"2026-01-19 05:30:00","49816","4.21","15.62","5.357","16.47","1012.791","12.1","85.3","0.40299999999999997","0.0"],
    [1503320,"2026-01-19 05:40:00","49817","4.194","16.84","5.227","16.73","1012.8","12.07","85.9","0.07200000000000001","0.0"],
    [1503321,"2026-01-19 05:50:00","49818","4.1739999999999995","11.12","5.325","9.14","1012.811","11.96","86.3","0.002","0.0"],
    [1503322,"2026-01-19 06:00:00","49819","2.971","8.83","4.4430000000000005","17.8","1012.855","12.03","85.6","0.0","0.0"],
    [1503323,"2026-01-19 06:10:00","49820","3.573","18.91","4.573","16.66","1012.89","12.15","84.9","0.0","0.0"],
    [1503324,"2026-01-19 06:20:00","49821","3.3360000000000003","0.069","4.377","345.7","1012.926","12.08","84.6","0.0","0.0"],
    [1503325,"2026-01-19 06:30:00","49822","2.7539999999999996","352.0","4.247","345.6","1012.903","11.94","84.7","0.0","0.0"],
    [1503326,"2026-01-19 06:40:00","49823","3.0589999999999997","352.1","4.4430000000000005","344.5","1013.023","11.94","83.9","0.0","0.0"],
    [1503327,"2026-01-19 06:50:00","49824","2.456","359.6","3.463","0.8109999999999999","1013.141","12.09","82.6","0.0","0.0"],
    [1503328,"2026-01-19 07:00:00","49825","3.049","348.2","3.822","344.7","1013.095","12.02","82.5","0.0","0.0"],
    [1503329,"2026-01-19 07:10:00","49826","2.998","355.5","3.6910000000000003","352.0","1013.078","11.94","82.6","0.304","0.0"],
    [1503330,"2026-01-19 07:20:00","49827","2.752","352.2","4.965","336.0","1013.154","12.01","81.9","3.0010000000000003","0.0"],
    [1503331,"2026-01-19 07:30:00","49828","2.505","357.3","3.6910000000000003","17.75","1013.269","12.15","81.1","10.68","0.0"],
    [1503332,"2026-01-19 07:40:00","49829","3.0210000000000004","359.5","4.083","352.0","1013.443","12.09","81.0","22.84","0.0"],
    [1503333,"2026-01-19 07:50:00","49830","2.946","3.056","4.41","13.7","1013.525","12.19","80.8","37.03","0.0"],
    [1503334,"2026-01-19 08:00:00","49831","2.725","7.126","4.181","10.41","1013.636","12.22","80.6","53.11","0.0"],
    [1503335,"2026-01-19 08:10:00","49832","3.8289999999999997","14.08","5.129","11.22","1013.799","12.27","80.9","77.7","0.0"],
    [1503336,"2026-01-19 08:20:00","49833","4.173","9.04","5.292000000000001","5.106","1013.937","12.14","80.7","82.7","0.0"],
    [1503337,"2026-01-19 08:30:00","49834","2.895","356.3","4.018","5.641","1013.98","12.11","80.2","114.1","0.0"],
    [1503338,"2026-01-19 08:40:00","49835","2.7569999999999997","350.6","4.181","343.2","1013.919","12.17","80.1","201.2","0.0"],
    [1503339,"2026-01-19 08:50:00","49836","3.076","0.24","4.835","1.3619999999999999","1014.003","12.29","79.02","162.1","0.0"],
    [1503340,"2026-01-19 09:00:00","49837","3.911","5.142","5.553","5.138999999999999","1014.111","12.4","77.78","152.8","0.0"],
    [1503341,"2026-01-19 09:10:00","49838","4.178999999999999","8.76","5.325","14.62","1014.151","12.5","77.59","158.0","0.0"],
    [1503342,"2026-01-19 09:20:00","49839","4.288","8.36","5.357","6.175","1014.198","12.56","76.74","128.7","0.0"],
    [1503343,"2026-01-19 09:30:00","49840","4.4239999999999995","10.01","5.782","19.69","1014.224","12.65","76.37","107.8","0.0"],
    [1503344,"2026-01-19 09:40:00","49841","4.853","11.76","6.0760000000000005","14.3","1014.248","12.73","75.89","87.3","0.0"],
    [1503345,"2026-01-19 09:50:00","49842","5.0969999999999995","12.9","6.403","9.95","1014.333","12.63","77.2","76.23","0.2"],
    [1503346,"2026-01-19 10:00:00","49843","4.957","20.57","6.1739999999999995","17.89","1014.394","12.19","80.3","119.4","0.2"],
    [1503347,"2026-01-19 10:10:00","49844","4.737","9.03","6.109","5.689","1014.385","12.11","82.4","171.0","0.1"],
    [1503348,"2026-01-19 10:20:00","49845","5.077","19.13","6.435","33.44","1014.392","12.19","82.7","228.2","0.1"],
    [1503349,"2026-01-19 10:30:00","49846","5.694","14.23","7.218999999999999","11.27","1014.403","12.26","82.7","239.0","0.0"],
    [1503350,"2026-01-19 10:40:00","49847","5.946000000000001","10.51","7.611000000000001","19.11","1014.354","11.99","84.1","232.8","0.1"],
    [1503351,"2026-01-19 10:50:00","49848","6.662999999999999","8.96","8.62","10.91","1014.394","12.05","84.9","314.9","0.0"],
    [1503352,"2026-01-19 11:00:00","49849","6.5120000000000005","6.3839999999999995","9.02","13.73","1014.43","11.9","86.6","276.7","0.1"],
    [1503353,"2026-01-19 11:10:00","49850","6.172999999999999","11.84","7.742000000000001","6.565","1014.391","11.79","88.1","124.0","0.1"],
    [1503354,"2026-01-19 11:20:00","49851","5.851","9.77","7.4479999999999995","7.943","1014.458","11.68","89.2","67.88","0.7"],
    [1503355,"2026-01-19 11:30:00","49852","4.375","358.5","5.88","343.9","1014.293","11.49","91.5","59.79","0.4"],
    [1503356,"2026-01-19 11:40:00","49853","4.263","353.7","6.729","354.6","1014.207","11.57","92.2","106.2","0.0"],
    [1503357,"2026-01-19 11:50:00","49854","4.982","353.2","8.23","343.3","1014.189","11.58","90.6","80.9","0.0"],
    [1503358,"2026-01-19 12:00:00","49855","4.355","0.17600000000000002","6.239","342.7","1014.154","11.74","89.3","150.7","0.0"],
    [1503359,"2026-01-19 12:10:00","49856","4.573","4.364","6.1739999999999995","342.1","1014.113","11.7","88.2","182.9","0.2"],
    [1503360,"2026-01-19 12:20:00","49857","4.365","3.74","6.599","6.603","1013.92","11.68","88.5","291.0","0.1"],
    [1503361,"2026-01-19 12:30:00","49858","4.5889999999999995","4.689","6.468","342.7","1013.854","11.76","88.3","167.3","0.0"],
    [1503362,"2026-01-19 12:40:00","49859","4.697","4.973","6.141","19.08","1013.803","11.84","85.7","91.3","0.1"],
    [1503363,"2026-01-19 12:50:00","49860","4.621","2.888","6.957999999999999","1.3940000000000001","1013.737","11.8","85.6","124.2","0.4"],
    [1503364,"2026-01-19 13:00:00","49861","4.294","0.45","6.272","1.6369999999999998","1013.651","11.78","85.7","138.3","0.1"],
    [1503365,"2026-01-19 13:10:00","49862","3.985","0.5870000000000001","6.566","5.236000000000001","1013.676","11.86","85.2","61.65","0.3"],
    [1503366,"2026-01-19 13:20:00","49863","3.696","356.1","6.599","336.6","1013.636","11.78","87.0","27.94","0.7"],
    [1503367,"2026-01-19 13:30:00","49864","4.003","357.7","6.207000000000001","348.1","1013.567","11.64","89.8","47.14","0.1"],
    [1503368,"2026-01-19 13:40:00","49865","4.063","3.694","6.109","3.904","1013.571","11.78","90.0","56.94","0.0"],
    [1503369,"2026-01-19 13:50:00","49866","4.021","357.5","5.7170000000000005","351.2","1013.564","12.02","88.5","168.9","0.0"],
    [1503370,"2026-01-19 14:00:00","49867","3.685","357.0","5.553","351.6","1013.54","12.13","87.7","113.6","0.0"],
    [1503371,"2026-01-19 14:10:00","49868","3.8480000000000003","359.0","5.978","359.7","1013.553","12.25","87.2","75.59","0.0"],
    [1503372,"2026-01-19 14:20:00","49869","4.761","2.055","6.925","10.49","1013.541","12.37","86.3","58.27","0.0"],
    [1503373,"2026-01-19 14:30:00","49870","5.367000000000001","8.6","6.925","12.24","1013.548","12.55","85.9","122.7","0.0"],
    [1503374,"2026-01-19 14:40:00","49871","5.4639999999999995","8.79","7.121","13.29","1013.568","12.64","85.2","118.1","0.0"],
    [1503375,"2026-01-19 14:50:00","49872","5.938","11.12","7.938","10.0","1013.57","12.77","84.6","126.2","0.0"],
    [1503376,"2026-01-19 15:00:00","49873","5.077","4.822","7.252000000000001","12.81","1013.51","12.68","85.0","71.51","0.0"],
    [1503377,"2026-01-19 15:10:00","49874","4.3389999999999995","2.673","5.88","14.26","1013.512","12.6","85.7","98.9","0.0"],
    [1503378,"2026-01-19 15:20:00","49875","4.397","358.2","6.631","350.7","1013.612","12.56","86.1","101.9","0.0"],
    [1503379,"2026-01-19 15:30:00","49876","4.772","2.064","7.807","10.1","1013.587","12.55","86.3","117.4","0.0"],
    [1503380,"2026-01-19 15:40:00","49877","5.716","9.3","8.49","346.6","1013.602","12.63","85.8","78.8","0.0"],
    [1503381,"2026-01-19 15:50:00","49878","5.587999999999999","9.05","7.546","15.41","1013.63","12.68","84.9","58.27","0.0"],
    [1503382,"2026-01-19 16:00:00","49879","4.92","6.279","7.35","10.58","1013.587","12.7","84.4","42.33","0.0"],
    [1503383,"2026-01-19 16:10:00","49880","6.034","10.29","8.95","8.7","1013.559","12.72","84.2","22.25","0.0"],
    [1503384,"2026-01-19 16:20:00","49881","5.033","3.9","7.742000000000001","18.43","1013.523","12.78","83.8","16.97","0.0"],
    [1503385,"2026-01-19 16:30:00","49882","4.779","4.305","7.775","15.14","1013.511","12.7","83.8","12.7","0.0"],
    [1503386,"2026-01-19 16:40:00","49883","5.644","6.082000000000001","8.33","3.987","1013.543","12.7","82.8","7.468999999999999","0.0"],
    [1503387,"2026-01-19 16:50:00","49884","6.104","8.49","7.6770000000000005","8.44","1013.559","12.8","82.2","3.542","0.0"],
    [1503388,"2026-01-19 17:00:00","49885","6.149","11.7","7.742000000000001","15.17","1013.578","12.95","81.6","2.347","0.0"],
    [1503389,"2026-01-19 17:10:00","49886","6.406000000000001","7.6770000000000005","8.66","15.66","1013.491","13.01","80.4","1.864","0.0"],
    [1503390,"2026-01-19 17:20:00","49887","6.4879999999999995","6.872000000000001","9.02","9.43","1013.394","13.03","79.64","1.828","0.0"],
    [1503391,"2026-01-19 17:30:00","49888","5.1610000000000005","3.2030000000000003","7.285","2.35","1013.466","13.0","79.21","1.724","0.0"],
    [1503392,"2026-01-19 17:40:00","49889","6.305","7.565","9.15","16.58","1013.528","13.01","79.28","1.995","0.0"],
    [1503393,"2026-01-19 17:50:00","49890","6.227","9.12","8.2","13.29","1013.619","13.03","79.38","2.029","0.0"],
    [1503394,"2026-01-19 18:00:00","49891","5.369","8.35","8.04","0.409","1013.649","13.03","79.46","1.703","0.0"],
    [1503395,"2026-01-19 18:10:00","49892","5.858","14.44","7.709","11.62","1013.659","13.05","80.4","0.135","0.0"],
    [1503396,"2026-01-19 18:20:00","49893","6.459","19.72","8.72","26.04","1013.7","12.88","81.7","0.0","0.1"],
    [1503397,"2026-01-19 18:30:00","49894","6.6370000000000005","19.03","8.69","12.67","1013.737","12.82","83.4","0.022000000000000002","0.0"],
    [1503398,"2026-01-19 18:40:00","49895","7.273","20.1","10.13","27.84","1013.731","12.69","84.0","0.289","0.1"],
    [1503399,"2026-01-19 18:50:00","49896","6.931","19.45","9.9","24.69","1013.887","12.6","85.2","0.183","0.1"],
    [1503400,"2026-01-19 19:00:00","49897","8.44","22.57","10.26","28.66","1013.956","12.43","86.5","0.138","0.1"],
    [1503401,"2026-01-19 19:10:00","49898","7.667000000000001","16.19","10.55","17.3","1013.99","12.09","90.2","0.42100000000000004","0.2"],
    [1503402,"2026-01-19 19:20:00","49899","7.605","7.9510000000000005","9.67","8.41","1014.069","11.94","92.0","1.048","0.1"],
    [1503403,"2026-01-19 19:30:00","49900","7.547000000000001","9.51","9.38","6.727","1014.093","11.92","92.7","1.2819999999999998","0.1"],
    [1503404,"2026-01-19 19:40:00","49901","7.007000000000001","9.14","9.67","358.4","1013.997","12.01","92.6","1.5630000000000002","0.0"],
    [1503405,"2026-01-19 19:50:00","49902","7.3260000000000005","10.46","10.42","7.862","1013.917","12.26","90.4","3.1","0.0"],
    [1503406,"2026-01-19 20:00:00","49903","7.556","9.16","10.45","8.72","1013.911","12.41","87.8","2.123","0.0"],
    [1503407,"2026-01-19 20:10:00","49904","7.693","16.32","9.87","15.71","1013.829","12.52","86.3","1.675","0.0"],
    [1503408,"2026-01-19 20:20:00","49905","7.641","16.71","9.28","33.91","1013.758","12.39","86.4","0.09","0.0"],
    [1503409,"2026-01-19 20:30:00","49906","8.26","9.5","11.04","12.97","1013.749","12.37","85.8","0.88","0.0"],
    [1503410,"2026-01-19 20:40:00","49907","8.73","11.72","11.79","19.35","1013.768","12.54","83.9","1.0170000000000001","0.0"],
    [1503411,"2026-01-19 20:50:00","49908","8.27","14.2","11.24","10.73","1013.682","12.62","83.0","0.611","0.0"],
    [1503412,"2026-01-19 21:00:00","49909","8.08","19.07","10.65","17.04","1013.608","12.64","83.0","0.127","0.0"],
    [1503413,"2026-01-19 21:10:00","49910","8.22","19.74","10.88","10.93","1013.661","12.53","83.6","0.008","0.0"],
    [1503414,"2026-01-19 21:20:00","49911","8.21","21.22","11.14","20.21","1013.735","12.55","82.9","0.0","0.0"],
    [1503415,"2026-01-19 21:30:00","49912","8.89","26.34","11.2","31.95","1013.799","12.61","83.0","0.0","0.0"],
    [1503416,"2026-01-19 21:40:00","49913","10.46","28.85","12.97","27.36","1013.743","12.56","83.9","0.0","0.0"],
    [1503417,"2026-01-19 21:50:00","49914","9.73","27.52","12.51","35.34","1013.763","12.4","85.7","0.006999999999999999","0.0"],
    [1503418,"2026-01-19 22:00:00","49915","9.1","22.56","11.83","20.65","1013.835","12.3","86.8","0.259","0.0"],
    [1503419,"2026-01-19 22:10:00","49916","7.207000000000001","19.83","10.98","33.28","1013.853","12.29","86.9","0.038","0.1"],
    [1503420,"2026-01-19 22:20:00","49917","8.09","20.44","10.58","28.03","1013.764","12.3","86.4","0.001","0.0"],
    [1503421,"2026-01-19 22:30:00","49918","8.64","22.84","10.58","20.54","1013.771","12.37","86.0","0.002","0.0"],
    [1503422,"2026-01-19 22:40:00","49919","8.93","24.85","12.48","23.15","1013.794","12.36","85.8","0.021","0.0"],
    [1503423,"2026-01-19 22:50:00","49920","8.9","25.7","11.47","31.67","1013.867","12.35","86.2","0.057","0.1"],
    [1503424,"2026-01-19 23:00:00","49921","8.4","25.17","11.5","30.51","1013.887","12.28","87.0","0.17600000000000002","0.2"],
    [1503425,"2026-01-19 23:10:00","49922","9.6","29.57","13.03","27.23","1013.741","12.15","88.2","0.11800000000000001","0.4"],
    [1503426,"2026-01-19 23:20:00","49923","8.12","25.49","11.66","28.89","1013.746","11.94","90.0","0.336","0.7"],
    [1503427,"2026-01-19 23:30:00","49924","7.086","16.43","9.28","29.0","1013.748","11.87","91.7","0.24","0.8"],
    [1503428,"2026-01-19 23:40:00","49925","7.058","8.94","9.34","6.662999999999999","1013.635","11.55","92.9","0.275","0.7"],
    [1503429,"2026-01-19 23:50:00","49926","6.422999999999999","5.567","8.04","5.349","1013.445","11.4","93.8","0.046","0.8"],
    [1503430,"2026-01-20 00:00:00","49927","7.265","6.812","9.6","5.561","1013.283","11.36","94.8","0.247","0.5"],
    [1503431,"2026-01-20 00:10:00","49928","7.433","12.67","9.24","7.685","1013.192","11.46","94.9","0.523","0.3"],
    [1503432,"2026-01-20 00:20:00","49929","7.894","13.09","10.75","7.004","1013.069","11.57","94.5","0.998","0.1"],
    [1503433,"2026-01-20 00:30:00","49930","8.49","8.06","11.99","12.94","1012.923","11.63","92.7","1.901","0.1"],
    [1503434,"2026-01-20 00:40:00","49931","8.62","9.6","11.34","6.522","1012.685","11.83","89.6","2.0669999999999997","0.1"],
    [1503435,"2026-01-20 00:50:00","49932","8.54","12.34","11.27","9.89","1012.678","11.97","85.9","2.149","0.0"],
    [1503436,"2026-01-20 01:00:00","49933","9.9","14.23","12.48","20.23","1012.607","11.99","84.2","2.016","0.1"],
    [1503437,"2026-01-20 01:10:00","49934","10.48","14.87","14.7","10.42","1012.496","11.87","82.8","1.919","0.1"],
    [1503438,"2026-01-20 01:20:00","49935","10.6","10.33","13.46","5.577000000000001","1012.444","11.77","82.9","1.703","0.2"],
    [1503439,"2026-01-20 01:30:00","49936","10.52","9.39","14.73","8.37","1012.422","11.62","82.7","2.47","0.1"],
    [1503440,"2026-01-20 01:40:00","49937","11.22","8.45","16.27","15.4","1012.49","11.69","80.6","2.8810000000000002","0.1"],
    [1503441,"2026-01-20 01:50:00","49938","9.76","10.18","13.3","6.781000000000001","1012.429","11.7","79.38","2.127","0.1"],
    [1503442,"2026-01-20 02:00:00","49939","9.56","10.23","12.67","12.65","1012.421","11.56","79.87","2.16","0.3"],
    [1503443,"2026-01-20 02:10:00","49940","10.0","6.502999999999999","13.26","15.71","1012.41","11.42","80.4","2.451","0.3"],
    [1503444,"2026-01-20 02:20:00","49941","11.46","9.88","15.16","8.29","1012.354","11.38","80.1","3.023","0.2"],
    [1503445,"2026-01-20 02:30:00","49942","12.74","10.68","17.54","7.1339999999999995","1012.25","11.59","76.5","2.9189999999999996","0.0"],
    [1503446,"2026-01-20 02:40:00","49943","12.35","10.03","16.59","10.49","1012.302","11.6","75.45","0.626","0.0"],
    [1503447,"2026-01-20 02:50:00","49944","11.58","10.51","17.41","11.07","1012.404","11.32","75.45","1.344","0.0"],
    [1503448,"2026-01-20 03:00:00","49945","12.02","10.7","14.57","8.58","1012.512","10.99","77.88","2.379","0.2"],
    [1503449,"2026-01-20 03:10:00","49946","13.05","11.78","17.57","7.131","1012.495","10.99","78.24","2.397","0.0"],
    [1503450,"2026-01-20 03:20:00","49947","12.0","11.75","16.73","16.0","1012.515","10.92","78.52","2.387","0.2"],
    [1503451,"2026-01-20 03:30:00","49948","9.74","8.17","14.31","5.5120000000000005","1012.525","10.84","77.81","2.124","0.0"],
    [1503452,"2026-01-20 03:40:00","49949","8.41","5.51","13.98","5.691","1012.476","10.74","77.95","1.6840000000000002","0.2"],
    [1503453,"2026-01-20 03:50:00","49950","8.2","6.684","13.13","2.967","1012.344","10.57","78.5","1.256","0.0"],
    [1503454,"2026-01-20 04:00:00","49951","8.52","5.71","12.05","10.81","1012.234","10.55","77.56","2.332","0.1"],
    [1503455,"2026-01-20 04:10:00","49952","8.29","4.416","12.58","8.4","1012.155","10.63","76.06","2.242","0.1"],
    [1503456,"2026-01-20 04:20:00","49953","9.38","6.727","13.36","17.28","1012.224","10.59","74.96","2.386","0.0"],
    [1503457,"2026-01-20 04:30:00","49954","8.99","5.736000000000001","13.88","10.44","1012.141","10.46","74.72","1.7109999999999999","0.1"],
    [1503458,"2026-01-20 04:40:00","49955","9.88","7.557","14.44","17.56","1011.948","10.45","73.74","2.461","0.1"],
    [1503459,"2026-01-20 04:50:00","49956","7.945","356.2","13.49","349.0","1011.88","10.49","73.97","2.353","0.0"],
    [1503460,"2026-01-20 05:00:00","49957","9.96","346.1","13.88","353.0","1011.762","10.36","74.94","1.105","0.0"],
    [1503461,"2026-01-20 05:10:00","49958","8.81","351.9","15.52","10.77","1011.619","10.5","73.81","0.217","0.0"],
    [1503462,"2026-01-20 05:20:00","49959","8.94","355.6","13.49","357.8","1011.493","10.55","72.7","0.006999999999999999","0.0"],
    [1503463,"2026-01-20 05:30:00","49960","9.38","351.4","14.5","344.4","1011.409","10.71","69.39","0.846","0.0"],
    [1503464,"2026-01-20 05:40:00","49961","7.8389999999999995","357.5","13.1","345.8","1011.449","10.71","68.74","1.045","0.0"],
    [1503465,"2026-01-20 05:50:00","49962","7.303","358.1","11.79","343.2","1011.519","10.6","69.63","0.547","0.0"],
    [1503466,"2026-01-20 06:00:00","49963","6.357","1.496","10.36","351.5","1011.564","10.46","71.19","0.03","0.0"],
    [1503467,"2026-01-20 06:10:00","49964","6.834","0.293","11.53","345.8","1011.599","10.42","71.53","0.27399999999999997","0.0"],
    [1503468,"2026-01-20 06:20:00","49965","6.527","4.4719999999999995","9.21","357.3","1011.698","10.49","71.56","0.0","0.0"],
    [1503469,"2026-01-20 06:30:00","49966","7.095","6.15","11.01","16.37","1011.753","10.42","72.32","0.0","0.0"],
    [1503470,"2026-01-20 06:40:00","49967","8.54","7.465","11.89","9.11","1011.835","10.6","72.87","0.0","0.0"],
    [1503471,"2026-01-20 06:50:00","49968","7.422000000000001","5.877000000000001","11.76","5.707000000000001","1011.859","10.85","72.62","0.0","0.0"],
    [1503472,"2026-01-20 07:00:00","49969","7.599","5.888999999999999","9.93","9.24","1011.859","11.02","71.84","0.0","0.0"],
    [1503473,"2026-01-20 07:10:00","49970","8.21","8.48","12.18","15.15","1011.831","11.08","71.67","0.002","0.0"],
    [1503474,"2026-01-20 07:20:00","49971","8.18","8.09","11.56","8.8","1011.85","11.11","71.68","0.0","0.0"],
    [1503475,"2026-01-20 07:30:00","49972","7.31","5.349","9.38","2.87","1011.971","10.57","73.96","1.296","0.1"],
    [1503476,"2026-01-20 07:40:00","49973","5.716","0.807","8.72","15.6","1012.06","10.47","75.76","4.294","0.1"],
    [1503477,"2026-01-20 07:50:00","49974","5.711","359.2","8.0","7.815","1012.144","10.46","76.34","5.735","0.0"],
    [1503478,"2026-01-20 08:00:00","49975","6.555","3.815","10.91","8.74","1012.268","10.75","74.64","6.459","0.1"],
    [1503479,"2026-01-20 08:10:00","49976","7.952999999999999","9.02","12.15","12.52","1012.442","11.0","72.56","10.45","0.1"],
    [1503480,"2026-01-20 08:20:00","49977","7.992999999999999","6.558","11.66","2.821","1012.571","10.84","72.65","12.68","0.1"],
    [1503481,"2026-01-20 08:30:00","49978","7.3260000000000005","3.971","13.72","16.49","1012.53","10.89","72.67","18.06","0.0"],
    [1503482,"2026-01-20 08:40:00","49979","7.102","2.847","11.4","10.73","1012.486","11.12","70.58","14.79","0.1"],
    [1503483,"2026-01-20 08:50:00","49980","6.111000000000001","357.8","9.6","348.8","1012.579","10.54","73.59","16.53","0.1"],
    [1503484,"2026-01-20 09:00:00","49981","5.675","3.659","8.4","8.24","1012.65","10.41","75.75","18.07","0.1"],
    [1503485,"2026-01-20 09:10:00","49982","5.597","0.23800000000000002","7.382999999999999","4.592","1012.702","10.29","77.3","25.86","0.1"],
    [1503486,"2026-01-20 09:20:00","49983","5.432","356.0","7.6770000000000005","13.52","1012.805","10.04","78.95","24.66","0.2"],
    [1503487,"2026-01-20 09:30:00","49984","4.981","359.0","7.579","348.3","1012.857","9.96","80.3","31.42","0.1"],
    [1503488,"2026-01-20 09:40:00","49985","5.075","357.6","7.611000000000001","350.0","1012.923","9.94","81.5","28.37","0.2"],
    [1503489,"2026-01-20 09:50:00","49986","4.999","359.6","7.218999999999999","352.4","1012.985","9.97","82.0","40.05","0.1"],
    [1503490,"2026-01-20 10:00:00","49987","4.746","359.3","7.775","10.15","1013.026","10.02","82.4","34.22","0.1"],
    [1503491,"2026-01-20 10:10:00","49988","5.1579999999999995","0.19699999999999998","7.154","17.22","1013.012","10.14","82.5","45.61","0.1"],
    [1503492,"2026-01-20 10:20:00","49989","5.485","355.4","7.4479999999999995","343.9","1012.972","10.15","82.7","47.1","0.2"],
    [1503493,"2026-01-20 10:30:00","49990","5.6770000000000005","360.0","8.75","343.4","1012.89","10.19","83.4","39.7","0.4"],
    [1503494,"2026-01-20 10:40:00","49991","6.382000000000001","355.8","9.7","346.8","1012.776","10.26","85.0","48.99","0.4"],
    [1503495,"2026-01-20 10:50:00","49992","7.019","355.2","10.75","347.1","1012.648","10.45","84.8","54.48","0.2"],
    [1503496,"2026-01-20 11:00:00","49993","5.666","357.8","8.92","345.8","1012.531","10.6","83.7","59.89","0.1"],
    [1503497,"2026-01-20 11:10:00","49994","5.915","358.9","8.23","357.2","1012.479","10.59","82.1","57.16","0.3"],
    [1503498,"2026-01-20 11:20:00","49995","5.211","355.3","8.26","349.8","1012.381","10.4","82.1","49.97","0.3"],
    [1503499,"2026-01-20 11:30:00","49996","6.666","355.5","10.22","341.7","1012.237","10.43","83.6","37.6","0.4"],
    [1503500,"2026-01-20 11:40:00","49997","5.943","357.9","11.43","355.8","1012.114","10.74","83.0","52.02","0.0"],
    [1503501,"2026-01-20 11:50:00","49998","6.747999999999999","2.379","10.06","10.58","1012.119","10.74","83.4","42.2","0.3"],
    [1503502,"2026-01-20 12:00:00","49999","6.86","2.145","9.02","350.5","1012.039","10.63","84.0","34.96","0.0"],
    [1503503,"2026-01-20 12:10:00","50000","6.41","3.997","9.8","16.63","1011.9","10.68","84.3","28.88","0.1"],
    [1503504,"2026-01-20 12:20:00","50001","5.995","1.0490000000000002","8.66","6.792999999999999","1011.835","10.69","84.6","22.15","0.0"],
    [1503505,"2026-01-20 12:30:00","50002","5.226","360.0","8.36","19.0","1011.786","10.55","86.1","18.07","0.1"],
    [1503506,"2026-01-20 12:40:00","50003","4.945","359.0","6.599","6.751","1011.782","10.48","88.4","14.25","0.1"],
    [1503507,"2026-01-20 12:50:00","50004","5.461","354.2","7.611000000000001","343.7","1011.713","10.5","89.7","14.21","0.0"],
    [1503508,"2026-01-20 13:00:00","50005","4.928999999999999","357.7","7.35","333.9","1011.629","10.54","89.8","14.72","0.0"],
    [1503509,"2026-01-20 13:10:00","50006","4.828","357.5","7.611000000000001","360.0","1011.511","10.65","89.6","15.0","0.0"],
    [1503510,"2026-01-20 13:20:00","50007","4.672","0.5760000000000001","7.252000000000001","358.2","1011.486","10.8","89.3","15.06","0.0"],
    [1503511,"2026-01-20 13:30:00","50008","5.441","6.9479999999999995","9.57","11.05","1011.477","11.08","88.6","15.56","0.0"],
    [1503512,"2026-01-20 13:40:00","50009","6.261","10.68","10.42","32.78","1011.356","11.36","86.8","17.26","0.0"],
    [1503513,"2026-01-20 13:50:00","50010","7.434","17.1","10.91","33.58","1011.319","11.83","85.6","17.17","0.0"],
    [1503514,"2026-01-20 14:00:00","50011","9.47","24.54","13.07","30.34","1011.23","12.11","84.5","18.41","0.0"],
    [1503515,"2026-01-20 14:10:00","50012","9.83","24.74","12.67","18.77","1011.267","12.32","83.5","17.23","0.0"],
    [1503516,"2026-01-20 14:20:00","50013","10.29","27.81","14.24","23.39","1011.22","12.4","82.9","15.15","0.0"],
    [1503517,"2026-01-20 14:30:00","50014","11.12","31.5","14.63","25.49","1011.169","12.52","83.0","13.0","0.1"],
    [1503518,"2026-01-20 14:40:00","50015","11.2","33.16","14.63","35.99","1011.254","12.56","83.1","11.25","0.0"],
    [1503519,"2026-01-20 14:50:00","50016","10.4","33.13","14.18","29.76","1011.374","12.65","82.9","10.17","0.0"],
    [1503520,"2026-01-20 15:00:00","50017","10.61","30.91","13.72","30.62","1011.416","12.58","82.1","11.78","0.0"],
    [1503521,"2026-01-20 15:10:00","50018","11.15","30.04","15.16","27.3","1011.436","12.54","82.1","14.0","0.0"],
    [1503522,"2026-01-20 15:20:00","50019","11.31","29.11","14.05","30.46","1011.555","12.43","83.2","11.39","0.0"],
    [1503523,"2026-01-20 15:30:00","50020","11.06","28.77","13.3","30.72","1011.597","12.38","84.7","9.5","0.0"],
    [1503524,"2026-01-20 15:40:00","50021","10.22","27.14","12.97","28.98","1011.754","12.36","85.2","7.9","0.0"],
    [1503525,"2026-01-20 15:50:00","50022","10.76","30.67","13.88","27.31","1011.738","12.29","85.6","6.42","0.0"],
    [1503526,"2026-01-20 16:00:00","50023","10.41","30.01","13.69","30.88","1011.813","12.31","86.3","4.706","0.0"],
    [1503527,"2026-01-20 16:10:00","50024","10.75","30.29","13.82","30.91","1011.877","12.24","87.1","3.2739999999999996","0.0"],
    [1503528,"2026-01-20 16:20:00","50025","9.86","29.04","12.97","33.38","1011.971","12.24","88.1","1.176","0.0"],
    [1503529,"2026-01-20 16:30:00","50026","10.28","29.79","13.23","32.78","1012.006","12.29","87.8","1.433","0.0"],
    [1503530,"2026-01-20 16:40:00","50027","10.44","29.3","13.33","24.78","1012.045","12.23","87.5","0.516","0.0"],
    [1503531,"2026-01-20 16:50:00","50028","10.58","28.96","12.84","31.42","1012.086","12.13","88.3","0.019","0.0"],
    [1503532,"2026-01-20 17:00:00","50029","9.84","29.96","11.92","30.56","1012.108","12.2","88.3","0.0","0.0"],
    [1503533,"2026-01-20 17:10:00","50030","9.37","27.7","12.71","24.85","1012.257","12.31","88.5","0.0","0.0"],
    [1503534,"2026-01-20 17:20:00","50031","9.46","28.15","13.36","26.16","1012.328","12.43","87.7","0.0","0.0"],
    [1503535,"2026-01-20 17:30:00","50032","9.44","29.29","12.61","38.5","1012.383","12.54","87.1","0.0","0.0"],
    [1503536,"2026-01-20 17:40:00","50033","9.05","27.75","11.73","29.71","1012.491","12.6","86.5","0.0","0.0"],
    [1503537,"2026-01-20 17:50:00","50034","9.28","28.09","12.58","32.47","1012.545","12.68","85.5","0.0","0.0"],
    [1503538,"2026-01-20 18:00:00","50035","10.09","29.76","12.48","28.82","1012.558","12.82","84.3","0.0","0.0"],
    [1503539,"2026-01-20 18:10:00","50036","9.56","29.21","12.22","32.35","1012.654","12.85","83.9","0.0","0.0"],
    [1503540,"2026-01-20 18:20:00","50037","9.62","31.32","12.61","28.67","1012.627","12.86","83.6","0.0","0.0"],
    [1503541,"2026-01-20 18:30:00","50038","8.87","31.62","11.6","29.4","1012.677","12.89","84.0","0.0","0.0"],
    [1503542,"2026-01-20 18:40:00","50039","9.26","33.31","11.37","41.67","1012.634","12.87","84.2","0.0","0.0"],
    [1503543,"2026-01-20 18:50:00","50040","9.29","33.34","11.69","29.69","1012.621","12.87","84.6","0.0","0.0"],
    [1503544,"2026-01-20 19:00:00","50041","9.13","33.84","12.28","39.21","1012.641","12.85","84.3","0.0","0.0"],
    [1503545,"2026-01-20 19:10:00","50042","8.73","33.21","11.5","34.07","1012.693","12.84","84.9","0.0","0.0"],
    [1503546,"2026-01-20 19:20:00","50043","8.71","27.59","10.94","36.5","1012.697","12.77","84.8","0.0","0.0"],
    [1503547,"2026-01-20 19:30:00","50044","8.61","30.25","11.53","26.68","1012.603","12.74","84.5","0.0","0.0"],
    [1503548,"2026-01-20 19:40:00","50045","8.44","30.85","11.37","30.29","1012.642","12.77","84.8","0.003","0.0"],
    [1503549,"2026-01-20 19:50:00","50046","9.06","31.22","11.4","36.55","1012.617","12.73","85.0","0.0","0.0"],
    [1503550,"2026-01-20 20:00:00","50047","9.03","34.39","12.18","40.13","1012.5","12.82","85.1","0.0","0.0"],
    [1503551,"2026-01-20 20:10:00","50048","9.2","32.65","11.89","29.84","1012.561","12.77","84.6","0.0","0.0"],
    [1503552,"2026-01-20 20:20:00","50049","8.55","32.67","11.04","39.81","1012.606","12.81","84.5","0.0","0.0"],
    [1503553,"2026-01-20 20:30:00","50050","8.26","32.14","10.19","36.64","1012.681","12.84","84.7","0.0","0.0"],
    [1503554,"2026-01-20 20:40:00","50051","7.647","32.92","10.26","31.9","1012.773","12.91","84.9","0.0","0.0"],
    [1503555,"2026-01-20 20:50:00","50052","7.928999999999999","34.08","10.36","34.44","1012.791","12.99","84.9","0.0","0.0"],
    [1503556,"2026-01-20 21:00:00","50053","7.763","33.95","9.77","37.6","1012.801","12.99","84.6","0.0","0.0"],
    [1503557,"2026-01-20 21:10:00","50054","7.079","30.15","8.66","25.57","1012.871","12.96","84.2","0.0","0.0"],
    [1503558,"2026-01-20 21:20:00","50055","6.614","36.22","8.98","40.55","1012.847","13.02","84.2","0.0","0.0"],
    [1503559,"2026-01-20 21:30:00","50056","6.8870000000000005","36.62","9.02","45.27","1012.873","12.99","84.6","0.0","0.0"],
    [1503560,"2026-01-20 21:40:00","50057","6.2010000000000005","32.23","7.6770000000000005","35.1","1012.923","13.02","84.1","0.0","0.0"],
    [1503561,"2026-01-20 21:50:00","50058","6.43","26.94","8.66","28.59","1013","13.01","83.6","0.0","0.0"],
    [1503562,"2026-01-20 22:00:00","50059","6.678","28.87","8.43","30.92","1013.051","13.03","83.2","0.0","0.0"],
    [1503563,"2026-01-20 22:10:00","50060","6.697","31.07","8.82","28.56","1013.109","13.07","83.2","0.0","0.0"],
    [1503564,"2026-01-20 22:20:00","50061","6.751","31.41","8.92","30.52","1013.174","13.1","83.0","0.0","0.0"],
    [1503565,"2026-01-20 22:30:00","50062","6.871","25.83","8.66","22.25","1013.193","13.08","82.6","0.0","0.0"],
    [1503566,"2026-01-20 22:40:00","50063","6.032","24.91","8.1","14.31","1013.254","13.08","82.4","0.0","0.0"],
    [1503567,"2026-01-20 22:50:00","50064","5.676","14.19","7.317","16.21","1013.314","13.01","82.2","0.0","0.0"],
    [1503568,"2026-01-20 23:00:00","50065","5.124","14.22","6.5329999999999995","13.42","1013.294","13.01","82.3","0.0","0.0"],
    [1503569,"2026-01-20 23:10:00","50066","4.758","17.14","6.239","27.36","1013.246","12.97","82.1","0.0","0.0"],
    [1503570,"2026-01-20 23:20:00","50067","4.566","8.36","6.042999999999999","8.85","1013.121","12.93","81.6","0.0","0.0"],
    [1503571,"2026-01-20 23:30:00","50068","4.163","6.2170000000000005","6.0760000000000005","17.63","1013.015","12.91","81.3","0.0","0.0"],
    [1503572,"2026-01-20 23:40:00","50069","3.5210000000000004","1.641","5.455","7.843999999999999","1013.023","12.81","81.4","0.0","0.0"],
    [1503573,"2026-01-20 23:50:00","50070","3.213","5.23","4.541","9.38","1013.004","12.87","81.3","0.0","0.0"],
    [1503574,"2026-01-21 00:00:00","50071","3.4130000000000003","4.5760000000000005","5.096","7.601","1013.049","12.81","81.5","0.0","0.0"],
    [1503575,"2026-01-21 00:10:00","50072","3.3089999999999997","4.538","4.737","17.05","1012.986","12.85","81.3","0.0","0.0"],
    [1503576,"2026-01-21 00:20:00","50073","3.608","6.718","4.671","16.26","1012.92","12.91","80.4","0.0","0.0"],
    [1503577,"2026-01-21 00:30:00","50074","3.8089999999999997","6.2170000000000005","5.422999999999999","1.88","1012.875","12.95","80.4","0.0","0.0"],
    [1503578,"2026-01-21 00:40:00","50075","3.255","357.4","4.638999999999999","9.94","1012.876","12.83","80.6","0.0","0.0"],
    [1503579,"2026-01-21 00:50:00","50076","2.807","358.6","5.2589999999999995","3.193","1012.868","12.72","81.0","0.0","0.0"],
    [1503580,"2026-01-21 01:00:00","50077","2.895","348.9","4.181","347.9","1012.77","12.58","81.7","0.0","0.0"],
    [1503581,"2026-01-21 01:10:00","50078","2.8930000000000002","348.2","4.312","338.8","1012.713","12.52","82.3","0.0","0.0"],
    [1503582,"2026-01-21 01:20:00","50079","2.909","355.0","3.855","4.322","1012.744","12.49","82.5","0.0","0.0"],
    [1503583,"2026-01-21 01:30:00","50080","2.028","3.375","3.136","2.752","1012.761","12.5","82.7","0.0","0.0"],
    [1503584,"2026-01-21 01:40:00","50081","2.099","6.102","2.94","18.93","1012.676","12.52","82.6","0.0","0.0"],
    [1503585,"2026-01-21 01:50:00","50082","2.7319999999999998","7.159","3.528","5.559","1012.557","12.54","82.3","0.0","0.0"],
    [1503586,"2026-01-21 02:00:00","50083","3.0410000000000004","7.638999999999999","4.41","12.51","1012.52","12.63","82.3","0.0","0.0"],
    [1503587,"2026-01-21 02:10:00","50084","3.0060000000000002","8.9","4.377","6.11","1012.489","12.68","82.1","0.0","0.0"],
    [1503588,"2026-01-21 02:20:00","50085","2.718","1.445","3.887","15.77","1012.461","12.68","81.4","0.0","0.0"],
    [1503589,"2026-01-21 02:30:00","50086","1.985","352.9","2.7439999999999998","359.7","1012.381","12.61","81.1","0.0","0.0"],
    [1503590,"2026-01-21 02:40:00","50087","1.4569999999999999","355.1","2.254","27.78","1012.331","12.69","80.8","0.0","0.0"],
    [1503591,"2026-01-21 02:50:00","50088","1.87","349.0","2.613","341.8","1012.271","12.71","79.92","0.0","0.0"],
    [1503592,"2026-01-21 03:00:00","50089","1.985","350.5","2.6460000000000004","350.6","1012.2","12.76","79.2","0.0","0.0"],
    [1503593,"2026-01-21 03:10:00","50090","1.95","1.548","2.5810000000000004","352.7","1012.04","12.8","78.45","0.0","0.0"],
    [1503594,"2026-01-21 03:20:00","50091","1.661","359.6","2.0580000000000003","3.193","1011.944","12.83","78.26","0.0","0.0"],
    [1503595,"2026-01-21 03:30:00","50092","1.5659999999999998","3.0410000000000004","2.45","20.08","1011.784","12.84","78.03","0.0","0.0"],
    [1503596,"2026-01-21 03:40:00","50093","2.417","23.5","2.8089999999999997","24.36","1011.599","12.83","78.59","0.0","0.0"],
    [1503597,"2026-01-21 03:50:00","50094","1.97","21.25","3.299","351.4","1011.336","12.75","79.38","0.0","0.0"],
    [1503598,"2026-01-21 04:00:00","50095","2.2230000000000003","13.92","2.7769999999999997","12.43","1011.191","12.78","80.2","0.0","0.0"],
    [1503599,"2026-01-21 04:10:00","50096","1.52","354.9","2.45","15.67","1011.117","12.66","81.2","0.0","0.0"],
    [1503600,"2026-01-21 04:20:00","50097","1.265","346.5","1.699","355.3","1011.106","12.48","81.4","0.0","0.0"],
    [1503601,"2026-01-21 04:30:00","50098","1.361","340.7","1.96","337.8","1011.068","12.5","81.2","0.0","0.0"],
    [1503602,"2026-01-21 04:40:00","50099","0.905","298.6","1.8619999999999999","344.6","1011.072","12.44","81.0","0.0","0.0"],
    [1503603,"2026-01-21 04:50:00","50100","1.115","282.5","1.764","271.8","1011.016","12.35","81.1","0.0","0.0"],
    [1503604,"2026-01-21 05:00:00","50101","1.235","293.2","1.568","278.6","1010.969","12.38","80.9","0.0","0.0"],
    [1503605,"2026-01-21 05:10:00","50102","0.88","281.5","1.633","273.2","1010.976","12.32","81.8","0.0","0.0"],
    [1503606,"2026-01-21 05:20:00","50103","0.769","295.1","1.111","290.6","1010.974","12.33","82.0","0.0","0.0"],
    [1503607,"2026-01-21 05:30:00","50104","1.524","273.1","2.123","271.9","1010.905","12.21","82.8","0.0","0.0"],
    [1503608,"2026-01-21 05:40:00","50105","1.86","272.6","2.156","273.7","1010.903","11.95","85.5","0.0","0.0"],
    [1503609,"2026-01-21 05:50:00","50106","1.73","259.8","2.025","256.7","1010.805","11.87","87.1","0.0","0.0"],
    [1503610,"2026-01-21 06:00:00","50107","2.35","264.3","3.0380000000000003","266.6","1010.759","11.7","88.0","0.0","0.0"],
    [1503611,"2026-01-21 06:10:00","50108","1.765","272.5","2.352","285.9","1010.8","11.6","89.4","0.0","0.0"],
    [1503612,"2026-01-21 06:20:00","50109","1.579","258.8","2.352","268.4","1010.804","11.66","89.8","0.0","0.0"],
    [1503613,"2026-01-21 06:30:00","50110","1.56","266.1","1.9269999999999998","263.2","1010.822","11.59","90.3","0.0","0.0"],
    [1503614,"2026-01-21 06:40:00","50111","1.472","262.9","1.993","265.1","1010.785","11.52","90.5","0.0","0.0"],
    [1503615,"2026-01-21 06:50:00","50112","1.4469999999999998","263.4","1.829","265.0","1010.697","11.45","90.8","0.0","0.0"],
    [1503616,"2026-01-21 07:00:00","50113","1.757","270.1","2.123","263.3","1010.651","11.48","91.0","0.0","0.0"],
    [1503617,"2026-01-21 07:10:00","50114","1.8630000000000002","267.9","2.221","266.5","1010.57","11.57","90.8","0.33399999999999996","0.0"],
    [1503618,"2026-01-21 07:20:00","50115","1.621","276.7","1.993","291.5","1010.46","11.61","90.6","1.8980000000000001","0.0"],
    [1503619,"2026-01-21 07:30:00","50116","1.829","265.5","2.123","268.5","1010.399","11.7","90.0","4.205","0.0"],
    [1503620,"2026-01-21 07:40:00","50117","1.724","259.6","2.189","268.7","1010.38","11.64","89.8","7.466","0.0"],
    [1503621,"2026-01-21 07:50:00","50118","1.327","265.9","2.025","262.2","1010.332","11.65","89.5","12.07","0.0"],
    [1503622,"2026-01-21 08:00:00","50119","1.182","271.6","1.568","265.7","1010.223","11.68","89.2","23.5","0.0"],
    [1503623,"2026-01-21 08:10:00","50120","1.669","267.4","2.189","269.1","1010.151","11.7","88.6","38.84","0.0"],
    [1503624,"2026-01-21 08:20:00","50121","1.4880000000000002","254.9","2.385","261.0","1010.084","11.77","88.2","49.05","0.0"],
    [1503625,"2026-01-21 08:30:00","50122","1.085","255.3","1.666","265.4","1010.082","11.85","87.7","90.4","0.0"],
    [1503626,"2026-01-21 08:40:00","50123","1.473","278.7","2.7769999999999997","286.2","1009.996","12.01","86.9","199.8","0.0"],
    [1503627,"2026-01-21 08:50:00","50124","2.113","288.1","3.397","288.4","1009.873","12.3","83.9","189.7","0.0"],
    [1503628,"2026-01-21 09:00:00","50125","1.7530000000000001","292.5","2.417","270.9","1009.715","12.55","80.9","226.9","0.0"],
    [1503629,"2026-01-21 09:10:00","50126","1.72","279.4","2.7439999999999998","283.7","1009.659","12.79","78.66","253.5","0.0"],
    [1503630,"2026-01-21 09:20:00","50127","2.798","284.8","3.985","281.4","1009.611","12.75","77.66","259.3","0.0"],
    [1503631,"2026-01-21 09:30:00","50128","2.465","282.2","3.234","289.4","1009.612","12.87","76.99","162.1","0.0"],
    [1503632,"2026-01-21 09:40:00","50129","2.136","273.3","3.6260000000000003","253.1","1009.622","12.88","76.96","140.6","0.0"],
    [1503633,"2026-01-21 09:50:00","50130","2.465","281.4","3.495","288.6","1009.605","12.87","76.97","150.0","0.0"],
    [1503634,"2026-01-21 10:00:00","50131","2.3819999999999997","282.2","3.6910000000000003","262.7","1009.58","12.84","76.95","129.1","0.0"],
    [1503635,"2026-01-21 10:10:00","50132","2.399","269.1","3.5610000000000004","265.5","1009.481","12.89","77.99","134.4","0.0"],
    [1503636,"2026-01-21 10:20:00","50133","1.419","249.6","2.907","216.7","1009.365","12.97","79.43","142.4","0.0"],
    [1503637,"2026-01-21 10:30:00","50134","2.237","196.3","3.6260000000000003","192.0","1009.167","12.93","79.8","153.5","0.0"],
    [1503638,"2026-01-21 10:40:00","50135","2.9019999999999997","189.2","3.9530000000000003","187.4","1008.987","13.05","80.0","406.3","0.0"],
    [1503639,"2026-01-21 10:50:00","50136","2.8569999999999998","184.2","3.985","185.2","1008.806","13.2","80.5","495.5","0.0"],
    [1503640,"2026-01-21 11:00:00","50137","1.771","202.1","3.528","183.1","1008.562","13.42","81.2","498.2","0.0"],
    [1503641,"2026-01-21 11:10:00","50138","2.7260000000000004","199.3","4.051","197.4","1008.368","13.5","80.8","259.8","0.0"],
    [1503642,"2026-01-21 11:20:00","50139","2.589","216.2","5.815","193.8","1008.196","13.78","80.8","350.0","0.0"],
    [1503643,"2026-01-21 11:30:00","50140","2.5540000000000003","219.8","4.965","205.5","1007.994","13.86","79.63","326.7","0.0"],
    [1503644,"2026-01-21 11:40:00","50141","3.1839999999999997","247.1","6.011","262.7","1007.748","13.78","79.07","303.8","0.0"],
    [1503645,"2026-01-21 11:50:00","50142","3.58","233.3","6.501","213.2","1007.565","13.81","79.38","221.8","0.0"],
    [1503646,"2026-01-21 12:00:00","50143","3.07","212.4","6.795","195.8","1007.407","13.75","79.63","195.7","0.0"],
    [1503647,"2026-01-21 12:10:00","50144","4.458","202.1","7.317","192.2","1007.155","13.45","80.2","229.6","0.0"],
    [1503648,"2026-01-21 12:20:00","50145","3.19","209.1","5.553","199.5","1006.936","13.57","80.9","222.2","0.0"],
    [1503649,"2026-01-21 12:30:00","50146","3.766","224.5","7.285","213.8","1006.72","13.62","80.5","177.5","0.0"],
    [1503650,"2026-01-21 12:40:00","50147","3.878","229.2","6.893","225.2","1006.427","13.71","81.2","158.4","0.0"],
    [1503651,"2026-01-21 12:50:00","50148","3.1689999999999996","233.1","6.5329999999999995","207.8","1006.133","13.68","82.0","179.9","0.0"],
    [1503652,"2026-01-21 13:00:00","50149","3.135","233.6","6.468","204.4","1005.759","13.72","81.9","371.0","0.0"],
    [1503653,"2026-01-21 13:10:00","50150","3.9560000000000004","217.1","7.317","209.2","1005.442","13.85","80.7","478.5","0.0"],
    [1503654,"2026-01-21 13:20:00","50151","3.818","235.3","8.62","217.5","1005.224","14.07","80.5","440.3","0.0"],
    [1503655,"2026-01-21 13:30:00","50152","4.118","226.8","8.46","223.5","1005.089","14.27","79.29","447.3","0.0"],
    [1503656,"2026-01-21 13:40:00","50153","4.355","219.9","7.187","215.3","1004.84","14.21","79.44","499.1","0.0"],
    [1503657,"2026-01-21 13:50:00","50154","6.017","217.6","9.02","221.6","1004.729","14.06","78.82","515.4","0.0"],
    [1503658,"2026-01-21 14:00:00","50155","6.362","218.0","9.08","229.2","1004.474","13.95","78.29","455.3","0.0"],
    [1503659,"2026-01-21 14:10:00","50156","4.498","231.2","8.1","214.7","1004.371","14.05","78.61","361.7","0.0"],
    [1503660,"2026-01-21 14:20:00","50157","3.866","235.4","7.415","208.7","1004.366","14.02","79.15","222.5","0.0"],
    [1503661,"2026-01-21 14:30:00","50158","3.968","239.4","8.36","199.8","1004.133","14.22","78.96","359.5","0.0"],
    [1503662,"2026-01-21 14:40:00","50159","3.571","235.1","6.109","209.8","1003.939","14.22","77.52","327.4","0.0"],
    [1503663,"2026-01-21 14:50:00","50160","3.63","234.3","6.042999999999999","217.5","1003.803","14.27","77.72","279.4","0.0"],
    [1503664,"2026-01-21 15:00:00","50161","3.347","230.9","6.272","242.4","1003.783","14.23","77.72","146.2","0.0"],
    [1503665,"2026-01-21 15:10:00","50162","4.976","216.1","8.89","219.5","1003.559","13.98","78.04","137.0","0.0"],
    [1503666,"2026-01-21 15:20:00","50163","4.309","213.3","7.872999999999999","213.4","1003.37","13.74","77.33","122.1","0.0"],
    [1503667,"2026-01-21 15:30:00","50164","5.265","219.3","8.53","235.1","1003.087","13.61","75.88","122.4","0.0"],
    [1503668,"2026-01-21 15:40:00","50165","3.992","209.3","7.0889999999999995","214.5","1002.875","13.45","76.87","117.0","0.0"],
    [1503669,"2026-01-21 15:50:00","50166","3.681","211.3","6.7620000000000005","199.0","1002.655","13.4","78.26","98.5","0.0"],
    [1503670,"2026-01-21 16:00:00","50167","3.676","209.8","6.435","209.8","1002.541","13.31","79.72","60.19","0.0"],
    [1503671,"2026-01-21 16:10:00","50168","3.846","218.2","7.644","208.9","1002.457","13.4","81.2","46.63","0.0"],
    [1503672,"2026-01-21 16:20:00","50169","4.006","222.3","7.121","219.5","1002.349","13.26","82.7","33.28","0.0"],
    [1503673,"2026-01-21 16:30:00","50170","2.971","246.8","5.357","258.1","1002.317","13.11","83.5","18.26","0.0"],
    [1503674,"2026-01-21 16:40:00","50171","2.595","234.4","5.129","239.9","1002.233","13.05","84.4","9.45","0.0"],
    [1503675,"2026-01-21 16:50:00","50172","2.333","216.9","4.083","235.9","1002.042","12.93","85.1","3.4930000000000003","0.0"],
    [1503676,"2026-01-21 17:00:00","50173","2.109","239.4","4.083","213.7","1001.841","12.79","85.5","0.35700000000000004","0.0"],
    [1503677,"2026-01-21 17:10:00","50174","2.031","228.0","4.41","205.4","1001.733","12.8","86.4","0.0","0.0"],
    [1503678,"2026-01-21 17:20:00","50175","2.7710000000000004","255.8","5.455","266.8","1001.57","12.73","87.4","0.0","0.0"],
    [1503679,"2026-01-21 17:30:00","50176","1.875","239.9","4.083","263.6","1001.43","12.75","88.5","0.0","0.0"],
    [1503680,"2026-01-21 17:40:00","50177","2.229","226.5","4.638999999999999","236.3","1001.252","13.03","89.6","0.0","0.0"],
    [1503681,"2026-01-21 17:50:00","50178","2.5069999999999997","252.2","5.227","245.5","1001.1","13.06","90.3","0.0","0.0"],
    [1503682,"2026-01-21 18:00:00","50179","3.1189999999999998","253.0","5.1610000000000005","253.8","1000.98","12.94","91.0","0.0","0.0"],
    [1503683,"2026-01-21 18:10:00","50180","3.1710000000000003","247.9","6.501","254.0","1000.834","13.07","91.9","0.0","0.0"],
    [1503684,"2026-01-21 18:20:00","50181","2.5140000000000002","242.9","4.377","236.9","1000.685","13.05","92.3","0.0","0.0"],
    [1503685,"2026-01-21 18:30:00","50182","3.74","199.5","5.357","211.4","1000.472","13.0","92.3","0.0","0.0"],
    [1503686,"2026-01-21 18:40:00","50183","4.322","202.7","6.957999999999999","196.8","1000.344","13.06","91.9","0.0","0.0"],
    [1503687,"2026-01-21 18:50:00","50184","4.0","207.7","7.382999999999999","196.0","1000.295","13.21","90.4","0.0","0.0"],
    [1503688,"2026-01-21 19:00:00","50185","4.046","212.0","7.382999999999999","234.7","1000.198","13.33","89.0","0.0","0.0"],
    [1503689,"2026-01-21 19:10:00","50186","4.788","209.8","7.709","209.3","1000.111","13.27","86.7","0.0","0.0"],
    [1503690,"2026-01-21 19:20:00","50187","4.471","219.4","8.85","230.3","999.9445","13.5","84.0","0.0","0.0"],
    [1503691,"2026-01-21 19:30:00","50188","4.3069999999999995","208.1","7.0889999999999995","223.4","999.769","13.36","82.0","0.0","0.0"],
    [1503692,"2026-01-21 19:40:00","50189","4.407","215.8","7.218999999999999","218.3","999.5336","13.5","81.1","0.0","0.0"],
    [1503693,"2026-01-21 19:50:00","50190","3.425","246.1","5.4879999999999995","267.7","999.3936","13.24","81.5","0.0","0.1"],
    [1503694,"2026-01-21 20:00:00","50191","3.705","251.5","7.218999999999999","263.0","999.2282","12.91","83.3","0.0","0.1"],
    [1503695,"2026-01-21 20:10:00","50192","3.11","251.2","5.749","257.4","999.1545","12.71","85.6","0.324","0.1"],
    [1503696,"2026-01-21 20:20:00","50193","3.045","250.9","5.422999999999999","270.9","999.1042","12.61","87.3","0.39399999999999996","0.0"],
    [1503697,"2026-01-21 20:30:00","50194","2.6860000000000004","258.1","5.2589999999999995","270.9","998.9892","12.54","89.1","0.475","0.0"],
    [1503698,"2026-01-21 20:40:00","50195","3.174","249.2","5.194","255.9","998.8849","12.49","90.4","1.13","0.0"],
    [1503699,"2026-01-21 20:50:00","50196","3.642","247.3","6.697","244.9","998.805","12.4","91.1","1.715","0.0"],
    [1503700,"2026-01-21 21:00:00","50197","4.183","244.3","7.023","231.6","998.6406","12.31","90.9","1.893","0.0"],
    [1503701,"2026-01-21 21:10:00","50198","3.69","247.0","7.513","265.9","998.4877","12.26","90.3","1.392","0.0"],
    [1503702,"2026-01-21 21:20:00","50199","3.613","247.2","6.631","233.7","998.3516","12.15","89.9","1.024","0.0"],
    [1503703,"2026-01-21 21:30:00","50200","3.4730000000000003","245.0","5.619","261.2","998.2285","12.14","90.0","0.878","0.0"],
    [1503704,"2026-01-21 21:40:00","50201","3.603","246.3","7.415","267.2","998.0649","12.23","91.1","0.22699999999999998","0.0"],
    [1503705,"2026-01-21 21:50:00","50202","3.333","250.2","5.357","255.6","997.9357","12.3","92.7","0.001","0.0"],
    [1503706,"2026-01-21 22:00:00","50203","2.99","245.4","5.7170000000000005","251.3","997.8141","12.14","93.3","0.0","0.0"],
    [1503707,"2026-01-21 22:10:00","50204","3.332","247.4","5.619","271.5","997.7238","12.0","93.3","0.0","0.0"],
    [1503708,"2026-01-21 22:20:00","50205","3.1639999999999997","252.1","5.749","251.7","997.6331","12.11","93.3","0.0","0.0"],
    [1503709,"2026-01-21 22:30:00","50206","2.695","256.5","4.998","263.8","997.6431","12.05","93.1","0.0","0.0"],
    [1503710,"2026-01-21 22:40:00","50207","2.55","258.6","4.671","228.8","997.5578","12.08","93.3","0.0","0.0"],
    [1503711,"2026-01-21 22:50:00","50208","3.035","249.5","5.619","252.2","997.385","12.18","93.3","0.0","0.0"],
    [1503712,"2026-01-21 23:00:00","50209","3.188","233.4","5.39","249.6","997.3753","12.54","91.7","0.0","0.0"],
    [1503713,"2026-01-21 23:10:00","50210","4.016","210.4","7.807","230.1","997.3271","12.72","89.2","0.040999999999999995","0.0"],
    [1503714,"2026-01-21 23:20:00","50211","3.727","208.7","7.121","208.2","997.1254","12.82","88.0","0.0","0.0"],
    [1503715,"2026-01-21 23:30:00","50212","3.917","206.0","6.957999999999999","227.7","996.9612","12.89","86.4","0.0","0.0"],
    [1503716,"2026-01-21 23:40:00","50213","3.725","203.7","7.0889999999999995","211.3","996.7298","12.95","85.6","0.0","0.0"],
    [1503717,"2026-01-21 23:50:00","50214","3.483","199.2","4.998","194.8","996.4537","13.02","85.3","0.0","0.0"],
    [1503718,"2026-01-22 00:00:00","50215","2.19","219.7","3.985","207.6","996.3802","13.06","85.9","0.0","0.0"],
    [1503719,"2026-01-22 00:10:00","50216","1.879","304.4","2.842","287.9","996.3387","12.98","86.6","0.0","0.0"],
    [1503720,"2026-01-22 00:20:00","50217","1.712","319.1","2.875","308.1","996.1909","12.92","87.0","0.0","0.0"],
    [1503721,"2026-01-22 00:30:00","50218","1.368","300.0","2.189","295.5","995.9824","12.85","87.0","0.0","0.0"],
    [1503722,"2026-01-22 00:40:00","50219","1.8769999999999998","273.9","2.8089999999999997","302.6","995.7969","12.87","86.9","0.0","0.0"],
    [1503723,"2026-01-22 00:50:00","50220","1.524","254.4","3.1689999999999996","292.5","995.6797","12.89","87.1","0.0","0.0"],
    [1503724,"2026-01-22 01:00:00","50221","2.0869999999999997","253.5","3.397","264.9","995.5659","12.9","87.9","0.0","0.1"],
    [1503725,"2026-01-22 01:10:00","50222","2.251","236.8","4.247","240.8","995.4497","13.0","89.1","0.0","0.1"],
    [1503726,"2026-01-22 01:20:00","50223","2.147","238.1","3.7889999999999997","265.1","995.1718","12.99","90.2","0.0","0.0"],
    [1503727,"2026-01-22 01:30:00","50224","1.5230000000000001","232.5","3.071","244.1","995.0549","12.89","90.7","0.13699999999999998","0.0"],
    [1503728,"2026-01-22 01:40:00","50225","2.1959999999999997","226.4","4.606","227.3","994.9453","12.87","90.6","0.716","0.0"],
    [1503729,"2026-01-22 01:50:00","50226","2.174","230.9","3.9530000000000003","257.4","994.8442","12.89","89.7","0.805","0.0"],
    [1503730,"2026-01-22 02:00:00","50227","1.932","242.0","3.397","210.9","994.7665","12.82","88.7","0.392","0.0"],
    [1503731,"2026-01-22 02:10:00","50228","0.907","249.3","2.025","251.6","994.6647","12.64","89.0","0.0","0.0"],
    [1503732,"2026-01-22 02:20:00","50229","0.903","254.9","1.993","255.5","994.5528","12.5","89.2","0.0","0.0"],
    [1503733,"2026-01-22 02:30:00","50230","1.214","240.5","2.483","249.2","994.442","12.44","89.1","0.0","0.0"],
    [1503734,"2026-01-22 02:40:00","50231","1.339","236.0","2.515","249.9","994.1378","12.46","88.3","0.0","0.0"],
    [1503735,"2026-01-22 02:50:00","50232","2.019","229.1","3.6260000000000003","232.9","994.005","12.46","87.3","0.0","0.0"],
    [1503736,"2026-01-22 03:00:00","50233","2.544","230.3","3.985","223.2","993.877","12.48","86.1","0.036000000000000004","0.0"],
    [1503737,"2026-01-22 03:10:00","50234","2.214","239.8","4.051","221.1","993.7555","12.44","85.3","0.287","0.0"],
    [1503738,"2026-01-22 03:20:00","50235","1.786","269.5","3.0380000000000003","264.8","993.5513","12.22","86.2","0.0","0.0"],
    [1503739,"2026-01-22 03:30:00","50236","2.1","290.5","3.234","302.0","993.4198","12.08","87.8","0.0","0.0"],
    [1503740,"2026-01-22 03:40:00","50237","2.8339999999999996","319.7","4.312","321.3","993.2541","12.11","88.6","0.0","0.0"],
    [1503741,"2026-01-22 03:50:00","50238","3.517","320.1","4.9","307.5","993.2332","12.16","88.5","0.0","0.0"],
    [1503742,"2026-01-22 04:00:00","50239","3.5380000000000003","321.3","4.4430000000000005","317.7","993.1422","12.26","86.9","0.0","0.0"],
    [1503743,"2026-01-22 04:10:00","50240","3.487","340.7","5.1610000000000005","334.1","993.0072","12.42","84.4","0.0","0.0"],
    [1503744,"2026-01-22 04:20:00","50241","3.2510000000000003","337.5","4.671","336.7","992.9928","12.56","81.9","0.0","0.1"],
    [1503745,"2026-01-22 04:30:00","50242","2.417","315.3","4.835","332.6","993.0294","12.58","80.8","0.0","0.0"],
    [1503746,"2026-01-22 04:40:00","50243","2.112","287.3","3.495","287.8","993.0584","12.39","80.8","0.0","0.0"],
    [1503747,"2026-01-22 04:50:00","50244","2.543","284.9","3.9530000000000003","286.5","992.9596","12.36","80.7","0.0","0.0"],
    [1503748,"2026-01-22 05:00:00","50245","2.342","298.9","4.279","315.9","992.8827","12.36","80.5","0.044000000000000004","0.0"],
    [1503749,"2026-01-22 05:10:00","50246","3.0380000000000003","301.6","4.475","307.2","992.8848","12.57","77.34","0.0","0.0"],
    [1503750,"2026-01-22 05:20:00","50247","3.4339999999999997","297.2","5.455","282.2","992.8983","12.68","73.84","0.065","0.0"],
    [1503751,"2026-01-22 05:30:00","50248","4.402","297.4","7.218999999999999","300.6","992.8862","12.7","71.03","0.0","0.0"],
    [1503752,"2026-01-22 05:40:00","50249","5.046","297.4","9.18","320.9","992.9739","12.51","71.44","0.0","0.0"],
    [1503753,"2026-01-22 05:50:00","50250","5.724","301.9","9.18","320.9","993.041","12.34","72.35","0.0","0.0"],
    [1503754,"2026-01-22 06:00:00","50251","5.879","299.6","9.15","303.5","993.1937","12.18","73.5","0.0","0.0"],
    [1503755,"2026-01-22 06:10:00","50252","5.343999999999999","306.5","9.57","328.1","993.4171","12.07","74.93","0.02","0.1"],
    [1503756,"2026-01-22 06:20:00","50253","5.672000000000001","311.3","8.4","318.8","993.626","11.96","76.53","0.154","0.1"],
    [1503757,"2026-01-22 06:30:00","50254","6.518","318.3","8.43","320.3","993.7512","11.93","76.34","1.482","0.0"],
    [1503758,"2026-01-22 06:40:00","50255","5.683","319.9","8.0","323.5","993.9205","11.76","77.85","0.094","0.0"],
    [1503759,"2026-01-22 06:50:00","50256","5.224","311.8","9.05","315.6","994.0505","11.61","79.24","0.01","0.0"],
    [1503760,"2026-01-22 07:00:00","50257","4.891","310.9","6.893","309.3","994.3016","11.58","79.54","0.0","0.0"],
    [1503761,"2026-01-22 07:10:00","50258","4.555","313.1","6.1739999999999995","307.5","994.4711","11.58","80.1","0.0","0.0"],
    [1503762,"2026-01-22 07:20:00","50259","3.951","314.6","5.553","300.5","994.6305","11.53","80.9","0.0","0.0"],
    [1503763,"2026-01-22 07:30:00","50260","3.293","340.3","4.802","10.2","994.7708","11.55","80.8","0.091","0.0"],
    [1503764,"2026-01-22 07:40:00","50261","2.536","326.3","6.109","334.0","995.0898","11.67","80.2","1.8019999999999998","0.0"],
    [1503765,"2026-01-22 07:50:00","50262","1.839","291.6","3.103","272.8","995.3219","11.59","80.2","2.846","0.0"],
    [1503766,"2026-01-22 08:00:00","50263","2.215","292.7","3.0380000000000003","301.5","995.52","11.46","81.4","3.1830000000000003","0.0"],
    [1503767,"2026-01-22 08:10:00","50264","2.533","302.0","3.7889999999999997","323.1","995.7043","11.37","82.6","4.643","0.2"],
    [1503768,"2026-01-22 08:20:00","50265","2.968","312.7","4.083","317.5","995.9266","11.3","84.0","6.734","0.2"],
    [1503769,"2026-01-22 08:30:00","50266","2.08","332.9","3.1689999999999996","307.4","996.1394","11.22","85.2","12.2","0.2"],
    [1503770,"2026-01-22 08:40:00","50267","1.511","14.45","2.45","13.18","996.2435","11.31","85.8","24.39","0.2"],
    [1503771,"2026-01-22 08:50:00","50268","1.7269999999999999","3.5210000000000004","2.5810000000000004","34.55","996.3321","11.41","86.6","42.61","0.0"],
    [1503772,"2026-01-22 09:00:00","50269","2.338","356.0","2.9730000000000003","350.5","996.3928","11.34","87.2","96.8","0.1"],
    [1503773,"2026-01-22 09:10:00","50270","3.362","352.1","4.835","352.0","996.4722","11.3","87.0","197.6","0.0"],
    [1503774,"2026-01-22 09:20:00","50271","2.138","337.2","4.083","349.7","996.5847","11.46","85.4","236.3","0.0"],
    [1503775,"2026-01-22 09:30:00","50272","2.219","307.2","5.063","320.1","996.7273","11.52","85.0","246.8","0.0"],
    [1503776,"2026-01-22 09:40:00","50273","2.75","309.2","4.965","307.0","996.685","11.62","84.0","280.4","0.0"],
    [1503777,"2026-01-22 09:50:00","50274","2.923","314.2","4.933","314.7","996.7647","11.72","83.3","262.1","0.0"],
    [1503778,"2026-01-22 10:00:00","50275","3.0639999999999996","313.3","4.312","318.2","996.876","11.77","82.8","192.7","0.0"],
    [1503779,"2026-01-22 10:10:00","50276","2.733","322.0","4.704","324.6","997.1142","11.92","82.1","229.5","0.0"],
    [1503780,"2026-01-22 10:20:00","50277","2.1319999999999997","341.5","4.051","338.5","997.2902","12.05","78.88","176.7","0.0"],
    [1503781,"2026-01-22 10:30:00","50278","2.594","15.05","4.541","21.04","997.4447","12.27","75.93","181.0","0.0"],
    [1503782,"2026-01-22 10:40:00","50279","2.209","20.23","3.7569999999999997","21.75","997.3983","12.41","73.22","188.4","0.0"],
    [1503783,"2026-01-22 10:50:00","50280","0.7859999999999999","79.13","2.5810000000000004","45.1","997.2553","12.44","73.0","223.2","0.0"],
    [1503784,"2026-01-22 11:00:00","50281","1.287","145.1","2.189","174.3","997.1384","12.47","72.81","202.2","0.0"],
    [1503785,"2026-01-22 11:10:00","50282","1.966","189.6","2.907","206.6","997.1478","12.44","74.82","203.8","0.0"],
    [1503786,"2026-01-22 11:20:00","50283","2.309","238.6","5.031000000000001","277.1","997.3354","12.46","75.8","193.2","0.0"],
    [1503787,"2026-01-22 11:30:00","50284","4.287","273.1","5.651","252.7","997.3907","12.0","78.86","193.5","0.0"],
    [1503788,"2026-01-22 11:40:00","50285","3.865","281.1","5.455","268.4","997.4763","12.13","78.7","192.1","0.0"],
    [1503789,"2026-01-22 11:50:00","50286","3.659","286.4","4.835","283.1","997.47","12.3","75.85","232.0","0.0"],
    [1503790,"2026-01-22 12:00:00","50287","2.909","289.4","4.638999999999999","284.2","997.5767","12.61","72.91","293.7","0.0"],
    [1503791,"2026-01-22 12:10:00","50288","2.194","286.0","3.7239999999999998","293.1","997.6835","12.8","70.64","270.9","0.0"],
    [1503792,"2026-01-22 12:20:00","50289","3.102","283.1","4.377","282.0","997.949","12.97","69.32","253.9","0.0"],
    [1503793,"2026-01-22 12:30:00","50290","3.201","289.2","5.978","290.7","998.0385","13.12","69.28","376.4","0.0"],
    [1503794,"2026-01-22 12:40:00","50291","3.912","286.4","6.435","293.7","997.9792","13.18","67.61","471.5","0.0"],
    [1503795,"2026-01-22 12:50:00","50292","4.461","285.3","6.631","248.4","997.8555","13.32","64.26","405.8","0.0"],
    [1503796,"2026-01-22 13:00:00","50293","3.865","291.6","6.37","291.7","997.7617","13.48","61.75","403.9","0.0"],
    [1503797,"2026-01-22 13:10:00","50294","2.997","276.0","5.455","258.4","997.8214","13.37","61.9","120.3","0.0"],
    [1503798,"2026-01-22 13:20:00","50295","2.662","300.1","4.181","313.8","997.8654","13.44","61.91","397.6","0.0"],
    [1503799,"2026-01-22 13:30:00","50296","2.176","301.0","3.6260000000000003","308.8","997.9477","13.67","61.45","431.6","0.0"],
    [1503800,"2026-01-22 13:40:00","50297","1.6909999999999998","202.3","4.541","208.3","997.9565","13.97","61.77","497.5","0.0"],
    [1503801,"2026-01-22 13:50:00","50298","4.127","194.3","6.403","213.2","997.9515","13.69","63.94","464.7","0.0"],
    [1503802,"2026-01-22 14:00:00","50299","3.6639999999999997","192.5","5.1610000000000005","183.7","998.0107","13.68","63.38","375.5","0.0"],
    [1503803,"2026-01-22 14:10:00","50300","1.252","238.4","3.267","190.5","997.9838","14.14","62.81","395.7","0.0"],
    [1503804,"2026-01-22 14:20:00","50301","2.241","189.4","4.279","188.7","998.009","14.16","62.4","380.0","0.0"],
    [1503805,"2026-01-22 14:30:00","50302","3.695","178.4","5.292000000000001","172.8","998.0427","13.62","65.88","356.2","0.0"],
    [1503806,"2026-01-22 14:40:00","50303","3.568","177.8","4.737","161.1","998.087","13.68","65.48","335.1","0.0"],
    [1503807,"2026-01-22 14:50:00","50304","3.4010000000000002","176.3","4.638999999999999","167.6","998.1757","13.66","66.87","311.4","0.0"],
    [1503808,"2026-01-22 15:00:00","50305","3.301","165.2","4.345","170.2","998.3361","13.63","68.73","287.7","0.0"],
    [1503809,"2026-01-22 15:10:00","50306","2.838","175.4","4.018","166.8","998.4523","13.74","68.98","261.6","0.0"],
    [1503810,"2026-01-22 15:20:00","50307","3.6719999999999997","173.1","4.704","168.2","998.5731","13.84","67.84","236.9","0.0"],
    [1503811,"2026-01-22 15:30:00","50308","4.54","166.9","5.031000000000001","168.7","998.6685","13.79","66.39","212.2","0.0"],
    [1503812,"2026-01-22 15:40:00","50309","4.582","165.2","4.9","162.2","998.7808","13.83","66.74","184.9","0.0"],
    [1503813,"2026-01-22 15:50:00","50310","4.246","169.9","4.9","163.8","998.8826","13.94","67.06","155.3","0.0"],
    [1503814,"2026-01-22 16:00:00","50311","4.227","179.9","5.292000000000001","189.2","998.9103","14.01","66.22","90.8","0.0"],
    [1503815,"2026-01-22 16:10:00","50312","4.292","191.7","6.109","196.1","999.0807","14.2","60.72","34.93","0.0"],
    [1503816,"2026-01-22 16:20:00","50313","3.464","192.9","4.475","189.8","999.2049","14.23","60.36","24.05","0.0"],
    [1503817,"2026-01-22 16:30:00","50314","3.7239999999999998","197.3","4.737","198.7","999.3725","14.29","57.85","17.6","0.0"],
    [1503818,"2026-01-22 16:40:00","50315","3.655","196.5","4.867","205.8","999.6213","14.27","58.59","13.66","0.0"],
    [1503819,"2026-01-22 16:50:00","50316","3.1069999999999998","200.7","4.508","201.5","999.7005","14.18","60.21","7.737","0.0"],
    [1503820,"2026-01-22 17:00:00","50317","3.0069999999999997","196.9","3.985","184.9","999.7606","14.21","59.64","1.82","0.0"],
    [1503821,"2026-01-22 17:10:00","50318","1.744","274.0","3.234","276.9","999.9324","14.14","60.72","0.0","0.0"],
    [1503822,"2026-01-22 17:20:00","50319","1.6540000000000001","262.2","3.397","277.3","1000.019","14.16","58.06","0.0","0.0"],
    [1503823,"2026-01-22 17:30:00","50320","1.5590000000000002","278.5","2.548","252.2","1000.152","14.09","57.38","0.0","0.0"],
    [1503824,"2026-01-22 17:40:00","50321","2.645","290.1","4.345","278.7","1000.211","14.24","56.11","0.0","0.0"],
    [1503825,"2026-01-22 17:50:00","50322","2.198","287.2","3.495","292.4","1000.307","14.16","56.13","0.0","0.0"],
    [1503826,"2026-01-22 18:00:00","50323","3.048","280.9","4.998","285.6","1000.435","13.88","56.86","0.0","0.0"],
    [1503827,"2026-01-22 18:10:00","50324","3.728","282.9","5.912999999999999","277.4","1000.508","13.7","56.76","0.0","0.0"],
    [1503828,"2026-01-22 18:20:00","50325","3.9789999999999996","292.9","5.553","297.8","1000.589","13.65","55.13","0.0","0.0"],
    [1503829,"2026-01-22 18:30:00","50326","3.7230000000000003","300.4","5.325","307.4","1000.654","13.55","54.95","0.0","0.0"],
    [1503830,"2026-01-22 18:40:00","50327","3.127","294.7","4.377","297.2","1000.784","13.42","55.12","0.0","0.0"],
    [1503831,"2026-01-22 18:50:00","50328","3.228","296.1","4.9","292.3","1000.719","13.38","54.76","0.0","0.0"],
    [1503832,"2026-01-22 19:00:00","50329","3.339","295.8","4.998","295.7","1000.714","13.31","54.58","0.0","0.0"],
    [1503833,"2026-01-22 19:10:00","50330","2.9330000000000003","292.3","4.541","279.8","1000.738","13.22","54.32","0.0","0.0"],
    [1503834,"2026-01-22 19:20:00","50331","2.63","280.4","4.247","286.0","1000.895","13.09","54.13","0.0","0.0"],
    [1503835,"2026-01-22 19:30:00","50332","2.592","281.7","3.7569999999999997","301.0","1000.916","12.79","55.48","0.0","0.0"],
    [1503836,"2026-01-22 19:40:00","50333","2.8739999999999997","285.6","4.1160000000000005","283.7","1000.869","12.88","54.72","0.0","0.0"],
    [1503837,"2026-01-22 19:50:00","50334","3.17","285.5","4.769","284.9","1000.786","12.81","54.57","0.0","0.0"],
    [1503838,"2026-01-22 20:00:00","50335","3.55","282.4","5.2589999999999995","285.2","1000.862","12.8","54.41","0.0","0.0"],
    [1503839,"2026-01-22 20:10:00","50336","2.6639999999999997","265.9","4.475","293.7","1001.015","12.46","55.77","0.0","0.0"],
    [1503840,"2026-01-22 20:20:00","50337","1.8","242.4","3.0380000000000003","262.3","1001.1","12.32","57.01","0.0","0.0"],
    [1503841,"2026-01-22 20:30:00","50338","1.903","243.5","3.136","255.5","1001.039","11.94","59.68","0.0","0.0"],
    [1503842,"2026-01-22 20:40:00","50339","1.9380000000000002","250.6","3.332","251.4","1001.024","11.4","62.62","0.0","0.0"],
    [1503843,"2026-01-22 20:50:00","50340","2.17","234.1","3.5610000000000004","224.3","1001.123","11.55","62.21","0.0","0.0"],
    [1503844,"2026-01-22 21:00:00","50341","1.516","254.6","2.45","271.0","1001.138","11.34","62.21","0.0","0.0"],
    [1503845,"2026-01-22 21:10:00","50342","1.537","258.6","2.319","267.3","1001.233","11.06","62.63","0.0","0.0"],
    [1503846,"2026-01-22 21:20:00","50343","1.556","263.0","2.7769999999999997","271.7","1001.162","10.98","62.61","0.0","0.0"],
    [1503847,"2026-01-22 21:30:00","50344","1.5319999999999998","278.2","2.548","282.6","1000.966","10.88","63.02","0.0","0.0"],
    [1503848,"2026-01-22 21:40:00","50345","1.7790000000000001","265.2","2.515","277.7","1000.87","10.87","63.15","0.0","0.0"],
    [1503849,"2026-01-22 21:50:00","50346","1.554","252.1","2.221","250.2","1000.874","10.83","63.05","0.0","0.0"],
    [1503850,"2026-01-22 22:00:00","50347","1.126","237.6","1.895","219.2","1000.957","10.98","62.61","0.0","0.0"],
    [1503851,"2026-01-22 22:10:00","50348","1.409","258.8","1.9269999999999998","246.9","1000.875","11.05","60.73","0.0","0.0"],
    [1503852,"2026-01-22 22:20:00","50349","1.495","263.7","2.025","264.1","1000.791","11.11","60.17","0.0","0.0"],
    [1503853,"2026-01-22 22:30:00","50350","1.123","231.2","1.9269999999999998","209.1","1000.7","11.15","59.79","0.0","0.0"],
    [1503854,"2026-01-22 22:40:00","50351","0.741","233.2","1.3719999999999999","255.0","1000.565","11.21","59.01","0.0","0.0"],
    [1503855,"2026-01-22 22:50:00","50352","1.3090000000000002","271.6","1.666","269.0","1000.418","11.18","58.27","0.0","0.0"],
    [1503856,"2026-01-22 23:00:00","50353","1.5659999999999998","258.2","1.993","252.5","1000.505","10.82","61.28","0.0","0.0"],
    [1503857,"2026-01-22 23:10:00","50354","2.26","257.5","2.9730000000000003","261.6","1000.547","10.4","64.84","0.0","0.0"],
    [1503858,"2026-01-22 23:20:00","50355","1.829","260.5","2.548","267.1","1000.528","10.02","66.63","0.0","0.0"],
    [1503859,"2026-01-22 23:30:00","50356","1.88","255.4","2.5810000000000004","258.9","1000.484","9.92","67.38","0.0","0.0"],
    [1503860,"2026-01-22 23:40:00","50357","1.9580000000000002","252.5","2.9730000000000003","249.9","1000.509","9.83","67.23","0.0","0.0"],
    [1503861,"2026-01-22 23:50:00","50358","1.9480000000000002","257.4","2.7439999999999998","260.0","1000.467","9.62","67.68","0.0","0.0"],
    [1503862,"2026-01-23 00:00:00","50359","2.253","261.0","2.94","258.8","1000.289","9.35","68.69","0.0","0.0"],
    [1503863,"2026-01-23 00:10:00","50360","2.3480000000000003","253.2","3.136","256.5","1000.31","9.36","69.59","0.0","0.0"],
    [1503864,"2026-01-23 00:20:00","50361","2.029","258.5","3.0380000000000003","264.2","1000.355","9.85","66.33","0.0","0.0"],
    [1503865,"2026-01-23 00:30:00","50362","1.939","257.0","3.136","258.9","1000.371","9.66","66.23","0.0","0.0"],
    [1503866,"2026-01-23 00:40:00","50363","1.5530000000000002","254.6","2.548","261.5","1000.229","9.79","64.77","0.0","0.0"],
    [1503867,"2026-01-23 00:50:00","50364","2.102","258.2","2.94","262.5","999.9885","9.2","66.55","0.0","0.0"],
    [1503868,"2026-01-23 01:00:00","50365","1.844","241.9","3.071","254.2","999.9586","9.03","69.06","0.0","0.0"],
    [1503869,"2026-01-23 01:10:00","50366","1.845","257.7","2.7769999999999997","255.6","999.7569","8.88","69.08","0.0","0.0"],
    [1503870,"2026-01-23 01:20:00","50367","1.766","256.0","2.679","253.1","999.6735","8.94","69.2","0.0","0.0"],
    [1503871,"2026-01-23 01:30:00","50368","1.7480000000000002","247.6","2.385","263.3","999.6026","9.06","68.17","0.0","0.0"],
    [1503872,"2026-01-23 01:40:00","50369","1.9469999999999998","256.7","2.94","252.8","999.5319","9.44","65.63","0.0","0.0"],
    [1503873,"2026-01-23 01:50:00","50370","1.775","256.4","2.515","262.8","999.5297","9.17","66.6","0.0","0.0"],
    [1503874,"2026-01-23 02:00:00","50371","2.347","265.8","2.94","272.4","999.4084","9.17","66.76","0.0","0.0"],
    [1503875,"2026-01-23 02:10:00","50372","2.178","275.1","2.8089999999999997","275.4","999.3677","9.05","69.14","0.0","0.0"],
    [1503876,"2026-01-23 02:20:00","50373","1.7990000000000002","283.5","2.385","284.4","999.2484","9.31","68.6","0.0","0.0"],
    [1503877,"2026-01-23 02:30:00","50374","1.57","275.1","1.993","281.7","999.0087","9.51","66.64","0.0","0.0"],
    [1503878,"2026-01-23 02:40:00","50375","1.4069999999999998","259.0","1.829","291.6","998.8604","9.8","64.47","0.0","0.0"],
    [1503879,"2026-01-23 02:50:00","50376","1.4269999999999998","277.2","1.764","268.9","998.6517","9.82","63.09","0.0","0.0"],
    [1503880,"2026-01-23 03:00:00","50377","1.3869999999999998","240.1","2.287","215.1","998.5553","9.68","64.06","0.0","0.0"],
    [1503881,"2026-01-23 03:10:00","50378","1.3119999999999998","217.1","2.0909999999999997","215.8","998.5135","9.82","64.72","0.0","0.0"],
    [1503882,"2026-01-23 03:20:00","50379","0.78","227.7","1.307","257.3","998.4629","9.95","63.29","0.0","0.0"],
    [1503883,"2026-01-23 03:30:00","50380","1.125","228.6","1.9269999999999998","222.5","998.4116","10.07","60.91","0.0","0.0"],
    [1503884,"2026-01-23 03:40:00","50381","1.0759999999999998","250.0","1.8619999999999999","239.1","998.235","10.29","58.21","0.0","0.0"],
    [1503885,"2026-01-23 03:50:00","50382","1.5019999999999998","252.2","2.287","256.4","998.1907","9.89","59.19","0.0","0.0"],
    [1503886,"2026-01-23 04:00:00","50383","2.088","261.3","2.548","270.7","998.0155","9.62","61.5","0.0","0.0"],
    [1503887,"2026-01-23 04:10:00","50384","2.197","267.0","2.8089999999999997","263.8","997.9888","9.47","62.29","0.0","0.0"],
    [1503888,"2026-01-23 04:20:00","50385","1.972","281.9","2.352","278.2","997.8787","9.4","63.53","0.0","0.0"],
    [1503889,"2026-01-23 04:30:00","50386","1.376","279.4","1.993","288.7","997.7267","9.66","61.9","0.0","0.0"],
    [1503890,"2026-01-23 04:40:00","50387","1.335","276.7","1.7309999999999999","289.4","997.6518","9.77","60.85","0.0","0.0"],
    [1503891,"2026-01-23 04:50:00","50388","1.755","295.5","2.254","301.9","997.5727","9.9","60.45","0.0","0.0"],
    [1503892,"2026-01-23 05:00:00","50389","1.261","285.3","1.764","301.7","997.4561","9.97","60.31","0.0","0.0"],
    [1503893,"2026-01-23 05:10:00","50390","1.8969999999999998","295.4","2.548","308.4","997.4533","10.08","60.03","0.0","0.0"],
    [1503894,"2026-01-23 05:20:00","50391","1.5419999999999998","271.7","2.221","295.7","997.4293","10.29","58.42","0.0","0.0"],
    [1503895,"2026-01-23 05:30:00","50392","1.6469999999999998","286.5","2.417","278.1","997.2292","10.49","56.82","0.0","0.0"],
    [1503896,"2026-01-23 05:40:00","50393","1.39","269.6","2.254","267.7","997.1505","10.39","57.3","0.0","0.0"],
    [1503897,"2026-01-23 05:50:00","50394","2.481","270.7","2.9730000000000003","266.9","997.2307","10.26","57.69","0.0","0.0"],
    [1503898,"2026-01-23 06:00:00","50395","2.077","265.7","2.7110000000000003","260.4","997.0413","10.05","59.26","0.0","0.0"],
    [1503899,"2026-01-23 06:10:00","50396","2.042","277.4","2.352","284.3","996.9577","10.23","58.21","0.0","0.0"],
    [1503900,"2026-01-23 06:20:00","50397","2.144","287.9","2.45","288.2","996.7733","10.16","59.36","0.0","0.0"],
    [1503901,"2026-01-23 06:30:00","50398","1.7309999999999999","292.6","2.0909999999999997","305.4","996.5318","10.36","58.47","0.0","0.0"],
    [1503902,"2026-01-23 06:40:00","50399","1.9780000000000002","278.9","2.6460000000000004","272.5","996.5071","10.55","56.98","0.0","0.0"],
    [1503903,"2026-01-23 06:50:00","50400","2.043","276.3","2.45","278.1","996.4561","10.62","57.18","0.0","0.0"],
    [1503904,"2026-01-23 07:00:00","50401","2.063","259.6","2.483","258.8","996.6082","10.76","56.35","0.0","0.0"],
    [1503905,"2026-01-23 07:10:00","50402","2.161","253.0","2.94","255.9","996.947","10.26","57.07","0.5579999999999999","0.0"],
    [1503906,"2026-01-23 07:20:00","50403","2.313","259.2","3.234","262.9","997.185","9.81","59.35","3.903","0.0"],
    [1503907,"2026-01-23 07:30:00","50404","1.9569999999999999","262.1","2.679","269.9","997.2667","9.33","62.74","12.36","0.0"],
    [1503908,"2026-01-23 07:40:00","50405","1.716","269.6","2.352","256.3","997.2289","9.43","62.95","28.48","0.0"],
    [1503909,"2026-01-23 07:50:00","50406","1.729","278.1","2.319","269.9","997.072","9.56","62.45","52.87","0.0"],
    [1503910,"2026-01-23 08:00:00","50407","2.355","279.4","3.201","274.5","997.148","9.85","61.39","100.6","0.0"],
    [1503911,"2026-01-23 08:10:00","50408","1.986","280.7","2.875","276.8","997.1471","10.14","60.61","149.0","0.0"],
    [1503912,"2026-01-23 08:20:00","50409","1.913","280.7","3.005","281.3","997.1765","10.57","59.91","203.0","0.0"],
    [1503913,"2026-01-23 08:30:00","50410","1.735","270.8","2.385","262.3","997.2996","10.88","59.15","143.3","0.0"],
    [1503914,"2026-01-23 08:40:00","50411","1.791","263.4","2.842","252.6","997.1627","11.17","57.95","151.5","0.0"],
    [1503915,"2026-01-23 08:50:00","50412","2.075","265.5","3.071","260.7","996.9975","11.54","56.4","223.9","0.0"],
    [1503916,"2026-01-23 09:00:00","50413","2.395","270.4","4.377","281.5","996.938","11.82","55.91","248.2","0.0"],
    [1503917,"2026-01-23 09:10:00","50414","2.376","270.7","4.018","270.7","996.9546","11.98","55.69","273.5","0.0"],
    [1503918,"2026-01-23 09:20:00","50415","2.332","288.6","3.985","305.1","996.8199","12.19","55.43","297.3","0.0"],
    [1503919,"2026-01-23 09:30:00","50416","2.438","267.9","4.345","274.3","996.8277","12.29","55.68","321.3","0.0"],
    [1503920,"2026-01-23 09:40:00","50417","2.612","283.4","3.985","297.6","996.7405","12.4","57.25","343.8","0.0"],
    [1503921,"2026-01-23 09:50:00","50418","2.6489999999999996","269.1","3.9530000000000003","259.2","996.7329","12.42","58.62","365.8","0.0"],
    [1503922,"2026-01-23 10:00:00","50419","2.259","250.6","4.279","276.0","996.7789","12.58","59.63","385.4","0.0"],
    [1503923,"2026-01-23 10:10:00","50420","2.218","242.9","3.6910000000000003","221.9","996.8557","12.63","59.43","405.0","0.0"],
    [1503924,"2026-01-23 10:20:00","50421","2.049","251.7","3.43","270.3","996.8392","12.84","58.23","422.4","0.0"],
    [1503925,"2026-01-23 10:30:00","50422","2.242","253.1","4.083","216.1","996.7961","13.05","57.48","439.6","0.0"],
    [1503926,"2026-01-23 10:40:00","50423","2.6180000000000003","259.7","4.181","263.7","996.7079","13.2","57.14","455.5","0.0"],
    [1503927,"2026-01-23 10:50:00","50424","2.287","255.8","3.6910000000000003","263.7","996.7049","13.46","56.69","471.3","0.0"],
    [1503928,"2026-01-23 11:00:00","50425","2.449","262.8","4.737","259.7","996.6752","13.68","55.01","465.8","0.0"],
    [1503929,"2026-01-23 11:10:00","50426","2.245","266.8","3.7569999999999997","259.1","996.6369","14.0","53.63","466.1","0.0"],
    [1503930,"2026-01-23 11:20:00","50427","2.303","272.3","4.541","273.8","996.602","14.02","52.33","318.9","0.0"],
    [1503931,"2026-01-23 11:30:00","50428","3.782","205.1","6.86","191.2","996.4863","14.13","54.38","335.4","0.0"],
    [1503932,"2026-01-23 11:40:00","50429","4.265","204.2","6.1739999999999995","204.2","996.4011","13.84","56.83","273.9","0.0"],
    [1503933,"2026-01-23 11:50:00","50430","3.8760000000000003","214.9","5.782","200.3","996.3312","13.82","56.63","232.5","0.0"],
    [1503934,"2026-01-23 12:00:00","50431","2.898","228.3","6.566","223.1","996.2479","13.77","57.91","192.2","0.0"],
    [1503935,"2026-01-23 12:10:00","50432","3.0039999999999996","235.1","7.84","212.7","996.2233","13.59","56.52","194.5","0.0"],
    [1503936,"2026-01-23 12:20:00","50433","5.274","216.0","8.89","227.7","996.2153","13.57","57.54","218.8","0.0"],
    [1503937,"2026-01-23 12:30:00","50434","3.447","225.5","8.3","206.3","996.2363","13.77","61.82","297.6","0.0"],
    [1503938,"2026-01-23 12:40:00","50435","2.7880000000000003","221.6","5.586","219.4","996.2721","14.19","60.99","489.4","0.0"],
    [1503939,"2026-01-23 12:50:00","50436","2.6839999999999997","238.3","5.749","219.9","996.1693","14.5","56.78","545.9","0.0"],
    [1503940,"2026-01-23 13:00:00","50437","2.852","275.6","6.7620000000000005","315.9","996.0554","14.82","52.19","555.1","0.0"],
    [1503941,"2026-01-23 13:10:00","50438","4.085","305.6","6.664","300.8","996.0568","14.85","46.15","359.9","0.0"],
    [1503942,"2026-01-23 13:20:00","50439","3.628","308.5","5.815","303.4","995.9556","14.81","45.61","346.4","0.0"],
    [1503943,"2026-01-23 13:30:00","50440","2.943","292.6","6.337000000000001","301.5","995.8822","14.91","43.98","254.9","0.0"],
    [1503944,"2026-01-23 13:40:00","50441","2.572","287.2","6.566","282.9","995.7661","14.99","42.08","373.1","0.0"],
    [1503945,"2026-01-23 13:50:00","50442","2.582","271.6","5.422999999999999","255.8","995.6743","15.42","39.96","469.8","0.0"],
    [1503946,"2026-01-23 14:00:00","50443","4.503","268.6","9.73","254.4","995.549","15.44","36.47","429.2","0.0"],
    [1503947,"2026-01-23 14:10:00","50444","3.773","265.8","7.4479999999999995","270.1","995.5375","15.49","35.84","409.4","0.0"],
    [1503948,"2026-01-23 14:20:00","50445","4.044","284.4","6.925","269.5","995.5822","15.4","36.71","389.6","0.0"],
    [1503949,"2026-01-23 14:30:00","50446","4.202","268.2","7.4479999999999995","269.4","995.7819","15.5","36.12","369.2","0.0"],
    [1503950,"2026-01-23 14:40:00","50447","2.835","255.1","6.599","257.8","995.8723","15.69","35.43","346.9","0.0"],
    [1503951,"2026-01-23 14:50:00","50448","4.821000000000001","279.2","7.905","262.8","995.9002","15.64","34.89","326.7","0.0"],
    [1503952,"2026-01-23 15:00:00","50449","5.0760000000000005","278.9","8.2","298.4","995.9946","15.66","34.96","300.5","0.0"],
    [1503953,"2026-01-23 15:10:00","50450","5.058","276.3","8.92","283.0","996.1138","15.67","33.14","276.8","0.0"],
    [1503954,"2026-01-23 15:20:00","50451","4.004","287.0","7.84","276.7","996.2526","15.69","31.79","252.9","0.0"],
    [1503955,"2026-01-23 15:30:00","50452","5.043","294.5","8.46","305.4","996.2637","15.41","30.35","226.7","0.0"],
    [1503956,"2026-01-23 15:40:00","50453","4.408","279.4","7.317","275.8","996.2762","15.43","31.25","197.1","0.0"],
    [1503957,"2026-01-23 15:50:00","50454","4.4030000000000005","275.7","6.86","280.4","996.3995","15.21","31.52","167.6","0.0"],
    [1503958,"2026-01-23 16:00:00","50455","5.742999999999999","278.1","9.34","285.4","996.5022","14.94","32.07","113.4","0.0"],
    [1503959,"2026-01-23 16:10:00","50456","5.091","281.8","8.3","287.5","996.6177","14.69","33.24","38.34","0.0"],
    [1503960,"2026-01-23 16:20:00","50457","3.572","269.2","7.644","262.4","996.7766","14.43","34.51","22.54","0.0"],
    [1503961,"2026-01-23 16:30:00","50458","3.615","264.2","7.579","278.4","996.7158","14.23","35.67","18.03","0.0"],
    [1503962,"2026-01-23 16:40:00","50459","4.988","284.6","8.53","313.7","996.6237","14.13","36.98","13.18","0.0"],
    [1503963,"2026-01-23 16:50:00","50460","3.908","270.7","6.86","272.6","996.6301","13.95","37.6","7.63","0.0"],
    [1503964,"2026-01-23 17:00:00","50461","3.3510000000000004","267.5","5.1610000000000005","269.2","996.7556","13.74","38.45","2.376","0.0"],
    [1503965,"2026-01-23 17:10:00","50462","3.3930000000000002","271.0","5.619","270.8","997.0684","13.53","39.77","0.017","0.0"],
    [1503966,"2026-01-23 17:20:00","50463","1.921","262.4","3.92","285.9","997.3251","13.39","40.77","0.0","0.0"],
    [1503967,"2026-01-23 17:30:00","50464","2.033","263.8","3.463","277.1","997.5079","13.45","40.6","0.0","0.0"],
    [1503968,"2026-01-23 17:40:00","50465","1.67","272.3","2.875","270.4","997.6325","13.27","41.07","0.0","0.0"],
    [1503969,"2026-01-23 17:50:00","50466","2.415","273.1","3.495","263.1","997.6198","13.12","42.09","0.0","0.0"],
    [1503970,"2026-01-23 18:00:00","50467","1.879","254.0","4.2139999999999995","253.9","997.569","12.95","43.02","0.0","0.0"],
    [1503971,"2026-01-23 18:10:00","50468","2.397","239.9","4.083","213.5","997.6387","13.29","41.26","0.0","0.0"],
    [1503972,"2026-01-23 18:20:00","50469","2.019","252.3","3.6910000000000003","261.2","997.7401","13.22","41.27","0.0","0.0"],
    [1503973,"2026-01-23 18:30:00","50470","2.324","268.0","3.103","260.0","997.8225","12.71","43.47","0.0","0.0"],
    [1503974,"2026-01-23 18:40:00","50471","2.498","275.1","4.181","281.3","998.0328","12.62","44.77","0.0","0.0"],
    [1503975,"2026-01-23 18:50:00","50472","2.82","282.1","4.083","283.7","998.1085","12.62","45.65","0.0","0.0"],
    [1503976,"2026-01-23 19:00:00","50473","2.8560000000000003","293.4","4.247","303.9","998.1848","12.75","45.1","0.0","0.0"],
    [1503977,"2026-01-23 19:10:00","50474","3.444","300.9","4.769","289.2","998.1523","12.74","44.91","0.0","0.0"],
    [1503978,"2026-01-23 19:20:00","50475","3.728","297.9","5.7170000000000005","291.8","997.9965","12.59","46.36","0.0","0.0"],
    [1503979,"2026-01-23 19:30:00","50476","3.423","303.2","5.1610000000000005","307.6","997.8043","12.54","46.37","0.0","0.0"],
    [1503980,"2026-01-23 19:40:00","50477","4.037","291.3","5.586","292.4","997.5797","12.57","45.7","0.0","0.0"],
    [1503981,"2026-01-23 19:50:00","50478","3.187","288.9","4.606","288.2","997.4623","12.44","45.86","0.0","0.0"],
    [1503982,"2026-01-23 20:00:00","50479","2.7939999999999996","300.2","3.7239999999999998","298.6","997.2152","12.57","44.99","0.0","0.0"],
    [1503983,"2026-01-23 20:10:00","50480","2.235","304.8","3.6910000000000003","310.8","997.1556","12.79","43.35","0.0","0.0"],
    [1503984,"2026-01-23 20:20:00","50481","1.0270000000000001","27.14","2.6460000000000004","323.9","997.2257","12.88","42.93","0.0","0.0"],
    [1503985,"2026-01-23 20:30:00","50482","2.246","123.4","3.365","138.0","997.3384","13.02","42.79","0.0","0.0"],
    [1503986,"2026-01-23 20:40:00","50483","1.014","63.73","1.9269999999999998","81.3","997.4185","12.92","44.56","0.0","0.0"],
    [1503987,"2026-01-23 20:50:00","50484","1.7590000000000001","351.2","2.483","334.3","997.5016","12.96","42.86","0.0","0.0"],
    [1503988,"2026-01-23 21:00:00","50485","1.936","304.4","3.071","332.9","997.5975","12.74","43.67","0.0","0.0"],
    [1503989,"2026-01-23 21:10:00","50486","1.109","230.9","1.993","230.0","997.7428","12.02","45.77","0.0","0.0"],
    [1503990,"2026-01-23 21:20:00","50487","1.308","266.2","2.025","254.7","997.7115","11.8","45.54","0.0","0.0"],
    [1503991,"2026-01-23 21:30:00","50488","1.3230000000000002","262.9","1.96","265.0","997.5881","11.24","49.14","0.0","0.0"],
    [1503992,"2026-01-23 21:40:00","50489","2.164","203.5","3.7239999999999998","209.2","997.7897","11.28","50.59","0.0","0.0"],
    [1503993,"2026-01-23 21:50:00","50490","2.037","242.7","3.299","260.1","997.8757","11.16","50.19","0.0","0.0"],
    [1503994,"2026-01-23 22:00:00","50491","2.344","247.9","4.1160000000000005","264.3","997.851","11.41","47.06","0.0","0.0"],
    [1503995,"2026-01-23 22:10:00","50492","2.18","244.2","3.6910000000000003","217.6","997.7855","11.27","48.28","0.0","0.0"],
    [1503996,"2026-01-23 22:20:00","50493","1.794","267.8","3.593","262.5","997.6703","10.82","49.76","0.0","0.0"],
    [1503997,"2026-01-23 22:30:00","50494","1.7630000000000001","294.5","2.9730000000000003","294.8","997.4829","10.67","51.65","0.0","0.0"],
    [1503998,"2026-01-23 22:40:00","50495","2.3080000000000003","274.1","2.7439999999999998","276.8","997.417","10.54","52.06","0.0","0.0"],
    [1503999,"2026-01-23 22:50:00","50496","2.075","260.2","2.6460000000000004","264.9","997.514","10.38","52.56","0.0","0.0"],
    [1504000,"2026-01-23 23:00:00","50497","0.978","206.6","1.764","247.0","997.5245","10.84","51.8","0.0","0.0"],
    [1504001,"2026-01-23 23:10:00","50498","0.18","206.4","0.882","178.8","997.496","10.87","54.2","0.0","0.0"],
    [1504002,"2026-01-23 23:20:00","50499","0.366","329.3","1.045","333.2","997.3184","10.77","52.85","0.0","0.0"],
    [1504003,"2026-01-23 23:30:00","50500","0.8059999999999999","5.84","1.5030000000000001","16.63","997.2559","11.12","53.26","0.0","0.0"],
    [1504004,"2026-01-23 23:40:00","50501","1.01","348.4","1.633","340.5","997.2496","11.58","53.09","0.0","0.0"],
    [1504005,"2026-01-23 23:50:00","50502","1.094","0.374","1.633","341.4","997.1347","11.39","55.2","0.0","0.0"],
    [1504006,"2026-01-24 00:00:00","50503","0.68","6.32","1.176","19.93","997.1523","11.59","55.28","0.0","0.0"],
    [1504007,"2026-01-24 00:10:00","50504","0.374","14.34","0.98","24.97","997.0237","11.54","56.17","0.0","0.0"],
    [1504008,"2026-01-24 00:20:00","50505","1.087","0.92","2.221","19.2","996.7177","11.55","57.31","0.0","0.0"],
    [1504009,"2026-01-24 00:30:00","50506","2.5469999999999997","27.49","3.136","26.49","996.4459","11.67","56.56","0.0","0.0"],
    [1504010,"2026-01-24 00:40:00","50507","3.076","20.86","3.659","18.24","996.4816","11.75","54.63","0.0","0.0"],
    [1504011,"2026-01-24 00:50:00","50508","3.505","19.88","4.41","16.91","996.2295","11.77","54.16","0.0","0.0"],
    [1504012,"2026-01-24 01:00:00","50509","3.99","18.66","4.573","24.06","995.9979","11.8","53.68","0.0","0.0"],
    [1504013,"2026-01-24 01:10:00","50510","3.503","13.92","4.312","18.11","996.0647","11.77","53.87","0.0","0.0"],
    [1504014,"2026-01-24 01:20:00","50511","2.929","11.03","3.593","7.432","996.079","12.1","52.02","0.0","0.0"],
    [1504015,"2026-01-24 01:30:00","50512","3.155","14.44","3.6910000000000003","13.15","996.0488","12.22","52.52","0.0","0.0"],
    [1504016,"2026-01-24 01:40:00","50513","3.29","19.66","4.018","21.92","995.8165","12.15","53.01","0.0","0.0"],
    [1504017,"2026-01-24 01:50:00","50514","3.64","22.06","4.247","19.36","995.76","11.99","55.3","0.0","0.0"],
    [1504018,"2026-01-24 02:00:00","50515","3.218","20.81","3.855","16.96","995.7955","12.06","55.18","0.0","0.0"],
    [1504019,"2026-01-24 02:10:00","50516","3.406","14.98","4.606","17.93","995.7637","12.34","54.38","0.0","0.0"],
    [1504020,"2026-01-24 02:20:00","50517","2.9389999999999996","17.38","3.855","15.24","995.6931","12.37","55.96","0.0","0.0"],
    [1504021,"2026-01-24 02:30:00","50518","1.715","289.6","2.352","281.4","995.5556","11.56","57.41","0.0","0.0"],
    [1504022,"2026-01-24 02:40:00","50519","1.605","319.4","3.005","285.2","995.4031","10.81","58.86","0.0","0.0"],
    [1504023,"2026-01-24 02:50:00","50520","0.9390000000000001","305.7","3.463","256.6","995.3544","10.74","59.94","0.0","0.0"],
    [1504024,"2026-01-24 03:00:00","50521","1.633","200.6","4.638999999999999","265.4","995.255","10.68","60.67","0.0","0.0"],
    [1504025,"2026-01-24 03:10:00","50522","2.258","271.1","3.7889999999999997","263.0","995.1039","9.91","62.19","0.0","0.0"],
    [1504026,"2026-01-24 03:20:00","50523","2.265","276.0","2.842","269.3","994.8929","9.39","65.08","0.0","0.0"],
    [1504027,"2026-01-24 03:30:00","50524","2.701","272.0","3.332","263.7","994.6794","9.42","65.72","0.0","0.0"],
    [1504028,"2026-01-24 03:40:00","50525","2.55","259.3","4.149","230.7","994.6451","9.68","66.45","0.0","0.0"],
    [1504029,"2026-01-24 03:50:00","50526","2.355","257.6","5.063","258.9","994.6138","10.41","65.87","0.0","0.0"],
    [1504030,"2026-01-24 04:00:00","50527","2.665","275.0","4.018","276.6","994.3898","10.18","66.07","0.0","0.0"],
    [1504031,"2026-01-24 04:10:00","50528","3.25","301.2","4.965","313.2","993.7767","10.69","65.55","0.0","0.0"],
    [1504032,"2026-01-24 04:20:00","50529","3.239","312.1","4.475","313.3","993.6042","10.89","65.13","0.0","0.0"],
    [1504033,"2026-01-24 04:30:00","50530","2.185","298.9","3.299","315.8","993.738","10.97","65.65","0.0","0.0"],
    [1504034,"2026-01-24 04:40:00","50531","2.252","288.6","3.332","297.7","993.9072","10.97","64.54","0.0","0.0"],
    [1504035,"2026-01-24 04:50:00","50532","1.452","295.9","2.548","306.0","993.8101","11.08","64.32","0.0","0.0"],
    [1504036,"2026-01-24 05:00:00","50533","1.651","293.5","2.875","297.4","993.7424","10.97","64.69","0.0","0.0"],
    [1504037,"2026-01-24 05:10:00","50534","1.386","303.7","2.613","308.4","993.4527","10.94","65.32","0.0","0.0"],
    [1504038,"2026-01-24 05:20:00","50535","1.544","311.8","2.613","317.9","993.351","11.07","65.46","0.0","0.0"],
    [1504039,"2026-01-24 05:30:00","50536","1.392","6.051","2.613","53.53","993.2512","11.22","65.0","0.0","0.0"],
    [1504040,"2026-01-24 05:40:00","50537","2.311","77.12","5.619","90.6","993.3145","11.27","65.27","0.0","0.0"],
    [1504041,"2026-01-24 05:50:00","50538","4.455","92.6","5.651","85.9","993.4608","10.91","68.55","0.0","0.0"],
    [1504042,"2026-01-24 06:00:00","50539","3.197","86.7","4.475","94.7","993.3999","10.58","72.4","0.0","0.4"],
    [1504043,"2026-01-24 06:10:00","50540","3.897","56.69","4.835","65.26","993.0862","10.37","75.39","0.013000000000000001","0.5"],
    [1504044,"2026-01-24 06:20:00","50541","3.025","31.42","4.933","37.65","993.0643","10.08","78.0","0.001","0.7"],
    [1504045,"2026-01-24 06:30:00","50542","1.006","59.67","3.234","27.07","993.5375","9.82","79.94","0.0","0.4"],
    [1504046,"2026-01-24 06:40:00","50543","1.817","18.73","4.769","357.8","993.4373","9.66","80.5","0.0","0.9"],
    [1504047,"2026-01-24 06:50:00","50544","3.6830000000000003","6.388","5.227","353.3","992.939","9.49","83.7","0.005","0.3"],
    [1504048,"2026-01-24 07:00:00","50545","2.227","16.24","2.94","24.22","993.1027","9.56","86.4","0.272","0.0"],
    [1504049,"2026-01-24 07:10:00","50546","2.383","18.11","3.005","12.78","992.9974","9.72","87.5","0.496","0.0"],
    [1504050,"2026-01-24 07:20:00","50547","2.262","1.9869999999999999","2.875","9.6","992.8157","9.73","88.9","0.146","0.1"],
    [1504051,"2026-01-24 07:30:00","50548","1.964","319.8","2.842","334.0","992.7674","9.54","90.3","0.168","0.9"],
    [1504052,"2026-01-24 07:40:00","50549","1.062","253.6","1.829","201.5","992.8588","9.38","91.9","0.7509999999999999","1.4"],
    [1504053,"2026-01-24 07:50:00","50550","0.914","282.6","2.0580000000000003","216.8","992.8268","9.26","93.8","1.251","1.1"],
    [1504054,"2026-01-24 08:00:00","50551","2.174","286.5","4.312","263.2","992.799","9.24","95.4","4.343","0.5"],
    [1504055,"2026-01-24 08:10:00","50552","2.986","270.7","4.867","274.2","992.8036","8.64","96.7","12.73","0.2"],
    [1504056,"2026-01-24 08:20:00","50553","3.013","300.9","4.1160000000000005","296.8","992.6611","8.57","98.6","20.61","0.1"],
    [1504057,"2026-01-24 08:30:00","50554","3.012","319.8","3.887","346.4","992.6234","8.93","99.9","31.52","0.4"],
    [1504058,"2026-01-24 08:40:00","50555","3.3539999999999996","329.3","4.606","350.4","992.6163","8.93","100.0","38.91","0.0"],
    [1504059,"2026-01-24 08:50:00","50556","5.644","312.8","8.3","304.8","992.5165","8.59","99.5","34.86","0.1"],
    [1504060,"2026-01-24 09:00:00","50557","7.16","320.2","9.83","324.2","992.2553","8.12","98.1","55.91","0.1"],
    [1504061,"2026-01-24 09:10:00","50558","5.928999999999999","306.2","9.67","307.9","992.0037","8.04","96.6","111.9","0.1"],
    [1504062,"2026-01-24 09:20:00","50559","4.369","290.4","6.697","296.7","992.5814","7.894","95.2","82.3","0.0"],
    [1504063,"2026-01-24 09:30:00","50560","6.08","289.1","11.34","274.3","992.8951","7.642","92.7","48.2","0.0"],
    [1504064,"2026-01-24 09:40:00","50561","6.46","291.7","10.62","279.9","993.0881","7.4079999999999995","91.2","57.51","0.1"],
    [1504065,"2026-01-24 09:50:00","50562","7.242000000000001","283.4","11.2","283.2","993.2888","7.1129999999999995","92.0","59.74","0.3"],
    [1504066,"2026-01-24 10:00:00","50563","7.33","284.4","11.79","278.9","993.653","6.67","92.1","27.19","0.1"],
    [1504067,"2026-01-24 10:10:00","50564","7.5","281.3","10.98","273.0","993.799","6.09","89.9","47.93","0.1"],
    [1504068,"2026-01-24 10:20:00","50565","6.5120000000000005","276.7","10.71","277.4","993.98","6.107","87.9","50.97","0.0"],
    [1504069,"2026-01-24 10:30:00","50566","4.8260000000000005","270.5","8.72","274.1","994.1827","6.101","87.2","54.68","0.0"],
    [1504070,"2026-01-24 10:40:00","50567","4.558","264.5","8.1","285.6","994.2332","6.127000000000001","86.1","53.43","0.0"],
    [1504071,"2026-01-24 10:50:00","50568","3.987","258.0","7.709","277.1","994.2582","6.16","85.2","44.82","0.0"],
    [1504072,"2026-01-24 11:00:00","50569","3.207","242.2","6.1739999999999995","257.3","994.3803","6.185","84.9","34.6","0.1"],
    [1504073,"2026-01-24 11:10:00","50570","3.4419999999999997","233.4","6.729","225.8","994.4505","6.138999999999999","84.7","22.85","0.1"],
    [1504074,"2026-01-24 11:20:00","50571","3.2239999999999998","225.8","5.292000000000001","195.9","994.4484","6.412999999999999","83.1","23.32","0.1"],
    [1504075,"2026-01-24 11:30:00","50572","3.877","221.0","7.0889999999999995","210.4","994.3541","6.439","82.6","29.35","0.1"],
    [1504076,"2026-01-24 11:40:00","50573","4.271","221.1","7.513","203.7","994.3174","6.369","83.2","35.81","0.2"],
    [1504077,"2026-01-24 11:50:00","50574","3.502","230.5","5.815","218.5","994.2833","6.297999999999999","84.8","55.44","0.2"],
    [1504078,"2026-01-24 12:00:00","50575","3.835","234.0","8.07","219.1","994.1144","6.236000000000001","85.5","91.0","0.1"],
    [1504079,"2026-01-24 12:10:00","50576","3.753","236.9","6.305","247.4","994.0012","6.335","84.6","131.4","0.1"],
    [1504080,"2026-01-24 12:20:00","50577","3.6889999999999996","236.5","6.109","263.4","993.9008","6.49","84.3","175.6","0.0"],
    [1504081,"2026-01-24 12:30:00","50578","3.93","237.6","6.893","230.1","993.8175","6.572","83.5","206.6","0.0"],
    [1504082,"2026-01-24 12:40:00","50579","4.092","234.6","7.938","230.3","993.8244","6.728","82.7","173.7","0.0"],
    [1504083,"2026-01-24 12:50:00","50580","3.61","234.1","6.5329999999999995","214.5","993.9179","6.752000000000001","82.8","144.7","0.0"],
    [1504084,"2026-01-24 13:00:00","50581","3.7310000000000003","238.9","7.611000000000001","225.2","994.0261","6.55","83.1","80.7","0.2"],
    [1504085,"2026-01-24 13:10:00","50582","4.532","264.3","7.905","273.5","994.0905","6.472","84.4","41.58","0.2"],
    [1504086,"2026-01-24 13:20:00","50583","5.968999999999999","276.1","9.21","283.6","994.0565","6.074","85.5","45.08","0.2"],
    [1504087,"2026-01-24 13:30:00","50584","4.263","265.6","7.905","277.8","994.2254","6.002000000000001","86.5","45.64","0.2"],
    [1504088,"2026-01-24 13:40:00","50585","4.559","277.9","7.644","306.1","994.2993","5.822","87.9","35.68","0.2"],
    [1504089,"2026-01-24 13:50:00","50586","6.454","290.6","10.55","292.5","994.2779","5.377000000000001","88.4","54.94","0.2"],
    [1504090,"2026-01-24 14:00:00","50587","6.553","284.7","10.09","277.8","994.3893","5.18","88.5","58.86","0.4"],
    [1504091,"2026-01-24 14:10:00","50588","5.246","280.9","8.53","260.5","994.5496","5.166","89.5","33.87","0.6"],
    [1504092,"2026-01-24 14:20:00","50589","4.936","288.4","7.415","280.9","994.7228","5.035","90.4","26.96","0.5"],
    [1504093,"2026-01-24 14:30:00","50590","5.072","290.9","8.66","278.6","994.773","5.13","91.0","31.49","0.2"],
    [1504094,"2026-01-24 14:40:00","50591","4.842","288.1","8.36","287.3","994.8031","5.372000000000001","91.3","21.74","0.2"],
    [1504095,"2026-01-24 14:50:00","50592","5.045","288.9","8.4","283.2","994.9021","5.757999999999999","91.2","15.62","0.4"],
    [1504096,"2026-01-24 15:00:00","50593","5.92","285.6","8.72","302.4","995.0089","6.013","90.5","15.45","0.4"],
    [1504097,"2026-01-24 15:10:00","50594","5.5","283.7","8.72","284.6","995.1997","6.152","90.0","16.09","0.3"],
    [1504098,"2026-01-24 15:20:00","50595","4.476","276.4","7.872999999999999","287.9","995.4084","6.221","90.0","18.94","0.1"],
    [1504099,"2026-01-24 15:30:00","50596","2.892","252.2","5.912999999999999","273.8","995.606","6.252999999999999","90.6","15.32","0.2"],
    [1504100,"2026-01-24 15:40:00","50597","2.92","229.2","5.031000000000001","231.4","995.6931","6.169","91.9","12.91","0.2"],
    [1504101,"2026-01-24 15:50:00","50598","3.042","226.7","5.651","217.2","995.7491","6.153","93.5","13.44","0.1"],
    [1504102,"2026-01-24 16:00:00","50599","3.699","217.1","5.88","215.0","995.8159","6.252999999999999","94.0","11.28","0.0"],
    [1504103,"2026-01-24 16:10:00","50600","4.742","215.5","6.9910000000000005","208.6","995.7356","6.382000000000001","92.8","10.36","0.0"],
    [1504104,"2026-01-24 16:20:00","50601","3.681","216.3","5.619","234.8","995.9833","6.825","89.1","9.21","0.0"],
    [1504105,"2026-01-24 16:30:00","50602","3.411","216.1","6.0760000000000005","218.4","996.184","7.2379999999999995","84.6","9.22","0.0"],
    [1504106,"2026-01-24 16:40:00","50603","2.1590000000000003","207.7","4.867","225.2","996.4254","7.642","78.97","8.47","0.0"],
    [1504107,"2026-01-24 16:50:00","50604","1.163","205.8","2.875","217.8","996.5996","7.746","77.57","5.351","0.0"],
    [1504108,"2026-01-24 17:00:00","50605","0.682","226.3","2.0909999999999997","209.4","996.7693","7.746","76.75","4.776","0.0"],
    [1504109,"2026-01-24 17:10:00","50606","0.46","156.8","1.3719999999999999","155.2","996.8651","7.934","76.42","2.639","0.0"],
    [1504110,"2026-01-24 17:20:00","50607","0.8909999999999999","206.5","1.699","219.1","996.9575","7.995","75.99","2.7119999999999997","0.0"],
    [1504111,"2026-01-24 17:30:00","50608","0.9","211.7","1.633","207.4","997.0724","8.02","75.37","2.609","0.0"],
    [1504112,"2026-01-24 17:40:00","50609","0.528","241.6","1.47","216.2","997.1857","8.11","75.17","2.2319999999999998","0.0"],
    [1504113,"2026-01-24 17:50:00","50610","0.054000000000000006","196.3","0.7509999999999999","172.4","997.2778","8.12","75.01","1.9469999999999998","0.0"],
    [1504114,"2026-01-24 18:00:00","50611","1.213","194.2","2.0580000000000003","188.4","997.3209","8.41","73.93","3.161","0.0"],
    [1504115,"2026-01-24 18:10:00","50612","1.0859999999999999","208.8","2.189","194.6","997.408","8.61","72.17","3.199","0.0"],
    [1504116,"2026-01-24 18:20:00","50613","0.973","240.4","2.417","241.2","997.4252","8.6","71.37","3.1430000000000002","0.0"],
    [1504117,"2026-01-24 18:30:00","50614","0.33899999999999997","245.7","1.013","225.5","997.5325","8.66","71.71","2.29","0.0"],
    [1504118,"2026-01-24 18:40:00","50615","1.276","220.8","2.385","208.6","997.6875","8.78","70.69","3.512","0.0"],
    [1504119,"2026-01-24 18:50:00","50616","0.58","251.8","1.3719999999999999","245.5","997.8356","8.88","69.72","2.6239999999999997","0.0"],
    [1504120,"2026-01-24 19:00:00","50617","0.428","306.4","1.2409999999999999","240.1","997.9736","8.88","70.42","2.36","0.0"],
    [1504121,"2026-01-24 19:10:00","50618","0.523","13.19","1.045","25.85","998.1035","8.93","72.35","1.9040000000000001","0.0"],
    [1504122,"2026-01-24 19:20:00","50619","0.19899999999999998","354.4","1.078","9.76","998.2431","8.87","71.48","2.194","0.0"],
    [1504123,"2026-01-24 19:30:00","50620","0.0","0.0","0.0","0.0","998.3436","8.94","70.16","2.0380000000000003","0.0"],
    [1504124,"2026-01-24 19:40:00","50621","0.222","114.8","0.7509999999999999","94.7","998.4565","9.14","70.56","1.859","0.0"],
    [1504125,"2026-01-24 19:50:00","50622","0.943","116.6","1.4369999999999998","140.4","998.5556","9.37","68.04","3.06","0.0"],
    [1504126,"2026-01-24 20:00:00","50623","0.815","133.2","2.0909999999999997","248.1","998.5914","9.63","65.01","2.642","0.0"],
    [1504127,"2026-01-24 20:10:00","50624","0.884","233.7","2.189","273.1","998.5621","9.6","61.66","3.489","0.0"],
    [1504128,"2026-01-24 20:20:00","50625","1.149","261.0","2.7769999999999997","261.7","998.699","9.62","60.77","2.76","0.0"],
    [1504129,"2026-01-24 20:30:00","50626","1.156","172.0","2.7769999999999997","172.8","998.8343","9.75","59.84","1.9709999999999999","0.0"],
    [1504130,"2026-01-24 20:40:00","50627","1.244","222.6","2.156","216.2","998.9741","9.49","60.7","0.515","0.0"],
    [1504131,"2026-01-24 20:50:00","50628","1.097","200.5","2.385","201.1","999.1844","9.48","61.18","0.07","0.0"],
    [1504132,"2026-01-24 21:00:00","50629","1.2209999999999999","215.4","2.123","259.3","999.2206","9.29","62.37","0.0","0.0"],
    [1504133,"2026-01-24 21:10:00","50630","2.003","258.5","7.415","270.6","999.3181","9.2","61.64","0.235","0.0"],
    [1504134,"2026-01-24 21:20:00","50631","3.8089999999999997","296.4","7.154","316.4","999.4561","9.27","60.29","0.706","0.0"],
    [1504135,"2026-01-24 21:30:00","50632","4.5489999999999995","310.0","7.285","303.0","999.6102","9.29","60.43","0.415","0.0"],
    [1504136,"2026-01-24 21:40:00","50633","6.001","314.2","9.51","328.2","999.7829","9.5","58.6","0.5760000000000001","0.0"],
    [1504137,"2026-01-24 21:50:00","50634","5.452999999999999","311.7","7.872999999999999","320.1","999.8605","9.5","57.71","0.366","0.0"],
    [1504138,"2026-01-24 22:00:00","50635","5.78","297.3","10.49","318.9","999.8605","9.38","57.39","0.08900000000000001","0.0"],
    [1504139,"2026-01-24 22:10:00","50636","4.499","293.2","7.056","314.4","999.9853","9.3","57.53","0.0","0.0"],
    [1504140,"2026-01-24 22:20:00","50637","3.889","294.5","5.88","284.6","1000.153","9.3","57.31","0.0","0.0"],
    [1504141,"2026-01-24 22:30:00","50638","3.491","301.2","5.782","286.5","1000.357","9.34","57.13","0.0","0.0"],
    [1504142,"2026-01-24 22:40:00","50639","3.286","308.0","6.9910000000000005","325.6","1000.508","9.33","58.31","0.0","0.0"],
    [1504143,"2026-01-24 22:50:00","50640","4.739","307.9","9.05","318.1","1000.559","9.41","57.64","0.0","0.0"],
    [1504144,"2026-01-24 23:00:00","50641","5.162999999999999","303.1","8.07","295.7","1000.532","9.36","57.6","0.0","0.0"],
    [1504145,"2026-01-24 23:10:00","50642","6.0360000000000005","306.6","8.26","310.0","1000.588","9.43","57.19","0.0","0.0"],
    [1504146,"2026-01-24 23:20:00","50643","6.391","304.7","9.67","307.2","1000.537","9.5","56.63","0.0","0.0"],
    [1504147,"2026-01-24 23:30:00","50644","6.859","311.2","9.8","309.8","1000.668","9.61","56.14","0.0","0.0"],
    [1504148,"2026-01-24 23:40:00","50645","7.672000000000001","299.2","12.02","303.6","1000.572","9.6","55.61","0.0","0.0"],
    [1504149,"2026-01-24 23:50:00","50646","7.093999999999999","298.9","11.01","307.0","1000.597","9.63","54.99","0.0","0.0"],
    [1504150,"2026-01-25 00:00:00","50647","5.207999999999999","303.8","8.1","316.6","1000.975","9.7","55.5","0.0","0.0"],
    [1504151,"2026-01-25 00:10:00","50648","3.84","318.3","7.056","322.1","1001.278","9.61","56.31","0.0","0.0"],
    [1504152,"2026-01-25 00:20:00","50649","5.888","315.9","11.37","334.8","1001.242","9.61","56.39","0.0","0.0"],
    [1504153,"2026-01-25 00:30:00","50650","7.382999999999999","321.8","11.14","325.9","1001.169","9.52","57.23","0.0","0.0"],
    [1504154,"2026-01-25 00:40:00","50651","5.33","310.1","9.05","306.8","1001.193","9.45","58.51","0.0","0.0"],
    [1504155,"2026-01-25 00:50:00","50652","4.386","300.4","6.795","313.2","1001.516","9.29","58.49","0.0","0.0"],
    [1504156,"2026-01-25 01:00:00","50653","4.502","292.3","7.84","296.9","1001.788","9.16","58.87","0.0","0.0"],
    [1504157,"2026-01-25 01:10:00","50654","5.204","297.7","9.77","303.1","1001.746","9.03","60.26","0.0","0.0"],
    [1504158,"2026-01-25 01:20:00","50655","5.475","300.1","8.49","309.4","1001.774","9.04","60.55","0.0","0.0"],
    [1504159,"2026-01-25 01:30:00","50656","4.76","301.7","7.154","295.4","1001.866","8.99","61.24","0.0","0.0"],
    [1504160,"2026-01-25 01:40:00","50657","3.5980000000000003","311.2","8.43","336.7","1002.011","9.01","61.55","0.0","0.0"],
    [1504161,"2026-01-25 01:50:00","50658","3.2260000000000004","320.7","6.109","331.1","1002.016","8.92","62.1","0.0","0.0"],
    [1504162,"2026-01-25 02:00:00","50659","5.545","320.2","8.43","304.9","1001.866","9.02","62.28","0.0","0.0"],
    [1504163,"2026-01-25 02:10:00","50660","5.735","310.8","10.0","314.2","1001.754","9.08","62.76","0.0","0.0"],
    [1504164,"2026-01-25 02:20:00","50661","5.542999999999999","306.8","9.73","299.9","1001.747","9.06","63.08","0.0","0.0"],
    [1504165,"2026-01-25 02:30:00","50662","4.916","297.8","10.22","318.5","1001.646","8.99","63.39","0.0","0.0"],
    [1504166,"2026-01-25 02:40:00","50663","6.577000000000001","303.5","10.62","306.7","1001.615","9.02","63.63","0.0","0.0"],
    [1504167,"2026-01-25 02:50:00","50664","6.23","305.3","11.07","322.0","1001.822","9.05","64.28","0.0","0.0"],
    [1504168,"2026-01-25 03:00:00","50665","6.066","300.5","9.31","306.2","1001.993","9.03","64.29","0.0","0.0"],
    [1504169,"2026-01-25 03:10:00","50666","3.8560000000000003","294.8","6.86","298.4","1002.312","9.0","64.14","0.0","0.0"],
    [1504170,"2026-01-25 03:20:00","50667","4.881","290.9","7.611000000000001","292.8","1002.296","8.95","63.95","0.0","0.0"],
    [1504171,"2026-01-25 03:30:00","50668","4.423","303.4","7.742000000000001","286.7","1002.379","9.01","64.19","0.0","0.0"],
    [1504172,"2026-01-25 03:40:00","50669","3.5810000000000004","298.4","5.847","296.5","1002.447","8.94","64.54","0.0","0.0"],
    [1504173,"2026-01-25 03:50:00","50670","3.576","302.7","5.978","290.1","1002.737","8.9","64.8","0.0","0.0"],
    [1504174,"2026-01-25 04:00:00","50671","4.588","324.8","7.0889999999999995","339.9","1002.879","8.95","64.76","0.0","0.0"],
    [1504175,"2026-01-25 04:10:00","50672","5.281000000000001","326.8","8.92","330.6","1002.912","8.93","64.7","0.0","0.0"],
    [1504176,"2026-01-25 04:20:00","50673","6.122000000000001","329.7","9.87","327.5","1003.108","8.95","64.64","0.0","0.0"],
    [1504177,"2026-01-25 04:30:00","50674","5.2139999999999995","333.2","9.34","338.5","1003.163","8.99","65.05","0.0","0.0"],
    [1504178,"2026-01-25 04:40:00","50675","5.132000000000001","337.0","8.17","329.4","1003.269","8.85","64.57","0.0","0.0"],
    [1504179,"2026-01-25 04:50:00","50676","5.485","346.1","7.807","343.1","1003.233","8.87","64.74","0.0","0.0"],
    [1504180,"2026-01-25 05:00:00","50677","5.599","345.4","9.21","325.2","1003.258","8.79","64.7","0.0","0.0"],
    [1504181,"2026-01-25 05:10:00","50678","5.156000000000001","337.3","7.4479999999999995","323.6","1003.266","8.84","64.54","0.0","0.0"],
    [1504182,"2026-01-25 05:20:00","50679","3.085","354.7","6.827000000000001","311.9","1003.287","8.73","65.45","0.0","0.0"],
    [1504183,"2026-01-25 05:30:00","50680","4.907","330.1","8.07","345.0","1003.306","8.91","64.72","0.0","0.0"],
    [1504184,"2026-01-25 05:40:00","50681","5.05","334.0","9.47","317.3","1003.292","8.97","63.87","0.0","0.0"],
    [1504185,"2026-01-25 05:50:00","50682","3.627","3.5","5.88","359.6","1003.279","8.66","65.26","0.0","0.0"],
    [1504186,"2026-01-25 06:00:00","50683","3.471","1.3969999999999998","5.978","336.4","1003.257","8.64","65.79","0.0","0.0"],
    [1504187,"2026-01-25 06:10:00","50684","1.7369999999999999","336.4","3.365","317.2","1003.426","8.69","65.99","0.0","0.0"],
    [1504188,"2026-01-25 06:20:00","50685","1.64","322.9","3.267","345.5","1003.541","8.7","65.24","0.0","0.0"],
    [1504189,"2026-01-25 06:30:00","50686","1.126","233.8","2.025","16.69","1003.894","8.75","64.47","0.0","0.0"],
    [1504190,"2026-01-25 06:40:00","50687","1.3980000000000001","232.5","3.6910000000000003","275.5","1004.009","8.62","64.2","0.0","0.0"],
    [1504191,"2026-01-25 06:50:00","50688","2.174","277.6","4.345","304.9","1003.951","8.55","63.66","0.0","0.0"],
    [1504192,"2026-01-25 07:00:00","50689","3.319","311.7","4.998","314.1","1003.71","8.54","64.35","0.0","0.0"],
    [1504193,"2026-01-25 07:10:00","50690","2.9739999999999998","291.2","4.802","274.4","1003.846","8.45","64.77","2.272","0.0"],
    [1504194,"2026-01-25 07:20:00","50691","2.396","286.5","5.651","288.6","1003.922","8.35","65.09","13.12","0.0"],
    [1504195,"2026-01-25 07:30:00","50692","4.417","294.7","7.023","298.7","1003.607","8.86","63.2","32.25","0.0"],
    [1504196,"2026-01-25 07:40:00","50693","3.7689999999999997","288.8","5.7170000000000005","280.5","1003.726","8.91","61.96","58.5","0.0"],
    [1504197,"2026-01-25 07:50:00","50694","3.103","285.0","5.063","300.9","1003.888","8.97","61.53","59.58","0.0"],
    [1504198,"2026-01-25 08:00:00","50695","3.0210000000000004","268.4","7.644","279.7","1004.043","9.11","60.27","75.1","0.0"],
    [1504199,"2026-01-25 08:10:00","50696","5.308","285.6","10.36","284.7","1003.745","9.5","57.64","70.26","0.0"],
    [1504200,"2026-01-25 08:20:00","50697","4.588","279.9","6.7620000000000005","285.5","1003.913","9.39","57.17","71.3","0.0"],
    [1504201,"2026-01-25 08:30:00","50698","3.784","283.1","6.337000000000001","271.6","1004.04","9.34","57.66","120.9","0.0"],
    [1504202,"2026-01-25 08:40:00","50699","3.1430000000000002","279.1","7.579","291.7","1004.013","9.5","57.18","154.9","0.0"],
    [1504203,"2026-01-25 08:50:00","50700","3.946","282.7","7.187","301.6","1003.863","9.52","57.42","167.1","0.0"],
    [1504204,"2026-01-25 09:00:00","50701","4.846","294.8","7.709","297.5","1003.646","9.69","56.45","212.3","0.0"],
    [1504205,"2026-01-25 09:10:00","50702","4.361000000000001","289.8","7.285","292.7","1003.634","9.85","55.86","250.0","0.0"],
    [1504206,"2026-01-25 09:20:00","50703","3.435","268.0","6.925","287.8","1003.828","10.12","55.12","251.4","0.0"],
    [1504207,"2026-01-25 09:30:00","50704","4.512","275.6","6.697","275.5","1003.899","10.34","53.71","267.7","0.0"],
    [1504208,"2026-01-25 09:40:00","50705","4.285","284.0","6.697","288.8","1003.742","10.3","54.14","313.7","0.0"],
    [1504209,"2026-01-25 09:50:00","50706","5.704","290.7","9.21","295.7","1003.648","10.27","54.57","312.5","0.0"],
    [1504210,"2026-01-25 10:00:00","50707","6.08","284.9","10.32","268.4","1003.564","10.49","54.21","429.6","0.0"],
    [1504211,"2026-01-25 10:10:00","50708","6.605","287.7","11.07","287.8","1003.54","10.97","52.39","411.8","0.0"],
    [1504212,"2026-01-25 10:20:00","50709","6.394","291.0","9.6","291.3","1003.53","11.07","51.13","425.5","0.0"],
    [1504213,"2026-01-25 10:30:00","50710","5.617000000000001","287.9","8.62","282.2","1003.442","11.26","51.01","447.2","0.0"],
    [1504214,"2026-01-25 10:40:00","50711","4.836","281.6","8.36","290.1","1003.612","11.53","50.73","481.9","0.0"],
    [1504215,"2026-01-25 10:50:00","50712","5.524","288.7","8.98","291.1","1003.454","11.56","50.42","506.2","0.0"],
    [1504216,"2026-01-25 11:00:00","50713","5.045","281.2","8.75","280.4","1003.219","11.98","49.91","482.5","0.0"],
    [1504217,"2026-01-25 11:10:00","50714","5.151","279.2","8.66","286.3","1003.001","12.29","49.39","477.4","0.0"],
    [1504218,"2026-01-25 11:20:00","50715","4.938","290.0","7.579","299.3","1002.815","12.53","49.14","507.5","0.0"],
    [1504219,"2026-01-25 11:30:00","50716","6.936","279.1","11.11","273.8","1002.472","12.77","47.91","515.8","0.0"],
    [1504220,"2026-01-25 11:40:00","50717","7.306","285.9","10.68","281.2","1002.446","12.89","47.19","510.8","0.0"],
    [1504221,"2026-01-25 11:50:00","50718","6.245","275.6","11.73","261.8","1002.411","13.12","46.54","509.1","0.0"],
    [1504222,"2026-01-25 12:00:00","50719","6.876","277.7","10.19","283.4","1001.955","13.19","45.2","454.1","0.0"],
    [1504223,"2026-01-25 12:10:00","50720","4.966","270.8","9.47","278.5","1002.001","13.32","45.75","496.0","0.0"],
    [1504224,"2026-01-25 12:20:00","50721","4.132","259.1","9.44","276.7","1001.879","13.47","45.38","526.5","0.0"],
    [1504225,"2026-01-25 12:30:00","50722","5.092","263.9","9.57","257.1","1001.983","13.49","45.28","579.1","0.0"],
    [1504226,"2026-01-25 12:40:00","50723","4.024","247.8","8.04","255.4","1001.968","13.75","44.97","538.3","0.0"],
    [1504227,"2026-01-25 12:50:00","50724","4.061","258.6","8.07","268.6","1001.891","13.77","44.9","470.2","0.0"],
    [1504228,"2026-01-25 13:00:00","50725","4.6080000000000005","249.4","10.26","269.7","1001.639","13.89","44.56","419.5","0.0"],
    [1504229,"2026-01-25 13:10:00","50726","4.092","249.1","9.18","267.9","1001.241","13.82","44.98","369.0","0.0"],
    [1504230,"2026-01-25 13:20:00","50727","5.551","265.8","9.54","287.0","1000.985","14.0","43.77","454.8","0.0"],
    [1504231,"2026-01-25 13:30:00","50728","6.474","283.5","10.22","288.2","1000.844","14.02","43.39","499.8","0.0"],
    [1504232,"2026-01-25 13:40:00","50729","6.1610000000000005","272.8","10.42","277.1","1000.809","14.1","43.11","478.5","0.0"],
    [1504233,"2026-01-25 13:50:00","50730","5.316","267.7","9.38","276.3","1000.671","14.46","42.47","483.4","0.0"],
    [1504234,"2026-01-25 14:00:00","50731","5.8660000000000005","269.6","10.68","270.2","1000.463","14.47","42.09","345.0","0.0"],
    [1504235,"2026-01-25 14:10:00","50732","4.3180000000000005","257.0","8.95","254.2","1000.394","14.28","42.92","90.6","0.0"],
    [1504236,"2026-01-25 14:20:00","50733","5.3020000000000005","262.7","11.14","277.2","1000.199","14.38","42.74","226.4","0.0"],
    [1504237,"2026-01-25 14:30:00","50734","4.827","265.5","11.24","258.6","1000.115","14.41","42.57","190.7","0.0"],
    [1504238,"2026-01-25 14:40:00","50735","3.9360000000000004","265.5","7.938","285.9","1000.075","14.66","42.85","232.3","0.0"],
    [1504239,"2026-01-25 14:50:00","50736","5.233","267.8","8.36","272.5","999.9121","14.58","42.84","236.5","0.0"],
    [1504240,"2026-01-25 15:00:00","50737","4.025","253.6","8.69","264.2","999.9271","14.85","42.63","282.1","0.0"],
    [1504241,"2026-01-25 15:10:00","50738","5.6129999999999995","264.3","10.22","262.0","999.8564","14.69","42.72","154.3","0.0"],
    [1504242,"2026-01-25 15:20:00","50739","4.468","258.7","10.06","272.0","999.697","14.73","42.87","165.6","0.0"],
    [1504243,"2026-01-25 15:30:00","50740","3.886","259.1","6.566","267.9","999.7431","14.8","43.17","188.9","0.0"],
    [1504244,"2026-01-25 15:40:00","50741","2.969","236.9","5.455","259.1","999.8617","14.97","44.33","174.7","0.0"],
    [1504245,"2026-01-25 15:50:00","50742","3.234","224.2","5.684","213.0","999.8516","14.68","49.72","108.4","0.0"],
    [1504246,"2026-01-25 16:00:00","50743","3.015","225.8","5.39","208.2","999.8386","14.2","54.1","26.64","0.0"],
    [1504247,"2026-01-25 16:10:00","50744","2.826","243.3","5.684","231.6","999.6094","14.08","57.07","42.82","0.0"],
    [1504248,"2026-01-25 16:20:00","50745","1.364","225.1","2.6460000000000004","246.5","999.4242","13.94","58.85","24.64","0.0"],
    [1504249,"2026-01-25 16:30:00","50746","2.042","243.4","4.247","268.4","999.2814","14.03","58.68","9.3","0.0"],
    [1504250,"2026-01-25 16:40:00","50747","2.278","251.1","3.528","260.4","999.1266","14.14","54.79","2.6189999999999998","0.0"],
    [1504251,"2026-01-25 16:50:00","50748","1.744","246.3","3.267","231.3","998.9689","14.24","50.93","0.485","0.0"],
    [1504252,"2026-01-25 17:00:00","50749","1.7530000000000001","253.3","3.332","263.7","998.7977","14.3","47.75","0.0","0.0"],
    [1504253,"2026-01-25 17:10:00","50750","1.534","274.3","5.815","352.4","998.7129","14.41","45.65","0.005","0.0"],
    [1504254,"2026-01-25 17:20:00","50751","9.23","339.2","16.37","4.651","999.6913","11.84","56.82","0.945","2.1"],
    [1504255,"2026-01-25 17:30:00","50752","3.8989999999999996","298.2","6.697","296.1","999.6462","8.92","70.51","0.7170000000000001","0.3"],
    [1504256,"2026-01-25 17:40:00","50753","1.724","294.6","3.5610000000000004","249.8","999.1954","8.94","71.97","0.018000000000000002","0.1"],
    [1504257,"2026-01-25 17:50:00","50754","2.5839999999999996","315.3","4.247","316.5","999.3423","9.26","73.31","0.634","0.0"],
    [1504258,"2026-01-25 18:00:00","50755","5.225","292.0","13.1","291.1","1000.058","9.61","74.62","1.9140000000000001","0.1"],
    [1504259,"2026-01-25 18:10:00","50756","4.586","268.8","12.05","286.6","1000.21","9.96","75.36","0.331","0.3"],
    [1504260,"2026-01-25 18:20:00","50757","2.234","237.5","4.2139999999999995","226.7","999.6094","9.63","78.2","1.462","0.0"],
    [1504261,"2026-01-25 18:30:00","50758","1.495","233.1","3.43","213.7","999.5057","9.82","77.72","1.222","0.0"],
    [1504262,"2026-01-25 18:40:00","50759","1.071","206.3","2.319","191.9","999.5989","9.93","77.11","1.337","0.0"],
    [1504263,"2026-01-25 18:50:00","50760","1.261","213.5","2.352","209.3","999.7899","10.04","76.3","1.584","0.0"],
    [1504264,"2026-01-25 19:00:00","50761","1.0190000000000001","241.7","2.025","274.6","999.7661","9.96","75.03","1.3359999999999999","0.0"],
    [1504265,"2026-01-25 19:10:00","50762","1.27","250.5","1.993","253.9","999.8391","9.95","73.77","0.627","0.0"],
    [1504266,"2026-01-25 19:20:00","50763","1.9040000000000001","275.6","2.548","278.5","1000.059","9.83","74.59","0.685","0.0"],
    [1504267,"2026-01-25 19:30:00","50764","2.344","286.7","3.6260000000000003","279.3","1000.094","9.95","75.01","1.7530000000000001","0.0"],
    [1504268,"2026-01-25 19:40:00","50765","2.09","260.2","3.397","288.6","999.995","10.0","72.62","1.483","0.0"],
    [1504269,"2026-01-25 19:50:00","50766","1.617","237.5","3.0380000000000003","226.1","1000.018","10.06","71.06","0.62","0.0"],
    [1504270,"2026-01-25 20:00:00","50767","1.136","238.9","3.005","258.5","1000.079","9.99","71.48","0.044000000000000004","0.0"],
    [1504271,"2026-01-25 20:10:00","50768","0.375","258.6","1.111","262.7","1000.078","9.77","72.64","0.0","0.0"],
    [1504272,"2026-01-25 20:20:00","50769","0.42100000000000004","171.3","1.4369999999999998","103.8","999.9913","9.63","73.8","0.0","0.0"],
    [1504273,"2026-01-25 20:30:00","50770","0.7659999999999999","196.4","2.025","217.1","999.7466","9.83","74.13","0.002","0.0"],
    [1504274,"2026-01-25 20:40:00","50771","0.884","10.48","2.9730000000000003","21.76","999.6574","9.95","72.92","0.02","0.0"],
    [1504275,"2026-01-25 20:50:00","50772","2.9419999999999997","357.8","4.377","319.1","999.5697","10.25","70.91","0.0","0.0"],
    [1504276,"2026-01-25 21:00:00","50773","2.46","291.3","6.141","266.0","999.8207","10.14","69.65","0.0","0.0"],
    [1504277,"2026-01-25 21:10:00","50774","5.021","292.9","7.218999999999999","304.0","999.7849","10.63","64.5","0.02","0.0"],
    [1504278,"2026-01-25 21:20:00","50775","4.45","286.2","7.775","278.5","1000.211","10.74","61.18","0.0","0.0"],
    [1504279,"2026-01-25 21:30:00","50776","5.033","301.7","8.13","316.6","1000.372","10.63","60.78","0.0","0.0"],
    [1504280,"2026-01-25 21:40:00","50777","5.381","301.8","8.4","312.4","1000.492","10.53","60.43","0.0","0.0"],
    [1504281,"2026-01-25 21:50:00","50778","8.67","294.0","14.14","285.4","1000.049","10.31","59.83","0.192","0.1"],
    [1504282,"2026-01-25 22:00:00","50779","8.89","294.4","13.13","282.3","1000.141","10.19","59.01","0.364","0.0"],
    [1504283,"2026-01-25 22:10:00","50780","8.56","297.6","12.15","292.4","1000.33","10.03","59.46","0.01","0.0"],
    [1504284,"2026-01-25 22:20:00","50781","8.23","299.5","13.03","299.5","1000.507","9.95","60.07","0.0","0.0"],
    [1504285,"2026-01-25 22:30:00","50782","8.27","306.6","12.45","297.0","1000.827","9.89","60.04","0.0","0.0"],
    [1504286,"2026-01-25 22:40:00","50783","8.56","317.1","12.32","325.2","1001.078","9.9","59.89","0.0","0.0"],
    [1504287,"2026-01-25 22:50:00","50784","8.27","324.2","11.24","310.0","1001.279","9.96","58.63","0.0","0.0"],
    [1504288,"2026-01-25 23:00:00","50785","6.686","326.2","9.8","308.8","1001.335","9.91","58.6","0.0","0.0"],
    [1504289,"2026-01-25 23:10:00","50786","6.843","324.4","13.13","324.3","1001.36","9.84","58.69","0.0","0.0"],
    [1504290,"2026-01-25 23:20:00","50787","9.22","304.8","14.8","312.5","1001.146","9.91","57.34","0.0","0.0"],
    [1504291,"2026-01-25 23:30:00","50788","8.2","300.3","12.45","301.5","1001.263","9.8","56.83","0.0","0.0"],
    [1504292,"2026-01-25 23:40:00","50789","7.4510000000000005","298.1","13.39","297.1","1001.31","9.74","57.2","0.0","0.0"],
    [1504293,"2026-01-25 23:50:00","50790","8.39","295.5","13.49","298.5","1001.331","9.87","56.12","0.0","0.0"],
    [1504294,"2026-01-26 00:00:00","50791","7.212000000000001","296.2","12.12","300.7","1001.45","9.85","56.0","0.0","0.0"],
    [1504295,"2026-01-26 00:10:00","50792","5.983","298.7","10.36","309.9","1001.419","9.77","56.79","0.0","0.0"],
    [1504296,"2026-01-26 00:20:00","50793","6.507999999999999","298.6","12.32","292.0","1001.541","9.69","57.29","0.0","0.0"],
    [1504297,"2026-01-26 00:30:00","50794","4.802","292.1","8.17","309.6","1001.898","9.61","57.77","0.0","0.0"],
    [1504298,"2026-01-26 00:40:00","50795","3.444","267.5","7.023","264.3","1001.981","9.45","58.69","0.0","0.0"],
    [1504299,"2026-01-26 00:50:00","50796","4.176","274.9","7.938","281.1","1002.217","9.41","59.18","0.0","0.0"],
    [1504300,"2026-01-26 01:00:00","50797","3.988","290.7","7.84","289.5","1002.211","9.55","58.73","0.0","0.0"],
    [1504301,"2026-01-26 01:10:00","50798","4.263","267.9","8.72","259.0","1002.169","9.47","58.84","0.0","0.0"],
    [1504302,"2026-01-26 01:20:00","50799","3.2510000000000003","254.6","7.415","266.0","1002.302","9.39","59.74","0.0","0.0"],
    [1504303,"2026-01-26 01:30:00","50800","2.725","268.5","4.998","251.0","1002.368","9.44","59.84","0.0","0.0"],
    [1504304,"2026-01-26 01:40:00","50801","4.303","274.5","8.85","282.7","1002.289","9.54","59.56","0.0","0.0"],
    [1504305,"2026-01-26 01:50:00","50802","2.4419999999999997","233.8","5.292000000000001","245.5","1002.555","9.48","60.03","0.0","0.0"],
    [1504306,"2026-01-26 02:00:00","50803","2.3209999999999997","226.7","4.606","231.2","1002.66","9.55","59.97","0.0","0.0"],
    [1504307,"2026-01-26 02:10:00","50804","3.108","250.4","7.938","267.4","1002.683","9.6","59.85","0.0","0.0"],
    [1504308,"2026-01-26 02:20:00","50805","2.2","254.0","5.912999999999999","259.4","1002.661","9.59","59.96","0.0","0.0"],
    [1504309,"2026-01-26 02:30:00","50806","1.486","221.2","2.9730000000000003","200.0","1002.652","9.54","60.05","0.0","0.0"],
    [1504310,"2026-01-26 02:40:00","50807","2.738","195.2","6.468","216.5","1002.58","9.64","60.18","0.0","0.0"],
    [1504311,"2026-01-26 02:50:00","50808","3.112","248.3","8.79","259.0","1002.555","9.65","60.17","0.0","0.0"],
    [1504312,"2026-01-26 03:00:00","50809","4.325","279.3","8.85","297.1","1002.385","9.65","59.37","0.0","0.0"],
    [1504313,"2026-01-26 03:10:00","50810","6.385","294.4","10.22","295.0","1002.3","9.73","58.93","0.0","0.0"],
    [1504314,"2026-01-26 03:20:00","50811","4.843999999999999","283.9","11.17","293.1","1002.488","9.7","58.84","0.0","0.0"],
    [1504315,"2026-01-26 03:30:00","50812","3.884","294.4","10.85","309.9","1002.474","9.7","58.98","0.0","0.0"],
    [1504316,"2026-01-26 03:40:00","50813","8.08","302.3","13.16","282.8","1002.22","9.82","58.65","0.0","0.0"],
    [1504317,"2026-01-26 03:50:00","50814","8.8","299.5","16.92","294.3","1002.024","9.82","58.57","0.0","0.0"],
    [1504318,"2026-01-26 04:00:00","50815","9.42","295.9","14.57","305.2","1001.904","9.75","58.88","0.0","0.0"],
    [1504319,"2026-01-26 04:10:00","50816","8.77","300.6","15.71","303.3","1002.142","9.63","59.7","0.0","0.0"],
    [1504320,"2026-01-26 04:20:00","50817","9.39","301.8","14.11","298.9","1002.182","9.58","60.41","0.0","0.0"],
    [1504321,"2026-01-26 04:30:00","50818","10.56","302.6","18.2","304.9","1001.898","9.54","60.73","0.0","0.0"],
    [1504322,"2026-01-26 04:40:00","50819","11.12","303.4","16.69","301.1","1001.69","9.5","61.09","0.0","0.0"],
    [1504323,"2026-01-26 04:50:00","50820","10.2","300.5","14.57","302.5","1001.895","9.49","61.39","0.0","0.0"],
    [1504324,"2026-01-26 05:00:00","50821","10.02","303.5","15.81","305.7","1002.144","9.59","61.21","0.0","0.0"],
    [1504325,"2026-01-26 05:10:00","50822","10.88","301.3","16.5","312.8","1002.18","9.64","60.72","0.0","0.0"],
    [1504326,"2026-01-26 05:20:00","50823","10.93","299.7","18.36","297.7","1002.228","9.67","60.58","0.0","0.0"],
    [1504327,"2026-01-26 05:30:00","50824","9.97","299.7","15.35","304.8","1002.589","9.68","60.64","0.0","0.0"],
    [1504328,"2026-01-26 05:40:00","50825","8.76","299.5","13.69","304.8","1002.713","9.69","60.96","0.0","0.0"],
    [1504329,"2026-01-26 05:50:00","50826","8.21","304.7","12.81","305.4","1002.942","9.71","60.97","0.0","0.0"],
    [1504330,"2026-01-26 06:00:00","50827","8.19","305.5","13.43","300.0","1003.189","9.66","61.66","0.0","0.0"],
    [1504331,"2026-01-26 06:10:00","50828","9.01","302.9","15.32","304.9","1003.259","9.65","61.45","0.0","0.0"],
    [1504332,"2026-01-26 06:20:00","50829","8.41","303.9","12.22","301.2","1003.71","9.65","61.45","0.0","0.0"],
    [1504333,"2026-01-26 06:30:00","50830","8.38","304.2","13.13","293.5","1003.974","9.67","61.28","0.0","0.0"],
    [1504334,"2026-01-26 06:40:00","50831","6.824","306.6","12.51","305.9","1004.381","9.79","61.13","0.0","0.0"],
    [1504335,"2026-01-26 06:50:00","50832","6.4239999999999995","312.6","10.55","305.5","1004.728","9.97","60.28","0.0","0.0"],
    [1504336,"2026-01-26 07:00:00","50833","6.242999999999999","315.8","10.55","312.9","1004.967","9.83","59.73","0.016","0.0"],
    [1504337,"2026-01-26 07:10:00","50834","4.122","336.1","6.925","339.8","1005.313","9.79","60.42","1.9240000000000002","0.0"],
    [1504338,"2026-01-26 07:20:00","50835","3.616","352.5","5.782","348.8","1005.627","9.62","60.13","11.05","0.0"],
    [1504339,"2026-01-26 07:30:00","50836","2.049","339.9","5.521","296.1","1005.726","9.68","59.4","15.18","0.0"],
    [1504340,"2026-01-26 07:40:00","50837","2.687","343.9","4.965","304.1","1005.944","9.63","59.79","26.27","0.0"],
    [1504341,"2026-01-26 07:50:00","50838","2.5989999999999998","287.7","5.651","274.5","1006.139","9.49","59.42","49.21","0.0"],
    [1504342,"2026-01-26 08:00:00","50839","1.594","263.9","3.071","325.8","1006.497","9.6","59.29","54.44","0.0"],
    [1504343,"2026-01-26 08:10:00","50840","2.576","308.2","5.847","319.3","1006.794","9.63","59.25","78.25","0.0"],
    [1504344,"2026-01-26 08:20:00","50841","4.317","308.4","7.644","319.0","1006.92","9.72","58.98","157.3","0.0"],
    [1504345,"2026-01-26 08:30:00","50842","5.827000000000001","309.6","8.79","306.2","1006.837","9.91","59.53","209.5","0.0"],
    [1504346,"2026-01-26 08:40:00","50843","7.5329999999999995","308.2","10.22","331.7","1006.519","9.98","60.06","213.3","0.0"],
    [1504347,"2026-01-26 08:50:00","50844","7.598","310.2","10.65","319.4","1006.531","10.15","60.21","181.4","0.0"],
    [1504348,"2026-01-26 09:00:00","50845","8.08","307.3","12.48","311.2","1006.517","10.28","59.97","222.8","0.0"],
    [1504349,"2026-01-26 09:10:00","50846","6.784","302.8","9.7","308.9","1006.584","10.29","59.93","202.6","0.0"],
    [1504350,"2026-01-26 09:20:00","50847","6.361000000000001","309.9","10.65","319.4","1006.768","10.4","60.49","196.7","0.0"],
    [1504351,"2026-01-26 09:30:00","50848","6.84","304.0","10.55","302.6","1006.838","10.49","60.23","176.6","0.0"],
    [1504352,"2026-01-26 09:40:00","50849","7.212000000000001","303.1","10.98","305.5","1006.939","10.57","59.45","207.5","0.0"],
    [1504353,"2026-01-26 09:50:00","50850","6.917999999999999","304.4","10.94","303.6","1007.159","10.66","59.59","224.7","0.0"],
    [1504354,"2026-01-26 10:00:00","50851","7.35","309.6","11.73","312.4","1007.246","10.8","59.32","307.6","0.0"],
    [1504355,"2026-01-26 10:10:00","50852","6.351","306.6","9.83","316.3","1007.129","10.92","58.83","280.8","0.0"],
    [1504356,"2026-01-26 10:20:00","50853","6.199","306.7","9.34","319.3","1007.147","11.11","58.71","333.4","0.0"],
    [1504357,"2026-01-26 10:30:00","50854","6.987","308.0","10.68","314.9","1007.193","11.29","58.18","389.6","0.0"],
    [1504358,"2026-01-26 10:40:00","50855","6.412000000000001","302.4","9.54","315.9","1007.421","11.42","57.45","415.0","0.0"],
    [1504359,"2026-01-26 10:50:00","50856","7.172999999999999","297.2","11.27","303.8","1007.448","11.55","56.49","510.3","0.0"],
    [1504360,"2026-01-26 11:00:00","50857","7.002000000000001","296.0","12.09","315.9","1007.372","11.75","56.02","495.6","0.0"],
    [1504361,"2026-01-26 11:10:00","50858","7.244","300.4","12.05","292.0","1007.233","11.97","55.39","545.5","0.0"],
    [1504362,"2026-01-26 11:20:00","50859","6.774","296.2","10.45","297.2","1007.197","12.2","54.34","536.1","0.0"],
    [1504363,"2026-01-26 11:30:00","50860","8.61","301.9","12.35","305.5","1006.953","12.33","53.56","475.0","0.0"],
    [1504364,"2026-01-26 11:40:00","50861","7.377000000000001","296.7","12.12","291.7","1006.842","12.46","53.77","449.9","0.0"],
    [1504365,"2026-01-26 11:50:00","50862","8.54","295.2","13.3","312.7","1006.58","12.63","52.83","531.6","0.0"],
    [1504366,"2026-01-26 12:00:00","50863","6.659","291.5","12.12","296.5","1006.709","12.9","52.38","491.2","0.0"],
    [1504367,"2026-01-26 12:10:00","50864","8.35","292.8","14.31","313.4","1006.588","12.94","51.59","355.7","0.0"],
    [1504368,"2026-01-26 12:20:00","50865","8.89","296.5","14.31","303.5","1006.394","12.89","51.42","387.3","0.0"],
    [1504369,"2026-01-26 12:30:00","50866","7.682","291.8","11.4","292.0","1006.37","12.98","51.21","409.5","0.0"],
    [1504370,"2026-01-26 12:40:00","50867","8.35","288.6","15.39","284.4","1006.187","12.93","51.17","273.3","0.0"],
    [1504371,"2026-01-26 12:50:00","50868","6.791","280.9","11.37","288.7","1006.314","12.86","51.63","281.4","0.0"],
    [1504372,"2026-01-26 13:00:00","50869","5.813","277.8","10.09","293.3","1006.306","12.97","51.84","351.0","0.0"],
    [1504373,"2026-01-26 13:10:00","50870","5.599","271.3","11.11","252.0","1006.22","13.15","51.8","414.1","0.0"],
    [1504374,"2026-01-26 13:20:00","50871","6.182","265.9","11.14","255.9","1006.111","13.3","51.36","369.9","0.0"],
    [1504375,"2026-01-26 13:30:00","50872","7.805","276.0","12.54","274.7","1005.877","13.26","51.56","333.7","0.0"],
    [1504376,"2026-01-26 13:40:00","50873","6.662999999999999","266.6","10.94","269.9","1006.221","13.47","51.3","443.5","0.0"],
    [1504377,"2026-01-26 13:50:00","50874","6.43","272.2","11.27","270.0","1006.415","13.92","50.05","508.1","0.0"],
    [1504378,"2026-01-26 14:00:00","50875","8.39","284.3","12.77","287.5","1005.99","14.02","48.98","460.2","0.0"],
    [1504379,"2026-01-26 14:10:00","50876","8.4","282.3","13.1","286.5","1005.791","14.23","47.93","369.9","0.0"],
    [1504380,"2026-01-26 14:20:00","50877","8.35","286.7","12.58","279.7","1005.745","14.25","47.02","321.5","0.0"],
    [1504381,"2026-01-26 14:30:00","50878","7.317","285.0","10.62","295.0","1005.914","14.35","46.81","234.9","0.0"],
    [1504382,"2026-01-26 14:40:00","50879","6.869","288.7","9.96","288.2","1005.89","14.33","46.79","210.8","0.0"],
    [1504383,"2026-01-26 14:50:00","50880","5.617999999999999","285.8","8.89","281.8","1006.008","14.34","46.88","190.4","0.0"],
    [1504384,"2026-01-26 15:00:00","50881","5.43","292.5","8.33","305.9","1006.048","14.43","46.98","163.2","0.0"],
    [1504385,"2026-01-26 15:10:00","50882","4.6339999999999995","286.3","7.775","290.6","1006.405","14.45","46.57","142.9","0.0"],
    [1504386,"2026-01-26 15:20:00","50883","4.162","276.8","7.611000000000001","290.1","1006.443","14.46","46.29","135.5","0.0"],
    [1504387,"2026-01-26 15:30:00","50884","3.5180000000000002","277.5","6.239","280.9","1006.68","14.43","46.49","120.1","0.0"],
    [1504388,"2026-01-26 15:40:00","50885","3.705","272.6","6.37","286.1","1006.748","14.36","46.38","95.8","0.0"],
    [1504389,"2026-01-26 15:50:00","50886","5.706","273.9","9.05","264.7","1006.528","14.25","45.74","82.6","0.0"],
    [1504390,"2026-01-26 16:00:00","50887","5.69","277.9","8.66","263.4","1006.598","14.14","46.01","63.27","0.0"],
    [1504391,"2026-01-26 16:10:00","50888","4.643","276.1","6.9910000000000005","268.7","1006.811","14.07","46.09","44.62","0.0"],
    [1504392,"2026-01-26 16:20:00","50889","4.22","283.6","6.7620000000000005","295.2","1006.723","14.0","46.83","32.02","0.0"],
    [1504393,"2026-01-26 16:30:00","50890","2.81","265.2","5.945","278.1","1006.845","13.96","46.79","22.99","0.0"],
    [1504394,"2026-01-26 16:40:00","50891","2.142","261.0","5.129","290.6","1007.044","13.94","46.55","13.99","0.0"],
    [1504395,"2026-01-26 16:50:00","50892","4.447","285.7","6.042999999999999","300.3","1006.861","13.87","47.23","5.564","0.0"],
    [1504396,"2026-01-26 17:00:00","50893","3.2969999999999997","271.9","6.664","262.0","1006.936","13.75","47.69","1.608","0.0"],
    [1504397,"2026-01-26 17:10:00","50894","3.19","282.3","6.0760000000000005","291.7","1007.029","13.7","48.09","0.053","0.0"],
    [1504398,"2026-01-26 17:20:00","50895","3.415","290.6","5.912999999999999","287.4","1007.119","13.75","47.74","0.0","0.0"],
    [1504399,"2026-01-26 17:30:00","50896","2.662","275.5","4.312","265.2","1007.255","13.6","48.5","0.0","0.0"],
    [1504400,"2026-01-26 17:40:00","50897","2.474","280.7","4.051","282.1","1007.266","13.58","49.03","0.0","0.0"],
    [1504401,"2026-01-26 17:50:00","50898","1.222","241.3","2.907","255.5","1007.466","13.5","49.31","0.0","0.0"],
    [1504402,"2026-01-26 18:00:00","50899","1.923","241.4","2.875","222.0","1007.547","13.51","49.27","0.0","0.0"],
    [1504403,"2026-01-26 18:10:00","50900","2.65","236.2","4.998","224.5","1007.364","13.52","49.49","0.0","0.0"],
    [1504404,"2026-01-26 18:20:00","50901","2.045","219.0","3.92","226.8","1007.409","13.58","50.0","0.0","0.0"],
    [1504405,"2026-01-26 18:30:00","50902","1.5759999999999998","217.3","3.659","226.0","1007.461","13.37","50.85","0.0","0.0"],
    [1504406,"2026-01-26 18:40:00","50903","2.115","237.2","4.41","214.7","1007.375","13.26","50.69","0.0","0.0"],
    [1504407,"2026-01-26 18:50:00","50904","2.68","233.6","4.312","222.6","1007.483","13.04","53.13","0.0","0.0"],
    [1504408,"2026-01-26 19:00:00","50905","2.391","234.9","4.083","212.9","1007.535","12.95","55.24","0.0","0.0"],
    [1504409,"2026-01-26 19:10:00","50906","1.8519999999999999","242.8","3.103","262.2","1007.531","12.76","56.45","0.0","0.0"],
    [1504410,"2026-01-26 19:20:00","50907","1.931","243.8","3.201","215.8","1007.569","12.71","57.11","0.0","0.0"],
    [1504411,"2026-01-26 19:30:00","50908","1.575","254.3","3.397","220.7","1007.633","12.51","59.16","0.0","0.0"],
    [1504412,"2026-01-26 19:40:00","50909","1.8219999999999998","252.4","3.6260000000000003","222.5","1007.577","12.62","58.5","0.0","0.0"],
    [1504413,"2026-01-26 19:50:00","50910","1.26","261.2","2.6460000000000004","278.8","1007.356","12.35","60.78","0.0","0.1"],
    [1504414,"2026-01-26 20:00:00","50911","1.3230000000000002","235.0","3.267","229.0","1007.255","12.33","61.27","0.0","0.0"],
    [1504415,"2026-01-26 20:10:00","50912","2.326","233.3","3.7239999999999998","244.1","1007.168","12.55","58.7","0.0","0.0"],
    [1504416,"2026-01-26 20:20:00","50913","1.817","219.5","3.495","229.2","1007.099","12.37","59.77","0.0","0.0"],
    [1504417,"2026-01-26 20:30:00","50914","1.732","229.4","3.136","228.3","1006.985","12.33","61.15","0.0","0.0"],
    [1504418,"2026-01-26 20:40:00","50915","1.4809999999999999","231.5","3.299","231.7","1006.948","12.43","61.0","0.0","0.0"],
    [1504419,"2026-01-26 20:50:00","50916","2.237","246.2","3.985","260.4","1006.901","12.66","59.12","0.0","0.0"],
    [1504420,"2026-01-26 21:00:00","50917","2.353","239.2","3.5610000000000004","218.6","1006.781","12.62","58.22","0.0","0.0"],
    [1504421,"2026-01-26 21:10:00","50918","1.73","240.3","2.875","224.1","1006.61","12.55","59.01","0.0","0.0"],
    [1504422,"2026-01-26 21:20:00","50919","1.2790000000000001","234.1","2.221","241.3","1006.405","12.38","58.85","0.0","0.0"],
    [1504423,"2026-01-26 21:30:00","50920","1.3659999999999999","230.2","2.025","230.2","1006.199","12.39","58.73","0.0","0.0"],
    [1504424,"2026-01-26 21:40:00","50921","1.442","232.2","2.417","249.4","1006.114","12.35","59.28","0.0","0.0"],
    [1504425,"2026-01-26 21:50:00","50922","1.605","238.4","2.842","224.3","1006.169","12.34","59.45","0.0","0.0"],
    [1504426,"2026-01-26 22:00:00","50923","1.399","251.7","2.483","231.1","1006.079","12.23","59.86","0.0","0.0"],
    [1504427,"2026-01-26 22:10:00","50924","0.8490000000000001","247.9","1.633","245.9","1006.016","11.91","60.91","0.0","0.0"],
    [1504428,"2026-01-26 22:20:00","50925","1.4469999999999998","234.1","2.5810000000000004","248.4","1005.997","12.12","60.77","0.0","0.0"],
    [1504429,"2026-01-26 22:30:00","50926","1.419","241.6","2.9730000000000003","279.2","1005.936","12.1","60.93","0.0","0.0"],
    [1504430,"2026-01-26 22:40:00","50927","1.47","247.0","2.8089999999999997","251.1","1005.831","11.9","61.69","0.0","0.0"],
    [1504431,"2026-01-26 22:50:00","50928","1.829","260.8","3.6910000000000003","262.6","1005.758","11.62","62.74","0.0","0.0"],
    [1504432,"2026-01-26 23:00:00","50929","1.24","262.4","2.679","280.9","1005.824","11.53","64.29","0.0","0.0"],
    [1504433,"2026-01-26 23:10:00","50930","1.5930000000000002","271.6","2.319","265.6","1005.789","11.52","64.51","0.0","0.0"],
    [1504434,"2026-01-26 23:20:00","50931","1.851","266.2","2.613","260.4","1005.745","11.46","64.67","0.0","0.0"],
    [1504435,"2026-01-26 23:30:00","50932","1.79","274.6","2.515","277.4","1005.725","11.43","65.22","0.0","0.0"],
    [1504436,"2026-01-26 23:40:00","50933","1.55","261.8","2.548","289.8","1005.569","11.63","64.76","0.0","0.0"],
    [1504437,"2026-01-26 23:50:00","50934","1.733","276.5","2.483","286.1","1005.387","11.69","64.3","0.0","0.0"],
    [1504438,"2026-01-27 00:00:00","50935","1.6540000000000001","259.3","2.483","264.6","1005.063","11.79","64.1","0.0","0.0"],
    [1504439,"2026-01-27 00:10:00","50936","1.5859999999999999","261.8","2.221","251.3","1004.903","11.89","63.23","0.0","0.0"],
    [1504440,"2026-01-27 00:20:00","50937","1.8969999999999998","260.5","2.613","268.9","1004.944","11.88","63.22","0.0","0.0"],
    [1504441,"2026-01-27 00:30:00","50938","1.9569999999999999","258.0","3.397","265.3","1004.851","11.9","63.34","0.0","0.0"],
    [1504442,"2026-01-27 00:40:00","50939","1.6640000000000001","260.7","3.0380000000000003","263.3","1004.8","12.02","62.87","0.0","0.0"],
    [1504443,"2026-01-27 00:50:00","50940","1.3130000000000002","261.5","2.515","272.5","1004.798","12.07","62.63","0.0","0.0"],
    [1504444,"2026-01-27 01:00:00","50941","1.6","265.0","2.189","267.0","1004.86","12.01","62.83","0.0","0.0"],
    [1504445,"2026-01-27 01:10:00","50942","1.49","273.8","2.189","280.2","1004.891","11.91","63.66","0.0","0.0"],
    [1504446,"2026-01-27 01:20:00","50943","1.3980000000000001","281.2","2.679","278.6","1004.821","12.08","63.18","0.0","0.0"],
    [1504447,"2026-01-27 01:30:00","50944","1.0490000000000002","234.3","1.666","202.0","1004.682","12.03","62.8","0.0","0.0"],
    [1504448,"2026-01-27 01:40:00","50945","0.703","239.4","1.666","238.5","1004.501","11.91","62.98","0.0","0.0"],
    [1504449,"2026-01-27 01:50:00","50946","0.763","257.4","1.4369999999999998","259.8","1004.437","11.68","63.68","0.0","0.0"],
    [1504450,"2026-01-27 02:00:00","50947","0.76","238.3","1.209","233.5","1004.322","11.65","64.24","0.0","0.0"],
    [1504451,"2026-01-27 02:10:00","50948","0.5760000000000001","267.5","1.078","273.7","1004.161","11.61","64.42","0.0","0.0"],
    [1504452,"2026-01-27 02:20:00","50949","0.7","256.7","1.176","220.6","1004.116","11.47","64.89","0.0","0.0"],
    [1504453,"2026-01-27 02:30:00","50950","1.074","278.2","1.568","262.7","1004.117","11.35","66.03","0.0","0.0"],
    [1504454,"2026-01-27 02:40:00","50951","1.046","298.1","2.319","329.1","1003.932","11.48","65.57","0.0","0.0"],
    [1504455,"2026-01-27 02:50:00","50952","0.865","300.5","1.797","304.2","1003.804","11.78","64.11","0.0","0.0"],
    [1504456,"2026-01-27 03:00:00","50953","0.92","219.7","1.829","185.2","1003.503","11.85","63.61","0.0","0.0"],
    [1504457,"2026-01-27 03:10:00","50954","2.384","198.8","3.0380000000000003","187.1","1003.24","11.88","64.71","0.0","0.0"],
    [1504458,"2026-01-27 03:20:00","50955","1.5430000000000001","220.5","2.483","212.1","1003.209","11.87","64.65","0.0","0.0"],
    [1504459,"2026-01-27 03:30:00","50956","1.252","227.2","1.829","217.3","1003.19","11.85","65.2","0.0","0.0"],
    [1504460,"2026-01-27 03:40:00","50957","1.06","250.0","1.7309999999999999","260.9","1002.917","11.53","66.16","0.0","0.0"],
    [1504461,"2026-01-27 03:50:00","50958","0.943","234.0","1.7309999999999999","228.7","1002.8","11.35","67.61","0.0","0.0"],
    [1504462,"2026-01-27 04:00:00","50959","1.165","252.2","1.8619999999999999","263.1","1002.732","11.06","69.05","0.0","0.0"],
    [1504463,"2026-01-27 04:10:00","50960","1.297","256.9","2.0909999999999997","258.1","1002.568","10.94","70.72","0.0","0.0"],
    [1504464,"2026-01-27 04:20:00","50961","1.172","247.1","1.96","261.7","1002.427","10.89","71.95","0.0","0.0"],
    [1504465,"2026-01-27 04:30:00","50962","1.8419999999999999","247.8","2.9730000000000003","223.4","1002.229","10.73","73.17","0.0","0.0"],
    [1504466,"2026-01-27 04:40:00","50963","1.777","261.2","2.7439999999999998","268.2","1001.849","11.09","73.11","0.0","0.0"],
    [1504467,"2026-01-27 04:50:00","50964","1.608","270.2","2.254","261.0","1001.453","10.59","74.57","0.0","0.0"],
    [1504468,"2026-01-27 05:00:00","50965","2.033","255.9","3.1689999999999996","264.7","1001.366","10.43","76.14","0.0","0.0"],
    [1504469,"2026-01-27 05:10:00","50966","1.946","260.0","3.071","260.2","1001.241","10.33","76.48","0.0","0.0"],
    [1504470,"2026-01-27 05:20:00","50967","1.9569999999999999","265.6","2.6460000000000004","265.6","1000.953","10.2","77.45","0.0","0.0"],
    [1504471,"2026-01-27 05:30:00","50968","1.47","224.3","2.875","243.4","1000.789","10.44","77.79","0.0","0.0"],
    [1504472,"2026-01-27 05:40:00","50969","1.601","201.9","2.417","182.2","1000.557","10.86","77.21","0.0","0.0"],
    [1504473,"2026-01-27 05:50:00","50970","1.673","249.7","2.385","264.4","1000.439","10.69","76.74","0.0","0.0"],
    [1504474,"2026-01-27 06:00:00","50971","2.1180000000000003","248.4","3.299","271.0","1000.377","10.69","76.86","0.0","0.0"],
    [1504475,"2026-01-27 06:10:00","50972","2.086","237.5","3.1689999999999996","228.9","1000.478","10.47","77.33","0.0","0.0"],
    [1504476,"2026-01-27 06:20:00","50973","1.776","255.6","2.842","223.5","1000.393","10.63","76.93","0.0","0.0"],
    [1504477,"2026-01-27 06:30:00","50974","2.048","266.3","2.679","261.7","1000.496","10.07","78.18","0.0","0.0"],
    [1504478,"2026-01-27 06:40:00","50975","1.8319999999999999","256.1","2.5810000000000004","254.5","1000.673","9.84","80.0","0.0","0.0"],
    [1504479,"2026-01-27 06:50:00","50976","1.626","255.5","2.483","263.7","1000.536","9.76","81.5","0.0","0.0"],
    [1504480,"2026-01-27 07:00:00","50977","1.6380000000000001","262.5","2.5810000000000004","252.1","1000.326","9.95","82.2","0.151","0.0"],
    [1504481,"2026-01-27 07:10:00","50978","2.342","271.4","2.7110000000000003","270.4","1000.095","9.83","82.9","1.095","0.0"],
    [1504482,"2026-01-27 07:20:00","50979","2.0980000000000003","253.6","3.201","264.4","1000.119","10.11","83.9","4.342","0.0"],
    [1504483,"2026-01-27 07:30:00","50980","2.627","266.3","3.201","258.4","1000.167","9.97","83.4","12.82","0.0"],
    [1504484,"2026-01-27 07:40:00","50981","2.431","261.7","3.136","261.3","1000.489","9.71","84.1","31.59","0.0"],
    [1504485,"2026-01-27 07:50:00","50982","2.105","265.3","2.842","264.7","1000.415","9.73","84.9","36.6","0.0"],
    [1504486,"2026-01-27 08:00:00","50983","1.808","265.0","2.515","258.8","1000.514","9.91","85.2","38.96","0.0"],
    [1504487,"2026-01-27 08:10:00","50984","2.032","271.2","2.45","270.2","1000.273","9.85","85.2","52.46","0.0"],
    [1504488,"2026-01-27 08:20:00","50985","2.109","258.6","3.103","261.1","1000.216","10.16","85.0","93.8","0.0"],
    [1504489,"2026-01-27 08:30:00","50986","1.8769999999999998","254.4","3.0380000000000003","256.5","1000.215","10.81","83.0","98.9","0.0"],
    [1504490,"2026-01-27 08:40:00","50987","1.518","248.0","2.45","253.5","999.9296","11.34","80.4","102.1","0.0"],
    [1504491,"2026-01-27 08:50:00","50988","1.618","255.0","2.94","263.0","999.8902","11.62","78.73","172.0","0.0"],
    [1504492,"2026-01-27 09:00:00","50989","1.032","257.2","2.123","274.5","999.7176","11.82","77.93","288.8","0.0"],
    [1504493,"2026-01-27 09:10:00","50990","1.1420000000000001","249.7","2.0580000000000003","246.0","999.3778","12.01","76.82","184.2","0.0"],
    [1504494,"2026-01-27 09:20:00","50991","1.266","209.3","2.221","216.1","999.2183","12.19","76.71","184.1","0.0"],
    [1504495,"2026-01-27 09:30:00","50992","1.1420000000000001","276.7","2.123","274.8","999.2942","12.37","76.88","156.4","0.0"],
    [1504496,"2026-01-27 09:40:00","50993","1.65","258.9","2.7110000000000003","260.4","999.4658","12.32","76.88","110.7","0.0"],
    [1504497,"2026-01-27 09:50:00","50994","1.156","238.4","2.0909999999999997","257.7","999.4329","12.43","77.21","124.6","0.0"],
    [1504498,"2026-01-27 10:00:00","50995","1.579","266.7","2.352","256.9","999.2388","12.48","77.81","103.4","0.0"],
    [1504499,"2026-01-27 10:10:00","50996","1.514","266.4","2.45","283.2","999.1541","12.47","78.81","53.98","0.0"],
    [1504500,"2026-01-27 10:20:00","50997","1.337","254.8","2.221","252.4","998.8962","12.43","79.92","67.34","0.1"],
    [1504501,"2026-01-27 10:30:00","50998","1.159","268.9","2.7110000000000003","259.9","998.8318","12.48","81.0","62.39","0.0"],
    [1504502,"2026-01-27 10:40:00","50999","1.234","262.3","2.0580000000000003","261.4","998.6006","12.44","82.0","59.59","0.0"],
    [1504503,"2026-01-27 10:50:00","51000","1.2","235.8","2.189","219.8","998.5464","12.52","82.8","60.64","0.0"],
    [1504504,"2026-01-27 11:00:00","51001","1.52","236.7","2.7110000000000003","222.9","998.61","12.63","83.6","45.75","0.1"],
    [1504505,"2026-01-27 11:10:00","51002","1.554","250.7","2.417","259.0","998.6437","12.53","84.9","70.77","0.1"],
    [1504506,"2026-01-27 11:20:00","51003","1.611","240.6","2.875","253.0","998.4315","12.15","86.2","119.7","0.0"],
    [1504507,"2026-01-27 11:30:00","51004","1.818","240.1","3.136","257.6","998.3181","12.25","86.9","129.5","0.0"],
    [1504508,"2026-01-27 11:40:00","51005","2.0380000000000003","239.3","4.149","263.0","998.259","12.44","87.5","143.5","0.0"],
    [1504509,"2026-01-27 11:50:00","51006","1.995","227.5","3.365","228.8","998.0525","12.72","87.2","123.5","0.0"],
    [1504510,"2026-01-27 12:00:00","51007","2.261","232.2","3.5610000000000004","221.8","997.9656","13.07","84.9","91.2","0.0"],
    [1504511,"2026-01-27 12:10:00","51008","2.189","235.6","3.7889999999999997","219.5","997.7974","13.22","82.4","94.2","0.0"],
    [1504512,"2026-01-27 12:20:00","51009","1.929","235.4","3.593","211.9","997.5327","13.17","82.7","124.5","0.0"],
    [1504513,"2026-01-27 12:30:00","51010","1.607","234.4","2.907","254.4","997.2316","13.21","83.9","120.8","0.0"],
    [1504514,"2026-01-27 12:40:00","51011","2.419","228.6","5.422999999999999","240.0","996.9139","13.57","85.0","115.9","0.0"],
    [1504515,"2026-01-27 12:50:00","51012","3.3280000000000003","226.5","6.305","219.9","996.6257","14.17","84.5","141.1","0.0"],
    [1504516,"2026-01-27 13:00:00","51013","4.202","224.8","8.36","211.7","996.3318","14.37","83.0","172.4","0.0"],
    [1504517,"2026-01-27 13:10:00","51014","3.923","223.7","6.337000000000001","219.1","996.1617","14.39","82.6","105.0","0.0"],
    [1504518,"2026-01-27 13:20:00","51015","3.891","225.1","5.847","238.4","996.1041","14.37","82.6","83.6","0.0"],
    [1504519,"2026-01-27 13:30:00","51016","4.168","226.1","8.13","198.7","995.9246","14.37","82.0","82.4","0.0"],
    [1504520,"2026-01-27 13:40:00","51017","3.839","229.5","5.684","237.3","995.7563","14.19","82.7","74.14","0.1"],
    [1504521,"2026-01-27 13:50:00","51018","3.5269999999999997","232.4","8.69","221.8","995.8163","14.03","84.0","57.63","0.0"],
    [1504522,"2026-01-27 14:00:00","51019","4.266","226.5","6.631","239.3","995.8954","13.95","84.7","40.52","0.0"],
    [1504523,"2026-01-27 14:10:00","51020","4.078","224.1","7.709","213.1","995.9818","13.94","84.7","34.24","0.0"],
    [1504524,"2026-01-27 14:20:00","51021","3.8939999999999997","223.8","6.566","228.3","995.8865","13.88","84.9","30.07","0.0"],
    [1504525,"2026-01-27 14:30:00","51022","2.7769999999999997","228.3","5.4879999999999995","222.2","995.8256","13.73","85.9","28.39","0.3"],
    [1504526,"2026-01-27 14:40:00","51023","3.267","236.3","5.553","227.5","995.7892","13.57","87.5","25.33","0.2"],
    [1504527,"2026-01-27 14:50:00","51024","3.388","236.6","5.684","237.9","995.9025","13.49","88.8","23.06","0.1"],
    [1504528,"2026-01-27 15:00:00","51025","3.14","231.1","5.129","245.2","995.9359","13.5","89.4","24.3","0.0"],
    [1504529,"2026-01-27 15:10:00","51026","3.484","223.1","6.272","217.4","995.7746","13.63","88.8","22.29","0.0"],
    [1504530,"2026-01-27 15:20:00","51027","3.531","222.5","5.749","205.3","995.5053","13.7","88.2","26.0","0.0"],
    [1504531,"2026-01-27 15:30:00","51028","2.7230000000000003","234.4","5.651","263.7","995.4363","13.72","88.1","33.16","0.0"],
    [1504532,"2026-01-27 15:40:00","51029","2.013","198.8","5.096","202.0","994.5749","13.69","88.3","31.1","0.0"],
    [1504533,"2026-01-27 15:50:00","51030","1.632","220.0","4.508","233.8","994.2025","13.65","88.7","28.03","0.0"],
    [1504534,"2026-01-27 16:00:00","51031","2.872","233.4","5.2589999999999995","222.5","995.1352","13.74","89.3","65.0","0.0"],
    [1504535,"2026-01-27 16:10:00","51032","3.174","219.3","5.357","215.3","994.83","13.7","90.1","76.17","0.0"],
    [1504536,"2026-01-27 16:20:00","51033","2.537","224.7","4.573","212.5","994.57","13.81","90.6","75.24","0.0"],
    [1504537,"2026-01-27 16:30:00","51034","1.473","258.5","3.332","230.8","994.5012","13.83","90.7","27.33","0.0"],
    [1504538,"2026-01-27 16:40:00","51035","1.334","257.3","2.352","264.4","994.5298","13.75","91.2","7.013999999999999","0.0"],
    [1504539,"2026-01-27 16:50:00","51036","1.22","247.5","2.254","254.1","994.5772","13.74","91.6","3.017","0.0"],
    [1504540,"2026-01-27 17:00:00","51037","1.5659999999999998","248.9","2.9730000000000003","267.2","994.4976","13.8","91.6","2.1830000000000003","0.0"],
    [1504541,"2026-01-27 17:10:00","51038","2.571","207.7","4.279","224.9","994.2906","13.95","91.2","0.691","0.0"],
    [1504542,"2026-01-27 17:20:00","51039","3.1069999999999998","206.2","4.573","205.6","994.2982","13.96","91.2","0.032","0.0"],
    [1504543,"2026-01-27 17:30:00","51040","2.855","215.4","5.031000000000001","227.1","994.4125","14.25","91.0","0.10400000000000001","0.0"],
    [1504544,"2026-01-27 17:40:00","51041","2.687","211.9","3.9530000000000003","207.9","994.274","14.29","90.9","0.0","0.0"],
    [1504545,"2026-01-27 17:50:00","51042","2.957","218.2","4.769","211.6","994.0804","14.41","91.6","0.0","0.0"],
    [1504546,"2026-01-27 18:00:00","51043","3.602","218.8","6.207000000000001","221.3","993.8585","14.4","93.1","0.0","0.1"],
    [1504547,"2026-01-27 18:10:00","51044","3.806","219.7","5.912999999999999","221.4","993.6564","14.5","95.0","0.0","0.0"],
    [1504548,"2026-01-27 18:20:00","51045","2.85","226.7","8.0","205.5","993.4814","14.47","96.5","0.0","0.0"],
    [1504549,"2026-01-27 18:30:00","51046","4.336","213.9","8.82","210.3","993.2542","14.31","96.5","0.001","0.0"],
    [1504550,"2026-01-27 18:40:00","51047","4.203","230.5","8.43","223.1","993.3215","14.59","95.4","0.22899999999999998","0.0"],
    [1504551,"2026-01-27 18:50:00","51048","3.608","227.2","6.042999999999999","203.4","993.301","14.65","94.5","0.257","0.0"],
    [1504552,"2026-01-27 19:00:00","51049","3.389","222.7","6.957999999999999","225.6","993.3068","14.51","94.4","0.18100000000000002","0.0"],
    [1504553,"2026-01-27 19:10:00","51050","3.123","211.0","5.455","221.4","993.1271","14.41","94.3","0.41","0.0"],
    [1504554,"2026-01-27 19:20:00","51051","2.9139999999999997","213.0","4.573","216.3","992.9973","14.27","94.1","0.0","0.0"],
    [1504555,"2026-01-27 19:30:00","51052","2.229","250.9","4.737","231.1","992.9406","14.46","92.9","0.0","0.0"],
    [1504556,"2026-01-27 19:40:00","51053","1.8130000000000002","268.0","2.679","261.9","992.8113","14.26","92.9","0.0","0.0"],
    [1504557,"2026-01-27 19:50:00","51054","1.861","255.6","3.299","272.1","992.7448","14.14","93.4","0.0","0.0"],
    [1504558,"2026-01-27 20:00:00","51055","1.393","245.8","2.679","257.2","992.5855","14.09","93.7","0.0","0.0"],
    [1504559,"2026-01-27 20:10:00","51056","1.619","228.4","2.8089999999999997","218.1","992.6686","14.06","93.8","0.0","0.0"],
    [1504560,"2026-01-27 20:20:00","51057","1.974","242.1","3.43","253.3","992.6968","14.08","93.7","0.0","0.0"],
    [1504561,"2026-01-27 20:30:00","51058","1.956","241.5","3.299","251.4","992.7955","14.13","92.3","0.0","0.0"],
    [1504562,"2026-01-27 20:40:00","51059","2.359","263.9","3.855","270.7","993.019","13.97","91.7","0.0","0.3"],
    [1504563,"2026-01-27 20:50:00","51060","2.455","269.2","4.149","273.3","993.1674","13.47","93.5","0.0","0.3"],
    [1504564,"2026-01-27 21:00:00","51061","1.781","226.4","3.103","201.7","993.2871","13.23","95.3","0.0","0.4"],
    [1504565,"2026-01-27 21:10:00","51062","2.543","214.0","4.933","215.1","993.2335","13.22","95.8","0.179","0.1"],
    [1504566,"2026-01-27 21:20:00","51063","1.715","261.7","2.8089999999999997","255.2","992.9944","13.12","95.0","0.0","0.0"],
    [1504567,"2026-01-27 21:30:00","51064","1.973","270.2","2.875","259.6","993.136","12.93","95.3","0.0","0.0"],
    [1504568,"2026-01-27 21:40:00","51065","1.712","274.6","3.201","269.2","993.3053","12.77","96.4","0.0","0.0"],
    [1504569,"2026-01-27 21:50:00","51066","2.412","280.9","3.985","274.4","993.434","12.66","97.4","0.0","0.0"],
    [1504570,"2026-01-27 22:00:00","51067","2.342","277.6","3.822","281.0","993.5048","12.41","97.5","0.04","0.0"],
    [1504571,"2026-01-27 22:10:00","51068","3.341","294.4","9.21","265.2","993.5027","12.29","96.1","1.212","0.0"],
    [1504572,"2026-01-27 22:20:00","51069","6.041","287.9","10.03","282.4","993.5502","12.5","83.3","5.417000000000001","0.0"],
    [1504573,"2026-01-27 22:30:00","51070","5.422999999999999","275.3","9.08","282.4","993.9106","12.51","71.22","5.352","0.0"],
    [1504574,"2026-01-27 22:40:00","51071","3.633","244.9","9.02","254.2","994.307","12.26","68.38","2.989","0.0"],
    [1504575,"2026-01-27 22:50:00","51072","2.7910000000000004","248.6","6.435","255.2","994.4758","11.96","67.89","1.073","0.0"],
    [1504576,"2026-01-27 23:00:00","51073","3.8089999999999997","250.4","8.33","272.1","994.4623","11.88","66.87","0.017","0.0"],
    [1504577,"2026-01-27 23:10:00","51074","3.5469999999999997","253.2","6.5329999999999995","261.2","994.5212","11.75","66.25","0.0","0.0"],
    [1504578,"2026-01-27 23:20:00","51075","3.891","237.0","5.88","202.3","994.389","11.8","64.87","0.0","0.0"],
    [1504579,"2026-01-27 23:30:00","51076","3.505","233.2","5.847","250.4","994.5026","11.74","64.64","0.0","0.0"],
    [1504580,"2026-01-27 23:40:00","51077","3.464","236.6","5.945","206.3","994.639","11.41","66.39","0.0","0.0"],
    [1504581,"2026-01-27 23:50:00","51078","3.225","231.0","4.965","228.2","994.7906","11.3","67.72","0.0","0.0"],
    [1504582,"2026-01-28 00:00:00","51079","3.678","228.1","5.684","208.5","994.8986","11.32","67.21","0.0","0.0"],
    [1504583,"2026-01-28 00:10:00","51080","3.819","234.5","6.403","222.3","994.8287","11.53","65.53","0.0","0.0"],
    [1504584,"2026-01-28 00:20:00","51081","4.298","232.9","8.17","222.6","994.8063","11.61","64.32","0.0","0.0"],
    [1504585,"2026-01-28 00:30:00","51082","4.041","235.0","7.317","244.9","994.9643","11.49","64.3","0.0","0.0"],
    [1504586,"2026-01-28 00:40:00","51083","4.362","229.3","8.2","203.6","995.1452","11.5","63.61","0.0","0.0"],
    [1504587,"2026-01-28 00:50:00","51084","4.373","225.8","7.121","222.0","995.2556","11.44","63.46","0.0","0.0"],
    [1504588,"2026-01-28 01:00:00","51085","4.685","222.5","9.7","205.4","995.3939","11.37","62.61","0.0","0.0"],
    [1504589,"2026-01-28 01:10:00","51086","4.4","228.0","7.84","222.1","995.4932","11.16","62.99","0.0","0.0"],
    [1504590,"2026-01-28 01:20:00","51087","4.8580000000000005","235.7","8.33","231.6","995.4903","11.26","60.36","0.0","0.0"],
    [1504591,"2026-01-28 01:30:00","51088","5.186","235.7","8.69","215.4","995.5552","11.41","57.55","0.0","0.0"],
    [1504592,"2026-01-28 01:40:00","51089","4.811","225.6","9.9","210.2","995.7617","11.39","55.31","0.0","0.0"],
    [1504593,"2026-01-28 01:50:00","51090","4.46","230.9","8.33","221.2","995.9559","11.43","52.34","0.0","0.0"],
    [1504594,"2026-01-28 02:00:00","51091","4.165","227.3","7.709","209.7","996.2186","11.41","50.82","0.0","0.0"],
    [1504595,"2026-01-28 02:10:00","51092","4.582","223.1","8.56","208.6","996.4048","11.39","50.14","0.0","0.0"],
    [1504596,"2026-01-28 02:20:00","51093","3.9589999999999996","227.4","7.6770000000000005","224.9","996.495","11.33","49.55","0.0","0.0"],
    [1504597,"2026-01-28 02:30:00","51094","4.005","228.0","6.37","258.4","996.4731","11.37","48.58","0.0","0.0"],
    [1504598,"2026-01-28 02:40:00","51095","4.032","242.5","9.34","211.6","996.3795","11.33","47.77","0.0","0.0"],
    [1504599,"2026-01-28 02:50:00","51096","4.925","245.0","9.08","256.9","996.4061","11.61","43.51","0.0","0.0"],
    [1504600,"2026-01-28 03:00:00","51097","4.287","236.9","9.05","209.9","996.4849","11.58","42.57","0.0","0.0"],
    [1504601,"2026-01-28 03:10:00","51098","3.9530000000000003","237.4","7.056","253.7","996.503","11.44","42.97","0.0","0.0"],
    [1504602,"2026-01-28 03:20:00","51099","4.405","237.8","9.21","207.8","996.5898","11.57","40.89","0.0","0.0"],
    [1504603,"2026-01-28 03:30:00","51100","4.023","242.6","9.18","259.7","996.6216","11.27","42.57","0.0","0.0"],
    [1504604,"2026-01-28 03:40:00","51101","3.9530000000000003","247.1","8.95","253.7","996.8244","11.22","42.71","0.0","0.0"],
    [1504605,"2026-01-28 03:50:00","51102","3.9010000000000002","251.7","7.709","225.2","996.8022","11.14","42.66","0.0","0.0"],
    [1504606,"2026-01-28 04:00:00","51103","4.117","249.3","7.415","259.9","996.8262","11.04","42.95","0.0","0.0"],
    [1504607,"2026-01-28 04:10:00","51104","4.011","236.4","7.513","273.6","997.0425","10.99","43.76","0.0","0.0"],
    [1504608,"2026-01-28 04:20:00","51105","3.7230000000000003","259.2","6.664","265.6","997.0246","10.64","45.25","0.0","0.0"],
    [1504609,"2026-01-28 04:30:00","51106","2.6039999999999996","241.5","5.945","206.4","997.0854","10.55","45.43","0.0","0.0"],
    [1504610,"2026-01-28 04:40:00","51107","3.4160000000000004","234.6","6.1739999999999995","221.9","997.3936","10.46","46.0","0.0","0.0"],
    [1504611,"2026-01-28 04:50:00","51108","4.785","236.8","10.55","236.7","997.6508","10.58","46.85","0.0","0.0"],
    [1504612,"2026-01-28 05:00:00","51109","4.585","241.5","9.41","215.9","997.4493","10.65","44.93","0.0","0.0"],
    [1504613,"2026-01-28 05:10:00","51110","3.252","243.4","5.782","259.7","997.2238","10.5","45.59","0.0","0.0"],
    [1504614,"2026-01-28 05:20:00","51111","3.6919999999999997","235.7","7.187","228.9","997.0549","10.48","44.99","0.0","0.0"],
    [1504615,"2026-01-28 05:30:00","51112","3.096","229.0","6.0760000000000005","225.8","997.25","10.3","45.61","0.0","0.0"],
    [1504616,"2026-01-28 05:40:00","51113","4.805","221.6","8.07","207.9","997.4254","10.51","44.33","0.0","0.0"],
    [1504617,"2026-01-28 05:50:00","51114","5.343","222.7","8.69","218.3","997.748","10.62","43.19","0.0","0.0"],
    [1504618,"2026-01-28 06:00:00","51115","4.122","225.6","7.611000000000001","232.8","998.009","10.31","45.7","0.0","0.0"],
    [1504619,"2026-01-28 06:10:00","51116","3.825","231.4","6.631","216.7","997.931","10.21","46.68","0.0","0.0"],
    [1504620,"2026-01-28 06:20:00","51117","2.73","228.6","4.181","215.2","997.6816","10.02","47.49","0.0","0.0"],
    [1504621,"2026-01-28 06:30:00","51118","3.472","220.0","6.631","205.1","997.5455","9.92","48.48","0.0","0.0"],
    [1504622,"2026-01-28 06:40:00","51119","1.6640000000000001","263.9","3.6260000000000003","220.3","997.5994","9.75","48.64","0.0","0.0"],
    [1504623,"2026-01-28 06:50:00","51120","0.747","298.8","2.156","286.6","997.658","9.6","50.05","0.0","0.0"],
    [1504624,"2026-01-28 07:00:00","51121","2.5580000000000003","358.8","3.593","1.1840000000000002","997.6907","9.59","50.74","1.5430000000000001","0.0"],
    [1504625,"2026-01-28 07:10:00","51122","1.246","342.9","2.842","343.0","997.523","9.7","50.88","3.8710000000000004","0.0"],
    [1504626,"2026-01-28 07:20:00","51123","0.741","186.0","1.5030000000000001","235.5","997.4579","9.81","49.06","15.25","0.0"],
    [1504627,"2026-01-28 07:30:00","51124","1.661","256.6","3.267","279.3","997.4148","10.08","45.82","31.09","0.0"],
    [1504628,"2026-01-28 07:40:00","51125","4.257","287.9","9.24","266.7","997.1099","10.03","45.46","44.71","0.0"],
    [1504629,"2026-01-28 07:50:00","51126","5.544","288.5","9.6","282.5","996.9019","10.27","43.94","36.03","0.0"],
    [1504630,"2026-01-28 08:00:00","51127","3.048","271.4","6.7620000000000005","284.9","997.2067","10.07","45.33","46.38","0.0"],
    [1504631,"2026-01-28 08:10:00","51128","3.2689999999999997","293.4","5.912999999999999","288.0","997.2644","10.17","45.5","61.66","0.0"],
    [1504632,"2026-01-28 08:20:00","51129","1.4680000000000002","274.7","3.201","3.049","997.548","10.3","44.46","76.29","0.0"],
    [1504633,"2026-01-28 08:30:00","51130","2.012","170.0","3.43","179.2","997.6106","10.48","45.12","115.6","0.0"],
    [1504634,"2026-01-28 08:40:00","51131","1.244","204.4","3.1689999999999996","225.4","997.3414","10.53","44.24","151.7","0.0"],
    [1504635,"2026-01-28 08:50:00","51132","4.238","197.7","6.337000000000001","189.4","997.4476","10.5","46.75","164.8","0.0"],
    [1504636,"2026-01-28 09:00:00","51133","2.978","266.0","4.41","275.5","997.1603","10.28","45.95","130.5","0.0"],
    [1504637,"2026-01-28 09:10:00","51134","2.969","292.0","4.737","305.1","997.0264","10.43","45.35","153.2","0.0"],
    [1504638,"2026-01-28 09:20:00","51135","0.759","301.2","2.7110000000000003","312.3","997.1946","10.65","44.07","165.6","0.0"],
    [1504639,"2026-01-28 09:30:00","51136","0.624","338.1","1.339","345.7","996.8656","10.6","43.3","193.9","0.0"],
    [1504640,"2026-01-28 09:40:00","51137","0.8079999999999999","301.8","2.45","267.8","996.488","10.7","43.95","225.9","0.0"],
    [1504641,"2026-01-28 09:50:00","51138","2.521","266.5","4.41","264.8","996.4014","10.6","44.13","235.3","0.0"],
    [1504642,"2026-01-28 10:00:00","51139","3.24","216.1","6.403","215.1","996.7497","10.65","45.36","222.5","0.0"],
    [1504643,"2026-01-28 10:10:00","51140","3.5","243.1","7.938","208.9","996.6747","10.65","46.11","180.6","0.0"],
    [1504644,"2026-01-28 10:20:00","51141","2.935","237.2","5.586","216.1","996.6656","10.66","47.8","170.9","0.0"],
    [1504645,"2026-01-28 10:30:00","51142","4.548","221.3","8.33","212.0","996.5955","10.61","49.12","154.8","0.0"],
    [1504646,"2026-01-28 10:40:00","51143","3.991","240.2","7.154","238.6","996.5042","10.54","49.33","152.1","0.0"],
    [1504647,"2026-01-28 10:50:00","51144","3.622","244.1","7.35","219.7","996.4628","10.48","46.7","148.0","0.0"],
    [1504648,"2026-01-28 11:00:00","51145","2.887","242.7","5.325","264.4","996.3447","10.45","45.53","148.9","0.0"],
    [1504649,"2026-01-28 11:10:00","51146","2.448","239.7","4.965","234.7","996.1291","10.54","46.05","172.5","0.0"],
    [1504650,"2026-01-28 11:20:00","51147","2.708","263.7","4.671","256.8","995.7451","10.53","46.85","170.0","0.0"],
    [1504651,"2026-01-28 11:30:00","51148","4.077","281.4","6.337000000000001","282.3","995.1586","10.6","45.05","157.3","0.0"],
    [1504652,"2026-01-28 11:40:00","51149","3.718","276.8","6.042999999999999","264.5","994.9559","10.74","43.8","154.3","0.0"],
    [1504653,"2026-01-28 11:50:00","51150","2.9760000000000004","285.3","4.965","290.5","994.9291","10.8","43.17","140.8","0.0"],
    [1504654,"2026-01-28 12:00:00","51151","2.764","287.2","3.985","268.8","994.8713","10.89","42.46","120.7","0.0"],
    [1504655,"2026-01-28 12:10:00","51152","2.806","286.9","4.2139999999999995","277.9","994.6674","10.96","41.89","104.4","0.0"],
    [1504656,"2026-01-28 12:20:00","51153","2.6289999999999996","286.1","4.083","280.7","994.3473","10.96","41.53","108.0","0.0"],
    [1504657,"2026-01-28 12:30:00","51154","1.945","303.5","3.005","306.7","994.2242","11.07","41.5","103.1","0.0"],
    [1504658,"2026-01-28 12:40:00","51155","2.094","296.4","3.593","297.4","994.1481","11.18","42.25","123.0","0.0"],
    [1504659,"2026-01-28 12:50:00","51156","2.71","282.6","4.2139999999999995","277.7","994.1813","11.2","42.52","129.7","0.0"],
    [1504660,"2026-01-28 13:00:00","51157","2.609","275.6","4.4430000000000005","235.4","994.1078","11.23","43.61","118.2","0.0"],
    [1504661,"2026-01-28 13:10:00","51158","2.407","245.2","4.671","265.6","994.015","11.2","44.75","114.8","0.0"],
    [1504662,"2026-01-28 13:20:00","51159","3.025","247.3","6.011","268.6","993.8753","11.05","45.86","142.2","0.0"],
    [1504663,"2026-01-28 13:30:00","51160","3.5039999999999996","264.5","6.501","281.5","993.8013","10.9","52.73","222.0","0.0"],
    [1504664,"2026-01-28 13:40:00","51161","3.457","264.7","5.978","280.8","993.5764","10.91","56.75","396.5","0.0"],
    [1504665,"2026-01-28 13:50:00","51162","3.515","279.2","5.357","286.0","993.4005","10.95","52.89","308.2","0.0"],
    [1504666,"2026-01-28 14:00:00","51163","2.964","267.4","5.194","246.4","993.2932","11.18","50.27","219.9","0.0"],
    [1504667,"2026-01-28 14:10:00","51164","3.722","288.0","5.553","318.0","993.1537","11.18","50.82","244.8","0.0"],
    [1504668,"2026-01-28 14:20:00","51165","4.0680000000000005","300.3","6.37","313.6","993.0851","11.1","52.31","287.5","0.0"],
    [1504669,"2026-01-28 14:30:00","51166","3.977","298.0","6.109","303.1","992.9707","11.12","51.86","229.7","0.0"],
    [1504670,"2026-01-28 14:40:00","51167","4.687","301.9","6.664","298.9","992.8062","11.06","50.95","206.1","0.0"],
    [1504671,"2026-01-28 14:50:00","51168","4.6160000000000005","297.5","7.905","300.9","992.6781","11.09","50.33","218.7","0.0"],
    [1504672,"2026-01-28 15:00:00","51169","4.8180000000000005","294.4","7.709","304.5","992.4713","11.25","50.45","304.1","0.0"],
    [1504673,"2026-01-28 15:10:00","51170","4.037","290.6","6.0760000000000005","307.4","992.3721","11.39","50.54","289.0","0.0"],
    [1504674,"2026-01-28 15:20:00","51171","4.006","292.0","6.207000000000001","305.0","992.2354","11.57","50.48","269.9","0.0"],
    [1504675,"2026-01-28 15:30:00","51172","5.188","299.7","8.07","309.2","992.2363","11.68","50.52","235.2","0.0"],
    [1504676,"2026-01-28 15:40:00","51173","4.697","301.4","7.546","303.9","992.3447","11.82","50.11","213.3","0.0"],
    [1504677,"2026-01-28 15:50:00","51174","5.57","324.4","8.2","333.9","992.5735","11.82","49.51","182.6","0.0"],
    [1504678,"2026-01-28 16:00:00","51175","5.008","309.2","7.4479999999999995","323.7","992.59","11.79","49.44","155.0","0.0"],
    [1504679,"2026-01-28 16:10:00","51176","4.548","303.4","6.697","314.2","992.6448","11.77","49.26","127.2","0.0"],
    [1504680,"2026-01-28 16:20:00","51177","3.928","304.8","6.9910000000000005","277.6","992.8421","11.65","49.67","45.34","0.0"],
    [1504681,"2026-01-28 16:30:00","51178","5.747999999999999","320.0","9.6","319.8","993.0959","11.59","47.92","21.72","0.0"],
    [1504682,"2026-01-28 16:40:00","51179","5.624","318.0","10.22","316.2","993.3019","11.61","46.45","16.9","0.0"],
    [1504683,"2026-01-28 16:50:00","51180","5.41","323.9","8.75","316.3","993.6367","11.48","45.47","11.39","0.0"],
    [1504684,"2026-01-28 17:00:00","51181","5.461","303.2","8.95","319.0","993.7633","11.37","45.15","6.016","0.0"],
    [1504685,"2026-01-28 17:10:00","51182","6.125","299.5","10.78","307.2","993.7499","11.14","45.56","1.3119999999999998","0.0"],
    [1504686,"2026-01-28 17:20:00","51183","7.539","298.9","13.03","302.5","993.8401","10.89","45.94","0.0","0.0"],
    [1504687,"2026-01-28 17:30:00","51184","8.28","293.6","12.48","285.6","994.313","10.71","46.6","0.0","0.0"],
    [1504688,"2026-01-28 17:40:00","51185","7.716","296.5","11.34","300.8","994.7966","10.6","46.91","0.0","0.0"],
    [1504689,"2026-01-28 17:50:00","51186","7.07","293.7","9.54","308.5","994.9913","10.44","47.74","0.0","0.0"],
    [1504690,"2026-01-28 18:00:00","51187","6.789","291.1","10.29","288.6","995.2111","10.31","49.12","0.0","0.0"],
    [1504691,"2026-01-28 18:10:00","51188","6.707999999999999","293.7","10.91","311.9","995.6274","10.23","48.97","0.0","0.0"],
    [1504692,"2026-01-28 18:20:00","51189","7.101","297.0","12.67","313.3","995.892","10.14","49.5","0.0","0.0"],
    [1504693,"2026-01-28 18:30:00","51190","7.475","297.6","12.97","301.3","996.2258","10.08","49.74","0.0","0.0"],
    [1504694,"2026-01-28 18:40:00","51191","5.881","288.7","10.06","291.4","996.7158","10.01","49.44","0.0","0.0"],
    [1504695,"2026-01-28 18:50:00","51192","3.861","287.8","8.49","277.8","997.1531","9.88","50.15","0.0","0.0"],
    [1504696,"2026-01-28 19:00:00","51193","4.587","290.4","7.187","287.9","997.4064","9.79","50.37","0.0","0.0"],
    [1504697,"2026-01-28 19:10:00","51194","5.8389999999999995","299.6","12.77","289.9","997.5518","9.73","50.63","0.0","0.0"],
    [1504698,"2026-01-28 19:20:00","51195","6.671","297.3","12.15","290.2","997.634","9.71","51.26","0.0","0.0"],
    [1504699,"2026-01-28 19:30:00","51196","6.4","300.8","11.79","300.0","997.8078","9.67","52.42","0.0","0.0"],
    [1504700,"2026-01-28 19:40:00","51197","4.414","303.6","11.14","329.4","998.3107","9.63","53.75","0.0","0.0"],
    [1504701,"2026-01-28 19:50:00","51198","3.278","275.2","8.33","262.7","998.8262","9.51","54.44","0.0","0.0"],
    [1504702,"2026-01-28 20:00:00","51199","4.111000000000001","289.3","9.28","334.4","999.0414","9.51","55.09","0.0","0.0"],
    [1504703,"2026-01-28 20:10:00","51200","4.955","290.9","8.0","304.0","999.0098","9.53","55.85","0.0","0.0"],
    [1504704,"2026-01-28 20:20:00","51201","6.606","297.0","13.33","274.1","999.0837","9.59","56.48","0.0","0.0"],
    [1504705,"2026-01-28 20:30:00","51202","6.955","295.8","12.15","286.9","999.1833","9.49","57.35","0.0","0.0"],
    [1504706,"2026-01-28 20:40:00","51203","6.291","289.8","11.04","280.6","999.2954","9.37","57.85","0.0","0.0"],
    [1504707,"2026-01-28 20:50:00","51204","6.575","280.5","12.25","290.1","999.4814","9.27","58.49","0.0","0.0"],
    [1504708,"2026-01-28 21:00:00","51205","6.504","282.4","10.78","281.9","999.5789","9.22","59.0","0.0","0.0"],
    [1504709,"2026-01-28 21:10:00","51206","4.394","278.0","8.56","258.3","999.8626","9.12","59.63","0.0","0.0"],
    [1504710,"2026-01-28 21:20:00","51207","4.0280000000000005","255.6","7.35","267.7","1000.233","9.05","60.18","0.0","0.0"],
    [1504711,"2026-01-28 21:30:00","51208","3.638","229.1","6.109","224.6","1000.687","9.1","61.01","0.0","0.0"],
    [1504712,"2026-01-28 21:40:00","51209","3.23","231.7","5.7170000000000005","227.8","1000.735","8.96","61.65","0.0","0.0"],
    [1504713,"2026-01-28 21:50:00","51210","3.1860000000000004","254.3","5.586","271.5","1000.588","8.81","62.09","0.0","0.0"],
    [1504714,"2026-01-28 22:00:00","51211","3.7489999999999997","246.0","8.3","291.9","1000.531","8.77","62.72","0.0","0.0"],
    [1504715,"2026-01-28 22:10:00","51212","3.23","233.7","5.978","214.1","1000.594","8.92","63.21","0.0","0.0"],
    [1504716,"2026-01-28 22:20:00","51213","3.53","245.5","6.305","234.0","1000.684","9.0","62.72","0.0","0.0"],
    [1504717,"2026-01-28 22:30:00","51214","3.225","250.1","7.775","262.5","1000.928","8.92","62.63","0.0","0.0"],
    [1504718,"2026-01-28 22:40:00","51215","3.031","249.9","5.292000000000001","273.6","1001.093","8.8","63.2","0.0","0.0"],
    [1504719,"2026-01-28 22:50:00","51216","2.758","243.0","4.867","253.3","1001.227","8.74","63.5","0.0","0.0"],
    [1504720,"2026-01-28 23:00:00","51217","2.602","261.0","4.247","269.7","1001.192","8.63","63.83","0.0","0.0"],
    [1504721,"2026-01-28 23:10:00","51218","3.06","269.7","4.606","288.7","1001.147","8.7","64.2","0.0","0.0"],
    [1504722,"2026-01-28 23:20:00","51219","2.459","263.2","4.508","253.1","1001.399","8.77","63.91","0.0","0.0"],
    [1504723,"2026-01-28 23:30:00","51220","3.054","278.8","5.39","264.2","1001.605","9.06","63.57","0.0","0.0"],
    [1504724,"2026-01-28 23:40:00","51221","2.685","286.0","4.4430000000000005","299.9","1001.513","9.29","63.02","0.0","0.0"],
    [1504725,"2026-01-28 23:50:00","51222","4.121","281.3","6.141","302.7","1001.346","9.55","62.07","0.0","0.0"],
    [1504726,"2026-01-29 00:00:00","51223","3.39","282.7","6.042999999999999","256.6","1001.523","9.57","61.63","0.0","0.0"],
    [1504727,"2026-01-29 00:10:00","51224","2.48","285.6","5.2589999999999995","286.4","1001.476","9.57","61.88","0.0","0.0"],
    [1504728,"2026-01-29 00:20:00","51225","4.059","279.8","7.382999999999999","270.5","1001.347","9.64","61.76","0.0","0.0"],
    [1504729,"2026-01-29 00:30:00","51226","3.668","282.5","6.239","292.6","1001.592","9.66","61.6","0.0","0.0"],
    [1504730,"2026-01-29 00:40:00","51227","3.082","279.9","5.422999999999999","287.2","1001.643","9.63","61.69","0.0","0.0"],
    [1504731,"2026-01-29 00:50:00","51228","3.05","273.7","7.154","273.9","1001.906","9.56","61.87","0.0","0.0"],
    [1504732,"2026-01-29 01:00:00","51229","2.5639999999999996","266.3","5.1610000000000005","271.5","1002.023","9.5","61.97","0.0","0.0"],
    [1504733,"2026-01-29 01:10:00","51230","2.168","261.8","4.573","303.6","1001.863","9.46","62.43","0.0","0.0"],
    [1504734,"2026-01-29 01:20:00","51231","2.967","265.3","5.357","266.5","1001.865","9.46","62.47","0.0","0.0"],
    [1504735,"2026-01-29 01:30:00","51232","3.005","264.7","5.194","282.7","1001.891","9.52","62.23","0.0","0.0"],
    [1504736,"2026-01-29 01:40:00","51233","3.338","256.5","7.023","261.8","1002.156","9.46","62.21","0.0","0.0"],
    [1504737,"2026-01-29 01:50:00","51234","4.135","267.3","8.3","295.2","1002.341","9.44","62.4","0.0","0.0"],
    [1504738,"2026-01-29 02:00:00","51235","4.383","271.2","8.75","276.2","1002.356","9.45","62.52","0.0","0.0"],
    [1504739,"2026-01-29 02:10:00","51236","4.165","274.2","7.546","274.8","1002.263","9.38","62.7","0.0","0.0"],
    [1504740,"2026-01-29 02:20:00","51237","4.404","284.1","7.513","287.9","1002.307","9.46","62.88","0.0","0.0"],
    [1504741,"2026-01-29 02:30:00","51238","5.879","287.2","10.78","276.0","1002.099","9.6","62.03","0.0","0.0"],
    [1504742,"2026-01-29 02:40:00","51239","6.192","284.6","9.67","283.0","1001.98","9.72","61.16","0.0","0.0"],
    [1504743,"2026-01-29 02:50:00","51240","6.565","286.6","9.38","276.0","1001.848","9.73","60.85","0.0","0.0"],
    [1504744,"2026-01-29 03:00:00","51241","5.985","288.5","9.15","295.0","1001.96","9.76","60.55","0.0","0.0"],
    [1504745,"2026-01-29 03:10:00","51242","5.795","289.0","9.47","285.5","1001.794","9.97","59.58","0.0","0.0"],
    [1504746,"2026-01-29 03:20:00","51243","4.617","290.1","7.415","291.4","1001.937","9.96","59.22","0.0","0.0"],
    [1504747,"2026-01-29 03:30:00","51244","4.112","296.9","6.1739999999999995","295.3","1001.74","9.89","59.5","0.0","0.0"],
    [1504748,"2026-01-29 03:40:00","51245","3.576","296.5","5.586","295.6","1001.523","9.89","59.4","0.0","0.0"],
    [1504749,"2026-01-29 03:50:00","51246","3.1210000000000004","294.0","4.965","272.9","1001.557","9.8","59.43","0.0","0.0"],
    [1504750,"2026-01-29 04:00:00","51247","2.5469999999999997","266.5","4.377","272.0","1001.636","9.57","60.09","0.0","0.0"],
    [1504751,"2026-01-29 04:10:00","51248","1.867","276.3","3.855","268.7","1001.608","9.32","61.41","0.0","0.0"],
    [1504752,"2026-01-29 04:20:00","51249","1.989","261.7","4.083","273.2","1001.726","9.32","61.77","0.0","0.0"],
    [1504753,"2026-01-29 04:30:00","51250","1.105","236.0","2.45","299.1","1001.761","9.19","62.24","0.0","0.0"],
    [1504754,"2026-01-29 04:40:00","51251","1.755","282.8","2.8089999999999997","295.4","1001.886","9.06","62.72","0.0","0.0"],
    [1504755,"2026-01-29 04:50:00","51252","2.447","293.0","3.92","283.6","1001.753","9.29","62.45","0.0","0.0"],
    [1504756,"2026-01-29 05:00:00","51253","2.096","298.4","3.234","305.8","1001.523","9.37","61.77","0.0","0.0"],
    [1504757,"2026-01-29 05:10:00","51254","2.637","290.1","3.855","298.3","1001.595","9.4","61.45","0.0","0.0"],
    [1504758,"2026-01-29 05:20:00","51255","2.45","286.7","4.083","281.2","1001.463","9.37","61.46","0.0","0.0"],
    [1504759,"2026-01-29 05:30:00","51256","2.8960000000000004","285.2","4.835","296.0","1001.523","9.2","62.14","0.0","0.0"],
    [1504760,"2026-01-29 05:40:00","51257","3.1689999999999996","294.6","5.39","286.4","1001.684","9.29","62.01","0.0","0.0"],
    [1504761,"2026-01-29 05:50:00","51258","2.06","273.5","3.6260000000000003","277.6","1001.913","9.17","62.2","0.0","0.0"],
    [1504762,"2026-01-29 06:00:00","51259","1.034","254.8","2.417","259.8","1001.925","9.1","62.66","0.0","0.0"],
    [1504763,"2026-01-29 06:10:00","51260","1.0979999999999999","246.1","2.123","270.7","1001.976","9.08","63.03","0.0","0.0"],
    [1504764,"2026-01-29 06:20:00","51261","1.736","230.1","3.136","221.5","1002.133","9.25","62.59","0.0","0.0"],
    [1504765,"2026-01-29 06:30:00","51262","2.157","216.5","4.247","211.0","1002.2","9.56","61.49","0.0","0.0"],
    [1504766,"2026-01-29 06:40:00","51263","1.609","218.3","3.43","226.7","1002.06","9.57","61.74","0.0","0.0"],
    [1504767,"2026-01-29 06:50:00","51264","1.743","232.9","2.5810000000000004","233.5","1001.947","9.48","61.16","0.0","0.0"],
    [1504768,"2026-01-29 07:00:00","51265","2.1959999999999997","229.4","3.43","225.2","1002.089","9.57","60.85","0.71","0.0"],
    [1504769,"2026-01-29 07:10:00","51266","2.056","240.0","3.855","219.7","1002.174","9.65","60.8","3.864","0.0"],
    [1504770,"2026-01-29 07:20:00","51267","2.109","265.0","3.234","266.0","1002.075","9.38","61.44","6.9910000000000005","0.0"],
    [1504771,"2026-01-29 07:30:00","51268","2.449","259.9","3.528","273.2","1001.955","9.17","62.26","21.54","0.0"],
    [1504772,"2026-01-29 07:40:00","51269","2.634","267.3","3.7889999999999997","268.1","1001.963","9.06","62.83","33.94","0.0"],
    [1504773,"2026-01-29 07:50:00","51270","2.787","274.0","4.312","293.8","1002.163","9.18","63.49","53.82","0.0"],
    [1504774,"2026-01-29 08:00:00","51271","3.177","286.6","4.704","272.9","1002.253","9.74","62.82","40.79","0.0"],
    [1504775,"2026-01-29 08:10:00","51272","3.36","281.0","5.684","279.5","1002.339","10.08","61.22","68.12","0.0"],
    [1504776,"2026-01-29 08:20:00","51273","2.949","276.7","4.1160000000000005","269.8","1002.343","10.03","61.4","92.2","0.0"],
    [1504777,"2026-01-29 08:30:00","51274","2.992","276.0","4.312","265.7","1002.351","9.99","61.56","102.4","0.0"],
    [1504778,"2026-01-29 08:40:00","51275","3.097","281.0","4.606","297.0","1002.305","10.14","61.54","136.7","0.0"],
    [1504779,"2026-01-29 08:50:00","51276","4.276","294.7","5.684","291.1","1002.162","10.35","60.98","259.2","0.0"],
    [1504780,"2026-01-29 09:00:00","51277","4.5169999999999995","297.7","6.272","306.3","1002.1","10.59","60.19","266.9","0.0"],
    [1504781,"2026-01-29 09:10:00","51278","5.197","295.1","6.697","304.0","1002.128","10.82","59.54","299.3","0.0"],
    [1504782,"2026-01-29 09:20:00","51279","4.539","285.0","6.435","278.5","1002.213","10.84","59.71","348.6","0.0"],
    [1504783,"2026-01-29 09:30:00","51280","3.68","281.0","5.586","273.9","1002.1","11.0","59.72","297.5","0.0"],
    [1504784,"2026-01-29 09:40:00","51281","3.3819999999999997","283.9","5.619","288.6","1002.026","11.21","59.07","415.3","0.0"],
    [1504785,"2026-01-29 09:50:00","51282","2.658","289.3","5.1610000000000005","288.4","1002.13","11.5","58.26","389.3","0.0"],
    [1504786,"2026-01-29 10:00:00","51283","2.983","282.2","5.357","295.6","1002.079","11.53","57.85","361.5","0.0"],
    [1504787,"2026-01-29 10:10:00","51284","3.217","290.1","5.096","288.6","1002.281","11.54","57.75","367.3","0.0"],
    [1504788,"2026-01-29 10:20:00","51285","3.554","283.2","5.4879999999999995","295.5","1002.336","11.82","57.25","424.7","0.0"],
    [1504789,"2026-01-29 10:30:00","51286","3.2889999999999997","279.4","5.031000000000001","283.8","1002.173","12.09","56.76","463.5","0.0"],
    [1504790,"2026-01-29 10:40:00","51287","3.179","272.0","5.455","262.6","1002.169","12.28","55.88","310.8","0.0"],
    [1504791,"2026-01-29 10:50:00","51288","3.187","276.5","4.638999999999999","270.6","1002.061","12.38","55.64","434.4","0.0"],
    [1504792,"2026-01-29 11:00:00","51289","3.0069999999999997","262.1","4.835","254.5","1002.056","12.61","55.36","450.6","0.0"],
    [1504793,"2026-01-29 11:10:00","51290","2.306","260.1","4.802","272.0","1001.838","12.65","55.35","229.8","0.0"],
    [1504794,"2026-01-29 11:20:00","51291","2.298","246.2","4.1160000000000005","221.4","1001.884","12.68","55.14","240.4","0.0"],
    [1504795,"2026-01-29 11:30:00","51292","2.226","255.1","3.9530000000000003","278.7","1001.691","12.84","55.23","358.6","0.0"],
    [1504796,"2026-01-29 11:40:00","51293","1.876","261.6","3.855","262.3","1001.238","13.03","54.95","285.4","0.0"],
    [1504797,"2026-01-29 11:50:00","51294","1.8330000000000002","236.7","2.9730000000000003","220.2","1001.266","13.09","54.83","240.7","0.0"],
    [1504798,"2026-01-29 12:00:00","51295","2.011","229.5","3.7239999999999998","223.9","1001.065","13.58","54.61","339.3","0.0"],
    [1504799,"2026-01-29 12:10:00","51296","2.22","240.9","4.573","255.5","1000.759","14.2","51.36","564.6","0.0"],
    [1504800,"2026-01-29 12:20:00","51297","2.8930000000000002","253.5","6.664","268.3","1000.488","14.48","50.1","556.6","0.0"],
    [1504801,"2026-01-29 12:30:00","51298","2.7430000000000003","263.8","4.606","267.2","1000.331","14.71","49.58","546.7","0.0"],
    [1504802,"2026-01-29 12:40:00","51299","2.702","225.6","6.37","219.3","1000.25","14.98","49.06","567.4","0.0"],
    [1504803,"2026-01-29 12:50:00","51300","4.163","218.0","6.86","202.3","999.8787","14.81","48.76","545.3","0.0"],
    [1504804,"2026-01-29 13:00:00","51301","4.093999999999999","215.8","6.468","221.5","999.684","14.84","48.98","468.2","0.0"],
    [1504805,"2026-01-29 13:10:00","51302","4.52","213.9","6.893","196.5","999.5886","14.75","50.62","519.9","0.0"],
    [1504806,"2026-01-29 13:20:00","51303","4.647","218.6","9.34","232.7","999.5637","14.86","50.93","563.4","0.0"],
    [1504807,"2026-01-29 13:30:00","51304","4.352","217.2","8.4","206.3","999.5865","14.9","51.06","577.0","0.0"],
    [1504808,"2026-01-29 13:40:00","51305","5.457000000000001","210.3","9.41","210.8","999.577","14.33","54.79","407.7","0.0"],
    [1504809,"2026-01-29 13:50:00","51306","6.024","211.8","9.44","203.5","999.6406","14.14","53.42","266.4","0.0"],
    [1504810,"2026-01-29 14:00:00","51307","5.875","217.1","9.02","221.7","999.6815","13.95","53.72","202.4","0.0"],
    [1504811,"2026-01-29 14:10:00","51308","6.888999999999999","219.0","11.04","224.7","999.6822","13.63","55.37","154.3","0.0"],
    [1504812,"2026-01-29 14:20:00","51309","5.324","223.5","8.82","221.1","999.8864","13.51","57.33","119.1","0.0"],
    [1504813,"2026-01-29 14:30:00","51310","5.693","219.4","9.34","225.6","999.6566","13.35","58.65","90.2","0.0"],
    [1504814,"2026-01-29 14:40:00","51311","4.98","222.4","8.92","224.7","999.6337","13.23","59.89","78.33","0.0"],
    [1504815,"2026-01-29 14:50:00","51312","3.532","221.8","6.827000000000001","204.9","999.7888","13.22","61.21","64.41","0.0"],
    [1504816,"2026-01-29 15:00:00","51313","3.745","229.6","7.285","237.3","999.7643","13.19","62.19","48.77","0.0"],
    [1504817,"2026-01-29 15:10:00","51314","4.1610000000000005","229.4","6.7620000000000005","234.4","999.8222","13.24","62.2","36.7","0.0"],
    [1504818,"2026-01-29 15:20:00","51315","3.8989999999999996","224.9","6.599","212.3","999.8777","13.42","61.11","40.69","0.0"],
    [1504819,"2026-01-29 15:30:00","51316","2.949","238.3","4.998","216.6","1000.326","13.46","60.92","51.88","0.0"],
    [1504820,"2026-01-29 15:40:00","51317","3.2969999999999997","229.6","5.7170000000000005","238.2","1000.515","13.46","61.46","40.59","0.0"],
    [1504821,"2026-01-29 15:50:00","51318","2.657","223.2","5.1610000000000005","203.7","1000.481","13.3","63.65","26.33","0.0"],
    [1504822,"2026-01-29 16:00:00","51319","2.7569999999999997","223.5","5.2589999999999995","231.4","999.9922","13.23","66.46","24.5","0.0"],
    [1504823,"2026-01-29 16:10:00","51320","2.804","228.7","5.521","253.5","1000.005","13.1","68.45","30.47","0.0"],
    [1504824,"2026-01-29 16:20:00","51321","3.676","234.0","6.631","213.6","1000.42","12.97","70.19","26.05","0.0"],
    [1504825,"2026-01-29 16:30:00","51322","3.8560000000000003","231.4","6.435","220.0","1000.617","12.99","70.96","17.42","0.0"],
    [1504826,"2026-01-29 16:40:00","51323","4.031000000000001","223.2","6.893","208.6","1000.12","12.93","71.55","19.57","0.0"],
    [1504827,"2026-01-29 16:50:00","51324","4.435","219.7","7.218999999999999","220.1","999.7049","12.89","72.03","21.49","0.0"],
    [1504828,"2026-01-29 17:00:00","51325","2.875","230.9","6.403","201.6","999.9223","12.86","72.31","8.3","0.0"],
    [1504829,"2026-01-29 17:10:00","51326","1.284","246.4","2.7439999999999998","275.8","1000.006","12.79","72.65","1.44","0.0"],
    [1504830,"2026-01-29 17:20:00","51327","1.3840000000000001","238.8","2.5810000000000004","223.7","1000.114","12.69","73.47","0.0","0.0"],
    [1504831,"2026-01-29 17:30:00","51328","1.5590000000000002","225.1","3.201","239.5","1000.299","12.67","73.72","0.0","0.0"],
    [1504832,"2026-01-29 17:40:00","51329","1.355","228.8","3.463","223.4","1000.439","12.72","73.67","0.0","0.0"],
    [1504833,"2026-01-29 17:50:00","51330","0.8370000000000001","269.4","2.156","256.5","1000.613","12.64","73.89","0.0","0.0"],
    [1504834,"2026-01-29 18:00:00","51331","1.4340000000000002","261.1","3.201","256.7","1000.75","12.6","73.97","0.0","0.0"],
    [1504835,"2026-01-29 18:10:00","51332","1.869","263.3","3.234","276.5","1000.748","12.41","74.42","0.0","0.0"],
    [1504836,"2026-01-29 18:20:00","51333","2.471","269.4","3.855","266.9","1000.637","12.25","75.83","0.0","0.0"],
    [1504837,"2026-01-29 18:30:00","51334","1.7819999999999998","264.1","3.92","265.1","1000.556","12.04","77.33","0.0","0.0"],
    [1504838,"2026-01-29 18:40:00","51335","0.695","257.2","1.8619999999999999","271.1","1000.62","12.02","78.14","0.0","0.0"],
    [1504839,"2026-01-29 18:50:00","51336","0.418","286.4","1.307","305.0","1000.737","12.0","78.54","0.0","0.0"],
    [1504840,"2026-01-29 19:00:00","51337","0.96","265.9","1.633","243.0","1000.763","12.01","78.62","0.0","0.0"],
    [1504841,"2026-01-29 19:10:00","51338","1.2670000000000001","260.1","2.025","269.8","1000.996","11.88","78.58","0.0","0.0"],
    [1504842,"2026-01-29 19:20:00","51339","1.094","268.1","1.829","276.3","1001.172","11.71","79.11","0.0","0.0"],
    [1504843,"2026-01-29 19:30:00","51340","0.24","268.0","1.3719999999999999","311.5","1001.437","11.68","78.98","0.0","0.0"],
    [1504844,"2026-01-29 19:40:00","51341","0.262","286.6","1.339","309.5","1001.457","11.77","78.42","0.0","0.0"],
    [1504845,"2026-01-29 19:50:00","51342","0.882","314.7","2.025","340.2","1001.491","11.93","77.75","0.0","0.0"],
    [1504846,"2026-01-29 20:00:00","51343","1.5659999999999998","301.8","3.136","291.3","1001.356","11.99","75.84","0.0","0.0"],
    [1504847,"2026-01-29 20:10:00","51344","2.194","299.7","4.018","295.9","1001.046","12.42","70.56","0.0","0.0"],
    [1504848,"2026-01-29 20:20:00","51345","2.077","279.8","3.201","282.7","1001.146","12.51","67.45","0.0","0.0"],
    [1504849,"2026-01-29 20:30:00","51346","1.7009999999999998","290.4","3.0380000000000003","289.4","1001.118","12.42","66.96","0.0","0.0"],
    [1504850,"2026-01-29 20:40:00","51347","1.8719999999999999","280.9","2.6460000000000004","273.0","1001.223","12.18","67.38","0.0","0.0"],
    [1504851,"2026-01-29 20:50:00","51348","1.392","295.7","2.7769999999999997","310.5","1001.223","12.13","68.12","0.0","0.0"],
    [1504852,"2026-01-29 21:00:00","51349","1.6680000000000001","284.8","3.0380000000000003","277.7","1001.398","12.16","67.57","0.0","0.0"],
    [1504853,"2026-01-29 21:10:00","51350","1.327","268.8","2.287","280.2","1001.494","11.96","67.5","0.0","0.0"],
    [1504854,"2026-01-29 21:20:00","51351","1.641","269.4","2.417","278.6","1001.758","11.7","68.51","0.0","0.0"],
    [1504855,"2026-01-29 21:30:00","51352","2.313","283.0","3.9530000000000003","282.2","1001.865","11.78","68.94","0.0","0.0"],
    [1504856,"2026-01-29 21:40:00","51353","2.605","295.8","4.051","285.8","1001.952","12.1","67.91","0.0","0.0"],
    [1504857,"2026-01-29 21:50:00","51354","2.3409999999999997","293.2","3.855","282.7","1001.946","12.17","67.24","0.0","0.0"],
    [1504858,"2026-01-29 22:00:00","51355","2.439","281.8","3.7889999999999997","279.8","1002.127","12.15","67.2","0.0","0.0"],
    [1504859,"2026-01-29 22:10:00","51356","2.5","293.4","3.593","281.1","1002.202","12.14","67.57","0.0","0.0"],
    [1504860,"2026-01-29 22:20:00","51357","2.9389999999999996","285.8","4.4430000000000005","287.8","1002.386","12.28","67.23","0.0","0.0"],
    [1504861,"2026-01-29 22:30:00","51358","2.273","283.3","4.051","302.4","1002.294","12.17","67.39","0.0","0.0"],
    [1504862,"2026-01-29 22:40:00","51359","1.785","294.5","3.7569999999999997","321.9","1002.327","12.08","67.94","0.0","0.0"],
    [1504863,"2026-01-29 22:50:00","51360","2.379","281.7","4.018","285.3","1002.588","11.97","68.55","0.0","0.0"],
    [1504864,"2026-01-29 23:00:00","51361","2.4859999999999998","287.4","3.463","280.1","1002.349","12.06","68.55","0.0","0.0"],
    [1504865,"2026-01-29 23:10:00","51362","2.872","285.4","4.2139999999999995","281.5","1002.526","12.0","68.88","0.0","0.0"],
    [1504866,"2026-01-29 23:20:00","51363","3.605","287.4","5.063","292.9","1002.495","11.97","69.38","0.0","0.0"],
    [1504867,"2026-01-29 23:30:00","51364","3.591","296.8","5.749","307.6","1002.343","12.32","68.33","0.0","0.0"],
    [1504868,"2026-01-29 23:40:00","51365","3.219","297.3","5.096","305.1","1002.341","12.49","67.38","0.0","0.0"],
    [1504869,"2026-01-29 23:50:00","51366","3.668","290.6","6.207000000000001","288.2","1002.439","12.49","67.22","0.0","0.0"],
    [1504870,"2026-01-30 00:00:00","51367","3.359","283.5","5.1610000000000005","283.8","1002.505","12.47","67.29","0.0","0.0"],
    [1504871,"2026-01-30 00:10:00","51368","1.995","267.8","4.41","282.9","1002.471","12.2","68.14","0.0","0.0"],
    [1504872,"2026-01-30 00:20:00","51369","1.777","261.7","3.463","285.8","1002.578","11.91","69.62","0.0","0.0"],
    [1504873,"2026-01-30 00:30:00","51370","2.915","278.5","4.606","288.5","1002.558","11.96","70.09","0.0","0.0"],
    [1504874,"2026-01-30 00:40:00","51371","1.848","257.2","3.659","297.0","1002.246","11.89","69.92","0.0","0.0"],
    [1504875,"2026-01-30 00:50:00","51372","1.4609999999999999","254.4","3.1689999999999996","254.9","1002.338","11.67","70.44","0.0","0.0"],
    [1504876,"2026-01-30 01:00:00","51373","1.077","252.5","1.993","250.2","1002.306","11.3","71.53","0.0","0.0"],
    [1504877,"2026-01-30 01:10:00","51374","1.119","275.4","1.699","272.7","1002.297","10.99","72.9","0.0","0.0"],
    [1504878,"2026-01-30 01:20:00","51375","1.3030000000000002","230.2","1.829","274.3","1002.259","10.94","74.01","0.0","0.0"],
    [1504879,"2026-01-30 01:30:00","51376","1.002","259.7","1.829","282.6","1002.209","10.96","74.34","0.0","0.0"],
    [1504880,"2026-01-30 01:40:00","51377","1.63","274.0","2.0909999999999997","274.4","1002.154","10.91","74.13","0.0","0.0"],
    [1504881,"2026-01-30 01:50:00","51378","1.9240000000000002","264.4","2.221","263.4","1002.246","10.82","74.43","0.0","0.0"],
    [1504882,"2026-01-30 02:00:00","51379","1.557","256.3","2.123","255.5","1002.146","10.82","74.81","0.0","0.0"],
    [1504883,"2026-01-30 02:10:00","51380","1.31","248.4","2.0580000000000003","252.2","1002.129","10.91","74.22","0.0","0.0"],
    [1504884,"2026-01-30 02:20:00","51381","0.858","240.9","1.797","261.7","1002.183","11.12","73.39","0.0","0.0"],
    [1504885,"2026-01-30 02:30:00","51382","0.423","241.4","0.9470000000000001","213.4","1002.19","11.02","72.94","0.0","0.0"],
    [1504886,"2026-01-30 02:40:00","51383","0.792","243.1","2.0909999999999997","260.2","1002.326","10.69","73.72","0.0","0.0"],
    [1504887,"2026-01-30 02:50:00","51384","1.217","260.0","1.9269999999999998","255.0","1002.46","10.6","73.97","0.0","0.0"],
    [1504888,"2026-01-30 03:00:00","51385","0.937","254.9","1.7309999999999999","264.7","1002.48","10.58","74.35","0.0","0.0"],
    [1504889,"2026-01-30 03:10:00","51386","0.406","290.4","0.9470000000000001","282.6","1002.479","10.7","74.54","0.0","0.0"],
    [1504890,"2026-01-30 03:20:00","51387","1.8559999999999999","324.6","3.365","315.1","1002.574","11.1","74.05","0.0","0.0"],
    [1504891,"2026-01-30 03:30:00","51388","1.661","310.2","2.45","303.1","1002.692","11.58","71.86","0.0","0.0"],
    [1504892,"2026-01-30 03:40:00","51389","1.538","283.3","3.071","281.0","1002.785","11.82","69.01","0.0","0.0"],
    [1504893,"2026-01-30 03:50:00","51390","2.8480000000000003","263.4","6.042999999999999","270.4","1002.773","11.89","66.8","0.0","0.0"],
    [1504894,"2026-01-30 04:00:00","51391","4.791","295.5","8.07","296.0","1002.793","12.45","62.76","0.0","0.0"],
    [1504895,"2026-01-30 04:10:00","51392","6.471","290.7","11.79","286.8","1002.719","12.52","60.34","0.0","0.0"],
    [1504896,"2026-01-30 04:20:00","51393","6.827999999999999","292.0","9.9","305.4","1002.915","12.39","60.15","0.0","0.0"],
    [1504897,"2026-01-30 04:30:00","51394","6.9910000000000005","293.3","10.71","284.7","1003.069","12.25","60.35","0.0","0.0"],
    [1504898,"2026-01-30 04:40:00","51395","6.935","292.3","11.14","298.3","1003.238","12.21","59.63","0.0","0.0"],
    [1504899,"2026-01-30 04:50:00","51396","5.716","296.6","10.85","296.1","1003.461","12.15","58.95","0.0","0.0"],
    [1504900,"2026-01-30 05:00:00","51397","6.52","293.0","10.91","279.5","1003.519","12.12","58.12","0.0","0.0"],
    [1504901,"2026-01-30 05:10:00","51398","7.4079999999999995","293.1","12.64","287.0","1003.497","12.06","57.47","0.0","0.0"],
    [1504902,"2026-01-30 05:20:00","51399","8.22","296.0","11.34","316.0","1003.527","12.03","57.39","0.0","0.0"],
    [1504903,"2026-01-30 05:30:00","51400","8.34","294.7","13.72","289.7","1003.602","12.05","56.6","0.0","0.0"],
    [1504904,"2026-01-30 05:40:00","51401","8.47","293.6","13.03","290.2","1003.83","12.02","56.37","0.0","0.0"],
    [1504905,"2026-01-30 05:50:00","51402","7.977","300.3","13.0","292.1","1003.955","12.15","55.08","0.0","0.0"],
    [1504906,"2026-01-30 06:00:00","51403","7.233","301.2","13.26","314.9","1004.03","12.19","53.93","0.0","0.0"],
    [1504907,"2026-01-30 06:10:00","51404","7.059","297.5","10.81","301.8","1004.075","12.2","53.07","0.0","0.0"],
    [1504908,"2026-01-30 06:20:00","51405","7.303","298.4","12.77","306.4","1003.935","12.24","52.22","0.0","0.0"],
    [1504909,"2026-01-30 06:30:00","51406","8.1","300.9","11.92","301.0","1004.107","12.52","50.1","0.0","0.0"],
    [1504910,"2026-01-30 06:40:00","51407","8.31","297.2","12.71","304.8","1004.103","12.53","49.33","0.0","0.0"],
    [1504911,"2026-01-30 06:50:00","51408","7.888","301.7","12.28","300.4","1004.253","12.49","49.26","0.0","0.0"],
    [1504912,"2026-01-30 07:00:00","51409","7.567","304.1","11.83","288.5","1004.346","12.43","49.54","0.06","0.0"],
    [1504913,"2026-01-30 07:10:00","51410","7.901","305.9","13.03","320.1","1004.33","12.42","49.35","3.19","0.0"],
    [1504914,"2026-01-30 07:20:00","51411","6.773","307.3","12.51","305.7","1004.447","12.55","48.59","14.12","0.0"],
    [1504915,"2026-01-30 07:30:00","51412","6.566","311.0","11.07","307.5","1004.764","12.72","47.37","29.09","0.0"],
    [1504916,"2026-01-30 07:40:00","51413","6.931","316.6","10.65","329.8","1005.006","12.94","46.23","52.87","0.0"],
    [1504917,"2026-01-30 07:50:00","51414","7.039","317.5","10.88","311.3","1005.148","12.96","46.1","73.16","0.0"],
    [1504918,"2026-01-30 08:00:00","51415","5.206","313.5","8.66","325.6","1005.554","12.96","45.75","57.29","0.0"],
    [1504919,"2026-01-30 08:10:00","51416","2.5580000000000003","285.8","4.965","322.3","1006.011","12.92","45.15","103.5","0.0"],
    [1504920,"2026-01-30 08:20:00","51417","2.8","250.7","4.638999999999999","279.8","1006.317","12.69","45.97","168.5","0.0"],
    [1504921,"2026-01-30 08:30:00","51418","4.383","300.8","7.872999999999999","318.1","1006.271","12.62","47.03","188.0","0.0"],
    [1504922,"2026-01-30 08:40:00","51419","5.5489999999999995","307.6","8.13","310.0","1006.019","12.74","47.62","224.6","0.0"],
    [1504923,"2026-01-30 08:50:00","51420","5.221","297.0","9.41","286.0","1005.901","13.01","45.76","252.9","0.0"],
    [1504924,"2026-01-30 09:00:00","51421","5.18","291.5","7.872999999999999","290.4","1006.018","13.27","44.09","280.5","0.0"],
    [1504925,"2026-01-30 09:10:00","51422","4.494","282.5","7.056","299.7","1006.39","13.53","43.0","307.6","0.0"],
    [1504926,"2026-01-30 09:20:00","51423","4.059","277.7","6.239","282.1","1006.479","13.72","42.92","333.5","0.0"],
    [1504927,"2026-01-30 09:30:00","51424","4.742","290.1","6.664","291.2","1006.246","13.71","43.67","358.8","0.0"],
    [1504928,"2026-01-30 09:40:00","51425","4.925","284.4","8.1","304.4","1006.243","14.16","40.72","384.8","0.0"],
    [1504929,"2026-01-30 09:50:00","51426","3.55","268.2","6.272","267.0","1006.475","14.45","39.26","411.0","0.0"],
    [1504930,"2026-01-30 10:00:00","51427","4.382","282.0","7.611000000000001","282.5","1006.386","14.66","38.26","439.7","0.0"],
    [1504931,"2026-01-30 10:10:00","51428","5.912000000000001","291.9","8.75","286.6","1006.077","14.93","37.28","485.8","0.0"],
    [1504932,"2026-01-30 10:20:00","51429","5.2410000000000005","284.6","8.23","278.0","1006.189","15.18","36.47","478.5","0.0"],
    [1504933,"2026-01-30 10:30:00","51430","4.306","287.5","6.827000000000001","276.3","1006.279","15.11","37.24","483.5","0.0"],
    [1504934,"2026-01-30 10:40:00","51431","3.022","289.8","5.422999999999999","297.6","1006.249","15.17","37.74","499.9","0.0"],
    [1504935,"2026-01-30 10:50:00","51432","2.573","282.6","3.855","286.3","1006.347","15.28","37.65","382.8","0.0"],
    [1504936,"2026-01-30 11:00:00","51433","2.52","284.5","4.181","260.9","1006.286","15.04","38.13","85.6","0.0"],
    [1504937,"2026-01-30 11:10:00","51434","2.468","267.2","4.377","273.2","1006.24","15.09","38.4","454.1","0.0"],
    [1504938,"2026-01-30 11:20:00","51435","4.037","281.3","6.827000000000001","259.3","1006.099","15.31","37.47","549.3","0.0"],
    [1504939,"2026-01-30 11:30:00","51436","4.686","291.0","8.66","274.7","1005.86","15.33","37.55","552.7","0.0"],
    [1504940,"2026-01-30 11:40:00","51437","5.837000000000001","285.3","8.89","300.4","1005.746","15.5","37.17","563.0","0.0"],
    [1504941,"2026-01-30 11:50:00","51438","3.9010000000000002","278.9","6.042999999999999","260.4","1005.749","15.73","37.29","563.7","0.0"],
    [1504942,"2026-01-30 12:00:00","51439","4.231","290.3","6.925","287.4","1005.545","15.92","37.13","565.0","0.0"],
    [1504943,"2026-01-30 12:10:00","51440","3.387","306.7","5.325","331.4","1005.262","15.91","37.8","382.5","0.0"],
    [1504944,"2026-01-30 12:20:00","51441","2.989","310.9","6.011","333.8","1005.084","16.16","37.67","554.1","0.0"],
    [1504945,"2026-01-30 12:30:00","51442","3.242","280.6","6.042999999999999","301.4","1004.972","16.57","35.79","544.2","0.0"],
    [1504946,"2026-01-30 12:40:00","51443","3.6489999999999996","285.3","7.481","265.0","1004.808","16.87","34.98","545.3","0.0"],
    [1504947,"2026-01-30 12:50:00","51444","6.001","287.1","10.68","286.4","1004.51","16.91","34.38","547.7","0.0"],
    [1504948,"2026-01-30 13:00:00","51445","5.715","281.5","9.6","282.1","1004.301","17.01","34.67","409.2","0.0"],
    [1504949,"2026-01-30 13:10:00","51446","5.896","283.4","10.13","291.4","1004.12","17.06","34.74","528.2","0.0"],
    [1504950,"2026-01-30 13:20:00","51447","3.553","246.6","6.501","210.7","1004.132","17.33","34.54","517.0","0.0"],
    [1504951,"2026-01-30 13:30:00","51448","4.155","237.4","10.13","216.3","1004.156","17.33","34.52","508.2","0.0"],
    [1504952,"2026-01-30 13:40:00","51449","4.018","254.4","8.13","262.4","1004.062","17.34","34.68","495.1","0.0"],
    [1504953,"2026-01-30 13:50:00","51450","3.9419999999999997","237.5","6.827000000000001","218.8","1003.762","17.11","38.07","455.6","0.0"],
    [1504954,"2026-01-30 14:00:00","51451","4.64","243.3","8.98","251.3","1003.454","16.62","41.77","449.0","0.0"],
    [1504955,"2026-01-30 14:10:00","51452","4.593","240.0","8.98","219.1","1003.265","16.6","41.35","441.4","0.0"],
    [1504956,"2026-01-30 14:20:00","51453","4.453","238.1","8.53","217.4","1003.202","16.85","39.95","418.3","0.0"],
    [1504957,"2026-01-30 14:30:00","51454","4.622","237.2","9.7","281.7","1003.324","16.84","40.79","399.1","0.0"],
    [1504958,"2026-01-30 14:40:00","51455","4.059","231.7","8.1","264.5","1003.333","16.91","41.03","385.9","0.0"],
    [1504959,"2026-01-30 14:50:00","51456","4.069","234.6","7.252000000000001","223.6","1003.329","16.7","41.98","357.4","0.0"],
    [1504960,"2026-01-30 15:00:00","51457","3.3160000000000003","223.3","7.154","201.5","1003.254","16.83","41.86","334.8","0.0"],
    [1504961,"2026-01-30 15:10:00","51458","3.958","213.7","7.0889999999999995","206.7","1003.266","16.88","40.8","282.6","0.0"],
    [1504962,"2026-01-30 15:20:00","51459","4.167","202.6","8.26","194.9","1003.225","16.54","45.65","270.2","0.0"],
    [1504963,"2026-01-30 15:30:00","51460","6.837999999999999","191.6","8.69","181.5","1003.195","15.1","61.13","243.8","0.0"],
    [1504964,"2026-01-30 15:40:00","51461","6.851","196.5","9.31","207.0","1003.209","14.94","63.97","168.7","0.0"],
    [1504965,"2026-01-30 15:50:00","51462","6.2829999999999995","206.7","10.09","202.6","1003.251","15.17","60.85","182.2","0.0"],
    [1504966,"2026-01-30 16:00:00","51463","6.2139999999999995","218.5","10.88","225.9","1003.255","15.27","58.59","141.5","0.0"],
    [1504967,"2026-01-30 16:10:00","51464","5.216","221.5","9.41","210.4","1003.213","15.13","58.0","136.5","0.0"],
    [1504968,"2026-01-30 16:20:00","51465","5.584","218.9","9.47","229.1","1003.164","14.89","58.89","90.3","0.0"],
    [1504969,"2026-01-30 16:30:00","51466","4.525","219.0","7.938","222.0","1003.142","14.67","62.88","54.65","0.0"],
    [1504970,"2026-01-30 16:40:00","51467","3.835","221.6","7.0889999999999995","229.5","1002.976","14.54","65.9","32.42","0.0"],
    [1504971,"2026-01-30 16:50:00","51468","3.216","223.0","5.978","229.2","1002.848","14.42","67.95","16.59","0.0"],
    [1504972,"2026-01-30 17:00:00","51469","2.431","223.4","4.573","235.3","1002.822","14.26","70.7","9.21","0.0"],
    [1504973,"2026-01-30 17:10:00","51470","3.383","218.5","6.5329999999999995","225.7","1002.855","14.07","72.72","1.357","0.0"],
    [1504974,"2026-01-30 17:20:00","51471","4.093999999999999","219.0","7.579","221.7","1002.835","14.0","73.16","0.0","0.0"],
    [1504975,"2026-01-30 17:30:00","51472","4.303999999999999","220.2","6.827000000000001","188.4","1002.673","14.04","72.9","0.0","0.0"],
    [1504976,"2026-01-30 17:40:00","51473","2.931","225.4","4.802","209.1","1002.607","13.83","73.08","0.0","0.0"],
    [1504977,"2026-01-30 17:50:00","51474","2.984","219.1","5.1610000000000005","217.2","1002.482","13.81","70.9","0.0","0.0"],
    [1504978,"2026-01-30 18:00:00","51475","3.174","217.5","4.835","228.1","1002.459","13.84","67.74","0.0","0.0"],
    [1504979,"2026-01-30 18:10:00","51476","2.206","225.9","3.6260000000000003","206.6","1002.273","13.84","65.44","0.0","0.0"],
    [1504980,"2026-01-30 18:20:00","51477","2.146","235.6","3.92","221.3","1002.047","13.93","62.86","0.0","0.0"],
    [1504981,"2026-01-30 18:30:00","51478","1.32","261.9","2.287","229.1","1001.879","13.8","62.08","0.0","0.0"],
    [1504982,"2026-01-30 18:40:00","51479","1.249","274.2","1.8619999999999999","281.4","1001.616","13.65","61.73","0.0","0.0"],
    [1504983,"2026-01-30 18:50:00","51480","1.3119999999999998","266.5","1.764","262.2","1001.368","13.65","59.52","0.0","0.0"],
    [1504984,"2026-01-30 19:00:00","51481","0.9690000000000001","274.6","1.535","272.7","1001.097","13.61","57.83","0.0","0.0"],
    [1504985,"2026-01-30 19:10:00","51482","1.112","298.6","1.993","305.4","1000.912","13.64","57.41","0.0","0.0"],
    [1504986,"2026-01-30 19:20:00","51483","1.7","300.2","2.287","291.8","1000.695","14.09","54.39","0.0","0.0"],
    [1504987,"2026-01-30 19:30:00","51484","1.06","293.2","1.699","299.4","1000.4","14.09","53.52","0.0","0.0"],
    [1504988,"2026-01-30 19:40:00","51485","1.202","298.9","1.895","302.1","1000.205","14.09","53.1","0.0","0.0"],
    [1504989,"2026-01-30 19:50:00","51486","1.954","278.0","2.8089999999999997","291.0","1000.198","13.97","52.96","0.0","0.0"],
    [1504990,"2026-01-30 20:00:00","51487","2.04","273.7","3.495","298.2","1000.168","13.87","52.89","0.0","0.0"],
    [1504991,"2026-01-30 20:10:00","51488","3.335","283.5","5.096","278.6","1000.095","14.39","49.82","0.0","0.0"],
    [1504992,"2026-01-30 20:20:00","51489","4.538","282.4","9.02","281.9","1000.024","14.51","47.75","0.0","0.0"],
    [1504993,"2026-01-30 20:30:00","51490","5.351","280.9","9.87","276.2","999.9691","14.35","47.7","0.0","0.0"],
    [1504994,"2026-01-30 20:40:00","51491","4.77","286.1","9.11","264.7","999.9123","13.94","49.89","0.0","0.0"],
    [1504995,"2026-01-30 20:50:00","51492","5.088","292.3","8.36","286.1","999.5959","13.64","51.91","0.0","0.0"],
    [1504996,"2026-01-30 21:00:00","51493","6.917000000000001","293.6","10.71","293.2","999.1947","13.43","53.46","0.0","0.0"],
    [1504997,"2026-01-30 21:10:00","51494","5.928999999999999","293.9","9.28","303.4","999.1051","13.41","53.59","0.0","0.0"],
    [1504998,"2026-01-30 21:20:00","51495","4.539","288.6","8.85","297.8","999.1414","13.19","54.96","0.0","0.0"],
    [1504999,"2026-01-30 21:30:00","51496","4.88","294.0","7.84","299.1","999.0359","13.01","56.65","0.0","0.0"],
    [1505000,"2026-01-30 21:40:00","51497","5.2170000000000005","292.5","8.36","286.3","998.9568","12.94","56.5","0.0","0.0"],
    [1505001,"2026-01-30 21:50:00","51498","5.184","290.6","8.1","280.3","998.8599","12.77","57.19","0.0","0.0"],
    [1505002,"2026-01-30 22:00:00","51499","5.228","294.7","7.775","287.8","998.745","12.66","57.59","0.008","0.0"],
    [1505003,"2026-01-30 22:10:00","51500","5.43","292.8","8.66","309.0","998.5492","12.67","57.0","0.0","0.0"],
    [1505004,"2026-01-30 22:20:00","51501","4.19","294.7","6.925","303.7","998.3834","12.55","58.04","0.0","0.0"],
    [1505005,"2026-01-30 22:30:00","51502","3.7710000000000004","292.4","6.141","286.6","998.1521","12.44","59.13","0.0","0.0"],
    [1505006,"2026-01-30 22:40:00","51503","3.984","289.0","6.042999999999999","286.6","998.0605","12.32","60.25","0.0","0.0"],
    [1505007,"2026-01-30 22:50:00","51504","3.5469999999999997","291.5","5.096","288.4","998.0193","12.32","60.21","0.0","0.0"],
    [1505008,"2026-01-30 23:00:00","51505","3.0380000000000003","295.2","4.475","277.4","997.7953","12.28","60.56","0.0","0.0"],
    [1505009,"2026-01-30 23:10:00","51506","2.6260000000000003","291.0","3.7889999999999997","272.4","997.553","12.26","60.43","0.0","0.0"],
    [1505010,"2026-01-30 23:20:00","51507","2.6689999999999996","279.1","4.181","268.3","997.4641","12.18","60.6","0.0","0.0"],
    [1505011,"2026-01-30 23:30:00","51508","3.2539999999999996","284.0","4.769","286.5","997.3734","12.17","60.85","0.0","0.0"],
    [1505012,"2026-01-30 23:40:00","51509","3.423","282.3","5.357","267.1","997.171","12.06","61.54","0.0","0.0"],
    [1505013,"2026-01-30 23:50:00","51510","3.602","280.8","6.631","279.5","997.0432","11.97","62.22","0.0","0.0"],
    [1505014,"2026-01-31 00:00:00","51511","3.8280000000000003","285.7","6.403","294.8","996.9083","11.9","62.94","0.0","0.0"],
    [1505015,"2026-01-31 00:10:00","51512","3.701","284.3","5.88","283.8","996.7914","11.83","63.34","0.0","0.0"],
    [1505016,"2026-01-31 00:20:00","51513","3.326","280.2","5.88","270.9","996.7009","11.77","63.95","0.0","0.0"],
    [1505017,"2026-01-31 00:30:00","51514","2.989","270.9","5.2589999999999995","294.7","996.5896","11.68","64.39","0.0","0.0"],
    [1505018,"2026-01-31 00:40:00","51515","3.2289999999999996","277.0","5.684","277.6","996.4416","11.65","64.83","0.0","0.0"],
    [1505019,"2026-01-31 00:50:00","51516","4.671","287.0","6.957999999999999","285.7","996.28","11.75","64.38","0.0","0.0"],
    [1505020,"2026-01-31 01:00:00","51517","4.81","288.1","7.218999999999999","284.0","996.0811","11.8","63.68","0.0","0.0"],
    [1505021,"2026-01-31 01:10:00","51518","4.0569999999999995","286.7","5.815","284.9","995.8398","11.71","64.07","0.0","0.0"],
    [1505022,"2026-01-31 01:20:00","51519","3.293","285.5","4.737","297.3","995.6838","11.62","64.5","0.0","0.0"],
    [1505023,"2026-01-31 01:30:00","51520","3.2110000000000003","292.5","5.684","284.4","995.5667","11.6","64.83","0.0","0.0"],
    [1505024,"2026-01-31 01:40:00","51521","3.985","285.5","6.239","288.2","995.445","11.57","64.46","0.0","0.0"],
    [1505025,"2026-01-31 01:50:00","51522","4.048","284.8","5.978","285.3","995.3962","11.52","64.32","0.0","0.0"],
    [1505026,"2026-01-31 02:00:00","51523","3.609","284.7","5.749","275.4","995.278","11.43","64.7","0.0","0.0"],
    [1505027,"2026-01-31 02:10:00","51524","2.957","273.8","4.475","280.3","995.2484","11.25","65.4","0.0","0.0"],
    [1505028,"2026-01-31 02:20:00","51525","2.847","274.0","4.247","279.6","995.2836","11.05","66.24","0.0","0.0"],
    [1505029,"2026-01-31 02:30:00","51526","3.0260000000000002","286.8","4.933","272.8","995.2777","11.12","66.75","0.0","0.0"],
    [1505030,"2026-01-31 02:40:00","51527","3.807","291.2","4.933","297.7","995.3066","11.17","66.32","0.0","0.0"],
    [1505031,"2026-01-31 02:50:00","51528","3.832","287.9","6.011","277.8","995.3585","11.42","64.49","0.0","0.0"],
    [1505032,"2026-01-31 03:00:00","51529","4.316","286.1","6.468","285.3","995.1973","11.41","63.59","0.0","0.0"],
    [1505033,"2026-01-31 03:10:00","51530","3.966","284.7","6.141","280.2","995.1287","11.35","63.44","0.0","0.0"],
    [1505034,"2026-01-31 03:20:00","51531","3.531","291.1","6.631","293.5","995.1969","11.33","63.45","0.0","0.0"],
    [1505035,"2026-01-31 03:30:00","51532","2.302","312.7","4.051","314.8","995.3356","11.31","63.39","0.0","0.0"],
    [1505036,"2026-01-31 03:40:00","51533","2.66","302.5","5.1610000000000005","272.2","995.2021","11.27","63.5","0.0","0.0"],
    [1505037,"2026-01-31 03:50:00","51534","3.4339999999999997","292.7","5.945","288.4","995.1927","11.29","63.19","0.0","0.0"],
    [1505038,"2026-01-31 04:00:00","51535","4.593999999999999","287.7","8.75","297.6","995.236","11.26","63.24","0.0","0.0"],
    [1505039,"2026-01-31 04:10:00","51536","5.0569999999999995","288.9","8.4","290.2","995.2932","11.15","63.58","0.0","0.0"],
    [1505040,"2026-01-31 04:20:00","51537","5.722","288.4","9.21","285.0","995.3968","11.08","63.99","0.0","0.0"],
    [1505041,"2026-01-31 04:30:00","51538","4.553999999999999","286.4","7.382999999999999","289.4","995.6619","10.98","64.41","0.0","0.0"],
    [1505042,"2026-01-31 04:40:00","51539","5.986000000000001","284.5","9.21","281.0","995.9313","10.63","65.2","0.0","0.0"],
    [1505043,"2026-01-31 04:50:00","51540","5.659","284.5","8.89","283.3","996.3594","10.08","65.08","0.0","0.0"],
    [1505044,"2026-01-31 05:00:00","51541","4.9639999999999995","289.6","7.317","300.8","996.5609","10.02","64.78","0.0","0.0"],
    [1505045,"2026-01-31 05:10:00","51542","4.213","292.2","6.86","304.2","996.7744","9.94","64.66","0.0","0.0"],
    [1505046,"2026-01-31 05:20:00","51543","4.449","290.2","7.121","285.5","996.7534","9.98","64.39","0.0","0.0"],
    [1505047,"2026-01-31 05:30:00","51544","4.136","292.3","7.382999999999999","275.5","996.8702","9.99","64.56","0.0","0.0"],
    [1505048,"2026-01-31 05:40:00","51545","4.503","287.7","7.84","276.6","996.9898","9.87","65.06","0.0","0.0"],
    [1505049,"2026-01-31 05:50:00","51546","4.692","293.4","7.938","330.2","997.1544","9.89","65.37","0.0","0.0"],
    [1505050,"2026-01-31 06:00:00","51547","5.603","293.3","8.69","281.8","997.332","10.0","65.15","0.0","0.0"],
    [1505051,"2026-01-31 06:10:00","51548","6.443","293.2","9.02","313.0","997.4819","10.06","64.58","0.0","0.0"],
    [1505052,"2026-01-31 06:20:00","51549","7.14","294.9","11.63","306.7","997.6589","10.13","62.78","0.0","0.0"],
    [1505053,"2026-01-31 06:30:00","51550","8.04","292.3","11.63","285.1","997.7495","10.2","59.35","0.0","0.0"],
    [1505054,"2026-01-31 06:40:00","51551","7.832000000000001","295.4","13.03","288.0","997.9161","10.22","57.51","0.0","0.0"],
    [1505055,"2026-01-31 06:50:00","51552","7.284","294.1","10.71","289.8","998.2379","10.21","56.42","0.0","0.0"],
    [1505056,"2026-01-31 07:00:00","51553","7.601","293.1","11.63","288.3","998.4608","10.19","55.65","0.1","0.0"],
    [1505057,"2026-01-31 07:10:00","51554","7.2410000000000005","293.6","11.17","283.4","998.8062","10.14","55.17","1.817","0.0"],
    [1505058,"2026-01-31 07:20:00","51555","7.792000000000001","292.4","13.43","291.6","998.9979","10.1","54.63","5.257000000000001","0.0"],
    [1505059,"2026-01-31 07:30:00","51556","7.141","292.7","12.18","287.9","999.2391","10.09","54.08","11.16","0.0"],
    [1505060,"2026-01-31 07:40:00","51557","7.925","289.7","12.48","280.2","999.3613","10.01","53.87","22.02","0.0"],
    [1505061,"2026-01-31 07:50:00","51558","7.504","290.9","10.94","275.3","999.6274","9.93","54.03","33.53","0.0"],
    [1505062,"2026-01-31 08:00:00","51559","5.444","298.0","9.83","299.4","1000.05","9.89","54.23","47.32","0.0"],
    [1505063,"2026-01-31 08:10:00","51560","4.289","301.9","9.51","270.5","1000.244","9.92","54.47","69.65","0.0"],
    [1505064,"2026-01-31 08:20:00","51561","4.232","300.5","7.971","315.8","1000.436","10.04","53.91","89.0","0.0"],
    [1505065,"2026-01-31 08:30:00","51562","5.615","297.8","9.41","289.6","1000.429","10.11","53.35","93.0","0.0"],
    [1505066,"2026-01-31 08:40:00","51563","6.3660000000000005","295.9","11.14","278.3","1000.469","10.12","52.82","87.6","0.0"],
    [1505067,"2026-01-31 08:50:00","51564","7.125","293.9","11.86","280.4","1000.561","10.1","52.85","86.3","0.0"],
    [1505068,"2026-01-31 09:00:00","51565","7.95","292.8","11.76","293.0","1000.637","10.1","53.0","137.6","0.0"],
    [1505069,"2026-01-31 09:10:00","51566","8.54","293.6","13.3","307.7","1000.722","10.35","52.51","284.3","0.0"],
    [1505070,"2026-01-31 09:20:00","51567","7.984","293.8","14.57","289.5","1000.921","10.61","51.81","320.8","0.0"],
    [1505071,"2026-01-31 09:30:00","51568","7.059","293.0","13.0","296.5","1001.19","10.78","51.17","324.9","0.0"],
    [1505072,"2026-01-31 09:40:00","51569","6.099","295.3","12.35","285.5","1001.466","10.94","50.64","314.3","0.0"],
    [1505073,"2026-01-31 09:50:00","51570","6.496","294.6","10.39","293.0","1001.513","11.2","49.73","400.9","0.0"],
    [1505074,"2026-01-31 10:00:00","51571","6.6610000000000005","289.9","9.87","296.9","1001.643","11.44","48.8","435.0","0.0"],
    [1505075,"2026-01-31 10:10:00","51572","7.11","293.0","10.49","280.5","1001.832","11.64","47.91","462.8","0.0"],
    [1505076,"2026-01-31 10:20:00","51573","6.662000000000001","292.1","10.75","292.8","1002.03","11.9","47.55","475.8","0.0"],
    [1505077,"2026-01-31 10:30:00","51574","6.856","291.9","11.07","320.8","1002.152","11.97","46.59","472.8","0.0"],
    [1505078,"2026-01-31 10:40:00","51575","6.405","290.5","11.17","297.1","1002.393","12.1","46.37","472.7","0.0"],
    [1505079,"2026-01-31 10:50:00","51576","6.425","292.8","10.09","290.8","1002.497","12.36","45.48","532.2","0.0"],
    [1505080,"2026-01-31 11:00:00","51577","6.754","291.0","12.84","302.5","1002.697","12.58","44.66","543.7","0.0"],
    [1505081,"2026-01-31 11:10:00","51578","7.063","292.2","11.56","290.8","1002.845","12.83","44.0","561.9","0.0"],
    [1505082,"2026-01-31 11:20:00","51579","6.716","295.1","11.63","295.1","1002.94","13.05","43.49","569.2","0.0"],
    [1505083,"2026-01-31 11:30:00","51580","7.795","292.7","12.02","289.4","1002.994","13.25","42.96","561.1","0.0"],
    [1505084,"2026-01-31 11:40:00","51581","8.37","292.3","13.23","287.8","1003.078","13.39","42.62","559.4","0.0"],
    [1505085,"2026-01-31 11:50:00","51582","8.21","291.6","13.23","291.8","1003.173","13.51","42.36","562.0","0.0"],
    [1505086,"2026-01-31 12:00:00","51583","7.45","290.3","12.02","293.0","1003.368","13.72","42.37","545.8","0.0"],
    [1505087,"2026-01-31 12:10:00","51584","7.789","289.0","11.79","271.7","1003.348","13.88","42.47","564.1","0.0"],
    [1505088,"2026-01-31 12:20:00","51585","7.7010000000000005","293.3","13.2","309.7","1003.308","14.0","41.59","572.1","0.0"],
    [1505089,"2026-01-31 12:30:00","51586","7.358","290.3","10.62","296.2","1003.372","14.08","41.36","568.4","0.0"],
    [1505090,"2026-01-31 12:40:00","51587","6.992000000000001","290.7","10.13","282.6","1003.403","14.15","41.7","561.4","0.0"],
    [1505091,"2026-01-31 12:50:00","51588","6.942","291.4","10.68","304.3","1003.496","14.16","41.67","554.3","0.0"],
    [1505092,"2026-01-31 13:00:00","51589","6.496","290.2","10.32","280.9","1003.659","14.31","41.67","544.7","0.0"],
    [1505093,"2026-01-31 13:10:00","51590","6.611000000000001","290.9","9.7","279.2","1003.698","14.45","41.45","534.8","0.0"],
    [1505094,"2026-01-31 13:20:00","51591","6.355","293.2","9.21","298.6","1003.772","14.7","40.97","523.0","0.0"],
    [1505095,"2026-01-31 13:30:00","51592","6.205","292.3","9.9","295.3","1003.774","14.92","40.69","510.3","0.0"],
    [1505096,"2026-01-31 13:40:00","51593","6.356","291.1","10.55","293.9","1003.926","15.03","39.61","495.8","0.0"],
    [1505097,"2026-01-31 13:50:00","51594","6.226","294.2","10.19","307.9","1004.184","15.02","39.04","479.2","0.0"],
    [1505098,"2026-01-31 14:00:00","51595","5.477","291.0","8.72","282.4","1004.506","15.18","39.01","459.6","0.0"],
    [1505099,"2026-01-31 14:10:00","51596","4.577","288.8","8.4","283.1","1004.741","15.22","39.73","442.4","0.0"],
    [1505100,"2026-01-31 14:20:00","51597","4.612","285.0","9.05","287.0","1004.868","15.32","39.47","424.2","0.0"],
    [1505101,"2026-01-31 14:30:00","51598","5.419","295.0","8.92","295.0","1004.882","15.31","39.12","404.1","0.0"],
    [1505102,"2026-01-31 14:40:00","51599","5.033","294.6","9.15","328.1","1005.008","15.36","39.2","382.1","0.0"],
    [1505103,"2026-01-31 14:50:00","51600","4.353","288.8","6.9910000000000005","289.8","1005.155","15.55","39.05","357.2","0.0"],
    [1505104,"2026-01-31 15:00:00","51601","5.0760000000000005","291.0","8.98","285.9","1005.287","15.56","39.25","331.6","0.0"],
    [1505105,"2026-01-31 15:10:00","51602","4.508","294.9","8.53","298.9","1005.411","15.54","39.82","303.7","0.0"],
    [1505106,"2026-01-31 15:20:00","51603","4.749","287.1","8.82","283.1","1005.628","15.53","40.04","277.5","0.0"],
    [1505107,"2026-01-31 15:30:00","51604","4.208","290.1","7.252000000000001","278.6","1005.734","15.66","39.66","248.9","0.0"],
    [1505108,"2026-01-31 15:40:00","51605","2.6489999999999996","289.8","5.031000000000001","276.7","1005.835","15.87","39.26","218.6","0.0"],
    [1505109,"2026-01-31 15:50:00","51606","3.7239999999999998","299.6","7.579","307.9","1005.945","15.7","39.11","189.4","0.0"],
    [1505110,"2026-01-31 16:00:00","51607","3.3710000000000004","294.1","6.5329999999999995","297.2","1006.176","15.63","39.67","160.6","0.0"],
    [1505111,"2026-01-31 16:10:00","51608","3.363","291.7","6.141","288.7","1006.323","15.55","40.74","132.4","0.0"],
    [1505112,"2026-01-31 16:20:00","51609","4.495","295.0","8.4","286.4","1006.484","15.28","42.13","92.2","0.0"],
    [1505113,"2026-01-31 16:30:00","51610","3.69","291.9","6.337000000000001","297.4","1006.588","15.02","43.36","22.4","0.0"],
    [1505114,"2026-01-31 16:40:00","51611","4.065","298.5","10.16","295.0","1006.672","14.89","43.9","17.67","0.0"],
    [1505115,"2026-01-31 16:50:00","51612","4.223","291.2","7.513","324.9","1006.836","14.68","44.3","12.81","0.0"],
    [1505116,"2026-01-31 17:00:00","51613","4.6610000000000005","284.4","7.905","289.9","1007.049","14.51","44.29","7.5520000000000005","0.0"],
    [1505117,"2026-01-31 17:10:00","51614","4.824","284.2","8.79","276.1","1007.422","14.25","44.95","2.324","0.0"],
    [1505118,"2026-01-31 17:20:00","51615","3.342","278.6","5.815","290.5","1007.816","14.05","45.68","0.028999999999999998","0.0"],
    [1505119,"2026-01-31 17:30:00","51616","4.454","284.2","8.75","262.6","1007.91","13.87","46.17","0.0","0.0"],
    [1505120,"2026-01-31 17:40:00","51617","3.9730000000000003","288.6","6.435","290.1","1008.09","13.73","46.85","0.0","0.0"],
    [1505121,"2026-01-31 17:50:00","51618","3.08","296.7","5.227","283.2","1008.178","13.6","47.6","0.0","0.0"],
    [1505122,"2026-01-31 18:00:00","51619","4.039","304.5","9.44","300.0","1008.29","13.51","48.2","0.0","0.0"],
    [1505123,"2026-01-31 18:10:00","51620","5.308","295.9","9.96","278.6","1008.343","13.39","48.24","0.0","0.0"],
    [1505124,"2026-01-31 18:20:00","51621","6.8020000000000005","295.8","11.24","297.6","1008.438","13.3","48.47","0.0","0.0"],
    [1505125,"2026-01-31 18:30:00","51622","8.24","299.0","13.2","302.5","1008.431","13.24","48.57","0.0","0.0"],
    [1505126,"2026-01-31 18:40:00","51623","6.143","301.3","9.21","279.8","1008.799","13.13","49.09","0.0","0.0"],
    [1505127,"2026-01-31 18:50:00","51624","5.591","310.4","8.13","305.1","1009.036","13.05","49.16","0.0","0.0"],
    [1505128,"2026-01-31 19:00:00","51625","4.895","328.8","7.4479999999999995","325.7","1009.18","13.0","49.8","0.0","0.0"],
    [1505129,"2026-01-31 19:10:00","51626","4.739","326.7","9.83","331.9","1009.363","12.95","50.23","0.0","0.0"],
    [1505130,"2026-01-31 19:20:00","51627","5.597","324.2","10.45","306.5","1009.456","12.84","50.82","0.0","0.0"],
    [1505131,"2026-01-31 19:30:00","51628","5.0760000000000005","328.0","7.872999999999999","318.1","1009.665","12.78","50.66","0.0","0.0"],
    [1505132,"2026-01-31 19:40:00","51629","6.044","312.6","11.34","309.5","1009.647","12.7","51.43","0.0","0.0"],
    [1505133,"2026-01-31 19:50:00","51630","5.129","311.4","9.41","323.5","1009.787","12.6","51.97","0.0","0.0"],
    [1505134,"2026-01-31 20:00:00","51631","5.012","326.6","8.46","312.9","1009.898","12.52","52.64","0.0","0.0"],
    [1505135,"2026-01-31 20:10:00","51632","5.605","327.4","8.79","305.6","1009.844","12.43","52.63","0.0","0.0"],
    [1505136,"2026-01-31 20:20:00","51633","7.416","322.1","11.01","309.4","1009.717","12.36","53.35","0.0","0.0"],
    [1505137,"2026-01-31 20:30:00","51634","9.01","315.4","12.9","310.1","1009.504","12.3","53.61","0.0","0.0"],
    [1505138,"2026-01-31 20:40:00","51635","7.404","302.4","11.24","299.9","1009.644","12.2","53.41","0.0","0.0"],
    [1505139,"2026-01-31 20:50:00","51636","6.742999999999999","306.3","11.07","307.2","1009.923","12.09","53.69","0.0","0.0"],
    [1505140,"2026-01-31 21:00:00","51637","7.7379999999999995","307.9","11.66","315.8","1009.968","12.01","53.84","0.0","0.0"],
    [1505141,"2026-01-31 21:10:00","51638","8.91","310.0","13.75","308.3","1009.914","12.02","53.75","0.0","0.0"],
    [1505142,"2026-01-31 21:20:00","51639","9.18","305.0","13.82","297.2","1009.895","12.03","53.21","0.0","0.0"],
    [1505143,"2026-01-31 21:30:00","51640","8.43","301.4","13.46","309.2","1010.044","12.03","52.94","0.0","0.0"],
    [1505144,"2026-01-31 21:40:00","51641","7.851","301.4","12.94","309.0","1010.197","11.93","53.32","0.0","0.0"],
    [1505145,"2026-01-31 21:50:00","51642","7.445","301.3","12.77","295.9","1010.41","11.8","53.75","0.0","0.0"],
    [1505146,"2026-01-31 22:00:00","51643","6.8229999999999995","300.7","11.14","298.1","1010.708","11.75","54.19","0.0","0.0"],
    [1505147,"2026-01-31 22:10:00","51644","6.6579999999999995","303.5","10.94","302.3","1010.926","11.71","54.4","0.0","0.0"],
    [1505148,"2026-01-31 22:20:00","51645","6.459","306.2","9.08","288.7","1011.018","11.72","54.25","0.0","0.0"],
    [1505149,"2026-01-31 22:30:00","51646","5.941","311.8","9.6","314.4","1011.106","11.72","54.53","0.0","0.0"],
    [1505150,"2026-01-31 22:40:00","51647","6.736000000000001","310.8","10.65","313.9","1011.182","11.72","54.7","0.0","0.0"],
    [1505151,"2026-01-31 22:50:00","51648","7.29","313.3","10.09","320.0","1011.179","11.72","54.33","0.0","0.0"],
    [1505152,"2026-01-31 23:00:00","51649","5.476","307.5","9.24","318.1","1011.185","11.78","53.67","0.0","0.0"],
    [1505153,"2026-01-31 23:10:00","51650","6.372000000000001","303.6","11.34","315.2","1011.143","11.79","53.02","0.0","0.0"],
    [1505154,"2026-01-31 23:20:00","51651","7.013","305.5","10.58","297.6","1010.92","11.81","52.71","0.0","0.0"],
    [1505155,"2026-01-31 23:30:00","51652","6.042999999999999","305.2","9.44","306.3","1010.729","11.81","52.68","0.0","0.0"],
    [1505156,"2026-01-31 23:40:00","51653","6.422000000000001","301.9","10.75","291.9","1010.597","11.71","52.5","0.0","0.0"],
    [1505157,"2026-01-31 23:50:00","51654","6.987","304.4","11.5","304.0","1010.516","11.49","53.93","0.0","0.0"],
    [1505158,"2026-02-01 00:00:00","51655","7.678999999999999","301.4","11.47","313.2","1010.445","11.41","54.36","0.0","0.0"],
    [1505159,"2026-02-01 00:10:00","51656","7.73","300.2","12.54","299.3","1010.523","11.39","54.23","0.0","0.0"],
    [1505160,"2026-02-01 00:20:00","51657","6.968","298.6","9.87","301.0","1010.738","11.35","54.36","0.0","0.0"],
    [1505161,"2026-02-01 00:30:00","51658","6.105","301.6","9.02","303.7","1010.882","11.28","54.47","0.0","0.0"],
    [1505162,"2026-02-01 00:40:00","51659","6.629","306.2","11.11","319.1","1010.827","11.3","54.81","0.0","0.0"],
    [1505163,"2026-02-01 00:50:00","51660","6.803999999999999","301.7","10.55","299.8","1010.747","11.24","54.33","0.0","0.0"],
    [1505164,"2026-02-01 01:00:00","51661","7.78","300.8","12.41","302.5","1010.646","11.21","54.2","0.0","0.0"],
    [1505165,"2026-02-01 01:10:00","51662","8.23","296.3","13.1","294.2","1010.644","11.13","54.28","0.0","0.0"],
    [1505166,"2026-02-01 01:20:00","51663","7.452000000000001","301.2","10.88","317.0","1010.654","11.11","54.58","0.0","0.0"],
    [1505167,"2026-02-01 01:30:00","51664","6.6370000000000005","301.6","11.37","306.0","1010.723","11.02","55.32","0.0","0.0"],
    [1505168,"2026-02-01 01:40:00","51665","6.557","310.6","9.15","322.5","1010.863","10.96","55.89","0.0","0.0"],
    [1505169,"2026-02-01 01:50:00","51666","6.912999999999999","311.8","9.54","317.9","1010.845","10.97","55.71","0.0","0.0"],
    [1505170,"2026-02-01 02:00:00","51667","7.377000000000001","312.0","11.3","305.2","1010.829","10.96","55.64","0.0","0.0"],
    [1505171,"2026-02-01 02:10:00","51668","7.13","305.3","12.02","313.6","1010.683","11.04","54.64","0.0","0.0"],
    [1505172,"2026-02-01 02:20:00","51669","6.6","299.4","10.75","299.0","1010.621","11.04","54.02","0.0","0.0"],
    [1505173,"2026-02-01 02:30:00","51670","7.4270000000000005","302.6","12.94","309.5","1010.405","10.99","54.0","0.0","0.0"],
    [1505174,"2026-02-01 02:40:00","51671","7.2","308.1","10.94","317.3","1010.427","11.05","54.34","0.0","0.0"],
    [1505175,"2026-02-01 02:50:00","51672","7.445","307.2","10.03","311.1","1010.334","11.1","53.68","0.0","0.0"],
    [1505176,"2026-02-01 03:00:00","51673","7.2170000000000005","305.5","12.28","307.0","1010.295","11.13","53.09","0.0","0.0"],
    [1505177,"2026-02-01 03:10:00","51674","6.965","301.0","12.51","311.9","1010.211","11.15","52.25","0.0","0.0"],
    [1505178,"2026-02-01 03:20:00","51675","6.059","297.2","9.21","301.1","1010.26","11.19","51.79","0.0","0.0"],
    [1505179,"2026-02-01 03:30:00","51676","3.072","276.3","7.938","305.6","1010.65","11.2","51.1","0.0","0.0"],
    [1505180,"2026-02-01 03:40:00","51677","2.6660000000000004","177.9","4.998","162.3","1011.09","11.27","51.49","0.0","0.0"],
    [1505181,"2026-02-01 03:50:00","51678","2.015","251.4","4.704","256.3","1010.951","11.03","51.77","0.0","0.0"],
    [1505182,"2026-02-01 04:00:00","51679","2.266","189.8","5.031000000000001","212.5","1011.202","11.1","52.09","0.0","0.0"],
    [1505183,"2026-02-01 04:10:00","51680","3.115","233.5","5.422999999999999","239.6","1011.242","10.9","52.43","0.0","0.0"],
    [1505184,"2026-02-01 04:20:00","51681","3.165","260.2","6.207000000000001","256.4","1011.362","10.61","53.12","0.0","0.0"],
    [1505185,"2026-02-01 04:30:00","51682","3.7460000000000004","276.8","5.847","267.9","1011.367","10.47","53.61","0.0","0.0"],
    [1505186,"2026-02-01 04:40:00","51683","5.504","297.7","7.382999999999999","293.1","1011.037","10.74","53.18","0.0","0.0"],
    [1505187,"2026-02-01 04:50:00","51684","5.196000000000001","305.4","7.317","298.1","1010.904","10.49","55.06","0.0","0.0"],
    [1505188,"2026-02-01 05:00:00","51685","2.905","288.8","5.945","304.7","1011.141","10.55","53.81","0.0","0.0"],
    [1505189,"2026-02-01 05:10:00","51686","2.242","179.6","3.528","159.3","1011.284","10.71","53.86","0.0","0.0"],
    [1505190,"2026-02-01 05:20:00","51687","2.8989999999999996","196.3","4.606","205.5","1011.408","10.55","54.34","0.0","0.0"],
    [1505191,"2026-02-01 05:30:00","51688","3.016","208.4","4.606","207.6","1011.351","10.41","53.64","0.0","0.0"],
    [1505192,"2026-02-01 05:40:00","51689","1.63","240.3","3.6260000000000003","264.0","1011.351","10.2","54.22","0.0","0.0"],
    [1505193,"2026-02-01 05:50:00","51690","3.641","273.3","5.292000000000001","292.0","1011.509","9.98","54.74","0.0","0.0"],
    [1505194,"2026-02-01 06:00:00","51691","5.229","291.7","7.252000000000001","300.2","1011.338","10.0","55.31","0.0","0.0"],
    [1505195,"2026-02-01 06:10:00","51692","3.326","279.9","6.0760000000000005","285.2","1011.443","9.71","55.75","0.0","0.0"],
    [1505196,"2026-02-01 06:20:00","51693","2.263","274.8","3.7569999999999997","304.3","1011.443","9.52","56.66","0.0","0.0"],
    [1505197,"2026-02-01 06:30:00","51694","1.808","271.5","3.397","302.0","1011.577","9.71","57.59","0.0","0.0"],
    [1505198,"2026-02-01 06:40:00","51695","1.871","193.2","2.385","167.7","1011.78","9.55","58.82","0.0","0.0"],
    [1505199,"2026-02-01 06:50:00","51696","2.423","179.4","3.5610000000000004","180.6","1011.896","9.31","59.56","0.0","0.0"],
    [1505200,"2026-02-01 07:00:00","51697","1.271","213.0","2.548","176.5","1012.007","9.4","59.74","0.517","0.0"],
    [1505201,"2026-02-01 07:10:00","51698","2.271","276.3","3.103","279.9","1011.907","9.07","59.28","5.297000000000001","0.0"],
    [1505202,"2026-02-01 07:20:00","51699","1.75","282.7","3.6260000000000003","304.6","1011.85","9.31","58.67","13.05","0.0"],
    [1505203,"2026-02-01 07:30:00","51700","2.049","295.7","3.822","298.3","1011.743","9.79","57.57","21.62","0.0"],
    [1505204,"2026-02-01 07:40:00","51701","0.584","282.3","2.221","289.6","1011.853","9.85","56.4","27.82","0.0"],
    [1505205,"2026-02-01 07:50:00","51702","0.746","314.3","2.613","298.6","1011.928","10.24","55.2","44.62","0.0"],
    [1505206,"2026-02-01 08:00:00","51703","1.347","267.7","3.005","282.1","1011.974","10.34","54.06","87.8","0.0"],
    [1505207,"2026-02-01 08:10:00","51704","1.4369999999999998","278.9","2.7769999999999997","272.5","1012.07","10.33","54.17","83.3","0.0"],
    [1505208,"2026-02-01 08:20:00","51705","2.291","270.7","3.6910000000000003","276.2","1011.838","9.64","56.78","62.86","0.0"],
    [1505209,"2026-02-01 08:30:00","51706","1.749","229.8","3.463","273.6","1012.252","9.56","57.66","78.23","0.0"],
    [1505210,"2026-02-01 08:40:00","51707","3.2119999999999997","282.9","4.769","282.5","1012.093","9.33","58.35","133.4","0.0"],
    [1505211,"2026-02-01 08:50:00","51708","2.0909999999999997","280.1","2.875","263.5","1012.06","9.57","58.14","136.6","0.0"],
    [1505212,"2026-02-01 09:00:00","51709","2.026","251.2","3.7239999999999998","254.4","1012.125","9.71","57.66","121.3","0.0"],
    [1505213,"2026-02-01 09:10:00","51710","2.543","269.9","3.855","271.1","1011.989","9.67","57.34","123.1","0.0"],
    [1505214,"2026-02-01 09:20:00","51711","2.7289999999999996","267.3","4.051","269.9","1012.066","9.69","57.65","138.6","0.0"],
    [1505215,"2026-02-01 09:30:00","51712","2.593","275.3","3.887","274.3","1012.028","9.97","56.84","147.2","0.0"],
    [1505216,"2026-02-01 09:40:00","51713","1.87","260.1","2.679","250.0","1012.042","10.27","55.92","107.3","0.0"],
    [1505217,"2026-02-01 09:50:00","51714","1.569","239.5","3.201","243.9","1012.111","10.33","55.21","83.8","0.0"],
    [1505218,"2026-02-01 10:00:00","51715","2.455","262.8","5.521","273.7","1012.075","10.01","56.13","105.4","0.0"],
    [1505219,"2026-02-01 10:10:00","51716","3.449","265.2","5.749","272.6","1012.134","9.82","57.29","93.8","0.0"],
    [1505220,"2026-02-01 10:20:00","51717","3.278","266.5","5.88","262.9","1012.245","9.84","57.05","81.8","0.0"],
    [1505221,"2026-02-01 10:30:00","51718","3.397","263.5","6.141","273.2","1012.15","9.85","57.4","76.15","0.0"],
    [1505222,"2026-02-01 10:40:00","51719","4.025","272.7","6.207000000000001","285.3","1011.999","9.77","58.61","87.7","0.0"],
    [1505223,"2026-02-01 10:50:00","51720","4.01","272.1","6.697","278.8","1012.041","9.82","59.05","109.0","0.0"],
    [1505224,"2026-02-01 11:00:00","51721","4.894","279.4","7.84","276.9","1011.934","10.06","58.44","151.4","0.0"],
    [1505225,"2026-02-01 11:10:00","51722","4.138999999999999","278.3","6.011","283.8","1011.769","10.32","57.63","202.2","0.0"],
    [1505226,"2026-02-01 11:20:00","51723","3.98","272.3","5.586","267.1","1011.584","10.49","57.01","253.1","0.0"],
    [1505227,"2026-02-01 11:30:00","51724","3.4130000000000003","266.0","5.227","268.0","1011.423","10.85","56.44","396.3","0.0"],
    [1505228,"2026-02-01 11:40:00","51725","2.889","261.8","5.619","264.8","1011.378","11.26","55.13","433.4","0.0"],
    [1505229,"2026-02-01 11:50:00","51726","3.392","263.9","5.7170000000000005","266.8","1011.115","11.45","54.3","461.8","0.0"],
    [1505230,"2026-02-01 12:00:00","51727","3.3569999999999998","285.9","4.737","280.2","1010.838","11.41","54.22","354.2","0.0"],
    [1505231,"2026-02-01 12:10:00","51728","2.947","282.1","4.4430000000000005","277.6","1010.804","11.58","54.13","402.6","0.0"],
    [1505232,"2026-02-01 12:20:00","51729","2.275","286.8","4.018","272.5","1010.805","11.95","53.19","454.5","0.0"],
    [1505233,"2026-02-01 12:30:00","51730","2.499","296.9","4.2139999999999995","297.1","1010.58","12.49","51.88","508.1","0.0"],
    [1505234,"2026-02-01 12:40:00","51731","3.092","298.1","5.749","321.5","1010.347","12.74","50.43","519.7","0.0"],
    [1505235,"2026-02-01 12:50:00","51732","3.503","289.3","4.835","275.6","1010.028","12.94","49.6","575.4","0.0"],
    [1505236,"2026-02-01 13:00:00","51733","2.7569999999999997","264.5","5.129","260.0","1009.776","13.14","49.31","477.1","0.0"],
    [1505237,"2026-02-01 13:10:00","51734","2.926","222.7","4.247","237.2","1009.573","13.26","49.1","524.5","0.0"],
    [1505238,"2026-02-01 13:20:00","51735","2.7489999999999997","211.0","5.227","197.2","1009.385","13.2","49.67","511.6","0.0"],
    [1505239,"2026-02-01 13:30:00","51736","4.631","185.6","6.207000000000001","193.2","1009.038","12.57","52.77","476.9","0.0"],
    [1505240,"2026-02-01 13:40:00","51737","4.919","188.3","6.435","187.8","1008.852","12.28","55.53","493.8","0.0"],
    [1505241,"2026-02-01 13:50:00","51738","5.327999999999999","188.3","6.7620000000000005","192.1","1008.77","12.23","56.71","480.8","0.0"],
    [1505242,"2026-02-01 14:00:00","51739","4.4910000000000005","191.3","5.978","184.0","1008.663","12.37","56.42","404.2","0.0"],
    [1505243,"2026-02-01 14:10:00","51740","4.175","199.4","5.912999999999999","186.7","1008.778","12.41","56.68","249.9","0.0"],
    [1505244,"2026-02-01 14:20:00","51741","3.5039999999999996","203.3","5.455","211.6","1008.763","12.53","56.57","228.2","0.0"],
    [1505245,"2026-02-01 14:30:00","51742","4.732","188.6","5.684","193.5","1008.652","12.59","58.81","253.5","0.0"],
    [1505246,"2026-02-01 14:40:00","51743","4.615","195.6","6.795","202.5","1008.662","12.89","59.71","268.2","0.0"],
    [1505247,"2026-02-01 14:50:00","51744","3.674","202.4","6.827000000000001","194.2","1008.629","13.21","61.0","268.9","0.0"],
    [1505248,"2026-02-01 15:00:00","51745","3.556","200.9","5.455","213.8","1008.564","13.55","61.6","250.3","0.0"],
    [1505249,"2026-02-01 15:10:00","51746","2.205","219.9","4.965","197.3","1008.416","13.99","59.22","255.9","0.0"],
    [1505250,"2026-02-01 15:20:00","51747","3.148","219.6","5.063","225.1","1008.252","14.32","55.38","236.5","0.0"],
    [1505251,"2026-02-01 15:30:00","51748","2.202","221.6","4.573","205.7","1008.142","14.53","53.56","170.0","0.0"],
    [1505252,"2026-02-01 15:40:00","51749","2.488","219.8","3.822","216.2","1008.228","14.74","51.83","177.1","0.0"],
    [1505253,"2026-02-01 15:50:00","51750","3.667","248.9","8.0","264.7","1008.212","15.01","45.44","149.2","0.0"],
    [1505254,"2026-02-01 16:00:00","51751","2.9410000000000003","248.3","6.795","262.6","1008.178","15.16","41.58","135.4","0.0"],
    [1505255,"2026-02-01 16:10:00","51752","3.838","264.1","6.893","256.3","1008.233","14.95","41.95","87.1","0.0"],
    [1505256,"2026-02-01 16:20:00","51753","3.888","279.4","5.619","284.4","1008.371","14.77","42.83","62.52","0.0"],
    [1505257,"2026-02-01 16:30:00","51754","3.989","280.2","6.337000000000001","282.0","1008.344","14.63","43.4","55.78","0.0"],
    [1505258,"2026-02-01 16:40:00","51755","4.845","289.1","7.611000000000001","285.4","1008.421","14.6","43.4","44.3","0.0"],
    [1505259,"2026-02-01 16:50:00","51756","3.3760000000000003","284.0","4.998","293.9","1008.586","14.55","43.88","35.71","0.0"],
    [1505260,"2026-02-01 17:00:00","51757","3.265","272.4","5.684","280.5","1008.673","14.41","44.52","21.21","0.0"],
    [1505261,"2026-02-01 17:10:00","51758","3.514","281.0","5.422999999999999","287.9","1008.65","14.35","44.74","6.574","0.0"],
    [1505262,"2026-02-01 17:20:00","51759","3.1910000000000003","284.4","5.2589999999999995","277.5","1008.746","14.21","45.41","0.23399999999999999","0.0"],
    [1505263,"2026-02-01 17:30:00","51760","1.6740000000000002","248.0","3.103","248.9","1008.798","13.98","46.56","0.0","0.0"],
    [1505264,"2026-02-01 17:40:00","51761","1.795","254.2","3.7239999999999998","264.4","1008.825","13.76","47.85","0.0","0.0"],
    [1505265,"2026-02-01 17:50:00","51762","1.515","251.1","2.7769999999999997","258.1","1008.879","13.54","48.73","0.0","0.0"],
    [1505266,"2026-02-01 18:00:00","51763","1.986","266.1","4.051","258.7","1008.895","13.31","49.1","0.0","0.0"],
    [1505267,"2026-02-01 18:10:00","51764","2.123","266.6","3.267","271.0","1008.795","13.21","49.57","0.0","0.0"],
    [1505268,"2026-02-01 18:20:00","51765","2.0540000000000003","266.0","3.234","269.5","1008.81","13.09","50.08","0.0","0.0"],
    [1505269,"2026-02-01 18:30:00","51766","2.147","282.3","3.234","279.4","1008.729","13.01","50.87","0.0","0.0"],
    [1505270,"2026-02-01 18:40:00","51767","1.8530000000000002","262.3","2.548","273.7","1008.708","12.78","51.38","0.0","0.0"],
    [1505271,"2026-02-01 18:50:00","51768","1.454","247.2","2.45","271.2","1008.674","12.87","51.47","0.0","0.0"],
    [1505272,"2026-02-01 19:00:00","51769","1.6769999999999998","262.4","2.417","266.8","1008.612","12.71","51.57","0.0","0.0"],
    [1505273,"2026-02-01 19:10:00","51770","1.9680000000000002","263.3","2.385","268.6","1008.552","12.61","52.33","0.0","0.0"],
    [1505274,"2026-02-01 19:20:00","51771","1.6780000000000002","262.5","2.417","254.7","1008.505","12.51","52.76","0.0","0.0"],
    [1505275,"2026-02-01 19:30:00","51772","1.868","271.7","2.254","266.5","1008.473","12.49","52.93","0.0","0.0"],
    [1505276,"2026-02-01 19:40:00","51773","1.995","288.9","2.548","305.5","1008.432","12.5","53.78","0.0","0.0"],
    [1505277,"2026-02-01 19:50:00","51774","1.8519999999999999","289.7","2.842","303.4","1008.297","12.74","53.38","0.0","0.0"],
    [1505278,"2026-02-01 20:00:00","51775","2.127","288.2","3.0380000000000003","291.1","1008.306","12.77","52.72","0.0","0.0"],
    [1505279,"2026-02-01 20:10:00","51776","2.4730000000000003","272.1","3.267","257.4","1008.423","12.38","54.1","0.0","0.0"],
    [1505280,"2026-02-01 20:20:00","51777","2.233","259.2","3.463","253.3","1008.471","11.97","55.83","0.0","0.0"],
    [1505281,"2026-02-01 20:30:00","51778","2.036","266.2","3.5610000000000004","283.0","1008.379","11.84","56.72","0.0","0.0"],
    [1505282,"2026-02-01 20:40:00","51779","2.076","271.9","2.842","276.6","1008.161","11.57","57.82","0.0","0.0"],
    [1505283,"2026-02-01 20:50:00","51780","1.965","266.5","2.45","265.8","1008.218","11.36","59.04","0.0","0.0"],
    [1505284,"2026-02-01 21:00:00","51781","2.102","264.4","2.548","250.2","1008.186","11.16","59.91","0.0","0.0"],
    [1505285,"2026-02-01 21:10:00","51782","1.857","268.3","2.221","271.2","1008.048","11.52","59.52","0.0","0.0"],
    [1505286,"2026-02-01 21:20:00","51783","2.1959999999999997","276.4","2.7769999999999997","265.1","1007.936","11.42","59.24","0.0","0.0"],
    [1505287,"2026-02-01 21:30:00","51784","2.2119999999999997","277.7","2.7769999999999997","277.6","1007.893","11.11","61.27","0.0","0.0"],
    [1505288,"2026-02-01 21:40:00","51785","2.6919999999999997","268.5","3.299","261.2","1007.909","10.87","61.73","0.0","0.0"],
    [1505289,"2026-02-01 21:50:00","51786","1.682","234.6","2.94","257.2","1008.002","11.05","62.09","0.0","0.0"],
    [1505290,"2026-02-01 22:00:00","51787","1.374","231.9","2.287","222.8","1007.982","11.4","61.32","0.0","0.0"],
    [1505291,"2026-02-01 22:10:00","51788","1.49","251.4","2.319","264.9","1007.903","10.99","61.65","0.0","0.0"],
    [1505292,"2026-02-01 22:20:00","51789","1.256","250.0","2.417","266.0","1007.927","10.97","61.93","0.0","0.0"],
    [1505293,"2026-02-01 22:30:00","51790","2.639","269.8","3.299","258.0","1007.866","10.18","63.59","0.0","0.0"],
    [1505294,"2026-02-01 22:40:00","51791","1.6","273.7","2.385","263.8","1007.668","9.82","66.35","0.0","0.0"],
    [1505295,"2026-02-01 22:50:00","51792","1.946","253.6","2.319","255.5","1007.469","9.93","66.42","0.0","0.0"],
    [1505296,"2026-02-01 23:00:00","51793","1.6230000000000002","286.2","1.993","261.4","1007.292","10.46","65.04","0.0","0.0"],
    [1505297,"2026-02-01 23:10:00","51794","1.147","282.0","1.601","294.2","1007.238","10.88","63.39","0.0","0.0"],
    [1505298,"2026-02-01 23:20:00","51795","0.752","133.6","1.3719999999999999","140.8","1007.063","11.02","63.98","0.0","0.0"],
    [1505299,"2026-02-01 23:30:00","51796","0.314","199.3","0.8170000000000001","198.0","1007.141","11.12","64.75","0.0","0.0"],
    [1505300,"2026-02-01 23:40:00","51797","0.027999999999999997","211.2","0.359","208.1","1007.131","11.05","65.65","0.0","0.0"],
    [1505301,"2026-02-01 23:50:00","51798","0.071","196.9","0.621","205.2","1006.934","10.89","65.28","0.0","0.0"],
    [1505302,"2026-02-02 00:00:00","51799","1.239","263.2","2.7439999999999998","259.5","1006.721","10.58","64.69","0.0","0.0"],
    [1505303,"2026-02-02 00:10:00","51800","2.7230000000000003","259.5","3.528","259.1","1006.772","9.55","67.13","0.0","0.0"],
    [1505304,"2026-02-02 00:20:00","51801","2.53","259.3","3.397","260.3","1006.789","9.2","69.55","0.0","0.0"],
    [1505305,"2026-02-02 00:30:00","51802","2.764","259.4","3.6910000000000003","262.6","1006.712","9.0","70.65","0.0","0.0"],
    [1505306,"2026-02-02 00:40:00","51803","2.274","259.0","3.071","266.5","1006.607","8.81","71.96","0.0","0.0"],
    [1505307,"2026-02-02 00:50:00","51804","1.9969999999999999","260.8","2.417","257.3","1006.386","9.07","71.76","0.0","0.0"],
    [1505308,"2026-02-02 01:00:00","51805","1.416","255.1","1.764","256.4","1006.318","9.6","70.52","0.0","0.0"],
    [1505309,"2026-02-02 01:10:00","51806","1.94","271.4","2.417","265.1","1006.212","10.14","67.6","0.0","0.0"],
    [1505310,"2026-02-02 01:20:00","51807","2.191","255.7","2.7110000000000003","256.9","1006.06","9.67","67.19","0.0","0.0"],
    [1505311,"2026-02-02 01:30:00","51808","2.138","260.7","2.6460000000000004","260.5","1005.796","9.28","68.58","0.0","0.0"],
    [1505312,"2026-02-02 01:40:00","51809","1.838","272.2","2.025","265.2","1005.56","9.06","70.2","0.0","0.0"],
    [1505313,"2026-02-02 01:50:00","51810","2.191","272.1","2.5810000000000004","275.4","1005.506","9.09","70.46","0.0","0.0"],
    [1505314,"2026-02-02 02:00:00","51811","2.823","264.6","3.6260000000000003","259.6","1005.405","9.03","70.8","0.0","0.0"],
    [1505315,"2026-02-02 02:10:00","51812","3.031","265.9","3.659","266.4","1005.276","8.7","71.9","0.0","0.0"],
    [1505316,"2026-02-02 02:20:00","51813","3.31","268.0","4.051","264.1","1005.031","8.44","72.53","0.0","0.0"],
    [1505317,"2026-02-02 02:30:00","51814","2.134","276.3","2.8089999999999997","278.7","1004.907","8.59","72.58","0.0","0.0"],
    [1505318,"2026-02-02 02:40:00","51815","1.839","260.5","2.417","258.1","1004.783","8.72","72.48","0.0","0.0"],
    [1505319,"2026-02-02 02:50:00","51816","0.6729999999999999","226.8","1.143","249.7","1004.622","9.13","71.44","0.0","0.0"],
    [1505320,"2026-02-02 03:00:00","51817","0.111","255.0","0.8490000000000001","293.7","1004.576","9.16","70.53","0.0","0.0"],
    [1505321,"2026-02-02 03:10:00","51818","1.641","291.8","2.254","283.6","1004.337","8.78","70.8","0.0","0.0"],
    [1505322,"2026-02-02 03:20:00","51819","0.747","294.3","1.8619999999999999","283.7","1004.171","8.65","72.93","0.0","0.0"],
    [1505323,"2026-02-02 03:30:00","51820","0.396","266.8","1.013","287.7","1004.026","8.95","73.17","0.0","0.0"],
    [1505324,"2026-02-02 03:40:00","51821","0.547","290.4","1.045","292.1","1003.837","9.14","72.45","0.0","0.0"],
    [1505325,"2026-02-02 03:50:00","51822","0.134","241.8","1.111","227.8","1003.704","9.38","72.26","0.0","0.0"],
    [1505326,"2026-02-02 04:00:00","51823","1.0659999999999998","263.8","1.8619999999999999","279.3","1003.632","9.06","72.93","0.0","0.0"],
    [1505327,"2026-02-02 04:10:00","51824","1.436","268.7","2.287","266.2","1003.495","8.71","74.32","0.0","0.0"],
    [1505328,"2026-02-02 04:20:00","51825","1.19","252.8","2.0580000000000003","260.1","1003.402","8.78","74.64","0.0","0.0"],
    [1505329,"2026-02-02 04:30:00","51826","1.367","282.6","1.96","290.9","1003.215","8.66","75.14","0.0","0.0"],
    [1505330,"2026-02-02 04:40:00","51827","1.3","256.2","1.993","280.4","1003.124","8.65","76.08","0.0","0.0"],
    [1505331,"2026-02-02 04:50:00","51828","2.687","263.4","3.234","260.8","1003.114","8.57","76.23","0.0","0.0"],
    [1505332,"2026-02-02 05:00:00","51829","2.748","262.0","3.7889999999999997","261.9","1003.137","8.41","76.36","0.0","0.0"],
    [1505333,"2026-02-02 05:10:00","51830","2.465","277.8","3.5610000000000004","284.1","1002.968","8.39","76.3","0.0","0.0"],
    [1505334,"2026-02-02 05:20:00","51831","2.675","272.9","3.43","280.4","1002.7","8.4","76.18","0.0","0.0"],
    [1505335,"2026-02-02 05:30:00","51832","2.8339999999999996","273.1","3.1689999999999996","277.0","1002.444","8.44","76.38","0.0","0.0"],
    [1505336,"2026-02-02 05:40:00","51833","2.615","277.1","3.1689999999999996","279.0","1002.328","8.92","75.94","0.0","0.0"],
    [1505337,"2026-02-02 05:50:00","51834","2.97","271.1","3.6260000000000003","274.7","1002.249","8.84","75.22","0.0","0.0"],
    [1505338,"2026-02-02 06:00:00","51835","2.675","267.6","3.7569999999999997","270.5","1002.249","8.74","75.25","0.0","0.0"],
    [1505339,"2026-02-02 06:10:00","51836","2.793","265.1","3.332","263.1","1002.147","8.66","75.1","0.0","0.0"],
    [1505340,"2026-02-02 06:20:00","51837","2.4819999999999998","264.0","3.103","259.4","1002.127","8.71","74.54","0.0","0.0"],
    [1505341,"2026-02-02 06:30:00","51838","2.472","276.3","3.201","279.4","1001.965","8.73","73.86","0.0","0.0"],
    [1505342,"2026-02-02 06:40:00","51839","2.359","272.1","3.0380000000000003","262.2","1001.81","8.82","73.4","0.0","0.0"],
    [1505343,"2026-02-02 06:50:00","51840","2.015","255.2","3.267","260.9","1001.674","8.86","73.5","0.0","0.0"],
    [1505344,"2026-02-02 07:00:00","51841","0.836","255.5","1.9269999999999998","275.6","1001.428","9.05","73.14","1.165","0.0"],
    [1505345,"2026-02-02 07:10:00","51842","2.012","273.2","2.7110000000000003","278.7","1001.653","9.12","72.58","2.967","0.0"],
    [1505346,"2026-02-02 07:20:00","51843","0.193","298.2","1.111","280.5","1001.506","9.5","72.39","8.69","0.0"],
    [1505347,"2026-02-02 07:30:00","51844","0.409","313.5","0.882","300.2","1001.442","9.67","72.03","11.87","0.0"],
    [1505348,"2026-02-02 07:40:00","51845","1.844","270.3","2.6460000000000004","265.8","1001.508","9.61","71.6","16.93","0.0"],
    [1505349,"2026-02-02 07:50:00","51846","2.627","261.2","3.136","262.9","1001.637","9.38","72.12","20.63","0.0"],
    [1505350,"2026-02-02 08:00:00","51847","1.995","269.9","2.842","261.3","1001.533","9.33","72.43","33.27","0.0"],
    [1505351,"2026-02-02 08:10:00","51848","1.3659999999999999","294.3","1.7309999999999999","323.6","1001.227","9.52","72.58","32.14","0.0"],
    [1505352,"2026-02-02 08:20:00","51849","0.873","342.3","1.699","317.3","1001.07","10.02","72.88","38.57","0.0"],
    [1505353,"2026-02-02 08:30:00","51850","0.051","14.17","0.49","20.78","1001.086","10.33","73.0","44.81","0.0"],
    [1505354,"2026-02-02 08:40:00","51851","1.452","35.23","2.025","27.95","1000.676","10.82","74.01","77.46","0.0"],
    [1505355,"2026-02-02 08:50:00","51852","1.53","51.87","2.156","45.17","1000.511","11.2","75.93","67.56","0.0"],
    [1505356,"2026-02-02 09:00:00","51853","1.455","34.1","2.0909999999999997","42.38","1000.517","11.19","75.62","60.25","0.0"],
    [1505357,"2026-02-02 09:10:00","51854","1.5859999999999999","30.84","2.025","38.49","1000.507","11.3","73.58","56.06","0.0"],
    [1505358,"2026-02-02 09:20:00","51855","2.095","40.46","3.0380000000000003","46.46","1000.184","11.47","71.73","63.34","0.0"],
    [1505359,"2026-02-02 09:30:00","51856","2.616","33.71","3.234","47.01","1000.031","11.49","70.31","77.34","0.0"],
    [1505360,"2026-02-02 09:40:00","51857","1.729","2.515","3.103","19.53","1000.114","11.62","68.81","67.87","0.0"],
    [1505361,"2026-02-02 09:50:00","51858","0.722","23.11","1.764","239.3","1000.152","11.79","67.42","52.29","0.0"],
    [1505362,"2026-02-02 10:00:00","51859","1.037","301.0","3.332","270.4","1000.274","11.82","66.19","56.16","0.0"],
    [1505363,"2026-02-02 10:10:00","51860","2.84","270.4","4.377","261.0","1000.347","11.29","67.63","91.0","0.0"],
    [1505364,"2026-02-02 10:20:00","51861","2.419","286.6","3.985","269.5","1000.316","11.05","68.6","102.1","0.0"],
    [1505365,"2026-02-02 10:30:00","51862","1.7990000000000002","272.4","2.319","271.8","1000.209","11.32","68.43","171.5","0.0"],
    [1505366,"2026-02-02 10:40:00","51863","1.245","286.0","1.8619999999999999","305.6","999.9865","11.57","67.8","150.7","0.0"],
    [1505367,"2026-02-02 10:50:00","51864","0.662","313.4","1.209","267.0","999.9974","11.89","67.34","117.9","0.0"],
    [1505368,"2026-02-02 11:00:00","51865","0.165","334.2","0.9470000000000001","305.9","999.655","12.24","67.14","138.3","0.0"],
    [1505369,"2026-02-02 11:10:00","51866","0.1","339.7","0.7190000000000001","302.6","999.53","12.44","67.12","139.9","0.0"],
    [1505370,"2026-02-02 11:20:00","51867","0.321","193.6","1.045","176.0","999.585","12.49","67.12","95.5","0.0"],
    [1505371,"2026-02-02 11:30:00","51868","1.193","157.2","1.8619999999999999","144.2","999.3361","12.56","67.78","82.9","0.0"],
    [1505372,"2026-02-02 11:40:00","51869","1.15","172.1","1.9269999999999998","167.3","999.2285","12.46","70.05","81.2","0.0"],
    [1505373,"2026-02-02 11:50:00","51870","0.263","161.5","0.882","195.4","999.063","12.59","71.03","98.7","0.0"],
    [1505374,"2026-02-02 12:00:00","51871","0.366","153.6","0.8490000000000001","195.7","998.7936","12.64","71.82","45.4","0.0"],
    [1505375,"2026-02-02 12:10:00","51872","1.555","54.35","2.45","50.39","998.3868","12.75","72.98","28.14","0.0"],
    [1505376,"2026-02-02 12:20:00","51873","2.387","45.03","3.005","43.13","998.1133","12.54","75.96","41.54","0.0"],
    [1505377,"2026-02-02 12:30:00","51874","3.2230000000000003","32.71","4.2139999999999995","30.66","997.6996","12.3","79.71","79.79","0.0"],
    [1505378,"2026-02-02 12:40:00","51875","3.437","29.76","3.985","30.53","997.385","12.12","83.2","109.6","0.0"],
    [1505379,"2026-02-02 12:50:00","51876","2.766","38.23","3.9530000000000003","31.26","997.3996","12.13","84.6","67.51","0.0"],
    [1505380,"2026-02-02 13:00:00","51877","2.499","43.52","3.136","50.7","997.3131","12.2","85.9","59.78","0.0"],
    [1505381,"2026-02-02 13:10:00","51878","2.39","44.8","3.103","50.27","997.0864","12.07","88.7","56.26","0.0"],
    [1505382,"2026-02-02 13:20:00","51879","2.825","48.92","3.463","44.7","996.805","11.8","92.4","86.8","0.1"],
    [1505383,"2026-02-02 13:30:00","51880","2.5580000000000003","41.8","3.299","48.4","996.6168","11.76","96.5","88.4","0.1"],
    [1505384,"2026-02-02 13:40:00","51881","3.077","42.85","4.149","46.33","996.3006","11.68","99.5","140.8","0.0"],
    [1505385,"2026-02-02 13:50:00","51882","2.9739999999999998","33.82","3.7239999999999998","38.3","996.3225","11.46","100.0","59.06","0.0"],
    [1505386,"2026-02-02 14:00:00","51883","2.8560000000000003","29.71","3.528","27.98","996.2784","11.44","100.0","44.54","0.0"],
    [1505387,"2026-02-02 14:10:00","51884","2.167","17.06","3.0380000000000003","24.43","996.3301","11.63","100.0","38.04","0.1"],
    [1505388,"2026-02-02 14:20:00","51885","2.3","7.426","3.234","6.678999999999999","996.1866","11.79","100.0","65.69","0.1"],
    [1505389,"2026-02-02 14:30:00","51886","2.6439999999999997","19.24","3.1689999999999996","21.53","995.9166","11.9","100.0","100.5","0.0"],
    [1505390,"2026-02-02 14:40:00","51887","2.49","34.93","3.071","37.09","995.7358","11.98","100.0","71.11","0.0"],
    [1505391,"2026-02-02 14:50:00","51888","2.322","26.37","3.201","26.28","995.6184","11.96","100.0","29.77","0.0"],
    [1505392,"2026-02-02 15:00:00","51889","0.995","9.82","1.829","4.425","995.5144","12.09","100.0","42.0","0.0"],
    [1505393,"2026-02-02 15:10:00","51890","1.071","19.99","1.4369999999999998","22.06","995.4235","12.12","100.0","33.46","0.1"],
    [1505394,"2026-02-02 15:20:00","51891","1.5859999999999999","29.03","2.0580000000000003","36.15","995.0994","12.16","100.0","30.63","0.0"],
    [1505395,"2026-02-02 15:30:00","51892","2.026","51.69","2.352","48.34","994.9774","12.21","100.0","20.45","0.0"],
    [1505396,"2026-02-02 15:40:00","51893","1.8769999999999998","64.53","2.6460000000000004","61.32","994.7922","12.35","100.0","25.17","0.1"],
    [1505397,"2026-02-02 15:50:00","51894","1.766","59.39","2.7110000000000003","47.87","994.5837","12.41","100.0","26.1","0.0"],
    [1505398,"2026-02-02 16:00:00","51895","1.839","52.7","2.483","54.09","994.4261","12.44","100.0","28.42","0.0"],
    [1505399,"2026-02-02 16:10:00","51896","1.77","47.06","2.352","50.14","994.3984","12.44","100.0","22.97","0.0"],
    [1505400,"2026-02-02 16:20:00","51897","0.9840000000000001","20.74","2.189","44.37","994.4231","12.49","100.0","10.03","0.0"],
    [1505401,"2026-02-02 16:30:00","51898","0.184","30.39","0.784","352.9","994.4434","12.54","100.0","7.18","0.0"],
    [1505402,"2026-02-02 16:40:00","51899","0.366","40.89","1.2409999999999999","65.51","994.3883","12.58","100.0","2.96","0.0"],
    [1505403,"2026-02-02 16:50:00","51900","0.364","54.8","1.013","88.3","994.0346","12.68","100.0","1.788","0.0"],
    [1505404,"2026-02-02 17:00:00","51901","0.325","42.28","1.3719999999999999","26.42","993.8921","12.78","100.0","1.5530000000000002","0.1"],
    [1505405,"2026-02-02 17:10:00","51902","0.17300000000000001","294.6","0.784","284.2","993.976","12.86","100.0","0.504","0.0"],
    [1505406,"2026-02-02 17:20:00","51903","0.136","248.1","1.47","247.3","993.9026","12.92","100.0","0.068","0.0"],
    [1505407,"2026-02-02 17:30:00","51904","0.496","226.9","1.699","229.1","993.7836","13.09","100.0","0.027000000000000003","0.0"],
    [1505408,"2026-02-02 17:40:00","51905","0.845","269.0","1.797","193.3","993.6484","13.09","100.0","0.0","0.0"],
    [1505409,"2026-02-02 17:50:00","51906","0.996","263.9","1.535","270.1","993.5146","12.99","100.0","0.0","0.0"],
    [1505410,"2026-02-02 18:00:00","51907","1.0590000000000002","250.7","1.829","230.4","993.6475","13.03","100.0","0.0","0.0"],
    [1505411,"2026-02-02 18:10:00","51908","1.307","261.6","1.895","258.1","993.6455","12.93","100.0","0.0","0.0"],
    [1505412,"2026-02-02 18:20:00","51909","1.122","264.5","1.895","264.4","993.5877","12.84","100.0","0.0","0.0"],
    [1505413,"2026-02-02 18:30:00","51910","1.4780000000000002","235.7","2.9730000000000003","224.0","993.7717","12.94","100.0","0.023","0.0"],
    [1505414,"2026-02-02 18:40:00","51911","1.314","244.2","2.515","257.8","993.8038","13.0","100.0","0.0","0.0"],
    [1505415,"2026-02-02 18:50:00","51912","1.12","244.3","2.385","258.6","993.7783","12.84","100.0","0.0","0.0"],
    [1505416,"2026-02-02 19:00:00","51913","1.433","241.3","2.45","217.1","993.7749","12.64","100.0","0.0","0.0"],
    [1505417,"2026-02-02 19:10:00","51914","1.5919999999999999","229.2","2.7769999999999997","235.6","993.9028","12.38","100.0","0.0","0.0"],
    [1505418,"2026-02-02 19:20:00","51915","1.715","232.9","3.299","214.3","994.0876","12.32","100.0","0.0","0.0"],
    [1505419,"2026-02-02 19:30:00","51916","1.598","253.0","2.515","267.3","993.9885","12.1","100.0","0.0","0.0"],
    [1505420,"2026-02-02 19:40:00","51917","2.5469999999999997","231.3","4.638999999999999","207.1","994.2596","12.13","100.0","0.13","0.9"],
    [1505421,"2026-02-02 19:50:00","51918","3.575","252.4","6.664","231.9","994.8734","12.23","100.0","0.026000000000000002","4.4"],
    [1505422,"2026-02-02 20:00:00","51919","7.6339999999999995","276.3","14.18","267.5","995.0488","11.12","100.0","1.651","0.4"],
    [1505423,"2026-02-02 20:10:00","51920","4.998","272.0","9.08","278.7","995.4794","10.12","100.0","1.074","0.0"],
    [1505424,"2026-02-02 20:20:00","51921","5.821000000000001","284.6","8.72","278.0","994.6806","10.82","99.9","0.484","0.0"],
    [1505425,"2026-02-02 20:30:00","51922","5.029","260.6","10.0","262.4","994.8309","11.54","91.5","1.033","0.0"],
    [1505426,"2026-02-02 20:40:00","51923","4.387","269.1","6.957999999999999","295.5","994.6315","12.03","80.3","0.34600000000000003","0.0"],
    [1505427,"2026-02-02 20:50:00","51924","3.8489999999999998","236.3","6.9910000000000005","264.2","994.9347","12.27","73.64","0.005","0.0"],
    [1505428,"2026-02-02 21:00:00","51925","4.422","224.6","8.4","216.0","995.6002","12.14","73.57","0.11","0.0"],
    [1505429,"2026-02-02 21:10:00","51926","2.126","254.7","4.802","230.0","995.4131","12.1","73.24","0.0","0.0"],
    [1505430,"2026-02-02 21:20:00","51927","2.4930000000000003","221.0","4.279","216.2","995.7001","12.23","72.58","0.0","0.0"],
    [1505431,"2026-02-02 21:30:00","51928","3.489","216.3","5.7170000000000005","210.9","996.0811","12.42","70.78","0.0","0.0"],
    [1505432,"2026-02-02 21:40:00","51929","2.681","231.4","4.606","214.3","996.4218","12.4","69.76","0.0","0.0"],
    [1505433,"2026-02-02 21:50:00","51930","3.957","223.7","6.9910000000000005","225.1","996.6688","12.36","69.31","0.0","0.0"],
    [1505434,"2026-02-02 22:00:00","51931","3.786","223.7","6.403","207.5","996.7833","12.37","69.22","0.0","0.0"],
    [1505435,"2026-02-02 22:10:00","51932","3.825","229.5","5.815","248.1","996.8748","12.28","69.67","0.0","0.0"],
    [1505436,"2026-02-02 22:20:00","51933","3.6910000000000003","232.3","6.599","218.7","996.9453","12.33","69.55","0.0","0.0"],
    [1505437,"2026-02-02 22:30:00","51934","2.992","237.6","4.933","226.6","997.0137","12.19","71.48","0.0","0.0"],
    [1505438,"2026-02-02 22:40:00","51935","2.7889999999999997","238.2","5.422999999999999","207.9","997.0398","12.09","74.51","0.0","0.0"],
    [1505439,"2026-02-02 22:50:00","51936","2.698","239.0","4.704","215.7","997.1232","12.1","77.97","0.0","0.0"],
    [1505440,"2026-02-02 23:00:00","51937","2.634","235.9","4.867","222.4","997.1877","12.12","81.6","0.0","0.0"],
    [1505441,"2026-02-02 23:10:00","51938","3.045","225.5","5.521","219.2","997.2051","12.03","83.9","0.0","0.0"],
    [1505442,"2026-02-02 23:20:00","51939","3.362","230.4","5.7170000000000005","228.5","997.1658","11.92","82.7","0.0","0.0"],
    [1505443,"2026-02-02 23:30:00","51940","2.7969999999999997","237.1","5.325","249.2","997.1575","11.82","78.75","0.0","0.0"],
    [1505444,"2026-02-02 23:40:00","51941","1.761","259.6","5.651","220.9","997.1871","11.51","76.89","0.0","0.0"],
    [1505445,"2026-02-02 23:50:00","51942","3.352","234.3","6.957999999999999","233.3","997.3221","11.84","70.76","0.0","0.0"],
    [1505446,"2026-02-03 00:00:00","51943","3.307","227.6","6.435","223.5","997.434","12.2","63.32","0.0","0.0"],
    [1505447,"2026-02-03 00:10:00","51944","3.628","233.9","6.5329999999999995","260.1","997.4783","12.22","61.33","0.0","0.0"],
    [1505448,"2026-02-03 00:20:00","51945","3.883","227.2","6.729","226.4","997.473","12.35","57.19","0.0","0.0"],
    [1505449,"2026-02-03 00:30:00","51946","3.15","231.3","5.945","222.7","997.6394","12.33","56.31","0.0","0.0"],
    [1505450,"2026-02-03 00:40:00","51947","3.444","236.3","5.782","237.6","997.7791","12.38","54.8","0.0","0.0"],
    [1505451,"2026-02-03 00:50:00","51948","3.3710000000000004","237.1","5.912999999999999","246.3","997.7892","12.4","53.6","0.0","0.0"],
    [1505452,"2026-02-03 01:00:00","51949","2.535","241.5","8.79","257.6","997.8744","12.17","54.27","0.0","0.0"],
    [1505453,"2026-02-03 01:10:00","51950","2.8110000000000004","237.4","5.88","219.0","998.0619","12.21","52.86","0.0","0.0"],
    [1505454,"2026-02-03 01:20:00","51951","2.7569999999999997","233.4","5.553","269.5","998.1508","12.19","52.19","0.0","0.0"],
    [1505455,"2026-02-03 01:30:00","51952","2.386","238.0","5.912999999999999","219.3","998.3516","12.13","52.34","0.0","0.0"],
    [1505456,"2026-02-03 01:40:00","51953","2.006","258.0","4.181","251.5","998.4014","11.88","52.99","0.0","0.0"],
    [1505457,"2026-02-03 01:50:00","51954","1.4180000000000001","245.1","3.267","281.7","998.3871","11.62","54.16","0.0","0.0"],
    [1505458,"2026-02-03 02:00:00","51955","1.8259999999999998","210.6","2.907","208.5","998.5868","11.6","54.61","0.0","0.0"],
    [1505459,"2026-02-03 02:10:00","51956","1.072","250.2","2.0909999999999997","204.6","998.9636","11.5","54.98","0.0","0.0"],
    [1505460,"2026-02-03 02:20:00","51957","0.7509999999999999","268.7","2.156","262.4","999.1613","11.32","55.45","0.0","0.0"],
    [1505461,"2026-02-03 02:30:00","51958","1.374","170.2","3.071","193.8","999.4482","11.39","55.93","0.0","0.0"],
    [1505462,"2026-02-03 02:40:00","51959","3.2310000000000003","188.6","5.39","188.9","999.7999","11.64","55.88","0.0","0.0"],
    [1505463,"2026-02-03 02:50:00","51960","2.5469999999999997","206.0","3.6910000000000003","212.3","999.9987","11.59","56.29","0.0","0.0"],
    [1505464,"2026-02-03 03:00:00","51961","1.656","215.4","2.6460000000000004","203.6","999.9892","11.44","55.26","0.0","0.0"],
    [1505465,"2026-02-03 03:10:00","51962","1.913","217.1","3.593","210.2","1000.206","11.38","55.12","0.0","0.0"],
    [1505466,"2026-02-03 03:20:00","51963","0.838","242.5","1.764","243.9","1000.258","11.42","54.15","0.0","0.0"],
    [1505467,"2026-02-03 03:30:00","51964","1.268","256.0","1.9269999999999998","257.3","1000.365","11.21","54.45","0.0","0.0"],
    [1505468,"2026-02-03 03:40:00","51965","2.037","259.2","2.613","258.1","1000.372","10.69","58.09","0.0","0.0"],
    [1505469,"2026-02-03 03:50:00","51966","1.5190000000000001","251.3","2.352","265.1","1000.5","10.49","59.28","0.0","0.0"],
    [1505470,"2026-02-03 04:00:00","51967","1.4880000000000002","251.2","2.483","252.6","1000.617","10.48","59.13","0.0","0.0"],
    [1505471,"2026-02-03 04:10:00","51968","1.6219999999999999","274.3","2.352","270.8","1000.658","10.22","61.35","0.0","0.0"],
    [1505472,"2026-02-03 04:20:00","51969","2.276","246.8","3.7239999999999998","205.9","1000.84","10.35","62.67","0.0","0.0"],
    [1505473,"2026-02-03 04:30:00","51970","1.4709999999999999","251.6","2.319","220.0","1000.786","10.19","62.28","0.0","0.0"],
    [1505474,"2026-02-03 04:40:00","51971","1.585","265.0","2.7439999999999998","266.7","1000.855","9.91","62.52","0.0","0.0"],
    [1505475,"2026-02-03 04:50:00","51972","1.506","298.9","2.45","300.5","1000.83","9.72","64.51","0.0","0.0"],
    [1505476,"2026-02-03 05:00:00","51973","1.242","279.8","1.8619999999999999","281.1","1000.88","9.64","64.84","0.0","0.0"],
    [1505477,"2026-02-03 05:10:00","51974","1.216","263.8","1.797","283.5","1000.974","9.78","63.77","0.0","0.0"],
    [1505478,"2026-02-03 05:20:00","51975","1.508","281.8","1.993","284.3","1001.012","9.98","62.14","0.0","0.0"],
    [1505479,"2026-02-03 05:30:00","51976","1.402","249.7","2.0580000000000003","265.9","1001.077","9.97","62.33","0.0","0.0"],
    [1505480,"2026-02-03 05:40:00","51977","1.13","242.3","2.0909999999999997","249.1","1001.248","10.22","61.25","0.0","0.0"],
    [1505481,"2026-02-03 05:50:00","51978","1.204","210.3","1.568","220.9","1001.497","10.39","61.17","0.0","0.0"],
    [1505482,"2026-02-03 06:00:00","51979","1.037","239.2","2.025","250.2","1001.602","10.03","63.31","0.0","0.0"],
    [1505483,"2026-02-03 06:10:00","51980","1.3519999999999999","263.9","2.0580000000000003","262.8","1001.601","10.02","61.37","0.0","0.0"],
    [1505484,"2026-02-03 06:20:00","51981","1.588","280.7","1.993","287.8","1001.706","9.86","63.13","0.0","0.0"],
    [1505485,"2026-02-03 06:30:00","51982","1.7180000000000002","261.9","2.189","263.1","1001.691","9.62","63.48","0.0","0.0"],
    [1505486,"2026-02-03 06:40:00","51983","1.905","274.3","2.0909999999999997","272.7","1001.732","9.66","62.82","0.0","0.0"],
    [1505487,"2026-02-03 06:50:00","51984","1.994","275.4","2.319","274.8","1001.721","9.78","63.03","0.0","0.0"],
    [1505488,"2026-02-03 07:00:00","51985","2.285","266.9","2.548","271.7","1001.831","10.09","60.61","0.523","0.0"],
    [1505489,"2026-02-03 07:10:00","51986","2.674","266.6","3.071","267.3","1001.927","10.09","59.82","5.877999999999999","0.0"],
    [1505490,"2026-02-03 07:20:00","51987","2.603","281.3","2.94","271.3","1002.032","9.69","62.92","17.95","0.0"],
    [1505491,"2026-02-03 07:30:00","51988","2.762","286.0","3.201","285.0","1002.137","9.44","65.78","36.04","0.0"],
    [1505492,"2026-02-03 07:40:00","51989","2.657","283.9","2.94","286.0","1002.141","9.39","65.88","63.81","0.0"],
    [1505493,"2026-02-03 07:50:00","51990","2.576","276.3","2.875","278.5","1002.206","9.41","65.65","94.0","0.0"],
    [1505494,"2026-02-03 08:00:00","51991","2.555","279.4","2.875","278.8","1002.304","9.61","64.77","124.1","0.0"],
    [1505495,"2026-02-03 08:10:00","51992","2.67","281.2","3.005","279.0","1002.291","9.56","65.88","152.5","0.0"],
    [1505496,"2026-02-03 08:20:00","51993","2.813","279.8","3.201","284.7","1002.346","9.79","65.86","180.4","0.0"],
    [1505497,"2026-02-03 08:30:00","51994","2.593","270.6","3.234","269.6","1002.486","9.89","65.75","205.7","0.0"],
    [1505498,"2026-02-03 08:40:00","51995","2.15","271.1","2.7110000000000003","277.6","1002.525","10.24","64.96","231.3","0.0"],
    [1505499,"2026-02-03 08:50:00","51996","2.1","265.8","2.6460000000000004","272.9","1002.555","10.62","63.65","257.7","0.0"],
    [1505500,"2026-02-03 09:00:00","51997","1.7009999999999998","268.0","2.515","265.7","1002.535","11.03","62.58","283.5","0.0"],
    [1505501,"2026-02-03 09:10:00","51998","1.791","262.8","2.319","240.0","1002.552","11.51","61.22","311.1","0.0"],
    [1505502,"2026-02-03 09:20:00","51999","1.653","251.8","2.417","259.7","1002.621","12.04","57.58","337.9","0.0"],
    [1505503,"2026-02-03 09:30:00","52000","2.0","236.1","2.907","233.0","1002.697","12.71","50.81","366.5","0.0"],
    [1505504,"2026-02-03 09:40:00","52001","1.996","237.4","3.005","236.7","1002.756","12.95","47.85","392.9","0.0"],
    [1505505,"2026-02-03 09:50:00","52002","1.7530000000000001","244.1","2.842","226.3","1002.789","12.76","50.2","414.3","0.0"],
    [1505506,"2026-02-03 10:00:00","52003","1.518","264.0","2.7769999999999997","278.1","1002.811","12.74","54.34","433.5","0.0"],
    [1505507,"2026-02-03 10:10:00","52004","1.288","260.6","2.385","267.3","1002.835","12.99","54.43","454.6","0.0"],
    [1505508,"2026-02-03 10:20:00","52005","2.059","284.2","3.234","296.1","1002.896","13.29","51.69","472.4","0.0"],
    [1505509,"2026-02-03 10:30:00","52006","1.9269999999999998","282.7","3.234","280.5","1002.936","13.5","49.71","497.6","0.0"],
    [1505510,"2026-02-03 10:40:00","52007","1.693","271.4","3.397","290.8","1002.912","13.78","49.98","519.3","0.0"],
    [1505511,"2026-02-03 10:50:00","52008","2.0469999999999997","286.1","3.43","288.8","1002.916","13.74","49.4","423.8","0.0"],
    [1505512,"2026-02-03 11:00:00","52009","2.086","288.3","3.365","286.6","1002.805","13.83","49.14","498.3","0.0"],
    [1505513,"2026-02-03 11:10:00","52010","1.891","233.3","3.495","235.5","1002.697","13.93","48.22","561.8","0.0"],
    [1505514,"2026-02-03 11:20:00","52011","1.733","237.6","3.92","221.1","1002.574","14.03","48.88","567.2","0.0"],
    [1505515,"2026-02-03 11:30:00","52012","1.663","236.4","2.7439999999999998","214.9","1002.453","14.11","48.9","565.4","0.0"],
    [1505516,"2026-02-03 11:40:00","52013","1.889","213.4","3.887","201.6","1002.313","14.3","49.21","566.9","0.0"],
    [1505517,"2026-02-03 11:50:00","52014","3.095","204.3","4.41","220.1","1002.227","14.29","47.98","575.1","0.0"],
    [1505518,"2026-02-03 12:00:00","52015","3.285","208.2","5.619","184.1","1002.145","14.26","52.28","574.1","0.0"],
    [1505519,"2026-02-03 12:10:00","52016","5.433","192.0","6.697","187.0","1002.017","13.47","61.81","575.1","0.0"],
    [1505520,"2026-02-03 12:20:00","52017","4.031000000000001","181.7","5.651","191.7","1001.923","13.26","63.27","577.6","0.0"],
    [1505521,"2026-02-03 12:30:00","52018","2.983","164.0","3.855","169.8","1001.744","13.08","65.55","550.6","0.0"],
    [1505522,"2026-02-03 12:40:00","52019","3.181","166.7","4.933","196.6","1001.552","13.26","66.32","571.1","0.0"],
    [1505523,"2026-02-03 12:50:00","52020","3.589","182.4","4.671","192.2","1001.404","13.76","62.13","562.1","0.0"],
    [1505524,"2026-02-03 13:00:00","52021","3.825","169.4","5.749","184.3","1001.27","13.47","64.9","557.2","0.0"],
    [1505525,"2026-02-03 13:10:00","52022","4.9510000000000005","189.7","6.86","198.1","1001.088","14.04","55.8","549.6","0.0"],
    [1505526,"2026-02-03 13:20:00","52023","4.837","193.9","6.9910000000000005","190.6","1000.961","14.21","54.08","535.1","0.0"],
    [1505527,"2026-02-03 13:30:00","52024","4.527","197.5","6.5329999999999995","203.5","1000.76","14.04","58.1","521.8","0.0"],
    [1505528,"2026-02-03 13:40:00","52025","4.282","192.5","6.37","186.8","1000.609","14.14","57.25","507.7","0.0"],
    [1505529,"2026-02-03 13:50:00","52026","4.504","191.6","6.599","191.5","1000.42","13.89","60.36","492.4","0.0"],
    [1505530,"2026-02-03 14:00:00","52027","5.511","184.1","7.872999999999999","188.0","1000.159","13.89","62.35","475.8","0.0"],
    [1505531,"2026-02-03 14:10:00","52028","5.872000000000001","187.6","7.35","181.3","1000.053","13.64","66.68","458.0","0.0"],
    [1505532,"2026-02-03 14:20:00","52029","5.5329999999999995","198.0","7.252000000000001","190.0","1000.089","13.95","59.22","441.4","0.0"],
    [1505533,"2026-02-03 14:30:00","52030","6.09","196.4","8.85","184.0","1000.132","14.29","49.42","421.4","0.0"],
    [1505534,"2026-02-03 14:40:00","52031","5.084","198.1","7.382999999999999","169.8","1000.037","14.45","48.88","399.1","0.0"],
    [1505535,"2026-02-03 14:50:00","52032","5.372000000000001","198.1","8.3","215.7","999.9783","14.46","48.69","376.0","0.0"],
    [1505536,"2026-02-03 15:00:00","52033","7.249","193.8","9.24","194.5","999.898","14.26","47.53","351.1","0.0"],
    [1505537,"2026-02-03 15:10:00","52034","6.8229999999999995","193.8","8.56","192.2","999.9138","14.1","57.53","323.6","0.0"],
    [1505538,"2026-02-03 15:20:00","52035","5.685","200.2","8.04","189.5","999.9204","13.94","63.77","285.3","0.0"],
    [1505539,"2026-02-03 15:30:00","52036","5.013","203.8","7.775","189.9","999.9525","13.84","66.73","255.4","0.0"],
    [1505540,"2026-02-03 15:40:00","52037","4.697","203.5","6.729","212.5","1000.04","13.69","68.26","233.3","0.0"],
    [1505541,"2026-02-03 15:50:00","52038","4.291","204.9","6.042999999999999","206.1","1000.046","13.63","67.8","203.3","0.0"],
    [1505542,"2026-02-03 16:00:00","52039","4.458","199.3","6.239","191.5","1000.06","13.61","68.38","175.3","0.0"],
    [1505543,"2026-02-03 16:10:00","52040","4.398","205.6","7.121","205.2","1000.137","13.52","68.4","146.9","0.0"],
    [1505544,"2026-02-03 16:20:00","52041","3.114","207.7","4.475","200.9","1000.212","13.54","67.83","117.5","0.0"],
    [1505545,"2026-02-03 16:30:00","52042","4.181","203.3","6.207000000000001","202.0","1000.171","13.34","65.41","78.52","0.0"],
    [1505546,"2026-02-03 16:40:00","52043","2.949","215.7","5.553","238.4","1000.25","13.37","64.1","23.29","0.0"],
    [1505547,"2026-02-03 16:50:00","52044","2.8819999999999997","216.6","5.912999999999999","218.8","1000.339","13.39","62.91","15.93","0.0"],
    [1505548,"2026-02-03 17:00:00","52045","2.369","214.5","4.704","205.5","1000.315","13.37","63.2","10.96","0.0"],
    [1505549,"2026-02-03 17:10:00","52046","1.889","248.3","4.4430000000000005","261.7","1000.35","13.17","62.68","4.649","0.0"],
    [1505550,"2026-02-03 17:20:00","52047","1.9580000000000002","251.9","4.867","261.6","1000.455","13.07","62.39","0.653","0.0"],
    [1505551,"2026-02-03 17:30:00","52048","1.858","250.9","3.822","261.6","1000.529","12.94","63.67","0.0","0.0"],
    [1505552,"2026-02-03 17:40:00","52049","2.444","263.1","4.933","263.8","1000.55","12.76","65.2","0.0","0.0"],
    [1505553,"2026-02-03 17:50:00","52050","2.603","269.7","4.802","266.8","1000.558","12.61","67.09","0.0","0.0"],
    [1505554,"2026-02-03 18:00:00","52051","2.2030000000000003","268.6","3.855","256.1","1000.55","12.48","68.17","0.0","0.0"],
    [1505555,"2026-02-03 18:10:00","52052","2.8789999999999996","264.3","4.2139999999999995","247.9","1000.508","12.54","68.82","0.0","0.0"],
    [1505556,"2026-02-03 18:20:00","52053","2.969","266.2","4.835","257.5","1000.52","12.42","69.69","0.0","0.0"],
    [1505557,"2026-02-03 18:30:00","52054","2.279","277.5","3.332","270.2","1000.55","12.31","70.84","0.0","0.0"],
    [1505558,"2026-02-03 18:40:00","52055","2.205","270.9","2.907","271.9","1000.709","12.21","71.55","0.0","0.0"],
    [1505559,"2026-02-03 18:50:00","52056","1.756","227.8","3.0380000000000003","253.1","1000.784","12.18","72.69","0.0","0.0"],
    [1505560,"2026-02-03 19:00:00","52057","1.3940000000000001","228.4","3.071","265.7","1000.819","12.19","73.87","0.0","0.0"],
    [1505561,"2026-02-03 19:10:00","52058","2.739","261.9","4.737","282.3","1000.674","12.23","73.2","0.0","0.0"],
    [1505562,"2026-02-03 19:20:00","52059","2.8789999999999996","265.1","4.41","258.3","1000.696","12.07","72.96","0.0","0.0"],
    [1505563,"2026-02-03 19:30:00","52060","2.6189999999999998","256.5","4.279","269.6","1000.641","12.14","71.64","0.0","0.0"],
    [1505564,"2026-02-03 19:40:00","52061","2.32","257.1","4.312","266.0","1000.514","12.1","70.38","0.0","0.0"],
    [1505565,"2026-02-03 19:50:00","52062","2.648","253.1","4.41","254.3","1000.521","12.35","68.39","0.0","0.0"],
    [1505566,"2026-02-03 20:00:00","52063","2.7239999999999998","261.9","4.933","255.7","1000.575","12.36","66.21","0.0","0.0"],
    [1505567,"2026-02-03 20:10:00","52064","2.079","283.8","3.136","261.7","1000.473","12.06","66.32","0.0","0.0"],
    [1505568,"2026-02-03 20:20:00","52065","2.032","283.4","2.6460000000000004","279.9","1000.438","11.93","66.98","0.0","0.0"],
    [1505569,"2026-02-03 20:30:00","52066","2.2","273.8","2.5810000000000004","272.5","1000.395","11.73","66.69","0.0","0.0"],
    [1505570,"2026-02-03 20:40:00","52067","2.226","273.8","2.613","272.7","1000.426","11.52","66.69","0.0","0.0"],
    [1505571,"2026-02-03 20:50:00","52068","1.849","281.7","2.352","276.4","1000.366","11.4","66.37","0.0","0.0"],
    [1505572,"2026-02-03 21:00:00","52069","1.9980000000000002","281.2","2.548","290.5","1000.372","11.54","64.59","0.0","0.0"],
    [1505573,"2026-02-03 21:10:00","52070","2.086","280.5","2.875","287.2","1000.369","11.5","63.93","0.0","0.0"],
    [1505574,"2026-02-03 21:20:00","52071","1.9340000000000002","273.2","2.679","274.3","1000.368","11.43","65.08","0.0","0.0"],
    [1505575,"2026-02-03 21:30:00","52072","1.5930000000000002","279.9","2.123","281.6","1000.327","11.43","66.05","0.0","0.0"],
    [1505576,"2026-02-03 21:40:00","52073","1.547","280.8","1.96","283.6","1000.293","11.34","66.3","0.0","0.0"],
    [1505577,"2026-02-03 21:50:00","52074","1.662","271.7","1.96","274.2","1000.382","11.3","66.27","0.0","0.0"],
    [1505578,"2026-02-03 22:00:00","52075","1.7109999999999999","269.6","2.156","266.3","1000.394","11.33","65.74","0.0","0.0"],
    [1505579,"2026-02-03 22:10:00","52076","1.641","270.6","2.0580000000000003","268.4","1000.369","11.22","65.63","0.0","0.0"],
    [1505580,"2026-02-03 22:20:00","52077","1.339","285.9","1.633","279.2","1000.164","10.81","66.68","0.0","0.0"],
    [1505581,"2026-02-03 22:30:00","52078","1.177","273.7","1.3719999999999999","278.1","1000.141","10.7","67.97","0.0","0.0"],
    [1505582,"2026-02-03 22:40:00","52079","0.608","252.3","0.98","259.9","1000.068","10.89","67.66","0.0","0.0"],
    [1505583,"2026-02-03 22:50:00","52080","0.8270000000000001","261.8","1.045","258.8","1000.057","11.17","66.36","0.0","0.0"],
    [1505584,"2026-02-03 23:00:00","52081","0.546","274.9","1.143","296.8","999.8674","11.15","65.35","0.0","0.0"],
    [1505585,"2026-02-03 23:10:00","52082","0.8240000000000001","254.4","1.209","297.1","999.9274","10.62","66.3","0.0","0.0"],
    [1505586,"2026-02-03 23:20:00","52083","1.182","279.2","1.699","273.2","999.8046","10.04","67.48","0.0","0.0"],
    [1505587,"2026-02-03 23:30:00","52084","1.666","277.9","2.123","275.1","999.6952","9.43","70.69","0.0","0.0"],
    [1505588,"2026-02-03 23:40:00","52085","0.943","249.1","2.156","257.7","999.503","9.45","71.68","0.0","0.0"],
    [1505589,"2026-02-03 23:50:00","52086","0.07200000000000001","279.0","0.588","279.1","999.3498","9.52","72.14","0.0","0.0"],
    [1505590,"2026-02-04 00:00:00","52087","1.489","287.5","2.679","261.1","999.209","9.26","72.23","0.0","0.0"],
    [1505591,"2026-02-04 00:10:00","52088","0.94","271.0","2.123","265.1","999.0508","8.9","73.95","0.0","0.0"],
    [1505592,"2026-02-04 00:20:00","52089","1.4909999999999999","276.9","2.025","266.7","998.8536","8.71","75.58","0.0","0.0"],
    [1505593,"2026-02-04 00:30:00","52090","1.598","281.6","1.9269999999999998","274.4","998.6656","8.6","77.23","0.0","0.0"],
    [1505594,"2026-02-04 00:40:00","52091","0.92","298.5","1.5030000000000001","286.9","998.5132","8.67","78.47","0.0","0.0"],
    [1505595,"2026-02-04 00:50:00","52092","1.11","305.4","1.4369999999999998","307.2","998.389","8.91","79.66","0.0","0.0"],
    [1505596,"2026-02-04 01:00:00","52093","0.6659999999999999","296.7","1.3719999999999999","287.2","998.2526","9.11","80.4","0.0","0.0"],
    [1505597,"2026-02-04 01:10:00","52094","0.168","219.7","0.653","189.3","998.1697","9.22","79.95","0.0","0.0"],
    [1505598,"2026-02-04 01:20:00","52095","0.774","282.6","1.47","284.8","998.0815","9.15","79.99","0.0","0.0"],
    [1505599,"2026-02-04 01:30:00","52096","1.5719999999999998","279.0","3.136","266.8","997.9502","8.95","80.5","0.0","0.0"],
    [1505600,"2026-02-04 01:40:00","52097","2.088","269.7","2.8089999999999997","266.4","997.8401","8.48","80.7","0.0","0.0"],
    [1505601,"2026-02-04 01:50:00","52098","1.15","262.4","2.352","273.3","997.6826","8.46","81.9","0.0","0.0"],
    [1505602,"2026-02-04 02:00:00","52099","0.7490000000000001","272.1","1.568","265.2","997.6439","8.51","82.7","0.0","0.0"],
    [1505603,"2026-02-04 02:10:00","52100","1.901","279.4","2.548","270.8","997.4236","8.21","83.5","0.0","0.0"],
    [1505604,"2026-02-04 02:20:00","52101","1.821","279.2","2.319","279.0","997.3068","8.08","85.1","0.0","0.0"],
    [1505605,"2026-02-04 02:30:00","52102","1.5130000000000001","267.5","2.352","264.0","997.1606","8.4","86.0","0.0","0.0"],
    [1505606,"2026-02-04 02:40:00","52103","1.063","281.9","1.7309999999999999","272.3","996.9268","8.58","85.2","0.0","0.0"],
    [1505607,"2026-02-04 02:50:00","52104","1.156","296.0","2.189","273.5","996.6357","8.31","85.4","0.0","0.0"],
    [1505608,"2026-02-04 03:00:00","52105","0.6990000000000001","300.2","1.209","289.5","996.4877","8.47","85.8","0.0","0.0"],
    [1505609,"2026-02-04 03:10:00","52106","0.955","321.4","1.3719999999999999","333.2","996.2133","8.56","85.7","0.0","0.0"],
    [1505610,"2026-02-04 03:20:00","52107","1.228","302.8","1.9269999999999998","275.3","995.8745","8.54","85.5","0.0","0.0"],
    [1505611,"2026-02-04 03:30:00","52108","1.409","280.3","2.319","254.7","995.6873","8.33","85.7","0.0","0.0"],
    [1505612,"2026-02-04 03:40:00","52109","1.906","266.5","2.5810000000000004","261.3","995.6178","7.942","85.3","0.0","0.0"],
    [1505613,"2026-02-04 03:50:00","52110","1.821","261.6","2.548","269.9","995.5849","7.769","85.5","0.0","0.0"],
    [1505614,"2026-02-04 04:00:00","52111","2.093","278.3","2.6460000000000004","267.4","995.3153","7.353","85.3","0.0","0.0"],
    [1505615,"2026-02-04 04:10:00","52112","2.069","271.3","2.417","266.6","995.0548","7.331","86.0","0.0","0.0"],
    [1505616,"2026-02-04 04:20:00","52113","0.9790000000000001","252.5","2.221","261.7","994.9608","7.706","86.5","0.0","0.0"],
    [1505617,"2026-02-04 04:30:00","52114","1.615","269.4","2.483","269.0","994.856","7.726","86.2","0.0","0.0"],
    [1505618,"2026-02-04 04:40:00","52115","2.319","268.4","2.6460000000000004","269.5","994.7446","7.521","86.5","0.0","0.0"],
    [1505619,"2026-02-04 04:50:00","52116","2.229","268.2","3.103","272.1","994.6182","7.518","87.0","0.0","0.0"],
    [1505620,"2026-02-04 05:00:00","52117","2.124","264.1","2.679","262.9","994.4732","7.457999999999999","87.2","0.0","0.0"],
    [1505621,"2026-02-04 05:10:00","52118","1.7690000000000001","278.2","2.156","273.0","994.2759","7.614","87.6","0.0","0.0"],
    [1505622,"2026-02-04 05:20:00","52119","1.723","280.3","2.0909999999999997","276.6","994.0585","7.808","87.8","0.0","0.0"],
    [1505623,"2026-02-04 05:30:00","52120","1.82","263.2","2.483","261.0","994.0295","7.824","87.5","0.0","0.0"],
    [1505624,"2026-02-04 05:40:00","52121","1.479","255.9","2.5810000000000004","255.9","993.977","7.976","87.3","0.0","0.0"],
    [1505625,"2026-02-04 05:50:00","52122","1.148","252.0","3.495","258.5","993.8766","8.19","86.8","0.3","0.4"],
    [1505626,"2026-02-04 06:00:00","52123","2.052","268.4","3.9530000000000003","264.5","993.8284","7.861000000000001","87.7","0.359","0.0"],
    [1505627,"2026-02-04 06:10:00","52124","2.115","265.0","3.136","265.5","993.8122","7.386","89.6","0.342","0.0"],
    [1505628,"2026-02-04 06:20:00","52125","2.4859999999999998","265.2","2.9730000000000003","263.8","993.7466","7.282","90.9","0.961","0.0"],
    [1505629,"2026-02-04 06:30:00","52126","2.004","259.9","3.071","265.5","993.8026","7.585","91.6","1.2209999999999999","0.0"],
    [1505630,"2026-02-04 06:40:00","52127","1.3230000000000002","249.4","2.842","261.3","993.7382","7.952999999999999","91.4","1.213","0.0"],
    [1505631,"2026-02-04 06:50:00","52128","1.7109999999999999","258.0","2.907","264.9","993.6459","8.07","91.0","1.734","0.0"],
    [1505632,"2026-02-04 07:00:00","52129","2.378","261.1","3.1689999999999996","261.3","993.638","7.816","90.1","3.181","0.0"],
    [1505633,"2026-02-04 07:10:00","52130","2.522","264.4","3.071","263.4","993.7371","7.422999999999999","90.1","6.901","0.0"],
    [1505634,"2026-02-04 07:20:00","52131","2.156","267.8","2.842","262.4","993.8372","7.472","90.1","9.09","0.0"],
    [1505635,"2026-02-04 07:30:00","52132","1.788","266.6","2.221","267.1","993.8781","7.559","90.0","8.35","0.0"],
    [1505636,"2026-02-04 07:40:00","52133","1.815","262.7","2.352","263.3","993.8582","7.729","90.1","10.82","0.0"],
    [1505637,"2026-02-04 07:50:00","52134","2.136","269.4","2.679","270.2","993.7695","7.8870000000000005","89.7","12.34","0.1"],
    [1505638,"2026-02-04 08:00:00","52135","1.84","264.6","2.7110000000000003","274.0","993.7122","8.13","89.5","12.33","0.1"],
    [1505639,"2026-02-04 08:10:00","52136","1.53","256.7","2.45","246.9","993.6594","8.31","89.6","22.48","0.0"],
    [1505640,"2026-02-04 08:20:00","52137","1.781","252.8","2.7769999999999997","262.7","993.6757","8.46","89.5","44.12","0.1"],
    [1505641,"2026-02-04 08:30:00","52138","1.515","236.3","3.365","219.5","993.5899","8.93","89.4","75.51","0.0"],
    [1505642,"2026-02-04 08:40:00","52139","1.797","247.1","3.0380000000000003","251.4","993.5493","9.29","88.0","97.3","0.0"],
    [1505643,"2026-02-04 08:50:00","52140","2.4330000000000003","219.9","4.181","204.6","993.3918","9.6","86.1","104.0","0.0"],
    [1505644,"2026-02-04 09:00:00","52141","2.258","223.6","4.508","220.3","993.2742","9.73","84.0","120.1","0.0"],
    [1505645,"2026-02-04 09:10:00","52142","1.8130000000000002","221.4","3.234","214.2","993.1997","9.86","83.1","155.4","0.0"],
    [1505646,"2026-02-04 09:20:00","52143","2.029","224.6","3.7239999999999998","214.1","993.1727","9.99","82.7","140.7","0.0"],
    [1505647,"2026-02-04 09:30:00","52144","2.235","239.1","3.6910000000000003","225.6","993.2097","10.0","81.9","103.0","0.0"],
    [1505648,"2026-02-04 09:40:00","52145","2.048","233.8","3.267","236.3","993.1726","10.06","81.6","114.8","0.0"],
    [1505649,"2026-02-04 09:50:00","52146","1.8730000000000002","225.9","3.7569999999999997","242.9","993.1074","10.21","81.1","150.8","0.0"],
    [1505650,"2026-02-04 10:00:00","52147","2.1830000000000003","223.2","3.822","213.3","992.9101","10.32","80.4","262.9","0.0"],
    [1505651,"2026-02-04 10:10:00","52148","1.54","235.0","2.875","271.3","992.6673","10.52","79.59","274.1","0.0"],
    [1505652,"2026-02-04 10:20:00","52149","1.6909999999999998","242.2","2.842","237.7","992.7253","10.57","79.01","233.0","0.0"],
    [1505653,"2026-02-04 10:30:00","52150","1.429","236.5","2.6460000000000004","221.7","992.7115","10.58","78.73","177.9","0.0"],
    [1505654,"2026-02-04 10:40:00","52151","1.5019999999999998","231.8","2.385","223.0","992.7419","10.55","78.36","125.4","0.0"],
    [1505655,"2026-02-04 10:50:00","52152","1.392","228.1","2.417","214.8","992.7161","10.71","78.21","139.3","0.0"],
    [1505656,"2026-02-04 11:00:00","52153","1.7180000000000002","213.9","2.842","217.0","992.6166","10.77","77.02","217.8","0.0"],
    [1505657,"2026-02-04 11:10:00","52154","1.3769999999999998","196.9","2.8089999999999997","213.2","992.5028","11.07","76.53","221.1","0.0"],
    [1505658,"2026-02-04 11:20:00","52155","2.28","207.3","4.018","222.2","992.4352","11.08","75.75","162.7","0.0"],
    [1505659,"2026-02-04 11:30:00","52156","2.22","219.2","4.312","217.2","992.3713","11.21","73.59","152.8","0.0"],
    [1505660,"2026-02-04 11:40:00","52157","2.9189999999999996","218.2","6.631","229.3","992.1848","11.26","71.98","153.6","0.0"],
    [1505661,"2026-02-04 11:50:00","52158","3.0589999999999997","220.1","5.422999999999999","230.3","992.0441","11.21","71.01","131.3","0.0"],
    [1505662,"2026-02-04 12:00:00","52159","3.0039999999999996","219.0","4.769","222.8","991.9605","11.26","71.76","126.7","0.0"],
    [1505663,"2026-02-04 12:10:00","52160","1.484","230.6","2.842","252.6","991.9009","11.36","72.57","186.8","0.0"],
    [1505664,"2026-02-04 12:20:00","52161","2.123","215.8","3.7569999999999997","231.7","991.6802","11.51","72.61","325.0","0.0"],
    [1505665,"2026-02-04 12:30:00","52162","2.279","208.1","3.659","237.3","991.5118","11.56","72.39","178.8","0.0"],
    [1505666,"2026-02-04 12:40:00","52163","3.1710000000000003","210.2","6.5329999999999995","201.8","991.3986","11.61","72.36","214.0","0.0"],
    [1505667,"2026-02-04 12:50:00","52164","4.295","202.0","6.566","203.6","991.2658","11.7","71.65","273.4","0.0"],
    [1505668,"2026-02-04 13:00:00","52165","3.616","206.7","5.782","210.8","991.209","11.97","71.89","339.5","0.0"],
    [1505669,"2026-02-04 13:10:00","52166","4.359","213.7","7.317","230.1","991.2209","12.01","71.55","169.4","0.0"],
    [1505670,"2026-02-04 13:20:00","52167","4.93","219.4","9.28","208.4","991.1996","11.87","71.66","125.9","0.0"],
    [1505671,"2026-02-04 13:30:00","52168","4.721","221.8","8.59","217.3","991.1323","11.97","71.85","200.1","0.0"],
    [1505672,"2026-02-04 13:40:00","52169","4.797","224.2","8.72","212.5","991.1997","11.87","72.01","90.5","0.0"],
    [1505673,"2026-02-04 13:50:00","52170","4.111000000000001","228.9","7.807","220.6","991.3672","11.72","73.51","81.6","0.0"],
    [1505674,"2026-02-04 14:00:00","52171","3.695","230.7","6.337000000000001","217.8","991.5121","11.69","74.56","195.7","0.0"],
    [1505675,"2026-02-04 14:10:00","52172","2.687","220.5","5.4879999999999995","206.7","991.5647","11.84","75.5","75.41","0.0"],
    [1505676,"2026-02-04 14:20:00","52173","2.68","230.7","5.325","227.1","991.482","12.02","75.19","78.1","0.0"],
    [1505677,"2026-02-04 14:30:00","52174","1.9880000000000002","259.1","4.606","262.2","991.319","12.12","73.57","99.7","0.0"],
    [1505678,"2026-02-04 14:40:00","52175","2.164","256.6","4.279","261.6","991.1898","12.16","73.32","167.7","0.0"],
    [1505679,"2026-02-04 14:50:00","52176","2.215","245.4","4.312","253.8","991.1948","12.3","73.33","189.7","0.0"],
    [1505680,"2026-02-04 15:00:00","52177","1.666","253.9","3.234","290.4","991.2108","12.34","72.97","126.4","0.0"],
    [1505681,"2026-02-04 15:10:00","52178","2.191","229.7","3.659","230.8","991.1815","12.38","71.12","91.2","0.0"],
    [1505682,"2026-02-04 15:20:00","52179","2.128","229.2","4.867","210.2","991.2327","12.73","68.72","242.6","0.0"],
    [1505683,"2026-02-04 15:30:00","52180","2.448","239.7","4.149","220.1","991.2801","13.22","64.5","262.1","0.0"],
    [1505684,"2026-02-04 15:40:00","52181","2.5340000000000003","258.2","4.704","221.8","991.321","13.61","61.25","233.7","0.0"],
    [1505685,"2026-02-04 15:50:00","52182","3.0789999999999997","250.2","5.847","223.1","991.3225","13.62","59.63","206.3","0.0"],
    [1505686,"2026-02-04 16:00:00","52183","2.927","250.2","5.096","270.9","991.3712","13.62","59.52","177.3","0.0"],
    [1505687,"2026-02-04 16:10:00","52184","3.113","274.1","4.998","265.1","991.4316","13.71","58.78","147.0","0.0"],
    [1505688,"2026-02-04 16:20:00","52185","4.059","283.0","5.586","288.9","991.5319","13.76","56.63","120.7","0.0"],
    [1505689,"2026-02-04 16:30:00","52186","4.131","287.0","6.207000000000001","283.8","991.6357","13.77","54.06","90.4","0.0"],
    [1505690,"2026-02-04 16:40:00","52187","4.7010000000000005","285.2","7.121","297.4","991.8311","13.63","52.5","32.29","0.0"],
    [1505691,"2026-02-04 16:50:00","52188","3.076","262.0","5.129","275.1","991.8897","13.43","52.79","15.82","0.0"],
    [1505692,"2026-02-04 17:00:00","52189","2.716","261.9","4.802","268.4","991.8895","13.28","52.51","7.985","0.0"],
    [1505693,"2026-02-04 17:10:00","52190","1.6219999999999999","253.0","3.7569999999999997","263.7","992.0707","13.15","52.89","3.405","0.0"],
    [1505694,"2026-02-04 17:20:00","52191","1.005","250.5","1.829","278.3","992.095","12.98","53.41","0.355","0.0"],
    [1505695,"2026-02-04 17:30:00","52192","1.3119999999999998","238.1","2.875","242.4","992.1723","12.97","53.65","0.0","0.0"],
    [1505696,"2026-02-04 17:40:00","52193","0.997","233.0","1.96","253.4","992.1672","12.86","54.24","0.0","0.0"],
    [1505697,"2026-02-04 17:50:00","52194","1.8730000000000002","234.3","2.907","246.8","992.3953","12.99","53.65","0.0","0.0"],
    [1505698,"2026-02-04 18:00:00","52195","1.525","263.7","2.287","268.5","992.6949","12.8","54.22","0.0","0.0"],
    [1505699,"2026-02-04 18:10:00","52196","1.2819999999999998","243.1","2.123","251.7","993.0097","12.68","55.31","0.0","0.0"],
    [1505700,"2026-02-04 18:20:00","52197","1.485","236.9","3.071","214.1","993.1626","12.82","55.73","0.0","0.0"],
    [1505701,"2026-02-04 18:30:00","52198","1.631","232.4","3.299","264.3","993.2656","12.76","59.02","0.0","0.0"],
    [1505702,"2026-02-04 18:40:00","52199","1.125","248.2","2.875","249.9","993.0648","12.57","62.15","0.0","0.0"],
    [1505703,"2026-02-04 18:50:00","52200","2.0340000000000003","255.0","4.541","283.9","993.1082","12.65","65.09","0.0","0.0"],
    [1505704,"2026-02-04 19:00:00","52201","2.217","257.3","4.1160000000000005","262.3","993.1962","12.46","66.61","0.0","0.0"],
    [1505705,"2026-02-04 19:10:00","52202","1.7069999999999999","268.4","2.515","256.4","993.0685","12.23","67.17","0.0","0.0"],
    [1505706,"2026-02-04 19:20:00","52203","1.642","266.1","2.7769999999999997","266.2","992.8661","12.08","67.03","0.0","0.0"],
    [1505707,"2026-02-04 19:30:00","52204","1.949","273.4","2.7110000000000003","270.8","993.2935","12.07","66.0","0.0","0.0"],
    [1505708,"2026-02-04 19:40:00","52205","1.1440000000000001","261.0","2.94","262.4","993.4205","11.97","65.42","0.0","0.0"],
    [1505709,"2026-02-04 19:50:00","52206","1.423","246.0","2.352","218.9","993.6785","11.95","64.68","0.0","0.0"],
    [1505710,"2026-02-04 20:00:00","52207","1.704","259.2","3.9530000000000003","254.9","993.8604","12.0","63.35","0.0","0.0"],
    [1505711,"2026-02-04 20:10:00","52208","1.9269999999999998","243.8","3.593","216.4","993.9795","12.02","62.87","0.0","0.0"],
    [1505712,"2026-02-04 20:20:00","52209","1.6569999999999998","256.1","3.267","253.0","993.9467","11.92","62.21","0.0","0.0"],
    [1505713,"2026-02-04 20:30:00","52210","1.5390000000000001","252.2","3.5610000000000004","246.6","993.9139","11.67","63.14","0.0","0.0"],
    [1505714,"2026-02-04 20:40:00","52211","1.9280000000000002","256.8","3.0380000000000003","252.0","994.2445","11.78","62.78","0.0","0.0"],
    [1505715,"2026-02-04 20:50:00","52212","1.882","267.8","2.319","271.7","994.1578","11.37","63.75","0.0","0.0"],
    [1505716,"2026-02-04 21:00:00","52213","1.9680000000000002","279.6","2.483","281.6","993.9432","11.2","64.67","0.0","0.0"],
    [1505717,"2026-02-04 21:10:00","52214","2.079","283.2","2.7110000000000003","275.0","994.1844","11.33","65.04","0.0","0.0"],
    [1505718,"2026-02-04 21:20:00","52215","1.902","261.8","2.7110000000000003","267.4","994.3885","11.28","64.77","0.0","0.0"],
    [1505719,"2026-02-04 21:30:00","52216","1.7990000000000002","267.3","2.319","268.6","994.2767","11.26","64.46","0.0","0.0"],
    [1505720,"2026-02-04 21:40:00","52217","1.8419999999999999","275.8","2.45","276.6","994.4072","11.22","65.05","0.0","0.0"],
    [1505721,"2026-02-04 21:50:00","52218","1.723","283.8","2.156","278.1","994.4133","11.09","66.3","0.0","0.0"],
    [1505722,"2026-02-04 22:00:00","52219","1.694","296.4","2.254","295.7","994.2245","11.12","66.88","0.0","0.0"],
    [1505723,"2026-02-04 22:10:00","52220","2.188","283.3","2.842","273.1","994.3457","11.16","66.74","0.0","0.0"],
    [1505724,"2026-02-04 22:20:00","52221","1.895","278.4","2.483","280.6","994.0972","11.16","66.66","0.0","0.0"],
    [1505725,"2026-02-04 22:30:00","52222","2.184","291.5","2.907","294.3","994.0336","11.24","66.8","0.0","0.0"],
    [1505726,"2026-02-04 22:40:00","52223","2.247","279.4","3.071","284.1","993.9058","11.45","65.66","0.0","0.0"],
    [1505727,"2026-02-04 22:50:00","52224","2.738","266.3","3.365","277.2","994.3056","11.36","65.13","0.0","0.0"],
    [1505728,"2026-02-04 23:00:00","52225","2.679","264.9","3.463","272.7","994.7062","10.95","66.36","0.0","0.0"],
    [1505729,"2026-02-04 23:10:00","52226","2.237","270.2","3.071","272.1","994.754","10.91","67.37","0.0","0.0"],
    [1505730,"2026-02-04 23:20:00","52227","2.001","276.3","2.385","278.6","994.7705","10.86","68.06","0.0","0.0"],
    [1505731,"2026-02-04 23:30:00","52228","1.913","282.4","2.548","291.5","994.7406","11.06","68.05","0.0","0.0"],
    [1505732,"2026-02-04 23:40:00","52229","1.9369999999999998","282.6","2.483","285.2","994.6942","11.3","67.13","0.0","0.0"],
    [1505733,"2026-02-04 23:50:00","52230","2.23","280.6","2.6460000000000004","284.0","994.6533","11.46","66.56","0.0","0.0"],
    [1505734,"2026-02-05 00:00:00","52231","2.138","265.2","2.613","265.9","994.7544","11.3","66.76","0.0","0.0"],
    [1505735,"2026-02-05 00:10:00","52232","2.2640000000000002","274.0","2.7110000000000003","272.7","994.7537","11.25","66.98","0.0","0.0"],
    [1505736,"2026-02-05 00:20:00","52233","1.966","267.0","2.385","263.3","994.5904","11.23","67.47","0.0","0.0"],
    [1505737,"2026-02-05 00:30:00","52234","1.6059999999999999","242.9","2.352","257.1","994.1819","11.33","67.3","0.0","0.0"],
    [1505738,"2026-02-05 00:40:00","52235","1.105","247.8","2.0580000000000003","249.9","993.9274","11.61","66.0","0.0","0.0"],
    [1505739,"2026-02-05 00:50:00","52236","1.62","255.3","2.8089999999999997","258.5","994.0321","11.54","65.61","0.0","0.0"],
    [1505740,"2026-02-05 01:00:00","52237","2.6719999999999997","275.3","3.136","265.7","994.2623","11.03","67.22","0.0","0.0"],
    [1505741,"2026-02-05 01:10:00","52238","2.279","274.3","2.907","274.9","994.5022","10.49","70.16","0.0","0.0"],
    [1505742,"2026-02-05 01:20:00","52239","2.479","261.1","3.005","254.6","994.5042","10.32","71.1","0.0","0.0"],
    [1505743,"2026-02-05 01:30:00","52240","2.491","260.7","2.875","266.2","994.5516","10.11","72.18","0.0","0.0"],
    [1505744,"2026-02-05 01:40:00","52241","2.178","264.0","2.907","270.5","994.4825","10.52","71.31","0.0","0.0"],
    [1505745,"2026-02-05 01:50:00","52242","2.176","261.3","2.679","268.8","994.5515","10.6","70.47","0.0","0.0"],
    [1505746,"2026-02-05 02:00:00","52243","1.479","248.0","2.352","261.4","994.5753","10.74","70.11","0.0","0.0"],
    [1505747,"2026-02-05 02:10:00","52244","1.749","253.1","2.417","244.5","994.5876","10.94","69.26","0.0","0.0"],
    [1505748,"2026-02-05 02:20:00","52245","2.186","259.0","3.005","262.6","994.4434","10.41","69.85","0.0","0.0"],
    [1505749,"2026-02-05 02:30:00","52246","2.021","254.4","3.0380000000000003","259.4","994.5252","9.78","72.72","0.0","0.0"],
    [1505750,"2026-02-05 02:40:00","52247","2.577","258.3","3.299","262.7","994.509","9.56","74.25","0.0","0.0"],
    [1505751,"2026-02-05 02:50:00","52248","2.364","258.0","3.005","255.3","994.5955","9.41","75.44","0.0","0.0"],
    [1505752,"2026-02-05 03:00:00","52249","2.207","258.1","2.94","254.7","994.5218","9.49","76.18","0.0","0.0"],
    [1505753,"2026-02-05 03:10:00","52250","1.804","244.1","2.679","255.7","994.6343","9.9","75.61","0.0","0.0"],
    [1505754,"2026-02-05 03:20:00","52251","1.4680000000000002","226.1","2.385","208.3","994.4963","10.27","74.88","0.0","0.0"],
    [1505755,"2026-02-05 03:30:00","52252","1.8630000000000002","255.0","3.0380000000000003","259.8","994.4627","10.32","74.22","0.0","0.0"],
    [1505756,"2026-02-05 03:40:00","52253","2.667","259.6","3.136","257.0","994.3017","10.1","73.11","0.0","0.0"],
    [1505757,"2026-02-05 03:50:00","52254","2.7260000000000004","258.3","3.43","258.7","994.1723","9.65","74.51","0.0","0.0"],
    [1505758,"2026-02-05 04:00:00","52255","2.6630000000000003","265.2","3.136","262.7","993.9207","9.49","75.62","0.0","0.0"],
    [1505759,"2026-02-05 04:10:00","52256","2.785","263.5","3.528","259.1","993.8096","9.55","76.26","0.0","0.0"],
    [1505760,"2026-02-05 04:20:00","52257","2.0469999999999997","235.7","2.907","210.9","993.9802","10.34","76.02","0.044000000000000004","0.0"],
    [1505761,"2026-02-05 04:30:00","52258","2.6439999999999997","229.3","3.855","217.7","994.373","11.75","72.71","0.0","0.0"],
    [1505762,"2026-02-05 04:40:00","52259","2.052","252.9","3.463","261.6","994.7787","10.78","71.36","0.0","0.0"],
    [1505763,"2026-02-05 04:50:00","52260","2.1919999999999997","260.9","3.332","269.1","994.7886","9.82","74.07","0.0","0.0"],
    [1505764,"2026-02-05 05:00:00","52261","2.911","274.9","3.6910000000000003","264.8","994.7131","8.99","76.78","0.0","0.0"],
    [1505765,"2026-02-05 05:10:00","52262","1.97","292.2","2.907","277.8","994.3802","9.09","79.04","0.0","0.0"],
    [1505766,"2026-02-05 05:20:00","52263","2.617","259.8","3.365","265.1","994.1579","9.25","79.29","0.0","0.0"],
    [1505767,"2026-02-05 05:30:00","52264","2.7739999999999996","268.8","3.234","260.9","994.0204","9.15","79.02","0.0","0.0"],
    [1505768,"2026-02-05 05:40:00","52265","2.7060000000000004","282.1","3.1689999999999996","284.1","993.9435","9.85","77.87","0.003","0.0"],
    [1505769,"2026-02-05 05:50:00","52266","2.74","274.5","3.103","260.9","994.0336","10.07","76.01","0.0","0.0"],
    [1505770,"2026-02-05 06:00:00","52267","2.645","296.2","3.92","323.8","993.8632","9.99","77.0","0.004","0.0"],
    [1505771,"2026-02-05 06:10:00","52268","2.1719999999999997","296.1","3.495","315.1","993.6893","11.01","76.72","0.09","0.0"],
    [1505772,"2026-02-05 06:20:00","52269","2.114","260.0","2.6460000000000004","280.9","993.6503","11.68","71.3","0.057999999999999996","0.0"],
    [1505773,"2026-02-05 06:30:00","52270","2.095","251.8","3.1689999999999996","255.2","993.6758","11.55","69.98","0.0","0.0"],
    [1505774,"2026-02-05 06:40:00","52271","1.442","217.4","2.94","241.0","993.4434","11.54","69.81","0.0","0.0"],
    [1505775,"2026-02-05 06:50:00","52272","1.555","220.7","2.7439999999999998","221.0","993.1375","10.96","71.95","0.0","0.0"],
    [1505776,"2026-02-05 07:00:00","52273","1.8","224.3","2.842","204.1","993.1591","11.13","73.01","0.215","0.0"],
    [1505777,"2026-02-05 07:10:00","52274","2.7439999999999998","283.1","3.9530000000000003","272.3","993.5289","10.65","72.56","0.9390000000000001","0.0"],
    [1505778,"2026-02-05 07:20:00","52275","2.7769999999999997","278.8","4.573","306.6","993.8126","10.49","74.17","2.9360000000000004","0.0"],
    [1505779,"2026-02-05 07:30:00","52276","2.199","256.9","3.887","283.2","994.1213","10.69","73.16","5.665","0.0"],
    [1505780,"2026-02-05 07:40:00","52277","2.269","264.2","3.659","272.3","994.0428","10.88","72.27","14.72","0.0"],
    [1505781,"2026-02-05 07:50:00","52278","2.398","263.8","3.201","256.2","994.1389","11.15","71.21","18.16","0.0"],
    [1505782,"2026-02-05 08:00:00","52279","2.18","263.4","3.005","260.9","993.9333","11.42","70.24","31.27","0.0"],
    [1505783,"2026-02-05 08:10:00","52280","1.831","258.4","3.0380000000000003","266.8","993.7768","11.52","70.03","36.4","0.0"],
    [1505784,"2026-02-05 08:20:00","52281","2.245","269.2","3.1689999999999996","277.6","993.6176","11.36","70.86","31.99","0.0"],
    [1505785,"2026-02-05 08:30:00","52282","2.241","278.6","2.875","273.4","993.4938","11.12","73.53","62.26","0.1"],
    [1505786,"2026-02-05 08:40:00","52283","2.253","278.1","2.7769999999999997","274.2","993.3893","11.22","75.05","60.03","0.0"],
    [1505787,"2026-02-05 08:50:00","52284","2.3409999999999997","263.2","3.071","243.2","993.4553","11.03","76.47","32.02","0.0"],
    [1505788,"2026-02-05 09:00:00","52285","2.185","261.6","3.234","273.5","993.5587","11.04","77.58","22.01","0.3"],
    [1505789,"2026-02-05 09:10:00","52286","1.646","258.8","2.907","271.9","993.6521","10.71","80.2","38.84","0.1"],
    [1505790,"2026-02-05 09:20:00","52287","2.34","273.4","3.005","258.0","993.5756","10.3","83.9","53.47","0.0"],
    [1505791,"2026-02-05 09:30:00","52288","1.9280000000000002","292.8","3.1689999999999996","278.0","993.2826","10.48","87.4","58.04","0.0"],
    [1505792,"2026-02-05 09:40:00","52289","1.385","266.6","2.287","293.3","993.0499","10.71","88.8","61.64","0.1"],
    [1505793,"2026-02-05 09:50:00","52290","1.6780000000000002","253.4","3.0380000000000003","280.8","993.2264","10.65","89.3","65.37","0.0"],
    [1505794,"2026-02-05 10:00:00","52291","2.883","267.7","3.528","273.3","993.3217","10.67","89.8","61.89","0.0"],
    [1505795,"2026-02-05 10:10:00","52292","2.722","271.1","3.365","273.9","993.2294","10.69","91.1","59.64","0.1"],
    [1505796,"2026-02-05 10:20:00","52293","2.582","278.1","3.201","281.1","992.9878","10.57","92.5","57.82","0.0"],
    [1505797,"2026-02-05 10:30:00","52294","2.379","295.1","3.071","295.8","992.5992","10.48","93.5","67.37","0.1"],
    [1505798,"2026-02-05 10:40:00","52295","2.291","298.3","3.071","299.8","992.3068","10.96","93.4","119.6","0.0"],
    [1505799,"2026-02-05 10:50:00","52296","1.252","247.0","2.287","290.3","992.387","11.32","93.0","112.5","0.0"],
    [1505800,"2026-02-05 11:00:00","52297","0.455","192.3","1.96","229.5","992.2903","11.54","92.4","163.4","0.1"],
    [1505801,"2026-02-05 11:10:00","52298","0.17300000000000001","176.0","0.7190000000000001","194.0","991.968","11.75","91.3","184.0","0.0"],
    [1505802,"2026-02-05 11:20:00","52299","0.263","301.7","0.915","270.2","991.6306","12.02","90.6","214.2","0.0"],
    [1505803,"2026-02-05 11:30:00","52300","0.78","235.9","1.339","238.5","991.4104","12.21","89.2","324.9","0.0"],
    [1505804,"2026-02-05 11:40:00","52301","0.426","149.6","0.915","180.1","991.012","12.39","87.4","197.4","0.0"],
    [1505805,"2026-02-05 11:50:00","52302","0.433","359.1","1.176","29.24","990.7996","12.48","86.6","142.6","0.0"],
    [1505806,"2026-02-05 12:00:00","52303","0.848","24.11","1.307","36.24","990.2111","12.44","87.0","114.8","0.0"],
    [1505807,"2026-02-05 12:10:00","52304","0.877","114.3","1.5030000000000001","133.7","989.9422","12.69","87.9","117.9","0.0"],
    [1505808,"2026-02-05 12:20:00","52305","1.351","130.3","2.0909999999999997","136.6","989.7499","12.61","88.9","108.8","0.0"],
    [1505809,"2026-02-05 12:30:00","52306","1.817","132.6","2.483","135.8","989.4402","12.49","89.6","126.9","0.0"],
    [1505810,"2026-02-05 12:40:00","52307","1.484","117.8","1.895","120.6","989.115","12.6","90.7","112.3","0.0"],
    [1505811,"2026-02-05 12:50:00","52308","0.629","107.8","1.143","103.5","989.1146","12.66","92.0","55.75","0.0"],
    [1505812,"2026-02-05 13:00:00","52309","0.295","105.8","0.7190000000000001","116.4","989.0442","12.71","93.0","48.8","0.0"],
    [1505813,"2026-02-05 13:10:00","52310","0.442","93.4","1.209","75.53","988.6216","12.73","93.9","120.3","0.0"],
    [1505814,"2026-02-05 13:20:00","52311","0.401","105.9","1.078","134.8","988.3625","12.79","94.9","80.5","0.0"],
    [1505815,"2026-02-05 13:30:00","52312","0.456","8.0","1.176","337.3","988.4263","12.75","96.0","53.83","0.0"],
    [1505816,"2026-02-05 13:40:00","52313","0.932","352.2","1.9269999999999998","347.3","988.6287","12.79","97.0","37.7","0.0"],
    [1505817,"2026-02-05 13:50:00","52314","1.483","331.4","3.92","294.5","988.2276","13.19","98.3","101.6","0.0"],
    [1505818,"2026-02-05 14:00:00","52315","4.162","161.3","7.4479999999999995","145.6","987.3224","13.17","98.6","272.2","0.0"],
    [1505819,"2026-02-05 14:10:00","52316","1.499","207.0","3.463","164.1","987.4397","13.09","99.1","373.6","0.0"],
    [1505820,"2026-02-05 14:20:00","52317","1.258","176.6","2.5810000000000004","157.9","987.5432","13.16","98.5","191.9","0.0"],
    [1505821,"2026-02-05 14:30:00","52318","2.4019999999999997","180.4","2.842","175.7","987.3712","12.92","98.4","288.6","0.0"],
    [1505822,"2026-02-05 14:40:00","52319","1.806","253.6","4.638999999999999","270.5","987.6176","13.63","99.2","205.4","0.0"],
    [1505823,"2026-02-05 14:50:00","52320","2.197","263.5","3.887","255.1","987.5992","14.13","98.1","200.1","0.0"],
    [1505824,"2026-02-05 15:00:00","52321","2.202","263.5","3.463","261.7","987.5765","14.12","96.7","135.3","0.0"],
    [1505825,"2026-02-05 15:10:00","52322","2.742","221.1","4.737","201.4","987.3494","14.28","95.8","252.7","0.0"],
    [1505826,"2026-02-05 15:20:00","52323","3.6919999999999997","197.6","6.664","196.4","987.1779","14.62","94.4","295.1","0.0"],
    [1505827,"2026-02-05 15:30:00","52324","3.708","207.7","7.513","200.2","987.0793","15.05","93.0","262.2","0.0"],
    [1505828,"2026-02-05 15:40:00","52325","3.0589999999999997","220.5","6.631","205.6","987.0574","15.48","91.6","231.5","0.0"],
    [1505829,"2026-02-05 15:50:00","52326","2.8089999999999997","224.1","5.455","208.0","987.2001","15.45","90.8","204.2","0.0"],
    [1505830,"2026-02-05 16:00:00","52327","2.464","230.9","4.671","262.2","987.4678","15.43","90.6","174.2","0.0"],
    [1505831,"2026-02-05 16:10:00","52328","3.48","236.6","6.272","204.8","987.5327","15.44","90.5","149.2","0.0"],
    [1505832,"2026-02-05 16:20:00","52329","3.32","226.0","8.2","200.9","987.6603","15.4","91.2","123.4","0.0"],
    [1505833,"2026-02-05 16:30:00","52330","4.34","225.0","9.02","205.5","987.5454","15.32","91.6","101.2","0.0"],
    [1505834,"2026-02-05 16:40:00","52331","3.1689999999999996","238.0","5.4879999999999995","222.4","987.5212","15.21","91.0","47.42","0.0"],
    [1505835,"2026-02-05 16:50:00","52332","3.2460000000000004","233.0","5.521","224.2","987.4581","15.2","89.7","21.81","0.0"],
    [1505836,"2026-02-05 17:00:00","52333","3.1839999999999997","218.6","6.566","200.3","987.5369","15.02","90.8","12.53","0.0"],
    [1505837,"2026-02-05 17:10:00","52334","4.64","215.6","7.905","219.8","987.574","14.85","89.4","6.438","0.0"],
    [1505838,"2026-02-05 17:20:00","52335","4.169","214.2","6.893","212.3","987.763","15.1","86.1","1.4680000000000002","0.0"],
    [1505839,"2026-02-05 17:30:00","52336","5.317","215.8","8.82","220.1","987.9783","14.92","86.7","0.0","0.0"],
    [1505840,"2026-02-05 17:40:00","52337","4.695","229.6","8.23","216.6","988.2494","15.34","79.74","0.0","0.0"],
    [1505841,"2026-02-05 17:50:00","52338","4.067","240.7","7.285","255.3","988.7488","15.36","72.37","0.0","0.0"],
    [1505842,"2026-02-05 18:00:00","52339","3.325","272.8","7.872999999999999","285.6","989.114","15.19","69.74","0.0","0.0"],
    [1505843,"2026-02-05 18:10:00","52340","4.895","273.0","10.22","281.7","989.0541","16.46","54.65","0.0","0.0"],
    [1505844,"2026-02-05 18:20:00","52341","3.218","266.0","9.83","275.8","989.2363","16.45","51.57","0.0","0.0"],
    [1505845,"2026-02-05 18:30:00","52342","3.867","261.2","9.57","274.0","989.4135","16.67","48.7","0.0","0.0"],
    [1505846,"2026-02-05 18:40:00","52343","3.7960000000000003","261.9","8.33","245.9","989.4956","16.58","47.95","0.0","0.0"],
    [1505847,"2026-02-05 18:50:00","52344","3.8569999999999998","270.2","6.697","266.2","989.5123","16.44","47.8","0.0","0.0"],
    [1505848,"2026-02-05 19:00:00","52345","3.952","276.8","7.382999999999999","270.7","989.5215","16.29","48.54","0.0","0.0"],
    [1505849,"2026-02-05 19:10:00","52346","4.364","287.5","6.435","287.6","989.6307","16.49","47.54","0.0","0.0"],
    [1505850,"2026-02-05 19:20:00","52347","5.053","289.1","7.4479999999999995","291.9","989.7639","16.5","47.23","0.0","0.0"],
    [1505851,"2026-02-05 19:30:00","52348","4.726","282.5","9.6","277.4","989.9095","16.44","47.09","0.0","0.0"],
    [1505852,"2026-02-05 19:40:00","52349","3.225","262.0","6.599","280.7","989.9885","16.42","46.2","0.0","0.0"],
    [1505853,"2026-02-05 19:50:00","52350","3.534","232.2","6.011","265.8","989.9924","16.53","46.25","0.0","0.0"],
    [1505854,"2026-02-05 20:00:00","52351","3.945","217.0","6.305","208.3","990.0858","16.24","48.48","0.0","0.0"],
    [1505855,"2026-02-05 20:10:00","52352","3.263","222.1","5.227","221.7","990.2149","15.94","50.04","0.0","0.0"],
    [1505856,"2026-02-05 20:20:00","52353","2.641","230.5","4.737","274.1","990.1945","15.84","49.73","0.0","0.0"],
    [1505857,"2026-02-05 20:30:00","52354","2.9410000000000003","228.0","4.671","214.6","990.5677","16.06","47.99","0.0","0.0"],
    [1505858,"2026-02-05 20:40:00","52355","2.862","227.2","4.41","219.1","990.7379","16.11","47.29","0.0","0.0"],
    [1505859,"2026-02-05 20:50:00","52356","2.515","233.8","4.2139999999999995","226.5","990.7992","15.88","48.61","0.0","0.0"],
    [1505860,"2026-02-05 21:00:00","52357","2.7510000000000003","227.9","4.573","253.9","991.011","15.96","48.35","0.0","0.0"],
    [1505861,"2026-02-05 21:10:00","52358","3.6439999999999997","221.0","5.749","229.2","991.2593","15.66","50.05","0.0","0.0"],
    [1505862,"2026-02-05 21:20:00","52359","4.037","226.7","7.872999999999999","226.9","991.3032","15.8","50.09","0.0","0.0"],
    [1505863,"2026-02-05 21:30:00","52360","4.737","219.7","7.285","212.2","991.4202","16.2","47.35","0.0","0.0"],
    [1505864,"2026-02-05 21:40:00","52361","5.207000000000001","212.5","7.905","212.1","991.5573","15.13","53.29","0.0","0.0"],
    [1505865,"2026-02-05 21:50:00","52362","5.502999999999999","219.2","8.49","213.0","991.5849","15.21","53.67","0.0","0.0"],
    [1505866,"2026-02-05 22:00:00","52363","4.397","222.1","6.9910000000000005","233.8","991.5492","15.38","52.96","0.0","0.0"],
    [1505867,"2026-02-05 22:10:00","52364","4.328","223.7","6.435","211.3","991.501","15.67","51.49","0.0","0.0"],
    [1505868,"2026-02-05 22:20:00","52365","3.62","224.8","5.815","211.4","991.528","15.59","51.74","0.0","0.0"],
    [1505869,"2026-02-05 22:30:00","52366","3.575","223.0","5.847","232.1","991.7136","15.58","51.91","0.0","0.0"],
    [1505870,"2026-02-05 22:40:00","52367","4.276","218.7","6.1739999999999995","215.9","991.8253","15.63","51.52","0.0","0.0"],
    [1505871,"2026-02-05 22:50:00","52368","4.857","214.7","8.82","225.8","991.9141","15.71","51.21","0.0","0.0"],
    [1505872,"2026-02-05 23:00:00","52369","6.0729999999999995","220.5","9.67","204.1","991.9476","16.12","49.26","0.0","0.0"],
    [1505873,"2026-02-05 23:10:00","52370","5.8229999999999995","218.5","9.64","212.0","991.9527","16.11","49.0","0.0","0.0"],
    [1505874,"2026-02-05 23:20:00","52371","5.7829999999999995","223.8","9.15","220.9","991.9356","16.36","47.21","0.0","0.0"],
    [1505875,"2026-02-05 23:30:00","52372","5.617000000000001","223.5","9.15","215.6","991.9731","16.18","47.36","0.0","0.0"],
    [1505876,"2026-02-05 23:40:00","52373","4.629","223.5","8.13","201.5","992.1197","15.83","49.11","0.0","0.0"],
    [1505877,"2026-02-05 23:50:00","52374","4.731","221.5","8.46","226.3","992.3297","15.7","49.95","0.0","0.0"],
    [1505878,"2026-02-06 00:00:00","52375","4.372","233.5","7.742000000000001","225.0","992.4182","15.48","51.6","0.0","0.0"],
    [1505879,"2026-02-06 00:10:00","52376","2.88","257.4","6.1739999999999995","254.4","992.5533","15.02","53.42","0.0","0.0"],
    [1505880,"2026-02-06 00:20:00","52377","4.471","244.2","8.69","259.8","992.6912","15.64","50.47","0.0","0.0"],
    [1505881,"2026-02-06 00:30:00","52378","5.041","244.1","8.17","247.9","992.7219","15.99","47.67","0.0","0.0"],
    [1505882,"2026-02-06 00:40:00","52379","4.269","246.0","9.47","256.6","992.6915","15.94","47.08","0.0","0.0"],
    [1505883,"2026-02-06 00:50:00","52380","4.738","245.6","10.16","260.8","992.7222","15.97","46.4","0.0","0.0"],
    [1505884,"2026-02-06 01:00:00","52381","4.6160000000000005","242.2","8.04","254.3","992.9321","15.89","46.39","0.0","0.0"],
    [1505885,"2026-02-06 01:10:00","52382","3.803","247.7","7.187","264.6","993.1092","15.66","46.94","0.0","0.0"],
    [1505886,"2026-02-06 01:20:00","52383","4.5969999999999995","268.8","7.742000000000001","255.5","993.1243","15.24","48.04","0.0","0.0"],
    [1505887,"2026-02-06 01:30:00","52384","5.026","274.8","7.84","271.0","993.2074","15.22","48.0","0.0","0.0"],
    [1505888,"2026-02-06 01:40:00","52385","5.574","275.9","9.31","281.7","993.3088","15.32","47.4","0.0","0.0"],
    [1505889,"2026-02-06 01:50:00","52386","6.346","280.2","9.41","288.2","993.3887","15.61","45.7","0.0","0.0"],
    [1505890,"2026-02-06 02:00:00","52387","5.667000000000001","281.3","9.83","284.5","993.5694","15.62","45.41","0.0","0.0"],
    [1505891,"2026-02-06 02:10:00","52388","4.474","286.3","8.66","288.0","993.8578","15.39","46.15","0.0","0.0"],
    [1505892,"2026-02-06 02:20:00","52389","3.818","277.8","6.566","288.2","994.2548","15.06","47.77","0.0","0.0"],
    [1505893,"2026-02-06 02:30:00","52390","5.14","289.1","8.07","287.5","994.4398","15.15","47.84","0.0","0.0"],
    [1505894,"2026-02-06 02:40:00","52391","5.513","296.6","8.3","281.7","994.3492","14.93","49.02","0.0","0.0"],
    [1505895,"2026-02-06 02:50:00","52392","6.071000000000001","303.5","8.98","302.6","994.1952","14.7","50.27","0.0","0.0"],
    [1505896,"2026-02-06 03:00:00","52393","4.316","296.2","7.513","308.5","994.4176","14.47","51.41","0.0","0.0"],
    [1505897,"2026-02-06 03:10:00","52394","3.022","288.0","6.501","276.3","994.7352","14.38","51.61","0.0","0.0"],
    [1505898,"2026-02-06 03:20:00","52395","1.6840000000000002","292.5","3.7239999999999998","305.0","995.0149","14.43","51.4","0.0","0.0"],
    [1505899,"2026-02-06 03:30:00","52396","0.81","222.5","2.0580000000000003","266.9","995.3812","14.58","50.61","0.0","0.0"],
    [1505900,"2026-02-06 03:40:00","52397","0.867","166.9","1.96","187.2","995.5648","14.29","52.21","0.0","0.0"],
    [1505901,"2026-02-06 03:50:00","52398","1.195","91.9","2.417","89.2","995.616","14.37","51.94","0.0","0.0"],
    [1505902,"2026-02-06 04:00:00","52399","1.176","87.0","2.385","42.5","995.976","14.46","51.41","0.0","0.0"],
    [1505903,"2026-02-06 04:10:00","52400","0.617","185.8","1.7309999999999999","216.7","996.1631","14.42","51.58","0.0","0.0"],
    [1505904,"2026-02-06 04:20:00","52401","0.5670000000000001","219.3","2.0580000000000003","213.8","996.3563","14.43","50.73","0.0","0.0"],
    [1505905,"2026-02-06 04:30:00","52402","1.0390000000000001","258.4","1.96","295.9","996.4682","14.59","49.66","0.0","0.0"],
    [1505906,"2026-02-06 04:40:00","52403","1.7309999999999999","286.2","3.267","293.3","996.5588","14.53","49.53","0.0","0.0"],
    [1505907,"2026-02-06 04:50:00","52404","1.492","262.4","3.103","308.1","996.6117","14.43","50.35","0.0","0.0"],
    [1505908,"2026-02-06 05:00:00","52405","2.378","280.6","5.129","274.8","996.6997","14.34","50.72","0.0","0.0"],
    [1505909,"2026-02-06 05:10:00","52406","3.852","284.1","7.252000000000001","288.9","996.7031","14.32","50.95","0.0","0.0"],
    [1505910,"2026-02-06 05:20:00","52407","4.954","285.1","9.05","262.0","996.838","14.37","51.34","0.0","0.0"],
    [1505911,"2026-02-06 05:30:00","52408","3.6069999999999998","279.7","8.33","263.8","997.0992","14.18","51.93","0.0","0.0"],
    [1505912,"2026-02-06 05:40:00","52409","1.9609999999999999","254.8","4.051","283.8","997.3233","13.99","52.64","0.0","0.0"],
    [1505913,"2026-02-06 05:50:00","52410","1.374","201.0","2.548","192.2","997.4527","13.68","54.56","0.0","0.0"],
    [1505914,"2026-02-06 06:00:00","52411","1.469","187.6","2.515","168.9","997.5145","13.32","57.07","0.0","0.0"],
    [1505915,"2026-02-06 06:10:00","52412","1.163","178.4","2.0909999999999997","198.4","997.5692","13.44","56.59","0.0","0.0"],
    [1505916,"2026-02-06 06:20:00","52413","0.875","184.9","1.405","184.2","997.7227","13.43","56.02","0.0","0.0"],
    [1505917,"2026-02-06 06:30:00","52414","1.406","199.3","2.319","169.6","997.8968","13.4","57.18","0.0","0.0"],
    [1505918,"2026-02-06 06:40:00","52415","0.9309999999999999","287.0","3.528","293.5","998.0131","13.24","56.85","0.0","0.0"],
    [1505919,"2026-02-06 06:50:00","52416","2.7239999999999998","278.3","5.357","279.5","998.0869","13.34","56.28","0.037000000000000005","0.0"],
    [1505920,"2026-02-06 07:00:00","52417","3.852","283.8","6.957999999999999","285.7","998.1499","13.58","55.24","2.245","0.0"],
    [1505921,"2026-02-06 07:10:00","52418","4.671","288.0","8.07","273.9","998.3307","13.93","53.63","10.78","0.0"],
    [1505922,"2026-02-06 07:20:00","52419","4.29","292.5","7.481","287.2","998.6302","14.07","52.67","22.71","0.0"],
    [1505923,"2026-02-06 07:30:00","52420","3.955","288.0","7.121","285.1","999.0109","14.13","52.35","43.56","0.0"],
    [1505924,"2026-02-06 07:40:00","52421","3.3169999999999997","283.7","5.945","285.9","999.1695","14.19","51.94","71.9","0.0"],
    [1505925,"2026-02-06 07:50:00","52422","2.759","272.7","6.011","292.2","999.2181","14.12","52.04","102.2","0.0"],
    [1505926,"2026-02-06 08:00:00","52423","1.7369999999999999","244.6","3.9530000000000003","235.8","999.4186","14.14","52.22","117.3","0.0"],
    [1505927,"2026-02-06 08:10:00","52424","2.221","234.5","3.822","225.8","999.5867","14.23","51.76","161.0","0.0"],
    [1505928,"2026-02-06 08:20:00","52425","2.204","231.9","3.593","248.3","999.7149","14.22","52.02","187.4","0.0"],
    [1505929,"2026-02-06 08:30:00","52426","1.274","244.1","3.1689999999999996","212.2","999.7631","14.41","52.01","212.9","0.0"],
    [1505930,"2026-02-06 08:40:00","52427","1.72","258.7","4.149","257.7","999.895","14.68","51.28","238.8","0.0"],
    [1505931,"2026-02-06 08:50:00","52428","2.013","258.2","5.194","273.1","999.9626","14.83","50.43","267.7","0.0"],
    [1505932,"2026-02-06 09:00:00","52429","2.094","275.2","4.149","285.1","1000.012","15.0","49.28","294.2","0.0"],
    [1505933,"2026-02-06 09:10:00","52430","1.726","227.9","3.43","287.4","1000.169","15.19","48.35","319.5","0.0"],
    [1505934,"2026-02-06 09:20:00","52431","2.8139999999999996","145.6","3.6910000000000003","153.5","1000.312","15.19","49.02","347.2","0.0"],
    [1505935,"2026-02-06 09:30:00","52432","3.7430000000000003","129.1","5.194","134.6","1000.343","14.94","51.45","375.3","0.0"],
    [1505936,"2026-02-06 09:40:00","52433","2.168","138.6","3.593","117.0","1000.489","15.01","52.92","396.8","0.0"],
    [1505937,"2026-02-06 09:50:00","52434","1.4180000000000001","166.5","2.7439999999999998","186.1","1000.525","15.36","51.1","419.8","0.0"],
    [1505938,"2026-02-06 10:00:00","52435","1.1340000000000001","202.4","4.083","292.1","1000.577","15.77","50.28","440.3","0.0"],
    [1505939,"2026-02-06 10:10:00","52436","2.383","256.4","4.769","246.0","1000.712","16.08","45.34","465.8","0.0"],
    [1505940,"2026-02-06 10:20:00","52437","2.852","268.5","5.1610000000000005","246.3","1000.616","16.4","43.94","487.0","0.0"],
    [1505941,"2026-02-06 10:30:00","52438","4.837","273.9","8.13","258.5","1000.519","16.44","43.14","508.4","0.0"],
    [1505942,"2026-02-06 10:40:00","52439","4.9719999999999995","277.7","7.938","277.9","1000.541","16.46","42.85","527.2","0.0"],
    [1505943,"2026-02-06 10:50:00","52440","4.789","286.9","8.04","285.4","1000.548","16.56","42.71","548.7","0.0"],
    [1505944,"2026-02-06 11:00:00","52441","4.625","285.0","7.644","276.6","1000.673","16.73","42.06","441.9","0.0"],
    [1505945,"2026-02-06 11:10:00","52442","3.155","287.1","6.0760000000000005","296.2","1000.826","16.61","42.29","102.6","0.0"],
    [1505946,"2026-02-06 11:20:00","52443","4.033","280.8","6.893","289.9","1000.745","16.62","42.08","189.2","0.0"],
    [1505947,"2026-02-06 11:30:00","52444","3.464","278.1","8.13","262.3","1000.68","16.84","41.92","405.7","0.0"],
    [1505948,"2026-02-06 11:40:00","52445","3.193","269.4","6.729","262.1","1000.613","17.17","40.44","479.8","0.0"],
    [1505949,"2026-02-06 11:50:00","52446","4.579","274.6","7.971","278.3","1000.569","17.12","40.38","398.4","0.0"],
    [1505950,"2026-02-06 12:00:00","52447","3.8480000000000003","251.6","7.709","247.9","1000.657","17.2","39.41","333.5","0.0"],
    [1505951,"2026-02-06 12:10:00","52448","3.4960000000000004","270.2","8.53","256.1","1000.709","17.22","39.02","366.2","0.0"],
    [1505952,"2026-02-06 12:20:00","52449","5.074","273.1","8.2","300.8","1000.613","17.24","38.4","516.4","0.0"],
    [1505953,"2026-02-06 12:30:00","52450","5.444","288.8","8.46","291.0","1000.498","17.13","38.45","567.3","0.0"],
    [1505954,"2026-02-06 12:40:00","52451","4.746","287.0","7.0889999999999995","275.2","1000.436","17.24","38.46","596.9","0.0"],
    [1505955,"2026-02-06 12:50:00","52452","2.798","267.5","6.729","289.2","1000.476","17.5","38.42","570.0","0.0"],
    [1505956,"2026-02-06 13:00:00","52453","3.0860000000000003","224.4","5.912999999999999","243.2","1000.45","17.48","42.14","553.2","0.0"],
    [1505957,"2026-02-06 13:10:00","52454","5.926","198.7","8.85","193.1","1000.317","16.57","47.86","629.4","0.0"],
    [1505958,"2026-02-06 13:20:00","52455","6.907","201.5","9.6","203.7","1000.206","16.39","49.74","650.2","0.0"],
    [1505959,"2026-02-06 13:30:00","52456","5.855","212.8","8.59","202.5","1000.264","16.94","46.16","626.4","0.0"],
    [1505960,"2026-02-06 13:40:00","52457","6.3389999999999995","217.1","10.49","214.9","1000.242","17.02","44.65","599.7","0.0"],
    [1505961,"2026-02-06 13:50:00","52458","5.978","215.3","9.31","213.8","1000.355","17.15","42.45","615.1","0.0"],
    [1505962,"2026-02-06 14:00:00","52459","5.285","213.2","8.95","225.8","1000.461","17.25","42.69","605.0","0.0"],
    [1505963,"2026-02-06 14:10:00","52460","4.223","220.7","7.154","208.8","1000.501","17.02","44.05","498.0","0.0"],
    [1505964,"2026-02-06 14:20:00","52461","4.425","223.0","7.938","211.8","1000.471","17.19","43.65","377.0","0.0"],
    [1505965,"2026-02-06 14:30:00","52462","4.168","217.6","8.59","212.9","1000.475","17.16","43.17","339.8","0.0"],
    [1505966,"2026-02-06 14:40:00","52463","5.331","219.1","8.33","222.7","1000.475","17.21","40.84","200.9","0.0"],
    [1505967,"2026-02-06 14:50:00","52464","4.806","221.3","9.15","222.3","1000.58","17.39","39.91","390.7","0.0"],
    [1505968,"2026-02-06 15:00:00","52465","5.322","212.5","8.53","204.0","1000.624","17.56","37.94","484.9","0.0"],
    [1505969,"2026-02-06 15:10:00","52466","5.776","217.9","8.85","225.0","1000.626","17.51","37.34","362.9","0.0"],
    [1505970,"2026-02-06 15:20:00","52467","4.622","216.1","8.23","228.6","1000.762","17.31","39.87","327.8","0.0"],
    [1505971,"2026-02-06 15:30:00","52468","4.407","219.5","7.415","229.1","1000.837","17.0","41.33","128.6","0.0"],
    [1505972,"2026-02-06 15:40:00","52469","4.828","221.4","8.82","219.5","1000.93","17.0","41.4","118.8","0.0"],
    [1505973,"2026-02-06 15:50:00","52470","4.747","213.4","8.1","184.1","1001.157","16.67","44.67","121.2","0.0"],
    [1505974,"2026-02-06 16:00:00","52471","3.8510000000000004","212.4","6.697","235.0","1001.257","16.05","53.62","204.1","0.0"],
    [1505975,"2026-02-06 16:10:00","52472","4.83","210.0","8.13","209.2","1001.263","15.91","56.13","161.4","0.0"],
    [1505976,"2026-02-06 16:20:00","52473","5.095","206.8","6.827000000000001","217.4","1001.206","15.38","63.52","129.2","0.0"],
    [1505977,"2026-02-06 16:30:00","52474","2.716","221.6","5.292000000000001","222.1","1001.204","15.13","69.67","104.7","0.0"],
    [1505978,"2026-02-06 16:40:00","52475","2.52","223.2","4.573","215.1","1001.236","15.09","69.63","64.81","0.0"],
    [1505979,"2026-02-06 16:50:00","52476","2.198","225.1","4.737","239.5","1001.218","15.09","68.23","24.6","0.0"],
    [1505980,"2026-02-06 17:00:00","52477","1.656","234.9","3.495","255.7","1001.201","14.96","67.84","13.44","0.0"],
    [1505981,"2026-02-06 17:10:00","52478","1.702","231.1","3.103","206.3","1001.202","14.87","67.54","6.206","0.0"],
    [1505982,"2026-02-06 17:20:00","52479","1.4769999999999999","250.1","3.071","269.1","1001.35","14.77","66.75","1.149","0.0"],
    [1505983,"2026-02-06 17:30:00","52480","1.761","241.5","2.9730000000000003","255.1","1001.364","14.65","66.26","0.0","0.0"],
    [1505984,"2026-02-06 17:40:00","52481","1.636","256.9","3.201","230.6","1001.382","14.63","64.95","0.0","0.0"],
    [1505985,"2026-02-06 17:50:00","52482","1.749","260.2","2.548","259.0","1001.396","14.41","65.46","0.0","0.0"],
    [1505986,"2026-02-06 18:00:00","52483","1.662","264.2","2.613","283.5","1001.388","14.32","65.25","0.0","0.0"],
    [1505987,"2026-02-06 18:10:00","52484","1.307","263.3","2.221","266.7","1001.365","14.41","64.42","0.0","0.0"],
    [1505988,"2026-02-06 18:20:00","52485","0.9620000000000001","243.1","1.633","242.3","1001.486","14.52","62.81","0.0","0.0"],
    [1505989,"2026-02-06 18:30:00","52486","0.9329999999999999","243.0","1.699","258.8","1001.595","14.56","60.9","0.0","0.0"],
    [1505990,"2026-02-06 18:40:00","52487","1.273","232.0","2.6460000000000004","216.2","1001.501","14.65","58.89","0.0","0.0"],
    [1505991,"2026-02-06 18:50:00","52488","3.112","212.5","5.749","199.6","1001.534","14.37","60.7","0.0","0.0"],
    [1505992,"2026-02-06 19:00:00","52489","2.238","221.8","3.6910000000000003","225.1","1001.687","14.62","57.44","0.0","0.0"],
    [1505993,"2026-02-06 19:10:00","52490","1.838","235.2","2.45","230.8","1001.728","14.46","59.84","0.0","0.0"],
    [1505994,"2026-02-06 19:20:00","52491","1.618","239.1","2.8089999999999997","238.5","1001.748","14.21","62.14","0.0","0.0"],
    [1505995,"2026-02-06 19:30:00","52492","1.588","236.7","2.907","260.4","1001.657","13.97","64.87","0.0","0.0"],
    [1505996,"2026-02-06 19:40:00","52493","2.026","217.9","3.1689999999999996","214.5","1001.557","13.95","67.55","0.0","0.0"],
    [1505997,"2026-02-06 19:50:00","52494","1.094","251.9","1.993","219.7","1001.444","13.8","69.21","0.0","0.0"],
    [1505998,"2026-02-06 20:00:00","52495","1.569","262.1","2.0909999999999997","267.0","1001.349","13.64","69.39","0.0","0.0"],
    [1505999,"2026-02-06 20:10:00","52496","1.4669999999999999","242.6","2.352","221.2","1001.342","13.62","69.93","0.0","0.0"],
    [1506000,"2026-02-06 20:20:00","52497","1.204","247.3","2.123","254.8","1001.391","13.61","70.62","0.0","0.0"],
    [1506001,"2026-02-06 20:30:00","52498","1.4340000000000002","230.5","2.8089999999999997","226.9","1001.446","13.52","71.75","0.0","0.0"],
    [1506002,"2026-02-06 20:40:00","52499","1.818","230.1","2.679","229.4","1001.488","13.7","72.68","0.0","0.0"],
    [1506003,"2026-02-06 20:50:00","52500","1.8659999999999999","224.6","2.7439999999999998","214.4","1001.503","13.7","72.79","0.0","0.0"],
    [1506004,"2026-02-06 21:00:00","52501","1.4569999999999999","266.6","2.0580000000000003","263.3","1001.484","13.39","73.47","0.0","0.0"],
    [1506005,"2026-02-06 21:10:00","52502","1.8459999999999999","265.8","2.515","272.7","1001.435","12.69","73.97","0.0","0.0"],
    [1506006,"2026-02-06 21:20:00","52503","1.685","278.8","2.156","275.0","1001.363","12.52","72.93","0.0","0.0"],
    [1506007,"2026-02-06 21:30:00","52504","1.195","296.0","1.797","300.1","1001.276","12.71","69.53","0.0","0.0"],
    [1506008,"2026-02-06 21:40:00","52505","1.6380000000000001","311.8","3.0380000000000003","302.6","1001.257","13.06","65.56","0.0","0.0"],
    [1506009,"2026-02-06 21:50:00","52506","1.5519999999999998","296.1","2.679","281.9","1001.151","13.7","59.02","0.0","0.0"],
    [1506010,"2026-02-06 22:00:00","52507","1.208","295.4","2.254","278.2","1001.062","13.93","55.35","0.0","0.0"],
    [1506011,"2026-02-06 22:10:00","52508","0.9840000000000001","283.5","2.0909999999999997","307.1","1001.11","14.03","53.46","0.0","0.0"],
    [1506012,"2026-02-06 22:20:00","52509","2.653","208.1","4.867","195.4","1001.298","13.8","56.16","0.0","0.0"],
    [1506013,"2026-02-06 22:30:00","52510","3.009","204.3","4.933","190.8","1001.498","12.94","65.29","0.0","0.0"],
    [1506014,"2026-02-06 22:40:00","52511","1.374","224.0","2.515","225.1","1001.549","13.21","60.05","0.0","0.0"],
    [1506015,"2026-02-06 22:50:00","52512","1.758","213.8","2.8089999999999997","221.1","1001.597","13.03","59.0","0.0","0.0"],
    [1506016,"2026-02-06 23:00:00","52513","2.373","233.9","3.659","220.6","1001.661","12.53","59.64","0.0","0.0"],
    [1506017,"2026-02-06 23:10:00","52514","2.309","259.9","4.345","250.7","1001.593","11.93","62.47","0.0","0.0"],
    [1506018,"2026-02-06 23:20:00","52515","2.471","263.8","4.181","251.8","1001.618","12.23","61.23","0.0","0.0"],
    [1506019,"2026-02-06 23:30:00","52516","2.582","271.4","5.063","272.8","1001.638","12.52","59.56","0.0","0.0"],
    [1506020,"2026-02-06 23:40:00","52517","2.5","272.2","3.7889999999999997","265.3","1001.612","12.79","57.44","0.0","0.0"],
    [1506021,"2026-02-06 23:50:00","52518","1.921","256.8","3.5610000000000004","263.9","1001.656","12.91","56.7","0.0","0.0"],
    [1506022,"2026-02-07 00:00:00","52519","2.282","261.5","4.606","291.7","1001.771","12.88","56.69","0.0","0.0"],
    [1506023,"2026-02-07 00:10:00","52520","4.268","287.0","6.207000000000001","300.0","1001.75","13.15","55.9","0.0","0.0"],
    [1506024,"2026-02-07 00:20:00","52521","3.61","288.5","6.141","287.6","1001.756","13.05","56.18","0.0","0.0"],
    [1506025,"2026-02-07 00:30:00","52522","3.827","281.4","6.141","281.8","1001.721","12.82","57.12","0.0","0.0"],
    [1506026,"2026-02-07 00:40:00","52523","3.138","272.4","4.965","290.0","1001.751","12.64","57.89","0.0","0.0"],
    [1506027,"2026-02-07 00:50:00","52524","2.2969999999999997","246.7","4.671","249.3","1001.87","12.47","58.49","0.0","0.0"],
    [1506028,"2026-02-07 01:00:00","52525","3.053","256.3","5.749","278.4","1001.975","12.36","58.77","0.0","0.0"],
    [1506029,"2026-02-07 01:10:00","52526","3.08","259.6","5.292000000000001","276.6","1002.097","12.24","59.31","0.0","0.0"],
    [1506030,"2026-02-07 01:20:00","52527","3.31","233.0","5.1610000000000005","211.2","1002.18","12.29","59.09","0.0","0.0"],
    [1506031,"2026-02-07 01:30:00","52528","3.509","230.4","6.042999999999999","229.5","1002.207","12.1","59.4","0.0","0.0"],
    [1506032,"2026-02-07 01:40:00","52529","4.277","232.0","7.023","239.8","1002.237","12.18","58.8","0.0","0.0"],
    [1506033,"2026-02-07 01:50:00","52530","3.7969999999999997","226.0","6.729","223.6","1002.518","12.16","58.86","0.0","0.0"],
    [1506034,"2026-02-07 02:00:00","52531","3.562","213.9","5.684","221.6","1002.799","12.1","59.0","0.0","0.0"],
    [1506035,"2026-02-07 02:10:00","52532","3.627","215.4","5.815","200.7","1002.825","11.98","59.31","0.0","0.0"],
    [1506036,"2026-02-07 02:20:00","52533","2.8310000000000004","200.5","4.181","192.9","1002.914","11.85","60.45","0.0","0.0"],
    [1506037,"2026-02-07 02:30:00","52534","2.661","224.3","5.4879999999999995","218.1","1002.948","11.85","60.48","0.0","0.0"],
    [1506038,"2026-02-07 02:40:00","52535","2.233","255.1","4.1160000000000005","269.4","1002.907","11.69","60.35","0.0","0.0"],
    [1506039,"2026-02-07 02:50:00","52536","2.009","218.7","3.7239999999999998","239.8","1003.014","11.59","60.97","0.0","0.0"],
    [1506040,"2026-02-07 03:00:00","52537","1.916","193.0","3.201","189.2","1003.083","11.55","61.86","0.0","0.0"],
    [1506041,"2026-02-07 03:10:00","52538","2.191","198.7","3.9530000000000003","204.8","1003.209","11.41","62.98","0.0","0.0"],
    [1506042,"2026-02-07 03:20:00","52539","1.892","244.3","4.573","260.0","1003.204","11.37","62.23","0.0","0.0"],
    [1506043,"2026-02-07 03:30:00","52540","1.182","244.6","2.287","257.0","1003.127","11.31","62.21","0.0","0.0"],
    [1506044,"2026-02-07 03:40:00","52541","1.069","266.1","3.267","267.1","1003.129","11.2","62.45","0.0","0.0"],
    [1506045,"2026-02-07 03:50:00","52542","1.307","206.2","2.417","211.0","1003.272","11.21","62.6","0.0","0.0"],
    [1506046,"2026-02-07 04:00:00","52543","1.3259999999999998","225.0","2.385","217.6","1003.44","11.3","61.99","0.0","0.0"],
    [1506047,"2026-02-07 04:10:00","52544","1.6840000000000002","193.5","2.7769999999999997","198.7","1003.593","11.35","62.49","0.0","0.0"],
    [1506048,"2026-02-07 04:20:00","52545","2.516","201.4","3.397","185.6","1003.679","11.2","63.87","0.0","0.0"],
    [1506049,"2026-02-07 04:30:00","52546","1.341","247.5","1.993","219.4","1003.627","11.06","63.49","0.0","0.0"],
    [1506050,"2026-02-07 04:40:00","52547","1.2","241.2","1.96","222.3","1003.672","10.96","63.56","0.0","0.0"],
    [1506051,"2026-02-07 04:50:00","52548","2.0709999999999997","253.1","4.247","265.3","1003.73","11.21","62.95","0.0","0.0"],
    [1506052,"2026-02-07 05:00:00","52549","1.972","249.5","4.933","273.1","1003.683","11.33","61.82","0.0","0.0"],
    [1506053,"2026-02-07 05:10:00","52550","1.8869999999999998","253.4","3.9530000000000003","251.6","1003.575","11.28","61.59","0.0","0.0"],
    [1506054,"2026-02-07 05:20:00","52551","2.434","254.6","4.737","263.5","1003.634","11.42","60.34","0.0","0.0"],
    [1506055,"2026-02-07 05:30:00","52552","3.665","232.2","5.945","255.5","1003.643","12.07","55.75","0.0","0.0"],
    [1506056,"2026-02-07 05:40:00","52553","3.2","245.3","5.455","222.2","1003.629","12.24","52.31","0.0","0.0"],
    [1506057,"2026-02-07 05:50:00","52554","3.397","259.7","6.239","262.8","1003.543","12.12","51.23","0.0","0.0"],
    [1506058,"2026-02-07 06:00:00","52555","3.7910000000000004","268.2","6.893","287.3","1003.73","12.09","50.87","0.0","0.0"],
    [1506059,"2026-02-07 06:10:00","52556","3.0980000000000003","272.2","4.508","276.6","1004","12.05","50.49","0.0","0.0"],
    [1506060,"2026-02-07 06:20:00","52557","3.227","248.0","6.599","224.8","1004.106","12.11","49.86","0.0","0.0"],
    [1506061,"2026-02-07 06:30:00","52558","2.609","251.3","5.39","281.8","1004.16","12.22","49.12","0.0","0.0"],
    [1506062,"2026-02-07 06:40:00","52559","1.868","255.1","4.345","254.1","1004.168","11.78","50.58","0.0","0.0"],
    [1506063,"2026-02-07 06:50:00","52560","2.501","242.6","3.822","256.9","1004.217","11.8","51.03","1.136","0.0"],
    [1506064,"2026-02-07 07:00:00","52561","2.7060000000000004","242.0","4.671","223.1","1004.237","11.8","51.01","7.996","0.0"],
    [1506065,"2026-02-07 07:10:00","52562","2.7489999999999997","257.0","5.325","265.2","1004.239","11.74","51.68","15.26","0.0"],
    [1506066,"2026-02-07 07:20:00","52563","4.409","277.3","7.971","283.6","1004.186","11.76","51.82","26.94","0.0"],
    [1506067,"2026-02-07 07:30:00","52564","5.4079999999999995","292.1","7.938","283.8","1004.22","12.09","49.9","25.9","0.0"],
    [1506068,"2026-02-07 07:40:00","52565","3.589","292.3","5.325","292.4","1004.401","12.05","49.7","33.83","0.0"],
    [1506069,"2026-02-07 07:50:00","52566","4.05","289.4","7.056","281.9","1004.611","12.01","49.71","63.75","0.0"],
    [1506070,"2026-02-07 08:00:00","52567","4.342","288.9","6.272","282.2","1004.83","12.02","49.25","78.32","0.0"],
    [1506071,"2026-02-07 08:10:00","52568","4.018","289.8","7.056","282.5","1004.924","12.05","49.08","147.5","0.0"],
    [1506072,"2026-02-07 08:20:00","52569","3.113","282.3","5.586","285.7","1005.118","12.1","49.01","197.3","0.0"],
    [1506073,"2026-02-07 08:30:00","52570","4.777","287.0","8.69","284.8","1005.136","12.24","47.38","232.5","0.0"],
    [1506074,"2026-02-07 08:40:00","52571","4.9639999999999995","282.5","7.742000000000001","283.5","1005.171","12.38","46.27","259.0","0.0"],
    [1506075,"2026-02-07 08:50:00","52572","4.535","279.6","7.023","282.2","1005.342","12.46","45.87","275.9","0.0"],
    [1506076,"2026-02-07 09:00:00","52573","5.204","279.1","7.611000000000001","274.1","1005.46","12.53","45.16","309.7","0.0"],
    [1506077,"2026-02-07 09:10:00","52574","4.191","272.6","6.925","293.9","1005.659","12.76","44.97","337.9","0.0"],
    [1506078,"2026-02-07 09:20:00","52575","5.626","276.0","8.69","273.2","1005.757","12.93","43.7","365.9","0.0"],
    [1506079,"2026-02-07 09:30:00","52576","5.135","284.2","7.481","293.0","1005.992","12.97","43.37","390.9","0.0"],
    [1506080,"2026-02-07 09:40:00","52577","5.813","285.8","8.82","285.8","1006.22","13.02","43.33","415.5","0.0"],
    [1506081,"2026-02-07 09:50:00","52578","4.262","267.8","6.925","256.2","1006.436","13.2","42.93","438.8","0.0"],
    [1506082,"2026-02-07 10:00:00","52579","4.567","284.0","7.807","287.8","1006.583","13.44","42.2","460.2","0.0"],
    [1506083,"2026-02-07 10:10:00","52580","4.797","284.8","6.631","288.9","1006.71","13.53","41.56","481.5","0.0"],
    [1506084,"2026-02-07 10:20:00","52581","3.955","282.4","6.7620000000000005","284.0","1006.832","13.96","40.34","500.9","0.0"],
    [1506085,"2026-02-07 10:30:00","52582","5.233","288.3","7.807","270.1","1006.952","14.02","39.73","522.3","0.0"],
    [1506086,"2026-02-07 10:40:00","52583","4.441","278.7","8.36","271.4","1007.086","14.09","39.61","557.8","0.0"],
    [1506087,"2026-02-07 10:50:00","52584","5.1339999999999995","280.3","8.46","273.2","1007.204","14.25","39.4","612.6","0.0"],
    [1506088,"2026-02-07 11:00:00","52585","7.26","282.7","11.4","279.3","1007.127","14.05","38.65","437.7","0.0"],
    [1506089,"2026-02-07 11:10:00","52586","5.476","279.9","9.24","277.4","1007.282","14.06","38.92","453.6","0.0"],
    [1506090,"2026-02-07 11:20:00","52587","6.202000000000001","284.1","10.88","278.2","1007.272","14.03","38.9","606.6","0.0"],
    [1506091,"2026-02-07 11:30:00","52588","6.279","284.0","9.6","278.7","1007.18","13.96","38.99","594.5","0.0"],
    [1506092,"2026-02-07 11:40:00","52589","5.361000000000001","299.8","8.75","304.0","1007.1","14.09","39.06","594.9","0.0"],
    [1506093,"2026-02-07 11:50:00","52590","3.763","282.8","8.04","304.6","1007.269","14.5","38.59","596.5","0.0"],
    [1506094,"2026-02-07 12:00:00","52591","5.2010000000000005","270.0","10.13","282.6","1007.313","14.83","37.2","600.8","0.0"],
    [1506095,"2026-02-07 12:10:00","52592","7.216","281.0","12.09","286.1","1007.249","14.69","36.2","602.5","0.0"],
    [1506096,"2026-02-07 12:20:00","52593","7.197","286.0","11.43","279.2","1007.102","14.64","35.98","600.4","0.0"],
    [1506097,"2026-02-07 12:30:00","52594","5.252999999999999","283.1","9.96","295.8","1007.116","14.75","36.56","597.3","0.0"],
    [1506098,"2026-02-07 12:40:00","52595","5.577999999999999","273.9","10.0","274.7","1006.955","14.91","36.04","591.7","0.0"],
    [1506099,"2026-02-07 12:50:00","52596","6.239","278.8","10.52","275.5","1006.762","14.91","36.22","585.7","0.0"],
    [1506100,"2026-02-07 13:00:00","52597","5.555","270.0","10.36","249.1","1006.745","14.96","36.13","578.7","0.0"],
    [1506101,"2026-02-07 13:10:00","52598","7.142","283.8","11.2","279.9","1006.562","14.8","36.3","572.2","0.0"],
    [1506102,"2026-02-07 13:20:00","52599","7.3420000000000005","282.8","12.38","262.4","1006.492","14.82","36.28","560.2","0.0"],
    [1506103,"2026-02-07 13:30:00","52600","6.952999999999999","287.5","10.55","286.2","1006.436","14.89","36.51","547.1","0.0"],
    [1506104,"2026-02-07 13:40:00","52601","6.789","284.3","11.14","284.1","1006.456","14.9","36.68","533.4","0.0"],
    [1506105,"2026-02-07 13:50:00","52602","7.149","291.4","12.51","282.5","1006.535","14.96","36.41","518.8","0.0"],
    [1506106,"2026-02-07 14:00:00","52603","5.564","286.4","9.6","290.4","1006.563","15.05","36.59","503.6","0.0"],
    [1506107,"2026-02-07 14:10:00","52604","6.0729999999999995","282.1","10.62","272.7","1006.612","15.3","36.07","491.2","0.0"],
    [1506108,"2026-02-07 14:20:00","52605","6.915","287.0","10.58","284.9","1006.464","15.2","35.81","466.2","0.0"],
    [1506109,"2026-02-07 14:30:00","52606","6.662000000000001","291.5","10.81","289.6","1006.458","15.15","34.8","440.8","0.0"],
    [1506110,"2026-02-07 14:40:00","52607","6.176","286.7","10.03","294.5","1006.463","15.23","35.1","417.3","0.0"],
    [1506111,"2026-02-07 14:50:00","52608","4.435","279.8","8.2","277.1","1006.546","15.6","35.76","392.8","0.0"],
    [1506112,"2026-02-07 15:00:00","52609","4.602","271.7","8.98","255.2","1006.641","15.54","35.87","338.2","0.0"],
    [1506113,"2026-02-07 15:10:00","52610","5.888999999999999","279.9","10.03","281.5","1006.781","15.36","36.31","270.8","0.0"],
    [1506114,"2026-02-07 15:20:00","52611","4.031000000000001","251.1","6.795","226.8","1006.759","15.51","36.44","319.1","0.0"],
    [1506115,"2026-02-07 15:30:00","52612","3.342","261.6","7.6770000000000005","269.5","1006.676","15.67","37.42","289.0","0.0"],
    [1506116,"2026-02-07 15:40:00","52613","4.165","266.9","8.66","284.3","1006.878","15.73","36.68","245.1","0.0"],
    [1506117,"2026-02-07 15:50:00","52614","3.695","243.4","7.513","260.1","1007.045","15.55","37.23","174.3","0.0"],
    [1506118,"2026-02-07 16:00:00","52615","4.238","236.7","8.36","225.5","1007.088","15.55","36.12","133.3","0.0"],
    [1506119,"2026-02-07 16:10:00","52616","4.527","225.9","8.92","207.8","1006.99","15.04","41.88","87.0","0.0"],
    [1506120,"2026-02-07 16:20:00","52617","4.606","231.3","7.382999999999999","253.3","1006.86","14.64","46.03","55.83","0.0"],
    [1506121,"2026-02-07 16:30:00","52618","4.618","223.8","8.66","223.9","1007.136","14.14","50.01","44.4","0.0"],
    [1506122,"2026-02-07 16:40:00","52619","5.087","217.5","8.75","223.2","1007.179","13.83","56.23","33.81","0.0"],
    [1506123,"2026-02-07 16:50:00","52620","5.132000000000001","218.9","7.971","226.2","1007.224","13.67","59.68","25.0","0.0"],
    [1506124,"2026-02-07 17:00:00","52621","3.6719999999999997","230.0","6.109","269.6","1007.07","13.58","59.95","15.65","0.0"],
    [1506125,"2026-02-07 17:10:00","52622","3.6689999999999996","229.0","6.599","226.2","1006.984","13.49","61.25","5.627000000000001","0.0"],
    [1506126,"2026-02-07 17:20:00","52623","3.634","222.9","6.305","214.2","1007.102","13.42","62.97","0.82","0.0"],
    [1506127,"2026-02-07 17:30:00","52624","3.912","233.2","5.88","228.3","1007.061","13.31","63.38","0.0","0.0"],
    [1506128,"2026-02-07 17:40:00","52625","4.383","231.6","6.957999999999999","217.4","1006.897","13.3","61.28","0.0","0.0"],
    [1506129,"2026-02-07 17:50:00","52626","3.2910000000000004","229.2","5.782","214.0","1006.961","13.32","59.41","0.0","0.0"],
    [1506130,"2026-02-07 18:00:00","52627","3.127","223.5","5.357","197.5","1007.122","13.3","58.8","0.0","0.0"],
    [1506131,"2026-02-07 18:10:00","52628","3.028","235.3","5.782","257.8","1006.943","13.29","57.71","0.0","0.0"],
    [1506132,"2026-02-07 18:20:00","52629","2.441","232.8","4.377","258.4","1007.079","13.26","57.28","0.0","0.0"],
    [1506133,"2026-02-07 18:30:00","52630","3.011","236.6","4.998","250.1","1007.174","13.24","57.36","0.0","0.0"],
    [1506134,"2026-02-07 18:40:00","52631","2.45","235.8","3.855","222.0","1007.045","13.18","57.8","0.0","0.0"],
    [1506135,"2026-02-07 18:50:00","52632","1.954","235.5","3.234","234.1","1007.084","13.11","57.85","0.0","0.0"],
    [1506136,"2026-02-07 19:00:00","52633","2.367","237.9","3.822","255.1","1007.088","12.99","58.34","0.0","0.0"],
    [1506137,"2026-02-07 19:10:00","52634","1.7590000000000001","251.7","3.103","247.8","1006.938","12.85","58.67","0.0","0.0"],
    [1506138,"2026-02-07 19:20:00","52635","1.675","269.5","3.1689999999999996","289.5","1006.964","12.68","59.06","0.0","0.0"],
    [1506139,"2026-02-07 19:30:00","52636","1.359","283.0","2.417","295.8","1006.941","12.73","58.57","0.0","0.0"],
    [1506140,"2026-02-07 19:40:00","52637","1.306","265.7","1.8619999999999999","266.3","1006.787","12.68","57.64","0.0","0.0"],
    [1506141,"2026-02-07 19:50:00","52638","1.405","259.9","2.221","265.3","1006.806","12.7","56.77","0.0","0.0"],
    [1506142,"2026-02-07 20:00:00","52639","0.8759999999999999","267.4","1.274","260.0","1006.664","12.69","56.1","0.0","0.0"],
    [1506143,"2026-02-07 20:10:00","52640","0.8270000000000001","252.4","1.4369999999999998","256.2","1006.551","12.7","56.06","0.0","0.0"],
    [1506144,"2026-02-07 20:20:00","52641","0.325","248.9","1.078","252.4","1006.464","12.76","55.6","0.0","0.0"],
    [1506145,"2026-02-07 20:30:00","52642","0.585","254.7","1.045","261.0","1006.464","12.82","54.86","0.0","0.0"],
    [1506146,"2026-02-07 20:40:00","52643","0.086","239.4","0.6859999999999999","249.9","1006.392","12.86","54.46","0.0","0.0"],
    [1506147,"2026-02-07 20:50:00","52644","0.0","0.0","0.0","0.0","1006.434","12.89","55.5","0.0","0.0"],
    [1506148,"2026-02-07 21:00:00","52645","0.976","168.6","1.405","183.5","1006.192","12.92","58.73","0.0","0.0"],
    [1506149,"2026-02-07 21:10:00","52646","0.97","181.2","1.47","175.1","1006.173","12.84","63.53","0.0","0.0"],
    [1506150,"2026-02-07 21:20:00","52647","0.628","195.1","0.9470000000000001","193.2","1006.249","12.64","64.26","0.0","0.0"],
    [1506151,"2026-02-07 21:30:00","52648","0.451","222.7","0.882","222.9","1006.184","12.57","64.23","0.0","0.0"],
    [1506152,"2026-02-07 21:40:00","52649","0.36","329.6","1.143","343.9","1006.023","12.53","61.91","0.0","0.0"],
    [1506153,"2026-02-07 21:50:00","52650","0.489","333.7","1.143","343.1","1006.026","12.62","61.35","0.0","0.0"],
    [1506154,"2026-02-07 22:00:00","52651","0.0","0.0","0.0","0.0","1006.025","12.69","60.81","0.0","0.0"],
    [1506155,"2026-02-07 22:10:00","52652","0.0","0.0","0.0","0.0","1005.857","12.75","62.25","0.0","0.0"],
    [1506156,"2026-02-07 22:20:00","52653","0.33399999999999996","249.8","1.078","231.8","1005.693","12.7","62.29","0.0","0.0"],
    [1506157,"2026-02-07 22:30:00","52654","0.76","246.3","1.699","234.8","1005.647","12.76","61.78","0.0","0.0"],
    [1506158,"2026-02-07 22:40:00","52655","0.8640000000000001","225.2","2.352","220.7","1005.539","12.91","62.95","0.0","0.0"],
    [1506159,"2026-02-07 22:50:00","52656","0.595","237.8","1.96","213.5","1005.448","12.9","63.5","0.0","0.0"],
    [1506160,"2026-02-07 23:00:00","52657","0.97","244.8","1.9269999999999998","256.2","1005.341","12.86","64.03","0.0","0.0"],
    [1506161,"2026-02-07 23:10:00","52658","1.357","236.8","2.417","242.8","1005.266","12.81","65.45","0.0","0.0"],
    [1506162,"2026-02-07 23:20:00","52659","1.33","243.2","2.7110000000000003","269.3","1005.054","12.74","67.19","0.0","0.0"],
    [1506163,"2026-02-07 23:30:00","52660","1.176","248.9","2.025","261.3","1004.864","12.65","69.23","0.0","0.0"],
    [1506164,"2026-02-07 23:40:00","52661","1.421","265.8","2.385","275.5","1004.724","12.37","70.64","0.0","0.0"],
    [1506165,"2026-02-07 23:50:00","52662","1.4180000000000001","277.9","2.221","277.0","1004.391","12.29","70.97","0.0","0.0"],
    [1506166,"2026-02-08 00:00:00","52663","1.206","282.4","1.666","282.9","1004.101","12.3","71.37","0.0","0.0"],
    [1506167,"2026-02-08 00:10:00","52664","1.5919999999999999","292.7","2.385","297.9","1003.796","12.32","71.32","0.0","0.0"],
    [1506168,"2026-02-08 00:20:00","52665","0.935","231.6","1.8619999999999999","275.4","1003.628","12.33","71.12","0.0","0.0"],
    [1506169,"2026-02-08 00:30:00","52666","1.052","273.6","1.829","261.0","1003.406","12.3","70.91","0.0","0.0"],
    [1506170,"2026-02-08 00:40:00","52667","0.7090000000000001","302.9","1.078","314.1","1003.018","12.3","71.14","0.0","0.0"],
    [1506171,"2026-02-08 00:50:00","52668","0.899","281.1","1.4369999999999998","292.2","1002.925","12.33","71.59","0.0","0.0"],
    [1506172,"2026-02-08 01:00:00","52669","1.078","256.2","1.829","248.2","1002.915","12.31","71.88","0.0","0.1"],
    [1506173,"2026-02-08 01:10:00","52670","0.22699999999999998","208.7","1.045","219.5","1002.734","12.23","73.56","0.0","0.5"],
    [1506174,"2026-02-08 01:20:00","52671","1.629","170.0","2.548","166.4","1002.561","11.94","75.64","0.0","0.7"],
    [1506175,"2026-02-08 01:30:00","52672","2.548","150.5","3.267","143.3","1002.418","11.42","80.7","0.239","0.1"],
    [1506176,"2026-02-08 01:40:00","52673","2.0540000000000003","146.9","3.822","143.7","1002.034","11.18","87.0","0.037000000000000005","0.1"],
    [1506177,"2026-02-08 01:50:00","52674","1.361","167.8","2.287","209.3","1002.142","11.1","89.9","0.0","0.0"],
    [1506178,"2026-02-08 02:00:00","52675","2.7110000000000003","128.9","3.7889999999999997","126.5","1002.07","11.07","91.4","0.022000000000000002","0.0"],
    [1506179,"2026-02-08 02:10:00","52676","2.189","95.4","3.005","90.1","1001.8","11.09","93.6","0.0","0.0"],
    [1506180,"2026-02-08 02:20:00","52677","2.9560000000000004","65.41","3.659","59.6","1001.379","10.9","95.6","0.0","0.0"],
    [1506181,"2026-02-08 02:30:00","52678","2.287","28.08","4.018","9.37","1001.572","10.84","96.7","0.006999999999999999","0.0"],
    [1506182,"2026-02-08 02:40:00","52679","2.365","352.7","3.299","5.63","1001.74","10.73","96.0","1.064","0.0"],
    [1506183,"2026-02-08 02:50:00","52680","1.506","350.7","2.483","359.3","1001.458","10.56","92.9","1.13","0.0"],
    [1506184,"2026-02-08 03:00:00","52681","1.2990000000000002","332.6","1.829","334.1","1001.242","10.74","90.4","0.499","0.0"],
    [1506185,"2026-02-08 03:10:00","52682","1.103","356.7","2.254","337.0","1000.955","10.84","88.1","0.5479999999999999","0.0"],
    [1506186,"2026-02-08 03:20:00","52683","0.45899999999999996","274.2","1.339","261.9","1000.82","10.79","86.9","0.0","0.0"],
    [1506187,"2026-02-08 03:30:00","52684","1.3719999999999999","281.2","1.9269999999999998","261.3","1000.575","10.66","86.0","0.6970000000000001","0.0"],
    [1506188,"2026-02-08 03:40:00","52685","1.072","319.6","1.633","326.1","1000.436","10.99","84.9","1.2209999999999999","0.0"],
    [1506189,"2026-02-08 03:50:00","52686","1.935","263.7","3.005","260.6","1000.476","10.65","84.3","0.7290000000000001","0.0"],
    [1506190,"2026-02-08 04:00:00","52687","1.486","253.3","2.548","261.3","1000.536","10.16","87.6","0.006","0.0"],
    [1506191,"2026-02-08 04:10:00","52688","2.168","255.3","3.495","250.6","1000.51","9.87","89.8","0.45399999999999996","0.0"],
    [1506192,"2026-02-08 04:20:00","52689","1.814","257.5","2.9730000000000003","256.4","1000.505","9.63","91.1","0.517","0.0"],
    [1506193,"2026-02-08 04:30:00","52690","2.0980000000000003","260.6","2.9730000000000003","267.3","1000.414","9.43","91.7","0.784","0.0"],
    [1506194,"2026-02-08 04:40:00","52691","2.089","264.0","3.103","259.1","1000.379","9.36","92.1","0.075","0.0"],
    [1506195,"2026-02-08 04:50:00","52692","2.217","279.2","2.7769999999999997","290.2","1000.425","9.39","92.4","0.5529999999999999","0.0"],
    [1506196,"2026-02-08 05:00:00","52693","1.777","259.7","2.6460000000000004","263.4","1000.602","9.48","92.4","1.2670000000000001","0.0"],
    [1506197,"2026-02-08 05:10:00","52694","1.249","268.2","2.123","255.9","1000.576","9.51","92.3","0.72","0.0"],
    [1506198,"2026-02-08 05:20:00","52695","1.673","268.2","2.352","263.9","1000.505","9.42","92.2","0.0","0.0"],
    [1506199,"2026-02-08 05:30:00","52696","1.814","260.3","2.515","261.7","1000.299","9.41","92.1","0.23800000000000002","0.0"],
    [1506200,"2026-02-08 05:40:00","52697","1.828","261.8","2.417","266.7","1000.268","9.37","91.9","0.415","0.0"],
    [1506201,"2026-02-08 05:50:00","52698","1.578","248.1","3.005","254.4","1000.28","9.4","91.6","0.456","0.0"],
    [1506202,"2026-02-08 06:00:00","52699","1.661","256.9","2.9730000000000003","257.6","1000.282","9.27","90.7","0.0","0.0"],
    [1506203,"2026-02-08 06:10:00","52700","1.494","244.3","2.319","260.5","1000.41","9.21","90.1","0.0","0.0"],
    [1506204,"2026-02-08 06:20:00","52701","0.9670000000000001","234.4","1.829","218.6","1000.411","9.25","89.1","0.0","0.0"],
    [1506205,"2026-02-08 06:30:00","52702","1.18","239.5","2.0909999999999997","224.5","1000.452","9.35","87.9","0.0","0.0"],
    [1506206,"2026-02-08 06:40:00","52703","1.495","239.7","2.483","267.0","1000.437","9.33","86.4","0.034","0.0"],
    [1506207,"2026-02-08 06:50:00","52704","1.5190000000000001","259.2","2.5810000000000004","267.8","1000.416","9.21","84.9","0.772","0.0"],
    [1506208,"2026-02-08 07:00:00","52705","1.321","255.5","2.8089999999999997","255.8","1000.449","9.21","84.7","3.093","0.0"],
    [1506209,"2026-02-08 07:10:00","52706","2.637","271.1","3.9530000000000003","274.6","1000.513","9.14","84.3","9.93","0.0"],
    [1506210,"2026-02-08 07:20:00","52707","2.135","260.3","3.6260000000000003","288.9","1000.506","9.41","83.6","16.91","0.0"],
    [1506211,"2026-02-08 07:30:00","52708","1.445","233.4","2.483","214.2","1000.618","9.73","82.6","23.01","0.0"],
    [1506212,"2026-02-08 07:40:00","52709","1.594","232.8","2.45","236.6","1000.592","9.94","81.1","75.95","0.0"],
    [1506213,"2026-02-08 07:50:00","52710","1.916","229.9","3.397","228.0","1000.633","10.12","79.1","95.8","0.0"],
    [1506214,"2026-02-08 08:00:00","52711","2.319","239.9","4.1160000000000005","256.0","1000.673","9.92","78.5","98.0","0.0"],
    [1506215,"2026-02-08 08:10:00","52712","1.744","265.9","3.299","276.4","1000.676","9.65","79.87","93.8","0.0"],
    [1506216,"2026-02-08 08:20:00","52713","2.1830000000000003","287.2","3.43","297.2","1000.838","9.66","81.4","125.1","0.0"],
    [1506217,"2026-02-08 08:30:00","52714","2.003","288.6","3.332","283.4","1000.903","9.77","81.1","138.7","0.0"],
    [1506218,"2026-02-08 08:40:00","52715","2.085","280.2","2.875","279.9","1000.975","10.07","80.4","193.1","0.0"],
    [1506219,"2026-02-08 08:50:00","52716","1.8719999999999999","271.7","2.7769999999999997","278.7","1000.973","10.53","78.43","213.1","0.0"],
    [1506220,"2026-02-08 09:00:00","52717","2.136","256.4","3.299","256.7","1001.061","10.83","76.31","234.3","0.0"],
    [1506221,"2026-02-08 09:10:00","52718","2.318","271.3","3.5610000000000004","272.3","1001.164","11.21","74.91","270.4","0.0"],
    [1506222,"2026-02-08 09:20:00","52719","2.5669999999999997","282.5","4.541","283.4","1001.284","11.05","74.08","291.8","0.0"],
    [1506223,"2026-02-08 09:30:00","52720","2.531","283.7","3.397","277.3","1001.335","10.96","74.22","344.6","0.0"],
    [1506224,"2026-02-08 09:40:00","52721","2.316","279.2","3.299","282.8","1001.426","11.38","73.44","351.9","0.0"],
    [1506225,"2026-02-08 09:50:00","52722","2.415","261.1","4.083","288.3","1001.52","11.76","71.93","388.6","0.0"],
    [1506226,"2026-02-08 10:00:00","52723","2.9589999999999996","265.3","4.933","263.9","1001.607","11.75","70.1","422.4","0.0"],
    [1506227,"2026-02-08 10:10:00","52724","4.051","280.3","5.749","275.1","1001.542","11.82","67.94","442.0","0.0"],
    [1506228,"2026-02-08 10:20:00","52725","3.827","284.3","5.357","287.4","1001.531","12.01","65.56","443.9","0.0"],
    [1506229,"2026-02-08 10:30:00","52726","4.167","284.9","6.468","284.2","1001.536","12.33","63.88","511.9","0.0"],
    [1506230,"2026-02-08 10:40:00","52727","3.887","285.3","6.5329999999999995","284.5","1001.618","12.52","62.85","524.6","0.0"],
    [1506231,"2026-02-08 10:50:00","52728","4.125","284.1","7.35","282.0","1001.659","12.72","62.04","489.7","0.0"],
    [1506232,"2026-02-08 11:00:00","52729","4.136","288.8","6.239","289.3","1001.657","12.88","61.11","470.6","0.0"],
    [1506233,"2026-02-08 11:10:00","52730","4.827","286.1","8.92","304.4","1001.588","12.99","60.59","549.7","0.0"],
    [1506234,"2026-02-08 11:20:00","52731","6.098","286.8","9.8","286.7","1001.376","13.16","59.93","583.4","0.0"],
    [1506235,"2026-02-08 11:30:00","52732","6.206","290.2","9.87","288.1","1001.381","13.32","58.92","586.8","0.0"],
    [1506236,"2026-02-08 11:40:00","52733","5.694","290.8","8.36","304.9","1001.38","13.44","58.87","589.3","0.0"],
    [1506237,"2026-02-08 11:50:00","52734","4.921","283.7","7.742000000000001","287.2","1001.366","13.75","58.93","591.0","0.0"],
    [1506238,"2026-02-08 12:00:00","52735","5.013999999999999","282.1","8.53","276.9","1001.301","13.89","58.12","592.9","0.0"],
    [1506239,"2026-02-08 12:10:00","52736","4.805","293.9","7.481","285.6","1001.396","13.94","57.12","591.3","0.0"],
    [1506240,"2026-02-08 12:20:00","52737","4.446000000000001","290.9","7.285","301.8","1001.464","13.99","57.47","587.8","0.0"],
    [1506241,"2026-02-08 12:30:00","52738","5.212000000000001","278.4","8.17","282.4","1001.475","14.3","56.01","586.6","0.0"],
    [1506242,"2026-02-08 12:40:00","52739","4.548","289.1","7.579","313.5","1001.479","14.48","54.66","582.3","0.0"],
    [1506243,"2026-02-08 12:50:00","52740","4.056","295.8","6.37","307.5","1001.386","14.63","54.59","575.9","0.0"],
    [1506244,"2026-02-08 13:00:00","52741","4.534","285.1","6.566","307.0","1001.331","14.74","53.93","568.6","0.0"],
    [1506245,"2026-02-08 13:10:00","52742","4.228","290.4","6.042999999999999","277.7","1001.311","14.92","52.87","560.0","0.0"],
    [1506246,"2026-02-08 13:20:00","52743","2.966","297.6","5.782","312.1","1001.316","15.16","52.25","546.9","0.0"],
    [1506247,"2026-02-08 13:30:00","52744","3.387","328.4","5.978","329.8","1001.505","15.18","49.15","533.2","0.0"],
    [1506248,"2026-02-08 13:40:00","52745","2.6860000000000004","325.5","4.475","338.0","1001.632","15.44","47.67","518.3","0.0"],
    [1506249,"2026-02-08 13:50:00","52746","2.9019999999999997","320.7","4.704","309.5","1001.61","15.51","47.28","504.6","0.0"],
    [1506250,"2026-02-08 14:00:00","52747","2.112","43.49","4.181","13.71","1001.676","15.61","46.08","488.4","0.0"],
    [1506251,"2026-02-08 14:10:00","52748","2.594","64.72","3.822","70.39","1001.689","15.53","45.74","471.0","0.0"],
    [1506252,"2026-02-08 14:20:00","52749","1.819","62.15","2.7769999999999997","70.7","1001.771","15.62","46.66","451.8","0.0"],
    [1506253,"2026-02-08 14:30:00","52750","1.925","106.9","2.7769999999999997","92.2","1001.885","15.36","47.88","439.4","0.0"],
    [1506254,"2026-02-08 14:40:00","52751","2.043","123.8","2.548","125.2","1001.974","15.26","50.49","420.8","0.0"],
    [1506255,"2026-02-08 14:50:00","52752","2.439","133.7","3.0380000000000003","137.1","1002.025","15.18","50.55","402.8","0.0"],
    [1506256,"2026-02-08 15:00:00","52753","3.089","105.3","4.2139999999999995","115.4","1002.082","15.02","53.18","379.6","0.0"],
    [1506257,"2026-02-08 15:10:00","52754","1.788","45.03","3.7889999999999997","80.1","1002.25","14.79","58.95","334.9","0.0"],
    [1506258,"2026-02-08 15:20:00","52755","2.147","82.4","4.149","77.92","1002.394","14.63","57.55","314.4","0.0"],
    [1506259,"2026-02-08 15:30:00","52756","2.8169999999999997","88.6","3.822","84.7","1002.659","14.55","54.96","301.9","0.0"],
    [1506260,"2026-02-08 15:40:00","52757","2.505","89.6","3.7239999999999998","97.1","1002.914","14.65","54.49","325.7","0.0"],
    [1506261,"2026-02-08 15:50:00","52758","2.33","87.6","3.299","98.3","1003.06","14.61","56.17","199.6","0.0"],
    [1506262,"2026-02-08 16:00:00","52759","2.369","87.0","3.5610000000000004","91.6","1003.178","14.44","55.61","131.2","0.0"],
    [1506263,"2026-02-08 16:10:00","52760","1.506","64.84","2.7439999999999998","37.24","1003.425","14.54","62.1","148.4","0.0"],
    [1506264,"2026-02-08 16:20:00","52761","2.255","84.2","3.1689999999999996","96.5","1003.613","14.19","64.26","161.0","0.0"],
    [1506265,"2026-02-08 16:30:00","52762","2.171","74.83","3.7239999999999998","83.3","1003.71","14.22","61.91","127.9","0.0"],
    [1506266,"2026-02-08 16:40:00","52763","1.9380000000000002","80.0","3.365","78.73","1003.814","14.38","58.33","93.9","0.0"],
    [1506267,"2026-02-08 16:50:00","52764","2.039","83.3","3.005","90.5","1004.072","14.41","56.6","36.41","0.0"],
    [1506268,"2026-02-08 17:00:00","52765","1.659","88.4","2.5810000000000004","83.7","1004.239","14.3","62.54","18.79","0.0"],
    [1506269,"2026-02-08 17:10:00","52766","1.755","91.9","2.6460000000000004","95.3","1004.425","14.0","63.14","8.73","0.0"],
    [1506270,"2026-02-08 17:20:00","52767","1.446","71.5","2.679","66.48","1004.555","14.21","61.53","3.378","0.0"],
    [1506271,"2026-02-08 17:30:00","52768","2.032","65.6","2.9730000000000003","62.3","1004.708","14.18","67.63","0.366","0.0"],
    [1506272,"2026-02-08 17:40:00","52769","2.235","50.92","2.907","50.12","1004.984","13.88","70.43","0.0","0.0"],
    [1506273,"2026-02-08 17:50:00","52770","2.101","35.97","3.071","41.94","1005.227","13.88","73.8","0.0","0.0"],
    [1506274,"2026-02-08 18:00:00","52771","2.932","17.48","3.6260000000000003","11.23","1005.468","13.71","75.97","0.0","0.0"],
    [1506275,"2026-02-08 18:10:00","52772","3.5460000000000003","14.57","4.149","10.78","1005.7","13.62","75.61","0.0","0.0"],
    [1506276,"2026-02-08 18:20:00","52773","3.1430000000000002","18.03","3.5610000000000004","21.35","1005.958","13.68","75.24","0.0","0.0"],
    [1506277,"2026-02-08 18:30:00","52774","2.7260000000000004","25.61","3.299","18.31","1006.133","13.6","74.52","0.0","0.0"],
    [1506278,"2026-02-08 18:40:00","52775","2.716","32.88","3.234","36.29","1006.205","13.71","73.12","0.0","0.0"],
    [1506279,"2026-02-08 18:50:00","52776","3.9189999999999996","66.54","5.553","51.57","1006.274","13.21","73.3","0.0","0.0"],
    [1506280,"2026-02-08 19:00:00","52777","3.853","69.59","5.2589999999999995","67.89","1006.401","12.95","72.18","0.0","0.0"],
    [1506281,"2026-02-08 19:10:00","52778","3.327","60.06","4.835","60.46","1006.627","12.99","72.33","0.0","0.0"],
    [1506282,"2026-02-08 19:20:00","52779","3.76","64.03","5.4879999999999995","59.37","1006.82","12.92","72.17","0.0","0.0"],
    [1506283,"2026-02-08 19:30:00","52780","3.667","60.13","5.292000000000001","73.14","1006.964","12.9","69.88","0.0","0.0"],
    [1506284,"2026-02-08 19:40:00","52781","3.64","50.04","5.194","59.14","1007.113","13.03","68.86","0.0","0.0"],
    [1506285,"2026-02-08 19:50:00","52782","3.687","50.69","5.096","41.85","1007.223","13.03","69.64","0.0","0.0"],
    [1506286,"2026-02-08 20:00:00","52783","4.155","55.51","5.912999999999999","56.34","1007.237","12.91","69.12","0.0","0.0"],
    [1506287,"2026-02-08 20:10:00","52784","3.8089999999999997","60.63","5.129","66.81","1007.354","12.95","69.33","0.0","0.0"],
    [1506288,"2026-02-08 20:20:00","52785","4.003","55.28","5.7170000000000005","52.04","1007.455","12.83","69.88","0.0","0.0"],
    [1506289,"2026-02-08 20:30:00","52786","4.3","53.05","5.455","54.52","1007.556","12.68","70.44","0.0","0.0"],
    [1506290,"2026-02-08 20:40:00","52787","4.516","50.4","5.815","57.27","1007.638","12.71","68.84","0.0","0.0"],
    [1506291,"2026-02-08 20:50:00","52788","4.249","51.2","6.0760000000000005","60.56","1007.541","12.66","68.68","0.0","0.0"],
    [1506292,"2026-02-08 21:00:00","52789","4.523","51.55","6.631","48.21","1007.545","12.59","69.46","0.0","0.0"],
    [1506293,"2026-02-08 21:10:00","52790","4.3069999999999995","64.64","6.403","69.74","1007.669","12.47","69.06","0.0","0.0"],
    [1506294,"2026-02-08 21:20:00","52791","3.4560000000000004","58.46","5.325","72.98","1007.734","12.41","70.01","0.0","0.0"],
    [1506295,"2026-02-08 21:30:00","52792","3.92","53.93","5.4879999999999995","57.92","1007.751","12.24","71.52","0.0","0.0"],
    [1506296,"2026-02-08 21:40:00","52793","4.021","44.54","5.684","43.99","1007.841","12.18","72.89","0.0","0.0"],
    [1506297,"2026-02-08 21:50:00","52794","4.654","33.93","5.455","24.53","1007.963","12.01","73.96","0.0","0.0"],
    [1506298,"2026-02-08 22:00:00","52795","4.398","35.72","5.292000000000001","27.49","1008.09","11.91","75.24","0.0","0.0"],
    [1506299,"2026-02-08 22:10:00","52796","4.0889999999999995","31.2","5.129","36.44","1008.195","11.85","75.51","0.0","0.0"],
    [1506300,"2026-02-08 22:20:00","52797","3.9939999999999998","41.38","5.031000000000001","45.66","1008.258","11.78","76.01","0.0","0.0"],
    [1506301,"2026-02-08 22:30:00","52798","3.5980000000000003","39.98","4.508","41.9","1008.353","11.73","76.09","0.0","0.0"],
    [1506302,"2026-02-08 22:40:00","52799","2.989","50.24","3.7239999999999998","38.34","1008.471","11.76","76.73","0.0","0.0"],
    [1506303,"2026-02-08 22:50:00","52800","2.99","57.52","4.2139999999999995","55.75","1008.437","11.65","76.87","0.0","0.0"],
    [1506304,"2026-02-08 23:00:00","52801","3.0669999999999997","54.36","4.312","57.08","1008.247","11.68","77.02","0.0","0.0"],
    [1506305,"2026-02-08 23:10:00","52802","3.542","67.26","4.508","63.68","1008.082","11.68","77.75","0.0","0.0"],
    [1506306,"2026-02-08 23:20:00","52803","3.98","64.7","5.1610000000000005","66.6","1007.884","11.63","79.01","0.0","0.0"],
    [1506307,"2026-02-08 23:30:00","52804","4.256","65.1","5.357","71.5","1007.659","11.58","80.4","0.0","0.0"],
    [1506308,"2026-02-08 23:40:00","52805","4.043","68.14","5.096","71.32","1007.457","11.55","81.0","0.0","0.0"],
    [1506309,"2026-02-08 23:50:00","52806","4.232","68.04","5.194","69.37","1007.324","11.53","80.8","0.0","0.0"],
    [1506310,"2026-02-09 00:00:00","52807","3.688","70.11","4.671","67.64","1007.458","11.52","81.1","0.0","0.0"],
    [1506311,"2026-02-09 00:10:00","52808","2.698","58.46","3.985","76.57","1007.695","11.55","81.0","0.0","0.0"],
    [1506312,"2026-02-09 00:20:00","52809","1.965","64.9","2.875","80.6","1007.642","11.56","81.0","0.0","0.0"],
    [1506313,"2026-02-09 00:30:00","52810","1.208","45.04","2.679","58.71","1007.782","11.57","80.7","0.0","0.0"],
    [1506314,"2026-02-09 00:40:00","52811","0.9279999999999999","310.2","2.352","248.7","1008.073","11.5","80.1","0.002","0.0"],
    [1506315,"2026-02-09 00:50:00","52812","2.003","259.0","3.6260000000000003","269.4","1008.176","11.04","81.1","0.0","0.0"],
    [1506316,"2026-02-09 01:00:00","52813","1.605","273.9","2.613","262.9","1008.218","10.62","82.9","0.0","0.0"],
    [1506317,"2026-02-09 01:10:00","52814","1.6840000000000002","275.7","2.6460000000000004","289.1","1008.282","10.71","83.1","0.0","0.0"],
    [1506318,"2026-02-09 01:20:00","52815","0.8440000000000001","246.4","2.0580000000000003","261.0","1008.332","10.71","82.3","0.0","0.0"],
    [1506319,"2026-02-09 01:30:00","52816","0.925","298.2","1.601","273.6","1008.334","10.78","81.6","0.0","0.0"],
    [1506320,"2026-02-09 01:40:00","52817","1.4469999999999998","263.4","2.025","280.4","1008.494","10.83","80.7","0.0","0.0"],
    [1506321,"2026-02-09 01:50:00","52818","1.2309999999999999","256.2","2.123","263.4","1008.546","10.92","80.0","0.0","0.0"],
    [1506322,"2026-02-09 02:00:00","52819","1.07","243.9","1.9269999999999998","251.8","1008.541","10.91","79.85","0.0","0.0"],
    [1506323,"2026-02-09 02:10:00","52820","0.946","256.9","1.568","269.1","1008.546","10.93","79.57","0.0","0.0"],
    [1506324,"2026-02-09 02:20:00","52821","1.0979999999999999","255.7","1.666","241.0","1008.433","11.0","79.43","0.0","0.0"],
    [1506325,"2026-02-09 02:30:00","52822","1.3019999999999998","261.3","1.7309999999999999","262.4","1008.318","11.04","79.39","0.0","0.0"],
    [1506326,"2026-02-09 02:40:00","52823","1.518","278.9","1.895","280.1","1008.259","11.01","79.48","0.0","0.0"],
    [1506327,"2026-02-09 02:50:00","52824","1.996","270.0","2.483","276.7","1008.367","10.81","80.0","0.0","0.0"],
    [1506328,"2026-02-09 03:00:00","52825","1.426","267.7","2.025","270.9","1008.383","10.75","80.5","0.0","0.0"],
    [1506329,"2026-02-09 03:10:00","52826","0.6509999999999999","266.0","1.143","268.0","1008.338","10.78","80.8","0.0","0.0"],
    [1506330,"2026-02-09 03:20:00","52827","0.772","257.8","1.829","259.7","1008.303","10.83","81.1","0.0","0.0"],
    [1506331,"2026-02-09 03:30:00","52828","1.148","270.1","1.797","278.6","1008.182","10.95","80.4","0.0","0.0"],
    [1506332,"2026-02-09 03:40:00","52829","0.7979999999999999","265.0","1.2409999999999999","279.8","1008.049","10.94","80.0","0.0","0.0"],
    [1506333,"2026-02-09 03:50:00","52830","1.435","272.9","1.764","268.3","1008.052","10.88","79.74","0.0","0.0"],
    [1506334,"2026-02-09 04:00:00","52831","1.824","269.9","2.254","261.7","1008.022","10.7","79.62","0.0","0.0"],
    [1506335,"2026-02-09 04:10:00","52832","1.7590000000000001","270.6","2.254","255.7","1007.903","10.49","80.5","0.0","0.0"],
    [1506336,"2026-02-09 04:20:00","52833","1.505","268.6","2.385","258.3","1008.097","10.6","79.67","0.0","0.0"],
    [1506337,"2026-02-09 04:30:00","52834","1.955","260.7","2.7439999999999998","261.1","1008.202","10.53","78.18","0.0","0.0"],
    [1506338,"2026-02-09 04:40:00","52835","1.754","254.9","3.0380000000000003","265.8","1008.323","10.35","77.39","0.0","0.0"],
    [1506339,"2026-02-09 04:50:00","52836","1.982","259.0","3.528","264.0","1008.299","10.14","76.06","0.0","0.0"],
    [1506340,"2026-02-09 05:00:00","52837","1.406","262.4","2.483","259.7","1008.259","9.97","75.36","0.0","0.0"],
    [1506341,"2026-02-09 05:10:00","52838","1.2109999999999999","273.0","1.601","263.9","1008.136","10.24","74.07","0.0","0.0"],
    [1506342,"2026-02-09 05:20:00","52839","1.183","272.0","1.633","282.3","1008.069","10.55","71.63","0.0","0.0"],
    [1506343,"2026-02-09 05:30:00","52840","1.746","273.5","2.548","266.7","1007.939","10.73","70.23","0.0","0.0"],
    [1506344,"2026-02-09 05:40:00","52841","1.4909999999999999","275.2","2.221","275.4","1007.883","10.55","70.23","0.0","0.0"],
    [1506345,"2026-02-09 05:50:00","52842","1.443","263.7","2.189","262.7","1007.975","10.59","70.39","0.0","0.0"],
    [1506346,"2026-02-09 06:00:00","52843","2.032","260.4","2.9730000000000003","263.5","1008.002","10.08","70.76","0.0","0.0"],
    [1506347,"2026-02-09 06:10:00","52844","2.2159999999999997","255.4","3.071","260.1","1008.109","9.98","70.81","0.0","0.0"],
    [1506348,"2026-02-09 06:20:00","52845","2.219","254.8","3.495","244.9","1008.112","9.65","72.06","0.0","0.0"],
    [1506349,"2026-02-09 06:30:00","52846","1.485","250.0","3.0380000000000003","251.1","1008.069","9.27","74.32","0.0","0.0"],
    [1506350,"2026-02-09 06:40:00","52847","1.547","287.5","2.352","300.3","1007.789","9.4","75.83","0.034","0.0"],
    [1506351,"2026-02-09 06:50:00","52848","1.3869999999999998","291.2","2.025","292.4","1007.622","9.86","74.08","2.165","0.0"],
    [1506352,"2026-02-09 07:00:00","52849","1.4409999999999998","267.8","2.123","282.8","1007.546","10.18","70.11","9.51","0.0"],
    [1506353,"2026-02-09 07:10:00","52850","1.258","252.0","2.45","266.3","1007.602","10.24","68.21","12.97","0.0"],
    [1506354,"2026-02-09 07:20:00","52851","2.0540000000000003","276.5","2.9730000000000003","276.6","1007.582","10.12","65.4","11.36","0.0"],
    [1506355,"2026-02-09 07:30:00","52852","2.427","286.5","3.234","300.4","1007.423","10.29","62.93","19.72","0.0"],
    [1506356,"2026-02-09 07:40:00","52853","2.334","289.0","3.495","291.0","1007.363","10.44","60.63","47.73","0.0"],
    [1506357,"2026-02-09 07:50:00","52854","2.424","287.8","3.43","283.6","1007.585","10.5","60.1","67.86","0.0"],
    [1506358,"2026-02-09 08:00:00","52855","2.2769999999999997","292.0","3.593","296.3","1007.798","10.63","59.99","71.33","0.0"],
    [1506359,"2026-02-09 08:10:00","52856","2.4619999999999997","293.4","3.495","294.3","1007.958","10.86","59.2","85.0","0.0"],
    [1506360,"2026-02-09 08:20:00","52857","2.1630000000000003","292.3","3.7239999999999998","298.7","1008.034","11.05","57.98","92.5","0.0"],
    [1506361,"2026-02-09 08:30:00","52858","2.5860000000000003","295.8","3.822","292.7","1008.053","11.02","57.75","104.5","0.0"],
    [1506362,"2026-02-09 08:40:00","52859","2.483","296.6","4.638999999999999","311.2","1008.109","11.08","58.39","105.5","0.0"],
    [1506363,"2026-02-09 08:50:00","52860","3.2889999999999997","295.9","5.619","301.0","1008.221","10.97","58.36","106.0","0.0"],
    [1506364,"2026-02-09 09:00:00","52861","3.265","296.3","4.769","280.8","1008.355","10.86","58.63","132.5","0.0"],
    [1506365,"2026-02-09 09:10:00","52862","3.398","303.3","5.2589999999999995","299.8","1008.272","10.87","58.64","146.6","0.0"],
    [1506366,"2026-02-09 09:20:00","52863","3.39","300.7","5.2589999999999995","299.8","1008.266","10.97","58.36","144.0","0.0"],
    [1506367,"2026-02-09 09:30:00","52864","3.145","300.9","5.325","301.9","1008.141","10.91","58.02","143.1","0.0"],
    [1506368,"2026-02-09 09:40:00","52865","2.602","295.9","4.181","317.3","1008.099","11.09","57.39","284.0","0.0"],
    [1506369,"2026-02-09 09:50:00","52866","2.873","301.2","4.835","303.5","1008.093","11.42","56.34","396.0","0.0"],
    [1506370,"2026-02-09 10:00:00","52867","2.11","297.4","3.136","298.0","1008.052","11.89","54.88","454.2","0.0"],
    [1506371,"2026-02-09 10:10:00","52868","2.78","311.0","3.822","320.1","1007.916","12.22","53.5","459.1","0.0"],
    [1506372,"2026-02-09 10:20:00","52869","2.822","306.7","4.181","317.5","1007.837","12.45","51.96","480.2","0.0"],
    [1506373,"2026-02-09 10:30:00","52870","3.319","311.7","5.031000000000001","322.5","1007.756","12.47","51.05","508.3","0.0"],
    [1506374,"2026-02-09 10:40:00","52871","1.983","307.2","3.299","297.5","1007.754","12.63","50.52","516.0","0.0"],
    [1506375,"2026-02-09 10:50:00","52872","1.4769999999999999","315.7","2.548","312.3","1007.773","12.83","49.02","530.6","0.0"],
    [1506376,"2026-02-09 11:00:00","52873","1.4969999999999999","325.7","3.1689999999999996","302.7","1007.609","13.08","49.34","539.8","0.0"],
    [1506377,"2026-02-09 11:10:00","52874","1.682","258.2","3.0380000000000003","304.3","1007.624","13.19","48.08","549.5","0.0"],
    [1506378,"2026-02-09 11:20:00","52875","3.492","170.2","4.181","168.7","1007.574","12.97","51.18","573.9","0.0"],
    [1506379,"2026-02-09 11:30:00","52876","3.302","160.0","3.92","163.5","1007.533","12.53","53.85","575.5","0.0"],
    [1506380,"2026-02-09 11:40:00","52877","3.3680000000000003","158.9","4.051","164.6","1007.403","12.46","56.65","580.9","0.0"],
    [1506381,"2026-02-09 11:50:00","52878","3.466","161.4","4.149","162.6","1007.239","12.31","61.87","585.6","0.0"],
    [1506382,"2026-02-09 12:00:00","52879","3.6710000000000003","159.3","4.279","167.4","1007.132","12.22","64.02","595.7","0.0"],
    [1506383,"2026-02-09 12:10:00","52880","3.8169999999999997","162.8","4.475","177.7","1007.067","12.21","64.68","597.0","0.0"],
    [1506384,"2026-02-09 12:20:00","52881","4.269","160.2","4.998","160.4","1007.014","12.15","65.06","596.0","0.0"],
    [1506385,"2026-02-09 12:30:00","52882","4.654","158.2","5.227","158.6","1006.974","12.11","64.45","603.5","0.0"],
    [1506386,"2026-02-09 12:40:00","52883","4.95","165.3","5.782","170.1","1006.951","12.27","65.94","536.1","0.0"],
    [1506387,"2026-02-09 12:50:00","52884","5.367999999999999","173.0","6.239","177.1","1006.92","12.24","68.0","349.0","0.0"],
    [1506388,"2026-02-09 13:00:00","52885","4.705","185.6","6.403","184.6","1006.999","12.35","67.04","218.8","0.0"],
    [1506389,"2026-02-09 13:10:00","52886","4.564","183.8","5.749","192.3","1006.862","12.48","65.65","385.0","0.0"],
    [1506390,"2026-02-09 13:20:00","52887","4.35","180.4","5.422999999999999","177.2","1006.72","12.75","64.05","620.3","0.0"],
    [1506391,"2026-02-09 13:30:00","52888","4.2139999999999995","183.9","6.468","197.1","1006.701","13.12","62.47","600.0","0.0"],
    [1506392,"2026-02-09 13:40:00","52889","5.118","187.3","7.742000000000001","190.7","1006.505","13.47","62.2","549.2","0.0"],
    [1506393,"2026-02-09 13:50:00","52890","4.794","188.8","7.905","180.1","1006.358","13.75","62.6","414.2","0.0"],
    [1506394,"2026-02-09 14:00:00","52891","4.493","202.4","8.98","189.6","1006.252","14.38","57.75","343.0","0.0"],
    [1506395,"2026-02-09 14:10:00","52892","4.5760000000000005","206.9","7.709","215.3","1006.2","14.5","55.09","214.1","0.0"],
    [1506396,"2026-02-09 14:20:00","52893","3.98","216.5","6.337000000000001","205.9","1006.324","14.43","57.44","174.1","0.0"],
    [1506397,"2026-02-09 14:30:00","52894","3.977","220.4","6.566","218.0","1006.358","14.41","58.79","229.1","0.0"],
    [1506398,"2026-02-09 14:40:00","52895","2.7039999999999997","209.4","4.933","222.4","1006.343","14.67","57.97","281.9","0.0"],
    [1506399,"2026-02-09 14:50:00","52896","2.119","225.6","3.855","206.8","1006.383","15.42","53.57","393.9","0.0"],
    [1506400,"2026-02-09 15:00:00","52897","4.081","291.5","7.6770000000000005","316.0","1006.444","15.4","49.07","241.0","0.0"],
    [1506401,"2026-02-09 15:10:00","52898","4.256","302.0","6.729","279.3","1006.356","15.34","46.59","224.2","0.0"],
    [1506402,"2026-02-09 15:20:00","52899","3.97","292.3","7.056","283.8","1006.343","15.27","46.77","178.8","0.0"],
    [1506403,"2026-02-09 15:30:00","52900","4.48","299.5","6.337000000000001","307.7","1006.389","15.19","45.85","192.4","0.0"],
    [1506404,"2026-02-09 15:40:00","52901","4.079","305.0","5.88","305.4","1006.503","15.21","46.4","209.8","0.0"],
    [1506405,"2026-02-09 15:50:00","52902","3.432","292.8","5.194","287.2","1006.716","15.33","45.95","149.2","0.0"],
    [1506406,"2026-02-09 16:00:00","52903","2.647","286.8","5.357","288.0","1006.649","15.18","46.39","93.3","0.0"],
    [1506407,"2026-02-09 16:10:00","52904","2.356","284.4","3.822","293.5","1006.658","15.17","46.62","71.45","0.0"],
    [1506408,"2026-02-09 16:20:00","52905","2.25","256.2","5.1610000000000005","245.1","1006.86","15.1","48.19","55.69","0.0"],
    [1506409,"2026-02-09 16:30:00","52906","3.449","218.7","7.382999999999999","224.3","1006.956","14.24","61.65","52.55","0.0"],
    [1506410,"2026-02-09 16:40:00","52907","3.1860000000000004","217.5","5.619","212.5","1006.903","14.08","64.25","42.38","0.0"],
    [1506411,"2026-02-09 16:50:00","52908","2.611","225.7","4.704","216.9","1007.047","14.11","64.36","25.52","0.0"],
    [1506412,"2026-02-09 17:00:00","52909","3.016","230.9","4.704","230.1","1007.117","14.07","64.39","17.41","0.0"],
    [1506413,"2026-02-09 17:10:00","52910","2.793","234.2","4.279","217.8","1007.191","14.1","63.49","6.8229999999999995","0.0"],
    [1506414,"2026-02-09 17:20:00","52911","2.6630000000000003","237.1","4.377","233.5","1007.185","14.13","61.13","1.4480000000000002","0.0"],
    [1506415,"2026-02-09 17:30:00","52912","1.7890000000000001","250.7","3.659","252.6","1007.258","14.15","59.14","0.0","0.0"],
    [1506416,"2026-02-09 17:40:00","52913","2.0980000000000003","270.4","3.855","262.7","1007.247","14.03","57.82","0.0","0.0"],
    [1506417,"2026-02-09 17:50:00","52914","2.218","253.4","4.018","233.1","1007.304","14.02","56.92","0.0","0.0"],
    [1506418,"2026-02-09 18:00:00","52915","2.3280000000000003","233.9","4.181","214.1","1007.452","14.04","62.01","0.0","0.0"],
    [1506419,"2026-02-09 18:10:00","52916","2.3930000000000002","248.5","3.9530000000000003","231.4","1007.521","13.86","65.56","0.0","0.0"],
    [1506420,"2026-02-09 18:20:00","52917","2.271","237.6","4.247","227.4","1007.433","13.68","66.24","0.0","0.0"],
    [1506421,"2026-02-09 18:30:00","52918","1.558","234.7","2.679","231.9","1007.192","13.74","65.15","0.0","0.0"],
    [1506422,"2026-02-09 18:40:00","52919","1.726","198.7","3.103","191.7","1006.971","13.57","66.99","0.0","0.0"],
    [1506423,"2026-02-09 18:50:00","52920","1.815","209.3","4.933","204.6","1006.932","13.35","68.85","0.0","0.0"],
    [1506424,"2026-02-09 19:00:00","52921","1.893","216.9","3.985","204.6","1006.872","13.41","70.87","0.0","0.0"],
    [1506425,"2026-02-09 19:10:00","52922","2.063","251.8","3.855","255.9","1006.854","13.24","73.21","0.0","0.0"],
    [1506426,"2026-02-09 19:20:00","52923","2.347","264.0","4.475","274.4","1006.999","13.15","75.39","0.0","0.0"],
    [1506427,"2026-02-09 19:30:00","52924","2.314","250.9","4.508","234.7","1007.021","13.28","77.39","0.0","0.0"],
    [1506428,"2026-02-09 19:40:00","52925","2.7060000000000004","244.6","5.553","260.6","1007.028","13.29","79.56","0.0","0.0"],
    [1506429,"2026-02-09 19:50:00","52926","3.234","248.3","5.357","257.0","1007.076","13.25","81.1","0.0","0.0"],
    [1506430,"2026-02-09 20:00:00","52927","3.247","243.8","5.815","255.5","1007.237","13.33","81.5","0.0","0.0"],
    [1506431,"2026-02-09 20:10:00","52928","2.875","240.5","5.684","253.5","1007.279","13.47","80.7","0.0","0.0"],
    [1506432,"2026-02-09 20:20:00","52929","3.0460000000000003","241.8","5.031000000000001","245.6","1007.383","13.39","80.6","0.0","0.0"],
    [1506433,"2026-02-09 20:30:00","52930","2.86","251.9","5.782","251.0","1007.372","13.25","80.3","0.0","0.0"],
    [1506434,"2026-02-09 20:40:00","52931","2.585","249.0","4.835","256.2","1007.206","13.32","80.1","0.0","0.0"],
    [1506435,"2026-02-09 20:50:00","52932","2.122","249.4","3.463","267.6","1007.089","13.27","80.0","0.0","0.0"],
    [1506436,"2026-02-09 21:00:00","52933","2.036","250.9","3.855","239.5","1006.896","13.16","80.1","0.0","0.0"],
    [1506437,"2026-02-09 21:10:00","52934","1.489","254.4","3.201","275.2","1006.848","13.06","80.2","0.0","0.0"],
    [1506438,"2026-02-09 21:20:00","52935","1.315","259.2","2.7769999999999997","259.7","1006.862","12.92","80.3","0.0","0.0"],
    [1506439,"2026-02-09 21:30:00","52936","1.7009999999999998","251.3","3.136","244.4","1006.882","12.83","80.3","0.0","0.0"],
    [1506440,"2026-02-09 21:40:00","52937","2.09","236.9","3.6260000000000003","223.1","1006.781","12.91","79.22","0.0","0.2"],
    [1506441,"2026-02-09 21:50:00","52938","1.915","249.1","3.855","274.4","1007.006","12.92","77.39","0.006","0.3"],
    [1506442,"2026-02-09 22:00:00","52939","1.819","263.5","3.299","259.1","1007.029","12.62","78.92","0.033","0.2"],
    [1506443,"2026-02-09 22:10:00","52940","1.936","254.6","3.9530000000000003","268.6","1006.843","12.32","79.75","0.028999999999999998","0.2"],
    [1506444,"2026-02-09 22:20:00","52941","1.413","248.9","3.1689999999999996","271.8","1006.682","12.2","78.72","0.292","0.1"],
    [1506445,"2026-02-09 22:30:00","52942","0.632","253.0","1.601","230.2","1006.428","12.22","78.34","0.631","0.0"],
    [1506446,"2026-02-09 22:40:00","52943","1.035","262.5","1.666","273.7","1006.331","12.19","78.72","1.764","0.0"],
    [1506447,"2026-02-09 22:50:00","52944","1.19","272.3","2.0909999999999997","277.1","1006.389","12.2","79.17","2.698","0.0"],
    [1506448,"2026-02-09 23:00:00","52945","1.078","240.2","2.319","240.9","1006.355","12.13","79.24","3.032","0.0"],
    [1506449,"2026-02-09 23:10:00","52946","1.328","234.5","2.385","236.4","1006.455","12.26","78.79","1.7469999999999999","0.0"],
    [1506450,"2026-02-09 23:20:00","52947","2.012","230.5","3.234","240.6","1006.479","12.23","78.97","0.0","0.0"],
    [1506451,"2026-02-09 23:30:00","52948","1.739","224.2","4.181","232.7","1006.411","12.2","79.06","0.213","0.0"],
    [1506452,"2026-02-09 23:40:00","52949","1.01","239.6","1.993","284.7","1006.287","12.31","79.2","0.664","0.0"],
    [1506453,"2026-02-09 23:50:00","52950","0.997","278.5","1.7309999999999999","299.7","1006.092","12.32","79.61","0.755","0.0"],
    [1506454,"2026-02-10 00:00:00","52951","1.6540000000000001","305.5","2.254","303.1","1005.876","12.25","79.87","1.818","0.0"],
    [1506455,"2026-02-10 00:10:00","52952","2.458","336.9","3.365","343.3","1005.893","12.24","80.1","0.384","0.0"],
    [1506456,"2026-02-10 00:20:00","52953","2.7439999999999998","335.5","3.7239999999999998","334.0","1005.925","12.29","80.4","0.88","0.0"],
    [1506457,"2026-02-10 00:30:00","52954","1.643","316.4","2.842","325.9","1005.892","12.32","80.5","0.782","0.0"],
    [1506458,"2026-02-10 00:40:00","52955","1.317","280.1","1.8619999999999999","286.8","1005.864","12.3","80.6","0.358","0.1"],
    [1506459,"2026-02-10 00:50:00","52956","0.698","253.2","1.405","273.3","1005.736","12.24","81.1","0.0","0.0"],
    [1506460,"2026-02-10 01:00:00","52957","1.028","233.7","1.96","216.8","1005.589","12.18","82.1","0.295","0.0"],
    [1506461,"2026-02-10 01:10:00","52958","1.212","230.9","1.9269999999999998","217.4","1005.524","12.2","83.1","0.873","0.0"],
    [1506462,"2026-02-10 01:20:00","52959","1.348","236.8","2.483","215.5","1005.358","12.23","84.0","1.083","0.0"],
    [1506463,"2026-02-10 01:30:00","52960","1.011","235.0","1.993","252.7","1005.212","12.18","84.9","0.624","0.0"],
    [1506464,"2026-02-10 01:40:00","52961","1.4380000000000002","239.5","2.5810000000000004","245.1","1004.966","12.11","86.0","0.858","0.0"],
    [1506465,"2026-02-10 01:50:00","52962","1.422","249.8","2.45","270.3","1004.957","12.02","87.0","0.741","0.0"],
    [1506466,"2026-02-10 02:00:00","52963","1.702","262.0","3.071","260.7","1004.767","11.92","88.0","0.519","0.0"],
    [1506467,"2026-02-10 02:10:00","52964","2.41","273.9","3.234","269.8","1004.715","11.81","89.2","0.606","0.0"],
    [1506468,"2026-02-10 02:20:00","52965","2.267","267.3","3.463","270.2","1004.675","11.73","90.0","0.405","0.0"],
    [1506469,"2026-02-10 02:30:00","52966","1.564","257.9","3.528","254.5","1004.445","11.7","90.4","0.105","0.0"],
    [1506470,"2026-02-10 02:40:00","52967","2.074","265.3","3.103","271.2","1004.466","11.67","90.6","0.17800000000000002","0.0"],
    [1506471,"2026-02-10 02:50:00","52968","2.193","282.4","2.875","282.8","1004.514","11.67","90.8","0.284","0.0"],
    [1506472,"2026-02-10 03:00:00","52969","1.835","288.1","2.875","300.5","1004.409","11.74","91.0","0.26","0.0"],
    [1506473,"2026-02-10 03:10:00","52970","1.93","279.1","2.6460000000000004","280.8","1004.348","11.72","91.0","0.016","0.0"],
    [1506474,"2026-02-10 03:20:00","52971","2.6439999999999997","269.6","4.083","279.3","1004.457","11.57","91.5","0.0","0.0"],
    [1506475,"2026-02-10 03:30:00","52972","3.9619999999999997","282.9","5.586","278.1","1004.697","11.66","91.8","0.0","0.0"],
    [1506476,"2026-02-10 03:40:00","52973","3.24","293.4","4.508","278.7","1004.641","11.82","89.7","0.0","0.0"],
    [1506477,"2026-02-10 03:50:00","52974","2.26","295.9","3.397","281.9","1004.528","11.88","88.3","0.0","0.0"],
    [1506478,"2026-02-10 04:00:00","52975","1.952","297.3","2.7439999999999998","286.8","1004.643","11.89","87.6","0.0","0.0"],
    [1506479,"2026-02-10 04:10:00","52976","1.972","311.8","2.94","297.0","1004.815","11.95","87.0","0.0","0.0"],
    [1506480,"2026-02-10 04:20:00","52977","1.256","313.0","1.993","316.4","1004.709","12.03","86.7","0.0","0.0"],
    [1506481,"2026-02-10 04:30:00","52978","3.0639999999999996","292.2","5.357","274.4","1004.736","12.14","86.2","0.0","0.0"],
    [1506482,"2026-02-10 04:40:00","52979","4.414","281.6","7.187","286.2","1004.556","12.49","82.8","0.0","0.0"],
    [1506483,"2026-02-10 04:50:00","52980","4.315","279.8","6.042999999999999","286.2","1004.508","12.59","80.5","0.0","0.0"],
    [1506484,"2026-02-10 05:00:00","52981","4.194","277.1","5.619","272.4","1004.718","12.45","80.2","0.0","0.0"],
    [1506485,"2026-02-10 05:10:00","52982","4.328","281.1","6.468","278.7","1004.815","12.59","79.58","0.0","0.0"],
    [1506486,"2026-02-10 05:20:00","52983","2.6310000000000002","275.7","4.998","292.6","1004.869","12.52","79.05","0.0","0.0"],
    [1506487,"2026-02-10 05:30:00","52984","2.713","264.1","4.671","262.2","1004.995","12.4","79.7","0.0","0.0"],
    [1506488,"2026-02-10 05:40:00","52985","3.372","278.7","5.39","284.4","1005.075","12.39","80.3","0.0","0.0"],
    [1506489,"2026-02-10 05:50:00","52986","3.878","292.4","5.586","276.6","1005.228","12.57","79.5","0.0","0.0"],
    [1506490,"2026-02-10 06:00:00","52987","3.5210000000000004","310.5","5.88","302.9","1005.32","12.69","78.68","0.0","0.0"],
    [1506491,"2026-02-10 06:10:00","52988","2.52","297.9","3.6260000000000003","309.9","1005.345","12.58","78.95","0.0","0.0"],
    [1506492,"2026-02-10 06:20:00","52989","2.052","277.3","3.267","283.7","1005.511","12.46","79.33","0.0","0.0"],
    [1506493,"2026-02-10 06:30:00","52990","1.425","232.7","2.8089999999999997","255.3","1005.772","12.3","79.99","0.0","0.0"],
    [1506494,"2026-02-10 06:40:00","52991","2.289","198.3","2.9730000000000003","203.1","1005.828","12.04","81.6","0.0","0.0"],
    [1506495,"2026-02-10 06:50:00","52992","2.35","208.2","3.103","197.4","1005.644","11.96","83.7","0.649","0.0"],
    [1506496,"2026-02-10 07:00:00","52993","1.581","256.7","2.613","257.3","1005.494","12.29","82.2","4.073","0.0"],
    [1506497,"2026-02-10 07:10:00","52994","1.92","267.1","2.7439999999999998","276.5","1005.744","12.18","82.0","9.51","0.0"],
    [1506498,"2026-02-10 07:20:00","52995","1.5619999999999998","247.1","2.417","255.9","1006.011","12.28","82.6","18.92","0.0"],
    [1506499,"2026-02-10 07:30:00","52996","1.454","237.9","2.417","234.5","1006.193","12.36","83.5","39.07","0.0"],
    [1506500,"2026-02-10 07:40:00","52997","1.315","245.1","2.385","245.8","1006.272","12.42","84.8","33.68","0.0"],
    [1506501,"2026-02-10 07:50:00","52998","1.3419999999999999","261.3","1.993","255.6","1006.305","12.33","86.2","44.65","0.0"],
    [1506502,"2026-02-10 08:00:00","52999","1.05","266.7","1.7309999999999999","267.1","1006.274","12.33","87.4","63.95","0.0"],
    [1506503,"2026-02-10 08:10:00","53000","1.251","242.1","2.0909999999999997","226.4","1006.134","12.47","88.5","63.39","0.0"],
    [1506504,"2026-02-10 08:20:00","53001","1.327","240.9","2.123","236.6","1006.038","12.67","89.4","103.3","0.0"],
    [1506505,"2026-02-10 08:30:00","53002","1.4780000000000002","245.0","2.515","215.5","1005.924","12.65","89.6","132.2","0.0"],
    [1506506,"2026-02-10 08:40:00","53003","1.255","240.0","2.417","226.7","1006.072","12.92","89.6","226.4","0.0"],
    [1506507,"2026-02-10 08:50:00","53004","1.225","257.8","1.993","225.8","1006.181","13.01","89.4","127.5","0.0"],
    [1506508,"2026-02-10 09:00:00","53005","1.3130000000000002","267.9","1.9269999999999998","272.0","1006.193","13.18","89.6","260.9","0.0"],
    [1506509,"2026-02-10 09:10:00","53006","1.415","296.0","2.319","313.5","1006.116","13.35","88.8","368.6","0.0"],
    [1506510,"2026-02-10 09:20:00","53007","1.314","283.3","1.895","269.8","1006.056","13.41","85.7","317.0","0.0"],
    [1506511,"2026-02-10 09:30:00","53008","0.617","241.0","1.7309999999999999","262.7","1006.065","13.89","82.3","261.3","0.0"],
    [1506512,"2026-02-10 09:40:00","53009","1.067","233.3","1.895","244.7","1006.126","14.04","78.88","249.9","0.0"],
    [1506513,"2026-02-10 09:50:00","53010","0.41600000000000004","236.1","1.633","182.3","1006.021","14.54","76.06","356.0","0.0"],
    [1506514,"2026-02-10 10:00:00","53011","0.8909999999999999","188.2","1.8619999999999999","162.9","1006.038","14.69","73.17","360.3","0.0"],
    [1506515,"2026-02-10 10:10:00","53012","0.37200000000000005","124.7","1.2409999999999999","99.1","1006.065","14.98","73.45","375.6","0.0"],
    [1506516,"2026-02-10 10:20:00","53013","0.9229999999999999","101.3","1.47","102.5","1005.702","14.91","72.76","463.9","0.0"],
    [1506517,"2026-02-10 10:30:00","53014","1.218","131.4","2.842","152.2","1005.556","15.01","71.95","301.0","0.0"],
    [1506518,"2026-02-10 10:40:00","53015","2.195","160.6","2.7439999999999998","151.2","1005.507","14.25","77.49","468.7","0.0"],
    [1506519,"2026-02-10 10:50:00","53016","1.391","145.2","1.764","147.0","1005.475","14.52","78.32","454.8","0.0"],
    [1506520,"2026-02-10 11:00:00","53017","2.923","153.8","4.4430000000000005","162.2","1005.583","14.31","81.0","264.3","0.0"],
    [1506521,"2026-02-10 11:10:00","53018","3.8710000000000004","165.1","4.41","171.2","1005.507","13.53","86.7","199.5","0.0"],
    [1506522,"2026-02-10 11:20:00","53019","3.0439999999999996","163.8","3.985","163.4","1005.377","13.38","89.1","219.3","0.0"],
    [1506523,"2026-02-10 11:30:00","53020","2.343","177.6","3.005","170.2","1005.499","13.41","90.0","226.8","0.0"],
    [1506524,"2026-02-10 11:40:00","53021","3.403","188.6","4.377","188.1","1005.422","13.51","90.5","236.2","0.0"],
    [1506525,"2026-02-10 11:50:00","53022","2.334","199.9","3.593","190.6","1005.355","13.88","91.8","558.7","0.0"],
    [1506526,"2026-02-10 12:00:00","53023","2.096","202.2","3.397","175.3","1005.293","15.21","87.8","590.1","0.0"],
    [1506527,"2026-02-10 12:10:00","53024","3.174","184.4","4.737","186.9","1005.263","15.2","83.4","366.5","0.0"],
    [1506528,"2026-02-10 12:20:00","53025","3.217","207.7","4.9","190.4","1005.202","15.76","81.4","264.2","0.0"],
    [1506529,"2026-02-10 12:30:00","53026","3.435","194.4","5.031000000000001","198.7","1004.971","15.54","77.8","262.4","0.0"],
    [1506530,"2026-02-10 12:40:00","53027","4.047","193.2","4.867","194.0","1004.899","14.11","85.7","159.0","0.0"],
    [1506531,"2026-02-10 12:50:00","53028","2.85","214.1","4.083","227.1","1004.765","14.57","89.6","157.6","0.0"],
    [1506532,"2026-02-10 13:00:00","53029","2.2680000000000002","217.5","3.6910000000000003","225.9","1004.657","16.18","82.7","221.4","0.0"],
    [1506533,"2026-02-10 13:10:00","53030","2.228","211.6","3.463","217.2","1004.491","16.85","75.12","260.8","0.0"],
    [1506534,"2026-02-10 13:20:00","53031","2.6839999999999997","206.9","4.345","207.7","1004.391","16.82","73.83","252.7","0.0"],
    [1506535,"2026-02-10 13:30:00","53032","4.0489999999999995","192.4","5.325","188.1","1004.05","16.14","74.99","188.7","0.0"],
    [1506536,"2026-02-10 13:40:00","53033","4.184","194.4","5.422999999999999","193.4","1003.797","15.72","79.44","245.1","0.0"],
    [1506537,"2026-02-10 13:50:00","53034","3.591","193.6","4.9","197.0","1003.775","15.97","78.71","215.3","0.0"],
    [1506538,"2026-02-10 14:00:00","53035","4.8389999999999995","170.9","5.88","157.6","1003.699","15.49","81.3","303.4","0.0"],
    [1506539,"2026-02-10 14:10:00","53036","3.2030000000000003","201.3","6.729","190.7","1003.503","16.23","83.0","253.4","0.0"],
    [1506540,"2026-02-10 14:20:00","53037","4.262","219.6","8.07","205.2","1003.366","18.04","68.4","347.1","0.0"],
    [1506541,"2026-02-10 14:30:00","53038","4.54","221.2","8.46","220.0","1003.237","18.37","63.06","430.5","0.0"],
    [1506542,"2026-02-10 14:40:00","53039","3.265","218.7","5.847","232.4","1003.213","18.54","61.74","434.5","0.0"],
    [1506543,"2026-02-10 14:50:00","53040","3.3510000000000004","210.1","7.35","215.1","1003.048","18.7","61.12","317.7","0.0"],
    [1506544,"2026-02-10 15:00:00","53041","4.565","208.6","7.84","207.2","1002.997","18.83","60.51","436.1","0.0"],
    [1506545,"2026-02-10 15:10:00","53042","4.543","219.7","8.26","238.6","1002.714","18.91","59.81","446.2","0.0"],
    [1506546,"2026-02-10 15:20:00","53043","4.708","222.0","8.4","212.6","1002.461","18.87","59.73","254.7","0.0"],
    [1506547,"2026-02-10 15:30:00","53044","5.334","220.2","9.87","224.6","1002.208","19.22","58.28","211.3","0.0"],
    [1506548,"2026-02-10 15:40:00","53045","5.507000000000001","218.8","8.75","213.8","1002.037","19.56","56.86","231.3","0.0"],
    [1506549,"2026-02-10 15:50:00","53046","4.407","222.1","7.513","219.8","1002.059","19.49","57.35","215.9","0.0"],
    [1506550,"2026-02-10 16:00:00","53047","4.309","223.1","8.98","213.1","1002.16","19.23","58.35","188.3","0.0"],
    [1506551,"2026-02-10 16:10:00","53048","4.4430000000000005","222.4","8.23","217.7","1002.095","19.5","57.46","117.0","0.0"],
    [1506552,"2026-02-10 16:20:00","53049","3.5980000000000003","221.6","5.815","230.1","1002.244","19.38","58.03","76.2","0.0"],
    [1506553,"2026-02-10 16:30:00","53050","3.428","225.7","5.553","213.0","1002.305","19.35","58.33","57.66","0.0"],
    [1506554,"2026-02-10 16:40:00","53051","3.216","231.2","6.403","217.8","1002.438","19.05","59.25","28.72","0.0"],
    [1506555,"2026-02-10 16:50:00","53052","3.032","232.7","4.835","220.0","1002.477","18.95","59.64","22.89","0.0"],
    [1506556,"2026-02-10 17:00:00","53053","2.549","230.6","4.4430000000000005","212.8","1002.258","18.72","61.12","24.43","0.0"],
    [1506557,"2026-02-10 17:10:00","53054","2.861","227.8","5.292000000000001","233.2","1002.157","18.62","62.76","12.27","0.0"],
    [1506558,"2026-02-10 17:20:00","53055","2.911","232.6","4.867","239.9","1002.184","18.26","63.89","2.8139999999999996","0.0"],
    [1506559,"2026-02-10 17:30:00","53056","2.654","241.9","4.247","265.0","1002.152","17.81","65.23","0.07400000000000001","0.0"],
    [1506560,"2026-02-10 17:40:00","53057","2.421","251.9","4.573","252.1","1002.027","17.74","65.64","0.0","0.0"],
    [1506561,"2026-02-10 17:50:00","53058","2.244","238.7","4.835","198.6","1002.014","17.96","66.43","0.0","0.0"],
    [1506562,"2026-02-10 18:00:00","53059","2.51","250.6","5.129","226.7","1002.129","17.93","66.29","0.0","0.0"],
    [1506563,"2026-02-10 18:10:00","53060","2.596","258.1","4.475","215.7","1002.077","18.32","63.51","0.0","0.0"],
    [1506564,"2026-02-10 18:20:00","53061","2.6039999999999996","245.5","5.063","240.8","1002.049","18.21","64.41","0.0","0.0"],
    [1506565,"2026-02-10 18:30:00","53062","2.48","241.6","4.671","227.2","1001.973","18.77","62.97","0.0","0.0"],
    [1506566,"2026-02-10 18:40:00","53063","2.487","235.5","3.7569999999999997","245.8","1001.93","19.06","62.5","0.0","0.0"],
    [1506567,"2026-02-10 18:50:00","53064","2.068","263.1","3.528","247.5","1001.862","18.42","61.87","0.0","0.0"],
    [1506568,"2026-02-10 19:00:00","53065","1.7890000000000001","230.1","3.136","251.1","1001.855","18.25","64.37","0.0","0.0"],
    [1506569,"2026-02-10 19:10:00","53066","2.641","215.3","4.704","190.0","1001.812","18.05","66.31","0.0","0.0"],
    [1506570,"2026-02-10 19:20:00","53067","1.601","243.7","3.6260000000000003","262.0","1002.013","17.94","67.17","0.0","0.0"],
    [1506571,"2026-02-10 19:30:00","53068","2.096","298.9","3.071","293.7","1002.275","17.18","68.19","0.0","0.0"],
    [1506572,"2026-02-10 19:40:00","53069","1.742","262.0","2.515","254.7","1002.269","16.99","69.64","0.0","0.0"],
    [1506573,"2026-02-10 19:50:00","53070","1.629","234.1","2.613","230.1","1002.187","17.28","70.95","0.0","0.0"],
    [1506574,"2026-02-10 20:00:00","53071","1.505","246.9","2.7110000000000003","266.0","1002.088","16.93","71.49","0.0","0.0"],
    [1506575,"2026-02-10 20:10:00","53072","2.1069999999999998","275.7","2.679","264.2","1002.194","16.65","72.08","0.0","0.0"],
    [1506576,"2026-02-10 20:20:00","53073","1.6369999999999998","263.2","2.417","287.9","1002.188","16.56","72.67","0.0","0.0"],
    [1506577,"2026-02-10 20:30:00","53074","1.671","258.3","2.515","253.8","1002.093","16.54","73.01","0.0","0.0"],
    [1506578,"2026-02-10 20:40:00","53075","1.7209999999999999","228.7","2.842","229.3","1002.057","16.67","73.71","0.0","0.0"],
    [1506579,"2026-02-10 20:50:00","53076","2.272","242.8","4.573","250.2","1001.98","16.88","73.64","0.0","0.0"],
    [1506580,"2026-02-10 21:00:00","53077","1.7930000000000001","248.0","3.43","210.0","1001.878","16.72","73.14","0.0","0.0"],
    [1506581,"2026-02-10 21:10:00","53078","1.874","255.8","3.071","279.0","1001.841","16.48","74.16","0.0","0.0"],
    [1506582,"2026-02-10 21:20:00","53079","1.96","253.3","3.397","213.4","1001.859","16.28","75.21","0.0","0.0"],
    [1506583,"2026-02-10 21:30:00","53080","1.8559999999999999","302.8","2.7439999999999998","319.2","1002.058","16.28","75.08","0.0","0.0"],
    [1506584,"2026-02-10 21:40:00","53081","1.745","298.6","3.005","305.0","1002.103","16.15","76.11","0.0","0.0"],
    [1506585,"2026-02-10 21:50:00","53082","2.362","278.0","3.7569999999999997","281.2","1002.294","16.32","75.65","0.0","0.0"],
    [1506586,"2026-02-10 22:00:00","53083","1.8730000000000002","280.4","3.6260000000000003","277.1","1002.051","16.41","74.61","0.0","0.0"],
    [1506587,"2026-02-10 22:10:00","53084","1.9280000000000002","257.9","3.005","257.1","1001.784","16.35","74.63","0.0","0.0"],
    [1506588,"2026-02-10 22:20:00","53085","2.294","263.4","2.9730000000000003","262.7","1001.753","16.28","74.52","0.0","0.0"],
    [1506589,"2026-02-10 22:30:00","53086","2.248","270.2","2.7110000000000003","275.4","1001.727","16.18","75.12","0.0","0.0"],
    [1506590,"2026-02-10 22:40:00","53087","2.097","271.8","2.8089999999999997","274.5","1001.769","16.23","75.38","0.0","0.0"],
    [1506591,"2026-02-10 22:50:00","53088","1.8259999999999998","267.4","2.6460000000000004","282.2","1001.326","16.29","74.94","0.0","0.0"],
    [1506592,"2026-02-10 23:00:00","53089","1.81","274.6","2.319","287.3","1001.259","16.52","74.4","0.0","0.0"],
    [1506593,"2026-02-10 23:10:00","53090","1.663","269.4","2.319","263.2","1001.409","16.52","73.86","0.0","0.0"],
    [1506594,"2026-02-10 23:20:00","53091","2.052","264.0","3.071","265.6","1001.64","16.86","72.12","0.0","0.0"],
    [1506595,"2026-02-10 23:30:00","53092","1.778","264.8","2.9730000000000003","289.9","1001.739","17.11","70.13","0.0","0.0"],
    [1506596,"2026-02-10 23:40:00","53093","2.205","232.5","3.365","226.8","1001.823","17.5","68.35","0.0","0.0"],
    [1506597,"2026-02-10 23:50:00","53094","2.463","214.2","3.887","215.0","1001.506","18.39","62.22","0.0","0.0"],
    [1506598,"2026-02-11 00:00:00","53095","2.306","211.4","3.92","224.3","1001.616","18.75","58.99","0.0","0.0"],
    [1506599,"2026-02-11 00:10:00","53096","2.637","208.5","4.312","218.1","1001.818","18.81","57.52","0.0","0.0"],
    [1506600,"2026-02-11 00:20:00","53097","2.8689999999999998","241.4","8.43","279.4","1001.519","19.01","55.89","0.0","0.0"],
    [1506601,"2026-02-11 00:30:00","53098","4.906000000000001","275.3","9.38","280.8","1001.236","19.68","52.45","0.0","0.0"],
    [1506602,"2026-02-11 00:40:00","53099","5.016","274.6","8.89","266.6","1001.319","19.78","51.26","0.0","0.0"],
    [1506603,"2026-02-11 00:50:00","53100","5.7170000000000005","276.8","9.08","280.7","1001.685","20.02","50.04","0.0","0.0"],
    [1506604,"2026-02-11 01:00:00","53101","3.3160000000000003","269.7","5.7170000000000005","274.2","1001.982","19.6","51.06","0.0","0.0"],
    [1506605,"2026-02-11 01:10:00","53102","3.3339999999999996","257.2","6.305","263.8","1001.934","19.66","50.73","0.0","0.0"],
    [1506606,"2026-02-11 01:20:00","53103","2.741","251.6","6.631","250.2","1001.995","19.77","49.69","0.0","0.0"],
    [1506607,"2026-02-11 01:30:00","53104","2.3369999999999997","245.6","5.39","285.0","1002.227","19.64","49.35","0.0","0.0"],
    [1506608,"2026-02-11 01:40:00","53105","3.613","279.8","7.0889999999999995","276.8","1002.342","19.7","48.79","0.0","0.0"],
    [1506609,"2026-02-11 01:50:00","53106","4.129","294.7","7.4479999999999995","283.8","1002.303","19.92","48.01","0.0","0.0"],
    [1506610,"2026-02-11 02:00:00","53107","4.133","281.3","7.644","299.0","1002.199","19.73","48.16","0.0","0.0"],
    [1506611,"2026-02-11 02:10:00","53108","7.1979999999999995","287.8","11.01","281.3","1001.987","19.87","47.08","0.0","0.0"],
    [1506612,"2026-02-11 02:20:00","53109","8.64","285.0","13.92","280.2","1002.294","19.94","46.21","0.0","0.0"],
    [1506613,"2026-02-11 02:30:00","53110","8.43","284.7","13.72","278.9","1002.191","19.83","45.64","0.0","0.0"],
    [1506614,"2026-02-11 02:40:00","53111","9.13","289.2","13.39","272.6","1002.007","19.87","43.83","0.0","0.0"],
    [1506615,"2026-02-11 02:50:00","53112","9.3","290.4","15.52","279.4","1002.019","19.71","43.3","0.0","0.0"],
    [1506616,"2026-02-11 03:00:00","53113","9.76","296.0","15.68","311.5","1002.052","19.57","43.79","0.0","0.0"],
    [1506617,"2026-02-11 03:10:00","53114","10.26","297.7","16.27","299.9","1002.142","19.42","44.45","0.0","0.0"],
    [1506618,"2026-02-11 03:20:00","53115","11.32","298.4","17.54","287.4","1001.962","19.32","44.92","0.0","0.0"],
    [1506619,"2026-02-11 03:30:00","53116","11.43","293.1","18.75","297.9","1001.787","19.2","44.81","0.0","0.0"],
    [1506620,"2026-02-11 03:40:00","53117","11.21","293.5","18.62","307.0","1001.602","19.09","44.15","0.0","0.0"],
    [1506621,"2026-02-11 03:50:00","53118","11.71","295.2","18.2","289.5","1001.479","19.16","41.7","0.0","0.0"],
    [1506622,"2026-02-11 04:00:00","53119","12.89","296.7","21.0","295.0","1001.543","19.24","39.9","0.0","0.0"],
    [1506623,"2026-02-11 04:10:00","53120","12.73","292.9","20.35","302.9","1001.634","19.17","40.07","0.0","0.0"],
    [1506624,"2026-02-11 04:20:00","53121","13.07","291.8","19.99","279.3","1001.759","19.01","41.13","0.0","0.0"],
    [1506625,"2026-02-11 04:30:00","53122","12.73","288.0","19.24","288.6","1001.846","18.95","40.73","0.0","0.0"],
    [1506626,"2026-02-11 04:40:00","53123","12.36","286.2","18.59","288.4","1001.873","18.88","40.16","0.0","0.0"],
    [1506627,"2026-02-11 04:50:00","53124","10.85","289.6","16.46","298.2","1002.143","18.77","40.01","0.0","0.0"],
    [1506628,"2026-02-11 05:00:00","53125","10.68","288.3","18.26","320.1","1002.167","18.68","40.13","0.0","0.0"],
    [1506629,"2026-02-11 05:10:00","53126","11.33","290.2","15.94","303.4","1002.091","18.63","40.2","0.0","0.0"],
    [1506630,"2026-02-11 05:20:00","53127","9.9","293.0","15.03","300.7","1002.378","18.6","40.06","0.0","0.0"],
    [1506631,"2026-02-11 05:30:00","53128","9.29","293.4","17.8","299.4","1002.502","18.55","39.83","0.0","0.0"],
    [1506632,"2026-02-11 05:40:00","53129","9.2","291.6","15.94","291.5","1002.507","18.61","39.02","0.0","0.0"],
    [1506633,"2026-02-11 05:50:00","53130","9.92","290.4","16.46","281.6","1002.536","18.62","38.5","0.0","0.0"],
    [1506634,"2026-02-11 06:00:00","53131","8.77","280.9","15.61","276.1","1002.953","18.65","37.76","0.0","0.0"],
    [1506635,"2026-02-11 06:10:00","53132","5.815","269.5","11.92","291.2","1003.665","18.4","38.56","0.0","0.0"],
    [1506636,"2026-02-11 06:20:00","53133","4.773","256.6","9.83","261.8","1004.037","18.36","38.51","0.0","0.0"],
    [1506637,"2026-02-11 06:30:00","53134","3.0239999999999996","244.0","8.3","290.0","1004.294","18.26","38.86","0.0","0.0"],
    [1506638,"2026-02-11 06:40:00","53135","2.9939999999999998","240.5","6.795","238.7","1004.478","18.16","38.99","0.02","0.0"],
    [1506639,"2026-02-11 06:50:00","53136","2.688","248.8","6.795","276.3","1004.799","18.16","38.73","0.43","0.0"],
    [1506640,"2026-02-11 07:00:00","53137","3.338","277.0","6.697","275.4","1005.008","18.0","39.44","2.312","0.0"],
    [1506641,"2026-02-11 07:10:00","53138","3.9539999999999997","294.1","6.1739999999999995","286.5","1004.905","18.1","39.16","9.28","0.0"],
    [1506642,"2026-02-11 07:20:00","53139","3.358","306.3","5.455","286.7","1005.055","18.01","39.7","20.72","0.0"],
    [1506643,"2026-02-11 07:30:00","53140","3.036","290.9","6.7620000000000005","286.1","1005.288","18.1","39.26","28.28","0.0"],
    [1506644,"2026-02-11 07:40:00","53141","3.219","280.2","8.2","272.2","1005.66","17.96","39.67","38.55","0.0"],
    [1506645,"2026-02-11 07:50:00","53142","5.231","285.0","9.21","281.9","1005.622","18.15","39.23","39.71","0.0"],
    [1506646,"2026-02-11 08:00:00","53143","5.6979999999999995","287.1","8.75","298.7","1005.595","18.11","39.66","47.04","0.0"],
    [1506647,"2026-02-11 08:10:00","53144","8.08","285.6","11.4","301.1","1005.221","18.14","39.5","70.59","0.0"],
    [1506648,"2026-02-11 08:20:00","53145","7.582999999999999","280.7","11.2","273.5","1005.124","18.21","39.12","80.6","0.0"],
    [1506649,"2026-02-11 08:30:00","53146","5.351","262.8","9.64","280.3","1005.53","18.18","39.14","90.5","0.0"],
    [1506650,"2026-02-11 08:40:00","53147","4.448","256.9","8.43","244.7","1005.846","18.32","38.6","131.0","0.0"],
    [1506651,"2026-02-11 08:50:00","53148","3.199","244.0","6.697","264.1","1006.12","18.4","38.59","150.6","0.0"],
    [1506652,"2026-02-11 09:00:00","53149","2.6519999999999997","224.7","4.573","216.7","1006.169","17.84","42.58","130.1","0.0"],
    [1506653,"2026-02-11 09:10:00","53150","1.5819999999999999","251.5","3.887","222.0","1006.353","17.63","44.78","131.4","0.0"],
    [1506654,"2026-02-11 09:20:00","53151","3.7289999999999996","285.0","7.023","268.8","1006.359","18.32","40.47","175.9","0.0"],
    [1506655,"2026-02-11 09:30:00","53152","5.087","284.2","9.8","314.0","1006.452","18.73","38.0","134.4","0.0"],
    [1506656,"2026-02-11 09:40:00","53153","4.251","274.9","7.415","272.4","1006.991","18.78","38.22","337.9","0.0"],
    [1506657,"2026-02-11 09:50:00","53154","4.105","277.6","7.0889999999999995","283.2","1006.996","19.07","37.85","477.7","0.0"],
    [1506658,"2026-02-11 10:00:00","53155","4.195","289.2","6.5329999999999995","268.1","1006.696","19.11","38.01","485.2","0.0"],
    [1506659,"2026-02-11 10:10:00","53156","5.736000000000001","282.3","8.75","278.2","1006.679","19.31","37.54","495.2","0.0"],
    [1506660,"2026-02-11 10:20:00","53157","5.587999999999999","283.3","11.73","286.5","1006.613","19.66","37.11","515.8","0.0"],
    [1506661,"2026-02-11 10:30:00","53158","8.12","289.4","13.26","285.9","1006.298","19.72","36.45","471.2","0.0"],
    [1506662,"2026-02-11 10:40:00","53159","8.48","285.4","14.67","279.9","1006.204","19.87","36.19","554.9","0.0"],
    [1506663,"2026-02-11 10:50:00","53160","7.931","292.8","11.14","306.4","1006.248","20.0","35.88","566.1","0.0"],
    [1506664,"2026-02-11 11:00:00","53161","7.812","289.1","11.17","298.1","1006.187","20.26","35.22","585.6","0.0"],
    [1506665,"2026-02-11 11:10:00","53162","6.909","280.0","11.17","281.4","1006.065","20.42","34.88","505.3","0.0"],
    [1506666,"2026-02-11 11:20:00","53163","6.004","277.9","10.42","282.0","1005.876","20.61","34.64","575.2","0.0"],
    [1506667,"2026-02-11 11:30:00","53164","6.061","285.2","11.27","326.1","1005.748","20.63","34.31","563.8","0.0"],
    [1506668,"2026-02-11 11:40:00","53165","7.695","282.8","12.81","280.2","1005.622","20.58","33.62","588.9","0.0"],
    [1506669,"2026-02-11 11:50:00","53166","6.364","289.1","10.26","280.7","1005.635","20.64","33.62","610.7","0.0"],
    [1506670,"2026-02-11 12:00:00","53167","5.68","295.7","8.79","301.7","1005.499","20.64","34.06","612.2","0.0"],
    [1506671,"2026-02-11 12:10:00","53168","6.117999999999999","299.0","11.27","299.4","1005.518","20.76","34.53","559.1","0.0"],
    [1506672,"2026-02-11 12:20:00","53169","5.922999999999999","290.7","10.13","279.8","1005.38","20.62","35.34","540.5","0.0"],
    [1506673,"2026-02-11 12:30:00","53170","6.917999999999999","290.7","12.41","281.2","1004.971","20.62","35.49","613.9","0.0"],
    [1506674,"2026-02-11 12:40:00","53171","7.631","300.8","11.37","302.5","1004.793","20.54","35.52","623.9","0.0"],
    [1506675,"2026-02-11 12:50:00","53172","7.619","292.8","12.81","300.0","1004.599","20.66","34.87","563.7","0.0"],
    [1506676,"2026-02-11 13:00:00","53173","7.72","287.1","12.71","289.8","1004.406","20.69","34.57","582.6","0.0"],
    [1506677,"2026-02-11 13:10:00","53174","7.167000000000001","291.0","15.29","280.4","1004.233","20.72","34.32","512.5","0.0"],
    [1506678,"2026-02-11 13:20:00","53175","6.34","279.3","10.03","294.5","1004.096","20.82","34.52","448.5","0.0"],
    [1506679,"2026-02-11 13:30:00","53176","6.747000000000001","275.0","11.43","283.5","1004","20.68","34.9","170.3","0.0"],
    [1506680,"2026-02-11 13:40:00","53177","5.265","274.7","8.4","284.6","1004.014","20.6","35.36","259.2","0.0"],
    [1506681,"2026-02-11 13:50:00","53178","6.321000000000001","278.5","13.43","283.1","1003.786","20.66","35.33","243.0","0.0"],
    [1506682,"2026-02-11 14:00:00","53179","7.388999999999999","291.7","11.89","283.4","1003.599","20.61","35.35","286.0","0.0"],
    [1506683,"2026-02-11 14:10:00","53180","7.27","291.8","11.73","278.1","1003.388","20.61","36.06","572.8","0.0"],
    [1506684,"2026-02-11 14:20:00","53181","5.981","293.0","8.66","304.7","1003.212","20.81","36.09","450.5","0.0"],
    [1506685,"2026-02-11 14:30:00","53182","6.066","289.9","8.98","278.4","1003.06","20.99","35.71","377.3","0.0"],
    [1506686,"2026-02-11 14:40:00","53183","5.892","296.0","8.82","309.6","1003.199","20.99","35.63","309.3","0.0"],
    [1506687,"2026-02-11 14:50:00","53184","5.364","296.0","8.85","292.1","1003.189","21.01","35.37","200.7","0.0"],
    [1506688,"2026-02-11 15:00:00","53185","5.031000000000001","290.1","8.53","300.3","1003.159","20.91","35.75","130.1","0.0"],
    [1506689,"2026-02-11 15:10:00","53186","3.4410000000000003","258.7","6.86","262.1","1003.216","20.96","36.07","154.0","0.0"],
    [1506690,"2026-02-11 15:20:00","53187","2.6639999999999997","249.0","5.684","283.5","1003.07","20.83","37.87","143.9","0.0"],
    [1506691,"2026-02-11 15:30:00","53188","3.015","231.2","6.042999999999999","206.3","1002.82","20.69","39.31","109.2","0.0"],
    [1506692,"2026-02-11 15:40:00","53189","3.699","239.9","7.382999999999999","261.2","1002.941","20.6","40.49","101.6","0.0"],
    [1506693,"2026-02-11 15:50:00","53190","4.305","239.2","8.04","238.4","1002.999","20.46","40.52","123.7","0.0"],
    [1506694,"2026-02-11 16:00:00","53191","3.3710000000000004","255.8","7.285","281.9","1003.021","20.26","41.2","88.3","0.0"],
    [1506695,"2026-02-11 16:10:00","53192","3.928","238.8","7.742000000000001","221.3","1002.632","20.08","41.44","53.34","0.0"],
    [1506696,"2026-02-11 16:20:00","53193","4.782","239.5","9.6","260.2","1002.451","19.99","41.82","40.8","0.0"],
    [1506697,"2026-02-11 16:30:00","53194","4.497","266.6","7.905","281.8","1002.202","19.85","42.6","31.03","0.0"],
    [1506698,"2026-02-11 16:40:00","53195","5.311","272.2","10.0","279.4","1001.975","19.71","43.21","18.6","0.0"],
    [1506699,"2026-02-11 16:50:00","53196","6.565","277.3","12.15","276.4","1001.698","19.63","43.46","10.22","0.0"],
    [1506700,"2026-02-11 17:00:00","53197","6.295","279.4","9.77","280.1","1001.639","19.53","43.87","10.07","0.0"],
    [1506701,"2026-02-11 17:10:00","53198","6.077000000000001","283.0","10.26","288.0","1001.494","19.39","44.42","6.716","0.0"],
    [1506702,"2026-02-11 17:20:00","53199","6.722","284.8","10.19","290.5","1001.295","19.15","45.51","1.5490000000000002","0.0"],
    [1506703,"2026-02-11 17:30:00","53200","5.907","282.0","8.92","278.5","1001.396","18.95","46.71","0.261","0.0"],
    [1506704,"2026-02-11 17:40:00","53201","3.64","250.6","5.88","221.1","1001.662","18.78","47.93","0.0","0.0"],
    [1506705,"2026-02-11 17:50:00","53202","4.433","259.7","7.187","265.9","1001.844","18.66","49.17","0.0","0.0"],
    [1506706,"2026-02-11 18:00:00","53203","6.422000000000001","284.2","8.92","285.1","1001.668","18.33","51.32","0.0","0.0"],
    [1506707,"2026-02-11 18:10:00","53204","6.412000000000001","291.3","8.49","291.6","1001.541","17.87","54.55","0.0","0.0"],
    [1506708,"2026-02-11 18:20:00","53205","5.422000000000001","291.9","8.13","284.0","1001.369","17.37","58.17","0.0","0.0"],
    [1506709,"2026-02-11 18:30:00","53206","4.703","286.9","7.285","289.4","1001.412","17.06","60.88","0.0","0.0"],
    [1506710,"2026-02-11 18:40:00","53207","3.8280000000000003","278.9","5.782","287.3","1001.431","16.83","63.04","0.0","0.0"],
    [1506711,"2026-02-11 18:50:00","53208","3.97","279.0","6.109","295.0","1001.251","16.52","65.13","0.0","0.0"],
    [1506712,"2026-02-11 19:00:00","53209","3.3789999999999996","269.4","6.042999999999999","263.1","1001.157","16.25","67.49","0.0","0.0"],
    [1506713,"2026-02-11 19:10:00","53210","2.801","268.7","4.41","285.6","1000.853","16.06","69.44","0.0","0.0"],
    [1506714,"2026-02-11 19:20:00","53211","1.949","268.2","3.6260000000000003","281.5","1000.651","15.91","71.66","0.0","0.1"],
    [1506715,"2026-02-11 19:30:00","53212","2.545","285.0","4.671","280.9","1000.293","15.86","73.23","0.0","0.0"],
    [1506716,"2026-02-11 19:40:00","53213","2.753","299.1","4.606","299.5","1000.182","15.98","72.64","0.0","0.0"],
    [1506717,"2026-02-11 19:50:00","53214","3.313","309.8","5.815","324.1","1000.718","16.1","72.76","0.0","0.0"],
    [1506718,"2026-02-11 20:00:00","53215","4.477","317.0","6.827000000000001","318.2","1000.741","15.99","73.91","0.0","0.1"],
    [1506719,"2026-02-11 20:10:00","53216","4.248","320.8","6.566","320.8","1000.559","15.56","76.33","0.0","0.0"],
    [1506720,"2026-02-11 20:20:00","53217","5.113","321.0","7.905","334.5","1000.525","15.27","78.95","0.0","0.0"],
    [1506721,"2026-02-11 20:30:00","53218","3.6919999999999997","307.9","5.88","314.8","1000.319","15.27","80.2","0.0","0.0"],
    [1506722,"2026-02-11 20:40:00","53219","3.463","314.9","5.651","312.9","1000.208","15.26","80.1","0.0","0.0"],
    [1506723,"2026-02-11 20:50:00","53220","4.5169999999999995","319.9","6.305","322.6","1000.094","15.19","79.88","0.0","0.0"],
    [1506724,"2026-02-11 21:00:00","53221","2.946","305.6","5.1610000000000005","315.2","999.758","15.18","79.64","0.0","0.0"],
    [1506725,"2026-02-11 21:10:00","53222","2.266","299.7","3.365","306.4","999.4899","15.17","79.44","0.0","0.0"],
    [1506726,"2026-02-11 21:20:00","53223","2.065","272.8","2.94","262.6","999.6227","15.14","80.0","0.0","0.0"],
    [1506727,"2026-02-11 21:30:00","53224","2.221","270.9","3.528","291.0","999.4951","14.84","82.1","0.0","0.0"],
    [1506728,"2026-02-11 21:40:00","53225","2.707","267.4","4.247","274.9","999.5448","14.67","82.7","0.0","0.0"],
    [1506729,"2026-02-11 21:50:00","53226","2.27","259.2","3.659","269.1","999.5869","14.53","83.0","0.0","0.0"],
    [1506730,"2026-02-11 22:00:00","53227","2.285","268.2","3.495","282.5","999.4959","14.48","83.4","0.0","0.0"],
    [1506731,"2026-02-11 22:10:00","53228","2.738","282.9","4.541","282.0","999.4006","14.62","83.5","0.0","0.0"],
    [1506732,"2026-02-11 22:20:00","53229","2.2030000000000003","263.7","3.822","253.4","999.307","14.75","82.7","0.0","0.0"],
    [1506733,"2026-02-11 22:30:00","53230","2.1109999999999998","251.8","3.855","262.4","999.1962","14.84","82.1","0.0","0.0"],
    [1506734,"2026-02-11 22:40:00","53231","1.794","269.5","2.7769999999999997","261.7","999.1472","14.66","82.4","0.0","0.0"],
    [1506735,"2026-02-11 22:50:00","53232","2.214","285.2","3.299","296.1","999.1175","14.56","83.6","0.0","0.0"],
    [1506736,"2026-02-11 23:00:00","53233","2.081","265.1","3.234","269.7","999.1198","14.39","84.4","0.0","0.0"],
    [1506737,"2026-02-11 23:10:00","53234","1.916","263.7","2.9730000000000003","274.5","999.1539","14.26","85.6","0.0","0.0"],
    [1506738,"2026-02-11 23:20:00","53235","1.5030000000000001","255.5","2.9730000000000003","261.8","998.9984","14.25","86.5","0.0","0.0"],
    [1506739,"2026-02-11 23:30:00","53236","1.811","264.9","2.8089999999999997","268.9","999.0345","14.33","86.9","0.0","0.0"],
    [1506740,"2026-02-11 23:40:00","53237","1.248","204.1","2.156","197.3","999.0287","14.26","87.6","0.0","0.0"],
    [1506741,"2026-02-11 23:50:00","53238","2.342","195.7","3.92","194.8","998.8027","14.33","88.1","0.0","0.0"],
    [1506742,"2026-02-12 00:00:00","53239","0.846","193.1","2.45","193.4","998.7847","14.4","88.2","0.0","0.0"],
    [1506743,"2026-02-12 00:10:00","53240","1.3780000000000001","157.5","2.94","160.5","998.6179","14.35","88.2","0.0","0.0"],
    [1506744,"2026-02-12 00:20:00","53241","2.1719999999999997","169.5","2.94","158.3","998.4204","14.62","87.8","0.0","0.0"],
    [1506745,"2026-02-12 00:30:00","53242","4.021","281.9","12.32","283.0","998.1831","15.85","81.1","0.0","0.0"],
    [1506746,"2026-02-12 00:40:00","53243","9.4","289.9","18.88","290.5","997.994","18.26","56.22","0.0","0.0"],
    [1506747,"2026-02-12 00:50:00","53244","10.99","290.9","18.2","291.7","997.8113","18.75","46.06","0.0","0.0"],
    [1506748,"2026-02-12 01:00:00","53245","9.76","290.8","15.65","303.2","998.1199","18.6","43.24","0.0","0.0"],
    [1506749,"2026-02-12 01:10:00","53246","10.13","286.6","15.88","299.8","998.1465","18.35","43.63","0.0","0.0"],
    [1506750,"2026-02-12 01:20:00","53247","10.84","288.0","19.21","295.6","998.079","18.22","43.41","0.0","0.0"],
    [1506751,"2026-02-12 01:30:00","53248","13.45","286.5","22.47","292.2","997.9565","18.32","41.52","0.0","0.0"],
    [1506752,"2026-02-12 01:40:00","53249","11.74","282.7","19.67","276.5","998.222","18.2","40.9","0.0","0.0"],
    [1506753,"2026-02-12 01:50:00","53250","10.05","278.4","17.05","292.4","998.6105","17.96","40.78","0.0","0.0"],
    [1506754,"2026-02-12 02:00:00","53251","10.51","278.2","16.73","266.2","998.7095","17.79","40.36","0.0","0.0"],
    [1506755,"2026-02-12 02:10:00","53252","10.54","277.6","18.06","285.1","998.8771","17.76","39.3","0.0","0.0"],
    [1506756,"2026-02-12 02:20:00","53253","9.76","278.4","16.2","265.8","999.1293","17.63","39.42","0.0","0.0"],
    [1506757,"2026-02-12 02:30:00","53254","9.21","278.0","16.4","289.1","999.1221","17.53","39.27","0.0","0.0"],
    [1506758,"2026-02-12 02:40:00","53255","9.95","277.3","16.53","286.0","999.0961","17.44","39.16","0.0","0.0"],
    [1506759,"2026-02-12 02:50:00","53256","10.16","273.8","18.49","279.5","999.1698","17.4","38.87","0.0","0.0"],
    [1506760,"2026-02-12 03:00:00","53257","9.26","270.5","15.55","267.5","999.1291","17.27","39.17","0.0","0.0"],
    [1506761,"2026-02-12 03:10:00","53258","8.07","268.7","15.22","266.5","999.2001","17.1","39.69","0.0","0.0"],
    [1506762,"2026-02-12 03:20:00","53259","8.42","266.9","19.04","275.7","999.179","16.98","39.95","0.0","0.0"],
    [1506763,"2026-02-12 03:30:00","53260","7.702999999999999","266.7","14.83","263.9","999.2216","16.86","40.35","0.0","0.0"],
    [1506764,"2026-02-12 03:40:00","53261","7.635","270.4","14.01","275.0","999.3492","16.77","40.5","0.0","0.0"],
    [1506765,"2026-02-12 03:50:00","53262","8.04","261.8","17.28","258.6","999.1563","16.74","40.18","0.0","0.0"],
    [1506766,"2026-02-12 04:00:00","53263","7.751","264.3","19.6","259.8","998.9661","16.62","40.36","0.0","0.0"],
    [1506767,"2026-02-12 04:10:00","53264","8.44","268.6","15.22","281.2","998.845","16.64","39.91","0.0","0.0"],
    [1506768,"2026-02-12 04:20:00","53265","8.57","269.7","17.18","264.8","998.8083","16.59","39.7","0.0","0.0"],
    [1506769,"2026-02-12 04:30:00","53266","8.35","274.2","12.9","292.2","998.7488","16.53","39.53","0.0","0.0"],
    [1506770,"2026-02-12 04:40:00","53267","9.17","271.2","15.22","258.5","998.1613","16.43","39.22","0.0","0.0"],
    [1506771,"2026-02-12 04:50:00","53268","10.58","271.4","18.06","266.4","997.3471","16.41","38.82","0.0","0.0"],
    [1506772,"2026-02-12 05:00:00","53269","12.95","273.8","23.91","290.4","996.3666","16.44","37.44","0.0","0.0"],
    [1506773,"2026-02-12 05:10:00","53270","13.75","272.6","22.57","289.2","995.8731","16.43","36.28","0.0","0.0"],
    [1506774,"2026-02-12 05:20:00","53271","13.49","277.3","22.05","280.8","995.7003","16.42","35.08","0.0","0.0"],
    [1506775,"2026-02-12 05:30:00","53272","13.9","277.6","23.65","277.7","995.6651","16.44","33.64","0.0","0.0"],
    [1506776,"2026-02-12 05:40:00","53273","12.17","278.2","22.57","265.7","995.7021","16.46","32.24","0.0","0.0"],
    [1506777,"2026-02-12 05:50:00","53274","13.56","277.6","21.14","256.9","995.4554","16.56","30.18","0.0","0.0"],
    [1506778,"2026-02-12 06:00:00","53275","13.1","281.3","24.47","279.3","995.576","16.65","28.8","0.0","0.0"],
    [1506779,"2026-02-12 06:10:00","53276","13.63","282.6","20.55","284.0","995.6555","16.64","28.15","0.0","0.0"],
    [1506780,"2026-02-12 06:20:00","53277","12.47","282.6","18.69","283.7","995.883","16.55","28.43","0.0","0.0"],
    [1506781,"2026-02-12 06:30:00","53278","10.18","284.0","19.11","267.3","996.4245","16.42","28.95","0.0","0.0"],
    [1506782,"2026-02-12 06:40:00","53279","9.29","283.0","16.89","273.5","996.9191","16.32","29.68","0.0","0.0"],
    [1506783,"2026-02-12 06:50:00","53280","9.22","286.5","16.63","272.3","997.3152","16.26","29.6","0.7759999999999999","0.0"],
    [1506784,"2026-02-12 07:00:00","53281","11.54","283.4","20.68","291.7","997.4223","16.25","29.22","5.252000000000001","0.0"],
    [1506785,"2026-02-12 07:10:00","53282","10.09","279.7","17.97","285.8","997.912","16.14","29.71","17.19","0.0"],
    [1506786,"2026-02-12 07:20:00","53283","10.89","283.4","16.33","294.3","998.2253","16.13","29.57","36.63","0.0"],
    [1506787,"2026-02-12 07:30:00","53284","8.31","275.7","15.71","272.4","998.7079","16.09","29.59","62.45","0.0"],
    [1506788,"2026-02-12 07:40:00","53285","9.77","275.8","17.84","277.9","998.8532","16.15","29.23","93.2","0.0"],
    [1506789,"2026-02-12 07:50:00","53286","7.905","281.4","14.14","270.4","999.2437","16.19","29.02","123.8","0.0"],
    [1506790,"2026-02-12 08:00:00","53287","9.15","285.1","19.11","258.4","999.4504","16.26","28.63","154.9","0.0"],
    [1506791,"2026-02-12 08:10:00","53288","9.11","289.2","18.2","295.9","999.6733","16.31","28.25","185.3","0.0"],
    [1506792,"2026-02-12 08:20:00","53289","9.74","284.0","16.99","253.6","999.8094","16.37","27.91","215.3","0.0"],
    [1506793,"2026-02-12 08:30:00","53290","11.08","284.7","16.53","298.8","999.7372","16.43","27.53","245.6","0.0"],
    [1506794,"2026-02-12 08:40:00","53291","9.21","284.2","18.26","278.7","1000.028","16.5","27.45","274.8","0.0"],
    [1506795,"2026-02-12 08:50:00","53292","10.2","289.9","18.49","279.8","999.9953","16.56","27.3","304.9","0.0"],
    [1506796,"2026-02-12 09:00:00","53293","12.08","284.7","20.09","273.8","999.8278","16.64","27.06","335.3","0.0"],
    [1506797,"2026-02-12 09:10:00","53294","11.19","282.4","18.16","270.2","1000.099","16.63","27.45","365.6","0.0"],
    [1506798,"2026-02-12 09:20:00","53295","9.53","286.5","16.59","273.7","1000.434","16.64","28.15","394.7","0.0"],
    [1506799,"2026-02-12 09:30:00","53296","12.68","285.6","20.06","292.3","1000.259","16.64","28.08","424.2","0.0"],
    [1506800,"2026-02-12 09:40:00","53297","13.33","286.2","18.91","276.1","1000.274","16.63","28.45","449.5","0.0"],
    [1506801,"2026-02-12 09:50:00","53298","12.38","283.8","17.54","303.9","1000.518","16.69","28.71","475.1","0.0"],
    [1506802,"2026-02-12 10:00:00","53299","12.72","286.1","20.12","289.1","1000.543","16.74","28.69","498.3","0.0"],
    [1506803,"2026-02-12 10:10:00","53300","12.27","285.3","19.08","293.8","1000.776","16.95","28.52","520.9","0.0"],
    [1506804,"2026-02-12 10:20:00","53301","12.16","284.8","20.45","279.3","1000.888","17.12","28.07","540.7","0.0"],
    [1506805,"2026-02-12 10:30:00","53302","11.22","287.9","17.64","283.8","1001.265","17.17","28.02","557.1","0.0"],
    [1506806,"2026-02-12 10:40:00","53303","11.74","288.6","19.47","305.9","1001.461","17.09","28.71","575.1","0.0"],
    [1506807,"2026-02-12 10:50:00","53304","12.72","286.2","18.1","291.6","1001.59","17.18","28.93","590.7","0.0"],
    [1506808,"2026-02-12 11:00:00","53305","12.22","283.7","18.72","285.4","1001.7","17.37","28.79","604.2","0.0"],
    [1506809,"2026-02-12 11:10:00","53306","11.63","287.6","17.84","286.3","1002.062","17.42","29.26","614.1","0.0"],
    [1506810,"2026-02-12 11:20:00","53307","11.79","283.4","19.99","282.3","1002.302","17.61","29.25","623.5","0.0"],
    [1506811,"2026-02-12 11:30:00","53308","13.0","289.0","21.04","281.3","1002.306","17.31","29.89","632.4","0.0"],
    [1506812,"2026-02-12 11:40:00","53309","12.09","287.1","17.8","270.6","1002.707","17.38","30.1","636.4","0.0"],
    [1506813,"2026-02-12 11:50:00","53310","9.15","290.6","14.31","310.5","1003.207","17.53","30.47","639.4","0.0"],
    [1506814,"2026-02-12 12:00:00","53311","11.94","286.9","19.18","284.1","1002.931","17.62","29.89","644.2","0.0"],
    [1506815,"2026-02-12 12:10:00","53312","12.98","283.4","18.88","275.3","1002.969","17.6","29.73","644.8","0.0"],
    [1506816,"2026-02-12 12:20:00","53313","11.79","286.8","18.88","275.3","1003.042","17.73","29.41","642.2","0.0"],
    [1506817,"2026-02-12 12:30:00","53314","12.89","287.2","18.85","292.3","1002.997","17.93","28.38","636.9","0.0"],
    [1506818,"2026-02-12 12:40:00","53315","10.37","283.4","17.15","284.0","1003.335","18.15","28.92","632.6","0.0"],
    [1506819,"2026-02-12 12:50:00","53316","9.95","282.5","16.69","281.7","1003.356","18.27","28.95","627.9","0.0"],
    [1506820,"2026-02-12 13:00:00","53317","11.1","286.8","17.57","270.3","1003.398","18.19","28.65","620.6","0.0"],
    [1506821,"2026-02-12 13:10:00","53318","12.49","284.4","18.16","271.0","1003.276","17.97","29.13","611.4","0.0"],
    [1506822,"2026-02-12 13:20:00","53319","12.55","284.1","21.69","282.0","1003.409","17.95","29.13","601.0","0.0"],
    [1506823,"2026-02-12 13:30:00","53320","10.48","286.3","17.05","310.5","1003.593","18.14","28.96","586.7","0.0"],
    [1506824,"2026-02-12 13:40:00","53321","10.61","294.5","15.88","265.3","1003.516","18.09","28.91","572.3","0.0"],
    [1506825,"2026-02-12 13:50:00","53322","9.22","286.7","13.98","276.9","1003.593","18.47","28.13","555.6","0.0"],
    [1506826,"2026-02-12 14:00:00","53323","10.44","286.7","16.33","270.8","1003.724","18.48","28.06","536.8","0.0"],
    [1506827,"2026-02-12 14:10:00","53324","10.6","291.5","16.69","296.9","1003.7","18.36","27.8","517.7","0.0"],
    [1506828,"2026-02-12 14:20:00","53325","11.21","285.3","18.59","284.2","1003.913","18.42","27.94","497.1","0.0"],
    [1506829,"2026-02-12 14:30:00","53326","9.82","290.5","15.39","295.3","1004.137","18.4","28.21","474.4","0.0"],
    [1506830,"2026-02-12 14:40:00","53327","10.62","291.4","16.37","299.6","1004.131","18.31","27.96","450.6","0.0"],
    [1506831,"2026-02-12 14:50:00","53328","8.95","293.9","16.07","297.2","1004.319","18.41","28.19","425.6","0.0"],
    [1506832,"2026-02-12 15:00:00","53329","9.44","294.4","14.44","285.7","1004.328","18.31","28.59","400.0","0.0"],
    [1506833,"2026-02-12 15:10:00","53330","9.8","293.8","16.1","303.6","1004.347","18.24","29.19","373.5","0.0"],
    [1506834,"2026-02-12 15:20:00","53331","9.86","287.9","15.45","276.1","1004.429","18.22","29.35","345.0","0.0"],
    [1506835,"2026-02-12 15:30:00","53332","11.53","288.5","16.76","287.6","1004.373","18.18","28.61","316.5","0.0"],
    [1506836,"2026-02-12 15:40:00","53333","11.01","286.2","16.01","273.7","1004.529","18.2","28.11","286.2","0.0"],
    [1506837,"2026-02-12 15:50:00","53334","9.49","292.0","14.05","290.8","1004.742","18.22","28.26","256.8","0.0"],
    [1506838,"2026-02-12 16:00:00","53335","10.08","293.5","16.82","306.0","1004.793","18.16","28.37","226.5","0.0"],
    [1506839,"2026-02-12 16:10:00","53336","10.63","291.6","15.84","294.3","1004.947","18.11","28.26","196.3","0.0"],
    [1506840,"2026-02-12 16:20:00","53337","11.7","289.2","17.48","302.8","1004.959","18.05","28.49","171.6","0.0"],
    [1506841,"2026-02-12 16:30:00","53338","10.69","291.7","16.17","280.1","1005.013","18.01","28.65","136.4","0.0"],
    [1506842,"2026-02-12 16:40:00","53339","10.57","289.7","15.32","298.1","1005.141","17.97","28.6","76.78","0.0"],
    [1506843,"2026-02-12 16:50:00","53340","9.36","286.8","13.62","294.5","1005.376","17.9","28.38","23.04","0.0"],
    [1506844,"2026-02-12 17:00:00","53341","8.77","287.9","13.56","280.7","1005.519","17.84","28.12","16.78","0.0"],
    [1506845,"2026-02-12 17:10:00","53342","8.84","287.0","14.34","285.1","1005.594","17.78","28.04","11.57","0.0"],
    [1506846,"2026-02-12 17:20:00","53343","9.32","287.4","13.82","287.5","1005.609","17.71","28.02","4.988","0.0"],
    [1506847,"2026-02-12 17:30:00","53344","8.1","291.4","12.58","280.0","1005.833","17.61","28.2","0.645","0.0"],
    [1506848,"2026-02-12 17:40:00","53345","8.5","287.1","12.71","280.3","1005.978","17.52","28.44","0.0","0.0"],
    [1506849,"2026-02-12 17:50:00","53346","8.78","289.8","14.93","292.9","1006.176","17.48","28.59","0.0","0.0"],
    [1506850,"2026-02-12 18:00:00","53347","7.081","286.0","11.79","283.4","1006.538","17.37","28.92","0.0","0.0"],
    [1506851,"2026-02-12 18:10:00","53348","7.108","289.1","10.78","268.4","1006.619","17.28","29.11","0.0","0.0"],
    [1506852,"2026-02-12 18:20:00","53349","7.13","288.9","11.14","273.4","1006.588","17.23","29.2","0.0","0.0"],
    [1506853,"2026-02-12 18:30:00","53350","6.984","289.4","12.12","313.2","1006.609","17.15","29.65","0.0","0.0"],
    [1506854,"2026-02-12 18:40:00","53351","7.099","289.0","11.6","298.3","1006.524","17.13","30.08","0.0","0.0"],
    [1506855,"2026-02-12 18:50:00","53352","6.729","288.6","10.71","281.9","1006.633","17.07","30.4","0.0","0.0"],
    [1506856,"2026-02-12 19:00:00","53353","5.785","284.3","9.18","273.7","1006.782","17.08","30.44","0.0","0.0"],
    [1506857,"2026-02-12 19:10:00","53354","6.007000000000001","285.5","9.57","275.4","1006.707","17.08","30.4","0.0","0.0"],
    [1506858,"2026-02-12 19:20:00","53355","5.135","289.4","7.481","297.4","1006.587","17.05","30.53","0.0","0.0"],
    [1506859,"2026-02-12 19:30:00","53356","5.041","291.4","8.95","282.4","1006.624","17.0","30.98","0.0","0.0"],
    [1506860,"2026-02-12 19:40:00","53357","4.012","282.6","6.7620000000000005","291.2","1006.791","16.92","31.29","0.0","0.0"],
    [1506861,"2026-02-12 19:50:00","53358","3.5589999999999997","285.1","5.7170000000000005","293.2","1006.998","16.85","31.39","0.0","0.0"],
    [1506862,"2026-02-12 20:00:00","53359","2.447","281.2","4.018","268.5","1007.272","16.72","31.81","0.0","0.0"],
    [1506863,"2026-02-12 20:10:00","53360","2.628","283.8","4.083","288.7","1007.282","16.72","31.74","0.0","0.0"],
    [1506864,"2026-02-12 20:20:00","53361","2.16","273.3","3.43","295.2","1007.367","16.57","31.92","0.0","0.0"],
    [1506865,"2026-02-12 20:30:00","53362","2.5469999999999997","280.0","3.855","299.1","1007.374","16.6","31.79","0.0","0.0"],
    [1506866,"2026-02-12 20:40:00","53363","3.1630000000000003","291.5","5.521","307.4","1007.259","16.65","32.02","0.0","0.0"],
    [1506867,"2026-02-12 20:50:00","53364","3.825","286.9","6.631","290.3","1007.278","16.53","33.11","0.0","0.0"],
    [1506868,"2026-02-12 21:00:00","53365","3.87","273.4","6.501","253.8","1007.202","16.45","33.13","0.0","0.0"],
    [1506869,"2026-02-12 21:10:00","53366","4.357","267.5","7.285","287.4","1007.096","16.38","33.52","0.0","0.0"],
    [1506870,"2026-02-12 21:20:00","53367","3.409","263.4","6.272","277.2","1007.02","16.26","34.47","0.0","0.0"],
    [1506871,"2026-02-12 21:30:00","53368","5.416","271.2","9.05","268.2","1006.843","16.35","34.41","0.0","0.0"],
    [1506872,"2026-02-12 21:40:00","53369","5.684","285.4","8.75","280.7","1006.715","16.55","34.1","0.0","0.0"],
    [1506873,"2026-02-12 21:50:00","53370","5.666","285.5","8.92","283.7","1006.556","16.62","33.48","0.0","0.0"],
    [1506874,"2026-02-12 22:00:00","53371","5.42","282.3","9.31","281.0","1006.358","16.74","32.93","0.0","0.0"],
    [1506875,"2026-02-12 22:10:00","53372","3.91","284.2","7.023","286.7","1006.27","16.68","33.22","0.0","0.0"],
    [1506876,"2026-02-12 22:20:00","53373","2.843","272.3","5.749","290.1","1006.203","16.6","33.45","0.0","0.0"],
    [1506877,"2026-02-12 22:30:00","53374","2.239","253.3","5.357","272.9","1006.274","16.63","34.01","0.0","0.0"],
    [1506878,"2026-02-12 22:40:00","53375","3.8960000000000004","157.1","6.141","164.5","1006.477","16.53","35.95","0.0","0.0"],
    [1506879,"2026-02-12 22:50:00","53376","4.637","186.2","6.9910000000000005","198.9","1006.632","16.08","41.57","0.0","0.0"],
    [1506880,"2026-02-12 23:00:00","53377","3.485","194.7","5.553","197.3","1006.645","15.58","45.56","0.0","0.0"],
    [1506881,"2026-02-12 23:10:00","53378","1.557","269.8","3.92","234.9","1006.532","16.01","38.71","0.0","0.0"],
    [1506882,"2026-02-12 23:20:00","53379","3.76","308.1","6.664","310.3","1006.233","16.28","36.94","0.0","0.0"],
    [1506883,"2026-02-12 23:30:00","53380","2.88","336.4","5.194","328.3","1006.188","16.12","37.84","0.0","0.0"],
    [1506884,"2026-02-12 23:40:00","53381","1.119","195.0","3.659","163.6","1006.4","16.03","38.84","0.0","0.0"],
    [1506885,"2026-02-12 23:50:00","53382","4.005","186.9","5.619","175.8","1006.496","16.16","39.44","0.0","0.0"],
    [1506886,"2026-02-13 00:00:00","53383","3.963","216.6","7.35","204.4","1006.477","16.27","38.35","0.0","0.0"],
    [1506887,"2026-02-13 00:10:00","53384","4.46","271.4","8.2","277.3","1005.85","15.9","39.62","0.0","0.0"],
    [1506888,"2026-02-13 00:20:00","53385","4.913","283.4","7.0889999999999995","277.0","1005.502","15.75","39.77","0.0","0.0"],
    [1506889,"2026-02-13 00:30:00","53386","3.6189999999999998","279.7","6.827000000000001","289.0","1005.738","15.84","38.82","0.0","0.0"],
    [1506890,"2026-02-13 00:40:00","53387","1.0190000000000001","216.6","2.156","198.6","1005.79","15.62","39.42","0.0","0.0"],
    [1506891,"2026-02-13 00:50:00","53388","2.9560000000000004","185.7","4.573","195.7","1005.657","15.32","44.0","0.0","0.0"],
    [1506892,"2026-02-13 01:00:00","53389","3.3169999999999997","206.3","4.802","203.7","1005.44","14.92","46.91","0.0","0.0"],
    [1506893,"2026-02-13 01:10:00","53390","2.657","237.1","4.9","224.5","1005.166","15.14","42.37","0.0","0.0"],
    [1506894,"2026-02-13 01:20:00","53391","2.52","280.4","4.769","282.8","1004.923","14.85","43.32","0.0","0.0"],
    [1506895,"2026-02-13 01:30:00","53392","1.859","159.3","4.2139999999999995","153.9","1005.17","14.85","43.73","0.0","0.0"],
    [1506896,"2026-02-13 01:40:00","53393","3.4160000000000004","191.5","5.227","167.5","1005.341","14.8","48.44","0.0","0.0"],
    [1506897,"2026-02-13 01:50:00","53394","3.588","284.1","5.422999999999999","285.5","1004.574","14.8","46.49","0.0","0.0"],
    [1506898,"2026-02-13 02:00:00","53395","3.218","227.2","5.782","213.8","1004.842","14.81","44.93","0.0","0.0"],
    [1506899,"2026-02-13 02:10:00","53396","4.367","279.2","6.925","284.1","1004.31","14.89","44.13","0.0","0.0"],
    [1506900,"2026-02-13 02:20:00","53397","2.764","259.6","5.684","286.4","1004.293","14.76","44.23","0.0","0.0"],
    [1506901,"2026-02-13 02:30:00","53398","1.999","261.0","4.279","271.2","1004.177","14.5","45.24","0.0","0.0"],
    [1506902,"2026-02-13 02:40:00","53399","3.655","283.3","5.292000000000001","293.4","1003.649","14.48","45.72","0.0","0.0"],
    [1506903,"2026-02-13 02:50:00","53400","2.701","229.0","4.149","240.4","1003.764","14.38","45.8","0.0","0.0"],
    [1506904,"2026-02-13 03:00:00","53401","2.245","227.5","3.92","229.9","1003.352","14.44","45.52","0.0","0.0"],
    [1506905,"2026-02-13 03:10:00","53402","2.8310000000000004","217.0","4.606","227.1","1003.151","14.17","47.73","0.0","0.0"],
    [1506906,"2026-02-13 03:20:00","53403","3.358","231.5","4.998","218.7","1002.731","14.32","47.2","0.0","0.0"],
    [1506907,"2026-02-13 03:30:00","53404","3.89","207.5","5.455","215.3","1002.835","14.27","47.48","0.0","0.0"],
    [1506908,"2026-02-13 03:40:00","53405","3.823","226.8","6.109","220.2","1002.754","14.22","47.57","0.0","0.0"],
    [1506909,"2026-02-13 03:50:00","53406","3.4330000000000003","223.5","6.141","225.2","1002.447","14.46","45.94","0.0","0.0"],
    [1506910,"2026-02-13 04:00:00","53407","3.398","224.0","5.194","225.3","1002.26","14.35","46.41","0.0","0.0"],
    [1506911,"2026-02-13 04:10:00","53408","2.367","234.5","4.279","238.7","1002.063","14.23","47.34","0.0","0.0"],
    [1506912,"2026-02-13 04:20:00","53409","2.249","203.4","3.659","213.1","1001.968","14.34","47.88","0.0","0.0"],
    [1506913,"2026-02-13 04:30:00","53410","2.8110000000000004","194.4","4.377","209.5","1001.864","14.1","52.28","0.0","0.0"],
    [1506914,"2026-02-13 04:40:00","53411","3.179","226.1","4.704","235.2","1001.578","14.01","53.98","0.0","0.0"],
    [1506915,"2026-02-13 04:50:00","53412","3.41","237.8","5.325","253.9","1001.239","14.26","48.82","0.0","0.0"],
    [1506916,"2026-02-13 05:00:00","53413","2.759","229.0","3.985","227.4","1001.161","14.13","48.58","0.0","0.0"],
    [1506917,"2026-02-13 05:10:00","53414","3.196","222.0","4.867","215.3","1001.047","14.19","47.65","0.0","0.0"],
    [1506918,"2026-02-13 05:20:00","53415","2.001","233.2","3.659","224.9","1000.864","14.25","46.7","0.0","0.0"],
    [1506919,"2026-02-13 05:30:00","53416","1.433","251.0","2.156","248.7","1000.725","14.23","46.28","0.0","0.0"],
    [1506920,"2026-02-13 05:40:00","53417","1.339","282.2","2.319","256.0","1000.322","13.82","48.07","0.0","0.0"],
    [1506921,"2026-02-13 05:50:00","53418","1.401","290.6","2.156","293.7","1000.134","13.76","49.45","0.0","0.0"],
    [1506922,"2026-02-13 06:00:00","53419","1.86","288.1","2.7439999999999998","280.0","1000.002","13.88","48.83","0.0","0.0"],
    [1506923,"2026-02-13 06:10:00","53420","2.02","302.4","3.136","297.3","999.8541","14.07","47.88","0.0","0.0"],
    [1506924,"2026-02-13 06:20:00","53421","0.905","260.5","1.8619999999999999","191.6","1000.014","14.02","48.27","0.0","0.0"],
    [1506925,"2026-02-13 06:30:00","53422","1.5230000000000001","191.1","2.417","190.6","999.9941","13.84","51.54","0.0","0.0"],
    [1506926,"2026-02-13 06:40:00","53423","1.149","178.8","1.699","192.1","999.6826","13.52","55.0","0.0","0.0"],
    [1506927,"2026-02-13 06:50:00","53424","0.8109999999999999","155.3","1.797","176.9","999.2407","13.68","56.87","0.226","0.0"],
    [1506928,"2026-02-13 07:00:00","53425","2.125","179.4","2.7769999999999997","171.6","999.0127","13.38","60.51","1.916","0.0"],
    [1506929,"2026-02-13 07:10:00","53426","3.0189999999999997","178.6","3.593","175.5","998.8389","13.54","64.23","4.283","0.0"],
    [1506930,"2026-02-13 07:20:00","53427","2.151","206.6","3.005","195.0","998.9211","13.18","65.66","7.046","0.0"],
    [1506931,"2026-02-13 07:30:00","53428","1.828","220.6","2.287","218.8","999.1937","13.44","59.26","15.62","0.0"],
    [1506932,"2026-02-13 07:40:00","53429","1.8940000000000001","207.2","2.875","206.2","998.9236","13.59","56.88","24.22","0.0"],
    [1506933,"2026-02-13 07:50:00","53430","1.6059999999999999","221.4","2.613","209.1","998.4996","13.63","58.92","42.77","0.0"],
    [1506934,"2026-02-13 08:00:00","53431","2.033","202.7","3.201","200.7","998.2318","13.66","59.89","40.68","0.0"],
    [1506935,"2026-02-13 08:10:00","53432","1.161","216.1","2.7110000000000003","198.3","998.0314","13.6","61.26","40.77","0.0"],
    [1506936,"2026-02-13 08:20:00","53433","1.2790000000000001","319.2","2.0909999999999997","300.3","997.6385","13.36","60.52","42.18","0.0"],
    [1506937,"2026-02-13 08:30:00","53434","0.6459999999999999","340.9","1.274","343.8","997.3757","13.34","59.42","28.15","0.0"],
    [1506938,"2026-02-13 08:40:00","53435","0.685","21.68","1.96","328.5","997.0296","13.37","60.64","25.31","0.0"],
    [1506939,"2026-02-13 08:50:00","53436","1.6340000000000001","352.6","3.103","348.7","996.6477","13.16","62.18","28.88","0.1"],
    [1506940,"2026-02-13 09:00:00","53437","1.919","16.24","2.6460000000000004","23.35","996.3715","13.29","64.51","41.36","0.1"],
    [1506941,"2026-02-13 09:10:00","53438","1.883","13.05","2.8089999999999997","20.16","996.2559","13.23","65.88","47.47","0.0"],
    [1506942,"2026-02-13 09:20:00","53439","1.59","350.7","2.8089999999999997","21.41","996.2068","13.27","66.69","38.91","0.1"],
    [1506943,"2026-02-13 09:30:00","53440","2.043","10.13","2.8089999999999997","19.13","995.8379","13.34","68.45","45.26","0.0"],
    [1506944,"2026-02-13 09:40:00","53441","1.107","329.4","2.123","295.9","995.6937","13.64","72.08","52.49","0.0"],
    [1506945,"2026-02-13 09:50:00","53442","0.757","243.6","2.254","205.9","995.5905","13.5","74.25","43.71","0.2"],
    [1506946,"2026-02-13 10:00:00","53443","1.105","218.7","3.136","211.2","995.4465","13.07","77.07","50.3","0.2"],
    [1506947,"2026-02-13 10:10:00","53444","0.509","271.8","1.568","276.0","995.1141","12.94","79.23","46.26","0.3"],
    [1506948,"2026-02-13 10:20:00","53445","0.7909999999999999","267.8","1.829","285.1","994.8724","12.69","81.6","45.16","0.5"],
    [1506949,"2026-02-13 10:30:00","53446","0.109","271.5","0.8490000000000001","261.6","994.5914","12.78","84.4","61.7","0.4"],
    [1506950,"2026-02-13 10:40:00","53447","0.23800000000000002","257.9","1.111","187.7","994.4049","12.93","86.5","57.66","0.5"],
    [1506951,"2026-02-13 10:50:00","53448","0.9229999999999999","265.3","1.829","258.4","994.3307","12.89","88.8","77.98","0.2"],
    [1506952,"2026-02-13 11:00:00","53449","0.6","276.1","1.47","261.7","993.9372","12.64","90.5","92.1","0.2"],
    [1506953,"2026-02-13 11:10:00","53450","0.889","319.6","1.5030000000000001","306.4","993.5276","12.49","92.0","45.88","0.5"],
    [1506954,"2026-02-13 11:20:00","53451","0.5760000000000001","339.2","1.111","329.2","993.144","12.43","93.5","30.9","0.4"],
    [1506955,"2026-02-13 11:30:00","53452","0.276","343.9","0.7190000000000001","346.6","992.8774","12.53","94.5","59.37","0.2"],
    [1506956,"2026-02-13 11:40:00","53453","0.639","33.17","1.895","38.03","992.4277","12.49","95.4","95.4","0.1"],
    [1506957,"2026-02-13 11:50:00","53454","2.365","27.95","4.1160000000000005","31.58","991.8675","12.48","96.3","101.5","0.1"],
    [1506958,"2026-02-13 12:00:00","53455","3.8169999999999997","32.15","4.181","35.55","991.4077","12.15","97.3","60.44","0.1"],
    [1506959,"2026-02-13 12:10:00","53456","4.167","28.61","4.573","31.84","990.949","12.09","98.8","43.93","0.4"],
    [1506960,"2026-02-13 12:20:00","53457","3.8710000000000004","30.89","4.41","28.11","990.694","11.92","99.8","39.59","0.6"],
    [1506961,"2026-02-13 12:30:00","53458","3.6630000000000003","27.81","4.802","38.08","990.194","12.02","100.0","54.93","0.5"],
    [1506962,"2026-02-13 12:40:00","53459","5.025","21.49","6.272","20.78","989.5579","11.88","100.0","118.6","0.4"],
    [1506963,"2026-02-13 12:50:00","53460","5.76","22.85","6.795","22.08","988.8972","11.71","100.0","95.1","0.3"],
    [1506964,"2026-02-13 13:00:00","53461","5.142","24.96","6.5329999999999995","14.39","988.572","11.63","100.0","49.49","0.3"],
    [1506965,"2026-02-13 13:10:00","53462","4.353","28.57","5.1610000000000005","27.22","988.1622","11.68","100.0","68.22","0.3"],
    [1506966,"2026-02-13 13:20:00","53463","4.626","30.57","5.553","33.28","987.5692","11.67","100.0","82.4","0.2"],
    [1506967,"2026-02-13 13:30:00","53464","5.3629999999999995","29.78","6.501","23.83","987.0301","11.56","100.0","45.76","0.3"],
    [1506968,"2026-02-13 13:40:00","53465","5.821000000000001","28.67","6.631","23.03","986.4853","11.55","100.0","46.62","0.4"],
    [1506969,"2026-02-13 13:50:00","53466","6.1339999999999995","22.26","7.056","24.83","986.0715","11.56","100.0","39.76","0.7"],
    [1506970,"2026-02-13 14:00:00","53467","5.335","14.51","7.317","28.21","985.7454","11.77","100.0","42.56","1.0"],
    [1506971,"2026-02-13 14:10:00","53468","3.655","280.5","6.599","272.1","985.9407","11.74","100.0","27.13","1.3"],
    [1506972,"2026-02-13 14:20:00","53469","2.562","300.2","3.92","305.4","985.7217","11.8","100.0","112.7","0.3"],
    [1506973,"2026-02-13 14:30:00","53470","2.657","296.3","4.247","315.8","985.5258","11.94","100.0","119.4","0.2"],
    [1506974,"2026-02-13 14:40:00","53471","2.6630000000000003","279.5","4.9","260.9","985.6111","12.11","100.0","96.9","0.1"],
    [1506975,"2026-02-13 14:50:00","53472","3.491","270.8","6.042999999999999","258.7","985.6942","11.59","100.0","83.0","0.0"],
    [1506976,"2026-02-13 15:00:00","53473","3.1039999999999996","276.3","5.912999999999999","283.1","985.6942","11.07","100.0","53.87","0.1"],
    [1506977,"2026-02-13 15:10:00","53474","2.6460000000000004","262.4","4.018","258.2","985.7217","10.81","100.0","32.58","0.1"],
    [1506978,"2026-02-13 15:20:00","53475","2.022","261.5","3.6260000000000003","264.2","985.645","10.6","100.0","26.21","0.3"],
    [1506979,"2026-02-13 15:30:00","53476","2.125","254.1","3.659","281.6","985.571","10.39","100.0","21.63","0.2"],
    [1506980,"2026-02-13 15:40:00","53477","1.7069999999999999","237.3","3.1689999999999996","212.5","985.5339","10.31","100.0","26.65","0.2"],
    [1506981,"2026-02-13 15:50:00","53478","1.7530000000000001","229.6","3.005","225.2","985.3517","10.33","100.0","40.24","0.3"],
    [1506982,"2026-02-13 16:00:00","53479","2.016","223.5","4.018","215.5","985.1887","10.63","100.0","38.74","0.2"],
    [1506983,"2026-02-13 16:10:00","53480","2.305","229.8","4.1160000000000005","227.9","985.063","11.2","100.0","33.79","0.1"],
    [1506984,"2026-02-13 16:20:00","53481","3.549","234.7","6.403","270.7","984.9975","11.81","100.0","21.97","0.1"],
    [1506985,"2026-02-13 16:30:00","53482","3.702","235.2","7.121","222.7","984.9515","12.0","100.0","14.49","0.1"],
    [1506986,"2026-02-13 16:40:00","53483","4.375","233.4","7.742000000000001","268.8","984.908","11.98","100.0","10.67","0.1"],
    [1506987,"2026-02-13 16:50:00","53484","3.516","235.6","6.042999999999999","233.6","984.9437","11.93","100.0","7.319","0.2"],
    [1506988,"2026-02-13 17:00:00","53485","3.094","238.8","6.207000000000001","223.9","984.9877","11.91","100.0","5.223","0.1"],
    [1506989,"2026-02-13 17:10:00","53486","3.008","257.5","6.1739999999999995","262.4","985.0202","11.94","100.0","3.196","0.2"],
    [1506990,"2026-02-13 17:20:00","53487","2.1590000000000003","260.0","4.802","265.9","985.1269","11.78","100.0","1.24","0.1"],
    [1506991,"2026-02-13 17:30:00","53488","2.6010000000000004","268.7","4.802","276.2","985.2272","11.55","100.0","0.142","0.1"],
    [1506992,"2026-02-13 17:40:00","53489","2.6180000000000003","271.7","5.782","274.3","985.2648","11.29","100.0","0.002","0.1"],
    [1506993,"2026-02-13 17:50:00","53490","2.7430000000000003","269.5","4.279","271.0","985.3318","11.17","100.0","0.0","0.2"],
    [1506994,"2026-02-13 18:00:00","53491","2.231","264.6","4.2139999999999995","285.4","985.4645","11.08","100.0","0.0","0.1"],
    [1506995,"2026-02-13 18:10:00","53492","2.501","268.2","4.312","275.5","985.6179","11.02","100.0","0.0","0.2"],
    [1506996,"2026-02-13 18:20:00","53493","2.5669999999999997","264.0","4.508","258.8","985.7211","10.94","100.0","0.0","0.2"],
    [1506997,"2026-02-13 18:30:00","53494","2.888","254.9","5.88","254.1","985.7538","10.85","100.0","0.0","0.2"],
    [1506998,"2026-02-13 18:40:00","53495","3.213","251.5","6.1739999999999995","259.0","985.7833","10.79","100.0","0.0","0.5"],
    [1506999,"2026-02-13 18:50:00","53496","2.668","258.5","4.933","264.9","985.9089","10.75","100.0","0.0","0.4"],
    [1507000,"2026-02-13 19:00:00","53497","2.7680000000000002","265.4","5.063","259.9","986.0336","10.72","100.0","0.023","0.0"],
    [1507001,"2026-02-13 19:10:00","53498","2.641","256.8","4.508","257.2","986.0893","10.7","100.0","0.958","0.1"],
    [1507002,"2026-02-13 19:20:00","53499","1.8130000000000002","255.4","4.149","266.8","986.2225","10.8","100.0","1.5759999999999998","0.0"],
    [1507003,"2026-02-13 19:30:00","53500","3.3139999999999996","269.7","5.227","296.0","986.3151","10.9","97.0","3.892","0.0"],
    [1507004,"2026-02-13 19:40:00","53501","5.025","277.6","9.05","267.1","986.3904","11.23","89.7","6.127999999999999","0.0"],
    [1507005,"2026-02-13 19:50:00","53502","5.479","279.9","10.16","287.2","986.5147","11.5","82.3","6.716","0.0"],
    [1507006,"2026-02-13 20:00:00","53503","7.057","280.1","12.41","284.1","986.4574","11.54","78.15","7.228","0.0"],
    [1507007,"2026-02-13 20:10:00","53504","7.871","280.8","11.92","280.8","986.4959","11.49","76.46","6.4639999999999995","0.0"],
    [1507008,"2026-02-13 20:20:00","53505","7.9079999999999995","282.2","12.58","284.9","986.5595","11.5","74.16","4.7139999999999995","0.0"],
    [1507009,"2026-02-13 20:30:00","53506","8.03","278.0","12.05","279.4","986.5233","11.46","73.32","2.5869999999999997","0.0"],
    [1507010,"2026-02-13 20:40:00","53507","7.247000000000001","280.9","10.39","279.4","986.6979","11.5","72.27","1.548","0.0"],
    [1507011,"2026-02-13 20:50:00","53508","6.309","283.7","9.44","275.1","986.8361","11.46","71.94","0.5670000000000001","0.0"],
    [1507012,"2026-02-13 21:00:00","53509","6.882000000000001","282.8","10.75","277.5","986.8423","11.52","71.41","0.006999999999999999","0.0"],
    [1507013,"2026-02-13 21:10:00","53510","6.2829999999999995","281.6","9.57","292.1","986.8141","11.64","70.62","0.0","0.0"],
    [1507014,"2026-02-13 21:20:00","53511","5.734","278.5","9.9","287.3","986.8725","11.73","70.61","0.0","0.0"],
    [1507015,"2026-02-13 21:30:00","53512","5.401","275.0","8.69","289.6","986.9078","11.76","71.25","0.0","0.0"],
    [1507016,"2026-02-13 21:40:00","53513","5.126","274.9","9.38","281.4","986.843","11.97","70.66","0.0","0.0"],
    [1507017,"2026-02-13 21:50:00","53514","5.261","267.5","11.3","269.7","986.9014","12.13","69.82","0.0","0.0"],
    [1507018,"2026-02-13 22:00:00","53515","3.845","247.1","8.13","246.2","987.0432","12.24","68.77","0.0","0.0"],
    [1507019,"2026-02-13 22:10:00","53516","3.6710000000000003","230.0","7.35","224.6","987.2376","12.39","67.43","0.0","0.0"],
    [1507020,"2026-02-13 22:20:00","53517","3.4530000000000003","233.4","6.795","215.2","987.3943","12.46","66.33","0.0","0.0"],
    [1507021,"2026-02-13 22:30:00","53518","3.065","246.8","6.827000000000001","256.7","987.4681","12.4","66.08","0.0","0.0"],
    [1507022,"2026-02-13 22:40:00","53519","4.19","270.3","10.36","273.2","987.5187","12.32","66.12","0.0","0.0"],
    [1507023,"2026-02-13 22:50:00","53520","3.662","272.4","9.05","265.8","987.6209","12.29","65.81","0.0","0.0"],
    [1507024,"2026-02-13 23:00:00","53521","4.671","288.7","8.75","290.7","987.6635","12.22","65.71","0.0","0.0"],
    [1507025,"2026-02-13 23:10:00","53522","5.8870000000000005","288.1","10.06","269.5","987.7186","12.15","64.78","0.0","0.0"],
    [1507026,"2026-02-13 23:20:00","53523","4.5089999999999995","290.7","8.72","326.9","987.9481","12.06","64.61","0.0","0.0"],
    [1507027,"2026-02-13 23:30:00","53524","3.696","279.8","5.815","262.6","988.0695","11.92","64.87","0.0","0.0"],
    [1507028,"2026-02-13 23:40:00","53525","1.9140000000000001","280.9","4.704","298.6","988.1738","11.84","65.31","0.0","0.0"],
    [1507029,"2026-02-13 23:50:00","53526","1.814","284.8","4.802","345.0","988.3017","11.79","65.4","0.0","0.0"],
    [1507030,"2026-02-14 00:00:00","53527","1.5919999999999999","222.2","5.292000000000001","178.3","988.3965","11.76","65.2","0.0","0.0"],
    [1507031,"2026-02-14 00:10:00","53528","1.768","222.8","5.292000000000001","240.2","988.4756","11.72","64.64","0.0","0.0"],
    [1507032,"2026-02-14 00:20:00","53529","1.919","266.0","4.279","248.5","988.5944","11.65","64.91","0.0","0.0"],
    [1507033,"2026-02-14 00:30:00","53530","3.385","265.3","6.7620000000000005","267.5","988.5795","11.52","65.23","0.0","0.0"],
    [1507034,"2026-02-14 00:40:00","53531","2.6180000000000003","279.5","5.292000000000001","294.0","988.587","11.48","65.25","0.0","0.0"],
    [1507035,"2026-02-14 00:50:00","53532","3.293","293.3","6.86","276.9","988.5461","11.44","65.1","0.0","0.0"],
    [1507036,"2026-02-14 01:00:00","53533","3.002","298.7","7.382999999999999","317.1","988.574","11.42","64.81","0.0","0.0"],
    [1507037,"2026-02-14 01:10:00","53534","5.4270000000000005","298.8","9.44","301.7","988.5274","11.38","65.0","0.0","0.0"],
    [1507038,"2026-02-14 01:20:00","53535","5.114","311.7","8.98","281.3","988.8165","11.36","65.1","0.0","0.0"],
    [1507039,"2026-02-14 01:30:00","53536","4.0489999999999995","318.4","7.513","340.4","988.9747","11.32","64.53","0.0","0.0"],
    [1507040,"2026-02-14 01:40:00","53537","6.263","319.9","10.16","314.1","989.0103","11.34","64.2","0.0","0.0"],
    [1507041,"2026-02-14 01:50:00","53538","5.489","321.2","9.9","320.6","989.2811","11.33","64.29","0.0","0.0"],
    [1507042,"2026-02-14 02:00:00","53539","4.76","311.8","9.11","313.7","989.4512","11.29","64.2","0.0","0.0"],
    [1507043,"2026-02-14 02:10:00","53540","4.738","322.0","6.795","329.4","989.6091","11.3","63.65","0.0","0.0"],
    [1507044,"2026-02-14 02:20:00","53541","4.9910000000000005","323.9","8.59","328.3","989.6149","11.31","63.89","0.0","0.0"],
    [1507045,"2026-02-14 02:30:00","53542","5.261","318.2","8.49","322.6","989.6325","11.3","63.96","0.0","0.0"],
    [1507046,"2026-02-14 02:40:00","53543","6.367000000000001","311.0","9.87","319.7","989.5981","11.26","63.95","0.0","0.0"],
    [1507047,"2026-02-14 02:50:00","53544","7.305","309.0","10.98","314.2","989.5727","11.26","63.38","0.0","0.0"],
    [1507048,"2026-02-14 03:00:00","53545","6.999","308.7","12.15","301.9","989.6871","11.25","62.79","0.0","0.0"],
    [1507049,"2026-02-14 03:10:00","53546","6.209","302.8","10.62","327.5","989.7789","11.25","62.17","0.0","0.0"],
    [1507050,"2026-02-14 03:20:00","53547","6.602","304.2","9.96","309.8","989.8945","11.37","61.76","0.0","0.0"],
    [1507051,"2026-02-14 03:30:00","53548","6.545","311.8","9.7","322.9","990.0926","11.35","62.32","0.0","0.0"],
    [1507052,"2026-02-14 03:40:00","53549","6.349","310.8","9.44","315.0","990.3433","11.3","61.58","0.0","0.0"],
    [1507053,"2026-02-14 03:50:00","53550","5.5360000000000005","315.5","7.579","315.7","990.5628","11.24","61.58","0.0","0.0"],
    [1507054,"2026-02-14 04:00:00","53551","6.439","328.2","11.53","337.6","990.7759","11.16","61.36","0.0","0.0"],
    [1507055,"2026-02-14 04:10:00","53552","6.306","314.6","10.45","321.3","990.8195","11.09","61.11","0.0","0.0"],
    [1507056,"2026-02-14 04:20:00","53553","6.52","307.0","9.96","301.9","990.8457","11.05","60.76","0.0","0.0"],
    [1507057,"2026-02-14 04:30:00","53554","6.468","306.0","9.93","317.0","990.8889","11.05","61.1","0.0","0.0"],
    [1507058,"2026-02-14 04:40:00","53555","6.974","308.9","9.54","319.9","990.9888","11.01","61.03","0.0","0.0"],
    [1507059,"2026-02-14 04:50:00","53556","6.317","300.0","9.57","307.2","991.046","10.95","61.14","0.0","0.0"],
    [1507060,"2026-02-14 05:00:00","53557","7.455","298.5","10.85","308.9","991.0644","10.92","60.64","0.0","0.0"],
    [1507061,"2026-02-14 05:10:00","53558","7.053999999999999","304.2","10.16","319.0","991.1813","10.95","60.62","0.0","0.0"],
    [1507062,"2026-02-14 05:20:00","53559","7.671","311.3","12.38","312.9","991.3329","11.03","60.17","0.0","0.0"],
    [1507063,"2026-02-14 05:30:00","53560","6.928","302.5","10.55","317.7","991.4888","11.04","59.88","0.0","0.0"],
    [1507064,"2026-02-14 05:40:00","53561","6.93","306.5","11.47","307.2","991.5687","11.12","59.46","0.0","0.0"],
    [1507065,"2026-02-14 05:50:00","53562","6.39","301.9","10.19","301.5","991.6928","11.11","59.08","0.0","0.0"],
    [1507066,"2026-02-14 06:00:00","53563","6.061","295.7","9.83","308.1","991.8703","11.02","58.78","0.0","0.0"],
    [1507067,"2026-02-14 06:10:00","53564","6.107","297.5","10.36","298.9","991.9492","11.13","58.14","0.0","0.0"],
    [1507068,"2026-02-14 06:20:00","53565","5.687","310.7","10.58","300.1","992.2076","11.18","58.07","0.0","0.0"],
    [1507069,"2026-02-14 06:30:00","53566","5.593999999999999","300.2","9.51","316.7","992.4193","11.15","57.62","0.0","0.0"],
    [1507070,"2026-02-14 06:40:00","53567","2.42","315.6","6.9910000000000005","311.2","992.8116","11.15","57.94","0.0","0.0"],
    [1507071,"2026-02-14 06:50:00","53568","2.149","314.3","5.357","261.4","993.1597","11.2","57.85","0.363","0.0"],
    [1507072,"2026-02-14 07:00:00","53569","2.551","309.0","4.279","296.5","993.4153","11.16","57.53","2.8760000000000003","0.0"],
    [1507073,"2026-02-14 07:10:00","53570","3.807","319.0","6.239","301.5","993.5604","11.15","57.32","8.26","0.0"],
    [1507074,"2026-02-14 07:20:00","53571","5.21","300.3","8.46","304.5","993.6642","11.09","57.1","17.12","0.0"],
    [1507075,"2026-02-14 07:30:00","53572","5.348","295.2","7.971","292.1","993.8862","11.08","56.81","25.89","0.0"],
    [1507076,"2026-02-14 07:40:00","53573","5.862","299.1","8.98","286.9","994.1229","11.1","56.52","33.09","0.0"],
    [1507077,"2026-02-14 07:50:00","53574","6.147","297.1","12.12","290.0","994.3881","11.1","56.09","61.97","0.0"],
    [1507078,"2026-02-14 08:00:00","53575","6.228","296.8","11.63","291.0","994.5688","11.16","55.59","91.1","0.0"],
    [1507079,"2026-02-14 08:10:00","53576","6.247000000000001","295.5","9.44","303.1","994.8875","11.17","55.28","146.9","0.0"],
    [1507080,"2026-02-14 08:20:00","53577","5.474","297.8","9.8","278.1","995.1644","11.31","54.77","130.4","0.0"],
    [1507081,"2026-02-14 08:30:00","53578","5.697","305.1","9.51","321.7","995.38","11.35","54.23","103.9","0.0"],
    [1507082,"2026-02-14 08:40:00","53579","5.343999999999999","300.9","8.72","282.8","995.4465","11.6","53.32","237.5","0.0"],
    [1507083,"2026-02-14 08:50:00","53580","6.226","301.2","8.53","273.8","995.5696","11.81","52.88","304.3","0.0"],
    [1507084,"2026-02-14 09:00:00","53581","7.068","314.5","12.61","307.4","995.7353","12.01","52.35","346.6","0.0"],
    [1507085,"2026-02-14 09:10:00","53582","5.08","323.6","8.26","325.7","996.0751","12.21","52.38","361.4","0.0"],
    [1507086,"2026-02-14 09:20:00","53583","4.88","321.9","8.82","334.6","996.1974","12.36","51.53","390.2","0.0"],
    [1507087,"2026-02-14 09:30:00","53584","4.68","322.2","8.75","308.6","996.3393","12.56","50.82","422.9","0.0"],
    [1507088,"2026-02-14 09:40:00","53585","4.917","318.4","10.09","301.2","996.432","12.78","50.68","448.2","0.0"],
    [1507089,"2026-02-14 09:50:00","53586","5.115","322.5","9.34","319.6","996.5289","12.91","50.57","473.7","0.0"],
    [1507090,"2026-02-14 10:00:00","53587","6.237","320.9","12.05","334.6","996.5553","13.07","50.45","497.6","0.0"],
    [1507091,"2026-02-14 10:10:00","53588","6.602","322.8","11.99","337.2","996.7382","13.2","49.76","517.0","0.0"],
    [1507092,"2026-02-14 10:20:00","53589","4.904","312.8","8.2","321.2","996.8992","13.53","49.68","538.2","0.0"],
    [1507093,"2026-02-14 10:30:00","53590","6.847","309.6","11.63","307.5","996.9479","13.69","48.56","557.9","0.0"],
    [1507094,"2026-02-14 10:40:00","53591","7.191","304.6","12.74","315.7","997.0198","13.86","48.29","573.3","0.0"],
    [1507095,"2026-02-14 10:50:00","53592","8.53","300.1","12.9","284.3","997.0855","13.95","47.16","590.8","0.0"],
    [1507096,"2026-02-14 11:00:00","53593","8.73","299.7","15.32","301.4","997.1885","14.23","46.46","608.3","0.0"],
    [1507097,"2026-02-14 11:10:00","53594","8.62","298.0","13.49","305.9","997.3204","14.48","45.74","621.8","0.0"],
    [1507098,"2026-02-14 11:20:00","53595","8.96","298.8","12.81","287.2","997.467","14.59","45.18","632.3","0.0"],
    [1507099,"2026-02-14 11:30:00","53596","9.16","298.1","12.87","283.1","997.5944","14.63","45.24","645.4","0.0"],
    [1507100,"2026-02-14 11:40:00","53597","7.777","295.4","12.81","307.6","997.7421","14.82","45.2","594.6","0.0"],
    [1507101,"2026-02-14 11:50:00","53598","8.38","297.9","13.46","296.5","997.8325","15.02","44.23","639.3","0.0"],
    [1507102,"2026-02-14 12:00:00","53599","8.06","300.2","11.73","312.6","997.9798","15.35","43.77","649.5","0.0"],
    [1507103,"2026-02-14 12:10:00","53600","8.39","299.6","12.32","318.3","998.1023","15.48","43.27","654.4","0.0"],
    [1507104,"2026-02-14 12:20:00","53601","8.06","299.3","12.94","304.4","998.2767","15.62","42.69","652.5","0.0"],
    [1507105,"2026-02-14 12:30:00","53602","7.266","302.0","12.25","308.0","998.4933","15.76","42.38","635.5","0.0"],
    [1507106,"2026-02-14 12:40:00","53603","8.24","300.1","13.82","290.3","998.5451","15.94","40.97","634.1","0.0"],
    [1507107,"2026-02-14 12:50:00","53604","8.42","302.4","13.69","296.9","998.6602","16.16","40.16","631.2","0.0"],
    [1507108,"2026-02-14 13:00:00","53605","7.681","302.5","12.97","310.6","998.9453","16.38","39.57","619.9","0.0"],
    [1507109,"2026-02-14 13:10:00","53606","6.946000000000001","299.9","10.98","310.4","999.195","16.51","39.71","616.4","0.0"],
    [1507110,"2026-02-14 13:20:00","53607","7.057","300.8","12.32","309.7","999.3081","16.71","39.59","533.1","0.0"],
    [1507111,"2026-02-14 13:30:00","53608","7.234","297.0","10.49","288.3","999.4036","16.75","39.61","542.7","0.0"],
    [1507112,"2026-02-14 13:40:00","53609","7.581","301.6","11.92","304.9","999.5294","16.9","39.03","540.2","0.0"],
    [1507113,"2026-02-14 13:50:00","53610","6.814","300.1","10.71","305.9","999.715","17.11","38.78","517.6","0.0"],
    [1507114,"2026-02-14 14:00:00","53611","6.776","300.1","10.58","277.6","999.8471","17.33","38.5","506.8","0.0"],
    [1507115,"2026-02-14 14:10:00","53612","7.611000000000001","291.4","12.18","281.4","999.8653","17.43","37.47","492.2","0.0"],
    [1507116,"2026-02-14 14:20:00","53613","7.689","293.4","12.67","295.6","1000.029","17.52","37.06","487.7","0.0"],
    [1507117,"2026-02-14 14:30:00","53614","8.06","320.1","12.05","299.9","1000.36","17.35","38.67","463.0","0.0"],
    [1507118,"2026-02-14 14:40:00","53615","5.695","14.03","7.742000000000001","20.15","1000.931","14.78","62.24","431.8","0.0"],
    [1507119,"2026-02-14 14:50:00","53616","5.3260000000000005","18.75","8.04","27.41","1001.141","14.34","69.06","421.6","0.0"],
    [1507120,"2026-02-14 15:00:00","53617","7.29","33.27","8.89","45.15","1001.197","13.87","74.01","406.4","0.0"],
    [1507121,"2026-02-14 15:10:00","53618","5.84","27.02","7.84","23.67","1001.585","13.54","75.21","377.7","0.0"],
    [1507122,"2026-02-14 15:20:00","53619","5.888","36.31","7.382999999999999","38.74","1001.613","13.5","73.62","351.4","0.0"],
    [1507123,"2026-02-14 15:30:00","53620","5.377000000000001","29.26","6.827000000000001","29.48","1001.852","13.54","72.48","317.3","0.0"],
    [1507124,"2026-02-14 15:40:00","53621","5.392","32.08","7.121","28.21","1002.027","13.53","72.08","293.8","0.0"],
    [1507125,"2026-02-14 15:50:00","53622","4.707","27.58","5.847","39.7","1002.241","13.59","72.19","253.5","0.0"],
    [1507126,"2026-02-14 16:00:00","53623","5.419","36.51","7.0889999999999995","43.99","1002.391","13.58","73.24","233.6","0.0"],
    [1507127,"2026-02-14 16:10:00","53624","4.126","28.97","5.4879999999999995","36.05","1002.732","13.54","73.72","202.4","0.0"],
    [1507128,"2026-02-14 16:20:00","53625","4.0569999999999995","24.48","5.227","22.59","1002.939","13.56","73.39","170.2","0.0"],
    [1507129,"2026-02-14 16:30:00","53626","3.352","24.08","4.835","28.21","1003.166","13.55","73.3","139.2","0.0"],
    [1507130,"2026-02-14 16:40:00","53627","3.28","39.17","4.051","35.49","1003.456","13.56","73.24","49.28","0.0"],
    [1507131,"2026-02-14 16:50:00","53628","4.019","40.29","5.063","38.74","1003.756","13.44","74.13","22.28","0.0"],
    [1507132,"2026-02-14 17:00:00","53629","3.9810000000000003","30.37","4.769","24.81","1004.05","13.46","74.74","17.22","0.0"],
    [1507133,"2026-02-14 17:10:00","53630","3.782","30.05","5.325","30.09","1004.252","13.39","75.02","11.94","0.0"],
    [1507134,"2026-02-14 17:20:00","53631","3.113","30.32","4.541","31.96","1004.552","13.44","74.21","6.522","0.0"],
    [1507135,"2026-02-14 17:30:00","53632","1.6740000000000002","28.49","3.201","37.47","1004.947","13.5","75.24","2.295","0.0"],
    [1507136,"2026-02-14 17:40:00","53633","1.4469999999999998","32.91","4.181","19.59","1005.27","13.52","75.19","0.085","0.0"],
    [1507137,"2026-02-14 17:50:00","53634","1.838","15.37","4.149","296.2","1005.489","13.62","72.85","0.0","0.0"],
    [1507138,"2026-02-14 18:00:00","53635","6.028","330.3","10.88","324.7","1005.564","15.31","50.57","0.0","0.0"],
    [1507139,"2026-02-14 18:10:00","53636","6.255","346.6","12.81","317.8","1005.91","15.87","43.07","0.0","0.0"],
    [1507140,"2026-02-14 18:20:00","53637","8.68","320.8","11.86","326.9","1005.978","16.59","30.5","0.0","0.0"],
    [1507141,"2026-02-14 18:30:00","53638","8.6","318.1","12.54","325.7","1006.235","16.58","28.96","0.0","0.0"],
    [1507142,"2026-02-14 18:40:00","53639","8.96","319.8","13.1","320.3","1006.613","16.47","28.72","0.0","0.0"],
    [1507143,"2026-02-14 18:50:00","53640","8.31","319.0","12.58","310.8","1006.846","16.41","28.38","0.0","0.0"],
    [1507144,"2026-02-14 19:00:00","53641","7.619","314.7","11.86","328.5","1007.121","16.35","28.35","0.0","0.0"],
    [1507145,"2026-02-14 19:10:00","53642","8.52","317.3","11.86","322.9","1007.475","16.42","27.15","0.0","0.0"],
    [1507146,"2026-02-14 19:20:00","53643","8.22","318.1","11.24","308.7","1007.695","16.35","26.93","0.0","0.0"],
    [1507147,"2026-02-14 19:30:00","53644","8.45","317.9","11.92","305.9","1007.901","16.34","26.24","0.0","0.0"],
    [1507148,"2026-02-14 19:40:00","53645","8.02","318.3","11.5","314.3","1008.119","16.19","26.4","0.0","0.0"],
    [1507149,"2026-02-14 19:50:00","53646","8.06","315.8","10.78","316.8","1008.226","16.03","26.8","0.0","0.0"],
    [1507150,"2026-02-14 20:00:00","53647","6.984","319.6","10.13","318.2","1008.514","15.81","27.58","0.0","0.0"],
    [1507151,"2026-02-14 20:10:00","53648","6.244","318.8","8.72","317.4","1008.828","15.69","27.54","0.0","0.0"],
    [1507152,"2026-02-14 20:20:00","53649","6.1739999999999995","315.7","8.43","308.3","1009.165","15.57","27.84","0.0","0.0"],
    [1507153,"2026-02-14 20:30:00","53650","5.602","310.0","8.36","308.2","1009.525","15.5","27.12","0.0","0.0"],
    [1507154,"2026-02-14 20:40:00","53651","5.4639999999999995","315.3","7.415","311.6","1009.87","15.23","28.63","0.0","0.0"],
    [1507155,"2026-02-14 20:50:00","53652","5.186","304.4","8.49","308.4","1009.976","15.19","27.56","0.0","0.0"],
    [1507156,"2026-02-14 21:00:00","53653","5.252000000000001","308.8","8.82","320.4","1010.272","15.1","27.79","0.0","0.0"],
    [1507157,"2026-02-14 21:10:00","53654","6.819","316.4","9.77","321.4","1010.509","15.19","27.55","0.0","0.0"],
    [1507158,"2026-02-14 21:20:00","53655","6.428","327.8","8.26","332.1","1010.724","15.1","26.78","0.0","0.0"],
    [1507159,"2026-02-14 21:30:00","53656","7.132999999999999","346.9","10.39","7.391","1010.922","15.19","25.46","0.0","0.0"],
    [1507160,"2026-02-14 21:40:00","53657","7.636","346.1","10.71","349.7","1011.074","15.19","24.25","0.0","0.0"],
    [1507161,"2026-02-14 21:50:00","53658","7.297999999999999","343.1","10.09","347.2","1011.065","15.01","25.29","0.0","0.0"],
    [1507162,"2026-02-14 22:00:00","53659","6.403","331.4","9.77","323.3","1011.199","14.81","25.93","0.0","0.0"],
    [1507163,"2026-02-14 22:10:00","53660","6.2410000000000005","327.3","8.53","320.0","1011.292","14.67","26.4","0.0","0.0"],
    [1507164,"2026-02-14 22:20:00","53661","4.12","289.6","6.207000000000001","320.9","1011.638","14.39","27.03","0.0","0.0"],
    [1507165,"2026-02-14 22:30:00","53662","4.109","279.9","6.403","284.4","1011.875","14.09","26.97","0.0","0.0"],
    [1507166,"2026-02-14 22:40:00","53663","5.083","281.5","7.415","271.7","1012.078","13.99","27.15","0.0","0.0"],
    [1507167,"2026-02-14 22:50:00","53664","5.3389999999999995","277.3","8.0","283.6","1012.278","13.55","30.07","0.0","0.0"],
    [1507168,"2026-02-14 23:00:00","53665","5.544","291.1","9.28","284.2","1012.187","13.5","32.57","0.0","0.0"],
    [1507169,"2026-02-14 23:10:00","53666","5.15","295.2","7.4479999999999995","290.3","1012.245","13.43","33.56","0.0","0.0"],
    [1507170,"2026-02-14 23:20:00","53667","4.4510000000000005","298.5","6.664","309.6","1012.206","13.31","34.22","0.0","0.0"],
    [1507171,"2026-02-14 23:30:00","53668","5.1610000000000005","286.4","8.33","280.1","1012.179","13.08","34.58","0.0","0.0"],
    [1507172,"2026-02-14 23:40:00","53669","6.066","289.3","9.18","293.0","1012.343","12.61","37.06","0.0","0.0"],
    [1507173,"2026-02-14 23:50:00","53670","5.684","279.7","9.34","280.1","1012.598","12.19","39.44","0.0","0.0"],
    [1507174,"2026-02-15 00:00:00","53671","3.714","260.9","8.04","256.1","1012.666","11.65","41.88","0.0","0.0"],
    [1507175,"2026-02-15 00:10:00","53672","4.8660000000000005","282.3","7.709","290.8","1012.396","11.33","44.23","0.0","0.0"],
    [1507176,"2026-02-15 00:20:00","53673","4.893","284.0","8.46","281.8","1012.322","11.28","44.88","0.0","0.0"],
    [1507177,"2026-02-15 00:30:00","53674","4.218","276.7","8.2","281.5","1012.508","11.03","46.5","0.0","0.0"],
    [1507178,"2026-02-15 00:40:00","53675","5.414","282.8","8.4","297.7","1012.314","10.9","47.18","0.0","0.0"],
    [1507179,"2026-02-15 00:50:00","53676","5.127999999999999","279.4","9.31","281.2","1012.105","10.86","47.09","0.0","0.0"],
    [1507180,"2026-02-15 01:00:00","53677","4.442","274.1","8.59","271.9","1011.971","10.79","47.04","0.0","0.0"],
    [1507181,"2026-02-15 01:10:00","53678","5.347","270.7","9.9","281.5","1012.259","10.75","46.81","0.0","0.0"],
    [1507182,"2026-02-15 01:20:00","53679","4.079","258.9","8.13","257.6","1012.527","10.67","46.98","0.0","0.0"],
    [1507183,"2026-02-15 01:30:00","53680","4.243","262.5","7.971","265.1","1012.384","10.67","46.61","0.0","0.0"],
    [1507184,"2026-02-15 01:40:00","53681","4.275","276.0","8.17","292.6","1012.232","10.62","46.88","0.0","0.0"],
    [1507185,"2026-02-15 01:50:00","53682","5.3660000000000005","274.7","9.05","285.5","1012.137","10.6","46.62","0.0","0.0"],
    [1507186,"2026-02-15 02:00:00","53683","5.712999999999999","275.0","10.03","284.7","1012.254","10.51","46.55","0.0","0.0"],
    [1507187,"2026-02-15 02:10:00","53684","7.225","285.9","11.07","283.6","1012.073","10.54","46.48","0.0","0.0"],
    [1507188,"2026-02-15 02:20:00","53685","7.501","296.1","12.94","300.9","1012.035","10.48","47.09","0.0","0.0"],
    [1507189,"2026-02-15 02:30:00","53686","8.79","301.0","13.39","302.9","1011.944","10.41","47.62","0.0","0.0"],
    [1507190,"2026-02-15 02:40:00","53687","10.3","302.0","16.24","293.2","1011.815","10.39","47.98","0.0","0.0"],
    [1507191,"2026-02-15 02:50:00","53688","9.63","303.2","15.78","291.4","1011.855","10.28","48.85","0.0","0.0"],
    [1507192,"2026-02-15 03:00:00","53689","9.6","297.5","14.5","300.4","1011.942","10.12","49.23","0.0","0.0"],
    [1507193,"2026-02-15 03:10:00","53690","9.18","301.5","15.48","306.0","1012.15","10.07","49.24","0.0","0.0"],
    [1507194,"2026-02-15 03:20:00","53691","8.92","300.7","13.79","306.6","1012.287","10.11","48.85","0.0","0.0"],
    [1507195,"2026-02-15 03:30:00","53692","8.66","300.5","13.3","301.3","1012.158","10.07","48.49","0.0","0.0"],
    [1507196,"2026-02-15 03:40:00","53693","9.28","302.3","13.69","305.9","1012.226","10.08","48.69","0.0","0.0"],
    [1507197,"2026-02-15 03:50:00","53694","7.053","300.3","10.03","316.4","1012.532","10.15","48.15","0.0","0.0"],
    [1507198,"2026-02-15 04:00:00","53695","7.845","295.4","11.79","289.0","1012.669","10.23","46.37","0.0","0.0"],
    [1507199,"2026-02-15 04:10:00","53696","8.23","293.9","12.54","304.9","1012.784","10.27","45.55","0.0","0.0"],
    [1507200,"2026-02-15 04:20:00","53697","7.622000000000001","293.7","11.83","306.3","1013.089","10.32","44.95","0.0","0.0"],
    [1507201,"2026-02-15 04:30:00","53698","6.117000000000001","309.9","8.98","306.2","1013.664","10.52","44.34","0.0","0.0"],
    [1507202,"2026-02-15 04:40:00","53699","3.505","358.1","7.0889999999999995","316.1","1014.136","10.88","43.07","0.0","0.0"],
    [1507203,"2026-02-15 04:50:00","53700","2.478","342.2","4.181","5.122999999999999","1014.34","10.62","43.11","0.0","0.0"],
    [1507204,"2026-02-15 05:00:00","53701","3.556","322.9","7.218999999999999","309.1","1014.46","10.58","43.21","0.0","0.0"],
    [1507205,"2026-02-15 05:10:00","53702","4.4719999999999995","347.1","8.23","320.5","1014.691","10.61","45.17","0.0","0.0"],
    [1507206,"2026-02-15 05:20:00","53703","1.599","312.3","4.1160000000000005","282.6","1014.844","10.37","45.13","0.0","0.0"],
    [1507207,"2026-02-15 05:30:00","53704","1.3769999999999998","35.79","3.1689999999999996","338.0","1015.071","10.28","45.48","0.0","0.0"],
    [1507208,"2026-02-15 05:40:00","53705","3.049","342.8","3.9530000000000003","345.4","1015.163","10.13","46.53","0.0","0.0"],
    [1507209,"2026-02-15 05:50:00","53706","2.766","326.5","3.528","339.7","1015.275","10.03","47.92","0.0","0.0"],
    [1507210,"2026-02-15 06:00:00","53707","3.799","309.5","9.11","314.8","1015.497","10.07","47.82","0.0","0.0"],
    [1507211,"2026-02-15 06:10:00","53708","4.181","299.2","6.337000000000001","312.2","1015.839","10.05","45.77","0.0","0.0"],
    [1507212,"2026-02-15 06:20:00","53709","1.768","276.8","5.096","288.2","1016.29","9.88","45.34","0.0","0.0"],
    [1507213,"2026-02-15 06:30:00","53710","0.5670000000000001","33.88","1.764","9.29","1016.477","9.64","47.48","0.0","0.0"],
    [1507214,"2026-02-15 06:40:00","53711","2.8680000000000003","13.29","4.149","16.52","1016.39","9.95","48.36","0.035","0.0"],
    [1507215,"2026-02-15 06:50:00","53712","3.6889999999999996","0.073","5.422999999999999","347.3","1016.544","9.89","47.07","2.384","0.0"],
    [1507216,"2026-02-15 07:00:00","53713","3.197","2.946","5.357","21.03","1016.686","9.71","48.1","11.13","0.0"],
    [1507217,"2026-02-15 07:10:00","53714","3.252","357.8","4.704","349.3","1016.908","9.67","49.19","25.96","0.0"],
    [1507218,"2026-02-15 07:20:00","53715","2.918","1.4080000000000001","4.149","349.6","1017.097","9.63","49.19","50.18","0.0"],
    [1507219,"2026-02-15 07:30:00","53716","2.978","29.09","3.593","39.26","1017.18","9.58","50.71","81.3","0.0"],
    [1507220,"2026-02-15 07:40:00","53717","3.0380000000000003","3.095","4.1160000000000005","351.0","1017.438","9.52","51.59","112.6","0.0"],
    [1507221,"2026-02-15 07:50:00","53718","3.804","342.2","4.998","334.5","1017.635","9.59","50.98","144.7","0.0"],
    [1507222,"2026-02-15 08:00:00","53719","5.104","322.1","7.4479999999999995","335.1","1017.696","9.82","49.35","176.1","0.0"],
    [1507223,"2026-02-15 08:10:00","53720","5.372999999999999","330.3","7.317","321.8","1017.751","9.95","48.59","207.3","0.0"],
    [1507224,"2026-02-15 08:20:00","53721","3.9930000000000003","344.9","5.455","353.4","1017.904","10.1","48.33","238.3","0.0"],
    [1507225,"2026-02-15 08:30:00","53722","4.354","348.7","6.795","351.6","1018.023","10.1","48.21","270.1","0.0"],
    [1507226,"2026-02-15 08:40:00","53723","4.3389999999999995","342.3","5.651","349.9","1018.077","9.99","48.07","316.5","0.0"],
    [1507227,"2026-02-15 08:50:00","53724","3.91","328.2","5.096","342.2","1018.052","10.03","48.35","371.2","0.0"],
    [1507228,"2026-02-15 09:00:00","53725","3.9360000000000004","299.5","5.749","301.7","1017.968","10.14","49.17","378.7","0.0"],
    [1507229,"2026-02-15 09:10:00","53726","4.191","295.7","5.782","298.5","1018.113","10.26","48.79","371.9","0.0"],
    [1507230,"2026-02-15 09:20:00","53727","3.806","292.1","7.056","292.5","1018.276","10.5","47.83","402.3","0.0"],
    [1507231,"2026-02-15 09:30:00","53728","3.926","307.6","5.978","312.5","1018.234","10.72","48.06","455.8","0.0"],
    [1507232,"2026-02-15 09:40:00","53729","4.311","299.1","6.827000000000001","303.4","1018.188","10.85","47.65","452.7","0.0"],
    [1507233,"2026-02-15 09:50:00","53730","4.159","305.0","7.285","305.2","1018.341","11.2","45.88","502.4","0.0"],
    [1507234,"2026-02-15 10:00:00","53731","4.588","301.8","6.729","304.5","1018.272","11.23","45.43","470.7","0.0"],
    [1507235,"2026-02-15 10:10:00","53732","4.005","301.1","6.403","308.6","1018.321","11.4","45.26","316.8","0.0"],
    [1507236,"2026-02-15 10:20:00","53733","4.251","306.6","6.403","303.7","1018.331","11.33","45.19","250.9","0.0"],
    [1507237,"2026-02-15 10:30:00","53734","3.7260000000000004","304.6","5.651","308.6","1018.433","11.43","45.66","244.9","0.0"],
    [1507238,"2026-02-15 10:40:00","53735","3.283","297.4","4.737","282.4","1018.518","11.34","44.89","227.9","0.0"],
    [1507239,"2026-02-15 10:50:00","53736","3.477","319.6","5.096","308.5","1018.469","11.49","45.68","288.1","0.0"],
    [1507240,"2026-02-15 11:00:00","53737","3.753","339.3","5.096","359.9","1018.443","11.67","46.14","500.5","0.0"],
    [1507241,"2026-02-15 11:10:00","53738","2.423","322.8","4.41","349.1","1018.387","11.94","46.25","597.0","0.0"],
    [1507242,"2026-02-15 11:20:00","53739","1.445","327.0","2.515","311.7","1018.376","12.25","45.06","611.6","0.0"],
    [1507243,"2026-02-15 11:30:00","53740","1.7269999999999999","289.0","3.7239999999999998","307.1","1018.186","12.15","44.73","634.5","0.0"],
    [1507244,"2026-02-15 11:40:00","53741","0.77","283.5","2.352","308.0","1018.069","12.59","43.87","600.6","0.0"],
    [1507245,"2026-02-15 11:50:00","53742","1.4709999999999999","149.1","3.0380000000000003","131.9","1017.873","12.69","44.01","588.3","0.0"],
    [1507246,"2026-02-15 12:00:00","53743","2.147","173.9","3.9530000000000003","118.4","1017.82","12.52","45.3","593.6","0.0"],
    [1507247,"2026-02-15 12:10:00","53744","1.801","217.1","3.234","295.5","1017.861","13.03","45.15","616.0","0.0"],
    [1507248,"2026-02-15 12:20:00","53745","1.714","285.6","3.463","327.4","1017.741","13.45","43.47","611.5","0.0"],
    [1507249,"2026-02-15 12:30:00","53746","3.8939999999999997","198.6","6.501","194.5","1017.503","13.23","44.25","628.6","0.0"],
    [1507250,"2026-02-15 12:40:00","53747","5.475","195.2","7.415","202.0","1017.327","12.74","45.35","625.5","0.0"],
    [1507251,"2026-02-15 12:50:00","53748","6.332999999999999","190.2","8.98","190.9","1017.051","12.31","49.17","618.9","0.0"],
    [1507252,"2026-02-15 13:00:00","53749","5.829","194.7","7.905","193.0","1016.96","12.3","49.29","603.0","0.0"],
    [1507253,"2026-02-15 13:10:00","53750","5.877999999999999","197.2","7.872999999999999","183.3","1016.839","12.33","48.98","571.0","0.0"],
    [1507254,"2026-02-15 13:20:00","53751","5.765","199.1","8.49","210.4","1016.671","12.31","50.38","571.8","0.0"],
    [1507255,"2026-02-15 13:30:00","53752","5.688","197.5","7.513","202.3","1016.772","12.22","50.97","583.2","0.0"],
    [1507256,"2026-02-15 13:40:00","53753","6.4110000000000005","194.3","8.69","194.1","1016.689","12.2","52.54","568.9","0.0"],
    [1507257,"2026-02-15 13:50:00","53754","6.04","191.0","7.938","188.9","1016.54","12.07","53.86","550.4","0.0"],
    [1507258,"2026-02-15 14:00:00","53755","5.457000000000001","184.5","7.023","190.8","1016.391","12.12","56.5","532.3","0.0"],
    [1507259,"2026-02-15 14:10:00","53756","5.57","188.6","7.187","191.7","1016.535","12.22","59.33","432.4","0.0"],
    [1507260,"2026-02-15 14:20:00","53757","5.107","185.8","6.86","183.4","1016.403","12.61","59.8","364.3","0.0"],
    [1507261,"2026-02-15 14:30:00","53758","5.3870000000000005","185.9","7.285","184.5","1016.262","12.8","57.78","334.0","0.0"],
    [1507262,"2026-02-15 14:40:00","53759","5.157","189.2","7.252000000000001","187.6","1016.33","13.02","53.55","275.8","0.0"],
    [1507263,"2026-02-15 14:50:00","53760","4.31","200.9","6.795","204.1","1016.479","12.9","52.49","226.4","0.0"],
    [1507264,"2026-02-15 15:00:00","53761","4.0489999999999995","207.5","6.9910000000000005","225.8","1016.447","12.8","53.05","196.9","0.0"],
    [1507265,"2026-02-15 15:10:00","53762","4.171","194.3","5.7170000000000005","189.5","1016.391","12.61","53.84","176.0","0.0"],
    [1507266,"2026-02-15 15:20:00","53763","3.4389999999999996","199.1","5.684","192.6","1016.21","12.76","55.27","157.2","0.0"],
    [1507267,"2026-02-15 15:30:00","53764","3.7430000000000003","209.4","5.945","226.4","1016.021","12.93","55.55","146.5","0.0"],
    [1507268,"2026-02-15 15:40:00","53765","3.551","203.1","5.2589999999999995","187.6","1015.886","13.1","54.64","126.5","0.0"],
    [1507269,"2026-02-15 15:50:00","53766","3.108","210.3","5.521","208.6","1015.916","12.91","55.36","113.5","0.0"],
    [1507270,"2026-02-15 16:00:00","53767","2.569","217.2","4.965","208.5","1015.936","12.98","55.3","92.3","0.0"],
    [1507271,"2026-02-15 16:10:00","53768","2.99","201.9","4.704","197.5","1016.009","12.94","57.44","70.58","0.0"],
    [1507272,"2026-02-15 16:20:00","53769","2.5860000000000003","199.0","4.2139999999999995","195.0","1016.025","12.96","58.85","58.92","0.0"],
    [1507273,"2026-02-15 16:30:00","53770","3.322","191.1","4.083","181.3","1015.949","12.99","59.8","64.3","0.0"],
    [1507274,"2026-02-15 16:40:00","53771","3.363","194.9","4.312","182.3","1015.678","13.01","59.91","56.8","0.0"],
    [1507275,"2026-02-15 16:50:00","53772","2.955","195.6","4.051","189.8","1015.734","13.12","59.46","42.45","0.0"],
    [1507276,"2026-02-15 17:00:00","53773","1.636","221.5","3.267","196.9","1015.766","13.19","59.68","28.55","0.0"],
    [1507277,"2026-02-15 17:10:00","53774","0.7240000000000001","227.0","2.123","267.4","1015.904","13.19","60.07","19.2","0.0"],
    [1507278,"2026-02-15 17:20:00","53775","1.041","216.9","1.8619999999999999","256.0","1016.068","13.19","60.31","11.62","0.0"],
    [1507279,"2026-02-15 17:30:00","53776","0.774","273.3","1.7309999999999999","198.6","1016.126","13.25","60.59","2.041","0.0"],
    [1507280,"2026-02-15 17:40:00","53777","0.488","195.3","1.568","317.9","1016.231","13.28","60.79","0.022000000000000002","0.0"],
    [1507281,"2026-02-15 17:50:00","53778","0.405","100.1","0.98","112.3","1016.163","13.3","61.48","0.0","0.0"],
    [1507282,"2026-02-15 18:00:00","53779","0.8540000000000001","155.8","1.339","140.1","1016.102","13.32","62.56","0.0","0.0"],
    [1507283,"2026-02-15 18:10:00","53780","0.609","220.3","1.535","181.0","1016.173","13.26","63.94","0.0","0.0"],
    [1507284,"2026-02-15 18:20:00","53781","0.408","127.7","1.209","344.5","1016.025","13.36","65.52","0.0","0.0"],
    [1507285,"2026-02-15 18:30:00","53782","0.424","32.87","1.2409999999999999","330.7","1016.053","13.37","67.95","0.0","0.0"],
    [1507286,"2026-02-15 18:40:00","53783","0.499","326.4","2.385","306.2","1015.96","13.21","69.05","0.0","0.0"],
    [1507287,"2026-02-15 18:50:00","53784","1.2109999999999999","231.5","2.352","212.8","1016.055","13.36","66.51","0.0","0.0"],
    [1507288,"2026-02-15 19:00:00","53785","1.3359999999999999","225.5","2.94","216.3","1016.052","13.69","62.42","0.0","0.0"],
    [1507289,"2026-02-15 19:10:00","53786","1.3980000000000001","233.4","2.7110000000000003","240.4","1016.187","14.19","58.45","0.0","0.0"],
    [1507290,"2026-02-15 19:20:00","53787","1.7790000000000001","223.3","3.071","232.9","1016.152","14.49","56.17","0.0","0.0"],
    [1507291,"2026-02-15 19:30:00","53788","1.242","275.0","2.0909999999999997","223.0","1016.128","14.28","57.07","0.0","0.0"],
    [1507292,"2026-02-15 19:40:00","53789","1.285","239.7","2.417","243.0","1016.314","13.88","58.74","0.0","0.0"],
    [1507293,"2026-02-15 19:50:00","53790","1.113","247.2","1.8619999999999999","245.3","1016.451","13.79","58.8","0.0","0.0"],
    [1507294,"2026-02-15 20:00:00","53791","1.66","225.7","3.822","229.8","1016.17","13.93","58.49","0.0","0.0"],
    [1507295,"2026-02-15 20:10:00","53792","2.698","248.4","5.2589999999999995","221.0","1016.199","14.29","54.85","0.0","0.0"],
    [1507296,"2026-02-15 20:20:00","53793","2.174","250.1","4.083","256.0","1016.534","14.41","52.29","0.0","0.0"],
    [1507297,"2026-02-15 20:30:00","53794","3.3510000000000004","272.3","6.305","283.9","1016.478","14.26","51.81","0.0","0.0"],
    [1507298,"2026-02-15 20:40:00","53795","4.645","276.2","8.92","275.7","1016.354","14.52","49.52","0.0","0.0"],
    [1507299,"2026-02-15 20:50:00","53796","3.8110000000000004","281.3","6.272","277.8","1016.169","14.48","48.77","0.0","0.0"],
    [1507300,"2026-02-15 21:00:00","53797","4.81","274.8","9.21","281.6","1016.151","14.43","48.47","0.0","0.0"],
    [1507301,"2026-02-15 21:10:00","53798","3.9589999999999996","270.1","8.1","287.4","1015.894","14.32","48.58","0.0","0.0"],
    [1507302,"2026-02-15 21:20:00","53799","4.699","276.4","7.056","296.7","1015.751","14.32","48.56","0.0","0.0"],
    [1507303,"2026-02-15 21:30:00","53800","3.241","268.2","6.664","271.8","1015.822","14.21","48.46","0.0","0.0"],
    [1507304,"2026-02-15 21:40:00","53801","1.974","252.7","4.475","253.8","1015.754","14.07","48.91","0.0","0.0"],
    [1507305,"2026-02-15 21:50:00","53802","2.269","270.5","4.769","286.1","1015.504","13.85","49.48","0.0","0.0"],
    [1507306,"2026-02-15 22:00:00","53803","3.089","273.4","5.7170000000000005","283.7","1015.609","13.88","49.49","0.0","0.0"],
    [1507307,"2026-02-15 22:10:00","53804","5.095","285.6","7.709","286.1","1015.513","14.14","48.52","0.0","0.0"],
    [1507308,"2026-02-15 22:20:00","53805","6.405","289.2","12.48","286.8","1015.367","14.26","48.15","0.0","0.0"],
    [1507309,"2026-02-15 22:30:00","53806","8.24","288.5","12.15","288.2","1015.222","14.41","47.45","0.0","0.0"],
    [1507310,"2026-02-15 22:40:00","53807","7.672999999999999","288.6","10.52","287.0","1015.106","14.25","48.03","0.0","0.0"],
    [1507311,"2026-02-15 22:50:00","53808","8.1","291.9","11.76","294.6","1014.946","14.18","48.44","0.0","0.0"],
    [1507312,"2026-02-15 23:00:00","53809","6.725","294.7","10.42","312.3","1015.128","14.0","49.39","0.0","0.0"],
    [1507313,"2026-02-15 23:10:00","53810","6.945","295.2","10.29","305.8","1015.146","13.87","50.12","0.0","0.0"],
    [1507314,"2026-02-15 23:20:00","53811","5.945","293.9","8.98","278.3","1015.158","13.77","50.54","0.0","0.0"],
    [1507315,"2026-02-15 23:30:00","53812","5.136","291.8","7.971","297.2","1015.139","13.63","51.11","0.0","0.0"],
    [1507316,"2026-02-15 23:40:00","53813","4.819","288.7","7.579","278.1","1015.148","13.62","51.18","0.0","0.0"],
    [1507317,"2026-02-15 23:50:00","53814","4.206","288.9","6.664","279.4","1015.212","13.59","51.34","0.0","0.0"],
    [1507318,"2026-02-16 00:00:00","53815","4.499","295.6","6.893","287.1","1015.323","13.65","51.31","0.0","0.0"],
    [1507319,"2026-02-16 00:10:00","53816","5.196000000000001","300.9","8.13","297.6","1015.585","13.73","51.44","0.0","0.0"],
    [1507320,"2026-02-16 00:20:00","53817","5.449","297.5","8.26","287.3","1015.235","13.71","51.48","0.0","0.0"],
    [1507321,"2026-02-16 00:30:00","53818","5.763999999999999","298.7","9.05","282.1","1015.008","13.58","52.14","0.0","0.0"],
    [1507322,"2026-02-16 00:40:00","53819","6.974","299.5","11.73","299.7","1014.872","13.55","52.28","0.0","0.0"],
    [1507323,"2026-02-16 00:50:00","53820","7.752999999999999","296.3","11.43","286.3","1014.42","13.58","52.31","0.0","0.0"],
    [1507324,"2026-02-16 01:00:00","53821","6.939","290.5","10.26","304.4","1014.485","13.54","52.55","0.0","0.0"],
    [1507325,"2026-02-16 01:10:00","53822","4.676","283.7","7.709","287.1","1015.024","13.51","52.7","0.0","0.0"],
    [1507326,"2026-02-16 01:20:00","53823","2.423","260.6","5.063","287.9","1015.462","13.37","53.32","0.0","0.0"],
    [1507327,"2026-02-16 01:30:00","53824","5.0169999999999995","286.1","8.36","276.5","1015.235","13.59","52.86","0.0","0.0"],
    [1507328,"2026-02-16 01:40:00","53825","6.051","294.3","10.55","299.5","1014.831","13.68","52.71","0.0","0.0"],
    [1507329,"2026-02-16 01:50:00","53826","5.477","291.7","8.79","285.3","1014.894","13.71","52.94","0.0","0.0"],
    [1507330,"2026-02-16 02:00:00","53827","3.577","278.5","6.729","319.9","1015.146","13.7","52.83","0.0","0.0"],
    [1507331,"2026-02-16 02:10:00","53828","2.157","232.1","6.141","216.7","1015.182","13.65","53.12","0.0","0.0"],
    [1507332,"2026-02-16 02:20:00","53829","2.081","243.2","4.802","275.6","1015.118","13.73","53.15","0.0","0.0"],
    [1507333,"2026-02-16 02:30:00","53830","3.352","285.0","5.619","291.1","1015.069","13.81","52.78","0.0","0.0"],
    [1507334,"2026-02-16 02:40:00","53831","4.334","294.7","7.154","303.0","1014.955","13.94","52.81","0.0","0.0"],
    [1507335,"2026-02-16 02:50:00","53832","3.225","295.3","6.305","276.9","1014.987","13.96","52.97","0.0","0.0"],
    [1507336,"2026-02-16 03:00:00","53833","2.86","286.1","5.586","314.6","1014.786","13.88","53.18","0.0","0.0"],
    [1507337,"2026-02-16 03:10:00","53834","5.095","292.7","8.4","293.9","1014.59","13.98","52.97","0.0","0.0"],
    [1507338,"2026-02-16 03:20:00","53835","4.238","292.3","7.121","306.3","1014.419","13.95","53.38","0.0","0.0"],
    [1507339,"2026-02-16 03:30:00","53836","4.045","278.4","5.782","284.7","1014.29","13.92","53.39","0.0","0.0"],
    [1507340,"2026-02-16 03:40:00","53837","4.7","284.1","6.729","291.8","1014.234","13.81","54.2","0.0","0.0"],
    [1507341,"2026-02-16 03:50:00","53838","4.277","293.4","8.75","307.9","1014.188","14.08","53.51","0.0","0.0"],
    [1507342,"2026-02-16 04:00:00","53839","2.065","287.2","5.357","290.2","1014.005","14.04","53.61","0.0","0.0"],
    [1507343,"2026-02-16 04:10:00","53840","2.84","262.9","5.325","265.5","1013.922","14.09","53.78","0.0","0.0"],
    [1507344,"2026-02-16 04:20:00","53841","3.248","216.3","7.154","245.9","1013.997","14.21","53.74","0.0","0.0"],
    [1507345,"2026-02-16 04:30:00","53842","3.8789999999999996","189.2","6.795","189.3","1013.934","14.17","54.43","0.0","0.0"],
    [1507346,"2026-02-16 04:40:00","53843","2.6919999999999997","196.3","5.031000000000001","191.6","1014.206","14.11","54.85","0.0","0.0"],
    [1507347,"2026-02-16 04:50:00","53844","2.8930000000000002","233.7","5.521","245.4","1014.214","14.18","54.72","0.0","0.0"],
    [1507348,"2026-02-16 05:00:00","53845","2.7510000000000003","257.9","6.207000000000001","257.3","1014.328","14.13","55.06","0.0","0.0"],
    [1507349,"2026-02-16 05:10:00","53846","1.881","224.8","3.495","213.6","1014.469","14.01","55.77","0.0","0.0"],
    [1507350,"2026-02-16 05:20:00","53847","2.3930000000000002","238.9","5.749","276.0","1014.53","13.92","56.38","0.0","0.0"],
    [1507351,"2026-02-16 05:30:00","53848","2.465","253.2","5.422999999999999","253.4","1014.429","14.05","56.51","0.0","0.0"],
    [1507352,"2026-02-16 05:40:00","53849","2.323","235.1","4.345","205.7","1014.547","14.2","56.19","0.0","0.0"],
    [1507353,"2026-02-16 05:50:00","53850","1.943","234.6","3.7569999999999997","290.5","1014.831","14.04","56.68","0.0","0.0"],
    [1507354,"2026-02-16 06:00:00","53851","2.6710000000000003","272.8","5.455","281.9","1014.615","14.07","57.1","0.0","0.0"],
    [1507355,"2026-02-16 06:10:00","53852","2.7739999999999996","289.8","5.422999999999999","297.5","1014.401","14.02","57.46","0.0","0.0"],
    [1507356,"2026-02-16 06:20:00","53853","4.126","280.7","7.905","286.8","1014.306","13.99","57.88","0.0","0.0"],
    [1507357,"2026-02-16 06:30:00","53854","4.374","281.8","7.546","279.9","1014.163","14.06","58.16","0.0","0.0"],
    [1507358,"2026-02-16 06:40:00","53855","3.467","278.1","6.468","289.9","1014.299","13.9","58.75","0.278","0.0"],
    [1507359,"2026-02-16 06:50:00","53856","3.282","285.1","5.88","278.5","1014.637","14.01","58.75","3.3","0.0"],
    [1507360,"2026-02-16 07:00:00","53857","1.909","258.8","4.312","253.4","1014.612","13.94","59.11","12.31","0.0"],
    [1507361,"2026-02-16 07:10:00","53858","1.611","228.1","3.528","218.5","1014.374","13.86","59.71","24.76","0.0"],
    [1507362,"2026-02-16 07:20:00","53859","1.52","207.0","3.071","231.0","1014.713","13.99","60.17","50.9","0.0"],
    [1507363,"2026-02-16 07:30:00","53860","1.86","189.0","3.397","157.4","1014.762","14.01","60.55","65.53","0.0"],
    [1507364,"2026-02-16 07:40:00","53861","1.902","211.6","3.005","228.5","1014.956","14.03","60.39","82.2","0.0"],
    [1507365,"2026-02-16 07:50:00","53862","1.466","212.7","3.071","195.1","1014.963","14.02","61.18","105.9","0.0"],
    [1507366,"2026-02-16 08:00:00","53863","2.254","192.0","3.201","189.0","1014.82","13.98","61.93","147.7","0.0"],
    [1507367,"2026-02-16 08:10:00","53864","2.9530000000000003","193.8","3.7889999999999997","194.7","1014.695","13.83","61.97","161.0","0.0"],
    [1507368,"2026-02-16 08:20:00","53865","3.2239999999999998","208.4","5.586","220.3","1014.371","14.16","61.2","185.4","0.0"],
    [1507369,"2026-02-16 08:30:00","53866","2.907","208.3","4.933","208.6","1014.151","14.31","60.64","190.3","0.0"],
    [1507370,"2026-02-16 08:40:00","53867","2.387","220.9","4.181","203.7","1014.214","14.47","59.93","229.1","0.0"],
    [1507371,"2026-02-16 08:50:00","53868","1.671","262.1","3.397","272.7","1014.344","14.89","58.47","254.6","0.0"],
    [1507372,"2026-02-16 09:00:00","53869","1.692","248.5","3.822","258.9","1014.465","15.24","57.51","258.3","0.0"],
    [1507373,"2026-02-16 09:10:00","53870","1.6059999999999999","241.9","3.6910000000000003","212.6","1014.374","15.6","56.41","286.0","0.0"],
    [1507374,"2026-02-16 09:20:00","53871","2.763","234.5","5.129","229.3","1013.974","15.98","54.59","347.3","0.0"],
    [1507375,"2026-02-16 09:30:00","53872","3.1910000000000003","237.6","5.815","230.1","1013.847","16.38","52.69","374.3","0.0"],
    [1507376,"2026-02-16 09:40:00","53873","3.7260000000000004","238.2","7.252000000000001","218.7","1013.919","16.66","51.53","404.1","0.0"],
    [1507377,"2026-02-16 09:50:00","53874","3.71","227.6","6.566","217.5","1014.112","16.95","51.39","459.8","0.0"],
    [1507378,"2026-02-16 10:00:00","53875","2.1319999999999997","255.3","4.345","245.8","1014.451","17.31","49.88","549.0","0.0"],
    [1507379,"2026-02-16 10:10:00","53876","2.375","260.3","4.802","252.2","1014.13","17.56","48.69","478.7","0.0"],
    [1507380,"2026-02-16 10:20:00","53877","3.0380000000000003","227.7","5.651","205.7","1014.251","17.55","48.78","218.1","0.0"],
    [1507381,"2026-02-16 10:30:00","53878","2.985","288.6","7.84","302.1","1014.019","17.54","48.98","186.3","0.0"],
    [1507382,"2026-02-16 10:40:00","53879","3.275","304.5","7.415","262.9","1013.741","17.76","48.68","457.8","0.0"],
    [1507383,"2026-02-16 10:50:00","53880","3.815","285.6","8.49","284.3","1013.829","17.98","48.13","504.3","0.0"],
    [1507384,"2026-02-16 11:00:00","53881","4.038","301.5","9.57","297.6","1013.909","17.88","48.41","259.6","0.0"],
    [1507385,"2026-02-16 11:10:00","53882","5.867999999999999","302.4","9.57","299.3","1013.928","17.79","48.84","362.9","0.0"],
    [1507386,"2026-02-16 11:20:00","53883","5.08","302.2","8.85","327.4","1013.932","17.76","49.27","338.7","0.0"],
    [1507387,"2026-02-16 11:30:00","53884","5.492000000000001","297.1","10.39","279.5","1013.731","17.84","49.16","516.0","0.0"],
    [1507388,"2026-02-16 11:40:00","53885","6.851","293.4","10.52","285.5","1013.446","17.98","48.61","550.0","0.0"],
    [1507389,"2026-02-16 11:50:00","53886","6.871","284.9","11.3","302.9","1013.355","18.15","48.13","478.4","0.0"],
    [1507390,"2026-02-16 12:00:00","53887","7.2","281.4","13.26","246.5","1013.165","18.29","47.3","437.2","0.0"],
    [1507391,"2026-02-16 12:10:00","53888","8.02","287.7","13.16","283.4","1012.96","18.21","47.19","571.8","0.0"],
    [1507392,"2026-02-16 12:20:00","53889","6.579","286.7","10.0","288.0","1012.846","18.27","47.46","546.8","0.0"],
    [1507393,"2026-02-16 12:30:00","53890","5.86","286.2","10.39","254.0","1012.954","18.67","46.26","550.6","0.0"],
    [1507394,"2026-02-16 12:40:00","53891","6.316","287.9","11.92","264.9","1012.684","18.72","45.9","551.7","0.0"],
    [1507395,"2026-02-16 12:50:00","53892","7.518","290.9","12.74","307.4","1012.518","18.93","45.38","528.3","0.0"],
    [1507396,"2026-02-16 13:00:00","53893","8.25","283.1","13.07","282.6","1012.206","19.14","44.94","562.6","0.0"],
    [1507397,"2026-02-16 13:10:00","53894","7.39","283.7","11.73","289.8","1011.815","19.25","44.9","532.4","0.0"],
    [1507398,"2026-02-16 13:20:00","53895","6.425","270.9","10.32","278.6","1011.645","19.4","44.51","483.7","0.0"],
    [1507399,"2026-02-16 13:30:00","53896","3.105","269.6","6.435","290.5","1011.847","19.56","44.08","498.6","0.0"],
    [1507400,"2026-02-16 13:40:00","53897","3.198","268.5","5.4879999999999995","257.8","1011.984","19.71","43.28","294.9","0.0"],
    [1507401,"2026-02-16 13:50:00","53898","4.095","254.3","7.0889999999999995","266.2","1011.745","19.71","43.65","314.2","0.0"],
    [1507402,"2026-02-16 14:00:00","53899","3.872","265.2","7.611000000000001","292.6","1011.544","19.8","43.51","208.2","0.0"],
    [1507403,"2026-02-16 14:10:00","53900","5.321000000000001","272.7","12.32","273.7","1011.356","19.96","42.9","266.3","0.0"],
    [1507404,"2026-02-16 14:20:00","53901","4.194","230.5","8.53","254.1","1011.359","19.73","45.56","225.6","0.0"],
    [1507405,"2026-02-16 14:30:00","53902","5.989","259.1","11.43","290.7","1011.252","20.14","42.71","277.1","0.0"],
    [1507406,"2026-02-16 14:40:00","53903","4.776","273.1","10.09","287.8","1011.406","20.25","41.63","248.8","0.0"],
    [1507407,"2026-02-16 14:50:00","53904","6.229","279.9","14.41","289.6","1011.121","20.19","42.09","237.8","0.0"],
    [1507408,"2026-02-16 15:00:00","53905","6.3420000000000005","287.4","12.38","269.4","1011.135","20.19","41.96","228.4","0.0"],
    [1507409,"2026-02-16 15:10:00","53906","5.747999999999999","274.8","9.64","260.1","1011.291","20.25","42.07","287.1","0.0"],
    [1507410,"2026-02-16 15:20:00","53907","4.131","275.5","9.57","268.3","1011.334","20.32","42.24","233.1","0.0"],
    [1507411,"2026-02-16 15:30:00","53908","7.022","273.7","10.94","283.1","1011.398","20.31","42.17","260.2","0.0"],
    [1507412,"2026-02-16 15:40:00","53909","5.9910000000000005","272.9","11.17","292.5","1011.621","20.27","42.57","242.8","0.0"],
    [1507413,"2026-02-16 15:50:00","53910","5.641","276.5","10.81","280.7","1011.666","20.15","43.01","181.1","0.0"],
    [1507414,"2026-02-16 16:00:00","53911","3.9130000000000003","269.2","7.905","268.2","1011.563","20.1","43.36","144.6","0.0"],
    [1507415,"2026-02-16 16:10:00","53912","4.437","252.8","9.64","280.0","1011.454","20.11","43.05","144.2","0.0"],
    [1507416,"2026-02-16 16:20:00","53913","5.228","265.3","9.18","280.5","1011.292","20.06","43.25","122.3","0.0"],
    [1507417,"2026-02-16 16:30:00","53914","4.593999999999999","264.6","8.89","300.3","1011.267","19.8","44.21","57.42","0.0"],
    [1507418,"2026-02-16 16:40:00","53915","4.456","273.2","8.82","261.2","1011.202","19.67","44.68","43.64","0.0"],
    [1507419,"2026-02-16 16:50:00","53916","3.906","272.1","7.579","265.9","1011.271","19.65","44.72","38.12","0.0"],
    [1507420,"2026-02-16 17:00:00","53917","2.9960000000000004","257.8","5.455","255.8","1011.401","19.69","44.51","35.4","0.0"],
    [1507421,"2026-02-16 17:10:00","53918","2.387","242.1","4.835","243.1","1011.413","19.75","44.46","20.41","0.0"],
    [1507422,"2026-02-16 17:20:00","53919","3.841","257.8","10.26","271.0","1011.43","19.77","44.38","7.972","0.0"],
    [1507423,"2026-02-16 17:30:00","53920","2.687","248.7","6.925","288.0","1011.474","19.66","44.79","1.0170000000000001","0.0"],
    [1507424,"2026-02-16 17:40:00","53921","5.205","272.6","8.4","258.3","1011.227","19.68","44.87","0.0","0.0"],
    [1507425,"2026-02-16 17:50:00","53922","4.555","273.4","8.46","276.9","1011.394","19.66","44.81","0.0","0.0"],
    [1507426,"2026-02-16 18:00:00","53923","3.735","268.7","7.252000000000001","290.3","1011.533","19.56","44.91","0.0","0.0"],
    [1507427,"2026-02-16 18:10:00","53924","2.4819999999999998","279.0","4.671","272.0","1011.463","19.46","45.19","0.0","0.0"],
    [1507428,"2026-02-16 18:20:00","53925","1.952","270.9","4.704","262.6","1011.43","19.34","45.29","0.0","0.0"],
    [1507429,"2026-02-16 18:30:00","53926","1.653","294.2","2.7110000000000003","316.2","1011.744","19.18","45.79","0.0","0.0"],
    [1507430,"2026-02-16 18:40:00","53927","3.96","327.4","6.042999999999999","306.6","1011.871","19.06","46.73","0.0","0.0"],
    [1507431,"2026-02-16 18:50:00","53928","3.82","309.7","7.056","303.2","1011.828","18.92","47.23","0.0","0.0"],
    [1507432,"2026-02-16 19:00:00","53929","3.7230000000000003","299.4","8.43","304.6","1011.956","18.64","48.6","0.0","0.0"],
    [1507433,"2026-02-16 19:10:00","53930","3.827","292.0","6.435","281.1","1011.974","18.46","49.53","0.0","0.0"],
    [1507434,"2026-02-16 19:20:00","53931","4.663","290.6","8.69","291.9","1011.917","18.41","49.92","0.0","0.0"],
    [1507435,"2026-02-16 19:30:00","53932","4.822","290.4","8.2","287.6","1011.987","18.38","50.12","0.0","0.0"],
    [1507436,"2026-02-16 19:40:00","53933","5.75","292.0","8.85","320.0","1012.063","18.36","50.57","0.0","0.0"],
    [1507437,"2026-02-16 19:50:00","53934","6.055","292.3","9.05","276.2","1012.107","18.26","51.46","0.0","0.0"],
    [1507438,"2026-02-16 20:00:00","53935","6.228","292.5","9.54","310.1","1011.904","18.21","51.82","0.0","0.0"],
    [1507439,"2026-02-16 20:10:00","53936","5.7829999999999995","291.9","9.64","283.3","1011.817","18.1","52.35","0.0","0.0"],
    [1507440,"2026-02-16 20:20:00","53937","5.601","293.8","8.46","320.3","1011.828","18.02","52.79","0.0","0.0"],
    [1507441,"2026-02-16 20:30:00","53938","5.0","294.8","9.11","288.5","1011.713","17.94","53.1","0.0","0.0"],
    [1507442,"2026-02-16 20:40:00","53939","5.04","297.4","8.36","318.6","1011.547","17.89","53.23","0.0","0.0"],
    [1507443,"2026-02-16 20:50:00","53940","4.05","298.6","7.121","307.8","1012.038","17.87","53.13","0.0","0.0"],
    [1507444,"2026-02-16 21:00:00","53941","5.202999999999999","303.4","7.775","314.4","1012.287","17.9","52.84","0.0","0.0"],
    [1507445,"2026-02-16 21:10:00","53942","5.42","301.6","9.28","306.5","1012.277","18.03","51.59","0.0","0.0"],
    [1507446,"2026-02-16 21:20:00","53943","4.455","301.4","6.5329999999999995","311.6","1012.324","17.93","51.42","0.0","0.0"],
    [1507447,"2026-02-16 21:30:00","53944","5.649","305.5","10.13","319.7","1012.311","17.77","52.27","0.0","0.0"],
    [1507448,"2026-02-16 21:40:00","53945","5.944","303.5","10.36","313.8","1012.394","17.71","52.25","0.0","0.0"],
    [1507449,"2026-02-16 21:50:00","53946","5.2620000000000005","299.6","10.55","304.8","1012.613","17.65","51.93","0.0","0.0"],
    [1507450,"2026-02-16 22:00:00","53947","5.395","292.3","8.95","314.0","1012.644","17.5","52.34","0.0","0.0"],
    [1507451,"2026-02-16 22:10:00","53948","5.109","294.1","8.33","299.4","1012.723","17.39","52.58","0.0","0.0"],
    [1507452,"2026-02-16 22:20:00","53949","4.974","291.6","9.02","284.6","1012.731","17.22","53.11","0.0","0.0"],
    [1507453,"2026-02-16 22:30:00","53950","4.841","283.1","10.03","280.2","1012.75","17.07","53.32","0.0","0.0"],
    [1507454,"2026-02-16 22:40:00","53951","5.1370000000000005","287.2","9.73","267.9","1013.02","16.91","53.87","0.0","0.0"],
    [1507455,"2026-02-16 22:50:00","53952","5.159","288.3","9.08","286.0","1013.189","16.82","53.66","0.0","0.0"],
    [1507456,"2026-02-16 23:00:00","53953","3.1430000000000002","331.6","6.501","304.0","1013.618","16.65","54.37","0.0","0.0"],
    [1507457,"2026-02-16 23:10:00","53954","1.892","353.1","3.1689999999999996","20.12","1013.647","16.45","57.26","0.0","0.0"],
    [1507458,"2026-02-16 23:20:00","53955","2.2319999999999998","283.8","5.129","286.9","1013.867","16.28","56.09","0.0","0.0"],
    [1507459,"2026-02-16 23:30:00","53956","4.1819999999999995","293.9","6.207000000000001","288.1","1014.069","16.35","53.95","0.0","0.0"],
    [1507460,"2026-02-16 23:40:00","53957","5.127999999999999","292.7","6.9910000000000005","306.4","1013.886","16.27","53.52","0.0","0.0"],
    [1507461,"2026-02-16 23:50:00","53958","5.437","292.7","8.69","286.7","1013.616","16.19","53.38","0.0","0.0"],
    [1507462,"2026-02-17 00:00:00","53959","5.954","295.5","9.15","288.8","1013.455","16.09","53.24","0.0","0.0"],
    [1507463,"2026-02-17 00:10:00","53960","5.042","298.1","9.67","297.8","1013.647","15.98","53.24","0.0","0.0"],
    [1507464,"2026-02-17 00:20:00","53961","4.5569999999999995","295.5","7.775","297.3","1013.944","15.86","53.44","0.0","0.0"],
    [1507465,"2026-02-17 00:30:00","53962","5.07","287.6","9.41","296.2","1013.842","15.76","53.42","0.0","0.0"],
    [1507466,"2026-02-17 00:40:00","53963","5.685","279.1","9.64","271.9","1013.71","15.6","53.79","0.0","0.0"],
    [1507467,"2026-02-17 00:50:00","53964","6.063","285.9","9.02","284.0","1013.605","15.5","54.02","0.0","0.0"],
    [1507468,"2026-02-17 01:00:00","53965","6.34","287.3","9.57","279.6","1013.42","15.4","54.04","0.0","0.0"],
    [1507469,"2026-02-17 01:10:00","53966","5.744","289.6","8.0","280.5","1013.521","15.32","54.08","0.0","0.0"],
    [1507470,"2026-02-17 01:20:00","53967","5.2010000000000005","283.7","7.317","295.8","1013.747","15.24","54.12","0.0","0.0"],
    [1507471,"2026-02-17 01:30:00","53968","3.8480000000000003","274.5","6.566","282.9","1014.04","15.06","54.4","0.0","0.0"],
    [1507472,"2026-02-17 01:40:00","53969","2.548","259.5","4.704","257.4","1014.124","14.79","55.35","0.0","0.0"],
    [1507473,"2026-02-17 01:50:00","53970","3.737","272.6","6.893","291.0","1013.995","14.83","54.43","0.0","0.0"],
    [1507474,"2026-02-17 02:00:00","53971","6.265","292.0","9.38","287.7","1013.927","14.96","53.0","0.0","0.0"],
    [1507475,"2026-02-17 02:10:00","53972","7.035","295.0","10.09","282.2","1013.955","14.89","52.44","0.0","0.0"],
    [1507476,"2026-02-17 02:20:00","53973","6.19","292.0","8.98","298.8","1014.148","14.84","52.07","0.0","0.0"],
    [1507477,"2026-02-17 02:30:00","53974","5.707000000000001","288.8","8.72","282.3","1014.182","14.9","51.08","0.0","0.0"],
    [1507478,"2026-02-17 02:40:00","53975","5.882999999999999","283.7","8.62","274.5","1014.069","14.82","50.87","0.0","0.0"],
    [1507479,"2026-02-17 02:50:00","53976","6.095","295.1","10.16","298.0","1014.129","14.84","50.47","0.0","0.0"],
    [1507480,"2026-02-17 03:00:00","53977","6.082000000000001","300.6","8.95","301.5","1014.165","14.77","50.4","0.0","0.0"],
    [1507481,"2026-02-17 03:10:00","53978","5.421","303.7","9.24","298.7","1014.275","14.68","50.44","0.0","0.0"],
    [1507482,"2026-02-17 03:20:00","53979","5.335","305.2","9.7","299.3","1014.315","14.58","50.29","0.0","0.0"],
    [1507483,"2026-02-17 03:30:00","53980","5.609","301.1","8.79","283.5","1014.479","14.5","49.71","0.0","0.0"],
    [1507484,"2026-02-17 03:40:00","53981","5.782","308.1","10.45","297.1","1014.523","14.36","49.8","0.0","0.0"],
    [1507485,"2026-02-17 03:50:00","53982","4.5489999999999995","305.8","7.4479999999999995","313.1","1014.714","14.14","51.01","0.0","0.0"],
    [1507486,"2026-02-17 04:00:00","53983","5.507000000000001","293.5","8.04","300.0","1014.749","13.97","51.17","0.0","0.0"],
    [1507487,"2026-02-17 04:10:00","53984","5.141","307.8","8.46","321.8","1014.826","13.85","51.84","0.0","0.0"],
    [1507488,"2026-02-17 04:20:00","53985","6.178999999999999","329.0","8.53","346.9","1015.253","13.75","52.75","0.0","0.0"],
    [1507489,"2026-02-17 04:30:00","53986","5.353","318.1","8.82","328.3","1015.156","13.64","53.26","0.0","0.0"],
    [1507490,"2026-02-17 04:40:00","53987","5.7139999999999995","315.1","7.252000000000001","298.8","1015.218","13.53","54.25","0.0","0.0"],
    [1507491,"2026-02-17 04:50:00","53988","5.774","318.5","7.382999999999999","310.2","1015.478","13.45","54.12","0.0","0.0"],
    [1507492,"2026-02-17 05:00:00","53989","3.428","317.1","5.7170000000000005","320.5","1015.924","13.32","54.86","0.0","0.0"],
    [1507493,"2026-02-17 05:10:00","53990","1.456","179.5","3.299","208.6","1016.285","13.27","54.73","0.0","0.0"],
    [1507494,"2026-02-17 05:20:00","53991","0.618","129.1","1.993","111.3","1016.421","13.32","54.79","0.0","0.0"],
    [1507495,"2026-02-17 05:30:00","53992","0.937","71.52","2.385","115.7","1016.54","13.2","54.28","0.0","0.0"],
    [1507496,"2026-02-17 05:40:00","53993","1.548","72.86","2.417","87.3","1016.537","13.3","53.42","0.0","0.0"],
    [1507497,"2026-02-17 05:50:00","53994","1.271","22.5","1.797","232.0","1016.781","13.36","53.06","0.0","0.0"],
    [1507498,"2026-02-17 06:00:00","53995","1.835","283.3","3.071","258.2","1016.995","13.48","51.65","0.0","0.0"],
    [1507499,"2026-02-17 06:10:00","53996","2.6689999999999996","303.9","4.018","305.9","1017.203","13.39","53.02","0.0","0.0"],
    [1507500,"2026-02-17 06:20:00","53997","2.6039999999999996","291.1","3.659","301.6","1017.355","13.37","50.94","0.0","0.0"],
    [1507501,"2026-02-17 06:30:00","53998","1.71","287.4","2.613","290.3","1017.452","13.24","50.78","0.371","0.0"],
    [1507502,"2026-02-17 06:40:00","53999","0.983","224.5","2.352","277.0","1017.674","13.13","51.25","1.421","0.0"],
    [1507503,"2026-02-17 06:50:00","54000","1.3359999999999999","129.3","3.005","105.9","1017.908","13.26","51.22","2.3","0.0"],
    [1507504,"2026-02-17 07:00:00","54001","1.193","163.6","2.385","124.3","1018.078","13.4","51.28","9.77","0.0"],
    [1507505,"2026-02-17 07:10:00","54002","1.874","268.7","3.234","276.5","1018.213","13.12","51.75","23.24","0.0"],
    [1507506,"2026-02-17 07:20:00","54003","2.21","278.7","3.6260000000000003","268.5","1018.328","13.14","50.14","33.96","0.0"],
    [1507507,"2026-02-17 07:30:00","54004","2.334","275.0","3.659","271.8","1018.671","13.2","50.22","44.56","0.0"],
    [1507508,"2026-02-17 07:40:00","54005","1.973","231.0","3.201","229.7","1018.704","13.09","50.89","62.24","0.0"],
    [1507509,"2026-02-17 07:50:00","54006","2.8930000000000002","269.2","5.4879999999999995","282.9","1018.861","13.07","51.38","103.6","0.0"],
    [1507510,"2026-02-17 08:00:00","54007","3.245","279.8","5.194","281.9","1018.986","13.1","52.29","129.5","0.0"],
    [1507511,"2026-02-17 08:10:00","54008","3.529","297.0","5.357","317.5","1019.116","13.13","52.88","214.5","0.0"],
    [1507512,"2026-02-17 08:20:00","54009","3.4130000000000003","311.2","4.606","307.6","1019.076","13.27","53.45","223.3","0.0"],
    [1507513,"2026-02-17 08:30:00","54010","3.694","312.6","5.39","320.6","1019.254","13.42","53.69","266.9","0.0"],
    [1507514,"2026-02-17 08:40:00","54011","1.88","300.1","3.332","311.8","1019.442","13.74","52.87","298.5","0.0"],
    [1507515,"2026-02-17 08:50:00","54012","1.62","299.6","3.005","296.4","1019.519","14.04","50.95","300.5","0.0"],
    [1507516,"2026-02-17 09:00:00","54013","1.9969999999999999","336.7","2.875","336.3","1019.565","14.24","50.58","352.9","0.0"],
    [1507517,"2026-02-17 09:10:00","54014","1.126","0.11","4.181","145.1","1019.724","14.62","49.23","376.1","0.0"],
    [1507518,"2026-02-17 09:20:00","54015","3.924","147.4","5.129","142.7","1019.923","13.83","54.97","409.2","0.0"],
    [1507519,"2026-02-17 09:30:00","54016","3.9960000000000004","151.4","5.194","152.0","1020.247","13.6","56.54","436.4","0.0"],
    [1507520,"2026-02-17 09:40:00","54017","3.398","148.7","4.867","132.4","1020.416","13.71","56.97","456.6","0.0"],
    [1507521,"2026-02-17 09:50:00","54018","3.198","157.4","4.867","163.5","1020.475","13.8","55.81","473.6","0.0"],
    [1507522,"2026-02-17 10:00:00","54019","3.302","164.8","4.345","162.6","1020.562","13.94","54.24","488.1","0.0"],
    [1507523,"2026-02-17 10:10:00","54020","2.7230000000000003","160.5","3.5610000000000004","142.3","1020.625","14.09","55.23","513.8","0.0"],
    [1507524,"2026-02-17 10:20:00","54021","2.888","134.7","3.855","132.2","1020.657","14.2","59.25","544.2","0.0"],
    [1507525,"2026-02-17 10:30:00","54022","2.665","113.2","3.5610000000000004","107.2","1020.642","14.27","60.93","558.2","0.0"],
    [1507526,"2026-02-17 10:40:00","54023","3.515","108.8","4.508","110.9","1020.761","14.28","65.95","475.1","0.0"],
    [1507527,"2026-02-17 10:50:00","54024","3.446","103.6","4.802","108.6","1020.728","13.99","70.18","504.1","0.0"],
    [1507528,"2026-02-17 11:00:00","54025","3.5269999999999997","111.4","4.9","110.9","1020.681","14.0","71.93","583.1","0.0"],
    [1507529,"2026-02-17 11:10:00","54026","3.016","99.4","4.2139999999999995","93.2","1020.671","14.13","72.33","600.7","0.0"],
    [1507530,"2026-02-17 11:20:00","54027","3.33","106.7","5.031000000000001","109.0","1020.669","14.12","72.38","610.9","0.0"],
    [1507531,"2026-02-17 11:30:00","54028","3.4019999999999997","96.3","4.737","99.5","1020.675","13.93","72.8","620.1","0.0"],
    [1507532,"2026-02-17 11:40:00","54029","3.424","106.6","5.096","94.6","1020.672","13.9","72.62","629.8","0.0"],
    [1507533,"2026-02-17 11:50:00","54030","3.7110000000000003","102.3","4.769","111.3","1020.564","13.91","72.48","642.9","0.0"],
    [1507534,"2026-02-17 12:00:00","54031","3.802","91.5","5.129","101.9","1020.352","13.82","72.28","644.2","0.0"],
    [1507535,"2026-02-17 12:10:00","54032","3.987","81.6","5.945","90.1","1020.291","13.77","72.08","642.5","0.0"],
    [1507536,"2026-02-17 12:20:00","54033","4.282","69.45","5.455","68.69","1020.223","13.68","71.8","643.4","0.0"],
    [1507537,"2026-02-17 12:30:00","54034","4.3469999999999995","70.27","5.357","68.61","1020.078","13.71","72.02","643.2","0.0"],
    [1507538,"2026-02-17 12:40:00","54035","3.9610000000000003","66.84","5.129","66.28","1020.054","13.72","71.94","629.8","0.0"],
    [1507539,"2026-02-17 12:50:00","54036","4.102","74.24","5.586","86.7","1019.964","13.71","71.94","627.1","0.0"],
    [1507540,"2026-02-17 13:00:00","54037","4.121","81.4","5.325","84.0","1019.933","13.67","71.47","617.9","0.0"],
    [1507541,"2026-02-17 13:10:00","54038","4.2219999999999995","67.57","5.88","69.37","1019.822","13.66","71.28","608.6","0.0"],
    [1507542,"2026-02-17 13:20:00","54039","4.4110000000000005","51.7","6.011","53.17","1019.648","13.66","71.11","598.2","0.0"],
    [1507543,"2026-02-17 13:30:00","54040","4.072","32.5","5.129","15.12","1019.565","13.59","71.82","582.7","0.0"],
    [1507544,"2026-02-17 13:40:00","54041","3.97","15.95","4.998","20.24","1019.402","13.66","73.47","569.0","0.0"],
    [1507545,"2026-02-17 13:50:00","54042","3.09","20.92","4.638999999999999","1.9769999999999999","1019.267","13.8","75.62","552.4","0.0"],
    [1507546,"2026-02-17 14:00:00","54043","2.1069999999999998","42.37","2.875","37.58","1019.249","13.85","75.02","533.0","0.0"],
    [1507547,"2026-02-17 14:10:00","54044","2.7310000000000003","38.36","3.5610000000000004","42.84","1019.137","13.97","73.92","517.8","0.0"],
    [1507548,"2026-02-17 14:20:00","54045","2.548","56.47","3.267","76.7","1019.079","14.02","74.48","496.3","0.0"],
    [1507549,"2026-02-17 14:30:00","54046","3.502","67.73","4.083","60.75","1018.968","14.06","76.53","477.2","0.0"],
    [1507550,"2026-02-17 14:40:00","54047","3.426","87.7","4.312","89.0","1018.927","13.95","79.07","456.8","0.0"],
    [1507551,"2026-02-17 14:50:00","54048","3.8289999999999997","112.0","4.769","110.0","1018.872","13.96","79.13","434.9","0.0"],
    [1507552,"2026-02-17 15:00:00","54049","3.3710000000000004","114.7","4.051","109.9","1018.919","13.92","78.88","408.7","0.0"],
    [1507553,"2026-02-17 15:10:00","54050","3.345","127.4","4.247","119.8","1018.91","13.92","79.98","379.4","0.0"],
    [1507554,"2026-02-17 15:20:00","54051","2.6310000000000002","140.2","3.659","141.2","1018.954","13.92","81.0","351.4","0.0"],
    [1507555,"2026-02-17 15:30:00","54052","2.44","98.3","3.267","87.1","1018.874","13.86","81.1","321.9","0.0"],
    [1507556,"2026-02-17 15:40:00","54053","2.7539999999999996","107.8","3.397","116.3","1018.98","13.86","80.1","292.6","0.0"],
    [1507557,"2026-02-17 15:50:00","54054","2.559","73.31","3.397","77.06","1019.022","13.82","77.83","253.3","0.0"],
    [1507558,"2026-02-17 16:00:00","54055","2.542","49.83","3.887","44.3","1019.02","13.87","73.3","227.1","0.0"],
    [1507559,"2026-02-17 16:10:00","54056","3.2089999999999996","43.63","3.985","53.69","1019.026","13.91","68.66","190.5","0.0"],
    [1507560,"2026-02-17 16:20:00","54057","2.588","56.18","3.7239999999999998","51.08","1019.169","14.12","69.58","159.7","0.0"],
    [1507561,"2026-02-17 16:30:00","54058","3.497","66.18","5.422999999999999","49.34","1019.171","14.06","72.87","95.6","0.0"],
    [1507562,"2026-02-17 16:40:00","54059","3.695","116.8","5.194","103.3","1019.209","14.05","79.95","55.95","0.0"],
    [1507563,"2026-02-17 16:50:00","54060","4.515","116.9","5.651","115.3","1019.254","13.74","84.7","38.87","0.0"],
    [1507564,"2026-02-17 17:00:00","54061","4.321000000000001","114.6","5.4879999999999995","107.0","1019.287","13.69","86.7","20.62","0.0"],
    [1507565,"2026-02-17 17:10:00","54062","4.0360000000000005","115.1","5.2589999999999995","105.5","1019.399","13.67","88.5","14.66","0.0"],
    [1507566,"2026-02-17 17:20:00","54063","3.267","101.0","4.835","102.7","1019.488","13.73","89.5","11.17","0.0"],
    [1507567,"2026-02-17 17:30:00","54064","2.972","103.4","4.181","108.8","1019.548","13.68","90.5","4.105","0.0"],
    [1507568,"2026-02-17 17:40:00","54065","3.7319999999999998","104.8","5.455","109.5","1019.614","13.65","91.2","0.198","0.0"],
    [1507569,"2026-02-17 17:50:00","54066","3.6839999999999997","104.2","5.292000000000001","108.3","1019.676","13.59","91.9","0.0","0.0"],
    [1507570,"2026-02-17 18:00:00","54067","3.213","105.8","4.835","105.3","1019.896","13.56","92.1","0.0","0.0"],
    [1507571,"2026-02-17 18:10:00","54068","3.195","99.3","4.638999999999999","101.2","1019.919","13.53","92.1","0.0","0.0"],
    [1507572,"2026-02-17 18:20:00","54069","3.1210000000000004","92.6","4.475","85.8","1019.909","13.53","92.2","0.0","0.0"],
    [1507573,"2026-02-17 18:30:00","54070","2.841","87.7","3.822","76.63","1020.093","13.55","92.4","0.0","0.0"],
    [1507574,"2026-02-17 18:40:00","54071","2.781","76.91","3.855","68.04","1020.198","13.55","92.8","0.0","0.0"],
    [1507575,"2026-02-17 18:50:00","54072","3.404","70.3","4.345","68.46","1020.151","13.49","93.1","0.0","0.0"],
    [1507576,"2026-02-17 19:00:00","54073","2.911","60.13","4.279","67.04","1020.213","13.49","93.5","0.0","0.0"],
    [1507577,"2026-02-17 19:10:00","54074","3.252","67.73","4.312","71.34","1020.233","13.51","94.1","0.0","0.0"],
    [1507578,"2026-02-17 19:20:00","54075","3.34","86.0","4.737","91.2","1020.297","13.48","94.7","0.0","0.0"],
    [1507579,"2026-02-17 19:30:00","54076","3.2289999999999996","94.0","4.475","93.3","1020.252","13.44","95.2","0.0","0.0"],
    [1507580,"2026-02-17 19:40:00","54077","3.125","92.1","4.345","93.3","1020.2","13.37","95.5","0.0","0.0"],
    [1507581,"2026-02-17 19:50:00","54078","2.9130000000000003","105.9","4.181","103.4","1020.209","13.34","95.6","0.0","0.0"],
    [1507582,"2026-02-17 20:00:00","54079","3.02","95.8","4.018","102.1","1020.217","13.33","95.7","0.0","0.0"],
    [1507583,"2026-02-17 20:10:00","54080","2.767","97.5","3.7889999999999997","106.6","1020.241","13.34","95.6","0.0","0.0"],
    [1507584,"2026-02-17 20:20:00","54081","3.13","106.1","4.1160000000000005","106.0","1020.286","13.29","95.5","0.0","0.0"],
    [1507585,"2026-02-17 20:30:00","54082","3.0389999999999997","101.2","4.1160000000000005","107.2","1020.273","13.18","95.1","0.0","0.0"],
    [1507586,"2026-02-17 20:40:00","54083","2.826","98.2","4.247","111.0","1020.31","13.23","94.3","0.0","0.0"],
    [1507587,"2026-02-17 20:50:00","54084","3.417","102.6","4.606","104.7","1020.187","13.21","93.8","0.0","0.0"],
    [1507588,"2026-02-17 21:00:00","54085","3.012","106.7","4.377","104.7","1020.126","13.25","93.5","0.0","0.0"],
    [1507589,"2026-02-17 21:10:00","54086","3.217","97.2","4.965","101.6","1020.125","13.26","93.6","0.0","0.0"],
    [1507590,"2026-02-17 21:20:00","54087","3.181","79.3","4.2139999999999995","89.2","1020.119","13.26","93.7","0.0","0.0"],
    [1507591,"2026-02-17 21:30:00","54088","3.384","75.6","4.933","70.16","1020.139","13.2","93.7","0.0","0.0"],
    [1507592,"2026-02-17 21:40:00","54089","3.725","68.19","4.965","64.52","1020.078","13.16","93.5","0.0","0.0"],
    [1507593,"2026-02-17 21:50:00","54090","3.137","63.49","4.802","71.14","1020.148","13.22","93.3","0.0","0.0"],
    [1507594,"2026-02-17 22:00:00","54091","3.5010000000000003","65.15","5.129","68.4","1020.134","13.16","92.8","0.0","0.0"],
    [1507595,"2026-02-17 22:10:00","54092","4.2","67.47","5.2589999999999995","68.23","1019.976","13.12","92.4","0.0","0.0"],
    [1507596,"2026-02-17 22:20:00","54093","3.696","59.85","5.096","49.34","1019.941","13.13","92.0","0.0","0.0"],
    [1507597,"2026-02-17 22:30:00","54094","3.3080000000000003","61.1","4.835","49.87","1019.952","13.13","91.9","0.0","0.0"],
    [1507598,"2026-02-17 22:40:00","54095","3.71","49.67","4.965","44.65","1019.893","13.1","91.6","0.0","0.0"],
    [1507599,"2026-02-17 22:50:00","54096","3.4219999999999997","58.99","4.965","44.65","1019.84","13.09","91.4","0.0","0.0"],
    [1507600,"2026-02-17 23:00:00","54097","3.3930000000000002","57.33","4.638999999999999","45.95","1019.812","13.09","91.4","0.0","0.0"],
    [1507601,"2026-02-17 23:10:00","54098","3.9530000000000003","66.89","5.096","72.79","1019.771","13.03","90.9","0.0","0.0"],
    [1507602,"2026-02-17 23:20:00","54099","4.0489999999999995","64.76","5.194","54.15","1019.777","13.05","90.2","0.0","0.0"],
    [1507603,"2026-02-17 23:30:00","54100","3.7119999999999997","60.95","5.553","61.88","1019.827","13.02","90.0","0.0","0.0"],
    [1507604,"2026-02-17 23:40:00","54101","3.509","54.15","5.553","55.18","1019.742","13.0","89.8","0.0","0.0"],
    [1507605,"2026-02-17 23:50:00","54102","3.727","57.15","4.835","60.52","1019.66","13.0","89.5","0.0","0.0"],
    [1507606,"2026-02-18 00:00:00","54103","3.8280000000000003","65.21","5.2589999999999995","62.92","1019.538","13.0","89.6","0.0","0.0"],
    [1507607,"2026-02-18 00:10:00","54104","3.758","61.33","5.227","55.43","1019.403","12.98","89.5","0.0","0.0"],
    [1507608,"2026-02-18 00:20:00","54105","4.131","56.7","5.749","61.96","1019.282","12.98","89.3","0.0","0.0"],
    [1507609,"2026-02-18 00:30:00","54106","4.2219999999999995","51.99","5.749","54.55","1019.189","12.98","89.3","0.0","0.0"],
    [1507610,"2026-02-18 00:40:00","54107","3.753","53.41","4.933","54.19","1019.192","12.97","89.5","0.0","0.0"],
    [1507611,"2026-02-18 00:50:00","54108","3.062","66.53","4.181","70.72","1019.348","12.97","89.5","0.0","0.0"],
    [1507612,"2026-02-18 01:00:00","54109","3.0589999999999997","65.8","4.149","66.3","1019.324","12.96","89.1","0.0","0.0"],
    [1507613,"2026-02-18 01:10:00","54110","3.052","70.5","4.1160000000000005","64.45","1019.231","12.98","89.0","0.0","0.0"],
    [1507614,"2026-02-18 01:20:00","54111","3.333","68.99","4.083","66.22","1019.165","12.95","88.7","0.0","0.0"],
    [1507615,"2026-02-18 01:30:00","54112","3.22","75.07","4.279","68.63","1019.127","12.95","88.6","0.0","0.0"],
    [1507616,"2026-02-18 01:40:00","54113","3.202","71.26","4.312","63.15","1019.092","12.96","88.9","0.0","0.0"],
    [1507617,"2026-02-18 01:50:00","54114","2.948","60.4","4.1160000000000005","65.05","1019.061","12.9","89.1","0.0","0.0"],
    [1507618,"2026-02-18 02:00:00","54115","3.037","63.31","3.887","62.81","1018.893","12.86","89.2","0.0","0.0"],
    [1507619,"2026-02-18 02:10:00","54116","3.32","67.93","3.9530000000000003","64.31","1018.63","12.83","89.3","0.0","0.0"],
    [1507620,"2026-02-18 02:20:00","54117","2.9130000000000003","69.32","3.6260000000000003","65.96","1018.566","12.85","89.4","0.0","0.0"],
    [1507621,"2026-02-18 02:30:00","54118","3.237","68.49","4.051","69.04","1018.423","12.85","89.7","0.0","0.0"],
    [1507622,"2026-02-18 02:40:00","54119","2.5839999999999996","72.31","3.6910000000000003","67.0","1018.388","12.83","90.0","0.0","0.0"],
    [1507623,"2026-02-18 02:50:00","54120","2.827","70.9","3.659","56.48","1018.252","12.82","90.2","0.0","0.0"],
    [1507624,"2026-02-18 03:00:00","54121","2.6489999999999996","67.94","3.495","70.12","1018.166","12.8","90.4","0.0","0.0"],
    [1507625,"2026-02-18 03:10:00","54122","2.488","51.75","3.071","43.64","1017.99","12.79","90.4","0.0","0.0"],
    [1507626,"2026-02-18 03:20:00","54123","2.27","50.62","3.071","57.06","1017.823","12.84","90.7","0.0","0.0"],
    [1507627,"2026-02-18 03:30:00","54124","2.101","45.81","3.0380000000000003","46.18","1017.632","12.77","90.9","0.0","0.0"],
    [1507628,"2026-02-18 03:40:00","54125","2.488","40.03","3.0380000000000003","40.38","1017.539","12.8","91.1","0.0","0.0"],
    [1507629,"2026-02-18 03:50:00","54126","2.5","25.65","3.071","25.82","1017.546","12.79","91.5","0.0","0.0"],
    [1507630,"2026-02-18 04:00:00","54127","2.4819999999999998","26.63","2.94","26.58","1017.564","12.64","91.4","0.0","0.0"],
    [1507631,"2026-02-18 04:10:00","54128","2.395","21.47","2.907","20.0","1017.483","12.64","89.5","0.0","0.0"],
    [1507632,"2026-02-18 04:20:00","54129","2.168","27.9","2.842","22.47","1017.448","12.76","88.6","0.0","0.0"],
    [1507633,"2026-02-18 04:30:00","54130","2.204","31.12","2.679","32.58","1017.283","12.67","88.4","0.0","0.0"],
    [1507634,"2026-02-18 04:40:00","54131","2.03","24.55","2.483","24.93","1017.238","12.64","88.6","0.0","0.0"],
    [1507635,"2026-02-18 04:50:00","54132","2.068","26.64","2.352","21.4","1017.205","12.55","88.7","0.0","0.0"],
    [1507636,"2026-02-18 05:00:00","54133","1.768","31.11","2.189","28.84","1017.048","12.5","88.8","0.0","0.0"],
    [1507637,"2026-02-18 05:10:00","54134","1.3219999999999998","16.37","1.7309999999999999","5.09","1017.034","12.5","89.2","0.0","0.0"],
    [1507638,"2026-02-18 05:20:00","54135","1.376","2.873","1.7309999999999999","5.997999999999999","1017.065","12.47","89.5","0.0","0.0"],
    [1507639,"2026-02-18 05:30:00","54136","1.24","339.8","1.666","349.5","1017.059","12.37","89.7","0.0","0.0"],
    [1507640,"2026-02-18 05:40:00","54137","1.209","341.9","1.633","346.1","1016.997","12.28","89.9","0.0","0.0"],
    [1507641,"2026-02-18 05:50:00","54138","0.9009999999999999","342.1","1.274","337.5","1016.867","12.29","90.1","0.0","0.0"],
    [1507642,"2026-02-18 06:00:00","54139","0.272","313.1","0.98","307.4","1016.821","12.18","90.2","0.0","0.0"],
    [1507643,"2026-02-18 06:10:00","54140","1.764","280.7","2.254","274.0","1016.857","11.77","90.3","0.0","0.0"],
    [1507644,"2026-02-18 06:20:00","54141","1.736","262.8","2.025","255.4","1016.842","11.39","91.1","0.0","0.0"],
    [1507645,"2026-02-18 06:30:00","54142","1.858","261.6","2.189","263.6","1016.835","11.24","91.8","0.027000000000000003","0.0"],
    [1507646,"2026-02-18 06:40:00","54143","1.9280000000000002","262.4","2.319","261.3","1016.754","11.07","92.1","1.182","0.0"],
    [1507647,"2026-02-18 06:50:00","54144","2.125","266.8","2.7110000000000003","268.2","1016.725","11.1","92.5","5.16","0.0"],
    [1507648,"2026-02-18 07:00:00","54145","2.3369999999999997","274.2","2.842","270.0","1016.673","10.95","92.5","16.56","0.0"],
    [1507649,"2026-02-18 07:10:00","54146","1.631","257.0","2.319","270.6","1016.671","11.09","92.6","35.41","0.0"],
    [1507650,"2026-02-18 07:20:00","54147","1.689","263.0","2.123","265.2","1016.744","11.35","92.1","58.68","0.0"],
    [1507651,"2026-02-18 07:30:00","54148","1.798","273.0","2.221","281.7","1016.669","11.4","91.2","80.4","0.0"],
    [1507652,"2026-02-18 07:40:00","54149","1.433","269.1","1.7309999999999999","274.1","1016.676","11.44","90.7","110.5","0.0"],
    [1507653,"2026-02-18 07:50:00","54150","1.723","264.4","2.156","258.8","1016.722","11.66","90.2","113.5","0.0"],
    [1507654,"2026-02-18 08:00:00","54151","1.609","284.2","2.352","260.1","1016.824","11.91","89.8","109.7","0.0"],
    [1507655,"2026-02-18 08:10:00","54152","1.297","298.8","2.319","300.4","1016.758","12.22","88.9","118.5","0.0"],
    [1507656,"2026-02-18 08:20:00","54153","1.639","310.1","2.6460000000000004","316.1","1016.696","12.35","88.2","124.9","0.0"],
    [1507657,"2026-02-18 08:30:00","54154","0.818","300.3","1.405","317.1","1016.626","12.59","87.4","274.9","0.0"],
    [1507658,"2026-02-18 08:40:00","54155","0.313","282.9","0.8490000000000001","293.0","1016.571","12.83","85.4","222.1","0.0"],
    [1507659,"2026-02-18 08:50:00","54156","0.316","266.8","0.915","260.8","1016.437","12.93","83.4","279.9","0.0"],
    [1507660,"2026-02-18 09:00:00","54157","0.0","0.0","0.0","0.0","1016.295","13.09","81.6","316.1","0.0"],
    [1507661,"2026-02-18 09:10:00","54158","1.0","176.7","1.633","161.7","1016.274","13.19","79.64","385.6","0.0"],
    [1507662,"2026-02-18 09:20:00","54159","0.703","134.9","0.98","133.2","1016.14","13.6","78.29","418.4","0.0"],
    [1507663,"2026-02-18 09:30:00","54160","0.33","122.6","1.3719999999999999","45.83","1016.033","13.99","76.78","418.5","0.0"],
    [1507664,"2026-02-18 09:40:00","54161","1.7","113.2","2.7110000000000003","137.2","1016.045","13.61","76.61","386.4","0.0"],
    [1507665,"2026-02-18 09:50:00","54162","2.491","153.4","2.9730000000000003","157.6","1016.121","13.09","79.41","411.4","0.0"],
    [1507666,"2026-02-18 10:00:00","54163","2.469","158.6","3.103","168.0","1016.188","13.14","80.5","386.1","0.0"],
    [1507667,"2026-02-18 10:10:00","54164","2.911","170.6","3.593","171.1","1016.1","13.25","81.3","426.9","0.0"],
    [1507668,"2026-02-18 10:20:00","54165","2.181","232.5","3.5610000000000004","253.1","1015.983","13.77","77.82","439.8","0.0"],
    [1507669,"2026-02-18 10:30:00","54166","1.7280000000000002","238.9","2.8089999999999997","233.3","1015.862","14.44","71.45","465.0","0.0"],
    [1507670,"2026-02-18 10:40:00","54167","2.021","240.1","3.9530000000000003","261.2","1015.735","14.51","69.81","539.6","0.0"],
    [1507671,"2026-02-18 10:50:00","54168","2.012","228.6","3.659","228.2","1015.633","14.46","70.04","533.1","0.0"],
    [1507672,"2026-02-18 11:00:00","54169","2.181","234.9","3.822","244.4","1015.438","14.51","70.51","516.7","0.0"],
    [1507673,"2026-02-18 11:10:00","54170","3.748","185.8","5.39","213.7","1015.356","13.99","74.21","394.8","0.0"],
    [1507674,"2026-02-18 11:20:00","54171","4.864","178.1","6.109","170.5","1015.213","13.51","79.57","437.4","0.0"],
    [1507675,"2026-02-18 11:30:00","54172","5.321000000000001","183.7","7.023","183.9","1015.139","13.34","81.5","512.6","0.0"],
    [1507676,"2026-02-18 11:40:00","54173","5.419","185.2","6.893","184.9","1014.988","13.18","83.0","518.6","0.0"],
    [1507677,"2026-02-18 11:50:00","54174","4.927","190.9","6.37","182.0","1014.779","13.34","84.0","562.9","0.0"],
    [1507678,"2026-02-18 12:00:00","54175","5.1339999999999995","184.8","6.337000000000001","193.5","1014.561","13.17","84.8","342.0","0.0"],
    [1507679,"2026-02-18 12:10:00","54176","5.052","195.1","6.925","189.3","1014.412","13.26","85.5","279.1","0.0"],
    [1507680,"2026-02-18 12:20:00","54177","3.885","200.5","6.631","190.7","1014.218","13.51","84.3","303.9","0.0"],
    [1507681,"2026-02-18 12:30:00","54178","4.149","205.4","6.599","218.1","1013.955","13.61","83.6","359.8","0.0"],
    [1507682,"2026-02-18 12:40:00","54179","4.026","206.9","6.1739999999999995","188.6","1013.73","13.51","84.3","373.6","0.0"],
    [1507683,"2026-02-18 12:50:00","54180","4.601","195.0","6.272","197.5","1013.518","13.5","85.9","386.0","0.0"],
    [1507684,"2026-02-18 13:00:00","54181","4.662","199.8","7.6770000000000005","196.2","1013.19","13.53","87.0","459.9","0.0"],
    [1507685,"2026-02-18 13:10:00","54182","4.488","205.8","6.37","210.4","1012.874","13.55","87.6","408.7","0.0"],
    [1507686,"2026-02-18 13:20:00","54183","3.5269999999999997","220.9","6.1739999999999995","227.5","1012.693","13.61","87.4","398.9","0.0"],
    [1507687,"2026-02-18 13:30:00","54184","2.93","222.7","5.1610000000000005","219.3","1012.411","13.94","86.3","577.0","0.0"],
    [1507688,"2026-02-18 13:40:00","54185","3.253","214.8","5.455","227.4","1012.19","14.23","83.7","583.9","0.0"],
    [1507689,"2026-02-18 13:50:00","54186","4.122","216.7","7.6770000000000005","227.1","1011.93","14.63","79.01","564.6","0.0"],
    [1507690,"2026-02-18 14:00:00","54187","5.565","219.9","8.17","223.2","1011.606","14.59","75.84","547.5","0.0"],
    [1507691,"2026-02-18 14:10:00","54188","4.341","216.9","7.513","194.5","1011.385","14.89","75.1","528.4","0.0"],
    [1507692,"2026-02-18 14:20:00","54189","4.875","214.0","7.121","203.9","1011.074","15.06","73.39","510.1","0.0"],
    [1507693,"2026-02-18 14:30:00","54190","5.207000000000001","206.8","8.23","212.0","1010.616","15.22","70.71","489.8","0.0"],
    [1507694,"2026-02-18 14:40:00","54191","5.712999999999999","204.8","8.3","191.5","1010.499","14.85","72.73","469.0","0.0"],
    [1507695,"2026-02-18 14:50:00","54192","5.6","199.0","8.82","191.2","1010.292","14.72","74.29","446.5","0.0"],
    [1507696,"2026-02-18 15:00:00","54193","6.242000000000001","201.3","8.75","204.5","1010.221","14.57","74.77","421.3","0.0"],
    [1507697,"2026-02-18 15:10:00","54194","6.9239999999999995","199.1","9.47","194.0","1010.026","14.43","76.05","395.2","0.0"],
    [1507698,"2026-02-18 15:20:00","54195","5.459","208.1","8.23","216.5","1010.011","14.42","79.72","367.0","0.0"],
    [1507699,"2026-02-18 15:30:00","54196","5.477","204.8","9.28","225.4","1009.903","14.47","79.36","334.3","0.0"],
    [1507700,"2026-02-18 15:40:00","54197","5.188","200.4","7.579","205.2","1009.574","14.47","79.76","309.7","0.0"],
    [1507701,"2026-02-18 15:50:00","54198","5.112","201.0","7.35","201.3","1009.518","14.31","81.1","277.7","0.0"],
    [1507702,"2026-02-18 16:00:00","54199","3.293","209.1","4.867","225.1","1009.482","14.54","81.5","241.6","0.0"],
    [1507703,"2026-02-18 16:10:00","54200","3.217","215.7","5.553","225.1","1009.476","14.77","79.28","196.0","0.0"],
    [1507704,"2026-02-18 16:20:00","54201","3.315","204.8","5.7170000000000005","198.5","1009.416","14.85","77.73","168.8","0.0"],
    [1507705,"2026-02-18 16:30:00","54202","3.305","200.2","4.638999999999999","197.9","1009.309","14.95","75.71","109.1","0.0"],
    [1507706,"2026-02-18 16:40:00","54203","3.179","207.0","5.39","220.8","1009.044","14.81","75.75","44.86","0.0"],
    [1507707,"2026-02-18 16:50:00","54204","3.6189999999999998","198.3","5.357","190.7","1008.761","14.9","73.84","38.15","0.0"],
    [1507708,"2026-02-18 17:00:00","54205","4.77","192.7","6.501","197.1","1008.742","14.4","78.62","32.32","0.0"],
    [1507709,"2026-02-18 17:10:00","54206","4.08","193.9","5.422999999999999","185.9","1008.552","13.96","85.0","21.3","0.0"],
    [1507710,"2026-02-18 17:20:00","54207","3.512","204.1","4.965","202.2","1008.512","14.14","82.7","10.33","0.0"],
    [1507711,"2026-02-18 17:30:00","54208","3.033","198.6","5.031000000000001","204.0","1008.52","14.2","80.8","3.168","0.0"],
    [1507712,"2026-02-18 17:40:00","54209","3.6710000000000003","194.4","5.521","197.0","1008.402","13.96","81.9","1.23","0.0"],
    [1507713,"2026-02-18 17:50:00","54210","4.081","196.7","6.5329999999999995","189.8","1008.311","13.75","82.7","0.079","0.0"],
    [1507714,"2026-02-18 18:00:00","54211","3.363","201.2","5.227","195.7","1008.43","13.77","82.6","0.0","0.0"],
    [1507715,"2026-02-18 18:10:00","54212","4.013999999999999","197.4","6.239","199.1","1008.391","13.74","84.3","0.0","0.0"],
    [1507716,"2026-02-18 18:20:00","54213","3.4219999999999997","206.2","5.4879999999999995","191.2","1008.481","13.66","86.7","0.0","0.0"],
    [1507717,"2026-02-18 18:30:00","54214","3.8310000000000004","210.5","6.207000000000001","205.7","1008.524","13.55","88.2","0.0","0.0"],
    [1507718,"2026-02-18 18:40:00","54215","4.18","211.6","7.742000000000001","232.4","1008.503","13.59","89.4","0.0","0.0"],
    [1507719,"2026-02-18 18:50:00","54216","4.084","210.9","6.7620000000000005","215.3","1008.366","13.59","90.1","0.0","0.0"],
    [1507720,"2026-02-18 19:00:00","54217","4.354","216.1","8.56","201.2","1008.149","13.57","90.5","0.0","0.0"],
    [1507721,"2026-02-18 19:10:00","54218","4.7410000000000005","215.3","8.07","210.9","1008.044","13.53","90.5","0.0","0.0"],
    [1507722,"2026-02-18 19:20:00","54219","4.321000000000001","210.5","8.07","210.9","1007.919","13.48","90.8","0.0","0.0"],
    [1507723,"2026-02-18 19:30:00","54220","4.273","212.5","6.501","225.6","1007.74","13.37","91.4","0.0","0.0"],
    [1507724,"2026-02-18 19:40:00","54221","3.3930000000000002","217.8","6.042999999999999","212.7","1007.63","13.4","92.1","0.0","0.0"],
    [1507725,"2026-02-18 19:50:00","54222","1.8659999999999999","221.1","3.7569999999999997","259.9","1007.482","13.3","92.3","0.0","0.0"],
    [1507726,"2026-02-18 20:00:00","54223","1.771","209.5","3.528","178.7","1007.245","13.22","92.6","0.0","0.0"],
    [1507727,"2026-02-18 20:10:00","54224","2.17","243.0","5.521","279.4","1007.128","13.24","93.1","0.0","0.0"],
    [1507728,"2026-02-18 20:20:00","54225","1.766","223.5","4.149","217.6","1006.915","13.25","93.7","0.0","0.0"],
    [1507729,"2026-02-18 20:30:00","54226","3.555","216.6","6.664","217.9","1006.697","13.35","95.0","0.0","0.0"],
    [1507730,"2026-02-18 20:40:00","54227","3.235","241.1","5.422999999999999","258.4","1006.801","13.21","96.3","0.0","0.0"],
    [1507731,"2026-02-18 20:50:00","54228","3.298","244.5","5.39","255.2","1006.892","13.14","97.4","0.0","0.0"],
    [1507732,"2026-02-18 21:00:00","54229","2.945","225.0","5.945","213.0","1006.964","13.2","98.9","0.0","0.0"],
    [1507733,"2026-02-18 21:10:00","54230","3.305","210.9","5.782","231.4","1006.903","13.02","99.6","0.0","0.0"],
    [1507734,"2026-02-18 21:20:00","54231","2.855","217.8","5.521","222.4","1006.741","12.99","99.9","0.0","0.0"],
    [1507735,"2026-02-18 21:30:00","54232","1.89","223.1","4.312","230.6","1006.843","12.96","100.0","0.0","0.0"],
    [1507736,"2026-02-18 21:40:00","54233","1.686","244.8","3.1689999999999996","254.1","1006.829","12.92","100.0","0.0","0.0"],
    [1507737,"2026-02-18 21:50:00","54234","1.6469999999999998","248.1","3.397","258.7","1006.818","12.67","100.0","0.0","0.0"],
    [1507738,"2026-02-18 22:00:00","54235","1.133","252.5","3.7889999999999997","258.3","1006.812","12.5","100.0","0.0","0.0"],
    [1507739,"2026-02-18 22:10:00","54236","2.051","260.5","4.737","252.6","1006.809","12.53","100.0","0.0","0.0"],
    [1507740,"2026-02-18 22:20:00","54237","1.8430000000000002","254.4","3.397","249.7","1006.791","12.58","100.0","0.0","0.0"],
    [1507741,"2026-02-18 22:30:00","54238","1.956","254.5","3.6910000000000003","272.1","1006.854","12.59","100.0","0.0","0.0"],
    [1507742,"2026-02-18 22:40:00","54239","2.6889999999999996","241.6","5.1610000000000005","222.1","1006.88","12.62","100.0","0.0","0.0"],
    [1507743,"2026-02-18 22:50:00","54240","3.3930000000000002","254.3","5.325","258.6","1006.834","12.71","100.0","0.0","0.0"],
    [1507744,"2026-02-18 23:00:00","54241","2.906","253.3","5.39","273.4","1007.002","12.65","99.6","0.0","0.0"],
    [1507745,"2026-02-18 23:10:00","54242","2.928","244.6","5.553","257.5","1007.125","12.71","98.5","0.0","0.0"],
    [1507746,"2026-02-18 23:20:00","54243","3.6060000000000003","240.3","6.435","227.4","1007.199","13.08","95.2","0.0","0.0"],
    [1507747,"2026-02-18 23:30:00","54244","3.005","249.4","5.4879999999999995","271.1","1007.315","13.48","88.4","0.0","0.0"],
    [1507748,"2026-02-18 23:40:00","54245","3.029","249.0","5.586","252.0","1007.312","14.35","76.01","0.0","0.0"],
    [1507749,"2026-02-18 23:50:00","54246","3.301","235.5","5.619","246.7","1007.207","15.31","63.55","0.0","0.0"],
    [1507750,"2026-02-19 00:00:00","54247","3.227","234.0","6.207000000000001","255.4","1007.22","15.85","56.34","0.0","0.0"],
    [1507751,"2026-02-19 00:10:00","54248","2.238","236.1","3.7569999999999997","230.1","1007.067","15.82","54.94","0.0","0.0"],
    [1507752,"2026-02-19 00:20:00","54249","2.551","229.8","4.475","223.6","1007.025","15.72","54.77","0.0","0.0"],
    [1507753,"2026-02-19 00:30:00","54250","2.319","226.4","3.5610000000000004","229.6","1007.039","15.61","54.8","0.0","0.0"],
    [1507754,"2026-02-19 00:40:00","54251","1.839","235.7","3.528","223.4","1007.141","15.5","54.58","0.0","0.0"],
    [1507755,"2026-02-19 00:50:00","54252","1.913","257.4","3.397","261.2","1007.454","15.22","55.27","0.0","0.0"],
    [1507756,"2026-02-19 01:00:00","54253","1.392","261.3","2.287","262.7","1007.54","14.7","58.32","0.0","0.0"],
    [1507757,"2026-02-19 01:10:00","54254","2.147","268.1","5.063","276.7","1007.599","14.96","56.6","0.0","0.0"],
    [1507758,"2026-02-19 01:20:00","54255","0.9179999999999999","263.9","2.352","261.9","1007.64","15.04","54.85","0.0","0.0"],
    [1507759,"2026-02-19 01:30:00","54256","1.2429999999999999","220.1","2.287","202.0","1007.68","15.01","54.77","0.0","0.0"],
    [1507760,"2026-02-19 01:40:00","54257","2.421","186.0","3.7239999999999998","196.1","1007.642","14.71","55.71","0.0","0.0"],
    [1507761,"2026-02-19 01:50:00","54258","2.864","199.1","4.835","197.8","1007.798","14.56","56.77","0.0","0.0"],
    [1507762,"2026-02-19 02:00:00","54259","2.27","188.0","3.7889999999999997","170.3","1007.667","14.72","55.33","0.0","0.0"],
    [1507763,"2026-02-19 02:10:00","54260","2.6430000000000002","254.7","6.501","262.9","1007.53","14.89","51.04","0.0","0.0"],
    [1507764,"2026-02-19 02:20:00","54261","4.769","276.0","7.938","309.6","1007.521","15.22","45.6","0.0","0.0"],
    [1507765,"2026-02-19 02:30:00","54262","6.227","280.9","9.6","273.8","1007.186","15.33","43.24","0.0","0.0"],
    [1507766,"2026-02-19 02:40:00","54263","5.346","274.4","10.62","272.8","1007.234","15.05","43.87","0.0","0.0"],
    [1507767,"2026-02-19 02:50:00","54264","5.886","281.7","9.31","302.9","1007.215","14.98","43.13","0.0","0.0"],
    [1507768,"2026-02-19 03:00:00","54265","5.265","276.3","7.481","275.8","1007.27","14.82","42.73","0.0","0.0"],
    [1507769,"2026-02-19 03:10:00","54266","3.63","257.0","7.775","270.4","1007.358","14.6","42.54","0.0","0.0"],
    [1507770,"2026-02-19 03:20:00","54267","3.444","266.3","5.978","283.7","1007.489","14.42","43.38","0.0","0.0"],
    [1507771,"2026-02-19 03:30:00","54268","2.309","243.8","4.247","248.7","1007.635","14.27","43.33","0.0","0.0"],
    [1507772,"2026-02-19 03:40:00","54269","3.175","247.2","5.357","256.9","1007.553","14.34","41.84","0.0","0.0"],
    [1507773,"2026-02-19 03:50:00","54270","2.4619999999999997","235.5","4.1160000000000005","265.2","1007.535","14.33","40.78","0.0","0.0"],
    [1507774,"2026-02-19 04:00:00","54271","3.73","257.5","7.971","273.2","1007.398","14.34","38.93","0.0","0.0"],
    [1507775,"2026-02-19 04:10:00","54272","7.013999999999999","288.0","11.43","288.6","1007.15","14.33","38.65","0.0","0.0"],
    [1507776,"2026-02-19 04:20:00","54273","8.48","287.4","12.74","277.3","1007.151","14.19","38.92","0.0","0.0"],
    [1507777,"2026-02-19 04:30:00","54274","8.95","282.2","13.43","292.4","1007.152","14.01","39.57","0.0","0.0"],
    [1507778,"2026-02-19 04:40:00","54275","9.18","279.9","13.85","273.0","1007.314","13.88","40.11","0.0","0.0"],
    [1507779,"2026-02-19 04:50:00","54276","8.79","280.7","13.56","284.9","1007.331","13.75","40.42","0.0","0.0"],
    [1507780,"2026-02-19 05:00:00","54277","8.5","280.1","12.67","270.3","1007.393","13.6","40.61","0.0","0.0"],
    [1507781,"2026-02-19 05:10:00","54278","9.42","279.3","14.41","292.5","1007.425","13.47","40.86","0.0","0.0"],
    [1507782,"2026-02-19 05:20:00","54279","8.99","278.6","13.88","286.7","1007.595","13.35","41.17","0.0","0.0"],
    [1507783,"2026-02-19 05:30:00","54280","8.88","277.1","13.26","276.4","1007.739","13.18","41.68","0.0","0.0"],
    [1507784,"2026-02-19 05:40:00","54281","8.45","277.9","12.71","273.7","1007.849","13.0","42.18","0.0","0.0"],
    [1507785,"2026-02-19 05:50:00","54282","7.776","277.8","13.07","276.8","1007.865","12.84","42.65","0.0","0.0"],
    [1507786,"2026-02-19 06:00:00","54283","9.53","278.7","18.23","277.6","1007.791","12.84","41.77","0.0","0.0"],
    [1507787,"2026-02-19 06:10:00","54284","10.44","283.7","19.11","274.7","1007.849","12.81","40.38","0.0","0.0"],
    [1507788,"2026-02-19 06:20:00","54285","9.98","284.2","17.48","296.4","1007.907","12.48","40.99","0.0","0.0"],
    [1507789,"2026-02-19 06:30:00","54286","9.31","284.8","14.44","275.7","1008.09","12.14","41.48","0.0","0.0"],
    [1507790,"2026-02-19 06:40:00","54287","8.73","287.0","14.57","298.7","1008.297","11.96","41.95","0.489","0.0"],
    [1507791,"2026-02-19 06:50:00","54288","7.289","291.7","11.53","283.8","1008.524","11.78","42.97","4.977","0.0"],
    [1507792,"2026-02-19 07:00:00","54289","8.68","289.4","14.99","278.6","1008.495","11.54","44.2","14.37","0.0"],
    [1507793,"2026-02-19 07:10:00","54290","10.1","287.0","17.67","279.0","1008.265","11.44","44.44","42.62","0.0"],
    [1507794,"2026-02-19 07:20:00","54291","10.76","285.6","15.35","279.1","1008.048","11.45","43.61","74.11","0.0"],
    [1507795,"2026-02-19 07:30:00","54292","9.95","285.5","16.53","285.7","1008.267","11.46","43.09","114.2","0.0"],
    [1507796,"2026-02-19 07:40:00","54293","9.79","288.7","16.01","289.0","1008.485","11.59","41.88","155.7","0.0"],
    [1507797,"2026-02-19 07:50:00","54294","7.537999999999999","295.7","11.63","296.9","1009.252","11.62","41.8","150.9","0.0"],
    [1507798,"2026-02-19 08:00:00","54295","7.848","300.3","13.65","295.1","1009.771","11.44","43.11","100.2","0.0"],
    [1507799,"2026-02-19 08:10:00","54296","5.907","300.0","12.38","304.5","1010.384","11.21","44.6","70.54","0.0"],
    [1507800,"2026-02-19 08:20:00","54297","3.9930000000000003","300.6","6.7620000000000005","291.2","1010.78","11.05","45.5","104.9","0.0"],
    [1507801,"2026-02-19 08:30:00","54298","3.918","325.0","7.252000000000001","296.9","1010.906","11.0","46.67","227.3","0.0"],
    [1507802,"2026-02-19 08:40:00","54299","2.396","327.5","5.129","323.9","1011.281","11.12","46.45","173.2","0.0"],
    [1507803,"2026-02-19 08:50:00","54300","4.388","305.6","7.382999999999999","292.4","1011.326","11.11","46.48","130.1","0.0"],
    [1507804,"2026-02-19 09:00:00","54301","5.686","293.6","8.95","302.5","1011.237","11.27","45.72","339.3","0.0"],
    [1507805,"2026-02-19 09:10:00","54302","6.031000000000001","291.6","13.23","303.3","1011.364","11.63","44.53","397.3","0.0"],
    [1507806,"2026-02-19 09:20:00","54303","6.571000000000001","295.0","10.42","276.6","1011.476","11.9","43.35","417.1","0.0"],
    [1507807,"2026-02-19 09:30:00","54304","6.584","288.1","12.05","313.1","1011.325","12.13","42.76","392.8","0.0"],
    [1507808,"2026-02-19 09:40:00","54305","9.13","291.0","15.48","287.9","1011.053","12.27","42.12","333.3","0.0"],
    [1507809,"2026-02-19 09:50:00","54306","8.86","289.0","14.93","286.3","1011.265","12.36","41.63","273.3","0.0"],
    [1507810,"2026-02-19 10:00:00","54307","9.8","290.4","17.84","264.8","1011.542","12.05","42.47","297.8","0.0"],
    [1507811,"2026-02-19 10:10:00","54308","8.33","290.2","13.82","283.8","1011.792","11.9","43.41","291.2","0.0"],
    [1507812,"2026-02-19 10:20:00","54309","8.45","290.8","12.97","292.9","1011.965","11.8","43.88","313.0","0.0"],
    [1507813,"2026-02-19 10:30:00","54310","8.93","287.9","14.37","288.8","1012.23","11.75","44.16","269.3","0.0"],
    [1507814,"2026-02-19 10:40:00","54311","8.19","296.7","13.95","279.6","1012.437","11.72","44.59","222.4","0.0"],
    [1507815,"2026-02-19 10:50:00","54312","8.19","296.6","12.05","290.0","1012.538","11.87","44.84","256.6","0.0"],
    [1507816,"2026-02-19 11:00:00","54313","7.968999999999999","302.9","14.05","310.4","1012.622","12.1","44.87","314.7","0.0"],
    [1507817,"2026-02-19 11:10:00","54314","7.87","299.3","13.36","296.0","1012.624","12.55","43.88","429.0","0.0"],
    [1507818,"2026-02-19 11:20:00","54315","9.25","296.8","14.37","305.0","1012.377","12.65","42.68","592.2","0.0"],
    [1507819,"2026-02-19 11:30:00","54316","9.89","294.8","14.05","288.1","1012.175","12.76","42.77","698.2","0.0"],
    [1507820,"2026-02-19 11:40:00","54317","9.41","293.3","14.5","276.2","1012.115","13.13","42.7","689.1","0.0"],
    [1507821,"2026-02-19 11:50:00","54318","9.01","295.1","13.88","293.6","1012.086","13.48","41.93","676.8","0.0"],
    [1507822,"2026-02-19 12:00:00","54319","9.32","287.5","15.06","270.3","1012.036","13.81","41.2","677.2","0.0"],
    [1507823,"2026-02-19 12:10:00","54320","8.71","280.7","13.3","253.8","1012.104","14.14","40.7","683.9","0.0"],
    [1507824,"2026-02-19 12:20:00","54321","9.6","283.2","15.19","281.4","1012.017","14.2","40.14","657.3","0.0"],
    [1507825,"2026-02-19 12:30:00","54322","9.97","289.4","15.55","300.8","1012.027","14.13","39.46","669.1","0.0"],
    [1507826,"2026-02-19 12:40:00","54323","8.49","287.7","15.78","287.4","1011.951","14.31","39.01","681.5","0.0"],
    [1507827,"2026-02-19 12:50:00","54324","6.739","274.8","12.18","296.1","1012.14","14.79","38.78","704.4","0.0"],
    [1507828,"2026-02-19 13:00:00","54325","9.08","280.1","13.88","273.7","1011.988","14.82","38.21","676.0","0.0"],
    [1507829,"2026-02-19 13:10:00","54326","9.71","284.8","14.11","282.4","1011.943","14.78","38.23","644.2","0.0"],
    [1507830,"2026-02-19 13:20:00","54327","9.17","289.1","13.52","283.9","1012.075","14.89","37.88","624.0","0.0"],
    [1507831,"2026-02-19 13:30:00","54328","8.79","290.7","14.34","283.5","1012.097","15.03","37.57","611.5","0.0"],
    [1507832,"2026-02-19 13:40:00","54329","8.93","288.2","13.36","300.4","1012.061","15.31","37.03","594.5","0.0"],
    [1507833,"2026-02-19 13:50:00","54330","7.587999999999999","293.5","11.4","275.7","1012.147","15.44","37.14","575.3","0.0"],
    [1507834,"2026-02-19 14:00:00","54331","6.51","276.1","10.65","281.2","1012.32","15.59","36.53","558.6","0.0"],
    [1507835,"2026-02-19 14:10:00","54332","4.898","257.1","8.4","277.6","1012.465","15.95","35.96","539.1","0.0"],
    [1507836,"2026-02-19 14:20:00","54333","4.879","270.6","8.04","293.3","1012.479","16.1","35.81","519.8","0.0"],
    [1507837,"2026-02-19 14:30:00","54334","5.067","266.0","8.89","321.7","1012.523","16.14","35.61","497.8","0.0"],
    [1507838,"2026-02-19 14:40:00","54335","4.409","253.1","9.02","262.4","1012.574","16.18","35.87","476.1","0.0"],
    [1507839,"2026-02-19 14:50:00","54336","5.6160000000000005","260.8","11.43","278.9","1012.477","16.17","36.03","451.5","0.0"],
    [1507840,"2026-02-19 15:00:00","54337","5.507000000000001","268.8","10.09","287.1","1012.457","16.27","35.75","426.7","0.0"],
    [1507841,"2026-02-19 15:10:00","54338","6.901","284.9","11.79","291.0","1012.457","16.19","35.57","400.2","0.0"],
    [1507842,"2026-02-19 15:20:00","54339","7.199","277.4","12.22","285.1","1012.428","16.15","35.59","372.8","0.0"],
    [1507843,"2026-02-19 15:30:00","54340","6.973","277.1","11.86","271.2","1012.301","16.13","35.55","344.5","0.0"],
    [1507844,"2026-02-19 15:40:00","54341","8.68","272.6","14.77","275.8","1012.288","16.12","35.29","315.1","0.0"],
    [1507845,"2026-02-19 15:50:00","54342","8.9","280.3","17.12","274.1","1012.171","15.99","35.22","284.9","0.0"],
    [1507846,"2026-02-19 16:00:00","54343","7.059","279.9","13.75","273.9","1012.317","16.02","35.79","254.6","0.0"],
    [1507847,"2026-02-19 16:10:00","54344","9.7","282.3","15.58","279.7","1012.413","15.74","36.14","223.8","0.0"],
    [1507848,"2026-02-19 16:20:00","54345","8.95","285.8","13.33","270.9","1012.715","15.62","36.43","190.2","0.0"],
    [1507849,"2026-02-19 16:30:00","54346","8.48","281.3","14.11","282.5","1012.778","15.54","36.61","80.7","0.0"],
    [1507850,"2026-02-19 16:40:00","54347","8.01","279.7","11.76","293.5","1012.959","15.43","37.14","32.24","0.0"],
    [1507851,"2026-02-19 16:50:00","54348","8.62","281.1","14.63","283.8","1013.016","15.28","37.53","27.35","0.0"],
    [1507852,"2026-02-19 17:00:00","54349","9.55","281.2","14.8","275.2","1013.123","15.17","37.34","22.73","0.0"],
    [1507853,"2026-02-19 17:10:00","54350","8.65","282.9","14.7","270.7","1013.31","15.05","37.94","17.27","0.0"],
    [1507854,"2026-02-19 17:20:00","54351","8.6","282.5","14.37","279.9","1013.545","14.9","38.61","11.42","0.0"],
    [1507855,"2026-02-19 17:30:00","54352","7.7829999999999995","278.4","15.78","277.9","1013.813","14.7","39.34","5.36","0.0"],
    [1507856,"2026-02-19 17:40:00","54353","8.07","272.7","15.32","284.3","1013.981","14.57","39.23","1.025","0.0"],
    [1507857,"2026-02-19 17:50:00","54354","7.973","279.9","12.64","283.7","1014.289","14.46","39.75","0.0","0.0"],
    [1507858,"2026-02-19 18:00:00","54355","8.33","280.9","13.98","287.8","1014.508","14.39","39.47","0.0","0.0"],
    [1507859,"2026-02-19 18:10:00","54356","8.23","283.2","11.63","283.8","1014.661","14.32","39.29","0.0","0.0"],
    [1507860,"2026-02-19 18:20:00","54357","7.224","281.5","11.66","297.0","1014.988","14.2","39.52","0.0","0.0"],
    [1507861,"2026-02-19 18:30:00","54358","6.582999999999999","283.1","10.91","260.8","1015.095","14.09","39.86","0.0","0.0"],
    [1507862,"2026-02-19 18:40:00","54359","6.928999999999999","284.1","14.05","283.9","1015.222","14.03","40.02","0.0","0.0"],
    [1507863,"2026-02-19 18:50:00","54360","5.781000000000001","280.5","10.26","301.5","1015.266","13.98","40.05","0.0","0.0"],
    [1507864,"2026-02-19 19:00:00","54361","4.433","272.3","7.056","287.6","1015.319","13.9","40.05","0.0","0.0"],
    [1507865,"2026-02-19 19:10:00","54362","4.342","264.0","8.33","257.9","1015.284","13.89","39.61","0.0","0.0"],
    [1507866,"2026-02-19 19:20:00","54363","4.114","268.7","8.59","288.3","1015.603","13.98","38.79","0.0","0.0"],
    [1507867,"2026-02-19 19:30:00","54364","2.9739999999999998","253.4","6.566","254.9","1015.837","13.94","38.5","0.0","0.0"],
    [1507868,"2026-02-19 19:40:00","54365","3.085","267.6","5.815","269.6","1015.961","13.89","38.34","0.0","0.0"],
    [1507869,"2026-02-19 19:50:00","54366","4.1610000000000005","271.1","7.0889999999999995","276.7","1016.213","13.86","38.25","0.0","0.0"],
    [1507870,"2026-02-19 20:00:00","54367","4.3069999999999995","288.4","8.46","299.8","1016.543","13.82","38.42","0.0","0.0"],
    [1507871,"2026-02-19 20:10:00","54368","4.871","284.1","9.21","278.3","1016.393","13.73","38.48","0.0","0.0"],
    [1507872,"2026-02-19 20:20:00","54369","3.4810000000000003","280.9","5.7170000000000005","280.2","1016.565","13.58","39.25","0.0","0.0"],
    [1507873,"2026-02-19 20:30:00","54370","2.427","274.3","4.2139999999999995","293.7","1016.584","13.52","39.06","0.0","0.0"],
    [1507874,"2026-02-19 20:40:00","54371","3.528","250.3","8.23","250.6","1016.716","13.49","38.88","0.0","0.0"],
    [1507875,"2026-02-19 20:50:00","54372","2.886","234.6","6.697","211.7","1016.875","13.54","38.56","0.0","0.0"],
    [1507876,"2026-02-19 21:00:00","54373","3.7060000000000004","244.1","6.599","281.8","1017.008","13.43","38.62","0.0","0.0"],
    [1507877,"2026-02-19 21:10:00","54374","3.2910000000000004","238.5","5.357","225.9","1017.06","13.29","39.22","0.0","0.0"],
    [1507878,"2026-02-19 21:20:00","54375","4.467","260.3","8.4","275.8","1016.818","12.94","40.55","0.0","0.0"],
    [1507879,"2026-02-19 21:30:00","54376","6.285","276.4","10.88","282.2","1016.59","12.75","41.79","0.0","0.0"],
    [1507880,"2026-02-19 21:40:00","54377","6.961","285.3","10.62","284.9","1016.425","12.68","42.15","0.0","0.0"],
    [1507881,"2026-02-19 21:50:00","54378","6.831","284.0","9.87","284.9","1016.383","12.56","42.31","0.0","0.0"],
    [1507882,"2026-02-19 22:00:00","54379","5.2860000000000005","284.4","9.31","287.7","1016.65","12.48","42.46","0.0","0.0"],
    [1507883,"2026-02-19 22:10:00","54380","3.472","287.9","6.893","292.6","1016.817","12.36","43.06","0.0","0.0"],
    [1507884,"2026-02-19 22:20:00","54381","4.574","285.9","7.6770000000000005","284.9","1016.781","12.33","42.73","0.0","0.0"],
    [1507885,"2026-02-19 22:30:00","54382","3.747","273.0","7.415","287.0","1016.761","12.27","42.67","0.0","0.0"],
    [1507886,"2026-02-19 22:40:00","54383","3.8569999999999998","280.7","6.109","303.4","1016.847","12.23","42.78","0.0","0.0"],
    [1507887,"2026-02-19 22:50:00","54384","3.915","278.6","7.0889999999999995","276.9","1017.181","12.16","42.94","0.0","0.0"],
    [1507888,"2026-02-19 23:00:00","54385","4.44","291.1","8.07","285.0","1017.15","12.06","43.68","0.0","0.0"],
    [1507889,"2026-02-19 23:10:00","54386","5.257999999999999","294.9","8.66","297.4","1016.979","12.01","44.03","0.0","0.0"],
    [1507890,"2026-02-19 23:20:00","54387","5.971","296.3","9.41","300.4","1016.796","11.99","44.43","0.0","0.0"],
    [1507891,"2026-02-19 23:30:00","54388","6.646","295.4","11.69","286.7","1016.865","11.99","44.24","0.0","0.0"],
    [1507892,"2026-02-19 23:40:00","54389","6.252999999999999","289.9","10.49","291.3","1017.047","11.95","44.1","0.0","0.0"],
    [1507893,"2026-02-19 23:50:00","54390","6.562","295.6","10.65","304.1","1016.884","11.93","44.49","0.0","0.0"],
    [1507894,"2026-02-20 00:00:00","54391","7.727","292.3","11.3","304.8","1016.725","11.85","44.42","0.0","0.0"],
    [1507895,"2026-02-20 00:10:00","54392","6.957000000000001","294.4","12.64","309.3","1016.871","11.79","44.87","0.0","0.0"],
    [1507896,"2026-02-20 00:20:00","54393","7.476","298.2","14.21","305.3","1016.944","11.77","45.13","0.0","0.0"],
    [1507897,"2026-02-20 00:30:00","54394","8.38","298.2","12.81","300.1","1017","11.76","45.29","0.0","0.0"],
    [1507898,"2026-02-20 00:40:00","54395","7.825","298.5","13.23","290.6","1016.986","11.71","45.45","0.0","0.0"],
    [1507899,"2026-02-20 00:50:00","54396","8.56","299.5","12.41","302.6","1016.895","11.73","45.45","0.0","0.0"],
    [1507900,"2026-02-20 01:00:00","54397","9.09","301.2","14.47","306.9","1016.883","11.67","45.92","0.0","0.0"],
    [1507901,"2026-02-20 01:10:00","54398","8.78","301.9","13.49","301.2","1017.133","11.65","46.23","0.0","0.0"],
    [1507902,"2026-02-20 01:20:00","54399","8.85","302.3","13.62","312.7","1017.36","11.64","46.41","0.0","0.0"],
    [1507903,"2026-02-20 01:30:00","54400","8.74","299.0","14.54","292.4","1017.506","11.61","46.44","0.0","0.0"],
    [1507904,"2026-02-20 01:40:00","54401","9.1","301.2","13.82","303.9","1017.601","11.61","46.41","0.0","0.0"],
    [1507905,"2026-02-20 01:50:00","54402","9.39","298.3","14.67","315.0","1017.843","11.55","46.59","0.0","0.0"],
    [1507906,"2026-02-20 02:00:00","54403","9.01","300.1","13.92","304.6","1018.002","11.47","46.99","0.0","0.0"],
    [1507907,"2026-02-20 02:10:00","54404","9.54","298.6","15.78","300.8","1018.068","11.4","47.57","0.0","0.0"],
    [1507908,"2026-02-20 02:20:00","54405","9.21","298.8","13.75","304.9","1017.995","11.34","48.0","0.0","0.0"],
    [1507909,"2026-02-20 02:30:00","54406","9.04","296.3","14.01","311.5","1017.994","11.27","48.02","0.0","0.0"],
    [1507910,"2026-02-20 02:40:00","54407","9.34","298.4","16.43","303.7","1018.1","11.23","48.62","0.0","0.0"],
    [1507911,"2026-02-20 02:50:00","54408","9.09","296.6","13.62","308.1","1018.076","11.23","48.54","0.0","0.0"],
    [1507912,"2026-02-20 03:00:00","54409","8.29","294.7","12.18","273.8","1018.219","11.15","48.78","0.0","0.0"],
    [1507913,"2026-02-20 03:10:00","54410","6.827000000000001","296.1","10.49","303.4","1018.286","11.21","48.71","0.0","0.0"],
    [1507914,"2026-02-20 03:20:00","54411","7.382999999999999","293.2","11.73","304.2","1018.249","11.11","48.81","0.0","0.0"],
    [1507915,"2026-02-20 03:30:00","54412","7.773","300.0","12.35","306.5","1018.247","11.01","49.71","0.0","0.0"],
    [1507916,"2026-02-20 03:40:00","54413","7.2139999999999995","297.9","11.11","309.5","1018.328","11.04","49.68","0.0","0.0"],
    [1507917,"2026-02-20 03:50:00","54414","6.675","299.5","10.32","291.3","1018.534","11.06","49.47","0.0","0.0"],
    [1507918,"2026-02-20 04:00:00","54415","5.026","298.4","7.971","317.2","1018.648","11.09","49.45","0.0","0.0"],
    [1507919,"2026-02-20 04:10:00","54416","5.1370000000000005","301.8","7.546","302.9","1018.576","11.1","49.53","0.0","0.0"],
    [1507920,"2026-02-20 04:20:00","54417","5.037","297.9","7.546","301.3","1018.62","11.17","48.77","0.0","0.0"],
    [1507921,"2026-02-20 04:30:00","54418","5.4079999999999995","296.8","8.13","305.3","1018.681","11.07","48.28","0.0","0.0"],
    [1507922,"2026-02-20 04:40:00","54419","6.1579999999999995","294.1","8.49","303.5","1018.597","10.95","48.52","0.0","0.0"],
    [1507923,"2026-02-20 04:50:00","54420","7.255","293.4","10.32","308.2","1018.565","10.73","49.97","0.0","0.0"],
    [1507924,"2026-02-20 05:00:00","54421","6.855","297.8","10.22","301.8","1018.77","10.72","50.58","0.0","0.0"],
    [1507925,"2026-02-20 05:10:00","54422","7.148","293.9","10.58","291.5","1019.048","10.67","50.69","0.0","0.0"],
    [1507926,"2026-02-20 05:20:00","54423","6.896","294.4","10.85","284.2","1019.146","10.55","51.86","0.0","0.0"],
    [1507927,"2026-02-20 05:30:00","54424","6.797000000000001","294.1","10.32","305.9","1019.22","10.56","52.18","0.0","0.0"],
    [1507928,"2026-02-20 05:40:00","54425","6.3839999999999995","293.7","10.39","298.4","1019.433","10.62","51.82","0.0","0.0"],
    [1507929,"2026-02-20 05:50:00","54426","4.948","295.8","7.872999999999999","304.3","1019.59","10.73","51.26","0.0","0.0"],
    [1507930,"2026-02-20 06:00:00","54427","2.8939999999999997","306.0","5.7170000000000005","297.1","1019.888","10.86","50.91","0.0","0.0"],
    [1507931,"2026-02-20 06:10:00","54428","1.944","233.1","4.345","323.3","1020.119","11.22","48.63","0.0","0.0"],
    [1507932,"2026-02-20 06:20:00","54429","1.87","7.276","5.521","322.3","1020.356","11.32","47.9","0.0","0.0"],
    [1507933,"2026-02-20 06:30:00","54430","2.3609999999999998","300.5","4.475","325.3","1020.653","11.54","46.72","0.449","0.0"],
    [1507934,"2026-02-20 06:40:00","54431","1.867","244.7","4.508","276.0","1020.843","11.34","46.03","5.63","0.0"],
    [1507935,"2026-02-20 06:50:00","54432","2.496","279.7","4.475","294.8","1020.989","11.06","47.21","15.13","0.0"],
    [1507936,"2026-02-20 07:00:00","54433","2.495","289.6","4.508","313.8","1021.282","11.51","45.99","31.26","0.0"],
    [1507937,"2026-02-20 07:10:00","54434","2.136","280.0","4.802","336.0","1021.387","11.7","45.3","60.16","0.0"],
    [1507938,"2026-02-20 07:20:00","54435","1.5919999999999999","260.3","3.267","261.6","1021.823","11.03","48.49","83.1","0.0"],
    [1507939,"2026-02-20 07:30:00","54436","2.441","281.2","3.887","303.6","1022.209","10.76","50.21","89.2","0.0"],
    [1507940,"2026-02-20 07:40:00","54437","2.73","291.8","3.7239999999999998","291.8","1022.199","11.06","49.07","112.5","0.0"],
    [1507941,"2026-02-20 07:50:00","54438","2.608","282.1","5.815","286.2","1022.557","11.18","48.37","159.0","0.0"],
    [1507942,"2026-02-20 08:00:00","54439","4.417","303.6","7.546","324.2","1022.755","11.44","47.75","151.0","0.0"],
    [1507943,"2026-02-20 08:10:00","54440","6.233","310.4","10.39","303.0","1022.661","11.41","47.96","130.5","0.0"],
    [1507944,"2026-02-20 08:20:00","54441","6.316","321.9","8.75","306.0","1022.888","11.29","48.37","151.4","0.0"],
    [1507945,"2026-02-20 08:30:00","54442","5.193","312.7","8.2","312.1","1023.108","11.47","48.97","204.0","0.0"],
    [1507946,"2026-02-20 08:40:00","54443","4.218","303.4","6.795","291.3","1023.395","11.65","47.64","270.4","0.0"],
    [1507947,"2026-02-20 08:50:00","54444","5.374","314.7","8.13","320.7","1023.598","11.83","47.83","369.3","0.0"],
    [1507948,"2026-02-20 09:00:00","54445","5.193","314.7","6.729","311.4","1023.712","11.99","48.1","459.1","0.0"],
    [1507949,"2026-02-20 09:10:00","54446","6.827000000000001","313.7","9.08","319.1","1023.593","12.08","47.01","470.7","0.0"],
    [1507950,"2026-02-20 09:20:00","54447","5.739","321.0","8.66","333.2","1023.696","12.31","46.67","423.4","0.0"],
    [1507951,"2026-02-20 09:30:00","54448","4.851","319.9","7.218999999999999","329.2","1023.949","12.55","45.45","401.5","0.0"],
    [1507952,"2026-02-20 09:40:00","54449","4.777","315.8","6.697","317.5","1023.968","12.59","45.97","443.4","0.0"],
    [1507953,"2026-02-20 09:50:00","54450","5.5329999999999995","316.1","7.546","307.5","1023.925","12.57","46.64","523.5","0.0"],
    [1507954,"2026-02-20 10:00:00","54451","5.528","311.3","8.0","322.3","1023.992","12.63","46.98","537.4","0.0"],
    [1507955,"2026-02-20 10:10:00","54452","6.204","309.2","9.02","325.2","1024.303","12.76","46.42","562.0","0.0"],
    [1507956,"2026-02-20 10:20:00","54453","7.117999999999999","329.3","8.62","318.6","1024.49","12.72","45.63","601.8","0.0"],
    [1507957,"2026-02-20 10:30:00","54454","6.486000000000001","322.2","9.67","329.6","1024.588","13.11","44.48","630.3","0.0"],
    [1507958,"2026-02-20 10:40:00","54455","6.1610000000000005","326.5","8.59","319.1","1024.75","13.39","43.39","645.9","0.0"],
    [1507959,"2026-02-20 10:50:00","54456","4.7410000000000005","317.2","6.86","300.5","1024.835","13.83","43.04","659.5","0.0"],
    [1507960,"2026-02-20 11:00:00","54457","5.527","312.7","7.709","307.4","1024.777","14.15","42.02","693.1","0.0"],
    [1507961,"2026-02-20 11:10:00","54458","5.5889999999999995","313.6","8.17","327.0","1024.702","14.32","41.93","696.2","0.0"],
    [1507962,"2026-02-20 11:20:00","54459","5.539","316.1","7.317","311.4","1024.667","14.49","41.35","727.6","0.0"],
    [1507963,"2026-02-20 11:30:00","54460","4.881","319.0","7.579","317.6","1024.569","14.6","40.72","667.8","0.0"],
    [1507964,"2026-02-20 11:40:00","54461","4.526","331.1","6.7620000000000005","346.2","1024.441","14.83","40.53","717.6","0.0"],
    [1507965,"2026-02-20 11:50:00","54462","4.624","2.365","6.7620000000000005","20.87","1024.332","14.91","39.02","634.8","0.0"],
    [1507966,"2026-02-20 12:00:00","54463","5.053","5.209","7.056","6.497999999999999","1024.13","15.11","37.59","672.2","0.0"],
    [1507967,"2026-02-20 12:10:00","54464","4.962","6.831","7.056","0.13","1024.069","15.25","37.17","649.5","0.0"],
    [1507968,"2026-02-20 12:20:00","54465","5.335","14.33","6.925","17.5","1024.032","15.22","38.5","588.7","0.0"],
    [1507969,"2026-02-20 12:30:00","54466","5.669","356.4","8.89","356.6","1024.038","15.78","35.18","497.6","0.0"],
    [1507970,"2026-02-20 12:40:00","54467","4.487","315.7","7.056","330.1","1023.917","15.9","36.46","445.4","0.0"],
    [1507971,"2026-02-20 12:50:00","54468","4.981","309.0","7.579","302.1","1023.802","15.77","38.86","521.9","0.0"],
    [1507972,"2026-02-20 13:00:00","54469","4.601","306.0","7.317","319.6","1023.932","15.59","40.0","573.0","0.0"],
    [1507973,"2026-02-20 13:10:00","54470","4.101","326.9","7.546","319.6","1024.019","15.54","40.33","485.0","0.0"],
    [1507974,"2026-02-20 13:20:00","54471","3.6889999999999996","316.0","5.749","292.4","1024.084","15.42","41.74","367.5","0.0"],
    [1507975,"2026-02-20 13:30:00","54472","3.872","300.0","6.566","306.1","1024.008","15.53","42.33","354.4","0.0"],
    [1507976,"2026-02-20 13:40:00","54473","3.948","300.6","7.775","300.3","1023.993","15.51","42.18","358.4","0.0"],
    [1507977,"2026-02-20 13:50:00","54474","4.4319999999999995","310.4","7.218999999999999","317.8","1024.077","15.39","42.77","274.0","0.0"],
    [1507978,"2026-02-20 14:00:00","54475","3.778","322.6","6.827000000000001","322.0","1023.968","15.35","43.3","277.8","0.0"],
    [1507979,"2026-02-20 14:10:00","54476","4.711","320.1","6.697","331.5","1023.852","15.34","43.44","262.2","0.0"],
    [1507980,"2026-02-20 14:20:00","54477","4.421","321.2","6.501","306.3","1023.912","15.42","44.32","232.1","0.0"],
    [1507981,"2026-02-20 14:30:00","54478","3.333","306.7","5.422999999999999","320.4","1023.811","15.56","43.23","188.2","0.0"],
    [1507982,"2026-02-20 14:40:00","54479","3.7960000000000003","311.3","5.2589999999999995","327.2","1023.706","15.61","42.37","186.9","0.0"],
    [1507983,"2026-02-20 14:50:00","54480","3.6319999999999997","313.1","5.684","284.4","1023.652","15.63","42.76","174.7","0.0"],
    [1507984,"2026-02-20 15:00:00","54481","3.4730000000000003","322.7","5.521","324.6","1023.586","15.65","42.44","140.6","0.0"],
    [1507985,"2026-02-20 15:10:00","54482","3.759","318.5","5.129","324.3","1023.516","15.63","42.88","156.7","0.0"],
    [1507986,"2026-02-20 15:20:00","54483","2.0140000000000002","305.3","3.136","282.9","1023.54","15.79","41.46","182.1","0.0"],
    [1507987,"2026-02-20 15:30:00","54484","2.5069999999999997","299.7","4.377","290.4","1023.497","15.89","40.78","166.0","0.0"],
    [1507988,"2026-02-20 15:40:00","54485","2.827","303.9","4.083","315.2","1023.564","15.98","39.9","137.2","0.0"],
    [1507989,"2026-02-20 15:50:00","54486","2.7569999999999997","294.6","4.41","265.7","1023.559","16.09","39.41","122.6","0.0"],
    [1507990,"2026-02-20 16:00:00","54487","3.278","288.4","4.867","305.6","1023.651","16.14","39.0","144.4","0.0"],
    [1507991,"2026-02-20 16:10:00","54488","3.04","175.5","4.541","169.2","1023.872","14.96","52.76","208.3","0.0"],
    [1507992,"2026-02-20 16:20:00","54489","3.252","165.6","4.149","172.7","1023.968","14.35","60.48","188.9","0.0"],
    [1507993,"2026-02-20 16:30:00","54490","3.302","166.9","3.855","166.4","1023.967","14.25","61.21","140.6","0.0"],
    [1507994,"2026-02-20 16:40:00","54491","3.3089999999999997","168.0","3.7889999999999997","172.2","1024.087","14.2","62.25","95.2","0.0"],
    [1507995,"2026-02-20 16:50:00","54492","3.7460000000000004","154.2","4.2139999999999995","154.1","1024.085","14.05","65.31","70.59","0.0"],
    [1507996,"2026-02-20 17:00:00","54493","3.6","152.8","4.2139999999999995","153.7","1024.124","13.97","65.6","55.47","0.0"],
    [1507997,"2026-02-20 17:10:00","54494","3.3080000000000003","161.6","3.9530000000000003","162.5","1024.385","13.84","68.37","30.16","0.0"],
    [1507998,"2026-02-20 17:20:00","54495","1.517","182.6","3.005","164.5","1024.552","13.89","69.85","17.87","0.0"],
    [1507999,"2026-02-20 17:30:00","54496","0.289","117.0","0.915","125.8","1024.699","13.86","70.88","12.64","0.0"],
    [1508000,"2026-02-20 17:40:00","54497","1.25","155.8","2.0909999999999997","153.0","1024.823","13.67","68.93","4.78","0.0"],
    [1508001,"2026-02-20 17:50:00","54498","0.601","163.0","1.176","181.0","1025.068","13.81","67.05","0.17300000000000001","0.0"],
    [1508002,"2026-02-20 18:00:00","54499","0.41100000000000003","112.1","1.078","103.3","1025.302","13.78","66.8","0.0","0.0"],
    [1508003,"2026-02-20 18:10:00","54500","0.755","90.2","1.2409999999999999","62.72","1025.562","13.88","66.33","0.0","0.0"],
    [1508004,"2026-02-20 18:20:00","54501","1.469","53.8","2.385","45.48","1025.686","13.93","66.8","0.0","0.0"],
    [1508005,"2026-02-20 18:30:00","54502","2.4419999999999997","38.24","3.299","38.82","1025.828","13.93","67.52","0.0","0.0"],
    [1508006,"2026-02-20 18:40:00","54503","2.5269999999999997","42.92","3.299","70.05","1026.036","13.85","70.35","0.0","0.0"],
    [1508007,"2026-02-20 18:50:00","54504","3.036","38.88","4.018","39.06","1026.244","13.75","72.11","0.0","0.0"],
    [1508008,"2026-02-20 19:00:00","54505","2.9130000000000003","35.06","4.051","38.07","1026.319","13.64","70.56","0.0","0.0"],
    [1508009,"2026-02-20 19:10:00","54506","2.521","37.14","3.267","41.49","1026.288","13.7","71.15","0.0","0.0"],
    [1508010,"2026-02-20 19:20:00","54507","2.041","33.82","2.842","50.68","1026.341","13.59","71.94","0.0","0.0"],
    [1508011,"2026-02-20 19:30:00","54508","1.959","52.18","2.6460000000000004","43.5","1026.241","13.62","72.32","0.0","0.0"],
    [1508012,"2026-02-20 19:40:00","54509","2.069","77.19","2.613","79.68","1026.151","13.52","73.12","0.0","0.0"],
    [1508013,"2026-02-20 19:50:00","54510","1.785","61.8","2.417","59.75","1026.292","13.48","73.35","0.0","0.0"],
    [1508014,"2026-02-20 20:00:00","54511","1.64","27.92","2.221","21.23","1026.445","13.48","74.07","0.0","0.0"],
    [1508015,"2026-02-20 20:10:00","54512","1.695","5.2860000000000005","2.319","5.949","1026.584","13.4","74.26","0.0","0.0"],
    [1508016,"2026-02-20 20:20:00","54513","1.291","15.74","2.0580000000000003","25.14","1026.46","13.4","74.6","0.0","0.0"],
    [1508017,"2026-02-20 20:30:00","54514","0.983","4.562","1.3719999999999999","5.511","1026.377","13.38","75.42","0.0","0.0"],
    [1508018,"2026-02-20 20:40:00","54515","0.8490000000000001","2.801","1.176","12.25","1026.376","13.25","76.37","0.0","0.0"],
    [1508019,"2026-02-20 20:50:00","54516","1.127","10.94","1.307","16.32","1026.603","13.23","76.9","0.0","0.0"],
    [1508020,"2026-02-20 21:00:00","54517","1.3419999999999999","12.86","1.8619999999999999","35.76","1026.803","13.2","77.61","0.0","0.0"],
    [1508021,"2026-02-20 21:10:00","54518","1.9980000000000002","8.37","2.352","12.55","1026.828","13.13","77.22","0.0","0.0"],
    [1508022,"2026-02-20 21:20:00","54519","1.679","356.5","2.287","6.581","1026.859","13.11","77.14","0.0","0.0"],
    [1508023,"2026-02-20 21:30:00","54520","0.623","340.6","1.4369999999999998","333.7","1026.962","12.94","76.26","0.0","0.0"],
    [1508024,"2026-02-20 21:40:00","54521","0.397","231.8","1.339","232.1","1027.023","12.73","75.81","0.0","0.0"],
    [1508025,"2026-02-20 21:50:00","54522","0.797","235.6","1.209","218.6","1026.935","12.7","74.79","0.0","0.0"],
    [1508026,"2026-02-20 22:00:00","54523","1.117","272.4","1.633","273.6","1027.211","12.52","74.16","0.0","0.0"],
    [1508027,"2026-02-20 22:10:00","54524","1.123","277.8","1.7309999999999999","269.3","1027.3","12.38","74.25","0.0","0.0"],
    [1508028,"2026-02-20 22:20:00","54525","0.643","353.8","1.307","1.702","1027.262","12.52","73.78","0.0","0.0"],
    [1508029,"2026-02-20 22:30:00","54526","0.541","12.2","1.3719999999999999","348.2","1027.273","12.65","74.66","0.0","0.0"],
    [1508030,"2026-02-20 22:40:00","54527","1.828","9.03","3.0380000000000003","11.95","1027.424","12.7","72.91","0.0","0.0"],
    [1508031,"2026-02-20 22:50:00","54528","2.7310000000000003","342.4","3.7889999999999997","343.3","1027.597","13.47","62.63","0.0","0.0"],
    [1508032,"2026-02-20 23:00:00","54529","2.7960000000000003","327.9","4.998","333.3","1027.635","13.66","58.46","0.0","0.0"],
    [1508033,"2026-02-20 23:10:00","54530","4.111000000000001","320.7","6.109","342.4","1027.605","13.66","56.37","0.0","0.0"],
    [1508034,"2026-02-20 23:20:00","54531","5.301","323.5","7.382999999999999","334.5","1027.588","13.7","54.98","0.0","0.0"],
    [1508035,"2026-02-20 23:30:00","54532","6.037999999999999","318.7","9.15","309.4","1027.513","13.74","54.52","0.0","0.0"],
    [1508036,"2026-02-20 23:40:00","54533","6.06","320.9","7.546","314.3","1027.522","13.66","54.33","0.0","0.0"],
    [1508037,"2026-02-20 23:50:00","54534","5.324","307.7","7.872999999999999","315.0","1027.502","13.52","54.38","0.0","0.0"],
    [1508038,"2026-02-21 00:00:00","54535","5.194","296.3","8.56","305.2","1027.666","13.32","53.66","0.0","0.0"],
    [1508039,"2026-02-21 00:10:00","54536","4.44","296.3","7.317","302.4","1027.784","13.07","54.59","0.0","0.0"],
    [1508040,"2026-02-21 00:20:00","54537","4.158","294.0","6.305","295.1","1027.817","13.02","54.94","0.0","0.0"],
    [1508041,"2026-02-21 00:30:00","54538","5.035","293.1","7.154","287.7","1027.715","12.94","54.74","0.0","0.0"],
    [1508042,"2026-02-21 00:40:00","54539","5.204","299.4","7.4479999999999995","312.1","1027.663","12.8","55.1","0.0","0.0"],
    [1508043,"2026-02-21 00:50:00","54540","5.222","307.3","8.2","310.8","1027.678","12.72","56.3","0.0","0.0"],
    [1508044,"2026-02-21 01:00:00","54541","4.595","307.7","7.121","303.4","1027.845","12.65","56.52","0.0","0.0"],
    [1508045,"2026-02-21 01:10:00","54542","4.542","298.2","7.415","303.4","1027.878","12.49","56.74","0.0","0.0"],
    [1508046,"2026-02-21 01:20:00","54543","5.497000000000001","303.8","8.3","301.8","1027.757","12.37","56.85","0.0","0.0"],
    [1508047,"2026-02-21 01:30:00","54544","5.85","306.0","10.09","318.8","1027.835","12.32","57.18","0.0","0.0"],
    [1508048,"2026-02-21 01:40:00","54545","5.287000000000001","298.5","7.187","298.9","1027.938","12.16","57.0","0.0","0.0"],
    [1508049,"2026-02-21 01:50:00","54546","4.811","293.9","6.337000000000001","282.4","1027.919","12.1","56.91","0.0","0.0"],
    [1508050,"2026-02-21 02:00:00","54547","5.085","294.3","7.4479999999999995","303.3","1027.895","12.02","56.77","0.0","0.0"],
    [1508051,"2026-02-21 02:10:00","54548","4.774","292.6","7.218999999999999","284.3","1027.999","11.83","57.07","0.0","0.0"],
    [1508052,"2026-02-21 02:20:00","54549","3.971","293.7","5.912999999999999","305.6","1028.185","11.73","57.31","0.0","0.0"],
    [1508053,"2026-02-21 02:30:00","54550","4.0969999999999995","290.3","6.042999999999999","289.7","1028.193","11.62","57.75","0.0","0.0"],
    [1508054,"2026-02-21 02:40:00","54551","4.552","284.7","7.382999999999999","268.6","1028.177","11.52","58.26","0.0","0.0"],
    [1508055,"2026-02-21 02:50:00","54552","3.8169999999999997","282.4","6.566","285.4","1028.304","11.39","58.6","0.0","0.0"],
    [1508056,"2026-02-21 03:00:00","54553","2.388","287.3","3.9530000000000003","291.5","1028.443","11.35","58.94","0.0","0.0"],
    [1508057,"2026-02-21 03:10:00","54554","1.9580000000000002","270.3","2.7110000000000003","285.7","1028.566","11.09","59.57","0.0","0.0"],
    [1508058,"2026-02-21 03:20:00","54555","2.076","297.9","2.613","298.0","1028.514","11.2","60.06","0.0","0.0"],
    [1508059,"2026-02-21 03:30:00","54556","2.266","309.0","3.234","325.5","1028.524","11.26","60.13","0.0","0.0"],
    [1508060,"2026-02-21 03:40:00","54557","1.946","301.2","3.1689999999999996","310.3","1028.587","11.16","60.69","0.0","0.0"],
    [1508061,"2026-02-21 03:50:00","54558","2.6039999999999996","284.1","4.2139999999999995","283.1","1028.662","11.03","60.19","0.0","0.0"],
    [1508062,"2026-02-21 04:00:00","54559","2.209","292.6","4.181","277.9","1028.772","11.1","59.78","0.0","0.0"],
    [1508063,"2026-02-21 04:10:00","54560","1.6680000000000001","296.3","2.6460000000000004","306.9","1028.762","11.0","60.21","0.0","0.0"],
    [1508064,"2026-02-21 04:20:00","54561","2.089","291.0","3.234","286.7","1028.736","10.98","60.65","0.0","0.0"],
    [1508065,"2026-02-21 04:30:00","54562","3.884","299.9","6.7620000000000005","304.9","1028.825","11.05","60.37","0.0","0.0"],
    [1508066,"2026-02-21 04:40:00","54563","3.7769999999999997","302.8","5.553","294.9","1028.898","11.03","60.46","0.0","0.0"],
    [1508067,"2026-02-21 04:50:00","54564","3.9819999999999998","296.8","6.435","308.3","1028.912","10.86","60.53","0.0","0.0"],
    [1508068,"2026-02-21 05:00:00","54565","2.738","293.4","4.704","298.6","1028.92","10.79","60.27","0.0","0.0"],
    [1508069,"2026-02-21 05:10:00","54566","1.756","278.7","3.463","296.0","1028.996","10.7","60.46","0.0","0.0"],
    [1508070,"2026-02-21 05:20:00","54567","1.651","248.6","3.299","272.6","1029.078","10.38","61.33","0.0","0.0"],
    [1508071,"2026-02-21 05:30:00","54568","2.6910000000000003","269.5","4.149","285.2","1029.109","10.17","62.2","0.0","0.0"],
    [1508072,"2026-02-21 05:40:00","54569","2.85","282.9","4.083","279.2","1029.17","10.25","62.21","0.0","0.0"],
    [1508073,"2026-02-21 05:50:00","54570","2.582","300.7","3.593","309.0","1029.224","10.47","61.88","0.0","0.0"],
    [1508074,"2026-02-21 06:00:00","54571","2.957","302.7","4.573","302.9","1029.182","10.63","61.31","0.0","0.0"],
    [1508075,"2026-02-21 06:10:00","54572","2.8310000000000004","299.2","4.573","298.1","1029.399","10.74","60.77","0.0","0.0"],
    [1508076,"2026-02-21 06:20:00","54573","3.01","295.9","4.737","302.2","1029.592","10.6","60.34","0.0","0.0"],
    [1508077,"2026-02-21 06:30:00","54574","2.665","300.7","4.2139999999999995","294.9","1029.829","10.57","60.24","0.0","0.0"],
    [1508078,"2026-02-21 06:40:00","54575","2.2969999999999997","303.4","3.6260000000000003","313.6","1029.924","10.58","60.84","0.8420000000000001","0.0"],
    [1508079,"2026-02-21 06:50:00","54576","3.463","297.5","5.096","302.4","1029.92","10.47","60.72","4.961","0.0"],
    [1508080,"2026-02-21 07:00:00","54577","1.905","290.6","3.201","303.7","1030.041","10.38","60.52","12.24","0.0"],
    [1508081,"2026-02-21 07:10:00","54578","1.265","291.4","1.895","297.7","1030.252","10.45","60.81","44.77","0.0"],
    [1508082,"2026-02-21 07:20:00","54579","1.574","288.0","2.319","282.4","1030.417","10.55","60.44","71.96","0.0"],
    [1508083,"2026-02-21 07:30:00","54580","1.9480000000000002","280.3","2.679","283.5","1030.522","10.59","60.1","103.2","0.0"],
    [1508084,"2026-02-21 07:40:00","54581","2.21","282.0","3.299","284.6","1030.629","10.77","59.56","133.1","0.0"],
    [1508085,"2026-02-21 07:50:00","54582","3.148","280.9","5.586","287.9","1030.684","10.79","59.56","163.3","0.0"],
    [1508086,"2026-02-21 08:00:00","54583","4.7860000000000005","291.4","8.3","294.1","1030.759","10.89","58.69","191.4","0.0"],
    [1508087,"2026-02-21 08:10:00","54584","4.466","298.7","8.04","313.6","1030.866","11.12","57.66","219.7","0.0"],
    [1508088,"2026-02-21 08:20:00","54585","4.4239999999999995","294.3","7.546","307.8","1030.887","11.15","57.08","249.1","0.0"],
    [1508089,"2026-02-21 08:30:00","54586","5.818","300.6","8.75","287.6","1030.865","10.99","57.47","280.4","0.0"],
    [1508090,"2026-02-21 08:40:00","54587","5.666","299.7","9.44","307.5","1030.943","11.02","57.5","311.6","0.0"],
    [1508091,"2026-02-21 08:50:00","54588","5.104","300.4","7.644","308.7","1031.094","11.42","56.47","341.8","0.0"],
    [1508092,"2026-02-21 09:00:00","54589","5.079","300.8","8.69","306.4","1031.115","11.7","55.13","372.0","0.0"],
    [1508093,"2026-02-21 09:10:00","54590","4.928","303.4","7.971","311.7","1031.252","11.81","54.79","401.5","0.0"],
    [1508094,"2026-02-21 09:20:00","54591","4.648","300.5","6.468","309.5","1031.355","11.98","54.35","430.6","0.0"],
    [1508095,"2026-02-21 09:30:00","54592","4.494","298.0","7.023","318.9","1031.317","12.13","53.55","458.3","0.0"],
    [1508096,"2026-02-21 09:40:00","54593","4.378","294.4","7.121","308.1","1031.388","12.27","52.82","484.7","0.0"],
    [1508097,"2026-02-21 09:50:00","54594","3.696","294.2","7.252000000000001","291.3","1031.496","12.65","51.86","508.3","0.0"],
    [1508098,"2026-02-21 10:00:00","54595","3.255","291.7","5.063","289.7","1031.462","12.9","51.36","531.1","0.0"],
    [1508099,"2026-02-21 10:10:00","54596","3.3510000000000004","282.4","4.9","280.1","1031.441","13.2","50.36","552.8","0.0"],
    [1508100,"2026-02-21 10:20:00","54597","3.752","278.8","5.749","280.5","1031.411","13.69","48.85","573.2","0.0"],
    [1508101,"2026-02-21 10:30:00","54598","4.171","285.7","6.272","278.4","1031.399","13.96","48.14","590.4","0.0"],
    [1508102,"2026-02-21 10:40:00","54599","3.781","281.6","6.697","288.3","1031.353","14.29","47.9","607.1","0.0"],
    [1508103,"2026-02-21 10:50:00","54600","2.483","262.2","4.508","249.5","1031.332","14.87","47.06","620.6","0.0"],
    [1508104,"2026-02-21 11:00:00","54601","3.818","285.8","6.239","296.2","1031.219","14.66","46.44","634.5","0.0"],
    [1508105,"2026-02-21 11:10:00","54602","3.3760000000000003","274.1","5.88","276.9","1031.184","14.97","45.63","646.2","0.0"],
    [1508106,"2026-02-21 11:20:00","54603","3.7769999999999997","291.4","6.305","290.3","1031.115","14.83","44.99","656.1","0.0"],
    [1508107,"2026-02-21 11:30:00","54604","4.95","288.8","7.938","292.0","1030.827","14.77","44.34","667.2","0.0"],
    [1508108,"2026-02-21 11:40:00","54605","3.655","290.1","6.141","290.1","1030.755","15.17","43.38","670.2","0.0"],
    [1508109,"2026-02-21 11:50:00","54606","2.608","283.3","4.802","288.8","1030.637","15.77","41.52","673.5","0.0"],
    [1508110,"2026-02-21 12:00:00","54607","3.176","289.1","5.684","307.1","1030.416","15.84","39.77","676.9","0.0"],
    [1508111,"2026-02-21 12:10:00","54608","2.927","216.6","5.7170000000000005","173.5","1030.42","15.64","45.36","673.0","0.0"],
    [1508112,"2026-02-21 12:20:00","54609","4.775","178.7","6.925","173.6","1030.203","14.05","59.0","671.3","0.0"],
    [1508113,"2026-02-21 12:30:00","54610","4.7589999999999995","183.9","6.109","186.7","1030.193","13.95","60.8","668.4","0.0"],
    [1508114,"2026-02-21 12:40:00","54611","5.313","182.5","6.468","174.3","1030.135","13.87","62.35","663.9","0.0"],
    [1508115,"2026-02-21 12:50:00","54612","5.6370000000000005","188.5","6.795","195.5","1029.912","13.88","61.4","659.6","0.0"],
    [1508116,"2026-02-21 13:00:00","54613","5.382999999999999","186.2","7.023","191.1","1029.887","13.8","63.13","651.5","0.0"],
    [1508117,"2026-02-21 13:10:00","54614","5.005","187.5","6.468","190.7","1029.817","13.95","62.79","640.1","0.0"],
    [1508118,"2026-02-21 13:20:00","54615","5.5089999999999995","185.4","6.697","188.6","1029.662","13.92","64.05","630.5","0.0"],
    [1508119,"2026-02-21 13:30:00","54616","5.162000000000001","186.7","6.599","197.5","1029.598","13.91","64.8","617.5","0.0"],
    [1508120,"2026-02-21 13:40:00","54617","4.703","186.4","5.782","186.0","1029.537","13.94","64.85","602.9","0.0"],
    [1508121,"2026-02-21 13:50:00","54618","4.575","189.7","5.782","193.6","1029.574","13.91","66.21","587.5","0.0"],
    [1508122,"2026-02-21 14:00:00","54619","4.289","191.3","5.847","186.0","1029.506","14.01","65.31","571.1","0.0"],
    [1508123,"2026-02-21 14:10:00","54620","4.463","183.7","5.847","187.1","1029.407","14.05","65.95","553.2","0.0"],
    [1508124,"2026-02-21 14:20:00","54621","4.266","185.3","5.325","194.7","1029.377","13.91","66.19","533.4","0.0"],
    [1508125,"2026-02-21 14:30:00","54622","4.003","183.6","5.2589999999999995","188.3","1029.443","13.93","66.06","511.9","0.0"],
    [1508126,"2026-02-21 14:40:00","54623","3.888","196.0","5.7170000000000005","191.1","1029.529","14.13","63.37","490.1","0.0"],
    [1508127,"2026-02-21 14:50:00","54624","4.364","187.7","6.1739999999999995","188.4","1029.435","14.22","63.36","466.5","0.0"],
    [1508128,"2026-02-21 15:00:00","54625","4.897","188.2","6.468","206.7","1029.367","13.98","65.95","441.2","0.0"],
    [1508129,"2026-02-21 15:10:00","54626","4.378","192.2","5.749","187.7","1029.285","14.12","64.99","414.0","0.0"],
    [1508130,"2026-02-21 15:20:00","54627","4.217","194.6","5.88","202.1","1029.22","14.27","63.77","386.2","0.0"],
    [1508131,"2026-02-21 15:30:00","54628","3.4219999999999997","200.0","5.292000000000001","201.4","1029.23","14.39","63.74","355.8","0.0"],
    [1508132,"2026-02-21 15:40:00","54629","3.095","216.0","5.2589999999999995","221.3","1029.188","14.49","64.22","324.8","0.0"],
    [1508133,"2026-02-21 15:50:00","54630","3.2239999999999998","217.5","5.096","227.3","1029.128","14.42","62.67","294.2","0.0"],
    [1508134,"2026-02-21 16:00:00","54631","3.52","217.1","5.521","207.8","1029.143","14.45","60.49","263.2","0.0"],
    [1508135,"2026-02-21 16:10:00","54632","3.197","216.9","5.619","223.2","1029.137","14.62","58.04","231.5","0.0"],
    [1508136,"2026-02-21 16:20:00","54633","2.594","212.6","4.051","225.1","1029.157","14.81","57.44","194.5","0.0"],
    [1508137,"2026-02-21 16:30:00","54634","3.219","200.7","4.638999999999999","196.1","1029.118","14.41","60.02","49.17","0.0"],
    [1508138,"2026-02-21 16:40:00","54635","2.841","208.6","4.541","192.4","1029.112","14.28","61.34","32.06","0.0"],
    [1508139,"2026-02-21 16:50:00","54636","3.2739999999999996","199.9","5.096","194.3","1029.094","13.91","63.65","28.25","0.0"],
    [1508140,"2026-02-21 17:00:00","54637","2.5340000000000003","217.6","4.4430000000000005","225.9","1029.108","13.95","64.01","23.57","0.0"],
    [1508141,"2026-02-21 17:10:00","54638","1.5290000000000001","217.2","2.221","213.2","1029.176","13.95","65.02","17.66","0.0"],
    [1508142,"2026-02-21 17:20:00","54639","1.784","239.5","3.5610000000000004","217.7","1029.272","13.8","64.35","12.04","0.0"],
    [1508143,"2026-02-21 17:30:00","54640","2.553","235.1","4.149","223.7","1029.371","13.71","61.72","6.2410000000000005","0.0"],
    [1508144,"2026-02-21 17:40:00","54641","2.512","240.9","4.312","254.8","1029.408","13.73","61.58","1.276","0.0"],
    [1508145,"2026-02-21 17:50:00","54642","2.332","245.2","3.9530000000000003","248.6","1029.382","13.64","62.71","0.0","0.0"],
    [1508146,"2026-02-21 18:00:00","54643","1.61","238.0","2.842","221.5","1029.405","13.64","62.94","0.0","0.0"],
    [1508147,"2026-02-21 18:10:00","54644","1.9880000000000002","248.0","3.9530000000000003","270.5","1029.462","13.58","63.73","0.0","0.0"],
    [1508148,"2026-02-21 18:20:00","54645","2.057","238.8","3.9530000000000003","251.4","1029.5","13.53","65.2","0.0","0.0"],
    [1508149,"2026-02-21 18:30:00","54646","1.743","237.5","3.201","253.1","1029.524","13.49","66.93","0.0","0.0"],
    [1508150,"2026-02-21 18:40:00","54647","1.4609999999999999","233.0","2.6460000000000004","252.0","1029.54","13.45","67.91","0.0","0.0"],
    [1508151,"2026-02-21 18:50:00","54648","1.808","239.7","4.4430000000000005","259.6","1029.599","13.42","69.1","0.0","0.0"],
    [1508152,"2026-02-21 19:00:00","54649","2.7569999999999997","239.6","5.031000000000001","262.0","1029.642","13.3","71.44","0.0","0.0"],
    [1508153,"2026-02-21 19:10:00","54650","2.412","240.3","4.933","220.8","1029.591","13.06","73.01","0.0","0.0"],
    [1508154,"2026-02-21 19:20:00","54651","1.268","229.8","2.385","218.7","1029.605","12.95","73.09","0.0","0.0"],
    [1508155,"2026-02-21 19:30:00","54652","1.392","257.5","2.123","260.8","1029.586","12.88","72.35","0.0","0.0"],
    [1508156,"2026-02-21 19:40:00","54653","1.464","265.9","2.287","255.9","1029.537","12.66","72.5","0.0","0.0"],
    [1508157,"2026-02-21 19:50:00","54654","1.256","253.9","2.0580000000000003","246.6","1029.573","12.52","73.2","0.0","0.0"],
    [1508158,"2026-02-21 20:00:00","54655","1.788","249.5","3.201","276.9","1029.591","12.62","72.45","0.0","0.0"],
    [1508159,"2026-02-21 20:10:00","54656","2.244","249.9","3.6910000000000003","259.0","1029.468","12.73","71.16","0.0","0.0"],
    [1508160,"2026-02-21 20:20:00","54657","2.4730000000000003","248.1","3.822","251.1","1029.411","12.94","68.78","0.0","0.0"],
    [1508161,"2026-02-21 20:30:00","54658","1.686","254.0","2.907","253.9","1029.371","12.84","68.16","0.0","0.0"],
    [1508162,"2026-02-21 20:40:00","54659","2.2119999999999997","263.3","3.201","258.1","1029.34","12.32","69.91","0.0","0.0"],
    [1508163,"2026-02-21 20:50:00","54660","2.5980000000000003","250.7","3.985","259.9","1029.399","12.27","71.62","0.0","0.0"],
    [1508164,"2026-02-21 21:00:00","54661","3.1489999999999996","244.3","4.802","250.0","1029.3","12.17","71.35","0.0","0.0"],
    [1508165,"2026-02-21 21:10:00","54662","2.6060000000000003","238.7","4.018","238.5","1029.299","12.23","71.68","0.0","0.0"],
    [1508166,"2026-02-21 21:20:00","54663","2.5140000000000002","236.7","3.7569999999999997","220.2","1029.346","12.25","71.49","0.0","0.0"],
    [1508167,"2026-02-21 21:30:00","54664","2.804","234.0","4.4430000000000005","229.0","1029.299","12.43","70.24","0.0","0.0"],
    [1508168,"2026-02-21 21:40:00","54665","2.647","226.8","4.606","215.4","1029.348","13.17","66.06","0.0","0.0"],
    [1508169,"2026-02-21 21:50:00","54666","2.991","226.7","4.802","245.2","1029.37","13.53","62.17","0.0","0.0"],
    [1508170,"2026-02-21 22:00:00","54667","3.485","227.7","5.4879999999999995","215.7","1029.373","13.39","61.38","0.0","0.0"],
    [1508171,"2026-02-21 22:10:00","54668","3.016","227.0","4.769","218.9","1029.371","13.04","61.54","0.0","0.0"],
    [1508172,"2026-02-21 22:20:00","54669","2.8089999999999997","226.7","4.9","225.7","1029.319","12.59","63.64","0.0","0.0"],
    [1508173,"2026-02-21 22:30:00","54670","2.78","235.1","4.279","235.9","1029.349","12.49","63.39","0.0","0.0"],
    [1508174,"2026-02-21 22:40:00","54671","2.44","239.4","4.573","263.9","1029.379","12.52","62.36","0.0","0.0"],
    [1508175,"2026-02-21 22:50:00","54672","2.585","225.1","4.247","228.6","1029.361","12.59","61.45","0.0","0.0"],
    [1508176,"2026-02-21 23:00:00","54673","3.3280000000000003","225.4","5.521","214.1","1029.286","12.95","59.5","0.0","0.0"],
    [1508177,"2026-02-21 23:10:00","54674","2.4619999999999997","240.0","4.671","222.2","1029.282","13.2","56.85","0.0","0.0"],
    [1508178,"2026-02-21 23:20:00","54675","2.44","233.3","4.018","232.4","1029.279","12.75","58.24","0.0","0.0"],
    [1508179,"2026-02-21 23:30:00","54676","2.5180000000000002","235.4","3.92","251.6","1029.155","12.57","59.06","0.0","0.0"],
    [1508180,"2026-02-21 23:40:00","54677","2.693","239.8","4.345","256.1","1029.103","12.45","59.33","0.0","0.0"],
    [1508181,"2026-02-21 23:50:00","54678","2.602","238.0","4.083","252.2","1029.151","12.25","60.13","0.0","0.0"],
    [1508182,"2026-02-22 00:00:00","54679","2.1630000000000003","237.9","3.7239999999999998","230.5","1029.101","11.86","61.55","0.0","0.0"],
    [1508183,"2026-02-22 00:10:00","54680","2.64","241.6","5.031000000000001","249.2","1028.952","11.96","61.74","0.0","0.0"],
    [1508184,"2026-02-22 00:20:00","54681","2.401","244.0","4.279","242.7","1028.93","12.07","60.24","0.0","0.0"],
    [1508185,"2026-02-22 00:30:00","54682","2.019","240.7","3.7569999999999997","244.0","1028.861","12.1","60.06","0.0","0.0"],
    [1508186,"2026-02-22 00:40:00","54683","2.24","238.1","3.495","254.9","1028.716","11.95","60.05","0.0","0.0"],
    [1508187,"2026-02-22 00:50:00","54684","2.084","234.3","3.071","243.4","1028.675","11.64","61.35","0.0","0.0"],
    [1508188,"2026-02-22 01:00:00","54685","1.624","259.2","3.985","255.6","1028.684","11.38","61.86","0.0","0.0"],
    [1508189,"2026-02-22 01:10:00","54686","1.7530000000000001","235.6","3.0380000000000003","215.7","1028.675","10.72","64.43","0.0","0.0"],
    [1508190,"2026-02-22 01:20:00","54687","2.0380000000000003","241.9","2.9730000000000003","255.0","1028.586","10.79","64.57","0.0","0.0"],
    [1508191,"2026-02-22 01:30:00","54688","2.101","241.5","2.8089999999999997","255.6","1028.459","10.94","63.72","0.0","0.0"],
    [1508192,"2026-02-22 01:40:00","54689","1.242","231.9","2.254","223.9","1028.353","11.1","63.0","0.0","0.0"],
    [1508193,"2026-02-22 01:50:00","54690","1.104","241.7","2.221","259.6","1028.269","11.09","62.28","0.0","0.0"],
    [1508194,"2026-02-22 02:00:00","54691","1.473","242.7","2.875","245.3","1028.156","11.17","61.69","0.0","0.0"],
    [1508195,"2026-02-22 02:10:00","54692","2.316","253.6","3.495","254.5","1028.057","11.63","58.55","0.0","0.0"],
    [1508196,"2026-02-22 02:20:00","54693","2.1519999999999997","251.1","3.9530000000000003","252.5","1027.997","11.75","57.84","0.0","0.0"],
    [1508197,"2026-02-22 02:30:00","54694","2.4419999999999997","250.5","4.181","249.3","1027.802","12.35","55.59","0.0","0.0"],
    [1508198,"2026-02-22 02:40:00","54695","1.919","268.6","3.0380000000000003","271.6","1027.717","12.26","55.35","0.0","0.0"],
    [1508199,"2026-02-22 02:50:00","54696","1.227","292.8","2.385","280.0","1027.549","12.29","56.73","0.0","0.0"],
    [1508200,"2026-02-22 03:00:00","54697","1.511","296.5","2.907","279.3","1027.384","12.17","58.61","0.0","0.0"],
    [1508201,"2026-02-22 03:10:00","54698","2.055","277.0","3.136","267.7","1027.228","12.23","57.19","0.0","0.0"],
    [1508202,"2026-02-22 03:20:00","54699","2.4019999999999997","270.0","4.475","260.3","1027.088","12.17","57.0","0.0","0.0"],
    [1508203,"2026-02-22 03:30:00","54700","2.715","268.9","4.1160000000000005","276.3","1027.089","11.57","58.42","0.0","0.0"],
    [1508204,"2026-02-22 03:40:00","54701","2.4330000000000003","253.4","3.822","264.6","1027.041","11.84","58.38","0.0","0.0"],
    [1508205,"2026-02-22 03:50:00","54702","2.4659999999999997","241.8","4.247","241.1","1027.046","11.87","57.32","0.0","0.0"],
    [1508206,"2026-02-22 04:00:00","54703","2.9010000000000002","241.5","5.586","231.7","1026.971","11.73","56.47","0.0","0.0"],
    [1508207,"2026-02-22 04:10:00","54704","2.862","265.2","5.063","268.5","1026.964","11.08","58.39","0.0","0.0"],
    [1508208,"2026-02-22 04:20:00","54705","2.891","256.2","5.357","261.4","1026.916","11.35","58.07","0.0","0.0"],
    [1508209,"2026-02-22 04:30:00","54706","3.591","258.0","6.305","261.6","1026.903","11.91","55.61","0.0","0.0"],
    [1508210,"2026-02-22 04:40:00","54707","3.196","245.9","5.945","248.4","1026.875","12.37","53.79","0.0","0.0"],
    [1508211,"2026-02-22 04:50:00","54708","2.381","252.7","4.247","232.2","1026.953","11.85","55.57","0.0","0.0"],
    [1508212,"2026-02-22 05:00:00","54709","3.072","262.9","4.247","273.9","1026.957","11.61","57.09","0.0","0.0"],
    [1508213,"2026-02-22 05:10:00","54710","2.678","276.1","3.9530000000000003","276.6","1027.038","11.63","57.24","0.0","0.0"],
    [1508214,"2026-02-22 05:20:00","54711","2.248","280.5","3.463","284.9","1027.101","12.17","55.47","0.0","0.0"],
    [1508215,"2026-02-22 05:30:00","54712","2.29","281.5","3.397","271.6","1027.023","12.27","54.65","0.0","0.0"],
    [1508216,"2026-02-22 05:40:00","54713","2.4459999999999997","267.0","3.397","275.8","1027.003","12.21","54.3","0.0","0.0"],
    [1508217,"2026-02-22 05:50:00","54714","2.391","258.8","3.463","263.1","1027.031","12.21","54.67","0.0","0.0"],
    [1508218,"2026-02-22 06:00:00","54715","1.839","252.6","3.201","250.2","1027.083","12.21","54.98","0.0","0.0"],
    [1508219,"2026-02-22 06:10:00","54716","2.0069999999999997","260.8","3.299","255.3","1027.025","12.03","55.46","0.0","0.0"],
    [1508220,"2026-02-22 06:20:00","54717","2.9","267.0","4.018","244.1","1026.97","11.69","56.75","0.0","0.0"],
    [1508221,"2026-02-22 06:30:00","54718","2.987","270.4","3.9530000000000003","260.5","1026.959","11.51","57.65","0.006","0.0"],
    [1508222,"2026-02-22 06:40:00","54719","2.073","265.9","3.0380000000000003","277.8","1027.086","11.59","57.64","2.214","0.0"],
    [1508223,"2026-02-22 06:50:00","54720","1.351","274.7","1.993","293.2","1027.228","11.88","57.06","12.17","0.0"],
    [1508224,"2026-02-22 07:00:00","54721","1.03","309.5","1.764","268.0","1027.35","12.18","56.24","26.17","0.0"],
    [1508225,"2026-02-22 07:10:00","54722","1.151","39.52","1.9269999999999998","33.2","1027.457","12.77","59.57","49.81","0.0"],
    [1508226,"2026-02-22 07:20:00","54723","1.155","47.5","1.7309999999999999","94.5","1027.582","12.61","65.9","78.1","0.0"],
    [1508227,"2026-02-22 07:30:00","54724","1.598","80.1","2.0909999999999997","73.01","1027.7","12.59","66.42","109.3","0.0"],
    [1508228,"2026-02-22 07:40:00","54725","1.3019999999999998","39.14","2.0909999999999997","24.87","1027.812","12.43","66.83","138.3","0.0"],
    [1508229,"2026-02-22 07:50:00","54726","1.492","60.85","2.287","49.02","1027.895","12.3","66.69","166.5","0.0"],
    [1508230,"2026-02-22 08:00:00","54727","1.456","71.25","2.483","86.3","1028.082","12.48","65.1","196.2","0.0"],
    [1508231,"2026-02-22 08:10:00","54728","1.351","77.19","2.287","98.7","1028.174","12.66","64.67","214.8","0.0"],
    [1508232,"2026-02-22 08:20:00","54729","0.8640000000000001","77.85","1.797","87.6","1028.301","12.84","64.32","250.4","0.0"],
    [1508233,"2026-02-22 08:30:00","54730","1.115","87.2","1.764","98.4","1028.361","13.03","63.21","269.6","0.0"],
    [1508234,"2026-02-22 08:40:00","54731","0.98","99.8","1.633","102.4","1028.442","13.05","63.21","298.3","0.0"],
    [1508235,"2026-02-22 08:50:00","54732","1.004","143.6","1.47","143.1","1028.537","12.87","64.33","285.9","0.0"],
    [1508236,"2026-02-22 09:00:00","54733","0.91","166.4","1.274","136.4","1028.568","12.74","66.61","341.2","0.0"],
    [1508237,"2026-02-22 09:10:00","54734","0.664","139.8","1.111","137.7","1028.545","13.06","67.67","405.5","0.0"],
    [1508238,"2026-02-22 09:20:00","54735","0.7929999999999999","139.3","1.535","92.1","1028.546","13.22","66.59","417.5","0.0"],
    [1508239,"2026-02-22 09:30:00","54736","1.285","142.9","1.797","124.8","1028.522","13.09","66.4","443.0","0.0"],
    [1508240,"2026-02-22 09:40:00","54737","1.7","164.9","2.287","172.3","1028.556","12.75","68.06","475.2","0.0"],
    [1508241,"2026-02-22 09:50:00","54738","1.821","157.6","2.0580000000000003","147.6","1028.502","12.65","68.75","507.3","0.0"],
    [1508242,"2026-02-22 10:00:00","54739","1.7469999999999999","150.5","2.319","163.1","1028.499","12.87","68.91","534.0","0.0"],
    [1508243,"2026-02-22 10:10:00","54740","1.925","140.5","2.221","144.3","1028.454","13.09","69.06","555.6","0.0"],
    [1508244,"2026-02-22 10:20:00","54741","1.8230000000000002","115.7","2.319","117.0","1028.354","13.49","69.12","578.3","0.0"],
    [1508245,"2026-02-22 10:30:00","54742","2.124","113.6","2.5810000000000004","119.6","1028.36","13.76","67.83","595.9","0.0"],
    [1508246,"2026-02-22 10:40:00","54743","1.916","117.4","2.679","117.3","1028.371","13.8","68.27","612.6","0.0"],
    [1508247,"2026-02-22 10:50:00","54744","2.244","95.2","2.94","82.1","1028.417","13.82","67.67","626.5","0.0"],
    [1508248,"2026-02-22 11:00:00","54745","2.02","87.7","2.8089999999999997","88.2","1028.357","13.7","68.28","637.8","0.0"],
    [1508249,"2026-02-22 11:10:00","54746","1.8869999999999998","104.3","2.5810000000000004","99.5","1028.306","14.0","66.53","647.0","0.0"],
    [1508250,"2026-02-22 11:20:00","54747","2.7310000000000003","113.3","3.365","117.2","1028.177","13.93","66.99","661.4","0.0"],
    [1508251,"2026-02-22 11:30:00","54748","3.647","174.8","5.194","188.0","1028.113","14.29","64.5","667.3","0.0"],
    [1508252,"2026-02-22 11:40:00","54749","4.561","187.5","5.357","186.0","1028.057","14.49","60.03","677.9","0.0"],
    [1508253,"2026-02-22 11:50:00","54750","4.53","187.0","5.292000000000001","188.2","1028.011","14.24","64.78","681.6","0.0"],
    [1508254,"2026-02-22 12:00:00","54751","4.503","178.5","5.684","171.0","1027.874","14.1","69.3","680.7","0.0"],
    [1508255,"2026-02-22 12:10:00","54752","4.834","185.3","5.815","185.8","1027.706","13.86","72.04","677.6","0.0"],
    [1508256,"2026-02-22 12:20:00","54753","4.368","181.7","5.815","187.9","1027.531","13.83","73.62","683.9","0.0"],
    [1508257,"2026-02-22 12:30:00","54754","4.186","181.5","5.063","176.4","1027.43","13.98","74.53","655.8","0.0"],
    [1508258,"2026-02-22 12:40:00","54755","4.365","173.8","5.227","176.0","1027.43","13.87","78.13","666.1","0.0"],
    [1508259,"2026-02-22 12:50:00","54756","4.1160000000000005","176.4","5.227","181.1","1027.321","13.7","79.75","661.3","0.0"],
    [1508260,"2026-02-22 13:00:00","54757","3.475","185.5","4.377","186.0","1027.236","13.74","77.27","653.3","0.0"],
    [1508261,"2026-02-22 13:10:00","54758","3.85","174.3","4.573","172.7","1027.108","13.85","77.07","640.6","0.0"],
    [1508262,"2026-02-22 13:20:00","54759","3.852","171.4","4.769","164.9","1027.048","13.77","78.68","632.2","0.0"],
    [1508263,"2026-02-22 13:30:00","54760","4.688","168.9","5.129","169.1","1026.919","13.64","79.58","620.8","0.0"],
    [1508264,"2026-02-22 13:40:00","54761","4.596","166.8","5.194","170.5","1026.765","13.66","82.6","608.0","0.0"],
    [1508265,"2026-02-22 13:50:00","54762","4.414","160.1","5.521","165.8","1026.625","13.68","82.9","592.7","0.0"],
    [1508266,"2026-02-22 14:00:00","54763","4.666","180.8","5.521","165.8","1026.461","14.38","76.35","579.9","0.0"],
    [1508267,"2026-02-22 14:10:00","54764","3.048","189.0","4.508","167.9","1026.505","15.35","66.25","555.2","0.0"],
    [1508268,"2026-02-22 14:20:00","54765","2.772","199.6","4.279","189.2","1026.453","15.9","58.07","525.5","0.0"],
    [1508269,"2026-02-22 14:30:00","54766","2.358","223.2","5.455","217.0","1026.37","16.7","51.41","514.1","0.0"],
    [1508270,"2026-02-22 14:40:00","54767","3.6180000000000003","215.8","5.096","196.6","1026.316","16.47","50.08","496.3","0.0"],
    [1508271,"2026-02-22 14:50:00","54768","3.0589999999999997","214.5","4.508","225.4","1026.272","16.45","52.73","469.6","0.0"],
    [1508272,"2026-02-22 15:00:00","54769","3.228","216.5","4.737","200.8","1026.214","16.29","54.81","442.9","0.0"],
    [1508273,"2026-02-22 15:10:00","54770","3.622","221.3","4.802","228.8","1026.156","16.19","56.45","414.8","0.0"],
    [1508274,"2026-02-22 15:20:00","54771","3.4539999999999997","197.8","5.521","188.5","1026.2","15.89","59.29","341.2","0.0"],
    [1508275,"2026-02-22 15:30:00","54772","2.513","220.0","5.194","232.8","1026.234","15.92","58.67","338.0","0.0"],
    [1508276,"2026-02-22 15:40:00","54773","2.633","211.6","4.377","213.4","1026.17","15.93","58.05","316.2","0.0"],
    [1508277,"2026-02-22 15:50:00","54774","3.2739999999999996","201.9","4.965","194.2","1026.13","15.83","58.14","267.5","0.0"],
    [1508278,"2026-02-22 16:00:00","54775","4.022","199.7","5.782","191.6","1026.05","15.52","60.49","215.2","0.0"],
    [1508279,"2026-02-22 16:10:00","54776","3.927","200.3","5.7170000000000005","190.2","1026.019","15.33","62.86","192.9","0.0"],
    [1508280,"2026-02-22 16:20:00","54777","2.8930000000000002","202.5","4.573","201.4","1025.974","15.36","64.64","175.3","0.0"],
    [1508281,"2026-02-22 16:30:00","54778","2.694","208.1","4.279","206.5","1025.981","15.27","65.4","92.0","0.0"],
    [1508282,"2026-02-22 16:40:00","54779","1.936","211.9","3.103","207.7","1026.002","15.39","64.8","66.01","0.0"],
    [1508283,"2026-02-22 16:50:00","54780","2.787","219.4","4.769","211.1","1025.897","15.71","61.02","56.2","0.0"],
    [1508284,"2026-02-22 17:00:00","54781","2.1390000000000002","216.5","4.541","213.6","1025.88","15.81","58.33","42.71","0.0"],
    [1508285,"2026-02-22 17:10:00","54782","2.037","218.4","3.528","223.0","1025.941","15.73","58.26","28.61","0.0"],
    [1508286,"2026-02-22 17:20:00","54783","2.048","216.2","3.463","210.4","1025.987","15.58","59.45","16.71","0.0"],
    [1508287,"2026-02-22 17:30:00","54784","2.072","220.3","3.332","227.8","1026.019","15.35","61.24","6.327000000000001","0.0"],
    [1508288,"2026-02-22 17:40:00","54785","1.979","225.6","3.5610000000000004","216.3","1026.044","15.09","62.77","0.85","0.0"],
    [1508289,"2026-02-22 17:50:00","54786","1.765","229.8","2.7769999999999997","215.8","1026.114","14.92","64.75","0.0","0.0"],
    [1508290,"2026-02-22 18:00:00","54787","1.32","250.4","2.319","255.4","1026.224","14.82","66.53","0.0","0.0"],
    [1508291,"2026-02-22 18:10:00","54788","1.1159999999999999","254.7","2.0909999999999997","269.2","1026.333","14.71","67.93","0.0","0.0"],
    [1508292,"2026-02-22 18:20:00","54789","1.24","259.5","1.9269999999999998","260.4","1026.352","14.64","68.82","0.0","0.0"],
    [1508293,"2026-02-22 18:30:00","54790","0.9259999999999999","287.1","1.993","280.2","1026.382","14.61","69.14","0.0","0.0"],
    [1508294,"2026-02-22 18:40:00","54791","0.7509999999999999","304.8","1.4369999999999998","269.9","1026.413","14.62","69.35","0.0","0.0"],
    [1508295,"2026-02-22 18:50:00","54792","0.968","143.8","1.5030000000000001","134.6","1026.429","14.52","70.6","0.0","0.0"],
    [1508296,"2026-02-22 19:00:00","54793","0.866","107.3","1.666","78.15","1026.471","14.31","74.51","0.0","0.0"],
    [1508297,"2026-02-22 19:10:00","54794","0.498","123.8","0.8490000000000001","113.6","1026.502","14.08","77.5","0.0","0.0"],
    [1508298,"2026-02-22 19:20:00","54795","0.613","90.7","0.915","70.47","1026.616","13.93","80.0","0.0","0.0"],
    [1508299,"2026-02-22 19:30:00","54796","0.812","127.4","1.47","141.5","1026.611","13.9","81.0","0.0","0.0"],
    [1508300,"2026-02-22 19:40:00","54797","1.496","171.3","1.764","184.1","1026.623","13.9","83.2","0.0","0.0"],
    [1508301,"2026-02-22 19:50:00","54798","1.784","188.0","2.0909999999999997","190.5","1026.603","13.81","85.9","0.0","0.0"],
    [1508302,"2026-02-22 20:00:00","54799","0.7609999999999999","253.5","1.111","201.1","1026.628","13.62","87.6","0.0","0.0"],
    [1508303,"2026-02-22 20:10:00","54800","0.782","252.0","1.176","258.6","1026.685","13.47","87.0","0.0","0.0"],
    [1508304,"2026-02-22 20:20:00","54801","0.8029999999999999","236.1","1.209","254.0","1026.745","13.46","86.0","0.0","0.0"],
    [1508305,"2026-02-22 20:30:00","54802","1.227","253.5","2.025","249.9","1026.79","13.55","84.7","0.0","0.0"],
    [1508306,"2026-02-22 20:40:00","54803","1.183","253.4","2.025","262.4","1026.783","13.46","83.7","0.0","0.0"],
    [1508307,"2026-02-22 20:50:00","54804","0.7659999999999999","250.7","1.829","244.9","1026.731","13.52","82.8","0.0","0.0"],
    [1508308,"2026-02-22 21:00:00","54805","0.996","226.6","1.829","246.7","1026.675","13.55","81.6","0.0","0.0"],
    [1508309,"2026-02-22 21:10:00","54806","1.955","249.8","4.018","264.0","1026.637","13.48","78.7","0.0","0.0"],
    [1508310,"2026-02-22 21:20:00","54807","2.781","249.5","4.835","253.5","1026.596","13.52","74.7","0.0","0.0"],
    [1508311,"2026-02-22 21:30:00","54808","3.6710000000000003","253.4","5.292000000000001","253.4","1026.596","13.66","71.82","0.0","0.0"],
    [1508312,"2026-02-22 21:40:00","54809","2.394","248.0","4.279","254.9","1026.573","13.39","73.93","0.0","0.0"],
    [1508313,"2026-02-22 21:50:00","54810","2.315","249.5","3.6910000000000003","255.5","1026.544","13.31","76.92","0.0","0.0"],
    [1508314,"2026-02-22 22:00:00","54811","3.04","246.9","4.769","252.4","1026.507","13.36","76.48","0.0","0.0"],
    [1508315,"2026-02-22 22:10:00","54812","2.863","246.2","4.377","255.7","1026.491","13.48","74.57","0.0","0.0"],
    [1508316,"2026-02-22 22:20:00","54813","2.364","250.3","4.1160000000000005","254.9","1026.458","13.37","74.44","0.0","0.0"],
    [1508317,"2026-02-22 22:30:00","54814","2.62","248.4","3.822","250.7","1026.454","13.23","75.23","0.0","0.0"],
    [1508318,"2026-02-22 22:40:00","54815","2.1390000000000002","246.1","3.495","247.0","1026.466","13.05","75.37","0.0","0.0"],
    [1508319,"2026-02-22 22:50:00","54816","1.771","252.1","2.679","255.2","1026.45","12.8","75.65","0.0","0.0"],
    [1508320,"2026-02-22 23:00:00","54817","1.617","255.1","2.7439999999999998","277.2","1026.293","12.41","76.64","0.0","0.0"],
    [1508321,"2026-02-22 23:10:00","54818","1.9180000000000001","268.5","2.875","265.0","1026.242","11.97","76.95","0.0","0.0"],
    [1508322,"2026-02-22 23:20:00","54819","1.879","275.5","2.515","266.7","1026.196","11.76","77.4","0.0","0.0"],
    [1508323,"2026-02-22 23:30:00","54820","1.421","280.1","2.515","285.8","1026.152","11.79","77.63","0.0","0.0"],
    [1508324,"2026-02-22 23:40:00","54821","1.66","247.6","3.463","256.0","1026.142","11.82","77.21","0.0","0.0"],
    [1508325,"2026-02-22 23:50:00","54822","1.215","263.6","2.8089999999999997","252.4","1026.086","11.73","75.86","0.0","0.0"],
    [1508326,"2026-02-23 00:00:00","54823","1.749","249.7","2.875","261.7","1025.995","11.52","76.07","0.0","0.0"],
    [1508327,"2026-02-23 00:10:00","54824","1.7169999999999999","249.4","2.94","253.2","1025.923","11.59","75.34","0.0","0.0"],
    [1508328,"2026-02-23 00:20:00","54825","1.579","255.7","2.907","265.7","1025.89","11.54","74.75","0.0","0.0"],
    [1508329,"2026-02-23 00:30:00","54826","1.4469999999999998","263.2","2.385","259.9","1025.796","11.2","75.37","0.0","0.0"],
    [1508330,"2026-02-23 00:40:00","54827","1.21","278.2","2.156","276.5","1025.745","10.93","76.38","0.0","0.0"],
    [1508331,"2026-02-23 00:50:00","54828","1.597","279.3","2.123","275.8","1025.638","10.94","77.13","0.0","0.0"],
    [1508332,"2026-02-23 01:00:00","54829","1.252","214.8","1.993","254.6","1025.616","11.14","77.08","0.0","0.0"],
    [1508333,"2026-02-23 01:10:00","54830","0.142","234.7","0.8170000000000001","187.7","1025.574","11.32","76.22","0.0","0.0"],
    [1508334,"2026-02-23 01:20:00","54831","0.034","353.7","0.457","348.7","1025.417","11.28","75.8","0.0","0.0"],
    [1508335,"2026-02-23 01:30:00","54832","0.685","212.4","1.895","227.0","1025.362","11.21","74.9","0.0","0.0"],
    [1508336,"2026-02-23 01:40:00","54833","1.186","250.9","2.417","268.9","1025.28","11.18","73.59","0.0","0.0"],
    [1508337,"2026-02-23 01:50:00","54834","2.11","261.7","2.7769999999999997","262.3","1025.193","11.15","70.71","0.0","0.0"],
    [1508338,"2026-02-23 02:00:00","54835","1.4680000000000002","254.3","2.613","260.8","1025.137","11.03","70.28","0.0","0.0"],
    [1508339,"2026-02-23 02:10:00","54836","0.15","195.3","0.8490000000000001","205.6","1025.048","11.13","70.94","0.0","0.0"],
    [1508340,"2026-02-23 02:20:00","54837","0.596","281.5","1.568","45.69","1024.88","11.22","71.51","0.0","0.0"],
    [1508341,"2026-02-23 02:30:00","54838","1.412","249.5","2.9730000000000003","244.6","1024.698","11.59","70.0","0.0","0.0"],
    [1508342,"2026-02-23 02:40:00","54839","0.375","242.1","1.96","257.1","1024.659","11.81","67.54","0.0","0.0"],
    [1508343,"2026-02-23 02:50:00","54840","0.972","288.2","1.8619999999999999","298.8","1024.648","11.69","66.98","0.0","0.0"],
    [1508344,"2026-02-23 03:00:00","54841","0.18100000000000002","13.19","1.307","21.4","1024.566","11.76","68.11","0.0","0.0"],
    [1508345,"2026-02-23 03:10:00","54842","0.214","315.4","1.013","307.4","1024.565","11.81","69.51","0.0","0.0"],
    [1508346,"2026-02-23 03:20:00","54843","0.149","34.59","0.9470000000000001","354.6","1024.581","11.8","69.97","0.0","0.0"],
    [1508347,"2026-02-23 03:30:00","54844","1.202","17.0","1.764","28.1","1024.561","12.02","72.01","0.0","0.0"],
    [1508348,"2026-02-23 03:40:00","54845","1.3969999999999998","51.39","1.993","71.4","1024.482","12.29","73.62","0.0","0.0"],
    [1508349,"2026-02-23 03:50:00","54846","1.274","48.56","1.7309999999999999","41.33","1024.391","12.24","75.53","0.0","0.0"],
    [1508350,"2026-02-23 04:00:00","54847","1.618","53.56","2.875","46.08","1024.332","12.14","76.79","0.0","0.0"],
    [1508351,"2026-02-23 04:10:00","54848","2.0140000000000002","16.1","2.7769999999999997","37.74","1024.473","11.65","77.78","0.0","0.0"],
    [1508352,"2026-02-23 04:20:00","54849","0.946","326.3","1.4369999999999998","13.52","1024.515","11.76","78.8","0.0","0.0"],
    [1508353,"2026-02-23 04:30:00","54850","1.175","285.3","1.699","280.8","1024.553","11.52","79.65","0.0","0.0"],
    [1508354,"2026-02-23 04:40:00","54851","1.653","280.5","2.352","288.9","1024.475","11.51","79.5","0.0","0.0"],
    [1508355,"2026-02-23 04:50:00","54852","1.165","257.4","2.123","264.4","1024.509","11.65","78.41","0.0","0.0"],
    [1508356,"2026-02-23 05:00:00","54853","2.247","256.3","3.267","259.6","1024.479","11.39","76.95","0.0","0.0"],
    [1508357,"2026-02-23 05:10:00","54854","1.244","255.6","2.0909999999999997","253.8","1024.439","11.55","76.46","0.0","0.0"],
    [1508358,"2026-02-23 05:20:00","54855","0.127","164.5","0.8490000000000001","176.5","1024.397","11.85","76.12","0.0","0.0"],
    [1508359,"2026-02-23 05:30:00","54856","0.125","154.9","0.588","157.4","1024.427","11.73","76.68","0.0","0.0"],
    [1508360,"2026-02-23 05:40:00","54857","0.515","284.3","1.307","274.9","1024.494","11.5","77.65","0.0","0.0"],
    [1508361,"2026-02-23 05:50:00","54858","0.768","254.7","1.307","266.6","1024.485","11.09","76.95","0.0","0.0"],
    [1508362,"2026-02-23 06:00:00","54859","0.363","290.1","1.143","295.9","1024.521","11.2","76.79","0.0","0.0"],
    [1508363,"2026-02-23 06:10:00","54860","0.903","304.1","1.176","297.0","1024.577","11.11","76.51","0.0","0.0"],
    [1508364,"2026-02-23 06:20:00","54861","0.775","284.0","1.111","309.6","1024.626","11.14","77.33","0.0","0.0"],
    [1508365,"2026-02-23 06:30:00","54862","0.9590000000000001","199.0","1.601","192.1","1024.64","11.12","78.24","0.005","0.0"],
    [1508366,"2026-02-23 06:40:00","54863","0.9079999999999999","217.8","1.633","192.9","1024.649","11.31","78.78","2.69","0.0"],
    [1508367,"2026-02-23 06:50:00","54864","1.046","276.9","2.385","266.4","1024.708","11.25","77.47","12.61","0.0"],
    [1508368,"2026-02-23 07:00:00","54865","2.176","265.6","2.515","267.3","1024.771","10.95","74.39","27.31","0.0"],
    [1508369,"2026-02-23 07:10:00","54866","1.3259999999999998","254.1","2.319","263.9","1024.949","10.93","73.72","56.92","0.0"],
    [1508370,"2026-02-23 07:20:00","54867","0.502","248.4","1.111","254.5","1025.103","11.38","72.77","88.2","0.0"],
    [1508371,"2026-02-23 07:30:00","54868","0.563","299.8","0.915","304.5","1025.296","11.73","71.1","116.6","0.0"],
    [1508372,"2026-02-23 07:40:00","54869","0.14300000000000002","2.193","0.882","36.54","1025.474","12.22","69.85","134.9","0.0"],
    [1508373,"2026-02-23 07:50:00","54870","0.588","25.01","1.274","6.013999999999999","1025.551","12.92","68.68","147.1","0.0"],
    [1508374,"2026-02-23 08:00:00","54871","0.447","330.8","1.274","314.8","1025.58","13.28","67.07","162.4","0.0"],
    [1508375,"2026-02-23 08:10:00","54872","0.815","350.8","2.319","3.63","1025.512","13.2","66.75","180.0","0.0"],
    [1508376,"2026-02-23 08:20:00","54873","0.504","344.1","1.013","15.17","1025.448","13.59","66.59","255.6","0.0"],
    [1508377,"2026-02-23 08:30:00","54874","1.038","279.7","1.405","279.8","1025.544","13.26","65.51","286.5","0.0"],
    [1508378,"2026-02-23 08:40:00","54875","1.204","262.4","2.025","256.4","1025.537","13.35","65.1","323.6","0.0"],
    [1508379,"2026-02-23 08:50:00","54876","0.542","305.5","1.405","344.1","1025.569","13.88","64.53","345.8","0.0"],
    [1508380,"2026-02-23 09:00:00","54877","2.042","33.17","3.136","34.46","1025.588","14.26","68.15","359.4","0.0"],
    [1508381,"2026-02-23 09:10:00","54878","2.263","44.2","2.7439999999999998","42.22","1025.647","13.93","73.3","370.9","0.0"],
    [1508382,"2026-02-23 09:20:00","54879","1.865","54.76","2.515","58.26","1025.682","13.77","72.28","385.9","0.0"],
    [1508383,"2026-02-23 09:30:00","54880","1.485","48.89","2.156","51.45","1025.712","13.79","67.78","398.9","0.0"],
    [1508384,"2026-02-23 09:40:00","54881","1.963","53.09","3.103","41.38","1025.763","14.35","65.65","447.1","0.0"],
    [1508385,"2026-02-23 09:50:00","54882","2.488","48.08","3.136","58.67","1025.754","14.48","65.55","507.5","0.0"],
    [1508386,"2026-02-23 10:00:00","54883","2.2119999999999997","56.69","2.9730000000000003","52.87","1025.769","14.51","65.68","532.1","0.0"],
    [1508387,"2026-02-23 10:10:00","54884","1.7169999999999999","69.13","2.679","76.99","1025.799","14.66","64.01","552.3","0.0"],
    [1508388,"2026-02-23 10:20:00","54885","2.114","68.63","3.136","73.55","1025.84","14.93","62.49","569.8","0.0"],
    [1508389,"2026-02-23 10:30:00","54886","2.983","62.98","3.7569999999999997","66.94","1025.858","14.98","63.09","589.3","0.0"],
    [1508390,"2026-02-23 10:40:00","54887","2.9760000000000004","77.24","3.6910000000000003","71.06","1025.864","14.62","67.29","604.9","0.0"],
    [1508391,"2026-02-23 10:50:00","54888","2.6010000000000004","91.1","3.299","93.7","1025.781","14.59","69.68","618.5","0.0"],
    [1508392,"2026-02-23 11:00:00","54889","2.174","98.2","3.0380000000000003","103.9","1025.739","14.61","71.18","626.5","0.0"],
    [1508393,"2026-02-23 11:10:00","54890","2.342","103.2","3.103","101.3","1025.731","14.56","73.33","641.2","0.0"],
    [1508394,"2026-02-23 11:20:00","54891","2.428","95.5","3.071","97.1","1025.706","14.38","77.52","648.3","0.0"],
    [1508395,"2026-02-23 11:30:00","54892","1.8630000000000002","93.4","2.613","94.0","1025.664","14.14","82.0","652.1","0.0"],
    [1508396,"2026-02-23 11:40:00","54893","1.882","86.5","2.483","82.7","1025.594","14.0","84.6","657.7","0.0"],
    [1508397,"2026-02-23 11:50:00","54894","1.91","84.7","2.6460000000000004","84.3","1025.495","13.91","86.7","662.1","0.0"],
    [1508398,"2026-02-23 12:00:00","54895","1.611","91.5","2.515","85.9","1025.322","13.94","88.6","665.8","0.0"],
    [1508399,"2026-02-23 12:10:00","54896","1.474","98.1","1.96","98.9","1025.197","14.03","89.9","661.3","0.0"],
    [1508400,"2026-02-23 12:20:00","54897","1.726","114.4","2.319","111.0","1025.026","14.02","91.0","658.7","0.0"],
    [1508401,"2026-02-23 12:30:00","54898","1.34","89.6","1.829","78.46","1024.923","14.04","91.4","658.1","0.0"],
    [1508402,"2026-02-23 12:40:00","54899","1.6","86.5","2.025","85.7","1024.73","14.02","91.5","653.0","0.0"],
    [1508403,"2026-02-23 12:50:00","54900","1.26","67.34","2.025","77.72","1024.586","14.15","91.1","646.4","0.0"],
    [1508404,"2026-02-23 13:00:00","54901","1.766","97.1","2.254","86.2","1024.504","14.2","90.6","637.4","0.0"],
    [1508405,"2026-02-23 13:10:00","54902","1.462","103.9","1.993","99.4","1024.525","14.25","90.9","623.5","0.0"],
    [1508406,"2026-02-23 13:20:00","54903","1.58","149.3","2.025","141.8","1024.484","14.25","91.0","613.4","0.0"],
    [1508407,"2026-02-23 13:30:00","54904","2.023","162.2","2.5810000000000004","170.6","1024.378","14.17","90.8","600.1","0.0"],
    [1508408,"2026-02-23 13:40:00","54905","2.504","171.5","2.94","169.2","1024.23","14.01","91.0","587.2","0.0"],
    [1508409,"2026-02-23 13:50:00","54906","2.2569999999999997","155.2","2.548","172.9","1024.141","13.95","91.3","574.0","0.0"],
    [1508410,"2026-02-23 14:00:00","54907","2.302","143.4","2.7769999999999997","139.5","1024.096","13.98","91.8","557.5","0.0"],
    [1508411,"2026-02-23 14:10:00","54908","2.426","143.5","2.875","145.9","1024.004","13.97","92.9","536.9","0.0"],
    [1508412,"2026-02-23 14:20:00","54909","2.187","143.8","2.8089999999999997","144.8","1023.897","13.96","94.2","520.1","0.0"],
    [1508413,"2026-02-23 14:30:00","54910","2.21","150.1","2.7439999999999998","151.1","1023.858","13.98","95.2","495.2","0.0"],
    [1508414,"2026-02-23 14:40:00","54911","2.237","144.6","2.613","139.3","1023.835","13.96","96.0","473.0","0.0"],
    [1508415,"2026-02-23 14:50:00","54912","2.072","140.9","2.5810000000000004","136.8","1023.834","14.0","96.7","443.7","0.0"],
    [1508416,"2026-02-23 15:00:00","54913","2.3890000000000002","151.4","2.907","157.7","1023.754","13.99","96.9","420.6","0.0"],
    [1508417,"2026-02-23 15:10:00","54914","2.542","159.2","3.005","165.5","1023.686","14.04","97.2","396.7","0.0"],
    [1508418,"2026-02-23 15:20:00","54915","3.043","165.5","3.495","168.0","1023.597","13.94","96.8","367.9","0.0"],
    [1508419,"2026-02-23 15:30:00","54916","3.0980000000000003","160.9","3.365","156.5","1023.554","13.94","95.7","337.3","0.0"],
    [1508420,"2026-02-23 15:40:00","54917","3.196","167.0","3.528","169.9","1023.518","14.02","95.0","305.8","0.0"],
    [1508421,"2026-02-23 15:50:00","54918","2.98","174.0","3.5610000000000004","169.9","1023.461","14.12","94.7","280.0","0.0"],
    [1508422,"2026-02-23 16:00:00","54919","3.017","175.5","3.7239999999999998","171.7","1023.392","14.24","94.5","247.6","0.0"],
    [1508423,"2026-02-23 16:10:00","54920","3.282","177.1","4.018","178.1","1023.359","14.27","96.4","215.6","0.0"],
    [1508424,"2026-02-23 16:20:00","54921","3.573","182.8","4.573","181.1","1023.373","14.02","98.2","152.5","0.0"],
    [1508425,"2026-02-23 16:30:00","54922","3.063","183.5","3.887","190.8","1023.407","13.92","98.4","54.93","0.0"],
    [1508426,"2026-02-23 16:40:00","54923","3.182","176.7","3.92","175.8","1023.367","13.74","98.6","43.6","0.0"],
    [1508427,"2026-02-23 16:50:00","54924","2.641","182.4","3.299","169.9","1023.324","13.9","98.8","36.48","0.0"],
    [1508428,"2026-02-23 17:00:00","54925","3.252","179.4","4.181","174.1","1023.419","13.93","99.3","30.19","0.0"],
    [1508429,"2026-02-23 17:10:00","54926","3.0589999999999997","179.2","3.7569999999999997","173.1","1023.513","13.8","100.0","22.88","0.0"],
    [1508430,"2026-02-23 17:20:00","54927","2.887","187.0","3.463","192.6","1023.557","13.71","100.0","14.4","0.0"],
    [1508431,"2026-02-23 17:30:00","54928","2.7769999999999997","189.2","3.495","189.6","1023.56","13.63","100.0","6.42","0.0"],
    [1508432,"2026-02-23 17:40:00","54929","3.033","194.7","3.6910000000000003","193.5","1023.512","13.54","100.0","1.078","0.0"],
    [1508433,"2026-02-23 17:50:00","54930","1.6469999999999998","196.2","3.103","192.1","1023.534","13.46","100.0","0.0","0.0"],
    [1508434,"2026-02-23 18:00:00","54931","1.528","198.7","2.319","199.4","1023.618","13.44","100.0","0.0","0.0"],
    [1508435,"2026-02-23 18:10:00","54932","1.91","196.0","2.319","189.2","1023.639","13.6","100.0","0.0","0.0"],
    [1508436,"2026-02-23 18:20:00","54933","1.739","193.9","2.45","204.3","1023.73","13.61","99.7","0.0","0.0"],
    [1508437,"2026-02-23 18:30:00","54934","1.5759999999999998","192.9","1.797","191.5","1023.806","13.68","98.9","0.0","0.0"],
    [1508438,"2026-02-23 18:40:00","54935","1.751","201.4","2.6460000000000004","212.4","1023.801","13.58","98.6","0.0","0.0"],
    [1508439,"2026-02-23 18:50:00","54936","1.5619999999999998","193.6","1.96","203.4","1023.857","13.64","98.5","0.0","0.0"],
    [1508440,"2026-02-23 19:00:00","54937","1.2790000000000001","217.4","1.764","198.5","1023.872","13.42","98.7","0.0","0.0"],
    [1508441,"2026-02-23 19:10:00","54938","1.256","231.2","2.0580000000000003","224.5","1023.852","13.39","97.5","0.0","0.0"],
    [1508442,"2026-02-23 19:20:00","54939","1.636","214.6","2.417","219.7","1023.852","13.53","96.2","0.0","0.0"],
    [1508443,"2026-02-23 19:30:00","54940","1.2570000000000001","219.0","1.96","204.8","1023.855","13.56","95.9","0.0","0.0"],
    [1508444,"2026-02-23 19:40:00","54941","1.4080000000000001","240.4","2.6460000000000004","259.7","1023.836","13.61","96.1","0.0","0.0"],
    [1508445,"2026-02-23 19:50:00","54942","1.643","260.2","3.0380000000000003","262.2","1023.853","13.53","96.5","0.0","0.0"],
    [1508446,"2026-02-23 20:00:00","54943","1.442","262.6","2.221","262.3","1023.91","13.42","96.8","0.0","0.0"],
    [1508447,"2026-02-23 20:10:00","54944","1.163","239.8","2.287","230.8","1023.922","13.32","97.1","0.0","0.0"],
    [1508448,"2026-02-23 20:20:00","54945","1.275","251.1","2.417","227.9","1023.871","13.35","96.5","0.0","0.0"],
    [1508449,"2026-02-23 20:30:00","54946","1.5590000000000002","254.9","2.6460000000000004","257.2","1023.828","13.38","96.1","0.0","0.0"],
    [1508450,"2026-02-23 20:40:00","54947","1.217","259.2","2.0909999999999997","255.0","1023.785","13.29","96.2","0.0","0.0"],
    [1508451,"2026-02-23 20:50:00","54948","0.8809999999999999","254.6","1.666","269.6","1023.796","13.25","96.7","0.0","0.0"],
    [1508452,"2026-02-23 21:00:00","54949","0.6409999999999999","271.7","1.013","279.5","1023.784","13.2","97.2","0.0","0.0"],
    [1508453,"2026-02-23 21:10:00","54950","0.46","285.4","0.6859999999999999","272.2","1023.782","13.1","97.7","0.0","0.0"],
    [1508454,"2026-02-23 21:20:00","54951","0.10400000000000001","313.6","0.621","306.2","1023.785","13.06","98.1","0.0","0.0"],
    [1508455,"2026-02-23 21:30:00","54952","0.0","0.0","0.0","0.0","1023.741","13.0","98.3","0.0","0.0"],
    [1508456,"2026-02-23 21:40:00","54953","0.0","0.0","0.0","0.0","1023.715","12.99","98.8","0.0","0.0"],
    [1508457,"2026-02-23 21:50:00","54954","0.0","0.0","0.0","0.0","1023.761","13.05","99.2","0.0","0.0"],
    [1508458,"2026-02-23 22:00:00","54955","0.336","194.6","0.7190000000000001","204.2","1023.786","13.09","99.6","0.0","0.0"],
    [1508459,"2026-02-23 22:10:00","54956","0.382","187.1","0.8490000000000001","178.5","1023.772","13.02","100.0","0.0","0.0"],
    [1508460,"2026-02-23 22:20:00","54957","0.657","193.8","0.98","183.3","1023.791","13.02","100.0","0.0","0.0"],
    [1508461,"2026-02-23 22:30:00","54958","0.037000000000000005","219.9","0.392","219.0","1023.799","12.81","100.0","0.0","0.0"],
    [1508462,"2026-02-23 22:40:00","54959","0.665","269.9","1.078","271.6","1023.784","12.58","100.0","0.0","0.0"],
    [1508463,"2026-02-23 22:50:00","54960","0.48100000000000004","268.9","1.013","283.2","1023.679","12.49","100.0","0.0","0.0"],
    [1508464,"2026-02-23 23:00:00","54961","0.82","266.2","1.47","271.7","1023.537","12.3","100.0","0.0","0.0"],
    [1508465,"2026-02-23 23:10:00","54962","1.4180000000000001","280.6","1.568","282.0","1023.468","11.97","99.5","0.0","0.0"],
    [1508466,"2026-02-23 23:20:00","54963","1.489","283.9","2.025","265.1","1023.356","11.88","98.7","0.0","0.0"],
    [1508467,"2026-02-23 23:30:00","54964","2.352","263.4","2.613","258.2","1023.331","11.73","97.6","0.0","0.0"],
    [1508468,"2026-02-23 23:40:00","54965","1.9169999999999998","265.6","2.5810000000000004","261.9","1023.325","11.78","96.1","0.0","0.0"],
    [1508469,"2026-02-23 23:50:00","54966","1.6219999999999999","264.9","1.96","263.1","1023.266","11.88","94.6","0.0","0.0"],
    [1508470,"2026-02-24 00:00:00","54967","1.9069999999999998","258.3","2.679","253.2","1023.177","11.79","92.9","0.0","0.0"],
    [1508471,"2026-02-24 00:10:00","54968","1.712","253.7","2.417","256.7","1023.042","11.73","90.4","0.0","0.0"],
    [1508472,"2026-02-24 00:20:00","54969","0.9329999999999999","252.4","2.0580000000000003","250.0","1022.987","11.64","88.7","0.0","0.0"],
    [1508473,"2026-02-24 00:30:00","54970","1.422","263.5","2.319","267.7","1022.91","11.54","87.8","0.0","0.0"],
    [1508474,"2026-02-24 00:40:00","54971","1.87","263.7","2.189","265.8","1022.851","11.45","87.2","0.0","0.0"],
    [1508475,"2026-02-24 00:50:00","54972","1.57","269.1","1.8619999999999999","266.3","1022.787","11.45","86.5","0.0","0.0"],
    [1508476,"2026-02-24 01:00:00","54973","1.443","269.3","1.9269999999999998","280.0","1022.718","11.32","86.4","0.0","0.0"],
    [1508477,"2026-02-24 01:10:00","54974","2.021","264.5","2.352","259.6","1022.632","11.12","86.9","0.0","0.0"],
    [1508478,"2026-02-24 01:20:00","54975","2.0909999999999997","266.3","2.45","266.0","1022.562","11.06","87.1","0.0","0.0"],
    [1508479,"2026-02-24 01:30:00","54976","2.252","269.1","2.613","271.8","1022.469","10.91","87.4","0.0","0.0"],
    [1508480,"2026-02-24 01:40:00","54977","2.455","264.5","2.875","262.2","1022.409","10.89","87.7","0.0","0.0"],
    [1508481,"2026-02-24 01:50:00","54978","1.945","270.5","2.515","259.8","1022.309","10.9","88.0","0.0","0.0"],
    [1508482,"2026-02-24 02:00:00","54979","1.5","276.1","1.699","276.1","1022.26","11.06","87.9","0.0","0.0"],
    [1508483,"2026-02-24 02:10:00","54980","1.483","266.7","1.8619999999999999","259.6","1022.23","11.37","87.4","0.0","0.0"],
    [1508484,"2026-02-24 02:20:00","54981","1.87","262.9","2.483","263.4","1022.116","11.54","86.3","0.0","0.0"],
    [1508485,"2026-02-24 02:30:00","54982","2.0980000000000003","263.6","2.45","263.8","1022.015","11.33","85.2","0.0","0.0"],
    [1508486,"2026-02-24 02:40:00","54983","1.72","246.6","2.287","256.4","1021.847","11.45","84.7","0.0","0.0"],
    [1508487,"2026-02-24 02:50:00","54984","0.8","242.4","1.47","249.3","1021.753","11.51","84.0","0.0","0.0"],
    [1508488,"2026-02-24 03:00:00","54985","0.212","235.2","1.045","250.6","1021.676","11.4","82.8","0.0","0.0"],
    [1508489,"2026-02-24 03:10:00","54986","0.018000000000000002","251.9","0.784","248.6","1021.584","11.39","82.3","0.0","0.0"],
    [1508490,"2026-02-24 03:20:00","54987","1.227","245.0","2.221","241.2","1021.528","11.43","81.3","0.0","0.0"],
    [1508491,"2026-02-24 03:30:00","54988","2.042","248.7","3.887","253.8","1021.481","11.47","79.65","0.0","0.0"],
    [1508492,"2026-02-24 03:40:00","54989","1.3130000000000002","255.2","2.123","257.3","1021.452","11.1","79.05","0.0","0.0"],
    [1508493,"2026-02-24 03:50:00","54990","1.736","256.3","3.397","256.4","1021.436","10.79","79.73","0.0","0.0"],
    [1508494,"2026-02-24 04:00:00","54991","2.571","250.2","4.475","253.5","1021.428","10.8","79.88","0.0","0.0"],
    [1508495,"2026-02-24 04:10:00","54992","2.739","250.2","4.737","255.2","1021.353","10.85","79.16","0.0","0.0"],
    [1508496,"2026-02-24 04:20:00","54993","3.575","249.9","5.422999999999999","248.7","1021.257","10.94","78.29","0.0","0.0"],
    [1508497,"2026-02-24 04:30:00","54994","3.154","251.2","4.9","251.5","1021.212","10.9","77.43","0.0","0.0"],
    [1508498,"2026-02-24 04:40:00","54995","2.251","260.7","3.9530000000000003","260.0","1021.214","10.74","77.75","0.0","0.0"],
    [1508499,"2026-02-24 04:50:00","54996","1.6680000000000001","266.2","2.7439999999999998","257.8","1021.203","10.49","79.26","0.0","0.0"],
    [1508500,"2026-02-24 05:00:00","54997","1.324","255.5","2.483","244.5","1021.181","10.47","79.76","0.0","0.0"],
    [1508501,"2026-02-24 05:10:00","54998","2.334","256.4","3.495","253.6","1021.141","10.49","79.52","0.0","0.0"],
    [1508502,"2026-02-24 05:20:00","54999","1.7990000000000002","259.3","3.659","263.8","1021.11","10.22","79.51","0.0","0.0"],
    [1508503,"2026-02-24 05:30:00","55000","1.149","258.3","2.94","251.9","1021.156","10.15","79.94","0.0","0.0"],
    [1508504,"2026-02-24 05:40:00","55001","1.148","243.3","1.9269999999999998","238.8","1021.112","10.09","80.1","0.0","0.0"],
    [1508505,"2026-02-24 05:50:00","55002","1.281","253.0","2.417","259.7","1021.12","10.08","80.0","0.0","0.0"],
    [1508506,"2026-02-24 06:00:00","55003","1.643","256.1","2.6460000000000004","258.1","1021.2","10.18","79.39","0.0","0.0"],
    [1508507,"2026-02-24 06:10:00","55004","1.33","267.5","1.829","259.9","1021.171","9.94","79.75","0.0","0.0"],
    [1508508,"2026-02-24 06:20:00","55005","1.469","265.5","2.254","267.0","1021.123","9.83","80.3","0.0","0.0"],
    [1508509,"2026-02-24 06:30:00","55006","2.202","253.9","3.234","259.6","1021.09","9.93","80.2","1.4380000000000002","0.0"],
    [1508510,"2026-02-24 06:40:00","55007","1.722","260.9","2.352","230.2","1021.061","9.89","79.52","4.812","0.0"],
    [1508511,"2026-02-24 06:50:00","55008","2.334","255.2","4.149","260.2","1021.071","10.01","79.3","17.1","0.0"],
    [1508512,"2026-02-24 07:00:00","55009","1.946","260.5","4.149","259.6","1021.088","10.13","78.28","37.7","0.0"],
    [1508513,"2026-02-24 07:10:00","55010","1.355","249.0","2.6460000000000004","256.1","1021.158","10.35","77.41","62.42","0.0"],
    [1508514,"2026-02-24 07:20:00","55011","1.8780000000000001","265.2","2.907","258.9","1021.106","10.51","76.08","91.0","0.0"],
    [1508515,"2026-02-24 07:30:00","55012","1.844","250.7","3.397","262.3","1021.117","10.9","75.01","111.7","0.0"],
    [1508516,"2026-02-24 07:40:00","55013","2.269","255.0","3.43","248.3","1021.201","11.29","71.86","149.8","0.0"],
    [1508517,"2026-02-24 07:50:00","55014","1.95","250.7","3.005","256.7","1021.258","11.37","70.32","185.8","0.0"],
    [1508518,"2026-02-24 08:00:00","55015","1.75","259.2","3.397","256.2","1021.284","11.48","69.87","212.7","0.0"],
    [1508519,"2026-02-24 08:10:00","55016","2.001","252.0","3.495","251.9","1021.232","11.54","69.5","233.8","0.0"],
    [1508520,"2026-02-24 08:20:00","55017","2.717","248.3","4.083","225.6","1021.131","11.69","68.72","260.6","0.0"],
    [1508521,"2026-02-24 08:30:00","55018","2.859","249.0","4.279","260.8","1021.085","11.89","67.75","289.4","0.0"],
    [1508522,"2026-02-24 08:40:00","55019","2.952","246.4","4.573","251.1","1021.086","12.22","66.34","314.0","0.0"],
    [1508523,"2026-02-24 08:50:00","55020","2.799","242.6","4.018","260.5","1021.036","12.56","64.57","354.6","0.0"],
    [1508524,"2026-02-24 09:00:00","55021","2.687","245.2","4.083","266.3","1020.947","12.98","62.59","392.0","0.0"],
    [1508525,"2026-02-24 09:10:00","55022","2.779","243.8","4.541","253.9","1020.903","13.3","60.72","424.8","0.0"],
    [1508526,"2026-02-24 09:20:00","55023","2.41","238.1","3.6260000000000003","216.1","1020.928","13.49","59.51","431.0","0.0"],
    [1508527,"2026-02-24 09:30:00","55024","0.755","232.7","3.332","219.8","1020.92","14.09","58.46","468.6","0.0"],
    [1508528,"2026-02-24 09:40:00","55025","1.8319999999999999","184.8","2.94","183.9","1020.849","14.56","56.34","498.2","0.0"],
    [1508529,"2026-02-24 09:50:00","55026","2.6489999999999996","195.5","3.985","197.9","1020.77","14.61","56.32","545.4","0.0"],
    [1508530,"2026-02-24 10:00:00","55027","3.6710000000000003","188.2","5.031000000000001","191.2","1020.657","14.49","61.54","566.3","0.0"],
    [1508531,"2026-02-24 10:10:00","55028","3.536","180.3","4.606","169.9","1020.608","14.02","71.34","572.4","0.0"],
    [1508532,"2026-02-24 10:20:00","55029","3.713","182.1","5.292000000000001","191.1","1020.612","14.27","71.89","604.5","0.0"],
    [1508533,"2026-02-24 10:30:00","55030","4.789","187.0","5.847","197.4","1020.52","14.61","69.08","626.6","0.0"],
    [1508534,"2026-02-24 10:40:00","55031","5.7860000000000005","189.4","6.631","188.6","1020.445","14.18","75.46","653.4","0.0"],
    [1508535,"2026-02-24 10:50:00","55032","6.462000000000001","190.1","7.481","191.0","1020.42","13.47","83.8","643.0","0.0"],
    [1508536,"2026-02-24 11:00:00","55033","5.556","194.9","7.154","192.0","1020.419","13.22","89.0","600.6","0.0"],
    [1508537,"2026-02-24 11:10:00","55034","3.623","208.3","5.2589999999999995","197.6","1020.47","13.37","89.1","639.2","0.0"],
    [1508538,"2026-02-24 11:20:00","55035","3.772","208.6","5.063","222.8","1020.461","13.21","87.7","703.1","0.0"],
    [1508539,"2026-02-24 11:30:00","55036","3.5410000000000004","216.5","5.684","222.9","1020.385","13.07","87.3","689.7","0.0"],
    [1508540,"2026-02-24 11:40:00","55037","3.971","200.4","5.7170000000000005","208.2","1020.233","13.05","87.9","662.9","0.0"],
    [1508541,"2026-02-24 11:50:00","55038","3.5210000000000004","200.6","5.031000000000001","185.1","1020.118","13.02","89.1","644.2","0.0"],
    [1508542,"2026-02-24 12:00:00","55039","3.785","206.6","5.684","192.0","1019.965","13.19","88.3","645.7","0.0"],
    [1508543,"2026-02-24 12:10:00","55040","3.807","207.8","6.435","195.1","1019.825","13.23","88.1","654.9","0.0"],
    [1508544,"2026-02-24 12:20:00","55041","4.173","205.1","6.403","195.9","1019.704","13.01","89.3","661.0","0.0"],
    [1508545,"2026-02-24 12:30:00","55042","4.4","203.6","6.109","203.8","1019.6","12.95","90.0","665.8","0.0"],
    [1508546,"2026-02-24 12:40:00","55043","4.1419999999999995","214.9","6.468","191.3","1019.465","12.73","89.8","654.8","0.0"],
    [1508547,"2026-02-24 12:50:00","55044","3.5610000000000004","207.4","5.847","199.8","1019.371","12.98","90.0","628.6","0.0"],
    [1508548,"2026-02-24 13:00:00","55045","3.259","216.3","5.521","202.4","1019.244","13.24","89.7","538.8","0.0"],
    [1508549,"2026-02-24 13:10:00","55046","4.05","213.0","6.109","229.4","1019.107","13.22","89.0","557.5","0.0"],
    [1508550,"2026-02-24 13:20:00","55047","4.35","217.3","6.468","218.9","1018.955","13.23","89.1","542.8","0.0"],
    [1508551,"2026-02-24 13:30:00","55048","3.74","217.0","6.337000000000001","219.1","1018.843","13.47","88.8","485.5","0.0"],
    [1508552,"2026-02-24 13:40:00","55049","3.656","219.9","5.521","211.7","1018.689","13.86","87.4","492.9","0.0"],
    [1508553,"2026-02-24 13:50:00","55050","3.4010000000000002","220.7","5.978","209.2","1018.586","14.12","85.0","532.1","0.0"],
    [1508554,"2026-02-24 14:00:00","55051","3.717","216.3","6.893","211.0","1018.458","14.21","82.5","486.3","0.0"],
    [1508555,"2026-02-24 14:10:00","55052","4.073","220.8","6.042999999999999","218.4","1018.326","14.33","80.6","502.2","0.0"],
    [1508556,"2026-02-24 14:20:00","55053","3.531","223.7","6.011","215.5","1018.198","14.54","78.55","481.2","0.0"],
    [1508557,"2026-02-24 14:30:00","55054","3.2739999999999996","217.3","5.7170000000000005","200.7","1018.134","14.58","77.63","508.1","0.0"],
    [1508558,"2026-02-24 14:40:00","55055","3.491","219.8","6.1739999999999995","213.7","1018.005","14.5","76.52","503.8","0.0"],
    [1508559,"2026-02-24 14:50:00","55056","3.324","215.1","4.933","203.9","1017.909","14.88","75.94","474.4","0.0"],
    [1508560,"2026-02-24 15:00:00","55057","3.968","215.9","5.749","202.4","1017.818","14.57","76.96","383.0","0.0"],
    [1508561,"2026-02-24 15:10:00","55058","4.482","223.3","6.468","227.0","1017.791","14.13","77.99","423.1","0.0"],
    [1508562,"2026-02-24 15:20:00","55059","4.477","221.7","6.664","224.4","1017.874","14.24","77.93","400.0","0.0"],
    [1508563,"2026-02-24 15:30:00","55060","4.021","208.4","7.317","192.0","1017.911","14.15","79.6","414.7","0.0"],
    [1508564,"2026-02-24 15:40:00","55061","4.473","213.3","6.827000000000001","214.3","1017.845","13.93","80.9","373.4","0.0"],
    [1508565,"2026-02-24 15:50:00","55062","4.248","212.7","6.468","229.2","1017.845","13.99","80.6","337.4","0.0"],
    [1508566,"2026-02-24 16:00:00","55063","3.911","221.3","6.599","220.8","1017.812","14.01","80.5","323.8","0.0"],
    [1508567,"2026-02-24 16:10:00","55064","4.623","219.8","7.6770000000000005","228.2","1017.769","13.69","81.2","272.3","0.0"],
    [1508568,"2026-02-24 16:20:00","55065","3.997","220.0","6.7620000000000005","217.0","1017.785","13.48","82.5","189.7","0.0"],
    [1508569,"2026-02-24 16:30:00","55066","3.677","218.8","6.337000000000001","226.9","1017.824","13.37","84.0","100.3","0.0"],
    [1508570,"2026-02-24 16:40:00","55067","4.699","220.9","6.566","225.6","1017.724","13.0","85.7","88.0","0.0"],
    [1508571,"2026-02-24 16:50:00","55068","3.826","218.0","5.978","231.0","1017.789","13.02","87.7","77.11","0.0"],
    [1508572,"2026-02-24 17:00:00","55069","4.587","220.4","6.697","219.3","1017.857","12.86","89.0","63.68","0.0"],
    [1508573,"2026-02-24 17:10:00","55070","4.325","225.0","6.697","227.6","1017.901","12.68","90.8","48.88","0.0"],
    [1508574,"2026-02-24 17:20:00","55071","2.846","226.9","5.586","208.7","1017.977","12.71","92.0","31.91","0.0"],
    [1508575,"2026-02-24 17:30:00","55072","2.383","236.0","4.737","264.0","1018.009","12.64","93.0","16.3","0.0"],
    [1508576,"2026-02-24 17:40:00","55073","2.336","240.5","4.573","234.2","1018.126","12.62","94.0","5.892","0.0"],
    [1508577,"2026-02-24 17:50:00","55074","2.4619999999999997","244.4","4.377","261.5","1018.188","12.57","95.2","0.624","0.0"],
    [1508578,"2026-02-24 18:00:00","55075","1.899","234.6","3.43","230.0","1018.239","12.6","96.4","0.0","0.0"],
    [1508579,"2026-02-24 18:10:00","55076","2.174","247.7","3.593","266.6","1018.283","12.6","97.5","0.0","0.0"],
    [1508580,"2026-02-24 18:20:00","55077","2.225","243.2","3.593","243.1","1018.223","12.53","98.4","0.0","0.0"],
    [1508581,"2026-02-24 18:30:00","55078","2.932","248.4","5.455","265.1","1018.203","12.49","99.4","0.0","0.0"],
    [1508582,"2026-02-24 18:40:00","55079","2.384","254.9","4.1160000000000005","262.9","1018.294","12.49","99.9","0.0","0.0"],
    [1508583,"2026-02-24 18:50:00","55080","1.341","256.6","3.1689999999999996","250.1","1018.38","12.5","100.0","0.0","0.0"],
    [1508584,"2026-02-24 19:00:00","55081","2.385","250.7","4.573","258.0","1018.383","12.55","100.0","0.0","0.0"],
    [1508585,"2026-02-24 19:10:00","55082","2.6910000000000003","244.2","4.377","236.1","1018.428","12.64","100.0","0.0","0.0"],
    [1508586,"2026-02-24 19:20:00","55083","2.112","238.0","3.5610000000000004","246.4","1018.505","12.66","100.0","0.0","0.0"],
    [1508587,"2026-02-24 19:30:00","55084","1.943","221.6","3.397","236.2","1018.518","12.68","100.0","0.0","0.0"],
    [1508588,"2026-02-24 19:40:00","55085","2.332","228.0","4.377","216.0","1018.515","12.72","100.0","0.0","0.0"],
    [1508589,"2026-02-24 19:50:00","55086","2.569","248.7","4.149","263.9","1018.51","12.7","100.0","0.0","0.0"],
    [1508590,"2026-02-24 20:00:00","55087","2.113","257.1","4.181","257.8","1018.564","12.59","100.0","0.0","0.0"],
    [1508591,"2026-02-24 20:10:00","55088","2.374","249.9","4.508","261.0","1018.6","12.58","100.0","0.0","0.0"],
    [1508592,"2026-02-24 20:20:00","55089","2.344","254.4","3.6910000000000003","263.2","1018.606","12.56","100.0","0.0","0.0"],
    [1508593,"2026-02-24 20:30:00","55090","2.1430000000000002","255.2","3.7569999999999997","266.8","1018.649","12.55","100.0","0.0","0.0"],
    [1508594,"2026-02-24 20:40:00","55091","1.982","250.3","3.463","261.0","1018.683","12.54","100.0","0.0","0.0"],
    [1508595,"2026-02-24 20:50:00","55092","2.0909999999999997","253.6","3.7569999999999997","247.6","1018.635","12.52","100.0","0.0","0.0"],
    [1508596,"2026-02-24 21:00:00","55093","1.9040000000000001","252.9","3.201","268.6","1018.612","12.51","100.0","0.0","0.0"],
    [1508597,"2026-02-24 21:10:00","55094","1.895","254.3","4.018","243.7","1018.581","12.46","100.0","0.0","0.0"],
    [1508598,"2026-02-24 21:20:00","55095","1.995","247.2","4.149","257.9","1018.628","12.45","100.0","0.0","0.0"],
    [1508599,"2026-02-24 21:30:00","55096","2.3280000000000003","246.3","3.6910000000000003","249.0","1018.582","12.39","100.0","0.0","0.0"],
    [1508600,"2026-02-24 21:40:00","55097","2.573","240.2","4.704","225.5","1018.545","12.26","100.0","0.0","0.0"],
    [1508601,"2026-02-24 21:50:00","55098","2.725","240.6","4.933","224.0","1018.543","12.07","100.0","0.0","0.0"],
    [1508602,"2026-02-24 22:00:00","55099","2.444","241.0","3.887","236.8","1018.546","12.02","100.0","0.0","0.0"],
    [1508603,"2026-02-24 22:10:00","55100","2.52","238.2","4.018","226.3","1018.528","11.96","100.0","0.0","0.0"],
    [1508604,"2026-02-24 22:20:00","55101","2.737","239.2","5.2589999999999995","234.6","1018.556","11.9","100.0","0.0","0.0"],
    [1508605,"2026-02-24 22:30:00","55102","2.838","236.5","4.671","211.4","1018.52","11.9","100.0","0.0","0.0"],
    [1508606,"2026-02-24 22:40:00","55103","2.279","229.5","4.638999999999999","222.1","1018.51","11.9","100.0","0.0","0.0"],
    [1508607,"2026-02-24 22:50:00","55104","2.115","241.8","4.279","234.6","1018.485","11.68","100.0","0.0","0.0"],
    [1508608,"2026-02-24 23:00:00","55105","2.314","245.3","4.606","254.9","1018.392","11.59","100.0","0.0","0.0"],
    [1508609,"2026-02-24 23:10:00","55106","1.379","244.4","3.528","264.7","1018.427","11.42","100.0","0.0","0.0"],
    [1508610,"2026-02-24 23:20:00","55107","1.395","247.5","3.071","261.0","1018.408","11.22","100.0","0.0","0.0"],
    [1508611,"2026-02-24 23:30:00","55108","1.8430000000000002","257.7","2.842","269.4","1018.387","11.01","100.0","0.0","0.0"],
    [1508612,"2026-02-24 23:40:00","55109","1.4769999999999999","247.3","2.9730000000000003","259.9","1018.355","11.0","100.0","0.0","0.0"],
    [1508613,"2026-02-24 23:50:00","55110","0.9009999999999999","252.6","2.385","254.1","1018.3","10.98","100.0","0.0","0.0"],
    [1508614,"2026-02-25 00:00:00","55111","1.101","260.3","1.8619999999999999","242.1","1018.307","10.86","100.0","0.0","0.0"],
    [1508615,"2026-02-25 00:10:00","55112","0.99","267.8","1.8619999999999999","255.1","1018.324","10.68","100.0","0.0","0.0"],
    [1508616,"2026-02-25 00:20:00","55113","0.809","260.0","1.633","260.3","1018.276","10.42","100.0","0.0","0.0"],
    [1508617,"2026-02-25 00:30:00","55114","0.789","245.2","1.4369999999999998","250.2","1018.222","10.05","100.0","0.0","0.0"],
    [1508618,"2026-02-25 00:40:00","55115","1.124","229.8","1.993","220.9","1018.202","9.79","100.0","0.0","0.0"],
    [1508619,"2026-02-25 00:50:00","55116","1.2590000000000001","243.6","2.483","267.3","1018.214","9.72","100.0","0.0","0.0"],
    [1508620,"2026-02-25 01:00:00","55117","1.682","255.1","3.7239999999999998","271.0","1018.245","9.76","100.0","0.0","0.0"],
    [1508621,"2026-02-25 01:10:00","55118","2.354","256.2","3.299","256.0","1018.301","9.8","100.0","0.0","0.0"],
    [1508622,"2026-02-25 01:20:00","55119","2.182","260.1","3.528","254.2","1018.327","9.83","100.0","0.0","0.0"],
    [1508623,"2026-02-25 01:30:00","55120","1.6880000000000002","256.5","2.9730000000000003","267.1","1018.361","9.82","100.0","0.0","0.0"],
    [1508624,"2026-02-25 01:40:00","55121","1.632","265.9","3.071","246.5","1018.375","9.89","100.0","0.0","0.0"],
    [1508625,"2026-02-25 01:50:00","55122","1.054","250.3","2.45","247.1","1018.388","10.04","100.0","0.0","0.0"],
    [1508626,"2026-02-25 02:00:00","55123","0.813","262.8","1.535","263.9","1018.407","10.19","98.5","0.0","0.0"],
    [1508627,"2026-02-25 02:10:00","55124","1.213","278.1","1.699","273.8","1018.418","10.33","96.1","0.0","0.0"],
    [1508628,"2026-02-25 02:20:00","55125","1.008","280.5","1.895","273.5","1018.434","10.56","94.0","0.0","0.0"],
    [1508629,"2026-02-25 02:30:00","55126","1.032","252.8","1.895","266.0","1018.399","10.82","95.3","0.0","0.0"],
    [1508630,"2026-02-25 02:40:00","55127","0.835","228.9","1.96","223.1","1018.396","10.78","98.3","0.033","0.0"],
    [1508631,"2026-02-25 02:50:00","55128","0.64","250.0","1.699","218.7","1018.434","10.88","100.0","0.111","0.0"],
    [1508632,"2026-02-25 03:00:00","55129","0.7020000000000001","284.1","1.2409999999999999","289.6","1018.46","10.77","100.0","0.0","0.0"],
    [1508633,"2026-02-25 03:10:00","55130","1.188","281.0","1.993","277.0","1018.467","10.67","100.0","0.0","0.0"],
    [1508634,"2026-02-25 03:20:00","55131","0.8640000000000001","274.5","1.8619999999999999","276.8","1018.503","10.45","100.0","0.0","0.0"],
    [1508635,"2026-02-25 03:30:00","55132","0.752","262.7","1.535","272.7","1018.522","10.2","100.0","0.0","0.0"],
    [1508636,"2026-02-25 03:40:00","55133","0.57","260.2","1.176","276.4","1018.567","10.03","100.0","0.0","0.0"],
    [1508637,"2026-02-25 03:50:00","55134","0.413","267.1","1.045","276.4","1018.607","9.92","100.0","0.0","0.0"],
    [1508638,"2026-02-25 04:00:00","55135","0.898","273.0","1.209","274.6","1018.695","9.9","100.0","0.0","0.0"],
    [1508639,"2026-02-25 04:10:00","55136","0.565","265.5","1.013","268.7","1018.762","9.89","100.0","0.0","0.0"],
    [1508640,"2026-02-25 04:20:00","55137","0.363","268.5","0.7509999999999999","257.5","1018.822","9.76","100.0","0.0","0.0"],
    [1508641,"2026-02-25 04:30:00","55138","0.373","287.6","0.621","289.6","1018.965","9.3","100.0","0.0","0.0"],
    [1508642,"2026-02-25 04:40:00","55139","0.294","351.2","1.307","29.28","1019.021","9.24","100.0","0.0","0.0"],
    [1508643,"2026-02-25 04:50:00","55140","2.036","26.06","4.541","28.31","1019.051","9.93","100.0","0.016","0.0"],
    [1508644,"2026-02-25 05:00:00","55141","3.2510000000000003","24.22","4.541","25.57","1019.043","10.82","100.0","0.006999999999999999","0.0"],
    [1508645,"2026-02-25 05:10:00","55142","3.451","30.64","4.737","18.14","1019.148","10.88","100.0","0.003","0.0"],
    [1508646,"2026-02-25 05:20:00","55143","3.4160000000000004","43.04","4.638999999999999","24.6","1019.278","10.9","100.0","0.0","0.0"],
    [1508647,"2026-02-25 05:30:00","55144","4.015","30.18","5.129","36.66","1019.387","10.8","100.0","0.0","0.0"],
    [1508648,"2026-02-25 05:40:00","55145","4.001","43.57","6.042999999999999","47.21","1019.525","10.96","100.0","0.0","0.0"],
    [1508649,"2026-02-25 05:50:00","55146","3.773","39.39","5.357","28.29","1019.651","11.05","100.0","0.0","0.0"],
    [1508650,"2026-02-25 06:00:00","55147","3.735","19.99","4.508","22.52","1019.815","11.19","100.0","0.0","0.0"],
    [1508651,"2026-02-25 06:10:00","55148","4.325","20.49","5.978","15.5","1019.849","11.27","100.0","0.0","0.0"],
    [1508652,"2026-02-25 06:20:00","55149","4.251","30.43","6.1739999999999995","37.81","1019.898","11.22","100.0","0.0","0.0"],
    [1508653,"2026-02-25 06:30:00","55150","5.07","30.3","6.795","42.61","1020.008","11.31","100.0","0.08800000000000001","0.0"],
    [1508654,"2026-02-25 06:40:00","55151","5.486000000000001","25.24","6.925","24.2","1020.075","11.34","100.0","1.44","0.0"],
    [1508655,"2026-02-25 06:50:00","55152","5.864","31.79","6.925","28.95","1020.151","11.39","100.0","3.812","0.0"],
    [1508656,"2026-02-25 07:00:00","55153","4.535","47.32","6.1739999999999995","38.0","1020.311","11.56","100.0","8.05","0.0"],
    [1508657,"2026-02-25 07:10:00","55154","4.617","52.93","7.023","69.74","1020.494","11.75","100.0","12.23","0.0"],
    [1508658,"2026-02-25 07:20:00","55155","4.691","67.17","6.109","70.81","1020.687","11.67","100.0","17.55","0.0"],
    [1508659,"2026-02-25 07:30:00","55156","4.251","74.7","5.684","76.56","1020.892","11.61","100.0","27.56","0.0"],
    [1508660,"2026-02-25 07:40:00","55157","4.547","74.06","6.1739999999999995","74.06","1021.021","11.7","100.0","32.52","0.0"],
    [1508661,"2026-02-25 07:50:00","55158","4.631","48.89","6.795","26.45","1021.068","11.88","100.0","35.7","0.0"],
    [1508662,"2026-02-25 08:00:00","55159","5.529","33.27","6.7620000000000005","32.34","1021.119","11.8","100.0","51.58","0.0"],
    [1508663,"2026-02-25 08:10:00","55160","4.904","49.27","6.957999999999999","33.88","1021.208","11.83","100.0","60.63","0.0"],
    [1508664,"2026-02-25 08:20:00","55161","4.131","46.62","6.403","57.8","1021.322","11.93","100.0","68.3","0.0"],
    [1508665,"2026-02-25 08:30:00","55162","4.0089999999999995","55.09","5.912999999999999","73.59","1021.403","12.06","100.0","62.71","0.0"],
    [1508666,"2026-02-25 08:40:00","55163","4.78","60.31","6.435","75.23","1021.417","12.08","100.0","70.75","0.0"],
    [1508667,"2026-02-25 08:50:00","55164","4.36","52.41","5.815","60.96","1021.5","12.11","100.0","68.61","0.0"],
    [1508668,"2026-02-25 09:00:00","55165","4.763","56.16","6.664","38.37","1021.571","12.17","100.0","79.51","0.0"],
    [1508669,"2026-02-25 09:10:00","55166","4.261","57.68","5.521","55.6","1021.664","12.31","100.0","90.2","0.0"],
    [1508670,"2026-02-25 09:20:00","55167","4.939","48.45","6.435","33.64","1021.734","12.31","100.0","119.0","0.0"],
    [1508671,"2026-02-25 09:30:00","55168","4.521","64.86","6.207000000000001","64.02","1021.848","12.42","100.0","148.9","0.0"],
    [1508672,"2026-02-25 09:40:00","55169","4.301","55.07","6.925","56.71","1021.939","12.66","99.8","141.4","0.0"],
    [1508673,"2026-02-25 09:50:00","55170","4.433","49.51","6.86","59.19","1022.081","12.71","98.7","184.8","0.0"],
    [1508674,"2026-02-25 10:00:00","55171","4.487","41.38","6.011","42.32","1022.162","12.8","98.6","239.7","0.0"],
    [1508675,"2026-02-25 10:10:00","55172","4.539","40.47","5.815","38.82","1022.206","12.83","98.5","223.6","0.0"],
    [1508676,"2026-02-25 10:20:00","55173","4.361000000000001","38.67","5.553","41.1","1022.332","12.88","98.6","266.3","0.0"],
    [1508677,"2026-02-25 10:30:00","55174","4.289","44.05","5.749","36.74","1022.432","12.9","98.6","272.7","0.0"],
    [1508678,"2026-02-25 10:40:00","55175","4.184","43.29","5.521","49.3","1022.51","12.87","98.5","252.3","0.0"],
    [1508679,"2026-02-25 10:50:00","55176","4.295","40.67","5.357","36.74","1022.582","12.91","98.6","347.1","0.0"],
    [1508680,"2026-02-25 11:00:00","55177","3.912","35.78","4.802","42.2","1022.613","12.99","98.6","379.6","0.0"],
    [1508681,"2026-02-25 11:10:00","55178","3.9589999999999996","35.22","5.2589999999999995","36.25","1022.653","13.09","98.6","527.8","0.0"],
    [1508682,"2026-02-25 11:20:00","55179","3.4730000000000003","31.67","4.9","26.8","1022.704","13.22","97.9","606.2","0.0"],
    [1508683,"2026-02-25 11:30:00","55180","3.588","24.46","4.475","24.45","1022.705","13.13","96.7","429.0","0.0"],
    [1508684,"2026-02-25 11:40:00","55181","3.785","45.44","4.802","50.23","1022.597","13.18","95.4","393.1","0.0"],
    [1508685,"2026-02-25 11:50:00","55182","4.088","43.47","5.227","38.57","1022.568","13.31","93.9","502.7","0.0"],
    [1508686,"2026-02-25 12:00:00","55183","4.056","40.08","4.737","35.6","1022.495","13.24","94.1","628.5","0.0"],
    [1508687,"2026-02-25 12:10:00","55184","4.337","40.11","5.422999999999999","39.1","1022.387","13.15","94.6","679.9","0.0"],
    [1508688,"2026-02-25 12:20:00","55185","3.785","46.03","4.965","58.16","1022.343","13.27","94.9","683.7","0.0"],
    [1508689,"2026-02-25 12:30:00","55186","3.687","54.33","4.933","58.35","1022.246","13.39","94.0","681.5","0.0"],
    [1508690,"2026-02-25 12:40:00","55187","3.676","50.78","4.835","53.73","1022.109","13.52","92.8","677.8","0.0"],
    [1508691,"2026-02-25 12:50:00","55188","3.5469999999999997","61.36","5.1610000000000005","52.47","1021.973","13.55","91.9","669.8","0.0"],
    [1508692,"2026-02-25 13:00:00","55189","3.551","59.72","5.4879999999999995","31.89","1021.942","13.6","91.7","665.6","0.0"],
    [1508693,"2026-02-25 13:10:00","55190","3.634","65.21","5.129","59.83","1021.919","13.59","92.0","655.7","0.0"],
    [1508694,"2026-02-25 13:20:00","55191","3.846","57.6","4.998","54.3","1021.888","13.63","91.8","646.9","0.0"],
    [1508695,"2026-02-25 13:30:00","55192","3.9160000000000004","64.94","5.422999999999999","73.03","1021.85","13.7","91.3","633.8","0.0"],
    [1508696,"2026-02-25 13:40:00","55193","4.125","67.14","5.325","69.75","1021.771","13.66","91.6","620.3","0.0"],
    [1508697,"2026-02-25 13:50:00","55194","4.164","74.33","5.651","77.75","1021.766","13.66","91.5","606.3","0.0"],
    [1508698,"2026-02-25 14:00:00","55195","4.388999999999999","68.18","5.651","66.37","1021.728","13.71","91.9","586.1","0.0"],
    [1508699,"2026-02-25 14:10:00","55196","4.371","63.22","6.141","62.53","1021.666","13.77","91.9","568.4","0.0"],
    [1508700,"2026-02-25 14:20:00","55197","4.101","64.11","5.912999999999999","58.84","1021.705","13.82","92.1","547.7","0.0"],
    [1508701,"2026-02-25 14:30:00","55198","4.138999999999999","63.55","5.521","64.63","1021.728","13.83","92.0","525.5","0.0"],
    [1508702,"2026-02-25 14:40:00","55199","4.706","66.24","6.1739999999999995","67.08","1021.746","13.82","92.1","503.7","0.0"],
    [1508703,"2026-02-25 14:50:00","55200","4.727","65.94","6.272","69.64","1021.74","13.87","92.4","478.4","0.0"],
    [1508704,"2026-02-25 15:00:00","55201","5.124","70.58","6.141","70.29","1021.733","13.8","93.2","452.0","0.0"],
    [1508705,"2026-02-25 15:10:00","55202","4.816","68.88","5.978","72.55","1021.775","13.78","93.1","422.9","0.0"],
    [1508706,"2026-02-25 15:20:00","55203","4.854","65.81","6.631","64.84","1021.78","13.82","93.0","391.7","0.0"],
    [1508707,"2026-02-25 15:30:00","55204","4.566","68.08","5.847","68.53","1021.79","13.86","92.9","363.5","0.0"],
    [1508708,"2026-02-25 15:40:00","55205","4.419","67.23","5.619","71.76","1021.829","13.84","93.0","331.5","0.0"],
    [1508709,"2026-02-25 15:50:00","55206","4.102","67.65","5.553","62.02","1021.878","13.94","93.3","299.1","0.0"],
    [1508710,"2026-02-25 16:00:00","55207","4.649","69.09","6.042999999999999","65.37","1021.931","13.86","93.1","266.1","0.0"],
    [1508711,"2026-02-25 16:10:00","55208","3.636","61.0","5.7170000000000005","69.52","1022.013","13.96","92.4","228.9","0.0"],
    [1508712,"2026-02-25 16:20:00","55209","3.185","50.33","4.802","48.76","1022.066","14.03","92.4","128.3","0.0"],
    [1508713,"2026-02-25 16:30:00","55210","3.458","49.65","4.671","49.67","1022.111","13.96","92.8","53.11","0.0"],
    [1508714,"2026-02-25 16:40:00","55211","3.838","46.68","4.704","46.34","1022.204","13.9","93.2","47.33","0.0"],
    [1508715,"2026-02-25 16:50:00","55212","4.4319999999999995","44.57","5.553","44.6","1022.221","13.86","93.5","40.54","0.0"],
    [1508716,"2026-02-25 17:00:00","55213","4.553","45.79","5.978","46.55","1022.285","13.82","93.6","33.84","0.0"],
    [1508717,"2026-02-25 17:10:00","55214","4.175","46.21","5.063","49.18","1022.382","13.84","93.8","31.54","0.0"],
    [1508718,"2026-02-25 17:20:00","55215","4.284","43.49","5.031000000000001","41.79","1022.451","13.79","94.0","16.54","0.0"],
    [1508719,"2026-02-25 17:30:00","55216","3.805","45.03","4.835","47.51","1022.668","13.81","94.4","9.1","0.0"],
    [1508720,"2026-02-25 17:40:00","55217","3.702","46.21","4.802","50.82","1022.836","13.79","94.9","2.1519999999999997","0.0"],
    [1508721,"2026-02-25 17:50:00","55218","3.052","47.8","4.638999999999999","60.98","1022.979","13.83","95.8","0.001","0.0"],
    [1508722,"2026-02-25 18:00:00","55219","3.332","53.86","4.867","54.26","1023.079","13.82","97.0","0.0","0.0"],
    [1508723,"2026-02-25 18:10:00","55220","3.228","47.34","4.671","44.36","1023.135","13.77","98.3","0.0","0.0"],
    [1508724,"2026-02-25 18:20:00","55221","3.2239999999999998","42.4","4.247","43.05","1023.234","13.72","99.0","0.0","0.0"],
    [1508725,"2026-02-25 18:30:00","55222","3.492","37.68","4.573","57.47","1023.312","13.7","99.6","0.0","0.0"],
    [1508726,"2026-02-25 18:40:00","55223","3.534","37.24","4.671","28.65","1023.412","13.67","100.0","0.0","0.0"],
    [1508727,"2026-02-25 18:50:00","55224","4.006","32.62","4.9","32.27","1023.525","13.66","100.0","0.0","0.0"],
    [1508728,"2026-02-25 19:00:00","55225","4.099","29.29","5.227","32.39","1023.658","13.69","100.0","0.0","0.0"],
    [1508729,"2026-02-25 19:10:00","55226","4.266","33.19","4.965","32.2","1023.716","13.67","100.0","0.0","0.0"],
    [1508730,"2026-02-25 19:20:00","55227","4.266","32.57","4.998","38.72","1023.781","13.63","100.0","0.0","0.0"],
    [1508731,"2026-02-25 19:30:00","55228","4.632","30.89","5.4879999999999995","29.56","1023.8","13.61","100.0","0.0","0.0"],
    [1508732,"2026-02-25 19:40:00","55229","5.2","30.59","5.88","29.16","1023.771","13.63","100.0","0.0","0.0"],
    [1508733,"2026-02-25 19:50:00","55230","5.079","30.66","6.566","36.01","1023.915","13.62","100.0","0.0","0.0"],
    [1508734,"2026-02-25 20:00:00","55231","4.9","31.39","6.86","36.34","1024.051","13.63","100.0","0.0","0.0"],
    [1508735,"2026-02-25 20:10:00","55232","4.984","31.17","6.207000000000001","26.3","1024.102","13.61","100.0","0.0","0.0"],
    [1508736,"2026-02-25 20:20:00","55233","5.167999999999999","31.06","6.403","23.29","1024.285","13.58","100.0","0.0","0.0"],
    [1508737,"2026-02-25 20:30:00","55234","5.672999999999999","30.18","6.566","33.37","1024.385","13.56","100.0","0.0","0.0"],
    [1508738,"2026-02-25 20:40:00","55235","5.0569999999999995","31.16","6.435","26.35","1024.557","13.6","100.0","0.0","0.0"],
    [1508739,"2026-02-25 20:50:00","55236","4.709","33.64","6.239","33.87","1024.615","13.63","100.0","0.0","0.0"],
    [1508740,"2026-02-25 21:00:00","55237","4.829","34.74","6.042999999999999","25.33","1024.656","13.65","100.0","0.0","0.0"],
    [1508741,"2026-02-25 21:10:00","55238","4.728","41.41","6.566","45.06","1024.723","13.71","100.0","0.0","0.0"],
    [1508742,"2026-02-25 21:20:00","55239","4.534","46.66","5.651","50.08","1024.786","13.7","100.0","0.0","0.0"],
    [1508743,"2026-02-25 21:30:00","55240","4.745","50.27","6.599","66.22","1024.832","13.52","100.0","0.001","0.0"],
    [1508744,"2026-02-25 21:40:00","55241","4.879","47.1","6.403","53.76","1024.899","13.46","100.0","0.0","0.0"],
    [1508745,"2026-02-25 21:50:00","55242","4.386","47.96","5.847","37.21","1025.004","13.63","100.0","0.0","0.0"],
    [1508746,"2026-02-25 22:00:00","55243","5.096","31.54","6.305","28.23","1025.082","13.51","100.0","0.0","0.0"],
    [1508747,"2026-02-25 22:10:00","55244","4.885","25.6","6.109","32.32","1025.146","13.54","100.0","0.0","0.0"],
    [1508748,"2026-02-25 22:20:00","55245","4.595","21.43","5.782","24.67","1025.214","13.51","100.0","0.0","0.0"],
    [1508749,"2026-02-25 22:30:00","55246","4.792","21.11","6.042999999999999","15.3","1025.213","13.56","100.0","0.0","0.0"],
    [1508750,"2026-02-25 22:40:00","55247","5.2410000000000005","28.11","6.729","30.34","1025.206","13.41","100.0","0.0","0.0"],
    [1508751,"2026-02-25 22:50:00","55248","5.211","25.39","6.566","29.85","1025.282","13.32","100.0","0.0","0.0"],
    [1508752,"2026-02-25 23:00:00","55249","5.204","24.63","6.566","27.93","1025.402","13.08","99.9","0.0","0.0"],
    [1508753,"2026-02-25 23:10:00","55250","4.783","23.54","6.468","31.13","1025.447","12.96","99.8","0.0","0.0"],
    [1508754,"2026-02-25 23:20:00","55251","4.9110000000000005","24.2","6.109","29.53","1025.435","12.96","99.9","0.0","0.0"],
    [1508755,"2026-02-25 23:30:00","55252","4.603","28.09","5.978","26.94","1025.453","12.94","100.0","0.0","0.0"],
    [1508756,"2026-02-25 23:40:00","55253","4.321000000000001","26.91","5.422999999999999","37.55","1025.444","12.88","99.8","0.002","0.0"],
    [1508757,"2026-02-25 23:50:00","55254","4.418","41.63","5.619","38.72","1025.416","12.79","99.4","0.0","0.0"],
    [1508758,"2026-02-26 00:00:00","55255","4.178","29.33","5.782","15.95","1025.48","12.82","99.2","0.0","0.0"],
    [1508759,"2026-02-26 00:10:00","55256","4.053","31.27","5.129","34.04","1025.522","12.8","99.1","0.0","0.0"],
    [1508760,"2026-02-26 00:20:00","55257","4.293","27.26","6.239","26.43","1025.498","12.75","99.0","0.0","0.0"],
    [1508761,"2026-02-26 00:30:00","55258","3.747","16.1","5.39","22.72","1025.629","12.66","98.9","0.0","0.0"],
    [1508762,"2026-02-26 00:40:00","55259","2.823","3.428","3.822","352.2","1025.723","12.66","98.7","0.0","0.0"],
    [1508763,"2026-02-26 00:50:00","55260","2.8289999999999997","351.8","3.6260000000000003","1.361","1025.772","12.63","98.1","0.0","0.0"],
    [1508764,"2026-02-26 01:00:00","55261","2.44","344.8","3.1689999999999996","348.9","1025.861","12.57","97.6","0.0","0.0"],
    [1508765,"2026-02-26 01:10:00","55262","2.3169999999999997","330.0","3.005","321.1","1025.83","12.47","97.1","0.0","0.0"],
    [1508766,"2026-02-26 01:20:00","55263","2.377","333.9","3.103","340.3","1025.816","12.34","97.0","0.0","0.0"],
    [1508767,"2026-02-26 01:30:00","55264","2.249","338.9","3.1689999999999996","342.1","1025.808","12.25","97.0","0.0","0.0"],
    [1508768,"2026-02-26 01:40:00","55265","2.049","347.1","2.907","335.2","1025.736","12.18","97.1","0.0","0.0"],
    [1508769,"2026-02-26 01:50:00","55266","1.339","353.9","2.221","346.5","1025.715","12.22","97.4","0.0","0.0"],
    [1508770,"2026-02-26 02:00:00","55267","1.99","355.0","2.7439999999999998","335.0","1025.736","12.2","97.3","0.0","0.0"],
    [1508771,"2026-02-26 02:10:00","55268","2.573","347.1","3.365","347.9","1025.789","12.21","96.8","0.0","0.0"],
    [1508772,"2026-02-26 02:20:00","55269","1.521","333.2","2.5810000000000004","350.2","1025.781","12.2","96.6","0.0","0.0"],
    [1508773,"2026-02-26 02:30:00","55270","0.815","326.4","1.535","332.8","1025.77","12.19","96.7","0.0","0.0"],
    [1508774,"2026-02-26 02:40:00","55271","1.083","356.1","2.417","349.4","1025.661","12.22","97.1","0.0","0.0"],
    [1508775,"2026-02-26 02:50:00","55272","2.033","356.5","3.005","2.448","1025.617","12.32","97.0","0.0","0.0"],
    [1508776,"2026-02-26 03:00:00","55273","2.354","350.7","3.528","343.0","1025.66","12.26","96.3","0.0","0.0"],
    [1508777,"2026-02-26 03:10:00","55274","1.725","348.1","2.287","344.7","1025.611","12.21","96.0","0.0","0.0"],
    [1508778,"2026-02-26 03:20:00","55275","1.5619999999999998","351.1","2.025","3.326","1025.635","12.22","96.1","0.0","0.0"],
    [1508779,"2026-02-26 03:30:00","55276","1.695","351.3","3.6260000000000003","344.2","1025.648","12.32","96.3","0.0","0.0"],
    [1508780,"2026-02-26 03:40:00","55277","2.0709999999999997","335.3","2.9730000000000003","352.3","1025.649","12.26","96.2","0.0","0.0"],
    [1508781,"2026-02-26 03:50:00","55278","1.393","328.3","2.025","334.8","1025.713","12.2","96.4","0.0","0.0"],
    [1508782,"2026-02-26 04:00:00","55279","1.159","315.6","1.829","320.4","1025.841","12.09","96.5","0.0","0.0"],
    [1508783,"2026-02-26 04:10:00","55280","1.379","344.1","2.254","343.1","1025.89","12.15","96.9","0.0","0.0"],
    [1508784,"2026-02-26 04:20:00","55281","1.949","5.675","3.43","12.74","1025.834","12.22","97.1","0.0","0.0"],
    [1508785,"2026-02-26 04:30:00","55282","2.7110000000000003","10.31","3.332","16.39","1025.846","12.21","97.1","0.0","0.0"],
    [1508786,"2026-02-26 04:40:00","55283","2.362","2.193","3.495","15.08","1025.943","12.12","97.0","0.0","0.0"],
    [1508787,"2026-02-26 04:50:00","55284","2.093","353.5","3.365","14.84","1025.987","11.99","96.5","0.0","0.0"],
    [1508788,"2026-02-26 05:00:00","55285","1.742","357.4","2.319","5.235","1026.049","11.89","96.0","0.0","0.0"],
    [1508789,"2026-02-26 05:10:00","55286","1.901","351.3","2.875","339.5","1026.139","11.88","95.0","0.0","0.0"],
    [1508790,"2026-02-26 05:20:00","55287","2.035","348.2","2.94","342.1","1026.276","12.01","93.7","0.0","0.0"],
    [1508791,"2026-02-26 05:30:00","55288","2.2359999999999998","345.7","3.071","347.0","1026.316","12.15","92.4","0.0","0.0"],
    [1508792,"2026-02-26 05:40:00","55289","2.0180000000000002","347.8","2.842","356.6","1026.374","12.19","91.3","0.0","0.0"],
    [1508793,"2026-02-26 05:50:00","55290","1.294","327.2","2.254","350.0","1026.408","12.01","91.0","0.0","0.0"],
    [1508794,"2026-02-26 06:00:00","55291","1.515","335.6","1.96","349.0","1026.495","12.08","91.9","0.0","0.0"],
    [1508795,"2026-02-26 06:10:00","55292","1.305","309.9","2.025","320.2","1026.591","11.72","91.9","0.0","0.0"],
    [1508796,"2026-02-26 06:20:00","55293","1.389","295.7","2.221","285.0","1026.733","11.49","92.3","0.0","0.0"],
    [1508797,"2026-02-26 06:30:00","55294","1.0170000000000001","302.6","1.568","296.2","1026.768","11.53","92.7","0.8029999999999999","0.0"],
    [1508798,"2026-02-26 06:40:00","55295","0.768","324.1","1.3719999999999999","336.4","1026.87","11.46","92.8","4.851","0.0"],
    [1508799,"2026-02-26 06:50:00","55296","0.996","342.6","2.613","13.73","1027.016","11.54","93.5","10.8","0.0"],
    [1508800,"2026-02-26 07:00:00","55297","2.56","8.46","3.6910000000000003","12.65","1027.115","11.98","93.8","20.06","0.0"],
    [1508801,"2026-02-26 07:10:00","55298","3.1460000000000004","13.02","3.985","12.95","1027.26","11.96","93.4","55.64","0.0"],
    [1508802,"2026-02-26 07:20:00","55299","3.467","11.64","4.2139999999999995","11.57","1027.451","11.9","93.3","56.76","0.0"],
    [1508803,"2026-02-26 07:30:00","55300","3.447","10.57","4.377","5.755","1027.585","11.85","93.0","67.94","0.0"],
    [1508804,"2026-02-26 07:40:00","55301","3.147","12.8","3.985","8.79","1027.722","11.86","92.5","84.8","0.0"],
    [1508805,"2026-02-26 07:50:00","55302","3.447","10.31","4.149","9.58","1027.83","11.86","91.9","113.7","0.0"],
    [1508806,"2026-02-26 08:00:00","55303","3.22","8.35","4.181","7.537999999999999","1027.952","12.0","90.9","150.3","0.0"],
    [1508807,"2026-02-26 08:10:00","55304","3.389","9.21","4.4430000000000005","6.435","1028.086","12.13","89.7","205.5","0.0"],
    [1508808,"2026-02-26 08:20:00","55305","3.0069999999999997","4.6930000000000005","4.051","6.581","1028.22","12.31","88.5","315.4","0.0"],
    [1508809,"2026-02-26 08:30:00","55306","3.0639999999999996","8.08","3.887","358.6","1028.24","12.44","87.0","285.1","0.0"],
    [1508810,"2026-02-26 08:40:00","55307","3.2769999999999997","12.7","4.051","17.52","1028.26","12.48","86.0","318.1","0.0"],
    [1508811,"2026-02-26 08:50:00","55308","3.0439999999999996","12.19","3.7569999999999997","12.54","1028.333","12.59","85.4","396.2","0.0"],
    [1508812,"2026-02-26 09:00:00","55309","3.27","13.55","3.985","9.3","1028.382","12.69","85.7","357.1","0.0"],
    [1508813,"2026-02-26 09:10:00","55310","2.9360000000000004","11.65","3.855","14.18","1028.457","12.73","86.4","430.0","0.0"],
    [1508814,"2026-02-26 09:20:00","55311","2.7569999999999997","21.25","3.6260000000000003","27.63","1028.454","12.86","86.6","453.6","0.0"],
    [1508815,"2026-02-26 09:30:00","55312","2.9019999999999997","22.3","3.7569999999999997","30.98","1028.55","12.91","86.8","476.7","0.0"],
    [1508816,"2026-02-26 09:40:00","55313","3.1","25.85","4.1160000000000005","25.15","1028.588","12.91","86.8","493.4","0.0"],
    [1508817,"2026-02-26 09:50:00","55314","3.3960000000000004","27.53","4.149","27.26","1028.668","12.88","86.8","529.5","0.0"],
    [1508818,"2026-02-26 10:00:00","55315","3.214","26.72","3.985","27.21","1028.757","12.89","86.6","550.9","0.0"],
    [1508819,"2026-02-26 10:10:00","55316","2.8760000000000003","28.61","3.92","26.12","1028.799","13.12","86.0","571.4","0.0"],
    [1508820,"2026-02-26 10:20:00","55317","3.23","26.89","4.279","30.58","1028.846","13.27","85.5","591.0","0.0"],
    [1508821,"2026-02-26 10:30:00","55318","3.1910000000000003","27.79","4.181","34.73","1028.875","13.5","84.6","608.9","0.0"],
    [1508822,"2026-02-26 10:40:00","55319","3.056","42.6","4.1160000000000005","41.47","1028.863","13.67","83.9","625.3","0.0"],
    [1508823,"2026-02-26 10:50:00","55320","3.1310000000000002","43.3","3.9530000000000003","36.86","1028.844","13.53","83.5","641.1","0.0"],
    [1508824,"2026-02-26 11:00:00","55321","3.076","39.47","3.7569999999999997","39.17","1028.723","13.44","84.2","654.9","0.0"],
    [1508825,"2026-02-26 11:10:00","55322","3.0610000000000004","37.76","3.887","44.94","1028.638","13.4","85.0","666.9","0.0"],
    [1508826,"2026-02-26 11:20:00","55323","2.9810000000000003","39.49","3.7239999999999998","37.88","1028.625","13.34","85.5","675.3","0.0"],
    [1508827,"2026-02-26 11:30:00","55324","2.635","48.76","3.6910000000000003","53.14","1028.574","13.33","86.1","683.9","0.0"],
    [1508828,"2026-02-26 11:40:00","55325","2.741","52.29","3.6910000000000003","53.58","1028.505","13.27","86.7","688.8","0.0"],
    [1508829,"2026-02-26 11:50:00","55326","2.7430000000000003","71.01","3.659","69.08","1028.405","13.32","87.3","693.3","0.0"],
    [1508830,"2026-02-26 12:00:00","55327","2.9739999999999998","79.47","4.149","80.6","1028.313","13.35","87.8","694.8","0.0"],
    [1508831,"2026-02-26 12:10:00","55328","2.889","78.86","3.855","72.83","1028.239","13.36","88.0","696.2","0.0"],
    [1508832,"2026-02-26 12:20:00","55329","2.8310000000000004","79.92","3.822","96.5","1028.162","13.36","88.2","693.2","0.0"],
    [1508833,"2026-02-26 12:30:00","55330","3.09","89.1","4.149","88.3","1028.01","13.32","88.2","689.1","0.0"],
    [1508834,"2026-02-26 12:40:00","55331","3.092","93.3","4.181","94.2","1027.904","13.39","88.3","684.0","0.0"],
    [1508835,"2026-02-26 12:50:00","55332","2.946","88.0","3.7889999999999997","85.0","1027.878","13.37","88.4","678.4","0.0"],
    [1508836,"2026-02-26 13:00:00","55333","2.665","90.4","3.659","91.7","1027.81","13.39","88.5","668.5","0.0"],
    [1508837,"2026-02-26 13:10:00","55334","2.4619999999999997","94.1","3.593","104.8","1027.645","13.48","88.5","659.9","0.0"],
    [1508838,"2026-02-26 13:20:00","55335","2.6460000000000004","95.1","3.6910000000000003","82.9","1027.588","13.42","88.6","649.8","0.0"],
    [1508839,"2026-02-26 13:30:00","55336","2.3480000000000003","99.7","2.9730000000000003","105.1","1027.563","13.45","88.8","635.7","0.0"],
    [1508840,"2026-02-26 13:40:00","55337","2.475","100.3","3.365","105.0","1027.511","13.42","88.8","622.4","0.0"],
    [1508841,"2026-02-26 13:50:00","55338","2.548","107.5","3.43","117.7","1027.425","13.44","89.0","605.7","0.0"],
    [1508842,"2026-02-26 14:00:00","55339","2.414","118.6","3.267","116.2","1027.343","13.46","89.2","587.6","0.0"],
    [1508843,"2026-02-26 14:10:00","55340","2.408","116.8","3.234","124.3","1027.278","13.43","89.5","568.1","0.0"],
    [1508844,"2026-02-26 14:20:00","55341","2.165","117.3","3.005","127.6","1027.294","13.42","89.7","531.5","0.0"],
    [1508845,"2026-02-26 14:30:00","55342","2.127","116.0","3.005","118.4","1027.263","13.49","89.9","521.8","0.0"],
    [1508846,"2026-02-26 14:40:00","55343","2.548","113.3","3.5610000000000004","112.2","1027.228","13.47","90.0","501.5","0.0"],
    [1508847,"2026-02-26 14:50:00","55344","2.231","117.2","3.071","121.5","1027.292","13.46","90.2","477.0","0.0"],
    [1508848,"2026-02-26 15:00:00","55345","2.151","137.0","2.907","132.4","1027.263","13.52","90.3","449.3","0.0"],
    [1508849,"2026-02-26 15:10:00","55346","1.964","117.6","2.7769999999999997","105.1","1027.19","13.58","90.5","422.1","0.0"],
    [1508850,"2026-02-26 15:20:00","55347","2.046","133.1","2.7439999999999998","137.2","1027.133","13.57","90.6","394.1","0.0"],
    [1508851,"2026-02-26 15:30:00","55348","2.252","159.2","3.071","165.6","1027.09","13.65","90.1","364.2","0.0"],
    [1508852,"2026-02-26 15:40:00","55349","2.443","158.3","3.071","152.7","1026.984","13.65","89.6","335.6","0.0"],
    [1508853,"2026-02-26 15:50:00","55350","2.367","158.0","2.9730000000000003","163.6","1026.924","13.64","89.4","302.5","0.0"],
    [1508854,"2026-02-26 16:00:00","55351","2.585","154.6","2.9730000000000003","156.5","1026.878","13.59","89.4","270.1","0.0"],
    [1508855,"2026-02-26 16:10:00","55352","2.4930000000000003","155.9","2.875","155.6","1026.87","13.63","89.4","233.8","0.0"],
    [1508856,"2026-02-26 16:20:00","55353","2.136","157.7","2.7110000000000003","157.9","1026.85","13.58","89.8","77.93","0.0"],
    [1508857,"2026-02-26 16:30:00","55354","2.208","156.8","2.679","157.4","1026.811","13.46","90.5","50.38","0.0"],
    [1508858,"2026-02-26 16:40:00","55355","1.926","155.3","2.8089999999999997","149.7","1026.802","13.43","90.8","45.94","0.0"],
    [1508859,"2026-02-26 16:50:00","55356","1.815","161.2","2.287","163.1","1026.784","13.43","91.1","42.52","0.0"],
    [1508860,"2026-02-26 17:00:00","55357","1.7890000000000001","148.2","2.156","156.2","1026.813","13.43","91.6","40.14","0.0"],
    [1508861,"2026-02-26 17:10:00","55358","1.2830000000000001","139.7","1.8619999999999999","111.2","1026.835","13.44","91.8","40.25","0.0"],
    [1508862,"2026-02-26 17:20:00","55359","1.24","138.1","1.829","126.6","1026.866","13.46","92.1","21.6","0.0"],
    [1508863,"2026-02-26 17:30:00","55360","1.319","136.3","1.829","143.4","1026.873","13.42","92.6","12.78","0.0"],
    [1508864,"2026-02-26 17:40:00","55361","1.308","124.7","1.699","138.1","1026.927","13.36","93.0","3.9","0.0"],
    [1508865,"2026-02-26 17:50:00","55362","1.335","120.2","1.797","136.6","1026.935","13.33","93.3","0.134","0.0"],
    [1508866,"2026-02-26 18:00:00","55363","1.3630000000000002","125.4","1.8619999999999999","140.9","1026.956","13.34","93.6","0.0","0.0"],
    [1508867,"2026-02-26 18:10:00","55364","1.364","125.7","1.699","133.0","1026.999","13.31","94.0","0.0","0.0"],
    [1508868,"2026-02-26 18:20:00","55365","1.1640000000000001","126.1","1.568","113.7","1027.073","13.3","94.4","0.0","0.0"],
    [1508869,"2026-02-26 18:30:00","55366","1.079","109.8","1.3719999999999999","101.7","1027.055","13.29","94.8","0.0","0.0"],
    [1508870,"2026-02-26 18:40:00","55367","1.06","114.0","1.535","116.2","1027.048","13.25","95.1","0.0","0.0"],
    [1508871,"2026-02-26 18:50:00","55368","0.523","110.6","0.98","109.1","1027.075","13.22","95.5","0.0","0.0"],
    [1508872,"2026-02-26 19:00:00","55369","0.925","123.8","1.307","115.9","1027.07","13.23","95.8","0.0","0.0"],
    [1508873,"2026-02-26 19:10:00","55370","0.507","145.8","0.9470000000000001","164.3","1027.123","13.23","96.2","0.0","0.0"],
    [1508874,"2026-02-26 19:20:00","55371","0.061","176.4","0.425","177.4","1027.192","13.18","96.5","0.0","0.0"],
    [1508875,"2026-02-26 19:30:00","55372","0.071","186.8","0.6859999999999999","163.4","1027.213","13.14","96.7","0.0","0.0"],
    [1508876,"2026-02-26 19:40:00","55373","0.8390000000000001","162.9","1.3719999999999999","168.9","1027.151","13.17","97.2","0.0","0.0"],
    [1508877,"2026-02-26 19:50:00","55374","1.089","174.1","1.5030000000000001","178.4","1027.246","13.18","97.6","0.0","0.0"],
    [1508878,"2026-02-26 20:00:00","55375","0.752","195.5","1.339","199.9","1027.295","13.16","97.9","0.0","0.0"],
    [1508879,"2026-02-26 20:10:00","55376","1.0270000000000001","208.1","1.47","222.7","1027.385","13.09","98.1","0.0","0.0"],
    [1508880,"2026-02-26 20:20:00","55377","0.708","217.4","1.143","214.2","1027.449","13.04","98.2","0.0","0.0"],
    [1508881,"2026-02-26 20:30:00","55378","1.189","211.0","1.666","200.0","1027.543","13.02","98.2","0.0","0.0"],
    [1508882,"2026-02-26 20:40:00","55379","1.181","196.7","1.699","211.7","1027.53","13.01","98.2","0.0","0.0"],
    [1508883,"2026-02-26 20:50:00","55380","1.666","208.4","2.385","202.0","1027.564","12.96","98.2","0.0","0.0"],
    [1508884,"2026-02-26 21:00:00","55381","1.4780000000000002","212.1","2.483","204.7","1027.555","12.89","98.2","0.0","0.0"],
    [1508885,"2026-02-26 21:10:00","55382","0.545","231.1","1.2409999999999999","249.4","1027.565","12.88","98.1","0.0","0.0"],
    [1508886,"2026-02-26 21:20:00","55383","0.696","250.2","1.111","277.4","1027.53","12.85","98.0","0.0","0.0"],
    [1508887,"2026-02-26 21:30:00","55384","0.602","230.6","1.339","252.9","1027.49","12.78","97.9","0.0","0.0"],
    [1508888,"2026-02-26 21:40:00","55385","0.94","227.0","1.307","217.3","1027.505","12.75","97.9","0.0","0.0"],
    [1508889,"2026-02-26 21:50:00","55386","0.828","226.1","1.5030000000000001","228.7","1027.558","12.71","97.8","0.0","0.0"],
    [1508890,"2026-02-26 22:00:00","55387","0.72","193.6","1.47","188.7","1027.521","12.68","97.7","0.0","0.0"],
    [1508891,"2026-02-26 22:10:00","55388","0.37799999999999995","242.4","0.915","235.5","1027.472","12.67","97.8","0.0","0.0"],
    [1508892,"2026-02-26 22:20:00","55389","0.425","228.7","0.9470000000000001","234.2","1027.412","12.59","97.8","0.0","0.0"],
    [1508893,"2026-02-26 22:30:00","55390","0.78","221.4","1.209","208.1","1027.394","12.51","97.8","0.0","0.0"],
    [1508894,"2026-02-26 22:40:00","55391","1.136","229.1","2.025","259.0","1027.419","12.41","98.0","0.0","0.0"],
    [1508895,"2026-02-26 22:50:00","55392","1.431","239.5","2.417","252.8","1027.399","12.33","98.2","0.0","0.0"],
    [1508896,"2026-02-26 23:00:00","55393","1.715","250.1","2.907","254.6","1027.347","12.28","98.2","0.0","0.0"],
    [1508897,"2026-02-26 23:10:00","55394","1.334","254.2","2.417","260.9","1027.376","12.21","98.3","0.0","0.0"],
    [1508898,"2026-02-26 23:20:00","55395","1.479","244.9","2.483","265.4","1027.334","12.19","98.4","0.0","0.0"],
    [1508899,"2026-02-26 23:30:00","55396","1.2990000000000002","251.9","2.352","263.1","1027.224","12.15","98.4","0.0","0.0"],
    [1508900,"2026-02-26 23:40:00","55397","1.392","250.2","2.548","265.1","1027.135","12.1","98.4","0.0","0.0"],
    [1508901,"2026-02-26 23:50:00","55398","1.472","250.5","2.515","252.1","1027.029","12.06","98.4","0.0","0.0"],
    [1508902,"2026-02-27 00:00:00","55399","1.2819999999999998","251.6","2.0909999999999997","248.5","1026.91","12.03","98.5","0.0","0.0"],
    [1508903,"2026-02-27 00:10:00","55400","1.2009999999999998","246.8","2.417","265.9","1026.924","11.95","98.5","0.0","0.0"],
    [1508904,"2026-02-27 00:20:00","55401","0.927","262.5","1.797","289.8","1026.861","11.87","98.6","0.0","0.0"],
    [1508905,"2026-02-27 00:30:00","55402","1.33","255.5","2.319","240.6","1026.766","11.78","98.7","0.0","0.0"],
    [1508906,"2026-02-27 00:40:00","55403","1.334","232.7","2.254","225.9","1026.696","11.76","98.9","0.0","0.0"],
    [1508907,"2026-02-27 00:50:00","55404","0.951","244.7","2.156","247.4","1026.533","11.67","99.0","0.0","0.0"],
    [1508908,"2026-02-27 01:00:00","55405","1.301","233.1","2.5810000000000004","214.6","1026.487","11.56","99.2","0.0","0.0"],
    [1508909,"2026-02-27 01:10:00","55406","1.514","255.5","3.005","267.3","1026.461","11.42","99.3","0.0","0.0"],
    [1508910,"2026-02-27 01:20:00","55407","1.328","265.2","2.417","278.2","1026.435","11.31","99.5","0.0","0.0"],
    [1508911,"2026-02-27 01:30:00","55408","1.8869999999999998","281.5","3.071","291.7","1026.409","11.28","99.9","0.0","0.0"],
    [1508912,"2026-02-27 01:40:00","55409","1.401","275.4","2.221","262.3","1026.306","11.26","100.0","0.0","0.0"],
    [1508913,"2026-02-27 01:50:00","55410","1.4140000000000001","282.4","2.156","280.4","1026.184","11.24","100.0","0.0","0.0"],
    [1508914,"2026-02-27 02:00:00","55411","1.183","261.1","2.0580000000000003","269.7","1026.077","11.17","100.0","0.0","0.0"],
    [1508915,"2026-02-27 02:10:00","55412","1.4140000000000001","258.7","2.515","274.2","1026.003","11.12","100.0","0.0","0.0"],
    [1508916,"2026-02-27 02:20:00","55413","1.6380000000000001","249.6","3.463","267.2","1025.936","11.09","100.0","0.0","0.0"],
    [1508917,"2026-02-27 02:30:00","55414","1.626","262.0","2.907","240.7","1025.85","10.99","100.0","0.0","0.0"],
    [1508918,"2026-02-27 02:40:00","55415","1.912","260.1","3.43","277.1","1025.732","10.87","100.0","0.0","0.0"],
    [1508919,"2026-02-27 02:50:00","55416","1.999","260.3","3.7889999999999997","262.0","1025.64","10.79","100.0","0.0","0.0"],
    [1508920,"2026-02-27 03:00:00","55417","1.869","256.7","3.7239999999999998","262.5","1025.589","10.66","100.0","0.0","0.0"],
    [1508921,"2026-02-27 03:10:00","55418","2.154","267.6","3.659","269.1","1025.568","10.65","100.0","0.0","0.0"],
    [1508922,"2026-02-27 03:20:00","55419","1.7990000000000002","267.5","3.463","262.1","1025.53","10.6","100.0","0.0","0.0"],
    [1508923,"2026-02-27 03:30:00","55420","1.393","261.1","2.483","261.5","1025.416","10.61","100.0","0.0","0.0"],
    [1508924,"2026-02-27 03:40:00","55421","1.524","259.3","2.94","260.7","1025.348","10.57","100.0","0.0","0.0"],
    [1508925,"2026-02-27 03:50:00","55422","1.725","262.9","2.9730000000000003","260.3","1025.312","10.55","100.0","0.0","0.0"],
    [1508926,"2026-02-27 04:00:00","55423","1.883","253.6","3.397","252.2","1025.239","10.49","100.0","0.0","0.0"],
    [1508927,"2026-02-27 04:10:00","55424","2.266","236.8","4.181","225.6","1025.233","10.17","100.0","0.0","0.0"],
    [1508928,"2026-02-27 04:20:00","55425","2.155","235.5","3.7239999999999998","217.5","1025.213","9.97","100.0","0.0","0.0"],
    [1508929,"2026-02-27 04:30:00","55426","2.11","239.4","3.6910000000000003","253.8","1025.185","9.75","100.0","0.0","0.0"],
    [1508930,"2026-02-27 04:40:00","55427","1.875","241.0","3.397","221.4","1025.184","9.44","100.0","0.0","0.0"],
    [1508931,"2026-02-27 04:50:00","55428","2.18","236.1","3.855","242.1","1025.17","9.24","100.0","0.0","0.0"],
    [1508932,"2026-02-27 05:00:00","55429","2.508","237.2","3.855","258.2","1025.102","8.91","100.0","0.0","0.0"],
    [1508933,"2026-02-27 05:10:00","55430","2.21","240.3","4.41","245.5","1025.019","8.69","100.0","0.0","0.0"],
    [1508934,"2026-02-27 05:20:00","55431","1.876","238.9","3.7889999999999997","248.9","1025.06","8.7","100.0","0.0","0.0"],
    [1508935,"2026-02-27 05:30:00","55432","2.155","230.4","3.6260000000000003","223.8","1025.125","8.57","100.0","0.0","0.0"],
    [1508936,"2026-02-27 05:40:00","55433","2.221","235.4","3.6910000000000003","246.7","1025.159","8.43","100.0","0.0","0.0"],
    [1508937,"2026-02-27 05:50:00","55434","1.535","240.1","2.7110000000000003","217.1","1025.127","8.63","100.0","0.0","0.0"],
    [1508938,"2026-02-27 06:00:00","55435","1.386","251.1","2.221","269.2","1025.14","8.62","100.0","0.0","0.0"],
    [1508939,"2026-02-27 06:10:00","55436","2.221","239.3","3.985","213.2","1025.156","8.22","100.0","0.0","0.0"],
    [1508940,"2026-02-27 06:20:00","55437","1.86","242.4","3.495","215.7","1025.174","8.17","100.0","0.0","0.0"],
    [1508941,"2026-02-27 06:30:00","55438","2.182","257.9","4.508","265.0","1025.212","8.16","100.0","1.0390000000000001","0.0"],
    [1508942,"2026-02-27 06:40:00","55439","1.177","254.0","2.679","246.8","1025.23","8.43","100.0","5.528","0.0"],
    [1508943,"2026-02-27 06:50:00","55440","0.996","246.4","3.103","267.7","1025.261","8.77","100.0","10.59","0.0"],
    [1508944,"2026-02-27 07:00:00","55441","2.033","266.6","3.92","263.9","1025.276","8.59","100.0","14.88","0.0"],
    [1508945,"2026-02-27 07:10:00","55442","1.9480000000000002","274.9","3.103","270.6","1025.375","8.86","100.0","20.16","0.0"],
    [1508946,"2026-02-27 07:20:00","55443","1.153","270.4","2.417","268.2","1025.391","9.31","100.0","20.08","0.0"],
    [1508947,"2026-02-27 07:30:00","55444","0.8440000000000001","272.8","1.895","265.2","1025.408","9.56","100.0","22.98","0.0"],
    [1508948,"2026-02-27 07:40:00","55445","1.581","266.2","2.94","266.3","1025.453","9.5","100.0","38.05","0.0"],
    [1508949,"2026-02-27 07:50:00","55446","1.305","272.8","2.45","277.4","1025.546","9.46","100.0","48.32","0.0"],
    [1508950,"2026-02-27 08:00:00","55447","1.5490000000000002","281.6","2.319","283.4","1025.573","9.35","100.0","59.11","0.0"],
    [1508951,"2026-02-27 08:10:00","55448","1.308","279.3","2.189","278.7","1025.604","9.57","100.0","73.44","0.0"],
    [1508952,"2026-02-27 08:20:00","55449","1.625","287.6","2.7110000000000003","296.9","1025.529","9.76","100.0","88.6","0.0"],
    [1508953,"2026-02-27 08:30:00","55450","1.588","276.0","3.201","289.0","1025.544","9.99","100.0","108.2","0.0"],
    [1508954,"2026-02-27 08:40:00","55451","1.171","257.6","1.9269999999999998","293.6","1025.546","10.31","100.0","129.9","0.0"],
    [1508955,"2026-02-27 08:50:00","55452","1.112","251.5","2.7110000000000003","290.8","1025.56","10.43","100.0","145.2","0.0"],
    [1508956,"2026-02-27 09:00:00","55453","1.535","269.6","3.005","290.8","1025.577","10.38","100.0","158.5","0.0"],
    [1508957,"2026-02-27 09:10:00","55454","1.611","261.2","3.43","223.7","1025.62","10.45","100.0","179.5","0.0"],
    [1508958,"2026-02-27 09:20:00","55455","1.767","276.7","3.201","270.7","1025.618","10.44","100.0","223.5","0.0"],
    [1508959,"2026-02-27 09:30:00","55456","1.595","238.4","2.7769999999999997","270.9","1025.607","10.5","100.0","237.6","0.0"],
    [1508960,"2026-02-27 09:40:00","55457","1.465","268.0","2.352","267.2","1025.575","10.6","100.0","263.3","0.0"],
    [1508961,"2026-02-27 09:50:00","55458","1.298","289.4","2.254","291.0","1025.593","10.72","100.0","351.4","0.0"],
    [1508962,"2026-02-27 10:00:00","55459","1.159","249.0","2.679","222.4","1025.617","10.84","100.0","303.2","0.0"],
    [1508963,"2026-02-27 10:10:00","55460","0.889","228.3","2.0909999999999997","211.0","1025.565","11.05","100.0","332.7","0.0"],
    [1508964,"2026-02-27 10:20:00","55461","0.27399999999999997","139.5","1.209","144.8","1025.598","11.66","99.7","420.4","0.0"],
    [1508965,"2026-02-27 10:30:00","55462","1.734","172.6","2.842","181.7","1025.582","11.88","96.7","521.8","0.0"],
    [1508966,"2026-02-27 10:40:00","55463","2.897","171.4","4.247","171.3","1025.557","11.78","94.6","478.1","0.0"],
    [1508967,"2026-02-27 10:50:00","55464","3.032","191.2","4.638999999999999","170.6","1025.525","11.92","93.5","686.0","0.0"],
    [1508968,"2026-02-27 11:00:00","55465","3.915","166.9","4.606","164.0","1025.48","11.53","93.1","626.7","0.0"],
    [1508969,"2026-02-27 11:10:00","55466","4.215","168.7","4.835","171.0","1025.373","11.54","94.5","640.8","0.0"],
    [1508970,"2026-02-27 11:20:00","55467","3.9960000000000004","163.0","4.606","170.8","1025.339","11.38","94.7","575.3","0.0"],
    [1508971,"2026-02-27 11:30:00","55468","3.5789999999999997","164.6","4.671","172.2","1025.281","11.44","95.4","599.6","0.0"],
    [1508972,"2026-02-27 11:40:00","55469","4.111000000000001","171.7","4.998","171.7","1025.16","11.49","95.4","733.5","0.0"],
    [1508973,"2026-02-27 11:50:00","55470","4.434","167.8","5.521","170.5","1025.058","11.52","94.7","749.6","0.0"],
    [1508974,"2026-02-27 12:00:00","55471","3.9819999999999998","167.4","4.802","169.6","1024.96","11.68","94.2","666.7","0.0"],
    [1508975,"2026-02-27 12:10:00","55472","4.0569999999999995","171.3","5.194","171.8","1024.859","11.79","94.1","543.4","0.0"],
    [1508976,"2026-02-27 12:20:00","55473","4.237","173.1","5.39","170.5","1024.815","11.73","94.1","324.1","0.0"],
    [1508977,"2026-02-27 12:30:00","55474","3.7739999999999996","172.4","5.063","176.0","1024.706","11.86","94.3","459.4","0.0"],
    [1508978,"2026-02-27 12:40:00","55475","4.099","180.9","5.553","174.4","1024.634","11.99","94.1","472.4","0.0"],
    [1508979,"2026-02-27 12:50:00","55476","3.717","179.0","4.965","174.2","1024.495","12.04","93.0","485.2","0.0"],
    [1508980,"2026-02-27 13:00:00","55477","3.735","169.6","4.475","181.9","1024.345","12.05","92.7","635.3","0.0"],
    [1508981,"2026-02-27 13:10:00","55478","4.14","169.4","5.096","169.6","1024.187","12.13","92.7","465.7","0.0"],
    [1508982,"2026-02-27 13:20:00","55479","3.8960000000000004","168.0","4.802","164.9","1024.042","12.17","93.0","367.0","0.0"],
    [1508983,"2026-02-27 13:30:00","55480","4.135","172.1","5.096","169.9","1023.909","12.24","93.0","415.7","0.0"],
    [1508984,"2026-02-27 13:40:00","55481","3.82","168.4","4.9","168.3","1023.824","12.31","92.8","403.2","0.0"],
    [1508985,"2026-02-27 13:50:00","55482","3.812","171.6","5.031000000000001","171.3","1023.7","12.35","92.6","389.3","0.0"],
    [1508986,"2026-02-27 14:00:00","55483","3.674","175.5","4.704","169.2","1023.557","12.5","91.7","560.6","0.0"],
    [1508987,"2026-02-27 14:10:00","55484","3.85","172.5","4.737","175.7","1023.462","12.58","90.9","616.4","0.0"],
    [1508988,"2026-02-27 14:20:00","55485","4.18","173.6","5.357","167.2","1023.396","12.66","90.5","600.7","0.0"],
    [1508989,"2026-02-27 14:30:00","55486","3.98","173.0","4.867","168.7","1023.343","12.67","90.6","536.9","0.0"],
    [1508990,"2026-02-27 14:40:00","55487","4.195","176.7","5.129","189.2","1023.306","12.65","90.2","488.5","0.0"],
    [1508991,"2026-02-27 14:50:00","55488","3.734","175.6","4.573","189.7","1023.225","12.67","90.2","396.1","0.0"],
    [1508992,"2026-02-27 15:00:00","55489","3.6289999999999996","171.2","4.508","165.7","1023.141","12.62","90.7","333.6","0.0"],
    [1508993,"2026-02-27 15:10:00","55490","3.8480000000000003","169.2","4.704","170.8","1023.039","12.62","90.7","388.9","0.0"],
    [1508994,"2026-02-27 15:20:00","55491","3.667","174.3","4.606","174.2","1022.997","12.61","90.7","189.7","0.0"],
    [1508995,"2026-02-27 15:30:00","55492","3.92","176.3","4.867","184.1","1022.909","12.64","91.1","146.9","0.0"],
    [1508996,"2026-02-27 15:40:00","55493","3.911","181.7","5.096","186.8","1022.866","12.67","91.1","163.5","0.0"],
    [1508997,"2026-02-27 15:50:00","55494","4.171","177.7","5.096","174.2","1022.807","12.63","91.2","148.4","0.0"],
    [1508998,"2026-02-27 16:00:00","55495","3.457","193.0","4.998","198.4","1022.872","12.71","91.0","138.3","0.0"],
    [1508999,"2026-02-27 16:10:00","55496","3.576","195.5","5.194","193.5","1022.749","12.71","90.2","124.7","0.0"],
    [1509000,"2026-02-27 16:20:00","55497","3.509","192.1","5.031000000000001","185.6","1022.603","12.68","89.9","100.0","0.0"],
    [1509001,"2026-02-27 16:30:00","55498","3.198","198.5","4.149","187.1","1022.604","12.67","89.7","87.8","0.0"],
    [1509002,"2026-02-27 16:40:00","55499","3.2","197.0","4.802","185.9","1022.576","12.71","89.5","77.68","0.0"],
    [1509003,"2026-02-27 16:50:00","55500","3.509","193.7","4.606","204.5","1022.538","12.7","89.4","66.32","0.0"],
    [1509004,"2026-02-27 17:00:00","55501","3.056","200.2","4.149","194.3","1022.574","12.7","89.2","82.1","0.0"],
    [1509005,"2026-02-27 17:10:00","55502","3.455","193.8","4.41","183.3","1022.502","12.61","89.4","65.9","0.0"],
    [1509006,"2026-02-27 17:20:00","55503","3.321","195.5","4.769","187.3","1022.556","12.59","89.6","58.11","0.0"],
    [1509007,"2026-02-27 17:30:00","55504","3.8789999999999996","191.6","5.031000000000001","194.5","1022.635","12.57","89.9","26.36","0.0"],
    [1509008,"2026-02-27 17:40:00","55505","3.091","199.2","4.41","189.6","1022.698","12.56","90.6","5.761","0.0"],
    [1509009,"2026-02-27 17:50:00","55506","3.594","198.7","5.129","204.4","1022.807","12.42","90.7","0.486","0.0"],
    [1509010,"2026-02-27 18:00:00","55507","3.424","200.3","5.553","203.9","1022.932","12.33","90.8","0.0","0.0"],
    [1509011,"2026-02-27 18:10:00","55508","2.61","205.5","5.096","204.7","1022.958","12.36","90.8","0.0","0.0"],
    [1509012,"2026-02-27 18:20:00","55509","3.323","199.8","4.802","196.0","1022.999","12.26","90.5","0.0","0.0"],
    [1509013,"2026-02-27 18:30:00","55510","1.959","204.7","3.7569999999999997","179.1","1023.068","12.29","90.6","0.0","0.0"],
    [1509014,"2026-02-27 18:40:00","55511","1.973","217.2","4.802","195.6","1023.062","12.28","90.5","0.0","0.0"],
    [1509015,"2026-02-27 18:50:00","55512","2.665","196.7","3.6910000000000003","187.8","1023.134","12.2","90.5","0.0","0.0"],
    [1509016,"2026-02-27 19:00:00","55513","2.315","200.6","3.43","209.9","1023.169","12.3","90.6","0.0","0.0"],
    [1509017,"2026-02-27 19:10:00","55514","2.1919999999999997","198.7","3.659","192.7","1023.066","12.24","90.5","0.0","0.0"],
    [1509018,"2026-02-27 19:20:00","55515","2.3609999999999998","199.9","4.345","193.1","1023.083","12.17","90.5","0.0","0.0"],
    [1509019,"2026-02-27 19:30:00","55516","1.719","221.5","4.051","263.0","1023.126","12.19","90.5","0.0","0.0"],
    [1509020,"2026-02-27 19:40:00","55517","2.005","196.8","3.005","184.8","1023.09","12.14","90.4","0.0","0.0"],
    [1509021,"2026-02-27 19:50:00","55518","1.365","220.7","2.548","192.7","1023.163","12.18","90.2","0.0","0.0"],
    [1509022,"2026-02-27 20:00:00","55519","1.3940000000000001","229.0","3.0380000000000003","190.4","1023.138","12.15","90.0","0.0","0.0"],
    [1509023,"2026-02-27 20:10:00","55520","1.419","216.4","2.679","196.4","1023.153","12.18","89.5","0.0","0.0"],
    [1509024,"2026-02-27 20:20:00","55521","2.095","191.8","4.541","192.7","1023.19","12.12","89.2","0.0","0.0"],
    [1509025,"2026-02-27 20:30:00","55522","1.903","189.5","4.083","187.6","1023.204","12.05","88.8","0.0","0.0"],
    [1509026,"2026-02-27 20:40:00","55523","0.861","196.8","1.535","203.3","1023.244","12.16","88.6","0.0","0.0"],
    [1509027,"2026-02-27 20:50:00","55524","1.036","219.3","1.993","201.6","1023.308","12.14","88.5","0.0","0.0"],
    [1509028,"2026-02-27 21:00:00","55525","0.262","254.1","1.339","264.8","1023.345","12.15","88.3","0.0","0.0"],
    [1509029,"2026-02-27 21:10:00","55526","0.858","238.8","1.666","240.9","1023.315","12.1","88.1","0.0","0.0"],
    [1509030,"2026-02-27 21:20:00","55527","0.809","220.1","1.535","214.2","1023.429","12.05","87.9","0.0","0.0"],
    [1509031,"2026-02-27 21:30:00","55528","0.608","230.4","2.221","235.4","1023.516","12.02","87.7","0.0","0.0"],
    [1509032,"2026-02-27 21:40:00","55529","1.145","226.4","2.45","272.8","1023.477","11.91","87.3","0.0","0.0"],
    [1509033,"2026-02-27 21:50:00","55530","0.33799999999999997","260.0","1.7309999999999999","181.1","1023.387","11.96","87.0","0.0","0.0"],
    [1509034,"2026-02-27 22:00:00","55531","0.051","165.4","0.6859999999999999","195.7","1023.361","11.97","86.6","0.0","0.0"],
    [1509035,"2026-02-27 22:10:00","55532","0.298","291.5","0.7190000000000001","296.3","1023.535","12.02","86.4","0.0","0.0"],
    [1509036,"2026-02-27 22:20:00","55533","0.021","276.8","0.457","296.8","1023.596","12.01","86.1","0.0","0.0"],
    [1509037,"2026-02-27 22:30:00","55534","0.308","218.1","2.0580000000000003","178.9","1023.571","11.99","85.7","0.0","0.0"],
    [1509038,"2026-02-27 22:40:00","55535","0.909","208.9","1.895","176.4","1023.661","12.12","85.0","0.0","0.0"],
    [1509039,"2026-02-27 22:50:00","55536","0.909","206.2","2.025","213.8","1023.843","12.18","84.2","0.0","0.0"],
    [1509040,"2026-02-27 23:00:00","55537","1.1520000000000001","199.1","1.601","199.6","1023.926","12.3","83.4","0.0","0.0"],
    [1509041,"2026-02-27 23:10:00","55538","0.39299999999999996","213.1","2.254","195.7","1023.912","12.26","82.8","0.0","0.0"],
    [1509042,"2026-02-27 23:20:00","55539","0.7959999999999999","166.0","1.8619999999999999","145.1","1023.98","12.35","82.3","0.0","0.0"],
    [1509043,"2026-02-27 23:30:00","55540","0.429","127.4","1.078","121.9","1024.058","12.33","81.7","0.0","0.0"],
    [1509044,"2026-02-27 23:40:00","55541","0.18600000000000003","129.0","1.176","111.0","1024.025","12.35","81.0","0.0","0.0"],
    [1509045,"2026-02-27 23:50:00","55542","0.794","26.71","1.797","35.43","1023.866","12.39","80.5","0.0","0.0"],
    [1509046,"2026-02-28 00:00:00","55543","1.9909999999999999","3.298","2.7769999999999997","359.6","1023.825","12.45","80.6","0.0","0.0"],
    [1509047,"2026-02-28 00:10:00","55544","1.4040000000000001","359.6","1.699","8.45","1023.873","12.48","80.7","0.0","0.0"],
    [1509048,"2026-02-28 00:20:00","55545","1.492","19.49","2.025","11.59","1023.787","12.43","80.4","0.0","0.0"],
    [1509049,"2026-02-28 00:30:00","55546","1.651","30.81","2.417","22.77","1023.784","12.49","80.2","0.0","0.0"],
    [1509050,"2026-02-28 00:40:00","55547","2.1180000000000003","26.79","2.94","11.86","1023.731","12.42","80.1","0.0","0.0"],
    [1509051,"2026-02-28 00:50:00","55548","3.048","29.7","4.1160000000000005","35.24","1023.649","12.5","80.0","0.0","0.0"],
    [1509052,"2026-02-28 01:00:00","55549","3.201","30.41","4.1160000000000005","32.93","1023.694","12.5","80.4","0.0","0.0"],
    [1509053,"2026-02-28 01:10:00","55550","3.238","31.04","4.149","23.24","1023.687","12.51","81.3","0.0","0.0"],
    [1509054,"2026-02-28 01:20:00","55551","3.0869999999999997","33.53","4.083","34.25","1023.729","12.56","82.0","0.0","0.0"],
    [1509055,"2026-02-28 01:30:00","55552","3.346","34.78","4.704","37.15","1023.686","12.49","82.0","0.0","0.0"],
    [1509056,"2026-02-28 01:40:00","55553","4.029","32.83","4.965","36.31","1023.599","12.52","81.6","0.0","0.0"],
    [1509057,"2026-02-28 01:50:00","55554","3.8560000000000003","29.59","4.9","30.54","1023.565","12.57","82.1","0.0","0.0"],
    [1509058,"2026-02-28 02:00:00","55555","3.6689999999999996","34.53","4.345","39.73","1023.592","12.51","82.8","0.0","0.0"],
    [1509059,"2026-02-28 02:10:00","55556","4.031000000000001","36.79","5.521","38.72","1023.542","12.6","82.3","0.0","0.0"],
    [1509060,"2026-02-28 02:20:00","55557","2.66","41.27","4.181","39.0","1023.469","12.52","81.8","0.0","0.0"],
    [1509061,"2026-02-28 02:30:00","55558","2.459","38.44","3.659","42.82","1023.488","12.63","80.9","0.0","0.0"],
    [1509062,"2026-02-28 02:40:00","55559","3.213","27.74","4.704","24.43","1023.334","12.73","80.5","0.0","0.0"],
    [1509063,"2026-02-28 02:50:00","55560","4.544","32.11","6.86","32.37","1023.14","12.75","80.7","0.0","0.0"],
    [1509064,"2026-02-28 03:00:00","55561","5.18","30.92","6.337000000000001","36.26","1023.028","12.69","83.5","0.0","0.0"],
    [1509065,"2026-02-28 03:10:00","55562","5.171","28.95","7.023","27.55","1023.148","12.55","86.2","0.0","0.0"],
    [1509066,"2026-02-28 03:20:00","55563","4.544","27.75","5.619","28.88","1023.233","12.48","87.9","0.0","0.0"],
    [1509067,"2026-02-28 03:30:00","55564","3.7539999999999996","26.17","4.998","27.1","1023.297","12.48","88.6","0.0","0.0"],
    [1509068,"2026-02-28 03:40:00","55565","3.905","27.45","4.9","33.99","1023.283","12.52","88.8","0.0","0.0"],
    [1509069,"2026-02-28 03:50:00","55566","4.751","39.94","6.305","39.97","1023.17","12.63","89.3","0.0","0.0"],
    [1509070,"2026-02-28 04:00:00","55567","4.186","56.28","5.586","57.33","1023.213","12.65","89.1","0.0","0.0"],
    [1509071,"2026-02-28 04:10:00","55568","4.085","60.61","5.553","54.28","1023.233","12.74","87.2","0.0","0.0"],
    [1509072,"2026-02-28 04:20:00","55569","4.101","69.1","5.651","67.07","1023.492","12.83","86.1","0.0","0.0"],
    [1509073,"2026-02-28 04:30:00","55570","3.5269999999999997","64.16","5.1610000000000005","72.55","1023.581","12.87","85.6","0.0","0.0"],
    [1509074,"2026-02-28 04:40:00","55571","4.437","56.9","5.782","66.63","1023.55","12.83","85.4","0.0","0.0"],
    [1509075,"2026-02-28 04:50:00","55572","4.749","53.56","6.86","50.19","1023.578","12.87","85.7","0.0","0.0"],
    [1509076,"2026-02-28 05:00:00","55573","4.705","55.46","6.109","50.98","1023.602","12.89","85.9","0.0","0.0"],
    [1509077,"2026-02-28 05:10:00","55574","5.013999999999999","52.66","6.599","59.38","1023.671","12.91","86.3","0.0","0.0"],
    [1509078,"2026-02-28 05:20:00","55575","5.9879999999999995","46.02","7.579","46.03","1023.612","12.91","86.7","0.0","0.0"],
    [1509079,"2026-02-28 05:30:00","55576","6.189","44.95","7.513","42.17","1023.602","12.87","87.7","0.0","0.0"],
    [1509080,"2026-02-28 05:40:00","55577","5.2379999999999995","60.36","7.121","54.55","1023.627","12.99","84.2","0.0","0.0"],
    [1509081,"2026-02-28 05:50:00","55578","6.063","68.99","8.33","64.49","1023.527","13.3","79.22","0.0","0.0"],
    [1509082,"2026-02-28 06:00:00","55579","5.362","56.75","8.1","67.92","1023.646","13.44","76.54","0.0","0.0"],
    [1509083,"2026-02-28 06:10:00","55580","6.744","63.7","9.02","81.4","1023.783","13.45","75.8","0.0","0.0"],
    [1509084,"2026-02-28 06:20:00","55581","5.185","77.44","7.872999999999999","73.95","1023.911","13.34","75.59","0.0","0.0"],
    [1509085,"2026-02-28 06:30:00","55582","5.496","78.43","8.49","340.4","1023.93","13.47","74.15","0.25","0.0"],
    [1509086,"2026-02-28 06:40:00","55583","5.356","86.4","7.481","80.0","1024.061","13.49","76.37","1.401","0.0"],
    [1509087,"2026-02-28 06:50:00","55584","4.963","93.2","6.893","88.7","1024.309","13.36","76.93","2.591","0.0"],
    [1509088,"2026-02-28 07:00:00","55585","5.242999999999999","94.3","7.317","89.5","1024.372","13.43","75.95","3.8160000000000003","0.0"],
    [1509089,"2026-02-28 07:10:00","55586","4.8389999999999995","95.1","6.697","90.2","1024.479","13.48","76.72","6.691","0.0"],
    [1509090,"2026-02-28 07:20:00","55587","5.121","88.7","7.154","90.9","1024.625","13.43","77.52","10.86","0.0"],
    [1509091,"2026-02-28 07:30:00","55588","4.632","81.7","6.86","96.0","1024.768","13.41","77.96","12.29","0.0"],
    [1509092,"2026-02-28 07:40:00","55589","3.303","83.7","5.7170000000000005","60.16","1024.937","13.41","79.1","18.16","0.0"],
    [1509093,"2026-02-28 07:50:00","55590","2.9530000000000003","77.76","5.455","86.5","1025.026","13.32","80.1","33.69","0.0"],
    [1509094,"2026-02-28 08:00:00","55591","2.752","54.83","5.815","55.7","1025.215","13.4","81.0","48.42","0.0"],
    [1509095,"2026-02-28 08:10:00","55592","3.156","43.56","4.9","42.04","1025.362","13.41","82.0","36.47","0.0"],
    [1509096,"2026-02-28 08:20:00","55593","3.7030000000000003","42.15","5.357","43.82","1025.317","13.38","83.0","49.77","0.0"],
    [1509097,"2026-02-28 08:30:00","55594","3.073","38.59","4.312","37.24","1025.359","13.35","84.3","61.71","0.0"],
    [1509098,"2026-02-28 08:40:00","55595","2.635","35.06","4.083","44.1","1025.532","13.42","85.5","51.34","0.0"],
    [1509099,"2026-02-28 08:50:00","55596","3.682","38.45","4.835","39.66","1025.673","13.23","86.5","42.58","0.0"],
    [1509100,"2026-02-28 09:00:00","55597","3.7710000000000004","36.9","4.9","34.54","1025.537","13.21","87.8","101.8","0.0"],
    [1509101,"2026-02-28 09:10:00","55598","3.784","32.67","4.769","27.44","1025.639","13.21","89.2","87.4","0.0"],
    [1509102,"2026-02-28 09:20:00","55599","3.852","24.3","4.638999999999999","25.79","1025.788","13.07","90.7","109.9","0.0"],
    [1509103,"2026-02-28 09:30:00","55600","4.766","29.3","5.619","24.59","1025.583","12.97","91.5","139.1","0.0"],
    [1509104,"2026-02-28 09:40:00","55601","4.147","28.74","5.619","28.17","1025.703","12.9","91.9","87.6","0.0"],
    [1509105,"2026-02-28 09:50:00","55602","4.117","29.86","4.965","27.78","1025.692","12.91","92.0","101.9","0.0"],
    [1509106,"2026-02-28 10:00:00","55603","4.09","26.35","4.965","31.94","1025.732","12.87","92.0","84.3","0.0"],
    [1509107,"2026-02-28 10:10:00","55604","3.62","28.33","4.671","25.33","1025.862","12.93","91.9","87.4","0.0"],
    [1509108,"2026-02-28 10:20:00","55605","3.457","28.65","4.671","27.65","1025.86","12.95","91.8","89.2","0.0"],
    [1509109,"2026-02-28 10:30:00","55606","3.715","29.24","4.867","27.33","1025.829","12.92","91.6","99.5","0.0"],
    [1509110,"2026-02-28 10:40:00","55607","4.082","29.18","5.521","34.67","1025.685","12.99","91.4","273.1","0.0"],
    [1509111,"2026-02-28 10:50:00","55608","4.104","31.26","5.553","25.59","1025.68","13.01","90.9","224.4","0.0"],
    [1509112,"2026-02-28 11:00:00","55609","4.0569999999999995","29.52","5.357","28.2","1025.68","13.02","90.6","235.4","0.0"],
    [1509113,"2026-02-28 11:10:00","55610","4.2010000000000005","27.98","5.227","32.9","1025.746","13.03","90.3","161.1","0.0"],
    [1509114,"2026-02-28 11:20:00","55611","3.888","30.21","5.031000000000001","27.27","1025.684","13.08","90.5","150.1","0.0"],
    [1509115,"2026-02-28 11:30:00","55612","3.594","28.28","4.704","22.8","1025.723","13.11","91.1","114.1","0.0"],
    [1509116,"2026-02-28 11:40:00","55613","4.15","41.55","5.521","39.35","1025.614","13.12","91.2","97.7","0.0"],
    [1509117,"2026-02-28 11:50:00","55614","4.677","41.16","6.337000000000001","38.88","1025.515","13.19","89.7","147.6","0.0"],
    [1509118,"2026-02-28 12:00:00","55615","4.72","44.13","7.121","43.17","1025.477","13.32","88.3","164.5","0.0"],
    [1509119,"2026-02-28 12:10:00","55616","4.492","44.02","7.6770000000000005","32.09","1025.434","13.37","87.7","186.4","0.0"],
    [1509120,"2026-02-28 12:20:00","55617","3.647","49.51","6.7620000000000005","42.33","1025.316","13.42","87.5","259.9","0.0"],
    [1509121,"2026-02-28 12:30:00","55618","3.173","41.98","5.782","40.66","1025.356","13.47","87.5","203.5","0.0"],
    [1509122,"2026-02-28 12:40:00","55619","2.929","42.89","5.096","39.18","1025.281","13.46","87.4","166.7","0.0"],
    [1509123,"2026-02-28 12:50:00","55620","3.062","46.6","5.651","43.2","1025.122","13.44","87.0","225.8","0.0"],
    [1509124,"2026-02-28 13:00:00","55621","3.59","39.66","5.227","37.84","1024.964","13.47","86.7","239.7","0.0"],
    [1509125,"2026-02-28 13:10:00","55622","3.3480000000000003","43.1","4.4430000000000005","35.26","1024.868","13.47","86.5","283.3","0.0"],
    [1509126,"2026-02-28 13:20:00","55623","3.0589999999999997","40.03","3.9530000000000003","39.36","1024.763","13.48","86.7","349.4","0.0"],
    [1509127,"2026-02-28 13:30:00","55624","2.574","39.07","3.92","39.31","1024.71","13.5","86.9","247.1","0.0"],
    [1509128,"2026-02-28 13:40:00","55625","2.3890000000000002","43.02","3.6260000000000003","38.05","1024.62","13.52","87.0","183.7","0.0"],
    [1509129,"2026-02-28 13:50:00","55626","2.08","43.3","3.495","39.72","1024.518","13.56","87.2","267.6","0.0"],
    [1509130,"2026-02-28 14:00:00","55627","1.631","42.86","2.907","39.21","1024.458","13.65","87.2","343.7","0.0"],
    [1509131,"2026-02-28 14:10:00","55628","1.976","45.87","2.9730000000000003","38.32","1024.439","13.63","87.2","415.4","0.0"],
    [1509132,"2026-02-28 14:20:00","55629","1.7719999999999998","37.47","2.515","33.41","1024.363","13.66","87.3","377.3","0.0"],
    [1509133,"2026-02-28 14:30:00","55630","1.1059999999999999","42.92","2.5810000000000004","44.22","1024.396","13.77","87.6","333.4","0.0"],
    [1509134,"2026-02-28 14:40:00","55631","1.187","67.13","2.94","108.1","1024.427","13.91","87.6","389.9","0.0"],
    [1509135,"2026-02-28 14:50:00","55632","1.412","51.67","3.234","54.44","1024.403","14.01","87.1","466.8","0.0"],
    [1509136,"2026-02-28 15:00:00","55633","2.344","38.58","4.835","39.27","1024.396","14.01","86.9","212.9","0.0"],
    [1509137,"2026-02-28 15:10:00","55634","3.487","41.81","5.2589999999999995","42.96","1024.43","13.88","87.2","397.2","0.0"],
    [1509138,"2026-02-28 15:20:00","55635","3.5989999999999998","42.52","5.7170000000000005","39.95","1024.465","13.83","86.9","203.5","0.0"],
    [1509139,"2026-02-28 15:30:00","55636","3.678","40.13","5.912999999999999","49.22","1024.52","13.81","86.6","132.0","0.0"],
    [1509140,"2026-02-28 15:40:00","55637","3.116","39.7","5.455","51.62","1024.589","13.79","85.5","120.1","0.0"],
    [1509141,"2026-02-28 15:50:00","55638","3.0439999999999996","43.49","5.455","43.55","1024.562","13.83","84.5","144.7","0.0"],
    [1509142,"2026-02-28 16:00:00","55639","2.826","33.95","5.292000000000001","38.29","1024.544","13.88","84.1","116.5","0.0"],
    [1509143,"2026-02-28 16:10:00","55640","3.292","35.26","4.704","28.18","1024.53","13.86","83.9","95.9","0.0"],
    [1509144,"2026-02-28 16:20:00","55641","3.37","35.98","4.933","42.76","1024.485","13.89","83.7","75.45","0.0"],
    [1509145,"2026-02-28 16:30:00","55642","3.08","41.21","4.704","45.58","1024.524","13.93","83.3","45.37","0.0"],
    [1509146,"2026-02-28 16:40:00","55643","2.772","31.25","3.887","56.79","1024.554","13.9","83.1","33.24","0.0"],
    [1509147,"2026-02-28 16:50:00","55644","2.819","29.08","4.704","18.62","1024.581","13.87","83.6","28.72","0.0"],
    [1509148,"2026-02-28 17:00:00","55645","3.208","74.54","7.905","89.3","1024.527","13.75","83.6","22.64","0.0"],
    [1509149,"2026-02-28 17:10:00","55646","4.581","78.13","7.121","92.6","1024.448","13.73","83.9","20.94","0.0"],
    [1509150,"2026-02-28 17:20:00","55647","4.75","84.2","6.729","79.77","1024.512","13.69","83.7","11.36","0.0"],
    [1509151,"2026-02-28 17:30:00","55648","4.579","87.7","6.305","94.2","1024.636","13.67","83.1","4.04","0.0"],
    [1509152,"2026-02-28 17:40:00","55649","3.81","80.1","5.4879999999999995","76.41","1024.782","13.71","82.2","1.1","0.0"],
    [1509153,"2026-02-28 17:50:00","55650","3.654","79.09","5.325","56.83","1024.877","13.72","82.2","0.055999999999999994","0.0"],
    [1509154,"2026-02-28 18:00:00","55651","3.6630000000000003","76.18","4.965","79.95","1024.997","13.7","81.5","0.0","0.0"],
    [1509155,"2026-02-28 18:10:00","55652","3.764","68.58","5.292000000000001","60.67","1025.074","13.7","81.5","0.0","0.0"],
    [1509156,"2026-02-28 18:20:00","55653","3.752","72.09","5.063","74.03","1025.134","13.7","81.3","0.0","0.0"],
    [1509157,"2026-02-28 18:30:00","55654","3.6","72.15","4.704","83.8","1025.243","13.68","80.6","0.0","0.0"],
    [1509158,"2026-02-28 18:40:00","55655","3.89","66.31","5.096","68.81","1025.336","13.66","80.3","0.0","0.0"],
    [1509159,"2026-02-28 18:50:00","55656","2.748","63.54","4.149","70.3","1025.46","13.75","80.1","0.0","0.0"],
    [1509160,"2026-02-28 19:00:00","55657","3.182","75.69","4.149","80.8","1025.451","13.7","80.3","0.0","0.0"],
    [1509161,"2026-02-28 19:10:00","55658","3.576","70.33","4.41","65.18","1025.439","13.7","80.3","0.0","0.0"],
    [1509162,"2026-02-28 19:20:00","55659","3.551","76.52","4.606","81.6","1025.506","13.66","79.62","0.0","0.0"],
    [1509163,"2026-02-28 19:30:00","55660","3.403","73.89","4.573","71.88","1025.481","13.71","79.23","0.0","0.0"],
    [1509164,"2026-02-28 19:40:00","55661","3.227","73.69","4.1160000000000005","78.17","1025.556","13.68","79.65","0.0","0.0"],
    [1509165,"2026-02-28 19:50:00","55662","2.8689999999999998","68.42","4.1160000000000005","69.72","1025.712","13.69","79.76","0.0","0.0"],
    [1509166,"2026-02-28 20:00:00","55663","2.923","69.77","3.822","52.03","1025.759","13.68","79.36","0.0","0.0"],
    [1509167,"2026-02-28 20:10:00","55664","3.112","67.73","4.018","70.6","1025.794","13.66","78.7","0.0","0.0"],
    [1509168,"2026-02-28 20:20:00","55665","2.294","70.91","3.332","86.8","1025.929","13.75","78.25","0.0","0.0"],
    [1509169,"2026-02-28 20:30:00","55666","2.84","78.1","3.6910000000000003","72.71","1025.954","13.73","78.79","0.0","0.0"],
    [1509170,"2026-02-28 20:40:00","55667","2.667","79.39","3.397","76.69","1026.043","13.73","79.02","0.0","0.0"],
    [1509171,"2026-02-28 20:50:00","55668","2.966","83.4","3.7569999999999997","77.99","1026.001","13.72","79.92","0.0","0.0"],
    [1509172,"2026-02-28 21:00:00","55669","2.545","73.59","3.495","82.8","1026.027","13.66","80.8","0.0","0.0"],
    [1509173,"2026-02-28 21:10:00","55670","2.186","79.02","2.8089999999999997","73.05","1026.148","13.67","81.6","0.0","0.0"],
    [1509174,"2026-02-28 21:20:00","55671","1.945","78.78","2.5810000000000004","85.7","1026.189","13.64","82.3","0.0","0.0"],
    [1509175,"2026-02-28 21:30:00","55672","1.72","82.4","2.385","90.5","1026.2","13.64","82.7","0.0","0.0"],
    [1509176,"2026-02-28 21:40:00","55673","1.7480000000000002","84.0","2.319","80.4","1026.155","13.61","83.2","0.0","0.0"],
    [1509177,"2026-02-28 21:50:00","55674","1.324","86.9","1.96","84.1","1026.253","13.57","83.4","0.0","0.0"],
    [1509178,"2026-02-28 22:00:00","55675","0.8029999999999999","58.37","1.339","64.18","1026.274","13.56","83.3","0.0","0.0"],
    [1509179,"2026-02-28 22:10:00","55676","0.5539999999999999","65.52","0.98","50.97","1026.227","13.56","83.1","0.0","0.0"],
    [1509180,"2026-02-28 22:20:00","55677","0.16","82.9","0.784","92.7","1026.17","13.62","83.2","0.0","0.0"],
    [1509181,"2026-02-28 22:30:00","55678","0.0","0.0","0.0","0.0","1026.153","13.6","83.4","0.0","0.0"],
    [1509182,"2026-02-28 22:40:00","55679","0.0","0.0","0.0","0.0","1026.118","13.59","83.7","0.0","0.0"],
    [1509183,"2026-02-28 22:50:00","55680","0.0","0.0","0.0","0.0","1026.054","13.55","83.9","0.0","0.0"],
    [1509184,"2026-02-28 23:00:00","55681","0.0","0.0","0.0","0.0","1026.096","13.47","83.8","0.0","0.0"],
    [1509185,"2026-02-28 23:10:00","55682","0.0","0.0","0.0","0.0","1026.12","13.47","83.9","0.0","0.0"],
    [1509186,"2026-02-28 23:20:00","55683","0.37200000000000005","277.1","0.8170000000000001","271.6","1026.124","13.44","83.8","0.0","0.0"],
    [1509187,"2026-02-28 23:30:00","55684","0.473","265.9","0.6859999999999999","277.9","1026.003","13.43","83.5","0.0","0.0"],
    [1509188,"2026-02-28 23:40:00","55685","0.033","256.5","0.392","255.2","1025.848","13.44","83.2","0.0","0.0"],
    [1509189,"2026-02-28 23:50:00","55686","0.0","0.0","0.0","0.0","1025.712","13.4","83.0","0.0","0.0"],
    [1509190,"2026-03-01 00:00:00","55687","0.0","0.0","0.0","0.0","1025.7","13.46","83.2","0.0","0.0"],
    [1509191,"2026-03-01 00:10:00","55688","0.07400000000000001","229.2","0.653","229.6","1025.704","13.41","83.1","0.0","0.0"],
    [1509192,"2026-03-01 00:20:00","55689","0.601","231.6","1.078","231.9","1025.739","13.4","82.7","0.0","0.0"],
    [1509193,"2026-03-01 00:30:00","55690","0.5770000000000001","244.5","1.274","258.7","1025.795","13.45","82.3","0.0","0.0"],
    [1509194,"2026-03-01 00:40:00","55691","0.833","262.7","1.5030000000000001","269.2","1025.75","13.39","82.1","0.0","0.0"],
    [1509195,"2026-03-01 00:50:00","55692","1.172","273.8","1.96","287.5","1025.732","13.36","81.9","0.0","0.0"],
    [1509196,"2026-03-01 01:00:00","55693","0.36700000000000005","256.0","0.98","246.9","1025.714","13.42","81.1","0.0","0.0"],
    [1509197,"2026-03-01 01:10:00","55694","1.192","258.4","2.254","263.0","1025.711","13.38","80.5","0.0","0.0"],
    [1509198,"2026-03-01 01:20:00","55695","1.264","272.7","2.0909999999999997","277.0","1025.619","13.37","80.1","0.0","0.0"],
    [1509199,"2026-03-01 01:30:00","55696","0.914","268.1","1.568","264.7","1025.52","13.34","79.78","0.0","0.0"],
    [1509200,"2026-03-01 01:40:00","55697","0.79","269.8","1.2409999999999999","275.6","1025.413","13.35","79.56","0.0","0.0"],
    [1509201,"2026-03-01 01:50:00","55698","0.504","259.4","1.013","260.1","1025.358","13.37","79.33","0.0","0.0"],
    [1509202,"2026-03-01 02:00:00","55699","0.649","253.3","0.9470000000000001","261.1","1025.316","13.36","79.03","0.0","0.0"],
    [1509203,"2026-03-01 02:10:00","55700","0.8140000000000001","263.7","1.143","265.6","1025.309","13.37","78.79","0.0","0.0"],
    [1509204,"2026-03-01 02:20:00","55701","0.757","233.5","1.143","217.3","1025.292","13.38","78.91","0.0","0.0"],
    [1509205,"2026-03-01 02:30:00","55702","0.8270000000000001","237.9","1.601","215.2","1025.264","13.35","78.91","0.0","0.0"],
    [1509206,"2026-03-01 02:40:00","55703","1.063","246.5","1.764","253.3","1025.152","13.32","78.99","0.0","0.0"],
    [1509207,"2026-03-01 02:50:00","55704","1.109","253.4","1.895","249.9","1025.124","13.23","79.46","0.0","0.0"],
    [1509208,"2026-03-01 03:00:00","55705","0.9740000000000001","253.1","1.568","249.9","1025.067","13.18","79.98","0.0","0.0"],
    [1509209,"2026-03-01 03:10:00","55706","1.032","253.7","1.633","276.6","1025.06","13.16","80.2","0.0","0.0"],
    [1509210,"2026-03-01 03:20:00","55707","1.001","242.6","1.535","247.5","1025.047","13.15","80.4","0.0","0.0"],
    [1509211,"2026-03-01 03:30:00","55708","1.07","245.1","1.9269999999999998","249.3","1025.045","13.15","80.5","0.0","0.0"],
    [1509212,"2026-03-01 03:40:00","55709","0.5760000000000001","249.7","1.339","260.1","1025.075","13.1","80.6","0.0","0.0"],
    [1509213,"2026-03-01 03:50:00","55710","0.988","249.3","1.764","257.2","1025.083","13.07","80.9","0.0","0.0"],
    [1509214,"2026-03-01 04:00:00","55711","1.167","241.2","1.895","255.7","1025.127","13.04","81.2","0.0","0.0"],
    [1509215,"2026-03-01 04:10:00","55712","0.7290000000000001","249.6","1.209","251.2","1025.184","13.02","81.4","0.0","0.0"],
    [1509216,"2026-03-01 04:20:00","55713","0.602","259.5","1.078","256.7","1025.19","12.94","81.7","0.0","0.0"],
    [1509217,"2026-03-01 04:30:00","55714","0.612","251.2","1.078","256.7","1025.24","12.84","82.1","0.0","0.0"],
    [1509218,"2026-03-01 04:40:00","55715","0.7559999999999999","243.9","1.209","248.9","1025.284","12.85","82.5","0.0","0.0"],
    [1509219,"2026-03-01 04:50:00","55716","0.535","253.4","1.176","230.1","1025.302","12.81","82.7","0.0","0.0"],
    [1509220,"2026-03-01 05:00:00","55717","0.782","269.6","1.209","267.0","1025.344","12.84","82.8","0.0","0.0"],
    [1509221,"2026-03-01 05:10:00","55718","0.7609999999999999","261.9","1.013","265.6","1025.401","12.86","82.6","0.0","0.0"],
    [1509222,"2026-03-01 05:20:00","55719","0.11900000000000001","239.1","0.621","262.6","1025.427","12.9","82.6","0.0","0.0"],
    [1509223,"2026-03-01 05:30:00","55720","0.059000000000000004","224.4","0.359","225.7","1025.413","12.88","82.7","0.0","0.0"],
    [1509224,"2026-03-01 05:40:00","55721","0.40399999999999997","252.1","0.7509999999999999","250.3","1025.483","12.88","82.5","0.0","0.0"],
    [1509225,"2026-03-01 05:50:00","55722","0.478","259.7","0.9470000000000001","271.0","1025.491","12.93","82.0","0.0","0.0"],
    [1509226,"2026-03-01 06:00:00","55723","0.836","267.0","1.111","256.2","1025.523","12.99","81.3","0.0","0.0"],
    [1509227,"2026-03-01 06:10:00","55724","0.47100000000000003","277.0","0.6859999999999999","263.1","1025.59","13.0","81.0","0.0","0.0"],
    [1509228,"2026-03-01 06:20:00","55725","0.851","260.2","1.339","248.0","1025.64","13.04","80.7","0.128","0.0"],
    [1509229,"2026-03-01 06:30:00","55726","1.016","255.3","1.535","263.9","1025.616","13.03","80.5","1.453","0.0"],
    [1509230,"2026-03-01 06:40:00","55727","0.753","260.6","1.5030000000000001","251.7","1025.578","13.0","80.5","6.952999999999999","0.0"],
    [1509231,"2026-03-01 06:50:00","55728","0.932","260.5","1.307","266.1","1025.555","12.97","80.9","26.42","0.0"],
    [1509232,"2026-03-01 07:00:00","55729","0.9","259.2","1.2409999999999999","247.8","1025.615","12.89","81.5","48.8","0.0"],
    [1509233,"2026-03-01 07:10:00","55730","0.912","265.3","1.307","268.0","1025.693","12.89","81.8","53.18","0.0"],
    [1509234,"2026-03-01 07:20:00","55731","0.7859999999999999","277.2","1.274","273.0","1025.748","12.88","82.0","60.21","0.0"],
    [1509235,"2026-03-01 07:30:00","55732","0.9790000000000001","276.9","1.2409999999999999","272.6","1025.88","12.91","81.8","62.9","0.0"],
    [1509236,"2026-03-01 07:40:00","55733","0.996","270.7","1.568","260.3","1026.028","12.99","81.9","59.64","0.0"],
    [1509237,"2026-03-01 07:50:00","55734","1.5030000000000001","272.9","1.764","272.8","1026.157","12.94","81.7","61.25","0.0"],
    [1509238,"2026-03-01 08:00:00","55735","1.436","273.4","1.96","278.2","1026.198","13.05","81.2","73.13","0.0"],
    [1509239,"2026-03-01 08:10:00","55736","1.419","262.3","1.96","263.2","1026.255","13.15","80.7","84.8","0.0"],
    [1509240,"2026-03-01 08:20:00","55737","1.335","264.2","1.797","255.6","1026.307","13.23","80.6","95.7","0.0"],
    [1509241,"2026-03-01 08:30:00","55738","1.043","264.6","1.993","242.0","1026.395","13.33","80.2","83.3","0.0"],
    [1509242,"2026-03-01 08:40:00","55739","1.29","268.6","1.96","260.3","1026.374","13.43","79.3","86.3","0.0"],
    [1509243,"2026-03-01 08:50:00","55740","1.21","268.0","1.829","259.6","1026.365","13.52","78.21","93.8","0.0"],
    [1509244,"2026-03-01 09:00:00","55741","1.057","264.9","1.895","269.8","1026.39","13.64","77.41","107.1","0.0"],
    [1509245,"2026-03-01 09:10:00","55742","1.113","252.3","2.417","251.9","1026.45","13.74","76.55","131.6","0.0"],
    [1509246,"2026-03-01 09:20:00","55743","1.334","259.2","2.156","262.8","1026.45","13.8","75.38","168.6","0.0"],
    [1509247,"2026-03-01 09:30:00","55744","1.262","262.6","2.0909999999999997","270.3","1026.443","13.95","74.46","196.7","0.0"],
    [1509248,"2026-03-01 09:40:00","55745","1.29","260.5","2.319","251.4","1026.401","14.06","73.27","202.8","0.0"],
    [1509249,"2026-03-01 09:50:00","55746","1.514","253.1","2.875","261.1","1026.35","14.1","71.24","253.9","0.0"],
    [1509250,"2026-03-01 10:00:00","55747","1.339","225.0","2.123","238.9","1026.348","14.31","69.09","446.6","0.0"],
    [1509251,"2026-03-01 10:10:00","55748","1.416","253.4","4.4430000000000005","228.3","1026.311","15.06","66.8","578.2","0.0"],
    [1509252,"2026-03-01 10:20:00","55749","1.794","252.5","3.495","275.3","1026.305","15.38","63.02","580.0","0.0"],
    [1509253,"2026-03-01 10:30:00","55750","2.218","237.6","4.377","276.0","1026.3","15.83","59.54","624.4","0.0"],
    [1509254,"2026-03-01 10:40:00","55751","2.099","223.1","3.7569999999999997","190.1","1026.257","15.99","57.71","719.2","0.0"],
    [1509255,"2026-03-01 10:50:00","55752","2.23","221.5","4.149","214.9","1026.145","15.63","58.48","460.9","0.0"],
    [1509256,"2026-03-01 11:00:00","55753","2.472","247.7","4.606","222.6","1025.985","15.98","57.76","692.5","0.0"],
    [1509257,"2026-03-01 11:10:00","55754","3.531","267.2","5.39","269.8","1025.922","16.12","56.11","696.7","0.0"],
    [1509258,"2026-03-01 11:20:00","55755","3.5","270.3","5.129","268.1","1025.828","15.98","55.91","778.1","0.0"],
    [1509259,"2026-03-01 11:30:00","55756","2.83","257.4","4.606","251.0","1025.82","15.78","56.94","401.3","0.0"],
    [1509260,"2026-03-01 11:40:00","55757","2.658","254.4","4.4430000000000005","236.4","1025.748","15.57","58.08","497.9","0.0"],
    [1509261,"2026-03-01 11:50:00","55758","1.5030000000000001","243.6","3.299","277.4","1025.611","15.8","57.88","677.9","0.0"],
    [1509262,"2026-03-01 12:00:00","55759","2.978","209.6","7.579","174.5","1025.401","15.75","58.34","740.5","0.0"],
    [1509263,"2026-03-01 12:10:00","55760","5.462000000000001","175.3","7.872999999999999","176.7","1025.15","14.47","71.11","714.3","0.0"],
    [1509264,"2026-03-01 12:20:00","55761","4.761","185.2","6.011","190.0","1025.041","14.58","72.08","700.8","0.0"],
    [1509265,"2026-03-01 12:30:00","55762","5.722","179.9","7.4479999999999995","188.4","1024.862","14.42","72.41","691.7","0.0"],
    [1509266,"2026-03-01 12:40:00","55763","5.986000000000001","185.2","7.317","191.0","1024.808","14.35","72.45","711.5","0.0"],
    [1509267,"2026-03-01 12:50:00","55764","5.563","185.6","7.121","191.6","1024.674","14.4","72.93","699.1","0.0"],
    [1509268,"2026-03-01 13:00:00","55765","5.455","182.2","6.893","187.8","1024.567","14.39","72.01","681.7","0.0"],
    [1509269,"2026-03-01 13:10:00","55766","5.982","184.1","7.644","189.1","1024.462","14.33","72.66","672.7","0.0"],
    [1509270,"2026-03-01 13:20:00","55767","6.308","187.6","8.04","190.8","1024.318","14.24","73.3","661.3","0.0"],
    [1509271,"2026-03-01 13:30:00","55768","5.854","184.3","7.218999999999999","188.6","1024.318","14.36","73.03","649.8","0.0"],
    [1509272,"2026-03-01 13:40:00","55769","5.545","185.9","7.0889999999999995","194.5","1024.232","14.36","72.68","633.1","0.0"],
    [1509273,"2026-03-01 13:50:00","55770","5.6770000000000005","184.9","7.709","192.6","1024.165","14.38","71.73","620.0","0.0"],
    [1509274,"2026-03-01 14:00:00","55771","5.821000000000001","186.7","8.04","196.1","1024.104","14.47","71.91","600.0","0.0"],
    [1509275,"2026-03-01 14:10:00","55772","5.676","190.0","7.579","194.1","1024.03","14.44","71.31","577.4","0.0"],
    [1509276,"2026-03-01 14:20:00","55773","5.455","195.6","7.4479999999999995","195.7","1023.955","14.59","70.0","554.5","0.0"],
    [1509277,"2026-03-01 14:30:00","55774","5.946000000000001","193.9","8.04","200.6","1023.899","14.46","70.55","514.3","0.0"],
    [1509278,"2026-03-01 14:40:00","55775","5.3660000000000005","204.0","7.709","201.3","1023.912","14.48","72.24","491.3","0.0"],
    [1509279,"2026-03-01 14:50:00","55776","5.129","201.2","7.481","182.9","1023.859","14.48","72.26","476.6","0.0"],
    [1509280,"2026-03-01 15:00:00","55777","5.6339999999999995","195.6","7.84","184.3","1023.739","14.41","72.69","460.8","0.0"],
    [1509281,"2026-03-01 15:10:00","55778","5.5120000000000005","191.1","7.84","215.2","1023.666","14.36","73.53","428.4","0.0"],
    [1509282,"2026-03-01 15:20:00","55779","6.239","191.8","8.66","202.4","1023.594","14.21","73.66","273.7","0.0"],
    [1509283,"2026-03-01 15:30:00","55780","6.082999999999999","198.9","8.85","187.7","1023.547","14.13","74.43","171.0","0.0"],
    [1509284,"2026-03-01 15:40:00","55781","5.355","201.2","7.6770000000000005","180.4","1023.51","14.25","74.36","331.3","0.0"],
    [1509285,"2026-03-01 15:50:00","55782","5.099","209.3","7.4479999999999995","212.4","1023.498","14.3","74.1","343.0","0.0"],
    [1509286,"2026-03-01 16:00:00","55783","5.37","199.0","9.15","204.7","1023.468","14.32","74.24","238.4","0.0"],
    [1509287,"2026-03-01 16:10:00","55784","5.351","198.0","8.26","188.2","1023.432","14.26","74.58","250.6","0.0"],
    [1509288,"2026-03-01 16:20:00","55785","5.239","196.8","7.775","198.1","1023.387","14.08","75.96","126.3","0.0"],
    [1509289,"2026-03-01 16:30:00","55786","5.7410000000000005","202.1","7.971","198.8","1023.353","14.05","76.79","105.8","0.0"],
    [1509290,"2026-03-01 16:40:00","55787","3.822","216.0","6.729","227.2","1023.37","14.12","76.87","86.8","0.0"],
    [1509291,"2026-03-01 16:50:00","55788","4.29","204.2","7.709","202.9","1023.308","14.08","77.28","66.94","0.0"],
    [1509292,"2026-03-01 17:00:00","55789","4.242","211.1","7.121","203.7","1023.333","14.06","77.65","88.1","0.0"],
    [1509293,"2026-03-01 17:10:00","55790","3.886","208.8","7.023","220.1","1023.296","14.09","78.15","65.62","0.0"],
    [1509294,"2026-03-01 17:20:00","55791","3.55","202.0","5.1610000000000005","184.9","1023.337","13.91","79.38","23.78","0.0"],
    [1509295,"2026-03-01 17:30:00","55792","2.289","211.4","4.769","209.2","1023.294","13.87","80.0","14.59","0.0"],
    [1509296,"2026-03-01 17:40:00","55793","2.0780000000000003","205.6","3.822","203.2","1023.317","13.83","80.4","6.575","0.0"],
    [1509297,"2026-03-01 17:50:00","55794","2.937","200.3","4.9","197.4","1023.313","13.69","81.1","1.129","0.0"],
    [1509298,"2026-03-01 18:00:00","55795","2.5989999999999998","201.2","3.495","221.4","1023.353","13.64","82.3","0.0","0.0"],
    [1509299,"2026-03-01 18:10:00","55796","2.299","206.9","3.659","207.5","1023.451","13.57","83.5","0.0","0.0"],
    [1509300,"2026-03-01 18:20:00","55797","1.9709999999999999","203.6","3.528","197.1","1023.521","13.55","84.2","0.0","0.0"],
    [1509301,"2026-03-01 18:30:00","55798","2.122","209.1","3.6260000000000003","218.5","1023.606","13.48","84.8","0.0","0.0"],
    [1509302,"2026-03-01 18:40:00","55799","1.999","219.6","3.6910000000000003","219.1","1023.653","13.48","85.3","0.0","0.0"],
    [1509303,"2026-03-01 18:50:00","55800","1.7619999999999998","215.4","2.679","232.2","1023.685","13.47","85.9","0.0","0.0"],
    [1509304,"2026-03-01 19:00:00","55801","1.903","210.1","2.907","203.9","1023.604","13.42","86.4","0.0","0.0"],
    [1509305,"2026-03-01 19:10:00","55802","1.764","220.3","3.005","208.8","1023.579","13.41","86.8","0.0","0.0"],
    [1509306,"2026-03-01 19:20:00","55803","2.31","224.3","3.201","214.1","1023.59","13.41","87.2","0.0","0.0"],
    [1509307,"2026-03-01 19:30:00","55804","2.042","215.9","3.299","224.9","1023.611","13.41","87.5","0.0","0.0"],
    [1509308,"2026-03-01 19:40:00","55805","2.353","221.5","3.7889999999999997","206.6","1023.642","13.4","87.6","0.0","0.0"],
    [1509309,"2026-03-01 19:50:00","55806","2.062","221.1","3.463","235.1","1023.61","13.39","87.4","0.0","0.0"],
    [1509310,"2026-03-01 20:00:00","55807","2.234","220.8","3.985","217.3","1023.622","13.38","87.0","0.0","0.0"],
    [1509311,"2026-03-01 20:10:00","55808","1.7730000000000001","220.9","3.201","224.5","1023.688","13.39","86.6","0.0","0.0"],
    [1509312,"2026-03-01 20:20:00","55809","1.0270000000000001","245.4","2.123","260.3","1023.757","13.33","86.6","0.0","0.0"],
    [1509313,"2026-03-01 20:30:00","55810","1.3259999999999998","237.9","2.352","252.8","1023.753","13.18","86.7","0.0","0.0"],
    [1509314,"2026-03-01 20:40:00","55811","1.038","236.6","2.123","237.9","1023.774","13.13","86.6","0.0","0.0"],
    [1509315,"2026-03-01 20:50:00","55812","0.763","241.3","1.7309999999999999","262.6","1023.725","13.06","86.8","0.0","0.0"],
    [1509316,"2026-03-01 21:00:00","55813","1.244","258.9","1.8619999999999999","281.0","1023.727","12.85","86.9","0.0","0.0"],
    [1509317,"2026-03-01 21:10:00","55814","1.186","255.5","2.0580000000000003","261.7","1023.791","12.55","86.7","0.0","0.0"],
    [1509318,"2026-03-01 21:20:00","55815","0.583","246.5","1.568","259.7","1023.776","12.51","86.3","0.0","0.0"],
    [1509319,"2026-03-01 21:30:00","55816","0.8640000000000001","252.4","1.8619999999999999","253.2","1023.764","12.45","85.9","0.0","0.0"],
    [1509320,"2026-03-01 21:40:00","55817","1.046","253.7","1.96","247.3","1023.742","12.45","85.2","0.0","0.0"],
    [1509321,"2026-03-01 21:50:00","55818","0.8590000000000001","238.5","1.96","247.3","1023.701","12.42","84.5","0.0","0.0"],
    [1509322,"2026-03-01 22:00:00","55819","0.785","243.4","1.568","251.3","1023.678","12.39","83.9","0.0","0.0"],
    [1509323,"2026-03-01 22:10:00","55820","0.809","240.0","1.4369999999999998","242.4","1023.614","12.43","83.4","0.0","0.0"],
    [1509324,"2026-03-01 22:20:00","55821","0.8370000000000001","252.6","1.568","268.7","1023.612","12.41","82.8","0.0","0.0"],
    [1509325,"2026-03-01 22:30:00","55822","1.246","263.7","1.633","257.0","1023.581","12.33","82.5","0.0","0.0"],
    [1509326,"2026-03-01 22:40:00","55823","1.3359999999999999","263.4","1.764","277.1","1023.499","12.31","82.4","0.0","0.0"],
    [1509327,"2026-03-01 22:50:00","55824","1.018","263.5","1.307","264.9","1023.452","12.29","82.4","0.0","0.0"],
    [1509328,"2026-03-01 23:00:00","55825","1.1640000000000001","274.1","1.666","280.8","1023.395","12.32","82.4","0.0","0.0"],
    [1509329,"2026-03-01 23:10:00","55826","1.238","272.4","1.895","287.7","1023.268","12.26","82.3","0.0","0.0"],
    [1509330,"2026-03-01 23:20:00","55827","0.935","257.2","1.4369999999999998","279.1","1023.152","12.21","82.5","0.0","0.0"],
    [1509331,"2026-03-01 23:30:00","55828","0.703","252.5","1.2409999999999999","243.3","1023.159","12.2","82.7","0.0","0.0"],
    [1509332,"2026-03-01 23:40:00","55829","0.295","225.2","0.523","227.3","1023.094","12.17","83.0","0.0","0.0"],
    [1509333,"2026-03-01 23:50:00","55830","0.665","257.4","0.98","261.4","1022.983","12.15","83.0","0.0","0.0"],
    [1509334,"2026-03-02 00:00:00","55831","0.972","269.1","1.274","277.5","1022.911","12.2","82.4","0.0","0.0"],
    [1509335,"2026-03-02 00:10:00","55832","1.082","254.4","1.405","266.7","1022.832","12.18","82.2","0.0","0.0"],
    [1509336,"2026-03-02 00:20:00","55833","0.726","243.1","1.47","254.4","1022.84","12.08","82.4","0.0","0.0"],
    [1509337,"2026-03-02 00:30:00","55834","0.769","243.4","1.9269999999999998","249.1","1022.769","11.89","82.7","0.0","0.0"],
    [1509338,"2026-03-02 00:40:00","55835","0.924","245.4","1.339","250.7","1022.712","11.66","83.2","0.0","0.0"],
    [1509339,"2026-03-02 00:50:00","55836","1.4180000000000001","255.0","1.9269999999999998","256.7","1022.618","11.4","83.7","0.0","0.0"],
    [1509340,"2026-03-02 01:00:00","55837","1.531","254.9","2.0909999999999997","254.5","1022.548","11.17","84.5","0.0","0.0"],
    [1509341,"2026-03-02 01:10:00","55838","2.03","256.4","2.352","256.9","1022.531","10.99","85.1","0.0","0.0"],
    [1509342,"2026-03-02 01:20:00","55839","1.7269999999999999","269.2","2.287","263.0","1022.437","11.02","85.8","0.0","0.0"],
    [1509343,"2026-03-02 01:30:00","55840","1.849","268.8","2.679","259.7","1022.347","10.98","86.0","0.0","0.0"],
    [1509344,"2026-03-02 01:40:00","55841","1.636","263.8","1.895","266.3","1022.258","11.01","86.6","0.0","0.0"],
    [1509345,"2026-03-02 01:50:00","55842","1.483","258.2","1.829","259.4","1022.153","11.09","86.4","0.0","0.0"],
    [1509346,"2026-03-02 02:00:00","55843","1.411","266.7","1.633","264.2","1021.995","11.27","86.1","0.0","0.0"],
    [1509347,"2026-03-02 02:10:00","55844","1.063","280.8","1.209","274.8","1021.814","11.37","85.7","0.0","0.0"],
    [1509348,"2026-03-02 02:20:00","55845","1.248","264.2","1.5030000000000001","256.9","1021.681","11.41","85.3","0.0","0.0"],
    [1509349,"2026-03-02 02:30:00","55846","1.651","258.7","2.94","263.5","1021.591","11.24","84.9","0.0","0.0"],
    [1509350,"2026-03-02 02:40:00","55847","2.0780000000000003","258.6","2.7439999999999998","265.5","1021.51","10.63","85.7","0.0","0.0"],
    [1509351,"2026-03-02 02:50:00","55848","1.839","256.3","2.515","258.0","1021.454","10.55","86.8","0.0","0.0"],
    [1509352,"2026-03-02 03:00:00","55849","2.385","258.5","2.842","264.3","1021.399","10.25","87.5","0.0","0.0"],
    [1509353,"2026-03-02 03:10:00","55850","1.6340000000000001","251.8","2.319","251.7","1021.316","10.44","88.4","0.0","0.0"],
    [1509354,"2026-03-02 03:20:00","55851","1.706","255.2","2.483","260.3","1021.237","10.3","88.3","0.0","0.0"],
    [1509355,"2026-03-02 03:30:00","55852","1.788","253.5","2.254","241.3","1021.166","10.25","88.3","0.0","0.0"],
    [1509356,"2026-03-02 03:40:00","55853","1.989","256.2","2.6460000000000004","265.5","1021.154","10.28","88.3","0.0","0.0"],
    [1509357,"2026-03-02 03:50:00","55854","2.117","256.7","2.613","257.2","1021.153","10.1","87.9","0.0","0.0"],
    [1509358,"2026-03-02 04:00:00","55855","2.33","259.9","2.9730000000000003","265.9","1021.142","9.93","88.1","0.0","0.0"],
    [1509359,"2026-03-02 04:10:00","55856","2.342","263.0","3.005","257.3","1021.124","9.76","88.6","0.0","0.0"],
    [1509360,"2026-03-02 04:20:00","55857","2.695","260.6","3.136","260.1","1021.085","9.49","89.3","0.0","0.0"],
    [1509361,"2026-03-02 04:30:00","55858","2.556","261.8","2.9730000000000003","265.5","1021.073","9.32","90.1","0.0","0.0"],
    [1509362,"2026-03-02 04:40:00","55859","2.6","260.9","2.907","261.0","1021.066","9.28","90.9","0.0","0.0"],
    [1509363,"2026-03-02 04:50:00","55860","2.267","263.4","2.7110000000000003","262.0","1021.028","9.41","91.3","0.0","0.0"],
    [1509364,"2026-03-02 05:00:00","55861","2.286","268.0","2.7769999999999997","265.7","1021.026","9.52","91.3","0.0","0.0"],
    [1509365,"2026-03-02 05:10:00","55862","2.467","262.5","2.875","262.3","1020.997","9.39","91.0","0.0","0.0"],
    [1509366,"2026-03-02 05:20:00","55863","2.226","260.6","2.5810000000000004","259.1","1021.015","9.56","90.9","0.0","0.0"],
    [1509367,"2026-03-02 05:30:00","55864","2.086","265.7","2.5810000000000004","261.3","1020.972","9.38","90.4","0.0","0.0"],
    [1509368,"2026-03-02 05:40:00","55865","1.952","269.1","2.254","263.0","1020.928","9.26","90.3","0.0","0.0"],
    [1509369,"2026-03-02 05:50:00","55866","2.356","266.5","2.9730000000000003","268.8","1020.848","9.19","90.3","0.0","0.0"],
    [1509370,"2026-03-02 06:00:00","55867","2.505","263.8","3.071","270.6","1020.885","9.02","90.3","0.0","0.0"],
    [1509371,"2026-03-02 06:10:00","55868","2.362","264.7","2.907","268.3","1020.885","9.07","90.4","0.0","0.0"],
    [1509372,"2026-03-02 06:20:00","55869","2.4530000000000003","258.6","2.94","266.3","1020.859","8.96","90.3","0.02","0.0"],
    [1509373,"2026-03-02 06:30:00","55870","2.291","257.6","3.136","262.1","1020.834","9.04","90.3","2.1519999999999997","0.0"],
    [1509374,"2026-03-02 06:40:00","55871","2.545","263.8","3.136","262.0","1020.858","8.95","89.8","11.98","0.0"],
    [1509375,"2026-03-02 06:50:00","55872","2.1430000000000002","259.0","3.071","267.0","1020.906","8.9","89.6","26.04","0.0"],
    [1509376,"2026-03-02 07:00:00","55873","2.23","262.4","2.679","266.0","1021.019","8.98","89.3","52.74","0.0"],
    [1509377,"2026-03-02 07:10:00","55874","2.464","268.7","3.005","267.9","1021.032","9.04","88.9","77.17","0.0"],
    [1509378,"2026-03-02 07:20:00","55875","2.015","267.0","2.6460000000000004","270.5","1021.108","9.39","88.5","104.6","0.0"],
    [1509379,"2026-03-02 07:30:00","55876","1.952","262.0","2.7110000000000003","263.3","1021.163","9.68","87.5","132.8","0.0"],
    [1509380,"2026-03-02 07:40:00","55877","1.815","257.9","2.254","255.7","1021.202","9.94","86.4","159.2","0.0"],
    [1509381,"2026-03-02 07:50:00","55878","1.556","259.7","2.319","259.1","1021.32","10.24","85.1","188.6","0.0"],
    [1509382,"2026-03-02 08:00:00","55879","1.178","268.4","1.895","282.3","1021.37","10.55","83.7","222.6","0.0"],
    [1509383,"2026-03-02 08:10:00","55880","1.08","264.2","1.568","290.1","1021.381","10.78","82.2","247.2","0.0"],
    [1509384,"2026-03-02 08:20:00","55881","0.198","268.3","1.078","281.9","1021.52","11.42","81.0","276.9","0.0"],
    [1509385,"2026-03-02 08:30:00","55882","0.0","0.0","0.0","0.0","1021.526","12.87","79.37","298.1","0.0"],
    [1509386,"2026-03-02 08:40:00","55883","0.0","0.0","0.0","0.0","1021.547","13.94","74.35","339.1","0.0"],
    [1509387,"2026-03-02 08:50:00","55884","0.0","0.0","0.0","0.0","1021.585","13.25","73.1","407.1","0.0"],
    [1509388,"2026-03-02 09:00:00","55885","0.0","0.0","0.0","0.0","1021.623","13.6","73.29","485.8","0.0"],
    [1509389,"2026-03-02 09:10:00","55886","0.414","85.6","1.274","89.4","1021.792","12.85","75.63","230.1","0.0"],
    [1509390,"2026-03-02 09:20:00","55887","1.135","86.3","1.535","81.7","1021.83","12.3","78.38","220.8","0.0"],
    [1509391,"2026-03-02 09:30:00","55888","0.805","79.43","1.666","75.06","1021.842","12.27","79.41","223.9","0.0"],
    [1509392,"2026-03-02 09:40:00","55889","0.895","70.06","1.4369999999999998","76.86","1021.883","12.34","79.32","236.9","0.0"],
    [1509393,"2026-03-02 09:50:00","55890","0.406","62.43","0.882","66.49","1021.883","12.64","79.0","273.6","0.0"],
    [1509394,"2026-03-02 10:00:00","55891","0.528","75.44","1.143","61.87","1021.851","12.91","78.56","301.7","0.0"],
    [1509395,"2026-03-02 10:10:00","55892","0.038","98.6","0.49","88.3","1021.888","13.02","78.27","276.8","0.0"],
    [1509396,"2026-03-02 10:20:00","55893","0.258","88.3","0.8490000000000001","91.3","1021.947","13.09","78.1","243.4","0.0"],
    [1509397,"2026-03-02 10:30:00","55894","0.319","104.5","1.143","93.6","1022.004","13.09","78.6","232.5","0.0"],
    [1509398,"2026-03-02 10:40:00","55895","0.0","0.0","0.0","0.0","1022.037","13.1","79.64","244.0","0.0"],
    [1509399,"2026-03-02 10:50:00","55896","0.0","0.0","0.0","0.0","1021.986","13.42","80.1","325.2","0.0"],
    [1509400,"2026-03-02 11:00:00","55897","0.0","0.0","0.0","0.0","1021.971","13.81","79.47","351.9","0.0"],
    [1509401,"2026-03-02 11:10:00","55898","1.004","70.81","1.764","71.85","1021.889","13.36","79.71","398.0","0.0"],
    [1509402,"2026-03-02 11:20:00","55899","1.5959999999999999","61.35","3.0380000000000003","52.18","1021.861","13.3","80.5","491.8","0.0"],
    [1509403,"2026-03-02 11:30:00","55900","2.3280000000000003","49.66","3.397","46.02","1021.731","13.09","81.3","536.2","0.0"],
    [1509404,"2026-03-02 11:40:00","55901","2.565","57.55","3.822","44.14","1021.577","13.21","81.8","689.8","0.0"],
    [1509405,"2026-03-02 11:50:00","55902","2.877","53.39","3.822","47.58","1021.412","13.12","82.3","712.9","0.0"],
    [1509406,"2026-03-02 12:00:00","55903","3.0269999999999997","59.6","4.1160000000000005","64.56","1021.243","13.1","82.7","707.3","0.0"],
    [1509407,"2026-03-02 12:10:00","55904","2.8960000000000004","52.58","4.051","50.88","1021.174","13.24","82.8","706.0","0.0"],
    [1509408,"2026-03-02 12:20:00","55905","3.495","66.11","4.312","74.08","1021.139","13.2","82.6","702.3","0.0"],
    [1509409,"2026-03-02 12:30:00","55906","3.392","71.15","4.508","73.47","1021.07","13.14","83.0","698.2","0.0"],
    [1509410,"2026-03-02 12:40:00","55907","3.28","69.59","4.508","73.16","1020.957","13.15","83.1","695.3","0.0"],
    [1509411,"2026-03-02 12:50:00","55908","3.275","77.83","4.247","84.8","1020.88","13.19","83.2","691.3","0.0"],
    [1509412,"2026-03-02 13:00:00","55909","1.412","86.5","3.5610000000000004","75.33","1020.817","13.77","82.9","659.1","0.0"],
    [1509413,"2026-03-02 13:10:00","55910","3.213","73.46","4.149","69.13","1020.7","13.4","81.7","663.0","0.0"],
    [1509414,"2026-03-02 13:20:00","55911","3.22","81.6","4.083","86.2","1020.568","13.35","82.2","673.1","0.0"],
    [1509415,"2026-03-02 13:30:00","55912","3.2760000000000002","93.1","4.704","92.1","1020.538","13.43","82.5","640.1","0.0"],
    [1509416,"2026-03-02 13:40:00","55913","3.4360000000000004","92.6","4.345","89.9","1020.391","13.4","83.2","628.5","0.0"],
    [1509417,"2026-03-02 13:50:00","55914","3.533","96.8","4.377","90.1","1020.272","13.44","83.4","612.7","0.0"],
    [1509418,"2026-03-02 14:00:00","55915","3.488","106.9","4.4430000000000005","101.1","1020.152","13.52","83.9","598.0","0.0"],
    [1509419,"2026-03-02 14:10:00","55916","3.3689999999999998","104.2","4.247","104.6","1020.111","13.5","84.7","568.6","0.0"],
    [1509420,"2026-03-02 14:20:00","55917","2.907","99.1","3.9530000000000003","93.5","1020.069","13.62","85.4","524.0","0.0"],
    [1509421,"2026-03-02 14:30:00","55918","3.122","102.4","3.9530000000000003","99.9","1020.007","13.56","85.4","444.5","0.0"],
    [1509422,"2026-03-02 14:40:00","55919","3.055","110.4","3.92","114.9","1019.961","13.68","85.3","409.7","0.0"],
    [1509423,"2026-03-02 14:50:00","55920","3.3819999999999997","117.6","4.181","112.3","1019.945","13.62","85.3","384.9","0.0"],
    [1509424,"2026-03-02 15:00:00","55921","3.534","114.5","4.312","116.7","1019.924","13.65","85.7","361.0","0.0"],
    [1509425,"2026-03-02 15:10:00","55922","3.3930000000000002","117.9","4.1160000000000005","110.7","1019.919","13.59","86.4","159.1","0.0"],
    [1509426,"2026-03-02 15:20:00","55923","3.417","129.6","4.279","131.6","1019.923","13.57","87.1","132.1","0.0"],
    [1509427,"2026-03-02 15:30:00","55924","3.2260000000000004","119.2","4.345","118.9","1019.821","13.61","87.7","141.4","0.0"],
    [1509428,"2026-03-02 15:40:00","55925","3.122","110.5","4.377","114.1","1019.716","13.63","88.3","152.0","0.0"],
    [1509429,"2026-03-02 15:50:00","55926","3.662","112.1","4.769","110.2","1019.551","13.65","88.7","155.4","0.0"],
    [1509430,"2026-03-02 16:00:00","55927","3.549","110.1","4.769","113.8","1019.487","13.64","89.1","147.1","0.0"],
    [1509431,"2026-03-02 16:10:00","55928","2.733","123.7","3.92","113.5","1019.591","13.65","88.9","128.8","0.0"],
    [1509432,"2026-03-02 16:20:00","55929","2.3569999999999998","120.2","3.234","126.1","1019.689","13.68","88.6","110.0","0.0"],
    [1509433,"2026-03-02 16:30:00","55930","2.536","112.2","3.332","111.3","1019.659","13.66","88.3","94.3","0.0"],
    [1509434,"2026-03-02 16:40:00","55931","2.376","109.9","3.071","111.0","1019.631","13.71","88.0","79.31","0.0"],
    [1509435,"2026-03-02 16:50:00","55932","2.461","114.6","3.136","128.2","1019.663","13.7","88.1","59.27","0.0"],
    [1509436,"2026-03-02 17:00:00","55933","2.4819999999999998","116.3","3.071","121.1","1019.627","13.61","87.7","45.08","0.0"],
    [1509437,"2026-03-02 17:10:00","55934","2.611","107.2","3.201","104.3","1019.625","13.68","87.0","32.51","0.0"],
    [1509438,"2026-03-02 17:20:00","55935","2.477","118.2","3.463","121.2","1019.731","13.68","87.2","19.03","0.0"],
    [1509439,"2026-03-02 17:30:00","55936","2.67","122.0","3.6910000000000003","120.4","1019.843","13.62","87.0","8.95","0.0"],
    [1509440,"2026-03-02 17:40:00","55937","2.87","130.2","3.92","138.5","1019.942","13.65","86.8","2.6910000000000003","0.0"],
    [1509441,"2026-03-02 17:50:00","55938","2.753","126.8","3.7569999999999997","118.5","1020.078","13.62","86.8","0.26899999999999996","0.0"],
    [1509442,"2026-03-02 18:00:00","55939","2.186","132.2","3.103","128.3","1020.19","13.67","86.8","0.0","0.0"],
    [1509443,"2026-03-02 18:10:00","55940","2.448","116.6","3.1689999999999996","105.7","1020.213","13.65","87.0","0.0","0.0"],
    [1509444,"2026-03-02 18:20:00","55941","2.5580000000000003","102.0","3.6910000000000003","104.8","1020.24","13.6","87.0","0.0","0.0"],
    [1509445,"2026-03-02 18:30:00","55942","2.696","101.0","3.7889999999999997","92.7","1020.312","13.58","86.9","0.0","0.0"],
    [1509446,"2026-03-02 18:40:00","55943","2.544","97.1","3.43","88.7","1020.394","13.59","86.9","0.0","0.0"],
    [1509447,"2026-03-02 18:50:00","55944","2.65","93.7","3.7569999999999997","95.6","1020.436","13.6","87.1","0.0","0.0"],
    [1509448,"2026-03-02 19:00:00","55945","2.6639999999999997","96.7","3.267","89.8","1020.501","13.58","87.2","0.0","0.0"],
    [1509449,"2026-03-02 19:10:00","55946","2.67","92.2","3.43","92.3","1020.559","13.56","87.3","0.0","0.0"],
    [1509450,"2026-03-02 19:20:00","55947","2.719","105.6","3.267","100.5","1020.67","13.56","87.3","0.0","0.0"],
    [1509451,"2026-03-02 19:30:00","55948","2.405","99.2","3.201","113.8","1020.68","13.55","87.5","0.0","0.0"],
    [1509452,"2026-03-02 19:40:00","55949","2.4930000000000003","86.4","3.299","89.0","1020.682","13.56","87.6","0.0","0.0"],
    [1509453,"2026-03-02 19:50:00","55950","2.543","85.1","3.299","91.1","1020.736","13.59","88.0","0.0","0.0"],
    [1509454,"2026-03-02 20:00:00","55951","2.764","83.8","3.593","85.1","1020.719","13.52","88.2","0.0","0.0"],
    [1509455,"2026-03-02 20:10:00","55952","2.6310000000000002","71.86","3.528","62.56","1020.731","13.56","88.5","0.0","0.0"],
    [1509456,"2026-03-02 20:20:00","55953","2.864","70.19","3.7239999999999998","76.68","1020.782","13.49","88.7","0.0","0.0"],
    [1509457,"2026-03-02 20:30:00","55954","3.0469999999999997","64.06","4.312","58.15","1020.841","13.48","88.7","0.0","0.0"],
    [1509458,"2026-03-02 20:40:00","55955","3.32","57.21","4.606","52.74","1020.885","13.49","88.7","0.0","0.0"],
    [1509459,"2026-03-02 20:50:00","55956","2.766","53.51","3.985","45.36","1020.983","13.55","88.7","0.0","0.0"],
    [1509460,"2026-03-02 21:00:00","55957","3.138","48.66","4.606","57.73","1021.071","13.51","88.6","0.0","0.0"],
    [1509461,"2026-03-02 21:10:00","55958","3.154","49.58","4.377","59.24","1021.105","13.53","88.4","0.0","0.0"],
    [1509462,"2026-03-02 21:20:00","55959","3.253","41.67","4.835","46.58","1021.03","13.52","88.2","0.0","0.0"],
    [1509463,"2026-03-02 21:30:00","55960","3.574","56.49","4.998","55.38","1021.108","13.52","88.0","0.0","0.0"],
    [1509464,"2026-03-02 21:40:00","55961","3.7960000000000003","58.68","4.9","51.67","1021.201","13.47","87.7","0.0","0.0"],
    [1509465,"2026-03-02 21:50:00","55962","3.667","57.81","5.227","62.61","1021.21","13.51","87.8","0.0","0.0"],
    [1509466,"2026-03-02 22:00:00","55963","4.075","52.36","5.422999999999999","53.37","1021.127","13.45","87.9","0.0","0.0"],
    [1509467,"2026-03-02 22:10:00","55964","4.0360000000000005","54.45","5.847","58.3","1021.124","13.47","87.4","0.0","0.0"],
    [1509468,"2026-03-02 22:20:00","55965","4.138999999999999","50.05","5.455","54.75","1021.091","13.5","87.5","0.0","0.0"],
    [1509469,"2026-03-02 22:30:00","55966","4.0760000000000005","46.77","5.945","36.13","1021.082","13.5","87.6","0.0","0.0"],
    [1509470,"2026-03-02 22:40:00","55967","4.433","47.55","5.945","46.22","1021.053","13.5","87.8","0.0","0.0"],
    [1509471,"2026-03-02 22:50:00","55968","5.022","36.31","6.305","38.14","1020.959","13.48","87.5","0.0","0.0"],
    [1509472,"2026-03-02 23:00:00","55969","5.129","35.16","6.599","37.28","1020.984","13.5","87.6","0.0","0.0"],
    [1509473,"2026-03-02 23:10:00","55970","5.292999999999999","36.76","6.566","45.93","1020.994","13.51","88.2","0.0","0.0"],
    [1509474,"2026-03-02 23:20:00","55971","5.564","40.95","6.9910000000000005","37.49","1020.955","13.49","88.4","0.0","0.0"],
    [1509475,"2026-03-02 23:30:00","55972","5.4910000000000005","42.68","6.795","46.89","1021.028","13.46","88.3","0.0","0.0"],
    [1509476,"2026-03-02 23:40:00","55973","4.956","26.5","6.631","28.15","1021.097","13.43","88.5","0.0","0.0"],
    [1509477,"2026-03-02 23:50:00","55974","5.502000000000001","28.42","6.468","31.18","1021.071","13.34","88.8","0.0","0.0"],
    [1509478,"2026-03-03 00:00:00","55975","5.412000000000001","28.53","6.566","27.21","1021.056","13.31","89.0","0.0","0.0"],
    [1509479,"2026-03-03 00:10:00","55976","5.843","28.97","6.729","28.02","1020.992","13.26","88.9","0.0","0.0"],
    [1509480,"2026-03-03 00:20:00","55977","6.2410000000000005","27.97","7.0889999999999995","30.55","1020.963","13.26","88.8","0.0","0.0"],
    [1509481,"2026-03-03 00:30:00","55978","6.138","28.41","7.0889999999999995","29.94","1021.014","13.25","88.7","0.0","0.0"],
    [1509482,"2026-03-03 00:40:00","55979","5.721","28.52","6.957999999999999","19.62","1021.138","13.24","88.3","0.0","0.0"],
    [1509483,"2026-03-03 00:50:00","55980","5.646","32.8","7.121","25.07","1021.105","13.3","88.5","0.0","0.0"],
    [1509484,"2026-03-03 01:00:00","55981","6.292999999999999","30.05","7.6770000000000005","26.79","1020.971","13.24","88.8","0.0","0.0"],
    [1509485,"2026-03-03 01:10:00","55982","6.312","33.15","8.04","24.08","1020.872","13.29","89.3","0.0","0.0"],
    [1509486,"2026-03-03 01:20:00","55983","6.791","37.72","8.36","39.27","1020.861","13.23","89.4","0.0","0.0"],
    [1509487,"2026-03-03 01:30:00","55984","6.433","39.52","7.775","38.72","1020.919","13.27","88.9","0.0","0.0"],
    [1509488,"2026-03-03 01:40:00","55985","6.127000000000001","37.64","7.807","40.0","1020.948","13.26","88.2","0.0","0.0"],
    [1509489,"2026-03-03 01:50:00","55986","6.29","37.07","8.36","42.22","1020.872","13.27","87.3","0.0","0.0"],
    [1509490,"2026-03-03 02:00:00","55987","5.98","37.55","7.905","39.69","1020.857","13.28","86.7","0.0","0.0"],
    [1509491,"2026-03-03 02:10:00","55988","5.735","39.99","7.285","39.95","1020.953","13.31","86.5","0.0","0.0"],
    [1509492,"2026-03-03 02:20:00","55989","5.375","41.49","8.23","57.97","1021.024","13.31","86.2","0.0","0.0"],
    [1509493,"2026-03-03 02:30:00","55990","5.795","39.7","7.611000000000001","45.64","1021.005","13.27","85.4","0.0","0.0"],
    [1509494,"2026-03-03 02:40:00","55991","6.807","39.73","8.62","43.71","1020.843","13.34","83.1","0.0","0.0"],
    [1509495,"2026-03-03 02:50:00","55992","6.542000000000001","31.98","8.0","37.18","1020.78","13.38","81.3","0.0","0.0"],
    [1509496,"2026-03-03 03:00:00","55993","6.382000000000001","28.06","7.807","31.65","1020.845","13.39","80.1","0.0","0.0"],
    [1509497,"2026-03-03 03:10:00","55994","4.855","15.85","6.9910000000000005","1.426","1020.905","13.42","79.67","0.0","0.0"],
    [1509498,"2026-03-03 03:20:00","55995","4.835","7.501","6.664","2.026","1020.946","13.32","78.89","0.0","0.0"],
    [1509499,"2026-03-03 03:30:00","55996","5.297999999999999","7.8389999999999995","7.023","18.3","1020.825","13.35","78.58","0.0","0.0"],
    [1509500,"2026-03-03 03:40:00","55997","5.686","12.5","7.023","8.75","1020.89","13.42","78.29","0.0","0.0"],
    [1509501,"2026-03-03 03:50:00","55998","5.695","8.76","7.611000000000001","11.04","1020.977","13.45","78.31","0.0","0.0"],
    [1509502,"2026-03-03 04:00:00","55999","5.292999999999999","10.66","6.925","10.16","1021.13","13.45","78.31","0.0","0.0"],
    [1509503,"2026-03-03 04:10:00","56000","6.135","12.89","7.6770000000000005","10.84","1021.012","13.42","78.96","0.0","0.0"],
    [1509504,"2026-03-03 04:20:00","56001","5.922999999999999","14.19","7.285","6.775","1020.941","13.37","79.98","0.0","0.0"],
    [1509505,"2026-03-03 04:30:00","56002","5.886","15.55","7.4479999999999995","17.37","1020.859","13.31","80.5","0.0","0.0"],
    [1509506,"2026-03-03 04:40:00","56003","5.267","12.65","7.0889999999999995","12.25","1020.914","13.33","80.9","0.0","0.0"],
    [1509507,"2026-03-03 04:50:00","56004","5.035","13.38","6.501","11.33","1021.038","13.28","81.0","0.0","0.0"],
    [1509508,"2026-03-03 05:00:00","56005","4.95","13.79","5.978","11.22","1020.941","13.25","81.8","0.0","0.0"],
    [1509509,"2026-03-03 05:10:00","56006","4.333","17.4","5.586","27.29","1021.03","13.32","81.8","0.0","0.0"],
    [1509510,"2026-03-03 05:20:00","56007","4.12","5.912000000000001","5.227","11.98","1021.134","13.31","81.6","0.0","0.0"],
    [1509511,"2026-03-03 05:30:00","56008","3.513","3.4819999999999998","4.965","5.64","1021.084","13.24","80.7","0.0","0.0"],
    [1509512,"2026-03-03 05:40:00","56009","3.95","12.18","5.39","8.83","1021.059","13.35","80.5","0.0","0.0"],
    [1509513,"2026-03-03 05:50:00","56010","4.266","15.08","5.586","15.48","1021.004","13.43","80.1","0.0","0.0"],
    [1509514,"2026-03-03 06:00:00","56011","4.584","11.45","5.586","13.42","1021.014","13.48","79.87","0.0","0.0"],
    [1509515,"2026-03-03 06:10:00","56012","4.511","9.38","5.912999999999999","9.77","1021.022","13.54","79.63","0.0","0.0"],
    [1509516,"2026-03-03 06:20:00","56013","4.261","8.23","6.042999999999999","356.3","1020.918","13.7","78.51","0.017","0.0"],
    [1509517,"2026-03-03 06:30:00","56014","5.34","17.44","6.664","12.61","1020.803","13.83","77.72","0.544","0.0"],
    [1509518,"2026-03-03 06:40:00","56015","5.396","20.01","7.938","26.03","1020.81","13.96","77.22","1.683","0.0"],
    [1509519,"2026-03-03 06:50:00","56016","5.285","21.31","6.893","20.55","1020.831","14.04","76.51","4.962","0.0"],
    [1509520,"2026-03-03 07:00:00","56017","6.251","20.91","9.38","30.66","1020.812","14.13","76.45","12.97","0.0"],
    [1509521,"2026-03-03 07:10:00","56018","5.91","19.78","8.46","31.25","1020.853","14.2","76.2","21.77","0.0"],
    [1509522,"2026-03-03 07:20:00","56019","6.402","23.11","8.46","27.02","1020.795","14.24","76.45","29.53","0.0"],
    [1509523,"2026-03-03 07:30:00","56020","5.103","15.82","7.187","21.17","1020.802","14.23","75.97","39.66","0.0"],
    [1509524,"2026-03-03 07:40:00","56021","5.311","16.56","8.13","16.42","1020.802","14.21","76.55","39.56","0.0"],
    [1509525,"2026-03-03 07:50:00","56022","5.562","19.55","8.07","23.9","1020.856","14.32","76.05","49.16","0.0"],
    [1509526,"2026-03-03 08:00:00","56023","5.438","26.95","6.664","25.56","1020.918","14.46","75.09","57.67","0.0"],
    [1509527,"2026-03-03 08:10:00","56024","6.077999999999999","30.03","7.546","27.32","1020.991","14.58","74.79","79.14","0.0"],
    [1509528,"2026-03-03 08:20:00","56025","7.0920000000000005","39.38","9.21","32.54","1021.029","14.77","77.74","101.2","0.0"],
    [1509529,"2026-03-03 08:30:00","56026","7.907","37.38","11.53","37.45","1021.01","14.73","80.4","115.1","0.0"],
    [1509530,"2026-03-03 08:40:00","56027","8.6","38.77","10.98","33.33","1021.061","14.74","80.4","114.3","0.0"],
    [1509531,"2026-03-03 08:50:00","56028","8.67","39.01","11.79","46.95","1021.149","14.7","80.6","128.7","0.0"],
    [1509532,"2026-03-03 09:00:00","56029","8.79","38.65","10.85","41.9","1021.147","14.66","80.7","163.9","0.0"],
    [1509533,"2026-03-03 09:10:00","56030","8.16","36.53","10.68","36.88","1021.122","14.62","81.6","217.9","0.0"],
    [1509534,"2026-03-03 09:20:00","56031","7.746","34.18","10.36","38.03","1021.135","14.62","81.9","263.9","0.0"],
    [1509535,"2026-03-03 09:30:00","56032","7.984","32.63","10.65","37.35","1021.201","14.63","82.2","289.1","0.0"],
    [1509536,"2026-03-03 09:40:00","56033","7.527","36.72","9.83","44.85","1021.378","14.69","82.5","282.8","0.0"],
    [1509537,"2026-03-03 09:50:00","56034","8.41","38.89","10.03","40.07","1021.474","14.72","82.7","261.1","0.0"],
    [1509538,"2026-03-03 10:00:00","56035","8.47","43.3","11.01","48.5","1021.479","14.75","84.1","273.8","0.0"],
    [1509539,"2026-03-03 10:10:00","56036","8.08","46.5","10.39","47.61","1021.569","14.75","84.6","290.2","0.0"],
    [1509540,"2026-03-03 10:20:00","56037","8.89","45.46","11.43","46.83","1021.586","14.76","84.7","366.0","0.0"],
    [1509541,"2026-03-03 10:30:00","56038","10.0","41.06","12.94","36.95","1021.564","14.72","84.8","380.9","0.0"],
    [1509542,"2026-03-03 10:40:00","56039","9.93","34.79","13.2","37.43","1021.556","14.7","84.0","373.9","0.0"],
    [1509543,"2026-03-03 10:50:00","56040","10.48","38.15","13.23","42.21","1021.526","14.65","83.6","385.9","0.0"],
    [1509544,"2026-03-03 11:00:00","56041","11.14","39.93","14.28","36.69","1021.537","14.68","83.5","349.8","0.0"],
    [1509545,"2026-03-03 11:10:00","56042","10.24","37.15","14.24","33.25","1021.705","14.71","83.8","417.3","0.0"],
    [1509546,"2026-03-03 11:20:00","56043","9.8","42.38","13.0","44.27","1021.793","14.75","84.2","355.9","0.0"],
    [1509547,"2026-03-03 11:30:00","56044","9.8","40.17","11.56","41.58","1021.786","14.74","84.4","338.6","0.0"],
    [1509548,"2026-03-03 11:40:00","56045","10.25","39.93","12.35","36.09","1021.758","14.76","84.6","322.9","0.0"],
    [1509549,"2026-03-03 11:50:00","56046","10.2","39.14","12.94","36.61","1021.761","14.74","84.8","303.3","0.0"],
    [1509550,"2026-03-03 12:00:00","56047","9.74","37.73","12.25","39.12","1021.697","14.75","84.8","345.1","0.0"],
    [1509551,"2026-03-03 12:10:00","56048","9.31","36.67","12.45","42.15","1021.667","14.75","85.0","342.9","0.0"],
    [1509552,"2026-03-03 12:20:00","56049","9.88","36.25","13.13","40.14","1021.526","14.76","84.8","466.6","0.0"],
    [1509553,"2026-03-03 12:30:00","56050","9.89","34.56","12.25","36.57","1021.434","14.81","84.7","419.9","0.0"],
    [1509554,"2026-03-03 12:40:00","56051","9.43","32.74","11.53","34.5","1021.362","14.78","85.1","341.7","0.0"],
    [1509555,"2026-03-03 12:50:00","56052","9.78","30.87","11.89","31.5","1021.256","14.79","85.4","358.4","0.0"],
    [1509556,"2026-03-03 13:00:00","56053","9.48","32.08","11.96","33.82","1021.119","14.79","85.7","281.7","0.0"],
    [1509557,"2026-03-03 13:10:00","56054","9.81","33.95","12.51","33.84","1020.974","14.78","85.8","251.5","0.0"],
    [1509558,"2026-03-03 13:20:00","56055","9.96","31.1","13.13","32.59","1020.78","14.76","86.2","303.6","0.0"],
    [1509559,"2026-03-03 13:30:00","56056","9.76","30.23","11.96","27.24","1020.652","14.78","86.6","337.8","0.0"],
    [1509560,"2026-03-03 13:40:00","56057","9.54","29.54","11.43","32.38","1020.555","14.88","86.0","405.3","0.0"],
    [1509561,"2026-03-03 13:50:00","56058","9.96","29.69","12.22","29.99","1020.377","15.03","84.3","331.9","0.0"],
    [1509562,"2026-03-03 14:00:00","56059","9.84","29.95","12.15","32.6","1020.255","15.18","82.6","567.6","0.0"],
    [1509563,"2026-03-03 14:10:00","56060","9.91","30.54","12.81","29.36","1020.193","15.32","80.2","533.2","0.0"],
    [1509564,"2026-03-03 14:20:00","56061","9.43","30.34","11.63","28.71","1020.223","15.32","79.66","421.7","0.0"],
    [1509565,"2026-03-03 14:30:00","56062","9.64","33.0","13.0","29.65","1020.139","15.47","77.81","321.5","0.0"],
    [1509566,"2026-03-03 14:40:00","56063","10.65","30.81","12.58","22.83","1020.016","15.59","75.79","222.9","0.0"],
    [1509567,"2026-03-03 14:50:00","56064","9.67","38.89","13.52","48.41","1020.137","15.44","77.4","193.3","0.0"],
    [1509568,"2026-03-03 15:00:00","56065","10.22","41.98","12.97","46.15","1020.103","15.4","75.89","186.9","0.0"],
    [1509569,"2026-03-03 15:10:00","56066","9.92","41.94","11.79","44.26","1020.02","15.43","75.77","186.0","0.0"],
    [1509570,"2026-03-03 15:20:00","56067","9.37","44.33","11.79","44.17","1020.071","15.42","75.92","177.0","0.0"],
    [1509571,"2026-03-03 15:30:00","56068","8.53","47.43","11.73","53.99","1020.069","15.39","77.35","165.5","0.0"],
    [1509572,"2026-03-03 15:40:00","56069","9.03","45.62","12.12","40.82","1019.933","15.34","78.47","146.1","0.0"],
    [1509573,"2026-03-03 15:50:00","56070","8.78","45.08","11.17","46.91","1019.841","15.3","79.76","138.1","0.0"],
    [1509574,"2026-03-03 16:00:00","56071","8.41","47.12","11.11","60.55","1019.813","15.3","80.5","119.7","0.0"],
    [1509575,"2026-03-03 16:10:00","56072","9.09","44.36","12.18","51.11","1019.713","15.35","80.3","117.7","0.0"],
    [1509576,"2026-03-03 16:20:00","56073","8.69","47.23","10.98","46.0","1019.75","15.34","80.3","118.8","0.0"],
    [1509577,"2026-03-03 16:30:00","56074","9.05","44.67","12.05","43.8","1019.705","15.33","79.27","97.4","0.0"],
    [1509578,"2026-03-03 16:40:00","56075","8.56","46.96","11.07","48.3","1019.733","15.32","78.93","85.6","0.0"],
    [1509579,"2026-03-03 16:50:00","56076","8.21","48.79","10.75","55.0","1019.751","15.3","79.4","78.33","0.0"],
    [1509580,"2026-03-03 17:00:00","56077","9.02","45.57","11.73","52.55","1019.731","15.26","80.5","63.85","0.0"],
    [1509581,"2026-03-03 17:10:00","56078","8.31","43.2","10.98","43.04","1019.869","15.22","81.1","46.57","0.0"],
    [1509582,"2026-03-03 17:20:00","56079","8.07","42.15","10.55","41.92","1019.997","15.18","81.2","36.11","0.0"],
    [1509583,"2026-03-03 17:30:00","56080","8.08","36.3","10.06","33.25","1019.988","15.15","81.7","16.98","0.0"],
    [1509584,"2026-03-03 17:40:00","56081","7.394","35.09","9.83","17.37","1019.962","15.18","81.7","2.353","0.0"],
    [1509585,"2026-03-03 17:50:00","56082","8.11","40.32","9.93","44.82","1019.918","15.23","80.8","0.0","0.0"],
    [1509586,"2026-03-03 18:00:00","56083","6.711","36.44","8.75","41.65","1020.078","15.29","79.88","0.0","0.0"],
    [1509587,"2026-03-03 18:10:00","56084","8.03","31.25","11.96","32.55","1020.148","15.38","77.89","0.0","0.0"],
    [1509588,"2026-03-03 18:20:00","56085","9.49","30.76","11.56","35.84","1020.161","15.56","73.85","0.0","0.0"],
    [1509589,"2026-03-03 18:30:00","56086","9.03","32.3","10.78","29.22","1020.308","15.49","74.08","0.0","0.0"],
    [1509590,"2026-03-03 18:40:00","56087","8.11","34.59","10.32","38.66","1020.464","15.42","74.41","0.0","0.0"],
    [1509591,"2026-03-03 18:50:00","56088","5.973","37.71","8.13","36.75","1020.626","15.2","77.52","0.0","0.0"],
    [1509592,"2026-03-03 19:00:00","56089","6.6739999999999995","48.58","9.54","38.65","1020.686","15.04","79.75","0.0","0.0"],
    [1509593,"2026-03-03 19:10:00","56090","8.08","56.96","11.37","50.56","1020.764","14.87","82.2","0.0","0.0"],
    [1509594,"2026-03-03 19:20:00","56091","9.5","57.71","12.74","59.49","1020.729","14.64","84.8","0.0","0.0"],
    [1509595,"2026-03-03 19:30:00","56092","8.88","53.6","13.26","55.29","1020.69","14.53","86.1","0.0","0.0"],
    [1509596,"2026-03-03 19:40:00","56093","9.4","54.75","13.79","62.79","1020.715","14.48","86.1","0.0","0.0"],
    [1509597,"2026-03-03 19:50:00","56094","8.8","55.25","12.41","67.43","1020.85","14.45","86.2","0.0","0.0"],
    [1509598,"2026-03-03 20:00:00","56095","8.52","52.5","13.88","64.25","1020.858","14.44","86.6","0.0","0.0"],
    [1509599,"2026-03-03 20:10:00","56096","8.25","42.71","12.22","63.7","1020.897","14.46","86.7","0.0","0.0"],
    [1509600,"2026-03-03 20:20:00","56097","8.94","34.42","12.22","36.07","1020.921","14.51","86.0","0.0","0.0"],
    [1509601,"2026-03-03 20:30:00","56098","9.99","33.75","13.03","36.41","1021.005","14.56","85.3","0.0","0.0"],
    [1509602,"2026-03-03 20:40:00","56099","10.91","33.41","14.05","34.95","1020.96","14.69","83.6","0.0","0.0"],
    [1509603,"2026-03-03 20:50:00","56100","12.05","32.8","14.83","27.48","1020.973","14.92","80.3","0.0","0.0"],
    [1509604,"2026-03-03 21:00:00","56101","11.85","32.53","14.41","31.05","1020.968","14.97","78.78","0.0","0.0"],
    [1509605,"2026-03-03 21:10:00","56102","11.63","32.95","14.44","31.53","1020.988","14.92","79.24","0.0","0.0"],
    [1509606,"2026-03-03 21:20:00","56103","11.02","33.59","13.72","30.69","1021.037","14.91","79.79","0.0","0.0"],
    [1509607,"2026-03-03 21:30:00","56104","10.16","33.06","13.36","41.08","1021.17","14.86","80.6","0.0","0.0"],
    [1509608,"2026-03-03 21:40:00","56105","9.86","32.97","12.41","34.79","1021.183","14.86","80.9","0.0","0.0"],
    [1509609,"2026-03-03 21:50:00","56106","9.66","32.33","13.07","30.08","1021.151","14.84","81.5","0.0","0.0"],
    [1509610,"2026-03-03 22:00:00","56107","8.63","31.02","11.01","24.87","1021.214","14.81","82.2","0.0","0.0"],
    [1509611,"2026-03-03 22:10:00","56108","7.232","33.11","9.96","29.15","1021.319","14.83","82.6","0.0","0.0"],
    [1509612,"2026-03-03 22:20:00","56109","6.226","43.42","8.72","61.13","1021.314","14.75","84.4","0.0","0.0"],
    [1509613,"2026-03-03 22:30:00","56110","7.473","47.7","9.83","58.5","1021.237","14.65","86.0","0.0","0.0"],
    [1509614,"2026-03-03 22:40:00","56111","8.62","46.2","11.63","46.33","1021.138","14.56","86.9","0.0","0.0"],
    [1509615,"2026-03-03 22:50:00","56112","8.17","45.3","10.62","48.03","1021.172","14.54","87.2","0.0","0.0"],
    [1509616,"2026-03-03 23:00:00","56113","8.62","46.0","10.88","47.12","1021.186","14.55","86.5","0.0","0.0"],
    [1509617,"2026-03-03 23:10:00","56114","8.91","45.47","11.56","53.17","1021.216","14.69","84.0","0.0","0.0"],
    [1509618,"2026-03-03 23:20:00","56115","8.94","43.68","11.37","48.79","1021.122","14.7","83.1","0.0","0.0"],
    [1509619,"2026-03-03 23:30:00","56116","9.26","42.18","11.2","39.48","1020.983","14.71","82.7","0.0","0.0"],
    [1509620,"2026-03-03 23:40:00","56117","9.11","41.63","11.53","38.73","1020.93","14.69","82.6","0.0","0.0"],
    [1509621,"2026-03-03 23:50:00","56118","9.19","41.15","11.47","41.0","1020.866","14.7","82.2","0.0","0.0"],
    [1509622,"2026-03-04 00:00:00","56119","9.85","41.28","12.81","46.18","1020.799","14.75","81.4","0.0","0.0"],
    [1509623,"2026-03-04 00:10:00","56120","10.05","41.84","12.35","36.09","1020.704","14.82","79.96","0.0","0.0"],
    [1509624,"2026-03-04 00:20:00","56121","9.93","37.84","13.75","38.91","1020.579","14.78","80.2","0.0","0.0"],
    [1509625,"2026-03-04 00:30:00","56122","10.56","39.63","13.07","42.18","1020.471","14.82","79.51","0.0","0.0"],
    [1509626,"2026-03-04 00:40:00","56123","10.89","38.94","13.56","40.62","1020.363","14.91","78.04","0.0","0.0"],
    [1509627,"2026-03-04 00:50:00","56124","9.97","38.87","12.77","35.46","1020.378","14.96","77.46","0.0","0.0"],
    [1509628,"2026-03-04 01:00:00","56125","9.48","37.73","12.48","41.22","1020.358","14.86","78.42","0.0","0.0"],
    [1509629,"2026-03-04 01:10:00","56126","8.55","35.21","12.38","35.6","1020.26","14.89","77.74","0.0","0.0"],
    [1509630,"2026-03-04 01:20:00","56127","8.65","34.57","11.4","39.04","1020.178","14.93","76.41","0.0","0.0"],
    [1509631,"2026-03-04 01:30:00","56128","8.67","32.94","11.07","27.68","1020.089","15.02","74.6","0.0","0.0"],
    [1509632,"2026-03-04 01:40:00","56129","7.877999999999999","33.24","9.6","32.93","1020.044","15.02","74.42","0.0","0.0"],
    [1509633,"2026-03-04 01:50:00","56130","8.52","37.54","10.81","35.03","1019.924","15.03","74.67","0.0","0.0"],
    [1509634,"2026-03-04 02:00:00","56131","8.71","37.84","11.14","40.48","1019.886","14.98","74.7","0.0","0.0"],
    [1509635,"2026-03-04 02:10:00","56132","8.14","42.94","11.07","53.17","1019.898","14.94","75.13","0.0","0.0"],
    [1509636,"2026-03-04 02:20:00","56133","8.49","43.65","10.88","46.72","1019.806","14.83","77.41","0.0","0.0"],
    [1509637,"2026-03-04 02:30:00","56134","9.55","41.08","11.92","32.85","1019.756","14.75","78.8","0.0","0.0"],
    [1509638,"2026-03-04 02:40:00","56135","10.02","40.94","12.32","40.88","1019.678","14.73","78.88","0.0","0.0"],
    [1509639,"2026-03-04 02:50:00","56136","10.19","40.02","12.58","35.41","1019.65","14.75","78.8","0.0","0.0"],
    [1509640,"2026-03-04 03:00:00","56137","10.56","40.44","14.18","39.2","1019.666","14.73","79.16","0.0","0.0"],
    [1509641,"2026-03-04 03:10:00","56138","10.81","39.4","13.1","44.19","1019.632","14.79","78.83","0.0","0.0"],
    [1509642,"2026-03-04 03:20:00","56139","10.21","41.48","12.48","37.19","1019.635","14.79","79.24","0.0","0.0"],
    [1509643,"2026-03-04 03:30:00","56140","9.89","41.75","12.58","44.92","1019.65","14.76","79.52","0.0","0.0"],
    [1509644,"2026-03-04 03:40:00","56141","10.3","39.24","13.1","40.14","1019.637","14.77","79.56","0.0","0.0"],
    [1509645,"2026-03-04 03:50:00","56142","10.02","37.83","12.71","41.4","1019.582","14.76","80.2","0.0","0.0"],
    [1509646,"2026-03-04 04:00:00","56143","10.19","32.79","14.6","38.31","1019.489","14.76","80.7","0.0","0.0"],
    [1509647,"2026-03-04 04:10:00","56144","10.36","33.07","13.69","39.6","1019.439","14.81","81.2","0.0","0.0"],
    [1509648,"2026-03-04 04:20:00","56145","10.35","35.74","14.67","42.65","1019.523","14.8","81.8","0.0","0.0"],
    [1509649,"2026-03-04 04:30:00","56146","10.63","37.17","14.41","40.66","1019.557","14.8","81.8","0.0","0.0"],
    [1509650,"2026-03-04 04:40:00","56147","9.98","36.04","13.0","36.72","1019.633","14.8","82.0","0.0","0.0"],
    [1509651,"2026-03-04 04:50:00","56148","10.15","37.22","14.18","40.68","1019.581","14.82","82.1","0.0","0.0"],
    [1509652,"2026-03-04 05:00:00","56149","10.61","30.78","13.65","29.7","1019.506","14.82","81.7","0.0","0.0"],
    [1509653,"2026-03-04 05:10:00","56150","10.64","30.64","13.62","33.43","1019.497","14.8","81.7","0.0","0.0"],
    [1509654,"2026-03-04 05:20:00","56151","10.59","31.08","13.3","35.26","1019.489","14.77","82.1","0.0","0.0"],
    [1509655,"2026-03-04 05:30:00","56152","9.55","35.6","12.28","46.91","1019.482","14.71","83.0","0.0","0.0"],
    [1509656,"2026-03-04 05:40:00","56153","10.26","37.52","13.07","32.28","1019.52","14.64","84.2","0.0","0.0"],
    [1509657,"2026-03-04 05:50:00","56154","10.27","40.19","13.3","42.65","1019.66","14.65","84.7","0.0","0.0"],
    [1509658,"2026-03-04 06:00:00","56155","10.33","39.31","13.16","38.26","1019.73","14.59","85.2","0.0","0.0"],
    [1509659,"2026-03-04 06:10:00","56156","10.22","35.65","13.85","41.19","1019.817","14.59","85.0","0.0","0.0"],
    [1509660,"2026-03-04 06:20:00","56157","9.91","37.82","13.03","40.69","1019.778","14.6","84.9","0.44","0.0"],
    [1509661,"2026-03-04 06:30:00","56158","10.79","38.83","14.05","39.83","1019.68","14.59","85.2","3.273","0.0"],
    [1509662,"2026-03-04 06:40:00","56159","10.17","37.31","13.52","37.27","1019.722","14.59","85.5","10.51","0.0"],
    [1509663,"2026-03-04 06:50:00","56160","9.6","36.65","12.64","38.68","1019.82","14.51","86.5","23.89","0.0"],
    [1509664,"2026-03-04 07:00:00","56161","9.53","34.97","12.87","39.44","1019.792","14.5","86.7","32.41","0.0"],
    [1509665,"2026-03-04 07:10:00","56162","9.37","32.92","11.69","42.33","1019.861","14.53","86.0","33.58","0.0"],
    [1509666,"2026-03-04 07:20:00","56163","9.98","35.89","13.88","43.36","1019.881","14.57","85.4","30.67","0.0"],
    [1509667,"2026-03-04 07:30:00","56164","10.52","39.08","13.1","40.8","1019.916","14.58","85.4","57.45","0.0"],
    [1509668,"2026-03-04 07:40:00","56165","8.97","37.16","11.92","43.54","1020.078","14.57","85.4","65.47","0.0"],
    [1509669,"2026-03-04 07:50:00","56166","9.14","37.57","11.99","38.28","1020.137","14.58","85.6","40.16","0.0"],
    [1509670,"2026-03-04 08:00:00","56167","9.8","37.22","12.81","37.35","1020.212","14.62","85.1","56.44","0.0"],
    [1509671,"2026-03-04 08:10:00","56168","9.47","38.44","11.76","38.26","1020.261","14.67","84.7","58.34","0.0"],
    [1509672,"2026-03-04 08:20:00","56169","10.02","38.46","12.87","35.0","1020.302","14.72","84.9","87.8","0.0"],
    [1509673,"2026-03-04 08:30:00","56170","9.53","39.27","12.22","44.17","1020.404","14.74","85.3","85.6","0.0"],
    [1509674,"2026-03-04 08:40:00","56171","8.82","37.08","11.66","33.46","1020.417","14.69","86.0","119.7","0.0"],
    [1509675,"2026-03-04 08:50:00","56172","10.11","39.22","13.03","39.31","1020.312","14.73","85.6","146.2","0.0"],
    [1509676,"2026-03-04 09:00:00","56173","9.17","43.88","12.41","45.99","1020.366","14.74","86.0","167.4","0.0"],
    [1509677,"2026-03-04 09:10:00","56174","9.59","40.76","11.4","46.6","1020.297","14.66","87.1","199.8","0.0"],
    [1509678,"2026-03-04 09:20:00","56175","10.67","39.15","13.16","35.6","1020.198","14.69","87.0","223.7","0.0"],
    [1509679,"2026-03-04 09:30:00","56176","10.22","38.84","12.41","41.32","1020.159","14.77","86.3","347.9","0.0"],
    [1509680,"2026-03-04 09:40:00","56177","10.09","39.22","12.22","48.79","1020.156","14.77","86.6","399.8","0.0"],
    [1509681,"2026-03-04 09:50:00","56178","9.73","39.11","12.15","33.12","1020.198","14.86","86.3","423.5","0.0"],
    [1509682,"2026-03-04 10:00:00","56179","9.64","41.94","11.92","41.76","1020.233","14.93","85.9","439.3","0.0"],
    [1509683,"2026-03-04 10:10:00","56180","9.5","41.04","11.86","39.17","1020.34","15.0","85.6","470.9","0.0"],
    [1509684,"2026-03-04 10:20:00","56181","9.47","42.69","11.92","43.77","1020.43","15.12","84.3","459.0","0.0"],
    [1509685,"2026-03-04 10:30:00","56182","8.87","45.33","10.81","41.86","1020.478","15.12","84.1","419.5","0.0"],
    [1509686,"2026-03-04 10:40:00","56183","8.57","47.57","11.37","47.11","1020.495","15.11","84.3","400.6","0.0"],
    [1509687,"2026-03-04 10:50:00","56184","8.77","50.35","11.5","46.96","1020.527","15.08","84.8","409.9","0.0"],
    [1509688,"2026-03-04 11:00:00","56185","9.09","45.67","11.5","43.13","1020.46","15.11","85.0","455.3","0.0"],
    [1509689,"2026-03-04 11:10:00","56186","9.53","43.9","12.45","40.15","1020.456","15.16","84.7","490.3","0.0"],
    [1509690,"2026-03-04 11:20:00","56187","10.15","42.19","13.13","40.15","1020.311","15.19","84.1","478.2","0.0"],
    [1509691,"2026-03-04 11:30:00","56188","9.8","43.08","12.58","44.2","1020.354","15.1","84.9","304.1","0.0"],
    [1509692,"2026-03-04 11:40:00","56189","9.58","43.02","12.35","45.09","1020.295","15.09","85.5","428.1","0.0"],
    [1509693,"2026-03-04 11:50:00","56190","9.22","46.52","12.25","47.18","1020.355","15.11","86.1","512.5","0.0"],
    [1509694,"2026-03-04 12:00:00","56191","8.97","48.13","11.34","45.51","1020.209","15.07","87.0","501.8","0.0"],
    [1509695,"2026-03-04 12:10:00","56192","8.85","47.51","12.05","53.63","1020.061","15.03","88.1","599.0","0.0"],
    [1509696,"2026-03-04 12:20:00","56193","9.3","47.46","13.2","42.04","1019.993","14.92","89.1","566.2","0.0"],
    [1509697,"2026-03-04 12:30:00","56194","9.63","48.44","13.2","56.67","1019.885","14.93","88.9","547.1","0.0"],
    [1509698,"2026-03-04 12:40:00","56195","9.61","47.17","12.97","50.7","1019.818","14.96","88.4","505.5","0.0"],
    [1509699,"2026-03-04 12:50:00","56196","9.27","41.32","12.94","42.56","1019.735","14.95","88.0","435.2","0.0"],
    [1509700,"2026-03-04 13:00:00","56197","9.62","42.76","12.67","43.26","1019.61","14.97","87.6","324.0","0.0"],
    [1509701,"2026-03-04 13:10:00","56198","9.66","44.46","12.45","50.44","1019.476","14.99","87.5","268.2","0.0"],
    [1509702,"2026-03-04 13:20:00","56199","9.29","46.72","12.35","43.18","1019.418","14.94","87.9","254.8","0.0"],
    [1509703,"2026-03-04 13:30:00","56200","8.95","49.73","12.45","43.65","1019.324","14.92","88.1","250.6","0.0"],
    [1509704,"2026-03-04 13:40:00","56201","8.93","49.16","11.24","48.74","1019.303","14.93","87.7","234.9","0.0"],
    [1509705,"2026-03-04 13:50:00","56202","8.69","51.63","11.5","39.34","1019.237","14.97","86.7","257.5","0.0"],
    [1509706,"2026-03-04 14:00:00","56203","9.02","52.63","12.51","53.73","1019.091","14.94","86.6","275.6","0.0"],
    [1509707,"2026-03-04 14:10:00","56204","8.89","52.39","12.64","53.92","1019.021","14.97","86.2","267.6","0.0"],
    [1509708,"2026-03-04 14:20:00","56205","9.26","55.95","12.41","53.76","1019.05","14.96","86.2","259.6","0.0"],
    [1509709,"2026-03-04 14:30:00","56206","10.13","55.84","13.23","57.91","1018.913","14.95","86.6","256.2","0.0"],
    [1509710,"2026-03-04 14:40:00","56207","9.66","54.17","13.88","57.12","1018.845","14.95","87.1","265.6","0.0"],
    [1509711,"2026-03-04 14:50:00","56208","9.63","54.38","12.94","59.05","1018.712","14.91","87.8","247.6","0.0"],
    [1509712,"2026-03-04 15:00:00","56209","9.87","54.33","13.56","56.34","1018.614","14.93","88.0","244.7","0.0"],
    [1509713,"2026-03-04 15:10:00","56210","10.14","56.06","13.07","56.86","1018.583","14.97","87.9","297.0","0.0"],
    [1509714,"2026-03-04 15:20:00","56211","9.64","56.92","12.64","46.44","1018.696","15.0","87.5","210.2","0.0"],
    [1509715,"2026-03-04 15:30:00","56212","9.54","54.79","13.13","60.02","1018.587","14.95","88.0","189.7","0.0"],
    [1509716,"2026-03-04 15:40:00","56213","9.44","54.64","12.41","56.01","1018.566","14.94","88.2","175.2","0.0"],
    [1509717,"2026-03-04 15:50:00","56214","9.54","55.02","13.1","59.34","1018.567","14.94","88.0","141.4","0.0"],
    [1509718,"2026-03-04 16:00:00","56215","9.19","54.3","12.64","52.68","1018.426","14.95","87.6","139.1","0.0"],
    [1509719,"2026-03-04 16:10:00","56216","8.66","50.8","11.43","62.52","1018.394","14.95","87.7","143.7","0.0"],
    [1509720,"2026-03-04 16:20:00","56217","7.962000000000001","50.46","10.65","44.55","1018.482","15.02","87.5","123.8","0.0"],
    [1509721,"2026-03-04 16:30:00","56218","8.3","54.5","11.89","64.09","1018.556","15.06","87.3","87.8","0.0"],
    [1509722,"2026-03-04 16:40:00","56219","8.75","55.54","11.4","59.62","1018.469","14.95","88.1","60.44","0.0"],
    [1509723,"2026-03-04 16:50:00","56220","9.41","55.74","13.07","55.36","1018.393","14.87","88.8","46.52","0.0"],
    [1509724,"2026-03-04 17:00:00","56221","9.48","54.67","12.48","53.8","1018.369","14.72","90.2","42.32","0.0"],
    [1509725,"2026-03-04 17:10:00","56222","9.36","54.01","12.71","53.25","1018.375","14.65","91.2","28.53","0.0"],
    [1509726,"2026-03-04 17:20:00","56223","9.61","48.72","12.94","50.46","1018.343","14.65","91.6","18.29","0.0"],
    [1509727,"2026-03-04 17:30:00","56224","10.11","45.99","12.84","44.43","1018.207","14.75","90.7","10.76","0.0"],
    [1509728,"2026-03-04 17:40:00","56225","10.01","44.63","13.1","40.8","1018.351","14.82","90.0","4.362","0.0"],
    [1509729,"2026-03-04 17:50:00","56226","9.56","42.89","12.18","43.82","1018.401","14.86","89.7","0.637","0.0"],
    [1509730,"2026-03-04 18:00:00","56227","7.8870000000000005","46.09","11.24","43.22","1018.577","14.83","90.4","0.0","0.0"],
    [1509731,"2026-03-04 18:10:00","56228","7.6129999999999995","48.58","10.26","46.41","1018.727","14.76","91.3","0.0","0.0"],
    [1509732,"2026-03-04 18:20:00","56229","9.09","42.83","11.27","48.35","1018.61","14.75","91.0","0.0","0.0"],
    [1509733,"2026-03-04 18:30:00","56230","9.61","40.45","12.51","30.41","1018.593","14.91","88.1","0.0","0.0"],
    [1509734,"2026-03-04 18:40:00","56231","9.87","40.94","12.87","49.28","1018.728","15.04","85.4","0.0","0.0"],
    [1509735,"2026-03-04 18:50:00","56232","8.72","42.79","11.14","36.95","1018.908","15.06","84.4","0.0","0.0"],
    [1509736,"2026-03-04 19:00:00","56233","10.21","43.05","13.16","40.67","1018.691","14.99","84.4","0.0","0.0"],
    [1509737,"2026-03-04 19:10:00","56234","10.0","42.82","12.94","44.85","1018.724","15.0","83.8","0.0","0.0"],
    [1509738,"2026-03-04 19:20:00","56235","9.81","44.29","12.22","41.86","1018.881","14.97","83.8","0.0","0.0"],
    [1509739,"2026-03-04 19:30:00","56236","9.22","47.07","11.83","52.68","1019.113","14.96","83.6","0.0","0.0"],
    [1509740,"2026-03-04 19:40:00","56237","9.39","43.15","11.69","43.27","1019.112","14.92","83.9","0.0","0.0"],
    [1509741,"2026-03-04 19:50:00","56238","10.13","44.06","12.58","53.89","1018.985","14.91","83.6","0.0","0.0"],
    [1509742,"2026-03-04 20:00:00","56239","9.98","36.51","13.56","31.54","1018.882","14.92","83.3","0.0","0.0"],
    [1509743,"2026-03-04 20:10:00","56240","9.51","33.91","13.36","36.26","1018.784","14.94","83.0","0.0","0.0"],
    [1509744,"2026-03-04 20:20:00","56241","10.44","35.25","13.85","41.52","1018.612","14.87","83.5","0.0","0.0"],
    [1509745,"2026-03-04 20:30:00","56242","10.5","35.15","13.69","47.27","1018.7","14.86","83.4","0.0","0.0"],
    [1509746,"2026-03-04 20:40:00","56243","8.89","36.04","12.67","33.07","1018.991","14.93","82.6","0.0","0.0"],
    [1509747,"2026-03-04 20:50:00","56244","6.1770000000000005","41.12","8.0","52.4","1019.327","14.91","83.6","0.0","0.0"],
    [1509748,"2026-03-04 21:00:00","56245","7.632999999999999","35.69","11.01","23.84","1019.177","14.8","84.9","0.0","0.0"],
    [1509749,"2026-03-04 21:10:00","56246","8.15","35.5","10.94","33.71","1019.08","14.77","85.4","0.0","0.0"],
    [1509750,"2026-03-04 21:20:00","56247","8.73","34.47","11.83","43.41","1019.096","14.78","85.3","0.0","0.0"],
    [1509751,"2026-03-04 21:30:00","56248","10.41","34.69","14.05","41.28","1018.953","14.84","84.4","0.0","0.0"],
    [1509752,"2026-03-04 21:40:00","56249","10.5","35.11","13.59","41.34","1018.955","14.88","83.8","0.0","0.0"],
    [1509753,"2026-03-04 21:50:00","56250","11.32","34.71","13.95","42.21","1018.813","14.87","83.5","0.0","0.0"],
    [1509754,"2026-03-04 22:00:00","56251","11.85","34.92","14.54","25.25","1018.64","14.92","82.2","0.0","0.0"],
    [1509755,"2026-03-04 22:10:00","56252","11.13","34.93","13.39","34.94","1018.503","14.93","81.8","0.0","0.0"],
    [1509756,"2026-03-04 22:20:00","56253","10.02","32.42","12.64","32.68","1018.351","14.89","81.9","0.0","0.0"],
    [1509757,"2026-03-04 22:30:00","56254","9.85","34.84","12.45","35.5","1018.26","14.92","81.2","0.0","0.0"],
    [1509758,"2026-03-04 22:40:00","56255","10.1","35.41","11.99","33.25","1018.217","14.96","80.5","0.0","0.0"],
    [1509759,"2026-03-04 22:50:00","56256","9.91","34.8","12.15","30.77","1018.202","15.0","80.9","0.0","0.0"],
    [1509760,"2026-03-04 23:00:00","56257","9.92","34.7","12.87","37.53","1018.077","15.04","80.7","0.0","0.0"],
    [1509761,"2026-03-04 23:10:00","56258","9.87","34.68","12.25","41.89","1017.97","15.04","80.6","0.0","0.0"],
    [1509762,"2026-03-04 23:20:00","56259","10.15","34.98","12.87","39.23","1017.813","15.05","80.5","0.0","0.0"],
    [1509763,"2026-03-04 23:30:00","56260","9.76","33.36","13.23","21.45","1017.804","15.09","79.82","0.0","0.0"],
    [1509764,"2026-03-04 23:40:00","56261","9.49","34.38","12.84","28.8","1017.765","15.05","80.0","0.0","0.0"],
    [1509765,"2026-03-04 23:50:00","56262","7.957000000000001","35.91","10.88","30.47","1017.855","15.0","80.8","0.0","0.0"],
    [1509766,"2026-03-05 00:00:00","56263","6.854","42.38","10.71","45.53","1017.897","14.98","81.4","0.0","0.0"],
    [1509767,"2026-03-05 00:10:00","56264","7.121","39.91","10.98","30.22","1017.74","14.93","82.3","0.0","0.0"],
    [1509768,"2026-03-05 00:20:00","56265","8.54","38.38","12.51","32.89","1017.532","14.91","82.5","0.0","0.0"],
    [1509769,"2026-03-05 00:30:00","56266","10.13","40.02","12.32","43.64","1017.288","14.92","82.4","0.0","0.0"],
    [1509770,"2026-03-05 00:40:00","56267","9.79","38.35","11.92","39.39","1017.231","14.91","82.8","0.0","0.0"],
    [1509771,"2026-03-05 00:50:00","56268","9.57","38.27","12.05","39.46","1016.972","14.92","83.3","0.0","0.0"],
    [1509772,"2026-03-05 01:00:00","56269","9.02","34.37","12.18","34.35","1016.82","14.95","83.7","0.0","0.0"],
    [1509773,"2026-03-05 01:10:00","56270","9.55","39.3","12.71","39.78","1016.427","14.96","84.3","0.0","0.0"],
    [1509774,"2026-03-05 01:20:00","56271","9.61","39.29","11.96","37.42","1016.213","15.02","83.5","0.0","0.0"],
    [1509775,"2026-03-05 01:30:00","56272","8.98","36.38","11.89","41.34","1016.186","14.98","83.2","0.0","0.0"],
    [1509776,"2026-03-05 01:40:00","56273","9.64","41.34","12.38","50.71","1016.066","15.03","81.9","0.0","0.0"],
    [1509777,"2026-03-05 01:50:00","56274","9.23","41.9","11.89","48.79","1016.174","15.01","81.8","0.0","0.0"],
    [1509778,"2026-03-05 02:00:00","56275","8.69","44.83","10.94","44.24","1016.489","14.93","82.7","0.0","0.0"],
    [1509779,"2026-03-05 02:10:00","56276","8.56","47.37","11.5","45.91","1016.909","14.96","83.6","0.0","0.0"],
    [1509780,"2026-03-05 02:20:00","56277","10.13","45.67","13.46","39.38","1016.8","15.04","83.7","0.0","0.0"],
    [1509781,"2026-03-05 02:30:00","56278","11.72","45.1","15.88","41.55","1016.545","15.11","82.2","0.0","0.0"],
    [1509782,"2026-03-05 02:40:00","56279","10.49","43.87","13.49","44.17","1016.411","15.08","80.9","0.0","0.0"],
    [1509783,"2026-03-05 02:50:00","56280","11.08","40.56","14.47","42.0","1016.37","15.06","80.2","0.0","0.0"],
    [1509784,"2026-03-05 03:00:00","56281","11.13","40.33","13.92","40.28","1016.34","15.11","78.33","0.0","0.0"],
    [1509785,"2026-03-05 03:10:00","56282","11.11","39.68","14.99","42.93","1016.283","15.06","77.97","0.0","0.0"],
    [1509786,"2026-03-05 03:20:00","56283","11.14","40.94","13.69","39.98","1016.105","14.99","78.83","0.0","0.0"],
    [1509787,"2026-03-05 03:30:00","56284","10.65","42.82","13.1","44.24","1015.96","14.97","80.1","0.0","0.0"],
    [1509788,"2026-03-05 03:40:00","56285","10.93","46.28","14.28","46.61","1015.811","15.04","79.47","0.0","0.0"],
    [1509789,"2026-03-05 03:50:00","56286","11.41","43.01","14.28","45.59","1015.699","14.99","79.52","0.0","0.0"],
    [1509790,"2026-03-05 04:00:00","56287","11.06","38.52","14.73","35.71","1015.606","14.89","80.5","0.0","0.0"],
    [1509791,"2026-03-05 04:10:00","56288","11.12","37.73","14.9","37.93","1015.609","14.82","80.8","0.0","0.0"],
    [1509792,"2026-03-05 04:20:00","56289","10.01","34.69","13.82","45.62","1015.58","14.75","81.5","0.0","0.0"],
    [1509793,"2026-03-05 04:30:00","56290","9.82","36.48","13.39","44.22","1015.482","14.76","81.9","0.0","0.0"],
    [1509794,"2026-03-05 04:40:00","56291","11.9","41.41","14.93","46.07","1015.314","14.86","81.8","0.0","0.0"],
    [1509795,"2026-03-05 04:50:00","56292","10.43","38.69","13.59","35.05","1015.426","14.94","80.4","0.0","0.0"],
    [1509796,"2026-03-05 05:00:00","56293","9.82","39.01","12.28","37.04","1015.545","14.8","81.2","0.0","0.0"],
    [1509797,"2026-03-05 05:10:00","56294","9.55","38.93","11.6","41.74","1015.395","14.82","81.3","0.0","0.0"],
    [1509798,"2026-03-05 05:20:00","56295","11.73","38.34","15.81","35.83","1015.103","14.89","81.2","0.0","0.0"],
    [1509799,"2026-03-05 05:30:00","56296","10.93","34.37","14.28","35.18","1015.19","14.88","81.4","0.0","0.0"],
    [1509800,"2026-03-05 05:40:00","56297","10.56","35.77","13.92","41.08","1015.054","14.81","82.4","0.0","0.0"],
    [1509801,"2026-03-05 05:50:00","56298","11.88","30.56","15.19","33.32","1014.915","14.82","82.6","0.0","0.0"],
    [1509802,"2026-03-05 06:00:00","56299","11.19","30.17","14.57","35.42","1014.762","14.81","82.5","0.0","0.0"],
    [1509803,"2026-03-05 06:10:00","56300","10.99","29.87","13.82","29.7","1014.813","14.86","81.5","0.0","0.0"],
    [1509804,"2026-03-05 06:20:00","56301","9.43","34.06","12.18","29.56","1015.141","14.83","82.0","0.0","0.0"],
    [1509805,"2026-03-05 06:30:00","56302","10.01","38.71","12.35","41.01","1015.256","14.76","82.8","0.011000000000000001","0.0"],
    [1509806,"2026-03-05 06:40:00","56303","9.21","34.43","12.54","41.68","1015.289","14.71","84.2","0.385","0.0"],
    [1509807,"2026-03-05 06:50:00","56304","10.56","37.77","14.01","46.3","1015.199","14.65","85.5","1.011","0.0"],
    [1509808,"2026-03-05 07:00:00","56305","10.45","37.65","13.46","43.87","1015.208","14.56","87.1","1.604","0.0"],
    [1509809,"2026-03-05 07:10:00","56306","11.42","39.19","13.95","40.95","1015.249","14.44","88.9","1.209","0.0"],
    [1509810,"2026-03-05 07:20:00","56307","10.12","36.38","13.23","42.97","1015.318","14.4","90.2","2.306","0.0"],
    [1509811,"2026-03-05 07:30:00","56308","9.8","36.15","13.13","30.45","1015.274","14.31","91.8","2.58","0.0"],
    [1509812,"2026-03-05 07:40:00","56309","11.11","31.05","15.22","28.15","1014.998","14.3","92.8","9.45","0.0"],
    [1509813,"2026-03-05 07:50:00","56310","11.83","29.11","14.83","32.15","1014.711","14.4","91.8","20.68","0.0"],
    [1509814,"2026-03-05 08:00:00","56311","11.56","29.76","14.6","28.34","1014.622","14.52","90.8","27.24","0.0"],
    [1509815,"2026-03-05 08:10:00","56312","10.82","31.63","14.18","24.62","1014.544","14.63","89.5","26.74","0.0"],
    [1509816,"2026-03-05 08:20:00","56313","10.72","36.12","14.54","42.1","1014.522","14.68","88.7","25.6","0.0"],
    [1509817,"2026-03-05 08:30:00","56314","11.13","37.96","14.14","38.08","1014.448","14.7","88.5","34.03","0.0"],
    [1509818,"2026-03-05 08:40:00","56315","10.3","42.44","12.48","42.29","1014.699","14.7","88.9","34.27","0.0"],
    [1509819,"2026-03-05 08:50:00","56316","10.53","41.69","14.18","40.5","1014.612","14.68","89.6","45.25","0.0"],
    [1509820,"2026-03-05 09:00:00","56317","11.19","39.21","15.03","33.38","1014.526","14.6","90.6","38.93","0.0"],
    [1509821,"2026-03-05 09:10:00","56318","12.69","38.73","16.33","44.5","1014.352","14.57","91.0","32.97","0.0"],
    [1509822,"2026-03-05 09:20:00","56319","12.71","40.57","15.78","39.8","1014.421","14.57","91.1","28.17","0.0"],
    [1509823,"2026-03-05 09:30:00","56320","12.44","44.27","16.14","47.29","1014.659","14.57","91.3","18.74","0.0"],
    [1509824,"2026-03-05 09:40:00","56321","12.56","42.51","15.71","43.74","1014.774","14.51","91.8","4.74","0.0"],
    [1509825,"2026-03-05 09:50:00","56322","11.2","47.18","14.99","52.5","1015.025","14.45","93.0","4.255","0.3"],
    [1509826,"2026-03-05 10:00:00","56323","11.41","35.35","14.83","29.79","1014.725","14.18","95.8","15.46","1.2"],
    [1509827,"2026-03-05 10:10:00","56324","12.05","32.0","16.63","33.79","1014.594","14.0","98.8","19.76","0.4"],
    [1509828,"2026-03-05 10:20:00","56325","13.08","27.03","16.59","32.24","1014.114","13.84","100.0","22.79","0.6"],
    [1509829,"2026-03-05 10:30:00","56326","11.77","30.17","16.27","28.17","1014.323","13.76","100.0","21.29","0.5"],
    [1509830,"2026-03-05 10:40:00","56327","10.04","32.31","13.07","39.41","1014.297","13.73","100.0","33.98","0.7"],
    [1509831,"2026-03-05 10:50:00","56328","11.42","30.5","15.45","28.43","1014.059","13.67","100.0","35.72","1.5"],
    [1509832,"2026-03-05 11:00:00","56329","12.07","27.15","14.28","30.02","1013.672","13.59","100.0","92.5","0.4"],
    [1509833,"2026-03-05 11:10:00","56330","10.45","29.52","13.56","33.81","1013.81","13.61","100.0","41.53","0.1"],
    [1509834,"2026-03-05 11:20:00","56331","11.14","27.19","14.21","29.42","1013.479","13.6","100.0","89.0","0.4"],
    [1509835,"2026-03-05 11:30:00","56332","11.2","29.18","14.08","29.03","1013.411","13.65","100.0","49.57","0.1"],
    [1509836,"2026-03-05 11:40:00","56333","11.14","27.06","14.34","32.72","1013.333","13.7","100.0","47.44","0.4"],
    [1509837,"2026-03-05 11:50:00","56334","10.88","31.54","13.75","30.03","1013.091","13.76","100.0","69.21","0.3"],
    [1509838,"2026-03-05 12:00:00","56335","11.87","36.55","14.86","38.86","1012.715","13.81","100.0","56.39","0.4"],
    [1509839,"2026-03-05 12:10:00","56336","13.14","37.46","17.08","43.34","1012.376","13.84","100.0","74.24","0.6"],
    [1509840,"2026-03-05 12:20:00","56337","13.23","35.71","16.89","37.8","1012.124","13.87","100.0","119.8","0.4"],
    [1509841,"2026-03-05 12:30:00","56338","13.75","39.83","17.71","40.68","1012.067","13.89","100.0","173.6","0.3"],
    [1509842,"2026-03-05 12:40:00","56339","11.68","40.67","15.12","50.15","1012.209","13.87","100.0","153.5","1.2"],
    [1509843,"2026-03-05 12:50:00","56340","12.23","43.07","15.26","46.29","1012.077","13.91","100.0","139.3","0.1"],
    [1509844,"2026-03-05 13:00:00","56341","11.46","43.71","14.5","44.99","1012.027","13.94","100.0","176.0","0.0"],
    [1509845,"2026-03-05 13:10:00","56342","11.97","43.27","15.81","49.53","1011.942","13.93","100.0","137.7","0.0"],
    [1509846,"2026-03-05 13:20:00","56343","11.02","47.59","15.35","38.04","1011.955","13.96","100.0","68.82","0.0"],
    [1509847,"2026-03-05 13:30:00","56344","10.33","43.76","15.48","38.49","1012.075","14.0","100.0","64.32","0.0"],
    [1509848,"2026-03-05 13:40:00","56345","8.45","53.2","11.07","56.63","1012.103","14.06","100.0","68.07","0.0"],
    [1509849,"2026-03-05 13:50:00","56346","6.996","53.19","10.81","57.29","1012.042","14.11","100.0","80.5","0.0"],
    [1509850,"2026-03-05 14:00:00","56347","7.874","52.1","10.52","51.36","1012.016","14.24","100.0","188.5","0.0"],
    [1509851,"2026-03-05 14:10:00","56348","7.272","57.08","10.42","57.48","1012.077","14.38","100.0","195.8","0.0"],
    [1509852,"2026-03-05 14:20:00","56349","7.053","55.32","9.6","54.54","1012.123","14.41","100.0","90.9","0.0"],
    [1509853,"2026-03-05 14:30:00","56350","6.104","67.57","9.67","61.3","1012.176","14.43","100.0","117.8","0.0"],
    [1509854,"2026-03-05 14:40:00","56351","6.24","69.95","9.18","49.34","1012.15","14.49","100.0","206.5","0.0"],
    [1509855,"2026-03-05 14:50:00","56352","6.084","56.77","9.08","60.72","1012.161","14.53","100.0","232.5","0.0"],
    [1509856,"2026-03-05 15:00:00","56353","6.4670000000000005","53.47","8.89","58.27","1012.242","14.58","100.0","228.1","0.0"],
    [1509857,"2026-03-05 15:10:00","56354","6.341","48.01","9.11","58.45","1012.261","14.56","100.0","150.8","0.0"],
    [1509858,"2026-03-05 15:20:00","56355","6.817","42.85","8.75","50.9","1012.237","14.55","100.0","107.8","0.0"],
    [1509859,"2026-03-05 15:30:00","56356","6.789","37.53","8.07","37.14","1012.217","14.52","100.0","127.0","0.0"],
    [1509860,"2026-03-05 15:40:00","56357","6.672000000000001","38.32","8.17","42.63","1012.226","14.5","100.0","95.0","0.0"],
    [1509861,"2026-03-05 15:50:00","56358","6.539","37.21","8.43","46.25","1012.25","14.47","100.0","88.0","0.0"],
    [1509862,"2026-03-05 16:00:00","56359","6.769","37.78","8.49","41.52","1012.288","14.46","100.0","93.2","0.0"],
    [1509863,"2026-03-05 16:10:00","56360","7.093999999999999","39.61","9.64","36.77","1012.372","14.43","100.0","74.79","0.0"],
    [1509864,"2026-03-05 16:20:00","56361","7.752000000000001","42.87","10.09","42.63","1012.421","14.38","100.0","41.09","0.0"],
    [1509865,"2026-03-05 16:30:00","56362","7.6","47.5","9.9","46.7","1012.552","14.31","100.0","27.84","0.0"],
    [1509866,"2026-03-05 16:40:00","56363","7.165","43.15","9.05","45.55","1012.572","14.27","100.0","39.14","0.0"],
    [1509867,"2026-03-05 16:50:00","56364","7.329","41.08","9.18","41.27","1012.473","14.26","100.0","36.17","0.0"],
    [1509868,"2026-03-05 17:00:00","56365","6.7379999999999995","44.22","8.33","39.38","1012.622","14.27","100.0","34.79","0.0"],
    [1509869,"2026-03-05 17:10:00","56366","5.974","50.64","7.872999999999999","52.52","1012.849","14.25","100.0","6.5329999999999995","0.0"],
    [1509870,"2026-03-05 17:20:00","56367","6.046","53.44","8.07","46.32","1012.947","14.25","100.0","2.314","0.0"],
    [1509871,"2026-03-05 17:30:00","56368","5.974","49.42","7.971","44.03","1012.991","14.28","100.0","0.706","0.0"],
    [1509872,"2026-03-05 17:40:00","56369","6.045","53.29","8.23","57.45","1013.01","14.32","100.0","0.375","0.0"],
    [1509873,"2026-03-05 17:50:00","56370","6.324","59.46","8.82","63.38","1013.042","14.32","100.0","0.29600000000000004","0.0"],
    [1509874,"2026-03-05 18:00:00","56371","6.81","63.81","9.6","70.18","1013.01","14.34","100.0","0.11199999999999999","0.0"],
    [1509875,"2026-03-05 18:10:00","56372","6.837999999999999","53.86","9.38","67.27","1012.999","14.35","100.0","0.0","0.0"],
    [1509876,"2026-03-05 18:20:00","56373","6.545","43.03","8.46","49.65","1013.069","14.3","100.0","0.0","0.1"],
    [1509877,"2026-03-05 18:30:00","56374","7.415","43.16","9.41","37.06","1013.134","14.28","100.0","0.001","0.0"],
    [1509878,"2026-03-05 18:40:00","56375","7.356","41.56","9.34","39.41","1013.179","14.26","100.0","0.12300000000000001","0.0"],
    [1509879,"2026-03-05 18:50:00","56376","7.5889999999999995","41.62","9.47","48.02","1013.187","14.24","100.0","0.0","0.0"],
    [1509880,"2026-03-05 19:00:00","56377","8.1","39.71","10.09","38.37","1013.17","14.22","100.0","0.0","0.1"],
    [1509881,"2026-03-05 19:10:00","56378","7.735","38.99","10.09","33.84","1013.2","14.18","100.0","0.0","0.4"],
    [1509882,"2026-03-05 19:20:00","56379","7.584","42.39","10.03","47.61","1013.223","14.15","100.0","0.09300000000000001","0.0"],
    [1509883,"2026-03-05 19:30:00","56380","7.666","46.01","11.07","42.65","1013.367","14.14","100.0","0.177","0.0"],
    [1509884,"2026-03-05 19:40:00","56381","6.846","42.87","9.51","39.22","1013.445","14.14","100.0","0.003","0.7"],
    [1509885,"2026-03-05 19:50:00","56382","8.27","37.56","10.85","41.63","1013.366","14.15","100.0","0.309","0.1"],
    [1509886,"2026-03-05 20:00:00","56383","8.83","30.22","12.38","34.55","1013.341","14.15","100.0","0.045","0.2"],
    [1509887,"2026-03-05 20:10:00","56384","8.86","30.62","11.73","38.64","1013.269","14.13","100.0","0.536","0.0"],
    [1509888,"2026-03-05 20:20:00","56385","9.51","32.66","11.66","30.47","1013.318","14.12","100.0","0.624","0.0"],
    [1509889,"2026-03-05 20:30:00","56386","10.15","32.84","12.45","35.58","1013.266","14.11","100.0","1.3630000000000002","0.0"],
    [1509890,"2026-03-05 20:40:00","56387","9.79","32.19","11.89","35.3","1013.171","14.1","100.0","1.3940000000000001","0.0"],
    [1509891,"2026-03-05 20:50:00","56388","9.79","32.73","11.86","30.26","1013.148","14.08","100.0","1.518","0.0"],
    [1509892,"2026-03-05 21:00:00","56389","10.96","33.84","15.16","33.94","1013.116","14.08","100.0","1.901","0.0"],
    [1509893,"2026-03-05 21:10:00","56390","11.61","33.03","14.73","31.1","1013.095","14.09","100.0","1.5","0.0"],
    [1509894,"2026-03-05 21:20:00","56391","12.01","33.14","14.96","35.95","1013.129","14.12","100.0","0.8290000000000001","0.0"],
    [1509895,"2026-03-05 21:30:00","56392","12.06","33.08","14.83","36.3","1013.194","14.18","100.0","0.62","0.0"],
    [1509896,"2026-03-05 21:40:00","56393","11.04","32.13","13.85","39.06","1013.119","14.22","100.0","0.29600000000000004","0.0"],
    [1509897,"2026-03-05 21:50:00","56394","11.18","31.91","14.8","38.43","1013.137","14.26","100.0","0.07400000000000001","0.0"],
    [1509898,"2026-03-05 22:00:00","56395","10.95","32.24","13.72","33.01","1013.165","14.31","100.0","0.0","0.0"],
    [1509899,"2026-03-05 22:10:00","56396","10.51","31.26","14.5","26.58","1013.257","14.42","100.0","0.0","0.0"],
    [1509900,"2026-03-05 22:20:00","56397","9.81","33.59","13.3","28.45","1013.22","14.52","100.0","0.0","0.0"],
    [1509901,"2026-03-05 22:30:00","56398","10.0","32.69","13.56","33.36","1013.163","14.5","100.0","0.024","0.0"],
    [1509902,"2026-03-05 22:40:00","56399","9.46","34.49","13.16","30.38","1013.131","14.49","100.0","0.0","0.0"],
    [1509903,"2026-03-05 22:50:00","56400","9.02","35.63","12.28","43.42","1013.092","14.5","100.0","0.0","0.0"],
    [1509904,"2026-03-05 23:00:00","56401","9.16","33.06","12.18","39.67","1012.913","14.43","100.0","0.042","0.0"],
    [1509905,"2026-03-05 23:10:00","56402","8.16","38.26","11.66","29.24","1012.885","14.42","100.0","0.071","0.1"],
    [1509906,"2026-03-05 23:20:00","56403","8.7","30.12","11.83","25.3","1012.848","14.38","100.0","0.27","0.0"],
    [1509907,"2026-03-05 23:30:00","56404","8.67","31.23","11.27","35.18","1012.811","14.38","100.0","0.541","0.0"],
    [1509908,"2026-03-05 23:40:00","56405","9.83","38.59","13.07","37.93","1012.756","14.27","100.0","0.8959999999999999","0.0"],
    [1509909,"2026-03-05 23:50:00","56406","9.89","39.69","12.41","44.3","1012.768","14.28","100.0","2.145","0.0"],
    [1509910,"2026-03-06 00:00:00","56407","10.11","39.15","12.74","37.32","1012.729","14.4","100.0","2.385","0.0"],
    [1509911,"2026-03-06 00:10:00","56408","10.4","39.1","12.84","40.73","1012.666","14.43","100.0","2.019","0.0"],
    [1509912,"2026-03-06 00:20:00","56409","10.1","39.25","12.51","39.38","1012.63","14.46","100.0","1.065","0.0"],
    [1509913,"2026-03-06 00:30:00","56410","9.79","42.34","12.09","48.25","1012.621","14.46","100.0","0.5","0.0"],
    [1509914,"2026-03-06 00:40:00","56411","11.21","38.25","14.7","39.71","1012.455","14.43","100.0","0.273","0.0"],
    [1509915,"2026-03-06 00:50:00","56412","10.86","42.13","14.6","36.71","1012.363","14.44","100.0","0.011000000000000001","0.0"],
    [1509916,"2026-03-06 01:00:00","56413","10.11","42.99","12.94","49.61","1012.351","14.39","100.0","0.156","0.1"],
    [1509917,"2026-03-06 01:10:00","56414","10.37","44.67","13.26","46.74","1012.299","14.35","100.0","0.16","0.0"],
    [1509918,"2026-03-06 01:20:00","56415","10.89","42.78","13.85","39.69","1012.213","14.21","100.0","0.28800000000000003","0.0"],
    [1509919,"2026-03-06 01:30:00","56416","11.18","41.21","14.01","37.2","1012.141","14.05","100.0","0.024","1.4"],
    [1509920,"2026-03-06 01:40:00","56417","11.43","41.21","13.88","43.58","1012.152","13.92","100.0","0.001","0.9"],
    [1509921,"2026-03-06 01:50:00","56418","10.69","39.06","12.9","45.07","1012.107","13.86","100.0","0.003","1.2"],
    [1509922,"2026-03-06 02:00:00","56419","10.93","38.38","13.36","38.83","1011.964","13.87","100.0","0.002","0.6"],
    [1509923,"2026-03-06 02:10:00","56420","10.57","36.15","14.14","41.1","1011.89","13.86","100.0","0.528","0.0"],
    [1509924,"2026-03-06 02:20:00","56421","10.77","32.06","14.54","41.44","1011.807","13.85","100.0","0.789","0.1"],
    [1509925,"2026-03-06 02:30:00","56422","9.93","34.99","12.45","37.1","1011.767","13.9","100.0","0.479","0.0"],
    [1509926,"2026-03-06 02:40:00","56423","10.3","41.01","13.2","42.74","1011.784","13.87","100.0","0.418","0.0"],
    [1509927,"2026-03-06 02:50:00","56424","10.46","40.56","12.84","45.96","1011.704","13.87","100.0","0.162","0.4"],
    [1509928,"2026-03-06 03:00:00","56425","10.32","49.85","13.85","66.11","1011.754","13.73","100.0","0.266","0.5"],
    [1509929,"2026-03-06 03:10:00","56426","9.63","58.38","13.75","57.18","1011.747","13.57","100.0","0.40299999999999997","0.2"],
    [1509930,"2026-03-06 03:20:00","56427","10.13","66.72","14.96","72.77","1011.653","13.67","100.0","0.653","0.0"],
    [1509931,"2026-03-06 03:30:00","56428","10.1","73.4","14.67","70.1","1011.594","13.74","100.0","0.598","0.1"],
    [1509932,"2026-03-06 03:40:00","56429","9.43","75.17","12.54","70.63","1011.617","13.75","100.0","0.511","0.0"],
    [1509933,"2026-03-06 03:50:00","56430","10.49","74.25","15.09","76.53","1011.512","13.77","100.0","0.49700000000000005","0.0"],
    [1509934,"2026-03-06 04:00:00","56431","11.39","68.26","14.67","75.9","1011.384","13.81","100.0","1.1640000000000001","0.0"],
    [1509935,"2026-03-06 04:10:00","56432","10.22","60.15","13.59","62.45","1011.389","13.85","100.0","0.784","0.0"],
    [1509936,"2026-03-06 04:20:00","56433","10.1","61.31","14.44","65.46","1011.4","13.92","100.0","0.33399999999999996","0.0"],
    [1509937,"2026-03-06 04:30:00","56434","11.21","62.77","15.71","69.3","1011.42","13.9","100.0","0.42700000000000005","0.0"],
    [1509938,"2026-03-06 04:40:00","56435","10.89","60.85","15.88","78.88","1011.484","13.88","100.0","0.17800000000000002","0.0"],
    [1509939,"2026-03-06 04:50:00","56436","11.03","50.33","15.35","51.2","1011.331","13.9","100.0","0.0","0.0"],
    [1509940,"2026-03-06 05:00:00","56437","12.3","42.74","15.94","34.67","1011.147","13.88","100.0","0.0","0.0"],
    [1509941,"2026-03-06 05:10:00","56438","12.07","35.36","15.94","35.53","1011.154","13.87","100.0","0.0","0.0"],
    [1509942,"2026-03-06 05:20:00","56439","11.67","40.55","14.83","41.0","1011.511","13.84","100.0","0.0","0.0"],
    [1509943,"2026-03-06 05:30:00","56440","9.05","53.62","13.2","43.56","1012.359","13.88","100.0","0.0","0.0"],
    [1509944,"2026-03-06 05:40:00","56441","9.14","64.08","12.35","70.97","1012.479","13.89","100.0","0.0","0.0"],
    [1509945,"2026-03-06 05:50:00","56442","11.07","68.81","14.44","68.6","1012.416","13.83","100.0","0.0","0.0"],
    [1509946,"2026-03-06 06:00:00","56443","7.782","19.15","14.9","22.31","1012.558","13.95","100.0","0.0","0.0"],
    [1509947,"2026-03-06 06:10:00","56444","7.145","23.24","14.28","29.83","1012.671","13.99","100.0","0.0","0.0"],
    [1509948,"2026-03-06 06:20:00","56445","10.96","33.64","14.73","34.8","1012.555","14.0","100.0","0.0","0.0"],
    [1509949,"2026-03-06 06:30:00","56446","11.51","39.06","14.8","38.65","1012.525","13.87","100.0","0.252","0.0"],
    [1509950,"2026-03-06 06:40:00","56447","9.06","28.85","14.6","24.05","1012.751","13.92","100.0","1.6680000000000001","0.0"],
    [1509951,"2026-03-06 06:50:00","56448","10.46","28.57","16.53","32.54","1012.728","13.93","100.0","4.531000000000001","0.0"],
    [1509952,"2026-03-06 07:00:00","56449","10.4","27.9","16.4","47.84","1012.851","14.01","100.0","4.1339999999999995","0.0"],
    [1509953,"2026-03-06 07:10:00","56450","9.79","27.55","17.77","26.58","1012.913","14.08","100.0","5.449","0.0"],
    [1509954,"2026-03-06 07:20:00","56451","9.57","28.52","15.29","28.33","1012.971","14.06","99.5","9.21","0.0"],
    [1509955,"2026-03-06 07:30:00","56452","11.69","34.63","15.03","34.95","1012.857","14.04","99.3","15.5","0.0"],
    [1509956,"2026-03-06 07:40:00","56453","12.38","40.03","15.29","37.03","1012.814","13.86","99.9","26.08","0.0"],
    [1509957,"2026-03-06 07:50:00","56454","11.29","40.22","15.35","42.93","1012.951","13.8","100.0","19.41","0.0"],
    [1509958,"2026-03-06 08:00:00","56455","10.47","39.38","13.98","44.62","1012.93","13.65","100.0","37.13","0.0"],
    [1509959,"2026-03-06 08:10:00","56456","9.66","35.54","13.2","44.42","1012.917","13.62","100.0","25.38","0.0"],
    [1509960,"2026-03-06 08:20:00","56457","12.07","40.93","14.37","41.31","1012.736","13.53","100.0","26.87","0.1"],
    [1509961,"2026-03-06 08:30:00","56458","12.13","39.87","15.39","43.16","1012.747","13.53","100.0","25.28","0.3"],
    [1509962,"2026-03-06 08:40:00","56459","12.32","39.89","15.22","40.52","1012.779","13.44","100.0","36.86","0.2"],
    [1509963,"2026-03-06 08:50:00","56460","11.29","35.85","14.63","44.42","1012.794","13.47","100.0","34.78","0.7"],
    [1509964,"2026-03-06 09:00:00","56461","11.94","36.89","16.3","39.55","1012.789","13.46","100.0","35.57","0.4"],
    [1509965,"2026-03-06 09:10:00","56462","11.69","37.37","15.16","40.66","1012.84","13.44","100.0","27.0","0.6"],
    [1509966,"2026-03-06 09:20:00","56463","12.55","38.98","16.43","39.66","1012.792","13.45","100.0","29.8","0.1"],
    [1509967,"2026-03-06 09:30:00","56464","13.84","39.05","17.8","43.66","1012.827","13.39","100.0","28.62","2.0"],
    [1509968,"2026-03-06 09:40:00","56465","11.64","35.42","15.94","37.41","1012.996","13.33","100.0","27.97","0.6"],
    [1509969,"2026-03-06 09:50:00","56466","11.37","33.15","15.68","36.42","1012.967","13.41","100.0","33.02","0.6"],
    [1509970,"2026-03-06 10:00:00","56467","12.28","40.44","16.86","43.08","1012.838","13.41","100.0","31.46","0.9"],
    [1509971,"2026-03-06 10:10:00","56468","13.65","39.69","17.8","38.64","1012.847","13.51","100.0","34.87","0.1"],
    [1509972,"2026-03-06 10:20:00","56469","12.81","34.38","19.83","39.55","1013.117","13.56","100.0","35.34","0.0"],
    [1509973,"2026-03-06 10:30:00","56470","14.07","37.88","18.23","36.65","1013.043","13.62","100.0","33.86","0.0"],
    [1509974,"2026-03-06 10:40:00","56471","12.23","35.22","17.28","26.37","1013.266","13.78","100.0","74.0","0.0"],
    [1509975,"2026-03-06 10:50:00","56472","11.51","32.53","15.88","26.9","1013.364","13.84","100.0","64.66","0.0"],
    [1509976,"2026-03-06 11:00:00","56473","12.24","33.4","18.06","32.82","1013.433","13.87","100.0","54.25","0.0"],
    [1509977,"2026-03-06 11:10:00","56474","10.19","29.49","15.55","32.41","1013.615","13.94","100.0","40.42","0.0"],
    [1509978,"2026-03-06 11:20:00","56475","10.21","27.25","15.84","22.3","1013.706","13.96","100.0","60.18","0.0"],
    [1509979,"2026-03-06 11:30:00","56476","9.35","28.97","14.83","28.73","1013.793","14.02","100.0","63.04","0.0"],
    [1509980,"2026-03-06 11:40:00","56477","7.829","28.81","14.96","352.9","1013.864","13.97","100.0","117.4","0.0"],
    [1509981,"2026-03-06 11:50:00","56478","6.358","29.58","14.86","27.45","1013.975","14.0","100.0","88.2","0.0"],
    [1509982,"2026-03-06 12:00:00","56479","7.465","22.98","14.57","23.29","1013.824","14.0","100.0","183.6","0.0"],
    [1509983,"2026-03-06 12:10:00","56480","7.57","27.3","12.9","31.81","1013.792","14.09","100.0","385.5","0.0"],
    [1509984,"2026-03-06 12:20:00","56481","8.45","27.67","13.33","29.06","1013.787","13.99","100.0","91.7","0.0"],
    [1509985,"2026-03-06 12:30:00","56482","6.2829999999999995","28.5","11.04","24.49","1013.773","14.04","100.0","150.5","0.0"],
    [1509986,"2026-03-06 12:40:00","56483","6.641","25.49","12.18","23.77","1013.715","14.09","100.0","144.2","0.0"],
    [1509987,"2026-03-06 12:50:00","56484","9.04","31.58","14.6","26.52","1013.636","14.1","100.0","169.0","0.0"],
    [1509988,"2026-03-06 13:00:00","56485","9.52","36.95","13.49","41.65","1013.725","14.09","100.0","100.5","0.0"],
    [1509989,"2026-03-06 13:10:00","56486","9.73","38.77","12.45","28.68","1013.642","14.07","100.0","143.9","0.0"],
    [1509990,"2026-03-06 13:20:00","56487","9.33","39.84","12.02","39.31","1013.598","14.01","100.0","157.9","0.0"],
    [1509991,"2026-03-06 13:30:00","56488","9.48","40.74","11.6","45.31","1013.484","14.05","100.0","255.1","0.0"],
    [1509992,"2026-03-06 13:40:00","56489","8.29","45.27","11.07","45.63","1013.586","14.19","100.0","418.0","0.0"],
    [1509993,"2026-03-06 13:50:00","56490","9.21","41.85","11.79","45.1","1013.507","14.09","100.0","263.2","0.0"],
    [1509994,"2026-03-06 14:00:00","56491","8.53","38.53","11.4","38.29","1013.53","14.07","100.0","362.2","0.0"],
    [1509995,"2026-03-06 14:10:00","56492","8.35","33.17","11.66","27.19","1013.533","14.03","100.0","321.6","0.0"],
    [1509996,"2026-03-06 14:20:00","56493","8.65","40.51","10.78","41.86","1013.527","14.12","100.0","647.8","0.0"],
    [1509997,"2026-03-06 14:30:00","56494","8.52","39.43","10.39","35.7","1013.595","14.13","100.0","474.3","0.0"],
    [1509998,"2026-03-06 14:40:00","56495","8.41","39.91","10.98","38.44","1013.677","14.13","100.0","312.0","0.0"],
    [1509999,"2026-03-06 14:50:00","56496","7.872999999999999","42.93","10.71","44.72","1013.652","14.19","100.0","372.8","0.0"],
    [1510000,"2026-03-06 15:00:00","56497","8.91","42.2","11.17","39.43","1013.728","14.26","100.0","177.9","0.0"],
    [1510001,"2026-03-06 15:10:00","56498","9.12","40.89","11.4","40.22","1013.714","14.23","100.0","215.4","0.0"],
    [1510002,"2026-03-06 15:20:00","56499","9.1","37.34","11.01","29.72","1013.791","14.24","100.0","135.5","0.0"],
    [1510003,"2026-03-06 15:30:00","56500","8.87","39.12","11.3","42.72","1013.863","14.22","100.0","121.7","0.0"],
    [1510004,"2026-03-06 15:40:00","56501","7.874","40.88","10.52","43.15","1013.944","14.22","100.0","93.5","0.0"],
    [1510005,"2026-03-06 15:50:00","56502","7.084","34.01","10.52","49.92","1014.131","14.26","100.0","94.6","0.0"],
    [1510006,"2026-03-06 16:00:00","56503","5.97","39.52","10.98","39.23","1013.91","14.29","100.0","55.56","0.0"],
    [1510007,"2026-03-06 16:10:00","56504","5.41","38.86","10.45","39.21","1014.004","14.21","100.0","76.12","0.0"],
    [1510008,"2026-03-06 16:20:00","56505","7.31","41.06","11.14","31.26","1014.056","14.23","100.0","39.89","0.0"],
    [1510009,"2026-03-06 16:30:00","56506","6.044","39.94","10.58","46.57","1014.357","14.17","100.0","44.21","0.0"],
    [1510010,"2026-03-06 16:40:00","56507","8.01","40.2","13.03","39.33","1014.236","14.12","100.0","23.18","0.0"],
    [1510011,"2026-03-06 16:50:00","56508","10.93","43.11","13.07","45.23","1014.201","14.01","100.0","19.64","0.0"],
    [1510012,"2026-03-06 17:00:00","56509","10.51","40.95","12.61","43.91","1014.243","14.01","100.0","15.85","0.0"],
    [1510013,"2026-03-06 17:10:00","56510","10.39","41.1","12.94","39.2","1014.349","13.96","100.0","12.91","0.0"],
    [1510014,"2026-03-06 17:20:00","56511","10.22","34.78","13.82","43.24","1014.546","14.02","100.0","15.08","0.0"],
    [1510015,"2026-03-06 17:30:00","56512","7.231","41.15","12.09","26.06","1014.723","14.26","99.6","4.234","0.0"],
    [1510016,"2026-03-06 17:40:00","56513","5.735","86.6","8.62","101.6","1014.802","14.16","100.0","2.009","0.0"],
    [1510017,"2026-03-06 17:50:00","56514","6.622000000000001","75.13","9.21","74.18","1014.915","14.15","100.0","0.5589999999999999","0.0"],
    [1510018,"2026-03-06 18:00:00","56515","6.5729999999999995","77.69","9.34","78.59","1014.964","14.13","100.0","0.0","0.0"],
    [1510019,"2026-03-06 18:10:00","56516","6.9510000000000005","76.21","9.24","73.87","1015.017","14.07","100.0","0.0","0.0"],
    [1510020,"2026-03-06 18:20:00","56517","6.9","72.35","8.79","61.18","1015.221","14.04","100.0","0.0","0.0"],
    [1510021,"2026-03-06 18:30:00","56518","6.05","73.42","7.938","69.72","1015.338","13.96","100.0","0.0","0.0"],
    [1510022,"2026-03-06 18:40:00","56519","6.386","68.69","8.2","69.54","1015.347","13.98","100.0","0.0","0.0"],
    [1510023,"2026-03-06 18:50:00","56520","5.564","61.53","8.04","61.46","1015.512","14.03","100.0","0.0","0.0"],
    [1510024,"2026-03-06 19:00:00","56521","4.721","54.28","6.468","62.71","1015.666","14.1","100.0","0.0","0.0"],
    [1510025,"2026-03-06 19:10:00","56522","4.67","54.35","7.121","53.22","1015.803","14.12","100.0","0.0","0.0"],
    [1510026,"2026-03-06 19:20:00","56523","4.663","51.67","7.252000000000001","59.55","1015.968","14.12","100.0","0.0","0.0"],
    [1510027,"2026-03-06 19:30:00","56524","5.879","58.37","7.905","65.17","1016.08","14.06","100.0","0.0","0.0"],
    [1510028,"2026-03-06 19:40:00","56525","5.417999999999999","56.2","7.742000000000001","55.57","1016.201","14.08","100.0","0.0","0.0"],
    [1510029,"2026-03-06 19:50:00","56526","4.916","58.92","7.317","63.26","1016.339","13.98","100.0","0.0","0.0"],
    [1510030,"2026-03-06 20:00:00","56527","4.996","51.27","6.9910000000000005","42.37","1016.45","14.09","100.0","0.0","0.0"],
    [1510031,"2026-03-06 20:10:00","56528","5.087","37.67","6.925","34.54","1016.525","14.19","100.0","0.0","0.0"],
    [1510032,"2026-03-06 20:20:00","56529","6.042999999999999","34.7","7.84","30.7","1016.513","14.03","100.0","0.0","0.1"],
    [1510033,"2026-03-06 20:30:00","56530","6.907","33.86","8.95","32.86","1016.588","14.17","100.0","0.11","0.0"],
    [1510034,"2026-03-06 20:40:00","56531","6.765","34.56","9.24","15.54","1016.69","14.05","100.0","0.0","0.0"],
    [1510035,"2026-03-06 20:50:00","56532","6.305","35.45","8.33","42.11","1016.778","14.05","100.0","0.0","0.0"],
    [1510036,"2026-03-06 21:00:00","56533","6.351","34.28","9.11","35.66","1016.874","14.19","100.0","0.0","0.0"],
    [1510037,"2026-03-06 21:10:00","56534","6.697","34.87","9.05","30.02","1016.857","14.13","100.0","0.0","0.0"],
    [1510038,"2026-03-06 21:20:00","56535","7.3","34.32","10.55","36.09","1016.872","14.07","100.0","0.0","0.0"],
    [1510039,"2026-03-06 21:30:00","56536","7.197","34.88","9.21","39.66","1016.927","14.08","100.0","0.0","0.2"],
    [1510040,"2026-03-06 21:40:00","56537","8.44","33.84","11.5","35.53","1016.831","14.04","100.0","0.882","0.0"],
    [1510041,"2026-03-06 21:50:00","56538","8.92","34.69","11.53","40.34","1016.826","14.12","100.0","0.418","0.1"],
    [1510042,"2026-03-06 22:00:00","56539","9.08","33.78","11.66","23.0","1016.929","14.09","100.0","0.012","0.0"],
    [1510043,"2026-03-06 22:10:00","56540","9.38","34.14","11.5","38.62","1016.982","14.13","100.0","0.479","0.0"],
    [1510044,"2026-03-06 22:20:00","56541","8.89","35.58","11.56","44.83","1016.961","14.15","100.0","0.9890000000000001","0.0"],
    [1510045,"2026-03-06 22:30:00","56542","7.96","36.49","10.65","46.22","1017.067","14.12","100.0","1.045","0.0"],
    [1510046,"2026-03-06 22:40:00","56543","7.805","35.38","11.17","43.42","1017.12","14.18","100.0","0.953","0.0"],
    [1510047,"2026-03-06 22:50:00","56544","6.585","47.0","8.75","52.41","1017.249","14.24","100.0","0.38299999999999995","0.0"],
    [1510048,"2026-03-06 23:00:00","56545","7.989","47.36","10.62","47.94","1017.253","14.16","100.0","0.495","0.0"],
    [1510049,"2026-03-06 23:10:00","56546","7.267","48.94","9.96","48.24","1017.299","14.1","100.0","0.209","0.0"],
    [1510050,"2026-03-06 23:20:00","56547","6.861000000000001","50.08","8.89","48.15","1017.309","14.13","100.0","0.026000000000000002","0.0"],
    [1510051,"2026-03-06 23:30:00","56548","6.4270000000000005","52.48","8.75","53.31","1017.352","14.15","100.0","0.002","0.0"],
    [1510052,"2026-03-06 23:40:00","56549","7.341","55.82","10.19","55.58","1017.322","14.15","100.0","0.0","0.0"],
    [1510053,"2026-03-06 23:50:00","56550","7.412999999999999","57.74","10.13","58.2","1017.314","14.15","100.0","0.0","0.0"],
    [1510054,"2026-03-07 00:00:00","56551","7.388","57.29","9.7","60.37","1017.339","14.13","100.0","0.025","0.0"],
    [1510055,"2026-03-07 00:10:00","56552","7.744","66.1","10.32","76.93","1017.338","14.1","100.0","0.009000000000000001","0.0"],
    [1510056,"2026-03-07 00:20:00","56553","7.017","71.17","9.67","65.56","1017.402","14.05","100.0","0.006999999999999999","0.0"],
    [1510057,"2026-03-07 00:30:00","56554","6.572","75.43","8.98","81.8","1017.459","13.93","100.0","0.0","0.0"],
    [1510058,"2026-03-07 00:40:00","56555","6.6770000000000005","82.9","8.66","78.07","1017.475","14.05","100.0","0.0","0.0"],
    [1510059,"2026-03-07 00:50:00","56556","6.026","83.1","8.33","87.2","1017.539","14.11","100.0","0.0","0.0"],
    [1510060,"2026-03-07 01:00:00","56557","6.007000000000001","82.1","8.46","82.6","1017.565","14.15","100.0","0.0","0.0"],
    [1510061,"2026-03-07 01:10:00","56558","5.846","79.03","9.7","75.4","1017.569","14.11","100.0","0.0","0.0"],
    [1510062,"2026-03-07 01:20:00","56559","6.789","83.2","9.18","90.1","1017.532","14.11","100.0","0.0","0.0"],
    [1510063,"2026-03-07 01:30:00","56560","6.322","85.6","8.53","90.5","1017.526","14.13","100.0","0.0","0.0"],
    [1510064,"2026-03-07 01:40:00","56561","6.276","88.5","8.26","88.6","1017.511","14.13","100.0","0.0","0.0"],
    [1510065,"2026-03-07 01:50:00","56562","5.797999999999999","82.5","7.971","85.0","1017.473","14.13","100.0","0.0","0.0"],
    [1510066,"2026-03-07 02:00:00","56563","6.127999999999999","78.72","9.02","79.38","1017.499","14.08","100.0","0.0","0.0"],
    [1510067,"2026-03-07 02:10:00","56564","6.399","76.44","8.62","79.08","1017.489","14.07","100.0","0.0","0.0"],
    [1510068,"2026-03-07 02:20:00","56565","6.279","78.48","8.36","84.4","1017.427","14.06","100.0","0.0","0.0"],
    [1510069,"2026-03-07 02:30:00","56566","5.782","83.2","8.0","88.2","1017.436","14.03","100.0","0.0","0.0"],
    [1510070,"2026-03-07 02:40:00","56567","5.61","82.5","7.84","82.8","1017.374","13.98","100.0","0.0","0.0"],
    [1510071,"2026-03-07 02:50:00","56568","5.559","78.94","7.546","72.17","1017.217","14.01","100.0","0.0","0.0"],
    [1510072,"2026-03-07 03:00:00","56569","5.332999999999999","68.32","7.023","65.69","1017.187","14.04","100.0","0.0","0.0"],
    [1510073,"2026-03-07 03:10:00","56570","5.546","66.36","7.382999999999999","73.26","1017.214","14.04","100.0","0.0","0.0"],
    [1510074,"2026-03-07 03:20:00","56571","4.718","59.86","6.795","60.13","1017.24","14.04","100.0","0.0","0.0"],
    [1510075,"2026-03-07 03:30:00","56572","5.765","64.75","7.709","67.87","1017.242","14.0","100.0","0.0","0.0"],
    [1510076,"2026-03-07 03:40:00","56573","5.553999999999999","68.23","7.709","67.94","1017.212","13.96","100.0","0.006999999999999999","0.0"],
    [1510077,"2026-03-07 03:50:00","56574","6.165","74.8","11.04","68.62","1017.281","13.54","100.0","0.506","2.3"],
    [1510078,"2026-03-07 04:00:00","56575","4.91","110.2","10.26","87.4","1017.341","12.56","100.0","0.301","3.7"],
    [1510079,"2026-03-07 04:10:00","56576","4.684","100.5","6.86","106.5","1017.453","13.39","100.0","0.976","0.3"],
    [1510080,"2026-03-07 04:20:00","56577","5.949","92.6","8.53","86.3","1017.51","13.25","100.0","0.924","0.2"],
    [1510081,"2026-03-07 04:30:00","56578","6.683","129.9","8.69","136.6","1017.683","13.61","100.0","3.072","0.0"],
    [1510082,"2026-03-07 04:40:00","56579","6.718999999999999","139.9","9.05","152.0","1017.833","13.67","100.0","4.169","0.0"],
    [1510083,"2026-03-07 04:50:00","56580","6.487","140.0","8.23","134.2","1017.896","13.83","98.8","3.926","0.0"],
    [1510084,"2026-03-07 05:00:00","56581","6.102","144.8","7.579","129.7","1017.944","13.91","96.2","2.9130000000000003","0.0"],
    [1510085,"2026-03-07 05:10:00","56582","6.335","142.9","8.2","137.4","1018.018","13.81","94.0","3.07","0.0"],
    [1510086,"2026-03-07 05:20:00","56583","6.22","147.8","7.938","153.1","1018.164","13.83","92.1","1.9480000000000002","0.0"],
    [1510087,"2026-03-07 05:30:00","56584","5.644","148.9","7.546","147.1","1018.377","13.85","90.9","0.39399999999999996","0.0"],
    [1510088,"2026-03-07 05:40:00","56585","4.891","144.3","6.305","144.8","1018.475","13.83","91.1","0.0","0.0"],
    [1510089,"2026-03-07 05:50:00","56586","4.746","142.0","6.1739999999999995","143.2","1018.562","13.79","91.8","0.0","0.0"],
    [1510090,"2026-03-07 06:00:00","56587","3.802","137.4","4.965","134.9","1018.706","13.78","92.3","0.0","0.0"],
    [1510091,"2026-03-07 06:10:00","56588","3.12","133.8","4.247","134.7","1018.824","13.77","92.5","0.08","0.0"],
    [1510092,"2026-03-07 06:20:00","56589","2.512","120.7","3.43","120.8","1018.937","13.76","93.0","4.279","0.0"],
    [1510093,"2026-03-07 06:30:00","56590","2.131","133.8","3.071","139.1","1019.085","13.78","93.3","17.43","0.0"],
    [1510094,"2026-03-07 06:40:00","56591","2.059","140.5","3.1689999999999996","129.6","1019.159","13.77","92.7","27.43","0.0"],
    [1510095,"2026-03-07 06:50:00","56592","2.176","136.1","2.679","132.1","1019.241","13.87","92.1","46.22","0.0"],
    [1510096,"2026-03-07 07:00:00","56593","1.943","139.1","2.5810000000000004","167.3","1019.372","13.95","91.6","76.0","0.0"],
    [1510097,"2026-03-07 07:10:00","56594","2.403","146.2","3.6260000000000003","156.5","1019.612","13.93","90.7","108.6","0.0"],
    [1510098,"2026-03-07 07:20:00","56595","2.406","133.4","3.659","133.1","1019.835","14.15","88.9","146.2","0.0"],
    [1510099,"2026-03-07 07:30:00","56596","2.1069999999999998","130.6","2.679","133.8","1020.009","14.2","88.8","166.8","0.0"],
    [1510100,"2026-03-07 07:40:00","56597","2.3480000000000003","125.6","3.136","129.0","1020.037","14.09","89.0","166.1","0.0"],
    [1510101,"2026-03-07 07:50:00","56598","2.645","134.6","3.6260000000000003","136.1","1020.132","13.91","85.7","130.9","0.0"],
    [1510102,"2026-03-07 08:00:00","56599","2.167","121.4","3.528","125.6","1020.107","14.12","83.3","176.3","0.0"],
    [1510103,"2026-03-07 08:10:00","56600","1.909","111.5","2.613","109.2","1020.072","14.2","83.3","158.1","0.0"],
    [1510104,"2026-03-07 08:20:00","56601","1.8","110.2","2.548","99.9","1020.128","14.21","84.1","244.9","0.0"],
    [1510105,"2026-03-07 08:30:00","56602","1.692","114.1","2.385","110.6","1020.191","14.41","81.9","342.1","0.0"],
    [1510106,"2026-03-07 08:40:00","56603","1.939","108.7","2.679","121.0","1020.205","14.46","81.6","277.9","0.0"],
    [1510107,"2026-03-07 08:50:00","56604","2.146","106.7","3.071","115.2","1020.275","14.47","84.4","346.1","0.0"],
    [1510108,"2026-03-07 09:00:00","56605","2.6189999999999998","108.3","3.234","107.4","1020.355","14.28","85.7","329.7","0.0"],
    [1510109,"2026-03-07 09:10:00","56606","2.497","103.3","3.43","87.8","1020.442","14.18","86.2","315.5","0.0"],
    [1510110,"2026-03-07 09:20:00","56607","2.477","96.7","3.822","108.6","1020.496","14.3","86.1","458.3","0.0"],
    [1510111,"2026-03-07 09:30:00","56608","2.2","90.6","3.397","74.15","1020.462","14.22","85.2","333.7","0.0"],
    [1510112,"2026-03-07 09:40:00","56609","2.279","81.1","3.6260000000000003","85.8","1020.441","14.27","84.7","441.2","0.0"],
    [1510113,"2026-03-07 09:50:00","56610","2.09","102.1","3.136","111.2","1020.526","14.3","83.5","416.5","0.0"],
    [1510114,"2026-03-07 10:00:00","56611","2.4019999999999997","91.0","3.201","69.34","1020.588","14.31","82.5","349.1","0.0"],
    [1510115,"2026-03-07 10:10:00","56612","2.377","87.5","3.6910000000000003","81.8","1020.637","14.48","82.4","512.6","0.0"],
    [1510116,"2026-03-07 10:20:00","56613","2.75","110.8","3.6260000000000003","106.4","1020.655","14.54","81.8","423.0","0.0"],
    [1510117,"2026-03-07 10:30:00","56614","2.927","109.0","3.92","109.6","1020.714","14.43","81.3","366.2","0.0"],
    [1510118,"2026-03-07 10:40:00","56615","2.6439999999999997","96.9","3.822","106.2","1020.72","14.44","81.0","408.7","0.0"],
    [1510119,"2026-03-07 10:50:00","56616","2.485","94.4","3.7889999999999997","99.9","1020.733","14.55","80.4","586.8","0.0"],
    [1510120,"2026-03-07 11:00:00","56617","2.378","81.1","3.7569999999999997","87.6","1020.747","14.48","80.2","387.7","0.0"],
    [1510121,"2026-03-07 11:10:00","56618","2.302","82.9","3.495","85.1","1020.759","14.4","81.2","364.0","0.0"],
    [1510122,"2026-03-07 11:20:00","56619","2.406","87.7","4.083","92.4","1020.826","14.33","83.0","360.5","0.0"],
    [1510123,"2026-03-07 11:30:00","56620","2.61","85.5","4.018","81.5","1020.894","14.18","83.8","305.5","0.0"],
    [1510124,"2026-03-07 11:40:00","56621","2.319","73.14","4.149","39.99","1020.958","14.21","84.0","261.5","0.0"],
    [1510125,"2026-03-07 11:50:00","56622","1.6980000000000002","62.65","3.593","67.39","1020.93","14.3","84.3","263.5","0.0"],
    [1510126,"2026-03-07 12:00:00","56623","2.562","50.31","4.737","35.73","1020.957","14.32","84.4","426.1","0.0"],
    [1510127,"2026-03-07 12:10:00","56624","2.67","65.69","5.1610000000000005","62.26","1020.972","14.29","84.0","444.9","0.0"],
    [1510128,"2026-03-07 12:20:00","56625","2.407","56.55","5.031000000000001","47.7","1020.875","14.33","83.5","497.1","0.0"],
    [1510129,"2026-03-07 12:30:00","56626","2.873","44.29","5.4879999999999995","45.57","1020.74","14.37","82.6","550.9","0.0"],
    [1510130,"2026-03-07 12:40:00","56627","2.72","45.45","5.2589999999999995","31.06","1020.674","14.34","82.6","310.6","0.0"],
    [1510131,"2026-03-07 12:50:00","56628","2.35","43.91","4.835","33.46","1020.584","14.33","82.7","306.8","0.0"],
    [1510132,"2026-03-07 13:00:00","56629","2.6319999999999997","79.33","4.737","98.8","1020.493","14.27","83.0","242.0","0.0"],
    [1510133,"2026-03-07 13:10:00","56630","2.316","82.7","4.312","77.17","1020.434","14.25","83.6","280.3","0.0"],
    [1510134,"2026-03-07 13:20:00","56631","2.8480000000000003","89.0","4.573","82.9","1020.387","14.25","83.9","236.7","0.0"],
    [1510135,"2026-03-07 13:30:00","56632","3.1039999999999996","81.0","5.357","96.4","1020.283","14.14","83.5","227.3","0.0"],
    [1510136,"2026-03-07 13:40:00","56633","3.563","82.3","5.227","78.4","1020.339","14.18","82.3","247.1","0.0"],
    [1510137,"2026-03-07 13:50:00","56634","2.753","75.34","5.651","79.6","1020.394","14.21","81.5","209.8","0.0"],
    [1510138,"2026-03-07 14:00:00","56635","3.718","93.1","7.023","105.4","1020.444","14.29","81.1","166.6","0.0"],
    [1510139,"2026-03-07 14:10:00","56636","4.838","131.8","6.337000000000001","119.9","1020.601","14.26","83.7","144.4","0.0"],
    [1510140,"2026-03-07 14:20:00","56637","4.688","143.9","6.631","132.3","1020.646","14.22","86.0","119.3","0.0"],
    [1510141,"2026-03-07 14:30:00","56638","6.023","166.1","9.02","194.3","1020.661","13.93","88.2","123.4","0.0"],
    [1510142,"2026-03-07 14:40:00","56639","6.834","195.9","8.82","197.2","1020.795","12.72","91.2","116.0","0.0"],
    [1510143,"2026-03-07 14:50:00","56640","5.056","208.6","8.36","199.3","1020.908","12.26","92.5","123.8","0.0"],
    [1510144,"2026-03-07 15:00:00","56641","4.217","213.2","6.631","227.5","1021.038","12.29","91.9","75.08","0.0"],
    [1510145,"2026-03-07 15:10:00","56642","4.146","223.6","8.56","216.4","1021.004","12.02","91.3","47.19","0.0"],
    [1510146,"2026-03-07 15:20:00","56643","3.127","224.5","6.042999999999999","193.7","1020.933","11.94","91.7","46.45","0.1"],
    [1510147,"2026-03-07 15:30:00","56644","2.798","234.5","5.325","249.9","1020.758","11.9","92.9","57.66","0.0"],
    [1510148,"2026-03-07 15:40:00","56645","2.748","239.7","4.149","235.4","1020.878","11.77","94.0","84.0","0.1"],
    [1510149,"2026-03-07 15:50:00","56646","2.747","242.8","4.704","257.9","1020.811","11.81","95.0","83.5","0.1"],
    [1510150,"2026-03-07 16:00:00","56647","2.531","234.3","4.41","218.7","1020.858","11.71","96.1","91.2","0.0"],
    [1510151,"2026-03-07 16:10:00","56648","2.714","240.1","4.541","241.9","1020.863","11.49","96.8","108.5","0.0"],
    [1510152,"2026-03-07 16:20:00","56649","2.088","240.7","3.463","232.4","1020.896","11.59","97.3","79.59","0.0"],
    [1510153,"2026-03-07 16:30:00","56650","2.145","243.7","3.397","258.8","1021.036","11.47","97.2","51.0","0.0"],
    [1510154,"2026-03-07 16:40:00","56651","1.6980000000000002","251.2","2.8089999999999997","256.3","1021.113","11.56","96.3","55.93","0.0"],
    [1510155,"2026-03-07 16:50:00","56652","1.953","257.8","3.267","254.5","1021.086","11.61","94.9","42.62","0.0"],
    [1510156,"2026-03-07 17:00:00","56653","1.8730000000000002","242.3","3.332","244.8","1021.007","11.59","93.2","23.94","0.0"],
    [1510157,"2026-03-07 17:10:00","56654","1.765","242.0","3.659","266.1","1020.982","11.76","91.7","19.58","0.0"],
    [1510158,"2026-03-07 17:20:00","56655","1.6740000000000002","256.6","3.103","270.7","1020.969","11.9","90.8","17.38","0.0"],
    [1510159,"2026-03-07 17:30:00","56656","1.764","282.2","3.397","277.5","1021.037","12.01","89.6","13.49","0.0"],
    [1510160,"2026-03-07 17:40:00","56657","1.605","287.8","2.515","295.4","1021.122","12.02","88.2","6.627000000000001","0.0"],
    [1510161,"2026-03-07 17:50:00","56658","1.385","300.8","2.156","305.1","1021.236","12.09","86.7","2.28","0.0"],
    [1510162,"2026-03-07 18:00:00","56659","0.7809999999999999","272.1","1.405","294.9","1021.374","12.29","85.6","0.598","0.0"],
    [1510163,"2026-03-07 18:10:00","56660","1.4680000000000002","277.5","2.319","270.1","1021.337","12.26","85.5","0.0","0.0"],
    [1510164,"2026-03-07 18:20:00","56661","1.4280000000000002","275.1","2.352","273.1","1021.338","12.28","85.9","0.0","0.0"],
    [1510165,"2026-03-07 18:30:00","56662","0.6679999999999999","331.5","2.417","334.5","1021.548","12.36","86.4","0.0","0.0"],
    [1510166,"2026-03-07 18:40:00","56663","1.238","325.9","1.96","337.0","1021.558","12.55","86.9","0.0","0.0"],
    [1510167,"2026-03-07 18:50:00","56664","1.2919999999999998","338.2","1.8619999999999999","340.7","1021.555","12.63","87.4","0.0","0.0"],
    [1510168,"2026-03-07 19:00:00","56665","1.183","343.0","1.4369999999999998","344.1","1021.577","12.66","87.1","0.0","0.0"],
    [1510169,"2026-03-07 19:10:00","56666","1.3259999999999998","347.2","1.993","347.6","1021.567","12.83","86.5","0.0","0.0"],
    [1510170,"2026-03-07 19:20:00","56667","1.911","354.5","2.875","338.5","1021.569","13.04","86.5","0.0","0.0"],
    [1510171,"2026-03-07 19:30:00","56668","2.164","354.3","3.136","351.4","1021.576","13.12","86.3","0.0","0.0"],
    [1510172,"2026-03-07 19:40:00","56669","2.372","346.2","2.94","351.4","1021.577","13.2","86.3","0.0","0.0"],
    [1510173,"2026-03-07 19:50:00","56670","2.255","347.3","2.875","338.1","1021.644","13.23","86.5","0.0","0.0"],
    [1510174,"2026-03-07 20:00:00","56671","2.27","341.5","3.463","344.7","1021.584","13.28","86.4","0.0","0.0"],
    [1510175,"2026-03-07 20:10:00","56672","1.9880000000000002","352.0","2.6460000000000004","3.852","1021.578","13.3","86.5","0.0","0.0"],
    [1510176,"2026-03-07 20:20:00","56673","2.262","12.89","3.7569999999999997","15.93","1021.693","13.36","85.7","0.0","0.0"],
    [1510177,"2026-03-07 20:30:00","56674","3.503","27.58","4.345","29.68","1021.816","13.42","84.3","0.0","0.0"],
    [1510178,"2026-03-07 20:40:00","56675","3.785","22.35","4.867","22.55","1021.915","13.33","84.3","0.0","0.0"],
    [1510179,"2026-03-07 20:50:00","56676","3.958","17.5","4.9","13.37","1021.926","13.26","84.2","0.0","0.0"],
    [1510180,"2026-03-07 21:00:00","56677","3.6510000000000002","19.78","4.4430000000000005","17.07","1021.988","13.31","83.7","0.0","0.0"],
    [1510181,"2026-03-07 21:10:00","56678","3.3310000000000004","20.73","4.018","14.46","1021.992","13.32","83.4","0.0","0.0"],
    [1510182,"2026-03-07 21:20:00","56679","3.722","18.9","4.508","8.87","1021.97","13.34","83.4","0.0","0.0"],
    [1510183,"2026-03-07 21:30:00","56680","3.425","20.9","4.1160000000000005","7.731","1021.982","13.35","83.9","0.0","0.0"],
    [1510184,"2026-03-07 21:40:00","56681","3.967","21.86","4.704","22.95","1021.935","13.31","84.9","0.0","0.0"],
    [1510185,"2026-03-07 21:50:00","56682","3.986","24.08","4.9","27.88","1021.86","13.42","86.5","0.0","0.0"],
    [1510186,"2026-03-07 22:00:00","56683","5.031000000000001","27.99","6.9910000000000005","24.49","1021.812","13.49","88.0","0.0","0.0"],
    [1510187,"2026-03-07 22:10:00","56684","5.417000000000001","30.19","6.599","30.96","1021.758","13.51","87.6","0.0","0.0"],
    [1510188,"2026-03-07 22:20:00","56685","4.7589999999999995","29.64","5.815","31.91","1021.677","13.55","86.6","0.0","0.0"],
    [1510189,"2026-03-07 22:30:00","56686","3.572","12.86","4.541","14.49","1021.642","13.51","86.5","0.0","0.0"],
    [1510190,"2026-03-07 22:40:00","56687","3.63","15.71","4.475","10.18","1021.587","13.37","85.9","0.0","0.0"],
    [1510191,"2026-03-07 22:50:00","56688","3.5069999999999997","16.15","4.475","6.807","1021.513","13.35","84.9","0.0","0.0"],
    [1510192,"2026-03-07 23:00:00","56689","3.6439999999999997","12.89","4.4430000000000005","10.06","1021.464","13.26","81.7","0.0","0.0"],
    [1510193,"2026-03-07 23:10:00","56690","2.929","359.5","4.573","6.937","1021.389","13.4","76.35","0.0","0.0"],
    [1510194,"2026-03-07 23:20:00","56691","2.0909999999999997","357.8","3.136","11.1","1021.362","13.42","74.25","0.0","0.0"],
    [1510195,"2026-03-07 23:30:00","56692","2.416","7.6339999999999995","3.6260000000000003","2.496","1021.35","13.46","71.1","0.0","0.0"],
    [1510196,"2026-03-07 23:40:00","56693","2.485","9.71","3.495","9.42","1021.354","13.55","70.17","0.0","0.0"],
    [1510197,"2026-03-07 23:50:00","56694","1.715","346.4","2.7110000000000003","5.981","1021.352","13.48","69.14","0.0","0.0"],
    [1510198,"2026-03-08 00:00:00","56695","1.314","322.1","2.189","329.3","1021.326","13.34","69.24","0.0","0.0"],
    [1510199,"2026-03-08 00:10:00","56696","1.474","294.3","2.45","308.3","1021.283","13.21","70.32","0.0","0.0"],
    [1510200,"2026-03-08 00:20:00","56697","1.393","271.4","1.96","263.8","1021.297","13.04","73.18","0.0","0.0"],
    [1510201,"2026-03-08 00:30:00","56698","1.248","280.4","1.895","314.4","1021.313","12.91","74.87","0.0","0.0"],
    [1510202,"2026-03-08 00:40:00","56699","0.799","299.8","1.47","329.9","1021.296","12.97","74.85","0.0","0.0"],
    [1510203,"2026-03-08 00:50:00","56700","1.083","295.8","1.9269999999999998","291.6","1021.219","13.09","73.77","0.0","0.0"],
    [1510204,"2026-03-08 01:00:00","56701","1.2570000000000001","281.2","1.96","267.6","1021.149","12.98","75.66","0.0","0.0"],
    [1510205,"2026-03-08 01:10:00","56702","1.5190000000000001","274.7","2.0580000000000003","271.8","1021.139","12.78","78.22","0.0","0.0"],
    [1510206,"2026-03-08 01:20:00","56703","1.486","283.3","2.0580000000000003","287.5","1021.053","12.7","79.57","0.0","0.0"],
    [1510207,"2026-03-08 01:30:00","56704","1.297","275.3","1.699","266.3","1021","12.72","79.43","0.0","0.0"],
    [1510208,"2026-03-08 01:40:00","56705","0.527","282.6","1.111","305.8","1020.958","12.73","79.08","0.0","0.0"],
    [1510209,"2026-03-08 01:50:00","56706","0.563","350.3","1.9269999999999998","28.9","1020.889","12.83","78.88","0.0","0.0"],
    [1510210,"2026-03-08 02:00:00","56707","2.7439999999999998","6.355","5.912999999999999","8.87","1020.821","13.06","77.95","0.0","0.0"],
    [1510211,"2026-03-08 02:10:00","56708","3.306","18.75","4.051","21.14","1020.729","13.33","74.86","0.0","0.0"],
    [1510212,"2026-03-08 02:20:00","56709","3.536","24.9","4.638999999999999","16.44","1020.71","13.22","75.3","0.0","0.0"],
    [1510213,"2026-03-08 02:30:00","56710","3.5380000000000003","24.39","4.704","27.96","1020.694","13.13","75.84","0.0","0.0"],
    [1510214,"2026-03-08 02:40:00","56711","3.7310000000000003","12.16","4.933","359.1","1020.621","12.97","77.07","0.0","0.0"],
    [1510215,"2026-03-08 02:50:00","56712","3.679","5.2989999999999995","5.1610000000000005","10.39","1020.561","12.85","77.56","0.0","0.0"],
    [1510216,"2026-03-08 03:00:00","56713","3.136","4.056","4.247","1.0859999999999999","1020.492","12.77","78.08","0.0","0.0"],
    [1510217,"2026-03-08 03:10:00","56714","3.16","347.5","4.312","339.4","1020.446","12.53","77.45","0.0","0.0"],
    [1510218,"2026-03-08 03:20:00","56715","2.63","346.8","4.4430000000000005","340.9","1020.387","12.48","75.86","0.0","0.0"],
    [1510219,"2026-03-08 03:30:00","56716","1.0270000000000001","294.9","1.633","284.6","1020.37","12.32","76.32","0.0","0.0"],
    [1510220,"2026-03-08 03:40:00","56717","1.403","275.1","2.0580000000000003","280.2","1020.379","12.03","76.83","0.0","0.0"],
    [1510221,"2026-03-08 03:50:00","56718","1.8119999999999998","283.4","2.221","279.8","1020.334","11.98","77.71","0.0","0.0"],
    [1510222,"2026-03-08 04:00:00","56719","1.301","280.5","1.8619999999999999","280.6","1020.343","12.13","78.05","0.0","0.0"],
    [1510223,"2026-03-08 04:10:00","56720","1.121","274.7","1.601","270.6","1020.373","12.04","78.39","0.0","0.0"],
    [1510224,"2026-03-08 04:20:00","56721","0.636","264.0","1.143","263.9","1020.42","12.1","78.52","0.0","0.0"],
    [1510225,"2026-03-08 04:30:00","56722","0.514","296.5","0.98","289.4","1020.427","12.12","78.92","0.0","0.0"],
    [1510226,"2026-03-08 04:40:00","56723","1.889","16.31","2.7439999999999998","7.375","1020.478","12.47","79.78","0.0","0.0"],
    [1510227,"2026-03-08 04:50:00","56724","1.236","329.1","2.7769999999999997","11.77","1020.463","12.46","80.4","0.0","0.0"],
    [1510228,"2026-03-08 05:00:00","56725","1.844","11.77","2.9730000000000003","18.66","1020.504","12.54","81.3","0.0","0.0"],
    [1510229,"2026-03-08 05:10:00","56726","2.6710000000000003","20.84","4.377","20.44","1020.53","12.73","80.7","0.0","0.0"],
    [1510230,"2026-03-08 05:20:00","56727","2.725","20.4","3.985","29.62","1020.562","12.74","80.6","0.0","0.0"],
    [1510231,"2026-03-08 05:30:00","56728","3.115","7.374","4.312","11.02","1020.578","12.68","80.7","0.0","0.0"],
    [1510232,"2026-03-08 05:40:00","56729","2.627","8.49","3.495","24.19","1020.554","12.66","80.7","0.0","0.0"],
    [1510233,"2026-03-08 05:50:00","56730","2.638","16.4","3.92","16.13","1020.57","12.71","80.8","0.0","0.0"],
    [1510234,"2026-03-08 06:00:00","56731","2.7319999999999998","21.82","3.299","22.81","1020.62","12.63","80.9","0.0","0.0"],
    [1510235,"2026-03-08 06:10:00","56732","2.53","19.74","3.071","28.24","1020.621","12.62","81.2","0.113","0.0"],
    [1510236,"2026-03-08 06:20:00","56733","2.844","25.4","3.528","43.52","1020.647","12.56","81.7","1.405","0.0"],
    [1510237,"2026-03-08 06:30:00","56734","2.445","22.6","3.6910000000000003","21.93","1020.744","12.61","82.0","3.009","0.0"],
    [1510238,"2026-03-08 06:40:00","56735","2.42","20.5","3.332","28.53","1020.809","12.66","81.9","4.928999999999999","0.0"],
    [1510239,"2026-03-08 06:50:00","56736","2.597","2.194","3.201","9.58","1020.933","12.51","81.9","7.968999999999999","0.0"],
    [1510240,"2026-03-08 07:00:00","56737","2.85","12.73","3.7569999999999997","15.76","1021.097","12.58","81.2","14.13","0.0"],
    [1510241,"2026-03-08 07:10:00","56738","3.0469999999999997","16.79","3.7889999999999997","27.59","1021.214","12.68","80.4","25.89","0.0"],
    [1510242,"2026-03-08 07:20:00","56739","3.513","20.71","4.312","33.2","1021.279","12.78","79.35","28.34","0.0"],
    [1510243,"2026-03-08 07:30:00","56740","3.392","20.51","4.1160000000000005","26.44","1021.356","12.7","78.95","28.81","0.0"],
    [1510244,"2026-03-08 07:40:00","56741","3.136","17.39","3.822","24.77","1021.506","12.65","78.37","24.45","0.0"],
    [1510245,"2026-03-08 07:50:00","56742","2.6860000000000004","19.75","3.397","17.65","1021.694","12.7","77.84","31.85","0.0"],
    [1510246,"2026-03-08 08:00:00","56743","2.82","12.53","3.43","13.4","1021.809","12.64","78.06","77.43","0.1"],
    [1510247,"2026-03-08 08:10:00","56744","2.7560000000000002","10.3","3.5610000000000004","8.8","1021.929","12.5","78.76","127.2","0.2"],
    [1510248,"2026-03-08 08:20:00","56745","2.4419999999999997","7.24","2.9730000000000003","8.09","1022.002","12.5","79.3","124.5","0.0"],
    [1510249,"2026-03-08 08:30:00","56746","2.434","10.82","3.397","26.03","1022.058","12.6","79.18","128.8","0.0"],
    [1510250,"2026-03-08 08:40:00","56747","3.217","18.92","4.475","13.5","1022.074","12.71","78.85","189.1","0.0"],
    [1510251,"2026-03-08 08:50:00","56748","3.4360000000000004","10.34","4.1160000000000005","7.747999999999999","1022.148","12.75","79.42","292.3","0.0"],
    [1510252,"2026-03-08 09:00:00","56749","3.517","7.602","4.181","12.69","1022.214","12.73","79.48","564.6","0.0"],
    [1510253,"2026-03-08 09:10:00","56750","3.5810000000000004","7.307","4.181","3.841","1022.273","12.7","79.21","355.6","0.0"],
    [1510254,"2026-03-08 09:20:00","56751","3.428","13.55","4.345","5.218999999999999","1022.31","12.72","79.17","205.9","0.0"],
    [1510255,"2026-03-08 09:30:00","56752","2.807","16.86","3.5610000000000004","7.747000000000001","1022.407","12.75","78.83","198.3","0.0"],
    [1510256,"2026-03-08 09:40:00","56753","2.354","14.83","3.234","16.97","1022.469","12.84","78.4","281.7","0.0"],
    [1510257,"2026-03-08 09:50:00","56754","2.092","21.97","3.071","19.72","1022.487","12.9","77.67","300.9","0.0"],
    [1510258,"2026-03-08 10:00:00","56755","2.14","17.77","3.136","17.73","1022.533","13.16","77.06","542.3","0.0"],
    [1510259,"2026-03-08 10:10:00","56756","2.401","28.36","3.7569999999999997","23.06","1022.552","13.38","76.27","553.3","0.0"],
    [1510260,"2026-03-08 10:20:00","56757","2.722","30.65","3.9530000000000003","27.69","1022.594","13.4","75.36","486.6","0.0"],
    [1510261,"2026-03-08 10:30:00","56758","2.9810000000000003","29.48","4.149","23.33","1022.573","13.36","74.58","288.5","0.0"],
    [1510262,"2026-03-08 10:40:00","56759","3.032","24.28","4.279","37.53","1022.575","13.52","74.53","427.6","0.0"],
    [1510263,"2026-03-08 10:50:00","56760","2.603","35.36","3.7889999999999997","50.1","1022.539","13.5","75.12","603.3","0.0"],
    [1510264,"2026-03-08 11:00:00","56761","2.6889999999999996","32.84","3.7569999999999997","21.44","1022.507","13.69","74.9","741.3","0.0"],
    [1510265,"2026-03-08 11:10:00","56762","2.763","37.12","4.018","27.22","1022.558","13.54","75.57","697.8","0.0"],
    [1510266,"2026-03-08 11:20:00","56763","2.773","35.27","3.528","38.16","1022.539","13.51","76.15","791.2","0.0"],
    [1510267,"2026-03-08 11:30:00","56764","2.8160000000000003","45.12","3.855","33.28","1022.525","13.54","76.93","659.2","0.0"],
    [1510268,"2026-03-08 11:40:00","56765","2.89","39.42","3.7569999999999997","47.03","1022.491","13.56","77.69","726.3","0.0"],
    [1510269,"2026-03-08 11:50:00","56766","2.925","44.94","4.1160000000000005","36.22","1022.432","13.65","77.49","711.6","0.0"],
    [1510270,"2026-03-08 12:00:00","56767","1.9609999999999999","62.72","3.985","57.4","1022.405","13.82","77.29","616.7","0.0"],
    [1510271,"2026-03-08 12:10:00","56768","2.7960000000000003","46.54","4.279","38.79","1022.26","13.77","77.5","649.1","0.0"],
    [1510272,"2026-03-08 12:20:00","56769","1.965","59.4","4.247","60.41","1022.195","13.84","78.15","548.2","0.0"],
    [1510273,"2026-03-08 12:30:00","56770","3.177","83.2","5.2589999999999995","80.1","1022.045","13.83","79.41","511.0","0.0"],
    [1510274,"2026-03-08 12:40:00","56771","3.0239999999999996","62.32","4.965","58.33","1021.999","13.75","82.5","558.1","0.0"],
    [1510275,"2026-03-08 12:50:00","56772","3.5589999999999997","77.61","5.292000000000001","69.1","1021.918","13.62","84.3","632.7","0.0"],
    [1510276,"2026-03-08 13:00:00","56773","2.842","77.33","5.031000000000001","78.63","1021.855","13.58","86.2","761.6","0.0"],
    [1510277,"2026-03-08 13:10:00","56774","3.033","85.1","4.9","76.18","1021.836","13.6","87.6","733.6","0.0"],
    [1510278,"2026-03-08 13:20:00","56775","3.8539999999999996","80.8","5.586","78.99","1021.771","13.52","88.9","744.6","0.0"],
    [1510279,"2026-03-08 13:30:00","56776","3.863","78.5","5.782","95.2","1021.677","13.55","90.2","692.3","0.0"],
    [1510280,"2026-03-08 13:40:00","56777","3.292","82.4","5.586","91.3","1021.602","13.62","91.2","680.4","0.0"],
    [1510281,"2026-03-08 13:50:00","56778","2.702","74.85","5.39","87.5","1021.568","13.73","92.2","651.8","0.0"],
    [1510282,"2026-03-08 14:00:00","56779","2.5469999999999997","58.16","4.933","78.33","1021.53","13.86","92.7","646.8","0.0"],
    [1510283,"2026-03-08 14:10:00","56780","2.8310000000000004","50.68","5.4879999999999995","53.78","1021.455","13.95","93.2","568.8","0.0"],
    [1510284,"2026-03-08 14:20:00","56781","2.944","76.15","5.1610000000000005","86.1","1021.419","13.94","93.9","486.7","0.0"],
    [1510285,"2026-03-08 14:30:00","56782","2.8489999999999998","68.91","5.2589999999999995","97.7","1021.433","13.93","95.1","591.2","0.0"],
    [1510286,"2026-03-08 14:40:00","56783","2.502","48.78","4.508","33.57","1021.37","14.04","95.8","584.5","0.0"],
    [1510287,"2026-03-08 14:50:00","56784","2.301","46.65","4.835","29.71","1021.324","14.1","96.1","541.7","0.0"],
    [1510288,"2026-03-08 15:00:00","56785","2.0","84.0","3.234","84.8","1021.299","14.0","95.2","511.8","0.0"],
    [1510289,"2026-03-08 15:10:00","56786","2.758","88.8","3.6260000000000003","96.8","1021.251","13.98","93.5","359.5","0.0"],
    [1510290,"2026-03-08 15:20:00","56787","1.851","101.3","3.1689999999999996","79.62","1021.234","14.05","92.1","448.8","0.0"],
    [1510291,"2026-03-08 15:30:00","56788","2.1430000000000002","98.7","2.907","113.9","1021.227","14.06","90.5","425.3","0.0"],
    [1510292,"2026-03-08 15:40:00","56789","2.237","102.2","3.136","95.1","1021.231","14.11","89.0","390.6","0.0"],
    [1510293,"2026-03-08 15:50:00","56790","2.59","117.6","3.299","107.2","1021.269","14.18","88.5","358.5","0.0"],
    [1510294,"2026-03-08 16:00:00","56791","2.531","114.4","3.495","111.6","1021.247","14.21","88.5","325.4","0.0"],
    [1510295,"2026-03-08 16:10:00","56792","2.655","129.4","3.397","122.9","1021.251","14.1","88.3","284.7","0.0"],
    [1510296,"2026-03-08 16:20:00","56793","2.517","119.6","3.495","113.1","1021.274","14.04","88.3","134.5","0.0"],
    [1510297,"2026-03-08 16:30:00","56794","2.3680000000000003","116.4","3.43","116.2","1021.299","13.94","88.4","60.78","0.0"],
    [1510298,"2026-03-08 16:40:00","56795","2.59","114.8","3.1689999999999996","105.0","1021.339","13.94","87.8","102.1","0.0"],
    [1510299,"2026-03-08 16:50:00","56796","2.23","127.3","3.0380000000000003","136.6","1021.365","14.01","85.6","157.0","0.0"],
    [1510300,"2026-03-08 17:00:00","56797","2.577","117.0","3.332","112.6","1021.422","14.11","84.2","105.7","0.0"],
    [1510301,"2026-03-08 17:10:00","56798","2.431","124.5","3.365","130.9","1021.478","14.12","84.3","89.8","0.0"],
    [1510302,"2026-03-08 17:20:00","56799","2.699","125.8","3.5610000000000004","119.8","1021.548","14.13","84.8","63.49","0.0"],
    [1510303,"2026-03-08 17:30:00","56800","2.43","143.7","3.7239999999999998","162.2","1021.614","13.97","85.2","22.17","0.0"],
    [1510304,"2026-03-08 17:40:00","56801","2.7569999999999997","148.6","3.7889999999999997","144.4","1021.715","13.92","84.8","9.95","0.0"],
    [1510305,"2026-03-08 17:50:00","56802","2.932","149.0","3.887","157.4","1021.775","13.93","84.6","3.855","0.0"],
    [1510306,"2026-03-08 18:00:00","56803","2.476","144.0","3.0380000000000003","137.2","1021.862","13.93","85.1","0.24100000000000002","0.0"],
    [1510307,"2026-03-08 18:10:00","56804","2.66","144.1","3.332","145.4","1021.908","13.85","85.7","0.0","0.0"],
    [1510308,"2026-03-08 18:20:00","56805","2.7289999999999996","146.9","3.234","142.9","1021.956","13.86","84.8","0.0","0.0"],
    [1510309,"2026-03-08 18:30:00","56806","2.449","143.5","3.201","140.1","1022.095","13.89","85.0","0.0","0.0"],
    [1510310,"2026-03-08 18:40:00","56807","2.775","134.6","3.365","132.0","1022.189","13.87","85.4","0.0","0.0"],
    [1510311,"2026-03-08 18:50:00","56808","2.68","123.2","3.397","126.5","1022.262","13.87","85.8","0.0","0.0"],
    [1510312,"2026-03-08 19:00:00","56809","2.441","124.2","3.1689999999999996","117.7","1022.324","13.82","86.0","0.0","0.0"],
    [1510313,"2026-03-08 19:10:00","56810","2.114","121.1","2.7769999999999997","102.7","1022.457","13.84","86.1","0.0","0.0"],
    [1510314,"2026-03-08 19:20:00","56811","1.999","121.2","2.613","106.6","1022.558","13.83","85.8","0.0","0.0"],
    [1510315,"2026-03-08 19:30:00","56812","2.006","125.9","2.875","134.4","1022.604","13.89","85.6","0.0","0.0"],
    [1510316,"2026-03-08 19:40:00","56813","2.108","127.6","2.613","132.0","1022.646","13.91","85.6","0.0","0.0"],
    [1510317,"2026-03-08 19:50:00","56814","1.986","136.4","2.7769999999999997","153.5","1022.623","13.87","85.7","0.0","0.0"],
    [1510318,"2026-03-08 20:00:00","56815","1.7280000000000002","147.4","2.907","148.9","1022.67","13.84","85.2","0.0","0.0"],
    [1510319,"2026-03-08 20:10:00","56816","1.574","144.2","2.123","138.9","1022.739","13.83","84.9","0.0","0.0"],
    [1510320,"2026-03-08 20:20:00","56817","1.244","149.2","1.633","154.0","1022.789","13.82","84.4","0.0","0.0"],
    [1510321,"2026-03-08 20:30:00","56818","0.987","161.7","1.666","155.2","1022.801","13.86","84.2","0.0","0.0"],
    [1510322,"2026-03-08 20:40:00","56819","1.071","158.6","1.339","158.8","1022.75","13.84","84.7","0.0","0.0"],
    [1510323,"2026-03-08 20:50:00","56820","0.857","153.2","1.3719999999999999","151.3","1022.681","13.78","84.8","0.0","0.0"],
    [1510324,"2026-03-08 21:00:00","56821","0.055999999999999994","174.5","0.425","178.2","1022.617","13.74","84.6","0.0","0.0"],
    [1510325,"2026-03-08 21:10:00","56822","0.0","0.0","0.0","0.0","1022.538","13.66","85.0","0.0","0.0"],
    [1510326,"2026-03-08 21:20:00","56823","0.302","3.373","1.045","354.9","1022.425","13.72","85.7","0.0","0.0"],
    [1510327,"2026-03-08 21:30:00","56824","0.9670000000000001","353.0","1.176","345.9","1022.471","13.61","86.0","0.0","0.0"],
    [1510328,"2026-03-08 21:40:00","56825","0.594","346.2","1.143","346.4","1022.51","13.48","86.5","0.0","0.0"],
    [1510329,"2026-03-08 21:50:00","56826","0.129","2.431","0.555","8.43","1022.547","13.44","86.9","0.0","0.0"],
    [1510330,"2026-03-08 22:00:00","56827","0.0","0.0","0.0","0.0","1022.519","13.32","87.2","0.0","0.0"],
    [1510331,"2026-03-08 22:10:00","56828","0.61","309.6","0.882","293.4","1022.485","13.33","87.8","0.0","0.0"],
    [1510332,"2026-03-08 22:20:00","56829","1.097","282.9","1.4369999999999998","274.5","1022.486","13.2","88.4","0.0","0.0"],
    [1510333,"2026-03-08 22:30:00","56830","1.64","266.8","1.993","259.8","1022.465","12.84","89.1","0.0","0.0"],
    [1510334,"2026-03-08 22:40:00","56831","1.43","275.0","1.633","273.8","1022.451","12.58","90.2","0.0","0.0"],
    [1510335,"2026-03-08 22:50:00","56832","1.3359999999999999","285.0","1.535","270.0","1022.464","12.58","91.1","0.0","0.0"],
    [1510336,"2026-03-08 23:00:00","56833","1.065","316.7","1.601","313.5","1022.46","12.75","91.4","0.0","0.0"],
    [1510337,"2026-03-08 23:10:00","56834","0.915","314.6","1.568","323.1","1022.412","12.77","91.3","0.0","0.0"],
    [1510338,"2026-03-08 23:20:00","56835","1.237","319.7","1.699","331.9","1022.368","12.75","91.2","0.0","0.0"],
    [1510339,"2026-03-08 23:30:00","56836","1.1640000000000001","285.2","1.8619999999999999","259.3","1022.307","12.6","91.1","0.0","0.0"],
    [1510340,"2026-03-08 23:40:00","56837","0.8740000000000001","268.3","1.4369999999999998","265.0","1022.301","12.59","91.0","0.0","0.0"],
    [1510341,"2026-03-08 23:50:00","56838","0.23","239.6","0.8170000000000001","254.7","1022.342","12.48","91.0","0.0","0.0"],
    [1510342,"2026-03-09 00:00:00","56839","0.201","314.0","0.6859999999999999","321.4","1022.308","12.53","91.0","0.0","0.0"],
    [1510343,"2026-03-09 00:10:00","56840","0.19399999999999998","355.0","0.588","345.5","1022.301","12.66","90.7","0.0","0.0"],
    [1510344,"2026-03-09 00:20:00","56841","0.166","25.59","1.7309999999999999","22.65","1022.28","12.74","90.5","0.0","0.0"],
    [1510345,"2026-03-09 00:30:00","56842","1.244","345.7","1.829","347.4","1022.238","12.8","90.4","0.0","0.0"],
    [1510346,"2026-03-09 00:40:00","56843","1.217","295.2","1.699","308.9","1022.226","12.55","90.2","0.0","0.0"],
    [1510347,"2026-03-09 00:50:00","56844","1.182","308.5","2.189","311.1","1022.143","12.31","90.4","0.0","0.0"],
    [1510348,"2026-03-09 01:00:00","56845","1.462","319.5","2.352","341.4","1022.069","12.52","90.7","0.0","0.0"],
    [1510349,"2026-03-09 01:10:00","56846","1.67","300.7","2.0909999999999997","305.6","1022.011","12.51","90.0","0.0","0.0"],
    [1510350,"2026-03-09 01:20:00","56847","1.597","300.6","2.221","292.9","1021.858","12.54","89.1","0.0","0.0"],
    [1510351,"2026-03-09 01:30:00","56848","2.092","270.4","2.875","254.9","1021.742","12.18","88.5","0.0","0.0"],
    [1510352,"2026-03-09 01:40:00","56849","2.279","262.8","2.94","263.7","1021.639","11.81","90.0","0.0","0.0"],
    [1510353,"2026-03-09 01:50:00","56850","1.885","258.8","2.352","267.6","1021.543","11.73","91.3","0.0","0.0"],
    [1510354,"2026-03-09 02:00:00","56851","1.825","274.2","2.417","263.5","1021.423","11.68","92.1","0.0","0.0"],
    [1510355,"2026-03-09 02:10:00","56852","1.218","285.6","1.764","273.3","1021.267","11.83","92.6","0.0","0.0"],
    [1510356,"2026-03-09 02:20:00","56853","0.623","289.3","1.045","268.5","1021.105","12.07","92.1","0.0","0.0"],
    [1510357,"2026-03-09 02:30:00","56854","0.366","302.4","0.8170000000000001","323.7","1020.956","12.24","90.8","0.0","0.0"],
    [1510358,"2026-03-09 02:40:00","56855","1.0090000000000001","264.8","1.8619999999999999","259.6","1020.831","12.2","89.5","0.0","0.0"],
    [1510359,"2026-03-09 02:50:00","56856","1.6469999999999998","256.3","2.548","257.3","1020.713","11.98","89.9","0.0","0.0"],
    [1510360,"2026-03-09 03:00:00","56857","1.41","249.0","2.45","252.4","1020.627","11.84","90.6","0.0","0.0"],
    [1510361,"2026-03-09 03:10:00","56858","2.3819999999999997","265.1","3.332","261.1","1020.522","11.5","91.5","0.0","0.0"],
    [1510362,"2026-03-09 03:20:00","56859","2.571","262.5","3.299","267.8","1020.386","11.33","92.6","0.0","0.0"],
    [1510363,"2026-03-09 03:30:00","56860","1.867","257.7","2.842","255.9","1020.351","11.21","93.3","0.0","0.0"],
    [1510364,"2026-03-09 03:40:00","56861","2.326","265.9","3.495","273.2","1020.371","11.11","93.7","0.0","0.0"],
    [1510365,"2026-03-09 03:50:00","56862","2.338","269.9","3.397","274.9","1020.378","11.06","93.7","0.0","0.0"],
    [1510366,"2026-03-09 04:00:00","56863","2.329","269.9","3.267","257.9","1020.31","11.03","93.6","0.0","0.0"],
    [1510367,"2026-03-09 04:10:00","56864","2.412","265.8","3.659","269.4","1020.298","10.95","93.4","0.0","0.0"],
    [1510368,"2026-03-09 04:20:00","56865","2.401","269.2","2.9730000000000003","272.1","1020.331","10.85","93.3","0.0","0.0"],
    [1510369,"2026-03-09 04:30:00","56866","2.2359999999999998","268.1","2.7110000000000003","273.2","1020.357","10.82","93.2","0.0","0.0"],
    [1510370,"2026-03-09 04:40:00","56867","1.88","279.0","2.319","270.4","1020.416","10.9","93.1","0.0","0.0"],
    [1510371,"2026-03-09 04:50:00","56868","1.1520000000000001","287.9","1.993","274.0","1020.478","11.06","92.8","0.0","0.0"],
    [1510372,"2026-03-09 05:00:00","56869","0.763","298.8","1.209","308.0","1020.491","11.3","92.3","0.0","0.0"],
    [1510373,"2026-03-09 05:10:00","56870","0.536","307.2","1.111","306.5","1020.449","11.54","91.9","0.0","0.0"],
    [1510374,"2026-03-09 05:20:00","56871","1.454","45.68","2.254","48.35","1020.466","11.85","91.9","0.0","0.0"],
    [1510375,"2026-03-09 05:30:00","56872","0.833","56.29","1.47","52.98","1020.501","11.97","91.3","0.0","0.0"],
    [1510376,"2026-03-09 05:40:00","56873","0.659","266.6","1.209","251.7","1020.53","11.89","90.6","0.0","0.0"],
    [1510377,"2026-03-09 05:50:00","56874","1.725","261.1","2.7110000000000003","255.6","1020.451","11.55","90.5","0.0","0.0"],
    [1510378,"2026-03-09 06:00:00","56875","1.713","261.1","2.7110000000000003","255.6","1020.44","11.08","90.2","0.0","0.0"],
    [1510379,"2026-03-09 06:10:00","56876","1.851","262.1","2.254","261.5","1020.476","10.87","89.9","0.040999999999999995","0.0"],
    [1510380,"2026-03-09 06:20:00","56877","1.882","256.6","2.613","262.2","1020.468","10.8","89.9","1.578","0.0"],
    [1510381,"2026-03-09 06:30:00","56878","2.227","257.7","3.136","261.6","1020.486","10.75","89.9","6.562","0.0"],
    [1510382,"2026-03-09 06:40:00","56879","2.286","266.5","2.907","257.7","1020.521","10.75","89.8","17.03","0.0"],
    [1510383,"2026-03-09 06:50:00","56880","1.7469999999999999","264.6","2.7769999999999997","273.3","1020.595","10.69","90.2","31.94","0.0"],
    [1510384,"2026-03-09 07:00:00","56881","2.081","265.5","3.136","266.6","1020.649","10.59","90.5","62.99","0.0"],
    [1510385,"2026-03-09 07:10:00","56882","1.669","264.3","2.515","267.3","1020.773","10.55","90.5","71.4","0.0"],
    [1510386,"2026-03-09 07:20:00","56883","2.477","267.0","2.9730000000000003","271.5","1020.772","10.65","90.3","81.6","0.0"],
    [1510387,"2026-03-09 07:30:00","56884","2.336","268.8","2.907","270.7","1020.793","10.82","89.6","99.7","0.0"],
    [1510388,"2026-03-09 07:40:00","56885","2.28","267.8","2.875","263.0","1020.75","10.99","88.7","136.5","0.0"],
    [1510389,"2026-03-09 07:50:00","56886","2.026","266.0","2.94","264.1","1020.753","11.2","87.4","132.1","0.0"],
    [1510390,"2026-03-09 08:00:00","56887","1.8630000000000002","263.2","2.319","265.0","1020.861","11.26","86.3","133.5","0.0"],
    [1510391,"2026-03-09 08:10:00","56888","1.679","259.2","2.189","264.9","1020.945","11.36","85.3","120.9","0.0"],
    [1510392,"2026-03-09 08:20:00","56889","0.963","261.4","1.339","275.2","1021.07","11.57","84.5","128.7","0.0"],
    [1510393,"2026-03-09 08:30:00","56890","0.055","270.1","0.6859999999999999","260.9","1021.083","12.1","84.0","172.8","0.0"],
    [1510394,"2026-03-09 08:40:00","56891","0.466","106.2","1.9269999999999998","108.8","1021.091","12.57","83.1","213.8","0.0"],
    [1510395,"2026-03-09 08:50:00","56892","1.345","82.5","2.0580000000000003","88.0","1021.146","12.57","83.1","319.4","0.0"],
    [1510396,"2026-03-09 09:00:00","56893","1.656","92.1","2.189","112.9","1021.18","12.55","83.4","341.8","0.0"],
    [1510397,"2026-03-09 09:10:00","56894","1.193","98.5","1.9269999999999998","87.0","1021.158","12.65","83.3","403.2","0.0"],
    [1510398,"2026-03-09 09:20:00","56895","0.7979999999999999","121.1","1.339","120.2","1021.084","12.95","82.1","398.7","0.0"],
    [1510399,"2026-03-09 09:30:00","56896","0.972","139.0","1.4369999999999998","133.6","1021.062","13.0","80.5","367.9","0.0"],
    [1510400,"2026-03-09 09:40:00","56897","0.726","150.9","1.078","168.8","1021.006","13.08","79.83","410.7","0.0"],
    [1510401,"2026-03-09 09:50:00","56898","1.074","171.3","1.633","169.7","1021.032","13.04","79.32","461.7","0.0"],
    [1510402,"2026-03-09 10:00:00","56899","1.508","167.1","1.8619999999999999","166.6","1021.028","13.08","79.56","565.8","0.0"],
    [1510403,"2026-03-09 10:10:00","56900","1.754","168.0","2.287","169.8","1021.03","13.52","79.71","677.0","0.0"],
    [1510404,"2026-03-09 10:20:00","56901","1.881","155.6","2.515","163.0","1021.024","13.98","79.6","711.1","0.0"],
    [1510405,"2026-03-09 10:30:00","56902","2.678","148.6","3.1689999999999996","148.8","1020.95","14.04","80.0","646.6","0.0"],
    [1510406,"2026-03-09 10:40:00","56903","3.315","152.8","3.92","152.3","1020.88","13.73","81.3","630.9","0.0"],
    [1510407,"2026-03-09 10:50:00","56904","3.392","156.8","3.822","161.5","1020.788","13.37","83.2","628.4","0.0"],
    [1510408,"2026-03-09 11:00:00","56905","3.728","164.1","4.083","164.2","1020.682","13.18","83.8","631.1","0.0"],
    [1510409,"2026-03-09 11:10:00","56906","3.786","168.2","4.247","161.9","1020.663","13.27","82.2","798.1","0.0"],
    [1510410,"2026-03-09 11:20:00","56907","3.7889999999999997","162.2","4.247","160.4","1020.556","13.3","81.3","553.4","0.0"],
    [1510411,"2026-03-09 11:30:00","56908","4.035","165.7","4.508","166.5","1020.386","13.23","79.95","641.6","0.0"],
    [1510412,"2026-03-09 11:40:00","56909","4.316","170.1","4.835","169.8","1020.221","13.39","78.38","740.8","0.0"],
    [1510413,"2026-03-09 11:50:00","56910","4.712","171.2","5.325","171.7","1020.103","13.49","78.28","755.1","0.0"],
    [1510414,"2026-03-09 12:00:00","56911","4.758","173.8","5.684","184.2","1019.995","13.58","77.94","753.1","0.0"],
    [1510415,"2026-03-09 12:10:00","56912","5.145","172.5","6.0760000000000005","173.2","1019.779","13.6","77.56","750.8","0.0"],
    [1510416,"2026-03-09 12:20:00","56913","4.8389999999999995","171.3","5.847","169.4","1019.618","13.61","78.14","749.3","0.0"],
    [1510417,"2026-03-09 12:30:00","56914","5.185","171.6","5.912999999999999","174.7","1019.495","13.6","78.17","747.3","0.0"],
    [1510418,"2026-03-09 12:40:00","56915","5.195","171.3","6.011","171.3","1019.395","13.68","78.45","744.9","0.0"],
    [1510419,"2026-03-09 12:50:00","56916","5.21","174.5","6.1739999999999995","171.2","1019.396","13.69","79.25","742.5","0.0"],
    [1510420,"2026-03-09 13:00:00","56917","4.587","181.2","6.1739999999999995","187.0","1019.359","13.89","78.8","739.3","0.0"],
    [1510421,"2026-03-09 13:10:00","56918","4.712","180.2","6.109","188.4","1019.229","13.96","78.21","730.6","0.0"],
    [1510422,"2026-03-09 13:20:00","56919","4.962","181.8","6.7620000000000005","192.2","1019.114","14.0","78.16","720.8","0.0"],
    [1510423,"2026-03-09 13:30:00","56920","5.252999999999999","185.9","6.7620000000000005","191.6","1019.13","14.0","78.13","712.0","0.0"],
    [1510424,"2026-03-09 13:40:00","56921","5.209","178.2","6.337000000000001","176.1","1019.093","14.03","78.32","705.5","0.0"],
    [1510425,"2026-03-09 13:50:00","56922","5.428","178.0","6.599","171.1","1019.006","13.97","80.3","698.2","0.0"],
    [1510426,"2026-03-09 14:00:00","56923","5.284","188.3","6.37","193.5","1019.046","13.96","81.1","688.5","0.0"],
    [1510427,"2026-03-09 14:10:00","56924","4.831","177.7","6.0760000000000005","166.2","1019.056","13.99","80.9","571.5","0.0"],
    [1510428,"2026-03-09 14:20:00","56925","4.341","178.2","5.619","171.9","1019.031","13.96","81.8","654.5","0.0"],
    [1510429,"2026-03-09 14:30:00","56926","4.048","175.6","5.129","167.6","1019.026","13.95","80.9","538.4","0.0"],
    [1510430,"2026-03-09 14:40:00","56927","4.623","169.5","5.227","171.9","1018.939","13.85","81.5","546.5","0.0"],
    [1510431,"2026-03-09 14:50:00","56928","4.659","169.7","5.357","166.4","1018.867","13.79","81.9","550.0","0.0"],
    [1510432,"2026-03-09 15:00:00","56929","5.195","172.1","6.207000000000001","172.9","1018.79","13.84","81.8","524.0","0.0"],
    [1510433,"2026-03-09 15:10:00","56930","4.742","178.1","6.141","170.3","1018.778","14.07","79.55","493.7","0.0"],
    [1510434,"2026-03-09 15:20:00","56931","4.462","177.4","5.815","168.8","1018.778","14.11","78.98","463.4","0.0"],
    [1510435,"2026-03-09 15:30:00","56932","4.441","180.9","5.455","175.5","1018.8","14.15","79.64","433.5","0.0"],
    [1510436,"2026-03-09 15:40:00","56933","4.61","193.5","6.141","204.5","1018.825","14.25","77.38","409.3","0.0"],
    [1510437,"2026-03-09 15:50:00","56934","5.381","189.7","6.86","196.8","1018.776","14.27","75.96","380.6","0.0"],
    [1510438,"2026-03-09 16:00:00","56935","5.136","193.5","6.664","186.8","1018.756","14.14","77.29","238.5","0.0"],
    [1510439,"2026-03-09 16:10:00","56936","5.521","193.4","7.218999999999999","204.6","1018.717","14.1","77.98","210.4","0.0"],
    [1510440,"2026-03-09 16:20:00","56937","4.331","196.4","6.1739999999999995","198.1","1018.716","14.13","77.75","79.37","0.0"],
    [1510441,"2026-03-09 16:30:00","56938","4.1930000000000005","201.7","7.023","196.7","1018.71","14.02","77.58","63.28","0.0"],
    [1510442,"2026-03-09 16:40:00","56939","4.526","195.8","6.599","187.4","1018.678","14.01","76.69","96.1","0.0"],
    [1510443,"2026-03-09 16:50:00","56940","4.751","197.7","6.37","195.4","1018.636","13.95","77.62","49.88","0.0"],
    [1510444,"2026-03-09 17:00:00","56941","3.93","194.5","5.553","191.2","1018.742","13.99","78.59","52.62","0.0"],
    [1510445,"2026-03-09 17:10:00","56942","4.084","194.6","6.011","192.1","1018.812","13.93","80.2","55.04","0.0"],
    [1510446,"2026-03-09 17:20:00","56943","3.262","199.9","5.063","195.1","1018.834","13.96","80.4","49.21","0.0"],
    [1510447,"2026-03-09 17:30:00","56944","3.571","193.9","5.194","197.2","1018.821","13.91","81.0","24.77","0.0"],
    [1510448,"2026-03-09 17:40:00","56945","3.215","191.6","4.573","198.2","1018.628","13.76","81.3","8.77","0.0"],
    [1510449,"2026-03-09 17:50:00","56946","2.6710000000000003","192.9","3.5610000000000004","187.9","1018.584","13.7","81.4","3.165","0.0"],
    [1510450,"2026-03-09 18:00:00","56947","2.698","199.6","3.822","195.9","1018.571","13.66","81.5","0.228","0.0"],
    [1510451,"2026-03-09 18:10:00","56948","2.439","197.8","3.7239999999999998","196.4","1018.608","13.64","81.8","0.0","0.0"],
    [1510452,"2026-03-09 18:20:00","56949","2.656","193.8","3.593","204.4","1018.699","13.66","82.2","0.0","0.0"],
    [1510453,"2026-03-09 18:30:00","56950","2.825","200.4","3.659","195.2","1018.811","13.6","82.8","0.0","0.0"],
    [1510454,"2026-03-09 18:40:00","56951","2.8939999999999997","202.5","4.181","202.6","1018.913","13.54","83.1","0.0","0.0"],
    [1510455,"2026-03-09 18:50:00","56952","1.5919999999999999","219.3","3.332","200.5","1019.069","13.55","83.5","0.0","0.0"],
    [1510456,"2026-03-09 19:00:00","56953","1.527","245.6","3.1689999999999996","262.4","1019.107","13.48","83.5","0.0","0.0"],
    [1510457,"2026-03-09 19:10:00","56954","1.6030000000000002","269.2","2.6460000000000004","266.9","1019.069","13.38","83.5","0.0","0.0"],
    [1510458,"2026-03-09 19:20:00","56955","1.4369999999999998","273.8","2.287","278.7","1019.111","13.3","83.5","0.0","0.0"],
    [1510459,"2026-03-09 19:30:00","56956","0.996","268.7","2.123","272.6","1019.182","13.2","83.5","0.0","0.0"],
    [1510460,"2026-03-09 19:40:00","56957","0.359","187.6","1.2409999999999999","171.3","1019.251","13.22","83.6","0.0","0.0"],
    [1510461,"2026-03-09 19:50:00","56958","0.129","178.0","1.143","185.8","1019.351","13.19","83.1","0.0","0.0"],
    [1510462,"2026-03-09 20:00:00","56959","0.465","187.3","1.4369999999999998","184.8","1019.425","13.12","82.7","0.0","0.0"],
    [1510463,"2026-03-09 20:10:00","56960","0.813","192.7","1.699","184.2","1019.542","13.2","81.8","0.0","0.0"],
    [1510464,"2026-03-09 20:20:00","56961","0.0","0.0","0.0","0.0","1019.571","13.16","81.5","0.0","0.0"],
    [1510465,"2026-03-09 20:30:00","56962","0.5589999999999999","200.0","1.209","224.2","1019.607","13.19","82.2","0.0","0.0"],
    [1510466,"2026-03-09 20:40:00","56963","0.597","210.1","1.209","206.0","1019.705","13.16","82.9","0.0","0.0"],
    [1510467,"2026-03-09 20:50:00","56964","0.773","236.0","1.797","231.9","1019.779","13.04","83.8","0.0","0.0"],
    [1510468,"2026-03-09 21:00:00","56965","1.5330000000000001","267.8","2.221","265.1","1019.814","12.75","84.7","0.0","0.0"],
    [1510469,"2026-03-09 21:10:00","56966","1.546","266.5","2.287","270.1","1019.929","12.6","85.7","0.0","0.0"],
    [1510470,"2026-03-09 21:20:00","56967","1.474","284.1","2.254","277.0","1019.902","12.51","86.9","0.0","0.0"],
    [1510471,"2026-03-09 21:30:00","56968","1.112","286.2","2.0909999999999997","279.8","1019.916","12.45","87.6","0.0","0.0"],
    [1510472,"2026-03-09 21:40:00","56969","0.878","275.9","1.535","289.0","1019.97","12.35","88.0","0.0","0.0"],
    [1510473,"2026-03-09 21:50:00","56970","1.286","293.2","1.9269999999999998","282.3","1019.943","12.35","88.0","0.0","0.0"],
    [1510474,"2026-03-09 22:00:00","56971","1.493","292.8","2.156","297.4","1019.896","12.47","87.0","0.0","0.0"],
    [1510475,"2026-03-09 22:10:00","56972","1.369","288.1","1.9269999999999998","326.4","1019.86","12.55","85.9","0.0","0.0"],
    [1510476,"2026-03-09 22:20:00","56973","1.514","289.6","2.156","293.7","1019.86","12.57","85.2","0.0","0.0"],
    [1510477,"2026-03-09 22:30:00","56974","1.493","304.4","2.352","308.9","1019.853","12.69","84.9","0.0","0.0"],
    [1510478,"2026-03-09 22:40:00","56975","1.431","315.0","2.025","322.5","1019.854","12.81","84.7","0.0","0.0"],
    [1510479,"2026-03-09 22:50:00","56976","0.93","290.6","1.601","279.2","1019.796","12.67","84.3","0.0","0.0"],
    [1510480,"2026-03-09 23:00:00","56977","1.044","255.7","1.9269999999999998","268.4","1019.735","12.53","83.7","0.0","0.0"],
    [1510481,"2026-03-09 23:10:00","56978","0.805","259.6","1.3719999999999999","242.9","1019.69","12.39","84.3","0.0","0.0"],
    [1510482,"2026-03-09 23:20:00","56979","0.89","219.1","1.339","209.2","1019.7","12.31","84.8","0.0","0.0"],
    [1510483,"2026-03-09 23:30:00","56980","0.795","228.1","1.143","219.7","1019.677","12.24","85.1","0.0","0.0"],
    [1510484,"2026-03-09 23:40:00","56981","1.135","255.7","1.601","259.3","1019.666","12.02","84.8","0.0","0.0"],
    [1510485,"2026-03-09 23:50:00","56982","1.081","249.9","1.601","236.2","1019.685","11.68","85.5","0.0","0.0"],
    [1510486,"2026-03-10 00:00:00","56983","1.6219999999999999","260.8","2.483","253.5","1019.635","11.31","86.4","0.0","0.0"],
    [1510487,"2026-03-10 00:10:00","56984","2.173","269.7","2.6460000000000004","273.9","1019.609","11.04","88.0","0.0","0.0"],
    [1510488,"2026-03-10 00:20:00","56985","2.258","261.9","2.875","275.8","1019.575","10.86","89.7","0.0","0.0"],
    [1510489,"2026-03-10 00:30:00","56986","1.8259999999999998","263.6","2.352","267.7","1019.609","10.86","91.0","0.0","0.0"],
    [1510490,"2026-03-10 00:40:00","56987","1.777","261.3","2.385","260.7","1019.662","10.92","91.6","0.0","0.0"],
    [1510491,"2026-03-10 00:50:00","56988","1.8","258.9","2.6460000000000004","265.5","1019.715","11.02","91.6","0.0","0.0"],
    [1510492,"2026-03-10 01:00:00","56989","2.187","263.8","2.548","263.6","1019.664","10.87","91.7","0.0","0.0"],
    [1510493,"2026-03-10 01:10:00","56990","2.27","263.8","2.842","264.0","1019.646","10.77","92.3","0.0","0.0"],
    [1510494,"2026-03-10 01:20:00","56991","1.8530000000000002","265.6","2.483","265.6","1019.543","10.79","93.0","0.0","0.0"],
    [1510495,"2026-03-10 01:30:00","56992","1.814","265.7","2.254","274.6","1019.478","10.94","93.2","0.0","0.0"],
    [1510496,"2026-03-10 01:40:00","56993","1.8869999999999998","267.8","2.287","262.6","1019.458","10.96","92.9","0.0","0.0"],
    [1510497,"2026-03-10 01:50:00","56994","1.744","275.3","2.189","284.0","1019.43","10.92","92.8","0.0","0.0"],
    [1510498,"2026-03-10 02:00:00","56995","1.4169999999999998","273.9","1.7309999999999999","276.3","1019.358","10.99","92.8","0.0","0.0"],
    [1510499,"2026-03-10 02:10:00","56996","0.929","278.8","1.307","272.7","1019.325","11.14","92.5","0.0","0.0"],
    [1510500,"2026-03-10 02:20:00","56997","1.3230000000000002","261.0","2.0580000000000003","260.1","1019.296","11.15","92.0","0.0","0.0"],
    [1510501,"2026-03-10 02:30:00","56998","0.7979999999999999","263.5","1.339","255.6","1019.299","11.18","91.8","0.0","0.0"],
    [1510502,"2026-03-10 02:40:00","56999","0.9940000000000001","262.6","1.601","259.7","1019.264","11.13","91.3","0.0","0.0"],
    [1510503,"2026-03-10 02:50:00","57000","1.23","264.1","1.829","266.8","1019.223","10.84","91.3","0.0","0.0"],
    [1510504,"2026-03-10 03:00:00","57001","2.594","267.3","3.071","264.8","1019.148","10.28","92.1","0.0","0.0"],
    [1510505,"2026-03-10 03:10:00","57002","2.7489999999999997","264.2","3.332","265.0","1019.072","9.96","93.9","0.0","0.0"],
    [1510506,"2026-03-10 03:20:00","57003","2.513","264.2","2.94","263.3","1019.042","9.89","95.4","0.0","0.0"],
    [1510507,"2026-03-10 03:30:00","57004","2.355","269.3","2.7110000000000003","265.3","1019.055","9.89","96.4","0.0","0.0"],
    [1510508,"2026-03-10 03:40:00","57005","2.075","264.0","2.417","259.0","1019.096","9.9","97.2","0.0","0.0"],
    [1510509,"2026-03-10 03:50:00","57006","2.272","259.4","2.679","260.9","1019.194","9.98","97.6","0.0","0.0"],
    [1510510,"2026-03-10 04:00:00","57007","2.205","262.1","2.613","258.5","1019.254","10.0","97.7","0.0","0.0"],
    [1510511,"2026-03-10 04:10:00","57008","2.1180000000000003","259.0","2.548","261.3","1019.283","9.98","97.9","0.0","0.0"],
    [1510512,"2026-03-10 04:20:00","57009","2.38","264.4","2.8089999999999997","269.0","1019.305","9.87","98.0","0.0","0.0"],
    [1510513,"2026-03-10 04:30:00","57010","2.386","267.0","2.875","264.7","1019.317","9.74","98.5","0.0","0.0"],
    [1510514,"2026-03-10 04:40:00","57011","2.417","267.6","2.8089999999999997","273.9","1019.297","9.69","99.0","0.0","0.0"],
    [1510515,"2026-03-10 04:50:00","57012","2.2359999999999998","265.0","2.613","263.9","1019.243","9.69","99.5","0.0","0.0"],
    [1510516,"2026-03-10 05:00:00","57013","2.46","270.0","2.94","269.7","1019.196","9.8","99.8","0.0","0.0"],
    [1510517,"2026-03-10 05:10:00","57014","2.2569999999999997","260.6","3.0380000000000003","257.3","1019.234","9.82","99.7","0.0","0.0"],
    [1510518,"2026-03-10 05:20:00","57015","2.503","264.8","2.875","268.3","1019.251","9.79","99.5","0.0","0.0"],
    [1510519,"2026-03-10 05:30:00","57016","2.6039999999999996","263.5","3.071","259.5","1019.34","9.68","99.6","0.0","0.0"],
    [1510520,"2026-03-10 05:40:00","57017","2.283","263.3","3.201","263.6","1019.432","9.59","99.8","0.0","0.0"],
    [1510521,"2026-03-10 05:50:00","57018","2.7880000000000003","267.9","3.43","272.4","1019.445","9.44","100.0","0.0","0.0"],
    [1510522,"2026-03-10 06:00:00","57019","2.43","270.1","3.0380000000000003","268.4","1019.49","9.39","100.0","0.0","0.0"],
    [1510523,"2026-03-10 06:10:00","57020","1.3869999999999998","280.6","2.385","272.0","1019.45","9.47","100.0","0.392","0.0"],
    [1510524,"2026-03-10 06:20:00","57021","1.077","259.8","1.568","252.3","1019.426","9.61","100.0","5.864","0.0"],
    [1510525,"2026-03-10 06:30:00","57022","1.3559999999999999","276.3","1.8619999999999999","276.2","1019.395","9.71","100.0","20.5","0.0"],
    [1510526,"2026-03-10 06:40:00","57023","1.479","266.3","1.829","269.3","1019.455","9.82","100.0","47.35","0.0"],
    [1510527,"2026-03-10 06:50:00","57024","1.855","262.0","2.221","261.1","1019.559","9.79","100.0","69.53","0.0"],
    [1510528,"2026-03-10 07:00:00","57025","2.184","261.3","2.483","258.6","1019.622","9.83","99.9","107.9","0.0"],
    [1510529,"2026-03-10 07:10:00","57026","2.174","258.7","2.8089999999999997","258.9","1019.72","9.95","99.3","136.1","0.0"],
    [1510530,"2026-03-10 07:20:00","57027","1.675","258.9","2.319","264.0","1019.845","10.07","98.6","126.3","0.0"],
    [1510531,"2026-03-10 07:30:00","57028","1.7169999999999999","261.0","1.993","256.0","1019.932","10.19","97.8","127.3","0.0"],
    [1510532,"2026-03-10 07:40:00","57029","1.6030000000000002","258.1","1.993","256.6","1020.019","10.37","96.8","150.3","0.0"],
    [1510533,"2026-03-10 07:50:00","57030","1.3940000000000001","264.0","1.895","264.0","1020.087","10.6","95.5","172.3","0.0"],
    [1510534,"2026-03-10 08:00:00","57031","1.633","264.2","2.45","263.2","1020.194","10.73","94.2","208.5","0.0"],
    [1510535,"2026-03-10 08:10:00","57032","0.9690000000000001","274.9","1.4369999999999998","257.0","1020.245","11.08","93.3","250.4","0.0"],
    [1510536,"2026-03-10 08:20:00","57033","0.584","291.5","1.2409999999999999","273.6","1020.318","11.46","91.9","282.9","0.0"],
    [1510537,"2026-03-10 08:30:00","57034","0.315","316.8","0.7509999999999999","299.8","1020.409","11.92","90.2","313.7","0.0"],
    [1510538,"2026-03-10 08:40:00","57035","0.023","315.8","0.523","300.9","1020.542","12.56","88.1","352.5","0.0"],
    [1510539,"2026-03-10 08:50:00","57036","0.107","206.2","0.7509999999999999","211.6","1020.641","13.1","84.8","401.4","0.0"],
    [1510540,"2026-03-10 09:00:00","57037","0.031","204.3","1.078","210.6","1020.677","13.37","80.7","417.6","0.0"],
    [1510541,"2026-03-10 09:10:00","57038","0.545","203.6","1.535","203.2","1020.762","13.12","77.98","459.2","0.0"],
    [1510542,"2026-03-10 09:20:00","57039","0.439","183.4","1.209","206.0","1020.836","13.35","76.5","510.4","0.0"],
    [1510543,"2026-03-10 09:30:00","57040","2.322","49.61","3.0380000000000003","59.54","1020.781","13.37","74.83","563.9","0.0"],
    [1510544,"2026-03-10 09:40:00","57041","2.3209999999999997","61.71","3.136","57.01","1020.774","13.22","75.46","531.8","0.0"],
    [1510545,"2026-03-10 09:50:00","57042","2.63","65.9","3.593","65.53","1020.824","13.19","74.88","616.9","0.0"],
    [1510546,"2026-03-10 10:00:00","57043","2.583","69.11","3.659","71.03","1020.892","13.2","74.6","607.3","0.0"],
    [1510547,"2026-03-10 10:10:00","57044","2.542","71.4","3.136","77.3","1020.96","13.54","74.15","627.5","0.0"],
    [1510548,"2026-03-10 10:20:00","57045","2.145","77.65","3.071","70.1","1021.032","14.04","73.72","609.1","0.0"],
    [1510549,"2026-03-10 10:30:00","57046","2.416","92.8","2.94","92.9","1021.13","14.5","72.46","672.1","0.0"],
    [1510550,"2026-03-10 10:40:00","57047","2.545","97.0","3.593","89.3","1021.152","14.32","72.77","674.9","0.0"],
    [1510551,"2026-03-10 10:50:00","57048","2.8369999999999997","98.3","3.528","91.5","1021.157","13.63","75.02","680.8","0.0"],
    [1510552,"2026-03-10 11:00:00","57049","2.819","110.4","3.5610000000000004","122.8","1021.184","13.33","77.97","680.0","0.0"],
    [1510553,"2026-03-10 11:10:00","57050","3.07","111.8","3.528","113.2","1021.219","13.15","80.2","652.5","0.0"],
    [1510554,"2026-03-10 11:20:00","57051","2.795","97.8","3.7889999999999997","99.4","1021.241","13.24","81.9","651.6","0.0"],
    [1510555,"2026-03-10 11:30:00","57052","2.867","96.1","3.659","93.5","1021.291","13.23","83.6","626.2","0.0"],
    [1510556,"2026-03-10 11:40:00","57053","2.8989999999999996","94.1","3.495","93.4","1021.344","13.13","84.5","604.4","0.0"],
    [1510557,"2026-03-10 11:50:00","57054","2.61","98.0","3.463","99.2","1021.421","13.24","84.8","551.3","0.0"],
    [1510558,"2026-03-10 12:00:00","57055","2.734","98.1","3.5610000000000004","104.7","1021.444","13.22","84.7","514.2","0.0"],
    [1510559,"2026-03-10 12:10:00","57056","2.354","110.7","3.332","100.9","1021.465","13.31","84.5","541.6","0.0"],
    [1510560,"2026-03-10 12:20:00","57057","2.574","102.8","3.234","109.6","1021.433","13.35","83.1","602.5","0.0"],
    [1510561,"2026-03-10 12:30:00","57058","2.853","103.9","3.463","111.6","1021.37","13.47","82.6","523.9","0.0"],
    [1510562,"2026-03-10 12:40:00","57059","2.9610000000000003","96.2","3.6910000000000003","87.5","1021.276","13.5","83.6","400.4","0.0"],
    [1510563,"2026-03-10 12:50:00","57060","2.85","91.2","3.9530000000000003","90.6","1021.2","13.46","85.3","463.6","0.0"],
    [1510564,"2026-03-10 13:00:00","57061","2.8110000000000004","86.8","3.7569999999999997","90.4","1021.079","13.52","86.2","530.6","0.0"],
    [1510565,"2026-03-10 13:10:00","57062","2.8560000000000003","90.9","3.6910000000000003","95.7","1020.996","13.44","86.3","508.0","0.0"],
    [1510566,"2026-03-10 13:20:00","57063","2.289","64.2","3.365","60.21","1020.961","13.54","85.4","476.9","0.0"],
    [1510567,"2026-03-10 13:30:00","57064","2.309","79.12","3.005","63.69","1020.951","13.66","85.4","450.7","0.0"],
    [1510568,"2026-03-10 13:40:00","57065","1.975","84.8","3.0380000000000003","73.56","1020.902","13.61","85.5","473.9","0.0"],
    [1510569,"2026-03-10 13:50:00","57066","1.903","72.14","2.875","52.74","1020.951","13.7","84.9","561.7","0.0"],
    [1510570,"2026-03-10 14:00:00","57067","2.336","62.26","3.201","57.57","1020.911","13.73","84.0","613.0","0.0"],
    [1510571,"2026-03-10 14:10:00","57068","2.3680000000000003","63.68","3.397","65.11","1020.844","13.79","83.2","661.9","0.0"],
    [1510572,"2026-03-10 14:20:00","57069","2.319","84.0","3.234","64.38","1020.81","13.85","82.9","636.9","0.0"],
    [1510573,"2026-03-10 14:30:00","57070","2.432","91.6","3.7239999999999998","90.1","1020.806","13.79","82.9","619.4","0.0"],
    [1510574,"2026-03-10 14:40:00","57071","2.6919999999999997","94.6","3.234","99.5","1020.798","13.81","83.2","563.5","0.0"],
    [1510575,"2026-03-10 14:50:00","57072","3.033","103.5","3.822","107.7","1020.768","13.72","83.7","544.6","0.0"],
    [1510576,"2026-03-10 15:00:00","57073","2.863","101.1","3.7889999999999997","100.4","1020.696","13.81","83.6","526.0","0.0"],
    [1510577,"2026-03-10 15:10:00","57074","3.0060000000000002","91.4","4.018","96.6","1020.684","13.83","84.2","492.6","0.0"],
    [1510578,"2026-03-10 15:20:00","57075","2.503","84.5","3.528","92.5","1020.639","13.84","84.9","460.7","0.0"],
    [1510579,"2026-03-10 15:30:00","57076","2.452","83.6","3.365","87.0","1020.629","13.87","84.9","439.5","0.0"],
    [1510580,"2026-03-10 15:40:00","57077","2.717","65.63","3.6910000000000003","53.62","1020.573","13.87","84.9","394.9","0.0"],
    [1510581,"2026-03-10 15:50:00","57078","2.8360000000000003","63.16","3.659","55.71","1020.593","13.85","84.2","372.4","0.0"],
    [1510582,"2026-03-10 16:00:00","57079","2.588","61.79","3.495","79.12","1020.544","13.87","83.5","340.0","0.0"],
    [1510583,"2026-03-10 16:10:00","57080","2.5069999999999997","63.11","3.7889999999999997","64.1","1020.552","13.86","83.5","297.8","0.0"],
    [1510584,"2026-03-10 16:20:00","57081","2.265","80.2","3.397","93.7","1020.519","13.81","83.2","107.6","0.0"],
    [1510585,"2026-03-10 16:30:00","57082","2.083","79.69","2.94","98.6","1020.493","13.9","83.0","77.04","0.0"],
    [1510586,"2026-03-10 16:40:00","57083","2.5180000000000002","66.16","3.463","86.1","1020.528","13.87","83.3","148.6","0.0"],
    [1510587,"2026-03-10 16:50:00","57084","2.758","59.9","3.5610000000000004","53.87","1020.54","13.85","83.0","159.4","0.0"],
    [1510588,"2026-03-10 17:00:00","57085","2.6719999999999997","62.55","3.6260000000000003","53.67","1020.607","13.87","83.2","138.7","0.0"],
    [1510589,"2026-03-10 17:10:00","57086","2.472","67.3","3.5610000000000004","61.16","1020.637","13.86","83.3","88.5","0.0"],
    [1510590,"2026-03-10 17:20:00","57087","2.506","73.61","3.6910000000000003","87.3","1020.779","13.84","83.0","55.99","0.0"],
    [1510591,"2026-03-10 17:30:00","57088","2.219","78.77","3.495","81.8","1020.89","13.82","82.1","42.53","0.0"],
    [1510592,"2026-03-10 17:40:00","57089","2.345","80.4","3.267","43.7","1020.997","13.81","81.1","22.99","0.0"],
    [1510593,"2026-03-10 17:50:00","57090","2.28","69.55","3.495","50.82","1021.174","13.82","80.5","7.841","0.0"],
    [1510594,"2026-03-10 18:00:00","57091","2.6830000000000003","62.17","3.92","64.59","1021.308","13.77","80.6","1.284","0.0"],
    [1510595,"2026-03-10 18:10:00","57092","2.6719999999999997","59.08","3.92","60.74","1021.408","13.74","81.0","0.002","0.0"],
    [1510596,"2026-03-10 18:20:00","57093","2.932","54.07","3.7889999999999997","61.84","1021.491","13.74","81.3","0.0","0.0"],
    [1510597,"2026-03-10 18:30:00","57094","3.015","56.07","4.345","53.69","1021.635","13.75","80.7","0.0","0.0"],
    [1510598,"2026-03-10 18:40:00","57095","2.9939999999999998","60.5","4.051","47.24","1021.823","13.74","80.8","0.0","0.0"],
    [1510599,"2026-03-10 18:50:00","57096","3.029","63.89","4.1160000000000005","59.35","1021.999","13.76","80.6","0.0","0.0"],
    [1510600,"2026-03-10 19:00:00","57097","2.521","66.39","4.083","55.57","1022.186","13.8","80.8","0.0","0.0"],
    [1510601,"2026-03-10 19:10:00","57098","3.1210000000000004","69.96","4.41","71.83","1022.317","13.8","81.1","0.0","0.0"],
    [1510602,"2026-03-10 19:20:00","57099","2.892","68.23","4.018","80.4","1022.427","13.81","81.1","0.0","0.0"],
    [1510603,"2026-03-10 19:30:00","57100","2.741","66.28","3.7889999999999997","66.97","1022.492","13.8","81.5","0.0","0.0"],
    [1510604,"2026-03-10 19:40:00","57101","2.847","59.29","3.7239999999999998","57.42","1022.554","13.76","81.6","0.0","0.0"],
    [1510605,"2026-03-10 19:50:00","57102","2.821","62.38","3.7239999999999998","65.1","1022.636","13.79","81.8","0.0","0.0"],
    [1510606,"2026-03-10 20:00:00","57103","2.783","63.54","3.7239999999999998","65.62","1022.723","13.77","81.5","0.0","0.0"],
    [1510607,"2026-03-10 20:10:00","57104","2.838","48.33","3.5610000000000004","39.56","1022.784","13.81","80.8","0.0","0.0"],
    [1510608,"2026-03-10 20:20:00","57105","2.633","52.64","3.463","55.69","1022.915","13.82","80.5","0.0","0.0"],
    [1510609,"2026-03-10 20:30:00","57106","3.386","41.09","4.4430000000000005","38.85","1023.004","13.99","81.8","0.0","0.0"],
    [1510610,"2026-03-10 20:40:00","57107","4.0","31.75","4.671","35.35","1023.087","13.84","84.7","0.0","0.0"],
    [1510611,"2026-03-10 20:50:00","57108","3.818","35.16","4.704","36.71","1023.155","13.77","85.7","0.0","0.0"],
    [1510612,"2026-03-10 21:00:00","57109","4.043","38.21","4.965","42.72","1023.232","13.74","86.2","0.0","0.0"],
    [1510613,"2026-03-10 21:10:00","57110","3.7710000000000004","35.83","4.704","34.89","1023.308","13.67","86.5","0.0","0.0"],
    [1510614,"2026-03-10 21:20:00","57111","3.5239999999999996","33.07","4.377","30.23","1023.422","13.67","86.5","0.0","0.0"],
    [1510615,"2026-03-10 21:30:00","57112","3.27","36.96","4.083","30.0","1023.477","13.67","86.6","0.0","0.0"],
    [1510616,"2026-03-10 21:40:00","57113","3.196","38.14","3.855","39.21","1023.475","13.67","86.6","0.0","0.0"],
    [1510617,"2026-03-10 21:50:00","57114","2.965","33.42","3.593","40.94","1023.468","13.59","87.2","0.0","0.0"],
    [1510618,"2026-03-10 22:00:00","57115","3.17","26.22","3.855","26.09","1023.541","13.54","87.7","0.0","0.0"],
    [1510619,"2026-03-10 22:10:00","57116","2.927","27.08","3.7239999999999998","27.94","1023.667","13.43","87.8","0.0","0.0"],
    [1510620,"2026-03-10 22:20:00","57117","2.823","24.51","3.5610000000000004","31.78","1023.732","13.42","87.3","0.0","0.0"],
    [1510621,"2026-03-10 22:30:00","57118","3.395","12.66","4.149","9.97","1023.729","13.36","87.1","0.0","0.0"],
    [1510622,"2026-03-10 22:40:00","57119","2.889","355.1","3.92","1.702","1023.754","13.29","86.9","0.0","0.0"],
    [1510623,"2026-03-10 22:50:00","57120","2.188","0.261","3.299","346.7","1023.798","13.23","86.7","0.0","0.0"],
    [1510624,"2026-03-10 23:00:00","57121","1.982","357.1","3.071","2.739","1023.813","13.25","86.4","0.0","0.0"],
    [1510625,"2026-03-10 23:10:00","57122","1.581","354.5","2.189","333.8","1023.873","13.2","86.3","0.0","0.0"],
    [1510626,"2026-03-10 23:20:00","57123","1.439","3.1260000000000003","2.0909999999999997","12.55","1023.957","13.24","86.3","0.0","0.0"],
    [1510627,"2026-03-10 23:30:00","57124","1.653","355.1","2.319","349.7","1023.945","13.21","85.8","0.0","0.0"],
    [1510628,"2026-03-10 23:40:00","57125","1.6980000000000002","355.4","2.319","0.535","1023.876","13.2","85.4","0.0","0.0"],
    [1510629,"2026-03-10 23:50:00","57126","1.7719999999999998","356.4","2.7769999999999997","354.7","1023.894","13.2","85.1","0.0","0.0"],
    [1510630,"2026-03-11 00:00:00","57127","2.571","345.6","3.299","344.6","1023.833","13.09","84.8","0.0","0.0"],
    [1510631,"2026-03-11 00:10:00","57128","2.531","347.6","3.365","350.3","1023.833","12.93","84.9","0.0","0.0"],
    [1510632,"2026-03-11 00:20:00","57129","3.509","350.6","4.802","350.7","1023.823","12.77","84.9","0.0","0.0"],
    [1510633,"2026-03-11 00:30:00","57130","2.1959999999999997","357.2","3.659","353.6","1023.82","12.75","85.1","0.0","0.0"],
    [1510634,"2026-03-11 00:40:00","57131","1.929","0.9329999999999999","2.7439999999999998","357.8","1023.785","12.82","85.5","0.0","0.0"],
    [1510635,"2026-03-11 00:50:00","57132","2.036","348.0","2.842","349.4","1023.772","12.72","85.3","0.0","0.0"],
    [1510636,"2026-03-11 01:00:00","57133","2.521","347.1","3.136","345.6","1023.822","12.52","85.2","0.0","0.0"],
    [1510637,"2026-03-11 01:10:00","57134","1.939","352.0","2.875","1.7180000000000002","1023.821","12.56","84.9","0.0","0.0"],
    [1510638,"2026-03-11 01:20:00","57135","3.065","346.7","3.92","349.8","1023.714","12.55","84.4","0.0","0.0"],
    [1510639,"2026-03-11 01:30:00","57136","2.818","354.0","3.528","348.9","1023.596","12.54","84.0","0.0","0.0"],
    [1510640,"2026-03-11 01:40:00","57137","2.18","346.7","2.7769999999999997","357.7","1023.465","12.59","83.4","0.0","0.0"],
    [1510641,"2026-03-11 01:50:00","57138","1.784","350.6","2.45","355.0","1023.461","12.59","82.9","0.0","0.0"],
    [1510642,"2026-03-11 02:00:00","57139","1.4680000000000002","340.1","2.483","345.5","1023.4","12.61","82.6","0.0","0.0"],
    [1510643,"2026-03-11 02:10:00","57140","1.202","307.9","2.025","311.1","1023.404","12.48","82.9","0.0","0.0"],
    [1510644,"2026-03-11 02:20:00","57141","1.368","280.8","2.5810000000000004","266.4","1023.363","12.21","83.2","0.0","0.0"],
    [1510645,"2026-03-11 02:30:00","57142","2.037","265.0","2.515","263.0","1023.329","11.71","84.7","0.0","0.0"],
    [1510646,"2026-03-11 02:40:00","57143","1.839","254.2","2.352","257.5","1023.331","11.34","86.6","0.0","0.0"],
    [1510647,"2026-03-11 02:50:00","57144","1.764","258.7","2.254","256.6","1023.326","11.35","87.8","0.0","0.0"],
    [1510648,"2026-03-11 03:00:00","57145","2.149","265.1","2.417","267.3","1023.404","11.12","88.4","0.0","0.0"],
    [1510649,"2026-03-11 03:10:00","57146","1.238","265.1","1.895","262.2","1023.5","11.04","89.7","0.0","0.0"],
    [1510650,"2026-03-11 03:20:00","57147","1.4040000000000001","271.1","2.156","267.5","1023.517","11.12","89.9","0.0","0.0"],
    [1510651,"2026-03-11 03:30:00","57148","1.9409999999999998","258.5","2.45","254.0","1023.594","11.02","90.2","0.0","0.0"],
    [1510652,"2026-03-11 03:40:00","57149","1.653","252.8","2.548","258.6","1023.694","10.99","90.5","0.0","0.0"],
    [1510653,"2026-03-11 03:50:00","57150","2.366","259.1","2.679","261.4","1023.672","10.85","90.7","0.0","0.0"],
    [1510654,"2026-03-11 04:00:00","57151","2.529","262.9","3.0380000000000003","274.4","1023.689","10.63","91.1","0.0","0.0"],
    [1510655,"2026-03-11 04:10:00","57152","2.4","265.7","2.8089999999999997","269.7","1023.645","10.35","91.9","0.0","0.0"],
    [1510656,"2026-03-11 04:20:00","57153","2.539","269.8","3.071","275.8","1023.621","10.47","92.8","0.0","0.0"],
    [1510657,"2026-03-11 04:30:00","57154","2.5789999999999997","263.8","3.071","268.2","1023.608","10.61","93.0","0.0","0.0"],
    [1510658,"2026-03-11 04:40:00","57155","2.282","268.7","3.071","279.8","1023.516","10.67","92.9","0.0","0.0"],
    [1510659,"2026-03-11 04:50:00","57156","2.283","268.5","2.9730000000000003","282.2","1023.415","10.84","92.4","0.0","0.0"],
    [1510660,"2026-03-11 05:00:00","57157","2.097","265.9","2.613","265.3","1023.373","10.86","91.9","0.0","0.0"],
    [1510661,"2026-03-11 05:10:00","57158","2.6919999999999997","266.2","3.103","264.3","1023.408","10.56","91.4","0.0","0.0"],
    [1510662,"2026-03-11 05:20:00","57159","2.435","268.3","2.875","278.1","1023.447","10.44","91.9","0.0","0.0"],
    [1510663,"2026-03-11 05:30:00","57160","1.84","269.8","2.7769999999999997","263.2","1023.614","10.42","92.1","0.0","0.0"],
    [1510664,"2026-03-11 05:40:00","57161","1.535","280.7","2.189","265.5","1023.665","10.62","92.2","0.0","0.0"],
    [1510665,"2026-03-11 05:50:00","57162","2.066","265.9","2.548","264.4","1023.677","10.37","91.9","0.0","0.0"],
    [1510666,"2026-03-11 06:00:00","57163","1.817","268.7","2.189","270.8","1023.682","10.42","92.3","0.0","0.0"],
    [1510667,"2026-03-11 06:10:00","57164","1.182","253.3","2.0580000000000003","272.5","1023.697","10.7","92.2","1.771","0.0"],
    [1510668,"2026-03-11 06:20:00","57165","2.045","269.0","2.483","267.9","1023.666","10.61","91.2","8.88","0.0"],
    [1510669,"2026-03-11 06:30:00","57166","2.279","270.0","2.907","260.0","1023.715","10.6","90.7","25.13","0.0"],
    [1510670,"2026-03-11 06:40:00","57167","2.164","260.4","2.94","262.2","1023.794","10.61","89.6","50.15","0.0"],
    [1510671,"2026-03-11 06:50:00","57168","2.235","259.2","2.7110000000000003","262.3","1023.828","10.82","88.7","81.5","0.0"],
    [1510672,"2026-03-11 07:00:00","57169","2.5869999999999997","261.8","3.201","262.2","1023.887","10.7","87.4","113.2","0.0"],
    [1510673,"2026-03-11 07:10:00","57170","2.43","255.9","3.103","261.1","1023.989","10.6","87.4","133.4","0.0"],
    [1510674,"2026-03-11 07:20:00","57171","2.533","264.0","3.495","261.6","1024.116","10.61","86.8","145.1","0.0"],
    [1510675,"2026-03-11 07:30:00","57172","2.177","265.4","3.463","273.7","1024.297","10.73","87.2","173.5","0.0"],
    [1510676,"2026-03-11 07:40:00","57173","2.169","271.1","2.679","274.1","1024.35","11.1","86.6","216.6","0.0"],
    [1510677,"2026-03-11 07:50:00","57174","1.952","265.1","2.7110000000000003","265.3","1024.481","11.58","85.1","251.6","0.0"],
    [1510678,"2026-03-11 08:00:00","57175","1.749","270.1","2.548","274.0","1024.543","12.06","82.8","274.3","0.0"],
    [1510679,"2026-03-11 08:10:00","57176","1.6130000000000002","274.0","2.319","261.0","1024.558","12.56","80.7","264.0","0.0"],
    [1510680,"2026-03-11 08:20:00","57177","1.3880000000000001","271.8","2.385","279.5","1024.647","12.97","78.52","292.8","0.0"],
    [1510681,"2026-03-11 08:30:00","57178","1.357","288.8","2.0580000000000003","276.2","1024.628","13.3","75.44","310.5","0.0"],
    [1510682,"2026-03-11 08:40:00","57179","1.072","267.5","1.9269999999999998","271.4","1024.621","13.63","73.1","364.2","0.0"],
    [1510683,"2026-03-11 08:50:00","57180","1.24","245.5","2.319","237.2","1024.689","13.8","71.07","364.5","0.0"],
    [1510684,"2026-03-11 09:00:00","57181","1.43","244.4","2.319","264.2","1024.713","13.93","69.69","405.9","0.0"],
    [1510685,"2026-03-11 09:10:00","57182","0.8590000000000001","257.5","1.797","251.3","1024.746","14.29","68.08","458.1","0.0"],
    [1510686,"2026-03-11 09:20:00","57183","0.745","236.3","2.254","57.27","1024.702","14.76","65.57","504.6","0.0"],
    [1510687,"2026-03-11 09:30:00","57184","1.703","70.27","2.6460000000000004","71.02","1024.638","14.42","68.59","520.7","0.0"],
    [1510688,"2026-03-11 09:40:00","57185","1.219","120.2","2.94","267.1","1024.638","14.6","67.82","550.8","0.0"],
    [1510689,"2026-03-11 09:50:00","57186","1.939","232.4","2.94","206.6","1024.659","15.11","59.89","564.6","0.0"],
    [1510690,"2026-03-11 10:00:00","57187","2.307","213.0","3.365","205.6","1024.645","15.24","58.2","581.9","0.0"],
    [1510691,"2026-03-11 10:10:00","57188","2.079","217.5","3.397","207.3","1024.653","15.7","58.4","628.0","0.0"],
    [1510692,"2026-03-11 10:20:00","57189","1.985","206.8","3.822","195.5","1024.63","16.33","58.46","640.8","0.0"],
    [1510693,"2026-03-11 10:30:00","57190","3.465","179.8","4.769","185.9","1024.606","15.67","64.17","636.0","0.0"],
    [1510694,"2026-03-11 10:40:00","57191","4.051","173.3","4.835","169.4","1024.488","14.98","68.78","628.6","0.0"],
    [1510695,"2026-03-11 10:50:00","57192","4.581","176.4","5.945","173.3","1024.359","14.55","71.31","692.4","0.0"],
    [1510696,"2026-03-11 11:00:00","57193","4.556","181.7","5.815","179.3","1024.355","14.32","73.19","667.4","0.0"],
    [1510697,"2026-03-11 11:10:00","57194","5.171","178.7","6.37","176.3","1024.358","14.2","74.63","623.2","0.0"],
    [1510698,"2026-03-11 11:20:00","57195","5.367999999999999","182.8","6.631","191.4","1024.465","14.17","74.9","671.0","0.0"],
    [1510699,"2026-03-11 11:30:00","57196","5.359","182.8","6.664","189.0","1024.523","14.32","74.26","667.9","0.0"],
    [1510700,"2026-03-11 11:40:00","57197","5.853","186.7","7.317","187.7","1024.452","14.6","72.15","679.7","0.0"],
    [1510701,"2026-03-11 11:50:00","57198","6.058","185.1","7.611000000000001","190.7","1024.354","14.38","75.07","700.1","0.0"],
    [1510702,"2026-03-11 12:00:00","57199","6.348","187.0","8.04","183.7","1024.247","14.24","77.21","688.9","0.0"],
    [1510703,"2026-03-11 12:10:00","57200","6.352","187.3","8.1","185.4","1024.174","14.2","78.93","726.7","0.0"],
    [1510704,"2026-03-11 12:20:00","57201","6.4270000000000005","187.4","8.0","188.5","1024.047","14.17","80.6","735.4","0.0"],
    [1510705,"2026-03-11 12:30:00","57202","6.52","192.7","8.82","187.8","1023.932","14.32","79.54","703.8","0.0"],
    [1510706,"2026-03-11 12:40:00","57203","5.754","196.8","8.43","190.2","1023.841","14.63","75.93","710.5","0.0"],
    [1510707,"2026-03-11 12:50:00","57204","5.37","198.9","7.938","200.4","1023.694","14.86","71.61","667.3","0.0"],
    [1510708,"2026-03-11 13:00:00","57205","5.6739999999999995","195.6","8.75","192.1","1023.591","14.8","72.15","680.2","0.0"],
    [1510709,"2026-03-11 13:10:00","57206","5.334","199.1","7.4479999999999995","204.7","1023.519","14.88","71.26","665.3","0.0"],
    [1510710,"2026-03-11 13:20:00","57207","5.452999999999999","193.4","7.905","192.3","1023.437","14.95","71.26","631.4","0.0"],
    [1510711,"2026-03-11 13:30:00","57208","5.749","192.5","8.04","193.4","1023.32","14.86","72.37","596.3","0.0"],
    [1510712,"2026-03-11 13:40:00","57209","4.709","200.9","7.0889999999999995","194.0","1023.323","14.97","71.51","637.2","0.0"],
    [1510713,"2026-03-11 13:50:00","57210","5.0169999999999995","194.8","6.795","201.8","1023.319","14.92","72.67","595.6","0.0"],
    [1510714,"2026-03-11 14:00:00","57211","6.075","191.8","8.07","196.4","1023.252","14.76","74.26","528.0","0.0"],
    [1510715,"2026-03-11 14:10:00","57212","5.419","199.3","7.971","210.2","1023.254","14.76","74.24","471.5","0.0"],
    [1510716,"2026-03-11 14:20:00","57213","5.954","195.9","8.62","189.3","1023.251","14.74","73.62","457.9","0.0"],
    [1510717,"2026-03-11 14:30:00","57214","5.645","205.4","8.26","208.1","1023.234","14.65","75.33","478.0","0.0"],
    [1510718,"2026-03-11 14:40:00","57215","5.474","202.6","8.26","190.5","1023.172","14.67","76.47","471.2","0.0"],
    [1510719,"2026-03-11 14:50:00","57216","5.781000000000001","198.9","8.0","201.1","1023.121","14.59","77.91","402.8","0.0"],
    [1510720,"2026-03-11 15:00:00","57217","4.461","198.0","7.84","201.5","1023.082","14.81","78.6","352.1","0.0"],
    [1510721,"2026-03-11 15:10:00","57218","3.594","213.8","6.1739999999999995","193.0","1023.109","14.87","77.3","265.9","0.0"],
    [1510722,"2026-03-11 15:20:00","57219","4.284","218.5","8.04","191.9","1023.029","14.82","74.51","244.8","0.0"],
    [1510723,"2026-03-11 15:30:00","57220","3.555","206.6","7.611000000000001","192.4","1023.071","14.88","75.8","259.6","0.0"],
    [1510724,"2026-03-11 15:40:00","57221","4.416","217.6","7.84","218.1","1023.062","14.74","76.97","224.5","0.0"],
    [1510725,"2026-03-11 15:50:00","57222","3.972","209.9","7.317","232.9","1023.064","14.85","76.53","185.0","0.0"],
    [1510726,"2026-03-11 16:00:00","57223","4.404","218.1","7.415","219.5","1023.06","14.79","76.59","156.4","0.0"],
    [1510727,"2026-03-11 16:10:00","57224","4.242","211.1","7.872999999999999","200.7","1023.078","14.76","75.49","141.1","0.0"],
    [1510728,"2026-03-11 16:20:00","57225","4.465","212.0","9.15","199.9","1023.045","14.85","71.63","119.1","0.0"],
    [1510729,"2026-03-11 16:30:00","57226","4.118","209.7","7.382999999999999","200.9","1023.075","14.94","66.88","95.9","0.0"],
    [1510730,"2026-03-11 16:40:00","57227","3.611","210.4","6.435","192.9","1023.026","15.11","59.69","74.43","0.0"],
    [1510731,"2026-03-11 16:50:00","57228","3.638","221.6","6.042999999999999","225.2","1023.034","15.19","58.84","57.9","0.0"],
    [1510732,"2026-03-11 17:00:00","57229","3.094","222.3","5.7170000000000005","211.8","1023.041","15.28","59.44","49.38","0.0"],
    [1510733,"2026-03-11 17:10:00","57230","2.963","216.5","5.4879999999999995","218.6","1023.072","15.32","60.14","38.43","0.0"],
    [1510734,"2026-03-11 17:20:00","57231","3.279","227.9","6.9910000000000005","220.3","1023.125","15.34","60.15","34.31","0.0"],
    [1510735,"2026-03-11 17:30:00","57232","3.82","235.1","5.912999999999999","251.2","1023.261","15.25","60.85","28.38","0.0"],
    [1510736,"2026-03-11 17:40:00","57233","4.0280000000000005","238.8","6.729","217.4","1023.508","14.95","65.22","18.99","0.0"],
    [1510737,"2026-03-11 17:50:00","57234","3.716","238.3","6.827000000000001","220.8","1023.399","14.88","67.18","6.4079999999999995","0.0"],
    [1510738,"2026-03-11 18:00:00","57235","3.6210000000000004","236.7","5.39","215.1","1023.493","14.8","68.7","0.922","0.0"],
    [1510739,"2026-03-11 18:10:00","57236","4.027","233.5","7.056","225.8","1023.505","14.84","70.21","0.0","0.0"],
    [1510740,"2026-03-11 18:20:00","57237","4.466","234.2","6.925","235.1","1023.574","14.66","74.89","0.0","0.0"],
    [1510741,"2026-03-11 18:30:00","57238","4.042","236.5","6.042999999999999","233.5","1023.669","14.57","78.74","0.0","0.0"],
    [1510742,"2026-03-11 18:40:00","57239","3.74","235.3","6.337000000000001","224.7","1023.733","14.51","81.1","0.0","0.0"],
    [1510743,"2026-03-11 18:50:00","57240","3.05","237.3","6.109","233.0","1023.794","14.5","82.4","0.0","0.0"],
    [1510744,"2026-03-11 19:00:00","57241","2.984","238.2","5.2589999999999995","255.3","1023.841","14.49","82.5","0.0","0.0"],
    [1510745,"2026-03-11 19:10:00","57242","2.883","236.7","5.422999999999999","221.5","1023.882","14.5","80.8","0.0","0.0"],
    [1510746,"2026-03-11 19:20:00","57243","2.299","246.3","4.149","226.0","1023.982","14.45","77.21","0.0","0.0"],
    [1510747,"2026-03-11 19:30:00","57244","2.258","241.4","4.1160000000000005","227.6","1024.099","14.4","75.63","0.0","0.0"],
    [1510748,"2026-03-11 19:40:00","57245","1.35","252.0","3.267","254.7","1024.143","14.24","75.57","0.0","0.0"],
    [1510749,"2026-03-11 19:50:00","57246","0.846","250.1","2.0580000000000003","253.1","1024.157","14.16","75.33","0.0","0.0"],
    [1510750,"2026-03-11 20:00:00","57247","1.92","209.9","3.299","237.6","1024.161","14.31","74.88","0.0","0.0"],
    [1510751,"2026-03-11 20:10:00","57248","0.598","253.0","2.385","237.5","1024.205","14.21","75.65","0.0","0.0"],
    [1510752,"2026-03-11 20:20:00","57249","1.5090000000000001","209.5","2.548","232.9","1024.191","14.22","76.48","0.0","0.0"],
    [1510753,"2026-03-11 20:30:00","57250","0.9309999999999999","198.0","1.764","197.1","1024.285","14.14","78.46","0.0","0.0"],
    [1510754,"2026-03-11 20:40:00","57251","0.48200000000000004","236.9","2.417","266.3","1024.314","14.06","79.63","0.0","0.0"],
    [1510755,"2026-03-11 20:50:00","57252","1.739","223.9","2.679","214.3","1024.254","14.16","80.1","0.0","0.0"],
    [1510756,"2026-03-11 21:00:00","57253","2.263","249.1","3.5610000000000004","254.8","1024.235","14.16","80.5","0.0","0.0"],
    [1510757,"2026-03-11 21:10:00","57254","1.692","253.1","3.299","259.4","1024.281","14.03","80.5","0.0","0.0"],
    [1510758,"2026-03-11 21:20:00","57255","1.475","261.5","2.8089999999999997","265.6","1024.374","13.87","81.5","0.0","0.0"],
    [1510759,"2026-03-11 21:30:00","57256","1.722","262.2","2.5810000000000004","259.2","1024.528","13.74","83.4","0.0","0.0"],
    [1510760,"2026-03-11 21:40:00","57257","1.676","247.8","2.6460000000000004","227.9","1024.568","13.72","85.3","0.0","0.0"],
    [1510761,"2026-03-11 21:50:00","57258","2.142","263.6","3.365","273.5","1024.569","13.62","86.0","0.0","0.0"],
    [1510762,"2026-03-11 22:00:00","57259","1.78","264.1","2.5810000000000004","269.1","1024.676","13.35","87.5","0.0","0.0"],
    [1510763,"2026-03-11 22:10:00","57260","1.263","258.2","1.96","266.2","1024.784","13.25","88.6","0.0","0.0"],
    [1510764,"2026-03-11 22:20:00","57261","0.519","236.8","1.3719999999999999","258.3","1024.887","13.2","89.2","0.0","0.0"],
    [1510765,"2026-03-11 22:30:00","57262","0.9329999999999999","245.3","1.699","245.9","1024.908","13.1","88.8","0.0","0.0"],
    [1510766,"2026-03-11 22:40:00","57263","1.3619999999999999","262.1","2.548","266.2","1024.878","13.07","87.1","0.0","0.0"],
    [1510767,"2026-03-11 22:50:00","57264","2.201","263.0","2.5810000000000004","267.0","1025.043","13.28","84.8","0.0","0.0"],
    [1510768,"2026-03-11 23:00:00","57265","2.035","269.6","2.6460000000000004","265.8","1025.157","13.12","84.3","0.0","0.0"],
    [1510769,"2026-03-11 23:10:00","57266","1.187","297.3","1.895","280.1","1025.199","13.06","84.2","0.0","0.0"],
    [1510770,"2026-03-11 23:20:00","57267","1.139","317.1","3.136","13.6","1025.237","13.35","82.6","0.0","0.0"],
    [1510771,"2026-03-11 23:30:00","57268","3.653","17.1","5.553","25.89","1025.263","13.89","79.78","0.0","0.0"],
    [1510772,"2026-03-11 23:40:00","57269","4.106","14.23","5.357","13.94","1025.271","14.05","77.93","0.0","0.0"],
    [1510773,"2026-03-11 23:50:00","57270","3.397","6.557","4.247","8.93","1025.291","14.08","80.2","0.0","0.0"],
    [1510774,"2026-03-12 00:00:00","57271","2.325","358.7","3.005","8.83","1025.276","13.72","81.9","0.0","0.0"],
    [1510775,"2026-03-12 00:10:00","57272","2.479","4.83","3.365","10.31","1025.256","13.75","82.1","0.0","0.0"],
    [1510776,"2026-03-12 00:20:00","57273","2.383","3.9539999999999997","3.201","13.07","1025.245","13.82","82.9","0.0","0.0"],
    [1510777,"2026-03-12 00:30:00","57274","1.973","5.521","2.7439999999999998","12.55","1025.199","13.81","83.7","0.0","0.0"],
    [1510778,"2026-03-12 00:40:00","57275","2.09","1.3840000000000001","3.071","336.2","1025.235","13.87","83.4","0.0","0.0"],
    [1510779,"2026-03-12 00:50:00","57276","2.013","353.4","2.9730000000000003","357.6","1025.317","14.01","82.1","0.0","0.0"],
    [1510780,"2026-03-12 01:00:00","57277","2.65","8.83","3.7239999999999998","15.32","1025.262","14.13","80.6","0.0","0.0"],
    [1510781,"2026-03-12 01:10:00","57278","2.9939999999999998","6.075","3.822","13.76","1025.217","14.3","79.25","0.0","0.0"],
    [1510782,"2026-03-12 01:20:00","57279","2.5789999999999997","359.3","3.267","18.24","1025.237","14.24","77.83","0.0","0.0"],
    [1510783,"2026-03-12 01:30:00","57280","2.653","9.59","3.7239999999999998","10.7","1025.272","14.32","77.28","0.0","0.0"],
    [1510784,"2026-03-12 01:40:00","57281","3.12","12.24","3.822","7.4879999999999995","1025.212","14.32","77.81","0.0","0.0"],
    [1510785,"2026-03-12 01:50:00","57282","3.0589999999999997","7.276","3.9530000000000003","18.04","1025.187","14.29","78.35","0.0","0.0"],
    [1510786,"2026-03-12 02:00:00","57283","2.562","3.3939999999999997","4.1160000000000005","5.138","1025.166","14.26","77.64","0.0","0.0"],
    [1510787,"2026-03-12 02:10:00","57284","2.3569999999999998","359.4","3.463","7.018","1025.187","14.37","76.93","0.0","0.0"],
    [1510788,"2026-03-12 02:20:00","57285","2.314","356.0","3.201","352.7","1025.162","14.44","76.23","0.0","0.0"],
    [1510789,"2026-03-12 02:30:00","57286","2.955","12.07","3.5610000000000004","10.52","1025.106","14.46","76.43","0.0","0.0"],
    [1510790,"2026-03-12 02:40:00","57287","3.117","23.25","3.659","18.12","1025.044","14.4","76.85","0.0","0.0"],
    [1510791,"2026-03-12 02:50:00","57288","3.043","37.71","4.051","34.54","1024.904","14.28","77.12","0.0","0.0"],
    [1510792,"2026-03-12 03:00:00","57289","2.641","23.45","3.7569999999999997","27.91","1024.914","14.15","78.15","0.0","0.0"],
    [1510793,"2026-03-12 03:10:00","57290","2.673","17.88","3.463","17.88","1024.924","14.17","78.66","0.0","0.0"],
    [1510794,"2026-03-12 03:20:00","57291","2.549","16.85","3.397","24.67","1024.856","14.16","79.32","0.0","0.0"],
    [1510795,"2026-03-12 03:30:00","57292","2.376","15.97","3.005","29.27","1024.871","14.18","79.58","0.0","0.0"],
    [1510796,"2026-03-12 03:40:00","57293","2.094","15.53","2.515","13.35","1024.917","14.1","79.39","0.0","0.0"],
    [1510797,"2026-03-12 03:50:00","57294","2.6210000000000004","9.64","3.267","9.82","1024.97","14.13","79.45","0.0","0.0"],
    [1510798,"2026-03-12 04:00:00","57295","2.048","4.777","2.9730000000000003","6.695","1025.052","14.24","78.98","0.0","0.0"],
    [1510799,"2026-03-12 04:10:00","57296","2.02","19.99","2.515","23.65","1025.106","14.26","78.56","0.0","0.0"],
    [1510800,"2026-03-12 04:20:00","57297","1.643","28.68","2.254","40.44","1025.07","14.29","78.75","0.0","0.0"],
    [1510801,"2026-03-12 04:30:00","57298","1.7730000000000001","18.64","2.156","10.42","1025.185","14.34","78.9","0.0","0.0"],
    [1510802,"2026-03-12 04:40:00","57299","2.138","18.51","2.679","18.59","1025.132","14.38","79.4","0.0","0.0"],
    [1510803,"2026-03-12 04:50:00","57300","1.402","24.91","2.254","22.2","1025.123","14.4","79.43","0.0","0.0"],
    [1510804,"2026-03-12 05:00:00","57301","1.416","49.64","1.9269999999999998","44.37","1024.942","14.32","79.76","0.0","0.0"],
    [1510805,"2026-03-12 05:10:00","57302","1.1640000000000001","43.16","1.895","56.95","1024.887","14.29","79.61","0.0","0.0"],
    [1510806,"2026-03-12 05:20:00","57303","1.222","39.11","1.797","19.51","1024.842","14.29","79.72","0.0","0.0"],
    [1510807,"2026-03-12 05:30:00","57304","1.213","48.37","1.9269999999999998","41.22","1024.794","14.3","79.86","0.0","0.0"],
    [1510808,"2026-03-12 05:40:00","57305","1.188","36.69","1.633","32.37","1024.782","14.27","80.2","0.0","0.0"],
    [1510809,"2026-03-12 05:50:00","57306","1.0979999999999999","20.35","1.601","18.15","1024.816","14.26","80.6","0.0","0.0"],
    [1510810,"2026-03-12 06:00:00","57307","0.7709999999999999","322.7","1.2409999999999999","320.4","1024.865","14.1","80.7","0.08","0.0"],
    [1510811,"2026-03-12 06:10:00","57308","0.843","281.1","1.307","284.8","1024.866","13.79","81.3","1.758","0.0"],
    [1510812,"2026-03-12 06:20:00","57309","1.38","252.2","2.189","268.0","1024.979","13.54","82.1","6.763","0.0"],
    [1510813,"2026-03-12 06:30:00","57310","0.67","213.7","2.0580000000000003","176.3","1025.062","13.63","82.4","11.34","0.0"],
    [1510814,"2026-03-12 06:40:00","57311","0.6809999999999999","218.8","1.2409999999999999","195.0","1025.135","13.2","82.8","15.63","0.0"],
    [1510815,"2026-03-12 06:50:00","57312","0.883","200.8","1.7309999999999999","172.3","1025.247","13.54","83.5","34.39","0.0"],
    [1510816,"2026-03-12 07:00:00","57313","1.237","254.0","1.829","263.8","1025.298","13.14","83.1","40.12","0.0"],
    [1510817,"2026-03-12 07:10:00","57314","1.652","263.2","2.45","266.3","1025.411","12.99","82.9","46.3","0.0"],
    [1510818,"2026-03-12 07:20:00","57315","1.337","256.3","2.0909999999999997","263.8","1025.503","13.05","82.7","55.68","0.0"],
    [1510819,"2026-03-12 07:30:00","57316","0.141","260.4","0.7509999999999999","264.8","1025.633","13.2","82.4","54.48","0.0"],
    [1510820,"2026-03-12 07:40:00","57317","1.128","249.5","1.9269999999999998","261.7","1025.714","13.4","81.9","62.29","0.0"],
    [1510821,"2026-03-12 07:50:00","57318","1.307","256.4","1.9269999999999998","264.6","1025.836","13.42","81.2","49.82","0.0"],
    [1510822,"2026-03-12 08:00:00","57319","0.759","220.1","1.307","173.3","1025.871","13.62","80.9","86.9","0.0"],
    [1510823,"2026-03-12 08:10:00","57320","1.713","209.3","2.613","216.8","1025.894","13.85","80.2","121.6","0.0"],
    [1510824,"2026-03-12 08:20:00","57321","1.79","206.5","2.94","191.6","1025.858","13.99","79.61","198.6","0.0"],
    [1510825,"2026-03-12 08:30:00","57322","1.449","208.8","2.123","216.5","1025.965","14.1","78.58","242.5","0.0"],
    [1510826,"2026-03-12 08:40:00","57323","1.495","203.5","2.907","201.6","1026.07","14.31","77.44","290.8","0.0"],
    [1510827,"2026-03-12 08:50:00","57324","1.821","199.7","3.103","208.2","1026.181","14.47","76.27","365.2","0.0"],
    [1510828,"2026-03-12 09:00:00","57325","1.492","214.2","3.0380000000000003","216.3","1026.254","14.57","75.81","377.2","0.0"],
    [1510829,"2026-03-12 09:10:00","57326","1.287","195.3","3.267","200.8","1026.361","14.87","74.68","343.9","0.0"],
    [1510830,"2026-03-12 09:20:00","57327","2.169","191.7","3.103","205.3","1026.383","14.61","74.88","253.1","0.0"],
    [1510831,"2026-03-12 09:30:00","57328","1.955","199.7","3.1689999999999996","183.7","1026.391","14.72","75.21","376.2","0.0"],
    [1510832,"2026-03-12 09:40:00","57329","2.1630000000000003","210.0","3.463","238.8","1026.378","14.66","75.08","356.1","0.0"],
    [1510833,"2026-03-12 09:50:00","57330","1.903","198.6","4.1160000000000005","192.2","1026.383","14.98","74.69","705.6","0.0"],
    [1510834,"2026-03-12 10:00:00","57331","2.412","185.2","4.737","191.5","1026.323","15.1","74.25","530.7","0.0"],
    [1510835,"2026-03-12 10:10:00","57332","3.659","181.0","5.553","184.7","1026.27","15.05","75.98","566.9","0.0"],
    [1510836,"2026-03-12 10:20:00","57333","3.907","180.6","5.782","177.3","1026.233","14.9","77.72","343.2","0.0"],
    [1510837,"2026-03-12 10:30:00","57334","3.967","182.5","5.194","188.3","1026.194","14.8","78.98","317.0","0.0"],
    [1510838,"2026-03-12 10:40:00","57335","3.87","181.2","5.1610000000000005","195.6","1026.07","14.76","80.2","410.9","0.0"],
    [1510839,"2026-03-12 10:50:00","57336","3.529","182.0","4.802","194.8","1025.974","14.65","81.2","416.8","0.0"],
    [1510840,"2026-03-12 11:00:00","57337","3.6510000000000002","180.0","4.638999999999999","184.8","1025.913","14.68","82.0","722.0","0.0"],
    [1510841,"2026-03-12 11:10:00","57338","4.126","174.1","5.031000000000001","188.5","1025.758","14.65","83.7","767.3","0.0"],
    [1510842,"2026-03-12 11:20:00","57339","4.481","181.1","5.749","173.1","1025.651","14.85","84.1","723.4","0.0"],
    [1510843,"2026-03-12 11:30:00","57340","4.487","183.3","6.272","173.1","1025.582","14.95","83.1","787.4","0.0"],
    [1510844,"2026-03-12 11:40:00","57341","4.486000000000001","184.2","5.782","185.4","1025.417","14.95","83.4","740.1","0.0"],
    [1510845,"2026-03-12 11:50:00","57342","5.004","184.2","6.893","191.2","1025.225","14.88","83.9","682.6","0.0"],
    [1510846,"2026-03-12 12:00:00","57343","5.318","182.3","7.317","173.2","1025.047","14.95","82.3","767.6","0.0"],
    [1510847,"2026-03-12 12:10:00","57344","6.377000000000001","175.4","7.579","181.4","1024.834","14.76","82.4","681.1","0.0"],
    [1510848,"2026-03-12 12:20:00","57345","5.822","177.4","7.775","174.0","1024.689","14.74","84.0","724.0","0.0"],
    [1510849,"2026-03-12 12:30:00","57346","5.49","179.0","6.957999999999999","171.9","1024.509","14.78","84.3","675.0","0.0"],
    [1510850,"2026-03-12 12:40:00","57347","5.269","179.4","6.697","166.6","1024.388","14.85","84.9","732.2","0.0"],
    [1510851,"2026-03-12 12:50:00","57348","4.26","183.0","5.782","187.4","1024.278","14.89","86.1","770.2","0.0"],
    [1510852,"2026-03-12 13:00:00","57349","3.964","178.9","5.1610000000000005","172.3","1024.125","14.8","86.7","511.8","0.0"],
    [1510853,"2026-03-12 13:10:00","57350","3.8080000000000003","181.4","5.129","169.3","1023.975","14.81","86.9","534.4","0.0"],
    [1510854,"2026-03-12 13:20:00","57351","3.8560000000000003","181.4","5.586","169.2","1023.847","14.8","87.0","493.7","0.0"],
    [1510855,"2026-03-12 13:30:00","57352","4.1530000000000005","181.3","5.063","191.7","1023.748","14.73","86.9","549.6","0.0"],
    [1510856,"2026-03-12 13:40:00","57353","4.0","183.2","5.292000000000001","183.8","1023.619","14.77","86.9","611.0","0.0"],
    [1510857,"2026-03-12 13:50:00","57354","4.5569999999999995","182.1","6.042999999999999","193.0","1023.472","14.58","87.1","557.0","0.0"],
    [1510858,"2026-03-12 14:00:00","57355","4.423","183.0","5.4879999999999995","180.6","1023.397","14.64","88.0","596.1","0.0"],
    [1510859,"2026-03-12 14:10:00","57356","4.882","179.9","5.749","182.7","1023.239","14.55","88.6","606.4","0.0"],
    [1510860,"2026-03-12 14:20:00","57357","5.008","181.4","6.337000000000001","179.2","1023.124","14.52","89.1","288.6","0.0"],
    [1510861,"2026-03-12 14:30:00","57358","5.835","174.7","7.187","173.3","1022.968","14.48","89.9","365.9","0.0"],
    [1510862,"2026-03-12 14:40:00","57359","5.837999999999999","174.2","7.709","176.7","1022.821","14.45","91.3","392.5","0.0"],
    [1510863,"2026-03-12 14:50:00","57360","5.109","185.8","6.468","189.9","1022.765","14.47","91.5","289.4","0.0"],
    [1510864,"2026-03-12 15:00:00","57361","5.039","183.3","5.847","181.9","1022.728","14.42","91.4","263.9","0.0"],
    [1510865,"2026-03-12 15:10:00","57362","5.065","184.6","6.1739999999999995","183.5","1022.732","14.32","90.5","201.6","0.0"],
    [1510866,"2026-03-12 15:20:00","57363","4.325","187.2","5.455","193.7","1022.67","14.52","87.5","190.5","0.0"],
    [1510867,"2026-03-12 15:30:00","57364","4.372","189.5","5.684","189.0","1022.577","14.62","82.1","207.2","0.0"],
    [1510868,"2026-03-12 15:40:00","57365","4.869","184.1","5.684","185.3","1022.479","14.44","82.4","233.3","0.0"],
    [1510869,"2026-03-12 15:50:00","57366","4.44","185.1","5.2589999999999995","181.1","1022.435","14.35","78.71","223.9","0.0"],
    [1510870,"2026-03-12 16:00:00","57367","3.964","174.3","4.802","178.1","1022.476","14.55","73.73","166.7","0.0"],
    [1510871,"2026-03-12 16:10:00","57368","3.6689999999999996","167.9","4.312","169.5","1022.433","14.41","75.65","126.5","0.0"],
    [1510872,"2026-03-12 16:20:00","57369","3.557","187.4","4.279","195.2","1022.294","14.34","76.35","81.9","0.0"],
    [1510873,"2026-03-12 16:30:00","57370","3.404","191.4","4.051","197.1","1022.184","14.35","76.5","89.8","0.0"],
    [1510874,"2026-03-12 16:40:00","57371","3.165","190.8","4.051","188.0","1022.295","14.37","77.48","101.9","0.0"],
    [1510875,"2026-03-12 16:50:00","57372","3.426","194.2","4.312","194.9","1022.394","14.32","78.17","62.99","0.0"],
    [1510876,"2026-03-12 17:00:00","57373","2.927","203.4","4.018","211.2","1022.388","14.48","76.77","102.7","0.0"],
    [1510877,"2026-03-12 17:10:00","57374","3.145","215.3","5.521","223.4","1022.44","14.76","73.3","97.7","0.0"],
    [1510878,"2026-03-12 17:20:00","57375","4.093999999999999","205.6","5.782","205.1","1022.47","14.69","72.79","79.77","0.0"],
    [1510879,"2026-03-12 17:30:00","57376","4.067","199.6","5.945","210.1","1022.397","14.62","75.78","53.08","0.0"],
    [1510880,"2026-03-12 17:40:00","57377","4.06","197.7","6.011","209.9","1022.291","14.59","77.64","30.76","0.0"],
    [1510881,"2026-03-12 17:50:00","57378","3.717","203.7","5.749","212.8","1022.305","14.55","79.01","11.11","0.0"],
    [1510882,"2026-03-12 18:00:00","57379","3.888","204.9","5.749","205.1","1022.278","14.43","79.98","2.532","0.0"],
    [1510883,"2026-03-12 18:10:00","57380","2.775","210.1","5.1610000000000005","203.0","1022.289","14.48","80.6","0.011000000000000001","0.0"],
    [1510884,"2026-03-12 18:20:00","57381","2.115","215.9","3.463","210.9","1022.274","14.54","81.3","0.0","0.0"],
    [1510885,"2026-03-12 18:30:00","57382","2.767","243.8","4.671","259.6","1022.3","14.51","80.9","0.0","0.0"],
    [1510886,"2026-03-12 18:40:00","57383","2.9","245.7","4.802","223.1","1022.45","14.43","80.7","0.0","0.0"],
    [1510887,"2026-03-12 18:50:00","57384","2.615","244.1","4.867","209.7","1022.661","14.35","80.6","0.0","0.0"],
    [1510888,"2026-03-12 19:00:00","57385","2.653","246.3","4.802","228.0","1022.724","14.32","80.8","0.0","0.0"],
    [1510889,"2026-03-12 19:10:00","57386","2.6839999999999997","246.5","4.4430000000000005","276.4","1022.747","14.26","80.9","0.0","0.0"],
    [1510890,"2026-03-12 19:20:00","57387","2.47","245.8","4.41","266.2","1022.799","14.26","80.8","0.0","0.0"],
    [1510891,"2026-03-12 19:30:00","57388","2.09","229.9","3.593","250.8","1022.796","14.28","81.5","0.0","0.0"],
    [1510892,"2026-03-12 19:40:00","57389","2.049","231.0","3.9530000000000003","225.4","1022.744","14.21","82.5","0.0","0.0"],
    [1510893,"2026-03-12 19:50:00","57390","2.303","249.1","4.312","253.8","1022.782","14.13","83.3","0.0","0.0"],
    [1510894,"2026-03-12 20:00:00","57391","2.428","250.1","4.377","260.0","1022.762","14.11","83.9","0.0","0.0"],
    [1510895,"2026-03-12 20:10:00","57392","1.834","250.3","3.397","240.4","1022.78","14.04","84.5","0.0","0.0"],
    [1510896,"2026-03-12 20:20:00","57393","2.245","253.6","3.822","263.9","1022.799","14.07","85.3","0.0","0.0"],
    [1510897,"2026-03-12 20:30:00","57394","1.65","250.9","3.071","247.5","1022.815","13.99","85.8","0.0","0.0"],
    [1510898,"2026-03-12 20:40:00","57395","1.655","248.6","3.005","261.4","1022.79","13.93","86.1","0.0","0.0"],
    [1510899,"2026-03-12 20:50:00","57396","2.006","241.9","3.463","222.4","1022.792","13.99","86.4","0.0","0.0"],
    [1510900,"2026-03-12 21:00:00","57397","2.084","233.4","3.495","259.6","1022.812","14.11","86.0","0.0","0.0"],
    [1510901,"2026-03-12 21:10:00","57398","1.8","244.4","3.1689999999999996","244.9","1022.848","14.11","86.6","0.0","0.0"],
    [1510902,"2026-03-12 21:20:00","57399","1.7309999999999999","253.5","3.0380000000000003","224.6","1022.823","13.99","87.1","0.0","0.0"],
    [1510903,"2026-03-12 21:30:00","57400","1.359","223.0","2.417","227.2","1022.814","13.91","88.2","0.0","0.0"],
    [1510904,"2026-03-12 21:40:00","57401","1.5319999999999998","229.8","2.9730000000000003","278.8","1022.834","13.87","89.3","0.0","0.0"],
    [1510905,"2026-03-12 21:50:00","57402","1.886","246.5","3.136","254.9","1022.836","13.85","90.1","0.0","0.0"],
    [1510906,"2026-03-12 22:00:00","57403","1.472","250.9","2.189","273.3","1022.947","13.51","90.2","0.0","0.0"],
    [1510907,"2026-03-12 22:10:00","57404","0.7559999999999999","245.2","1.568","253.8","1022.928","13.2","90.3","0.0","0.0"],
    [1510908,"2026-03-12 22:20:00","57405","0.7020000000000001","267.2","1.666","275.1","1022.905","12.86","90.1","0.0","0.0"],
    [1510909,"2026-03-12 22:30:00","57406","0.628","254.6","1.601","258.7","1022.882","12.9","89.7","0.0","0.0"],
    [1510910,"2026-03-12 22:40:00","57407","0.099","277.1","0.523","286.0","1022.785","12.92","89.0","0.0","0.0"],
    [1510911,"2026-03-12 22:50:00","57408","0.703","291.5","1.176","290.8","1022.703","12.83","88.8","0.0","0.0"],
    [1510912,"2026-03-12 23:00:00","57409","0.7809999999999999","241.4","1.47","256.2","1022.671","12.96","88.7","0.0","0.0"],
    [1510913,"2026-03-12 23:10:00","57410","0.098","210.0","0.49","226.8","1022.691","13.18","88.9","0.0","0.0"],
    [1510914,"2026-03-12 23:20:00","57411","0.679","231.9","1.339","247.3","1022.592","13.09","89.0","0.0","0.0"],
    [1510915,"2026-03-12 23:30:00","57412","1.37","256.0","2.254","269.8","1022.519","12.97","88.9","0.0","0.0"],
    [1510916,"2026-03-12 23:40:00","57413","1.982","267.0","2.221","260.8","1022.356","12.59","88.4","0.0","0.0"],
    [1510917,"2026-03-12 23:50:00","57414","1.757","265.0","2.123","265.4","1022.241","12.22","87.9","0.0","0.0"],
    [1510918,"2026-03-13 00:00:00","57415","1.149","259.7","1.666","261.0","1022.195","12.2","87.6","0.0","0.0"],
    [1510919,"2026-03-13 00:10:00","57416","0.7090000000000001","259.9","0.98","263.4","1022.125","12.35","87.1","0.0","0.0"],
    [1510920,"2026-03-13 00:20:00","57417","0.8079999999999999","268.5","1.013","268.9","1022.087","12.39","86.6","0.0","0.0"],
    [1510921,"2026-03-13 00:30:00","57418","0.872","284.8","1.111","286.8","1022.065","12.31","86.1","0.0","0.0"],
    [1510922,"2026-03-13 00:40:00","57419","0.865","289.3","1.209","287.0","1022.076","12.18","86.2","0.0","0.0"],
    [1510923,"2026-03-13 00:50:00","57420","0.47200000000000003","239.2","0.915","291.7","1022.094","12.26","86.5","0.0","0.0"],
    [1510924,"2026-03-13 01:00:00","57421","0.12","229.2","0.6859999999999999","219.7","1022.077","12.13","86.8","0.0","0.0"],
    [1510925,"2026-03-13 01:10:00","57422","0.0","0.0","0.0","0.0","1022.039","12.09","87.0","0.0","0.0"],
    [1510926,"2026-03-13 01:20:00","57423","0.531","297.1","1.078","301.1","1021.922","11.97","87.0","0.0","0.0"],
    [1510927,"2026-03-13 01:30:00","57424","0.39799999999999996","279.3","1.045","270.6","1021.775","11.94","87.1","0.0","0.0"],
    [1510928,"2026-03-13 01:40:00","57425","0.005","346.6","0.196","354.5","1021.733","12.15","87.4","0.0","0.0"],
    [1510929,"2026-03-13 01:50:00","57426","0.02","279.0","0.392","278.7","1021.61","12.1","87.6","0.0","0.0"],
    [1510930,"2026-03-13 02:00:00","57427","0.289","250.3","0.8490000000000001","255.2","1021.544","11.97","87.8","0.0","0.0"],
    [1510931,"2026-03-13 02:10:00","57428","0.649","272.4","1.4369999999999998","266.0","1021.42","11.69","88.1","0.0","0.0"],
    [1510932,"2026-03-13 02:20:00","57429","1.365","264.7","1.633","264.6","1021.257","11.28","88.5","0.0","0.0"],
    [1510933,"2026-03-13 02:30:00","57430","0.585","261.6","1.307","278.7","1021.087","11.51","89.1","0.0","0.0"],
    [1510934,"2026-03-13 02:40:00","57431","1.76","267.7","2.156","266.8","1020.879","11.22","88.9","0.0","0.0"],
    [1510935,"2026-03-13 02:50:00","57432","1.531","260.5","2.025","264.9","1020.811","11.1","89.3","0.0","0.0"],
    [1510936,"2026-03-13 03:00:00","57433","1.5219999999999998","269.2","2.025","262.9","1020.718","11.16","89.4","0.0","0.0"],
    [1510937,"2026-03-13 03:10:00","57434","1.811","268.9","2.025","269.7","1020.594","10.95","89.4","0.0","0.0"],
    [1510938,"2026-03-13 03:20:00","57435","1.55","256.6","2.123","261.4","1020.474","10.98","89.8","0.0","0.0"],
    [1510939,"2026-03-13 03:30:00","57436","0.992","268.0","1.535","265.3","1020.315","11.17","89.8","0.0","0.0"],
    [1510940,"2026-03-13 03:40:00","57437","0.857","272.6","1.829","266.6","1020.285","11.34","89.8","0.0","0.0"],
    [1510941,"2026-03-13 03:50:00","57438","2.0","266.2","2.287","261.3","1020.28","10.87","89.4","0.0","0.0"],
    [1510942,"2026-03-13 04:00:00","57439","2.015","263.7","2.319","258.7","1020.161","10.74","89.7","0.0","0.0"],
    [1510943,"2026-03-13 04:10:00","57440","1.307","267.2","1.699","259.9","1020.021","10.79","90.0","0.0","0.0"],
    [1510944,"2026-03-13 04:20:00","57441","0.865","246.9","1.601","257.5","1020.003","10.91","90.2","0.0","0.0"],
    [1510945,"2026-03-13 04:30:00","57442","0.596","260.2","1.633","271.8","1019.943","11.1","90.3","0.0","0.0"],
    [1510946,"2026-03-13 04:40:00","57443","2.01","261.9","2.548","264.2","1019.984","10.76","89.9","0.0","0.0"],
    [1510947,"2026-03-13 04:50:00","57444","2.006","266.5","2.5810000000000004","262.3","1019.942","10.52","90.1","0.0","0.0"],
    [1510948,"2026-03-13 05:00:00","57445","1.8840000000000001","264.5","2.189","256.9","1019.943","10.49","90.3","0.0","0.0"],
    [1510949,"2026-03-13 05:10:00","57446","1.719","262.2","2.156","255.6","1020.001","10.55","90.5","0.0","0.0"],
    [1510950,"2026-03-13 05:20:00","57447","1.704","262.1","2.385","261.1","1020.042","10.69","90.5","0.0","0.0"],
    [1510951,"2026-03-13 05:30:00","57448","1.9169999999999998","261.5","2.548","263.5","1020.073","10.6","90.3","0.0","0.0"],
    [1510952,"2026-03-13 05:40:00","57449","2.059","260.3","2.679","259.1","1020.065","10.6","90.3","0.0","0.0"],
    [1510953,"2026-03-13 05:50:00","57450","2.24","263.2","2.7110000000000003","261.0","1020.141","10.56","90.0","0.0","0.0"],
    [1510954,"2026-03-13 06:00:00","57451","2.074","263.6","2.515","266.5","1020.226","10.51","89.7","0.439","0.0"],
    [1510955,"2026-03-13 06:10:00","57452","2.082","264.8","2.45","269.3","1020.183","10.55","89.3","1.7930000000000001","0.0"],
    [1510956,"2026-03-13 06:20:00","57453","1.7","271.1","2.0909999999999997","273.6","1020.1","10.64","88.9","4.332","0.0"],
    [1510957,"2026-03-13 06:30:00","57454","1.0959999999999999","285.9","1.633","266.3","1020.052","10.86","88.7","8.75","0.0"],
    [1510958,"2026-03-13 06:40:00","57455","0.46399999999999997","281.3","0.882","279.7","1020.035","11.1","88.4","15.58","0.0"],
    [1510959,"2026-03-13 06:50:00","57456","0.3","256.6","0.653","254.0","1020.065","11.49","88.4","28.41","0.0"],
    [1510960,"2026-03-13 07:00:00","57457","0.445","11.03","1.895","7.781000000000001","1020.06","11.86","88.3","66.03","0.0"],
    [1510961,"2026-03-13 07:10:00","57458","1.8130000000000002","12.43","2.156","10.08","1020.064","11.94","88.1","53.17","0.0"],
    [1510962,"2026-03-13 07:20:00","57459","2.141","18.88","2.8089999999999997","25.43","1020.092","12.1","88.0","121.6","0.0"],
    [1510963,"2026-03-13 07:30:00","57460","2.6710000000000003","21.66","3.267","25.51","1020.126","11.99","86.5","127.1","0.0"],
    [1510964,"2026-03-13 07:40:00","57461","2.526","17.15","3.234","18.38","1020.172","12.27","85.1","193.5","0.0"],
    [1510965,"2026-03-13 07:50:00","57462","2.679","16.72","3.1689999999999996","15.69","1020.235","12.43","85.3","241.1","0.0"],
    [1510966,"2026-03-13 08:00:00","57463","2.258","22.94","2.7439999999999998","10.37","1020.235","12.44","86.9","273.7","0.0"],
    [1510967,"2026-03-13 08:10:00","57464","2.051","27.8","2.45","29.9","1020.351","12.42","87.5","205.9","0.0"],
    [1510968,"2026-03-13 08:20:00","57465","2.1630000000000003","24.98","2.6460000000000004","20.53","1020.347","12.45","88.1","200.2","0.0"],
    [1510969,"2026-03-13 08:30:00","57466","2.04","22.12","2.515","23.27","1020.332","12.45","88.9","219.1","0.0"],
    [1510970,"2026-03-13 08:40:00","57467","1.995","12.31","3.005","8.83","1020.298","12.57","89.2","260.6","0.0"],
    [1510971,"2026-03-13 08:50:00","57468","2.0709999999999997","7.92","2.679","16.34","1020.282","12.63","89.4","216.9","0.0"],
    [1510972,"2026-03-13 09:00:00","57469","1.946","14.61","2.515","9.71","1020.286","12.71","89.3","245.6","0.0"],
    [1510973,"2026-03-13 09:10:00","57470","1.944","13.16","2.385","16.11","1020.264","12.88","88.8","274.4","0.0"],
    [1510974,"2026-03-13 09:20:00","57471","2.144","23.07","2.613","36.14","1020.276","13.03","87.9","282.0","0.0"],
    [1510975,"2026-03-13 09:30:00","57472","1.885","36.05","2.8089999999999997","40.21","1020.189","13.16","86.8","376.4","0.0"],
    [1510976,"2026-03-13 09:40:00","57473","2.6319999999999997","40.56","3.495","42.05","1020.075","13.27","86.1","636.4","0.0"],
    [1510977,"2026-03-13 09:50:00","57474","2.005","47.21","2.842","41.06","1020.018","13.42","85.5","556.1","0.0"],
    [1510978,"2026-03-13 10:00:00","57475","1.8090000000000002","75.4","2.94","84.6","1019.997","13.54","84.7","483.5","0.0"],
    [1510979,"2026-03-13 10:10:00","57476","1.94","65.6","2.94","67.72","1019.94","13.87","84.2","627.6","0.0"],
    [1510980,"2026-03-13 10:20:00","57477","1.6880000000000002","51.45","3.103","24.74","1019.863","14.49","82.9","684.5","0.0"],
    [1510981,"2026-03-13 10:30:00","57478","1.989","40.85","3.071","39.81","1019.736","14.64","81.3","635.4","0.0"],
    [1510982,"2026-03-13 10:40:00","57479","1.857","80.6","2.6460000000000004","85.8","1019.656","14.39","80.6","606.8","0.0"],
    [1510983,"2026-03-13 10:50:00","57480","2.373","105.8","3.201","104.9","1019.484","14.13","79.77","727.3","0.0"],
    [1510984,"2026-03-13 11:00:00","57481","2.49","113.7","3.234","105.6","1019.35","13.76","80.9","725.5","0.0"],
    [1510985,"2026-03-13 11:10:00","57482","2.452","109.3","3.528","97.4","1019.305","13.77","81.8","732.6","0.0"],
    [1510986,"2026-03-13 11:20:00","57483","2.5860000000000003","97.6","3.5610000000000004","84.1","1019.174","13.67","82.8","742.6","0.0"],
    [1510987,"2026-03-13 11:30:00","57484","2.524","91.6","3.463","94.4","1019.115","13.62","83.9","754.6","0.0"],
    [1510988,"2026-03-13 11:40:00","57485","2.725","108.0","3.5610000000000004","117.9","1019.002","13.6","84.1","760.2","0.0"],
    [1510989,"2026-03-13 11:50:00","57486","2.7880000000000003","129.0","3.6910000000000003","139.6","1018.874","13.62","84.2","755.6","0.0"],
    [1510990,"2026-03-13 12:00:00","57487","2.6239999999999997","135.9","3.299","149.1","1018.744","13.7","84.4","744.7","0.0"],
    [1510991,"2026-03-13 12:10:00","57488","2.589","142.3","3.528","132.5","1018.491","13.78","84.8","749.1","0.0"],
    [1510992,"2026-03-13 12:20:00","57489","2.872","151.6","3.593","156.7","1018.27","13.68","84.4","749.2","0.0"],
    [1510993,"2026-03-13 12:30:00","57490","3.293","160.2","3.985","157.9","1018.023","13.74","83.8","750.5","0.0"],
    [1510994,"2026-03-13 12:40:00","57491","3.628","167.6","4.475","171.3","1017.884","13.77","83.7","743.8","0.0"],
    [1510995,"2026-03-13 12:50:00","57492","3.5010000000000003","172.7","4.606","170.2","1017.749","13.92","84.1","735.2","0.0"],
    [1510996,"2026-03-13 13:00:00","57493","3.622","173.8","4.4430000000000005","171.0","1017.601","13.93","84.1","725.2","0.0"],
    [1510997,"2026-03-13 13:10:00","57494","3.815","171.7","4.508","173.2","1017.386","13.92","84.6","715.5","0.0"],
    [1510998,"2026-03-13 13:20:00","57495","3.577","174.1","4.541","169.5","1017.174","13.97","85.0","706.8","0.0"],
    [1510999,"2026-03-13 13:30:00","57496","3.555","174.4","4.2139999999999995","166.3","1017.023","14.03","85.2","692.9","0.0"],
    [1511000,"2026-03-13 13:40:00","57497","3.608","171.1","4.41","169.4","1016.831","14.03","85.8","676.0","0.0"],
    [1511001,"2026-03-13 13:50:00","57498","3.875","168.5","4.835","178.1","1016.642","14.0","86.2","662.7","0.0"],
    [1511002,"2026-03-13 14:00:00","57499","4.143","169.3","5.031000000000001","167.4","1016.457","13.98","86.4","644.7","0.0"],
    [1511003,"2026-03-13 14:10:00","57500","3.7880000000000003","166.8","4.737","173.3","1016.299","14.04","86.7","623.1","0.0"],
    [1511004,"2026-03-13 14:20:00","57501","4.078","163.5","4.835","166.1","1016.055","13.98","87.8","600.9","0.0"],
    [1511005,"2026-03-13 14:30:00","57502","3.877","171.0","4.835","172.3","1016.008","14.03","88.1","575.8","0.0"],
    [1511006,"2026-03-13 14:40:00","57503","4.433","169.3","5.194","169.4","1015.847","14.03","88.4","553.8","0.0"],
    [1511007,"2026-03-13 14:50:00","57504","4.033","167.9","4.671","165.6","1015.671","14.07","88.8","531.2","0.0"],
    [1511008,"2026-03-13 15:00:00","57505","3.908","176.1","5.129","168.1","1015.471","14.18","89.4","509.1","0.0"],
    [1511009,"2026-03-13 15:10:00","57506","3.572","184.0","4.638999999999999","191.0","1015.42","14.26","89.3","449.5","0.0"],
    [1511010,"2026-03-13 15:20:00","57507","4.0280000000000005","172.1","5.194","182.6","1015.261","14.22","89.3","435.8","0.0"],
    [1511011,"2026-03-13 15:30:00","57508","4.312","172.1","5.129","175.5","1015.101","14.16","90.0","257.8","0.0"],
    [1511012,"2026-03-13 15:40:00","57509","3.5189999999999997","181.4","4.933","174.0","1014.975","14.36","90.4","355.1","0.0"],
    [1511013,"2026-03-13 15:50:00","57510","3.7560000000000002","176.9","5.063","169.3","1014.822","14.36","90.3","358.4","0.0"],
    [1511014,"2026-03-13 16:00:00","57511","4.104","173.7","5.227","170.4","1014.626","14.38","90.9","318.8","0.0"],
    [1511015,"2026-03-13 16:10:00","57512","4.3260000000000005","174.5","5.586","169.6","1014.442","14.52","91.7","292.5","0.0"],
    [1511016,"2026-03-13 16:20:00","57513","4.4830000000000005","186.0","6.011","184.7","1014.285","14.63","91.9","261.2","0.0"],
    [1511017,"2026-03-13 16:30:00","57514","4.538","197.8","6.435","210.2","1014.25","14.72","90.1","223.1","0.0"],
    [1511018,"2026-03-13 16:40:00","57515","3.858","207.6","6.337000000000001","209.9","1014.218","15.03","87.0","198.6","0.0"],
    [1511019,"2026-03-13 16:50:00","57516","3.28","209.5","5.782","192.2","1014.117","15.07","86.2","166.0","0.0"],
    [1511020,"2026-03-13 17:00:00","57517","3.5669999999999997","210.9","7.6770000000000005","205.5","1013.97","15.04","86.2","139.4","0.0"],
    [1511021,"2026-03-13 17:10:00","57518","4.052","209.8","7.154","206.8","1013.894","14.79","87.7","98.9","0.0"],
    [1511022,"2026-03-13 17:20:00","57519","4.239","210.8","6.5329999999999995","209.6","1013.877","14.56","88.6","58.83","0.0"],
    [1511023,"2026-03-13 17:30:00","57520","3.801","205.6","6.435","206.8","1013.798","14.45","88.8","43.63","0.0"],
    [1511024,"2026-03-13 17:40:00","57521","3.775","202.3","6.37","200.2","1013.743","14.33","89.0","22.76","0.0"],
    [1511025,"2026-03-13 17:50:00","57522","3.636","203.0","5.7170000000000005","197.2","1013.663","14.28","89.6","9.32","0.0"],
    [1511026,"2026-03-13 18:00:00","57523","4.162","206.5","7.0889999999999995","205.8","1013.588","14.22","90.4","1.2930000000000001","0.0"],
    [1511027,"2026-03-13 18:10:00","57524","4.763","200.6","7.056","199.2","1013.494","14.2","91.2","0.0","0.0"],
    [1511028,"2026-03-13 18:20:00","57525","3.9010000000000002","202.3","5.39","200.1","1013.45","14.14","92.1","0.0","0.0"],
    [1511029,"2026-03-13 18:30:00","57526","3.48","208.4","5.978","194.4","1013.356","14.11","92.6","0.0","0.0"],
    [1511030,"2026-03-13 18:40:00","57527","3.699","203.3","5.815","188.7","1013.284","14.04","93.2","0.0","0.0"],
    [1511031,"2026-03-13 18:50:00","57528","3.818","209.8","6.501","214.8","1013.142","14.12","93.8","0.0","0.0"],
    [1511032,"2026-03-13 19:00:00","57529","4.132","214.2","7.415","219.9","1012.908","14.16","94.7","0.0","0.0"],
    [1511033,"2026-03-13 19:10:00","57530","4.407","215.1","7.252000000000001","212.9","1012.724","14.11","95.2","0.0","0.0"],
    [1511034,"2026-03-13 19:20:00","57531","3.638","208.4","5.422999999999999","207.0","1012.528","14.02","95.6","0.0","0.0"],
    [1511035,"2026-03-13 19:30:00","57532","3.905","206.4","6.305","203.9","1012.437","13.94","96.0","0.0","0.0"],
    [1511036,"2026-03-13 19:40:00","57533","3.161","211.1","5.455","187.1","1012.392","13.94","96.4","0.0","0.0"],
    [1511037,"2026-03-13 19:50:00","57534","3.167","208.9","5.194","219.1","1012.393","13.94","96.7","0.0","0.0"],
    [1511038,"2026-03-13 20:00:00","57535","3.133","201.9","4.671","209.9","1012.37","13.87","96.7","0.0","0.0"],
    [1511039,"2026-03-13 20:10:00","57536","2.9960000000000004","200.2","4.1160000000000005","202.2","1012.294","13.83","96.7","0.0","0.0"],
    [1511040,"2026-03-13 20:20:00","57537","2.76","203.7","4.247","208.6","1012.206","13.85","96.8","0.0","0.0"],
    [1511041,"2026-03-13 20:30:00","57538","3.035","216.0","5.194","215.4","1012.17","13.98","96.8","0.0","0.0"],
    [1511042,"2026-03-13 20:40:00","57539","2.968","210.8","5.455","218.9","1012.164","14.02","96.6","0.0","0.0"],
    [1511043,"2026-03-13 20:50:00","57540","3.341","201.2","5.096","193.9","1012.081","13.86","96.5","0.0","0.0"],
    [1511044,"2026-03-13 21:00:00","57541","2.862","198.5","4.475","210.5","1012.038","13.84","96.4","0.0","0.0"],
    [1511045,"2026-03-13 21:10:00","57542","3.279","201.7","5.422999999999999","196.0","1011.89","13.81","96.5","0.0","0.0"],
    [1511046,"2026-03-13 21:20:00","57543","3.531","201.6","6.207000000000001","206.2","1011.816","13.8","97.0","0.0","0.0"],
    [1511047,"2026-03-13 21:30:00","57544","2.4459999999999997","210.1","4.867","248.5","1011.721","13.75","97.5","0.0","0.0"],
    [1511048,"2026-03-13 21:40:00","57545","2.6210000000000004","211.4","4.508","211.0","1011.597","13.77","98.0","0.0","0.0"],
    [1511049,"2026-03-13 21:50:00","57546","3.687","216.2","6.37","204.6","1011.42","13.71","98.5","0.0","0.0"],
    [1511050,"2026-03-13 22:00:00","57547","3.589","215.7","7.644","211.1","1011.27","13.65","98.8","0.0","0.0"],
    [1511051,"2026-03-13 22:10:00","57548","3.2289999999999996","218.9","4.769","229.0","1011.152","13.63","99.0","0.0","0.0"],
    [1511052,"2026-03-13 22:20:00","57549","2.9539999999999997","231.9","5.357","213.9","1011.159","13.61","99.1","0.0","0.0"],
    [1511053,"2026-03-13 22:30:00","57550","3.648","222.3","6.9910000000000005","222.0","1011.071","13.64","98.9","0.0","0.0"],
    [1511054,"2026-03-13 22:40:00","57551","3.135","232.3","7.611000000000001","215.0","1010.987","13.71","98.1","0.0","0.0"],
    [1511055,"2026-03-13 22:50:00","57552","2.8939999999999997","233.9","5.1610000000000005","255.6","1010.884","13.74","96.9","0.0","0.0"],
    [1511056,"2026-03-13 23:00:00","57553","4.052","219.1","6.893","214.0","1010.488","13.78","95.6","0.0","0.0"],
    [1511057,"2026-03-13 23:10:00","57554","3.5839999999999996","231.8","6.795","220.6","1010.376","13.84","94.4","0.0","0.0"],
    [1511058,"2026-03-13 23:20:00","57555","2.401","242.3","4.737","225.8","1010.238","13.82","93.7","0.0","0.0"],
    [1511059,"2026-03-13 23:30:00","57556","2.3409999999999997","239.9","4.247","220.1","1009.972","13.8","93.1","0.0","0.0"],
    [1511060,"2026-03-13 23:40:00","57557","1.8119999999999998","235.4","3.5610000000000004","234.6","1009.753","13.77","92.6","0.0","0.0"],
    [1511061,"2026-03-13 23:50:00","57558","1.591","238.2","3.234","227.4","1009.522","13.76","92.4","0.0","0.0"],
    [1511062,"2026-03-14 00:00:00","57559","1.006","277.2","2.189","291.7","1009.303","13.73","92.3","0.0","0.0"],
    [1511063,"2026-03-14 00:10:00","57560","1.207","254.8","2.5810000000000004","256.8","1009.122","13.66","92.0","0.0","0.0"],
    [1511064,"2026-03-14 00:20:00","57561","0.574","255.9","1.47","240.1","1008.811","13.68","91.3","0.0","0.0"],
    [1511065,"2026-03-14 00:30:00","57562","0.501","208.5","1.143","176.0","1008.554","13.68","90.5","0.0","0.0"],
    [1511066,"2026-03-14 00:40:00","57563","1.214","156.6","2.45","177.4","1008.369","13.86","89.7","0.0","0.0"],
    [1511067,"2026-03-14 00:50:00","57564","2.923","190.6","3.6260000000000003","196.4","1008.242","13.89","89.0","0.0","0.0"],
    [1511068,"2026-03-14 01:00:00","57565","3.537","193.2","4.541","195.9","1007.932","13.94","89.8","0.0","0.0"],
    [1511069,"2026-03-14 01:10:00","57566","3.658","202.8","5.227","196.4","1007.719","13.88","91.3","0.0","0.0"],
    [1511070,"2026-03-14 01:20:00","57567","2.553","222.8","4.802","239.1","1007.582","13.8","92.7","0.0","0.0"],
    [1511071,"2026-03-14 01:30:00","57568","2.8789999999999996","221.3","4.965","225.7","1007.324","13.72","94.3","0.0","0.0"],
    [1511072,"2026-03-14 01:40:00","57569","1.756","234.8","4.018","225.2","1007.186","13.65","95.9","0.0","0.0"],
    [1511073,"2026-03-14 01:50:00","57570","1.831","243.7","3.495","226.0","1006.984","13.58","97.1","0.0","0.0"],
    [1511074,"2026-03-14 02:00:00","57571","1.8980000000000001","231.3","3.332","227.3","1006.699","13.53","98.2","0.0","0.0"],
    [1511075,"2026-03-14 02:10:00","57572","2.286","222.1","4.051","215.0","1006.391","13.55","99.2","0.0","0.0"],
    [1511076,"2026-03-14 02:20:00","57573","2.408","221.7","3.659","228.2","1006.2","13.55","99.9","0.0","0.0"],
    [1511077,"2026-03-14 02:30:00","57574","2.0540000000000003","230.2","3.201","232.7","1006.049","13.52","100.0","0.0","0.0"],
    [1511078,"2026-03-14 02:40:00","57575","2.384","232.9","3.6260000000000003","215.6","1005.971","13.47","100.0","0.0","0.0"],
    [1511079,"2026-03-14 02:50:00","57576","2.251","223.3","4.149","239.0","1005.722","13.44","100.0","0.0","0.0"],
    [1511080,"2026-03-14 03:00:00","57577","2.519","220.7","4.671","204.9","1005.454","13.42","100.0","0.0","0.0"],
    [1511081,"2026-03-14 03:10:00","57578","2.117","222.7","4.018","217.1","1005.342","13.41","100.0","0.0","0.0"],
    [1511082,"2026-03-14 03:20:00","57579","2.4659999999999997","232.0","4.933","203.4","1005.163","13.3","100.0","0.0","0.0"],
    [1511083,"2026-03-14 03:30:00","57580","1.902","245.1","3.1689999999999996","265.1","1005.065","13.2","100.0","0.0","0.0"],
    [1511084,"2026-03-14 03:40:00","57581","2.063","268.0","3.201","272.8","1004.992","12.73","100.0","0.0","0.0"],
    [1511085,"2026-03-14 03:50:00","57582","1.351","258.3","2.7439999999999998","256.0","1004.826","12.46","100.0","0.0","0.0"],
    [1511086,"2026-03-14 04:00:00","57583","1.555","244.4","2.483","253.8","1004.629","12.39","100.0","0.0","0.0"],
    [1511087,"2026-03-14 04:10:00","57584","1.695","261.7","2.8089999999999997","266.8","1004.524","12.34","99.9","0.0","0.0"],
    [1511088,"2026-03-14 04:20:00","57585","1.595","245.2","3.1689999999999996","233.4","1004.442","12.31","99.1","0.0","0.0"],
    [1511089,"2026-03-14 04:30:00","57586","2.0269999999999997","239.1","2.94","238.3","1004.41","12.66","96.9","0.0","0.0"],
    [1511090,"2026-03-14 04:40:00","57587","1.771","259.8","2.842","267.4","1004.343","12.77","94.6","0.0","0.0"],
    [1511091,"2026-03-14 04:50:00","57588","1.751","262.1","2.8089999999999997","232.9","1004.377","12.63","94.1","0.0","0.0"],
    [1511092,"2026-03-14 05:00:00","57589","1.528","263.6","2.94","263.7","1004.343","12.81","94.1","0.0","0.0"],
    [1511093,"2026-03-14 05:10:00","57590","1.4769999999999999","260.9","3.299","255.7","1004.241","12.8","94.2","0.0","0.0"],
    [1511094,"2026-03-14 05:20:00","57591","1.224","275.9","3.005","255.4","1004.214","13.01","94.3","0.0","0.0"],
    [1511095,"2026-03-14 05:30:00","57592","0.848","259.6","2.613","258.3","1004.197","12.92","94.3","0.0","0.0"],
    [1511096,"2026-03-14 05:40:00","57593","1.4809999999999999","275.4","2.8089999999999997","269.8","1004.144","12.88","94.3","0.0","0.0"],
    [1511097,"2026-03-14 05:50:00","57594","0.693","273.2","1.405","285.4","1004.09","12.84","94.1","0.0","0.0"],
    [1511098,"2026-03-14 06:00:00","57595","1.119","284.7","1.601","280.2","1004.349","12.85","93.9","0.0","0.0"],
    [1511099,"2026-03-14 06:10:00","57596","1.594","298.5","3.0380000000000003","320.2","1004.387","13.0","93.9","0.095","0.0"],
    [1511100,"2026-03-14 06:20:00","57597","1.749","299.4","2.8089999999999997","291.0","1004.28","12.93","93.9","0.94","0.0"],
    [1511101,"2026-03-14 06:30:00","57598","1.787","285.5","2.7439999999999998","290.5","1004.293","12.85","93.5","2.23","0.0"],
    [1511102,"2026-03-14 06:40:00","57599","1.446","247.7","2.7110000000000003","258.4","1004.473","12.83","92.6","3.097","0.0"],
    [1511103,"2026-03-14 06:50:00","57600","1.97","243.4","3.7569999999999997","289.9","1004.417","13.05","91.8","3.861","0.0"],
    [1511104,"2026-03-14 07:00:00","57601","1.768","292.3","3.593","305.3","1004.402","13.22","91.7","4.891","0.1"],
    [1511105,"2026-03-14 07:10:00","57602","0.613","272.5","1.5030000000000001","275.3","1004.373","13.33","92.3","8.71","0.2"],
    [1511106,"2026-03-14 07:20:00","57603","0.376","290.0","1.274","269.3","1004.421","13.27","93.0","12.67","0.1"],
    [1511107,"2026-03-14 07:30:00","57604","1.339","179.3","2.189","167.5","1004.607","13.26","93.9","12.78","0.2"],
    [1511108,"2026-03-14 07:40:00","57605","0.996","87.2","4.149","45.08","1004.564","13.3","95.3","13.66","0.5"],
    [1511109,"2026-03-14 07:50:00","57606","3.323","31.47","4.377","43.51","1004.581","12.78","95.7","15.15","0.5"],
    [1511110,"2026-03-14 08:00:00","57607","3.397","20.29","4.149","30.49","1004.558","12.69","96.5","19.37","0.6"],
    [1511111,"2026-03-14 08:10:00","57608","3.293","47.96","4.312","39.89","1004.417","12.88","98.2","27.79","0.3"],
    [1511112,"2026-03-14 08:20:00","57609","1.954","51.7","3.6260000000000003","61.57","1004.463","12.85","98.9","43.27","0.2"],
    [1511113,"2026-03-14 08:30:00","57610","1.84","79.53","3.071","101.7","1004.495","12.88","99.2","57.53","0.1"],
    [1511114,"2026-03-14 08:40:00","57611","1.865","46.86","3.92","24.72","1004.545","12.95","99.6","72.38","0.1"],
    [1511115,"2026-03-14 08:50:00","57612","1.7009999999999998","41.57","3.267","40.39","1004.546","12.82","100.0","85.6","0.1"],
    [1511116,"2026-03-14 09:00:00","57613","1.18","83.4","3.103","96.7","1004.505","12.78","100.0","55.47","0.1"],
    [1511117,"2026-03-14 09:10:00","57614","1.179","112.9","2.221","116.0","1004.428","12.8","100.0","87.6","0.1"],
    [1511118,"2026-03-14 09:20:00","57615","1.777","112.5","2.189","105.0","1004.271","12.74","100.0","90.0","0.0"],
    [1511119,"2026-03-14 09:30:00","57616","1.403","130.2","1.993","121.4","1004.216","12.76","100.0","84.1","0.1"],
    [1511120,"2026-03-14 09:40:00","57617","0.8220000000000001","150.0","1.5030000000000001","149.5","1004.207","12.86","100.0","95.8","0.1"],
    [1511121,"2026-03-14 09:50:00","57618","1.56","140.1","2.0909999999999997","143.9","1004.101","13.02","100.0","113.8","0.1"],
    [1511122,"2026-03-14 10:00:00","57619","1.557","150.8","2.156","165.9","1004.057","13.05","100.0","116.0","0.0"],
    [1511123,"2026-03-14 10:10:00","57620","2.388","144.8","3.103","147.6","1003.993","13.04","100.0","115.4","0.1"],
    [1511124,"2026-03-14 10:20:00","57621","2.343","145.5","3.299","154.0","1003.966","13.02","100.0","77.96","0.0"],
    [1511125,"2026-03-14 10:30:00","57622","2.685","150.6","3.43","141.0","1003.842","13.07","100.0","82.5","0.1"],
    [1511126,"2026-03-14 10:40:00","57623","3.989","151.4","6.566","139.5","1003.837","12.9","100.0","34.66","0.0"],
    [1511127,"2026-03-14 10:50:00","57624","5.172000000000001","291.9","12.22","4.048","1003.902","12.34","99.7","34.54","0.2"],
    [1511128,"2026-03-14 11:00:00","57625","7.733","5.7379999999999995","10.91","347.8","1004.531","10.89","99.7","26.87","1.5"],
    [1511129,"2026-03-14 11:10:00","57626","6.972","46.63","10.39","35.25","1004.409","10.38","100.0","39.2","1.2"],
    [1511130,"2026-03-14 11:20:00","57627","4.979","55.31","8.66","52.13","1004.699","9.72","100.0","47.03","0.5"],
    [1511131,"2026-03-14 11:30:00","57628","4.64","59.13","7.971","44.92","1004.537","10.11","100.0","84.7","0.2"],
    [1511132,"2026-03-14 11:40:00","57629","5.007","57.98","8.56","91.6","1004.408","10.29","100.0","73.53","0.0"],
    [1511133,"2026-03-14 11:50:00","57630","5.766","81.9","8.69","66.54","1004.323","10.17","100.0","85.8","0.0"],
    [1511134,"2026-03-14 12:00:00","57631","6.307","80.4","11.96","75.7","1004.274","10.09","100.0","70.58","0.1"],
    [1511135,"2026-03-14 12:10:00","57632","5.952999999999999","78.64","10.98","85.7","1004.201","9.96","100.0","96.4","0.2"],
    [1511136,"2026-03-14 12:20:00","57633","4.436","63.19","8.72","76.74","1004.409","9.86","100.0","83.5","0.2"],
    [1511137,"2026-03-14 12:30:00","57634","5.653","80.4","9.7","84.5","1004.342","9.79","100.0","98.9","0.0"],
    [1511138,"2026-03-14 12:40:00","57635","5.778","83.7","9.87","87.2","1004.266","9.75","100.0","123.4","0.0"],
    [1511139,"2026-03-14 12:50:00","57636","5.343999999999999","81.9","8.26","82.8","1004.198","9.81","100.0","113.1","0.0"],
    [1511140,"2026-03-14 13:00:00","57637","4.607","77.67","8.95","93.9","1004.196","9.91","99.5","110.8","0.0"],
    [1511141,"2026-03-14 13:10:00","57638","4.481","78.42","9.44","87.4","1004.158","9.97","98.6","103.0","0.0"],
    [1511142,"2026-03-14 13:20:00","57639","5.159","83.3","8.89","96.6","1004.011","10.01","97.5","78.1","0.0"],
    [1511143,"2026-03-14 13:30:00","57640","5.518","92.6","8.82","101.7","1003.752","9.99","95.5","102.6","0.0"],
    [1511144,"2026-03-14 13:40:00","57641","5.615","101.5","7.709","101.5","1003.504","10.07","93.7","160.6","0.0"],
    [1511145,"2026-03-14 13:50:00","57642","5.322","100.1","7.513","105.4","1003.505","10.0","92.0","208.8","0.0"],
    [1511146,"2026-03-14 14:00:00","57643","4.658","94.5","6.468","98.8","1003.632","10.06","90.7","105.9","0.0"],
    [1511147,"2026-03-14 14:10:00","57644","4.738","98.6","6.9910000000000005","94.9","1003.772","10.03","88.9","54.09","0.0"],
    [1511148,"2026-03-14 14:20:00","57645","4.195","74.45","6.697","76.44","1003.94","10.03","88.6","19.2","0.0"],
    [1511149,"2026-03-14 14:30:00","57646","4.979","43.51","8.95","56.17","1004.237","10.03","88.8","9.86","0.8"],
    [1511150,"2026-03-14 14:40:00","57647","3.147","100.7","6.631","102.6","1004.474","9.74","90.3","13.43","1.4"],
    [1511151,"2026-03-14 14:50:00","57648","5.979","157.6","8.53","145.2","1003.851","9.45","96.6","22.24","0.6"],
    [1511152,"2026-03-14 15:00:00","57649","4.234","115.9","6.566","126.4","1003.754","9.52","99.9","58.01","0.3"],
    [1511153,"2026-03-14 15:10:00","57650","5.154","98.5","7.4479999999999995","107.4","1003.638","9.55","99.9","147.2","0.0"],
    [1511154,"2026-03-14 15:20:00","57651","4.632","99.7","7.252000000000001","112.6","1003.688","9.82","98.3","319.3","0.1"],
    [1511155,"2026-03-14 15:30:00","57652","5.226","91.0","7.775","97.3","1003.816","9.87","94.8","218.2","0.0"],
    [1511156,"2026-03-14 15:40:00","57653","4.936","94.9","7.546","95.4","1003.742","10.08","90.6","181.6","0.0"],
    [1511157,"2026-03-14 15:50:00","57654","5.428999999999999","89.9","7.218999999999999","89.4","1003.825","10.18","87.0","87.6","0.0"],
    [1511158,"2026-03-14 16:00:00","57655","5.112","80.4","8.4","82.0","1003.695","10.0","83.6","44.12","0.0"],
    [1511159,"2026-03-14 16:10:00","57656","4.855","75.17","8.53","112.5","1003.764","10.01","82.6","27.89","0.0"],
    [1511160,"2026-03-14 16:20:00","57657","4.711","44.3","8.13","65.71","1003.846","9.91","83.4","29.15","0.1"],
    [1511161,"2026-03-14 16:30:00","57658","3.991","47.91","7.481","82.6","1003.984","9.81","83.2","18.93","0.0"],
    [1511162,"2026-03-14 16:40:00","57659","5.2379999999999995","40.41","8.26","47.52","1004.268","9.85","83.2","14.42","0.0"],
    [1511163,"2026-03-14 16:50:00","57660","5.922999999999999","44.71","7.644","50.83","1004.476","9.52","87.0","8.77","0.1"],
    [1511164,"2026-03-14 17:00:00","57661","6.135","44.1","7.4479999999999995","43.58","1004.68","9.25","89.4","6.575","0.2"],
    [1511165,"2026-03-14 17:10:00","57662","5.697","44.92","6.86","38.17","1004.72","9.19","89.5","6.88","0.2"],
    [1511166,"2026-03-14 17:20:00","57663","5.385","57.17","7.481","67.73","1004.33","9.25","89.6","7.045","0.1"],
    [1511167,"2026-03-14 17:30:00","57664","6.505","46.15","8.82","31.78","1004.255","9.5","90.8","4.031000000000001","0.0"],
    [1511168,"2026-03-14 17:40:00","57665","5.082","27.82","8.04","19.54","1004.813","9.64","92.9","0.9109999999999999","1.3"],
    [1511169,"2026-03-14 17:50:00","57666","3.923","47.19","5.292000000000001","58.34","1004.696","9.17","94.4","0.526","0.5"],
    [1511170,"2026-03-14 18:00:00","57667","2.964","107.8","4.965","93.5","1004.447","8.95","94.4","1.0","0.3"],
    [1511171,"2026-03-14 18:10:00","57668","1.931","243.2","3.103","263.8","1004.831","8.96","92.4","0.872","0.1"],
    [1511172,"2026-03-14 18:20:00","57669","0.9390000000000001","274.2","2.352","259.3","1004.891","9.08","91.6","0.002","0.1"],
    [1511173,"2026-03-14 18:30:00","57670","1.785","108.2","2.94","96.9","1004.801","9.25","91.7","0.2","0.1"],
    [1511174,"2026-03-14 18:40:00","57671","2.7710000000000004","207.2","3.822","191.6","1004.695","9.18","91.0","0.8029999999999999","0.0"],
    [1511175,"2026-03-14 18:50:00","57672","2.031","234.8","3.005","226.0","1004.683","9.08","90.6","1.222","0.0"],
    [1511176,"2026-03-14 19:00:00","57673","2.8710000000000004","273.3","5.422999999999999","292.2","1004.868","9.15","90.9","0.188","0.1"],
    [1511177,"2026-03-14 19:10:00","57674","4.224","277.9","6.37","276.7","1005.066","8.94","93.1","0.046","2.6"],
    [1511178,"2026-03-14 19:20:00","57675","4.027","217.6","6.468","227.7","1004.497","8.6","93.8","0.25","0.6"],
    [1511179,"2026-03-14 19:30:00","57676","3.984","233.7","5.39","256.3","1004.351","8.88","92.7","0.057","0.0"],
    [1511180,"2026-03-14 19:40:00","57677","2.562","250.6","4.802","221.6","1004.644","8.73","93.4","0.0","0.0"],
    [1511181,"2026-03-14 19:50:00","57678","3.395","288.1","5.88","279.0","1004.825","8.59","94.2","0.0","0.0"],
    [1511182,"2026-03-14 20:00:00","57679","2.72","277.5","4.2139999999999995","287.0","1004.992","8.56","94.5","0.0","0.0"],
    [1511183,"2026-03-14 20:10:00","57680","1.486","272.7","2.875","275.9","1005.15","8.57","94.8","0.0","0.0"],
    [1511184,"2026-03-14 20:20:00","57681","0.581","267.6","1.5030000000000001","257.4","1005.415","8.52","94.9","0.0","0.0"],
    [1511185,"2026-03-14 20:30:00","57682","0.8759999999999999","281.3","1.568","305.5","1005.512","8.53","94.7","0.0","0.0"],
    [1511186,"2026-03-14 20:40:00","57683","1.555","294.0","2.7110000000000003","279.0","1005.541","8.61","94.2","0.0","0.0"],
    [1511187,"2026-03-14 20:50:00","57684","2.294","275.2","3.136","280.3","1005.582","8.56","93.4","0.025","0.0"],
    [1511188,"2026-03-14 21:00:00","57685","2.168","268.3","4.051","293.5","1005.654","8.52","92.8","0.0","0.0"],
    [1511189,"2026-03-14 21:10:00","57686","2.3409999999999997","268.7","3.267","272.2","1005.69","8.52","92.5","0.0","0.0"],
    [1511190,"2026-03-14 21:20:00","57687","2.798","279.7","4.671","280.8","1005.764","8.63","92.4","0.467","0.0"],
    [1511191,"2026-03-14 21:30:00","57688","3.2430000000000003","285.9","4.377","283.2","1005.815","8.97","89.5","1.6669999999999998","0.0"],
    [1511192,"2026-03-14 21:40:00","57689","3.2760000000000002","282.4","4.835","283.2","1005.861","9.18","85.7","1.828","0.0"],
    [1511193,"2026-03-14 21:50:00","57690","3.272","281.5","4.965","281.9","1005.916","9.27","83.5","1.5490000000000002","0.0"],
    [1511194,"2026-03-14 22:00:00","57691","3.8939999999999997","286.2","5.619","284.8","1005.935","9.53","82.4","1.9469999999999998","0.0"],
    [1511195,"2026-03-14 22:10:00","57692","3.792","281.2","5.7170000000000005","284.2","1005.983","9.51","82.6","1.1540000000000001","0.0"],
    [1511196,"2026-03-14 22:20:00","57693","3.2230000000000003","282.0","6.239","273.5","1005.998","9.41","83.8","0.7170000000000001","0.0"],
    [1511197,"2026-03-14 22:30:00","57694","3.61","295.3","5.2589999999999995","298.8","1006.11","9.41","84.5","0.8109999999999999","0.0"],
    [1511198,"2026-03-14 22:40:00","57695","3.9789999999999996","289.6","5.88","287.4","1005.94","9.42","84.3","0.92","0.0"],
    [1511199,"2026-03-14 22:50:00","57696","4.248","285.3","5.912999999999999","284.8","1005.807","9.33","84.2","0.9179999999999999","0.0"],
    [1511200,"2026-03-14 23:00:00","57697","3.656","286.8","5.619","301.9","1005.837","9.29","84.7","0.428","0.0"],
    [1511201,"2026-03-14 23:10:00","57698","4.077","292.4","5.7170000000000005","299.3","1005.864","9.25","85.1","0.46","0.0"],
    [1511202,"2026-03-14 23:20:00","57699","4.135","301.0","5.7170000000000005","296.5","1005.984","9.32","85.4","0.365","0.0"],
    [1511203,"2026-03-14 23:30:00","57700","3.5789999999999997","305.0","5.815","296.2","1006.004","9.49","85.1","0.179","0.0"],
    [1511204,"2026-03-14 23:40:00","57701","3.321","301.0","4.704","299.1","1006.02","9.42","84.8","0.027999999999999997","0.0"],
    [1511205,"2026-03-14 23:50:00","57702","3.7289999999999996","301.2","6.042999999999999","313.3","1006.02","9.31","83.2","0.091","0.0"],
    [1511206,"2026-03-15 00:00:00","57703","5.012","314.3","7.023","329.6","1006.002","9.4","79.14","0.0","0.0"],
    [1511207,"2026-03-15 00:10:00","57704","7.153","323.8","9.83","322.5","1006.027","9.66","68.84","0.20199999999999999","0.1"],
    [1511208,"2026-03-15 00:20:00","57705","6.803999999999999","325.7","9.11","324.1","1005.943","9.85","59.13","0.231","0.0"],
    [1511209,"2026-03-15 00:30:00","57706","6.475","329.2","8.2","324.1","1005.966","9.86","54.86","0.222","0.0"],
    [1511210,"2026-03-15 00:40:00","57707","5.949","324.5","7.938","323.5","1006.036","9.85","51.53","0.038","0.0"],
    [1511211,"2026-03-15 00:50:00","57708","4.62","315.3","6.141","311.4","1006.188","9.82","50.77","0.0","0.0"],
    [1511212,"2026-03-15 01:00:00","57709","5.385","322.7","7.187","320.6","1006.206","9.88","48.77","0.006999999999999999","0.0"],
    [1511213,"2026-03-15 01:10:00","57710","5.103","322.7","7.252000000000001","321.8","1006.239","9.71","49.65","0.011000000000000001","0.0"],
    [1511214,"2026-03-15 01:20:00","57711","3.71","313.5","6.011","303.6","1006.293","9.83","48.32","0.0","0.0"],
    [1511215,"2026-03-15 01:30:00","57712","3.094","280.0","5.7170000000000005","295.9","1006.226","9.65","47.44","0.0","0.0"],
    [1511216,"2026-03-15 01:40:00","57713","3.611","281.3","5.521","298.5","1006.198","9.4","46.77","0.0","0.0"],
    [1511217,"2026-03-15 01:50:00","57714","3.182","310.5","4.638999999999999","319.8","1006.232","9.46","47.62","0.0","0.0"],
    [1511218,"2026-03-15 02:00:00","57715","3.617","305.1","5.88","275.1","1006.096","9.38","46.91","0.0","0.0"],
    [1511219,"2026-03-15 02:10:00","57716","4.703","307.7","6.141","310.9","1006.109","9.37","45.92","0.0","0.0"],
    [1511220,"2026-03-15 02:20:00","57717","5.247999999999999","311.3","7.154","324.3","1006.079","9.17","47.99","0.0","0.0"],
    [1511221,"2026-03-15 02:30:00","57718","4.737","308.8","6.141","316.4","1005.952","8.99","49.99","0.0","0.0"],
    [1511222,"2026-03-15 02:40:00","57719","4.873","312.8","6.893","317.9","1005.861","9.56","47.67","0.0","0.0"],
    [1511223,"2026-03-15 02:50:00","57720","4.709","314.3","7.218999999999999","322.7","1005.782","9.98","45.14","0.0","0.0"],
    [1511224,"2026-03-15 03:00:00","57721","5.2139999999999995","329.2","8.56","315.8","1005.834","10.37","40.01","0.0","0.0"],
    [1511225,"2026-03-15 03:10:00","57722","4.336","1.704","5.945","20.76","1006.1","10.11","41.6","0.0","0.0"],
    [1511226,"2026-03-15 03:20:00","57723","3.238","8.19","4.671","16.13","1006.073","9.19","50.91","0.0","0.0"],
    [1511227,"2026-03-15 03:30:00","57724","2.174","327.0","3.9530000000000003","336.1","1005.999","8.71","53.89","0.0","0.0"],
    [1511228,"2026-03-15 03:40:00","57725","2.622","321.7","3.6910000000000003","329.4","1005.997","8.58","56.01","0.0","0.0"],
    [1511229,"2026-03-15 03:50:00","57726","3.633","301.2","5.227","305.0","1005.933","8.58","54.69","0.0","0.0"],
    [1511230,"2026-03-15 04:00:00","57727","2.456","307.6","3.887","319.4","1005.982","8.51","54.92","0.0","0.0"],
    [1511231,"2026-03-15 04:10:00","57728","2.6239999999999997","304.8","4.2139999999999995","330.2","1006.065","8.3","56.22","0.0","0.0"],
    [1511232,"2026-03-15 04:20:00","57729","2.408","318.6","3.201","326.1","1006.091","8.4","58.16","0.0","0.0"],
    [1511233,"2026-03-15 04:30:00","57730","2.082","305.1","2.907","313.8","1006.225","8.05","60.44","0.0","0.0"],
    [1511234,"2026-03-15 04:40:00","57731","1.646","304.7","2.319","307.8","1006.356","7.837999999999999","59.84","0.0","0.0"],
    [1511235,"2026-03-15 04:50:00","57732","2.161","294.4","3.43","300.1","1006.323","7.882000000000001","58.13","0.0","0.0"],
    [1511236,"2026-03-15 05:00:00","57733","3.4010000000000002","289.3","5.39","300.6","1006.154","8.27","52.65","0.0","0.0"],
    [1511237,"2026-03-15 05:10:00","57734","3.648","282.2","5.1610000000000005","287.4","1006.176","8.1","53.75","0.0","0.0"],
    [1511238,"2026-03-15 05:20:00","57735","4.569","290.3","7.546","287.0","1006.151","8.16","52.94","0.0","0.0"],
    [1511239,"2026-03-15 05:30:00","57736","4.711","297.9","7.317","290.3","1006.233","8.45","49.29","0.0","0.0"],
    [1511240,"2026-03-15 05:40:00","57737","4.873","298.9","7.121","290.6","1006.233","8.43","48.93","0.0","0.0"],
    [1511241,"2026-03-15 05:50:00","57738","5.829","294.0","8.69","290.0","1006.136","8.56","47.14","0.0","0.0"],
    [1511242,"2026-03-15 06:00:00","57739","6.117000000000001","294.6","9.21","305.9","1006.074","8.44","47.03","0.04","0.0"],
    [1511243,"2026-03-15 06:10:00","57740","6.185","294.5","11.11","285.4","1006.048","8.23","48.89","2.344","0.0"],
    [1511244,"2026-03-15 06:20:00","57741","6.306","293.7","9.77","293.6","1006.06","8.09","50.09","8.54","0.0"],
    [1511245,"2026-03-15 06:30:00","57742","6.306","291.2","9.9","287.6","1006.088","8.01","50.67","29.17","0.0"],
    [1511246,"2026-03-15 06:40:00","57743","5.466","290.1","7.4479999999999995","302.7","1006.215","7.981","51.35","50.88","0.0"],
    [1511247,"2026-03-15 06:50:00","57744","6.255","288.4","10.0","281.2","1006.158","8.05","50.86","91.3","0.0"],
    [1511248,"2026-03-15 07:00:00","57745","5.084","288.6","8.04","308.9","1006.345","8.13","51.15","124.0","0.0"],
    [1511249,"2026-03-15 07:10:00","57746","5.617999999999999","288.0","7.35","278.7","1006.326","8.16","50.92","156.9","0.0"],
    [1511250,"2026-03-15 07:20:00","57747","5.752999999999999","291.9","8.43","280.8","1006.271","8.3","50.5","190.4","0.0"],
    [1511251,"2026-03-15 07:30:00","57748","6.206","295.3","8.79","286.5","1006.116","8.45","49.64","224.4","0.0"],
    [1511252,"2026-03-15 07:40:00","57749","5.695","294.1","7.938","293.9","1006.023","8.68","48.94","258.2","0.0"],
    [1511253,"2026-03-15 07:50:00","57750","4.895","290.5","8.1","287.3","1006.143","8.92","48.0","292.3","0.0"],
    [1511254,"2026-03-15 08:00:00","57751","4.752","291.7","8.07","295.1","1006.22","9.19","47.03","326.5","0.0"],
    [1511255,"2026-03-15 08:10:00","57752","4.8919999999999995","290.6","7.121","296.1","1006.203","9.46","46.28","361.8","0.0"],
    [1511256,"2026-03-15 08:20:00","57753","5.354","295.1","7.84","292.1","1005.934","9.83","44.76","396.4","0.0"],
    [1511257,"2026-03-15 08:30:00","57754","5.024","295.3","7.218999999999999","302.3","1005.864","10.22","43.97","428.4","0.0"],
    [1511258,"2026-03-15 08:40:00","57755","4.453","294.7","7.84","297.7","1005.918","10.61","42.34","459.3","0.0"],
    [1511259,"2026-03-15 08:50:00","57756","5.029","287.7","7.4479999999999995","279.3","1005.959","11.02","39.99","490.1","0.0"],
    [1511260,"2026-03-15 09:00:00","57757","6.489","290.7","10.36","290.0","1005.794","11.39","37.91","523.5","0.0"],
    [1511261,"2026-03-15 09:10:00","57758","5.756","289.7","9.05","286.4","1005.827","11.8","36.58","554.4","0.0"],
    [1511262,"2026-03-15 09:20:00","57759","6.659","285.6","9.64","276.8","1005.799","12.13","34.79","567.0","0.0"],
    [1511263,"2026-03-15 09:30:00","57760","6.374","287.3","9.57","280.5","1005.727","12.43","33.2","610.4","0.0"],
    [1511264,"2026-03-15 09:40:00","57761","5.579","290.4","9.24","286.8","1005.832","12.73","32.11","599.5","0.0"],
    [1511265,"2026-03-15 09:50:00","57762","6.5","288.0","11.04","287.9","1005.778","12.9","31.34","657.4","0.0"],
    [1511266,"2026-03-15 10:00:00","57763","6.642","289.3","9.28","295.4","1005.862","13.06","30.29","680.0","0.0"],
    [1511267,"2026-03-15 10:10:00","57764","5.971","297.4","10.13","278.8","1005.962","13.71","29.39","699.9","0.0"],
    [1511268,"2026-03-15 10:20:00","57765","4.757","295.1","7.187","311.7","1005.954","14.68","27.88","716.4","0.0"],
    [1511269,"2026-03-15 10:30:00","57766","4.529","283.8","7.579","308.7","1006.111","15.36","26.81","730.4","0.0"],
    [1511270,"2026-03-15 10:40:00","57767","4.622","285.2","8.1","276.0","1006.084","15.14","25.93","745.1","0.0"],
    [1511271,"2026-03-15 10:50:00","57768","3.969","290.3","7.35","269.9","1006.086","14.88","24.72","756.9","0.0"],
    [1511272,"2026-03-15 11:00:00","57769","3.555","285.0","7.6770000000000005","294.8","1006.218","14.96","22.74","765.2","0.0"],
    [1511273,"2026-03-15 11:10:00","57770","3.247","281.5","6.337000000000001","284.8","1006.346","15.38","20.92","773.4","0.0"],
    [1511274,"2026-03-15 11:20:00","57771","1.8430000000000002","303.2","3.6260000000000003","289.0","1006.309","15.71","19.91","777.8","0.0"],
    [1511275,"2026-03-15 11:30:00","57772","1.955","270.1","5.815","288.3","1006.309","15.94","20.32","788.5","0.0"],
    [1511276,"2026-03-15 11:40:00","57773","3.719","279.9","7.121","288.1","1006.244","16.1","19.06","787.1","0.0"],
    [1511277,"2026-03-15 11:50:00","57774","4.419","327.3","6.893","340.1","1006.228","16.19","18.54","801.0","0.0"],
    [1511278,"2026-03-15 12:00:00","57775","5.175","322.6","8.79","336.9","1006.247","16.41","14.24","799.4","0.0"],
    [1511279,"2026-03-15 12:10:00","57776","5.169","321.5","7.709","305.4","1006.306","16.58","13.65","819.0","0.0"],
    [1511280,"2026-03-15 12:20:00","57777","2.957","304.0","5.619","8.28","1006.427","16.78","13.21","808.0","0.0"],
    [1511281,"2026-03-15 12:30:00","57778","4.2219999999999995","325.9","7.644","334.8","1006.424","16.91","14.35","804.0","0.0"],
    [1511282,"2026-03-15 12:40:00","57779","1.6969999999999998","24.14","4.149","316.5","1006.524","17.07","14.95","795.0","0.0"],
    [1511283,"2026-03-15 12:50:00","57780","1.032","83.4","3.267","310.6","1006.668","17.26","14.48","789.8","0.0"],
    [1511284,"2026-03-15 13:00:00","57781","2.7939999999999996","118.0","4.279","142.2","1006.74","16.57","18.29","799.4","0.0"],
    [1511285,"2026-03-15 13:10:00","57782","5.157","131.8","6.5329999999999995","133.1","1006.78","15.85","28.33","797.7","0.0"],
    [1511286,"2026-03-15 13:20:00","57783","5.6","130.9","6.893","130.6","1006.883","15.61","31.78","777.0","0.0"],
    [1511287,"2026-03-15 13:30:00","57784","5.604","141.3","7.056","136.0","1006.984","15.36","36.83","757.4","0.0"],
    [1511288,"2026-03-15 13:40:00","57785","5.406000000000001","145.0","7.187","140.4","1006.928","15.24","35.7","757.0","0.0"],
    [1511289,"2026-03-15 13:50:00","57786","5.519","144.4","6.827000000000001","148.5","1007.034","15.27","34.64","653.1","0.0"],
    [1511290,"2026-03-15 14:00:00","57787","6.257999999999999","152.1","7.546","150.6","1007.088","15.16","36.12","454.3","0.0"],
    [1511291,"2026-03-15 14:10:00","57788","5.92","155.8","7.121","153.3","1007.179","15.22","34.16","599.3","0.0"],
    [1511292,"2026-03-15 14:20:00","57789","5.947","157.0","7.415","154.3","1007.163","15.21","37.63","555.0","0.0"],
    [1511293,"2026-03-15 14:30:00","57790","6.542999999999999","163.0","7.481","164.8","1007.284","15.12","37.48","295.1","0.0"],
    [1511294,"2026-03-15 14:40:00","57791","5.872000000000001","165.6","6.957999999999999","165.4","1007.509","15.05","41.67","322.9","0.0"],
    [1511295,"2026-03-15 14:50:00","57792","6.249","158.7","7.317","157.1","1007.489","15.15","38.51","511.9","0.0"],
    [1511296,"2026-03-15 15:00:00","57793","6.351","162.0","7.807","163.1","1007.623","15.14","39.75","425.1","0.0"],
    [1511297,"2026-03-15 15:10:00","57794","5.996","169.4","7.317","165.3","1007.795","15.19","44.19","529.3","0.0"],
    [1511298,"2026-03-15 15:20:00","57795","6.234","167.9","7.415","168.1","1007.909","15.08","47.02","341.0","0.0"],
    [1511299,"2026-03-15 15:30:00","57796","6.1979999999999995","165.5","7.513","162.8","1008.064","14.98","49.56","220.9","0.0"],
    [1511300,"2026-03-15 15:40:00","57797","6.216","164.4","7.644","163.1","1008.297","14.94","49.64","170.8","0.0"],
    [1511301,"2026-03-15 15:50:00","57798","6.147","164.6","7.252000000000001","162.5","1008.521","15.0","45.6","160.3","0.0"],
    [1511302,"2026-03-15 16:00:00","57799","6.109","163.3","7.154","160.7","1008.702","15.09","43.89","157.4","0.0"],
    [1511303,"2026-03-15 16:10:00","57800","5.775","157.5","6.9910000000000005","148.6","1008.865","15.05","44.32","155.4","0.0"],
    [1511304,"2026-03-15 16:20:00","57801","5.643","155.6","6.7620000000000005","155.9","1009.045","15.11","45.12","150.2","0.0"],
    [1511305,"2026-03-15 16:30:00","57802","5.532","154.1","7.0889999999999995","148.5","1009.218","15.06","46.09","163.6","0.0"],
    [1511306,"2026-03-15 16:40:00","57803","5.84","152.4","7.218999999999999","149.5","1009.36","15.21","43.23","202.3","0.0"],
    [1511307,"2026-03-15 16:50:00","57804","5.006","157.4","6.631","157.0","1009.616","15.15","48.04","201.7","0.0"],
    [1511308,"2026-03-15 17:00:00","57805","4.734","152.6","5.782","153.9","1009.906","15.16","47.82","214.3","0.0"],
    [1511309,"2026-03-15 17:10:00","57806","4.007","145.7","5.422999999999999","159.1","1010.099","15.19","46.47","73.37","0.0"],
    [1511310,"2026-03-15 17:20:00","57807","3.798","146.8","5.063","150.8","1010.291","15.23","45.55","71.56","0.0"],
    [1511311,"2026-03-15 17:30:00","57808","2.7880000000000003","166.5","4.769","174.3","1010.585","15.3","44.86","47.15","0.0"],
    [1511312,"2026-03-15 17:40:00","57809","2.437","167.5","3.985","174.1","1010.827","15.36","44.62","45.92","0.0"],
    [1511313,"2026-03-15 17:50:00","57810","1.8159999999999998","179.1","3.005","176.4","1011.103","15.35","45.43","22.37","0.0"],
    [1511314,"2026-03-15 18:00:00","57811","1.8719999999999999","171.6","2.6460000000000004","160.4","1011.239","15.16","48.98","4.787","0.0"],
    [1511315,"2026-03-15 18:10:00","57812","1.244","210.0","1.829","221.3","1011.46","15.02","51.92","0.708","0.0"],
    [1511316,"2026-03-15 18:20:00","57813","1.2329999999999999","233.0","2.123","225.6","1011.72","14.99","49.83","0.0","0.0"],
    [1511317,"2026-03-15 18:30:00","57814","1.264","199.5","2.287","209.1","1011.924","15.18","47.31","0.0","0.0"],
    [1511318,"2026-03-15 18:40:00","57815","1.225","240.7","1.993","223.1","1012.181","15.19","44.98","0.0","0.0"],
    [1511319,"2026-03-15 18:50:00","57816","1.732","262.4","2.417","262.0","1012.457","15.41","39.17","0.0","0.0"],
    [1511320,"2026-03-15 19:00:00","57817","1.297","268.0","2.417","285.5","1012.644","15.31","40.33","0.0","0.0"],
    [1511321,"2026-03-15 19:10:00","57818","0.971","251.3","1.764","232.2","1012.799","15.15","41.78","0.0","0.0"],
    [1511322,"2026-03-15 19:20:00","57819","0.5539999999999999","260.2","1.7309999999999999","270.6","1012.947","15.17","41.68","0.0","0.0"],
    [1511323,"2026-03-15 19:30:00","57820","1.536","262.3","3.495","265.8","1013.141","15.05","42.77","0.0","0.0"],
    [1511324,"2026-03-15 19:40:00","57821","2.093","289.2","3.0380000000000003","297.1","1013.278","14.97","44.41","0.0","0.0"],
    [1511325,"2026-03-15 19:50:00","57822","2.411","275.1","3.7239999999999998","280.6","1013.481","14.91","42.98","0.0","0.0"],
    [1511326,"2026-03-15 20:00:00","57823","1.889","277.3","3.103","278.4","1013.683","14.9","42.45","0.0","0.0"],
    [1511327,"2026-03-15 20:10:00","57824","1.712","269.8","2.548","243.4","1013.889","14.86","41.52","0.0","0.0"],
    [1511328,"2026-03-15 20:20:00","57825","1.768","271.5","3.005","285.5","1014.091","14.83","40.54","0.0","0.0"],
    [1511329,"2026-03-15 20:30:00","57826","1.865","269.8","2.7439999999999998","270.7","1014.225","14.81","39.51","0.0","0.0"],
    [1511330,"2026-03-15 20:40:00","57827","1.3159999999999998","265.3","2.7110000000000003","262.8","1014.428","14.68","39.6","0.0","0.0"],
    [1511331,"2026-03-15 20:50:00","57828","1.337","262.2","2.156","289.7","1014.589","14.73","37.79","0.0","0.0"],
    [1511332,"2026-03-15 21:00:00","57829","1.0959999999999999","260.0","2.7110000000000003","262.5","1014.71","14.72","37.39","0.0","0.0"],
    [1511333,"2026-03-15 21:10:00","57830","1.073","252.1","1.993","274.5","1014.815","14.72","36.76","0.0","0.0"],
    [1511334,"2026-03-15 21:20:00","57831","1.281","229.5","2.6460000000000004","241.2","1014.921","14.82","35.35","0.0","0.0"],
    [1511335,"2026-03-15 21:30:00","57832","1.12","251.7","2.385","261.5","1015.156","14.68","35.09","0.0","0.0"],
    [1511336,"2026-03-15 21:40:00","57833","1.57","263.7","2.613","275.3","1015.334","14.38","36.39","0.0","0.0"],
    [1511337,"2026-03-15 21:50:00","57834","1.883","270.6","3.6260000000000003","280.6","1015.432","14.1","38.26","0.0","0.0"],
    [1511338,"2026-03-15 22:00:00","57835","2.9789999999999996","278.8","4.1160000000000005","289.1","1015.529","14.01","38.43","0.0","0.0"],
    [1511339,"2026-03-15 22:10:00","57836","2.895","287.2","4.541","283.6","1015.679","14.07","38.09","0.0","0.0"],
    [1511340,"2026-03-15 22:20:00","57837","2.5660000000000003","281.1","3.887","280.3","1015.739","14.08","37.26","0.0","0.0"],
    [1511341,"2026-03-15 22:30:00","57838","2.276","274.9","3.463","284.0","1015.695","14.17","32.8","0.0","0.0"],
    [1511342,"2026-03-15 22:40:00","57839","2.4290000000000003","280.0","3.463","283.6","1015.799","14.06","29.1","0.0","0.0"],
    [1511343,"2026-03-15 22:50:00","57840","1.8869999999999998","257.5","3.267","275.3","1015.88","13.61","29.96","0.0","0.0"],
    [1511344,"2026-03-15 23:00:00","57841","1.8019999999999998","253.6","3.201","253.2","1015.887","13.4","31.56","0.0","0.0"],
    [1511345,"2026-03-15 23:10:00","57842","2.576","270.9","4.083","276.9","1015.879","13.21","29.1","0.0","0.0"],
    [1511346,"2026-03-15 23:20:00","57843","2.464","272.8","3.136","277.7","1016.044","13.05","27.34","0.0","0.0"],
    [1511347,"2026-03-15 23:30:00","57844","1.7380000000000002","285.0","2.483","288.0","1016.054","13.18","27.34","0.0","0.0"],
    [1511348,"2026-03-15 23:40:00","57845","1.456","249.6","2.319","282.7","1016.074","12.86","27.81","0.0","0.0"],
    [1511349,"2026-03-15 23:50:00","57846","1.6369999999999998","248.4","2.548","265.1","1016.02","12.8","25.38","0.0","0.0"],
    [1511350,"2026-03-16 00:00:00","57847","2.131","276.2","2.9730000000000003","279.1","1016.062","12.49","25.61","0.0","0.0"],
    [1511351,"2026-03-16 00:10:00","57848","2.3609999999999998","264.2","3.365","270.6","1016.154","12.12","28.91","0.0","0.0"],
    [1511352,"2026-03-16 00:20:00","57849","2.238","265.5","3.103","266.6","1016.301","11.46","34.76","0.0","0.0"],
    [1511353,"2026-03-16 00:30:00","57850","1.805","288.4","3.103","303.0","1016.4","11.6","33.27","0.0","0.0"],
    [1511354,"2026-03-16 00:40:00","57851","2.184","301.2","3.397","302.0","1016.494","12.5","26.23","0.0","0.0"],
    [1511355,"2026-03-16 00:50:00","57852","2.6830000000000003","315.5","3.7889999999999997","316.2","1016.642","12.5","26.87","0.0","0.0"],
    [1511356,"2026-03-16 01:00:00","57853","2.71","315.7","3.887","324.1","1016.752","12.41","27.25","0.0","0.0"],
    [1511357,"2026-03-16 01:10:00","57854","2.9989999999999997","308.7","4.181","296.4","1016.82","12.43","26.44","0.0","0.0"],
    [1511358,"2026-03-16 01:20:00","57855","2.687","298.2","4.181","299.5","1016.966","12.37","23.39","0.0","0.0"],
    [1511359,"2026-03-16 01:30:00","57856","2.2119999999999997","298.1","3.463","301.9","1017.117","11.86","25.17","0.0","0.0"],
    [1511360,"2026-03-16 01:40:00","57857","2.18","296.2","2.9730000000000003","298.7","1017.136","11.83","25.46","0.0","0.0"],
    [1511361,"2026-03-16 01:50:00","57858","1.093","269.7","2.352","279.9","1016.982","11.53","24.4","0.0","0.0"],
    [1511362,"2026-03-16 02:00:00","57859","1.693","269.8","2.7439999999999998","294.1","1016.929","11.27","24.11","0.0","0.0"],
    [1511363,"2026-03-16 02:10:00","57860","1.7480000000000002","296.0","2.417","298.6","1017.056","11.34","25.24","0.0","0.0"],
    [1511364,"2026-03-16 02:20:00","57861","1.996","287.4","3.136","289.5","1017.102","11.21","25.48","0.0","0.0"],
    [1511365,"2026-03-16 02:30:00","57862","2.552","277.7","3.528","267.5","1017.215","10.86","26.27","0.0","0.0"],
    [1511366,"2026-03-16 02:40:00","57863","2.381","295.5","3.397","302.7","1017.134","10.81","27.83","0.0","0.0"],
    [1511367,"2026-03-16 02:50:00","57864","2.7060000000000004","283.5","3.822","280.1","1017.184","10.74","27.63","0.0","0.0"],
    [1511368,"2026-03-16 03:00:00","57865","2.2640000000000002","266.0","3.365","266.1","1017.347","10.25","29.89","0.0","0.0"],
    [1511369,"2026-03-16 03:10:00","57866","2.178","265.4","3.593","265.2","1017.465","10.14","31.71","0.0","0.0"],
    [1511370,"2026-03-16 03:20:00","57867","2.546","274.7","4.933","283.0","1017.385","10.39","31.83","0.0","0.0"],
    [1511371,"2026-03-16 03:30:00","57868","2.7","270.6","3.7889999999999997","280.3","1017.387","10.27","33.04","0.0","0.0"],
    [1511372,"2026-03-16 03:40:00","57869","3.255","280.0","4.802","279.8","1017.359","10.23","34.0","0.0","0.0"],
    [1511373,"2026-03-16 03:50:00","57870","3.429","280.8","5.847","290.2","1017.284","10.23","33.86","0.0","0.0"],
    [1511374,"2026-03-16 04:00:00","57871","3.905","287.2","5.455","287.8","1017.344","10.32","34.44","0.0","0.0"],
    [1511375,"2026-03-16 04:10:00","57872","3.483","279.4","5.357","284.9","1017.233","10.15","36.32","0.0","0.0"],
    [1511376,"2026-03-16 04:20:00","57873","3.055","280.0","4.181","269.5","1017.242","9.91","38.78","0.0","0.0"],
    [1511377,"2026-03-16 04:30:00","57874","2.7460000000000004","273.0","4.573","288.6","1017.21","9.84","39.64","0.0","0.0"],
    [1511378,"2026-03-16 04:40:00","57875","2.718","268.0","4.247","280.8","1017.248","9.51","41.13","0.0","0.0"],
    [1511379,"2026-03-16 04:50:00","57876","3.755","289.8","5.422999999999999","301.9","1017.581","9.72","41.1","0.0","0.0"],
    [1511380,"2026-03-16 05:00:00","57877","3.798","293.6","5.455","289.2","1017.844","9.8","40.38","0.0","0.0"],
    [1511381,"2026-03-16 05:10:00","57878","3.8689999999999998","285.1","5.422999999999999","284.2","1018.22","9.81","39.33","0.0","0.0"],
    [1511382,"2026-03-16 05:20:00","57879","2.585","269.3","3.6910000000000003","272.0","1018.244","9.59","40.43","0.0","0.0"],
    [1511383,"2026-03-16 05:30:00","57880","3.415","271.7","4.998","261.0","1018.245","9.32","44.54","0.0","0.0"],
    [1511384,"2026-03-16 05:40:00","57881","2.948","269.7","4.638999999999999","266.0","1018.258","9.23","46.05","0.0","0.0"],
    [1511385,"2026-03-16 05:50:00","57882","2.41","263.9","3.6910000000000003","259.1","1018.328","9.04","46.6","0.0","0.0"],
    [1511386,"2026-03-16 06:00:00","57883","1.275","249.9","2.7439999999999998","279.7","1018.307","9.05","46.63","0.08199999999999999","0.0"],
    [1511387,"2026-03-16 06:10:00","57884","1.9069999999999998","248.6","3.299","246.9","1018.365","9.1","45.28","3.714","0.0"],
    [1511388,"2026-03-16 06:20:00","57885","3.04","272.6","5.063","271.9","1018.547","9.08","45.23","15.11","0.0"],
    [1511389,"2026-03-16 06:30:00","57886","2.948","281.2","4.541","278.5","1018.792","9.35","44.41","35.49","0.0"],
    [1511390,"2026-03-16 06:40:00","57887","2.1830000000000003","251.2","3.855","248.9","1018.943","9.43","44.56","66.66","0.0"],
    [1511391,"2026-03-16 06:50:00","57888","3.741","277.6","6.239","284.7","1018.92","9.35","46.3","100.5","0.0"],
    [1511392,"2026-03-16 07:00:00","57889","3.2889999999999997","276.1","5.292000000000001","275.8","1019.089","9.34","47.23","112.7","0.0"],
    [1511393,"2026-03-16 07:10:00","57890","3.43","272.9","5.2589999999999995","272.6","1019.145","9.46","47.27","168.5","0.0"],
    [1511394,"2026-03-16 07:20:00","57891","4.2860000000000005","274.5","6.501","287.7","1019.169","9.61","46.6","202.7","0.0"],
    [1511395,"2026-03-16 07:30:00","57892","4.399","293.8","8.04","284.9","1019.501","10.02","45.02","236.0","0.0"],
    [1511396,"2026-03-16 07:40:00","57893","2.255","279.2","4.018","251.4","1019.494","10.52","42.6","269.1","0.0"],
    [1511397,"2026-03-16 07:50:00","57894","3.4730000000000003","258.8","6.141","265.2","1019.623","10.26","44.1","305.1","0.0"],
    [1511398,"2026-03-16 08:00:00","57895","3.1069999999999998","262.2","5.912999999999999","275.0","1019.741","10.27","45.62","340.2","0.0"],
    [1511399,"2026-03-16 08:10:00","57896","3.015","263.0","6.337000000000001","271.4","1019.677","10.49","45.61","374.2","0.0"],
    [1511400,"2026-03-16 08:20:00","57897","3.9530000000000003","265.9","6.1739999999999995","260.3","1019.719","10.53","46.47","408.2","0.0"],
    [1511401,"2026-03-16 08:30:00","57898","4.226","278.1","6.795","284.5","1019.689","10.72","46.52","440.3","0.0"],
    [1511402,"2026-03-16 08:40:00","57899","4.279","280.8","6.925","279.6","1019.838","10.89","45.21","471.6","0.0"],
    [1511403,"2026-03-16 08:50:00","57900","2.97","276.6","4.867","260.6","1019.811","11.57","43.2","500.2","0.0"],
    [1511404,"2026-03-16 09:00:00","57901","3.272","278.5","5.1610000000000005","275.5","1019.919","11.88","42.32","530.2","0.0"],
    [1511405,"2026-03-16 09:10:00","57902","3.284","281.0","4.345","269.8","1020.153","12.14","41.49","559.8","0.0"],
    [1511406,"2026-03-16 09:20:00","57903","2.698","268.7","4.2139999999999995","254.9","1020.206","12.62","40.72","586.9","0.0"],
    [1511407,"2026-03-16 09:30:00","57904","2.841","270.0","4.149","281.9","1020.198","12.88","39.07","617.5","0.0"],
    [1511408,"2026-03-16 09:40:00","57905","2.479","282.3","4.1160000000000005","278.6","1020.161","13.11","38.07","606.1","0.0"],
    [1511409,"2026-03-16 09:50:00","57906","2.5610000000000004","276.8","3.593","287.6","1020.204","13.36","36.75","663.1","0.0"],
    [1511410,"2026-03-16 10:00:00","57907","2.596","279.0","4.083","247.6","1020.313","13.71","35.92","684.0","0.0"],
    [1511411,"2026-03-16 10:10:00","57908","2.546","274.5","4.2139999999999995","262.3","1020.36","14.36","35.36","704.3","0.0"],
    [1511412,"2026-03-16 10:20:00","57909","2.634","269.5","5.031000000000001","278.9","1020.395","15.65","34.82","722.4","0.0"],
    [1511413,"2026-03-16 10:30:00","57910","3.122","281.3","4.475","269.1","1020.5","16.02","33.77","737.6","0.0"],
    [1511414,"2026-03-16 10:40:00","57911","2.127","340.5","3.855","293.1","1020.597","15.85","33.96","749.7","0.0"],
    [1511415,"2026-03-16 10:50:00","57912","2.353","83.4","3.299","91.7","1020.588","14.51","38.87","763.3","0.0"],
    [1511416,"2026-03-16 11:00:00","57913","2.031","107.9","3.005","99.3","1020.587","13.94","42.38","774.1","0.0"],
    [1511417,"2026-03-16 11:10:00","57914","1.751","120.4","2.548","92.4","1020.48","14.36","40.68","782.8","0.0"],
    [1511418,"2026-03-16 11:20:00","57915","1.0859999999999999","109.1","2.385","108.0","1020.399","14.72","40.88","791.6","0.0"],
    [1511419,"2026-03-16 11:30:00","57916","1.859","104.2","3.136","114.7","1020.396","15.08","40.27","803.0","0.0"],
    [1511420,"2026-03-16 11:40:00","57917","2.5540000000000003","107.2","3.267","103.2","1020.355","14.59","40.87","814.0","0.0"],
    [1511421,"2026-03-16 11:50:00","57918","2.986","128.0","3.5610000000000004","137.5","1020.322","14.41","46.01","742.6","0.0"],
    [1511422,"2026-03-16 12:00:00","57919","3.21","136.3","3.9530000000000003","141.2","1020.235","14.58","45.95","817.0","0.0"],
    [1511423,"2026-03-16 12:10:00","57920","3.5639999999999996","142.7","4.247","139.1","1020.098","14.5","49.29","803.0","0.0"],
    [1511424,"2026-03-16 12:20:00","57921","4.135","153.4","4.9","156.9","1020.015","14.67","49.72","790.6","0.0"],
    [1511425,"2026-03-16 12:30:00","57922","5.236000000000001","167.8","7.252000000000001","190.7","1019.942","14.66","51.18","755.0","0.0"],
    [1511426,"2026-03-16 12:40:00","57923","6.843","186.3","8.62","189.0","1019.753","13.84","52.95","694.3","0.0"],
    [1511427,"2026-03-16 12:50:00","57924","6.603","187.6","7.938","188.7","1019.712","13.81","52.53","740.1","0.0"],
    [1511428,"2026-03-16 13:00:00","57925","6.245","186.1","7.415","183.9","1019.673","13.76","54.06","778.4","0.0"],
    [1511429,"2026-03-16 13:10:00","57926","5.879","186.9","6.9910000000000005","188.1","1019.677","13.68","53.78","738.8","0.0"],
    [1511430,"2026-03-16 13:20:00","57927","5.755","187.9","7.644","185.6","1019.585","14.14","49.73","770.8","0.0"],
    [1511431,"2026-03-16 13:30:00","57928","5.86","187.6","6.925","196.7","1019.383","14.36","48.95","749.8","0.0"],
    [1511432,"2026-03-16 13:40:00","57929","4.98","192.5","6.435","193.5","1019.255","14.75","49.28","724.2","0.0"],
    [1511433,"2026-03-16 13:50:00","57930","4.628","194.1","6.468","189.8","1019.26","15.18","45.98","714.3","0.0"],
    [1511434,"2026-03-16 14:00:00","57931","4.251","202.5","6.207000000000001","200.4","1019.173","15.4","42.6","674.6","0.0"],
    [1511435,"2026-03-16 14:10:00","57932","3.3539999999999996","210.2","6.403","193.0","1019.166","15.61","40.93","691.4","0.0"],
    [1511436,"2026-03-16 14:20:00","57933","4.292","213.9","7.546","217.6","1019.04","15.64","39.33","664.6","0.0"],
    [1511437,"2026-03-16 14:30:00","57934","4.0489999999999995","201.9","6.272","194.5","1019.021","15.68","41.29","635.3","0.0"],
    [1511438,"2026-03-16 14:40:00","57935","4.158","207.0","5.912999999999999","200.4","1019.008","15.81","41.67","610.5","0.0"],
    [1511439,"2026-03-16 14:50:00","57936","3.505","216.6","5.651","223.1","1018.944","15.97","42.22","584.1","0.0"],
    [1511440,"2026-03-16 15:00:00","57937","4.476","219.9","6.893","219.4","1018.842","15.87","40.99","571.2","0.0"],
    [1511441,"2026-03-16 15:10:00","57938","3.7","214.8","6.9910000000000005","227.1","1018.804","16.07","40.21","470.9","0.0"],
    [1511442,"2026-03-16 15:20:00","57939","3.6260000000000003","220.0","5.7170000000000005","232.3","1018.8","16.17","41.77","481.0","0.0"],
    [1511443,"2026-03-16 15:30:00","57940","2.937","215.7","5.455","216.2","1018.799","16.29","44.77","447.0","0.0"],
    [1511444,"2026-03-16 15:40:00","57941","3.6","218.4","6.239","218.9","1018.635","16.36","45.29","372.2","0.0"],
    [1511445,"2026-03-16 15:50:00","57942","3.645","218.8","6.86","225.0","1018.636","16.54","40.83","368.2","0.0"],
    [1511446,"2026-03-16 16:00:00","57943","3.531","215.5","6.403","232.8","1018.709","16.34","40.77","334.5","0.0"],
    [1511447,"2026-03-16 16:10:00","57944","3.162","213.6","6.468","194.5","1018.782","16.16","45.52","307.9","0.0"],
    [1511448,"2026-03-16 16:20:00","57945","3.306","217.5","6.141","204.5","1018.638","15.69","56.88","272.6","0.0"],
    [1511449,"2026-03-16 16:30:00","57946","3.707","222.5","6.795","227.3","1018.548","15.52","60.15","209.9","0.0"],
    [1511450,"2026-03-16 16:40:00","57947","4.332","224.2","6.795","228.9","1018.469","15.34","62.54","173.1","0.0"],
    [1511451,"2026-03-16 16:50:00","57948","3.9389999999999996","222.8","7.546","220.3","1018.494","15.29","64.18","150.1","0.0"],
    [1511452,"2026-03-16 17:00:00","57949","4.005","216.8","7.121","218.8","1018.551","15.28","64.34","128.4","0.0"],
    [1511453,"2026-03-16 17:10:00","57950","2.964","218.3","5.553","207.1","1018.668","15.33","64.69","95.7","0.0"],
    [1511454,"2026-03-16 17:20:00","57951","2.9019999999999997","220.2","5.227","221.1","1018.749","15.18","66.69","63.45","0.0"],
    [1511455,"2026-03-16 17:30:00","57952","2.8939999999999997","223.6","4.9","207.9","1018.747","15.11","67.66","55.13","0.0"],
    [1511456,"2026-03-16 17:40:00","57953","3.031","213.6","5.227","227.9","1018.816","15.09","67.84","45.34","0.0"],
    [1511457,"2026-03-16 17:50:00","57954","2.9930000000000003","213.2","5.1610000000000005","199.5","1018.892","14.89","68.74","21.41","0.0"],
    [1511458,"2026-03-16 18:00:00","57955","3.6830000000000003","220.6","6.305","208.9","1018.944","14.69","70.15","4.74","0.0"],
    [1511459,"2026-03-16 18:10:00","57956","2.799","232.0","4.247","212.7","1018.973","14.57","71.79","0.16899999999999998","0.0"],
    [1511460,"2026-03-16 18:20:00","57957","2.938","243.4","4.933","266.7","1019.11","14.36","72.6","0.0","0.0"],
    [1511461,"2026-03-16 18:30:00","57958","3.498","247.0","5.553","258.9","1019.193","14.25","72.45","0.0","0.0"],
    [1511462,"2026-03-16 18:40:00","57959","3.264","247.9","5.063","261.3","1019.266","14.1","72.63","0.0","0.0"],
    [1511463,"2026-03-16 18:50:00","57960","2.977","249.7","4.998","252.7","1019.317","14.0","73.56","0.0","0.0"],
    [1511464,"2026-03-16 19:00:00","57961","2.753","253.0","4.541","259.2","1019.338","13.99","74.56","0.0","0.0"],
    [1511465,"2026-03-16 19:10:00","57962","2.428","253.0","4.279","262.5","1019.399","13.96","75.19","0.0","0.0"],
    [1511466,"2026-03-16 19:20:00","57963","2.384","250.7","4.149","259.2","1019.417","13.89","75.79","0.0","0.0"],
    [1511467,"2026-03-16 19:30:00","57964","2.6289999999999996","255.6","4.965","254.7","1019.423","13.89","75.61","0.0","0.0"],
    [1511468,"2026-03-16 19:40:00","57965","2.3409999999999997","251.4","3.6260000000000003","253.9","1019.481","13.81","75.46","0.0","0.0"],
    [1511469,"2026-03-16 19:50:00","57966","2.634","251.7","4.4430000000000005","248.4","1019.44","13.76","74.67","0.0","0.0"],
    [1511470,"2026-03-16 20:00:00","57967","1.7069999999999999","257.1","2.907","262.7","1019.456","13.54","75.05","0.0","0.0"],
    [1511471,"2026-03-16 20:10:00","57968","1.9969999999999999","254.5","4.475","244.5","1019.456","13.52","74.95","0.0","0.0"],
    [1511472,"2026-03-16 20:20:00","57969","2.526","249.4","4.279","256.5","1019.448","13.63","73.23","0.0","0.0"],
    [1511473,"2026-03-16 20:30:00","57970","2.2159999999999997","259.2","3.299","282.2","1019.529","13.55","72.25","0.0","0.0"],
    [1511474,"2026-03-16 20:40:00","57971","2.57","253.7","4.475","250.6","1019.506","13.63","71.31","0.0","0.0"],
    [1511475,"2026-03-16 20:50:00","57972","2.253","267.0","3.071","267.7","1019.395","13.46","71.64","0.0","0.0"],
    [1511476,"2026-03-16 21:00:00","57973","2.736","251.1","4.1160000000000005","254.2","1019.385","13.41","72.94","0.0","0.0"],
    [1511477,"2026-03-16 21:10:00","57974","2.267","252.7","3.855","258.7","1019.336","13.59","71.79","0.0","0.0"],
    [1511478,"2026-03-16 21:20:00","57975","1.756","264.9","3.136","254.9","1019.327","13.39","72.34","0.0","0.0"],
    [1511479,"2026-03-16 21:30:00","57976","1.381","260.0","2.0909999999999997","250.8","1019.343","13.27","73.12","0.0","0.0"],
    [1511480,"2026-03-16 21:40:00","57977","2.13","262.4","3.005","258.5","1019.281","13.19","73.94","0.0","0.0"],
    [1511481,"2026-03-16 21:50:00","57978","2.411","258.1","3.332","260.8","1019.205","13.11","74.69","0.0","0.0"],
    [1511482,"2026-03-16 22:00:00","57979","1.768","255.5","2.907","257.9","1019.229","13.1","74.32","0.0","0.0"],
    [1511483,"2026-03-16 22:10:00","57980","1.6119999999999999","233.6","2.679","230.8","1019.246","13.35","71.87","0.0","0.0"],
    [1511484,"2026-03-16 22:20:00","57981","1.855","236.4","3.0380000000000003","231.7","1019.218","13.52","68.0","0.0","0.0"],
    [1511485,"2026-03-16 22:30:00","57982","1.199","255.4","2.352","224.9","1019.217","13.35","65.53","0.0","0.0"],
    [1511486,"2026-03-16 22:40:00","57983","0.59","266.8","1.993","256.9","1019.24","12.98","65.52","0.0","0.0"],
    [1511487,"2026-03-16 22:50:00","57984","0.728","237.4","1.3719999999999999","253.3","1019.233","12.74","66.19","0.0","0.0"],
    [1511488,"2026-03-16 23:00:00","57985","1.5530000000000002","229.1","2.254","222.2","1019.129","12.59","66.7","0.0","0.0"],
    [1511489,"2026-03-16 23:10:00","57986","2.2840000000000003","215.3","3.071","212.8","1019.073","12.65","67.09","0.0","0.0"],
    [1511490,"2026-03-16 23:20:00","57987","1.5519999999999998","246.9","2.483","219.5","1019.025","12.86","66.51","0.0","0.0"],
    [1511491,"2026-03-16 23:30:00","57988","1.091","305.6","1.7309999999999999","297.4","1019.042","12.66","66.71","0.0","0.0"],
    [1511492,"2026-03-16 23:40:00","57989","1.0490000000000002","332.0","1.4369999999999998","350.9","1019.029","12.57","68.74","0.0","0.0"],
    [1511493,"2026-03-16 23:50:00","57990","1.041","6.229","1.47","20.56","1018.936","12.54","70.29","0.0","0.0"],
    [1511494,"2026-03-17 00:00:00","57991","1.162","21.34","1.601","30.28","1018.91","12.96","71.97","0.0","0.0"],
    [1511495,"2026-03-17 00:10:00","57992","1.892","36.4","3.365","36.7","1018.903","13.11","72.27","0.0","0.0"],
    [1511496,"2026-03-17 00:20:00","57993","2.375","5.811","3.0380000000000003","3.355","1018.843","13.23","70.1","0.0","0.0"],
    [1511497,"2026-03-17 00:30:00","57994","1.518","356.4","2.319","357.5","1018.726","13.39","68.52","0.0","0.0"],
    [1511498,"2026-03-17 00:40:00","57995","2.812","27.99","3.855","30.49","1018.732","13.63","65.84","0.0","0.0"],
    [1511499,"2026-03-17 00:50:00","57996","3.46","40.18","4.475","46.41","1018.73","13.53","67.06","0.0","0.0"],
    [1511500,"2026-03-17 01:00:00","57997","3.823","36.27","4.769","44.04","1018.688","13.11","69.23","0.0","0.0"],
    [1511501,"2026-03-17 01:10:00","57998","3.5210000000000004","29.72","4.247","33.28","1018.639","13.09","69.39","0.0","0.0"],
    [1511502,"2026-03-17 01:20:00","57999","3.0860000000000003","16.97","3.822","26.26","1018.526","13.29","69.01","0.0","0.0"],
    [1511503,"2026-03-17 01:30:00","58000","3.005","7.687","3.855","10.34","1018.472","13.35","69.44","0.0","0.0"],
    [1511504,"2026-03-17 01:40:00","58001","2.247","359.8","3.365","5.242999999999999","1018.418","13.32","67.98","0.0","0.0"],
    [1511505,"2026-03-17 01:50:00","58002","2.657","2.952","3.495","8.56","1018.303","13.44","67.57","0.0","0.0"],
    [1511506,"2026-03-17 02:00:00","58003","3.471","8.58","4.345","12.22","1018.273","13.44","68.87","0.0","0.0"],
    [1511507,"2026-03-17 02:10:00","58004","3.89","9.47","4.671","8.79","1018.288","13.38","70.47","0.0","0.0"],
    [1511508,"2026-03-17 02:20:00","58005","3.91","8.07","4.933","8.32","1018.185","13.41","70.48","0.0","0.0"],
    [1511509,"2026-03-17 02:30:00","58006","3.9589999999999996","7.059","5.292000000000001","21.06","1018.055","13.49","69.48","0.0","0.0"],
    [1511510,"2026-03-17 02:40:00","58007","3.948","5.0169999999999995","5.651","7.212999999999999","1017.961","13.53","69.27","0.0","0.0"],
    [1511511,"2026-03-17 02:50:00","58008","3.0439999999999996","1.347","4.279","10.77","1017.815","13.49","68.61","0.0","0.0"],
    [1511512,"2026-03-17 03:00:00","58009","2.708","0.6970000000000001","4.083","12.97","1017.692","13.54","68.23","0.0","0.0"],
    [1511513,"2026-03-17 03:10:00","58010","3.175","345.5","4.704","336.9","1017.613","13.43","67.88","0.0","0.0"],
    [1511514,"2026-03-17 03:20:00","58011","1.5019999999999998","299.7","2.613","3.509","1017.574","13.19","68.56","0.0","0.0"],
    [1511515,"2026-03-17 03:30:00","58012","2.5140000000000002","265.0","3.071","265.2","1017.499","12.32","69.05","0.0","0.0"],
    [1511516,"2026-03-17 03:40:00","58013","2.72","258.1","3.593","260.3","1017.628","11.34","70.78","0.0","0.0"],
    [1511517,"2026-03-17 03:50:00","58014","1.7369999999999999","246.1","2.679","249.6","1017.723","11.1","71.93","0.0","0.0"],
    [1511518,"2026-03-17 04:00:00","58015","1.6059999999999999","256.3","2.0909999999999997","262.0","1017.675","11.15","71.43","0.0","0.0"],
    [1511519,"2026-03-17 04:10:00","58016","1.6680000000000001","278.9","1.96","268.1","1017.644","11.14","71.09","0.0","0.0"],
    [1511520,"2026-03-17 04:20:00","58017","1.456","274.6","1.895","268.6","1017.609","11.19","71.55","0.0","0.0"],
    [1511521,"2026-03-17 04:30:00","58018","1.646","269.6","2.0909999999999997","271.8","1017.608","11.15","71.15","0.0","0.0"],
    [1511522,"2026-03-17 04:40:00","58019","1.9709999999999999","273.6","2.254","266.6","1017.523","10.85","71.83","0.0","0.0"],
    [1511523,"2026-03-17 04:50:00","58020","2.38","263.8","2.6460000000000004","267.1","1017.551","10.59","72.42","0.0","0.0"],
    [1511524,"2026-03-17 05:00:00","58021","2.059","261.9","2.7439999999999998","251.8","1017.602","10.51","72.75","0.0","0.0"],
    [1511525,"2026-03-17 05:10:00","58022","2.076","274.8","2.7110000000000003","272.9","1017.538","10.51","72.46","0.0","0.0"],
    [1511526,"2026-03-17 05:20:00","58023","1.193","301.6","1.797","294.3","1017.473","11.17","71.85","0.0","0.0"],
    [1511527,"2026-03-17 05:30:00","58024","0.897","316.2","1.274","312.0","1017.297","11.43","69.91","0.0","0.0"],
    [1511528,"2026-03-17 05:40:00","58025","0.981","301.8","1.2409999999999999","312.3","1017.237","11.65","69.05","0.0","0.0"],
    [1511529,"2026-03-17 05:50:00","58026","0.662","301.9","1.143","311.4","1017.233","11.75","68.29","0.0","0.0"],
    [1511530,"2026-03-17 06:00:00","58027","1.123","258.4","2.0909999999999997","265.2","1017.421","11.53","67.85","0.28300000000000003","0.0"],
    [1511531,"2026-03-17 06:10:00","58028","0.9329999999999999","277.6","1.633","263.7","1017.488","11.36","68.5","4.04","0.0"],
    [1511532,"2026-03-17 06:20:00","58029","1.177","305.1","1.633","296.4","1017.469","11.4","68.14","12.97","0.0"],
    [1511533,"2026-03-17 06:30:00","58030","1.304","330.4","1.9269999999999998","340.8","1017.459","11.76","68.16","34.38","0.0"],
    [1511534,"2026-03-17 06:40:00","58031","1.754","346.1","2.6460000000000004","10.55","1017.502","12.37","67.12","63.48","0.0"],
    [1511535,"2026-03-17 06:50:00","58032","1.88","347.1","3.005","13.07","1017.531","12.8","65.44","94.0","0.0"],
    [1511536,"2026-03-17 07:00:00","58033","2.655","3.944","3.528","352.4","1017.483","13.0","65.46","122.4","0.0"],
    [1511537,"2026-03-17 07:10:00","58034","2.775","357.4","4.083","358.3","1017.47","13.14","66.84","161.6","0.0"],
    [1511538,"2026-03-17 07:20:00","58035","2.728","1.3659999999999999","4.1160000000000005","344.4","1017.535","13.24","66.86","194.1","0.0"],
    [1511539,"2026-03-17 07:30:00","58036","2.415","5.112","3.7569999999999997","6.872000000000001","1017.572","13.41","67.72","226.6","0.0"],
    [1511540,"2026-03-17 07:40:00","58037","1.9969999999999999","2.271","3.7239999999999998","14.18","1017.61","13.52","68.32","257.3","0.0"],
    [1511541,"2026-03-17 07:50:00","58038","1.92","355.4","3.136","341.1","1017.598","13.58","67.98","288.5","0.0"],
    [1511542,"2026-03-17 08:00:00","58039","1.402","5.053999999999999","2.319","0.498","1017.544","13.81","67.86","318.8","0.0"],
    [1511543,"2026-03-17 08:10:00","58040","2.248","15.06","3.201","14.01","1017.61","13.74","68.35","354.4","0.0"],
    [1511544,"2026-03-17 08:20:00","58041","2.381","15.16","3.005","16.1","1017.628","13.65","68.18","388.2","0.0"],
    [1511545,"2026-03-17 08:30:00","58042","2.036","24.47","2.907","20.56","1017.611","13.77","69.21","419.5","0.0"],
    [1511546,"2026-03-17 08:40:00","58043","2.718","25.8","3.5610000000000004","29.29","1017.64","13.78","69.88","452.1","0.0"],
    [1511547,"2026-03-17 08:50:00","58044","2.349","28.09","3.005","31.83","1017.584","13.86","71.66","482.5","0.0"],
    [1511548,"2026-03-17 09:00:00","58045","2.27","44.19","3.136","55.41","1017.579","13.99","73.05","511.0","0.0"],
    [1511549,"2026-03-17 09:10:00","58046","2.324","47.81","2.907","45.25","1017.501","14.0","72.2","540.0","0.0"],
    [1511550,"2026-03-17 09:20:00","58047","2.244","53.66","2.9730000000000003","56.98","1017.509","14.15","73.11","565.9","0.0"],
    [1511551,"2026-03-17 09:30:00","58048","1.8940000000000001","51.12","2.7439999999999998","51.55","1017.563","14.03","73.72","589.9","0.0"],
    [1511552,"2026-03-17 09:40:00","58049","1.625","70.04","2.156","53.04","1017.6","14.22","73.57","613.2","0.0"],
    [1511553,"2026-03-17 09:50:00","58050","1.84","79.05","2.385","71.09","1017.574","14.17","74.19","636.0","0.0"],
    [1511554,"2026-03-17 10:00:00","58051","1.7069999999999999","90.8","2.156","92.2","1017.542","14.15","75.29","655.9","0.0"],
    [1511555,"2026-03-17 10:10:00","58052","1.75","88.3","2.385","85.5","1017.531","14.44","76.03","674.8","0.0"],
    [1511556,"2026-03-17 10:20:00","58053","2.05","90.5","2.6460000000000004","83.8","1017.51","15.14","75.06","693.3","0.0"],
    [1511557,"2026-03-17 10:30:00","58054","2.452","87.7","3.136","82.1","1017.537","15.43","74.07","709.0","0.0"],
    [1511558,"2026-03-17 10:40:00","58055","2.215","79.39","3.071","92.6","1017.533","14.95","74.07","723.1","0.0"],
    [1511559,"2026-03-17 10:50:00","58056","1.909","75.21","2.7439999999999998","74.05","1017.536","14.46","75.2","735.1","0.0"],
    [1511560,"2026-03-17 11:00:00","58057","2.4730000000000003","69.63","3.071","73.63","1017.48","14.02","78.25","750.0","0.0"],
    [1511561,"2026-03-17 11:10:00","58058","2.439","71.83","3.201","82.2","1017.43","13.92","82.5","759.6","0.0"],
    [1511562,"2026-03-17 11:20:00","58059","2.7430000000000003","80.9","3.528","83.8","1017.392","13.95","85.2","769.1","0.0"],
    [1511563,"2026-03-17 11:30:00","58060","2.6830000000000003","76.44","3.528","94.4","1017.322","14.05","87.7","777.5","0.0"],
    [1511564,"2026-03-17 11:40:00","58061","2.697","72.89","3.43","65.21","1017.242","14.15","90.0","783.9","0.0"],
    [1511565,"2026-03-17 11:50:00","58062","2.5639999999999996","68.62","3.528","67.59","1017.111","14.17","92.0","788.6","0.0"],
    [1511566,"2026-03-17 12:00:00","58063","2.7030000000000003","75.09","3.234","65.0","1017.036","14.09","93.2","790.9","0.0"],
    [1511567,"2026-03-17 12:10:00","58064","2.48","76.1","3.5610000000000004","69.87","1016.963","14.06","94.1","792.5","0.0"],
    [1511568,"2026-03-17 12:20:00","58065","2.252","75.78","2.907","75.03","1016.846","14.07","94.4","791.8","0.0"],
    [1511569,"2026-03-17 12:30:00","58066","2.016","68.93","2.94","70.23","1016.714","14.12","94.5","788.6","0.0"],
    [1511570,"2026-03-17 12:40:00","58067","2.435","60.16","3.201","44.03","1016.557","14.17","94.4","784.8","0.0"],
    [1511571,"2026-03-17 12:50:00","58068","2.419","74.94","3.365","73.18","1016.412","14.16","94.4","778.2","0.0"],
    [1511572,"2026-03-17 13:00:00","58069","2.702","74.79","3.5610000000000004","71.79","1016.292","14.22","94.5","768.5","0.0"],
    [1511573,"2026-03-17 13:10:00","58070","2.698","77.14","3.92","82.1","1016.093","14.13","94.3","760.3","0.0"],
    [1511574,"2026-03-17 13:20:00","58071","2.855","85.9","4.051","89.6","1015.979","14.2","93.9","748.6","0.0"],
    [1511575,"2026-03-17 13:30:00","58072","2.38","78.49","3.332","76.21","1015.861","14.26","94.0","734.1","0.0"],
    [1511576,"2026-03-17 13:40:00","58073","2.117","91.3","2.875","81.9","1015.776","14.3","94.0","719.2","0.0"],
    [1511577,"2026-03-17 13:50:00","58074","2.1430000000000002","101.1","2.8089999999999997","93.5","1015.636","14.29","94.0","704.0","0.0"],
    [1511578,"2026-03-17 14:00:00","58075","2.088","109.4","2.907","89.2","1015.468","14.28","94.0","686.9","0.0"],
    [1511579,"2026-03-17 14:10:00","58076","1.913","109.6","2.548","109.5","1015.364","14.33","94.1","668.1","0.0"],
    [1511580,"2026-03-17 14:20:00","58077","1.8630000000000002","104.7","2.907","117.0","1015.218","14.39","94.4","645.6","0.0"],
    [1511581,"2026-03-17 14:30:00","58078","2.227","120.3","2.907","123.0","1015.115","14.29","94.5","626.2","0.0"],
    [1511582,"2026-03-17 14:40:00","58079","1.791","141.4","2.6460000000000004","126.1","1014.931","14.21","93.9","601.0","0.0"],
    [1511583,"2026-03-17 14:50:00","58080","1.723","154.1","2.548","151.2","1014.827","14.37","92.7","574.6","0.0"],
    [1511584,"2026-03-17 15:00:00","58081","1.446","149.1","1.96","152.9","1014.784","14.43","92.4","547.1","0.0"],
    [1511585,"2026-03-17 15:10:00","58082","1.734","157.6","2.385","172.9","1014.643","14.42","92.2","520.2","0.0"],
    [1511586,"2026-03-17 15:20:00","58083","2.397","164.2","2.907","162.1","1014.591","14.31","92.0","493.8","0.0"],
    [1511587,"2026-03-17 15:30:00","58084","2.395","158.8","2.7439999999999998","157.7","1014.477","14.27","91.9","461.8","0.0"],
    [1511588,"2026-03-17 15:40:00","58085","2.55","161.0","2.8089999999999997","161.1","1014.41","14.21","91.9","432.0","0.0"],
    [1511589,"2026-03-17 15:50:00","58086","2.6839999999999997","158.2","2.94","160.1","1014.268","14.18","91.9","401.4","0.0"],
    [1511590,"2026-03-17 16:00:00","58087","2.5989999999999998","158.5","2.94","158.6","1014.172","14.15","92.1","368.1","0.0"],
    [1511591,"2026-03-17 16:10:00","58088","2.316","155.3","2.548","154.8","1014.139","14.19","92.2","331.8","0.0"],
    [1511592,"2026-03-17 16:20:00","58089","2.602","153.3","3.267","157.7","1014.12","14.16","92.3","297.6","0.0"],
    [1511593,"2026-03-17 16:30:00","58090","2.0909999999999997","153.7","2.548","151.9","1014.048","14.21","92.1","261.4","0.0"],
    [1511594,"2026-03-17 16:40:00","58091","2.057","146.1","2.45","148.3","1014.076","14.3","92.0","223.4","0.0"],
    [1511595,"2026-03-17 16:50:00","58092","1.8259999999999998","130.0","2.548","140.4","1014.151","14.33","92.3","184.8","0.0"],
    [1511596,"2026-03-17 17:00:00","58093","1.682","123.7","2.319","109.4","1014.127","14.32","92.7","153.7","0.0"],
    [1511597,"2026-03-17 17:10:00","58094","1.6280000000000001","137.2","2.156","148.9","1014.154","14.33","93.1","122.8","0.0"],
    [1511598,"2026-03-17 17:20:00","58095","1.847","129.1","2.319","138.7","1014.167","14.33","93.8","96.2","0.0"],
    [1511599,"2026-03-17 17:30:00","58096","1.5759999999999998","109.4","2.123","101.8","1014.173","14.3","94.5","69.99","0.0"],
    [1511600,"2026-03-17 17:40:00","58097","1.693","109.3","2.156","120.2","1014.227","14.2","95.1","43.21","0.0"],
    [1511601,"2026-03-17 17:50:00","58098","1.379","102.5","1.8619999999999999","122.6","1014.19","14.12","95.5","20.73","0.0"],
    [1511602,"2026-03-17 18:00:00","58099","1.31","96.1","1.601","83.8","1014.206","14.05","96.0","5.006","0.0"],
    [1511603,"2026-03-17 18:10:00","58100","1.212","98.3","1.797","87.6","1014.239","14.03","96.5","0.33799999999999997","0.0"],
    [1511604,"2026-03-17 18:20:00","58101","1.229","87.4","1.568","82.7","1014.309","14.02","97.0","0.0","0.0"],
    [1511605,"2026-03-17 18:30:00","58102","1.045","78.97","1.4369999999999998","85.6","1014.313","14.0","97.5","0.0","0.0"],
    [1511606,"2026-03-17 18:40:00","58103","0.431","117.9","1.045","216.3","1014.406","13.98","97.8","0.0","0.0"],
    [1511607,"2026-03-17 18:50:00","58104","0.863","139.2","2.123","120.1","1014.493","14.01","98.1","0.0","0.0"],
    [1511608,"2026-03-17 19:00:00","58105","0.5870000000000001","118.4","1.176","131.9","1014.5","13.98","98.6","0.0","0.0"],
    [1511609,"2026-03-17 19:10:00","58106","1.0759999999999998","78.95","1.633","92.4","1014.471","13.95","98.9","0.0","0.0"],
    [1511610,"2026-03-17 19:20:00","58107","1.3119999999999998","87.8","1.829","64.05","1014.53","13.99","99.4","0.0","0.0"],
    [1511611,"2026-03-17 19:30:00","58108","0.991","49.59","1.699","34.8","1014.588","13.95","99.7","0.0","0.0"],
    [1511612,"2026-03-17 19:40:00","58109","1.29","43.0","1.993","52.41","1014.686","13.91","99.8","0.0","0.0"],
    [1511613,"2026-03-17 19:50:00","58110","0.745","28.47","1.535","46.89","1014.696","13.88","99.9","0.0","0.0"],
    [1511614,"2026-03-17 20:00:00","58111","1.131","41.09","1.8619999999999999","48.85","1014.658","13.86","100.0","0.0","0.0"],
    [1511615,"2026-03-17 20:10:00","58112","0.904","44.07","1.829","57.2","1014.564","13.76","99.9","0.0","0.0"],
    [1511616,"2026-03-17 20:20:00","58113","0.747","70.02","1.568","54.8","1014.497","13.68","99.8","0.0","0.0"],
    [1511617,"2026-03-17 20:30:00","58114","0.314","64.63","0.7509999999999999","45.67","1014.385","13.69","99.7","0.0","0.0"],
    [1511618,"2026-03-17 20:40:00","58115","0.469","43.33","1.045","49.58","1014.324","13.66","99.6","0.0","0.0"],
    [1511619,"2026-03-17 20:50:00","58116","1.541","62.01","1.993","69.5","1014.281","13.68","99.6","0.0","0.0"],
    [1511620,"2026-03-17 21:00:00","58117","1.4509999999999998","60.15","2.156","62.74","1014.247","13.67","99.6","0.0","0.0"],
    [1511621,"2026-03-17 21:10:00","58118","1.22","46.92","1.535","67.07","1014.23","13.66","99.7","0.0","0.0"],
    [1511622,"2026-03-17 21:20:00","58119","1.642","37.92","2.548","30.18","1014.118","13.66","99.8","0.0","0.0"],
    [1511623,"2026-03-17 21:30:00","58120","1.86","30.44","2.287","30.73","1014.005","13.64","100.0","0.0","0.0"],
    [1511624,"2026-03-17 21:40:00","58121","2.226","32.15","2.842","27.3","1013.958","13.61","100.0","0.0","0.0"],
    [1511625,"2026-03-17 21:50:00","58122","1.682","36.3","2.385","33.54","1014.004","13.57","100.0","0.0","0.0"],
    [1511626,"2026-03-17 22:00:00","58123","1.726","36.62","2.0909999999999997","44.16","1013.927","13.52","100.0","0.0","0.0"],
    [1511627,"2026-03-17 22:10:00","58124","2.017","30.56","2.548","25.76","1013.791","13.55","100.0","0.0","0.0"],
    [1511628,"2026-03-17 22:20:00","58125","1.902","40.28","2.385","47.03","1013.714","13.57","100.0","0.0","0.0"],
    [1511629,"2026-03-17 22:30:00","58126","1.953","38.7","2.515","43.44","1013.677","13.4","100.0","0.0","0.0"],
    [1511630,"2026-03-17 22:40:00","58127","2.301","33.89","3.071","30.67","1013.606","13.36","100.0","0.0","0.0"],
    [1511631,"2026-03-17 22:50:00","58128","1.791","40.61","2.319","41.43","1013.558","13.31","100.0","0.0","0.0"],
    [1511632,"2026-03-17 23:00:00","58129","1.6440000000000001","43.81","2.221","38.16","1013.537","13.29","100.0","0.0","0.0"],
    [1511633,"2026-03-17 23:10:00","58130","1.5619999999999998","35.87","2.254","38.61","1013.46","13.25","100.0","0.0","0.0"],
    [1511634,"2026-03-17 23:20:00","58131","1.4180000000000001","42.93","1.8619999999999999","53.54","1013.335","13.26","100.0","0.0","0.0"],
    [1511635,"2026-03-17 23:30:00","58132","0.87","45.87","1.4369999999999998","47.11","1013.294","13.24","100.0","0.0","0.0"],
    [1511636,"2026-03-17 23:40:00","58133","0.595","70.23","0.915","78.07","1013.302","13.22","100.0","0.0","0.0"],
    [1511637,"2026-03-17 23:50:00","58134","0.266","63.44","0.7190000000000001","63.48","1013.225","13.17","100.0","0.0","0.0"],
    [1511638,"2026-03-18 00:00:00","58135","0.474","6.143","2.254","264.9","1013.115","13.02","100.0","0.0","0.0"],
    [1511639,"2026-03-18 00:10:00","58136","1.9809999999999999","261.5","2.483","263.0","1013.005","11.97","100.0","0.0","0.0"],
    [1511640,"2026-03-18 00:20:00","58137","2.048","260.3","2.352","261.0","1012.977","11.74","100.0","0.0","0.0"],
    [1511641,"2026-03-18 00:30:00","58138","1.9080000000000001","260.5","2.189","262.6","1012.911","11.65","100.0","0.0","0.0"],
    [1511642,"2026-03-18 00:40:00","58139","1.702","260.4","2.0909999999999997","257.1","1012.913","11.77","100.0","0.0","0.0"],
    [1511643,"2026-03-18 00:50:00","58140","1.7590000000000001","258.2","2.254","257.3","1012.825","11.7","100.0","0.0","0.0"],
    [1511644,"2026-03-18 01:00:00","58141","1.672","262.8","2.025","265.0","1012.776","11.55","100.0","0.0","0.0"],
    [1511645,"2026-03-18 01:10:00","58142","2.1069999999999998","261.7","2.5810000000000004","259.3","1012.67","11.33","100.0","0.0","0.0"],
    [1511646,"2026-03-18 01:20:00","58143","2.3080000000000003","263.3","2.842","264.9","1012.544","11.14","100.0","0.0","0.0"],
    [1511647,"2026-03-18 01:30:00","58144","2.041","264.3","2.6460000000000004","258.3","1012.484","11.1","100.0","0.0","0.0"],
    [1511648,"2026-03-18 01:40:00","58145","1.979","266.7","2.189","257.5","1012.387","11.12","100.0","0.0","0.0"],
    [1511649,"2026-03-18 01:50:00","58146","2.089","265.5","2.287","265.9","1012.272","11.21","100.0","0.0","0.0"],
    [1511650,"2026-03-18 02:00:00","58147","1.743","270.5","1.993","265.9","1012.181","11.28","99.7","0.0","0.0"],
    [1511651,"2026-03-18 02:10:00","58148","1.385","279.2","1.764","265.4","1012.066","11.46","99.4","0.0","0.0"],
    [1511652,"2026-03-18 02:20:00","58149","1.156","295.6","1.339","297.0","1011.99","11.59","98.6","0.0","0.0"],
    [1511653,"2026-03-18 02:30:00","58150","0.753","295.2","1.078","305.5","1011.916","11.2","98.0","0.0","0.0"],
    [1511654,"2026-03-18 02:40:00","58151","0.214","248.6","0.784","264.9","1011.897","11.38","98.1","0.0","0.0"],
    [1511655,"2026-03-18 02:50:00","58152","0.228","167.3","0.8490000000000001","169.2","1011.795","11.7","98.2","0.0","0.0"],
    [1511656,"2026-03-18 03:00:00","58153","0.004","92.4","0.392","84.6","1011.669","11.95","98.2","0.0","0.0"],
    [1511657,"2026-03-18 03:10:00","58154","0.631","75.66","1.829","46.92","1011.619","12.29","98.6","0.0","0.0"],
    [1511658,"2026-03-18 03:20:00","58155","1.3159999999999998","70.77","2.221","75.96","1011.491","12.33","99.4","0.0","0.0"],
    [1511659,"2026-03-18 03:30:00","58156","1.058","88.4","1.9269999999999998","73.12","1011.423","12.17","100.0","0.0","0.0"],
    [1511660,"2026-03-18 03:40:00","58157","0.973","49.83","2.483","41.57","1011.36","12.05","100.0","0.0","0.0"],
    [1511661,"2026-03-18 03:50:00","58158","0.294","106.2","0.882","101.9","1011.307","11.98","100.0","0.0","0.0"],
    [1511662,"2026-03-18 04:00:00","58159","0.33799999999999997","138.6","0.784","111.8","1011.28","11.85","100.0","0.0","0.0"],
    [1511663,"2026-03-18 04:10:00","58160","0.295","116.5","0.9470000000000001","117.9","1011.281","11.8","100.0","0.0","0.0"],
    [1511664,"2026-03-18 04:20:00","58161","1.208","31.65","2.221","17.98","1011.272","11.63","100.0","0.0","0.0"],
    [1511665,"2026-03-18 04:30:00","58162","1.786","11.99","2.352","17.54","1011.229","11.62","100.0","0.0","0.0"],
    [1511666,"2026-03-18 04:40:00","58163","1.564","352.1","2.385","5.35","1011.204","11.53","100.0","0.0","0.0"],
    [1511667,"2026-03-18 04:50:00","58164","1.751","1.1420000000000001","2.45","9.92","1011.106","11.63","100.0","0.0","0.0"],
    [1511668,"2026-03-18 05:00:00","58165","2.088","359.8","3.071","354.5","1011.08","11.61","100.0","0.0","0.0"],
    [1511669,"2026-03-18 05:10:00","58166","1.824","2.162","2.842","24.4","1011.077","11.71","100.0","0.0","0.0"],
    [1511670,"2026-03-18 05:20:00","58167","1.895","354.4","2.7769999999999997","333.2","1011.089","11.72","100.0","0.0","0.0"],
    [1511671,"2026-03-18 05:30:00","58168","2.019","7.244","2.94","17.77","1011.07","11.73","100.0","0.0","0.0"],
    [1511672,"2026-03-18 05:40:00","58169","3.447","15.45","4.247","17.06","1011.111","11.66","100.0","0.0","0.0"],
    [1511673,"2026-03-18 05:50:00","58170","2.336","4.766","3.463","14.67","1011.203","11.51","100.0","0.0","0.0"],
    [1511674,"2026-03-18 06:00:00","58171","3.182","10.23","4.279","10.38","1011.13","11.22","100.0","1.014","0.0"],
    [1511675,"2026-03-18 06:10:00","58172","3.281","12.99","4.2139999999999995","22.26","1011.175","11.23","100.0","6.405","0.0"],
    [1511676,"2026-03-18 06:20:00","58173","4.045","13.11","4.704","12.84","1011.223","11.04","100.0","18.3","0.0"],
    [1511677,"2026-03-18 06:30:00","58174","3.7489999999999997","12.17","4.737","10.1","1011.22","11.01","100.0","37.63","0.0"],
    [1511678,"2026-03-18 06:40:00","58175","3.924","14.27","4.769","16.41","1011.28","11.01","100.0","66.13","0.0"],
    [1511679,"2026-03-18 06:50:00","58176","3.472","3.435","4.508","16.6","1011.346","10.96","100.0","93.1","0.0"],
    [1511680,"2026-03-18 07:00:00","58177","2.883","5.1610000000000005","4.2139999999999995","4.199","1011.443","10.93","100.0","109.2","0.0"],
    [1511681,"2026-03-18 07:10:00","58178","3.513","8.61","4.508","13.75","1011.519","11.06","100.0","135.3","0.0"],
    [1511682,"2026-03-18 07:20:00","58179","2.759","8.53","3.855","4.053","1011.558","11.07","100.0","98.2","0.0"],
    [1511683,"2026-03-18 07:30:00","58180","2.063","7.037000000000001","2.8089999999999997","12.25","1011.575","11.08","100.0","161.5","0.0"],
    [1511684,"2026-03-18 07:40:00","58181","2.001","6.968999999999999","2.8089999999999997","16.52","1011.646","11.17","100.0","251.9","0.0"],
    [1511685,"2026-03-18 07:50:00","58182","1.3630000000000002","351.3","2.45","337.8","1011.722","11.25","100.0","316.6","0.0"],
    [1511686,"2026-03-18 08:00:00","58183","0.428","24.54","1.47","37.33","1011.751","11.39","100.0","262.6","0.0"],
    [1511687,"2026-03-18 08:10:00","58184","0.32299999999999995","9.4","1.666","10.44","1011.719","11.4","100.0","184.4","0.0"],
    [1511688,"2026-03-18 08:20:00","58185","0.428","53.12","1.699","18.96","1011.687","11.48","100.0","178.6","0.0"],
    [1511689,"2026-03-18 08:30:00","58186","1.329","51.42","2.483","48.02","1011.732","11.4","100.0","172.1","0.0"],
    [1511690,"2026-03-18 08:40:00","58187","1.021","70.71","2.7110000000000003","70.87","1011.704","11.34","100.0","187.5","0.0"],
    [1511691,"2026-03-18 08:50:00","58188","1.574","70.38","2.7439999999999998","47.87","1011.726","11.3","100.0","169.0","0.0"],
    [1511692,"2026-03-18 09:00:00","58189","1.641","56.97","2.385","41.55","1011.693","11.31","100.0","247.5","0.0"],
    [1511693,"2026-03-18 09:10:00","58190","1.1540000000000001","2.945","1.96","342.8","1011.75","11.4","100.0","224.2","0.0"],
    [1511694,"2026-03-18 09:20:00","58191","1.261","350.5","1.993","358.3","1011.792","11.49","100.0","216.9","0.0"],
    [1511695,"2026-03-18 09:30:00","58192","1.3359999999999999","355.4","1.699","352.1","1011.793","11.65","100.0","219.3","0.0"],
    [1511696,"2026-03-18 09:40:00","58193","1.78","8.76","2.319","16.12","1011.758","11.81","100.0","259.0","0.0"],
    [1511697,"2026-03-18 09:50:00","58194","1.8130000000000002","27.4","2.94","55.24","1011.736","12.0","100.0","356.9","0.0"],
    [1511698,"2026-03-18 10:00:00","58195","1.749","31.6","3.071","42.7","1011.657","12.17","100.0","451.7","0.0"],
    [1511699,"2026-03-18 10:10:00","58196","1.5619999999999998","27.51","2.7769999999999997","17.4","1011.604","12.55","100.0","580.8","0.0"],
    [1511700,"2026-03-18 10:20:00","58197","2.135","38.15","3.1689999999999996","50.88","1011.51","13.38","99.7","698.6","0.0"],
    [1511701,"2026-03-18 10:30:00","58198","2.675","41.87","3.495","49.72","1011.45","13.81","96.5","718.2","0.0"],
    [1511702,"2026-03-18 10:40:00","58199","2.705","47.22","3.9530000000000003","63.81","1011.391","13.59","93.5","738.7","0.0"],
    [1511703,"2026-03-18 10:50:00","58200","2.7119999999999997","49.41","3.7569999999999997","74.33","1011.341","13.22","92.1","744.0","0.0"],
    [1511704,"2026-03-18 11:00:00","58201","2.7089999999999996","57.71","3.855","45.83","1011.319","12.94","92.7","757.5","0.0"],
    [1511705,"2026-03-18 11:10:00","58202","2.494","55.23","3.6910000000000003","53.31","1011.288","12.89","93.5","770.6","0.0"],
    [1511706,"2026-03-18 11:20:00","58203","2.252","75.23","3.365","73.73","1011.227","12.87","93.7","782.1","0.0"],
    [1511707,"2026-03-18 11:30:00","58204","2.26","80.6","3.1689999999999996","92.4","1011.152","12.82","93.1","790.3","0.0"],
    [1511708,"2026-03-18 11:40:00","58205","2.082","90.3","2.907","76.54","1011.141","12.94","92.7","795.0","0.0"],
    [1511709,"2026-03-18 11:50:00","58206","2.524","85.2","3.463","74.99","1011.078","13.01","92.3","802.0","0.0"],
    [1511710,"2026-03-18 12:00:00","58207","2.7230000000000003","83.0","3.6910000000000003","81.6","1010.977","12.96","91.5","806.0","0.0"],
    [1511711,"2026-03-18 12:10:00","58208","3.228","78.08","4.181","81.9","1010.904","12.97","90.9","808.0","0.0"],
    [1511712,"2026-03-18 12:20:00","58209","3.153","75.89","4.181","60.01","1010.808","13.06","90.1","808.0","0.0"],
    [1511713,"2026-03-18 12:30:00","58210","3.156","70.07","4.279","67.46","1010.622","13.1","89.8","806.0","0.0"],
    [1511714,"2026-03-18 12:40:00","58211","2.595","74.15","3.7569999999999997","77.82","1010.568","13.23","90.2","800.0","0.0"],
    [1511715,"2026-03-18 12:50:00","58212","3.2030000000000003","67.82","4.475","57.0","1010.341","13.18","90.5","796.3","0.0"],
    [1511716,"2026-03-18 13:00:00","58213","3.378","68.1","4.181","73.74","1010.172","13.19","89.7","788.6","0.0"],
    [1511717,"2026-03-18 13:10:00","58214","3.577","70.36","4.769","72.45","1010.082","13.27","89.2","779.9","0.0"],
    [1511718,"2026-03-18 13:20:00","58215","3.582","59.61","4.704","75.53","1009.996","13.41","89.7","767.2","0.0"],
    [1511719,"2026-03-18 13:30:00","58216","3.8169999999999997","60.4","4.9","64.11","1009.976","13.44","89.7","755.0","0.0"],
    [1511720,"2026-03-18 13:40:00","58217","4.29","56.03","5.553","60.99","1009.826","13.47","88.3","741.8","0.0"],
    [1511721,"2026-03-18 13:50:00","58218","4.147","59.09","6.207000000000001","58.19","1009.855","13.57","87.0","724.5","0.0"],
    [1511722,"2026-03-18 14:00:00","58219","4.496","65.81","6.1739999999999995","61.19","1009.979","13.52","86.9","704.0","0.0"],
    [1511723,"2026-03-18 14:10:00","58220","4.587","61.46","6.86","69.61","1010.064","13.58","87.0","683.3","0.0"],
    [1511724,"2026-03-18 14:20:00","58221","5.13","63.64","7.121","71.64","1010.149","13.57","85.5","664.5","0.0"],
    [1511725,"2026-03-18 14:30:00","58222","5.572","68.19","7.546","72.94","1010.271","13.6","84.7","512.7","0.0"],
    [1511726,"2026-03-18 14:40:00","58223","6.364","67.94","7.807","63.84","1010.281","13.52","85.5","484.1","0.0"],
    [1511727,"2026-03-18 14:50:00","58224","6.0","68.06","7.0889999999999995","68.53","1010.356","13.56","85.2","535.1","0.0"],
    [1511728,"2026-03-18 15:00:00","58225","5.824","68.66","7.218999999999999","68.78","1010.447","13.66","85.3","581.8","0.0"],
    [1511729,"2026-03-18 15:10:00","58226","6.1","66.84","8.46","77.46","1010.564","13.74","85.5","519.6","0.0"],
    [1511730,"2026-03-18 15:20:00","58227","6.412999999999999","67.15","8.36","67.16","1010.631","13.74","86.4","342.2","0.0"],
    [1511731,"2026-03-18 15:30:00","58228","6.605","68.36","8.26","65.41","1010.722","13.7","87.3","222.1","0.0"],
    [1511732,"2026-03-18 15:40:00","58229","6.305","68.16","7.775","64.66","1010.868","13.8","88.0","341.9","0.0"],
    [1511733,"2026-03-18 15:50:00","58230","6.558","68.32","8.23","62.57","1010.9","13.85","87.6","340.9","0.0"],
    [1511734,"2026-03-18 16:00:00","58231","6.395","70.25","8.23","76.09","1011.026","13.97","86.4","327.4","0.0"],
    [1511735,"2026-03-18 16:10:00","58232","7.018","70.19","9.24","65.33","1011.058","14.01","86.2","299.0","0.0"],
    [1511736,"2026-03-18 16:20:00","58233","6.934","69.63","9.24","70.44","1011.102","14.14","86.5","259.6","0.0"],
    [1511737,"2026-03-18 16:30:00","58234","7.556","66.89","10.26","71.6","1011.22","14.13","87.4","237.2","0.0"],
    [1511738,"2026-03-18 16:40:00","58235","8.32","67.17","10.58","71.63","1011.353","14.19","85.6","219.2","0.0"],
    [1511739,"2026-03-18 16:50:00","58236","8.09","67.07","11.17","69.93","1011.61","14.14","86.0","114.5","0.0"],
    [1511740,"2026-03-18 17:00:00","58237","9.09","68.33","11.5","64.33","1011.695","14.04","86.5","65.66","0.0"],
    [1511741,"2026-03-18 17:10:00","58238","9.95","67.04","13.65","69.47","1011.624","14.05","86.4","54.92","0.0"],
    [1511742,"2026-03-18 17:20:00","58239","11.43","67.56","14.41","67.78","1011.644","14.05","84.9","48.24","0.0"],
    [1511743,"2026-03-18 17:30:00","58240","9.47","71.13","12.64","71.4","1012.005","14.19","84.4","53.25","0.0"],
    [1511744,"2026-03-18 17:40:00","58241","9.35","69.58","12.71","70.07","1012.143","14.13","85.8","23.7","0.0"],
    [1511745,"2026-03-18 17:50:00","58242","9.27","67.66","12.28","74.35","1012.295","14.11","86.8","11.75","0.0"],
    [1511746,"2026-03-18 18:00:00","58243","9.1","65.72","11.53","66.54","1012.446","14.08","87.0","3.918","0.0"],
    [1511747,"2026-03-18 18:10:00","58244","8.01","65.07","11.04","63.5","1012.518","14.12","87.7","0.5820000000000001","0.0"],
    [1511748,"2026-03-18 18:20:00","58245","8.29","56.4","11.27","48.1","1012.563","14.14","88.7","0.0","0.0"],
    [1511749,"2026-03-18 18:30:00","58246","8.08","55.0","11.07","60.47","1012.586","14.14","90.2","0.0","0.0"],
    [1511750,"2026-03-18 18:40:00","58247","7.362","54.01","10.68","65.17","1012.674","14.14","90.5","0.0","0.0"],
    [1511751,"2026-03-18 18:50:00","58248","7.871","57.13","11.66","47.13","1012.837","14.07","89.9","0.0","0.0"],
    [1511752,"2026-03-18 19:00:00","58249","7.49","58.41","10.09","52.17","1012.983","14.07","88.8","0.0","0.0"],
    [1511753,"2026-03-18 19:10:00","58250","7.18","60.4","9.31","51.15","1013.201","14.08","88.9","0.0","0.0"],
    [1511754,"2026-03-18 19:20:00","58251","6.813","60.27","9.44","75.91","1013.453","14.1","88.7","0.0","0.0"],
    [1511755,"2026-03-18 19:30:00","58252","6.894","56.29","9.96","62.27","1013.52","14.08","88.4","0.0","0.0"],
    [1511756,"2026-03-18 19:40:00","58253","6.438","52.13","10.68","45.04","1013.59","14.15","88.4","0.0","0.0"],
    [1511757,"2026-03-18 19:50:00","58254","8.89","69.49","12.64","73.3","1013.722","13.94","89.6","0.0","0.0"],
    [1511758,"2026-03-18 20:00:00","58255","9.83","78.5","13.49","85.5","1013.963","13.83","88.0","0.0","0.0"],
    [1511759,"2026-03-18 20:10:00","58256","9.39","77.13","13.16","71.33","1014.192","13.83","86.9","0.0","0.0"],
    [1511760,"2026-03-18 20:20:00","58257","9.26","78.05","11.76","77.28","1014.264","13.71","87.0","0.0","0.0"],
    [1511761,"2026-03-18 20:30:00","58258","9.13","75.01","11.47","75.07","1014.378","13.6","86.1","0.0","0.0"],
    [1511762,"2026-03-18 20:40:00","58259","8.38","74.67","11.43","84.2","1014.569","13.58","85.2","0.0","0.0"],
    [1511763,"2026-03-18 20:50:00","58260","9.14","69.74","12.54","64.89","1014.569","13.58","85.1","0.0","0.0"],
    [1511764,"2026-03-18 21:00:00","58261","8.6","70.53","10.78","70.83","1014.625","13.64","85.9","0.0","0.0"],
    [1511765,"2026-03-18 21:10:00","58262","9.37","66.07","12.41","68.1","1014.671","13.51","86.4","0.0","0.0"],
    [1511766,"2026-03-18 21:20:00","58263","8.48","60.18","11.56","54.28","1014.805","13.48","85.7","0.0","0.0"],
    [1511767,"2026-03-18 21:30:00","58264","8.29","62.86","11.89","72.24","1014.921","13.51","84.5","0.0","0.0"],
    [1511768,"2026-03-18 21:40:00","58265","7.831","61.26","10.49","65.92","1015.105","13.5","83.6","0.0","0.0"],
    [1511769,"2026-03-18 21:50:00","58266","9.92","67.52","12.18","69.84","1015.123","13.45","81.7","0.0","0.0"],
    [1511770,"2026-03-18 22:00:00","58267","8.93","66.47","11.96","71.77","1015.197","13.52","79.83","0.0","0.0"],
    [1511771,"2026-03-18 22:10:00","58268","8.51","63.82","11.37","65.77","1015.297","13.58","78.27","0.0","0.0"],
    [1511772,"2026-03-18 22:20:00","58269","8.72","62.25","10.88","69.03","1015.32","13.55","77.25","0.0","0.0"],
    [1511773,"2026-03-18 22:30:00","58270","8.8","61.27","11.83","67.08","1015.41","13.53","75.72","0.0","0.0"],
    [1511774,"2026-03-18 22:40:00","58271","9.01","65.49","12.71","66.61","1015.49","13.55","75.71","0.0","0.0"],
    [1511775,"2026-03-18 22:50:00","58272","9.27","67.65","12.15","68.91","1015.542","13.57","75.52","0.0","0.0"],
    [1511776,"2026-03-18 23:00:00","58273","9.4","68.07","12.25","66.27","1015.659","13.46","77.09","0.0","0.0"],
    [1511777,"2026-03-18 23:10:00","58274","9.42","75.09","13.07","88.4","1015.843","13.3","76.82","0.0","0.0"],
    [1511778,"2026-03-18 23:20:00","58275","9.13","76.94","11.66","72.71","1015.896","13.31","74.93","0.0","0.0"],
    [1511779,"2026-03-18 23:30:00","58276","8.83","71.86","11.47","67.35","1015.903","13.35","73.34","0.0","0.0"],
    [1511780,"2026-03-18 23:40:00","58277","9.53","72.45","12.15","64.41","1015.884","13.35","71.76","0.0","0.0"],
    [1511781,"2026-03-18 23:50:00","58278","8.17","75.03","11.11","82.7","1016.027","13.45","70.9","0.0","0.0"],
    [1511782,"2026-03-19 00:00:00","58279","9.76","71.99","12.41","70.68","1015.9","13.4","69.08","0.0","0.0"],
    [1511783,"2026-03-19 00:10:00","58280","9.21","75.24","11.79","71.57","1016.026","13.47","67.41","0.0","0.0"],
    [1511784,"2026-03-19 00:20:00","58281","8.33","68.32","11.53","68.13","1016.083","13.49","68.52","0.0","0.0"],
    [1511785,"2026-03-19 00:30:00","58282","9.03","66.97","11.27","69.89","1016.175","13.43","69.21","0.0","0.0"],
    [1511786,"2026-03-19 00:40:00","58283","7.89","66.63","10.68","68.9","1016.394","13.49","70.0","0.0","0.0"],
    [1511787,"2026-03-19 00:50:00","58284","7.6129999999999995","62.73","10.36","70.37","1016.501","13.46","70.86","0.0","0.0"],
    [1511788,"2026-03-19 01:00:00","58285","7.801","62.98","10.68","70.21","1016.456","13.48","71.35","0.0","0.0"],
    [1511789,"2026-03-19 01:10:00","58286","8.64","66.59","10.81","69.92","1016.446","13.46","70.47","0.0","0.0"],
    [1511790,"2026-03-19 01:20:00","58287","7.955","58.49","10.62","61.09","1016.429","13.53","70.92","0.0","0.0"],
    [1511791,"2026-03-19 01:30:00","58288","8.19","63.45","11.11","69.42","1016.438","13.47","71.57","0.0","0.0"],
    [1511792,"2026-03-19 01:40:00","58289","7.801","67.35","11.53","66.82","1016.344","13.49","72.09","0.0","0.0"],
    [1511793,"2026-03-19 01:50:00","58290","7.894","66.42","10.65","64.21","1016.324","13.44","72.06","0.0","0.0"],
    [1511794,"2026-03-19 02:00:00","58291","8.17","66.24","10.62","62.66","1016.313","13.44","71.77","0.0","0.0"],
    [1511795,"2026-03-19 02:10:00","58292","8.2","66.86","10.68","70.68","1016.274","13.46","70.41","0.0","0.0"],
    [1511796,"2026-03-19 02:20:00","58293","8.47","66.36","10.45","66.64","1016.198","13.45","70.57","0.0","0.0"],
    [1511797,"2026-03-19 02:30:00","58294","7.782","67.49","10.88","68.18","1016.086","13.4","71.37","0.0","0.0"],
    [1511798,"2026-03-19 02:40:00","58295","7.936","66.79","9.9","67.73","1016.017","13.41","71.81","0.0","0.0"],
    [1511799,"2026-03-19 02:50:00","58296","7.162999999999999","64.45","9.83","65.93","1016.052","13.42","71.48","0.0","0.0"],
    [1511800,"2026-03-19 03:00:00","58297","6.936","63.47","9.38","71.6","1016.061","13.43","72.15","0.0","0.0"],
    [1511801,"2026-03-19 03:10:00","58298","7.138999999999999","70.41","9.15","70.23","1016.052","13.37","70.87","0.0","0.0"],
    [1511802,"2026-03-19 03:20:00","58299","6.808","64.74","10.09","346.5","1016.049","13.37","70.38","0.0","0.0"],
    [1511803,"2026-03-19 03:30:00","58300","6.296","63.47","8.85","67.31","1016.007","13.44","69.15","0.0","0.0"],
    [1511804,"2026-03-19 03:40:00","58301","6.922999999999999","50.07","9.34","42.48","1015.948","13.34","71.66","0.0","0.0"],
    [1511805,"2026-03-19 03:50:00","58302","7.354","55.1","10.36","57.57","1015.888","13.42","71.03","0.0","0.0"],
    [1511806,"2026-03-19 04:00:00","58303","7.182","54.7","9.44","58.75","1015.855","13.47","70.53","0.0","0.0"],
    [1511807,"2026-03-19 04:10:00","58304","7.972","46.0","10.39","48.95","1015.796","13.4","71.75","0.0","0.0"],
    [1511808,"2026-03-19 04:20:00","58305","7.976","45.07","10.19","40.73","1015.705","13.35","71.2","0.0","0.0"],
    [1511809,"2026-03-19 04:30:00","58306","7.574","48.57","9.7","49.92","1015.664","13.34","70.95","0.0","0.0"],
    [1511810,"2026-03-19 04:40:00","58307","6.895","53.65","10.26","45.94","1015.665","13.32","70.23","0.0","0.0"],
    [1511811,"2026-03-19 04:50:00","58308","7.3020000000000005","52.2","10.19","59.08","1015.667","13.33","70.5","0.0","0.0"],
    [1511812,"2026-03-19 05:00:00","58309","7.225","34.65","9.51","39.86","1015.814","13.11","71.7","0.0","0.0"],
    [1511813,"2026-03-19 05:10:00","58310","7.295","36.75","9.34","37.44","1015.911","13.07","72.62","0.0","0.0"],
    [1511814,"2026-03-19 05:20:00","58311","7.437","28.9","8.95","35.14","1016.037","12.94","72.36","0.0","0.0"],
    [1511815,"2026-03-19 05:30:00","58312","7.425","29.01","9.18","28.48","1016.081","12.93","71.39","0.0","0.0"],
    [1511816,"2026-03-19 05:40:00","58313","7.117999999999999","30.71","8.85","38.27","1016.084","12.95","70.6","0.0","0.0"],
    [1511817,"2026-03-19 05:50:00","58314","7.18","29.46","8.33","28.35","1016.094","12.94","69.87","0.0","0.0"],
    [1511818,"2026-03-19 06:00:00","58315","7.145","29.9","8.53","27.48","1016.143","12.94","69.03","1.197","0.0"],
    [1511819,"2026-03-19 06:10:00","58316","6.824","33.68","8.33","28.4","1016.191","12.96","69.22","5.475","0.0"],
    [1511820,"2026-03-19 06:20:00","58317","6.587999999999999","34.59","8.72","42.78","1016.336","12.98","69.46","14.95","0.0"],
    [1511821,"2026-03-19 06:30:00","58318","5.398","23.42","7.187","42.34","1016.53","12.87","69.31","23.09","0.0"],
    [1511822,"2026-03-19 06:40:00","58319","5.053999999999999","24.65","6.337000000000001","29.34","1016.596","12.83","68.19","39.33","0.0"],
    [1511823,"2026-03-19 06:50:00","58320","5.332999999999999","21.75","7.35","26.91","1016.65","12.95","68.83","85.8","0.0"],
    [1511824,"2026-03-19 07:00:00","58321","5.994","30.89","7.971","29.11","1016.651","13.09","69.54","114.8","0.0"],
    [1511825,"2026-03-19 07:10:00","58322","5.952000000000001","28.34","7.872999999999999","32.33","1016.706","13.05","70.06","77.83","0.0"],
    [1511826,"2026-03-19 07:20:00","58323","6.4510000000000005","36.35","8.49","39.98","1016.737","13.07","70.8","150.0","0.0"],
    [1511827,"2026-03-19 07:30:00","58324","7.098","37.88","8.75","39.9","1016.759","13.09","70.31","200.2","0.0"],
    [1511828,"2026-03-19 07:40:00","58325","7.229","36.93","8.49","39.69","1016.836","13.16","69.83","253.1","0.0"],
    [1511829,"2026-03-19 07:50:00","58326","7.327999999999999","37.08","9.11","38.73","1017.008","13.22","69.68","289.5","0.0"],
    [1511830,"2026-03-19 08:00:00","58327","7.225","31.81","9.11","23.08","1017.269","13.27","69.3","274.4","0.0"],
    [1511831,"2026-03-19 08:10:00","58328","6.542999999999999","29.03","8.72","34.11","1017.448","13.24","67.85","377.6","0.0"],
    [1511832,"2026-03-19 08:20:00","58329","4.734","22.5","7.0889999999999995","26.11","1017.653","13.3","67.42","304.9","0.0"],
    [1511833,"2026-03-19 08:30:00","58330","5.635","27.91","7.252000000000001","27.77","1017.755","13.29","67.88","461.6","0.0"],
    [1511834,"2026-03-19 08:40:00","58331","6.102","29.52","7.218999999999999","32.88","1017.793","13.27","68.81","515.4","0.0"],
    [1511835,"2026-03-19 08:50:00","58332","6.15","31.74","7.644","31.26","1017.814","13.34","70.66","419.2","0.0"],
    [1511836,"2026-03-19 09:00:00","58333","7.152","37.51","9.21","32.44","1017.893","13.31","72.15","390.0","0.0"],
    [1511837,"2026-03-19 09:10:00","58334","6.492000000000001","33.54","8.2","45.32","1017.984","13.36","72.98","336.1","0.0"],
    [1511838,"2026-03-19 09:20:00","58335","7.675","33.21","9.6","37.98","1017.993","13.27","74.61","278.7","0.0"],
    [1511839,"2026-03-19 09:30:00","58336","7.19","34.89","9.77","37.77","1018.016","13.07","75.44","116.9","0.0"],
    [1511840,"2026-03-19 09:40:00","58337","5.474","31.05","7.187","39.39","1018.044","12.9","76.37","47.43","0.0"],
    [1511841,"2026-03-19 09:50:00","58338","6.4670000000000005","32.2","8.49","22.54","1018.036","13.14","75.48","46.79","0.0"],
    [1511842,"2026-03-19 10:00:00","58339","6.702999999999999","39.34","8.4","35.2","1018.03","13.34","75.0","55.92","0.0"],
    [1511843,"2026-03-19 10:10:00","58340","6.471","42.72","7.905","51.73","1017.999","13.37","75.41","79.87","0.0"],
    [1511844,"2026-03-19 10:20:00","58341","6.3389999999999995","42.15","8.0","31.18","1018.019","13.38","76.48","108.9","0.0"],
    [1511845,"2026-03-19 10:30:00","58342","6.534","37.99","8.33","41.44","1018.039","13.33","76.76","137.6","0.0"],
    [1511846,"2026-03-19 10:40:00","58343","5.641","38.04","7.187","41.81","1018.05","13.47","76.95","171.3","0.0"],
    [1511847,"2026-03-19 10:50:00","58344","5.7139999999999995","53.38","7.84","59.08","1018.004","13.63","74.3","266.0","0.0"],
    [1511848,"2026-03-19 11:00:00","58345","6.147","57.55","8.69","56.47","1017.95","13.9","68.27","352.2","0.0"],
    [1511849,"2026-03-19 11:10:00","58346","5.997000000000001","62.46","8.43","72.17","1017.953","13.99","67.03","498.6","0.0"],
    [1511850,"2026-03-19 11:20:00","58347","6.4639999999999995","42.13","8.2","36.59","1017.889","13.97","70.84","560.9","0.0"],
    [1511851,"2026-03-19 11:30:00","58348","7.295","40.34","8.36","37.09","1017.882","13.73","72.77","564.6","0.0"],
    [1511852,"2026-03-19 11:40:00","58349","6.875","40.57","8.3","42.78","1018.016","13.74","72.47","417.6","0.0"],
    [1511853,"2026-03-19 11:50:00","58350","6.276","42.95","8.04","42.88","1018.042","13.82","71.24","413.3","0.0"],
    [1511854,"2026-03-19 12:00:00","58351","6.002000000000001","42.93","8.0","42.39","1017.994","13.83","71.02","405.1","0.0"],
    [1511855,"2026-03-19 12:10:00","58352","6.007000000000001","41.94","7.252000000000001","44.93","1017.962","13.8","70.52","316.8","0.0"],
    [1511856,"2026-03-19 12:20:00","58353","5.457000000000001","45.28","6.925","44.66","1017.98","13.81","70.55","261.4","0.0"],
    [1511857,"2026-03-19 12:30:00","58354","5.192","40.29","6.566","38.66","1018.04","13.86","71.32","228.1","0.0"],
    [1511858,"2026-03-19 12:40:00","58355","5.01","36.68","6.501","37.93","1018.004","13.86","71.65","291.2","0.0"],
    [1511859,"2026-03-19 12:50:00","58356","4.808","37.93","6.337000000000001","37.79","1017.886","13.89","71.63","410.2","0.0"],
    [1511860,"2026-03-19 13:00:00","58357","4.735","38.26","6.37","40.79","1017.773","13.86","71.84","317.2","0.0"],
    [1511861,"2026-03-19 13:10:00","58358","4.583","41.74","6.501","47.89","1017.576","13.88","71.96","458.6","0.0"],
    [1511862,"2026-03-19 13:20:00","58359","4.531000000000001","44.71","6.403","48.24","1017.467","14.02","71.39","668.2","0.0"],
    [1511863,"2026-03-19 13:30:00","58360","5.035","38.1","6.599","36.19","1017.385","13.93","71.89","276.1","0.0"],
    [1511864,"2026-03-19 13:40:00","58361","5.038","35.74","6.7620000000000005","39.2","1017.346","13.84","72.35","115.5","0.0"],
    [1511865,"2026-03-19 13:50:00","58362","5.5489999999999995","37.01","6.893","34.08","1017.294","13.76","72.44","91.3","0.0"],
    [1511866,"2026-03-19 14:00:00","58363","5.827000000000001","34.9","7.546","36.17","1017.202","13.75","71.8","104.1","0.0"],
    [1511867,"2026-03-19 14:10:00","58364","5.827000000000001","30.4","7.382999999999999","26.9","1017.16","13.74","71.17","108.3","0.0"],
    [1511868,"2026-03-19 14:20:00","58365","5.0969999999999995","29.84","7.35","30.97","1017.17","13.78","70.19","88.7","0.0"],
    [1511869,"2026-03-19 14:30:00","58366","5.595","32.87","6.86","31.26","1017.06","13.79","69.84","95.8","0.0"],
    [1511870,"2026-03-19 14:40:00","58367","5.835","32.36","7.0889999999999995","27.45","1016.952","13.8","69.55","103.1","0.0"],
    [1511871,"2026-03-19 14:50:00","58368","5.551","30.81","7.056","29.62","1016.859","13.84","70.19","131.4","0.0"],
    [1511872,"2026-03-19 15:00:00","58369","5.696000000000001","35.4","7.023","36.46","1016.75","13.82","70.76","141.3","0.0"],
    [1511873,"2026-03-19 15:10:00","58370","5.439","32.38","7.317","30.6","1016.686","13.85","71.06","136.8","0.0"],
    [1511874,"2026-03-19 15:20:00","58371","5.3839999999999995","33.95","6.9910000000000005","40.06","1016.702","13.81","70.9","164.7","0.0"],
    [1511875,"2026-03-19 15:30:00","58372","5.21","33.16","6.925","32.44","1016.648","13.86","70.82","155.9","0.0"],
    [1511876,"2026-03-19 15:40:00","58373","5.088","35.19","6.435","29.06","1016.577","13.86","70.67","182.0","0.0"],
    [1511877,"2026-03-19 15:50:00","58374","5.249","36.36","6.9910000000000005","40.63","1016.551","13.85","70.98","163.7","0.0"],
    [1511878,"2026-03-19 16:00:00","58375","5.3260000000000005","35.88","6.599","33.25","1016.581","13.83","71.03","173.2","0.0"],
    [1511879,"2026-03-19 16:10:00","58376","5.147","34.2","7.023","31.7","1016.616","13.83","71.39","163.8","0.0"],
    [1511880,"2026-03-19 16:20:00","58377","4.801","34.65","6.272","34.65","1016.554","13.88","72.05","202.3","0.0"],
    [1511881,"2026-03-19 16:30:00","58378","5.428999999999999","30.36","7.382999999999999","4.067","1016.492","13.85","72.57","130.3","0.0"],
    [1511882,"2026-03-19 16:40:00","58379","5.148","32.05","7.121","31.99","1016.536","13.81","72.17","125.5","0.0"],
    [1511883,"2026-03-19 16:50:00","58380","5.228","31.78","6.435","28.93","1016.503","13.86","71.99","165.4","0.0"],
    [1511884,"2026-03-19 17:00:00","58381","5.528","39.99","6.925","41.92","1016.553","13.86","72.14","147.4","0.0"],
    [1511885,"2026-03-19 17:10:00","58382","4.739","37.41","6.0760000000000005","39.33","1016.689","13.88","71.99","83.6","0.0"],
    [1511886,"2026-03-19 17:20:00","58383","5.193","39.78","6.272","35.86","1016.768","13.85","72.56","48.75","0.0"],
    [1511887,"2026-03-19 17:30:00","58384","4.84","45.69","6.337000000000001","38.96","1016.838","13.86","72.92","28.35","0.0"],
    [1511888,"2026-03-19 17:40:00","58385","4.034","50.88","5.651","49.55","1016.889","13.9","72.47","24.14","0.0"],
    [1511889,"2026-03-19 17:50:00","58386","4.601","44.79","5.945","45.88","1016.885","13.84","72.33","16.73","0.0"],
    [1511890,"2026-03-19 18:00:00","58387","4.467","40.32","5.815","43.9","1016.884","13.83","73.08","7.874","0.0"],
    [1511891,"2026-03-19 18:10:00","58388","4.9","44.05","6.042999999999999","47.96","1016.949","13.79","72.86","1.501","0.0"],
    [1511892,"2026-03-19 18:20:00","58389","4.647","46.43","5.945","43.39","1017.051","13.8","72.08","0.0","0.0"],
    [1511893,"2026-03-19 18:30:00","58390","4.145","43.42","5.978","42.28","1017.071","13.83","71.93","0.0","0.0"],
    [1511894,"2026-03-19 18:40:00","58391","4.749","45.87","6.1739999999999995","45.38","1017.066","13.74","70.76","0.0","0.0"],
    [1511895,"2026-03-19 18:50:00","58392","4.243","40.23","5.227","40.44","1017.154","13.8","70.83","0.0","0.0"],
    [1511896,"2026-03-19 19:00:00","58393","3.971","29.34","4.965","31.65","1017.21","13.71","71.4","0.0","0.0"],
    [1511897,"2026-03-19 19:10:00","58394","3.411","29.15","4.247","28.65","1017.17","13.64","71.37","0.0","0.0"],
    [1511898,"2026-03-19 19:20:00","58395","3.327","27.68","4.051","23.91","1017.182","13.65","70.66","0.0","0.0"],
    [1511899,"2026-03-19 19:30:00","58396","3.273","30.42","4.018","32.72","1017.241","13.61","70.29","0.0","0.0"],
    [1511900,"2026-03-19 19:40:00","58397","2.6239999999999997","28.99","3.365","16.21","1017.261","13.6","70.02","0.0","0.0"],
    [1511901,"2026-03-19 19:50:00","58398","2.451","27.09","3.136","18.88","1017.302","13.58","70.48","0.0","0.0"],
    [1511902,"2026-03-19 20:00:00","58399","2.238","23.48","2.7769999999999997","21.35","1017.365","13.57","70.33","0.0","0.0"],
    [1511903,"2026-03-19 20:10:00","58400","2.033","24.47","2.613","28.56","1017.464","13.54","69.8","0.0","0.0"],
    [1511904,"2026-03-19 20:20:00","58401","1.635","21.22","2.385","27.13","1017.54","13.54","69.08","0.0","0.0"],
    [1511905,"2026-03-19 20:30:00","58402","1.5959999999999999","22.81","2.0909999999999997","19.48","1017.562","13.53","68.5","0.0","0.0"],
    [1511906,"2026-03-19 20:40:00","58403","2.064","20.3","2.515","23.67","1017.602","13.55","68.35","0.0","0.0"],
    [1511907,"2026-03-19 20:50:00","58404","2.423","25.99","2.842","21.24","1017.627","13.53","68.17","0.0","0.0"],
    [1511908,"2026-03-19 21:00:00","58405","2.444","21.8","2.907","25.45","1017.588","13.56","68.22","0.0","0.0"],
    [1511909,"2026-03-19 21:10:00","58406","2.6460000000000004","9.29","3.43","11.22","1017.617","13.5","68.48","0.0","0.0"],
    [1511910,"2026-03-19 21:20:00","58407","3.405","9.05","4.018","13.18","1017.665","13.42","67.73","0.0","0.0"],
    [1511911,"2026-03-19 21:30:00","58408","2.456","359.2","3.5610000000000004","10.46","1017.698","13.43","67.34","0.0","0.0"],
    [1511912,"2026-03-19 21:40:00","58409","2.095","358.9","2.7769999999999997","349.3","1017.674","13.29","67.32","0.0","0.0"],
    [1511913,"2026-03-19 21:50:00","58410","2.294","359.3","3.071","5.155","1017.701","13.2","67.2","0.0","0.0"],
    [1511914,"2026-03-19 22:00:00","58411","2.44","353.0","3.855","352.1","1017.732","13.16","66.98","0.0","0.0"],
    [1511915,"2026-03-19 22:10:00","58412","2.214","357.1","3.267","6.242000000000001","1017.603","13.11","67.28","0.0","0.0"],
    [1511916,"2026-03-19 22:20:00","58413","2.185","358.0","3.463","0.42100000000000004","1017.568","13.08","67.69","0.0","0.0"],
    [1511917,"2026-03-19 22:30:00","58414","2.32","357.0","3.136","0.195","1017.54","13.03","67.64","0.0","0.0"],
    [1511918,"2026-03-19 22:40:00","58415","2.615","355.4","3.43","12.41","1017.453","12.97","67.44","0.0","0.0"],
    [1511919,"2026-03-19 22:50:00","58416","2.423","351.4","3.299","351.1","1017.455","12.89","67.39","0.0","0.0"],
    [1511920,"2026-03-19 23:00:00","58417","1.815","344.6","2.6460000000000004","336.5","1017.481","12.84","67.17","0.0","0.0"],
    [1511921,"2026-03-19 23:10:00","58418","1.982","345.6","2.875","347.7","1017.435","12.72","67.82","0.0","0.0"],
    [1511922,"2026-03-19 23:20:00","58419","1.868","357.7","2.875","347.4","1017.4","12.69","67.57","0.0","0.0"],
    [1511923,"2026-03-19 23:30:00","58420","2.82","7.575","4.1160000000000005","6.144","1017.329","12.74","66.72","0.0","0.0"],
    [1511924,"2026-03-19 23:40:00","58421","2.925","5.794","3.9530000000000003","18.04","1017.25","12.68","65.34","0.0","0.0"],
    [1511925,"2026-03-19 23:50:00","58422","2.5980000000000003","0.608","3.397","7.522","1017.133","12.74","65.22","0.0","0.0"],
    [1511926,"2026-03-20 00:00:00","58423","3.022","357.1","4.475","5.295","1017.082","12.63","64.58","0.0","0.0"],
    [1511927,"2026-03-20 00:10:00","58424","2.992","3.679","3.887","354.3","1016.966","12.61","63.79","0.0","0.0"],
    [1511928,"2026-03-20 00:20:00","58425","2.67","3.702","3.7889999999999997","8.3","1016.941","12.64","63.8","0.0","0.0"],
    [1511929,"2026-03-20 00:30:00","58426","2.58","1.87","3.659","351.7","1016.899","12.57","62.79","0.0","0.0"],
    [1511930,"2026-03-20 00:40:00","58427","2.67","1.058","3.6910000000000003","2.033","1016.831","12.65","62.02","0.0","0.0"],
    [1511931,"2026-03-20 00:50:00","58428","2.81","344.8","4.1160000000000005","341.2","1016.737","12.55","60.49","0.0","0.0"],
    [1511932,"2026-03-20 01:00:00","58429","2.147","345.5","2.842","349.8","1016.655","12.42","60.75","0.0","0.0"],
    [1511933,"2026-03-20 01:10:00","58430","2.536","357.2","4.312","353.7","1016.682","12.48","60.27","0.0","0.0"],
    [1511934,"2026-03-20 01:20:00","58431","2.719","353.8","4.018","7.659","1016.665","12.51","59.17","0.0","0.0"],
    [1511935,"2026-03-20 01:30:00","58432","2.8080000000000003","341.0","3.7569999999999997","321.0","1016.61","12.06","59.89","0.0","0.0"],
    [1511936,"2026-03-20 01:40:00","58433","2.3369999999999997","344.7","2.842","342.8","1016.594","11.97","58.85","0.0","0.0"],
    [1511937,"2026-03-20 01:50:00","58434","2.269","339.6","3.005","339.7","1016.497","11.92","59.08","0.0","0.0"],
    [1511938,"2026-03-20 02:00:00","58435","2.258","329.0","3.267","333.5","1016.37","11.8","59.32","0.0","0.0"],
    [1511939,"2026-03-20 02:10:00","58436","1.87","271.6","2.5810000000000004","267.9","1016.246","11.11","62.15","0.0","0.0"],
    [1511940,"2026-03-20 02:20:00","58437","1.005","290.3","1.666","302.7","1016.144","11.08","62.02","0.0","0.0"],
    [1511941,"2026-03-20 02:30:00","58438","0.99","305.0","2.123","336.8","1016.042","10.9","62.87","0.0","0.0"],
    [1511942,"2026-03-20 02:40:00","58439","0.7090000000000001","300.8","1.274","326.3","1015.977","10.99","61.13","0.0","0.0"],
    [1511943,"2026-03-20 02:50:00","58440","0.67","278.2","1.764","272.5","1015.936","11.06","59.42","0.0","0.0"],
    [1511944,"2026-03-20 03:00:00","58441","1.216","273.0","1.8619999999999999","262.9","1015.881","10.68","61.6","0.0","0.0"],
    [1511945,"2026-03-20 03:10:00","58442","2.326","260.1","2.8089999999999997","261.7","1015.933","9.96","67.31","0.0","0.0"],
    [1511946,"2026-03-20 03:20:00","58443","2.424","256.3","2.94","257.6","1015.934","9.65","69.65","0.0","0.0"],
    [1511947,"2026-03-20 03:30:00","58444","2.01","252.5","2.7439999999999998","249.0","1015.995","9.57","70.02","0.0","0.0"],
    [1511948,"2026-03-20 03:40:00","58445","2.0269999999999997","253.7","2.679","253.7","1015.974","9.53","69.76","0.0","0.0"],
    [1511949,"2026-03-20 03:50:00","58446","2.1719999999999997","257.0","2.907","247.8","1015.98","9.48","69.69","0.0","0.0"],
    [1511950,"2026-03-20 04:00:00","58447","2.477","264.2","3.201","268.7","1016.006","9.1","71.11","0.0","0.0"],
    [1511951,"2026-03-20 04:10:00","58448","2.3169999999999997","271.6","2.875","263.5","1015.976","8.89","72.28","0.0","0.0"],
    [1511952,"2026-03-20 04:20:00","58449","2.167","267.2","2.483","264.1","1015.952","8.99","72.45","0.0","0.0"],
    [1511953,"2026-03-20 04:30:00","58450","2.237","270.3","2.613","272.4","1015.933","9.15","72.59","0.0","0.0"],
    [1511954,"2026-03-20 04:40:00","58451","2.271","255.6","3.201","252.0","1016.015","9.09","72.57","0.0","0.0"],
    [1511955,"2026-03-20 04:50:00","58452","2.351","257.9","3.234","254.1","1016.108","8.91","71.86","0.0","0.0"],
    [1511956,"2026-03-20 05:00:00","58453","2.531","259.9","3.0380000000000003","258.0","1016.184","8.84","70.52","0.0","0.0"],
    [1511957,"2026-03-20 05:10:00","58454","2.545","260.2","2.907","258.1","1016.207","8.81","69.32","0.0","0.0"],
    [1511958,"2026-03-20 05:20:00","58455","2.225","272.6","2.548","269.8","1016.189","8.78","69.22","0.0","0.0"],
    [1511959,"2026-03-20 05:30:00","58456","1.919","274.3","2.679","289.3","1016.209","9.0","68.89","0.0","0.0"],
    [1511960,"2026-03-20 05:40:00","58457","1.359","281.6","2.0580000000000003","273.1","1016.237","9.38","66.66","0.0","0.0"],
    [1511961,"2026-03-20 05:50:00","58458","1.155","297.3","1.666","300.9","1016.261","9.86","62.43","0.057","0.0"],
    [1511962,"2026-03-20 06:00:00","58459","0.9390000000000001","313.2","1.535","301.6","1016.34","10.12","59.43","3.2910000000000004","0.0"],
    [1511963,"2026-03-20 06:10:00","58460","1.1909999999999998","299.1","2.025","311.7","1016.289","10.2","57.33","12.7","0.0"],
    [1511964,"2026-03-20 06:20:00","58461","1.555","291.1","2.613","269.5","1016.334","10.24","55.88","24.22","0.0"],
    [1511965,"2026-03-20 06:30:00","58462","2.991","271.7","4.018","271.4","1016.395","9.63","58.23","52.39","0.0"],
    [1511966,"2026-03-20 06:40:00","58463","2.908","263.7","3.7569999999999997","263.1","1016.393","9.07","62.16","79.44","0.0"],
    [1511967,"2026-03-20 06:50:00","58464","2.9960000000000004","261.9","3.495","258.2","1016.429","9.14","62.75","109.3","0.0"],
    [1511968,"2026-03-20 07:00:00","58465","2.767","260.9","3.5610000000000004","257.0","1016.433","9.18","63.03","139.2","0.0"],
    [1511969,"2026-03-20 07:10:00","58466","2.5580000000000003","260.3","3.0380000000000003","260.1","1016.459","9.48","61.91","170.6","0.0"],
    [1511970,"2026-03-20 07:20:00","58467","2.3819999999999997","259.8","3.0380000000000003","257.2","1016.494","9.83","60.1","202.9","0.0"],
    [1511971,"2026-03-20 07:30:00","58468","1.869","264.8","2.483","260.5","1016.456","10.14","58.86","234.6","0.0"],
    [1511972,"2026-03-20 07:40:00","58469","0.654","259.5","1.666","281.0","1016.53","10.89","56.58","264.5","0.0"],
    [1511973,"2026-03-20 07:50:00","58470","0.10800000000000001","270.1","0.6859999999999999","274.4","1016.509","11.54","54.3","292.8","0.0"],
    [1511974,"2026-03-20 08:00:00","58471","0.465","294.3","1.209","287.8","1016.584","12.08","51.26","322.0","0.0"],
    [1511975,"2026-03-20 08:10:00","58472","0.156","273.5","0.915","270.7","1016.672","12.74","48.53","352.8","0.0"],
    [1511976,"2026-03-20 08:20:00","58473","1.006","4.539","2.94","19.1","1016.748","13.74","43.04","385.8","0.0"],
    [1511977,"2026-03-20 08:30:00","58474","2.715","14.96","3.071","14.24","1016.776","13.44","39.51","428.1","0.0"],
    [1511978,"2026-03-20 08:40:00","58475","2.2319999999999998","17.16","2.9730000000000003","20.41","1016.81","13.59","39.11","459.0","0.0"],
    [1511979,"2026-03-20 08:50:00","58476","2.055","16.32","2.613","17.79","1016.946","13.7","38.69","490.8","0.0"],
    [1511980,"2026-03-20 09:00:00","58477","1.65","35.99","3.299","41.98","1017.075","13.99","39.63","519.7","0.0"],
    [1511981,"2026-03-20 09:10:00","58478","1.454","42.69","3.103","24.43","1017.112","14.23","42.37","549.4","0.0"],
    [1511982,"2026-03-20 09:20:00","58479","1.855","31.37","3.103","30.23","1017.148","14.04","43.6","579.0","0.0"],
    [1511983,"2026-03-20 09:30:00","58480","2.0709999999999997","34.25","3.7239999999999998","45.96","1017.15","14.09","43.84","606.9","0.0"],
    [1511984,"2026-03-20 09:40:00","58481","1.262","48.75","2.7439999999999998","30.99","1017.254","14.34","44.12","631.5","0.0"],
    [1511985,"2026-03-20 09:50:00","58482","1.4480000000000002","66.91","2.613","89.6","1017.292","14.33","45.53","656.1","0.0"],
    [1511986,"2026-03-20 10:00:00","58483","1.3940000000000001","34.82","2.548","30.97","1017.31","14.27","46.79","678.4","0.0"],
    [1511987,"2026-03-20 10:10:00","58484","1.472","47.02","3.1689999999999996","29.73","1017.297","14.66","46.45","699.0","0.0"],
    [1511988,"2026-03-20 10:20:00","58485","1.669","29.67","2.7439999999999998","21.92","1017.324","15.33","46.34","717.2","0.0"],
    [1511989,"2026-03-20 10:30:00","58486","2.088","31.72","3.6260000000000003","19.48","1017.334","15.5","46.09","735.7","0.0"],
    [1511990,"2026-03-20 10:40:00","58487","1.611","28.43","3.1689999999999996","41.12","1017.333","14.98","46.41","751.1","0.0"],
    [1511991,"2026-03-20 10:50:00","58488","1.3940000000000001","54.57","3.43","20.82","1017.312","14.63","48.92","763.1","0.0"],
    [1511992,"2026-03-20 11:00:00","58489","1.945","26.99","3.136","36.74","1017.257","14.24","51.88","776.8","0.0"],
    [1511993,"2026-03-20 11:10:00","58490","2.1069999999999998","28.19","3.6910000000000003","47.45","1017.195","14.08","53.72","788.9","0.0"],
    [1511994,"2026-03-20 11:20:00","58491","2.1319999999999997","42.31","4.181","44.14","1017.165","14.14","54.9","798.8","0.0"],
    [1511995,"2026-03-20 11:30:00","58492","2.065","42.22","4.051","23.19","1017.148","14.29","54.7","806.0","0.0"],
    [1511996,"2026-03-20 11:40:00","58493","2.657","30.47","4.638999999999999","25.49","1017.07","14.34","53.67","807.0","0.0"],
    [1511997,"2026-03-20 11:50:00","58494","2.937","31.7","4.998","32.56","1016.997","14.36","52.9","815.0","0.0"],
    [1511998,"2026-03-20 12:00:00","58495","3.403","28.27","6.566","39.54","1016.956","14.49","51.41","817.0","0.0"],
    [1511999,"2026-03-20 12:10:00","58496","3.431","31.39","5.619","38.99","1016.855","14.59","49.11","818.0","0.0"],
    [1512000,"2026-03-20 12:20:00","58497","3.6919999999999997","28.86","6.337000000000001","45.78","1016.739","14.62","47.51","816.0","0.0"],
    [1512001,"2026-03-20 12:30:00","58498","3.384","24.47","5.88","30.19","1016.664","14.7","47.2","812.0","0.0"],
    [1512002,"2026-03-20 12:40:00","58499","4.011","30.17","6.1739999999999995","27.69","1016.628","14.64","48.98","808.0","0.0"],
    [1512003,"2026-03-20 12:50:00","58500","4.13","30.38","6.239","26.07","1016.564","14.57","50.74","800.0","0.0"],
    [1512004,"2026-03-20 13:00:00","58501","4.48","33.84","6.468","34.79","1016.369","14.5","51.84","791.5","0.0"],
    [1512005,"2026-03-20 13:10:00","58502","4.521","31.91","6.925","30.3","1016.164","14.42","54.29","780.4","0.0"],
    [1512006,"2026-03-20 13:20:00","58503","4.313","32.1","6.042999999999999","37.74","1016.063","14.43","55.63","769.1","0.0"],
    [1512007,"2026-03-20 13:30:00","58504","4.0889999999999995","33.21","6.305","32.65","1015.932","14.46","57.27","755.4","0.0"],
    [1512008,"2026-03-20 13:40:00","58505","4.422","31.62","6.566","28.21","1015.83","14.41","59.03","741.5","0.0"],
    [1512009,"2026-03-20 13:50:00","58506","4.359","30.86","6.435","26.59","1015.723","14.37","60.78","725.0","0.0"],
    [1512010,"2026-03-20 14:00:00","58507","4.255","29.82","6.37","33.61","1015.74","14.36","62.15","706.1","0.0"],
    [1512011,"2026-03-20 14:10:00","58508","4.019","30.09","6.566","35.63","1015.733","14.37","63.5","687.5","0.0"],
    [1512012,"2026-03-20 14:20:00","58509","3.682","30.45","5.815","25.0","1015.651","14.39","64.83","665.5","0.0"],
    [1512013,"2026-03-20 14:30:00","58510","3.9219999999999997","31.02","5.945","27.25","1015.522","14.32","65.92","643.9","0.0"],
    [1512014,"2026-03-20 14:40:00","58511","3.638","28.22","5.978","35.09","1015.467","14.35","66.23","619.2","0.0"],
    [1512015,"2026-03-20 14:50:00","58512","2.846","26.74","4.867","27.01","1015.422","14.4","66.79","591.8","0.0"],
    [1512016,"2026-03-20 15:00:00","58513","2.714","26.74","4.606","21.61","1015.388","14.41","67.36","565.1","0.0"],
    [1512017,"2026-03-20 15:10:00","58514","1.5190000000000001","30.66","3.887","17.58","1015.293","14.5","67.36","533.5","0.0"],
    [1512018,"2026-03-20 15:20:00","58515","2.504","23.66","4.475","22.29","1015.251","14.46","67.04","507.6","0.0"],
    [1512019,"2026-03-20 15:30:00","58516","1.757","46.83","3.659","27.64","1015.211","14.46","67.43","477.8","0.0"],
    [1512020,"2026-03-20 15:40:00","58517","1.5530000000000002","48.77","3.7569999999999997","20.26","1015.066","14.46","67.58","446.3","0.0"],
    [1512021,"2026-03-20 15:50:00","58518","2.54","28.85","4.083","40.73","1014.952","14.46","67.93","413.0","0.0"],
    [1512022,"2026-03-20 16:00:00","58519","2.405","30.89","3.9530000000000003","26.32","1014.932","14.35","68.18","372.9","0.0"],
    [1512023,"2026-03-20 16:10:00","58520","1.8159999999999998","34.97","4.1160000000000005","25.8","1014.859","14.4","68.28","315.7","0.0"],
    [1512024,"2026-03-20 16:20:00","58521","1.666","65.79","3.6260000000000003","77.59","1014.809","14.37","68.3","291.4","0.0"],
    [1512025,"2026-03-20 16:30:00","58522","2.023","61.11","3.6910000000000003","32.61","1014.758","14.36","68.98","257.5","0.0"],
    [1512026,"2026-03-20 16:40:00","58523","2.3890000000000002","82.7","3.6910000000000003","84.2","1014.794","14.2","70.09","170.6","0.0"],
    [1512027,"2026-03-20 16:50:00","58524","2.545","81.3","3.5610000000000004","92.1","1014.797","14.13","70.95","171.6","0.0"],
    [1512028,"2026-03-20 17:00:00","58525","1.985","75.35","3.887","83.7","1014.772","14.14","71.49","157.7","0.0"],
    [1512029,"2026-03-20 17:10:00","58526","1.401","55.85","3.201","24.73","1014.804","14.21","72.07","136.0","0.0"],
    [1512030,"2026-03-20 17:20:00","58527","2.356","55.11","4.4430000000000005","26.1","1014.788","14.07","72.48","65.01","0.0"],
    [1512031,"2026-03-20 17:30:00","58528","2.367","72.61","2.9730000000000003","76.65","1014.847","13.92","73.42","32.97","0.0"],
    [1512032,"2026-03-20 17:40:00","58529","2.717","70.35","3.7889999999999997","58.3","1014.871","13.86","74.35","24.82","0.0"],
    [1512033,"2026-03-20 17:50:00","58530","2.305","66.17","3.234","66.03","1014.939","13.83","75.2","12.4","0.0"],
    [1512034,"2026-03-20 18:00:00","58531","2.0580000000000003","75.96","3.136","64.67","1015","13.81","76.13","5.513","0.0"],
    [1512035,"2026-03-20 18:10:00","58532","2.43","68.46","3.43","65.09","1015.068","13.73","76.81","0.43799999999999994","0.0"],
    [1512036,"2026-03-20 18:20:00","58533","2.296","79.98","3.201","78.4","1015.005","13.74","77.0","0.0","0.0"],
    [1512037,"2026-03-20 18:30:00","58534","2.444","72.78","3.136","77.01","1015.076","13.7","77.24","0.0","0.0"],
    [1512038,"2026-03-20 18:40:00","58535","2.4419999999999997","65.18","3.103","69.8","1015.05","13.7","77.51","0.0","0.0"],
    [1512039,"2026-03-20 18:50:00","58536","2.374","64.76","3.103","52.92","1015.061","13.66","77.83","0.0","0.0"],
    [1512040,"2026-03-20 19:00:00","58537","2.102","65.67","2.8089999999999997","61.6","1015.098","13.68","78.48","0.0","0.0"],
    [1512041,"2026-03-20 19:10:00","58538","2.017","61.69","2.679","54.42","1015.154","13.68","79.61","0.0","0.0"],
    [1512042,"2026-03-20 19:20:00","58539","1.921","55.59","2.483","63.63","1015.17","13.67","80.7","0.0","0.0"],
    [1512043,"2026-03-20 19:30:00","58540","2.392","41.51","3.234","33.27","1015.184","13.63","81.6","0.0","0.0"],
    [1512044,"2026-03-20 19:40:00","58541","2.636","36.08","3.267","33.32","1015.234","13.59","82.2","0.0","0.0"],
    [1512045,"2026-03-20 19:50:00","58542","2.613","36.68","3.234","45.58","1015.302","13.55","82.5","0.0","0.0"],
    [1512046,"2026-03-20 20:00:00","58543","2.2680000000000002","35.25","3.005","37.75","1015.241","13.55","82.7","0.0","0.0"],
    [1512047,"2026-03-20 20:10:00","58544","1.511","50.81","2.319","44.2","1015.269","13.56","83.0","0.0","0.0"],
    [1512048,"2026-03-20 20:20:00","58545","1.6480000000000001","60.15","2.254","55.16","1015.287","13.5","83.7","0.0","0.0"],
    [1512049,"2026-03-20 20:30:00","58546","1.7309999999999999","34.98","2.352","32.63","1015.297","13.5","84.3","0.0","0.0"],
    [1512050,"2026-03-20 20:40:00","58547","1.724","27.75","2.254","32.0","1015.368","13.45","84.5","0.0","0.0"],
    [1512051,"2026-03-20 20:50:00","58548","1.349","19.56","1.797","21.43","1015.37","13.46","84.7","0.0","0.0"],
    [1512052,"2026-03-20 21:00:00","58549","1.595","8.88","1.96","2.1719999999999997","1015.441","13.37","84.7","0.0","0.0"],
    [1512053,"2026-03-20 21:10:00","58550","1.161","357.7","1.568","351.2","1015.449","13.32","84.5","0.0","0.0"],
    [1512054,"2026-03-20 21:20:00","58551","1.304","355.6","1.764","17.05","1015.385","13.3","84.8","0.0","0.0"],
    [1512055,"2026-03-20 21:30:00","58552","1.122","2.129","1.5030000000000001","14.2","1015.348","13.26","84.9","0.0","0.0"],
    [1512056,"2026-03-20 21:40:00","58553","1.206","356.2","1.699","359.2","1015.311","13.23","84.5","0.0","0.0"],
    [1512057,"2026-03-20 21:50:00","58554","0.732","334.3","1.2409999999999999","340.5","1015.273","13.17","84.2","0.0","0.0"],
    [1512058,"2026-03-20 22:00:00","58555","0.546","306.0","0.882","318.2","1015.25","13.02","84.3","0.0","0.0"],
    [1512059,"2026-03-20 22:10:00","58556","0.084","287.9","0.588","291.6","1015.257","12.93","84.5","0.0","0.0"],
    [1512060,"2026-03-20 22:20:00","58557","1.16","257.0","2.189","261.5","1015.267","12.64","84.5","0.0","0.0"],
    [1512061,"2026-03-20 22:30:00","58558","0.92","270.2","1.2409999999999999","258.6","1015.215","12.6","84.7","0.0","0.0"],
    [1512062,"2026-03-20 22:40:00","58559","1.052","276.9","2.287","258.2","1015.197","12.56","84.6","0.0","0.0"],
    [1512063,"2026-03-20 22:50:00","58560","1.159","252.9","1.8619999999999999","258.5","1015.196","12.28","84.2","0.0","0.0"],
    [1512064,"2026-03-20 23:00:00","58561","1.6740000000000002","254.9","2.352","255.9","1015.189","12.05","83.3","0.0","0.0"],
    [1512065,"2026-03-20 23:10:00","58562","1.528","266.7","2.385","259.4","1015.094","11.81","82.2","0.0","0.0"],
    [1512066,"2026-03-20 23:20:00","58563","1.858","263.8","2.515","262.0","1014.945","11.6","81.7","0.0","0.0"],
    [1512067,"2026-03-20 23:30:00","58564","1.8630000000000002","271.5","2.287","271.2","1014.889","11.32","81.5","0.0","0.0"],
    [1512068,"2026-03-20 23:40:00","58565","1.8419999999999999","262.3","2.221","260.1","1014.803","11.19","81.6","0.0","0.0"],
    [1512069,"2026-03-20 23:50:00","58566","1.591","262.6","1.9269999999999998","257.2","1014.698","11.23","81.3","0.0","0.0"],
    [1512070,"2026-03-21 00:00:00","58567","1.486","259.8","1.9269999999999998","254.7","1014.618","11.12","81.2","0.0","0.0"],
    [1512071,"2026-03-21 00:10:00","58568","2.049","260.4","2.679","260.3","1014.56","10.97","81.0","0.0","0.0"],
    [1512072,"2026-03-21 00:20:00","58569","2.52","259.6","2.94","259.7","1014.457","10.67","80.4","0.0","0.0"],
    [1512073,"2026-03-21 00:30:00","58570","2.271","260.4","2.7110000000000003","259.1","1014.345","10.61","79.98","0.0","0.0"],
    [1512074,"2026-03-21 00:40:00","58571","2.354","259.2","2.679","263.7","1014.263","10.57","79.8","0.0","0.0"],
    [1512075,"2026-03-21 00:50:00","58572","2.472","258.5","3.103","260.5","1014.212","10.55","79.7","0.0","0.0"],
    [1512076,"2026-03-21 01:00:00","58573","2.455","259.5","3.234","264.1","1014.087","10.33","79.36","0.0","0.0"],
    [1512077,"2026-03-21 01:10:00","58574","2.546","257.2","3.201","265.6","1013.962","10.13","78.84","0.0","0.0"],
    [1512078,"2026-03-21 01:20:00","58575","2.614","263.0","3.365","257.1","1013.866","9.96","77.81","0.0","0.0"],
    [1512079,"2026-03-21 01:30:00","58576","2.821","261.0","3.43","262.4","1013.782","9.81","76.62","0.0","0.0"],
    [1512080,"2026-03-21 01:40:00","58577","2.4819999999999998","259.5","2.94","256.0","1013.697","9.76","75.55","0.0","0.0"],
    [1512081,"2026-03-21 01:50:00","58578","2.27","262.6","2.94","265.0","1013.66","9.86","74.59","0.0","0.0"],
    [1512082,"2026-03-21 02:00:00","58579","2.3930000000000002","267.6","2.94","256.4","1013.66","9.85","73.37","0.0","0.0"],
    [1512083,"2026-03-21 02:10:00","58580","2.576","264.1","3.005","263.1","1013.559","9.75","71.33","0.0","0.0"],
    [1512084,"2026-03-21 02:20:00","58581","2.802","263.2","3.365","262.9","1013.418","9.71","69.56","0.0","0.0"],
    [1512085,"2026-03-21 02:30:00","58582","2.5789999999999997","262.6","3.201","267.2","1013.4","9.67","68.4","0.0","0.0"],
    [1512086,"2026-03-21 02:40:00","58583","2.842","263.4","3.234","265.8","1013.38","9.64","67.65","0.0","0.0"],
    [1512087,"2026-03-21 02:50:00","58584","2.43","263.3","3.267","263.6","1013.341","9.56","66.77","0.0","0.0"],
    [1512088,"2026-03-21 03:00:00","58585","2.648","262.0","3.43","258.5","1013.318","9.57","65.61","0.0","0.0"],
    [1512089,"2026-03-21 03:10:00","58586","2.5639999999999996","263.3","3.201","266.8","1013.257","9.67","64.04","0.0","0.0"],
    [1512090,"2026-03-21 03:20:00","58587","1.985","260.1","3.071","265.3","1013.239","9.6","62.77","0.0","0.0"],
    [1512091,"2026-03-21 03:30:00","58588","2.394","262.7","2.907","265.0","1013.203","9.56","62.02","0.0","0.0"],
    [1512092,"2026-03-21 03:40:00","58589","2.329","261.8","2.907","263.4","1013.256","9.53","61.58","0.0","0.0"],
    [1512093,"2026-03-21 03:50:00","58590","2.1959999999999997","262.0","2.7769999999999997","265.3","1013.185","9.6","61.69","0.0","0.0"],
    [1512094,"2026-03-21 04:00:00","58591","2.3280000000000003","262.4","2.842","263.2","1013.135","9.51","61.94","0.0","0.0"],
    [1512095,"2026-03-21 04:10:00","58592","1.765","267.7","2.7110000000000003","261.6","1013.157","9.39","62.66","0.0","0.0"],
    [1512096,"2026-03-21 04:20:00","58593","1.93","271.2","2.417","263.8","1013.138","9.37","63.02","0.0","0.0"],
    [1512097,"2026-03-21 04:30:00","58594","2.454","259.3","2.8089999999999997","258.6","1013.049","9.34","62.13","0.0","0.0"],
    [1512098,"2026-03-21 04:40:00","58595","2.365","259.2","2.7439999999999998","261.3","1013.005","9.27","61.49","0.0","0.0"],
    [1512099,"2026-03-21 04:50:00","58596","2.546","259.5","3.005","260.3","1012.962","9.0","61.28","0.0","0.0"],
    [1512100,"2026-03-21 05:00:00","58597","2.516","262.8","3.071","263.8","1012.937","9.04","60.03","0.0","0.0"],
    [1512101,"2026-03-21 05:10:00","58598","2.657","262.3","3.267","260.2","1012.894","8.87","59.49","0.0","0.0"],
    [1512102,"2026-03-21 05:20:00","58599","2.213","264.7","3.0380000000000003","264.2","1012.884","8.61","60.16","0.0","0.0"],
    [1512103,"2026-03-21 05:30:00","58600","1.841","263.4","2.6460000000000004","269.2","1012.867","8.62","60.46","0.0","0.0"],
    [1512104,"2026-03-21 05:40:00","58601","1.834","267.0","3.005","268.5","1012.85","8.51","60.67","0.0","0.0"],
    [1512105,"2026-03-21 05:50:00","58602","2.238","266.9","3.005","273.9","1012.94","8.49","60.28","0.925","0.0"],
    [1512106,"2026-03-21 06:00:00","58603","2.224","261.4","3.234","256.0","1013.047","8.53","59.34","5.261","0.0"],
    [1512107,"2026-03-21 06:10:00","58604","2.736","263.7","3.495","262.2","1013.086","8.35","59.18","16.71","0.0"],
    [1512108,"2026-03-21 06:20:00","58605","2.661","262.6","3.6910000000000003","261.4","1013.116","8.3","59.35","31.96","0.0"],
    [1512109,"2026-03-21 06:30:00","58606","2.6710000000000003","266.5","3.659","263.6","1013.172","8.31","59.4","57.26","0.0"],
    [1512110,"2026-03-21 06:40:00","58607","2.735","262.9","3.92","261.2","1013.256","8.34","58.87","83.9","0.0"],
    [1512111,"2026-03-21 06:50:00","58608","3.1639999999999997","265.5","3.855","269.5","1013.214","8.43","58.44","110.1","0.0"],
    [1512112,"2026-03-21 07:00:00","58609","2.475","263.2","3.299","258.1","1013.247","8.69","58.25","144.1","0.0"],
    [1512113,"2026-03-21 07:10:00","58610","2.016","264.2","2.7769999999999997","265.1","1013.267","9.02","57.33","178.4","0.0"],
    [1512114,"2026-03-21 07:20:00","58611","1.3559999999999999","263.1","2.352","261.0","1013.352","9.45","56.18","212.1","0.0"],
    [1512115,"2026-03-21 07:30:00","58612","1.113","264.6","1.699","268.6","1013.426","9.89","54.86","240.5","0.0"],
    [1512116,"2026-03-21 07:40:00","58613","1.187","260.5","1.7309999999999999","262.5","1013.454","10.16","53.46","267.6","0.0"],
    [1512117,"2026-03-21 07:50:00","58614","0.981","258.7","1.4369999999999998","261.6","1013.476","10.4","52.58","276.6","0.0"],
    [1512118,"2026-03-21 08:00:00","58615","0.718","263.8","1.209","260.4","1013.54","10.77","51.83","318.7","0.0"],
    [1512119,"2026-03-21 08:10:00","58616","0.0","0.0","0.0","0.0","1013.598","11.99","51.18","366.2","0.0"],
    [1512120,"2026-03-21 08:20:00","58617","0.0","0.0","0.0","0.0","1013.665","12.75","50.94","399.2","0.0"],
    [1512121,"2026-03-21 08:30:00","58618","0.075","155.7","1.078","149.0","1013.742","12.71","53.06","430.5","0.0"],
    [1512122,"2026-03-21 08:40:00","58619","0.597","143.6","1.176","150.7","1013.794","12.26","55.48","463.4","0.0"],
    [1512123,"2026-03-21 08:50:00","58620","0.196","123.0","0.8490000000000001","124.9","1013.779","12.87","54.79","494.1","0.0"],
    [1512124,"2026-03-21 09:00:00","58621","0.975","120.6","1.339","112.3","1013.772","12.64","54.62","532.4","0.0"],
    [1512125,"2026-03-21 09:10:00","58622","1.058","132.9","1.5030000000000001","134.2","1013.705","12.52","56.16","559.3","0.0"],
    [1512126,"2026-03-21 09:20:00","58623","1.399","131.9","1.764","125.0","1013.678","12.57","56.28","566.0","0.0"],
    [1512127,"2026-03-21 09:30:00","58624","1.48","113.2","1.9269999999999998","92.2","1013.639","12.66","57.59","600.1","0.0"],
    [1512128,"2026-03-21 09:40:00","58625","1.597","101.6","2.189","95.9","1013.541","12.66","57.09","628.9","0.0"],
    [1512129,"2026-03-21 09:50:00","58626","0.9570000000000001","95.4","1.5030000000000001","108.1","1013.397","13.04","57.05","652.5","0.0"],
    [1512130,"2026-03-21 10:00:00","58627","1.575","72.71","2.7769999999999997","120.1","1013.282","13.21","57.5","633.0","0.0"],
    [1512131,"2026-03-21 10:10:00","58628","2.6710000000000003","105.1","3.267","103.4","1013.292","12.84","61.44","682.7","0.0"],
    [1512132,"2026-03-21 10:20:00","58629","2.378","112.3","3.332","105.4","1013.341","13.38","62.47","688.0","0.0"],
    [1512133,"2026-03-21 10:30:00","58630","2.4819999999999998","120.5","3.201","138.9","1013.382","13.65","62.12","725.4","0.0"],
    [1512134,"2026-03-21 10:40:00","58631","3.032","141.9","3.7239999999999998","141.7","1013.401","13.17","62.15","747.3","0.0"],
    [1512135,"2026-03-21 10:50:00","58632","3.458","148.5","4.2139999999999995","149.5","1013.365","12.83","63.77","759.4","0.0"],
    [1512136,"2026-03-21 11:00:00","58633","3.775","156.9","4.279","159.8","1013.382","12.76","65.13","775.7","0.0"],
    [1512137,"2026-03-21 11:10:00","58634","3.687","154.7","4.279","154.1","1013.31","12.9","65.84","792.4","0.0"],
    [1512138,"2026-03-21 11:20:00","58635","3.694","157.2","4.279","162.7","1013.306","13.07","63.31","798.1","0.0"],
    [1512139,"2026-03-21 11:30:00","58636","4.263999999999999","165.7","4.998","176.2","1013.271","13.19","59.9","813.0","0.0"],
    [1512140,"2026-03-21 11:40:00","58637","4.292","177.5","5.357","185.6","1013.261","13.5","60.13","820.0","0.0"],
    [1512141,"2026-03-21 11:50:00","58638","4.647","183.0","5.7170000000000005","167.0","1013.251","13.76","56.92","828.0","0.0"],
    [1512142,"2026-03-21 12:00:00","58639","4.6419999999999995","184.4","6.0760000000000005","187.1","1013.175","13.95","52.68","821.0","0.0"],
    [1512143,"2026-03-21 12:10:00","58640","4.891","187.6","5.978","191.1","1013.094","14.05","49.85","820.0","0.0"],
    [1512144,"2026-03-21 12:20:00","58641","5.111000000000001","184.7","6.435","192.6","1012.972","14.03","48.43","818.0","0.0"],
    [1512145,"2026-03-21 12:30:00","58642","4.8919999999999995","181.8","6.337000000000001","180.3","1012.844","14.13","48.04","808.0","0.0"],
    [1512146,"2026-03-21 12:40:00","58643","4.996","183.9","6.37","188.0","1012.736","14.13","48.08","801.0","0.0"],
    [1512147,"2026-03-21 12:50:00","58644","4.981","188.4","6.239","185.9","1012.643","14.06","50.0","799.2","0.0"],
    [1512148,"2026-03-21 13:00:00","58645","4.707","186.2","6.011","186.9","1012.518","14.14","50.68","787.8","0.0"],
    [1512149,"2026-03-21 13:10:00","58646","5.157","185.6","6.501","193.3","1012.439","14.09","51.26","778.8","0.0"],
    [1512150,"2026-03-21 13:20:00","58647","4.806","184.1","6.141","188.3","1012.416","14.12","51.15","774.5","0.0"],
    [1512151,"2026-03-21 13:30:00","58648","4.888","184.5","6.1739999999999995","191.8","1012.328","14.14","52.51","762.1","0.0"],
    [1512152,"2026-03-21 13:40:00","58649","4.883","180.1","6.337000000000001","188.9","1012.233","14.1","54.54","747.5","0.0"],
    [1512153,"2026-03-21 13:50:00","58650","5.013999999999999","183.9","6.305","192.6","1012.153","14.11","54.32","731.6","0.0"],
    [1512154,"2026-03-21 14:00:00","58651","4.956","184.0","6.239","187.4","1012.094","14.09","56.04","713.5","0.0"],
    [1512155,"2026-03-21 14:10:00","58652","5.082","185.6","6.501","190.9","1012.055","14.07","56.97","693.9","0.0"],
    [1512156,"2026-03-21 14:20:00","58653","5.093","186.3","6.337000000000001","177.2","1011.913","14.09","58.58","672.5","0.0"],
    [1512157,"2026-03-21 14:30:00","58654","5.042","184.1","6.239","166.1","1011.887","14.03","61.99","648.3","0.0"],
    [1512158,"2026-03-21 14:40:00","58655","5.08","187.7","6.239","188.3","1011.866","13.97","63.73","622.6","0.0"],
    [1512159,"2026-03-21 14:50:00","58656","5.233","186.9","6.37","183.0","1011.794","14.0","63.28","596.2","0.0"],
    [1512160,"2026-03-21 15:00:00","58657","5.23","185.9","6.566","187.7","1011.681","14.03","61.74","566.5","0.0"],
    [1512161,"2026-03-21 15:10:00","58658","5.496","187.8","6.893","194.6","1011.665","13.98","61.57","535.1","0.0"],
    [1512162,"2026-03-21 15:20:00","58659","5.1370000000000005","185.7","6.5329999999999995","188.0","1011.666","14.06","60.68","503.5","0.0"],
    [1512163,"2026-03-21 15:30:00","58660","5.431","185.3","6.86","190.6","1011.637","14.08","60.91","475.8","0.0"],
    [1512164,"2026-03-21 15:40:00","58661","5.273","185.8","6.337000000000001","187.0","1011.586","14.07","62.63","442.5","0.0"],
    [1512165,"2026-03-21 15:50:00","58662","4.988","187.9","6.664","189.1","1011.591","14.08","64.52","410.0","0.0"],
    [1512166,"2026-03-21 16:00:00","58663","4.827","191.5","6.435","185.9","1011.617","14.12","63.5","375.0","0.0"],
    [1512167,"2026-03-21 16:10:00","58664","4.698","192.0","6.1739999999999995","195.6","1011.502","14.13","62.16","340.2","0.0"],
    [1512168,"2026-03-21 16:20:00","58665","4.928","194.8","6.664","200.4","1011.483","14.18","59.63","305.7","0.0"],
    [1512169,"2026-03-21 16:30:00","58666","4.743","194.6","7.023","185.7","1011.479","14.13","59.36","270.3","0.0"],
    [1512170,"2026-03-21 16:40:00","58667","4.543","193.3","6.403","191.7","1011.517","14.22","58.62","236.3","0.0"],
    [1512171,"2026-03-21 16:50:00","58668","3.8789999999999996","201.9","6.011","193.7","1011.555","14.14","61.14","201.2","0.0"],
    [1512172,"2026-03-21 17:00:00","58669","4.0089999999999995","193.8","5.586","185.6","1011.625","14.19","62.17","163.7","0.0"],
    [1512173,"2026-03-21 17:10:00","58670","3.267","202.5","5.651","198.8","1011.705","14.21","63.12","132.4","0.0"],
    [1512174,"2026-03-21 17:20:00","58671","3.1060000000000003","213.0","5.031000000000001","218.7","1011.738","14.09","64.14","101.7","0.0"],
    [1512175,"2026-03-21 17:30:00","58672","2.7089999999999996","212.5","5.1610000000000005","196.0","1011.763","14.09","64.68","72.82","0.0"],
    [1512176,"2026-03-21 17:40:00","58673","3.457","210.2","5.651","204.7","1011.852","13.91","65.4","48.06","0.0"],
    [1512177,"2026-03-21 17:50:00","58674","2.28","215.3","3.5610000000000004","201.6","1011.918","13.86","64.78","26.54","0.0"],
    [1512178,"2026-03-21 18:00:00","58675","2.372","218.8","4.247","225.0","1011.931","13.81","64.64","10.1","0.0"],
    [1512179,"2026-03-21 18:10:00","58676","2.464","219.3","3.855","206.2","1011.946","13.68","64.96","1.821","0.0"],
    [1512180,"2026-03-21 18:20:00","58677","2.708","219.1","4.704","219.5","1011.996","13.63","64.56","0.0","0.0"],
    [1512181,"2026-03-21 18:30:00","58678","2.434","219.8","4.475","218.6","1012.024","13.57","65.36","0.0","0.0"],
    [1512182,"2026-03-21 18:40:00","58679","2.1790000000000003","220.9","3.365","222.7","1012.096","13.52","66.11","0.0","0.0"],
    [1512183,"2026-03-21 18:50:00","58680","2.262","220.9","3.495","210.8","1012.205","13.44","66.37","0.0","0.0"],
    [1512184,"2026-03-21 19:00:00","58681","2.129","214.5","3.7569999999999997","217.6","1012.317","13.45","66.41","0.0","0.0"],
    [1512185,"2026-03-21 19:10:00","58682","1.689","216.9","2.9730000000000003","232.2","1012.413","13.4","66.88","0.0","0.0"],
    [1512186,"2026-03-21 19:20:00","58683","2.093","220.6","3.136","215.4","1012.482","13.34","67.3","0.0","0.0"],
    [1512187,"2026-03-21 19:30:00","58684","2.082","219.4","3.299","230.5","1012.504","13.29","67.45","0.0","0.0"],
    [1512188,"2026-03-21 19:40:00","58685","1.817","221.6","3.103","230.1","1012.468","13.26","67.47","0.0","0.0"],
    [1512189,"2026-03-21 19:50:00","58686","1.8330000000000002","219.4","3.103","216.9","1012.417","13.19","67.79","0.0","0.0"],
    [1512190,"2026-03-21 20:00:00","58687","1.321","235.3","2.483","236.0","1012.472","13.15","68.43","0.0","0.0"],
    [1512191,"2026-03-21 20:10:00","58688","1.413","242.3","2.417","215.5","1012.555","13.05","69.14","0.0","0.0"],
    [1512192,"2026-03-21 20:20:00","58689","0.843","241.0","1.568","258.4","1012.689","12.97","69.91","0.0","0.0"],
    [1512193,"2026-03-21 20:30:00","58690","0.862","248.8","1.47","220.2","1012.751","12.85","70.29","0.0","0.0"],
    [1512194,"2026-03-21 20:40:00","58691","1.061","239.1","1.666","219.6","1012.697","12.78","70.53","0.0","0.0"],
    [1512195,"2026-03-21 20:50:00","58692","1.347","242.9","2.287","250.6","1012.656","12.71","70.3","0.0","0.0"],
    [1512196,"2026-03-21 21:00:00","58693","1.3230000000000002","245.3","2.385","255.9","1012.676","12.6","69.81","0.0","0.0"],
    [1512197,"2026-03-21 21:10:00","58694","0.903","246.0","1.8619999999999999","236.0","1012.66","12.52","69.2","0.0","0.0"],
    [1512198,"2026-03-21 21:20:00","58695","0.784","246.2","2.025","262.4","1012.683","12.45","68.41","0.0","0.0"],
    [1512199,"2026-03-21 21:30:00","58696","0.613","249.5","1.2409999999999999","234.5","1012.654","12.38","67.44","0.0","0.0"],
    [1512200,"2026-03-21 21:40:00","58697","0.648","256.8","1.143","253.4","1012.669","12.33","66.51","0.0","0.0"],
    [1512201,"2026-03-21 21:50:00","58698","0.7","254.3","1.078","263.3","1012.683","12.33","65.89","0.0","0.0"],
    [1512202,"2026-03-21 22:00:00","58699","0.639","257.0","1.045","268.7","1012.654","12.35","65.74","0.0","0.0"],
    [1512203,"2026-03-21 22:10:00","58700","0.41600000000000004","238.5","0.915","270.2","1012.658","12.35","65.53","0.0","0.0"],
    [1512204,"2026-03-21 22:20:00","58701","0.505","243.3","0.915","250.7","1012.666","12.33","65.32","0.0","0.0"],
    [1512205,"2026-03-21 22:30:00","58702","0.792","251.2","1.2409999999999999","262.3","1012.652","12.32","65.13","0.0","0.0"],
    [1512206,"2026-03-21 22:40:00","58703","1.125","239.6","1.8619999999999999","225.6","1012.597","12.24","65.49","0.0","0.0"],
    [1512207,"2026-03-21 22:50:00","58704","0.94","248.9","1.699","255.2","1012.492","12.1","66.11","0.0","0.0"],
    [1512208,"2026-03-21 23:00:00","58705","1.5219999999999998","252.1","2.254","252.0","1012.315","11.74","66.98","0.0","0.0"],
    [1512209,"2026-03-21 23:10:00","58706","1.3630000000000002","250.8","2.189","252.0","1012.213","11.41","67.39","0.0","0.0"],
    [1512210,"2026-03-21 23:20:00","58707","1.449","254.2","2.45","266.9","1012.131","11.19","68.08","0.0","0.0"],
    [1512211,"2026-03-21 23:30:00","58708","1.619","252.2","2.385","252.6","1012.028","10.85","68.74","0.0","0.0"],
    [1512212,"2026-03-21 23:40:00","58709","1.76","256.8","2.515","255.4","1011.952","10.77","68.46","0.0","0.0"],
    [1512213,"2026-03-21 23:50:00","58710","1.724","258.4","2.417","251.1","1011.76","10.52","69.09","0.0","0.0"],
    [1512214,"2026-03-22 00:00:00","58711","1.811","256.4","2.7769999999999997","256.0","1011.651","10.48","69.01","0.0","0.0"],
    [1512215,"2026-03-22 00:10:00","58712","1.675","253.7","2.45","243.2","1011.634","10.52","68.6","0.0","0.0"],
    [1512216,"2026-03-22 00:20:00","58713","1.5959999999999999","259.4","2.254","249.4","1011.527","10.62","67.57","0.0","0.0"],
    [1512217,"2026-03-22 00:30:00","58714","1.115","245.0","2.189","222.0","1011.525","10.71","67.02","0.0","0.0"],
    [1512218,"2026-03-22 00:40:00","58715","1.492","248.2","2.842","264.3","1011.463","10.78","66.98","0.0","0.0"],
    [1512219,"2026-03-22 00:50:00","58716","1.609","246.6","3.7889999999999997","248.2","1011.334","10.73","68.14","0.0","0.0"],
    [1512220,"2026-03-22 01:00:00","58717","2.189","253.4","3.887","242.2","1011.302","10.59","69.16","0.0","0.0"],
    [1512221,"2026-03-22 01:10:00","58718","1.8130000000000002","265.8","3.495","262.7","1011.284","10.73","68.82","0.0","0.0"],
    [1512222,"2026-03-22 01:20:00","58719","1.4680000000000002","258.2","2.875","277.1","1011.233","10.9","68.32","0.0","0.0"],
    [1512223,"2026-03-22 01:30:00","58720","1.796","236.8","3.0380000000000003","246.9","1011.194","11.1","67.05","0.0","0.0"],
    [1512224,"2026-03-22 01:40:00","58721","1.7109999999999999","239.1","3.103","244.9","1011.164","11.12","65.72","0.0","0.0"],
    [1512225,"2026-03-22 01:50:00","58722","1.4080000000000001","243.9","3.071","249.7","1011.126","11.1","64.41","0.0","0.0"],
    [1512226,"2026-03-22 02:00:00","58723","1.9669999999999999","243.6","3.071","251.4","1011.022","11.08","62.91","0.0","0.0"],
    [1512227,"2026-03-22 02:10:00","58724","1.671","253.4","2.8089999999999997","256.9","1010.916","10.98","62.07","0.0","0.0"],
    [1512228,"2026-03-22 02:20:00","58725","1.4169999999999998","246.6","2.319","248.2","1010.943","11.0","61.6","0.0","0.0"],
    [1512229,"2026-03-22 02:30:00","58726","1.3159999999999998","239.9","2.7439999999999998","270.8","1010.896","11.0","60.94","0.0","0.0"],
    [1512230,"2026-03-22 02:40:00","58727","1.742","248.4","2.6460000000000004","257.7","1010.808","11.03","59.99","0.0","0.0"],
    [1512231,"2026-03-22 02:50:00","58728","1.599","238.8","2.7769999999999997","262.5","1010.712","10.88","60.23","0.0","0.0"],
    [1512232,"2026-03-22 03:00:00","58729","1.4409999999999998","246.2","2.679","238.3","1010.717","10.75","61.27","0.0","0.0"],
    [1512233,"2026-03-22 03:10:00","58730","1.3840000000000001","257.6","2.189","250.0","1010.73","10.33","62.67","0.0","0.0"],
    [1512234,"2026-03-22 03:20:00","58731","1.264","241.5","1.9269999999999998","247.8","1010.71","10.12","63.42","0.0","0.0"],
    [1512235,"2026-03-22 03:30:00","58732","1.089","237.6","1.797","224.7","1010.712","9.92","64.03","0.0","0.0"],
    [1512236,"2026-03-22 03:40:00","58733","1.625","248.7","2.548","257.4","1010.67","9.74","64.36","0.0","0.0"],
    [1512237,"2026-03-22 03:50:00","58734","1.534","248.0","2.7439999999999998","248.6","1010.668","9.79","63.95","0.0","0.0"],
    [1512238,"2026-03-22 04:00:00","58735","1.85","253.2","2.842","253.6","1010.644","9.54","64.26","0.0","0.0"],
    [1512239,"2026-03-22 04:10:00","58736","1.732","258.6","2.7439999999999998","253.6","1010.721","9.2","64.93","0.0","0.0"],
    [1512240,"2026-03-22 04:20:00","58737","1.995","258.9","2.7769999999999997","264.5","1010.781","8.88","65.54","0.0","0.0"],
    [1512241,"2026-03-22 04:30:00","58738","1.982","258.6","2.679","259.7","1010.825","8.92","65.51","0.0","0.0"],
    [1512242,"2026-03-22 04:40:00","58739","1.8319999999999999","256.7","2.679","251.3","1010.919","8.93","64.95","0.0","0.0"],
    [1512243,"2026-03-22 04:50:00","58740","2.245","262.1","2.842","265.5","1011.011","8.7","65.59","0.0","0.0"],
    [1512244,"2026-03-22 05:00:00","58741","1.62","252.8","2.842","261.5","1011.003","8.76","66.02","0.0","0.0"],
    [1512245,"2026-03-22 05:10:00","58742","1.479","246.2","2.6460000000000004","245.0","1010.962","8.97","64.99","0.0","0.0"],
    [1512246,"2026-03-22 05:20:00","58743","1.975","239.8","3.365","218.9","1010.927","9.07","63.38","0.0","0.0"],
    [1512247,"2026-03-22 05:30:00","58744","2.401","242.1","3.6910000000000003","257.3","1010.897","9.23","61.08","0.0","0.0"],
    [1512248,"2026-03-22 05:40:00","58745","2.423","232.8","4.051","218.5","1010.846","9.41","59.16","0.0","0.0"],
    [1512249,"2026-03-22 05:50:00","58746","2.282","238.3","3.7889999999999997","232.5","1010.875","9.64","57.29","0.242","0.0"],
    [1512250,"2026-03-22 06:00:00","58747","2.431","242.5","4.671","232.1","1010.952","9.72","55.93","2.464","0.0"],
    [1512251,"2026-03-22 06:10:00","58748","1.9269999999999998","239.6","3.5610000000000004","260.8","1011.029","9.55","56.53","13.76","0.0"],
    [1512252,"2026-03-22 06:20:00","58749","2.013","248.8","3.7569999999999997","252.9","1011.095","9.55","56.66","32.76","0.0"],
    [1512253,"2026-03-22 06:30:00","58750","1.9409999999999998","249.3","3.365","246.4","1011.157","9.6","56.19","52.01","0.0"],
    [1512254,"2026-03-22 06:40:00","58751","2.049","250.2","3.267","255.4","1011.214","9.84","55.42","54.19","0.0"],
    [1512255,"2026-03-22 06:50:00","58752","1.5530000000000002","258.8","2.7110000000000003","247.9","1011.226","9.96","54.65","69.53","0.0"],
    [1512256,"2026-03-22 07:00:00","58753","1.26","251.3","2.5810000000000004","266.3","1011.301","10.07","54.03","117.0","0.0"],
    [1512257,"2026-03-22 07:10:00","58754","1.39","253.4","2.287","264.9","1011.296","10.16","53.76","113.9","0.0"],
    [1512258,"2026-03-22 07:20:00","58755","1.051","256.3","1.829","267.1","1011.259","10.29","53.47","116.1","0.0"],
    [1512259,"2026-03-22 07:30:00","58756","1.3969999999999998","248.7","2.123","249.3","1011.22","10.3","54.1","131.7","0.0"],
    [1512260,"2026-03-22 07:40:00","58757","1.496","247.2","2.515","249.9","1011.145","10.15","55.24","188.7","0.0"],
    [1512261,"2026-03-22 07:50:00","58758","1.556","251.5","2.417","251.8","1011.049","10.13","56.33","167.0","0.0"],
    [1512262,"2026-03-22 08:00:00","58759","1.364","250.5","1.993","255.6","1011.06","10.3","56.25","310.4","0.0"],
    [1512263,"2026-03-22 08:10:00","58760","1.4680000000000002","245.4","2.515","258.0","1011.05","10.77","54.98","278.2","0.0"],
    [1512264,"2026-03-22 08:20:00","58761","1.7109999999999999","234.4","2.679","225.8","1011.071","10.79","53.85","215.4","0.0"],
    [1512265,"2026-03-22 08:30:00","58762","2.408","215.8","3.234","207.3","1011.106","11.28","51.29","376.0","0.0"],
    [1512266,"2026-03-22 08:40:00","58763","2.239","233.8","3.365","239.3","1011.192","11.57","48.96","306.2","0.0"],
    [1512267,"2026-03-22 08:50:00","58764","2.219","234.2","3.7569999999999997","230.5","1011.261","11.99","47.65","387.2","0.0"],
    [1512268,"2026-03-22 09:00:00","58765","2.217","233.8","4.149","214.5","1011.277","12.41","48.56","458.2","0.0"],
    [1512269,"2026-03-22 09:10:00","58766","2.736","231.5","4.41","230.8","1011.287","12.38","55.84","375.3","0.0"],
    [1512270,"2026-03-22 09:20:00","58767","2.373","234.6","4.41","220.9","1011.319","12.25","60.88","401.9","0.0"],
    [1512271,"2026-03-22 09:30:00","58768","2.435","236.7","4.1160000000000005","226.3","1011.328","12.48","62.37","338.0","0.0"],
    [1512272,"2026-03-22 09:40:00","58769","3.193","229.1","5.945","219.8","1011.281","13.18","63.85","441.4","0.0"],
    [1512273,"2026-03-22 09:50:00","58770","4.282","226.6","8.17","226.5","1011.256","13.38","63.97","398.6","0.0"],
    [1512274,"2026-03-22 10:00:00","58771","4.276","215.9","8.82","223.1","1011.28","13.43","65.3","381.1","0.0"],
    [1512275,"2026-03-22 10:10:00","58772","4.077","209.6","6.925","196.9","1011.277","13.4","67.04","428.6","0.0"],
    [1512276,"2026-03-22 10:20:00","58773","4.908","210.7","7.579","209.2","1011.24","13.6","67.85","602.5","0.0"],
    [1512277,"2026-03-22 10:30:00","58774","4.598","213.9","8.1","202.6","1011.183","14.15","67.03","770.4","0.0"],
    [1512278,"2026-03-22 10:40:00","58775","5.647","210.3","8.66","211.9","1011.042","13.82","67.13","805.0","0.0"],
    [1512279,"2026-03-22 10:50:00","58776","5.1739999999999995","209.0","8.85","193.6","1010.906","13.76","68.33","672.8","0.0"],
    [1512280,"2026-03-22 11:00:00","58777","4.868","214.5","8.1","198.5","1010.823","13.74","68.52","725.3","0.0"],
    [1512281,"2026-03-22 11:10:00","58778","6.2379999999999995","206.0","9.57","201.0","1010.674","13.7","68.35","770.0","0.0"],
    [1512282,"2026-03-22 11:20:00","58779","5.88","214.8","9.54","205.3","1010.595","13.83","68.47","802.0","0.0"],
    [1512283,"2026-03-22 11:30:00","58780","5.439","211.8","9.47","195.9","1010.559","13.89","68.67","804.0","0.0"],
    [1512284,"2026-03-22 11:40:00","58781","5.654","212.6","9.38","206.3","1010.475","13.98","67.9","801.0","0.0"],
    [1512285,"2026-03-22 11:50:00","58782","4.863","210.0","8.13","203.5","1010.444","14.26","66.88","799.7","0.0"],
    [1512286,"2026-03-22 12:00:00","58783","5.199","215.4","8.13","215.4","1010.351","14.34","65.32","816.0","0.0"],
    [1512287,"2026-03-22 12:10:00","58784","5.303999999999999","208.2","8.36","206.6","1010.286","14.49","64.95","829.0","0.0"],
    [1512288,"2026-03-22 12:20:00","58785","5.112","203.2","8.33","189.9","1010.194","14.5","64.99","724.8","0.0"],
    [1512289,"2026-03-22 12:30:00","58786","5.3420000000000005","210.7","8.95","203.7","1009.986","14.39","66.07","789.5","0.0"],
    [1512290,"2026-03-22 12:40:00","58787","5.365","209.2","8.85","222.4","1009.925","14.34","67.7","709.7","0.0"],
    [1512291,"2026-03-22 12:50:00","58788","5.0280000000000005","217.8","8.07","199.9","1009.836","14.24","69.23","819.0","0.0"],
    [1512292,"2026-03-22 13:00:00","58789","6.652","204.8","10.03","205.4","1009.642","14.11","69.19","806.0","0.0"],
    [1512293,"2026-03-22 13:10:00","58790","5.571000000000001","207.8","9.7","209.3","1009.478","14.28","69.06","782.8","0.0"],
    [1512294,"2026-03-22 13:20:00","58791","5.59","206.5","9.28","204.7","1009.325","14.33","70.44","765.4","0.0"],
    [1512295,"2026-03-22 13:30:00","58792","6.063","207.3","8.75","208.7","1009.315","14.23","69.97","742.0","0.0"],
    [1512296,"2026-03-22 13:40:00","58793","6.415","204.2","9.47","200.0","1009.177","14.15","70.68","725.1","0.0"],
    [1512297,"2026-03-22 13:50:00","58794","5.987","205.2","9.8","198.7","1009.058","14.31","69.08","709.7","0.0"],
    [1512298,"2026-03-22 14:00:00","58795","6.392","206.3","9.57","204.4","1009.001","14.16","68.31","694.8","0.0"],
    [1512299,"2026-03-22 14:10:00","58796","5.78","203.8","9.24","195.6","1008.956","14.29","64.0","678.1","0.0"],
    [1512300,"2026-03-22 14:20:00","58797","6.212000000000001","206.6","10.16","214.7","1008.905","14.39","60.28","661.2","0.0"],
    [1512301,"2026-03-22 14:30:00","58798","4.925","212.7","8.3","222.5","1008.86","14.65","58.79","631.1","0.0"],
    [1512302,"2026-03-22 14:40:00","58799","5.689","213.4","9.87","223.2","1008.791","14.61","61.82","603.0","0.0"],
    [1512303,"2026-03-22 14:50:00","58800","5.722","221.7","8.92","214.4","1008.806","14.48","61.75","576.3","0.0"],
    [1512304,"2026-03-22 15:00:00","58801","5.835","206.7","9.96","196.9","1008.7","14.59","62.13","545.5","0.0"],
    [1512305,"2026-03-22 15:10:00","58802","5.391","209.4","9.18","212.3","1008.769","14.62","63.73","509.4","0.0"],
    [1512306,"2026-03-22 15:20:00","58803","6.039","218.6","9.54","227.6","1008.787","14.47","65.92","484.9","0.0"],
    [1512307,"2026-03-22 15:30:00","58804","5.751","212.8","9.64","202.3","1008.685","14.42","67.4","453.9","0.0"],
    [1512308,"2026-03-22 15:40:00","58805","5.159","211.0","11.3","190.8","1008.721","14.47","66.6","423.0","0.0"],
    [1512309,"2026-03-22 15:50:00","58806","5.226","221.4","10.81","223.2","1008.733","14.55","65.95","392.1","0.0"],
    [1512310,"2026-03-22 16:00:00","58807","5.803","219.5","9.7","216.3","1008.829","14.37","66.88","359.2","0.0"],
    [1512311,"2026-03-22 16:10:00","58808","5.215","219.9","7.905","233.1","1008.88","14.29","67.26","322.2","0.0"],
    [1512312,"2026-03-22 16:20:00","58809","4.131","219.5","6.1739999999999995","218.4","1009.032","14.5","67.67","284.4","0.0"],
    [1512313,"2026-03-22 16:30:00","58810","4.928","216.3","8.49","214.6","1009.064","14.32","68.76","251.3","0.0"],
    [1512314,"2026-03-22 16:40:00","58811","5.428999999999999","223.2","9.38","235.7","1009.15","14.18","69.47","216.1","0.0"],
    [1512315,"2026-03-22 16:50:00","58812","4.394","222.6","7.285","225.9","1009.253","14.32","69.6","183.6","0.0"],
    [1512316,"2026-03-22 17:00:00","58813","4.601","219.8","7.807","224.9","1009.318","14.24","69.6","152.1","0.0"],
    [1512317,"2026-03-22 17:10:00","58814","5.155","217.4","10.22","215.4","1009.448","14.19","69.93","113.8","0.0"],
    [1512318,"2026-03-22 17:20:00","58815","4.647","215.5","7.579","200.8","1009.574","14.11","70.93","91.6","0.0"],
    [1512319,"2026-03-22 17:30:00","58816","5.193","218.1","8.75","221.0","1009.682","14.04","71.8","69.79","0.0"],
    [1512320,"2026-03-22 17:40:00","58817","4.968","218.3","8.69","223.8","1009.792","13.97","72.81","51.07","0.0"],
    [1512321,"2026-03-22 17:50:00","58818","4.445","220.4","7.905","213.2","1009.931","13.93","73.22","28.94","0.0"],
    [1512322,"2026-03-22 18:00:00","58819","4.178","219.8","6.631","209.9","1009.983","13.87","74.02","12.62","0.0"],
    [1512323,"2026-03-22 18:10:00","58820","3.43","218.8","6.011","214.4","1010.002","13.88","74.7","4.887","0.0"],
    [1512324,"2026-03-22 18:20:00","58821","4.24","217.0","7.481","224.1","1010.02","13.83","75.39","0.134","0.0"],
    [1512325,"2026-03-22 18:30:00","58822","3.403","225.3","6.239","212.7","1010.112","13.81","75.93","0.0","0.0"],
    [1512326,"2026-03-22 18:40:00","58823","3.2680000000000002","221.0","5.325","223.5","1010.219","13.81","75.59","0.0","0.0"],
    [1512327,"2026-03-22 18:50:00","58824","3.6839999999999997","219.7","6.5329999999999995","205.3","1010.303","13.82","74.45","0.0","0.0"],
    [1512328,"2026-03-22 19:00:00","58825","3.6039999999999996","215.6","5.521","207.2","1010.392","13.86","73.69","0.0","0.0"],
    [1512329,"2026-03-22 19:10:00","58826","3.245","227.2","6.042999999999999","212.4","1010.519","13.85","73.38","0.0","0.0"],
    [1512330,"2026-03-22 19:20:00","58827","2.187","223.9","3.6260000000000003","208.5","1010.72","13.87","72.98","0.0","0.0"],
    [1512331,"2026-03-22 19:30:00","58828","3.141","219.6","4.769","214.4","1010.692","13.87","72.36","0.0","0.0"],
    [1512332,"2026-03-22 19:40:00","58829","2.806","220.3","4.279","239.3","1010.734","13.92","71.3","0.0","0.0"],
    [1512333,"2026-03-22 19:50:00","58830","1.8119999999999998","218.9","3.103","219.6","1010.865","13.96","70.75","0.0","0.0"],
    [1512334,"2026-03-22 20:00:00","58831","0.502","257.0","1.8619999999999999","217.7","1011.069","13.97","70.03","0.0","0.0"],
    [1512335,"2026-03-22 20:10:00","58832","0.6459999999999999","239.9","1.274","239.7","1011.18","14.01","69.12","0.0","0.0"],
    [1512336,"2026-03-22 20:20:00","58833","0.621","229.0","0.98","217.4","1011.223","13.98","68.54","0.0","0.0"],
    [1512337,"2026-03-22 20:30:00","58834","1.097","218.1","1.633","222.9","1011.225","14.0","67.65","0.0","0.0"],
    [1512338,"2026-03-22 20:40:00","58835","0.084","226.3","0.7509999999999999","215.4","1011.292","14.01","66.56","0.0","0.0"],
    [1512339,"2026-03-22 20:50:00","58836","0.0","0.0","0.0","0.0","1011.331","14.05","65.86","0.0","0.0"],
    [1512340,"2026-03-22 21:00:00","58837","0.0","0.0","0.0","0.0","1011.396","14.15","65.93","0.0","0.0"],
    [1512341,"2026-03-22 21:10:00","58838","0.601","30.57","4.671","15.09","1011.519","14.24","66.43","0.0","0.0"],
    [1512342,"2026-03-22 21:20:00","58839","4.646","19.52","5.978","14.76","1011.581","14.38","74.61","0.0","0.0"],
    [1512343,"2026-03-22 21:30:00","58840","5.22","24.59","6.729","23.65","1011.719","13.93","81.7","0.046","0.0"],
    [1512344,"2026-03-22 21:40:00","58841","4.572","20.3","6.1739999999999995","355.7","1011.84","13.84","85.0","0.0","0.0"],
    [1512345,"2026-03-22 21:50:00","58842","5.403","24.63","7.252000000000001","24.04","1011.867","13.65","86.2","0.0","0.0"],
    [1512346,"2026-03-22 22:00:00","58843","5.697","33.01","7.121","32.95","1011.88","13.32","87.6","0.0","0.1"],
    [1512347,"2026-03-22 22:10:00","58844","4.879","40.75","6.239","30.96","1011.881","13.27","89.1","0.0","0.1"],
    [1512348,"2026-03-22 22:20:00","58845","4.149","56.04","5.227","53.65","1011.887","13.26","89.7","0.0","0.1"],
    [1512349,"2026-03-22 22:30:00","58846","3.47","66.5","5.096","70.6","1011.905","13.33","89.0","0.0","0.0"],
    [1512350,"2026-03-22 22:40:00","58847","2.451","71.6","3.855","71.51","1011.98","13.34","88.2","0.275","0.0"],
    [1512351,"2026-03-22 22:50:00","58848","2.431","77.08","3.103","84.0","1012.019","13.35","87.0","0.0","0.0"],
    [1512352,"2026-03-22 23:00:00","58849","2.326","84.8","3.103","90.1","1012.003","13.44","86.0","0.57","0.0"],
    [1512353,"2026-03-22 23:10:00","58850","2.24","92.1","2.7769999999999997","85.2","1011.976","13.39","85.6","0.716","0.0"],
    [1512354,"2026-03-22 23:20:00","58851","1.5319999999999998","86.1","2.123","100.0","1011.867","13.39","85.5","0.0","0.0"],
    [1512355,"2026-03-22 23:30:00","58852","1.3780000000000001","75.56","1.993","60.33","1011.934","13.49","86.3","0.138","0.0"],
    [1512356,"2026-03-22 23:40:00","58853","1.193","155.3","1.666","147.2","1012.06","13.44","86.5","0.503","0.0"],
    [1512357,"2026-03-22 23:50:00","58854","0.28","159.5","1.339","169.7","1012.17","13.33","86.0","0.073","0.0"],
    [1512358,"2026-03-23 00:00:00","58855","1.675","6.5120000000000005","3.201","18.79","1012.225","13.39","85.3","1.014","0.0"],
    [1512359,"2026-03-23 00:10:00","58856","2.611","22.87","3.495","32.36","1012.165","13.53","85.3","1.234","0.0"],
    [1512360,"2026-03-23 00:20:00","58857","2.211","28.67","3.136","28.07","1012.213","13.5","85.5","0.585","0.0"],
    [1512361,"2026-03-23 00:30:00","58858","3.867","32.75","5.39","34.59","1012.258","13.51","86.5","0.29","0.0"],
    [1512362,"2026-03-23 00:40:00","58859","4.261","31.74","7.317","26.22","1012.235","13.4","88.2","0.17300000000000001","0.0"],
    [1512363,"2026-03-23 00:50:00","58860","5.083","31.71","7.415","28.95","1012.195","13.34","90.3","0.0","0.0"],
    [1512364,"2026-03-23 01:00:00","58861","3.01","31.01","4.018","49.94","1012.222","13.25","91.6","0.0","0.0"],
    [1512365,"2026-03-23 01:10:00","58862","5.9479999999999995","47.95","7.84","40.6","1012.218","13.0","90.6","0.012","0.1"],
    [1512366,"2026-03-23 01:20:00","58863","6.7410000000000005","48.09","8.56","67.84","1012.292","12.85","90.5","0.034","0.0"],
    [1512367,"2026-03-23 01:30:00","58864","6.584","54.79","9.51","56.72","1012.392","12.81","90.1","0.012","0.0"],
    [1512368,"2026-03-23 01:40:00","58865","7.138999999999999","60.49","9.34","57.18","1012.378","12.7","87.9","0.003","0.0"],
    [1512369,"2026-03-23 01:50:00","58866","7.409","63.52","9.6","81.6","1012.35","12.87","84.3","0.001","0.0"],
    [1512370,"2026-03-23 02:00:00","58867","7.7170000000000005","56.2","10.32","61.28","1012.436","12.82","83.6","0.024","0.0"],
    [1512371,"2026-03-23 02:10:00","58868","8.06","54.47","11.4","60.04","1012.561","12.55","83.8","0.009000000000000001","0.0"],
    [1512372,"2026-03-23 02:20:00","58869","8.73","48.88","11.47","39.84","1012.593","12.31","83.7","0.012","0.0"],
    [1512373,"2026-03-23 02:30:00","58870","8.39","38.47","10.78","35.16","1012.694","12.01","84.2","0.01","0.0"],
    [1512374,"2026-03-23 02:40:00","58871","7.937","33.34","10.03","38.97","1012.776","11.88","83.6","0.11199999999999999","0.0"],
    [1512375,"2026-03-23 02:50:00","58872","7.176","35.97","9.47","28.97","1012.815","12.04","82.8","1.2590000000000001","0.0"],
    [1512376,"2026-03-23 03:00:00","58873","6.926","47.6","8.72","37.8","1012.797","12.1","81.0","0.894","0.0"],
    [1512377,"2026-03-23 03:10:00","58874","5.71","51.85","8.0","49.01","1012.846","12.19","80.5","0.031","0.0"],
    [1512378,"2026-03-23 03:20:00","58875","5.289","50.74","6.957999999999999","63.25","1012.898","12.25","78.96","0.0","0.0"],
    [1512379,"2026-03-23 03:30:00","58876","4.611000000000001","50.1","5.978","45.19","1012.911","12.32","77.72","0.0","0.0"],
    [1512380,"2026-03-23 03:40:00","58877","3.677","52.34","4.867","56.02","1012.911","12.48","76.48","0.0","0.0"],
    [1512381,"2026-03-23 03:50:00","58878","3.888","52.07","5.749","65.28","1012.981","12.6","75.12","0.0","0.0"],
    [1512382,"2026-03-23 04:00:00","58879","5.635","70.64","8.07","85.1","1013.14","12.6","75.26","0.0","0.0"],
    [1512383,"2026-03-23 04:10:00","58880","6.086","72.19","8.89","60.19","1013.235","12.08","78.27","0.0","0.0"],
    [1512384,"2026-03-23 04:20:00","58881","6.501","73.99","9.18","70.17","1013.252","12.09","78.22","0.0","0.0"],
    [1512385,"2026-03-23 04:30:00","58882","6.716","71.7","9.7","63.27","1013.233","12.11","77.69","0.0","0.0"],
    [1512386,"2026-03-23 04:40:00","58883","7.318","65.55","9.83","67.71","1013.265","12.12","75.15","0.0","0.0"],
    [1512387,"2026-03-23 04:50:00","58884","6.662999999999999","58.13","9.57","53.54","1013.383","12.22","73.06","0.0","0.0"],
    [1512388,"2026-03-23 05:00:00","58885","6.524","53.47","8.95","57.24","1013.482","12.21","70.92","0.0","0.0"],
    [1512389,"2026-03-23 05:10:00","58886","7.3629999999999995","44.22","11.66","40.05","1013.467","12.45","68.38","0.0","0.0"],
    [1512390,"2026-03-23 05:20:00","58887","8.66","50.79","11.43","65.26","1013.393","12.4","66.41","0.0","0.0"],
    [1512391,"2026-03-23 05:30:00","58888","8.8","52.35","12.15","62.42","1013.52","12.14","69.73","0.0","0.0"],
    [1512392,"2026-03-23 05:40:00","58889","8.53","56.74","11.4","55.99","1013.702","11.85","73.81","0.0","0.0"],
    [1512393,"2026-03-23 05:50:00","58890","8.7","62.02","11.3","48.99","1013.822","11.67","72.89","0.479","0.0"],
    [1512394,"2026-03-23 06:00:00","58891","10.08","57.75","12.87","64.87","1013.914","11.5","70.82","4.61","0.0"],
    [1512395,"2026-03-23 06:10:00","58892","8.85","66.9","11.99","71.15","1014.218","11.41","69.83","9.51","0.0"],
    [1512396,"2026-03-23 06:20:00","58893","8.8","62.47","11.53","68.42","1014.349","11.25","73.3","19.86","0.0"],
    [1512397,"2026-03-23 06:30:00","58894","8.85","65.45","11.89","68.5","1014.494","11.16","75.46","29.24","0.0"],
    [1512398,"2026-03-23 06:40:00","58895","8.66","69.94","11.24","72.46","1014.704","11.07","76.28","50.03","0.0"],
    [1512399,"2026-03-23 06:50:00","58896","7.984","64.6","10.55","62.59","1014.884","11.19","77.49","109.9","0.0"],
    [1512400,"2026-03-23 07:00:00","58897","7.612","54.93","10.55","61.34","1014.925","11.06","77.62","97.5","0.0"],
    [1512401,"2026-03-23 07:10:00","58898","7.651","66.39","10.39","70.97","1014.874","11.07","78.17","105.0","0.0"],
    [1512402,"2026-03-23 07:20:00","58899","7.621","66.36","9.87","64.29","1014.89","11.08","78.97","121.9","0.0"],
    [1512403,"2026-03-23 07:30:00","58900","6.367999999999999","57.5","8.49","55.67","1015.048","11.28","77.33","242.4","0.0"],
    [1512404,"2026-03-23 07:40:00","58901","6.294","52.46","7.971","40.91","1015.133","11.44","75.13","269.6","0.0"],
    [1512405,"2026-03-23 07:50:00","58902","5.6370000000000005","54.63","7.252000000000001","53.46","1015.302","11.49","74.61","305.6","0.0"],
    [1512406,"2026-03-23 08:00:00","58903","5.557","52.52","7.382999999999999","58.94","1015.402","11.56","74.4","333.1","0.0"],
    [1512407,"2026-03-23 08:10:00","58904","5.17","54.4","6.631","50.77","1015.591","11.44","74.79","347.0","0.0"],
    [1512408,"2026-03-23 08:20:00","58905","4.789","59.69","6.403","66.31","1015.642","11.5","74.22","408.1","0.0"],
    [1512409,"2026-03-23 08:30:00","58906","5.212999999999999","61.14","6.631","71.57","1015.745","11.46","73.94","442.0","0.0"],
    [1512410,"2026-03-23 08:40:00","58907","4.565","70.32","6.011","67.08","1015.884","11.46","73.55","466.5","0.0"],
    [1512411,"2026-03-23 08:50:00","58908","4.416","70.17","5.815","69.5","1015.975","11.46","72.47","500.4","0.0"],
    [1512412,"2026-03-23 09:00:00","58909","5.257000000000001","65.38","7.121","67.02","1016.019","11.55","72.25","530.0","0.0"],
    [1512413,"2026-03-23 09:10:00","58910","4.607","59.54","6.37","73.3","1016.187","11.67","72.33","555.2","0.0"],
    [1512414,"2026-03-23 09:20:00","58911","4.2010000000000005","64.15","5.4879999999999995","64.23","1016.276","11.72","71.33","583.6","0.0"],
    [1512415,"2026-03-23 09:30:00","58912","4.249","66.27","5.782","72.73","1016.362","11.82","71.38","611.0","0.0"],
    [1512416,"2026-03-23 09:40:00","58913","4.439","56.9","6.042999999999999","55.39","1016.541","11.82","71.44","638.6","0.0"],
    [1512417,"2026-03-23 09:50:00","58914","4.882","67.79","6.207000000000001","65.19","1016.606","11.72","71.85","658.5","0.0"],
    [1512418,"2026-03-23 10:00:00","58915","4.504","68.59","5.912999999999999","63.84","1016.701","11.78","71.53","677.3","0.0"],
    [1512419,"2026-03-23 10:10:00","58916","4.683","71.89","5.847","65.86","1016.676","11.98","70.93","700.7","0.0"],
    [1512420,"2026-03-23 10:20:00","58917","4.859","73.65","6.631","74.75","1016.696","12.46","69.8","718.4","0.0"],
    [1512421,"2026-03-23 10:30:00","58918","3.7710000000000004","68.65","5.357","76.74","1016.744","12.87","68.47","734.3","0.0"],
    [1512422,"2026-03-23 10:40:00","58919","4.53","71.01","5.749","64.29","1016.749","12.71","67.81","750.4","0.0"],
    [1512423,"2026-03-23 10:50:00","58920","5.004","69.98","6.435","71.96","1016.796","12.55","67.56","764.2","0.0"],
    [1512424,"2026-03-23 11:00:00","58921","4.816","69.03","6.239","64.49","1016.883","12.55","68.09","777.6","0.0"],
    [1512425,"2026-03-23 11:10:00","58922","4.669","69.38","5.847","64.47","1016.989","12.5","67.44","786.9","0.0"],
    [1512426,"2026-03-23 11:20:00","58923","4.781000000000001","77.37","6.011","76.63","1017.035","12.7","66.92","795.3","0.0"],
    [1512427,"2026-03-23 11:30:00","58924","4.357","79.79","5.749","95.4","1017.185","12.83","66.15","798.1","0.0"],
    [1512428,"2026-03-23 11:40:00","58925","4.1160000000000005","73.49","5.357","70.92","1017.248","12.98","66.16","803.0","0.0"],
    [1512429,"2026-03-23 11:50:00","58926","3.705","72.91","5.063","80.7","1017.337","13.11","64.07","804.0","0.0"],
    [1512430,"2026-03-23 12:00:00","58927","4.486000000000001","76.54","5.782","70.63","1017.371","13.42","63.64","806.0","0.0"],
    [1512431,"2026-03-23 12:10:00","58928","4.953","69.94","7.252000000000001","68.18","1017.394","13.6","63.31","809.0","0.0"],
    [1512432,"2026-03-23 12:20:00","58929","4.686","61.65","6.925","68.02","1017.441","13.81","63.6","807.0","0.0"],
    [1512433,"2026-03-23 12:30:00","58930","5.3420000000000005","70.97","7.546","62.96","1017.417","13.92","63.02","803.0","0.0"],
    [1512434,"2026-03-23 12:40:00","58931","5.734","69.76","8.07","66.85","1017.318","14.05","63.76","802.0","0.0"],
    [1512435,"2026-03-23 12:50:00","58932","5.526","71.45","7.546","63.15","1017.233","14.16","63.45","792.4","0.0"],
    [1512436,"2026-03-23 13:00:00","58933","5.27","69.7","7.023","70.99","1017.254","14.28","63.52","778.6","0.0"],
    [1512437,"2026-03-23 13:10:00","58934","4.45","75.61","6.697","72.13","1017.359","14.46","63.2","811.0","0.0"],
    [1512438,"2026-03-23 13:20:00","58935","5.025","96.3","7.218999999999999","93.1","1017.351","14.3","64.47","660.6","0.0"],
    [1512439,"2026-03-23 13:30:00","58936","5.281000000000001","109.3","7.807","106.6","1017.366","13.81","71.1","794.8","0.0"],
    [1512440,"2026-03-23 13:40:00","58937","4.144","113.8","5.39","122.9","1017.433","13.7","72.92","544.1","0.0"],
    [1512441,"2026-03-23 13:50:00","58938","4.685","110.2","6.7620000000000005","105.9","1017.377","13.68","73.75","682.2","0.0"],
    [1512442,"2026-03-23 14:00:00","58939","4.236000000000001","113.2","5.619","102.5","1017.439","13.65","71.62","721.9","0.0"],
    [1512443,"2026-03-23 14:10:00","58940","3.5380000000000003","136.6","4.737","141.9","1017.451","13.7","72.31","567.5","0.0"],
    [1512444,"2026-03-23 14:20:00","58941","3.4139999999999997","128.8","5.553","147.1","1017.545","13.77","73.42","482.4","0.0"],
    [1512445,"2026-03-23 14:30:00","58942","3.7110000000000003","144.1","5.2589999999999995","146.5","1017.633","13.7","74.06","503.0","0.0"],
    [1512446,"2026-03-23 14:40:00","58943","3.3680000000000003","122.6","5.39","123.0","1017.814","13.7","73.78","320.2","0.0"],
    [1512447,"2026-03-23 14:50:00","58944","2.898","120.4","4.279","115.0","1017.814","13.58","73.44","199.7","0.0"],
    [1512448,"2026-03-23 15:00:00","58945","2.516","147.6","3.7239999999999998","150.8","1017.925","13.66","74.05","192.0","0.0"],
    [1512449,"2026-03-23 15:10:00","58946","2.229","125.8","3.6910000000000003","89.8","1017.994","13.72","74.68","348.8","0.0"],
    [1512450,"2026-03-23 15:20:00","58947","3.0410000000000004","102.2","4.149","108.2","1018.098","13.78","73.16","270.2","0.0"],
    [1512451,"2026-03-23 15:30:00","58948","2.3680000000000003","91.2","3.071","100.9","1018.167","13.84","72.19","214.3","0.0"],
    [1512452,"2026-03-23 15:40:00","58949","3.0789999999999997","75.51","4.345","77.0","1018.137","13.88","70.68","289.3","0.0"],
    [1512453,"2026-03-23 15:50:00","58950","3.035","61.38","4.2139999999999995","74.59","1018.216","14.03","69.16","314.5","0.0"],
    [1512454,"2026-03-23 16:00:00","58951","3.693","70.11","5.063","64.46","1018.182","14.1","68.9","347.1","0.0"],
    [1512455,"2026-03-23 16:10:00","58952","2.7239999999999998","49.79","4.508","67.22","1018.349","14.15","68.31","319.9","0.0"],
    [1512456,"2026-03-23 16:20:00","58953","2.4090000000000003","39.46","3.6910000000000003","41.76","1018.452","14.15","67.15","265.1","0.0"],
    [1512457,"2026-03-23 16:30:00","58954","2.439","57.88","3.822","69.59","1018.572","14.17","65.85","245.5","0.0"],
    [1512458,"2026-03-23 16:40:00","58955","2.5380000000000003","49.29","3.92","58.74","1018.603","14.24","64.81","224.7","0.0"],
    [1512459,"2026-03-23 16:50:00","58956","3.241","69.31","4.4430000000000005","74.53","1018.649","14.2","64.15","144.6","0.0"],
    [1512460,"2026-03-23 17:00:00","58957","2.383","69.76","3.7569999999999997","73.45","1018.827","14.24","64.43","164.5","0.0"],
    [1512461,"2026-03-23 17:10:00","58958","2.787","64.51","4.345","72.14","1018.943","14.17","64.48","122.0","0.0"],
    [1512462,"2026-03-23 17:20:00","58959","3.165","45.62","4.345","21.29","1019.108","14.21","64.09","91.3","0.0"],
    [1512463,"2026-03-23 17:30:00","58960","2.7319999999999998","51.89","3.9530000000000003","56.99","1019.239","14.21","64.01","44.11","0.0"],
    [1512464,"2026-03-23 17:40:00","58961","2.863","67.51","5.4879999999999995","76.31","1019.301","14.18","64.14","25.47","0.0"],
    [1512465,"2026-03-23 17:50:00","58962","3.157","63.78","4.965","66.49","1019.366","14.11","63.65","16.26","0.0"],
    [1512466,"2026-03-23 18:00:00","58963","2.414","64.97","4.345","59.29","1019.482","14.14","64.09","8.45","0.0"],
    [1512467,"2026-03-23 18:10:00","58964","3.287","68.73","4.475","74.25","1019.582","14.07","63.53","2.25","0.0"],
    [1512468,"2026-03-23 18:20:00","58965","3.062","69.91","4.181","64.96","1019.617","14.06","63.74","0.019","0.0"],
    [1512469,"2026-03-23 18:30:00","58966","2.885","65.79","4.2139999999999995","59.62","1019.747","14.0","64.5","0.0","0.0"],
    [1512470,"2026-03-23 18:40:00","58967","2.331","60.84","3.659","62.07","1019.893","13.92","65.3","0.0","0.0"],
    [1512471,"2026-03-23 18:50:00","58968","2.1719999999999997","73.5","3.201","80.5","1020.06","13.97","66.01","0.0","0.0"],
    [1512472,"2026-03-23 19:00:00","58969","2.168","86.7","3.267","98.2","1020.251","13.88","66.48","0.0","0.0"],
    [1512473,"2026-03-23 19:10:00","58970","1.3940000000000001","76.44","2.417","66.97","1020.41","13.9","66.31","0.0","0.0"],
    [1512474,"2026-03-23 19:20:00","58971","1.249","76.61","1.993","93.1","1020.511","13.81","66.73","0.0","0.0"],
    [1512475,"2026-03-23 19:30:00","58972","0.774","87.0","1.209","70.89","1020.682","13.85","66.67","0.0","0.0"],
    [1512476,"2026-03-23 19:40:00","58973","0.9420000000000001","75.45","1.601","73.91","1020.802","13.84","66.95","0.0","0.0"],
    [1512477,"2026-03-23 19:50:00","58974","1.4140000000000001","94.1","1.895","93.7","1020.946","13.83","67.15","0.0","0.0"],
    [1512478,"2026-03-23 20:00:00","58975","1.1540000000000001","106.3","1.829","97.1","1021.098","13.85","66.92","0.0","0.0"],
    [1512479,"2026-03-23 20:10:00","58976","0.975","130.6","1.339","132.4","1021.244","13.81","67.17","0.0","0.0"],
    [1512480,"2026-03-23 20:20:00","58977","0.508","141.4","1.078","154.0","1021.382","13.83","66.79","0.0","0.0"],
    [1512481,"2026-03-23 20:30:00","58978","0.048","113.8","0.7509999999999999","115.2","1021.449","13.74","66.44","0.0","0.0"],
    [1512482,"2026-03-23 20:40:00","58979","0.0","0.0","0.0","0.0","1021.538","13.75","66.08","0.0","0.0"],
    [1512483,"2026-03-23 20:50:00","58980","0.0","0.0","0.0","0.0","1021.597","13.67","66.52","0.0","0.0"],
    [1512484,"2026-03-23 21:00:00","58981","0.039","245.4","0.9470000000000001","247.6","1021.716","13.68","66.83","0.0","0.0"],
    [1512485,"2026-03-23 21:10:00","58982","0.515","236.5","1.078","242.4","1021.78","13.69","66.42","0.0","0.0"],
    [1512486,"2026-03-23 21:20:00","58983","0.639","230.0","0.915","258.5","1021.801","13.68","66.2","0.0","0.0"],
    [1512487,"2026-03-23 21:30:00","58984","0.7090000000000001","230.3","1.274","225.3","1021.809","13.69","66.09","0.0","0.0"],
    [1512488,"2026-03-23 21:40:00","58985","0.6559999999999999","238.4","1.143","238.4","1021.822","13.65","65.99","0.0","0.0"],
    [1512489,"2026-03-23 21:50:00","58986","0.821","231.6","1.764","216.6","1021.81","13.62","66.02","0.0","0.0"],
    [1512490,"2026-03-23 22:00:00","58987","0.968","242.0","1.601","258.1","1021.824","13.63","65.86","0.0","0.0"],
    [1512491,"2026-03-23 22:10:00","58988","0.875","240.2","1.601","266.4","1021.82","13.55","66.27","0.0","0.0"],
    [1512492,"2026-03-23 22:20:00","58989","0.667","257.2","1.699","243.1","1021.796","13.4","67.07","0.0","0.0"],
    [1512493,"2026-03-23 22:30:00","58990","0.9990000000000001","260.0","1.633","253.9","1021.839","13.26","67.83","0.0","0.0"],
    [1512494,"2026-03-23 22:40:00","58991","1.271","266.1","2.0580000000000003","266.5","1021.901","13.21","68.37","0.0","0.0"],
    [1512495,"2026-03-23 22:50:00","58992","2.032","284.7","3.0380000000000003","287.3","1021.906","13.23","68.79","0.0","0.0"],
    [1512496,"2026-03-23 23:00:00","58993","1.6119999999999999","280.6","2.7769999999999997","278.1","1021.859","13.26","68.45","0.0","0.0"],
    [1512497,"2026-03-23 23:10:00","58994","1.385","278.7","2.385","295.5","1021.856","13.09","68.96","0.0","0.0"],
    [1512498,"2026-03-23 23:20:00","58995","1.4580000000000002","281.5","2.287","281.5","1021.784","13.03","69.3","0.0","0.0"],
    [1512499,"2026-03-23 23:30:00","58996","1.615","280.5","3.136","285.1","1021.735","13.03","69.0","0.0","0.0"],
    [1512500,"2026-03-23 23:40:00","58997","1.7919999999999998","281.3","2.679","282.6","1021.694","12.96","68.62","0.0","0.0"],
    [1512501,"2026-03-23 23:50:00","58998","2.055","281.2","3.6260000000000003","287.7","1021.65","12.98","68.07","0.0","0.0"],
    [1512502,"2026-03-24 00:00:00","58999","1.705","264.4","3.495","288.4","1021.679","12.9","67.51","0.0","0.0"],
    [1512503,"2026-03-24 00:10:00","59000","0.9890000000000001","255.8","2.254","247.6","1021.658","12.8","67.94","0.0","0.0"],
    [1512504,"2026-03-24 00:20:00","59001","0.907","267.0","1.797","281.4","1021.711","12.72","67.93","0.0","0.0"],
    [1512505,"2026-03-24 00:30:00","59002","1.724","292.2","3.0380000000000003","297.0","1021.842","12.88","67.38","0.0","0.0"],
    [1512506,"2026-03-24 00:40:00","59003","1.9809999999999999","284.6","2.7439999999999998","280.3","1021.688","13.02","65.65","0.0","0.0"],
    [1512507,"2026-03-24 00:50:00","59004","1.829","289.3","2.9730000000000003","284.2","1021.78","13.05","65.09","0.0","0.0"],
    [1512508,"2026-03-24 01:00:00","59005","2.301","287.8","3.7569999999999997","293.2","1021.788","13.09","64.51","0.0","0.0"],
    [1512509,"2026-03-24 01:10:00","59006","2.464","289.9","3.593","288.9","1021.726","13.07","64.21","0.0","0.0"],
    [1512510,"2026-03-24 01:20:00","59007","2.2030000000000003","287.2","3.397","285.0","1021.712","13.03","64.04","0.0","0.0"],
    [1512511,"2026-03-24 01:30:00","59008","1.901","280.1","2.7769999999999997","287.0","1021.714","12.87","64.39","0.0","0.0"],
    [1512512,"2026-03-24 01:40:00","59009","1.891","280.8","2.8089999999999997","285.6","1021.658","12.78","65.17","0.0","0.0"],
    [1512513,"2026-03-24 01:50:00","59010","1.6680000000000001","279.1","2.7439999999999998","278.4","1021.706","12.75","65.73","0.0","0.0"],
    [1512514,"2026-03-24 02:00:00","59011","1.849","278.5","2.94","305.1","1021.674","12.72","66.5","0.0","0.0"],
    [1512515,"2026-03-24 02:10:00","59012","1.915","268.4","2.7439999999999998","291.2","1021.59","12.58","67.46","0.0","0.0"],
    [1512516,"2026-03-24 02:20:00","59013","1.439","260.4","2.156","256.1","1021.545","12.42","68.72","0.0","0.0"],
    [1512517,"2026-03-24 02:30:00","59014","1.735","260.7","2.319","268.4","1021.48","12.31","69.7","0.0","0.0"],
    [1512518,"2026-03-24 02:40:00","59015","1.6640000000000001","258.0","2.6460000000000004","257.1","1021.413","12.2","70.5","0.0","0.0"],
    [1512519,"2026-03-24 02:50:00","59016","1.642","256.2","2.45","264.0","1021.34","12.08","71.15","0.0","0.0"],
    [1512520,"2026-03-24 03:00:00","59017","1.5119999999999998","258.1","2.221","254.5","1021.311","12.0","71.77","0.0","0.0"],
    [1512521,"2026-03-24 03:10:00","59018","1.46","255.3","2.385","262.6","1021.344","11.88","72.03","0.0","0.0"],
    [1512522,"2026-03-24 03:20:00","59019","1.3259999999999998","253.7","2.417","273.1","1021.365","11.75","71.92","0.0","0.0"],
    [1512523,"2026-03-24 03:30:00","59020","1.454","252.2","2.7439999999999998","248.3","1021.301","11.75","71.59","0.0","0.0"],
    [1512524,"2026-03-24 03:40:00","59021","1.801","255.7","3.463","257.9","1021.321","11.69","71.43","0.0","0.0"],
    [1512525,"2026-03-24 03:50:00","59022","1.6230000000000002","256.1","2.907","265.2","1021.386","11.74","71.25","0.0","0.0"],
    [1512526,"2026-03-24 04:00:00","59023","1.5919999999999999","256.7","2.8089999999999997","269.5","1021.441","11.75","70.92","0.0","0.0"],
    [1512527,"2026-03-24 04:10:00","59024","1.2309999999999999","233.4","1.9269999999999998","262.0","1021.417","11.76","70.92","0.0","0.0"],
    [1512528,"2026-03-24 04:20:00","59025","1.186","228.4","2.0580000000000003","227.3","1021.482","11.71","71.15","0.0","0.0"],
    [1512529,"2026-03-24 04:30:00","59026","1.287","224.5","1.96","229.6","1021.555","11.62","71.48","0.0","0.0"],
    [1512530,"2026-03-24 04:40:00","59027","0.878","236.0","1.666","220.7","1021.637","11.64","71.63","0.0","0.0"],
    [1512531,"2026-03-24 04:50:00","59028","1.031","236.1","1.96","230.2","1021.617","11.64","71.64","0.0","0.0"],
    [1512532,"2026-03-24 05:00:00","59029","1.347","242.0","2.417","245.6","1021.74","11.59","71.59","0.0","0.0"],
    [1512533,"2026-03-24 05:10:00","59030","1.4480000000000002","244.3","2.8089999999999997","249.2","1021.855","11.42","72.14","0.0","0.0"],
    [1512534,"2026-03-24 05:20:00","59031","1.7280000000000002","251.5","2.7769999999999997","251.4","1021.847","11.34","72.45","0.0","0.0"],
    [1512535,"2026-03-24 05:30:00","59032","1.8219999999999998","243.9","3.071","225.5","1021.887","11.37","72.33","0.0","0.0"],
    [1512536,"2026-03-24 05:40:00","59033","1.3969999999999998","252.0","2.483","265.7","1022.018","11.38","72.15","0.0","0.0"],
    [1512537,"2026-03-24 05:50:00","59034","2.057","262.0","3.136","260.8","1022.145","11.33","72.42","1.371","0.0"],
    [1512538,"2026-03-24 06:00:00","59035","1.883","258.1","2.94","258.1","1022.236","11.43","72.45","7.886","0.0"],
    [1512539,"2026-03-24 06:10:00","59036","2.3930000000000002","259.3","3.234","254.9","1022.354","11.43","72.25","20.18","0.0"],
    [1512540,"2026-03-24 06:20:00","59037","2.089","261.3","2.842","263.5","1022.477","11.45","72.15","39.31","0.0"],
    [1512541,"2026-03-24 06:30:00","59038","2.12","268.0","2.875","263.2","1022.528","11.53","71.85","62.18","0.0"],
    [1512542,"2026-03-24 06:40:00","59039","1.53","269.7","1.993","254.9","1022.643","11.6","71.81","87.5","0.0"],
    [1512543,"2026-03-24 06:50:00","59040","1.3219999999999998","273.9","2.254","270.4","1022.786","11.74","71.45","114.6","0.0"],
    [1512544,"2026-03-24 07:00:00","59041","1.1520000000000001","269.4","1.633","259.8","1022.88","11.79","71.49","142.8","0.0"],
    [1512545,"2026-03-24 07:10:00","59042","0.8390000000000001","252.5","1.47","257.1","1022.953","11.87","71.4","168.9","0.0"],
    [1512546,"2026-03-24 07:20:00","59043","0.147","265.4","0.7190000000000001","270.2","1022.978","12.32","71.3","201.1","0.0"],
    [1512547,"2026-03-24 07:30:00","59044","0.345","257.8","1.2409999999999999","250.1","1023.056","12.53","70.78","233.5","0.0"],
    [1512548,"2026-03-24 07:40:00","59045","0.9620000000000001","239.3","1.4369999999999998","247.2","1023.092","12.65","69.98","267.1","0.0"],
    [1512549,"2026-03-24 07:50:00","59046","1.061","244.5","1.797","248.5","1023.091","12.91","69.13","299.9","0.0"],
    [1512550,"2026-03-24 08:00:00","59047","1.175","241.0","1.96","247.1","1023.122","13.01","67.83","330.0","0.0"],
    [1512551,"2026-03-24 08:10:00","59048","1.2590000000000001","251.5","2.221","260.9","1023.221","13.27","66.74","368.9","0.0"],
    [1512552,"2026-03-24 08:20:00","59049","1.49","230.1","2.45","213.2","1023.337","13.47","65.57","399.3","0.0"],
    [1512553,"2026-03-24 08:30:00","59050","1.2109999999999999","225.4","2.0909999999999997","238.6","1023.448","13.77","64.47","413.7","0.0"],
    [1512554,"2026-03-24 08:40:00","59051","1.5319999999999998","225.4","2.483","204.4","1023.501","13.93","63.53","472.8","0.0"],
    [1512555,"2026-03-24 08:50:00","59052","1.614","232.6","2.7110000000000003","255.4","1023.59","14.1","62.72","511.7","0.0"],
    [1512556,"2026-03-24 09:00:00","59053","1.3159999999999998","222.7","2.45","203.3","1023.62","14.34","61.38","536.3","0.0"],
    [1512557,"2026-03-24 09:10:00","59054","1.751","200.6","2.875","234.8","1023.634","14.54","60.15","551.8","0.0"],
    [1512558,"2026-03-24 09:20:00","59055","1.263","253.0","2.189","269.3","1023.658","14.98","58.9","579.2","0.0"],
    [1512559,"2026-03-24 09:30:00","59056","1.011","237.7","2.254","203.6","1023.711","15.43","57.38","602.2","0.0"],
    [1512560,"2026-03-24 09:40:00","59057","0.9109999999999999","205.0","2.123","230.0","1023.769","15.59","57.09","632.8","0.0"],
    [1512561,"2026-03-24 09:50:00","59058","2.0469999999999997","167.7","2.6460000000000004","171.8","1023.796","15.27","59.29","658.1","0.0"],
    [1512562,"2026-03-24 10:00:00","59059","2.108","171.0","2.679","169.0","1023.752","15.03","61.91","681.0","0.0"],
    [1512563,"2026-03-24 10:10:00","59060","2.819","161.7","3.5610000000000004","164.2","1023.671","15.25","59.96","699.2","0.0"],
    [1512564,"2026-03-24 10:20:00","59061","3.678","165.0","4.508","170.1","1023.604","15.42","63.69","727.8","0.0"],
    [1512565,"2026-03-24 10:30:00","59062","3.701","178.1","4.671","189.4","1023.564","15.18","66.11","733.1","0.0"],
    [1512566,"2026-03-24 10:40:00","59063","4.516","175.8","6.207000000000001","169.0","1023.492","14.96","67.17","744.7","0.0"],
    [1512567,"2026-03-24 10:50:00","59064","5.193","184.6","6.7620000000000005","188.1","1023.398","14.87","64.08","759.1","0.0"],
    [1512568,"2026-03-24 11:00:00","59065","5.235","185.0","6.337000000000001","181.5","1023.412","14.87","63.98","763.0","0.0"],
    [1512569,"2026-03-24 11:10:00","59066","5.13","185.0","6.305","176.7","1023.32","14.95","63.54","778.7","0.0"],
    [1512570,"2026-03-24 11:20:00","59067","5.249","187.3","6.501","185.2","1023.24","14.99","62.8","796.0","0.0"],
    [1512571,"2026-03-24 11:30:00","59068","5.39","186.1","6.468","186.0","1023.227","15.0","62.64","803.0","0.0"],
    [1512572,"2026-03-24 11:40:00","59069","5.05","184.7","6.37","181.0","1023.129","14.97","63.71","804.0","0.0"],
    [1512573,"2026-03-24 11:50:00","59070","5.018","183.1","6.599","183.2","1023.013","14.9","65.98","807.0","0.0"],
    [1512574,"2026-03-24 12:00:00","59071","5.192","185.0","6.5329999999999995","185.2","1022.887","14.83","67.32","812.0","0.0"],
    [1512575,"2026-03-24 12:10:00","59072","5.376","185.8","6.697","189.7","1022.776","14.71","68.53","814.0","0.0"],
    [1512576,"2026-03-24 12:20:00","59073","5.888999999999999","187.6","7.285","194.8","1022.632","14.92","67.6","808.0","0.0"],
    [1512577,"2026-03-24 12:30:00","59074","5.49","188.3","7.154","188.0","1022.527","15.12","65.85","805.0","0.0"],
    [1512578,"2026-03-24 12:40:00","59075","6.224","187.3","7.807","183.2","1022.4","15.14","65.16","797.5","0.0"],
    [1512579,"2026-03-24 12:50:00","59076","5.821000000000001","186.8","7.481","189.5","1022.328","15.12","67.89","791.2","0.0"],
    [1512580,"2026-03-24 13:00:00","59077","5.61","184.9","7.775","192.0","1022.239","15.03","70.69","780.5","0.0"],
    [1512581,"2026-03-24 13:10:00","59078","5.763999999999999","185.0","7.905","188.4","1022.183","14.94","73.03","771.7","0.0"],
    [1512582,"2026-03-24 13:20:00","59079","5.7410000000000005","184.1","7.6770000000000005","196.1","1022.09","14.92","74.42","760.4","0.0"],
    [1512583,"2026-03-24 13:30:00","59080","6.058","184.1","7.807","195.4","1021.984","14.98","74.95","737.6","0.0"],
    [1512584,"2026-03-24 13:40:00","59081","6.776","190.7","8.92","175.3","1021.808","15.21","70.54","727.8","0.0"],
    [1512585,"2026-03-24 13:50:00","59082","6.0360000000000005","194.6","8.85","208.9","1021.711","16.05","58.79","713.0","0.0"],
    [1512586,"2026-03-24 14:00:00","59083","6.325","198.8","9.73","208.4","1021.577","16.32","56.33","697.9","0.0"],
    [1512587,"2026-03-24 14:10:00","59084","6.255","196.3","8.33","198.8","1021.565","16.29","53.51","680.6","0.0"],
    [1512588,"2026-03-24 14:20:00","59085","5.822","194.0","8.85","189.3","1021.551","16.15","56.3","658.2","0.0"],
    [1512589,"2026-03-24 14:30:00","59086","6.303","191.6","8.79","178.4","1021.488","15.8","58.09","632.8","0.0"],
    [1512590,"2026-03-24 14:40:00","59087","6.15","202.7","10.19","200.3","1021.501","15.97","55.12","607.2","0.0"],
    [1512591,"2026-03-24 14:50:00","59088","5.8870000000000005","200.3","9.77","187.7","1021.477","16.1","52.59","580.4","0.0"],
    [1512592,"2026-03-24 15:00:00","59089","6.505","198.0","10.62","192.8","1021.302","15.78","57.48","554.1","0.0"],
    [1512593,"2026-03-24 15:10:00","59090","5.973","196.9","9.24","184.9","1021.333","15.65","60.84","523.8","0.0"],
    [1512594,"2026-03-24 15:20:00","59091","6.92","200.5","9.51","208.1","1021.269","15.46","62.49","494.9","0.0"],
    [1512595,"2026-03-24 15:30:00","59092","5.85","201.7","8.23","189.4","1021.232","15.51","62.68","453.3","0.0"],
    [1512596,"2026-03-24 15:40:00","59093","5.047","210.4","8.46","210.5","1021.206","15.62","62.59","429.3","0.0"],
    [1512597,"2026-03-24 15:50:00","59094","4.593999999999999","215.7","8.1","236.6","1021.161","15.68","62.62","401.4","0.0"],
    [1512598,"2026-03-24 16:00:00","59095","4.578","213.5","8.46","221.6","1021.112","15.62","63.51","366.9","0.0"],
    [1512599,"2026-03-24 16:10:00","59096","6.315","218.7","9.64","232.3","1021","15.29","62.94","295.5","0.0"],
    [1512600,"2026-03-24 16:20:00","59097","4.873","216.2","8.0","197.5","1021.022","15.41","63.95","288.8","0.0"],
    [1512601,"2026-03-24 16:30:00","59098","4.6739999999999995","213.4","7.971","219.8","1021.038","15.28","65.47","273.1","0.0"],
    [1512602,"2026-03-24 16:40:00","59099","5.569","218.1","9.08","218.3","1021.059","15.19","64.75","229.9","0.0"],
    [1512603,"2026-03-24 16:50:00","59100","5.154","219.1","8.82","213.7","1021.085","15.16","64.69","196.7","0.0"],
    [1512604,"2026-03-24 17:00:00","59101","4.648","217.2","8.23","221.0","1021.145","15.2","64.03","172.9","0.0"],
    [1512605,"2026-03-24 17:10:00","59102","5.103","219.9","8.1","222.6","1021.119","15.16","64.28","142.3","0.0"],
    [1512606,"2026-03-24 17:20:00","59103","4.507","221.4","9.05","224.3","1021.127","15.15","65.37","115.0","0.0"],
    [1512607,"2026-03-24 17:30:00","59104","5.012","217.6","8.49","223.5","1021.186","14.98","67.07","88.3","0.0"],
    [1512608,"2026-03-24 17:40:00","59105","5.061","218.9","9.6","220.2","1021.226","14.88","68.26","61.5","0.0"],
    [1512609,"2026-03-24 17:50:00","59106","4.206","219.0","7.252000000000001","224.6","1021.269","14.82","68.82","34.51","0.0"],
    [1512610,"2026-03-24 18:00:00","59107","5.15","221.6","7.742000000000001","212.3","1021.229","14.72","69.65","14.96","0.0"],
    [1512611,"2026-03-24 18:10:00","59108","5.268","218.3","8.1","217.6","1021.235","14.62","70.57","4.2","0.0"],
    [1512612,"2026-03-24 18:20:00","59109","5.166","217.0","8.82","212.9","1021.341","14.57","71.49","0.226","0.0"],
    [1512613,"2026-03-24 18:30:00","59110","4.842","219.1","7.546","213.0","1021.442","14.55","71.68","0.0","0.0"],
    [1512614,"2026-03-24 18:40:00","59111","5.111000000000001","219.4","9.47","222.0","1021.5","14.52","71.96","0.0","0.0"],
    [1512615,"2026-03-24 18:50:00","59112","4.342","219.7","7.481","205.9","1021.628","14.49","72.62","0.0","0.0"],
    [1512616,"2026-03-24 19:00:00","59113","4.5680000000000005","217.4","6.5329999999999995","205.3","1021.758","14.45","73.31","0.0","0.0"],
    [1512617,"2026-03-24 19:10:00","59114","4.559","218.2","7.187","218.8","1021.875","14.42","73.66","0.0","0.0"],
    [1512618,"2026-03-24 19:20:00","59115","4.769","218.8","6.141","212.7","1021.985","14.39","73.85","0.0","0.0"],
    [1512619,"2026-03-24 19:30:00","59116","4.771","220.1","7.382999999999999","220.9","1022.045","14.35","74.05","0.0","0.0"],
    [1512620,"2026-03-24 19:40:00","59117","4.309","219.0","6.827000000000001","227.7","1022.083","14.32","74.0","0.0","0.0"],
    [1512621,"2026-03-24 19:50:00","59118","4.591","219.8","7.218999999999999","217.6","1022.146","14.31","73.26","0.0","0.0"],
    [1512622,"2026-03-24 20:00:00","59119","4.475","218.2","7.971","215.6","1022.22","14.31","72.45","0.0","0.0"],
    [1512623,"2026-03-24 20:10:00","59120","4.166","218.9","7.35","226.5","1022.246","14.26","72.28","0.0","0.0"],
    [1512624,"2026-03-24 20:20:00","59121","4.242","219.6","6.86","226.7","1022.283","14.23","72.11","0.0","0.0"],
    [1512625,"2026-03-24 20:30:00","59122","4.7139999999999995","218.6","7.35","216.1","1022.368","14.22","71.63","0.0","0.0"],
    [1512626,"2026-03-24 20:40:00","59123","4.213","218.9","6.141","209.4","1022.48","14.24","70.74","0.0","0.0"],
    [1512627,"2026-03-24 20:50:00","59124","4.301","220.5","6.925","227.9","1022.488","14.24","70.08","0.0","0.0"],
    [1512628,"2026-03-24 21:00:00","59125","4.13","217.0","6.042999999999999","221.9","1022.567","14.2","69.91","0.0","0.0"],
    [1512629,"2026-03-24 21:10:00","59126","4.013999999999999","219.6","5.978","194.9","1022.608","14.18","69.73","0.0","0.0"],
    [1512630,"2026-03-24 21:20:00","59127","3.427","218.0","6.37","233.8","1022.574","14.15","69.72","0.0","0.0"],
    [1512631,"2026-03-24 21:30:00","59128","3.733","216.0","5.521","230.1","1022.516","14.14","69.48","0.0","0.0"],
    [1512632,"2026-03-24 21:40:00","59129","3.593","216.8","6.1739999999999995","202.3","1022.498","14.12","69.35","0.0","0.0"],
    [1512633,"2026-03-24 21:50:00","59130","3.452","217.4","5.39","217.9","1022.478","14.07","69.68","0.0","0.0"],
    [1512634,"2026-03-24 22:00:00","59131","3.9610000000000003","215.7","6.1739999999999995","218.9","1022.351","14.06","69.9","0.0","0.0"],
    [1512635,"2026-03-24 22:10:00","59132","4.082","217.2","6.664","207.4","1022.218","14.04","70.21","0.0","0.0"],
    [1512636,"2026-03-24 22:20:00","59133","3.7880000000000003","219.2","6.272","213.7","1022.115","14.05","70.31","0.0","0.0"],
    [1512637,"2026-03-24 22:30:00","59134","4.175","217.2","6.957999999999999","211.3","1022.071","14.04","70.14","0.0","0.0"],
    [1512638,"2026-03-24 22:40:00","59135","4.081","219.4","7.285","210.1","1021.936","13.98","70.45","0.0","0.0"],
    [1512639,"2026-03-24 22:50:00","59136","3.903","219.3","6.7620000000000005","217.1","1021.931","13.94","70.74","0.0","0.0"],
    [1512640,"2026-03-24 23:00:00","59137","3.6260000000000003","217.0","6.403","225.4","1021.889","13.86","71.24","0.0","0.0"],
    [1512641,"2026-03-24 23:10:00","59138","4.225","218.0","6.272","221.4","1021.818","13.86","71.57","0.0","0.0"],
    [1512642,"2026-03-24 23:20:00","59139","3.806","219.1","5.88","219.6","1021.805","13.87","71.62","0.0","0.0"],
    [1512643,"2026-03-24 23:30:00","59140","3.0589999999999997","224.6","5.455","229.6","1021.8","13.84","71.69","0.0","0.0"],
    [1512644,"2026-03-24 23:40:00","59141","2.7110000000000003","233.7","4.965","215.3","1021.752","13.84","71.01","0.0","0.0"],
    [1512645,"2026-03-24 23:50:00","59142","2.6639999999999997","231.2","4.998","230.3","1021.715","13.91","69.26","0.0","0.0"],
    [1512646,"2026-03-25 00:00:00","59143","2.27","235.9","3.7569999999999997","216.7","1021.709","13.8","69.02","0.0","0.0"],
    [1512647,"2026-03-25 00:10:00","59144","2.505","234.2","3.7569999999999997","224.8","1021.723","13.72","68.51","0.0","0.0"],
    [1512648,"2026-03-25 00:20:00","59145","2.2569999999999997","226.6","4.312","207.3","1021.658","13.79","66.91","0.0","0.0"],
    [1512649,"2026-03-25 00:30:00","59146","1.859","232.8","3.0380000000000003","224.7","1021.642","13.77","66.9","0.0","0.0"],
    [1512650,"2026-03-25 00:40:00","59147","1.704","234.6","2.679","219.8","1021.598","13.75","66.74","0.0","0.0"],
    [1512651,"2026-03-25 00:50:00","59148","1.328","240.7","2.907","224.4","1021.459","13.69","66.72","0.0","0.0"],
    [1512652,"2026-03-25 01:00:00","59149","1.4680000000000002","233.1","2.5810000000000004","230.1","1021.355","13.53","65.5","0.0","0.0"],
    [1512653,"2026-03-25 01:10:00","59150","1.482","233.2","2.287","220.5","1021.283","13.66","61.05","0.0","0.0"],
    [1512654,"2026-03-25 01:20:00","59151","1.5630000000000002","223.9","2.385","215.8","1021.058","13.81","59.27","0.0","0.0"],
    [1512655,"2026-03-25 01:30:00","59152","1.5590000000000002","227.3","2.515","249.9","1020.869","13.69","61.77","0.0","0.0"],
    [1512656,"2026-03-25 01:40:00","59153","1.615","236.2","2.7110000000000003","222.1","1020.717","13.46","63.16","0.0","0.0"],
    [1512657,"2026-03-25 01:50:00","59154","2.226","226.5","4.149","246.1","1020.516","13.49","60.52","0.0","0.0"],
    [1512658,"2026-03-25 02:00:00","59155","2.218","235.1","4.018","248.7","1020.389","13.55","58.18","0.0","0.0"],
    [1512659,"2026-03-25 02:10:00","59156","2.184","232.2","3.299","217.9","1020.415","13.35","58.31","0.0","0.0"],
    [1512660,"2026-03-25 02:20:00","59157","2.131","227.7","3.234","220.2","1020.27","13.2","59.1","0.0","0.0"],
    [1512661,"2026-03-25 02:30:00","59158","2.275","221.4","3.7239999999999998","228.4","1020.049","13.11","60.1","0.0","0.0"],
    [1512662,"2026-03-25 02:40:00","59159","2.27","224.2","3.855","215.8","1019.843","12.98","60.22","0.0","0.0"],
    [1512663,"2026-03-25 02:50:00","59160","1.8459999999999999","252.4","3.0380000000000003","251.0","1019.812","12.63","60.28","0.0","0.0"],
    [1512664,"2026-03-25 03:00:00","59161","1.78","252.5","3.528","253.4","1019.746","11.99","63.22","0.0","0.0"],
    [1512665,"2026-03-25 03:10:00","59162","1.4669999999999999","251.9","2.515","244.8","1019.674","12.14","62.46","0.0","0.0"],
    [1512666,"2026-03-25 03:20:00","59163","1.368","243.0","2.123","243.0","1019.559","12.22","61.69","0.0","0.0"],
    [1512667,"2026-03-25 03:30:00","59164","1.62","257.2","2.5810000000000004","244.1","1019.496","11.98","61.76","0.0","0.0"],
    [1512668,"2026-03-25 03:40:00","59165","1.494","222.1","2.679","229.4","1019.285","12.02","62.09","0.0","0.0"],
    [1512669,"2026-03-25 03:50:00","59166","1.271","232.8","2.221","207.6","1019.154","11.91","62.15","0.0","0.0"],
    [1512670,"2026-03-25 04:00:00","59167","1.1320000000000001","258.0","2.025","253.7","1019.11","11.56","63.69","0.0","0.0"],
    [1512671,"2026-03-25 04:10:00","59168","1.29","257.3","2.515","255.1","1019.119","11.13","65.9","0.0","0.0"],
    [1512672,"2026-03-25 04:20:00","59169","0.972","260.2","2.025","242.4","1019.094","11.12","66.44","0.0","0.0"],
    [1512673,"2026-03-25 04:30:00","59170","1.442","222.9","3.299","252.1","1018.908","11.62","64.52","0.0","0.0"],
    [1512674,"2026-03-25 04:40:00","59171","1.2819999999999998","255.4","2.515","251.6","1018.941","12.01","60.29","0.0","0.0"],
    [1512675,"2026-03-25 04:50:00","59172","1.6269999999999998","251.4","2.5810000000000004","273.2","1018.923","11.57","61.86","0.0","0.0"],
    [1512676,"2026-03-25 05:00:00","59173","1.39","245.8","2.548","263.0","1018.771","11.76","60.29","0.0","0.0"],
    [1512677,"2026-03-25 05:10:00","59174","1.9080000000000001","225.6","3.6260000000000003","210.3","1018.661","12.08","59.63","0.0","0.0"],
    [1512678,"2026-03-25 05:20:00","59175","1.639","227.6","3.071","226.5","1018.619","12.38","57.89","0.0","0.0"],
    [1512679,"2026-03-25 05:30:00","59176","1.253","241.6","2.254","242.0","1018.666","12.11","58.23","0.0","0.0"],
    [1512680,"2026-03-25 05:40:00","59177","1.158","251.8","2.025","263.3","1018.728","11.49","60.35","0.001","0.0"],
    [1512681,"2026-03-25 05:50:00","59178","1.508","245.8","2.875","234.5","1018.786","11.62","61.01","2.127","0.0"],
    [1512682,"2026-03-25 06:00:00","59179","1.682","258.9","2.8089999999999997","266.7","1018.856","10.91","63.72","9.15","0.0"],
    [1512683,"2026-03-25 06:10:00","59180","1.4340000000000002","242.7","2.319","260.8","1018.712","11.19","63.42","22.86","0.0"],
    [1512684,"2026-03-25 06:20:00","59181","1.5719999999999998","233.5","3.397","232.3","1018.616","11.37","61.88","43.62","0.0"],
    [1512685,"2026-03-25 06:30:00","59182","1.54","245.4","3.071","233.2","1018.549","11.26","61.74","70.84","0.0"],
    [1512686,"2026-03-25 06:40:00","59183","1.8259999999999998","270.0","2.7110000000000003","258.2","1018.663","11.28","62.2","99.4","0.0"],
    [1512687,"2026-03-25 06:50:00","59184","1.902","267.8","2.842","271.5","1018.796","11.15","63.88","128.8","0.0"],
    [1512688,"2026-03-25 07:00:00","59185","1.569","265.1","2.842","271.5","1018.758","11.33","64.41","159.3","0.0"],
    [1512689,"2026-03-25 07:10:00","59186","1.3630000000000002","253.2","3.071","234.3","1018.702","11.84","63.64","189.9","0.0"],
    [1512690,"2026-03-25 07:20:00","59187","1.8159999999999998","247.9","3.201","270.0","1018.674","11.98","61.83","221.7","0.0"],
    [1512691,"2026-03-25 07:30:00","59188","1.6980000000000002","232.5","3.071","234.3","1018.535","12.63","59.4","254.5","0.0"],
    [1512692,"2026-03-25 07:40:00","59189","1.874","244.7","3.887","225.3","1018.438","13.04","58.63","287.5","0.0"],
    [1512693,"2026-03-25 07:50:00","59190","1.666","248.1","2.907","240.4","1018.396","13.21","58.49","318.3","0.0"],
    [1512694,"2026-03-25 08:00:00","59191","1.6869999999999998","248.6","3.0380000000000003","272.1","1018.425","13.51","57.29","349.3","0.0"],
    [1512695,"2026-03-25 08:10:00","59192","2.265","258.2","4.149","270.6","1018.528","13.9","57.77","381.2","0.0"],
    [1512696,"2026-03-25 08:20:00","59193","2.3","267.6","3.6260000000000003","244.6","1018.617","14.11","58.42","413.5","0.0"],
    [1512697,"2026-03-25 08:30:00","59194","2.188","266.2","3.6260000000000003","283.4","1018.581","14.42","57.23","444.2","0.0"],
    [1512698,"2026-03-25 08:40:00","59195","1.9509999999999998","224.9","4.181","214.7","1018.578","14.58","56.06","474.9","0.0"],
    [1512699,"2026-03-25 08:50:00","59196","2.224","208.0","4.018","204.3","1018.565","14.68","56.09","504.0","0.0"],
    [1512700,"2026-03-25 09:00:00","59197","2.144","216.2","4.345","206.1","1018.487","14.79","57.14","534.2","0.0"],
    [1512701,"2026-03-25 09:10:00","59198","2.231","221.0","4.737","192.6","1018.407","15.01","58.71","562.1","0.0"],
    [1512702,"2026-03-25 09:20:00","59199","3.327","208.0","4.998","206.2","1018.405","14.98","59.9","589.8","0.0"],
    [1512703,"2026-03-25 09:30:00","59200","2.634","210.0","4.606","201.2","1018.377","15.36","60.43","614.3","0.0"],
    [1512704,"2026-03-25 09:40:00","59201","3.295","205.3","5.2589999999999995","202.6","1018.17","15.66","61.79","640.0","0.0"],
    [1512705,"2026-03-25 09:50:00","59202","4.986000000000001","203.3","7.023","196.7","1017.976","15.37","63.44","668.5","0.0"],
    [1512706,"2026-03-25 10:00:00","59203","3.71","214.1","5.553","211.0","1017.948","15.58","61.27","689.6","0.0"],
    [1512707,"2026-03-25 10:10:00","59204","4.238","214.3","6.925","197.4","1017.865","15.7","58.29","709.9","0.0"],
    [1512708,"2026-03-25 10:20:00","59205","4.5889999999999995","209.9","7.481","194.7","1017.821","15.72","56.46","730.9","0.0"],
    [1512709,"2026-03-25 10:30:00","59206","3.553","213.1","5.39","233.4","1017.669","15.99","55.66","747.4","0.0"],
    [1512710,"2026-03-25 10:40:00","59207","3.89","214.5","6.1739999999999995","232.9","1017.475","15.82","57.51","761.9","0.0"],
    [1512711,"2026-03-25 10:50:00","59208","3.758","213.9","6.403","210.9","1017.321","15.77","58.29","775.4","0.0"],
    [1512712,"2026-03-25 11:00:00","59209","4.3180000000000005","209.0","7.644","209.6","1017.259","15.6","59.33","787.9","0.0"],
    [1512713,"2026-03-25 11:10:00","59210","5.521","204.7","8.62","208.0","1017.127","15.45","59.93","800.0","0.0"],
    [1512714,"2026-03-25 11:20:00","59211","5.235","216.1","8.07","220.5","1017.136","15.41","61.16","806.0","0.0"],
    [1512715,"2026-03-25 11:30:00","59212","4.73","212.2","7.6770000000000005","207.4","1017.015","15.57","62.85","814.0","0.0"],
    [1512716,"2026-03-25 11:40:00","59213","5.113","215.1","7.971","204.5","1016.774","15.56","63.77","773.4","0.0"],
    [1512717,"2026-03-25 11:50:00","59214","4.65","223.8","7.6770000000000005","234.0","1016.639","15.45","64.42","762.9","0.0"],
    [1512718,"2026-03-25 12:00:00","59215","4.979","210.8","8.26","205.8","1016.492","15.55","64.74","832.0","0.0"],
    [1512719,"2026-03-25 12:10:00","59216","4.185","212.4","7.35","205.0","1016.389","15.74","64.74","805.0","0.0"],
    [1512720,"2026-03-25 12:20:00","59217","5.62","224.7","9.28","220.2","1016.112","15.67","63.22","799.0","0.0"],
    [1512721,"2026-03-25 12:30:00","59218","5.185","219.5","9.08","214.2","1015.916","15.81","62.98","820.0","0.0"],
    [1512722,"2026-03-25 12:40:00","59219","6.19","206.6","9.31","209.4","1015.639","15.82","63.95","818.0","0.0"],
    [1512723,"2026-03-25 12:50:00","59220","5.619","217.3","9.11","231.3","1015.597","15.84","64.39","816.0","0.0"],
    [1512724,"2026-03-25 13:00:00","59221","4.582","213.3","8.13","206.3","1015.617","16.14","63.73","802.0","0.0"],
    [1512725,"2026-03-25 13:10:00","59222","5.3870000000000005","214.4","9.96","222.6","1015.426","16.01","61.23","795.9","0.0"],
    [1512726,"2026-03-25 13:20:00","59223","5.153","212.9","8.59","208.6","1015.324","16.35","59.49","763.2","0.0"],
    [1512727,"2026-03-25 13:30:00","59224","4.632","213.1","7.4479999999999995","221.6","1015.222","16.47","57.81","736.5","0.0"],
    [1512728,"2026-03-25 13:40:00","59225","5.435","203.9","8.62","187.7","1015.116","16.56","58.41","751.1","0.0"],
    [1512729,"2026-03-25 13:50:00","59226","5.547999999999999","210.0","9.73","213.3","1014.781","16.57","59.53","742.2","0.0"],
    [1512730,"2026-03-25 14:00:00","59227","5.83","206.6","10.49","208.2","1014.508","16.54","62.59","710.4","0.0"],
    [1512731,"2026-03-25 14:10:00","59228","5.059","216.1","10.39","200.8","1014.44","16.56","62.03","688.6","0.0"],
    [1512732,"2026-03-25 14:20:00","59229","5.475","213.4","8.75","227.2","1014.449","16.47","62.77","660.3","0.0"],
    [1512733,"2026-03-25 14:30:00","59230","6.037000000000001","213.1","10.36","211.9","1014.201","16.4","64.11","605.4","0.0"],
    [1512734,"2026-03-25 14:40:00","59231","5.693","210.3","9.08","211.0","1014.101","16.4","66.11","592.9","0.0"],
    [1512735,"2026-03-25 14:50:00","59232","5.683","215.1","9.08","201.6","1013.986","16.11","68.89","586.3","0.0"],
    [1512736,"2026-03-25 15:00:00","59233","5.627000000000001","214.2","10.71","207.4","1013.889","16.09","69.85","548.2","0.0"],
    [1512737,"2026-03-25 15:10:00","59234","6.309","211.4","9.38","208.6","1013.747","16.08","70.54","520.3","0.0"],
    [1512738,"2026-03-25 15:20:00","59235","6.341","205.0","9.93","190.4","1013.497","16.14","71.67","492.5","0.0"],
    [1512739,"2026-03-25 15:30:00","59236","6.187","202.9","9.67","207.6","1013.228","16.34","70.35","465.0","0.0"],
    [1512740,"2026-03-25 15:40:00","59237","6.091","210.9","9.6","214.1","1013.035","16.58","64.88","435.5","0.0"],
    [1512741,"2026-03-25 15:50:00","59238","6.48","220.2","12.18","229.9","1012.785","16.48","64.1","400.5","0.0"],
    [1512742,"2026-03-25 16:00:00","59239","7.148","220.2","11.14","219.1","1012.695","16.28","64.65","368.4","0.0"],
    [1512743,"2026-03-25 16:10:00","59240","7.309","221.3","10.88","215.6","1012.611","16.05","67.14","333.9","0.0"],
    [1512744,"2026-03-25 16:20:00","59241","6.222","219.1","10.68","225.9","1012.579","15.97","69.03","290.5","0.0"],
    [1512745,"2026-03-25 16:30:00","59242","5.404","217.4","9.83","216.7","1012.533","16.03","69.83","267.2","0.0"],
    [1512746,"2026-03-25 16:40:00","59243","5.405","220.4","10.29","241.2","1012.6","16.1","68.53","235.0","0.0"],
    [1512747,"2026-03-25 16:50:00","59244","4.666","219.9","9.38","218.8","1012.711","15.97","70.02","202.1","0.0"],
    [1512748,"2026-03-25 17:00:00","59245","5.407","216.9","9.34","226.8","1012.647","15.78","70.6","171.6","0.0"],
    [1512749,"2026-03-25 17:10:00","59246","4.342","220.7","8.49","218.8","1012.585","15.68","72.3","130.7","0.0"],
    [1512750,"2026-03-25 17:20:00","59247","3.6689999999999996","223.2","6.501","222.8","1012.453","15.63","73.38","107.2","0.0"],
    [1512751,"2026-03-25 17:30:00","59248","4.093","218.0","7.481","205.9","1012.452","15.51","74.34","81.6","0.0"],
    [1512752,"2026-03-25 17:40:00","59249","4.6","222.2","7.872999999999999","210.2","1012.468","15.37","75.3","56.19","0.0"],
    [1512753,"2026-03-25 17:50:00","59250","4.151","222.8","8.3","211.9","1012.354","15.25","76.4","33.67","0.0"],
    [1512754,"2026-03-25 18:00:00","59251","3.446","225.1","7.056","228.5","1012.259","15.12","78.03","15.1","0.0"],
    [1512755,"2026-03-25 18:10:00","59252","2.886","225.1","5.749","214.2","1012.187","15.0","79.93","4.669","0.0"],
    [1512756,"2026-03-25 18:20:00","59253","3.424","220.0","6.468","218.5","1012.112","14.84","82.6","0.397","0.0"],
    [1512757,"2026-03-25 18:30:00","59254","3.31","212.7","5.619","207.8","1012.011","14.74","84.8","0.0","0.0"],
    [1512758,"2026-03-25 18:40:00","59255","2.437","214.2","3.7239999999999998","188.7","1012.048","14.7","85.8","0.0","0.0"],
    [1512759,"2026-03-25 18:50:00","59256","2.62","222.8","4.671","223.0","1012.096","14.66","86.8","0.0","0.0"],
    [1512760,"2026-03-25 19:00:00","59257","1.896","227.9","3.332","229.8","1012.303","14.62","87.6","0.0","0.0"],
    [1512761,"2026-03-25 19:10:00","59258","1.633","236.4","3.136","224.1","1012.363","14.64","87.9","0.0","0.0"],
    [1512762,"2026-03-25 19:20:00","59259","1.578","239.1","3.332","219.7","1012.287","14.64","88.1","0.0","0.0"],
    [1512763,"2026-03-25 19:30:00","59260","1.192","251.6","3.005","246.1","1012.328","14.64","88.2","0.0","0.0"],
    [1512764,"2026-03-25 19:40:00","59261","1.452","279.4","3.397","344.1","1012.455","14.59","88.5","0.0","0.0"],
    [1512765,"2026-03-25 19:50:00","59262","2.417","356.1","4.279","9.84","1012.684","14.75","88.3","0.0","0.0"],
    [1512766,"2026-03-25 20:00:00","59263","3.072","351.8","4.671","8.87","1012.811","15.11","85.9","0.0","0.0"],
    [1512767,"2026-03-25 20:10:00","59264","4.975","14.2","8.66","14.02","1013.029","15.47","82.7","0.0","0.0"],
    [1512768,"2026-03-25 20:20:00","59265","7.438","25.5","9.77","26.82","1012.998","14.79","87.0","0.0","0.0"],
    [1512769,"2026-03-25 20:30:00","59266","7.002000000000001","22.7","8.59","16.58","1013.037","14.5","91.0","0.0","0.0"],
    [1512770,"2026-03-25 20:40:00","59267","7.649","21.82","9.8","19.29","1013.048","14.41","92.5","0.0","0.0"],
    [1512771,"2026-03-25 20:50:00","59268","7.877000000000001","16.97","9.6","14.57","1013.054","14.41","92.8","0.0","0.0"],
    [1512772,"2026-03-25 21:00:00","59269","6.984","9.29","9.02","20.11","1013.276","14.45","93.2","0.0","0.0"],
    [1512773,"2026-03-25 21:10:00","59270","6.718","14.97","8.17","17.76","1013.378","14.45","94.3","0.0","0.0"],
    [1512774,"2026-03-25 21:20:00","59271","6.88","23.82","8.59","31.9","1013.497","14.39","95.8","0.0","0.0"],
    [1512775,"2026-03-25 21:30:00","59272","7.705","26.13","9.6","21.31","1013.517","14.22","96.1","0.0","0.0"],
    [1512776,"2026-03-25 21:40:00","59273","7.582999999999999","25.51","8.95","24.8","1013.654","14.35","95.3","0.0","0.0"],
    [1512777,"2026-03-25 21:50:00","59274","7.199","26.41","8.2","24.99","1013.741","14.34","95.2","0.0","0.0"],
    [1512778,"2026-03-25 22:00:00","59275","5.843","26.68","7.4479999999999995","28.7","1013.881","14.36","94.7","0.0","0.0"],
    [1512779,"2026-03-25 22:10:00","59276","4.797","20.9","6.827000000000001","18.35","1013.953","14.43","94.8","0.0","0.0"],
    [1512780,"2026-03-25 22:20:00","59277","5.153","18.72","6.827000000000001","18.62","1013.892","14.41","95.1","0.0","0.0"],
    [1512781,"2026-03-25 22:30:00","59278","5.085","16.08","6.664","5.705","1013.813","14.42","95.3","0.0","0.0"],
    [1512782,"2026-03-25 22:40:00","59279","4.533","7.327999999999999","6.468","5.754","1013.869","14.45","95.6","0.0","0.0"],
    [1512783,"2026-03-25 22:50:00","59280","3.964","6.57","5.422999999999999","0.972","1013.927","14.44","96.2","0.0","0.0"],
    [1512784,"2026-03-25 23:00:00","59281","3.6180000000000003","9.15","4.933","2.237","1014.048","14.43","96.9","0.0","0.0"],
    [1512785,"2026-03-25 23:10:00","59282","3.489","16.94","4.508","3.177","1014.176","14.43","97.7","0.0","0.0"],
    [1512786,"2026-03-25 23:20:00","59283","3.162","37.16","4.312","32.62","1014.141","14.35","98.4","0.0","0.0"],
    [1512787,"2026-03-25 23:30:00","59284","2.7510000000000003","39.92","3.5610000000000004","49.64","1014.128","14.33","98.8","0.0","0.0"],
    [1512788,"2026-03-25 23:40:00","59285","1.5519999999999998","25.53","2.8089999999999997","50.84","1014.092","14.34","99.0","0.0","0.0"],
    [1512789,"2026-03-25 23:50:00","59286","3.0439999999999996","303.7","5.945","301.1","1013.976","12.38","93.4","0.217","0.0"],
    [1512790,"2026-03-26 00:00:00","59287","2.1519999999999997","311.9","4.051","304.1","1014.006","12.63","79.21","0.0","0.0"],
    [1512791,"2026-03-26 00:10:00","59288","1.192","314.3","3.103","327.3","1014.181","13.29","62.95","0.001","0.0"],
    [1512792,"2026-03-26 00:20:00","59289","2.028","293.9","3.528","300.3","1014.291","13.44","56.86","0.0","0.0"],
    [1512793,"2026-03-26 00:30:00","59290","1.389","304.3","3.365","331.9","1014.331","13.53","54.11","0.0","0.0"],
    [1512794,"2026-03-26 00:40:00","59291","1.465","297.4","2.907","280.5","1014.26","13.56","51.83","0.163","0.0"],
    [1512795,"2026-03-26 00:50:00","59292","1.919","283.4","2.94","287.9","1014.308","13.51","47.79","0.0","0.0"],
    [1512796,"2026-03-26 01:00:00","59293","2.129","282.2","3.1689999999999996","293.5","1014.276","13.49","45.98","0.0","0.0"],
    [1512797,"2026-03-26 01:10:00","59294","2.84","298.7","4.573","298.0","1014.134","13.38","45.48","0.0","0.0"],
    [1512798,"2026-03-26 01:20:00","59295","2.347","291.8","4.541","315.9","1013.994","13.26","44.98","0.0","0.0"],
    [1512799,"2026-03-26 01:30:00","59296","2.7119999999999997","292.8","4.149","306.9","1013.821","13.2","45.09","0.0","0.0"],
    [1512800,"2026-03-26 01:40:00","59297","2.633","282.7","4.1160000000000005","294.5","1013.728","13.11","45.14","0.0","0.0"],
    [1512801,"2026-03-26 01:50:00","59298","3.7319999999999998","287.0","5.88","286.5","1013.687","12.95","45.17","0.0","0.0"],
    [1512802,"2026-03-26 02:00:00","59299","4.099","291.4","5.88","303.3","1013.663","12.73","45.0","0.0","0.0"],
    [1512803,"2026-03-26 02:10:00","59300","4.353","294.6","6.566","280.4","1013.566","12.54","44.89","0.0","0.0"],
    [1512804,"2026-03-26 02:20:00","59301","4.609","295.3","7.905","301.2","1013.521","12.37","45.02","0.0","0.0"],
    [1512805,"2026-03-26 02:30:00","59302","5.156000000000001","293.4","7.546","294.5","1013.455","12.25","44.65","0.0","0.0"],
    [1512806,"2026-03-26 02:40:00","59303","5.64","289.4","8.2","303.9","1013.49","12.12","44.56","0.0","0.0"],
    [1512807,"2026-03-26 02:50:00","59304","4.886","288.4","8.2","283.5","1013.669","11.95","45.1","0.0","0.0"],
    [1512808,"2026-03-26 03:00:00","59305","5.192","283.2","7.579","273.2","1013.552","11.76","45.48","0.0","0.0"],
    [1512809,"2026-03-26 03:10:00","59306","5.659","282.0","8.4","275.2","1013.468","11.52","45.4","0.0","0.0"],
    [1512810,"2026-03-26 03:20:00","59307","6.78","288.1","10.45","307.5","1013.379","11.26","45.47","0.0","0.0"],
    [1512811,"2026-03-26 03:30:00","59308","6.312","290.9","9.57","301.2","1013.439","11.11","45.86","0.0","0.0"],
    [1512812,"2026-03-26 03:40:00","59309","5.7589999999999995","288.8","9.54","272.8","1013.454","11.03","45.87","0.0","0.0"],
    [1512813,"2026-03-26 03:50:00","59310","5.101","294.3","8.46","286.4","1013.503","10.94","45.99","0.0","0.0"],
    [1512814,"2026-03-26 04:00:00","59311","5.39","291.3","8.43","298.5","1013.509","10.81","46.19","0.0","0.0"],
    [1512815,"2026-03-26 04:10:00","59312","5.072","285.9","7.6770000000000005","273.3","1013.443","10.72","46.15","0.0","0.0"],
    [1512816,"2026-03-26 04:20:00","59313","5.412000000000001","284.8","8.62","286.9","1013.605","10.73","45.66","0.0","0.0"],
    [1512817,"2026-03-26 04:30:00","59314","4.4639999999999995","293.6","8.59","309.3","1013.73","10.81","45.19","0.0","0.0"],
    [1512818,"2026-03-26 04:40:00","59315","5.218999999999999","291.7","9.38","297.6","1013.684","10.82","44.98","0.0","0.0"],
    [1512819,"2026-03-26 04:50:00","59316","4.546","291.6","7.742000000000001","322.4","1013.651","10.78","45.17","0.0","0.0"],
    [1512820,"2026-03-26 05:00:00","59317","3.556","288.9","5.912999999999999","260.7","1013.833","10.75","45.02","0.0","0.0"],
    [1512821,"2026-03-26 05:10:00","59318","3.67","297.7","6.664","301.7","1013.921","10.78","44.86","0.0","0.0"],
    [1512822,"2026-03-26 05:20:00","59319","4.18","289.8","6.729","296.0","1013.88","10.71","44.74","0.0","0.0"],
    [1512823,"2026-03-26 05:30:00","59320","4.325","295.1","7.252000000000001","299.1","1014.003","10.66","44.8","0.0","0.0"],
    [1512824,"2026-03-26 05:40:00","59321","3.918","291.8","5.7170000000000005","294.5","1014.163","10.67","45.06","0.314","0.0"],
    [1512825,"2026-03-26 05:50:00","59322","3.617","290.6","5.325","293.0","1014.255","10.69","45.07","3.207","0.0"],
    [1512826,"2026-03-26 06:00:00","59323","4.285","293.9","5.847","286.9","1014.329","10.66","44.99","10.43","0.0"],
    [1512827,"2026-03-26 06:10:00","59324","3.2680000000000002","291.3","5.455","292.5","1014.523","10.71","45.18","20.19","0.0"],
    [1512828,"2026-03-26 06:20:00","59325","4.013999999999999","288.8","6.141","287.1","1014.655","10.64","45.12","31.85","0.0"],
    [1512829,"2026-03-26 06:30:00","59326","4.364","288.4","6.337000000000001","282.8","1014.701","10.7","44.62","69.09","0.0"],
    [1512830,"2026-03-26 06:40:00","59327","3.2760000000000002","291.9","5.031000000000001","284.4","1014.819","10.89","44.29","125.0","0.0"],
    [1512831,"2026-03-26 06:50:00","59328","2.7969999999999997","300.6","4.704","279.3","1015.034","11.18","43.5","156.1","0.0"],
    [1512832,"2026-03-26 07:00:00","59329","3.373","326.5","5.357","337.3","1015.268","11.53","42.99","189.9","0.0"],
    [1512833,"2026-03-26 07:10:00","59330","3.2510000000000003","321.9","4.606","330.3","1015.337","11.74","42.81","235.7","0.0"],
    [1512834,"2026-03-26 07:20:00","59331","1.456","277.5","3.495","305.8","1015.617","11.92","41.78","254.1","0.0"],
    [1512835,"2026-03-26 07:30:00","59332","2.17","318.1","4.671","337.1","1015.835","11.91","41.28","284.0","0.0"],
    [1512836,"2026-03-26 07:40:00","59333","2.425","337.8","4.737","323.4","1015.866","11.91","41.33","314.6","0.0"],
    [1512837,"2026-03-26 07:50:00","59334","3.267","57.03","5.194","38.84","1015.973","11.71","44.84","337.2","0.0"],
    [1512838,"2026-03-26 08:00:00","59335","2.6439999999999997","79.71","3.855","66.6","1016.107","11.58","46.93","346.5","0.0"],
    [1512839,"2026-03-26 08:10:00","59336","2.839","78.59","3.985","74.18","1016.304","11.51","46.16","407.9","0.0"],
    [1512840,"2026-03-26 08:20:00","59337","2.645","94.0","3.5610000000000004","83.9","1016.4","11.59","45.73","434.7","0.0"],
    [1512841,"2026-03-26 08:30:00","59338","2.229","97.5","3.0380000000000003","114.6","1016.533","11.76","45.02","444.4","0.0"],
    [1512842,"2026-03-26 08:40:00","59339","2.209","110.3","3.1689999999999996","107.6","1016.455","11.75","44.38","488.5","0.0"],
    [1512843,"2026-03-26 08:50:00","59340","1.955","113.0","3.1689999999999996","105.0","1016.502","11.79","46.31","521.7","0.0"],
    [1512844,"2026-03-26 09:00:00","59341","1.62","124.9","2.7110000000000003","116.1","1016.574","11.87","46.28","543.8","0.0"],
    [1512845,"2026-03-26 09:10:00","59342","1.942","146.6","2.875","152.2","1016.641","11.88","46.57","587.5","0.0"],
    [1512846,"2026-03-26 09:20:00","59343","2.364","157.1","3.43","152.7","1016.66","11.84","48.69","600.1","0.0"],
    [1512847,"2026-03-26 09:30:00","59344","2.92","155.3","3.822","153.3","1016.706","11.75","49.4","638.0","0.0"],
    [1512848,"2026-03-26 09:40:00","59345","2.3609999999999998","155.8","3.234","154.1","1016.666","11.78","48.52","656.5","0.0"],
    [1512849,"2026-03-26 09:50:00","59346","2.642","165.4","3.855","182.9","1016.623","11.79","48.34","659.8","0.0"],
    [1512850,"2026-03-26 10:00:00","59347","3.2110000000000003","170.6","4.933","173.1","1016.505","11.75","50.84","670.5","0.0"],
    [1512851,"2026-03-26 10:10:00","59348","4.042","166.5","4.867","168.0","1016.422","11.7","53.26","705.2","0.0"],
    [1512852,"2026-03-26 10:20:00","59349","5.041","166.1","5.88","171.2","1016.327","11.75","54.75","747.8","0.0"],
    [1512853,"2026-03-26 10:30:00","59350","4.497","162.0","6.305","170.4","1016.242","11.86","55.05","756.3","0.0"],
    [1512854,"2026-03-26 10:40:00","59351","4.689","163.8","5.847","168.5","1016.146","11.69","54.63","801.0","0.0"],
    [1512855,"2026-03-26 10:50:00","59352","4.73","159.4","5.912999999999999","162.1","1016.146","11.57","54.91","830.0","0.0"],
    [1512856,"2026-03-26 11:00:00","59353","4.404","165.2","5.455","161.1","1016.015","11.6","56.17","780.7","0.0"],
    [1512857,"2026-03-26 11:10:00","59354","4.69","167.8","5.619","163.9","1015.871","11.61","56.68","830.0","0.0"],
    [1512858,"2026-03-26 11:20:00","59355","4.2330000000000005","189.4","5.2589999999999995","187.4","1015.885","11.86","56.74","833.0","0.0"],
    [1512859,"2026-03-26 11:30:00","59356","4.394","176.1","6.37","168.3","1015.742","12.02","56.27","832.0","0.0"],
    [1512860,"2026-03-26 11:40:00","59357","6.421","170.1","7.546","168.1","1015.574","11.94","56.71","836.0","0.0"],
    [1512861,"2026-03-26 11:50:00","59358","5.346","178.2","7.35","185.2","1015.634","12.14","56.96","847.0","0.0"],
    [1512862,"2026-03-26 12:00:00","59359","5.557","186.0","6.7620000000000005","193.4","1015.558","12.07","56.44","849.0","0.0"],
    [1512863,"2026-03-26 12:10:00","59360","6.202999999999999","191.8","7.579","189.7","1015.403","12.04","57.3","846.0","0.0"],
    [1512864,"2026-03-26 12:20:00","59361","6.206","187.7","8.75","189.7","1015.205","12.13","58.36","843.0","0.0"],
    [1512865,"2026-03-26 12:30:00","59362","6.926","186.7","8.98","185.0","1015.136","12.13","59.47","836.0","0.0"],
    [1512866,"2026-03-26 12:40:00","59363","6.861000000000001","181.8","8.53","173.8","1015.149","12.16","60.45","828.0","0.0"],
    [1512867,"2026-03-26 12:50:00","59364","7.08","182.7","8.95","177.8","1015.026","12.17","61.82","823.0","0.0"],
    [1512868,"2026-03-26 13:00:00","59365","7.4110000000000005","182.0","8.72","177.0","1014.903","12.12","62.46","814.0","0.0"],
    [1512869,"2026-03-26 13:10:00","59366","7.0760000000000005","188.0","8.82","180.7","1014.828","12.19","62.08","800.0","0.0"],
    [1512870,"2026-03-26 13:20:00","59367","7.171","187.4","9.41","181.7","1014.693","12.46","61.76","786.6","0.0"],
    [1512871,"2026-03-26 13:30:00","59368","8.38","181.2","10.22","177.0","1014.467","12.25","64.04","776.9","0.0"],
    [1512872,"2026-03-26 13:40:00","59369","7.808","181.8","9.83","188.4","1014.322","12.23","64.32","761.6","0.0"],
    [1512873,"2026-03-26 13:50:00","59370","7.006","180.3","9.57","189.9","1014.232","12.39","64.01","743.3","0.0"],
    [1512874,"2026-03-26 14:00:00","59371","6.202000000000001","181.6","8.72","192.4","1014.2","12.46","64.06","723.5","0.0"],
    [1512875,"2026-03-26 14:10:00","59372","6.294","175.4","8.04","165.8","1014.074","12.49","63.05","705.7","0.0"],
    [1512876,"2026-03-26 14:20:00","59373","5.915","175.0","8.1","169.4","1014.024","12.54","64.63","688.1","0.0"],
    [1512877,"2026-03-26 14:30:00","59374","5.939","172.1","8.43","155.1","1013.925","12.42","67.0","651.5","0.0"],
    [1512878,"2026-03-26 14:40:00","59375","6.687","167.2","8.1","164.6","1013.887","12.45","70.16","647.5","0.0"],
    [1512879,"2026-03-26 14:50:00","59376","6.819","164.1","8.0","159.2","1013.771","12.26","72.86","559.3","0.0"],
    [1512880,"2026-03-26 15:00:00","59377","6.667000000000001","165.8","8.56","155.2","1013.64","12.28","74.15","614.1","0.0"],
    [1512881,"2026-03-26 15:10:00","59378","7.093999999999999","157.9","8.1","158.8","1013.549","12.23","75.17","559.1","0.0"],
    [1512882,"2026-03-26 15:20:00","59379","6.791","154.2","8.4","149.4","1013.515","12.09","75.1","550.0","0.0"],
    [1512883,"2026-03-26 15:30:00","59380","6.4270000000000005","155.1","8.0","158.2","1013.378","12.27","74.43","470.2","0.0"],
    [1512884,"2026-03-26 15:40:00","59381","6.6339999999999995","156.1","8.3","155.9","1013.337","12.26","75.5","459.9","0.0"],
    [1512885,"2026-03-26 15:50:00","59382","6.0120000000000005","149.8","7.4479999999999995","152.0","1013.419","12.32","75.29","413.5","0.0"],
    [1512886,"2026-03-26 16:00:00","59383","5.7139999999999995","140.1","7.285","140.0","1013.468","12.28","76.48","313.9","0.0"],
    [1512887,"2026-03-26 16:10:00","59384","5.485","139.6","6.925","133.8","1013.492","12.27","76.51","315.9","0.0"],
    [1512888,"2026-03-26 16:20:00","59385","5.131","140.0","6.729","150.2","1013.459","12.26","76.37","290.0","0.0"],
    [1512889,"2026-03-26 16:30:00","59386","4.855","134.4","6.5329999999999995","131.0","1013.511","12.36","75.28","281.9","0.0"],
    [1512890,"2026-03-26 16:40:00","59387","5.403","131.1","6.566","128.8","1013.394","12.39","74.9","250.4","0.0"],
    [1512891,"2026-03-26 16:50:00","59388","5.481","134.9","6.86","132.3","1013.484","12.34","74.94","211.7","0.0"],
    [1512892,"2026-03-26 17:00:00","59389","5.425","133.2","7.317","130.5","1013.592","12.3","73.49","182.9","0.0"],
    [1512893,"2026-03-26 17:10:00","59390","5.08","121.9","6.7620000000000005","112.8","1013.69","12.41","73.82","146.9","0.0"],
    [1512894,"2026-03-26 17:20:00","59391","5.207999999999999","128.3","6.9910000000000005","132.5","1013.79","12.31","74.01","113.5","0.0"],
    [1512895,"2026-03-26 17:30:00","59392","5.824","128.8","7.0889999999999995","130.7","1013.796","12.26","73.8","62.14","0.0"],
    [1512896,"2026-03-26 17:40:00","59393","5.153","129.3","7.35","119.2","1013.859","12.21","74.37","35.27","0.0"],
    [1512897,"2026-03-26 17:50:00","59394","5.357","130.4","7.481","138.7","1013.89","12.24","74.45","23.15","0.0"],
    [1512898,"2026-03-26 18:00:00","59395","4.923","125.7","6.501","115.1","1014.133","12.25","74.39","10.11","0.0"],
    [1512899,"2026-03-26 18:10:00","59396","5.115","122.5","7.0889999999999995","132.0","1014.369","12.27","74.43","3.84","0.0"],
    [1512900,"2026-03-26 18:20:00","59397","5.093","132.7","7.154","128.1","1014.381","12.2","73.72","0.299","0.0"],
    [1512901,"2026-03-26 18:30:00","59398","5.335","128.6","6.925","133.5","1014.298","12.26","74.38","0.011000000000000001","0.0"],
    [1512902,"2026-03-26 18:40:00","59399","5.624","130.7","7.154","141.2","1014.342","12.25","75.18","0.0","0.0"],
    [1512903,"2026-03-26 18:50:00","59400","6.034","129.5","8.23","121.7","1014.519","12.25","76.02","0.0","0.0"],
    [1512904,"2026-03-26 19:00:00","59401","5.726","138.0","7.382999999999999","130.2","1014.741","12.28","75.94","0.0","0.0"],
    [1512905,"2026-03-26 19:10:00","59402","6.547000000000001","134.9","7.84","133.4","1014.789","12.28","76.02","0.0","0.0"],
    [1512906,"2026-03-26 19:20:00","59403","5.962000000000001","145.7","7.644","149.3","1014.701","12.35","75.53","0.0","0.0"],
    [1512907,"2026-03-26 19:30:00","59404","6.34","150.9","8.46","155.2","1014.762","12.39","75.08","0.0","0.0"],
    [1512908,"2026-03-26 19:40:00","59405","6.416","145.0","8.66","158.6","1014.997","12.42","75.3","0.0","0.0"],
    [1512909,"2026-03-26 19:50:00","59406","6.193","149.2","7.872999999999999","150.1","1015.027","12.41","75.35","0.0","0.0"],
    [1512910,"2026-03-26 20:00:00","59407","5.904","150.9","7.807","146.8","1015.221","12.46","75.18","0.0","0.0"],
    [1512911,"2026-03-26 20:10:00","59408","5.77","151.0","7.579","151.0","1015.413","12.52","75.12","0.0","0.0"],
    [1512912,"2026-03-26 20:20:00","59409","6.18","151.0","8.04","160.7","1015.354","12.53","75.13","0.0","0.0"],
    [1512913,"2026-03-26 20:30:00","59410","6.249","154.1","8.23","162.3","1015.456","12.57","74.66","0.0","0.0"],
    [1512914,"2026-03-26 20:40:00","59411","5.625","156.9","7.285","158.4","1015.564","12.79","72.61","0.0","0.0"],
    [1512915,"2026-03-26 20:50:00","59412","4.8839999999999995","152.7","7.285","165.4","1015.673","12.91","70.18","0.0","0.0"],
    [1512916,"2026-03-26 21:00:00","59413","5.274","149.7","7.4479999999999995","146.8","1015.661","12.99","67.25","0.0","0.0"],
    [1512917,"2026-03-26 21:10:00","59414","5.439","155.5","8.0","156.4","1015.709","13.15","66.14","0.0","0.0"],
    [1512918,"2026-03-26 21:20:00","59415","5.422000000000001","144.2","7.905","150.7","1015.819","13.07","68.77","0.0","0.0"],
    [1512919,"2026-03-26 21:30:00","59416","5.861000000000001","148.9","8.4","142.6","1015.856","13.12","69.06","0.0","0.0"],
    [1512920,"2026-03-26 21:40:00","59417","6.115","149.5","7.905","144.3","1015.885","13.13","68.72","0.0","0.0"],
    [1512921,"2026-03-26 21:50:00","59418","6.733","144.9","9.18","155.2","1015.88","13.14","67.84","0.0","0.0"],
    [1512922,"2026-03-26 22:00:00","59419","7.51","150.7","9.41","147.2","1015.883","13.16","67.42","0.0","0.0"],
    [1512923,"2026-03-26 22:10:00","59420","6.775","145.2","11.17","153.4","1015.94","13.27","68.66","0.0","0.0"],
    [1512924,"2026-03-26 22:20:00","59421","8.89","159.4","12.54","153.6","1015.715","13.24","72.11","0.0","0.0"],
    [1512925,"2026-03-26 22:30:00","59422","9.73","159.1","12.45","153.0","1015.764","13.23","72.98","0.0","0.0"],
    [1512926,"2026-03-26 22:40:00","59423","9.88","159.6","12.12","164.9","1015.739","13.18","74.2","0.0","0.0"],
    [1512927,"2026-03-26 22:50:00","59424","9.81","162.7","11.99","161.1","1015.728","13.21","74.42","0.0","0.0"],
    [1512928,"2026-03-26 23:00:00","59425","9.5","161.1","11.34","160.9","1015.667","13.21","74.12","0.0","0.0"],
    [1512929,"2026-03-26 23:10:00","59426","6.97","161.2","8.59","159.2","1015.782","13.36","73.74","0.0","0.0"],
    [1512930,"2026-03-26 23:20:00","59427","9.99","157.3","12.25","153.9","1015.51","13.38","73.56","0.0","0.0"],
    [1512931,"2026-03-26 23:30:00","59428","10.96","157.8","12.74","156.4","1015.342","13.34","73.27","0.0","0.0"],
    [1512932,"2026-03-26 23:40:00","59429","11.05","159.5","12.97","157.1","1015.176","13.35","73.47","0.0","0.0"],
    [1512933,"2026-03-26 23:50:00","59430","10.01","166.7","12.38","161.2","1015.221","13.49","71.19","0.0","0.0"],
    [1512934,"2026-03-27 00:00:00","59431","10.87","167.8","15.65","162.2","1015.075","13.47","67.41","0.0","0.0"],
    [1512935,"2026-03-27 00:10:00","59432","10.59","159.9","13.69","162.4","1015.134","13.44","62.43","0.0","0.0"],
    [1512936,"2026-03-27 00:20:00","59433","7.681","146.7","10.06","158.1","1015.496","13.32","59.38","0.0","0.0"],
    [1512937,"2026-03-27 00:30:00","59434","5.281000000000001","139.8","7.546","157.2","1015.659","13.24","57.6","0.0","0.0"],
    [1512938,"2026-03-27 00:40:00","59435","3.536","93.1","4.933","110.5","1015.822","13.05","56.91","0.0","0.0"],
    [1512939,"2026-03-27 00:50:00","59436","2.7439999999999998","53.95","4.671","31.1","1015.843","13.07","55.4","0.0","0.0"],
    [1512940,"2026-03-27 01:00:00","59437","2.931","52.48","3.985","63.13","1015.714","13.03","54.73","0.0","0.0"],
    [1512941,"2026-03-27 01:10:00","59438","2.588","25.75","4.1160000000000005","38.14","1015.657","12.82","58.26","0.0","0.0"],
    [1512942,"2026-03-27 01:20:00","59439","2.06","24.32","3.299","30.39","1015.581","12.78","57.02","0.0","0.0"],
    [1512943,"2026-03-27 01:30:00","59440","1.131","53.77","2.483","37.13","1015.485","12.82","54.56","0.0","0.0"],
    [1512944,"2026-03-27 01:40:00","59441","1.102","6.233","1.993","346.9","1015.45","12.9","54.46","0.0","0.0"],
    [1512945,"2026-03-27 01:50:00","59442","1.565","353.5","2.385","345.0","1015.37","12.92","55.51","0.0","0.0"],
    [1512946,"2026-03-27 02:00:00","59443","1.715","344.4","2.221","337.2","1015.375","12.75","57.71","0.0","0.0"],
    [1512947,"2026-03-27 02:10:00","59444","1.851","305.7","2.5810000000000004","308.8","1015.301","12.7","57.52","0.0","0.0"],
    [1512948,"2026-03-27 02:20:00","59445","2.479","291.8","3.7569999999999997","292.3","1015.273","12.55","58.97","0.0","0.0"],
    [1512949,"2026-03-27 02:30:00","59446","3.347","287.0","5.521","277.9","1015.161","12.16","63.86","0.0","0.0"],
    [1512950,"2026-03-27 02:40:00","59447","4.292","285.8","5.978","286.0","1015.101","11.42","67.12","0.0","0.0"],
    [1512951,"2026-03-27 02:50:00","59448","4.579","294.9","6.925","307.1","1015.063","10.99","64.66","0.0","0.0"],
    [1512952,"2026-03-27 03:00:00","59449","3.3539999999999996","284.8","4.802","291.1","1015.061","10.9","60.41","0.0","0.0"],
    [1512953,"2026-03-27 03:10:00","59450","3.4560000000000004","282.4","4.704","277.1","1015.171","10.81","56.01","0.0","0.0"],
    [1512954,"2026-03-27 03:20:00","59451","3.65","284.6","5.619","280.8","1015.226","10.71","54.31","0.0","0.0"],
    [1512955,"2026-03-27 03:30:00","59452","3.262","284.9","4.671","276.8","1015.319","10.7","53.12","0.0","0.0"],
    [1512956,"2026-03-27 03:40:00","59453","3.0189999999999997","289.8","4.508","280.4","1015.293","10.66","51.25","0.0","0.0"],
    [1512957,"2026-03-27 03:50:00","59454","3.388","283.4","4.704","285.6","1015.259","10.51","49.62","0.0","0.0"],
    [1512958,"2026-03-27 04:00:00","59455","3.965","282.3","6.5329999999999995","272.7","1015.274","10.53","46.72","0.0","0.0"],
    [1512959,"2026-03-27 04:10:00","59456","4.172","285.0","5.782","283.5","1015.297","10.29","46.25","0.0","0.0"],
    [1512960,"2026-03-27 04:20:00","59457","3.685","284.2","5.357","280.5","1015.325","10.05","46.63","0.0","0.0"],
    [1512961,"2026-03-27 04:30:00","59458","4.137","293.3","6.468","300.3","1015.343","9.9","46.73","0.0","0.0"],
    [1512962,"2026-03-27 04:40:00","59459","3.344","290.6","4.704","300.3","1015.404","9.88","46.19","0.0","0.0"],
    [1512963,"2026-03-27 04:50:00","59460","3.827","293.3","6.109","285.6","1015.296","9.85","46.36","0.0","0.0"],
    [1512964,"2026-03-27 05:00:00","59461","2.753","293.1","5.2589999999999995","297.4","1015.365","9.75","46.26","0.0","0.0"],
    [1512965,"2026-03-27 05:10:00","59462","1.6269999999999998","295.3","3.1689999999999996","292.8","1015.429","9.68","46.99","0.0","0.0"],
    [1512966,"2026-03-27 05:20:00","59463","2.565","296.7","3.593","290.4","1015.507","9.56","46.87","0.0","0.0"],
    [1512967,"2026-03-27 05:30:00","59464","3.014","289.6","4.965","278.9","1015.536","9.59","46.57","0.0","0.0"],
    [1512968,"2026-03-27 05:40:00","59465","3.4330000000000003","287.0","5.063","297.7","1015.597","9.62","45.61","0.073","0.0"],
    [1512969,"2026-03-27 05:50:00","59466","3.822","287.9","5.422999999999999","282.2","1015.576","9.57","45.34","2.7489999999999997","0.0"],
    [1512970,"2026-03-27 06:00:00","59467","3.0660000000000003","281.2","5.031000000000001","277.0","1015.57","9.46","46.01","8.9","0.0"],
    [1512971,"2026-03-27 06:10:00","59468","3.937","279.4","5.847","290.3","1015.594","9.34","47.34","16.42","0.0"],
    [1512972,"2026-03-27 06:20:00","59469","3.015","285.0","4.377","281.4","1015.853","9.27","47.53","20.47","0.0"],
    [1512973,"2026-03-27 06:30:00","59470","1.992","286.0","3.397","293.1","1016.054","9.24","47.02","26.25","0.0"],
    [1512974,"2026-03-27 06:40:00","59471","2.307","281.5","3.7889999999999997","282.1","1016.112","9.22","46.97","59.3","0.0"],
    [1512975,"2026-03-27 06:50:00","59472","2.0180000000000002","287.5","3.332","296.6","1016.177","9.55","46.51","149.4","0.0"],
    [1512976,"2026-03-27 07:00:00","59473","1.087","293.8","1.797","286.2","1016.218","9.86","45.94","177.8","0.0"],
    [1512977,"2026-03-27 07:10:00","59474","0.889","282.5","1.7309999999999999","302.2","1016.179","10.11","45.0","207.2","0.0"],
    [1512978,"2026-03-27 07:20:00","59475","1.159","253.7","1.8619999999999999","253.6","1016.016","10.11","44.76","241.5","0.0"],
    [1512979,"2026-03-27 07:30:00","59476","2.097","253.9","3.397","266.2","1016.003","10.16","45.51","276.2","0.0"],
    [1512980,"2026-03-27 07:40:00","59477","2.1319999999999997","255.2","3.6260000000000003","258.4","1016.039","10.16","45.61","307.2","0.0"],
    [1512981,"2026-03-27 07:50:00","59478","2.608","256.3","4.345","258.1","1016.224","10.23","45.62","340.5","0.0"],
    [1512982,"2026-03-27 08:00:00","59479","2.698","269.3","4.671","261.8","1016.224","10.4","45.19","377.4","0.0"],
    [1512983,"2026-03-27 08:10:00","59480","2.479","277.5","4.051","278.0","1016.334","10.47","44.82","411.5","0.0"],
    [1512984,"2026-03-27 08:20:00","59481","2.6319999999999997","279.3","4.181","284.0","1016.362","10.54","44.89","443.1","0.0"],
    [1512985,"2026-03-27 08:30:00","59482","2.242","285.1","3.593","284.7","1016.448","10.67","44.3","471.7","0.0"],
    [1512986,"2026-03-27 08:40:00","59483","1.2819999999999998","277.8","2.7769999999999997","270.9","1016.448","11.05","43.41","499.6","0.0"],
    [1512987,"2026-03-27 08:50:00","59484","0.976","286.8","2.483","279.7","1016.408","11.21","42.14","525.8","0.0"],
    [1512988,"2026-03-27 09:00:00","59485","1.315","249.0","2.613","245.3","1016.265","11.62","41.54","554.7","0.0"],
    [1512989,"2026-03-27 09:10:00","59486","2.141","253.8","3.593","242.4","1016.136","11.67","41.27","586.2","0.0"],
    [1512990,"2026-03-27 09:20:00","59487","1.986","269.1","3.887","289.9","1016.167","11.84","40.84","612.5","0.0"],
    [1512991,"2026-03-27 09:30:00","59488","1.824","255.1","4.149","262.5","1016.061","12.25","39.7","638.8","0.0"],
    [1512992,"2026-03-27 09:40:00","59489","0.899","230.4","1.829","313.4","1015.981","12.76","38.17","661.9","0.0"],
    [1512993,"2026-03-27 09:50:00","59490","0.934","171.0","3.1689999999999996","211.3","1015.986","12.76","35.8","683.4","0.0"],
    [1512994,"2026-03-27 10:00:00","59491","0.7859999999999999","120.2","3.463","158.8","1015.994","13.18","35.12","700.5","0.0"],
    [1512995,"2026-03-27 10:10:00","59492","2.287","158.3","3.5610000000000004","162.0","1015.85","12.8","36.81","720.1","0.0"],
    [1512996,"2026-03-27 10:20:00","59493","2.068","177.2","2.907","172.3","1015.812","13.12","37.73","736.5","0.0"],
    [1512997,"2026-03-27 10:30:00","59494","4.23","170.2","6.0760000000000005","169.1","1015.834","12.89","40.92","752.4","0.0"],
    [1512998,"2026-03-27 10:40:00","59495","5.111000000000001","177.6","6.37","170.3","1015.827","12.6","44.67","770.6","0.0"],
    [1512999,"2026-03-27 10:50:00","59496","5.472","179.7","7.154","173.7","1015.724","12.41","45.5","784.6","0.0"],
    [1513000,"2026-03-27 11:00:00","59497","5.886","185.9","7.35","190.8","1015.579","12.36","47.56","797.1","0.0"],
    [1513001,"2026-03-27 11:10:00","59498","5.596","186.7","7.644","201.3","1015.66","12.28","49.4","806.0","0.0"],
    [1513002,"2026-03-27 11:20:00","59499","5.231","183.0","7.121","189.7","1015.573","12.2","50.02","814.0","0.0"],
    [1513003,"2026-03-27 11:30:00","59500","5.171","184.1","6.86","193.9","1015.588","12.16","50.24","822.0","0.0"],
    [1513004,"2026-03-27 11:40:00","59501","4.552","184.1","5.7170000000000005","170.2","1015.64","12.19","48.76","828.0","0.0"],
    [1513005,"2026-03-27 11:50:00","59502","4.713","179.1","6.0760000000000005","171.2","1015.522","12.2","48.72","830.0","0.0"],
    [1513006,"2026-03-27 12:00:00","59503","4.836","170.9","5.749","174.7","1015.416","12.11","50.26","835.0","0.0"],
    [1513007,"2026-03-27 12:10:00","59504","4.583","166.1","5.651","161.4","1015.426","12.1","50.08","834.0","0.0"],
    [1513008,"2026-03-27 12:20:00","59505","4.834","160.7","5.912999999999999","159.3","1015.356","11.99","50.49","834.0","0.0"],
    [1513009,"2026-03-27 12:30:00","59506","5.141","160.3","6.893","167.0","1015.249","12.06","51.4","831.0","0.0"],
    [1513010,"2026-03-27 12:40:00","59507","5.78","163.7","6.9910000000000005","155.9","1015.261","12.12","52.5","829.0","0.0"],
    [1513011,"2026-03-27 12:50:00","59508","5.881","165.8","7.285","161.1","1015.106","12.13","53.34","824.0","0.0"],
    [1513012,"2026-03-27 13:00:00","59509","6.1160000000000005","159.5","8.07","163.8","1015.118","12.19","54.48","816.0","0.0"],
    [1513013,"2026-03-27 13:10:00","59510","5.438","161.3","7.154","151.5","1015.098","12.24","54.69","806.0","0.0"],
    [1513014,"2026-03-27 13:20:00","59511","5.428999999999999","159.1","6.631","159.5","1015.069","12.3","52.08","795.3","0.0"],
    [1513015,"2026-03-27 13:30:00","59512","5.3229999999999995","169.0","6.239","172.5","1015.067","12.47","53.82","782.8","0.0"],
    [1513016,"2026-03-27 13:40:00","59513","4.931","175.7","6.141","170.9","1015.065","12.46","54.28","770.3","0.0"],
    [1513017,"2026-03-27 13:50:00","59514","5.0169999999999995","167.2","6.109","164.7","1014.998","12.37","54.04","754.6","0.0"],
    [1513018,"2026-03-27 14:00:00","59515","4.968999999999999","171.2","6.337000000000001","182.3","1014.922","12.52","54.67","734.3","0.0"],
    [1513019,"2026-03-27 14:10:00","59516","5.474","167.0","6.795","159.1","1014.946","12.43","54.1","718.3","0.0"],
    [1513020,"2026-03-27 14:20:00","59517","5.723","161.0","6.827000000000001","152.9","1014.944","12.4","53.74","701.6","0.0"],
    [1513021,"2026-03-27 14:30:00","59518","5.369","158.6","6.631","162.4","1014.959","12.48","49.39","681.8","0.0"],
    [1513022,"2026-03-27 14:40:00","59519","5.477","159.6","6.697","164.0","1014.981","12.67","51.44","612.2","0.0"],
    [1513023,"2026-03-27 14:50:00","59520","5.792000000000001","170.7","7.415","167.4","1014.895","12.73","54.92","490.7","0.0"],
    [1513024,"2026-03-27 15:00:00","59521","5.697","167.6","7.023","169.0","1014.929","12.7","58.15","507.0","0.0"],
    [1513025,"2026-03-27 15:10:00","59522","5.872999999999999","162.4","6.925","159.9","1015.031","12.73","60.1","328.8","0.0"],
    [1513026,"2026-03-27 15:20:00","59523","5.716","154.9","7.317","154.5","1015.063","12.73","62.61","329.8","0.0"],
    [1513027,"2026-03-27 15:30:00","59524","5.997999999999999","153.3","7.6770000000000005","150.9","1015.102","12.8","63.1","362.0","0.0"],
    [1513028,"2026-03-27 15:40:00","59525","5.749","157.8","7.35","167.3","1015.16","12.74","63.68","346.4","0.0"],
    [1513029,"2026-03-27 15:50:00","59526","6.154","153.8","7.807","152.8","1015.194","12.78","62.39","320.7","0.0"],
    [1513030,"2026-03-27 16:00:00","59527","5.982","158.9","7.317","165.1","1015.262","12.82","62.3","279.4","0.0"],
    [1513031,"2026-03-27 16:10:00","59528","5.997000000000001","160.2","7.218999999999999","162.0","1015.279","12.87","62.28","347.0","0.0"],
    [1513032,"2026-03-27 16:20:00","59529","5.943","155.3","7.187","154.7","1015.365","12.89","62.57","355.2","0.0"],
    [1513033,"2026-03-27 16:30:00","59530","5.6370000000000005","160.4","7.056","154.8","1015.409","12.93","63.32","355.3","0.0"],
    [1513034,"2026-03-27 16:40:00","59531","5.945","162.8","7.775","161.8","1015.518","12.86","63.3","285.0","0.0"],
    [1513035,"2026-03-27 16:50:00","59532","5.544","152.9","6.5329999999999995","154.5","1015.591","12.87","62.94","224.8","0.0"],
    [1513036,"2026-03-27 17:00:00","59533","4.681","148.4","5.619","158.3","1015.688","12.87","61.0","167.2","0.0"],
    [1513037,"2026-03-27 17:10:00","59534","4.79","157.1","5.619","160.2","1015.739","12.93","61.31","102.4","0.0"],
    [1513038,"2026-03-27 17:20:00","59535","4.793","157.8","5.88","156.6","1015.85","12.93","62.09","52.96","0.0"],
    [1513039,"2026-03-27 17:30:00","59536","4.532","170.6","5.749","163.4","1015.927","12.9","59.44","38.34","0.0"],
    [1513040,"2026-03-27 17:40:00","59537","4.497","164.2","5.749","163.6","1016.02","13.04","59.73","39.27","0.0"],
    [1513041,"2026-03-27 17:50:00","59538","4.3260000000000005","172.1","5.4879999999999995","165.8","1016.105","13.06","60.26","32.81","0.0"],
    [1513042,"2026-03-27 18:00:00","59539","4.2010000000000005","179.2","5.749","171.0","1016.254","13.18","62.36","12.52","0.0"],
    [1513043,"2026-03-27 18:10:00","59540","4.262","176.9","5.292000000000001","170.3","1016.343","13.13","64.19","4.454","0.0"],
    [1513044,"2026-03-27 18:20:00","59541","3.925","191.6","5.782","195.3","1016.471","13.02","62.96","0.488","0.0"],
    [1513045,"2026-03-27 18:30:00","59542","3.51","199.0","4.835","194.1","1016.619","13.09","61.03","0.0","0.0"],
    [1513046,"2026-03-27 18:40:00","59543","2.315","206.6","3.985","209.1","1016.74","13.08","59.01","0.0","0.0"],
    [1513047,"2026-03-27 18:50:00","59544","2.1919999999999997","205.8","4.508","202.8","1016.792","13.13","59.23","0.0","0.0"],
    [1513048,"2026-03-27 19:00:00","59545","2.201","213.2","5.129","193.3","1016.931","13.13","58.55","0.0","0.0"],
    [1513049,"2026-03-27 19:10:00","59546","1.607","221.1","3.299","216.8","1017.07","13.08","58.05","0.0","0.0"],
    [1513050,"2026-03-27 19:20:00","59547","2.05","218.1","3.397","204.4","1017.144","13.09","58.02","0.0","0.0"],
    [1513051,"2026-03-27 19:30:00","59548","2.219","221.4","3.397","230.2","1017.262","13.11","58.39","0.0","0.0"],
    [1513052,"2026-03-27 19:40:00","59549","2.458","222.5","4.2139999999999995","216.9","1017.373","13.06","58.62","0.0","0.0"],
    [1513053,"2026-03-27 19:50:00","59550","3.135","222.6","4.606","224.6","1017.383","12.99","59.81","0.0","0.0"],
    [1513054,"2026-03-27 20:00:00","59551","2.736","223.4","3.9530000000000003","220.9","1017.473","12.89","60.78","0.0","0.0"],
    [1513055,"2026-03-27 20:10:00","59552","2.394","222.4","4.018","227.4","1017.558","12.89","60.92","0.0","0.0"],
    [1513056,"2026-03-27 20:20:00","59553","2.867","223.6","4.279","223.8","1017.649","12.88","60.69","0.0","0.0"],
    [1513057,"2026-03-27 20:30:00","59554","3.197","223.0","4.802","229.6","1017.665","12.84","61.21","0.0","0.0"],
    [1513058,"2026-03-27 20:40:00","59555","3.1639999999999997","222.2","4.9","224.5","1017.727","12.85","61.78","0.0","0.0"],
    [1513059,"2026-03-27 20:50:00","59556","2.759","224.3","4.867","229.9","1017.78","12.85","62.15","0.0","0.0"],
    [1513060,"2026-03-27 21:00:00","59557","2.9389999999999996","220.8","4.965","208.5","1017.851","12.85","62.66","0.0","0.0"],
    [1513061,"2026-03-27 21:10:00","59558","3.1510000000000002","221.3","4.606","218.4","1017.899","12.82","62.81","0.0","0.0"],
    [1513062,"2026-03-27 21:20:00","59559","2.8310000000000004","219.5","4.737","223.0","1017.986","12.78","62.52","0.0","0.0"],
    [1513063,"2026-03-27 21:30:00","59560","3.185","221.0","4.802","198.9","1018.109","12.74","62.07","0.0","0.0"],
    [1513064,"2026-03-27 21:40:00","59561","2.188","228.0","4.377","226.6","1018.164","12.71","61.85","0.0","0.0"],
    [1513065,"2026-03-27 21:50:00","59562","1.1520000000000001","252.7","2.123","250.3","1018.234","12.46","62.75","0.0","0.0"],
    [1513066,"2026-03-27 22:00:00","59563","1.515","261.0","2.613","256.1","1018.308","12.14","63.44","0.0","0.0"],
    [1513067,"2026-03-27 22:10:00","59564","1.6280000000000001","252.6","2.613","252.7","1018.375","12.07","63.38","0.0","0.0"],
    [1513068,"2026-03-27 22:20:00","59565","1.1740000000000002","244.5","2.679","265.4","1018.426","12.11","63.08","0.0","0.0"],
    [1513069,"2026-03-27 22:30:00","59566","1.271","246.4","2.94","252.6","1018.47","12.13","63.34","0.0","0.0"],
    [1513070,"2026-03-27 22:40:00","59567","1.209","246.2","2.0909999999999997","247.6","1018.481","12.14","63.86","0.0","0.0"],
    [1513071,"2026-03-27 22:50:00","59568","1.515","244.2","2.9730000000000003","250.9","1018.512","12.18","64.3","0.0","0.0"],
    [1513072,"2026-03-27 23:00:00","59569","1.334","246.5","2.679","256.6","1018.48","12.15","64.71","0.0","0.0"],
    [1513073,"2026-03-27 23:10:00","59570","1.141","256.6","2.221","260.4","1018.541","12.14","65.18","0.0","0.0"],
    [1513074,"2026-03-27 23:20:00","59571","1.475","265.8","2.9730000000000003","271.2","1018.614","12.1","65.74","0.0","0.0"],
    [1513075,"2026-03-27 23:30:00","59572","1.253","268.2","2.156","265.3","1018.557","12.04","66.23","0.0","0.0"],
    [1513076,"2026-03-27 23:40:00","59573","1.4609999999999999","261.0","3.071","258.5","1018.468","12.01","66.69","0.0","0.0"],
    [1513077,"2026-03-27 23:50:00","59574","1.265","262.4","2.189","275.1","1018.503","11.98","66.99","0.0","0.0"],
    [1513078,"2026-03-28 00:00:00","59575","1.236","255.7","3.463","272.4","1018.508","11.89","67.23","0.0","0.0"],
    [1513079,"2026-03-28 00:10:00","59576","1.287","256.0","2.679","248.9","1018.498","11.91","67.2","0.0","0.0"],
    [1513080,"2026-03-28 00:20:00","59577","1.371","253.1","2.679","252.7","1018.474","11.89","67.26","0.0","0.0"],
    [1513081,"2026-03-28 00:30:00","59578","1.7080000000000002","266.8","3.103","268.6","1018.411","11.86","67.38","0.0","0.0"],
    [1513082,"2026-03-28 00:40:00","59579","1.172","258.6","1.8619999999999999","254.6","1018.393","11.84","67.52","0.0","0.0"],
    [1513083,"2026-03-28 00:50:00","59580","1.244","252.6","2.8089999999999997","250.1","1018.363","11.88","67.68","0.0","0.0"],
    [1513084,"2026-03-28 01:00:00","59581","1.119","253.9","2.287","266.5","1018.347","11.9","67.81","0.0","0.0"],
    [1513085,"2026-03-28 01:10:00","59582","1.042","262.6","2.7769999999999997","238.8","1018.327","11.92","67.83","0.0","0.0"],
    [1513086,"2026-03-28 01:20:00","59583","1.459","258.7","2.9730000000000003","253.5","1018.182","11.95","67.78","0.0","0.0"],
    [1513087,"2026-03-28 01:30:00","59584","0.937","247.3","1.993","257.5","1018.024","11.97","67.86","0.0","0.0"],
    [1513088,"2026-03-28 01:40:00","59585","0.919","269.1","1.535","289.9","1017.839","11.85","68.03","0.0","0.0"],
    [1513089,"2026-03-28 01:50:00","59586","0.914","269.1","1.5030000000000001","267.6","1017.77","11.84","68.32","0.0","0.0"],
    [1513090,"2026-03-28 02:00:00","59587","1.051","288.1","1.699","275.0","1017.794","11.91","68.23","0.0","0.0"],
    [1513091,"2026-03-28 02:10:00","59588","1.056","295.9","2.123","286.3","1017.878","12.04","68.1","0.0","0.0"],
    [1513092,"2026-03-28 02:20:00","59589","1.2329999999999999","286.1","2.189","287.8","1017.946","12.05","67.71","0.0","0.0"],
    [1513093,"2026-03-28 02:30:00","59590","1.469","274.7","2.0580000000000003","276.4","1017.953","12.0","67.56","0.0","0.0"],
    [1513094,"2026-03-28 02:40:00","59591","1.4509999999999998","284.2","2.287","270.6","1017.997","11.82","68.09","0.0","0.0"],
    [1513095,"2026-03-28 02:50:00","59592","1.869","290.5","2.7439999999999998","283.1","1017.948","11.57","68.57","0.0","0.0"],
    [1513096,"2026-03-28 03:00:00","59593","2.073","288.8","2.9730000000000003","294.8","1017.858","11.74","68.17","0.0","0.0"],
    [1513097,"2026-03-28 03:10:00","59594","2.492","285.9","3.822","280.3","1017.805","11.78","67.18","0.0","0.0"],
    [1513098,"2026-03-28 03:20:00","59595","1.9780000000000002","278.9","3.528","282.7","1017.831","11.65","66.36","0.0","0.0"],
    [1513099,"2026-03-28 03:30:00","59596","1.58","282.1","2.6460000000000004","283.4","1017.931","11.52","66.92","0.0","0.0"],
    [1513100,"2026-03-28 03:40:00","59597","1.514","274.3","2.515","271.7","1017.968","11.42","66.85","0.0","0.0"],
    [1513101,"2026-03-28 03:50:00","59598","1.465","272.8","2.156","281.9","1017.865","11.34","66.86","0.0","0.0"],
    [1513102,"2026-03-28 04:00:00","59599","1.337","274.4","2.0909999999999997","263.8","1017.842","11.15","67.74","0.0","0.0"],
    [1513103,"2026-03-28 04:10:00","59600","1.167","272.9","2.156","270.9","1017.83","11.16","68.07","0.0","0.0"],
    [1513104,"2026-03-28 04:20:00","59601","1.166","277.8","1.895","294.5","1017.82","11.01","68.4","0.0","0.0"],
    [1513105,"2026-03-28 04:30:00","59602","1.504","285.0","2.385","278.8","1017.798","11.06","68.53","0.0","0.0"],
    [1513106,"2026-03-28 04:40:00","59603","2.2680000000000002","278.6","3.299","277.3","1017.759","11.01","68.92","0.0","0.0"],
    [1513107,"2026-03-28 04:50:00","59604","1.97","267.4","3.397","274.7","1017.762","10.78","70.2","0.0","0.0"],
    [1513108,"2026-03-28 05:00:00","59605","1.993","270.7","2.7769999999999997","270.1","1017.776","10.27","71.8","0.0","0.0"],
    [1513109,"2026-03-28 05:10:00","59606","1.7069999999999999","289.3","2.5810000000000004","294.1","1017.869","10.43","72.85","0.0","0.0"],
    [1513110,"2026-03-28 05:20:00","59607","1.681","284.8","2.548","297.2","1017.951","10.56","72.29","0.0","0.0"],
    [1513111,"2026-03-28 05:30:00","59608","2.023","274.4","2.9730000000000003","276.6","1018.061","10.46","71.84","0.0","0.0"],
    [1513112,"2026-03-28 05:40:00","59609","2.068","263.2","2.679","259.3","1018.249","9.99","72.59","0.315","0.0"],
    [1513113,"2026-03-28 05:50:00","59610","2.046","276.8","2.679","278.6","1018.389","9.95","72.73","4.313","0.0"],
    [1513114,"2026-03-28 06:00:00","59611","2.046","278.1","3.136","288.1","1018.491","10.04","72.3","10.18","0.0"],
    [1513115,"2026-03-28 06:10:00","59612","2.218","265.1","3.1689999999999996","254.5","1018.574","10.0","71.07","24.61","0.0"],
    [1513116,"2026-03-28 06:20:00","59613","2.351","271.2","3.6260000000000003","272.9","1018.693","9.87","70.15","46.11","0.0"],
    [1513117,"2026-03-28 06:30:00","59614","3.043","276.6","4.345","272.8","1018.758","9.97","69.32","90.8","0.0"],
    [1513118,"2026-03-28 06:40:00","59615","2.1830000000000003","276.5","3.5610000000000004","296.7","1018.902","10.12","68.32","116.2","0.0"],
    [1513119,"2026-03-28 06:50:00","59616","2.6010000000000004","272.8","4.149","283.2","1018.949","10.32","66.36","152.0","0.0"],
    [1513120,"2026-03-28 07:00:00","59617","3.117","275.9","4.573","275.3","1018.941","10.37","62.96","183.4","0.0"],
    [1513121,"2026-03-28 07:10:00","59618","3.341","282.1","4.638999999999999","278.0","1018.988","10.35","60.98","216.0","0.0"],
    [1513122,"2026-03-28 07:20:00","59619","3.3089999999999997","283.3","4.737","289.5","1019.043","10.56","59.92","249.7","0.0"],
    [1513123,"2026-03-28 07:30:00","59620","3.699","278.1","6.109","268.4","1019.107","10.77","58.19","283.9","0.0"],
    [1513124,"2026-03-28 07:40:00","59621","4.354","277.4","6.501","274.4","1019.11","10.74","57.07","318.7","0.0"],
    [1513125,"2026-03-28 07:50:00","59622","4.101","281.2","6.042999999999999","272.5","1019.109","10.7","56.44","351.9","0.0"],
    [1513126,"2026-03-28 08:00:00","59623","3.7689999999999997","277.1","5.749","273.3","1019.203","11.09","55.25","384.2","0.0"],
    [1513127,"2026-03-28 08:10:00","59624","4.14","283.6","6.566","270.3","1019.277","11.37","53.61","416.6","0.0"],
    [1513128,"2026-03-28 08:20:00","59625","3.688","280.3","6.141","275.0","1019.272","11.5","52.4","448.7","0.0"],
    [1513129,"2026-03-28 08:30:00","59626","3.092","271.1","5.227","284.3","1019.315","11.89","51.09","478.6","0.0"],
    [1513130,"2026-03-28 08:40:00","59627","3.109","269.1","4.573","265.2","1019.415","12.18","49.62","509.0","0.0"],
    [1513131,"2026-03-28 08:50:00","59628","2.4730000000000003","277.5","3.985","285.4","1019.486","12.59","49.25","537.0","0.0"],
    [1513132,"2026-03-28 09:00:00","59629","2.887","276.3","5.129","284.4","1019.463","12.69","47.92","564.1","0.0"],
    [1513133,"2026-03-28 09:10:00","59630","2.748","261.9","4.377","266.5","1019.44","13.03","47.08","591.4","0.0"],
    [1513134,"2026-03-28 09:20:00","59631","2.476","260.6","4.018","272.6","1019.404","13.47","46.39","613.8","0.0"],
    [1513135,"2026-03-28 09:30:00","59632","2.327","234.4","3.855","220.2","1019.423","13.66","45.38","639.0","0.0"],
    [1513136,"2026-03-28 09:40:00","59633","2.9760000000000004","256.8","5.031000000000001","274.4","1019.319","14.17","44.05","663.0","0.0"],
    [1513137,"2026-03-28 09:50:00","59634","2.929","257.6","4.965","259.7","1019.312","14.41","43.22","684.9","0.0"],
    [1513138,"2026-03-28 10:00:00","59635","3.407","260.9","5.357","261.2","1019.338","14.61","42.62","706.1","0.0"],
    [1513139,"2026-03-28 10:10:00","59636","3.535","272.1","5.945","258.4","1019.368","14.76","41.35","725.6","0.0"],
    [1513140,"2026-03-28 10:20:00","59637","2.616","274.3","4.802","274.9","1019.39","15.06","40.18","740.2","0.0"],
    [1513141,"2026-03-28 10:30:00","59638","2.985","278.9","4.541","263.3","1019.323","15.52","36.51","756.6","0.0"],
    [1513142,"2026-03-28 10:40:00","59639","2.516","241.3","4.247","222.0","1019.273","15.49","36.96","769.1","0.0"],
    [1513143,"2026-03-28 10:50:00","59640","2.18","227.2","4.737","226.4","1019.27","15.54","37.85","780.8","0.0"],
    [1513144,"2026-03-28 11:00:00","59641","3.926","199.8","6.239","193.3","1019.138","15.11","42.56","789.4","0.0"],
    [1513145,"2026-03-28 11:10:00","59642","4.607","185.8","6.729","190.3","1018.982","14.38","50.69","802.0","0.0"],
    [1513146,"2026-03-28 11:20:00","59643","5.3629999999999995","182.2","6.7620000000000005","185.5","1018.813","14.33","51.42","813.0","0.0"],
    [1513147,"2026-03-28 11:30:00","59644","5.394","186.1","7.023","186.5","1018.724","14.54","53.21","821.0","0.0"],
    [1513148,"2026-03-28 11:40:00","59645","4.994","183.9","6.207000000000001","189.3","1018.565","14.55","54.31","825.0","0.0"],
    [1513149,"2026-03-28 11:50:00","59646","5.092","183.7","6.631","187.3","1018.451","14.45","55.23","829.0","0.0"],
    [1513150,"2026-03-28 12:00:00","59647","5.721","185.1","7.513","187.6","1018.352","14.66","53.75","833.0","0.0"],
    [1513151,"2026-03-28 12:10:00","59648","4.888999999999999","191.0","6.697","183.7","1018.355","15.16","51.01","833.0","0.0"],
    [1513152,"2026-03-28 12:20:00","59649","4.987","184.1","6.893","194.7","1018.249","14.89","53.97","830.0","0.0"],
    [1513153,"2026-03-28 12:30:00","59650","6.051","183.6","8.07","187.4","1018.119","14.86","54.45","832.0","0.0"],
    [1513154,"2026-03-28 12:40:00","59651","6.542000000000001","184.6","8.69","189.0","1018.033","14.84","54.3","824.0","0.0"],
    [1513155,"2026-03-28 12:50:00","59652","6.412000000000001","194.1","8.95","193.3","1017.935","15.07","52.39","824.0","0.0"],
    [1513156,"2026-03-28 13:00:00","59653","5.581","206.2","8.26","195.7","1017.834","15.6","49.07","830.0","0.0"],
    [1513157,"2026-03-28 13:10:00","59654","5.682","200.8","9.57","186.9","1017.623","15.58","49.67","834.0","0.0"],
    [1513158,"2026-03-28 13:20:00","59655","6.3","203.1","10.0","195.1","1017.489","15.23","49.94","644.4","0.0"],
    [1513159,"2026-03-28 13:30:00","59656","5.278","209.9","9.57","225.0","1017.353","15.71","46.29","769.5","0.0"],
    [1513160,"2026-03-28 13:40:00","59657","5.602","216.5","9.41","224.7","1017.306","15.88","44.14","793.5","0.0"],
    [1513161,"2026-03-28 13:50:00","59658","5.871","216.2","9.6","221.7","1017.223","15.85","43.06","789.8","0.0"],
    [1513162,"2026-03-28 14:00:00","59659","5.6979999999999995","217.6","10.98","218.5","1017.13","16.38","40.5","798.2","0.0"],
    [1513163,"2026-03-28 14:10:00","59660","5.872000000000001","220.4","9.15","214.9","1016.927","16.27","42.41","532.4","0.0"],
    [1513164,"2026-03-28 14:20:00","59661","6.3660000000000005","219.8","9.41","220.0","1016.707","16.34","40.84","461.6","0.0"],
    [1513165,"2026-03-28 14:30:00","59662","5.849","216.8","8.98","219.5","1016.659","16.53","41.08","774.3","0.0"],
    [1513166,"2026-03-28 14:40:00","59663","5.666","218.9","9.24","218.0","1016.583","16.65","42.05","792.4","0.0"],
    [1513167,"2026-03-28 14:50:00","59664","4.898","217.1","8.13","201.8","1016.56","16.88","43.2","712.5","0.0"],
    [1513168,"2026-03-28 15:00:00","59665","5.272","219.7","9.34","226.1","1016.542","16.9","42.65","469.5","0.0"],
    [1513169,"2026-03-28 15:10:00","59666","5.325","220.0","8.85","213.7","1016.403","16.88","42.81","601.3","0.0"],
    [1513170,"2026-03-28 15:20:00","59667","4.574","220.4","8.04","229.3","1016.365","16.7","45.94","288.3","0.0"],
    [1513171,"2026-03-28 15:30:00","59668","5.456","218.8","8.62","209.6","1016.295","16.17","48.14","252.3","0.0"],
    [1513172,"2026-03-28 15:40:00","59669","5.202000000000001","219.0","8.89","221.1","1016.196","16.54","47.16","223.2","0.0"],
    [1513173,"2026-03-28 15:50:00","59670","3.575","228.6","8.53","213.8","1016.243","16.52","47.32","197.6","0.0"],
    [1513174,"2026-03-28 16:00:00","59671","3.0260000000000002","221.1","6.109","219.5","1016.283","16.68","48.14","165.0","0.0"],
    [1513175,"2026-03-28 16:10:00","59672","3.935","217.5","7.187","217.9","1016.23","16.53","48.8","122.2","0.0"],
    [1513176,"2026-03-28 16:20:00","59673","3.7319999999999998","217.1","7.546","205.4","1016.291","16.5","47.95","119.1","0.0"],
    [1513177,"2026-03-28 16:30:00","59674","3.9019999999999997","215.4","7.546","208.2","1016.253","16.35","50.91","125.2","0.0"],
    [1513178,"2026-03-28 16:40:00","59675","4.046","217.2","6.305","210.5","1016.204","16.33","51.42","94.1","0.0"],
    [1513179,"2026-03-28 16:50:00","59676","3.593","214.2","6.011","220.7","1016.262","16.42","50.26","72.29","0.0"],
    [1513180,"2026-03-28 17:00:00","59677","3.042","206.6","5.096","198.7","1016.17","16.53","50.47","73.03","0.0"],
    [1513181,"2026-03-28 17:10:00","59678","2.2769999999999997","204.5","4.1160000000000005","209.3","1016.166","16.71","50.26","79.68","0.0"],
    [1513182,"2026-03-28 17:20:00","59679","1.8430000000000002","190.1","3.0380000000000003","192.1","1016.199","16.84","50.61","76.65","0.0"],
    [1513183,"2026-03-28 17:30:00","59680","3.438","193.4","6.272","192.7","1016.23","16.87","51.3","76.9","0.0"],
    [1513184,"2026-03-28 17:40:00","59681","3.926","211.1","5.88","186.4","1016.309","16.49","52.89","57.59","0.0"],
    [1513185,"2026-03-28 17:50:00","59682","4.188","216.8","6.337000000000001","221.0","1016.438","16.44","52.6","23.29","0.0"],
    [1513186,"2026-03-28 18:00:00","59683","4.707","217.7","6.827000000000001","229.9","1016.54","15.67","60.32","5.45","0.0"],
    [1513187,"2026-03-28 18:10:00","59684","4.495","219.4","7.023","215.2","1016.541","15.24","63.76","1.496","0.0"],
    [1513188,"2026-03-28 18:20:00","59685","3.488","217.8","5.292000000000001","205.7","1016.637","15.15","65.31","0.28800000000000003","0.0"],
    [1513189,"2026-03-28 18:30:00","59686","2.309","227.5","4.508","216.0","1016.707","15.09","66.32","0.0","0.0"],
    [1513190,"2026-03-28 18:40:00","59687","1.982","243.5","4.41","258.2","1016.786","15.03","66.81","0.0","0.0"],
    [1513191,"2026-03-28 18:50:00","59688","2.406","246.7","4.475","236.0","1016.91","14.97","67.47","0.0","0.0"],
    [1513192,"2026-03-28 19:00:00","59689","2.141","239.3","3.92","258.3","1017.005","14.96","68.84","0.0","0.0"],
    [1513193,"2026-03-28 19:10:00","59690","2.141","222.4","4.377","217.6","1017.061","14.96","69.72","0.0","0.0"],
    [1513194,"2026-03-28 19:20:00","59691","2.252","267.4","5.7170000000000005","199.7","1017.121","14.84","69.98","0.0","0.0"],
    [1513195,"2026-03-28 19:30:00","59692","2.0869999999999997","274.9","3.463","267.1","1017.129","14.8","70.42","0.0","0.0"],
    [1513196,"2026-03-28 19:40:00","59693","2.124","262.0","3.593","268.0","1017.182","14.69","69.91","0.0","0.0"],
    [1513197,"2026-03-28 19:50:00","59694","1.906","258.9","3.43","276.9","1017.275","14.73","69.41","0.0","0.0"],
    [1513198,"2026-03-28 20:00:00","59695","1.672","213.7","3.855","205.5","1017.141","14.65","69.33","0.0","0.0"],
    [1513199,"2026-03-28 20:10:00","59696","1.868","239.1","3.005","210.7","1017.139","14.64","69.02","0.0","0.0"],
    [1513200,"2026-03-28 20:20:00","59697","1.655","244.8","3.855","260.7","1017.168","14.61","69.8","0.0","0.0"],
    [1513201,"2026-03-28 20:30:00","59698","1.329","258.7","2.842","270.4","1017.124","14.64","70.55","0.0","0.0"],
    [1513202,"2026-03-28 20:40:00","59699","1.114","222.8","2.025","199.4","1016.991","14.6","70.62","0.0","0.0"],
    [1513203,"2026-03-28 20:50:00","59700","1.117","181.4","2.385","170.5","1017.081","14.63","70.66","0.0","0.0"],
    [1513204,"2026-03-28 21:00:00","59701","1.8419999999999999","175.7","2.6460000000000004","191.8","1017.116","14.65","72.33","0.0","0.0"],
    [1513205,"2026-03-28 21:10:00","59702","1.768","138.3","2.679","138.9","1017.068","14.5","74.54","0.0","0.0"],
    [1513206,"2026-03-28 21:20:00","59703","1.214","110.8","1.829","114.5","1017.077","14.48","75.86","0.0","0.0"],
    [1513207,"2026-03-28 21:30:00","59704","2.2430000000000003","105.1","2.7769999999999997","105.2","1017.026","14.47","77.98","0.0","0.0"],
    [1513208,"2026-03-28 21:40:00","59705","2.95","119.4","3.6910000000000003","115.5","1016.934","14.47","82.3","0.0","0.0"],
    [1513209,"2026-03-28 21:50:00","59706","2.767","130.2","3.659","136.6","1016.974","14.29","85.0","0.0","0.0"],
    [1513210,"2026-03-28 22:00:00","59707","3.338","140.3","4.051","129.7","1016.903","14.2","86.0","0.0","0.0"],
    [1513211,"2026-03-28 22:10:00","59708","2.452","120.1","3.6910000000000003","114.5","1017","14.21","86.5","0.0","0.0"],
    [1513212,"2026-03-28 22:20:00","59709","2.498","87.9","3.365","74.34","1017.107","14.18","87.0","0.0","0.0"],
    [1513213,"2026-03-28 22:30:00","59710","3.282","66.76","4.475","64.06","1017.08","14.16","87.5","0.0","0.0"],
    [1513214,"2026-03-28 22:40:00","59711","3.6489999999999996","55.33","4.671","55.95","1017.214","14.11","88.5","0.0","0.0"],
    [1513215,"2026-03-28 22:50:00","59712","4.215","44.41","6.893","41.0","1017.415","14.12","89.3","0.0","0.0"],
    [1513216,"2026-03-28 23:00:00","59713","5.93","63.97","7.611000000000001","71.54","1017.346","13.99","89.3","0.0","0.0"],
    [1513217,"2026-03-28 23:10:00","59714","6.132000000000001","70.4","8.36","75.25","1017.289","13.76","89.0","0.0","0.0"],
    [1513218,"2026-03-28 23:20:00","59715","7.301","74.95","9.64","80.1","1017.057","13.82","87.8","0.0","0.0"],
    [1513219,"2026-03-28 23:30:00","59716","6.565","68.22","8.62","65.7","1017.151","13.52","88.1","0.0","0.0"],
    [1513220,"2026-03-28 23:40:00","59717","4.742","85.3","7.611000000000001","69.89","1017.315","13.5","79.08","0.0","0.0"],
    [1513221,"2026-03-28 23:50:00","59718","4.038","98.4","5.912999999999999","95.8","1017.364","13.6","77.07","0.0","0.0"],
    [1513222,"2026-03-29 00:00:00","59719","2.9539999999999997","88.9","4.508","115.5","1017.304","13.69","73.9","0.0","0.0"],
    [1513223,"2026-03-29 00:10:00","59720","2.6010000000000004","62.17","4.475","63.03","1017.106","13.71","69.41","0.0","0.0"],
    [1513224,"2026-03-29 00:20:00","59721","4.024","56.81","6.042999999999999","36.9","1016.844","13.72","70.49","0.0","0.0"],
    [1513225,"2026-03-29 00:30:00","59722","4.298","68.7","5.815","75.46","1016.872","13.51","75.72","0.0","0.0"],
    [1513226,"2026-03-29 00:40:00","59723","3.395","68.97","4.802","78.64","1017.051","13.16","77.06","0.0","0.0"],
    [1513227,"2026-03-29 00:50:00","59724","4.223","96.6","6.272","107.0","1017.089","13.11","76.95","0.0","0.0"],
    [1513228,"2026-03-29 01:00:00","59725","6.024","117.4","7.6770000000000005","125.6","1017.095","12.62","79.01","0.0","0.0"],
    [1513229,"2026-03-29 01:10:00","59726","5.705","86.0","7.971","80.0","1017.059","12.16","80.6","0.0","0.0"],
    [1513230,"2026-03-29 01:20:00","59727","5.127000000000001","69.25","6.468","75.4","1017.089","11.95","79.11","0.0","0.0"],
    [1513231,"2026-03-29 01:30:00","59728","4.531000000000001","58.68","6.664","69.01","1016.999","11.94","72.28","0.0","0.0"],
    [1513232,"2026-03-29 01:40:00","59729","4.317","71.17","6.141","78.49","1016.857","12.06","64.63","0.0","0.0"],
    [1513233,"2026-03-29 01:50:00","59730","3.0989999999999998","92.5","5.749","66.14","1016.894","12.13","61.12","0.0","0.0"],
    [1513234,"2026-03-29 02:00:00","59731","1.966","118.3","3.136","153.8","1016.872","12.16","59.52","0.0","0.0"],
    [1513235,"2026-03-29 02:10:00","59732","1.546","113.8","2.7110000000000003","133.7","1016.84","12.22","59.43","0.0","0.0"],
    [1513236,"2026-03-29 02:20:00","59733","2.29","137.1","4.083","157.3","1016.682","12.19","58.3","0.0","0.0"],
    [1513237,"2026-03-29 02:30:00","59734","1.399","151.4","2.515","216.0","1016.662","12.16","58.3","0.0","0.0"],
    [1513238,"2026-03-29 02:40:00","59735","1.929","215.8","3.593","185.9","1016.555","12.24","56.64","0.0","0.0"],
    [1513239,"2026-03-29 02:50:00","59736","1.3","251.3","2.94","212.6","1016.704","12.2","56.51","0.0","0.0"],
    [1513240,"2026-03-29 03:00:00","59737","2.32","280.6","3.201","273.0","1016.73","12.27","57.63","0.0","0.0"],
    [1513241,"2026-03-29 03:10:00","59738","2.0780000000000003","270.0","3.6260000000000003","289.4","1016.715","12.18","58.42","0.0","0.0"],
    [1513242,"2026-03-29 03:20:00","59739","2.6319999999999997","298.2","4.051","290.5","1016.782","12.17","59.35","0.0","0.0"],
    [1513243,"2026-03-29 03:30:00","59740","3.353","290.1","5.063","267.4","1016.912","12.11","59.6","0.0","0.0"],
    [1513244,"2026-03-29 03:40:00","59741","2.7769999999999997","269.4","4.345","279.1","1016.868","12.02","60.77","0.0","0.0"],
    [1513245,"2026-03-29 03:50:00","59742","4.246","299.9","6.957999999999999","317.2","1016.751","12.11","49.89","0.0","0.0"],
    [1513246,"2026-03-29 04:00:00","59743","4.782","319.1","7.0889999999999995","313.7","1016.672","12.47","32.07","0.0","0.0"],
    [1513247,"2026-03-29 04:10:00","59744","4.946000000000001","316.4","8.36","328.6","1016.529","12.43","27.17","0.0","0.0"],
    [1513248,"2026-03-29 04:20:00","59745","4.928999999999999","312.1","6.9910000000000005","316.8","1016.529","12.31","26.95","0.0","0.0"],
    [1513249,"2026-03-29 04:30:00","59746","4.131","311.5","6.272","299.0","1016.624","11.96","28.17","0.0","0.0"],
    [1513250,"2026-03-29 04:40:00","59747","3.3480000000000003","310.9","5.815","306.8","1016.651","11.78","29.4","0.0","0.0"],
    [1513251,"2026-03-29 04:50:00","59748","4.007","292.0","5.847","287.9","1016.474","11.4","30.45","0.0","0.0"],
    [1513252,"2026-03-29 05:00:00","59749","5.184","294.2","8.89","291.9","1016.367","11.01","31.61","0.0","0.0"],
    [1513253,"2026-03-29 05:10:00","59750","5.6770000000000005","299.1","8.17","305.9","1016.392","10.74","33.24","0.0","0.0"],
    [1513254,"2026-03-29 05:20:00","59751","4.8839999999999995","302.3","7.187","293.9","1016.51","10.61","34.24","0.0","0.0"],
    [1513255,"2026-03-29 05:30:00","59752","5.672999999999999","300.3","8.56","296.4","1016.491","10.31","35.75","0.0","0.0"],
    [1513256,"2026-03-29 05:40:00","59753","4.977","307.4","7.905","313.2","1016.623","10.2","37.16","0.245","0.0"],
    [1513257,"2026-03-29 05:50:00","59754","3.7910000000000004","296.1","6.272","281.5","1016.67","10.03","37.24","5.191","0.0"],
    [1513258,"2026-03-29 06:00:00","59755","4.984","315.7","8.43","323.8","1016.76","10.23","37.43","20.99","0.0"],
    [1513259,"2026-03-29 06:10:00","59756","6.601","325.4","9.05","318.3","1016.841","10.26","36.81","41.71","0.0"],
    [1513260,"2026-03-29 06:20:00","59757","6.999","319.6","9.77","319.6","1016.868","10.13","37.42","68.82","0.0"],
    [1513261,"2026-03-29 06:30:00","59758","6.394","315.2","9.02","314.7","1017.006","10.13","38.17","96.8","0.0"],
    [1513262,"2026-03-29 06:40:00","59759","6.2139999999999995","307.7","8.2","312.0","1017.01","10.17","37.03","127.5","0.0"],
    [1513263,"2026-03-29 06:50:00","59760","4.989","303.7","7.252000000000001","303.8","1017.119","10.36","35.39","159.1","0.0"],
    [1513264,"2026-03-29 07:00:00","59761","5.296","326.0","8.33","334.5","1017.292","10.75","33.6","192.7","0.0"],
    [1513265,"2026-03-29 07:10:00","59762","5.284","351.1","8.1","348.8","1017.4","11.25","30.8","226.4","0.0"],
    [1513266,"2026-03-29 07:20:00","59763","5.322","358.4","8.36","17.88","1017.512","11.34","29.38","259.6","0.0"],
    [1513267,"2026-03-29 07:30:00","59764","3.178","330.6","5.684","8.12","1017.57","11.46","30.75","292.3","0.0"],
    [1513268,"2026-03-29 07:40:00","59765","1.217","294.3","3.299","57.47","1017.666","11.44","30.08","321.7","0.0"],
    [1513269,"2026-03-29 07:50:00","59766","1.483","352.6","4.671","54.2","1017.771","12.23","27.7","355.1","0.0"],
    [1513270,"2026-03-29 08:00:00","59767","4.041","357.4","9.08","344.9","1017.883","12.27","25.37","393.7","0.0"],
    [1513271,"2026-03-29 08:10:00","59768","7.132999999999999","8.09","11.34","10.42","1017.924","12.24","22.5","432.9","0.0"],
    [1513272,"2026-03-29 08:20:00","59769","6.2","5.7","9.6","6.0120000000000005","1017.975","12.42","21.01","465.9","0.0"],
    [1513273,"2026-03-29 08:30:00","59770","6.015","0.41","10.88","1.034","1018.079","12.57","20.65","497.1","0.0"],
    [1513274,"2026-03-29 08:40:00","59771","6.3260000000000005","0.7190000000000001","11.79","354.7","1018.145","12.62","19.51","527.8","0.0"],
    [1513275,"2026-03-29 08:50:00","59772","5.776","356.3","11.5","7.162000000000001","1018.227","12.84","19.52","555.7","0.0"],
    [1513276,"2026-03-29 09:00:00","59773","6.76","355.5","12.15","5.121","1018.297","12.9","18.48","585.2","0.0"],
    [1513277,"2026-03-29 09:10:00","59774","5.666","340.4","8.17","9.33","1018.261","13.11","19.39","611.7","0.0"],
    [1513278,"2026-03-29 09:20:00","59775","3.758","341.5","8.13","323.6","1018.339","13.19","18.05","638.7","0.0"],
    [1513279,"2026-03-29 09:30:00","59776","3.1710000000000003","10.77","6.37","22.54","1018.279","13.18","16.56","659.4","0.0"],
    [1513280,"2026-03-29 09:40:00","59777","3.806","3.571","9.02","356.6","1018.329","13.38","17.44","680.8","0.0"],
    [1513281,"2026-03-29 09:50:00","59778","1.9909999999999999","352.1","4.933","32.1","1018.1","13.51","17.78","704.5","0.0"],
    [1513282,"2026-03-29 10:00:00","59779","3.569","12.35","7.415","338.2","1018.07","13.42","18.03","725.2","0.0"],
    [1513283,"2026-03-29 10:10:00","59780","4.876","10.02","8.23","18.98","1017.98","13.57","18.81","746.1","0.0"],
    [1513284,"2026-03-29 10:20:00","59781","3.6289999999999996","15.16","6.925","12.41","1017.926","13.93","18.53","761.6","0.0"],
    [1513285,"2026-03-29 10:30:00","59782","4.654","328.9","8.79","308.6","1017.888","14.08","16.59","778.2","0.0"],
    [1513286,"2026-03-29 10:40:00","59783","3.612","337.8","6.664","317.7","1018.017","14.32","15.82","792.3","0.0"],
    [1513287,"2026-03-29 10:50:00","59784","3.6660000000000004","358.5","6.795","343.3","1018.071","14.26","17.05","811.0","0.0"],
    [1513288,"2026-03-29 11:00:00","59785","5.381","21.95","8.13","4.489","1018.125","14.32","15.49","827.0","0.0"],
    [1513289,"2026-03-29 11:10:00","59786","5.605","15.07","8.13","12.01","1018.286","14.41","15.26","841.0","0.0"],
    [1513290,"2026-03-29 11:20:00","59787","3.556","28.63","5.7170000000000005","78.71","1018.329","14.72","15.08","852.0","0.0"],
    [1513291,"2026-03-29 11:30:00","59788","4.504","107.6","6.207000000000001","119.8","1018.398","14.3","22.35","828.0","0.0"],
    [1513292,"2026-03-29 11:40:00","59789","4.68","133.7","6.37","123.7","1018.502","13.83","24.57","734.8","0.0"],
    [1513293,"2026-03-29 11:50:00","59790","4.365","151.4","6.207000000000001","156.9","1018.699","13.63","26.71","403.6","0.0"],
    [1513294,"2026-03-29 12:00:00","59791","4.748","145.6","6.925","126.7","1018.853","13.66","27.58","351.7","0.0"],
    [1513295,"2026-03-29 12:10:00","59792","6.071000000000001","135.2","8.66","130.3","1018.948","13.54","29.5","361.8","0.0"],
    [1513296,"2026-03-29 12:20:00","59793","6.1739999999999995","136.4","7.6770000000000005","131.5","1019.07","13.41","29.4","334.8","0.0"],
    [1513297,"2026-03-29 12:30:00","59794","5.777","135.1","7.252000000000001","132.3","1019.195","13.43","27.38","356.0","0.0"],
    [1513298,"2026-03-29 12:40:00","59795","4.81","143.6","6.109","161.9","1019.35","13.46","28.05","491.5","0.0"],
    [1513299,"2026-03-29 12:50:00","59796","5.0360000000000005","149.8","6.435","164.6","1019.318","13.44","28.93","739.5","0.0"],
    [1513300,"2026-03-29 13:00:00","59797","4.63","151.8","5.7170000000000005","152.5","1019.414","13.44","29.27","680.7","0.0"],
    [1513301,"2026-03-29 13:10:00","59798","4.475","154.7","5.684","155.5","1019.512","13.49","29.45","553.1","0.0"],
    [1513302,"2026-03-29 13:20:00","59799","3.4160000000000004","151.2","4.279","138.2","1019.7","13.68","30.47","522.7","0.0"],
    [1513303,"2026-03-29 13:30:00","59800","3.138","157.9","4.083","163.5","1019.801","13.72","29.95","448.0","0.0"],
    [1513304,"2026-03-29 13:40:00","59801","1.9340000000000002","166.1","3.299","153.1","1019.765","13.96","29.45","627.5","0.0"],
    [1513305,"2026-03-29 13:50:00","59802","0.442","177.1","1.5030000000000001","204.4","1019.807","14.54","25.27","577.1","0.0"],
    [1513306,"2026-03-29 14:00:00","59803","0.675","32.58","1.601","22.07","1019.675","14.81","22.97","315.0","0.0"],
    [1513307,"2026-03-29 14:10:00","59804","1.69","331.5","5.39","335.0","1019.617","15.22","24.31","487.3","0.0"],
    [1513308,"2026-03-29 14:20:00","59805","3.759","319.7","7.0889999999999995","301.0","1019.623","15.69","23.85","678.9","0.0"],
    [1513309,"2026-03-29 14:30:00","59806","3.071","306.8","5.815","289.7","1019.605","15.76","23.95","542.5","0.0"],
    [1513310,"2026-03-29 14:40:00","59807","1.929","261.8","4.671","247.2","1019.586","15.79","24.68","444.0","0.0"],
    [1513311,"2026-03-29 14:50:00","59808","1.307","105.5","3.855","50.77","1019.691","15.57","25.33","397.5","0.0"],
    [1513312,"2026-03-29 15:00:00","59809","3.2430000000000003","33.15","4.867","40.25","1019.647","15.57","25.59","294.0","0.0"],
    [1513313,"2026-03-29 15:10:00","59810","2.5180000000000002","32.96","5.194","7.225","1019.798","15.27","27.7","241.3","0.0"],
    [1513314,"2026-03-29 15:20:00","59811","3.841","181.3","6.042999999999999","209.5","1019.814","14.72","32.1","269.1","0.0"],
    [1513315,"2026-03-29 15:30:00","59812","4.525","182.8","6.272","173.4","1019.709","14.36","35.38","278.6","0.0"],
    [1513316,"2026-03-29 15:40:00","59813","4.934","185.1","7.611000000000001","189.8","1019.714","14.3","37.63","281.8","0.0"],
    [1513317,"2026-03-29 15:50:00","59814","5.2410000000000005","188.7","7.285","191.0","1019.768","14.17","37.49","266.9","0.0"],
    [1513318,"2026-03-29 16:00:00","59815","5.083","186.4","6.7620000000000005","189.1","1019.88","14.42","38.67","370.3","0.0"],
    [1513319,"2026-03-29 16:10:00","59816","4.507","179.7","5.782","187.7","1019.988","14.8","36.75","318.8","0.0"],
    [1513320,"2026-03-29 16:20:00","59817","5.438","182.6","6.599","172.1","1019.97","14.54","38.25","330.4","0.0"],
    [1513321,"2026-03-29 16:30:00","59818","4.968999999999999","178.7","6.468","172.6","1020.03","14.5","39.71","301.9","0.0"],
    [1513322,"2026-03-29 16:40:00","59819","6.31","161.9","7.023","164.3","1020.177","14.02","43.13","275.6","0.0"],
    [1513323,"2026-03-29 16:50:00","59820","6.1739999999999995","176.5","7.285","172.1","1020.327","14.02","43.09","238.3","0.0"],
    [1513324,"2026-03-29 17:00:00","59821","5.707000000000001","189.1","6.9910000000000005","193.2","1020.415","14.15","41.0","203.6","0.0"],
    [1513325,"2026-03-29 17:10:00","59822","5.528","191.0","7.611000000000001","196.6","1020.649","14.09","42.77","171.8","0.0"],
    [1513326,"2026-03-29 17:20:00","59823","4.97","188.4","6.435","181.2","1020.935","14.15","42.46","138.6","0.0"],
    [1513327,"2026-03-29 17:30:00","59824","5.306","192.0","6.501","191.5","1021.023","14.12","43.25","109.0","0.0"],
    [1513328,"2026-03-29 17:40:00","59825","4.982","191.9","6.042999999999999","195.7","1021.128","14.08","41.45","80.5","0.0"],
    [1513329,"2026-03-29 17:50:00","59826","4.59","194.4","5.912999999999999","192.5","1021.281","14.09","42.1","53.35","0.0"],
    [1513330,"2026-03-29 18:00:00","59827","3.576","198.1","5.031000000000001","196.6","1021.404","14.06","41.96","27.37","0.0"],
    [1513331,"2026-03-29 18:10:00","59828","2.568","201.6","3.887","198.9","1021.43","14.08","39.24","6.978","0.0"],
    [1513332,"2026-03-29 18:20:00","59829","2.59","201.2","3.495","194.1","1021.518","14.06","39.22","1.011","0.0"],
    [1513333,"2026-03-29 18:30:00","59830","1.6580000000000001","215.0","3.267","208.3","1021.658","13.95","39.39","0.0","0.0"],
    [1513334,"2026-03-29 18:40:00","59831","1.444","214.2","2.417","222.2","1021.873","13.89","40.86","0.0","0.0"],
    [1513335,"2026-03-29 18:50:00","59832","1.865","196.0","2.7769999999999997","193.2","1022.049","13.89","41.79","0.0","0.0"],
    [1513336,"2026-03-29 19:00:00","59833","1.278","223.8","2.0909999999999997","185.7","1022.35","13.89","44.39","0.0","0.0"],
    [1513337,"2026-03-29 19:10:00","59834","0.7070000000000001","257.7","1.699","253.3","1022.606","13.75","42.72","0.0","0.0"],
    [1513338,"2026-03-29 19:20:00","59835","0.708","248.1","1.209","275.2","1022.705","13.74","42.71","0.0","0.0"],
    [1513339,"2026-03-29 19:30:00","59836","0.6940000000000001","253.9","1.143","224.6","1022.831","13.65","43.5","0.0","0.0"],
    [1513340,"2026-03-29 19:40:00","59837","0.469","257.0","0.915","272.3","1022.829","13.6","44.67","0.0","0.0"],
    [1513341,"2026-03-29 19:50:00","59838","0.652","247.4","1.307","225.1","1022.815","13.57","45.06","0.0","0.0"],
    [1513342,"2026-03-29 20:00:00","59839","0.9","255.9","1.601","264.9","1022.904","13.54","45.85","0.0","0.0"],
    [1513343,"2026-03-29 20:10:00","59840","1.422","259.5","1.993","250.9","1023.056","13.52","46.2","0.0","0.0"],
    [1513344,"2026-03-29 20:20:00","59841","1.625","256.2","2.679","257.9","1023.258","13.22","47.38","0.0","0.0"],
    [1513345,"2026-03-29 20:30:00","59842","1.203","273.6","1.829","266.5","1023.457","13.06","48.32","0.0","0.0"],
    [1513346,"2026-03-29 20:40:00","59843","1.577","268.4","2.189","270.5","1023.606","13.04","49.4","0.0","0.0"],
    [1513347,"2026-03-29 20:50:00","59844","1.38","231.3","2.189","235.1","1023.709","13.13","49.15","0.0","0.0"],
    [1513348,"2026-03-29 21:00:00","59845","1.073","260.7","1.764","244.5","1023.754","13.09","48.83","0.0","0.0"],
    [1513349,"2026-03-29 21:10:00","59846","0.778","240.2","1.4369999999999998","241.7","1023.87","13.01","49.77","0.0","0.0"],
    [1513350,"2026-03-29 21:20:00","59847","1.063","288.0","1.96","321.6","1023.897","12.92","50.09","0.0","0.0"],
    [1513351,"2026-03-29 21:30:00","59848","1.2570000000000001","305.6","2.0580000000000003","317.5","1023.976","12.99","49.62","0.0","0.0"],
    [1513352,"2026-03-29 21:40:00","59849","1.169","316.9","2.352","355.5","1023.96","13.23","46.06","0.0","0.0"],
    [1513353,"2026-03-29 21:50:00","59850","1.258","349.5","2.0909999999999997","8.69","1023.945","13.16","43.83","0.0","0.0"],
    [1513354,"2026-03-29 22:00:00","59851","1.5119999999999998","4.779","2.7439999999999998","5.836","1023.964","13.36","36.8","0.0","0.0"],
    [1513355,"2026-03-29 22:10:00","59852","0.35200000000000004","312.6","1.307","354.7","1024.038","13.05","37.14","0.0","0.0"],
    [1513356,"2026-03-29 22:20:00","59853","1.327","356.5","1.633","347.5","1024.104","13.34","30.51","0.0","0.0"],
    [1513357,"2026-03-29 22:30:00","59854","1.4780000000000002","3.188","2.417","350.4","1024.278","13.48","27.16","0.0","0.0"],
    [1513358,"2026-03-29 22:40:00","59855","1.7169999999999999","352.3","2.613","347.8","1024.303","13.4","25.5","0.0","0.0"],
    [1513359,"2026-03-29 22:50:00","59856","2.1180000000000003","344.2","2.613","342.1","1024.34","13.29","26.92","0.0","0.0"],
    [1513360,"2026-03-29 23:00:00","59857","1.777","284.0","2.9730000000000003","269.2","1024.383","12.63","29.64","0.0","0.0"],
    [1513361,"2026-03-29 23:10:00","59858","1.5730000000000002","272.7","2.0909999999999997","273.0","1024.416","11.96","30.28","0.0","0.0"],
    [1513362,"2026-03-29 23:20:00","59859","1.751","280.4","2.221","296.3","1024.415","12.07","29.82","0.0","0.0"],
    [1513363,"2026-03-29 23:30:00","59860","0.66","243.6","1.5030000000000001","279.5","1024.389","11.54","32.59","0.0","0.0"],
    [1513364,"2026-03-29 23:40:00","59861","0.866","282.5","1.9269999999999998","298.0","1024.624","11.46","31.69","0.0","0.0"],
    [1513365,"2026-03-29 23:50:00","59862","1.615","280.0","2.352","272.6","1024.695","11.69","28.94","0.0","0.0"],
    [1513366,"2026-03-30 00:00:00","59863","1.96","266.8","2.679","259.0","1024.635","11.51","28.27","0.0","0.0"],
    [1513367,"2026-03-30 00:10:00","59864","1.217","260.3","2.025","278.8","1024.588","11.29","28.34","0.0","0.0"],
    [1513368,"2026-03-30 00:20:00","59865","1.003","257.8","1.7309999999999999","249.9","1024.519","11.35","28.55","0.0","0.0"],
    [1513369,"2026-03-30 00:30:00","59866","1.236","273.2","3.071","274.8","1024.478","11.15","30.15","0.0","0.0"],
    [1513370,"2026-03-30 00:40:00","59867","2.458","292.4","4.247","282.9","1024.496","11.49","28.47","0.0","0.0"],
    [1513371,"2026-03-30 00:50:00","59868","2.6630000000000003","283.4","3.7239999999999998","281.3","1024.569","11.42","28.24","0.0","0.0"],
    [1513372,"2026-03-30 01:00:00","59869","2.504","286.8","3.528","289.7","1024.487","11.37","28.57","0.0","0.0"],
    [1513373,"2026-03-30 01:10:00","59870","2.543","293.6","3.985","292.4","1024.496","11.27","28.96","0.0","0.0"],
    [1513374,"2026-03-30 01:20:00","59871","2.937","292.4","4.4430000000000005","293.2","1024.459","11.22","27.96","0.0","0.0"],
    [1513375,"2026-03-30 01:30:00","59872","3.0660000000000003","281.6","4.377","276.7","1024.372","11.07","27.81","0.0","0.0"],
    [1513376,"2026-03-30 01:40:00","59873","3.708","286.7","5.4879999999999995","283.9","1024.373","10.96","27.91","0.0","0.0"],
    [1513377,"2026-03-30 01:50:00","59874","3.9610000000000003","286.1","5.422999999999999","278.0","1024.199","10.85","27.75","0.0","0.0"],
    [1513378,"2026-03-30 02:00:00","59875","4.032","277.7","6.042999999999999","277.3","1024.175","10.68","27.78","0.0","0.0"],
    [1513379,"2026-03-30 02:10:00","59876","4.064","283.9","6.0760000000000005","284.2","1024.193","10.75","27.57","0.0","0.0"],
    [1513380,"2026-03-30 02:20:00","59877","3.471","280.8","5.422999999999999","278.5","1024.289","10.67","27.6","0.0","0.0"],
    [1513381,"2026-03-30 02:30:00","59878","2.489","297.9","4.345","290.7","1024.451","10.71","28.26","0.0","0.0"],
    [1513382,"2026-03-30 02:40:00","59879","2.4659999999999997","285.6","3.463","282.2","1024.426","10.6","27.99","0.0","0.0"],
    [1513383,"2026-03-30 02:50:00","59880","2.07","275.7","3.071","278.3","1024.353","10.43","28.03","0.0","0.0"],
    [1513384,"2026-03-30 03:00:00","59881","2.224","282.9","3.201","284.7","1024.337","10.15","30.0","0.0","0.0"],
    [1513385,"2026-03-30 03:10:00","59882","2.059","289.6","2.907","299.4","1024.42","10.19","29.64","0.0","0.0"],
    [1513386,"2026-03-30 03:20:00","59883","1.675","291.6","2.613","279.8","1024.349","10.09","30.22","0.0","0.0"],
    [1513387,"2026-03-30 03:30:00","59884","2.29","277.6","2.9730000000000003","266.0","1024.235","9.86","30.52","0.0","0.0"],
    [1513388,"2026-03-30 03:40:00","59885","2.342","274.4","3.5610000000000004","276.7","1024.186","9.69","30.28","0.0","0.0"],
    [1513389,"2026-03-30 03:50:00","59886","1.9809999999999999","263.1","3.0380000000000003","262.5","1023.965","9.52","30.48","0.0","0.0"],
    [1513390,"2026-03-30 04:00:00","59887","1.63","276.5","2.45","258.5","1024.163","9.51","31.53","0.0","0.0"],
    [1513391,"2026-03-30 04:10:00","59888","2.4459999999999997","281.2","3.299","271.0","1024.266","9.58","30.66","0.0","0.0"],
    [1513392,"2026-03-30 04:20:00","59889","2.124","290.1","3.201","300.4","1024.355","9.9","29.87","0.0","0.0"],
    [1513393,"2026-03-30 04:30:00","59890","2.57","284.9","3.855","307.3","1024.422","9.8","29.94","0.0","0.0"],
    [1513394,"2026-03-30 04:40:00","59891","2.965","283.0","3.7889999999999997","272.1","1024.4","9.67","30.22","0.0","0.0"],
    [1513395,"2026-03-30 04:50:00","59892","2.178","286.2","4.018","297.9","1024.429","9.66","30.43","0.0","0.0"],
    [1513396,"2026-03-30 05:00:00","59893","1.827","287.4","2.875","276.6","1024.493","9.54","30.66","0.0","0.0"],
    [1513397,"2026-03-30 05:10:00","59894","1.496","305.5","2.45","312.9","1024.584","9.73","31.31","0.0","0.0"],
    [1513398,"2026-03-30 05:20:00","59895","1.266","292.4","2.0909999999999997","291.3","1024.795","9.71","30.77","0.0","0.0"],
    [1513399,"2026-03-30 05:30:00","59896","1.6340000000000001","298.5","2.875","329.1","1024.871","9.76","29.79","0.0","0.0"],
    [1513400,"2026-03-30 05:40:00","59897","1.896","289.3","3.267","293.4","1024.851","9.69","30.16","0.6509999999999999","0.0"],
    [1513401,"2026-03-30 05:50:00","59898","1.3259999999999998","306.6","2.417","294.3","1024.938","9.67","30.64","6.865","0.0"],
    [1513402,"2026-03-30 06:00:00","59899","0.9590000000000001","257.0","1.7309999999999999","272.5","1025","9.59","30.91","22.19","0.0"],
    [1513403,"2026-03-30 06:10:00","59900","0.884","283.3","1.895","296.5","1024.942","9.53","31.73","46.81","0.0"],
    [1513404,"2026-03-30 06:20:00","59901","1.057","289.0","1.96","281.6","1024.966","9.75","31.46","74.3","0.0"],
    [1513405,"2026-03-30 06:30:00","59902","1.4280000000000002","283.0","2.123","262.7","1024.938","9.9","30.7","103.7","0.0"],
    [1513406,"2026-03-30 06:40:00","59903","2.064","285.5","2.9730000000000003","295.0","1024.96","9.84","31.5","132.8","0.0"],
    [1513407,"2026-03-30 06:50:00","59904","2.207","285.8","3.267","281.4","1024.797","9.88","31.51","163.7","0.0"],
    [1513408,"2026-03-30 07:00:00","59905","3.241","274.3","6.207000000000001","277.9","1024.511","10.18","32.84","198.1","0.0"],
    [1513409,"2026-03-30 07:10:00","59906","4.488","276.9","6.925","276.4","1024.446","10.2","32.63","232.5","0.0"],
    [1513410,"2026-03-30 07:20:00","59907","3.457","276.1","4.998","271.8","1024.497","10.58","33.03","265.0","0.0"],
    [1513411,"2026-03-30 07:30:00","59908","4.316","282.3","7.121","280.9","1024.624","10.84","32.6","299.0","0.0"],
    [1513412,"2026-03-30 07:40:00","59909","4.611000000000001","280.2","7.513","291.1","1024.657","11.01","31.25","333.0","0.0"],
    [1513413,"2026-03-30 07:50:00","59910","5.41","286.9","7.807","285.1","1024.686","11.15","30.7","366.6","0.0"],
    [1513414,"2026-03-30 08:00:00","59911","5.489","281.9","7.872999999999999","275.3","1024.717","11.29","31.03","399.7","0.0"],
    [1513415,"2026-03-30 08:10:00","59912","5.35","282.0","8.04","284.4","1024.631","11.31","31.49","431.9","0.0"],
    [1513416,"2026-03-30 08:20:00","59913","4.851","268.8","7.742000000000001","258.3","1024.497","11.51","32.29","463.0","0.0"],
    [1513417,"2026-03-30 08:30:00","59914","4.426","254.4","7.382999999999999","263.0","1024.276","11.59","31.89","494.1","0.0"],
    [1513418,"2026-03-30 08:40:00","59915","5.065","265.7","8.46","259.9","1024.124","11.75","32.02","524.5","0.0"],
    [1513419,"2026-03-30 08:50:00","59916","4.532","281.0","7.35","273.5","1024.279","12.04","31.7","550.9","0.0"],
    [1513420,"2026-03-30 09:00:00","59917","4.37","280.5","6.207000000000001","275.8","1024.378","12.44","30.79","574.7","0.0"],
    [1513421,"2026-03-30 09:10:00","59918","3.4389999999999996","285.8","5.684","272.7","1024.42","12.99","30.47","601.6","0.0"],
    [1513422,"2026-03-30 09:20:00","59919","4.261","290.0","7.056","270.6","1024.451","13.25","29.76","617.6","0.0"],
    [1513423,"2026-03-30 09:30:00","59920","4.053","291.2","6.9910000000000005","276.0","1024.575","13.49","30.03","623.5","0.0"],
    [1513424,"2026-03-30 09:40:00","59921","3.8510000000000004","287.4","6.827000000000001","283.6","1024.65","13.92","29.66","600.1","0.0"],
    [1513425,"2026-03-30 09:50:00","59922","4.188","283.6","7.775","278.3","1024.609","14.27","28.58","609.3","0.0"],
    [1513426,"2026-03-30 10:00:00","59923","3.7939999999999996","290.5","6.893","306.8","1024.54","14.52","28.33","674.3","0.0"],
    [1513427,"2026-03-30 10:10:00","59924","3.826","293.0","6.141","283.7","1024.527","14.75","28.61","718.0","0.0"],
    [1513428,"2026-03-30 10:20:00","59925","2.9789999999999996","276.3","6.109","275.5","1024.367","15.29","28.04","524.5","0.0"],
    [1513429,"2026-03-30 10:30:00","59926","2.7439999999999998","260.1","5.553","284.0","1024.179","15.53","27.81","496.6","0.0"],
    [1513430,"2026-03-30 10:40:00","59927","3.181","198.6","7.056","190.5","1023.959","14.27","38.46","658.6","0.0"],
    [1513431,"2026-03-30 10:50:00","59928","5.528","190.8","7.611000000000001","197.8","1023.799","13.48","47.19","609.1","0.0"],
    [1513432,"2026-03-30 11:00:00","59929","5.975","184.8","7.35","188.4","1023.616","13.45","47.54","667.2","0.0"],
    [1513433,"2026-03-30 11:10:00","59930","4.881","180.8","6.925","188.1","1023.614","13.63","47.21","619.4","0.0"],
    [1513434,"2026-03-30 11:20:00","59931","5.504","185.7","7.056","191.9","1023.596","13.71","48.61","741.8","0.0"],
    [1513435,"2026-03-30 11:30:00","59932","5.28","182.0","6.86","188.2","1023.439","13.47","50.09","813.0","0.0"],
    [1513436,"2026-03-30 11:40:00","59933","5.3629999999999995","173.2","6.925","167.7","1023.315","13.61","52.48","792.6","0.0"],
    [1513437,"2026-03-30 11:50:00","59934","5.547999999999999","178.9","6.9910000000000005","184.3","1023.104","13.73","50.67","821.0","0.0"],
    [1513438,"2026-03-30 12:00:00","59935","5.309","189.8","7.0889999999999995","191.3","1022.799","14.22","44.81","797.7","0.0"],
    [1513439,"2026-03-30 12:10:00","59936","5.664","189.9","7.4479999999999995","189.3","1022.596","14.41","47.87","669.8","0.0"],
    [1513440,"2026-03-30 12:20:00","59937","4.995","184.5","7.317","191.0","1022.454","14.7","51.72","737.9","0.0"],
    [1513441,"2026-03-30 12:30:00","59938","3.855","194.3","6.697","183.4","1022.312","15.61","47.25","855.0","0.0"],
    [1513442,"2026-03-30 12:40:00","59939","3.4010000000000002","189.9","5.39","192.7","1022.266","15.89","45.62","848.0","0.0"],
    [1513443,"2026-03-30 12:50:00","59940","2.6239999999999997","207.9","5.815","204.4","1022.08","17.0","37.73","841.0","0.0"],
    [1513444,"2026-03-30 13:00:00","59941","5.358","187.6","7.513","184.7","1021.745","15.97","43.97","858.0","0.0"],
    [1513445,"2026-03-30 13:10:00","59942","5.3229999999999995","190.4","7.252000000000001","185.3","1021.546","15.88","46.27","658.0","0.0"],
    [1513446,"2026-03-30 13:20:00","59943","4.461","181.6","5.88","169.3","1021.406","16.03","45.9","719.9","0.0"],
    [1513447,"2026-03-30 13:30:00","59944","2.238","234.0","5.1610000000000005","275.5","1021.197","17.67","35.23","818.0","0.0"],
    [1513448,"2026-03-30 13:40:00","59945","4.258","193.9","6.403","185.7","1020.711","17.51","37.6","811.0","0.0"],
    [1513449,"2026-03-30 13:50:00","59946","2.957","209.6","6.141","202.2","1020.436","18.03","35.74","574.2","0.0"],
    [1513450,"2026-03-30 14:00:00","59947","3.0239999999999996","224.6","5.2589999999999995","226.2","1020.365","18.52","33.7","669.6","0.0"],
    [1513451,"2026-03-30 14:10:00","59948","4.421","204.8","6.957999999999999","203.1","1020.052","18.07","38.5","631.2","0.0"],
    [1513452,"2026-03-30 14:20:00","59949","4.771","199.7","7.644","193.7","1019.863","17.62","44.43","736.6","0.0"],
    [1513453,"2026-03-30 14:30:00","59950","4.49","210.7","6.827000000000001","194.2","1019.841","18.07","40.43","626.1","0.0"],
    [1513454,"2026-03-30 14:40:00","59951","4.8260000000000005","201.5","7.285","213.8","1019.612","18.02","42.98","663.3","0.0"],
    [1513455,"2026-03-30 14:50:00","59952","5.406000000000001","200.4","7.84","195.4","1019.442","17.87","43.15","627.0","0.0"],
    [1513456,"2026-03-30 15:00:00","59953","4.7669999999999995","197.9","7.611000000000001","195.0","1019.264","18.28","40.63","596.7","0.0"],
    [1513457,"2026-03-30 15:10:00","59954","5.999","191.4","8.13","189.8","1018.936","18.12","42.93","561.9","0.0"],
    [1513458,"2026-03-30 15:20:00","59955","6.359","187.4","7.84","191.3","1018.654","17.56","48.51","534.6","0.0"],
    [1513459,"2026-03-30 15:30:00","59956","5.726","192.3","7.905","192.6","1018.502","18.07","45.69","501.7","0.0"],
    [1513460,"2026-03-30 15:40:00","59957","5.233","204.8","8.66","213.2","1018.382","18.72","40.65","471.8","0.0"],
    [1513461,"2026-03-30 15:50:00","59958","5.074","211.5","8.2","224.4","1018.233","18.68","42.67","436.1","0.0"],
    [1513462,"2026-03-30 16:00:00","59959","4.8469999999999995","212.1","7.905","235.2","1018.065","18.37","44.0","401.9","0.0"],
    [1513463,"2026-03-30 16:10:00","59960","4.194","208.2","7.644","222.9","1017.966","18.25","45.72","368.0","0.0"],
    [1513464,"2026-03-30 16:20:00","59961","4.8","213.7","8.95","226.5","1017.905","17.9","48.33","334.8","0.0"],
    [1513465,"2026-03-30 16:30:00","59962","4.559","213.6","7.644","228.5","1017.854","17.86","49.61","300.2","0.0"],
    [1513466,"2026-03-30 16:40:00","59963","4.699","213.1","7.218999999999999","228.6","1017.826","17.5","51.94","266.8","0.0"],
    [1513467,"2026-03-30 16:50:00","59964","4.503","205.5","7.218999999999999","231.2","1017.765","17.43","53.27","231.2","0.0"],
    [1513468,"2026-03-30 17:00:00","59965","4.104","209.3","6.631","225.8","1017.72","17.52","54.01","198.0","0.0"],
    [1513469,"2026-03-30 17:10:00","59966","4.553999999999999","216.0","6.893","215.2","1017.624","17.67","53.35","167.6","0.0"],
    [1513470,"2026-03-30 17:20:00","59967","3.252","216.2","5.684","219.6","1017.589","17.91","52.3","134.4","0.0"],
    [1513471,"2026-03-30 17:30:00","59968","3.154","214.8","5.129","203.8","1017.574","17.92","52.89","104.4","0.0"],
    [1513472,"2026-03-30 17:40:00","59969","2.01","202.2","3.5610000000000004","200.6","1017.525","17.86","53.71","76.28","0.0"],
    [1513473,"2026-03-30 17:50:00","59970","3.239","177.3","4.541","166.3","1017.416","17.39","56.17","50.72","0.0"],
    [1513474,"2026-03-30 18:00:00","59971","2.795","181.9","3.7569999999999997","168.0","1017.303","16.19","67.22","26.53","0.0"],
    [1513475,"2026-03-30 18:10:00","59972","1.229","174.1","2.319","169.5","1017.294","16.31","67.49","8.55","0.0"],
    [1513476,"2026-03-30 18:20:00","59973","1.574","176.9","2.417","181.4","1017.292","16.03","70.85","1.419","0.0"],
    [1513477,"2026-03-30 18:30:00","59974","2.169","205.8","3.299","186.3","1017.171","15.98","72.5","0.0","0.0"],
    [1513478,"2026-03-30 18:40:00","59975","1.197","223.7","4.573","316.6","1017.18","16.77","63.69","0.0","0.0"],
    [1513479,"2026-03-30 18:50:00","59976","1.534","279.6","4.181","283.2","1017.088","18.44","48.73","0.0","0.0"],
    [1513480,"2026-03-30 19:00:00","59977","2.552","296.3","5.063","292.2","1016.948","19.44","38.7","0.0","0.0"],
    [1513481,"2026-03-30 19:10:00","59978","3.445","287.7","5.684","287.7","1016.944","19.47","37.04","0.0","0.0"],
    [1513482,"2026-03-30 19:20:00","59979","2.611","272.2","4.835","238.9","1017.125","19.21","37.62","0.0","0.0"],
    [1513483,"2026-03-30 19:30:00","59980","1.755","192.1","3.201","219.9","1017.284","18.41","44.34","0.0","0.0"],
    [1513484,"2026-03-30 19:40:00","59981","2.069","194.7","3.659","207.3","1017.391","18.13","46.43","0.0","0.0"],
    [1513485,"2026-03-30 19:50:00","59982","1.67","168.6","3.332","208.8","1017.442","18.1","46.59","0.0","0.0"],
    [1513486,"2026-03-30 20:00:00","59983","2.52","165.4","3.463","180.8","1017.471","18.05","45.92","0.0","0.0"],
    [1513487,"2026-03-30 20:10:00","59984","2.459","156.9","3.365","137.2","1017.589","17.79","47.02","0.0","0.0"],
    [1513488,"2026-03-30 20:20:00","59985","2.035","223.0","3.593","194.0","1017.596","18.19","43.65","0.0","0.0"],
    [1513489,"2026-03-30 20:30:00","59986","2.878","297.7","7.807","295.3","1017.568","18.22","42.46","0.0","0.0"],
    [1513490,"2026-03-30 20:40:00","59987","6.001","303.5","8.82","304.0","1017.428","18.14","43.03","0.0","0.0"],
    [1513491,"2026-03-30 20:50:00","59988","4.61","295.6","7.611000000000001","299.6","1017.484","17.96","43.6","0.0","0.0"],
    [1513492,"2026-03-30 21:00:00","59989","1.8219999999999998","297.5","5.455","314.9","1017.747","17.81","44.12","0.0","0.0"],
    [1513493,"2026-03-30 21:10:00","59990","0.485","163.4","1.307","189.3","1017.854","17.61","44.62","0.0","0.0"],
    [1513494,"2026-03-30 21:20:00","59991","1.3230000000000002","25.86","3.822","76.78","1017.785","16.9","51.71","0.0","0.0"],
    [1513495,"2026-03-30 21:30:00","59992","2.64","18.84","5.847","45.03","1017.87","15.67","63.86","0.0","0.0"],
    [1513496,"2026-03-30 21:40:00","59993","3.635","28.3","5.88","40.07","1018.021","14.99","70.55","0.0","0.0"],
    [1513497,"2026-03-30 21:50:00","59994","4.518","30.56","5.651","21.29","1018.183","14.67","75.72","0.0","0.0"],
    [1513498,"2026-03-30 22:00:00","59995","4.42","24.61","5.782","28.12","1018.3","14.59","79.87","0.0","0.0"],
    [1513499,"2026-03-30 22:10:00","59996","4.671","27.32","6.5329999999999995","27.24","1018.224","14.62","80.7","0.0","0.0"],
    [1513500,"2026-03-30 22:20:00","59997","4.29","23.98","6.435","31.71","1018.133","14.55","80.7","0.0","0.0"],
    [1513501,"2026-03-30 22:30:00","59998","4.678","24.04","6.1739999999999995","24.27","1018.147","14.46","81.5","0.0","0.0"],
    [1513502,"2026-03-30 22:40:00","59999","4.564","16.49","5.847","13.0","1018.15","14.52","80.3","0.0","0.0"],
    [1513503,"2026-03-30 22:50:00","60000","5.121","27.55","6.0760000000000005","29.5","1018.07","14.81","75.32","0.0","0.0"],
    [1513504,"2026-03-30 23:00:00","60001","5.93","29.2","6.925","29.06","1018.032","14.73","75.91","0.0","0.0"],
    [1513505,"2026-03-30 23:10:00","60002","4.99","20.09","6.1739999999999995","11.69","1018.238","14.6","78.15","0.0","0.0"],
    [1513506,"2026-03-30 23:20:00","60003","4.559","14.7","5.815","14.8","1018.3","14.48","78.2","0.0","0.0"],
    [1513507,"2026-03-30 23:30:00","60004","3.1319999999999997","7.757000000000001","3.9530000000000003","6.872000000000001","1018.307","14.39","75.09","0.0","0.0"],
    [1513508,"2026-03-30 23:40:00","60005","3.3289999999999997","19.05","4.312","23.19","1018.381","14.51","70.79","0.0","0.0"],
    [1513509,"2026-03-30 23:50:00","60006","3.63","22.41","5.063","16.79","1018.346","14.51","67.61","0.0","0.0"],
    [1513510,"2026-03-31 00:00:00","60007","3.898","15.41","5.227","26.45","1018.299","14.75","65.39","0.0","0.0"],
    [1513511,"2026-03-31 00:10:00","60008","4.119","19.92","6.403","32.03","1018.302","14.88","66.03","0.0","0.0"],
    [1513512,"2026-03-31 00:20:00","60009","4.156000000000001","29.29","5.945","19.9","1018.335","14.92","65.93","0.0","0.0"],
    [1513513,"2026-03-31 00:30:00","60010","3.6719999999999997","28.22","5.1610000000000005","15.96","1018.415","14.93","66.53","0.0","0.0"],
    [1513514,"2026-03-31 00:40:00","60011","4.029","23.88","5.194","21.88","1018.43","14.89","66.57","0.0","0.0"],
    [1513515,"2026-03-31 00:50:00","60012","3.6010000000000004","24.95","4.638999999999999","21.96","1018.502","14.78","67.77","0.0","0.0"],
    [1513516,"2026-03-31 01:00:00","60013","3.975","22.17","4.835","25.3","1018.444","14.73","67.93","0.0","0.0"],
    [1513517,"2026-03-31 01:10:00","60014","3.4819999999999998","22.08","4.606","35.25","1018.313","14.71","68.64","0.0","0.0"],
    [1513518,"2026-03-31 01:20:00","60015","2.6719999999999997","20.73","4.051","9.5","1018.284","14.85","69.17","0.0","0.0"],
    [1513519,"2026-03-31 01:30:00","60016","2.3369999999999997","26.37","3.267","8.86","1018.291","14.92","69.76","0.0","0.0"],
    [1513520,"2026-03-31 01:40:00","60017","2.008","23.85","3.136","14.25","1018.2","14.92","70.89","0.0","0.0"],
    [1513521,"2026-03-31 01:50:00","60018","1.69","16.14","2.6460000000000004","11.56","1018.172","14.85","71.49","0.0","0.0"],
    [1513522,"2026-03-31 02:00:00","60019","1.114","9.31","1.7309999999999999","359.1","1018.083","14.8","72.06","0.0","0.0"],
    [1513523,"2026-03-31 02:10:00","60020","1.297","353.1","1.699","6.856","1017.989","14.72","72.07","0.0","0.0"],
    [1513524,"2026-03-31 02:20:00","60021","1.038","8.31","1.7309999999999999","327.2","1017.841","14.82","72.6","0.0","0.0"],
    [1513525,"2026-03-31 02:30:00","60022","0.6890000000000001","265.6","1.699","338.5","1017.631","14.64","72.92","0.0","0.0"],
    [1513526,"2026-03-31 02:40:00","60023","0.976","302.5","1.7309999999999999","264.4","1017.646","14.37","73.15","0.0","0.0"],
    [1513527,"2026-03-31 02:50:00","60024","0.287","255.3","0.882","202.8","1017.654","14.5","73.59","0.0","0.0"],
    [1513528,"2026-03-31 03:00:00","60025","0.99","205.8","2.123","167.7","1017.551","14.54","73.96","0.0","0.0"],
    [1513529,"2026-03-31 03:10:00","60026","1.122","141.6","2.0580000000000003","133.4","1017.543","14.69","74.95","0.0","0.0"],
    [1513530,"2026-03-31 03:20:00","60027","2.222","106.5","3.985","137.4","1017.432","14.72","75.22","0.0","0.0"],
    [1513531,"2026-03-31 03:30:00","60028","1.425","111.9","3.528","140.9","1017.392","14.78","74.61","0.0","0.0"],
    [1513532,"2026-03-31 03:40:00","60029","1.538","117.8","3.071","132.0","1017.181","14.76","74.83","0.0","0.0"],
    [1513533,"2026-03-31 03:50:00","60030","1.935","95.7","2.907","131.5","1017.072","14.73","75.18","0.0","0.0"],
    [1513534,"2026-03-31 04:00:00","60031","2.2969999999999997","89.1","3.136","87.1","1017.041","14.76","75.78","0.0","0.0"],
    [1513535,"2026-03-31 04:10:00","60032","2.197","103.3","2.9730000000000003","101.5","1017.004","14.69","77.1","0.0","0.0"],
    [1513536,"2026-03-31 04:20:00","60033","2.093","103.4","2.679","109.6","1017.175","14.66","78.44","0.0","0.0"],
    [1513537,"2026-03-31 04:30:00","60034","2.128","89.3","2.9730000000000003","90.4","1017.24","14.64","80.1","0.0","0.0"],
    [1513538,"2026-03-31 04:40:00","60035","2.1390000000000002","86.3","2.8089999999999997","95.2","1017.288","14.6","81.9","0.0","0.0"],
    [1513539,"2026-03-31 04:50:00","60036","2.312","67.86","3.659","55.27","1017.454","14.53","83.7","0.0","0.0"],
    [1513540,"2026-03-31 05:00:00","60037","3.3560000000000003","33.07","4.377","29.75","1017.472","13.84","83.6","0.0","0.0"],
    [1513541,"2026-03-31 05:10:00","60038","3.2880000000000003","16.31","4.4430000000000005","8.67","1017.531","13.67","80.3","0.0","0.0"],
    [1513542,"2026-03-31 05:20:00","60039","2.92","18.26","3.822","13.27","1017.505","13.68","77.81","0.0","0.0"],
    [1513543,"2026-03-31 05:30:00","60040","3.1430000000000002","5.27","3.7569999999999997","14.68","1017.62","13.58","76.17","0.0","0.0"],
    [1513544,"2026-03-31 05:40:00","60041","2.972","347.1","4.1160000000000005","351.6","1017.707","13.54","75.84","1.588","0.0"],
    [1513545,"2026-03-31 05:50:00","60042","1.8719999999999999","351.8","2.7769999999999997","353.3","1017.608","13.61","76.09","5.593","0.0"],
    [1513546,"2026-03-31 06:00:00","60043","2.126","4.828","3.365","11.67","1017.683","13.72","76.02","14.62","0.0"],
    [1513547,"2026-03-31 06:10:00","60044","2.8369999999999997","7.175","3.659","10.32","1017.82","13.7","75.33","28.28","0.0"],
    [1513548,"2026-03-31 06:20:00","60045","2.469","359.0","3.136","347.7","1017.96","13.75","73.69","43.09","0.0"],
    [1513549,"2026-03-31 06:30:00","60046","2.877","6.103","3.985","351.1","1018.027","13.95","70.98","53.84","0.0"],
    [1513550,"2026-03-31 06:40:00","60047","2.925","14.6","3.593","17.63","1018.076","14.13","69.88","127.8","0.0"],
    [1513551,"2026-03-31 06:50:00","60048","2.168","345.6","3.103","337.8","1018.188","14.31","68.7","161.1","0.0"],
    [1513552,"2026-03-31 07:00:00","60049","2.595","343.5","3.855","358.0","1018.182","14.47","67.97","191.4","0.0"],
    [1513553,"2026-03-31 07:10:00","60050","2.517","338.5","3.855","2.602","1018.243","14.56","68.67","224.9","0.0"],
    [1513554,"2026-03-31 07:20:00","60051","2.512","359.3","3.7569999999999997","349.5","1018.296","14.48","71.8","254.1","0.0"],
    [1513555,"2026-03-31 07:30:00","60052","2.434","19.84","4.018","11.83","1018.359","14.51","73.08","288.8","0.0"],
    [1513556,"2026-03-31 07:40:00","60053","3.4139999999999997","15.82","4.149","13.95","1018.469","14.37","74.0","326.8","0.0"],
    [1513557,"2026-03-31 07:50:00","60054","3.5069999999999997","23.07","4.475","32.1","1018.496","14.39","74.95","358.9","0.0"],
    [1513558,"2026-03-31 08:00:00","60055","4.13","16.84","5.227","9.48","1018.776","14.36","76.24","397.3","0.0"],
    [1513559,"2026-03-31 08:10:00","60056","3.8480000000000003","24.18","4.835","27.64","1018.802","14.39","77.02","423.5","0.0"],
    [1513560,"2026-03-31 08:20:00","60057","4.521","30.49","6.141","23.56","1018.886","14.52","77.08","483.8","0.0"],
    [1513561,"2026-03-31 08:30:00","60058","6.031000000000001","30.98","7.905","32.63","1019.074","14.1","77.56","590.7","0.0"],
    [1513562,"2026-03-31 08:40:00","60059","5.6770000000000005","36.32","7.285","37.55","1019.203","14.25","76.94","546.3","0.0"],
    [1513563,"2026-03-31 08:50:00","60060","5.505","49.46","7.938","46.82","1019.336","14.15","75.58","461.0","0.0"],
    [1513564,"2026-03-31 09:00:00","60061","5.935","37.02","9.6","24.93","1019.549","14.13","74.33","427.6","0.0"],
    [1513565,"2026-03-31 09:10:00","60062","6.233","36.76","8.36","24.3","1019.601","14.02","74.4","279.5","0.0"],
    [1513566,"2026-03-31 09:20:00","60063","6.619","42.15","9.57","57.32","1019.751","14.0","73.59","244.8","0.0"],
    [1513567,"2026-03-31 09:30:00","60064","4.4239999999999995","59.22","8.46","54.6","1019.896","14.45","76.32","420.1","0.0"],
    [1513568,"2026-03-31 09:40:00","60065","4.562","119.0","6.697","121.6","1019.885","14.43","82.8","316.8","0.0"],
    [1513569,"2026-03-31 09:50:00","60066","5.118","145.1","6.272","132.3","1019.877","13.96","85.2","714.2","0.0"],
    [1513570,"2026-03-31 10:00:00","60067","4.673","147.1","5.912999999999999","151.3","1019.921","13.71","82.6","515.2","0.0"],
    [1513571,"2026-03-31 10:10:00","60068","4.224","136.7","5.782","135.8","1020.031","13.99","77.46","719.0","0.0"],
    [1513572,"2026-03-31 10:20:00","60069","4.4110000000000005","112.3","6.042999999999999","141.0","1020.036","14.21","73.62","765.6","0.0"],
    [1513573,"2026-03-31 10:30:00","60070","3.588","82.2","4.933","75.86","1020.143","14.23","68.24","773.6","0.0"],
    [1513574,"2026-03-31 10:40:00","60071","3.373","77.16","4.638999999999999","73.59","1020.087","14.34","64.59","782.1","0.0"],
    [1513575,"2026-03-31 10:50:00","60072","3.438","79.62","4.345","74.81","1020.082","14.37","63.45","793.4","0.0"],
    [1513576,"2026-03-31 11:00:00","60073","3.139","81.1","4.181","77.32","1020.026","14.39","63.09","805.0","0.0"],
    [1513577,"2026-03-31 11:10:00","60074","2.945","80.6","3.9530000000000003","82.5","1019.962","14.35","62.43","814.0","0.0"],
    [1513578,"2026-03-31 11:20:00","60075","2.895","75.87","3.6260000000000003","80.4","1019.881","14.34","60.45","823.0","0.0"],
    [1513579,"2026-03-31 11:30:00","60076","2.291","79.73","3.365","79.45","1019.801","14.49","60.91","828.0","0.0"],
    [1513580,"2026-03-31 11:40:00","60077","2.398","86.7","3.1689999999999996","79.45","1019.727","14.48","61.03","832.0","0.0"],
    [1513581,"2026-03-31 11:50:00","60078","2.467","101.4","3.267","97.0","1019.602","14.54","61.01","833.0","0.0"],
    [1513582,"2026-03-31 12:00:00","60079","2.549","110.5","3.7239999999999998","111.2","1019.547","14.61","59.95","834.0","0.0"],
    [1513583,"2026-03-31 12:10:00","60080","2.7","137.6","3.5610000000000004","140.8","1019.615","14.67","59.78","832.0","0.0"],
    [1513584,"2026-03-31 12:20:00","60081","3.4160000000000004","154.3","4.41","158.1","1019.572","14.62","60.01","831.0","0.0"],
    [1513585,"2026-03-31 12:30:00","60082","3.859","159.0","4.573","150.6","1019.473","14.59","59.09","830.0","0.0"],
    [1513586,"2026-03-31 12:40:00","60083","3.763","161.9","4.541","163.7","1019.401","14.64","59.21","825.0","0.0"],
    [1513587,"2026-03-31 12:50:00","60084","3.773","162.6","4.541","163.5","1019.333","14.59","59.47","819.0","0.0"],
    [1513588,"2026-03-31 13:00:00","60085","4.136","169.3","4.867","176.0","1019.217","14.66","58.28","812.0","0.0"],
    [1513589,"2026-03-31 13:10:00","60086","4.695","168.1","5.847","177.1","1019.111","14.64","58.46","805.0","0.0"],
    [1513590,"2026-03-31 13:20:00","60087","4.802","169.4","5.684","170.3","1019.012","14.58","60.05","799.3","0.0"],
    [1513591,"2026-03-31 13:30:00","60088","4.867","175.7","6.141","167.8","1018.898","14.59","60.11","806.0","0.0"],
    [1513592,"2026-03-31 13:40:00","60089","4.247","181.0","5.129","180.1","1018.894","14.68","61.89","821.0","0.0"],
    [1513593,"2026-03-31 13:50:00","60090","4.596","181.8","5.4879999999999995","184.0","1018.67","14.59","63.99","813.0","0.0"],
    [1513594,"2026-03-31 14:00:00","60091","4.758","179.4","5.749","180.5","1018.493","14.58","64.99","795.2","0.0"],
    [1513595,"2026-03-31 14:10:00","60092","5.375","179.3","6.795","188.0","1018.371","14.51","64.75","826.0","0.0"],
    [1513596,"2026-03-31 14:20:00","60093","5.062","181.8","6.141","180.9","1018.358","14.47","64.5","391.8","0.0"],
    [1513597,"2026-03-31 14:30:00","60094","4.947","183.8","5.847","181.9","1018.192","14.48","64.06","393.0","0.0"],
    [1513598,"2026-03-31 14:40:00","60095","5.12","186.4","6.599","179.7","1018.112","14.55","64.82","433.4","0.0"],
    [1513599,"2026-03-31 14:50:00","60096","5.305","186.8","6.697","187.4","1017.909","14.54","64.22","583.2","0.0"],
    [1513600,"2026-03-31 15:00:00","60097","4.849","181.6","6.0760000000000005","172.7","1017.829","14.61","63.84","588.5","0.0"],
    [1513601,"2026-03-31 15:10:00","60098","5.357","175.7","6.272","176.3","1017.869","14.52","64.38","552.1","0.0"],
    [1513602,"2026-03-31 15:20:00","60099","5.0","184.8","6.1739999999999995","176.2","1017.845","14.6","64.7","536.4","0.0"],
    [1513603,"2026-03-31 15:30:00","60100","5.001","181.7","6.337000000000001","183.4","1017.839","14.58","65.16","389.2","0.0"],
    [1513604,"2026-03-31 15:40:00","60101","4.893","183.9","6.141","182.9","1017.774","14.49","66.13","326.0","0.0"],
    [1513605,"2026-03-31 15:50:00","60102","4.773","179.2","5.88","174.9","1017.725","14.56","67.07","398.4","0.0"],
    [1513606,"2026-03-31 16:00:00","60103","4.726","190.3","6.599","182.6","1017.749","14.59","67.54","449.4","0.0"],
    [1513607,"2026-03-31 16:10:00","60104","4.771","183.8","5.815","179.7","1017.643","14.63","67.83","393.2","0.0"],
    [1513608,"2026-03-31 16:20:00","60105","4.527","184.6","5.553","193.4","1017.666","14.62","68.53","364.3","0.0"],
    [1513609,"2026-03-31 16:30:00","60106","5.053999999999999","187.4","6.042999999999999","189.9","1017.605","14.59","68.3","319.8","0.0"],
    [1513610,"2026-03-31 16:40:00","60107","4.878","187.0","6.272","198.9","1017.596","14.64","68.65","266.9","0.0"],
    [1513611,"2026-03-31 16:50:00","60108","4.822","186.0","5.7170000000000005","183.1","1017.774","14.57","68.94","236.2","0.0"],
    [1513612,"2026-03-31 17:00:00","60109","4.6739999999999995","187.9","5.88","199.3","1017.794","14.55","68.66","191.5","0.0"],
    [1513613,"2026-03-31 17:10:00","60110","4.825","191.2","6.042999999999999","191.8","1017.756","14.63","67.95","164.4","0.0"],
    [1513614,"2026-03-31 17:20:00","60111","4.34","186.2","5.422999999999999","183.9","1017.845","14.57","69.02","125.0","0.0"],
    [1513615,"2026-03-31 17:30:00","60112","4.048","194.4","5.325","184.2","1018.026","14.54","69.04","86.9","0.0"],
    [1513616,"2026-03-31 17:40:00","60113","3.905","199.0","5.39","205.6","1018.066","14.52","68.09","58.67","0.0"],
    [1513617,"2026-03-31 17:50:00","60114","2.76","199.9","4.2139999999999995","200.8","1018.198","14.61","67.71","13.74","0.0"],
    [1513618,"2026-03-31 18:00:00","60115","2.926","198.4","4.475","183.7","1018.366","14.51","68.66","7.236000000000001","0.0"],
    [1513619,"2026-03-31 18:10:00","60116","2.562","205.2","3.985","218.8","1018.474","14.48","69.16","4.335","0.0"],
    [1513620,"2026-03-31 18:20:00","60117","2.474","207.1","3.7569999999999997","193.8","1018.49","14.43","68.4","1.245","0.0"],
    [1513621,"2026-03-31 18:30:00","60118","2.436","210.4","3.887","195.0","1018.503","14.48","68.56","0.0","0.0"],
    [1513622,"2026-03-31 18:40:00","60119","2.228","225.4","3.7239999999999998","213.7","1018.525","14.43","69.53","0.0","0.0"],
    [1513623,"2026-03-31 18:50:00","60120","1.6909999999999998","223.9","3.463","207.1","1018.578","14.41","70.14","0.0","0.0"],
    [1513624,"2026-03-31 19:00:00","60121","1.819","222.8","3.299","226.0","1018.68","14.32","69.69","0.0","0.0"],
    [1513625,"2026-03-31 19:10:00","60122","1.256","231.0","2.613","247.8","1018.812","14.33","69.93","0.0","0.0"],
    [1513626,"2026-03-31 19:20:00","60123","1.4480000000000002","231.4","2.417","216.4","1018.852","14.27","70.26","0.0","0.0"],
    [1513627,"2026-03-31 19:30:00","60124","1.645","235.7","3.267","215.1","1018.862","14.25","70.37","0.0","0.0"],
    [1513628,"2026-03-31 19:40:00","60125","1.385","241.5","3.1689999999999996","295.0","1019.038","14.28","70.47","0.0","0.0"],
    [1513629,"2026-03-31 19:50:00","60126","1.459","245.2","3.201","218.6","1019.009","14.23","71.1","0.0","0.0"],
    [1513630,"2026-03-31 20:00:00","60127","1.723","238.3","3.071","219.0","1019.037","14.13","71.84","0.0","0.0"],
    [1513631,"2026-03-31 20:10:00","60128","1.318","254.1","2.8089999999999997","199.4","1019.053","14.11","72.44","0.0","0.0"],
    [1513632,"2026-03-31 20:20:00","60129","1.598","270.3","3.659","283.9","1019.184","14.06","72.71","0.0","0.0"],
    [1513633,"2026-03-31 20:30:00","60130","1.923","252.0","3.887","286.1","1019.261","14.03","73.13","0.0","0.0"],
    [1513634,"2026-03-31 20:40:00","60131","1.433","227.4","2.7769999999999997","220.6","1019.055","13.95","73.35","0.0","0.0"],
    [1513635,"2026-03-31 20:50:00","60132","1.238","260.2","2.7439999999999998","209.5","1019.084","13.93","73.47","0.0","0.0"],
    [1513636,"2026-03-31 21:00:00","60133","1.614","255.2","3.201","205.2","1018.997","13.86","73.21","0.0","0.0"],
    [1513637,"2026-03-31 21:10:00","60134","1.527","249.0","2.7110000000000003","241.8","1019.023","13.79","72.94","0.0","0.0"],
    [1513638,"2026-03-31 21:20:00","60135","1.642","268.4","2.7110000000000003","264.6","1019.093","13.76","72.88","0.0","0.0"],
    [1513639,"2026-03-31 21:30:00","60136","1.722","264.7","3.397","276.5","1019.051","13.67","73.1","0.0","0.0"],
    [1513640,"2026-03-31 21:40:00","60137","1.696","251.6","3.071","264.3","1019.036","13.58","73.35","0.0","0.0"],
    [1513641,"2026-03-31 21:50:00","60138","1.2919999999999998","252.9","2.515","249.5","1019.134","13.54","73.38","0.0","0.0"],
    [1513642,"2026-03-31 22:00:00","60139","1.097","251.3","2.221","271.7","1019.141","13.48","73.73","0.0","0.0"],
    [1513643,"2026-03-31 22:10:00","60140","1.389","238.4","2.515","240.1","1019.048","13.46","74.06","0.0","0.0"],
    [1513644,"2026-03-31 22:20:00","60141","1.295","238.3","2.94","209.5","1019.052","13.47","73.92","0.0","0.0"],
    [1513645,"2026-03-31 22:30:00","60142","1.3419999999999999","240.6","2.417","219.0","1019.135","13.45","73.74","0.0","0.0"],
    [1513646,"2026-03-31 22:40:00","60143","1.436","262.4","2.352","268.1","1018.991","13.38","73.87","0.0","0.0"],
    [1513647,"2026-03-31 22:50:00","60144","1.179","249.1","2.319","248.8","1018.903","13.28","74.11","0.0","0.0"],
    [1513648,"2026-03-31 23:00:00","60145","0.747","269.2","1.339","249.0","1018.801","13.27","74.0","0.0","0.0"],
    [1513649,"2026-03-31 23:10:00","60146","0.688","298.2","1.274","307.3","1018.696","13.23","74.16","0.0","0.0"],
    [1513650,"2026-03-31 23:20:00","60147","0.898","285.5","1.601","315.0","1018.679","13.31","74.09","0.0","0.0"],
    [1513651,"2026-03-31 23:30:00","60148","1.5190000000000001","276.2","2.156","275.8","1018.5","13.22","73.77","0.0","0.0"],
    [1513652,"2026-03-31 23:40:00","60149","1.4869999999999999","293.5","2.319","288.0","1018.561","13.28","73.94","0.0","0.0"],
    [1513653,"2026-03-31 23:50:00","60150","0.715","343.7","1.535","318.6","1018.448","13.33","73.58","0.0","0.0"],
    [1513654,"2026-04-01 00:00:00","60151","1.6540000000000001","45.72","2.385","37.25","1018.369","13.58","73.53","0.0","0.0"],
    [1513655,"2026-04-01 00:10:00","60152","2.7769999999999997","57.6","4.769","34.82","1018.329","13.81","73.73","0.0","0.0"],
    [1513656,"2026-04-01 00:20:00","60153","2.9560000000000004","39.2","4.671","14.78","1018.397","13.54","77.75","0.0","0.0"],
    [1513657,"2026-04-01 00:30:00","60154","2.3169999999999997","156.5","3.234","179.4","1018.201","13.57","79.7","0.0","0.0"],
    [1513658,"2026-04-01 00:40:00","60155","2.117","149.6","2.7110000000000003","139.2","1018.224","13.6","80.1","0.0","0.0"],
    [1513659,"2026-04-01 00:50:00","60156","2.278","156.9","3.005","170.8","1018.13","13.52","81.2","0.0","0.0"],
    [1513660,"2026-04-01 01:00:00","60157","2.623","158.9","3.7239999999999998","162.3","1017.963","13.52","80.3","0.0","0.0"],
    [1513661,"2026-04-01 01:10:00","60158","1.484","189.9","1.9269999999999998","185.0","1017.877","13.56","79.88","0.0","0.0"],
    [1513662,"2026-04-01 01:20:00","60159","1.085","236.5","1.764","268.2","1017.755","12.94","80.0","0.0","0.0"],
    [1513663,"2026-04-01 01:30:00","60160","2.059","260.5","3.7239999999999998","262.9","1017.81","12.62","80.7","0.0","0.0"],
    [1513664,"2026-04-01 01:40:00","60161","2.177","250.9","3.7889999999999997","258.8","1017.692","12.48","81.3","0.031","0.0"],
    [1513665,"2026-04-01 01:50:00","60162","1.724","209.7","2.7439999999999998","189.9","1017.585","12.67","81.5","0.0","0.0"],
    [1513666,"2026-04-01 02:00:00","60163","1.463","224.0","3.5610000000000004","179.4","1017.601","12.93","82.0","0.0","0.0"],
    [1513667,"2026-04-01 02:10:00","60164","1.456","261.6","2.483","241.5","1017.563","12.94","82.3","0.0","0.0"],
    [1513668,"2026-04-01 02:20:00","60165","1.837","228.4","3.528","183.0","1017.355","12.9","81.6","0.0","0.0"],
    [1513669,"2026-04-01 02:30:00","60166","1.675","220.6","2.842","206.8","1017.331","12.88","79.21","0.0","0.0"],
    [1513670,"2026-04-01 02:40:00","60167","1.516","232.4","2.9730000000000003","194.1","1017.305","12.99","75.5","0.0","0.0"],
    [1513671,"2026-04-01 02:50:00","60168","1.294","275.6","2.189","258.0","1017.321","12.62","75.18","0.0","0.0"],
    [1513672,"2026-04-01 03:00:00","60169","1.736","250.4","3.201","217.5","1017.214","12.45","76.04","0.0","0.0"],
    [1513673,"2026-04-01 03:10:00","60170","1.0390000000000001","248.0","2.515","255.3","1017.264","12.46","75.95","0.0","0.0"],
    [1513674,"2026-04-01 03:20:00","60171","1.645","257.0","2.515","256.6","1017.205","12.33","75.86","0.0","0.0"],
    [1513675,"2026-04-01 03:30:00","60172","1.8259999999999998","264.1","2.9730000000000003","259.1","1017.126","12.14","77.03","0.0","0.0"],
    [1513676,"2026-04-01 03:40:00","60173","1.21","259.0","1.993","252.2","1017.094","11.95","79.31","0.0","0.0"],
    [1513677,"2026-04-01 03:50:00","60174","1.1320000000000001","262.8","1.993","244.8","1017.142","11.82","81.0","0.0","0.0"],
    [1513678,"2026-04-01 04:00:00","60175","1.375","244.7","1.96","253.4","1017.115","11.8","82.2","0.0","0.0"],
    [1513679,"2026-04-01 04:10:00","60176","1.4280000000000002","261.7","1.895","261.4","1017.078","11.96","82.0","0.0","0.0"],
    [1513680,"2026-04-01 04:20:00","60177","1.393","307.5","1.9269999999999998","307.6","1016.935","12.11","82.1","0.0","0.0"],
    [1513681,"2026-04-01 04:30:00","60178","1.248","358.5","2.025","349.6","1016.992","12.14","82.6","0.0","0.0"],
    [1513682,"2026-04-01 04:40:00","60179","0.47100000000000003","288.7","1.143","2.043","1017.008","12.1","83.1","0.0","0.0"],
    [1513683,"2026-04-01 04:50:00","60180","0.8009999999999999","327.9","1.568","298.8","1016.926","12.1","83.5","0.0","0.0"],
    [1513684,"2026-04-01 05:00:00","60181","1.08","264.0","1.666","250.1","1016.89","11.67","83.8","0.0","0.0"],
    [1513685,"2026-04-01 05:10:00","60182","0.41600000000000004","257.0","1.3719999999999999","261.6","1016.869","11.57","84.4","0.0","0.0"],
    [1513686,"2026-04-01 05:20:00","60183","1.643","263.7","2.7439999999999998","267.6","1016.928","11.04","84.7","0.0","0.0"],
    [1513687,"2026-04-01 05:30:00","60184","1.901","257.3","3.43","260.6","1016.936","10.7","85.0","0.0","0.0"],
    [1513688,"2026-04-01 05:40:00","60185","2.255","272.7","3.299","249.1","1017.021","10.76","85.4","2.557","0.0"],
    [1513689,"2026-04-01 05:50:00","60186","2.0780000000000003","265.7","3.5610000000000004","250.5","1017.004","11.1","85.4","11.56","0.0"],
    [1513690,"2026-04-01 06:00:00","60187","1.63","264.2","2.7110000000000003","260.3","1017.171","10.74","85.0","25.13","0.0"],
    [1513691,"2026-04-01 06:10:00","60188","0.633","296.2","1.209","290.4","1017.251","10.81","84.8","46.96","0.0"],
    [1513692,"2026-04-01 06:20:00","60189","0.769","88.0","1.829","115.8","1017.309","11.31","84.2","73.64","0.0"],
    [1513693,"2026-04-01 06:30:00","60190","0.919","171.6","1.4369999999999998","138.7","1017.356","11.73","82.2","99.3","0.0"],
    [1513694,"2026-04-01 06:40:00","60191","1.003","161.0","1.993","150.2","1017.458","12.01","80.3","128.9","0.0"],
    [1513695,"2026-04-01 06:50:00","60192","1.615","122.4","3.103","123.2","1017.477","12.58","78.47","154.5","0.0"],
    [1513696,"2026-04-01 07:00:00","60193","1.5090000000000001","165.7","2.156","173.2","1017.434","12.4","79.42","151.7","0.0"],
    [1513697,"2026-04-01 07:10:00","60194","1.358","166.8","2.025","162.9","1017.435","12.31","79.93","222.9","0.0"],
    [1513698,"2026-04-01 07:20:00","60195","1.2919999999999998","89.9","2.483","70.7","1017.46","12.64","78.66","265.5","0.0"],
    [1513699,"2026-04-01 07:30:00","60196","1.704","56.84","2.5810000000000004","69.24","1017.337","12.53","74.44","299.8","0.0"],
    [1513700,"2026-04-01 07:40:00","60197","1.5759999999999998","52.89","2.45","59.28","1017.327","12.8","72.03","383.5","0.0"],
    [1513701,"2026-04-01 07:50:00","60198","0.7759999999999999","63.86","1.209","55.74","1017.36","12.96","70.87","273.4","0.0"],
    [1513702,"2026-04-01 08:00:00","60199","1.501","76.26","2.483","69.51","1017.343","12.74","70.23","121.7","0.0"],
    [1513703,"2026-04-01 08:10:00","60200","1.774","56.01","2.319","74.93","1017.37","12.38","70.29","222.0","0.0"],
    [1513704,"2026-04-01 08:20:00","60201","0.951","78.42","1.7309999999999999","40.28","1017.324","12.8","68.81","440.9","0.0"],
    [1513705,"2026-04-01 08:30:00","60202","0.8220000000000001","79.36","1.339","77.36","1017.252","13.27","65.82","495.3","0.0"],
    [1513706,"2026-04-01 08:40:00","60203","0.773","102.8","1.307","128.0","1017.283","13.6","64.14","530.5","0.0"],
    [1513707,"2026-04-01 08:50:00","60204","0.987","132.1","1.829","132.2","1017.237","13.66","63.89","555.4","0.0"],
    [1513708,"2026-04-01 09:00:00","60205","1.979","141.4","2.842","148.4","1017.115","13.26","65.27","593.2","0.0"],
    [1513709,"2026-04-01 09:10:00","60206","2.167","150.6","2.842","153.9","1017.09","13.13","66.44","611.7","0.0"],
    [1513710,"2026-04-01 09:20:00","60207","2.781","140.4","3.92","130.3","1017.028","13.05","66.17","637.3","0.0"],
    [1513711,"2026-04-01 09:30:00","60208","3.636","152.4","5.031000000000001","157.6","1016.846","13.08","65.28","666.1","0.0"],
    [1513712,"2026-04-01 09:40:00","60209","4.198","155.2","4.9","159.0","1016.866","13.05","61.47","694.1","0.0"],
    [1513713,"2026-04-01 09:50:00","60210","4.256","156.9","5.1610000000000005","170.2","1016.867","13.14","61.05","718.0","0.0"],
    [1513714,"2026-04-01 10:00:00","60211","4.774","169.8","6.599","174.4","1016.758","13.23","61.34","736.8","0.0"],
    [1513715,"2026-04-01 10:10:00","60212","4.832","180.7","6.501","182.5","1016.516","13.38","60.75","754.3","0.0"],
    [1513716,"2026-04-01 10:20:00","60213","4.54","182.8","5.88","191.9","1016.407","13.54","59.17","781.4","0.0"],
    [1513717,"2026-04-01 10:30:00","60214","5.227","180.5","6.925","191.2","1016.457","13.6","58.43","787.6","0.0"],
    [1513718,"2026-04-01 10:40:00","60215","5.447","184.4","7.218999999999999","187.5","1016.527","13.67","57.87","815.0","0.0"],
    [1513719,"2026-04-01 10:50:00","60216","5.725","183.4","7.546","178.5","1016.429","13.72","58.0","942.0","0.0"],
    [1513720,"2026-04-01 11:00:00","60217","5.944","184.4","7.742000000000001","187.7","1016.31","13.73","57.3","728.9","0.0"],
    [1513721,"2026-04-01 11:10:00","60218","6.109","185.3","7.6770000000000005","183.8","1016.275","13.72","56.6","823.0","0.0"],
    [1513722,"2026-04-01 11:20:00","60219","6.126","184.8","7.775","188.8","1016.111","13.79","56.32","779.2","0.0"],
    [1513723,"2026-04-01 11:30:00","60220","5.987","191.1","8.49","181.4","1016.008","13.92","57.09","659.3","0.0"],
    [1513724,"2026-04-01 11:40:00","60221","6.815","183.9","9.41","193.9","1015.94","13.86","58.8","652.2","0.0"],
    [1513725,"2026-04-01 11:50:00","60222","6.777","184.4","9.11","186.5","1015.86","13.88","62.63","635.7","0.0"],
    [1513726,"2026-04-01 12:00:00","60223","7.501","188.9","10.32","194.8","1015.7","13.78","63.65","513.8","0.0"],
    [1513727,"2026-04-01 12:10:00","60224","6.662999999999999","192.8","9.02","194.3","1015.768","13.69","63.46","337.1","0.0"],
    [1513728,"2026-04-01 12:20:00","60225","6.327999999999999","193.2","8.59","194.1","1015.738","13.65","64.28","273.7","0.0"],
    [1513729,"2026-04-01 12:30:00","60226","5.631","190.7","7.285","195.4","1015.768","13.67","64.96","288.5","0.0"],
    [1513730,"2026-04-01 12:40:00","60227","5.864","185.3","7.415","188.0","1015.656","13.62","65.08","275.4","0.0"],
    [1513731,"2026-04-01 12:50:00","60228","5.7589999999999995","189.1","7.84","194.3","1015.612","13.67","64.09","267.2","0.0"],
    [1513732,"2026-04-01 13:00:00","60229","5.821000000000001","192.4","7.382999999999999","188.4","1015.51","13.82","63.98","281.8","0.0"],
    [1513733,"2026-04-01 13:10:00","60230","4.869","187.2","7.187","195.3","1015.499","14.01","66.14","290.5","0.0"],
    [1513734,"2026-04-01 13:20:00","60231","5.278","190.1","7.285","192.5","1015.402","13.94","67.39","268.7","0.0"],
    [1513735,"2026-04-01 13:30:00","60232","5.591","188.3","7.35","193.5","1015.179","13.89","67.87","314.2","0.0"],
    [1513736,"2026-04-01 13:40:00","60233","5.551","189.9","7.415","192.9","1015.115","13.84","67.45","320.5","0.0"],
    [1513737,"2026-04-01 13:50:00","60234","5.2139999999999995","188.8","6.9910000000000005","190.7","1014.978","13.82","67.09","317.3","0.0"],
    [1513738,"2026-04-01 14:00:00","60235","5.7379999999999995","192.8","7.252000000000001","188.0","1014.614","13.94","66.46","365.0","0.0"],
    [1513739,"2026-04-01 14:10:00","60236","5.729","186.5","7.546","188.9","1014.408","13.99","67.06","517.2","0.0"],
    [1513740,"2026-04-01 14:20:00","60237","6.058","186.4","8.46","185.4","1014.299","14.05","67.33","470.5","0.0"],
    [1513741,"2026-04-01 14:30:00","60238","5.928999999999999","187.7","7.709","180.0","1014.153","14.18","67.24","669.6","0.0"],
    [1513742,"2026-04-01 14:40:00","60239","6.688","190.8","8.13","189.8","1014.03","14.06","68.23","562.0","0.0"],
    [1513743,"2026-04-01 14:50:00","60240","6.084","187.6","7.317","183.0","1013.948","14.19","67.36","673.7","0.0"],
    [1513744,"2026-04-01 15:00:00","60241","5.97","189.3","7.709","183.9","1013.902","14.32","66.45","647.1","0.0"],
    [1513745,"2026-04-01 15:10:00","60242","6.037999999999999","187.8","7.382999999999999","187.0","1013.701","14.39","64.92","621.6","0.0"],
    [1513746,"2026-04-01 15:20:00","60243","5.935","186.0","7.644","180.2","1013.673","14.46","64.61","586.7","0.0"],
    [1513747,"2026-04-01 15:30:00","60244","6.098","197.7","9.08","199.9","1013.619","14.53","62.57","449.2","0.0"],
    [1513748,"2026-04-01 15:40:00","60245","5.398","199.6","7.644","208.4","1013.442","14.76","59.67","476.8","0.0"],
    [1513749,"2026-04-01 15:50:00","60246","4.989","204.2","7.481","213.8","1013.403","14.87","58.64","369.6","0.0"],
    [1513750,"2026-04-01 16:00:00","60247","3.91","200.1","5.88","196.3","1013.359","14.99","58.97","204.3","0.0"],
    [1513751,"2026-04-01 16:10:00","60248","4.243","215.3","6.109","190.0","1013.314","15.07","57.48","210.6","0.0"],
    [1513752,"2026-04-01 16:20:00","60249","3.7260000000000004","215.6","6.599","222.8","1013.27","15.04","59.94","147.6","0.0"],
    [1513753,"2026-04-01 16:30:00","60250","3.7910000000000004","221.6","5.782","235.0","1013.229","14.94","60.47","136.0","0.0"],
    [1513754,"2026-04-01 16:40:00","60251","3.537","214.5","6.0760000000000005","232.6","1013.25","15.04","60.55","95.2","0.0"],
    [1513755,"2026-04-01 16:50:00","60252","2.9589999999999996","219.9","4.671","218.2","1013.244","15.1","62.46","75.92","0.0"],
    [1513756,"2026-04-01 17:00:00","60253","4.109","218.3","6.925","210.5","1013.228","15.11","64.05","63.43","0.0"],
    [1513757,"2026-04-01 17:10:00","60254","4.114","218.9","7.872999999999999","216.0","1013.28","15.05","66.31","38.15","0.0"],
    [1513758,"2026-04-01 17:20:00","60255","4.02","213.8","7.807","217.8","1013.275","14.88","67.44","32.03","0.0"],
    [1513759,"2026-04-01 17:30:00","60256","4.678","216.2","8.0","227.9","1013.309","14.72","68.25","27.48","0.0"],
    [1513760,"2026-04-01 17:40:00","60257","3.696","214.8","6.141","217.2","1013.314","14.7","69.67","28.1","0.0"],
    [1513761,"2026-04-01 17:50:00","60258","4.198","219.7","8.53","222.4","1013.296","14.7","70.25","40.61","0.0"],
    [1513762,"2026-04-01 18:00:00","60259","4.26","213.2","7.513","231.2","1013.437","14.7","73.67","36.57","0.0"],
    [1513763,"2026-04-01 18:10:00","60260","4.52","213.6","6.729","217.9","1013.517","14.51","76.95","15.96","0.0"],
    [1513764,"2026-04-01 18:20:00","60261","3.716","210.5","6.272","213.8","1013.545","14.44","77.34","5.039","0.0"],
    [1513765,"2026-04-01 18:30:00","60262","4.288","205.0","7.35","220.8","1013.492","14.4","77.88","0.12","0.0"],
    [1513766,"2026-04-01 18:40:00","60263","4.747","217.3","8.79","214.0","1013.526","14.41","79.62","0.0","0.0"],
    [1513767,"2026-04-01 18:50:00","60264","4.148","218.5","7.35","229.4","1013.714","14.52","82.5","0.0","0.0"],
    [1513768,"2026-04-01 19:00:00","60265","4.645","218.3","8.62","210.0","1013.631","14.48","84.2","0.0","0.0"],
    [1513769,"2026-04-01 19:10:00","60266","4.447","230.5","8.59","210.9","1013.664","14.38","85.1","0.0","0.0"],
    [1513770,"2026-04-01 19:20:00","60267","5.252999999999999","219.3","8.3","215.6","1013.687","14.5","85.7","0.0","0.0"],
    [1513771,"2026-04-01 19:30:00","60268","3.984","217.3","6.599","208.2","1013.977","14.35","85.7","0.0","0.0"],
    [1513772,"2026-04-01 19:40:00","60269","2.7289999999999996","231.5","4.312","220.9","1014.291","14.3","85.4","0.0","0.0"],
    [1513773,"2026-04-01 19:50:00","60270","3.142","221.3","5.39","209.9","1014.261","14.32","85.0","0.0","0.0"],
    [1513774,"2026-04-01 20:00:00","60271","3.449","212.9","5.815","204.5","1014.151","14.23","84.8","0.0","0.0"],
    [1513775,"2026-04-01 20:10:00","60272","3.062","223.2","5.651","211.2","1014.209","14.13","84.2","0.0","0.0"],
    [1513776,"2026-04-01 20:20:00","60273","2.08","225.3","4.247","206.0","1014.229","14.04","83.2","0.0","0.0"],
    [1513777,"2026-04-01 20:30:00","60274","2.62","206.7","5.096","183.1","1014.294","13.92","82.2","0.0","0.0"],
    [1513778,"2026-04-01 20:40:00","60275","2.693","197.9","4.312","195.8","1014.405","13.77","81.2","0.0","0.0"],
    [1513779,"2026-04-01 20:50:00","60276","2.7710000000000004","214.9","4.247","221.7","1014.408","13.75","80.5","0.0","0.0"],
    [1513780,"2026-04-01 21:00:00","60277","2.7","222.3","4.769","221.0","1014.413","13.84","79.85","0.0","0.0"],
    [1513781,"2026-04-01 21:10:00","60278","2.4659999999999997","191.1","3.9530000000000003","188.3","1014.462","13.83","79.53","0.0","0.0"],
    [1513782,"2026-04-01 21:20:00","60279","3.2110000000000003","199.2","5.194","194.2","1014.527","13.82","79.52","0.0","0.0"],
    [1513783,"2026-04-01 21:30:00","60280","2.82","215.0","4.149","227.0","1014.551","13.8","79.36","0.0","0.0"],
    [1513784,"2026-04-01 21:40:00","60281","3.64","192.8","4.802","188.9","1014.44","13.87","79.2","0.0","0.0"],
    [1513785,"2026-04-01 21:50:00","60282","2.479","219.8","4.933","201.3","1014.255","13.88","79.2","0.0","0.0"],
    [1513786,"2026-04-01 22:00:00","60283","3.9560000000000004","199.1","5.292000000000001","201.6","1014.083","13.92","79.67","0.0","0.0"],
    [1513787,"2026-04-01 22:10:00","60284","3.075","203.0","4.835","194.0","1013.984","13.92","80.2","0.0","0.0"],
    [1513788,"2026-04-01 22:20:00","60285","2.7889999999999997","196.7","4.149","193.0","1013.9","13.92","80.8","0.0","0.0"],
    [1513789,"2026-04-01 22:30:00","60286","2.8989999999999996","198.6","4.1160000000000005","197.5","1013.818","13.93","81.1","0.0","0.0"],
    [1513790,"2026-04-01 22:40:00","60287","2.3680000000000003","213.3","4.181","199.7","1013.81","13.87","81.1","0.0","0.0"],
    [1513791,"2026-04-01 22:50:00","60288","2.303","218.4","4.4430000000000005","207.5","1013.778","13.83","80.7","0.0","0.0"],
    [1513792,"2026-04-01 23:00:00","60289","2.085","221.1","3.7889999999999997","221.5","1013.708","13.83","80.7","0.0","0.0"],
    [1513793,"2026-04-01 23:10:00","60290","2.141","205.8","3.6260000000000003","192.8","1013.529","13.82","81.0","0.0","0.0"],
    [1513794,"2026-04-01 23:20:00","60291","2.147","210.2","3.397","206.0","1013.547","13.81","81.1","0.0","0.0"],
    [1513795,"2026-04-01 23:30:00","60292","2.326","205.4","4.181","202.5","1013.392","13.8","80.7","0.0","0.0"],
    [1513796,"2026-04-01 23:40:00","60293","1.425","219.7","2.842","233.9","1013.302","13.78","80.5","0.0","0.0"],
    [1513797,"2026-04-01 23:50:00","60294","2.0780000000000003","206.5","3.397","197.3","1013.202","13.78","80.2","0.0","0.0"],
    [1513798,"2026-04-02 00:00:00","60295","2.498","200.4","4.149","186.4","1013.223","13.83","80.5","0.0","0.0"],
    [1513799,"2026-04-02 00:10:00","60296","2.294","205.6","3.463","203.9","1013.318","13.8","81.3","0.0","0.0"],
    [1513800,"2026-04-02 00:20:00","60297","1.83","201.4","3.201","222.4","1013.282","13.8","81.7","0.0","0.0"],
    [1513801,"2026-04-02 00:30:00","60298","2.781","205.1","4.573","212.1","1013.134","13.78","82.2","0.0","0.0"],
    [1513802,"2026-04-02 00:40:00","60299","2.907","206.1","4.41","210.5","1013.039","13.75","82.7","0.0","0.0"],
    [1513803,"2026-04-02 00:50:00","60300","3.605","201.4","5.1610000000000005","177.4","1012.835","13.78","82.9","0.0","0.0"],
    [1513804,"2026-04-02 01:00:00","60301","4.705","141.4","7.971","105.6","1012.865","13.13","81.7","0.027000000000000003","0.0"],
    [1513805,"2026-04-02 01:10:00","60302","5.986000000000001","98.3","7.872999999999999","100.9","1012.734","12.38","77.68","0.0","0.0"],
    [1513806,"2026-04-02 01:20:00","60303","6.184","79.77","8.07","81.4","1012.687","12.16","76.92","0.0","0.0"],
    [1513807,"2026-04-02 01:30:00","60304","6.263","74.74","8.2","82.6","1012.686","11.94","76.83","0.002","0.0"],
    [1513808,"2026-04-02 01:40:00","60305","5.434","72.74","7.709","68.2","1012.722","12.14","76.23","0.0","0.0"],
    [1513809,"2026-04-02 01:50:00","60306","4.655","68.59","6.109","73.24","1012.638","12.25","75.49","0.0","0.0"],
    [1513810,"2026-04-02 02:00:00","60307","3.428","64.78","4.541","67.33","1012.52","12.36","74.84","0.0","0.0"],
    [1513811,"2026-04-02 02:10:00","60308","3.552","68.75","5.227","64.37","1012.395","12.46","73.79","0.0","0.0"],
    [1513812,"2026-04-02 02:20:00","60309","3.335","74.69","5.194","72.2","1012.35","12.48","73.82","0.0","0.0"],
    [1513813,"2026-04-02 02:30:00","60310","4.507","65.93","6.435","64.5","1012.293","12.46","74.79","0.0","0.0"],
    [1513814,"2026-04-02 02:40:00","60311","4.0","52.21","5.815","65.25","1012.155","12.38","75.3","0.0","0.0"],
    [1513815,"2026-04-02 02:50:00","60312","2.7939999999999996","49.34","3.593","51.86","1012.112","12.43","74.69","0.0","0.0"],
    [1513816,"2026-04-02 03:00:00","60313","2.05","51.55","2.907","45.45","1012.13","12.58","74.21","0.0","0.0"],
    [1513817,"2026-04-02 03:10:00","60314","1.561","44.26","2.7769999999999997","61.45","1011.994","12.57","73.06","0.0","0.0"],
    [1513818,"2026-04-02 03:20:00","60315","2.8760000000000003","53.5","4.018","51.53","1012.157","12.62","74.82","0.0","0.0"],
    [1513819,"2026-04-02 03:30:00","60316","2.298","28.06","3.005","28.3","1012.283","12.55","75.2","0.0","0.0"],
    [1513820,"2026-04-02 03:40:00","60317","2.2680000000000002","289.6","2.9730000000000003","279.8","1012.267","12.46","74.27","0.0","0.0"],
    [1513821,"2026-04-02 03:50:00","60318","2.498","277.1","3.7889999999999997","285.3","1012.197","12.01","74.83","0.0","0.0"],
    [1513822,"2026-04-02 04:00:00","60319","1.962","270.9","3.332","276.1","1011.871","11.79","76.15","0.0","0.0"],
    [1513823,"2026-04-02 04:10:00","60320","1.97","268.4","3.855","278.3","1012.096","11.69","77.14","0.0","0.0"],
    [1513824,"2026-04-02 04:20:00","60321","1.183","247.1","2.483","244.3","1012.096","11.56","77.55","0.0","0.0"],
    [1513825,"2026-04-02 04:30:00","60322","1.496","270.9","3.659","283.4","1012.135","11.42","77.99","0.0","0.0"],
    [1513826,"2026-04-02 04:40:00","60323","2.134","274.6","3.201","271.9","1012.111","11.4","78.27","0.0","0.0"],
    [1513827,"2026-04-02 04:50:00","60324","1.358","263.8","2.875","284.5","1012.334","11.39","78.28","0.0","0.0"],
    [1513828,"2026-04-02 05:00:00","60325","1.3030000000000002","229.1","2.385","251.9","1012.225","11.33","77.94","0.0","0.0"],
    [1513829,"2026-04-02 05:10:00","60326","1.253","226.8","2.254","225.9","1012.268","11.3","77.03","0.0","0.0"],
    [1513830,"2026-04-02 05:20:00","60327","1.186","249.9","2.123","252.7","1012.264","11.33","76.35","0.0","0.0"],
    [1513831,"2026-04-02 05:30:00","60328","1.396","236.9","2.025","247.3","1012.341","11.24","76.52","0.39899999999999997","0.0"],
    [1513832,"2026-04-02 05:40:00","60329","1.3219999999999998","233.3","2.254","216.8","1012.44","11.01","76.51","3.577","0.0"],
    [1513833,"2026-04-02 05:50:00","60330","1.739","256.0","2.8089999999999997","249.7","1012.518","10.95","76.28","6.547000000000001","0.0"],
    [1513834,"2026-04-02 06:00:00","60331","1.845","263.6","2.5810000000000004","272.4","1012.626","10.87","76.25","10.85","0.0"],
    [1513835,"2026-04-02 06:10:00","60332","1.7990000000000002","260.1","2.5810000000000004","268.9","1012.79","10.88","76.49","16.72","0.0"],
    [1513836,"2026-04-02 06:20:00","60333","1.7890000000000001","261.3","2.7439999999999998","259.6","1012.862","10.87","76.75","30.3","0.0"],
    [1513837,"2026-04-02 06:30:00","60334","1.4","262.5","1.993","269.7","1012.839","10.94","76.88","36.31","0.0"],
    [1513838,"2026-04-02 06:40:00","60335","1.7309999999999999","263.3","2.254","263.2","1012.848","11.02","77.0","39.39","0.0"],
    [1513839,"2026-04-02 06:50:00","60336","1.568","258.9","2.5810000000000004","260.9","1012.821","11.12","77.25","120.6","0.0"],
    [1513840,"2026-04-02 07:00:00","60337","1.913","262.5","3.136","261.2","1012.877","11.48","76.65","142.4","0.0"],
    [1513841,"2026-04-02 07:10:00","60338","1.429","264.2","2.0909999999999997","272.5","1012.944","11.62","76.24","136.1","0.0"],
    [1513842,"2026-04-02 07:20:00","60339","1.135","263.3","3.267","256.2","1012.884","12.0","75.59","278.0","0.0"],
    [1513843,"2026-04-02 07:30:00","60340","2.145","224.0","5.847","226.0","1012.902","12.62","73.51","313.4","0.0"],
    [1513844,"2026-04-02 07:40:00","60341","4.284","199.3","6.5329999999999995","194.6","1012.798","13.12","70.55","351.3","0.0"],
    [1513845,"2026-04-02 07:50:00","60342","4.343","197.1","6.631","193.8","1012.782","13.15","70.74","391.4","0.0"],
    [1513846,"2026-04-02 08:00:00","60343","4.685","198.8","7.415","184.7","1012.939","13.17","69.58","418.9","0.0"],
    [1513847,"2026-04-02 08:10:00","60344","5.74","194.9","8.26","184.4","1012.898","13.18","67.91","455.3","0.0"],
    [1513848,"2026-04-02 08:20:00","60345","4.888","193.8","7.056","187.6","1012.969","13.38","67.75","485.0","0.0"],
    [1513849,"2026-04-02 08:30:00","60346","4.795","192.1","7.382999999999999","191.4","1012.982","13.27","70.04","516.9","0.0"],
    [1513850,"2026-04-02 08:40:00","60347","5.308","187.6","7.938","190.7","1013.059","13.3","67.6","549.1","0.0"],
    [1513851,"2026-04-02 08:50:00","60348","5.322","186.0","7.382999999999999","180.8","1013.111","13.41","68.21","579.7","0.0"],
    [1513852,"2026-04-02 09:00:00","60349","5.586","186.7","7.579","187.5","1013.064","13.45","68.21","615.5","0.0"],
    [1513853,"2026-04-02 09:10:00","60350","5.3839999999999995","180.1","7.709","175.4","1013.116","13.46","69.39","631.2","0.0"],
    [1513854,"2026-04-02 09:20:00","60351","4.7780000000000005","186.3","6.5329999999999995","194.4","1013.13","13.64","66.36","695.8","0.0"],
    [1513855,"2026-04-02 09:30:00","60352","5.343999999999999","190.8","6.925","185.7","1013.135","13.97","61.48","782.0","0.0"],
    [1513856,"2026-04-02 09:40:00","60353","6.354","190.6","8.85","202.8","1013.015","14.02","58.1","693.1","0.0"],
    [1513857,"2026-04-02 09:50:00","60354","5.617000000000001","190.4","7.4479999999999995","185.3","1012.931","13.91","56.92","432.9","0.0"],
    [1513858,"2026-04-02 10:00:00","60355","6.251","186.8","8.07","189.9","1012.869","13.51","58.47","570.1","0.0"],
    [1513859,"2026-04-02 10:10:00","60356","6.643","196.4","9.87","199.2","1013.054","13.67","57.8","487.1","0.0"],
    [1513860,"2026-04-02 10:20:00","60357","6.0","201.3","10.16","188.2","1012.932","13.92","60.53","452.8","0.0"],
    [1513861,"2026-04-02 10:30:00","60358","5.695","206.2","8.82","200.8","1012.98","13.95","61.71","509.5","0.0"],
    [1513862,"2026-04-02 10:40:00","60359","4.981","203.8","7.872999999999999","190.7","1012.971","14.3","59.49","769.7","0.0"],
    [1513863,"2026-04-02 10:50:00","60360","6.263999999999999","198.9","9.21","204.8","1012.839","14.21","59.52","752.2","0.0"],
    [1513864,"2026-04-02 11:00:00","60361","5.794","199.2","8.85","192.1","1012.759","14.28","61.92","753.2","0.0"],
    [1513865,"2026-04-02 11:10:00","60362","6.577999999999999","199.6","9.11","192.7","1012.634","14.1","61.28","571.1","0.0"],
    [1513866,"2026-04-02 11:20:00","60363","5.789","200.1","9.9","195.9","1012.532","14.34","59.0","705.3","0.0"],
    [1513867,"2026-04-02 11:30:00","60364","6.689","196.3","9.54","200.1","1012.358","14.35","57.22","655.1","0.0"],
    [1513868,"2026-04-02 11:40:00","60365","5.781000000000001","196.3","8.66","187.1","1012.226","14.56","59.01","708.0","0.0"],
    [1513869,"2026-04-02 11:50:00","60366","6.51","195.9","10.09","197.7","1012.069","14.39","56.45","574.3","0.0"],
    [1513870,"2026-04-02 12:00:00","60367","6.301","200.1","9.11","193.9","1011.93","14.55","57.36","540.1","0.0"],
    [1513871,"2026-04-02 12:10:00","60368","6.3389999999999995","194.6","8.92","194.7","1011.886","14.62","59.46","719.8","0.0"],
    [1513872,"2026-04-02 12:20:00","60369","7.318","192.4","10.22","190.5","1011.872","14.5","60.6","550.0","0.0"],
    [1513873,"2026-04-02 12:30:00","60370","6.729","193.9","9.83","188.0","1011.908","14.64","58.98","513.2","0.0"],
    [1513874,"2026-04-02 12:40:00","60371","7.042999999999999","194.2","9.38","191.6","1011.852","14.58","59.11","516.8","0.0"],
    [1513875,"2026-04-02 12:50:00","60372","7.085","192.9","10.32","191.8","1011.643","14.6","58.68","444.3","0.0"],
    [1513876,"2026-04-02 13:00:00","60373","6.318","194.0","9.44","199.2","1011.456","14.76","59.49","461.7","0.0"],
    [1513877,"2026-04-02 13:10:00","60374","5.571000000000001","195.8","8.26","190.3","1011.298","14.98","58.24","407.7","0.0"],
    [1513878,"2026-04-02 13:20:00","60375","4.726","212.3","7.481","216.2","1011.124","15.7","48.68","439.4","0.0"],
    [1513879,"2026-04-02 13:30:00","60376","4.228","207.5","6.664","207.0","1011.063","15.97","48.09","442.8","0.0"],
    [1513880,"2026-04-02 13:40:00","60377","5.311","200.5","8.53","193.8","1010.886","15.84","53.19","412.8","0.0"],
    [1513881,"2026-04-02 13:50:00","60378","4.865","202.2","8.2","194.3","1010.792","15.74","57.79","406.5","0.0"],
    [1513882,"2026-04-02 14:00:00","60379","4.4510000000000005","196.1","6.305","187.6","1010.693","16.03","59.3","420.8","0.0"],
    [1513883,"2026-04-02 14:10:00","60380","2.517","213.5","4.606","235.3","1010.569","16.38","59.74","411.6","0.0"],
    [1513884,"2026-04-02 14:20:00","60381","3.785","184.2","6.697","160.5","1010.44","16.18","60.46","397.6","0.0"],
    [1513885,"2026-04-02 14:30:00","60382","2.443","232.3","5.651","172.3","1010.309","15.94","60.97","382.6","0.0"],
    [1513886,"2026-04-02 14:40:00","60383","4.59","290.4","7.0889999999999995","308.8","1010.132","18.51","32.94","429.8","0.0"],
    [1513887,"2026-04-02 14:50:00","60384","3.9419999999999997","295.6","6.435","302.0","1010.019","18.96","28.88","370.8","0.0"],
    [1513888,"2026-04-02 15:00:00","60385","3.529","296.1","6.207000000000001","284.2","1009.948","19.18","27.69","383.3","0.0"],
    [1513889,"2026-04-02 15:10:00","60386","2.984","306.9","6.729","324.4","1009.943","19.37","26.94","385.7","0.0"],
    [1513890,"2026-04-02 15:20:00","60387","3.912","326.4","6.011","321.0","1009.928","19.39","24.91","392.6","0.0"],
    [1513891,"2026-04-02 15:30:00","60388","3.1439999999999997","320.9","5.357","312.5","1009.839","19.77","22.91","521.3","0.0"],
    [1513892,"2026-04-02 15:40:00","60389","2.927","307.9","5.553","328.1","1009.854","20.34","21.95","600.2","0.0"],
    [1513893,"2026-04-02 15:50:00","60390","4.686","305.5","6.957999999999999","330.2","1009.851","20.3","21.78","591.3","0.0"],
    [1513894,"2026-04-02 16:00:00","60391","5.95","18.17","8.79","20.97","1010.052","17.18","51.67","509.8","0.0"],
    [1513895,"2026-04-02 16:10:00","60392","7.4879999999999995","16.02","8.95","22.54","1010.234","15.44","67.91","312.2","0.0"],
    [1513896,"2026-04-02 16:20:00","60393","6.755","24.46","7.775","34.14","1010.379","15.29","69.44","280.5","0.0"],
    [1513897,"2026-04-02 16:30:00","60394","7.2170000000000005","23.23","8.66","18.43","1010.59","14.93","76.9","196.4","0.0"],
    [1513898,"2026-04-02 16:40:00","60395","6.6339999999999995","28.23","8.17","30.73","1010.633","14.62","81.7","158.1","0.0"],
    [1513899,"2026-04-02 16:50:00","60396","6.004","27.13","7.709","23.13","1010.779","14.55","84.0","152.0","0.0"],
    [1513900,"2026-04-02 17:00:00","60397","6.537000000000001","30.51","7.546","32.01","1010.887","14.43","84.8","130.8","0.0"],
    [1513901,"2026-04-02 17:10:00","60398","6.619","26.9","7.775","29.88","1011.031","14.33","84.5","146.4","0.0"],
    [1513902,"2026-04-02 17:20:00","60399","6.595","29.18","7.84","30.52","1011.251","14.35","83.8","119.4","0.0"],
    [1513903,"2026-04-02 17:30:00","60400","5.869","32.76","7.121","30.53","1011.512","14.38","83.7","83.4","0.0"],
    [1513904,"2026-04-02 17:40:00","60401","4.977","36.56","6.207000000000001","40.53","1011.714","14.33","83.5","53.96","0.0"],
    [1513905,"2026-04-02 17:50:00","60402","4.956","34.07","6.0760000000000005","33.01","1011.873","14.25","83.1","37.93","0.0"],
    [1513906,"2026-04-02 18:00:00","60403","4.92","32.69","5.978","28.54","1012.048","14.25","82.9","24.0","0.0"],
    [1513907,"2026-04-02 18:10:00","60404","5.38","34.94","6.664","27.21","1012.088","14.23","83.1","14.75","0.0"],
    [1513908,"2026-04-02 18:20:00","60405","4.119","40.27","6.37","40.02","1012.233","14.3","83.4","3.449","0.0"],
    [1513909,"2026-04-02 18:30:00","60406","5.084","40.04","6.435","38.81","1012.499","14.2","84.2","0.022000000000000002","0.0"],
    [1513910,"2026-04-02 18:40:00","60407","3.9330000000000003","46.92","5.1610000000000005","44.68","1012.664","14.16","84.5","0.0","0.0"],
    [1513911,"2026-04-02 18:50:00","60408","2.965","49.95","3.985","45.64","1012.938","14.15","84.4","0.0","0.0"],
    [1513912,"2026-04-02 19:00:00","60409","3.1189999999999998","57.46","4.083","54.05","1013.175","14.07","83.8","0.0","0.0"],
    [1513913,"2026-04-02 19:10:00","60410","2.937","45.98","4.149","59.87","1013.317","14.08","83.0","0.0","0.0"],
    [1513914,"2026-04-02 19:20:00","60411","3.3789999999999996","48.6","4.377","65.25","1013.466","14.11","82.2","0.0","0.0"],
    [1513915,"2026-04-02 19:30:00","60412","2.54","47.5","4.018","33.87","1013.756","14.12","82.0","0.0","0.0"],
    [1513916,"2026-04-02 19:40:00","60413","2.131","34.75","2.907","30.6","1013.989","14.15","82.3","0.0","0.0"],
    [1513917,"2026-04-02 19:50:00","60414","2.326","29.93","2.842","30.06","1014.146","14.09","82.4","0.0","0.0"],
    [1513918,"2026-04-02 20:00:00","60415","1.9580000000000002","34.44","2.613","29.59","1014.323","14.11","82.5","0.0","0.0"],
    [1513919,"2026-04-02 20:10:00","60416","1.614","28.35","2.123","28.1","1014.446","14.08","82.9","0.0","0.0"],
    [1513920,"2026-04-02 20:20:00","60417","1.413","8.97","1.797","28.59","1014.622","14.09","82.9","0.0","0.0"],
    [1513921,"2026-04-02 20:30:00","60418","1.234","3.513","1.699","19.77","1014.798","14.01","82.9","0.0","0.0"],
    [1513922,"2026-04-02 20:40:00","60419","2.089","34.51","2.515","39.43","1014.822","14.07","82.6","0.0","0.0"],
    [1513923,"2026-04-02 20:50:00","60420","2.342","39.26","2.679","44.05","1014.786","14.04","82.4","0.0","0.0"],
    [1513924,"2026-04-02 21:00:00","60421","1.8330000000000002","359.4","2.515","22.69","1014.948","14.04","82.4","0.0","0.0"],
    [1513925,"2026-04-02 21:10:00","60422","1.177","9.75","1.535","338.1","1014.962","14.02","82.3","0.0","0.0"],
    [1513926,"2026-04-02 21:20:00","60423","1.2409999999999999","339.7","1.601","336.0","1014.967","13.93","82.2","0.0","0.0"],
    [1513927,"2026-04-02 21:30:00","60424","0.929","346.3","1.143","345.4","1015.04","13.83","81.5","0.0","0.0"],
    [1513928,"2026-04-02 21:40:00","60425","0.74","314.3","1.3719999999999999","315.5","1015.116","13.85","80.7","0.0","0.0"],
    [1513929,"2026-04-02 21:50:00","60426","0.54","304.1","1.176","303.7","1015.261","13.79","80.3","0.0","0.0"],
    [1513930,"2026-04-02 22:00:00","60427","0.327","330.8","0.98","341.3","1015.328","13.76","79.75","0.0","0.0"],
    [1513931,"2026-04-02 22:10:00","60428","0.0","0.0","0.0","0.0","1015.368","13.71","79.39","0.0","0.0"],
    [1513932,"2026-04-02 22:20:00","60429","0.728","263.0","1.2409999999999999","271.4","1015.392","13.67","78.6","0.0","0.0"],
    [1513933,"2026-04-02 22:30:00","60430","1.611","263.9","2.221","265.5","1015.543","13.66","76.24","0.0","0.0"],
    [1513934,"2026-04-02 22:40:00","60431","1.9969999999999999","265.9","2.679","259.8","1015.607","13.67","75.57","0.0","0.0"],
    [1513935,"2026-04-02 22:50:00","60432","1.56","257.7","2.123","261.2","1015.668","13.6","75.43","0.0","0.0"],
    [1513936,"2026-04-02 23:00:00","60433","1.2","251.8","2.352","264.0","1015.731","13.46","74.68","0.0","0.0"],
    [1513937,"2026-04-02 23:10:00","60434","1.9269999999999998","255.7","2.7769999999999997","251.4","1015.781","13.26","72.69","0.0","0.0"],
    [1513938,"2026-04-02 23:20:00","60435","2.114","258.6","2.679","260.4","1015.768","13.32","68.89","0.0","0.0"],
    [1513939,"2026-04-02 23:30:00","60436","2.255","262.2","2.8089999999999997","263.0","1015.739","13.27","66.78","0.0","0.0"],
    [1513940,"2026-04-02 23:40:00","60437","2.166","256.9","3.103","274.2","1015.694","13.25","65.78","0.0","0.0"],
    [1513941,"2026-04-02 23:50:00","60438","2.633","268.6","3.365","282.0","1015.678","13.01","65.56","0.0","0.0"],
    [1513942,"2026-04-03 00:00:00","60439","2.426","286.4","3.593","279.3","1015.667","13.23","60.98","0.0","0.0"],
    [1513943,"2026-04-03 00:10:00","60440","2.616","295.9","4.018","303.7","1015.655","13.75","52.72","0.0","0.0"],
    [1513944,"2026-04-03 00:20:00","60441","2.546","271.9","3.659","294.2","1015.749","13.48","53.96","0.0","0.0"],
    [1513945,"2026-04-03 00:30:00","60442","1.7730000000000001","279.6","2.385","273.6","1015.737","12.79","59.07","0.0","0.0"],
    [1513946,"2026-04-03 00:40:00","60443","2.079","286.7","3.201","286.4","1015.613","12.9","58.79","0.0","0.0"],
    [1513947,"2026-04-03 00:50:00","60444","1.625","298.5","2.679","299.2","1015.548","13.3","54.05","0.0","0.0"],
    [1513948,"2026-04-03 01:00:00","60445","2.279","286.5","3.201","278.8","1015.533","13.61","47.89","0.0","0.0"],
    [1513949,"2026-04-03 01:10:00","60446","2.33","290.6","3.0380000000000003","283.6","1015.567","13.46","46.4","0.0","0.0"],
    [1513950,"2026-04-03 01:20:00","60447","2.281","309.1","3.005","306.6","1015.607","13.67","46.22","0.0","0.0"],
    [1513951,"2026-04-03 01:30:00","60448","2.2319999999999998","298.9","3.593","281.7","1015.78","13.7","45.28","0.0","0.0"],
    [1513952,"2026-04-03 01:40:00","60449","2.327","296.2","3.6260000000000003","303.0","1015.864","13.83","40.12","0.0","0.0"],
    [1513953,"2026-04-03 01:50:00","60450","2.081","297.2","2.875","317.1","1015.762","13.93","38.74","0.0","0.0"],
    [1513954,"2026-04-03 02:00:00","60451","1.838","289.6","2.45","278.5","1015.714","13.84","38.4","0.0","0.0"],
    [1513955,"2026-04-03 02:10:00","60452","2.1830000000000003","280.0","2.679","279.6","1015.724","13.88","37.03","0.0","0.0"],
    [1513956,"2026-04-03 02:20:00","60453","1.6230000000000002","246.7","2.679","261.3","1015.759","13.48","39.65","0.0","0.0"],
    [1513957,"2026-04-03 02:30:00","60454","1.072","221.2","1.7309999999999999","236.3","1015.799","13.27","40.99","0.0","0.0"],
    [1513958,"2026-04-03 02:40:00","60455","1.531","245.7","2.875","264.5","1015.742","13.28","39.84","0.0","0.0"],
    [1513959,"2026-04-03 02:50:00","60456","2.2969999999999997","271.2","3.071","282.9","1015.658","13.39","37.83","0.0","0.0"],
    [1513960,"2026-04-03 03:00:00","60457","2.364","278.0","3.005","288.2","1015.697","13.3","39.53","0.0","0.0"],
    [1513961,"2026-04-03 03:10:00","60458","1.692","263.2","2.6460000000000004","278.7","1015.804","13.23","38.46","0.0","0.0"],
    [1513962,"2026-04-03 03:20:00","60459","2.215","270.5","3.103","272.9","1015.797","13.16","38.31","0.0","0.0"],
    [1513963,"2026-04-03 03:30:00","60460","2.245","298.1","3.005","314.1","1015.849","13.22","39.26","0.0","0.0"],
    [1513964,"2026-04-03 03:40:00","60461","1.375","285.3","2.221","312.5","1015.923","13.34","38.25","0.0","0.0"],
    [1513965,"2026-04-03 03:50:00","60462","1.619","281.8","2.483","283.7","1016.01","13.31","37.76","0.0","0.0"],
    [1513966,"2026-04-03 04:00:00","60463","2.5780000000000003","273.7","3.365","268.2","1016.162","13.04","39.09","0.0","0.0"],
    [1513967,"2026-04-03 04:10:00","60464","2.681","287.0","3.659","298.4","1016.275","13.02","39.31","0.0","0.0"],
    [1513968,"2026-04-03 04:20:00","60465","2.88","293.8","4.181","303.0","1016.398","13.19","38.3","0.0","0.0"],
    [1513969,"2026-04-03 04:30:00","60466","3.0989999999999998","290.4","4.018","294.2","1016.51","13.03","39.3","0.0","0.0"],
    [1513970,"2026-04-03 04:40:00","60467","3.3819999999999997","286.4","5.292000000000001","288.9","1016.576","13.05","39.16","0.0","0.0"],
    [1513971,"2026-04-03 04:50:00","60468","2.923","280.3","4.475","287.6","1016.635","12.77","40.33","0.0","0.0"],
    [1513972,"2026-04-03 05:00:00","60469","3.247","281.1","5.292000000000001","285.9","1016.642","12.62","41.18","0.0","0.0"],
    [1513973,"2026-04-03 05:10:00","60470","3.3169999999999997","278.4","5.1610000000000005","273.2","1016.651","12.49","42.12","0.0","0.0"],
    [1513974,"2026-04-03 05:20:00","60471","3.093","282.0","5.1610000000000005","282.2","1016.797","12.26","43.61","0.0","0.0"],
    [1513975,"2026-04-03 05:30:00","60472","3.4019999999999997","296.0","4.998","293.0","1016.884","12.23","44.69","0.243","0.0"],
    [1513976,"2026-04-03 05:40:00","60473","3.2680000000000002","284.7","4.965","280.0","1016.978","12.17","45.13","5.819","0.0"],
    [1513977,"2026-04-03 05:50:00","60474","3.573","286.3","5.227","283.7","1017.187","12.11","46.07","18.75","0.0"],
    [1513978,"2026-04-03 06:00:00","60475","3.7439999999999998","286.9","5.88","281.6","1017.331","12.17","45.97","39.02","0.0"],
    [1513979,"2026-04-03 06:10:00","60476","2.966","292.4","4.1160000000000005","285.0","1017.453","12.22","46.19","64.3","0.0"],
    [1513980,"2026-04-03 06:20:00","60477","2.228","293.7","3.299","285.3","1017.653","12.3","46.01","91.5","0.0"],
    [1513981,"2026-04-03 06:30:00","60478","1.514","298.5","2.679","297.4","1017.84","12.52","45.69","119.2","0.0"],
    [1513982,"2026-04-03 06:40:00","60479","2.17","293.2","3.7239999999999998","293.8","1017.947","12.66","45.04","148.8","0.0"],
    [1513983,"2026-04-03 06:50:00","60480","2.224","295.3","3.136","309.9","1018.161","12.7","44.98","179.7","0.0"],
    [1513984,"2026-04-03 07:00:00","60481","1.74","279.9","2.5810000000000004","256.0","1018.285","12.9","44.73","211.5","0.0"],
    [1513985,"2026-04-03 07:10:00","60482","2.525","274.4","3.463","268.8","1018.391","12.88","44.65","246.2","0.0"],
    [1513986,"2026-04-03 07:20:00","60483","2.295","277.3","3.463","280.1","1018.443","13.04","44.32","281.0","0.0"],
    [1513987,"2026-04-03 07:30:00","60484","1.6740000000000002","268.3","2.515","260.3","1018.475","13.38","43.75","313.7","0.0"],
    [1513988,"2026-04-03 07:40:00","60485","1.6469999999999998","265.1","2.94","248.1","1018.615","13.65","43.45","346.9","0.0"],
    [1513989,"2026-04-03 07:50:00","60486","2.228","272.0","3.7889999999999997","266.6","1018.734","13.75","42.83","382.8","0.0"],
    [1513990,"2026-04-03 08:00:00","60487","2.269","283.1","3.365","287.6","1018.824","13.86","42.19","417.0","0.0"],
    [1513991,"2026-04-03 08:10:00","60488","2.198","264.4","3.43","251.9","1018.993","14.27","41.55","449.6","0.0"],
    [1513992,"2026-04-03 08:20:00","60489","1.989","268.4","2.8089999999999997","274.9","1019.131","14.53","40.95","481.7","0.0"],
    [1513993,"2026-04-03 08:30:00","60490","1.2590000000000001","250.0","2.385","255.7","1019.256","14.77","39.94","511.3","0.0"],
    [1513994,"2026-04-03 08:40:00","60491","1.2890000000000001","208.5","2.679","186.5","1019.354","15.12","39.25","541.2","0.0"],
    [1513995,"2026-04-03 08:50:00","60492","1.73","196.6","2.45","188.8","1019.449","15.08","39.34","572.5","0.0"],
    [1513996,"2026-04-03 09:00:00","60493","1.531","221.1","2.679","205.0","1019.64","15.35","38.69","599.2","0.0"],
    [1513997,"2026-04-03 09:10:00","60494","1.0070000000000001","246.1","2.613","269.5","1019.698","15.8","37.17","625.8","0.0"],
    [1513998,"2026-04-03 09:20:00","60495","1.037","222.7","2.483","219.7","1019.737","16.25","36.45","651.5","0.0"],
    [1513999,"2026-04-03 09:30:00","60496","1.805","182.6","2.9730000000000003","157.1","1019.709","15.97","38.72","678.0","0.0"],
    [1514000,"2026-04-03 09:40:00","60497","1.641","273.4","3.7239999999999998","292.4","1019.717","16.05","40.16","703.5","0.0"],
    [1514001,"2026-04-03 09:50:00","60498","2.344","275.2","3.822","293.6","1019.696","16.43","34.83","727.7","0.0"],
    [1514002,"2026-04-03 10:00:00","60499","1.127","221.0","2.679","207.8","1019.781","16.95","34.06","745.1","0.0"],
    [1514003,"2026-04-03 10:10:00","60500","4.9319999999999995","186.0","7.285","189.0","1019.816","15.36","48.41","763.5","0.0"],
    [1514004,"2026-04-03 10:20:00","60501","5.684","189.1","7.187","185.4","1019.838","14.6","53.23","785.2","0.0"],
    [1514005,"2026-04-03 10:30:00","60502","5.1770000000000005","180.8","6.468","183.7","1019.877","14.88","50.79","799.8","0.0"],
    [1514006,"2026-04-03 10:40:00","60503","5.28","182.0","6.795","176.6","1019.834","14.66","52.25","813.0","0.0"],
    [1514007,"2026-04-03 10:50:00","60504","5.371","186.2","6.599","191.7","1019.777","14.58","55.26","827.0","0.0"],
    [1514008,"2026-04-03 11:00:00","60505","5.684","184.3","7.317","190.8","1019.686","14.52","55.97","838.0","0.0"],
    [1514009,"2026-04-03 11:10:00","60506","6.007999999999999","186.6","7.775","193.8","1019.627","14.52","57.72","847.0","0.0"],
    [1514010,"2026-04-03 11:20:00","60507","5.84","187.0","7.84","193.9","1019.696","14.42","58.95","855.0","0.0"],
    [1514011,"2026-04-03 11:30:00","60508","5.86","185.0","7.218999999999999","181.4","1019.758","14.55","55.37","862.0","0.0"],
    [1514012,"2026-04-03 11:40:00","60509","5.657","187.6","6.795","184.8","1019.793","14.6","54.32","867.0","0.0"],
    [1514013,"2026-04-03 11:50:00","60510","5.211","184.3","7.023","188.1","1019.796","15.08","51.3","868.0","0.0"],
    [1514014,"2026-04-03 12:00:00","60511","5.561","189.6","7.056","190.7","1019.736","15.15","51.78","873.0","0.0"],
    [1514015,"2026-04-03 12:10:00","60512","5.115","183.0","6.664","183.4","1019.674","15.0","51.64","871.0","0.0"],
    [1514016,"2026-04-03 12:20:00","60513","4.978","184.2","6.5329999999999995","186.7","1019.636","14.95","52.83","869.0","0.0"],
    [1514017,"2026-04-03 12:30:00","60514","4.833","175.7","6.305","168.7","1019.53","14.9","53.43","865.0","0.0"],
    [1514018,"2026-04-03 12:40:00","60515","5.367000000000001","182.1","6.697","181.5","1019.404","14.88","51.73","862.0","0.0"],
    [1514019,"2026-04-03 12:50:00","60516","4.811","182.8","6.957999999999999","190.2","1019.369","15.24","48.86","857.0","0.0"],
    [1514020,"2026-04-03 13:00:00","60517","4.996","179.2","6.435","187.3","1019.304","15.2","49.0","847.0","0.0"],
    [1514021,"2026-04-03 13:10:00","60518","5.167999999999999","180.2","6.468","179.3","1019.213","14.96","49.58","840.0","0.0"],
    [1514022,"2026-04-03 13:20:00","60519","6.335","180.0","7.415","173.8","1019.076","14.68","52.62","826.0","0.0"],
    [1514023,"2026-04-03 13:30:00","60520","6.215","179.7","7.35","178.7","1018.983","14.64","55.14","813.0","0.0"],
    [1514024,"2026-04-03 13:40:00","60521","6.5089999999999995","178.4","7.252000000000001","179.5","1018.9","14.64","57.84","797.8","0.0"],
    [1514025,"2026-04-03 13:50:00","60522","6.385","179.8","7.187","179.4","1018.872","14.7","60.47","780.5","0.0"],
    [1514026,"2026-04-03 14:00:00","60523","6.069","180.4","7.4479999999999995","177.4","1018.879","14.95","60.83","762.5","0.0"],
    [1514027,"2026-04-03 14:10:00","60524","6.331","179.0","7.742000000000001","175.1","1018.833","14.84","62.14","741.6","0.0"],
    [1514028,"2026-04-03 14:20:00","60525","5.641","177.7","6.827000000000001","184.1","1018.858","14.97","60.07","718.8","0.0"],
    [1514029,"2026-04-03 14:30:00","60526","4.909","165.6","6.011","181.7","1018.831","15.11","60.75","693.7","0.0"],
    [1514030,"2026-04-03 14:40:00","60527","4.406000000000001","167.8","5.031000000000001","166.1","1018.787","14.91","64.05","666.4","0.0"],
    [1514031,"2026-04-03 14:50:00","60528","4.526","167.2","5.619","166.0","1018.704","14.99","62.8","639.5","0.0"],
    [1514032,"2026-04-03 15:00:00","60529","4.966","157.9","5.88","153.9","1018.686","15.07","62.79","611.2","0.0"],
    [1514033,"2026-04-03 15:10:00","60530","4.709","156.1","5.586","161.2","1018.693","15.17","63.46","580.5","0.0"],
    [1514034,"2026-04-03 15:20:00","60531","4.957","154.9","5.749","156.9","1018.689","15.11","66.37","549.9","0.0"],
    [1514035,"2026-04-03 15:30:00","60532","4.6419999999999995","147.2","5.7170000000000005","151.5","1018.693","15.09","69.91","516.9","0.0"],
    [1514036,"2026-04-03 15:40:00","60533","4.928","142.8","6.109","146.9","1018.687","15.04","71.96","485.8","0.0"],
    [1514037,"2026-04-03 15:50:00","60534","4.817","140.4","6.011","140.2","1018.768","15.09","72.59","452.6","0.0"],
    [1514038,"2026-04-03 16:00:00","60535","4.406000000000001","137.7","6.011","134.4","1018.82","15.17","73.22","418.7","0.0"],
    [1514039,"2026-04-03 16:10:00","60536","3.9360000000000004","134.0","5.063","129.2","1018.965","15.1","75.15","383.8","0.0"],
    [1514040,"2026-04-03 16:20:00","60537","3.503","152.1","5.129","163.4","1019.102","15.17","75.61","347.5","0.0"],
    [1514041,"2026-04-03 16:30:00","60538","3.293","152.4","4.867","172.6","1019.241","15.13","76.91","313.5","0.0"],
    [1514042,"2026-04-03 16:40:00","60539","3.13","157.5","5.194","186.5","1019.355","15.19","78.54","277.3","0.0"],
    [1514043,"2026-04-03 16:50:00","60540","3.452","152.8","4.638999999999999","150.0","1019.466","15.11","79.68","242.7","0.0"],
    [1514044,"2026-04-03 17:00:00","60541","3.935","149.5","5.1610000000000005","152.8","1019.568","14.97","79.78","210.5","0.0"],
    [1514045,"2026-04-03 17:10:00","60542","3.7680000000000002","149.8","5.194","158.0","1019.69","15.01","78.87","177.8","0.0"],
    [1514046,"2026-04-03 17:20:00","60543","4.084","154.2","5.129","156.3","1019.953","14.97","78.58","145.9","0.0"],
    [1514047,"2026-04-03 17:30:00","60544","3.7","153.3","4.475","155.1","1020.15","14.93","79.09","114.9","0.0"],
    [1514048,"2026-04-03 17:40:00","60545","3.838","153.7","4.737","158.8","1020.288","14.9","78.73","85.8","0.0"],
    [1514049,"2026-04-03 17:50:00","60546","4.324","159.1","5.2589999999999995","157.5","1020.424","14.92","77.43","56.05","0.0"],
    [1514050,"2026-04-03 18:00:00","60547","3.9789999999999996","161.8","4.9","158.6","1020.552","14.94","79.04","28.53","0.0"],
    [1514051,"2026-04-03 18:10:00","60548","4.7410000000000005","164.9","5.455","160.0","1020.612","14.82","80.6","14.86","0.0"],
    [1514052,"2026-04-03 18:20:00","60549","4.38","168.8","5.325","168.1","1020.712","14.82","82.2","3.6830000000000003","0.0"],
    [1514053,"2026-04-03 18:30:00","60550","4.33","192.2","6.011","181.1","1020.793","14.81","82.6","0.10300000000000001","0.0"],
    [1514054,"2026-04-03 18:40:00","60551","3.036","201.6","4.965","195.7","1020.88","14.81","79.7","0.0","0.0"],
    [1514055,"2026-04-03 18:50:00","60552","3.984","196.0","5.39","191.2","1020.91","14.76","76.71","0.0","0.0"],
    [1514056,"2026-04-03 19:00:00","60553","3.5060000000000002","195.9","5.4879999999999995","187.1","1021.074","14.87","75.45","0.0","0.0"],
    [1514057,"2026-04-03 19:10:00","60554","3.387","197.9","5.129","191.3","1021.176","14.78","75.46","0.0","0.0"],
    [1514058,"2026-04-03 19:20:00","60555","3.608","200.7","5.2589999999999995","198.0","1021.223","14.73","75.6","0.0","0.0"],
    [1514059,"2026-04-03 19:30:00","60556","3.272","200.8","4.9","196.8","1021.364","14.71","74.82","0.0","0.0"],
    [1514060,"2026-04-03 19:40:00","60557","3.99","199.4","5.4879999999999995","206.0","1021.457","14.71","75.33","0.0","0.0"],
    [1514061,"2026-04-03 19:50:00","60558","3.737","196.2","5.357","193.0","1021.6","14.69","76.07","0.0","0.0"],
    [1514062,"2026-04-03 20:00:00","60559","2.725","200.9","4.541","197.0","1021.675","14.66","77.19","0.0","0.0"],
    [1514063,"2026-04-03 20:10:00","60560","2.838","209.9","4.573","202.2","1021.799","14.58","77.94","0.0","0.0"],
    [1514064,"2026-04-03 20:20:00","60561","3.175","203.0","5.129","221.2","1021.93","14.54","78.23","0.0","0.0"],
    [1514065,"2026-04-03 20:30:00","60562","3.0669999999999997","209.5","5.325","201.7","1022.013","14.51","78.68","0.0","0.0"],
    [1514066,"2026-04-03 20:40:00","60563","2.0380000000000003","209.2","3.7889999999999997","196.9","1022.176","14.5","79.21","0.0","0.0"],
    [1514067,"2026-04-03 20:50:00","60564","1.959","206.8","3.528","191.3","1022.282","14.5","80.1","0.0","0.0"],
    [1514068,"2026-04-03 21:00:00","60565","1.97","201.3","3.6260000000000003","215.3","1022.279","14.45","81.1","0.0","0.0"],
    [1514069,"2026-04-03 21:10:00","60566","2.0980000000000003","205.3","3.7569999999999997","199.5","1022.305","14.38","82.0","0.0","0.0"],
    [1514070,"2026-04-03 21:20:00","60567","2.434","205.7","3.528","207.4","1022.343","14.31","82.6","0.0","0.0"],
    [1514071,"2026-04-03 21:30:00","60568","2.255","206.8","3.5610000000000004","204.6","1022.388","14.26","82.9","0.0","0.0"],
    [1514072,"2026-04-03 21:40:00","60569","2.481","203.1","3.92","217.0","1022.279","14.27","83.1","0.0","0.0"],
    [1514073,"2026-04-03 21:50:00","60570","2.046","200.4","3.495","201.3","1022.412","14.26","83.6","0.0","0.0"],
    [1514074,"2026-04-03 22:00:00","60571","2.256","200.2","3.234","193.9","1022.593","14.24","84.1","0.0","0.0"],
    [1514075,"2026-04-03 22:10:00","60572","2.338","203.6","3.299","195.6","1022.653","14.23","84.4","0.0","0.0"],
    [1514076,"2026-04-03 22:20:00","60573","2.048","216.6","3.103","213.0","1022.596","14.2","84.6","0.0","0.0"],
    [1514077,"2026-04-03 22:30:00","60574","2.0180000000000002","220.3","3.234","224.8","1022.599","14.2","85.0","0.0","0.0"],
    [1514078,"2026-04-03 22:40:00","60575","0.9840000000000001","237.5","2.189","218.5","1022.672","14.02","85.3","0.0","0.0"],
    [1514079,"2026-04-03 22:50:00","60576","0.564","231.6","1.699","212.8","1022.738","13.8","84.8","0.0","0.0"],
    [1514080,"2026-04-03 23:00:00","60577","0.91","262.2","2.319","263.2","1022.784","13.69","84.2","0.0","0.0"],
    [1514081,"2026-04-03 23:10:00","60578","1.2209999999999999","254.8","1.7309999999999999","256.4","1022.826","13.5","83.2","0.0","0.0"],
    [1514082,"2026-04-03 23:20:00","60579","1.102","229.9","1.699","266.7","1022.797","13.49","83.2","0.0","0.0"],
    [1514083,"2026-04-03 23:30:00","60580","0.795","236.6","1.209","256.9","1022.799","13.51","83.4","0.0","0.0"],
    [1514084,"2026-04-03 23:40:00","60581","1.198","246.1","1.797","252.7","1022.832","13.53","83.5","0.0","0.0"],
    [1514085,"2026-04-03 23:50:00","60582","1.6469999999999998","251.1","2.6460000000000004","255.1","1022.859","13.41","83.5","0.0","0.0"],
    [1514086,"2026-04-04 00:00:00","60583","1.854","252.4","2.7439999999999998","260.0","1022.939","13.12","83.3","0.0","0.0"],
    [1514087,"2026-04-04 00:10:00","60584","1.501","247.6","2.385","253.6","1022.917","12.87","83.4","0.0","0.0"],
    [1514088,"2026-04-04 00:20:00","60585","1.716","257.3","3.071","266.4","1022.875","12.73","83.6","0.0","0.0"],
    [1514089,"2026-04-04 00:30:00","60586","2.105","266.5","2.94","251.7","1022.875","12.48","84.0","0.0","0.0"],
    [1514090,"2026-04-04 00:40:00","60587","1.9609999999999999","259.5","2.548","271.2","1022.809","12.3","84.4","0.0","0.0"],
    [1514091,"2026-04-04 00:50:00","60588","1.829","260.6","2.7769999999999997","268.4","1022.695","12.42","84.6","0.0","0.0"],
    [1514092,"2026-04-04 01:00:00","60589","1.686","256.0","2.287","258.0","1022.649","12.36","84.3","0.0","0.0"],
    [1514093,"2026-04-04 01:10:00","60590","2.066","263.0","2.6460000000000004","257.9","1022.684","12.38","84.2","0.0","0.0"],
    [1514094,"2026-04-04 01:20:00","60591","2.042","253.7","2.9730000000000003","266.3","1022.644","12.38","84.1","0.0","0.0"],
    [1514095,"2026-04-04 01:30:00","60592","1.9609999999999999","258.1","2.7439999999999998","262.1","1022.623","12.31","83.8","0.0","0.0"],
    [1514096,"2026-04-04 01:40:00","60593","2.094","260.7","2.94","267.2","1022.644","12.2","84.0","0.0","0.0"],
    [1514097,"2026-04-04 01:50:00","60594","1.643","260.0","2.5810000000000004","259.3","1022.626","12.17","84.2","0.0","0.0"],
    [1514098,"2026-04-04 02:00:00","60595","1.426","258.4","2.025","256.6","1022.592","12.08","84.3","0.0","0.0"],
    [1514099,"2026-04-04 02:10:00","60596","1.6219999999999999","265.1","2.842","265.8","1022.559","11.92","84.5","0.0","0.0"],
    [1514100,"2026-04-04 02:20:00","60597","1.939","260.0","3.005","262.4","1022.466","11.79","84.8","0.0","0.0"],
    [1514101,"2026-04-04 02:30:00","60598","1.9969999999999999","263.6","2.7110000000000003","273.1","1022.504","11.8","85.1","0.0","0.0"],
    [1514102,"2026-04-04 02:40:00","60599","1.746","265.3","2.548","264.9","1022.624","11.86","85.3","0.0","0.0"],
    [1514103,"2026-04-04 02:50:00","60600","0.941","286.3","1.2409999999999999","285.5","1022.535","12.34","85.4","0.0","0.0"],
    [1514104,"2026-04-04 03:00:00","60601","1.089","258.8","2.025","259.4","1022.441","12.57","84.8","0.0","0.0"],
    [1514105,"2026-04-04 03:10:00","60602","1.8","255.2","2.319","256.4","1022.355","12.36","84.0","0.0","0.0"],
    [1514106,"2026-04-04 03:20:00","60603","1.67","256.6","2.417","253.7","1022.277","12.21","84.0","0.0","0.0"],
    [1514107,"2026-04-04 03:30:00","60604","1.247","251.9","1.829","258.7","1022.169","12.05","83.8","0.0","0.0"],
    [1514108,"2026-04-04 03:40:00","60605","0.938","251.0","1.633","252.2","1022.139","12.18","83.8","0.0","0.0"],
    [1514109,"2026-04-04 03:50:00","60606","1.361","249.9","2.123","252.2","1022.099","12.05","83.0","0.0","0.0"],
    [1514110,"2026-04-04 04:00:00","60607","0.71","242.1","1.4369999999999998","266.6","1022.177","12.14","81.7","0.0","0.0"],
    [1514111,"2026-04-04 04:10:00","60608","0.895","331.6","1.535","280.3","1022.195","12.23","80.4","0.0","0.0"],
    [1514112,"2026-04-04 04:20:00","60609","0.978","27.42","1.405","34.14","1022.119","12.63","80.5","0.0","0.0"],
    [1514113,"2026-04-04 04:30:00","60610","1.27","28.78","1.568","32.52","1022.164","12.77","81.2","0.0","0.0"],
    [1514114,"2026-04-04 04:40:00","60611","0.87","38.05","1.47","35.18","1022.357","12.86","82.3","0.0","0.0"],
    [1514115,"2026-04-04 04:50:00","60612","0.7759999999999999","221.2","1.47","219.8","1022.457","12.78","83.2","0.0","0.0"],
    [1514116,"2026-04-04 05:00:00","60613","0.544","240.3","1.111","257.6","1022.598","12.53","83.8","0.0","0.0"],
    [1514117,"2026-04-04 05:10:00","60614","0.565","203.9","1.111","175.6","1022.596","12.43","83.9","0.0","0.0"],
    [1514118,"2026-04-04 05:20:00","60615","1.295","168.2","1.96","192.2","1022.672","12.74","84.2","0.0","0.0"],
    [1514119,"2026-04-04 05:30:00","60616","1.3330000000000002","166.4","1.797","160.2","1022.742","12.68","83.5","0.972","0.0"],
    [1514120,"2026-04-04 05:40:00","60617","0.838","135.0","1.209","118.6","1022.9","12.5","81.2","5.58","0.0"],
    [1514121,"2026-04-04 05:50:00","60618","1.2009999999999998","113.5","1.764","117.5","1022.968","12.6","78.04","12.27","0.0"],
    [1514122,"2026-04-04 06:00:00","60619","0.5539999999999999","160.7","1.274","154.6","1023.054","12.94","76.99","29.1","0.0"],
    [1514123,"2026-04-04 06:10:00","60620","0.9209999999999999","125.8","1.3719999999999999","120.0","1023.199","13.22","76.78","60.58","0.0"],
    [1514124,"2026-04-04 06:20:00","60621","0.841","119.7","1.47","96.8","1023.327","13.61","76.59","87.1","0.0"],
    [1514125,"2026-04-04 06:30:00","60622","0.982","99.4","1.405","116.7","1023.352","14.18","78.24","112.9","0.0"],
    [1514126,"2026-04-04 06:40:00","60623","0.635","74.69","1.4369999999999998","86.6","1023.456","14.45","79.66","141.9","0.0"],
    [1514127,"2026-04-04 06:50:00","60624","1.068","46.25","1.7309999999999999","28.33","1023.604","14.07","79.76","174.0","0.0"],
    [1514128,"2026-04-04 07:00:00","60625","0.166","16.73","0.784","22.23","1023.716","14.32","79.27","203.7","0.0"],
    [1514129,"2026-04-04 07:10:00","60626","0.17800000000000002","34.34","1.078","31.37","1023.753","14.25","78.14","236.8","0.0"],
    [1514130,"2026-04-04 07:20:00","60627","0.218","64.43","0.915","65.22","1023.828","14.72","77.53","266.9","0.0"],
    [1514131,"2026-04-04 07:30:00","60628","0.0","0.0","0.0","0.0","1023.871","14.94","76.44","297.2","0.0"],
    [1514132,"2026-04-04 07:40:00","60629","0.325","104.3","1.601","108.0","1023.91","14.81","76.18","328.5","0.0"],
    [1514133,"2026-04-04 07:50:00","60630","1.84","100.4","2.842","96.4","1023.951","14.1","76.65","370.7","0.0"],
    [1514134,"2026-04-04 08:00:00","60631","1.906","105.9","2.679","111.4","1024.032","14.17","77.73","405.5","0.0"],
    [1514135,"2026-04-04 08:10:00","60632","1.5190000000000001","105.9","1.829","112.6","1024.079","14.44","78.5","437.8","0.0"],
    [1514136,"2026-04-04 08:20:00","60633","1.653","101.0","2.352","92.0","1024.148","14.36","74.36","467.1","0.0"],
    [1514137,"2026-04-04 08:30:00","60634","2.168","86.8","2.907","88.8","1024.153","14.53","67.31","497.3","0.0"],
    [1514138,"2026-04-04 08:40:00","60635","2.215","82.3","2.7769999999999997","86.2","1024.143","14.59","70.14","528.2","0.0"],
    [1514139,"2026-04-04 08:50:00","60636","1.14","57.08","2.287","46.05","1024.185","14.82","73.08","553.2","0.0"],
    [1514140,"2026-04-04 09:00:00","60637","1.101","123.0","1.568","124.3","1024.277","15.01","73.04","579.2","0.0"],
    [1514141,"2026-04-04 09:10:00","60638","1.567","129.5","2.548","144.8","1024.313","14.91","71.89","607.6","0.0"],
    [1514142,"2026-04-04 09:20:00","60639","1.959","141.3","2.417","139.4","1024.262","14.74","72.96","636.1","0.0"],
    [1514143,"2026-04-04 09:30:00","60640","2.274","146.7","2.94","151.5","1024.262","14.8","73.74","661.3","0.0"],
    [1514144,"2026-04-04 09:40:00","60641","2.678","160.4","3.1689999999999996","161.3","1024.169","14.71","75.15","687.6","0.0"],
    [1514145,"2026-04-04 09:50:00","60642","3.552","159.3","4.965","175.5","1024.142","14.7","75.22","707.7","0.0"],
    [1514146,"2026-04-04 10:00:00","60643","4.0969999999999995","187.4","4.965","175.5","1024.041","14.79","75.08","729.9","0.0"],
    [1514147,"2026-04-04 10:10:00","60644","4.3180000000000005","177.5","5.684","184.0","1023.995","15.01","77.42","747.8","0.0"],
    [1514148,"2026-04-04 10:20:00","60645","5.103","175.3","6.664","177.0","1023.929","15.24","77.46","765.6","0.0"],
    [1514149,"2026-04-04 10:30:00","60646","5.696000000000001","178.9","7.056","174.6","1023.772","15.22","80.2","785.7","0.0"],
    [1514150,"2026-04-04 10:40:00","60647","5.876","174.8","7.546","168.4","1023.806","15.34","79.78","799.0","0.0"],
    [1514151,"2026-04-04 10:50:00","60648","5.122000000000001","180.0","7.023","166.0","1023.85","15.43","78.83","813.0","0.0"],
    [1514152,"2026-04-04 11:00:00","60649","5.023","188.5","6.37","180.4","1023.827","15.82","72.62","826.0","0.0"],
    [1514153,"2026-04-04 11:10:00","60650","4.396","180.1","6.697","176.3","1023.813","16.49","67.11","829.0","0.0"],
    [1514154,"2026-04-04 11:20:00","60651","5.849","176.0","7.4479999999999995","166.8","1023.798","15.81","75.37","840.0","0.0"],
    [1514155,"2026-04-04 11:30:00","60652","5.23","186.3","6.5329999999999995","185.1","1023.822","15.77","76.81","849.0","0.0"],
    [1514156,"2026-04-04 11:40:00","60653","5.015","180.3","6.729","179.0","1023.846","16.19","72.06","851.0","0.0"],
    [1514157,"2026-04-04 11:50:00","60654","4.967","184.9","6.042999999999999","185.7","1023.773","15.91","74.56","854.0","0.0"],
    [1514158,"2026-04-04 12:00:00","60655","4.887","185.4","6.403","182.1","1023.742","16.34","68.79","855.0","0.0"],
    [1514159,"2026-04-04 12:10:00","60656","5.081","187.5","6.599","189.1","1023.694","16.56","65.62","854.0","0.0"],
    [1514160,"2026-04-04 12:20:00","60657","5.186","188.6","6.501","185.2","1023.57","16.57","60.42","852.0","0.0"],
    [1514161,"2026-04-04 12:30:00","60658","5.029","183.1","7.218999999999999","172.3","1023.579","16.65","61.03","848.0","0.0"],
    [1514162,"2026-04-04 12:40:00","60659","4.475","185.9","5.978","190.4","1023.532","16.32","64.8","843.0","0.0"],
    [1514163,"2026-04-04 12:50:00","60660","4.846","190.3","6.5329999999999995","192.9","1023.442","16.76","57.7","837.0","0.0"],
    [1514164,"2026-04-04 13:00:00","60661","5.274","184.6","7.0889999999999995","191.1","1023.347","16.78","55.41","827.0","0.0"],
    [1514165,"2026-04-04 13:10:00","60662","4.9830000000000005","184.0","6.272","189.8","1023.256","16.22","61.11","817.0","0.0"],
    [1514166,"2026-04-04 13:20:00","60663","5.007","186.7","6.37","188.5","1023.154","16.08","62.89","805.0","0.0"],
    [1514167,"2026-04-04 13:30:00","60664","4.7330000000000005","183.7","6.272","184.0","1023.049","16.21","64.44","790.7","0.0"],
    [1514168,"2026-04-04 13:40:00","60665","4.583","193.9","6.403","195.7","1022.979","16.63","60.9","781.0","0.0"],
    [1514169,"2026-04-04 13:50:00","60666","5.55","186.8","6.697","183.5","1022.847","16.8","58.48","763.7","0.0"],
    [1514170,"2026-04-04 14:00:00","60667","5.192","182.9","6.272","182.4","1022.779","16.78","60.23","745.2","0.0"],
    [1514171,"2026-04-04 14:10:00","60668","5.602","185.4","6.957999999999999","188.0","1022.721","16.51","62.16","725.8","0.0"],
    [1514172,"2026-04-04 14:20:00","60669","5.144","190.9","6.566","188.9","1022.64","16.87","59.37","700.2","0.0"],
    [1514173,"2026-04-04 14:30:00","60670","5.165","191.3","6.7620000000000005","185.5","1022.605","16.99","56.57","678.8","0.0"],
    [1514174,"2026-04-04 14:40:00","60671","5.49","187.2","7.187","180.5","1022.523","16.95","54.4","656.3","0.0"],
    [1514175,"2026-04-04 14:50:00","60672","4.67","191.7","6.501","179.5","1022.475","16.85","55.78","630.3","0.0"],
    [1514176,"2026-04-04 15:00:00","60673","4.919","184.1","6.337000000000001","189.1","1022.438","16.81","55.92","600.0","0.0"],
    [1514177,"2026-04-04 15:10:00","60674","4.947","188.0","6.893","189.5","1022.396","17.03","55.49","569.9","0.0"],
    [1514178,"2026-04-04 15:20:00","60675","5.277","187.9","7.382999999999999","208.5","1022.376","16.79","59.16","538.8","0.0"],
    [1514179,"2026-04-04 15:30:00","60676","4.717","191.1","6.337000000000001","191.3","1022.47","16.94","58.41","509.5","0.0"],
    [1514180,"2026-04-04 15:40:00","60677","4.761","195.4","6.141","197.6","1022.399","17.17","55.33","479.2","0.0"],
    [1514181,"2026-04-04 15:50:00","60678","4.777","193.8","6.729","185.5","1022.381","17.35","52.2","446.4","0.0"],
    [1514182,"2026-04-04 16:00:00","60679","3.37","210.9","5.292000000000001","194.2","1022.395","17.62","50.88","412.4","0.0"],
    [1514183,"2026-04-04 16:10:00","60680","3.8080000000000003","210.4","6.337000000000001","221.0","1022.374","17.84","49.61","378.9","0.0"],
    [1514184,"2026-04-04 16:20:00","60681","3.464","208.3","6.141","213.6","1022.357","17.7","51.0","344.9","0.0"],
    [1514185,"2026-04-04 16:30:00","60682","3.155","213.5","5.978","215.2","1022.374","17.88","50.28","312.2","0.0"],
    [1514186,"2026-04-04 16:40:00","60683","2.928","210.5","5.1610000000000005","193.8","1022.358","17.89","49.5","278.1","0.0"],
    [1514187,"2026-04-04 16:50:00","60684","2.694","224.2","4.965","225.9","1022.411","18.06","49.01","244.0","0.0"],
    [1514188,"2026-04-04 17:00:00","60685","2.435","225.7","4.835","227.4","1022.454","17.98","48.72","210.4","0.0"],
    [1514189,"2026-04-04 17:10:00","60686","3.325","218.4","5.847","235.5","1022.449","17.83","48.48","177.7","0.0"],
    [1514190,"2026-04-04 17:20:00","60687","3.4419999999999997","221.7","6.403","228.5","1022.47","17.59","49.06","147.6","0.0"],
    [1514191,"2026-04-04 17:30:00","60688","3.535","216.7","5.88","216.5","1022.431","17.47","50.14","117.5","0.0"],
    [1514192,"2026-04-04 17:40:00","60689","3.678","217.8","6.827000000000001","221.1","1022.447","17.31","52.04","88.2","0.0"],
    [1514193,"2026-04-04 17:50:00","60690","3.7239999999999998","215.9","5.945","214.3","1022.453","17.09","54.09","58.17","0.0"],
    [1514194,"2026-04-04 18:00:00","60691","3.358","221.3","6.011","217.2","1022.473","16.97","55.07","33.65","0.0"],
    [1514195,"2026-04-04 18:10:00","60692","3.1319999999999997","220.2","5.586","218.6","1022.529","16.8","55.82","16.62","0.0"],
    [1514196,"2026-04-04 18:20:00","60693","4.075","217.7","5.651","225.8","1022.489","16.63","55.79","5.023","0.0"],
    [1514197,"2026-04-04 18:30:00","60694","3.3710000000000004","218.6","5.7170000000000005","220.3","1022.511","16.56","54.93","0.447","0.0"],
    [1514198,"2026-04-04 18:40:00","60695","3.1519999999999997","215.4","6.109","214.7","1022.533","16.56","53.88","0.0","0.0"],
    [1514199,"2026-04-04 18:50:00","60696","3.427","221.5","6.1739999999999995","231.9","1022.547","16.44","53.76","0.0","0.0"],
    [1514200,"2026-04-04 19:00:00","60697","2.45","229.3","4.312","208.6","1022.657","16.41","53.16","0.0","0.0"],
    [1514201,"2026-04-04 19:10:00","60698","3.0869999999999997","219.6","4.769","220.1","1022.806","16.47","51.93","0.0","0.0"],
    [1514202,"2026-04-04 19:20:00","60699","2.062","238.3","3.6910000000000003","209.4","1022.983","16.44","51.21","0.0","0.0"],
    [1514203,"2026-04-04 19:30:00","60700","1.4340000000000002","240.9","2.7439999999999998","219.5","1023.157","16.39","51.17","0.0","0.0"],
    [1514204,"2026-04-04 19:40:00","60701","0.855","243.4","1.993","226.9","1023.225","16.35","51.36","0.0","0.0"],
    [1514205,"2026-04-04 19:50:00","60702","1.4140000000000001","224.8","2.417","212.9","1023.296","16.31","51.99","0.0","0.0"],
    [1514206,"2026-04-04 20:00:00","60703","1.2009999999999998","226.1","2.025","221.2","1023.459","16.24","53.82","0.0","0.0"],
    [1514207,"2026-04-04 20:10:00","60704","1.2770000000000001","226.5","2.385","217.0","1023.565","16.09","56.26","0.0","0.0"],
    [1514208,"2026-04-04 20:20:00","60705","1.111","225.7","2.483","214.2","1023.659","15.96","58.75","0.0","0.0"],
    [1514209,"2026-04-04 20:30:00","60706","1.368","222.9","2.7110000000000003","223.4","1023.74","15.87","60.96","0.0","0.0"],
    [1514210,"2026-04-04 20:40:00","60707","1.315","219.9","2.025","216.7","1023.826","15.77","63.2","0.0","0.0"],
    [1514211,"2026-04-04 20:50:00","60708","0.735","238.0","2.679","268.1","1023.853","15.69","64.48","0.0","0.0"],
    [1514212,"2026-04-04 21:00:00","60709","1.266","231.7","2.254","221.4","1023.892","15.6","65.47","0.0","0.0"],
    [1514213,"2026-04-04 21:10:00","60710","1.276","235.5","2.0909999999999997","210.4","1023.804","15.54","66.44","0.0","0.0"],
    [1514214,"2026-04-04 21:20:00","60711","0.9890000000000001","242.9","1.797","257.0","1023.778","15.45","67.24","0.0","0.0"],
    [1514215,"2026-04-04 21:30:00","60712","0.94","245.0","2.319","254.9","1023.79","15.35","68.01","0.0","0.0"],
    [1514216,"2026-04-04 21:40:00","60713","1.6569999999999998","230.9","2.7769999999999997","232.6","1023.765","15.25","69.77","0.0","0.0"],
    [1514217,"2026-04-04 21:50:00","60714","1.546","230.0","2.7110000000000003","236.3","1023.732","15.19","71.62","0.0","0.0"],
    [1514218,"2026-04-04 22:00:00","60715","1.2790000000000001","229.4","2.221","227.7","1023.777","15.15","73.18","0.0","0.0"],
    [1514219,"2026-04-04 22:10:00","60716","1.335","223.2","2.548","213.6","1023.729","15.09","74.87","0.0","0.0"],
    [1514220,"2026-04-04 22:20:00","60717","1.392","229.8","2.548","222.8","1023.687","15.04","76.77","0.0","0.0"],
    [1514221,"2026-04-04 22:30:00","60718","2.15","239.6","3.43","257.7","1023.725","14.81","78.55","0.0","0.0"],
    [1514222,"2026-04-04 22:40:00","60719","2.373","237.7","3.822","240.7","1023.716","14.69","75.57","0.0","0.0"],
    [1514223,"2026-04-04 22:50:00","60720","2.134","244.9","3.299","222.4","1023.671","14.82","71.12","0.0","0.0"],
    [1514224,"2026-04-04 23:00:00","60721","2.161","245.3","3.43","252.0","1023.622","14.73","67.87","0.0","0.0"],
    [1514225,"2026-04-04 23:10:00","60722","1.932","250.9","2.94","265.9","1023.62","14.61","62.67","0.0","0.0"],
    [1514226,"2026-04-04 23:20:00","60723","1.92","256.4","3.299","275.5","1023.625","14.22","61.37","0.0","0.0"],
    [1514227,"2026-04-04 23:30:00","60724","2.408","251.6","3.887","251.9","1023.616","14.1","60.08","0.0","0.0"],
    [1514228,"2026-04-04 23:40:00","60725","3.272","250.8","4.933","249.3","1023.574","14.12","59.17","0.0","0.0"],
    [1514229,"2026-04-04 23:50:00","60726","3.1439999999999997","250.3","4.508","258.9","1023.552","14.15","58.36","0.0","0.0"],
    [1514230,"2026-04-05 00:00:00","60727","2.92","246.2","4.541","258.7","1023.532","14.06","58.25","0.0","0.0"],
    [1514231,"2026-04-05 00:10:00","60728","2.819","249.8","4.2139999999999995","263.0","1023.458","13.77","58.9","0.0","0.0"],
    [1514232,"2026-04-05 00:20:00","60729","3.1060000000000003","250.3","4.573","261.6","1023.487","13.52","59.92","0.0","0.0"],
    [1514233,"2026-04-05 00:30:00","60730","3.237","249.2","4.867","258.2","1023.495","13.42","60.4","0.0","0.0"],
    [1514234,"2026-04-05 00:40:00","60731","2.5","252.7","3.822","255.7","1023.492","13.52","60.08","0.0","0.0"],
    [1514235,"2026-04-05 00:50:00","60732","2.6860000000000004","255.5","4.606","258.0","1023.453","13.26","60.63","0.0","0.0"],
    [1514236,"2026-04-05 01:00:00","60733","2.513","257.5","3.7889999999999997","269.5","1023.388","12.95","61.88","0.0","0.0"],
    [1514237,"2026-04-05 01:10:00","60734","2.379","257.3","4.083","261.3","1023.362","12.83","62.84","0.0","0.0"],
    [1514238,"2026-04-05 01:20:00","60735","2.2359999999999998","249.7","3.7239999999999998","243.4","1023.338","12.74","63.48","0.0","0.0"],
    [1514239,"2026-04-05 01:30:00","60736","3.112","251.6","4.377","255.2","1023.308","12.59","64.03","0.0","0.0"],
    [1514240,"2026-04-05 01:40:00","60737","3.138","251.8","4.247","252.9","1023.264","12.59","64.26","0.0","0.0"],
    [1514241,"2026-04-05 01:50:00","60738","2.314","258.1","3.6260000000000003","266.6","1023.184","12.75","64.05","0.0","0.0"],
    [1514242,"2026-04-05 02:00:00","60739","2.428","254.5","3.659","248.5","1023.21","12.88","63.66","0.0","0.0"],
    [1514243,"2026-04-05 02:10:00","60740","1.9409999999999998","253.4","3.234","252.1","1023.137","13.01","63.26","0.0","0.0"],
    [1514244,"2026-04-05 02:20:00","60741","1.871","254.3","3.005","252.2","1023.126","13.07","62.9","0.0","0.0"],
    [1514245,"2026-04-05 02:30:00","60742","2.324","256.7","3.365","259.2","1023.034","13.08","62.65","0.0","0.0"],
    [1514246,"2026-04-05 02:40:00","60743","2.219","252.3","3.43","256.0","1022.996","13.2","62.21","0.0","0.0"],
    [1514247,"2026-04-05 02:50:00","60744","2.09","257.8","3.7889999999999997","258.1","1022.983","13.28","61.58","0.0","0.0"],
    [1514248,"2026-04-05 03:00:00","60745","2.15","252.4","3.6910000000000003","255.5","1022.979","13.32","61.54","0.0","0.0"],
    [1514249,"2026-04-05 03:10:00","60746","2.6319999999999997","249.5","3.7569999999999997","256.2","1022.985","13.55","60.49","0.0","0.0"],
    [1514250,"2026-04-05 03:20:00","60747","2.307","241.4","3.463","254.4","1023.018","13.53","60.28","0.0","0.0"],
    [1514251,"2026-04-05 03:30:00","60748","2.378","251.8","3.43","265.6","1022.976","13.56","60.03","0.0","0.0"],
    [1514252,"2026-04-05 03:40:00","60749","2.318","248.8","3.6260000000000003","260.0","1022.96","13.53","59.89","0.0","0.0"],
    [1514253,"2026-04-05 03:50:00","60750","1.79","244.5","3.005","250.2","1022.954","13.34","60.53","0.0","0.0"],
    [1514254,"2026-04-05 04:00:00","60751","2.38","260.8","3.528","250.9","1022.955","13.06","61.28","0.0","0.0"],
    [1514255,"2026-04-05 04:10:00","60752","2.053","252.1","3.299","260.1","1022.966","12.9","62.36","0.0","0.0"],
    [1514256,"2026-04-05 04:20:00","60753","1.847","261.2","3.103","254.3","1022.978","12.82","62.62","0.0","0.0"],
    [1514257,"2026-04-05 04:30:00","60754","2.224","262.3","3.6260000000000003","255.4","1022.968","12.86","62.85","0.0","0.0"],
    [1514258,"2026-04-05 04:40:00","60755","1.83","256.4","3.0380000000000003","252.8","1023.011","12.82","63.15","0.0","0.0"],
    [1514259,"2026-04-05 04:50:00","60756","1.111","237.6","2.483","244.3","1023.101","12.91","62.77","0.0","0.0"],
    [1514260,"2026-04-05 05:00:00","60757","0.765","249.9","1.8619999999999999","252.9","1023.116","12.84","62.73","0.0","0.0"],
    [1514261,"2026-04-05 05:10:00","60758","1.319","231.9","2.5810000000000004","222.3","1023.149","12.71","63.03","0.0","0.0"],
    [1514262,"2026-04-05 05:20:00","60759","2.237","249.7","3.659","269.6","1023.129","12.51","63.63","0.0","0.0"],
    [1514263,"2026-04-05 05:30:00","60760","2.542","251.6","3.9530000000000003","266.0","1023.193","12.22","64.4","1.7109999999999999","0.0"],
    [1514264,"2026-04-05 05:40:00","60761","2.542","252.1","4.2139999999999995","254.0","1023.301","12.04","65.27","10.03","0.0"],
    [1514265,"2026-04-05 05:50:00","60762","2.085","251.3","3.659","259.5","1023.409","11.96","65.65","20.28","0.0"],
    [1514266,"2026-04-05 06:00:00","60763","2.155","250.8","3.495","256.6","1023.445","11.91","65.85","32.62","0.0"],
    [1514267,"2026-04-05 06:10:00","60764","1.9669999999999999","253.1","3.822","258.4","1023.479","12.0","66.01","62.86","0.0"],
    [1514268,"2026-04-05 06:20:00","60765","2.0580000000000003","252.4","3.887","261.4","1023.545","12.16","65.51","93.7","0.0"],
    [1514269,"2026-04-05 06:30:00","60766","2.263","251.3","3.92","261.6","1023.694","12.3","65.11","123.8","0.0"],
    [1514270,"2026-04-05 06:40:00","60767","2.9330000000000003","247.2","4.737","248.2","1023.814","12.42","64.56","151.8","0.0"],
    [1514271,"2026-04-05 06:50:00","60768","1.9769999999999999","247.8","3.365","246.5","1023.934","12.98","63.44","183.8","0.0"],
    [1514272,"2026-04-05 07:00:00","60769","2.115","242.8","3.7239999999999998","266.0","1023.983","13.79","61.77","218.4","0.0"],
    [1514273,"2026-04-05 07:10:00","60770","2.658","236.0","3.92","224.8","1024.044","14.21","63.59","254.1","0.0"],
    [1514274,"2026-04-05 07:20:00","60771","2.678","241.5","4.4430000000000005","257.0","1024.104","14.18","65.21","288.0","0.0"],
    [1514275,"2026-04-05 07:30:00","60772","2.188","242.8","3.593","227.2","1024.161","14.38","67.05","321.2","0.0"],
    [1514276,"2026-04-05 07:40:00","60773","2.017","238.3","4.279","202.3","1024.162","14.8","70.8","355.0","0.0"],
    [1514277,"2026-04-05 07:50:00","60774","2.026","236.5","3.495","204.8","1024.274","14.65","74.64","389.7","0.0"],
    [1514278,"2026-04-05 08:00:00","60775","1.719","231.8","2.94","228.8","1024.343","14.68","75.15","421.3","0.0"],
    [1514279,"2026-04-05 08:10:00","60776","2.113","228.4","3.822","208.2","1024.48","14.9","74.95","450.2","0.0"],
    [1514280,"2026-04-05 08:20:00","60777","2.063","239.9","3.6910000000000003","230.4","1024.576","15.21","76.23","483.1","0.0"],
    [1514281,"2026-04-05 08:30:00","60778","1.824","240.6","3.822","278.8","1024.616","15.59","76.72","511.3","0.0"],
    [1514282,"2026-04-05 08:40:00","60779","2.213","220.5","5.031000000000001","209.4","1024.689","15.85","77.0","539.3","0.0"],
    [1514283,"2026-04-05 08:50:00","60780","2.082","216.8","3.9530000000000003","208.0","1024.731","16.21","78.12","569.0","0.0"],
    [1514284,"2026-04-05 09:00:00","60781","4.027","196.3","5.7170000000000005","184.1","1024.796","16.08","79.85","601.8","0.0"],
    [1514285,"2026-04-05 09:10:00","60782","3.2430000000000003","215.1","4.867","223.6","1024.922","16.01","82.3","629.4","0.0"],
    [1514286,"2026-04-05 09:20:00","60783","3.617","195.8","5.684","199.8","1024.98","16.28","80.3","656.1","0.0"],
    [1514287,"2026-04-05 09:30:00","60784","4.189","195.0","5.978","198.3","1025.028","15.9","82.4","681.8","0.0"],
    [1514288,"2026-04-05 09:40:00","60785","5.077","189.5","6.141","189.2","1025.082","15.63","84.7","707.6","0.0"],
    [1514289,"2026-04-05 09:50:00","60786","5.466","187.3","6.795","191.2","1025.172","15.61","84.2","729.4","0.0"],
    [1514290,"2026-04-05 10:00:00","60787","5.287000000000001","187.7","6.599","188.6","1025.241","15.67","83.8","749.4","0.0"],
    [1514291,"2026-04-05 10:10:00","60788","5.391","188.5","6.957999999999999","194.9","1025.27","15.6","84.2","767.8","0.0"],
    [1514292,"2026-04-05 10:20:00","60789","5.267","188.1","7.218999999999999","188.2","1025.327","15.62","84.5","784.1","0.0"],
    [1514293,"2026-04-05 10:30:00","60790","4.837","185.6","6.5329999999999995","187.0","1025.319","15.5","86.1","796.0","0.0"],
    [1514294,"2026-04-05 10:40:00","60791","4.846","187.7","6.697","198.2","1025.31","15.43","87.9","810.0","0.0"],
    [1514295,"2026-04-05 10:50:00","60792","4.518","188.1","6.5329999999999995","204.8","1025.351","15.54","87.7","822.0","0.0"],
    [1514296,"2026-04-05 11:00:00","60793","5.232","187.0","6.435","186.2","1025.34","15.53","87.9","833.0","0.0"],
    [1514297,"2026-04-05 11:10:00","60794","5.656000000000001","187.4","7.121","183.1","1025.308","15.5","88.4","842.0","0.0"],
    [1514298,"2026-04-05 11:20:00","60795","5.575","188.8","7.382999999999999","184.5","1025.217","15.61","88.0","851.0","0.0"],
    [1514299,"2026-04-05 11:30:00","60796","5.236000000000001","190.7","8.2","186.7","1025.206","15.73","87.6","857.0","0.0"],
    [1514300,"2026-04-05 11:40:00","60797","5.047","205.6","8.33","207.6","1025.262","15.95","86.0","863.0","0.0"],
    [1514301,"2026-04-05 11:50:00","60798","5.6370000000000005","201.1","8.46","189.9","1025.221","16.31","81.3","866.0","0.0"],
    [1514302,"2026-04-05 12:00:00","60799","6.895","192.6","8.66","191.7","1025.1","16.18","80.2","865.0","0.0"],
    [1514303,"2026-04-05 12:10:00","60800","5.605","201.2","8.49","186.9","1025.09","16.47","79.3","861.0","0.0"],
    [1514304,"2026-04-05 12:20:00","60801","5.667999999999999","202.7","8.33","207.8","1025.11","16.59","77.86","858.0","0.0"],
    [1514305,"2026-04-05 12:30:00","60802","5.492999999999999","198.4","8.66","202.1","1025.111","16.72","77.23","847.0","0.0"],
    [1514306,"2026-04-05 12:40:00","60803","5.308","200.6","8.26","195.6","1025.074","16.84","76.86","845.0","0.0"],
    [1514307,"2026-04-05 12:50:00","60804","4.901","198.8","7.218999999999999","213.3","1025.069","16.93","76.77","850.0","0.0"],
    [1514308,"2026-04-05 13:00:00","60805","4.502","200.9","7.285","188.9","1025.059","16.94","76.78","840.0","0.0"],
    [1514309,"2026-04-05 13:10:00","60806","4.4030000000000005","208.1","7.481","238.5","1025.034","17.2","74.89","833.0","0.0"],
    [1514310,"2026-04-05 13:20:00","60807","4.713","203.0","7.775","203.1","1024.969","17.24","74.31","818.0","0.0"],
    [1514311,"2026-04-05 13:30:00","60808","6.303999999999999","197.9","8.66","211.6","1024.883","16.8","75.65","805.0","0.0"],
    [1514312,"2026-04-05 13:40:00","60809","6.189","204.6","8.85","208.6","1024.892","16.69","76.83","797.9","0.0"],
    [1514313,"2026-04-05 13:50:00","60810","6.781000000000001","200.0","8.89","204.8","1024.849","16.65","77.42","778.9","0.0"],
    [1514314,"2026-04-05 14:00:00","60811","6.74","198.4","9.73","192.1","1024.789","16.64","77.74","757.7","0.0"],
    [1514315,"2026-04-05 14:10:00","60812","6.1610000000000005","204.7","9.57","200.3","1024.76","16.74","77.05","737.4","0.0"],
    [1514316,"2026-04-05 14:20:00","60813","4.97","210.1","8.07","209.3","1024.731","16.95","76.1","720.0","0.0"],
    [1514317,"2026-04-05 14:30:00","60814","4.981","212.0","8.1","222.2","1024.685","16.89","76.11","684.3","0.0"],
    [1514318,"2026-04-05 14:40:00","60815","4.69","211.2","7.644","188.4","1024.641","17.09","75.49","669.3","0.0"],
    [1514319,"2026-04-05 14:50:00","60816","4.827","212.7","8.56","206.6","1024.627","16.92","75.93","638.8","0.0"],
    [1514320,"2026-04-05 15:00:00","60817","4.395","217.9","8.17","232.7","1024.631","16.91","76.44","611.8","0.0"],
    [1514321,"2026-04-05 15:10:00","60818","5.937","222.1","8.95","229.1","1024.476","16.67","76.67","580.6","0.0"],
    [1514322,"2026-04-05 15:20:00","60819","4.665","216.4","7.4479999999999995","227.7","1024.47","16.89","75.59","555.0","0.0"],
    [1514323,"2026-04-05 15:30:00","60820","5.11","210.9","8.53","215.8","1024.44","16.85","75.65","521.3","0.0"],
    [1514324,"2026-04-05 15:40:00","60821","5.013999999999999","209.6","7.938","207.1","1024.451","16.76","76.8","489.5","0.0"],
    [1514325,"2026-04-05 15:50:00","60822","5.553999999999999","208.7","7.6770000000000005","213.9","1024.441","16.63","77.89","453.5","0.0"],
    [1514326,"2026-04-05 16:00:00","60823","5.43","215.4","8.75","216.3","1024.457","16.65","77.93","420.9","0.0"],
    [1514327,"2026-04-05 16:10:00","60824","5.084","216.5","9.41","216.0","1024.437","16.74","76.77","390.0","0.0"],
    [1514328,"2026-04-05 16:20:00","60825","4.862","217.4","8.04","232.2","1024.411","16.84","75.81","355.8","0.0"],
    [1514329,"2026-04-05 16:30:00","60826","3.8539999999999996","213.5","7.775","226.9","1024.407","16.99","74.82","320.3","0.0"],
    [1514330,"2026-04-05 16:40:00","60827","4.177","218.8","6.631","231.6","1024.354","17.01","74.17","286.2","0.0"],
    [1514331,"2026-04-05 16:50:00","60828","4.823","217.7","8.56","238.6","1024.313","16.86","73.98","251.3","0.0"],
    [1514332,"2026-04-05 17:00:00","60829","4.427","218.2","7.6770000000000005","216.1","1024.366","16.88","73.22","222.5","0.0"],
    [1514333,"2026-04-05 17:10:00","60830","5.202000000000001","221.9","8.66","212.8","1024.411","16.68","72.03","185.0","0.0"],
    [1514334,"2026-04-05 17:20:00","60831","4.505","219.6","7.742000000000001","207.3","1024.351","16.77","69.46","160.2","0.0"],
    [1514335,"2026-04-05 17:30:00","60832","4.457","221.1","7.154","216.0","1024.303","16.83","64.4","124.2","0.0"],
    [1514336,"2026-04-05 17:40:00","60833","5.577999999999999","220.4","9.15","224.9","1024.233","16.77","62.99","97.4","0.0"],
    [1514337,"2026-04-05 17:50:00","60834","4.686","221.4","7.742000000000001","222.2","1024.295","16.79","62.04","57.25","0.0"],
    [1514338,"2026-04-05 18:00:00","60835","4.541","216.4","6.566","216.2","1024.299","16.89","58.12","43.37","0.0"],
    [1514339,"2026-04-05 18:10:00","60836","4.802","218.5","7.415","222.8","1024.29","16.89","55.65","16.17","0.0"],
    [1514340,"2026-04-05 18:20:00","60837","4.002","209.7","6.795","236.6","1024.279","16.75","57.15","4.379","0.0"],
    [1514341,"2026-04-05 18:30:00","60838","4.1","206.4","6.272","206.2","1024.265","16.47","60.69","0.491","0.0"],
    [1514342,"2026-04-05 18:40:00","60839","4.155","210.8","7.872999999999999","207.0","1024.295","16.43","59.53","0.0","0.0"],
    [1514343,"2026-04-05 18:50:00","60840","4.062","215.7","6.827000000000001","218.1","1024.376","16.5","56.83","0.0","0.0"],
    [1514344,"2026-04-05 19:00:00","60841","3.935","217.8","6.7620000000000005","235.1","1024.518","16.53","55.05","0.0","0.0"],
    [1514345,"2026-04-05 19:10:00","60842","4.066","218.0","6.664","228.7","1024.672","16.57","53.36","0.0","0.0"],
    [1514346,"2026-04-05 19:20:00","60843","3.7119999999999997","216.0","5.88","217.9","1024.834","16.63","51.89","0.0","0.0"],
    [1514347,"2026-04-05 19:30:00","60844","3.326","217.9","5.553","217.7","1024.962","16.56","52.91","0.0","0.0"],
    [1514348,"2026-04-05 19:40:00","60845","3.888","220.4","6.435","216.7","1024.989","16.31","56.99","0.0","0.0"],
    [1514349,"2026-04-05 19:50:00","60846","4.115","218.7","5.912999999999999","216.6","1025.022","16.3","56.95","0.0","0.0"],
    [1514350,"2026-04-05 20:00:00","60847","4.053999999999999","221.6","5.815","214.5","1025.102","16.34","55.89","0.0","0.0"],
    [1514351,"2026-04-05 20:10:00","60848","4.109","219.3","6.239","211.0","1025.227","16.38","55.64","0.0","0.0"],
    [1514352,"2026-04-05 20:20:00","60849","3.3810000000000002","218.6","4.998","239.9","1025.38","16.28","57.23","0.0","0.0"],
    [1514353,"2026-04-05 20:30:00","60850","3.9","217.9","5.553","212.7","1025.396","16.1","61.28","0.0","0.0"],
    [1514354,"2026-04-05 20:40:00","60851","3.987","218.1","5.4879999999999995","211.3","1025.407","15.9","64.93","0.0","0.0"],
    [1514355,"2026-04-05 20:50:00","60852","4.287","217.9","6.9910000000000005","216.1","1025.414","15.76","67.7","0.0","0.0"],
    [1514356,"2026-04-05 21:00:00","60853","3.755","217.2","5.553","215.9","1025.479","15.61","70.64","0.0","0.0"],
    [1514357,"2026-04-05 21:10:00","60854","4.101","218.5","6.37","217.7","1025.562","15.5","72.51","0.0","0.0"],
    [1514358,"2026-04-05 21:20:00","60855","4.215","221.2","6.011","225.4","1025.557","15.5","72.2","0.0","0.0"],
    [1514359,"2026-04-05 21:30:00","60856","3.549","221.7","5.586","215.2","1025.61","15.51","71.69","0.0","0.0"],
    [1514360,"2026-04-05 21:40:00","60857","2.738","224.2","5.063","217.0","1025.648","15.46","72.5","0.0","0.0"],
    [1514361,"2026-04-05 21:50:00","60858","1.992","226.2","3.43","216.5","1025.703","15.39","73.91","0.0","0.0"],
    [1514362,"2026-04-05 22:00:00","60859","1.194","236.4","1.9269999999999998","212.0","1025.769","15.26","75.23","0.0","0.0"],
    [1514363,"2026-04-05 22:10:00","60860","1.5719999999999998","246.9","3.103","253.2","1025.776","15.17","76.22","0.0","0.0"],
    [1514364,"2026-04-05 22:20:00","60861","1.4469999999999998","241.9","3.071","227.7","1025.769","15.12","77.45","0.0","0.0"],
    [1514365,"2026-04-05 22:30:00","60862","1.315","236.3","2.287","261.4","1025.866","15.07","79.21","0.0","0.0"],
    [1514366,"2026-04-05 22:40:00","60863","1.435","240.8","2.679","219.0","1025.886","14.98","81.1","0.0","0.0"],
    [1514367,"2026-04-05 22:50:00","60864","1.307","246.7","2.352","253.6","1025.904","14.86","81.9","0.0","0.0"],
    [1514368,"2026-04-05 23:00:00","60865","1.173","249.6","2.45","254.0","1025.92","14.77","81.7","0.0","0.0"],
    [1514369,"2026-04-05 23:10:00","60866","1.214","245.2","2.254","264.2","1025.952","14.67","81.0","0.0","0.0"],
    [1514370,"2026-04-05 23:20:00","60867","1.415","244.5","2.319","258.7","1025.975","14.67","79.38","0.0","0.0"],
    [1514371,"2026-04-05 23:30:00","60868","1.5419999999999998","228.6","2.8089999999999997","224.8","1025.98","14.71","78.11","0.0","0.0"],
    [1514372,"2026-04-05 23:40:00","60869","1.883","223.5","2.94","208.2","1025.933","14.76","77.06","0.0","0.0"],
    [1514373,"2026-04-05 23:50:00","60870","1.49","220.7","2.483","225.1","1025.992","14.74","76.08","0.0","0.0"],
    [1514374,"2026-04-06 00:00:00","60871","1.375","239.6","2.352","230.6","1026.077","14.77","75.39","0.0","0.0"],
    [1514375,"2026-04-06 00:10:00","60872","1.489","235.2","2.515","232.8","1026.069","14.74","74.97","0.0","0.0"],
    [1514376,"2026-04-06 00:20:00","60873","0.804","257.1","1.405","253.1","1026.078","14.6","74.72","0.0","0.0"],
    [1514377,"2026-04-06 00:30:00","60874","0.794","271.3","1.601","263.3","1026.026","14.34","74.83","0.0","0.0"],
    [1514378,"2026-04-06 00:40:00","60875","1.286","268.9","1.7309999999999999","267.7","1025.942","13.87","72.33","0.0","0.0"],
    [1514379,"2026-04-06 00:50:00","60876","1.22","256.2","1.895","257.0","1025.941","13.86","69.42","0.0","0.0"],
    [1514380,"2026-04-06 01:00:00","60877","1.321","238.9","2.287","233.9","1025.867","14.03","66.35","0.0","0.0"],
    [1514381,"2026-04-06 01:10:00","60878","1.912","231.6","2.7769999999999997","229.3","1025.797","14.2","62.42","0.0","0.0"],
    [1514382,"2026-04-06 01:20:00","60879","1.89","234.8","3.267","219.4","1025.737","14.27","59.66","0.0","0.0"],
    [1514383,"2026-04-06 01:30:00","60880","1.5119999999999998","250.0","2.548","236.8","1025.703","13.75","58.97","0.0","0.0"],
    [1514384,"2026-04-06 01:40:00","60881","1.6269999999999998","256.5","2.319","249.6","1025.636","13.33","59.14","0.0","0.0"],
    [1514385,"2026-04-06 01:50:00","60882","1.245","243.1","1.9269999999999998","225.1","1025.664","13.49","58.71","0.0","0.0"],
    [1514386,"2026-04-06 02:00:00","60883","1.4269999999999998","229.5","2.221","226.5","1025.597","13.29","59.93","0.0","0.0"],
    [1514387,"2026-04-06 02:10:00","60884","1.8119999999999998","236.3","2.7439999999999998","231.5","1025.494","13.05","61.25","0.0","0.0"],
    [1514388,"2026-04-06 02:20:00","60885","1.821","241.9","3.299","257.8","1025.451","12.91","62.71","0.0","0.0"],
    [1514389,"2026-04-06 02:30:00","60886","1.704","241.8","2.907","223.6","1025.371","12.91","63.36","0.0","0.0"],
    [1514390,"2026-04-06 02:40:00","60887","1.5030000000000001","251.7","2.287","256.0","1025.296","12.97","63.78","0.0","0.0"],
    [1514391,"2026-04-06 02:50:00","60888","1.556","253.6","2.352","249.2","1025.301","12.75","65.17","0.0","0.0"],
    [1514392,"2026-04-06 03:00:00","60889","1.527","249.5","2.352","253.2","1025.291","12.89","65.15","0.0","0.0"],
    [1514393,"2026-04-06 03:10:00","60890","2.057","230.9","3.136","224.6","1025.254","13.26","64.48","0.0","0.0"],
    [1514394,"2026-04-06 03:20:00","60891","2.019","224.6","3.1689999999999996","222.0","1025.224","13.41","64.24","0.0","0.0"],
    [1514395,"2026-04-06 03:30:00","60892","2.141","225.0","3.136","227.7","1025.151","13.28","64.06","0.0","0.0"],
    [1514396,"2026-04-06 03:40:00","60893","2.1430000000000002","231.5","3.43","229.0","1025.108","13.29","63.93","0.0","0.0"],
    [1514397,"2026-04-06 03:50:00","60894","1.7480000000000002","244.8","3.0380000000000003","254.8","1025.118","12.9","64.91","0.0","0.0"],
    [1514398,"2026-04-06 04:00:00","60895","2.061","244.2","3.43","224.5","1025.094","12.6","66.29","0.0","0.0"],
    [1514399,"2026-04-06 04:10:00","60896","2.252","248.0","3.136","248.6","1025.036","12.38","67.24","0.0","0.0"],
    [1514400,"2026-04-06 04:20:00","60897","2.378","246.3","3.855","252.4","1025.018","12.21","68.35","0.0","0.0"],
    [1514401,"2026-04-06 04:30:00","60898","2.6460000000000004","251.6","3.7569999999999997","252.0","1025.042","12.08","69.25","0.0","0.0"],
    [1514402,"2026-04-06 04:40:00","60899","2.311","247.8","3.7889999999999997","264.4","1025.026","12.19","69.88","0.0","0.0"],
    [1514403,"2026-04-06 04:50:00","60900","2.214","251.0","3.6910000000000003","259.3","1025.035","12.35","69.58","0.0","0.0"],
    [1514404,"2026-04-06 05:00:00","60901","2.0869999999999997","258.9","3.6260000000000003","253.2","1025.051","12.14","69.88","0.0","0.0"],
    [1514405,"2026-04-06 05:10:00","60902","1.9680000000000002","258.2","2.94","256.4","1025.065","12.04","71.05","0.0","0.0"],
    [1514406,"2026-04-06 05:20:00","60903","1.868","257.5","2.94","253.1","1025.076","12.09","71.46","0.003","0.0"],
    [1514407,"2026-04-06 05:30:00","60904","2.104","257.9","3.267","262.8","1025.155","11.96","71.63","2.086","0.0"],
    [1514408,"2026-04-06 05:40:00","60905","2.158","260.2","3.136","262.9","1025.201","11.92","71.55","11.05","0.0"],
    [1514409,"2026-04-06 05:50:00","60906","1.949","254.9","3.201","256.6","1025.285","11.83","71.4","25.63","0.0"],
    [1514410,"2026-04-06 06:00:00","60907","1.757","244.8","3.071","255.4","1025.307","12.04","70.82","43.21","0.0"],
    [1514411,"2026-04-06 06:10:00","60908","1.945","246.8","3.234","266.8","1025.346","12.29","69.65","74.04","0.0"],
    [1514412,"2026-04-06 06:20:00","60909","1.966","244.3","3.071","254.3","1025.428","12.35","68.57","101.5","0.0"],
    [1514413,"2026-04-06 06:30:00","60910","1.825","247.9","3.005","254.4","1025.516","12.56","67.31","131.0","0.0"],
    [1514414,"2026-04-06 06:40:00","60911","2.086","245.1","3.659","260.2","1025.557","12.75","66.29","161.5","0.0"],
    [1514415,"2026-04-06 06:50:00","60912","2.089","244.5","3.463","224.9","1025.589","13.16","64.97","193.6","0.0"],
    [1514416,"2026-04-06 07:00:00","60913","1.7790000000000001","251.9","3.7239999999999998","264.1","1025.659","13.46","63.9","225.2","0.0"],
    [1514417,"2026-04-06 07:10:00","60914","2.248","241.7","3.92","262.2","1025.693","13.82","62.74","261.3","0.0"],
    [1514418,"2026-04-06 07:20:00","60915","2.346","227.4","4.051","220.9","1025.698","14.25","62.25","296.5","0.0"],
    [1514419,"2026-04-06 07:30:00","60916","2.123","241.9","3.7239999999999998","260.7","1025.722","14.55","63.03","329.1","0.0"],
    [1514420,"2026-04-06 07:40:00","60917","2.248","242.9","4.051","263.8","1025.741","14.72","66.26","363.1","0.0"],
    [1514421,"2026-04-06 07:50:00","60918","2.115","241.9","3.332","256.3","1025.747","14.89","68.39","397.0","0.0"],
    [1514422,"2026-04-06 08:00:00","60919","1.785","253.2","3.103","273.0","1025.762","15.09","68.32","428.1","0.0"],
    [1514423,"2026-04-06 08:10:00","60920","1.703","249.6","3.103","268.4","1025.771","15.42","67.75","459.8","0.0"],
    [1514424,"2026-04-06 08:20:00","60921","1.615","238.4","3.495","221.7","1025.762","15.82","67.23","491.0","0.0"],
    [1514425,"2026-04-06 08:30:00","60922","1.694","245.1","3.365","271.8","1025.736","16.26","66.52","520.7","0.0"],
    [1514426,"2026-04-06 08:40:00","60923","2.2430000000000003","231.3","4.051","216.7","1025.69","16.83","65.79","551.7","0.0"],
    [1514427,"2026-04-06 08:50:00","60924","3.208","209.5","4.965","222.8","1025.673","17.11","64.87","584.2","0.0"],
    [1514428,"2026-04-06 09:00:00","60925","3.355","213.0","4.933","190.7","1025.648","17.25","63.38","612.4","0.0"],
    [1514429,"2026-04-06 09:10:00","60926","3.734","212.0","5.88","220.2","1025.652","17.32","62.0","640.5","0.0"],
    [1514430,"2026-04-06 09:20:00","60927","4.105","206.3","6.042999999999999","205.3","1025.707","17.47","61.06","664.1","0.0"],
    [1514431,"2026-04-06 09:30:00","60928","4.145","195.1","6.305","187.6","1025.721","17.32","63.25","693.0","0.0"],
    [1514432,"2026-04-06 09:40:00","60929","5.078","190.6","6.501","189.2","1025.717","16.71","67.53","716.4","0.0"],
    [1514433,"2026-04-06 09:50:00","60930","5.4879999999999995","189.1","6.729","186.7","1025.733","16.5","69.64","738.1","0.0"],
    [1514434,"2026-04-06 10:00:00","60931","5.702000000000001","187.9","6.631","188.2","1025.637","16.66","68.57","758.0","0.0"],
    [1514435,"2026-04-06 10:10:00","60932","4.437","192.6","6.0760000000000005","190.5","1025.655","16.8","67.62","775.6","0.0"],
    [1514436,"2026-04-06 10:20:00","60933","5.932","189.7","7.84","193.9","1025.588","16.73","67.2","794.0","0.0"],
    [1514437,"2026-04-06 10:30:00","60934","6.0329999999999995","192.3","7.872999999999999","201.8","1025.552","16.78","66.82","810.0","0.0"],
    [1514438,"2026-04-06 10:40:00","60935","5.687","191.7","7.546","197.7","1025.506","17.11","64.69","823.0","0.0"],
    [1514439,"2026-04-06 10:50:00","60936","5.761","190.0","7.644","189.7","1025.429","17.1","64.96","835.0","0.0"],
    [1514440,"2026-04-06 11:00:00","60937","6.162999999999999","188.0","8.07","202.6","1025.388","17.01","65.77","846.0","0.0"],
    [1514441,"2026-04-06 11:10:00","60938","5.909","190.3","8.17","190.8","1025.393","17.1","65.13","855.0","0.0"],
    [1514442,"2026-04-06 11:20:00","60939","5.877000000000001","190.8","8.17","193.4","1025.328","17.43","63.17","863.0","0.0"],
    [1514443,"2026-04-06 11:30:00","60940","5.928999999999999","191.9","8.04","192.1","1025.276","17.54","61.68","868.0","0.0"],
    [1514444,"2026-04-06 11:40:00","60941","5.399","194.9","7.285","191.0","1025.221","17.84","59.29","873.0","0.0"],
    [1514445,"2026-04-06 11:50:00","60942","4.763999999999999","200.3","7.644","214.8","1025.194","18.39","55.1","876.0","0.0"],
    [1514446,"2026-04-06 12:00:00","60943","5.104","201.2","8.23","211.7","1025.122","18.53","53.46","878.0","0.0"],
    [1514447,"2026-04-06 12:10:00","60944","4.946000000000001","195.4","7.938","193.4","1025.083","18.56","53.83","878.0","0.0"],
    [1514448,"2026-04-06 12:20:00","60945","4.971","200.6","7.415","239.3","1024.957","18.96","49.57","878.0","0.0"],
    [1514449,"2026-04-06 12:30:00","60946","5.58","194.9","8.62","192.8","1024.858","18.65","52.27","876.0","0.0"],
    [1514450,"2026-04-06 12:40:00","60947","4.748","204.4","8.82","219.3","1024.846","18.84","50.83","872.0","0.0"],
    [1514451,"2026-04-06 12:50:00","60948","5.6339999999999995","195.9","8.33","193.9","1024.778","18.81","50.57","868.0","0.0"],
    [1514452,"2026-04-06 13:00:00","60949","6.0120000000000005","193.3","9.38","195.6","1024.59","18.62","51.47","861.0","0.0"],
    [1514453,"2026-04-06 13:10:00","60950","6.4510000000000005","190.7","8.49","189.1","1024.446","18.31","53.63","850.0","0.0"],
    [1514454,"2026-04-06 13:20:00","60951","7.181","189.7","9.47","188.6","1024.333","18.1","54.92","839.0","0.0"],
    [1514455,"2026-04-06 13:30:00","60952","6.599","195.1","9.11","192.6","1024.279","18.02","55.21","826.0","0.0"],
    [1514456,"2026-04-06 13:40:00","60953","6.5520000000000005","192.7","9.67","196.4","1024.233","18.21","53.47","810.0","0.0"],
    [1514457,"2026-04-06 13:50:00","60954","6.442","189.3","7.905","188.5","1024.245","17.95","55.11","793.6","0.0"],
    [1514458,"2026-04-06 14:00:00","60955","6.39","188.5","8.1","186.4","1024.179","17.76","54.91","776.1","0.0"],
    [1514459,"2026-04-06 14:10:00","60956","5.749","191.5","7.579","197.6","1024.096","17.97","53.34","755.0","0.0"],
    [1514460,"2026-04-06 14:20:00","60957","6.355","187.6","7.84","189.6","1024.038","17.69","54.76","734.1","0.0"],
    [1514461,"2026-04-06 14:30:00","60958","6.57","188.9","8.17","188.6","1023.992","17.56","55.26","711.2","0.0"],
    [1514462,"2026-04-06 14:40:00","60959","6.184","190.2","8.17","183.6","1023.932","17.57","54.79","687.1","0.0"],
    [1514463,"2026-04-06 14:50:00","60960","5.939","191.8","8.59","191.3","1023.874","17.71","54.74","661.3","0.0"],
    [1514464,"2026-04-06 15:00:00","60961","5.657","190.9","7.285","191.0","1023.816","17.66","54.66","634.3","0.0"],
    [1514465,"2026-04-06 15:10:00","60962","5.931","191.9","7.546","189.3","1023.761","17.64","54.34","606.0","0.0"],
    [1514466,"2026-04-06 15:20:00","60963","6.08","190.7","7.709","186.0","1023.656","17.58","54.37","575.6","0.0"],
    [1514467,"2026-04-06 15:30:00","60964","5.51","192.0","7.285","192.2","1023.543","17.59","54.59","543.7","0.0"],
    [1514468,"2026-04-06 15:40:00","60965","5.605","189.3","7.154","192.1","1023.533","17.58","55.15","511.3","0.0"],
    [1514469,"2026-04-06 15:50:00","60966","5.523","191.8","7.023","191.8","1023.472","17.37","56.49","477.3","0.0"],
    [1514470,"2026-04-06 16:00:00","60967","5.9479999999999995","189.4","7.415","205.7","1023.395","17.26","56.29","444.2","0.0"],
    [1514471,"2026-04-06 16:10:00","60968","5.997000000000001","189.4","7.709","184.1","1023.357","17.23","56.18","410.7","0.0"],
    [1514472,"2026-04-06 16:20:00","60969","5.651","185.3","7.023","197.7","1023.303","16.97","59.46","377.1","0.0"],
    [1514473,"2026-04-06 16:30:00","60970","5.497000000000001","184.9","6.827000000000001","183.2","1023.311","16.74","62.01","341.9","0.0"],
    [1514474,"2026-04-06 16:40:00","60971","5.685","186.4","7.4479999999999995","191.4","1023.341","16.61","63.6","306.8","0.0"],
    [1514475,"2026-04-06 16:50:00","60972","4.704","194.7","6.827000000000001","201.3","1023.411","16.86","60.73","271.2","0.0"],
    [1514476,"2026-04-06 17:00:00","60973","4.7780000000000005","196.1","6.599","177.3","1023.357","17.06","57.61","236.1","0.0"],
    [1514477,"2026-04-06 17:10:00","60974","4.605","193.6","6.599","175.7","1023.338","17.11","56.79","201.6","0.0"],
    [1514478,"2026-04-06 17:20:00","60975","4.508","188.6","6.664","191.7","1023.342","16.81","59.93","168.6","0.0"],
    [1514479,"2026-04-06 17:30:00","60976","4.131","190.4","5.357","186.7","1023.367","16.55","62.67","136.7","0.0"],
    [1514480,"2026-04-06 17:40:00","60977","3.3689999999999998","198.2","4.802","204.4","1023.421","16.69","60.22","106.6","0.0"],
    [1514481,"2026-04-06 17:50:00","60978","2.6710000000000003","201.9","4.051","201.8","1023.387","16.74","58.64","65.13","0.0"],
    [1514482,"2026-04-06 18:00:00","60979","3.363","202.6","4.867","202.5","1023.319","16.75","56.57","50.51","0.0"],
    [1514483,"2026-04-06 18:10:00","60980","3.1210000000000004","202.0","4.475","193.7","1023.287","16.6","57.37","26.08","0.0"],
    [1514484,"2026-04-06 18:20:00","60981","2.546","204.0","4.018","209.3","1023.295","16.46","57.87","6.176","0.0"],
    [1514485,"2026-04-06 18:30:00","60982","2.205","204.3","3.5610000000000004","205.5","1023.33","16.37","57.82","0.603","0.0"],
    [1514486,"2026-04-06 18:40:00","60983","2.199","217.4","3.495","228.0","1023.43","16.3","57.01","0.0","0.0"],
    [1514487,"2026-04-06 18:50:00","60984","2.204","210.0","3.6910000000000003","197.9","1023.433","16.26","57.89","0.0","0.0"],
    [1514488,"2026-04-06 19:00:00","60985","1.689","219.6","2.842","217.7","1023.472","16.17","58.76","0.0","0.0"],
    [1514489,"2026-04-06 19:10:00","60986","1.704","216.6","2.613","206.8","1023.492","16.15","59.15","0.0","0.0"],
    [1514490,"2026-04-06 19:20:00","60987","2.108","222.4","3.005","222.3","1023.546","16.08","58.38","0.0","0.0"],
    [1514491,"2026-04-06 19:30:00","60988","1.6219999999999999","230.3","2.875","223.2","1023.593","16.1","57.96","0.0","0.0"],
    [1514492,"2026-04-06 19:40:00","60989","1.214","241.1","2.6460000000000004","223.4","1023.685","16.12","57.82","0.0","0.0"],
    [1514493,"2026-04-06 19:50:00","60990","0.813","250.1","1.2409999999999999","256.5","1023.773","16.1","58.93","0.0","0.0"],
    [1514494,"2026-04-06 20:00:00","60991","0.6409999999999999","244.4","1.274","250.3","1023.861","15.93","60.19","0.0","0.0"],
    [1514495,"2026-04-06 20:10:00","60992","0.759","244.6","1.633","227.3","1023.891","15.91","60.25","0.0","0.0"],
    [1514496,"2026-04-06 20:20:00","60993","0.843","242.7","1.568","244.9","1023.887","15.85","60.53","0.0","0.0"],
    [1514497,"2026-04-06 20:30:00","60994","0.583","218.6","1.078","197.5","1023.873","15.79","61.76","0.0","0.0"],
    [1514498,"2026-04-06 20:40:00","60995","0.292","200.2","0.784","202.3","1023.824","15.74","63.48","0.0","0.0"],
    [1514499,"2026-04-06 20:50:00","60996","0.809","213.3","1.176","211.9","1023.834","15.5","65.46","0.0","0.0"],
    [1514500,"2026-04-06 21:00:00","60997","0.11599999999999999","238.3","0.653","262.3","1023.847","15.31","66.62","0.0","0.0"],
    [1514501,"2026-04-06 21:10:00","60998","0.35100000000000003","269.6","1.013","267.7","1023.769","15.24","66.62","0.0","0.0"],
    [1514502,"2026-04-06 21:20:00","60999","1.252","262.9","1.7309999999999999","259.6","1023.768","15.18","66.74","0.0","0.0"],
    [1514503,"2026-04-06 21:30:00","61000","1.4369999999999998","272.6","1.8619999999999999","267.3","1023.773","15.2","67.7","0.0","0.0"],
    [1514504,"2026-04-06 21:40:00","61001","1.7109999999999999","263.4","1.96","264.9","1023.882","15.28","68.79","0.0","0.0"],
    [1514505,"2026-04-06 21:50:00","61002","1.585","268.0","1.9269999999999998","271.3","1023.923","15.21","70.22","0.0","0.0"],
    [1514506,"2026-04-06 22:00:00","61003","1.392","275.7","1.699","277.8","1023.929","15.24","70.63","0.0","0.0"],
    [1514507,"2026-04-06 22:10:00","61004","1.21","267.7","1.601","271.8","1023.95","15.35","69.45","0.0","0.0"],
    [1514508,"2026-04-06 22:20:00","61005","0.387","279.6","0.915","278.1","1023.849","15.34","67.75","0.0","0.0"],
    [1514509,"2026-04-06 22:30:00","61006","0.0","0.0","0.0","0.0","1023.859","15.19","67.74","0.0","0.0"],
    [1514510,"2026-04-06 22:40:00","61007","0.0","0.0","0.0","0.0","1023.849","15.16","69.21","0.0","0.0"],
    [1514511,"2026-04-06 22:50:00","61008","0.0","0.0","0.0","0.0","1023.882","14.94","70.43","0.0","0.0"],
    [1514512,"2026-04-06 23:00:00","61009","0.001","265.8","0.131","265.8","1023.944","14.67","70.47","0.0","0.0"],
    [1514513,"2026-04-06 23:10:00","61010","0.8009999999999999","279.7","1.111","273.8","1023.931","14.83","70.17","0.0","0.0"],
    [1514514,"2026-04-06 23:20:00","61011","0.777","317.3","1.013","328.7","1023.936","14.67","70.87","0.0","0.0"],
    [1514515,"2026-04-06 23:30:00","61012","0.757","29.12","1.045","325.0","1023.94","15.03","73.74","0.0","0.0"],
    [1514516,"2026-04-06 23:40:00","61013","0.29600000000000004","53.36","0.784","48.56","1023.9","15.13","80.1","0.0","0.0"],
    [1514517,"2026-04-06 23:50:00","61014","0.0","0.0","0.0","0.0","1023.874","14.86","83.5","0.0","0.0"],
    [1514518,"2026-04-07 00:00:00","61015","0.0","0.0","0.0","0.0","1023.847","14.03","84.0","0.0","0.0"],
    [1514519,"2026-04-07 00:10:00","61016","0.40299999999999997","275.2","0.784","269.7","1023.741","13.49","82.6","0.0","0.0"],
    [1514520,"2026-04-07 00:20:00","61017","0.17","269.4","0.621","281.5","1023.661","13.65","79.44","0.0","0.0"],
    [1514521,"2026-04-07 00:30:00","61018","0.41600000000000004","257.4","0.8490000000000001","253.6","1023.645","13.7","76.44","0.0","0.0"],
    [1514522,"2026-04-07 00:40:00","61019","0.8290000000000001","244.5","1.2409999999999999","248.3","1023.607","13.51","72.51","0.0","0.0"],
    [1514523,"2026-04-07 00:50:00","61020","0.282","228.4","0.882","273.5","1023.588","13.45","69.74","0.0","0.0"],
    [1514524,"2026-04-07 01:00:00","61021","0.512","246.8","0.882","246.0","1023.425","13.23","66.82","0.0","0.0"],
    [1514525,"2026-04-07 01:10:00","61022","0.848","271.0","1.2409999999999999","270.2","1023.305","13.36","64.13","0.0","0.0"],
    [1514526,"2026-04-07 01:20:00","61023","0.37799999999999995","262.9","1.045","270.9","1023.163","13.32","62.01","0.0","0.0"],
    [1514527,"2026-04-07 01:30:00","61024","0.509","278.5","1.111","280.8","1022.973","13.21","60.79","0.0","0.0"],
    [1514528,"2026-04-07 01:40:00","61025","0.925","290.3","1.209","282.0","1022.792","12.99","59.6","0.0","0.0"],
    [1514529,"2026-04-07 01:50:00","61026","1.035","296.5","1.307","289.9","1022.614","13.03","59.46","0.0","0.0"],
    [1514530,"2026-04-07 02:00:00","61027","0.9940000000000001","300.4","1.274","289.5","1022.514","13.04","59.81","0.0","0.0"],
    [1514531,"2026-04-07 02:10:00","61028","1.085","288.9","1.405","281.1","1022.517","13.12","61.23","0.0","0.0"],
    [1514532,"2026-04-07 02:20:00","61029","1.784","269.0","2.548","260.6","1022.492","12.97","61.88","0.0","0.0"],
    [1514533,"2026-04-07 02:30:00","61030","2.291","260.0","2.5810000000000004","261.2","1022.428","12.43","61.24","0.0","0.0"],
    [1514534,"2026-04-07 02:40:00","61031","2.0469999999999997","263.7","2.483","269.3","1022.29","12.33","60.71","0.0","0.0"],
    [1514535,"2026-04-07 02:50:00","61032","1.1420000000000001","277.1","1.601","269.7","1022.125","12.31","60.74","0.0","0.0"],
    [1514536,"2026-04-07 03:00:00","61033","0.6409999999999999","274.7","0.9470000000000001","279.2","1021.984","12.69","60.45","0.0","0.0"],
    [1514537,"2026-04-07 03:10:00","61034","0.9059999999999999","259.2","1.307","260.9","1021.876","12.71","59.62","0.0","0.0"],
    [1514538,"2026-04-07 03:20:00","61035","1.37","262.2","2.025","262.0","1021.725","12.57","60.17","0.0","0.0"],
    [1514539,"2026-04-07 03:30:00","61036","1.88","258.6","2.385","261.3","1021.751","12.6","59.27","0.0","0.0"],
    [1514540,"2026-04-07 03:40:00","61037","2.185","258.8","2.7769999999999997","255.4","1021.663","12.33","58.9","0.0","0.0"],
    [1514541,"2026-04-07 03:50:00","61038","2.455","258.0","3.103","260.9","1021.637","12.19","58.72","0.0","0.0"],
    [1514542,"2026-04-07 04:00:00","61039","2.25","259.0","2.907","249.1","1021.572","12.19","58.56","0.0","0.0"],
    [1514543,"2026-04-07 04:10:00","61040","2.0","255.9","2.7439999999999998","251.5","1021.591","12.42","57.58","0.0","0.0"],
    [1514544,"2026-04-07 04:20:00","61041","0.369","244.5","1.3719999999999999","267.1","1021.545","12.52","56.52","0.0","0.0"],
    [1514545,"2026-04-07 04:30:00","61042","0.363","243.3","0.915","250.8","1021.561","12.57","56.77","0.0","0.0"],
    [1514546,"2026-04-07 04:40:00","61043","0.642","245.7","1.339","247.8","1021.583","12.46","56.01","0.0","0.0"],
    [1514547,"2026-04-07 04:50:00","61044","1.725","257.5","2.352","257.2","1021.612","12.25","55.56","0.0","0.0"],
    [1514548,"2026-04-07 05:00:00","61045","2.258","260.6","2.7110000000000003","261.8","1021.643","12.16","54.93","0.0","0.0"],
    [1514549,"2026-04-07 05:10:00","61046","2.189","262.4","2.45","260.2","1021.667","12.11","54.58","0.0","0.0"],
    [1514550,"2026-04-07 05:20:00","61047","2.116","264.9","2.385","264.3","1021.747","12.09","54.75","0.012","0.0"],
    [1514551,"2026-04-07 05:30:00","61048","2.175","263.3","2.417","262.9","1021.86","12.05","55.14","2.7969999999999997","0.0"],
    [1514552,"2026-04-07 05:40:00","61049","1.871","267.0","2.0909999999999997","267.7","1021.987","12.08","55.04","13.26","0.0"],
    [1514553,"2026-04-07 05:50:00","61050","1.964","264.2","2.417","268.4","1022.158","12.09","54.81","30.1","0.0"],
    [1514554,"2026-04-07 06:00:00","61051","1.926","265.6","2.189","260.6","1022.218","12.23","53.93","55.38","0.0"],
    [1514555,"2026-04-07 06:10:00","61052","1.857","266.2","2.0909999999999997","262.7","1022.291","12.45","53.35","82.1","0.0"],
    [1514556,"2026-04-07 06:20:00","61053","1.641","260.7","2.0580000000000003","259.8","1022.419","12.58","52.95","109.8","0.0"],
    [1514557,"2026-04-07 06:30:00","61054","1.189","267.4","1.47","278.2","1022.451","12.87","52.17","137.7","0.0"],
    [1514558,"2026-04-07 06:40:00","61055","0.726","287.2","1.2409999999999999","276.2","1022.429","13.22","51.88","165.6","0.0"],
    [1514559,"2026-04-07 06:50:00","61056","0.0","0.0","0.0","0.0","1022.446","14.25","51.07","193.0","0.0"],
    [1514560,"2026-04-07 07:00:00","61057","0.0","0.0","0.0","0.0","1022.509","14.71","51.56","222.3","0.0"],
    [1514561,"2026-04-07 07:10:00","61058","0.24100000000000002","7.702999999999999","1.045","15.05","1022.464","14.96","52.54","255.1","0.0"],
    [1514562,"2026-04-07 07:20:00","61059","0.368","31.87","1.209","61.33","1022.478","15.28","54.88","292.0","0.0"],
    [1514563,"2026-04-07 07:30:00","61060","1.581","40.04","2.5810000000000004","32.69","1022.484","15.23","53.61","332.7","0.0"],
    [1514564,"2026-04-07 07:40:00","61061","2.583","22.1","3.495","15.94","1022.529","15.14","48.1","370.8","0.0"],
    [1514565,"2026-04-07 07:50:00","61062","2.9589999999999996","33.25","3.659","33.04","1022.55","15.31","45.58","407.7","0.0"],
    [1514566,"2026-04-07 08:00:00","61063","2.546","37.88","3.201","33.11","1022.59","15.45","46.28","440.4","0.0"],
    [1514567,"2026-04-07 08:10:00","61064","3.221","32.41","3.822","29.82","1022.727","15.42","47.02","473.2","0.0"],
    [1514568,"2026-04-07 08:20:00","61065","3.278","30.58","4.083","27.93","1022.77","15.2","49.44","504.6","0.0"],
    [1514569,"2026-04-07 08:30:00","61066","3.568","32.06","4.508","25.17","1022.771","15.1","51.15","536.1","0.0"],
    [1514570,"2026-04-07 08:40:00","61067","3.444","27.14","4.1160000000000005","23.65","1022.821","15.03","53.33","565.4","0.0"],
    [1514571,"2026-04-07 08:50:00","61068","3.7960000000000003","41.42","4.573","44.37","1022.786","15.09","53.14","595.0","0.0"],
    [1514572,"2026-04-07 09:00:00","61069","3.466","38.66","4.638999999999999","40.69","1022.755","15.17","54.62","622.8","0.0"],
    [1514573,"2026-04-07 09:10:00","61070","3.812","40.35","4.573","44.4","1022.799","15.07","57.07","651.5","0.0"],
    [1514574,"2026-04-07 09:20:00","61071","3.905","38.66","4.541","44.19","1022.832","14.93","59.51","678.0","0.0"],
    [1514575,"2026-04-07 09:30:00","61072","3.702","47.83","4.737","54.93","1022.836","15.06","62.52","701.3","0.0"],
    [1514576,"2026-04-07 09:40:00","61073","3.3680000000000003","47.57","4.4430000000000005","51.41","1022.871","15.1","65.6","722.6","0.0"],
    [1514577,"2026-04-07 09:50:00","61074","3.6860000000000004","39.62","4.704","38.15","1022.845","15.04","69.14","744.3","0.0"],
    [1514578,"2026-04-07 10:00:00","61075","3.6910000000000003","38.66","4.41","45.7","1022.782","15.02","74.02","764.1","0.0"],
    [1514579,"2026-04-07 10:10:00","61076","3.682","44.09","4.769","50.22","1022.673","14.99","80.7","782.6","0.0"],
    [1514580,"2026-04-07 10:20:00","61077","3.745","42.89","4.704","48.99","1022.636","14.99","84.4","799.4","0.0"],
    [1514581,"2026-04-07 10:30:00","61078","3.697","52.42","4.704","50.92","1022.613","15.12","86.2","814.0","0.0"],
    [1514582,"2026-04-07 10:40:00","61079","3.3760000000000003","57.35","4.541","49.77","1022.583","15.19","87.0","828.0","0.0"],
    [1514583,"2026-04-07 10:50:00","61080","3.642","50.58","4.671","43.78","1022.462","15.17","87.7","841.0","0.0"],
    [1514584,"2026-04-07 11:00:00","61081","4.072","49.9","5.063","48.88","1022.275","15.15","88.5","853.0","0.0"],
    [1514585,"2026-04-07 11:10:00","61082","3.8160000000000003","48.83","5.194","43.83","1022.155","15.19","89.5","862.0","0.0"],
    [1514586,"2026-04-07 11:20:00","61083","3.929","59.53","4.933","58.46","1022.094","15.2","90.0","871.0","0.0"],
    [1514587,"2026-04-07 11:30:00","61084","3.4819999999999998","56.25","4.769","45.54","1022.022","15.24","90.4","877.0","0.0"],
    [1514588,"2026-04-07 11:40:00","61085","3.365","59.19","4.41","57.28","1021.959","15.26","90.9","881.0","0.0"],
    [1514589,"2026-04-07 11:50:00","61086","3.638","68.46","4.802","78.52","1021.895","15.2","91.4","884.0","0.0"],
    [1514590,"2026-04-07 12:00:00","61087","4.027","71.29","4.671","69.99","1021.779","15.15","92.1","887.0","0.0"],
    [1514591,"2026-04-07 12:10:00","61088","3.555","70.65","4.4430000000000005","65.1","1021.797","15.18","92.5","886.0","0.0"],
    [1514592,"2026-04-07 12:20:00","61089","3.435","72.26","4.312","73.54","1021.731","15.25","92.5","884.0","0.0"],
    [1514593,"2026-04-07 12:30:00","61090","3.535","72.18","4.4430000000000005","79.5","1021.691","15.25","92.3","880.0","0.0"],
    [1514594,"2026-04-07 12:40:00","61091","3.534","71.6","4.279","71.53","1021.656","15.3","92.2","875.0","0.0"],
    [1514595,"2026-04-07 12:50:00","61092","3.659","68.93","4.41","65.57","1021.609","15.31","92.3","869.0","0.0"],
    [1514596,"2026-04-07 13:00:00","61093","3.358","73.79","4.802","65.63","1021.562","15.25","92.2","860.0","0.0"],
    [1514597,"2026-04-07 13:10:00","61094","3.511","70.06","4.671","65.41","1021.437","15.37","91.6","851.0","0.0"],
    [1514598,"2026-04-07 13:20:00","61095","3.516","64.34","4.41","63.1","1021.328","15.44","91.3","839.0","0.0"],
    [1514599,"2026-04-07 13:30:00","61096","3.5580000000000003","56.34","5.586","65.49","1021.228","15.48","90.5","826.0","0.0"],
    [1514600,"2026-04-07 13:40:00","61097","3.819","50.62","5.031000000000001","51.06","1021.136","15.55","89.0","811.0","0.0"],
    [1514601,"2026-04-07 13:50:00","61098","3.884","51.85","4.998","48.29","1020.984","15.59","88.2","793.3","0.0"],
    [1514602,"2026-04-07 14:00:00","61099","3.7939999999999996","49.31","4.965","55.43","1020.915","15.67","88.2","774.8","0.0"],
    [1514603,"2026-04-07 14:10:00","61100","3.511","55.22","4.541","71.91","1020.827","15.72","89.0","754.2","0.0"],
    [1514604,"2026-04-07 14:20:00","61101","3.488","60.15","4.606","60.49","1020.801","15.69","89.6","732.5","0.0"],
    [1514605,"2026-04-07 14:30:00","61102","3.596","66.49","4.541","79.21","1020.724","15.64","90.2","711.2","0.0"],
    [1514606,"2026-04-07 14:40:00","61103","3.6069999999999998","69.0","4.835","66.14","1020.662","15.59","91.0","688.0","0.0"],
    [1514607,"2026-04-07 14:50:00","61104","3.7569999999999997","73.49","4.606","74.53","1020.602","15.51","91.4","662.9","0.0"],
    [1514608,"2026-04-07 15:00:00","61105","3.6039999999999996","69.39","4.312","71.04","1020.516","15.52","91.8","621.8","0.0"],
    [1514609,"2026-04-07 15:10:00","61106","3.352","69.6","4.018","67.78","1020.451","15.57","91.9","578.3","0.0"],
    [1514610,"2026-04-07 15:20:00","61107","3.0639999999999996","70.54","4.312","70.05","1020.35","15.62","92.2","576.3","0.0"],
    [1514611,"2026-04-07 15:30:00","61108","3.352","67.86","3.9530000000000003","80.2","1020.278","15.58","92.4","546.4","0.0"],
    [1514612,"2026-04-07 15:40:00","61109","3.167","65.19","3.9530000000000003","56.16","1020.195","15.61","92.7","511.3","0.0"],
    [1514613,"2026-04-07 15:50:00","61110","2.9560000000000004","56.45","3.887","61.24","1020.114","15.73","92.7","472.5","0.0"],
    [1514614,"2026-04-07 16:00:00","61111","3.3569999999999998","47.27","4.345","53.64","1020.002","15.73","92.7","442.1","0.0"],
    [1514615,"2026-04-07 16:10:00","61112","3.503","48.35","4.279","54.73","1019.943","15.75","92.8","406.2","0.0"],
    [1514616,"2026-04-07 16:20:00","61113","3.556","40.07","4.345","40.46","1019.91","15.73","93.1","369.7","0.0"],
    [1514617,"2026-04-07 16:30:00","61114","3.6069999999999998","46.39","4.41","50.99","1019.895","15.66","93.4","333.7","0.0"],
    [1514618,"2026-04-07 16:40:00","61115","3.613","45.12","4.345","45.95","1019.847","15.71","93.7","297.9","0.0"],
    [1514619,"2026-04-07 16:50:00","61116","3.3539999999999996","43.49","4.508","43.13","1019.847","15.66","94.3","253.9","0.0"],
    [1514620,"2026-04-07 17:00:00","61117","3.0780000000000003","44.89","4.181","44.59","1019.841","15.72","94.6","219.3","0.0"],
    [1514621,"2026-04-07 17:10:00","61118","2.9419999999999997","49.06","3.855","49.24","1019.956","15.68","94.8","183.6","0.0"],
    [1514622,"2026-04-07 17:20:00","61119","2.476","43.91","3.7889999999999997","45.88","1019.974","15.7","95.1","107.8","0.0"],
    [1514623,"2026-04-07 17:30:00","61120","2.1630000000000003","47.24","3.267","35.1","1020.003","15.69","95.6","46.46","0.0"],
    [1514624,"2026-04-07 17:40:00","61121","3.0189999999999997","45.08","4.051","32.8","1019.83","15.61","96.2","30.2","0.0"],
    [1514625,"2026-04-07 17:50:00","61122","2.9","45.05","4.083","58.67","1019.726","15.58","97.0","29.95","0.0"],
    [1514626,"2026-04-07 18:00:00","61123","2.827","35.94","3.822","27.83","1019.741","15.56","97.8","39.96","0.0"],
    [1514627,"2026-04-07 18:10:00","61124","2.917","31.88","4.083","34.47","1019.805","15.49","98.6","12.8","0.0"],
    [1514628,"2026-04-07 18:20:00","61125","2.727","35.04","3.7239999999999998","35.43","1019.863","15.42","99.4","4.718","0.0"],
    [1514629,"2026-04-07 18:30:00","61126","2.7710000000000004","34.83","3.528","33.36","1019.947","15.37","99.9","0.369","0.0"],
    [1514630,"2026-04-07 18:40:00","61127","2.875","33.92","3.855","37.59","1019.876","15.35","100.0","0.0","0.0"],
    [1514631,"2026-04-07 18:50:00","61128","3.125","35.42","4.41","35.52","1019.83","15.33","100.0","0.0","0.0"],
    [1514632,"2026-04-07 19:00:00","61129","2.94","36.45","4.018","42.1","1019.87","15.35","100.0","0.0","0.0"],
    [1514633,"2026-04-07 19:10:00","61130","3.1910000000000003","34.45","4.2139999999999995","38.29","1019.936","15.36","100.0","0.0","0.0"],
    [1514634,"2026-04-07 19:20:00","61131","2.826","33.88","3.593","27.53","1020.074","15.38","100.0","0.0","0.0"],
    [1514635,"2026-04-07 19:30:00","61132","3.303","28.08","3.822","33.93","1020.174","15.31","100.0","0.0","0.0"],
    [1514636,"2026-04-07 19:40:00","61133","3.446","32.19","4.1160000000000005","33.4","1020.225","15.28","100.0","0.0","0.0"],
    [1514637,"2026-04-07 19:50:00","61134","3.295","30.38","4.279","33.32","1020.386","15.28","100.0","0.0","0.0"],
    [1514638,"2026-04-07 20:00:00","61135","3.383","34.36","4.1160000000000005","36.98","1020.43","15.28","100.0","0.0","0.0"],
    [1514639,"2026-04-07 20:10:00","61136","3.51","35.13","4.508","31.32","1020.485","15.26","100.0","0.0","0.0"],
    [1514640,"2026-04-07 20:20:00","61137","3.295","33.47","4.1160000000000005","38.37","1020.559","15.25","100.0","0.0","0.0"],
    [1514641,"2026-04-07 20:30:00","61138","3.361","30.98","4.312","33.12","1020.553","15.22","100.0","0.0","0.0"],
    [1514642,"2026-04-07 20:40:00","61139","3.386","29.23","4.083","34.92","1020.6","15.2","100.0","0.0","0.0"],
    [1514643,"2026-04-07 20:50:00","61140","3.681","25.65","4.671","29.25","1020.593","15.18","100.0","0.0","0.0"],
    [1514644,"2026-04-07 21:00:00","61141","4.1080000000000005","25.19","5.063","32.09","1020.56","15.15","100.0","0.0","0.0"],
    [1514645,"2026-04-07 21:10:00","61142","3.95","24.66","4.704","30.08","1020.577","15.11","100.0","0.0","0.0"],
    [1514646,"2026-04-07 21:20:00","61143","4.3389999999999995","29.93","5.227","30.19","1020.496","15.06","100.0","0.0","0.0"],
    [1514647,"2026-04-07 21:30:00","61144","4.636","29.0","5.292000000000001","30.45","1020.431","15.06","100.0","0.0","0.0"],
    [1514648,"2026-04-07 21:40:00","61145","4.473","30.06","5.227","30.9","1020.417","15.02","100.0","0.0","0.0"],
    [1514649,"2026-04-07 21:50:00","61146","4.728","29.95","5.357","26.09","1020.373","14.98","100.0","0.0","0.0"],
    [1514650,"2026-04-07 22:00:00","61147","4.633","30.85","5.422999999999999","29.62","1020.381","14.88","100.0","0.0","0.0"],
    [1514651,"2026-04-07 22:10:00","61148","4.072","28.95","4.998","31.6","1020.397","14.82","100.0","0.0","0.0"],
    [1514652,"2026-04-07 22:20:00","61149","4.008","28.8","4.9","31.16","1020.405","14.75","100.0","0.0","0.0"],
    [1514653,"2026-04-07 22:30:00","61150","4.043","28.57","4.802","25.1","1020.343","14.69","100.0","0.0","0.0"],
    [1514654,"2026-04-07 22:40:00","61151","4.4510000000000005","27.15","5.521","22.83","1020.213","14.66","100.0","0.0","0.0"],
    [1514655,"2026-04-07 22:50:00","61152","5.414","28.48","6.599","32.77","1020.13","14.65","100.0","0.0","0.0"],
    [1514656,"2026-04-07 23:00:00","61153","4.699","26.61","5.815","22.15","1020.21","14.63","100.0","0.0","0.0"],
    [1514657,"2026-04-07 23:10:00","61154","4.497","23.36","5.978","23.35","1020.178","14.62","100.0","0.0","0.0"],
    [1514658,"2026-04-07 23:20:00","61155","4.157","21.03","4.933","32.48","1020.163","14.56","100.0","0.0","0.0"],
    [1514659,"2026-04-07 23:30:00","61156","4.254","20.99","5.1610000000000005","22.84","1020.159","14.6","100.0","0.0","0.0"],
    [1514660,"2026-04-07 23:40:00","61157","3.016","16.0","3.822","15.28","1020.215","14.66","100.0","0.0","0.0"],
    [1514661,"2026-04-07 23:50:00","61158","2.987","14.93","3.887","15.54","1020.274","14.67","100.0","0.0","0.0"],
    [1514662,"2026-04-08 00:00:00","61159","3.306","15.12","3.855","20.53","1020.274","14.66","100.0","0.0","0.0"],
    [1514663,"2026-04-08 00:10:00","61160","3.219","18.03","3.7569999999999997","17.67","1020.19","14.66","100.0","0.0","0.0"],
    [1514664,"2026-04-08 00:20:00","61161","2.77","18.64","3.495","24.37","1020.197","14.64","100.0","0.0","0.0"],
    [1514665,"2026-04-08 00:30:00","61162","3.142","21.54","3.92","18.59","1020.149","14.59","99.8","0.0","0.0"],
    [1514666,"2026-04-08 00:40:00","61163","3.091","23.08","4.083","29.53","1020.139","14.61","97.9","0.0","0.0"],
    [1514667,"2026-04-08 00:50:00","61164","3.0239999999999996","20.23","3.985","30.4","1020.141","14.7","94.7","0.0","0.0"],
    [1514668,"2026-04-08 01:00:00","61165","2.923","18.72","3.659","28.87","1020.083","14.68","90.7","0.0","0.0"],
    [1514669,"2026-04-08 01:10:00","61166","2.4019999999999997","13.4","3.136","19.97","1020.039","14.67","86.0","0.0","0.0"],
    [1514670,"2026-04-08 01:20:00","61167","2.065","12.83","3.234","15.41","1019.957","14.77","82.8","0.0","0.0"],
    [1514671,"2026-04-08 01:30:00","61168","1.645","6.0","2.319","15.92","1019.871","14.83","82.0","0.0","0.0"],
    [1514672,"2026-04-08 01:40:00","61169","0.701","338.3","1.274","347.9","1019.79","14.68","82.2","0.0","0.0"],
    [1514673,"2026-04-08 01:50:00","61170","0.187","348.5","0.7509999999999999","12.0","1019.659","14.56","82.2","0.0","0.0"],
    [1514674,"2026-04-08 02:00:00","61171","0.475","2.452","1.078","24.38","1019.587","14.56","82.0","0.0","0.0"],
    [1514675,"2026-04-08 02:10:00","61172","0.299","278.4","0.7190000000000001","281.5","1019.636","14.52","81.8","0.0","0.0"],
    [1514676,"2026-04-08 02:20:00","61173","1.03","251.4","1.633","256.4","1019.651","14.43","81.9","0.0","0.0"],
    [1514677,"2026-04-08 02:30:00","61174","1.077","255.1","1.895","257.1","1019.543","14.4","81.8","0.0","0.0"],
    [1514678,"2026-04-08 02:40:00","61175","0.32299999999999995","241.2","1.143","253.1","1019.454","14.34","82.5","0.0","0.0"],
    [1514679,"2026-04-08 02:50:00","61176","0.8540000000000001","255.9","1.339","265.7","1019.406","14.26","82.9","0.0","0.0"],
    [1514680,"2026-04-08 03:00:00","61177","0.511","293.6","1.045","268.0","1019.289","14.0","83.0","0.0","0.0"],
    [1514681,"2026-04-08 03:10:00","61178","0.168","324.6","0.49","11.96","1019.242","14.21","83.5","0.0","0.0"],
    [1514682,"2026-04-08 03:20:00","61179","0.258","48.83","1.111","32.53","1019.326","14.14","82.8","0.0","0.0"],
    [1514683,"2026-04-08 03:30:00","61180","0.359","285.5","0.8170000000000001","46.41","1019.376","14.08","81.5","0.0","0.0"],
    [1514684,"2026-04-08 03:40:00","61181","0.7390000000000001","277.7","1.601","282.1","1019.379","14.1","79.53","0.0","0.0"],
    [1514685,"2026-04-08 03:50:00","61182","1.173","296.9","1.764","290.4","1019.331","13.98","78.63","0.0","0.0"],
    [1514686,"2026-04-08 04:00:00","61183","0.9279999999999999","292.3","1.307","289.3","1019.314","13.8","78.17","0.0","0.0"],
    [1514687,"2026-04-08 04:10:00","61184","0.39299999999999996","315.7","0.915","305.7","1019.31","13.76","78.0","0.0","0.0"],
    [1514688,"2026-04-08 04:20:00","61185","0.22399999999999998","3.761","0.7190000000000001","14.38","1019.317","13.78","78.33","0.0","0.0"],
    [1514689,"2026-04-08 04:30:00","61186","0.302","14.51","1.045","340.1","1019.335","13.99","79.68","0.0","0.0"],
    [1514690,"2026-04-08 04:40:00","61187","0.902","48.7","2.45","52.39","1019.432","13.99","80.1","0.0","0.0"],
    [1514691,"2026-04-08 04:50:00","61188","1.608","40.24","1.993","41.81","1019.498","14.21","78.54","0.0","0.0"],
    [1514692,"2026-04-08 05:00:00","61189","1.4580000000000002","52.13","2.025","48.11","1019.645","14.28","76.25","0.0","0.0"],
    [1514693,"2026-04-08 05:10:00","61190","1.844","45.54","2.7110000000000003","51.73","1019.71","14.26","74.68","0.0","0.0"],
    [1514694,"2026-04-08 05:20:00","61191","1.347","52.65","2.319","68.75","1019.789","14.5","75.84","0.153","0.0"],
    [1514695,"2026-04-08 05:30:00","61192","1.8869999999999998","56.42","2.5810000000000004","62.54","1019.833","14.25","77.45","3.84","0.0"],
    [1514696,"2026-04-08 05:40:00","61193","1.4680000000000002","39.52","2.319","38.09","1020.041","14.14","74.7","12.59","0.0"],
    [1514697,"2026-04-08 05:50:00","61194","1.051","17.28","1.535","346.8","1020.128","14.36","74.45","28.62","0.0"],
    [1514698,"2026-04-08 06:00:00","61195","0.618","357.9","1.535","7.926","1020.219","14.52","74.99","50.33","0.0"],
    [1514699,"2026-04-08 06:10:00","61196","0.743","315.0","1.2409999999999999","286.0","1020.299","14.07","74.32","73.99","0.0"],
    [1514700,"2026-04-08 06:20:00","61197","0.465","299.4","1.143","287.7","1020.421","13.97","73.19","98.7","0.0"],
    [1514701,"2026-04-08 06:30:00","61198","0.818","59.71","3.234","75.14","1020.521","14.42","71.8","125.5","0.0"],
    [1514702,"2026-04-08 06:40:00","61199","2.7539999999999996","76.25","4.2139999999999995","78.07","1020.608","14.69","80.5","137.1","0.0"],
    [1514703,"2026-04-08 06:50:00","61200","3.7089999999999996","72.44","4.573","72.18","1020.545","14.08","90.5","169.2","0.0"],
    [1514704,"2026-04-08 07:00:00","61201","3.8489999999999998","68.99","4.802","68.03","1020.558","13.73","96.4","151.4","0.0"],
    [1514705,"2026-04-08 07:10:00","61202","3.7880000000000003","66.24","5.553","54.94","1020.585","13.56","99.6","236.3","0.0"],
    [1514706,"2026-04-08 07:20:00","61203","3.735","58.62","5.4879999999999995","60.45","1020.6","13.51","100.0","243.2","0.0"],
    [1514707,"2026-04-08 07:30:00","61204","3.5269999999999997","60.34","4.508","61.2","1020.627","13.4","100.0","179.1","0.0"],
    [1514708,"2026-04-08 07:40:00","61205","3.465","55.86","4.638999999999999","55.29","1020.634","13.31","100.0","250.3","0.0"],
    [1514709,"2026-04-08 07:50:00","61206","3.4160000000000004","54.69","4.541","48.87","1020.649","13.25","100.0","249.6","0.0"],
    [1514710,"2026-04-08 08:00:00","61207","3.2939999999999996","52.65","4.1160000000000005","45.36","1020.658","13.18","100.0","244.8","0.0"],
    [1514711,"2026-04-08 08:10:00","61208","3.198","45.73","4.769","34.0","1020.691","13.18","100.0","307.4","0.0"],
    [1514712,"2026-04-08 08:20:00","61209","2.7089999999999996","61.47","4.475","51.25","1020.707","13.38","100.0","392.3","0.0"],
    [1514713,"2026-04-08 08:30:00","61210","3.281","46.28","4.377","39.96","1020.801","13.45","100.0","450.1","0.0"],
    [1514714,"2026-04-08 08:40:00","61211","3.179","63.76","5.2589999999999995","45.61","1020.884","13.51","100.0","534.8","0.0"],
    [1514715,"2026-04-08 08:50:00","61212","3.287","59.97","4.181","56.17","1020.918","13.62","100.0","435.6","0.0"],
    [1514716,"2026-04-08 09:00:00","61213","3.6660000000000004","67.13","4.802","70.52","1020.978","13.62","100.0","517.4","0.0"],
    [1514717,"2026-04-08 09:10:00","61214","3.446","64.19","4.573","76.0","1021.038","13.57","100.0","481.7","0.0"],
    [1514718,"2026-04-08 09:20:00","61215","3.54","51.03","5.2589999999999995","42.87","1021.116","13.71","100.0","621.2","0.0"],
    [1514719,"2026-04-08 09:30:00","61216","3.54","63.78","4.638999999999999","85.4","1021.123","13.87","100.0","665.7","0.0"],
    [1514720,"2026-04-08 09:40:00","61217","3.6069999999999998","55.02","4.671","50.92","1021.037","14.01","100.0","683.5","0.0"],
    [1514721,"2026-04-08 09:50:00","61218","4.1339999999999995","52.45","5.292000000000001","53.92","1020.943","14.03","100.0","752.1","0.0"],
    [1514722,"2026-04-08 10:00:00","61219","4.112","53.35","5.292000000000001","52.96","1020.985","14.18","100.0","621.8","0.0"],
    [1514723,"2026-04-08 10:10:00","61220","4.29","55.14","6.011","57.74","1020.972","14.13","99.9","689.1","0.0"],
    [1514724,"2026-04-08 10:20:00","61221","4.675","50.23","5.88","46.05","1020.851","14.08","99.7","755.7","0.0"],
    [1514725,"2026-04-08 10:30:00","61222","4.593","49.74","5.455","54.69","1020.796","14.14","99.1","825.0","0.0"],
    [1514726,"2026-04-08 10:40:00","61223","4.474","53.4","5.847","48.3","1020.724","14.25","98.2","832.0","0.0"],
    [1514727,"2026-04-08 10:50:00","61224","4.1160000000000005","58.64","5.455","59.15","1020.758","14.55","97.5","852.0","0.0"],
    [1514728,"2026-04-08 11:00:00","61225","4.218999999999999","58.65","5.782","57.02","1020.736","14.53","97.3","858.0","0.0"],
    [1514729,"2026-04-08 11:10:00","61226","4.83","69.47","5.847","71.18","1020.737","14.45","97.9","866.0","0.0"],
    [1514730,"2026-04-08 11:20:00","61227","4.507","62.1","6.337000000000001","69.73","1020.713","14.49","98.4","874.0","0.0"],
    [1514731,"2026-04-08 11:30:00","61228","4.6739999999999995","64.84","6.403","50.86","1020.648","14.5","98.5","883.0","0.0"],
    [1514732,"2026-04-08 11:40:00","61229","4.638","57.78","5.912999999999999","63.63","1020.592","14.59","98.8","888.0","0.0"],
    [1514733,"2026-04-08 11:50:00","61230","4.695","64.91","6.37","73.58","1020.598","14.59","98.8","891.0","0.0"],
    [1514734,"2026-04-08 12:00:00","61231","4.919","69.15","6.305","71.78","1020.606","14.54","98.9","893.0","0.0"],
    [1514735,"2026-04-08 12:10:00","61232","4.948","59.06","6.7620000000000005","57.15","1020.484","14.68","98.9","893.0","0.0"],
    [1514736,"2026-04-08 12:20:00","61233","4.975","49.6","6.37","45.47","1020.318","14.82","98.8","891.0","0.0"],
    [1514737,"2026-04-08 12:30:00","61234","4.861000000000001","64.99","6.305","70.21","1020.404","14.8","98.7","886.0","0.0"],
    [1514738,"2026-04-08 12:40:00","61235","4.54","58.12","5.945","60.81","1020.289","14.82","99.0","880.0","0.0"],
    [1514739,"2026-04-08 12:50:00","61236","4.265","54.83","5.39","49.02","1020.262","14.97","99.0","872.0","0.0"],
    [1514740,"2026-04-08 13:00:00","61237","3.645","60.47","6.011","56.73","1020.274","14.94","98.8","862.0","0.0"],
    [1514741,"2026-04-08 13:10:00","61238","4.768","59.51","6.435","66.27","1020.223","14.98","97.9","852.0","0.0"],
    [1514742,"2026-04-08 13:20:00","61239","4.809","56.87","6.272","62.22","1020.184","14.97","97.7","842.0","0.0"],
    [1514743,"2026-04-08 13:30:00","61240","4.749","57.48","6.042999999999999","67.46","1020.177","14.95","97.8","829.0","0.0"],
    [1514744,"2026-04-08 13:40:00","61241","5.436","47.36","7.023","46.32","1020.047","14.98","98.2","816.0","0.0"],
    [1514745,"2026-04-08 13:50:00","61242","4.978","48.66","6.566","44.13","1020.03","15.03","98.6","796.8","0.0"],
    [1514746,"2026-04-08 14:00:00","61243","5.1979999999999995","48.13","7.023","48.05","1019.935","15.01","99.0","751.8","0.0"],
    [1514747,"2026-04-08 14:10:00","61244","4.985","48.59","6.664","51.28","1019.93","15.06","99.4","741.2","0.0"],
    [1514748,"2026-04-08 14:20:00","61245","5.091","50.09","6.599","48.79","1019.839","15.07","99.6","729.1","0.0"],
    [1514749,"2026-04-08 14:30:00","61246","5.377000000000001","47.38","6.697","45.55","1019.768","15.02","99.9","658.0","0.0"],
    [1514750,"2026-04-08 14:40:00","61247","5.276","47.77","6.566","45.63","1019.683","15.01","100.0","675.5","0.0"],
    [1514751,"2026-04-08 14:50:00","61248","5.437","48.34","6.664","50.41","1019.573","15.02","100.0","660.5","0.0"],
    [1514752,"2026-04-08 15:00:00","61249","5.721","45.42","7.0889999999999995","46.41","1019.474","14.97","100.0","642.4","0.0"],
    [1514753,"2026-04-08 15:10:00","61250","5.874","43.44","7.252000000000001","44.4","1019.44","15.03","100.0","598.0","0.0"],
    [1514754,"2026-04-08 15:20:00","61251","5.5360000000000005","46.62","6.664","44.79","1019.451","15.04","100.0","572.3","0.0"],
    [1514755,"2026-04-08 15:30:00","61252","4.5889999999999995","51.82","6.7620000000000005","48.55","1019.595","15.09","100.0","502.1","0.0"],
    [1514756,"2026-04-08 15:40:00","61253","3.95","57.29","5.292000000000001","54.19","1019.747","15.16","100.0","415.7","0.0"],
    [1514757,"2026-04-08 15:50:00","61254","4.231","54.16","5.455","58.19","1019.771","15.15","100.0","430.3","0.0"],
    [1514758,"2026-04-08 16:00:00","61255","3.9389999999999996","50.5","5.129","46.18","1019.744","15.2","100.0","408.3","0.0"],
    [1514759,"2026-04-08 16:10:00","61256","3.59","61.2","4.606","74.79","1019.829","15.23","100.0","371.2","0.0"],
    [1514760,"2026-04-08 16:20:00","61257","3.7689999999999997","64.1","5.129","45.83","1019.933","15.16","100.0","293.9","0.0"],
    [1514761,"2026-04-08 16:30:00","61258","3.4219999999999997","68.41","4.9","68.63","1020.022","15.11","100.0","258.1","0.0"],
    [1514762,"2026-04-08 16:40:00","61259","3.359","70.92","4.083","72.57","1020.052","15.12","100.0","174.1","0.0"],
    [1514763,"2026-04-08 16:50:00","61260","2.904","59.65","4.345","52.83","1020.061","15.1","100.0","178.9","0.0"],
    [1514764,"2026-04-08 17:00:00","61261","3.103","59.33","4.018","60.15","1020.021","15.11","100.0","134.8","0.0"],
    [1514765,"2026-04-08 17:10:00","61262","3.915","43.56","4.965","46.49","1019.936","15.1","100.0","163.9","0.0"],
    [1514766,"2026-04-08 17:20:00","61263","3.366","48.17","4.2139999999999995","56.58","1019.959","15.07","100.0","108.8","0.0"],
    [1514767,"2026-04-08 17:30:00","61264","2.678","56.25","3.985","46.25","1020.069","15.06","100.0","99.3","0.0"],
    [1514768,"2026-04-08 17:40:00","61265","2.457","66.65","3.855","59.69","1020.148","15.01","100.0","70.62","0.0"],
    [1514769,"2026-04-08 17:50:00","61266","3.2769999999999997","51.06","4.671","52.11","1020.028","14.93","100.0","64.0","0.0"],
    [1514770,"2026-04-08 18:00:00","61267","2.728","64.93","4.018","35.87","1020.096","14.89","100.0","37.75","0.0"],
    [1514771,"2026-04-08 18:10:00","61268","2.967","67.46","4.475","68.58","1020.063","14.82","100.0","19.01","0.0"],
    [1514772,"2026-04-08 18:20:00","61269","2.549","52.49","3.92","53.24","1019.991","14.75","100.0","5.96","0.0"],
    [1514773,"2026-04-08 18:30:00","61270","2.7319999999999998","33.22","3.9530000000000003","28.17","1020.052","14.64","100.0","1.777","0.0"],
    [1514774,"2026-04-08 18:40:00","61271","2.738","46.26","4.345","26.12","1020.052","14.58","100.0","0.166","0.0"],
    [1514775,"2026-04-08 18:50:00","61272","3.266","34.83","4.769","26.1","1020.086","14.58","100.0","0.0","0.0"],
    [1514776,"2026-04-08 19:00:00","61273","3.931","30.32","5.684","26.85","1020.032","14.54","100.0","0.0","0.0"],
    [1514777,"2026-04-08 19:10:00","61274","3.2569999999999997","33.78","4.541","35.78","1020.219","14.49","100.0","0.0","0.0"],
    [1514778,"2026-04-08 19:20:00","61275","3.935","25.99","5.292000000000001","19.56","1020.336","14.42","100.0","0.0","0.0"],
    [1514779,"2026-04-08 19:30:00","61276","3.8480000000000003","28.09","5.39","22.7","1020.43","14.4","100.0","0.0","0.0"],
    [1514780,"2026-04-08 19:40:00","61277","3.628","27.66","4.867","28.67","1020.534","14.39","100.0","0.0","0.0"],
    [1514781,"2026-04-08 19:50:00","61278","3.812","33.51","5.096","41.16","1020.486","14.34","100.0","0.0","0.0"],
    [1514782,"2026-04-08 20:00:00","61279","4.066","35.4","5.194","29.54","1020.497","14.3","100.0","0.0","0.0"],
    [1514783,"2026-04-08 20:10:00","61280","3.824","35.84","5.194","41.4","1020.509","14.31","100.0","0.0","0.0"],
    [1514784,"2026-04-08 20:20:00","61281","3.7560000000000002","35.17","5.031000000000001","33.07","1020.462","14.38","100.0","0.0","0.0"],
    [1514785,"2026-04-08 20:30:00","61282","3.2","43.69","4.737","34.94","1020.428","14.41","100.0","0.0","0.0"],
    [1514786,"2026-04-08 20:40:00","61283","2.8089999999999997","41.68","4.2139999999999995","40.26","1020.471","14.38","100.0","0.0","0.0"],
    [1514787,"2026-04-08 20:50:00","61284","2.633","37.56","3.659","38.65","1020.53","14.37","100.0","0.0","0.0"],
    [1514788,"2026-04-08 21:00:00","61285","2.873","48.32","3.397","40.49","1020.488","14.32","100.0","0.0","0.0"],
    [1514789,"2026-04-08 21:10:00","61286","2.563","47.6","3.299","42.32","1020.472","14.33","100.0","0.0","0.0"],
    [1514790,"2026-04-08 21:20:00","61287","2.101","52.59","2.94","53.53","1020.384","14.38","100.0","0.0","0.0"],
    [1514791,"2026-04-08 21:30:00","61288","2.025","57.24","2.5810000000000004","57.76","1020.266","14.4","100.0","0.0","0.0"],
    [1514792,"2026-04-08 21:40:00","61289","2.391","53.79","3.0380000000000003","58.43","1020.208","14.38","100.0","0.0","0.0"],
    [1514793,"2026-04-08 21:50:00","61290","1.69","48.1","2.483","39.89","1020.266","14.43","100.0","0.0","0.0"],
    [1514794,"2026-04-08 22:00:00","61291","0.937","45.13","1.535","41.69","1020.448","14.45","100.0","0.0","0.0"],
    [1514795,"2026-04-08 22:10:00","61292","1.011","68.16","1.895","34.98","1020.42","14.43","100.0","0.0","0.0"],
    [1514796,"2026-04-08 22:20:00","61293","0.34600000000000003","84.4","0.8490000000000001","68.14","1020.399","14.41","100.0","0.0","0.0"],
    [1514797,"2026-04-08 22:30:00","61294","0.32899999999999996","129.9","0.98","149.7","1020.495","14.37","100.0","0.0","0.0"],
    [1514798,"2026-04-08 22:40:00","61295","0.42","122.7","1.045","150.1","1020.464","14.35","100.0","0.0","0.0"],
    [1514799,"2026-04-08 22:50:00","61296","0.27399999999999997","94.7","0.6859999999999999","89.7","1020.41","14.31","100.0","0.0","0.0"],
    [1514800,"2026-04-08 23:00:00","61297","0.48100000000000004","79.46","0.882","88.2","1020.32","14.31","100.0","0.0","0.0"],
    [1514801,"2026-04-08 23:10:00","61298","0.193","66.16","0.7190000000000001","57.02","1020.214","14.27","100.0","0.0","0.0"],
    [1514802,"2026-04-08 23:20:00","61299","0.521","49.91","1.274","45.25","1020.122","14.29","100.0","0.0","0.0"],
    [1514803,"2026-04-08 23:30:00","61300","0.996","52.02","1.666","75.14","1020.052","14.28","100.0","0.0","0.0"],
    [1514804,"2026-04-08 23:40:00","61301","1.1640000000000001","76.42","1.96","76.95","1020.067","13.86","100.0","0.0","0.0"],
    [1514805,"2026-04-08 23:50:00","61302","1.089","70.95","1.601","74.97","1019.996","13.68","100.0","0.0","0.0"],
    [1514806,"2026-04-09 00:00:00","61303","1.4280000000000002","58.27","2.0580000000000003","43.53","1019.904","13.42","100.0","0.0","0.0"],
    [1514807,"2026-04-09 00:10:00","61304","0.91","55.83","1.764","40.31","1019.914","13.32","100.0","0.0","0.0"],
    [1514808,"2026-04-09 00:20:00","61305","0.40299999999999997","79.3","0.915","48.25","1019.933","13.19","100.0","0.0","0.0"],
    [1514809,"2026-04-09 00:30:00","61306","0.099","134.8","0.49","138.4","1019.952","13.13","100.0","0.0","0.0"],
    [1514810,"2026-04-09 00:40:00","61307","0.40299999999999997","134.4","0.8490000000000001","152.6","1019.93","13.03","100.0","0.0","0.0"],
    [1514811,"2026-04-09 00:50:00","61308","0.395","144.8","1.078","139.3","1019.809","12.93","100.0","0.0","0.0"],
    [1514812,"2026-04-09 01:00:00","61309","0.376","143.7","0.9470000000000001","161.7","1019.681","12.74","100.0","0.0","0.0"],
    [1514813,"2026-04-09 01:10:00","61310","0.16899999999999998","172.7","0.621","188.1","1019.611","12.7","100.0","0.0","0.0"],
    [1514814,"2026-04-09 01:20:00","61311","0.022000000000000002","141.4","0.425","140.2","1019.5","12.55","100.0","0.0","0.0"],
    [1514815,"2026-04-09 01:30:00","61312","0.35100000000000003","135.0","0.7509999999999999","135.9","1019.393","12.37","100.0","0.0","0.0"],
    [1514816,"2026-04-09 01:40:00","61313","0.56","119.9","0.8490000000000001","106.8","1019.313","12.28","100.0","0.0","0.0"],
    [1514817,"2026-04-09 01:50:00","61314","0.43799999999999994","117.6","0.915","93.1","1019.276","12.25","100.0","0.0","0.0"],
    [1514818,"2026-04-09 02:00:00","61315","0.341","123.5","0.7509999999999999","118.3","1019.231","12.12","100.0","0.0","0.0"],
    [1514819,"2026-04-09 02:10:00","61316","0.324","146.2","0.9470000000000001","153.3","1019.181","12.0","100.0","0.0","0.0"],
    [1514820,"2026-04-09 02:20:00","61317","0.47700000000000004","156.7","1.143","174.8","1019.151","11.99","100.0","0.0","0.0"],
    [1514821,"2026-04-09 02:30:00","61318","0.341","167.0","1.078","191.3","1019.045","11.93","100.0","0.0","0.1"],
    [1514822,"2026-04-09 02:40:00","61319","0.436","176.4","0.98","182.7","1018.982","11.83","100.0","0.0","0.0"],
    [1514823,"2026-04-09 02:50:00","61320","0.6759999999999999","172.3","1.3719999999999999","173.8","1018.885","11.81","100.0","0.0","0.0"],
    [1514824,"2026-04-09 03:00:00","61321","1.145","164.8","1.764","162.5","1018.822","11.77","100.0","0.0","0.0"],
    [1514825,"2026-04-09 03:10:00","61322","0.915","179.1","1.339","179.1","1018.843","11.79","100.0","0.0","0.0"],
    [1514826,"2026-04-09 03:20:00","61323","0.8270000000000001","174.7","1.274","207.1","1018.786","11.78","100.0","0.0","0.0"],
    [1514827,"2026-04-09 03:30:00","61324","0.725","122.5","1.176","109.7","1018.627","11.79","100.0","0.0","0.0"],
    [1514828,"2026-04-09 03:40:00","61325","0.639","133.9","1.078","137.9","1018.63","11.78","100.0","0.0","0.0"],
    [1514829,"2026-04-09 03:50:00","61326","0.871","185.3","1.4369999999999998","167.0","1018.64","11.79","100.0","0.0","0.0"],
    [1514830,"2026-04-09 04:00:00","61327","1.04","173.4","1.829","170.2","1018.553","11.83","100.0","0.0","0.0"],
    [1514831,"2026-04-09 04:10:00","61328","1.446","180.3","2.385","195.8","1018.517","11.87","100.0","0.0","0.0"],
    [1514832,"2026-04-09 04:20:00","61329","1.212","182.7","1.666","162.8","1018.544","12.09","100.0","0.0","0.0"],
    [1514833,"2026-04-09 04:30:00","61330","0.847","217.7","1.764","178.1","1018.559","12.14","100.0","0.0","0.0"],
    [1514834,"2026-04-09 04:40:00","61331","0.953","265.3","2.254","271.4","1018.536","11.46","100.0","0.0","0.0"],
    [1514835,"2026-04-09 04:50:00","61332","1.274","277.1","1.8619999999999999","274.7","1018.454","10.42","100.0","0.187","0.0"],
    [1514836,"2026-04-09 05:00:00","61333","1.199","270.7","1.633","284.4","1018.466","10.5","100.0","1.444","0.0"],
    [1514837,"2026-04-09 05:10:00","61334","0.8809999999999999","345.9","1.47","10.54","1018.52","11.34","100.0","1.392","0.0"],
    [1514838,"2026-04-09 05:20:00","61335","0.22","3.173","0.7509999999999999","22.86","1018.686","12.12","100.0","3.029","0.0"],
    [1514839,"2026-04-09 05:30:00","61336","0.052000000000000005","51.59","1.013","54.37","1018.829","11.7","100.0","7.045","0.0"],
    [1514840,"2026-04-09 05:40:00","61337","1.4569999999999999","35.69","2.025","34.89","1018.967","12.61","100.0","18.93","0.0"],
    [1514841,"2026-04-09 05:50:00","61338","1.8619999999999999","28.92","2.254","28.39","1019.01","12.55","100.0","31.11","0.0"],
    [1514842,"2026-04-09 06:00:00","61339","1.195","31.67","2.189","22.58","1019.216","12.39","100.0","53.08","0.0"],
    [1514843,"2026-04-09 06:10:00","61340","1.185","23.35","1.829","28.08","1019.343","12.38","100.0","98.5","0.0"],
    [1514844,"2026-04-09 06:20:00","61341","1.226","21.18","2.679","26.2","1019.444","12.17","100.0","147.3","0.0"],
    [1514845,"2026-04-09 06:30:00","61342","2.569","29.19","3.365","30.05","1019.484","11.89","100.0","141.9","0.0"],
    [1514846,"2026-04-09 06:40:00","61343","3.0989999999999998","34.81","4.018","33.42","1019.541","12.02","100.0","128.7","0.0"],
    [1514847,"2026-04-09 06:50:00","61344","4.1819999999999995","31.47","4.965","29.16","1019.571","12.1","100.0","135.5","0.0"],
    [1514848,"2026-04-09 07:00:00","61345","3.951","31.9","4.802","29.55","1019.687","12.65","100.0","155.7","0.0"],
    [1514849,"2026-04-09 07:10:00","61346","3.44","41.35","4.1160000000000005","46.61","1019.684","12.83","100.0","171.2","0.0"],
    [1514850,"2026-04-09 07:20:00","61347","3.4419999999999997","40.38","4.051","37.5","1019.622","12.79","100.0","186.7","0.0"],
    [1514851,"2026-04-09 07:30:00","61348","3.1839999999999997","40.7","4.149","40.26","1019.61","12.67","100.0","199.1","0.0"],
    [1514852,"2026-04-09 07:40:00","61349","2.0069999999999997","42.95","3.071","40.58","1019.804","12.64","100.0","222.5","0.0"],
    [1514853,"2026-04-09 07:50:00","61350","2.1180000000000003","48.04","2.7110000000000003","33.55","1019.755","12.72","100.0","273.2","0.0"],
    [1514854,"2026-04-09 08:00:00","61351","1.797","42.9","2.7110000000000003","33.55","1019.727","12.85","100.0","352.8","0.0"],
    [1514855,"2026-04-09 08:10:00","61352","1.173","45.61","2.0580000000000003","31.15","1019.823","13.12","100.0","389.7","0.0"],
    [1514856,"2026-04-09 08:20:00","61353","1.34","88.2","2.287","111.2","1019.95","13.34","100.0","452.8","0.0"],
    [1514857,"2026-04-09 08:30:00","61354","1.5919999999999999","102.5","2.352","107.4","1020.052","13.23","100.0","467.0","0.0"],
    [1514858,"2026-04-09 08:40:00","61355","1.104","100.3","1.666","100.1","1020.114","13.46","100.0","528.7","0.0"],
    [1514859,"2026-04-09 08:50:00","61356","0.634","97.9","1.307","84.0","1020.188","13.78","100.0","576.5","0.0"],
    [1514860,"2026-04-09 09:00:00","61357","1.5530000000000002","100.7","2.417","103.0","1020.167","13.85","100.0","606.9","0.0"],
    [1514861,"2026-04-09 09:10:00","61358","1.574","100.6","2.025","98.1","1020.188","13.6","100.0","542.1","0.0"],
    [1514862,"2026-04-09 09:20:00","61359","1.6130000000000002","95.6","2.319","104.7","1020.208","13.71","100.0","568.5","0.0"],
    [1514863,"2026-04-09 09:30:00","61360","1.84","113.5","2.385","113.8","1020.358","13.7","100.0","622.8","0.0"],
    [1514864,"2026-04-09 09:40:00","61361","1.5490000000000002","106.7","2.156","108.9","1020.281","13.77","100.0","687.3","0.0"],
    [1514865,"2026-04-09 09:50:00","61362","1.621","96.6","2.189","93.8","1020.176","13.88","100.0","728.8","0.0"],
    [1514866,"2026-04-09 10:00:00","61363","1.5190000000000001","88.8","2.352","105.5","1020.088","14.06","100.0","757.5","0.0"],
    [1514867,"2026-04-09 10:10:00","61364","1.6580000000000001","96.5","2.6460000000000004","91.1","1020.094","14.18","99.2","755.1","0.0"],
    [1514868,"2026-04-09 10:20:00","61365","1.905","117.7","2.548","102.6","1020.075","14.15","98.3","771.6","0.0"],
    [1514869,"2026-04-09 10:30:00","61366","1.985","151.5","2.515","146.7","1019.979","14.2","98.2","799.8","0.0"],
    [1514870,"2026-04-09 10:40:00","61367","2.6719999999999997","164.5","3.7889999999999997","178.6","1020.004","14.17","97.9","785.5","0.0"],
    [1514871,"2026-04-09 10:50:00","61368","2.525","167.1","3.136","168.1","1019.955","14.23","98.6","650.2","0.0"],
    [1514872,"2026-04-09 11:00:00","61369","2.943","171.3","3.495","172.4","1019.903","14.23","99.5","750.7","0.0"],
    [1514873,"2026-04-09 11:10:00","61370","3.0439999999999996","165.9","4.018","166.6","1019.792","14.62","98.3","800.0","0.0"],
    [1514874,"2026-04-09 11:20:00","61371","3.759","168.8","4.835","168.8","1019.629","14.94","96.1","764.3","0.0"],
    [1514875,"2026-04-09 11:30:00","61372","3.5810000000000004","171.6","4.573","167.6","1019.495","14.94","95.6","803.0","0.0"],
    [1514876,"2026-04-09 11:40:00","61373","3.742","170.7","4.541","174.4","1019.375","15.07","96.4","816.0","0.0"],
    [1514877,"2026-04-09 11:50:00","61374","4.08","174.9","5.031000000000001","166.3","1019.303","15.48","97.8","602.9","0.0"],
    [1514878,"2026-04-09 12:00:00","61375","4.749","160.7","6.0760000000000005","132.8","1019.236","16.15","98.5","32.35","0.0"],
    [1514879,"2026-04-09 12:10:00","61376","5.234","100.6","6.0760000000000005","51.0","1019.123","15.98","95.0","734.0","0.0"],
    [1514880,"2026-04-09 12:20:00","61377","3.926","236.4","6.435","53.49","1019.039","16.11","93.6","894.0","0.0"],
    [1514881,"2026-04-09 12:30:00","61378","3.987","270.5","5.1610000000000005","117.0","1018.917","15.63","96.9","896.0","0.0"],
    [1514882,"2026-04-09 12:40:00","61379","4.72","27.92","5.325","31.17","1018.849","15.23","99.6","894.0","0.0"],
    [1514883,"2026-04-09 12:50:00","61380","4.628","29.04","5.39","29.66","1018.885","15.21","99.9","832.0","0.0"],
    [1514884,"2026-04-09 13:00:00","61381","4.185","32.18","4.867","30.64","1018.846","15.25","100.0","789.3","0.0"],
    [1514885,"2026-04-09 13:10:00","61382","4.3919999999999995","35.82","5.619","28.53","1018.761","15.31","100.0","824.0","0.0"],
    [1514886,"2026-04-09 13:20:00","61383","4.587","42.45","5.521","32.66","1018.684","15.93","96.3","808.0","0.0"],
    [1514887,"2026-04-09 13:30:00","61384","4.382","41.04","5.292000000000001","36.58","1018.589","16.25","92.0","806.0","0.0"],
    [1514888,"2026-04-09 13:40:00","61385","4.459","34.87","5.7170000000000005","20.96","1018.524","16.11","93.3","683.3","0.0"],
    [1514889,"2026-04-09 13:50:00","61386","4.7219999999999995","33.7","5.749","26.97","1018.443","15.69","96.6","713.0","0.0"],
    [1514890,"2026-04-09 14:00:00","61387","4.635","32.66","5.553","33.73","1018.35","15.45","99.0","784.2","0.0"],
    [1514891,"2026-04-09 14:10:00","61388","4.397","39.27","5.815","31.57","1018.238","15.46","99.5","777.4","0.0"],
    [1514892,"2026-04-09 14:20:00","61389","4.115","44.07","4.933","42.93","1018.143","15.86","95.1","674.4","0.0"],
    [1514893,"2026-04-09 14:30:00","61390","4.2589999999999995","42.72","5.4879999999999995","42.15","1018.046","16.35","88.6","710.7","0.0"],
    [1514894,"2026-04-09 14:40:00","61391","4.186","45.39","5.39","43.23","1017.92","16.68","84.4","690.2","0.0"],
    [1514895,"2026-04-09 14:50:00","61392","4.32","47.91","5.292000000000001","51.39","1017.845","17.23","78.7","596.4","0.0"],
    [1514896,"2026-04-09 15:00:00","61393","5.127000000000001","46.4","6.011","55.55","1017.701","17.71","70.7","473.0","0.0"],
    [1514897,"2026-04-09 15:10:00","61394","4.864","50.69","5.978","44.31","1017.646","17.7","68.07","556.3","0.0"],
    [1514898,"2026-04-09 15:20:00","61395","4.385","53.34","5.749","55.12","1017.567","17.79","67.46","401.9","0.0"],
    [1514899,"2026-04-09 15:30:00","61396","4.777","53.01","5.88","54.89","1017.433","17.44","71.07","432.9","0.0"],
    [1514900,"2026-04-09 15:40:00","61397","3.6910000000000003","65.77","5.357","72.74","1017.373","18.07","65.97","496.0","0.0"],
    [1514901,"2026-04-09 15:50:00","61398","4.012","66.22","6.207000000000001","55.08","1017.238","18.17","63.89","467.2","0.0"],
    [1514902,"2026-04-09 16:00:00","61399","3.215","61.89","4.802","56.25","1017.199","18.22","65.16","416.8","0.0"],
    [1514903,"2026-04-09 16:10:00","61400","2.9589999999999996","70.28","5.357","78.23","1017.176","18.75","59.5","437.9","0.0"],
    [1514904,"2026-04-09 16:20:00","61401","3.1310000000000002","56.34","4.377","52.33","1017.117","18.73","58.51","325.9","0.0"],
    [1514905,"2026-04-09 16:30:00","61402","2.925","53.55","3.887","45.81","1017.069","18.92","56.91","311.7","0.0"],
    [1514906,"2026-04-09 16:40:00","61403","3.3080000000000003","62.91","4.541","64.45","1017.052","18.83","56.83","264.5","0.0"],
    [1514907,"2026-04-09 16:50:00","61404","3.2969999999999997","55.75","4.606","52.9","1017.016","18.51","60.9","256.6","0.0"],
    [1514908,"2026-04-09 17:00:00","61405","3.758","52.82","4.933","46.83","1016.999","18.2","63.86","224.4","0.0"],
    [1514909,"2026-04-09 17:10:00","61406","4.551","50.03","5.978","52.9","1016.998","18.0","65.47","202.9","0.0"],
    [1514910,"2026-04-09 17:20:00","61407","2.988","72.5","4.737","47.41","1017.048","18.19","62.94","156.8","0.0"],
    [1514911,"2026-04-09 17:30:00","61408","3.071","62.23","5.227","62.28","1016.965","18.44","61.12","152.5","0.0"],
    [1514912,"2026-04-09 17:40:00","61409","2.818","63.62","4.1160000000000005","56.01","1017.01","17.95","65.52","101.9","0.0"],
    [1514913,"2026-04-09 17:50:00","61410","2.929","55.81","3.7889999999999997","47.41","1016.997","17.83","67.22","80.0","0.0"],
    [1514914,"2026-04-09 18:00:00","61411","2.764","56.33","3.6910000000000003","49.41","1017.026","17.57","69.41","56.08","0.0"],
    [1514915,"2026-04-09 18:10:00","61412","2.4859999999999998","70.96","3.659","81.5","1017.057","17.72","67.06","35.05","0.0"],
    [1514916,"2026-04-09 18:20:00","61413","2.137","75.78","3.463","74.09","1017.038","17.78","66.44","12.99","0.0"],
    [1514917,"2026-04-09 18:30:00","61414","1.527","86.0","3.332","79.52","1017.14","17.78","66.67","2.968","0.0"],
    [1514918,"2026-04-09 18:40:00","61415","2.274","78.93","4.083","91.5","1017.172","17.66","67.37","0.903","0.0"],
    [1514919,"2026-04-09 18:50:00","61416","2.459","86.6","4.9","90.9","1017.266","17.41","69.24","0.0","0.0"],
    [1514920,"2026-04-09 19:00:00","61417","1.666","94.3","2.907","127.7","1017.359","17.29","71.42","0.0","0.0"],
    [1514921,"2026-04-09 19:10:00","61418","1.686","99.4","2.907","115.4","1017.419","17.2","72.77","0.0","0.0"],
    [1514922,"2026-04-09 19:20:00","61419","1.794","93.5","2.679","110.5","1017.495","17.14","73.51","0.0","0.0"],
    [1514923,"2026-04-09 19:30:00","61420","1.66","84.7","2.5810000000000004","85.5","1017.534","17.2","73.0","0.0","0.0"],
    [1514924,"2026-04-09 19:40:00","61421","1.28","118.5","1.829","109.4","1017.636","17.23","72.41","0.0","0.0"],
    [1514925,"2026-04-09 19:50:00","61422","1.415","108.1","2.7439999999999998","115.6","1017.654","17.1","73.48","0.0","0.0"],
    [1514926,"2026-04-09 20:00:00","61423","0.691","103.6","2.287","108.2","1017.764","17.18","72.12","0.0","0.0"],
    [1514927,"2026-04-09 20:10:00","61424","0.564","92.2","1.8619999999999999","108.4","1017.849","17.25","70.97","0.0","0.0"],
    [1514928,"2026-04-09 20:20:00","61425","1.249","51.89","1.7309999999999999","55.53","1017.917","17.25","71.4","0.0","0.0"],
    [1514929,"2026-04-09 20:30:00","61426","0.466","58.16","1.5030000000000001","61.97","1017.935","17.08","73.97","0.0","0.0"],
    [1514930,"2026-04-09 20:40:00","61427","1.28","54.54","1.993","58.19","1018.005","16.9","75.78","0.0","0.0"],
    [1514931,"2026-04-09 20:50:00","61428","0.638","85.9","1.4369999999999998","150.1","1018.09","16.76","76.42","0.0","0.0"],
    [1514932,"2026-04-09 21:00:00","61429","0.802","113.1","1.535","116.5","1018.038","16.78","76.08","0.0","0.0"],
    [1514933,"2026-04-09 21:10:00","61430","0.7440000000000001","108.9","1.535","81.2","1017.999","16.88","75.63","0.0","0.0"],
    [1514934,"2026-04-09 21:20:00","61431","0.977","116.5","1.797","87.2","1018.026","16.82","76.3","0.0","0.0"],
    [1514935,"2026-04-09 21:30:00","61432","0.757","76.17","1.405","75.21","1018.006","16.84","77.13","0.0","0.0"],
    [1514936,"2026-04-09 21:40:00","61433","0.258","68.98","0.653","69.38","1018.013","16.64","78.4","0.0","0.0"],
    [1514937,"2026-04-09 21:50:00","61434","0.055","75.34","0.359","74.95","1017.991","16.46","80.2","0.0","0.0"],
    [1514938,"2026-04-09 22:00:00","61435","0.851","109.6","1.339","91.4","1018.011","16.4","80.9","0.0","0.0"],
    [1514939,"2026-04-09 22:10:00","61436","0.667","102.2","1.7309999999999999","92.0","1018.039","16.52","80.1","0.0","0.0"],
    [1514940,"2026-04-09 22:20:00","61437","0.73","95.4","1.797","75.88","1018.039","16.57","79.3","0.0","0.0"],
    [1514941,"2026-04-09 22:30:00","61438","0.8390000000000001","130.4","1.339","158.4","1018.098","16.46","79.8","0.0","0.0"],
    [1514942,"2026-04-09 22:40:00","61439","1.275","94.1","2.254","81.7","1018.101","16.35","80.2","0.0","0.0"],
    [1514943,"2026-04-09 22:50:00","61440","1.301","103.9","2.483","112.4","1018.125","16.13","76.74","0.0","0.0"],
    [1514944,"2026-04-09 23:00:00","61441","1.399","126.2","2.907","136.7","1018.128","15.98","70.78","0.0","0.0"],
    [1514945,"2026-04-09 23:10:00","61442","1.946","129.0","3.201","127.5","1018.188","15.76","65.29","0.0","0.0"],
    [1514946,"2026-04-09 23:20:00","61443","2.376","118.1","3.7569999999999997","111.2","1018.193","15.93","64.04","0.0","0.0"],
    [1514947,"2026-04-09 23:30:00","61444","2.35","111.3","3.43","115.1","1018.17","16.14","60.4","0.0","0.0"],
    [1514948,"2026-04-09 23:40:00","61445","1.547","114.2","3.299","119.0","1018.196","16.17","56.96","0.0","0.0"],
    [1514949,"2026-04-09 23:50:00","61446","2.198","113.6","3.7889999999999997","113.0","1018.108","16.24","56.65","0.0","0.0"],
    [1514950,"2026-04-10 00:00:00","61447","1.9169999999999998","116.4","2.94","114.0","1018.036","15.87","59.05","0.0","0.0"],
    [1514951,"2026-04-10 00:10:00","61448","1.301","101.5","2.319","117.1","1018.035","15.84","58.15","0.0","0.0"],
    [1514952,"2026-04-10 00:20:00","61449","2.039","116.5","2.875","119.6","1017.944","15.61","58.17","0.0","0.0"],
    [1514953,"2026-04-10 00:30:00","61450","1.946","125.9","2.7439999999999998","127.8","1017.944","15.48","58.41","0.0","0.0"],
    [1514954,"2026-04-10 00:40:00","61451","2.54","116.9","3.463","117.1","1017.919","15.27","59.52","0.0","0.0"],
    [1514955,"2026-04-10 00:50:00","61452","2.991","118.4","3.7239999999999998","125.5","1017.884","15.3","58.92","0.0","0.0"],
    [1514956,"2026-04-10 01:00:00","61453","2.262","114.6","3.071","118.4","1017.717","15.4","57.91","0.0","0.0"],
    [1514957,"2026-04-10 01:10:00","61454","1.932","117.7","3.005","134.9","1017.648","15.49","56.61","0.0","0.0"],
    [1514958,"2026-04-10 01:20:00","61455","2.645","116.5","3.822","112.6","1017.615","15.53","56.21","0.0","0.0"],
    [1514959,"2026-04-10 01:30:00","61456","2.977","122.9","3.7239999999999998","123.9","1017.584","15.46","57.29","0.0","0.0"],
    [1514960,"2026-04-10 01:40:00","61457","2.043","118.0","3.0380000000000003","122.9","1017.588","15.6","56.42","0.0","0.0"],
    [1514961,"2026-04-10 01:50:00","61458","2.126","128.2","2.515","124.5","1017.45","15.39","57.81","0.0","0.0"],
    [1514962,"2026-04-10 02:00:00","61459","1.919","120.4","2.6460000000000004","121.4","1017.346","15.35","57.92","0.0","0.0"],
    [1514963,"2026-04-10 02:10:00","61460","1.198","115.5","1.7309999999999999","114.7","1017.236","15.42","56.95","0.0","0.0"],
    [1514964,"2026-04-10 02:20:00","61461","1.42","116.6","1.8619999999999999","126.2","1017.181","15.37","57.12","0.0","0.0"],
    [1514965,"2026-04-10 02:30:00","61462","0.624","108.1","1.3719999999999999","114.7","1017.145","15.31","56.67","0.0","0.0"],
    [1514966,"2026-04-10 02:40:00","61463","0.604","120.6","0.98","133.2","1017.145","15.18","57.83","0.0","0.0"],
    [1514967,"2026-04-10 02:50:00","61464","0.22699999999999998","117.2","0.882","117.2","1017.158","15.16","56.8","0.0","0.0"],
    [1514968,"2026-04-10 03:00:00","61465","0.115","75.48","0.882","72.87","1017.132","15.13","57.25","0.0","0.0"],
    [1514969,"2026-04-10 03:10:00","61466","0.214","88.6","0.7190000000000001","71.41","1017.165","14.91","58.42","0.0","0.0"],
    [1514970,"2026-04-10 03:20:00","61467","0.0","0.0","0.0","0.0","1017.104","15.02","57.4","0.0","0.0"],
    [1514971,"2026-04-10 03:30:00","61468","0.0","0.0","0.0","0.0","1017.037","14.89","57.99","0.0","0.0"],
    [1514972,"2026-04-10 03:40:00","61469","0.0","0.0","0.0","0.0","1017.022","15.05","58.39","0.0","0.0"],
    [1514973,"2026-04-10 03:50:00","61470","0.466","164.4","1.307","152.3","1016.979","14.98","59.21","0.0","0.0"],
    [1514974,"2026-04-10 04:00:00","61471","0.945","156.8","1.47","141.0","1016.843","14.9","60.05","0.0","0.0"],
    [1514975,"2026-04-10 04:10:00","61472","0.752","156.0","1.274","149.7","1016.848","15.01","60.0","0.0","0.0"],
    [1514976,"2026-04-10 04:20:00","61473","0.6859999999999999","184.7","1.143","148.5","1016.867","14.86","60.88","0.0","0.0"],
    [1514977,"2026-04-10 04:30:00","61474","0.22399999999999998","187.7","0.6859999999999999","196.8","1016.85","14.95","61.4","0.0","0.0"],
    [1514978,"2026-04-10 04:40:00","61475","0.0","0.0","0.0","0.0","1016.85","15.05","61.26","0.0","0.0"],
    [1514979,"2026-04-10 04:50:00","61476","1.3219999999999998","110.1","2.5810000000000004","118.3","1016.93","14.88","61.29","0.0","0.0"],
    [1514980,"2026-04-10 05:00:00","61477","0.41700000000000004","103.4","1.568","105.6","1016.918","14.74","60.96","0.0","0.0"],
    [1514981,"2026-04-10 05:10:00","61478","0.0","0.0","0.0","0.0","1016.934","14.89","59.98","0.027000000000000003","0.0"],
    [1514982,"2026-04-10 05:20:00","61479","0.0","0.0","0.0","0.0","1016.916","15.14","61.74","1.018","0.0"],
    [1514983,"2026-04-10 05:30:00","61480","0.26899999999999996","217.3","1.176","215.1","1016.943","15.17","63.31","6.607","0.0"],
    [1514984,"2026-04-10 05:40:00","61481","0.251","97.7","0.98","113.0","1016.977","15.14","61.62","15.56","0.0"],
    [1514985,"2026-04-10 05:50:00","61482","0.0","0.0","0.0","0.0","1016.997","15.37","60.78","29.36","0.0"],
    [1514986,"2026-04-10 06:00:00","61483","0.09300000000000001","290.8","0.6859999999999999","306.8","1016.999","15.75","62.65","51.47","0.0"],
    [1514987,"2026-04-10 06:10:00","61484","0.0","0.0","0.0","0.0","1017.095","15.87","62.13","77.21","0.0"],
    [1514988,"2026-04-10 06:20:00","61485","1.1159999999999999","27.29","2.189","28.84","1017.19","15.98","63.46","109.5","0.0"],
    [1514989,"2026-04-10 06:30:00","61486","2.123","50.96","2.7439999999999998","31.57","1017.323","15.69","65.91","144.2","0.0"],
    [1514990,"2026-04-10 06:40:00","61487","1.528","57.96","2.254","73.21","1017.569","15.73","65.25","174.5","0.0"],
    [1514991,"2026-04-10 06:50:00","61488","1.8090000000000002","64.91","2.417","66.18","1017.519","16.36","55.66","208.6","0.0"],
    [1514992,"2026-04-10 07:00:00","61489","1.325","91.1","3.0380000000000003","119.6","1017.565","16.95","51.24","242.3","0.0"],
    [1514993,"2026-04-10 07:10:00","61490","2.989","127.8","5.978","150.2","1017.696","17.15","49.0","280.0","0.0"],
    [1514994,"2026-04-10 07:20:00","61491","3.778","143.1","5.651","148.0","1017.828","17.32","49.45","318.4","0.0"],
    [1514995,"2026-04-10 07:30:00","61492","3.425","127.6","5.749","134.7","1017.928","17.59","54.34","352.5","0.0"],
    [1514996,"2026-04-10 07:40:00","61493","3.335","133.3","5.031000000000001","117.6","1017.966","17.67","55.42","385.6","0.0"],
    [1514997,"2026-04-10 07:50:00","61494","2.354","122.2","4.149","118.7","1017.914","17.95","51.77","418.4","0.0"],
    [1514998,"2026-04-10 08:00:00","61495","2.176","109.0","3.6260000000000003","106.3","1017.855","18.34","49.59","450.9","0.0"],
    [1514999,"2026-04-10 08:10:00","61496","1.7930000000000001","97.0","3.299","125.9","1017.914","18.92","48.68","480.5","0.0"],
    [1515000,"2026-04-10 08:20:00","61497","1.669","94.7","2.842","112.3","1017.949","19.13","48.62","513.8","0.0"],
    [1515001,"2026-04-10 08:30:00","61498","1.8219999999999998","94.2","2.9730000000000003","72.89","1017.998","19.52","46.47","545.1","0.0"],
    [1515002,"2026-04-10 08:40:00","61499","2.039","90.7","3.234","79.28","1018.028","20.02","43.66","575.5","0.0"],
    [1515003,"2026-04-10 08:50:00","61500","1.99","73.33","3.6910000000000003","73.53","1018.093","20.38","41.87","603.4","0.0"],
    [1515004,"2026-04-10 09:00:00","61501","2.1319999999999997","43.66","3.495","37.97","1018.156","19.25","60.4","629.4","0.0"],
    [1515005,"2026-04-10 09:10:00","61502","2.931","40.14","3.855","26.97","1018.145","17.76","73.64","659.4","0.0"],
    [1515006,"2026-04-10 09:20:00","61503","3.375","34.09","4.867","32.58","1018.084","17.54","78.08","687.2","0.0"],
    [1515007,"2026-04-10 09:30:00","61504","4.084","34.37","5.031000000000001","29.71","1018.066","17.15","82.2","712.7","0.0"],
    [1515008,"2026-04-10 09:40:00","61505","4.288","35.75","5.1610000000000005","29.45","1018.107","16.83","88.0","734.5","0.0"],
    [1515009,"2026-04-10 09:50:00","61506","4.861000000000001","32.26","5.782","31.01","1018.047","16.63","92.0","754.1","0.0"],
    [1515010,"2026-04-10 10:00:00","61507","4.86","29.88","5.847","27.43","1018.004","16.33","97.5","772.1","0.0"],
    [1515011,"2026-04-10 10:10:00","61508","4.643","29.91","5.39","29.8","1017.951","16.1","100.0","789.8","0.0"],
    [1515012,"2026-04-10 10:20:00","61509","4.262","32.72","4.998","27.84","1017.943","16.12","100.0","806.0","0.0"],
    [1515013,"2026-04-10 10:30:00","61510","4.053999999999999","27.64","4.671","30.09","1017.925","16.15","100.0","821.0","0.0"],
    [1515014,"2026-04-10 10:40:00","61511","4.073","24.37","4.475","22.19","1017.876","16.14","100.0","836.0","0.0"],
    [1515015,"2026-04-10 10:50:00","61512","3.9530000000000003","23.12","4.2139999999999995","22.55","1017.795","16.14","100.0","847.0","0.0"],
    [1515016,"2026-04-10 11:00:00","61513","3.8139999999999996","25.05","4.606","26.11","1017.755","16.22","100.0","850.0","0.0"],
    [1515017,"2026-04-10 11:10:00","61514","3.577","30.27","4.247","32.25","1017.658","16.24","100.0","861.0","0.0"],
    [1515018,"2026-04-10 11:20:00","61515","4.276","33.14","5.096","30.34","1017.572","16.29","100.0","872.0","0.0"],
    [1515019,"2026-04-10 11:30:00","61516","3.9619999999999997","41.57","4.965","46.7","1017.491","16.56","100.0","880.0","0.0"],
    [1515020,"2026-04-10 11:40:00","61517","3.967","42.34","5.7170000000000005","44.86","1017.426","16.86","99.0","882.0","0.0"],
    [1515021,"2026-04-10 11:50:00","61518","4.571000000000001","44.86","5.422999999999999","46.26","1017.35","17.29","92.0","886.0","0.0"],
    [1515022,"2026-04-10 12:00:00","61519","3.878","47.2","4.9","49.21","1017.237","18.1","82.8","888.0","0.0"],
    [1515023,"2026-04-10 12:10:00","61520","3.321","52.14","4.345","43.36","1017.087","19.38","66.55","888.0","0.0"],
    [1515024,"2026-04-10 12:20:00","61521","3.299","52.86","4.606","61.95","1016.979","20.51","55.74","884.0","0.0"],
    [1515025,"2026-04-10 12:30:00","61522","2.853","59.04","4.377","48.08","1016.881","21.25","49.19","883.0","0.0"],
    [1515026,"2026-04-10 12:40:00","61523","2.67","66.04","4.933","71.33","1016.78","22.22","41.54","872.0","0.0"],
    [1515027,"2026-04-10 12:50:00","61524","3.6310000000000002","46.59","5.455","42.3","1016.678","21.05","49.22","867.0","0.0"],
    [1515028,"2026-04-10 13:00:00","61525","3.7039999999999997","52.12","5.031000000000001","45.54","1016.59","20.05","54.7","861.0","0.0"],
    [1515029,"2026-04-10 13:10:00","61526","4.127","46.89","6.042999999999999","57.11","1016.603","20.71","48.94","854.0","0.0"],
    [1515030,"2026-04-10 13:20:00","61527","4.172","52.8","5.619","48.52","1016.579","20.53","48.4","841.0","0.0"],
    [1515031,"2026-04-10 13:30:00","61528","4.865","43.68","6.5329999999999995","44.85","1016.513","20.32","48.79","829.0","0.0"],
    [1515032,"2026-04-10 13:40:00","61529","5.1080000000000005","44.97","6.697","52.19","1016.486","20.54","46.31","813.0","0.0"],
    [1515033,"2026-04-10 13:50:00","61530","4.981","52.24","7.154","55.43","1016.407","21.31","42.2","797.0","0.0"],
    [1515034,"2026-04-10 14:00:00","61531","4.455","60.57","6.599","69.62","1016.257","22.52","36.0","779.1","0.0"],
    [1515035,"2026-04-10 14:10:00","61532","4.625","59.73","6.599","61.74","1016.141","22.44","35.63","756.0","0.0"],
    [1515036,"2026-04-10 14:20:00","61533","5.771","57.98","8.82","65.92","1016.009","22.15","36.66","732.5","0.0"],
    [1515037,"2026-04-10 14:30:00","61534","4.524","57.62","6.5329999999999995","47.92","1015.871","21.74","40.58","708.1","0.0"],
    [1515038,"2026-04-10 14:40:00","61535","6.062","49.63","7.4479999999999995","48.68","1015.765","20.27","50.15","684.9","0.0"],
    [1515039,"2026-04-10 14:50:00","61536","4.649","53.12","6.729","56.45","1015.72","20.43","52.65","659.0","0.0"],
    [1515040,"2026-04-10 15:00:00","61537","3.3810000000000002","75.97","6.0760000000000005","82.6","968.1158","21.91","41.26","627.1","0.0"],
    [1515041,"2026-04-10 15:10:00","61538","4.461","75.89","7.6770000000000005","75.46","1005.66","22.09","38.78","604.0","0.0"],
    [1515042,"2026-04-10 15:20:00","61539","4.328","81.9","7.415","73.55","1015.137","22.28","36.86","579.3","0.0"],
    [1515043,"2026-04-10 15:30:00","61540","5.593999999999999","77.65","7.775","76.39","1015.092","22.17","34.57","548.3","0.0"],
    [1515044,"2026-04-10 15:40:00","61541","5.303999999999999","79.0","8.1","80.1","1015.004","22.38","31.56","516.4","0.0"],
    [1515045,"2026-04-10 15:50:00","61542","4.333","78.78","7.415","66.87","1014.935","22.53","31.53","480.9","0.0"],
    [1515046,"2026-04-10 16:00:00","61543","3.5380000000000003","80.9","5.782","83.0","1014.87","22.43","32.98","447.0","0.0"],
    [1515047,"2026-04-10 16:10:00","61544","4.2","77.16","7.023","85.1","1014.812","22.34","32.49","413.1","0.0"],
    [1515048,"2026-04-10 16:20:00","61545","4.5680000000000005","78.39","6.697","69.14","1014.689","22.03","32.98","377.8","0.0"],
    [1515049,"2026-04-10 16:30:00","61546","4.872","74.51","7.971","77.56","1014.579","22.06","31.3","340.3","0.0"],
    [1515050,"2026-04-10 16:40:00","61547","3.995","76.39","7.121","86.7","1014.562","22.11","30.6","303.8","0.0"],
    [1515051,"2026-04-10 16:50:00","61548","4.444","75.94","6.925","87.5","1014.54","22.05","28.71","265.1","0.0"],
    [1515052,"2026-04-10 17:00:00","61549","4.593","77.66","6.795","65.29","1014.539","21.98","27.65","230.0","0.0"],
    [1515053,"2026-04-10 17:10:00","61550","4.289","75.9","5.619","69.91","1014.529","21.96","26.92","194.9","0.0"],
    [1515054,"2026-04-10 17:20:00","61551","3.855","79.28","5.88","82.5","1014.448","22.19","25.73","160.7","0.0"],
    [1515055,"2026-04-10 17:30:00","61552","3.35","88.3","4.9","92.2","1014.422","22.46","23.25","128.7","0.0"],
    [1515056,"2026-04-10 17:40:00","61553","3.02","85.2","5.2589999999999995","81.0","1014.467","22.51","23.98","89.7","0.0"],
    [1515057,"2026-04-10 17:50:00","61554","2.823","81.8","4.737","79.3","1014.454","22.4","26.08","52.48","0.0"],
    [1515058,"2026-04-10 18:00:00","61555","2.968","84.0","4.769","86.0","1014.427","22.31","25.96","29.7","0.0"],
    [1515059,"2026-04-10 18:10:00","61556","3.105","91.3","6.305","90.0","1014.456","22.3","25.1","16.34","0.0"],
    [1515060,"2026-04-10 18:20:00","61557","2.54","98.0","4.247","143.2","1014.453","22.19","25.19","6.796","0.0"],
    [1515061,"2026-04-10 18:30:00","61558","2.374","92.9","3.9530000000000003","86.6","1014.516","22.08","25.72","1.209","0.0"],
    [1515062,"2026-04-10 18:40:00","61559","2.589","93.6","4.573","103.7","1014.534","22.02","26.25","0.0","0.0"],
    [1515063,"2026-04-10 18:50:00","61560","3.0860000000000003","90.2","4.671","89.6","1014.599","22.01","27.1","0.0","0.0"],
    [1515064,"2026-04-10 19:00:00","61561","2.8310000000000004","82.8","4.606","87.8","1014.662","22.05","27.69","0.0","0.0"],
    [1515065,"2026-04-10 19:10:00","61562","3.388","53.41","4.508","62.31","1014.753","21.11","31.66","0.0","0.0"],
    [1515066,"2026-04-10 19:20:00","61563","2.803","57.87","4.247","57.95","1014.817","20.61","34.27","0.0","0.0"],
    [1515067,"2026-04-10 19:30:00","61564","2.474","61.32","3.528","57.08","1014.897","20.37","37.88","0.0","0.0"],
    [1515068,"2026-04-10 19:40:00","61565","3.134","53.34","4.051","50.29","1014.978","20.03","40.15","0.0","0.0"],
    [1515069,"2026-04-10 19:50:00","61566","2.51","78.01","4.279","80.8","1015.014","20.35","38.23","0.0","0.0"],
    [1515070,"2026-04-10 20:00:00","61567","2.051","107.5","4.1160000000000005","95.8","1015.068","21.07","32.27","0.0","0.0"],
    [1515071,"2026-04-10 20:10:00","61568","0.966","79.14","2.0580000000000003","65.82","1015.116","20.29","38.5","0.0","0.0"],
    [1515072,"2026-04-10 20:20:00","61569","0.40299999999999997","54.35","1.209","56.1","1015.159","19.05","47.82","0.0","0.0"],
    [1515073,"2026-04-10 20:30:00","61570","0.07200000000000001","308.0","1.045","330.3","1015.17","18.86","45.66","0.0","0.0"],
    [1515074,"2026-04-10 20:40:00","61571","1.1440000000000001","23.66","2.287","20.96","1015.21","18.75","51.36","0.0","0.0"],
    [1515075,"2026-04-10 20:50:00","61572","0.5589999999999999","89.4","1.307","63.89","1015.147","18.7","50.33","0.0","0.0"],
    [1515076,"2026-04-10 21:00:00","61573","0.8220000000000001","79.88","1.209","96.2","1015.098","19.0","47.83","0.0","0.0"],
    [1515077,"2026-04-10 21:10:00","61574","0.48700000000000004","93.5","1.8619999999999999","69.69","1015.042","18.89","50.12","0.0","0.0"],
    [1515078,"2026-04-10 21:20:00","61575","0.91","98.5","1.9269999999999998","118.0","1014.998","18.92","49.61","0.0","0.0"],
    [1515079,"2026-04-10 21:30:00","61576","1.052","95.0","1.9269999999999998","95.0","1014.959","19.22","48.52","0.0","0.0"],
    [1515080,"2026-04-10 21:40:00","61577","0.42200000000000004","92.6","1.143","107.5","1014.969","18.89","50.24","0.0","0.0"],
    [1515081,"2026-04-10 21:50:00","61578","0.841","104.4","1.8619999999999999","116.3","1014.95","18.9","50.4","0.0","0.0"],
    [1515082,"2026-04-10 22:00:00","61579","1.177","111.1","2.287","113.5","1014.904","18.87","48.87","0.0","0.0"],
    [1515083,"2026-04-10 22:10:00","61580","0.75","48.78","2.0580000000000003","90.8","1014.834","18.88","50.83","0.0","0.0"],
    [1515084,"2026-04-10 22:20:00","61581","0.642","80.8","2.189","57.75","1014.804","18.08","56.02","0.0","0.0"],
    [1515085,"2026-04-10 22:30:00","61582","0.317","147.1","0.9470000000000001","166.8","1014.742","18.06","55.6","0.0","0.0"],
    [1515086,"2026-04-10 22:40:00","61583","0.316","57.4","1.078","32.29","1014.71","17.99","56.03","0.0","0.0"],
    [1515087,"2026-04-10 22:50:00","61584","1.473","47.71","2.025","52.31","1014.697","17.68","59.48","0.0","0.0"],
    [1515088,"2026-04-10 23:00:00","61585","1.4069999999999998","51.23","1.9269999999999998","56.22","1014.683","17.47","61.28","0.0","0.0"],
    [1515089,"2026-04-10 23:10:00","61586","1.168","81.5","1.96","55.17","1014.594","17.26","61.99","0.0","0.0"],
    [1515090,"2026-04-10 23:20:00","61587","0.424","122.5","1.2409999999999999","129.4","1014.505","17.48","53.12","0.0","0.0"],
    [1515091,"2026-04-10 23:30:00","61588","0.327","108.3","1.078","113.0","1014.4","17.45","53.93","0.0","0.0"],
    [1515092,"2026-04-10 23:40:00","61589","0.82","56.2","1.699","48.8","1014.312","17.38","57.83","0.0","0.0"],
    [1515093,"2026-04-10 23:50:00","61590","1.39","53.39","2.0909999999999997","53.25","1014.214","17.24","62.35","0.0","0.0"],
    [1515094,"2026-04-11 00:00:00","61591","1.331","47.77","1.797","43.72","1014.102","17.04","64.98","0.0","0.0"],
    [1515095,"2026-04-11 00:10:00","61592","0.363","72.02","1.176","49.93","1014.024","16.85","67.14","0.0","0.0"],
    [1515096,"2026-04-11 00:20:00","61593","0.14","50.49","0.621","59.99","1013.945","16.51","65.45","0.0","0.0"],
    [1515097,"2026-04-11 00:30:00","61594","0.55","156.9","1.143","173.1","1013.841","16.39","58.49","0.0","0.0"],
    [1515098,"2026-04-11 00:40:00","61595","0.823","101.3","1.078","125.9","1013.75","16.72","51.31","0.0","0.0"],
    [1515099,"2026-04-11 00:50:00","61596","0.563","147.1","1.013","159.4","1013.674","16.88","48.84","0.0","0.0"],
    [1515100,"2026-04-11 01:00:00","61597","0.85","156.0","1.3719999999999999","166.2","1013.519","16.77","48.84","0.0","0.0"],
    [1515101,"2026-04-11 01:10:00","61598","0.935","127.9","2.025","104.9","1013.403","16.65","47.47","0.0","0.0"],
    [1515102,"2026-04-11 01:20:00","61599","0.9940000000000001","128.2","1.339","123.0","1013.321","16.56","46.64","0.0","0.0"],
    [1515103,"2026-04-11 01:30:00","61600","1.177","62.25","1.797","56.29","1013.249","16.6","47.48","0.0","0.0"],
    [1515104,"2026-04-11 01:40:00","61601","1.365","64.32","2.907","51.87","1013.134","16.29","50.99","0.0","0.0"],
    [1515105,"2026-04-11 01:50:00","61602","1.475","119.1","2.548","129.0","1013.122","15.89","50.84","0.0","0.0"],
    [1515106,"2026-04-11 02:00:00","61603","2.2880000000000003","118.8","3.136","117.0","1013.085","15.75","50.41","0.0","0.0"],
    [1515107,"2026-04-11 02:10:00","61604","1.992","116.7","3.1689999999999996","120.7","1013.065","15.71","48.35","0.0","0.0"],
    [1515108,"2026-04-11 02:20:00","61605","1.2309999999999999","109.7","2.613","111.1","1013.019","15.75","47.53","0.0","0.0"],
    [1515109,"2026-04-11 02:30:00","61606","2.39","119.3","4.4430000000000005","119.3","1012.917","15.68","47.61","0.0","0.0"],
    [1515110,"2026-04-11 02:40:00","61607","3.647","114.0","5.031000000000001","113.4","1012.862","15.8","46.65","0.0","0.0"],
    [1515111,"2026-04-11 02:50:00","61608","3.153","113.8","4.377","117.4","1012.864","16.23","44.54","0.0","0.0"],
    [1515112,"2026-04-11 03:00:00","61609","3.167","108.9","4.573","113.2","1012.828","16.32","43.57","0.0","0.0"],
    [1515113,"2026-04-11 03:10:00","61610","2.802","110.4","5.1610000000000005","108.9","1012.83","16.26","43.9","0.0","0.0"],
    [1515114,"2026-04-11 03:20:00","61611","2.376","115.1","3.528","117.8","1012.749","16.16","44.13","0.0","0.0"],
    [1515115,"2026-04-11 03:30:00","61612","2.306","108.7","3.92","104.9","1012.711","16.48","42.94","0.0","0.0"],
    [1515116,"2026-04-11 03:40:00","61613","2.377","113.5","3.6260000000000003","111.5","1012.592","16.29","43.68","0.0","0.0"],
    [1515117,"2026-04-11 03:50:00","61614","2.623","112.1","3.92","116.7","1012.485","16.59","42.52","0.0","0.0"],
    [1515118,"2026-04-11 04:00:00","61615","2.214","114.7","3.7569999999999997","116.1","1012.42","16.68","42.29","0.0","0.0"],
    [1515119,"2026-04-11 04:10:00","61616","2.738","116.0","3.463","114.3","1012.345","16.12","44.76","0.0","0.0"],
    [1515120,"2026-04-11 04:20:00","61617","2.695","114.2","3.299","110.7","1012.263","15.98","45.38","0.0","0.0"],
    [1515121,"2026-04-11 04:30:00","61618","2.641","114.6","3.332","115.2","1012.141","15.98","45.28","0.0","0.0"],
    [1515122,"2026-04-11 04:40:00","61619","2.501","116.4","3.103","115.0","1012.033","16.14","44.26","0.0","0.0"],
    [1515123,"2026-04-11 04:50:00","61620","2.474","115.2","3.659","118.4","1012.056","16.55","42.08","0.0","0.0"],
    [1515124,"2026-04-11 05:00:00","61621","2.5469999999999997","119.0","3.6260000000000003","119.8","1012.043","16.12","43.92","0.0","0.0"],
    [1515125,"2026-04-11 05:10:00","61622","2.9330000000000003","120.9","4.247","125.1","1011.921","15.53","47.14","0.006999999999999999","0.0"],
    [1515126,"2026-04-11 05:20:00","61623","2.938","119.2","3.855","120.5","1011.876","15.32","48.11","1.656","0.0"],
    [1515127,"2026-04-11 05:30:00","61624","3.033","123.1","3.7239999999999998","122.8","1011.776","15.37","47.67","6.843","0.0"],
    [1515128,"2026-04-11 05:40:00","61625","2.9160000000000004","119.9","3.6260000000000003","130.3","1011.716","15.54","46.75","13.76","0.0"],
    [1515129,"2026-04-11 05:50:00","61626","2.5580000000000003","116.6","3.887","116.6","1011.794","15.91","44.69","25.33","0.0"],
    [1515130,"2026-04-11 06:00:00","61627","2.5340000000000003","112.8","3.593","113.5","1012.043","16.47","41.81","40.75","0.0"],
    [1515131,"2026-04-11 06:10:00","61628","1.996","118.7","3.397","108.2","1012.069","16.78","41.1","52.93","0.0"],
    [1515132,"2026-04-11 06:20:00","61629","2.727","126.8","3.6260000000000003","127.9","1011.762","15.99","45.27","62.46","0.0"],
    [1515133,"2026-04-11 06:30:00","61630","2.7510000000000003","116.8","3.985","116.3","1011.726","16.25","44.0","84.7","0.0"],
    [1515134,"2026-04-11 06:40:00","61631","2.7880000000000003","125.9","4.1160000000000005","127.0","1011.691","16.59","42.56","131.5","0.0"],
    [1515135,"2026-04-11 06:50:00","61632","2.539","126.3","3.6910000000000003","122.5","1011.702","16.76","42.39","164.1","0.0"],
    [1515136,"2026-04-11 07:00:00","61633","1.944","119.0","3.6260000000000003","123.1","1011.681","17.15","41.32","193.6","0.0"],
    [1515137,"2026-04-11 07:10:00","61634","2.043","120.7","3.103","109.5","1011.622","17.69","39.53","254.9","0.0"],
    [1515138,"2026-04-11 07:20:00","61635","1.518","117.2","2.907","123.1","1011.62","18.02","39.74","284.0","0.0"],
    [1515139,"2026-04-11 07:30:00","61636","1.604","103.0","3.267","73.96","1011.602","18.45","37.8","290.9","0.0"],
    [1515140,"2026-04-11 07:40:00","61637","1.881","91.6","3.6910000000000003","102.1","1011.717","18.96","37.15","329.0","0.0"],
    [1515141,"2026-04-11 07:50:00","61638","2.843","106.2","3.9530000000000003","109.7","1011.662","19.35","35.74","340.8","0.0"],
    [1515142,"2026-04-11 08:00:00","61639","2.5810000000000004","114.1","4.475","111.8","1011.67","19.61","35.01","332.4","0.0"],
    [1515143,"2026-04-11 08:10:00","61640","2.25","105.1","4.41","124.7","1011.722","20.08","33.57","434.7","0.0"],
    [1515144,"2026-04-11 08:20:00","61641","2.135","104.9","3.7569999999999997","106.0","1011.798","20.65","32.07","444.3","0.0"],
    [1515145,"2026-04-11 08:30:00","61642","2.434","108.3","4.606","112.6","1011.807","20.98","31.76","466.4","0.0"],
    [1515146,"2026-04-11 08:40:00","61643","2.524","95.4","4.638999999999999","116.4","1011.91","21.07","30.67","443.9","0.0"],
    [1515147,"2026-04-11 08:50:00","61644","2.7560000000000002","100.9","4.279","103.0","1011.956","20.83","31.15","486.1","0.0"],
    [1515148,"2026-04-11 09:00:00","61645","2.5869999999999997","98.3","4.312","129.5","1011.949","20.74","31.55","550.8","0.0"],
    [1515149,"2026-04-11 09:10:00","61646","2.52","98.4","4.2139999999999995","118.1","1012.023","20.63","32.98","512.3","0.0"],
    [1515150,"2026-04-11 09:20:00","61647","2.025","99.0","3.6260000000000003","115.1","1012.161","20.84","34.48","556.3","0.0"],
    [1515151,"2026-04-11 09:30:00","61648","1.8880000000000001","87.4","4.051","92.6","1012.149","21.28","34.34","526.5","0.0"],
    [1515152,"2026-04-11 09:40:00","61649","1.556","94.6","3.528","72.14","1012.082","21.34","34.82","408.0","0.0"],
    [1515153,"2026-04-11 09:50:00","61650","2.035","63.7","3.1689999999999996","53.22","1012.079","20.71","40.98","480.5","0.0"],
    [1515154,"2026-04-11 10:00:00","61651","2.4419999999999997","83.3","4.181","99.2","1012.1","21.39","35.05","493.6","0.0"],
    [1515155,"2026-04-11 10:10:00","61652","1.749","69.7","2.7439999999999998","57.88","1012.068","21.65","37.12","576.5","0.0"],
    [1515156,"2026-04-11 10:20:00","61653","2.975","34.4","4.573","23.72","1012.039","19.42","52.91","414.9","0.0"],
    [1515157,"2026-04-11 10:30:00","61654","3.455","44.47","4.606","26.92","1011.889","17.74","65.56","666.2","0.0"],
    [1515158,"2026-04-11 10:40:00","61655","3.783","42.26","5.455","27.5","1011.774","17.88","65.78","487.7","0.0"],
    [1515159,"2026-04-11 10:50:00","61656","3.972","33.93","5.357","47.44","1011.683","17.67","67.63","501.0","0.0"],
    [1515160,"2026-04-11 11:00:00","61657","3.87","30.35","4.867","24.49","1011.542","17.52","69.39","735.0","0.0"],
    [1515161,"2026-04-11 11:10:00","61658","3.8110000000000004","35.44","4.802","32.51","1011.374","17.69","67.87","763.8","0.0"],
    [1515162,"2026-04-11 11:20:00","61659","4.03","40.6","5.1610000000000005","28.15","1011.292","17.6","68.15","696.2","0.0"],
    [1515163,"2026-04-11 11:30:00","61660","4.316","49.25","4.965","49.04","1011.171","17.59","68.69","631.8","0.0"],
    [1515164,"2026-04-11 11:40:00","61661","3.8710000000000004","42.48","4.704","41.4","1011.002","18.06","62.41","492.7","0.0"],
    [1515165,"2026-04-11 11:50:00","61662","3.23","41.81","4.737","46.98","1010.936","18.1","62.63","615.5","0.0"],
    [1515166,"2026-04-11 12:00:00","61663","3.695","37.03","5.782","28.85","1010.934","18.12","61.82","400.1","0.0"],
    [1515167,"2026-04-11 12:10:00","61664","3.872","40.36","5.684","31.65","1010.931","18.1","61.42","492.1","0.0"],
    [1515168,"2026-04-11 12:20:00","61665","4.115","26.31","4.835","28.25","1010.879","17.86","66.94","513.9","0.0"],
    [1515169,"2026-04-11 12:30:00","61666","3.6719999999999997","40.14","4.802","54.16","1010.781","17.72","71.08","495.2","0.0"],
    [1515170,"2026-04-11 12:40:00","61667","2.946","35.8","4.4430000000000005","31.45","1010.681","17.77","71.15","557.8","0.0"],
    [1515171,"2026-04-11 12:50:00","61668","2.6660000000000004","29.41","3.267","28.99","1010.704","17.68","72.32","578.2","0.0"],
    [1515172,"2026-04-11 13:00:00","61669","2.9419999999999997","15.11","3.397","13.73","1010.653","17.68","74.09","699.2","0.0"],
    [1515173,"2026-04-11 13:10:00","61670","3.136","16.6","3.528","11.16","1010.637","17.61","77.32","750.9","0.0"],
    [1515174,"2026-04-11 13:20:00","61671","2.465","22.97","3.071","19.72","1010.669","17.58","79.01","492.7","0.0"],
    [1515175,"2026-04-11 13:30:00","61672","1.518","24.13","2.221","27.69","1010.684","18.08","73.7","626.4","0.0"],
    [1515176,"2026-04-11 13:40:00","61673","0.619","5.773","2.123","25.59","1010.631","18.57","66.94","670.4","0.0"],
    [1515177,"2026-04-11 13:50:00","61674","0.998","23.42","1.829","6.621","1010.504","19.01","60.75","499.5","0.0"],
    [1515178,"2026-04-11 14:00:00","61675","0.853","26.8","1.339","4.678","1010.398","18.91","58.6","375.3","0.0"],
    [1515179,"2026-04-11 14:10:00","61676","1.4280000000000002","44.58","1.829","44.74","1010.424","18.76","58.31","313.3","0.0"],
    [1515180,"2026-04-11 14:20:00","61677","1.4480000000000002","35.53","2.842","20.75","1010.497","18.79","57.53","542.7","0.0"],
    [1515181,"2026-04-11 14:30:00","61678","1.9409999999999998","20.24","2.842","20.75","1010.485","18.73","56.18","432.6","0.0"],
    [1515182,"2026-04-11 14:40:00","61679","0.98","23.23","1.9269999999999998","19.33","1010.402","18.85","55.41","320.9","0.0"],
    [1515183,"2026-04-11 14:50:00","61680","0.207","260.3","0.98","230.0","1010.254","19.45","53.02","291.7","0.0"],
    [1515184,"2026-04-11 15:00:00","61681","1.65","253.0","2.8089999999999997","255.1","1010.109","19.55","49.68","242.7","0.0"],
    [1515185,"2026-04-11 15:10:00","61682","2.4219999999999997","266.2","3.463","271.7","1009.936","19.78","45.84","243.9","0.0"],
    [1515186,"2026-04-11 15:20:00","61683","3.648","261.5","4.573","256.6","1009.761","19.32","50.71","212.4","0.0"],
    [1515187,"2026-04-11 15:30:00","61684","3.3080000000000003","256.3","4.312","250.8","1009.758","19.06","52.09","173.5","0.0"],
    [1515188,"2026-04-11 15:40:00","61685","3.335","260.6","3.92","252.6","1009.894","19.29","48.44","116.2","0.0"],
    [1515189,"2026-04-11 15:50:00","61686","3.8339999999999996","258.1","4.769","256.2","1009.991","19.23","49.43","93.3","0.0"],
    [1515190,"2026-04-11 16:00:00","61687","4.388","257.8","5.129","253.5","1009.983","19.02","51.41","78.5","0.0"],
    [1515191,"2026-04-11 16:10:00","61688","4.923","252.5","6.042999999999999","253.8","1009.92","18.68","56.03","72.49","0.0"],
    [1515192,"2026-04-11 16:20:00","61689","4.002","259.1","6.207000000000001","253.7","1010.159","18.76","55.09","101.5","0.0"],
    [1515193,"2026-04-11 16:30:00","61690","3.365","255.9","4.769","262.6","1010.372","18.73","57.04","143.4","0.0"],
    [1515194,"2026-04-11 16:40:00","61691","4.011","254.7","5.2589999999999995","263.6","1010.257","18.46","61.8","129.2","0.0"],
    [1515195,"2026-04-11 16:50:00","61692","4.7860000000000005","249.1","6.207000000000001","249.3","1010.082","18.21","65.58","111.6","0.0"],
    [1515196,"2026-04-11 17:00:00","61693","6.305","251.2","8.1","252.2","1009.845","18.17","64.94","123.5","0.0"],
    [1515197,"2026-04-11 17:10:00","61694","6.712999999999999","254.1","9.08","256.9","1009.764","18.1","64.95","128.3","0.0"],
    [1515198,"2026-04-11 17:20:00","61695","5.603","258.9","8.33","246.6","1010.211","17.88","67.25","112.9","0.0"],
    [1515199,"2026-04-11 17:30:00","61696","5.545","257.8","10.22","245.7","1010.65","17.56","69.46","85.6","0.0"],
    [1515200,"2026-04-11 17:40:00","61697","5.223","269.6","8.85","261.9","1010.887","17.34","71.94","51.96","0.0"],
    [1515201,"2026-04-11 17:50:00","61698","4.683","266.2","7.0889999999999995","278.1","1011.036","17.22","73.12","35.04","0.0"],
    [1515202,"2026-04-11 18:00:00","61699","4.791","270.4","6.9910000000000005","268.1","1011.118","17.21","73.32","22.42","0.0"],
    [1515203,"2026-04-11 18:10:00","61700","4.349","260.1","6.631","285.9","1011.143","17.17","74.02","11.62","0.0"],
    [1515204,"2026-04-11 18:20:00","61701","5.978","252.6","7.84","257.5","1011.228","17.11","74.87","4.462","0.0"],
    [1515205,"2026-04-11 18:30:00","61702","6.696000000000001","250.5","8.85","253.6","1011.34","17.09","75.31","0.725","0.0"],
    [1515206,"2026-04-11 18:40:00","61703","6.899","248.6","8.53","252.0","1011.29","17.06","76.83","0.0","0.0"],
    [1515207,"2026-04-11 18:50:00","61704","7.365","248.5","9.6","250.7","1011.008","17.08","79.78","0.0","0.0"],
    [1515208,"2026-04-11 19:00:00","61705","7.716","248.1","9.67","252.9","1010.921","17.09","82.3","0.0","0.0"],
    [1515209,"2026-04-11 19:10:00","61706","7.877000000000001","244.5","10.06","243.1","1010.815","17.07","83.7","0.0","0.0"],
    [1515210,"2026-04-11 19:20:00","61707","8.41","248.7","10.26","256.9","1010.838","17.04","84.3","0.0","0.0"],
    [1515211,"2026-04-11 19:30:00","61708","8.99","251.2","10.91","251.8","1010.92","16.99","85.3","0.0","0.0"],
    [1515212,"2026-04-11 19:40:00","61709","8.59","253.1","11.76","259.4","1011.011","16.93","86.0","0.0","0.0"],
    [1515213,"2026-04-11 19:50:00","61710","7.545","253.8","10.91","256.8","1011.384","16.83","86.9","0.0","0.0"],
    [1515214,"2026-04-11 20:00:00","61711","6.441","252.4","9.08","252.8","1011.631","16.72","88.1","0.0","0.0"],
    [1515215,"2026-04-11 20:10:00","61712","5.5760000000000005","260.5","7.84","275.5","1011.895","16.64","89.4","0.0","0.0"],
    [1515216,"2026-04-11 20:20:00","61713","6.315","256.4","8.36","254.3","1011.755","16.59","90.4","0.0","0.0"],
    [1515217,"2026-04-11 20:30:00","61714","4.989","264.4","7.154","253.7","1011.853","16.56","91.1","0.0","0.0"],
    [1515218,"2026-04-11 20:40:00","61715","5.093999999999999","268.5","7.775","279.2","1011.924","16.52","91.9","0.0","0.0"],
    [1515219,"2026-04-11 20:50:00","61716","6.145","253.9","8.56","245.7","1011.831","16.46","92.6","0.0","0.0"],
    [1515220,"2026-04-11 21:00:00","61717","6.856","249.4","8.49","261.2","1011.739","16.41","93.5","0.0","0.0"],
    [1515221,"2026-04-11 21:10:00","61718","6.289","250.6","7.6770000000000005","251.5","1011.816","16.34","94.8","0.0","0.0"],
    [1515222,"2026-04-11 21:20:00","61719","6.2","250.1","7.415","250.3","1011.724","16.32","96.1","0.0","0.0"],
    [1515223,"2026-04-11 21:30:00","61720","6.827000000000001","255.1","8.36","258.4","1011.543","16.29","97.0","0.0","0.0"],
    [1515224,"2026-04-11 21:40:00","61721","6.562","254.8","8.43","255.0","1011.399","16.28","97.0","0.0","0.0"],
    [1515225,"2026-04-11 21:50:00","61722","5.725","252.8","7.0889999999999995","255.0","1011.356","16.25","97.9","0.0","0.0"],
    [1515226,"2026-04-11 22:00:00","61723","5.138","248.7","6.795","250.4","1011.251","16.16","98.9","0.0","0.0"],
    [1515227,"2026-04-11 22:10:00","61724","4.544","246.4","6.109","245.7","1011.126","16.14","99.4","0.0","0.0"],
    [1515228,"2026-04-11 22:20:00","61725","3.9810000000000003","246.0","5.586","259.6","1010.994","16.15","99.8","0.0","0.0"],
    [1515229,"2026-04-11 22:30:00","61726","4.053999999999999","245.0","5.325","247.4","1010.952","16.14","99.9","0.0","0.0"],
    [1515230,"2026-04-11 22:40:00","61727","4.279","245.2","5.357","251.1","1010.886","16.14","99.8","0.0","0.0"],
    [1515231,"2026-04-11 22:50:00","61728","4.211","244.8","5.096","256.1","1010.794","16.15","99.5","0.0","0.0"],
    [1515232,"2026-04-11 23:00:00","61729","3.909","247.8","4.769","251.8","1010.718","16.16","99.2","0.0","0.0"],
    [1515233,"2026-04-11 23:10:00","61730","3.752","243.8","5.063","247.5","1010.579","16.21","98.8","0.0","0.0"],
    [1515234,"2026-04-11 23:20:00","61731","3.335","236.4","4.704","235.3","1010.593","16.3","97.9","0.0","0.0"],
    [1515235,"2026-04-11 23:30:00","61732","2.95","250.6","4.051","255.2","1010.572","16.39","96.7","0.0","0.0"],
    [1515236,"2026-04-11 23:40:00","61733","2.904","245.7","4.149","252.3","1010.482","16.53","94.4","0.0","0.0"],
    [1515237,"2026-04-11 23:50:00","61734","2.577","252.6","3.528","245.1","1010.477","16.61","92.9","0.0","0.0"],
    [1515238,"2026-04-12 00:00:00","61735","1.347","252.0","2.45","244.2","1010.556","16.68","91.8","0.0","0.0"],
    [1515239,"2026-04-12 00:10:00","61736","0.527","271.0","1.274","260.1","1010.625","16.69","91.2","0.0","0.0"],
    [1515240,"2026-04-12 00:20:00","61737","0.23600000000000002","205.5","1.078","220.3","1010.521","16.65","91.0","0.0","0.0"],
    [1515241,"2026-04-12 00:30:00","61738","0.614","273.3","1.013","315.1","1010.437","16.61","90.7","0.0","0.0"],
    [1515242,"2026-04-12 00:40:00","61739","1.2","311.7","1.601","312.5","1010.422","16.66","90.3","0.0","0.0"],
    [1515243,"2026-04-12 00:50:00","61740","1.043","322.5","1.568","319.2","1010.333","16.57","90.5","0.0","0.0"],
    [1515244,"2026-04-12 01:00:00","61741","1.5","292.6","2.548","300.2","1010.044","16.46","90.7","0.0","0.0"],
    [1515245,"2026-04-12 01:10:00","61742","1.167","257.8","1.9269999999999998","248.0","1009.975","16.44","90.1","0.0","0.0"],
    [1515246,"2026-04-12 01:20:00","61743","0.401","244.8","1.2409999999999999","213.7","1010.074","16.44","89.6","0.0","0.0"],
    [1515247,"2026-04-12 01:30:00","61744","0.77","259.6","1.601","296.4","1010.02","16.4","89.0","0.0","0.0"],
    [1515248,"2026-04-12 01:40:00","61745","1.27","233.8","1.993","234.1","1009.898","16.4","88.2","0.0","0.0"],
    [1515249,"2026-04-12 01:50:00","61746","2.415","237.0","3.593","252.0","1009.627","16.42","86.8","0.0","0.0"],
    [1515250,"2026-04-12 02:00:00","61747","1.6130000000000002","244.9","2.7439999999999998","259.5","1009.64","16.51","85.0","0.0","0.0"],
    [1515251,"2026-04-12 02:10:00","61748","0.6920000000000001","242.3","1.47","253.7","1009.787","16.5","84.6","0.0","0.0"],
    [1515252,"2026-04-12 02:20:00","61749","1.426","302.6","2.352","312.9","1009.826","16.49","84.0","0.0","0.0"],
    [1515253,"2026-04-12 02:30:00","61750","1.341","295.4","2.287","287.1","1009.787","16.5","83.3","0.0","0.0"],
    [1515254,"2026-04-12 02:40:00","61751","0.8740000000000001","263.8","1.7309999999999999","308.3","1009.789","16.48","82.8","0.0","0.0"],
    [1515255,"2026-04-12 02:50:00","61752","0.9670000000000001","284.0","1.666","296.8","1009.783","16.47","82.2","0.0","0.0"],
    [1515256,"2026-04-12 03:00:00","61753","1.083","263.9","1.8619999999999999","261.6","1009.642","16.51","81.3","0.0","0.0"],
    [1515257,"2026-04-12 03:10:00","61754","0.9079999999999999","313.4","1.633","349.5","1009.812","16.54","80.8","0.0","0.0"],
    [1515258,"2026-04-12 03:20:00","61755","0.932","327.6","1.829","5.862","1009.938","16.5","81.3","0.0","0.0"],
    [1515259,"2026-04-12 03:30:00","61756","2.04","245.4","2.875","230.6","1009.581","16.44","81.5","0.0","0.0"],
    [1515260,"2026-04-12 03:40:00","61757","2.6039999999999996","246.6","3.397","242.0","1009.514","16.49","80.9","0.0","0.0"],
    [1515261,"2026-04-12 03:50:00","61758","1.167","294.2","2.94","255.3","1009.676","16.61","79.21","0.0","0.0"],
    [1515262,"2026-04-12 04:00:00","61759","0.5","356.6","1.045","266.2","1009.676","16.57","79.45","0.0","0.0"],
    [1515263,"2026-04-12 04:10:00","61760","1.6869999999999998","268.0","3.071","265.4","1009.315","16.59","79.32","0.0","0.0"],
    [1515264,"2026-04-12 04:20:00","61761","1.828","285.3","2.613","298.7","1009.258","16.63","79.04","0.0","0.0"],
    [1515265,"2026-04-12 04:30:00","61762","1.966","265.2","2.45","254.3","1009.099","16.45","80.6","0.0","0.0"],
    [1515266,"2026-04-12 04:40:00","61763","0.762","297.3","1.8619999999999999","246.6","1009.08","16.4","81.2","0.0","0.0"],
    [1515267,"2026-04-12 04:50:00","61764","0.972","48.18","1.2409999999999999","28.31","1009.102","16.36","82.0","0.0","0.0"],
    [1515268,"2026-04-12 05:00:00","61765","1.225","29.75","1.535","36.04","1009.348","16.28","82.5","0.0","0.0"],
    [1515269,"2026-04-12 05:10:00","61766","1.175","22.99","1.601","31.47","1009.357","16.26","82.8","0.0","0.0"],
    [1515270,"2026-04-12 05:20:00","61767","1.359","22.52","1.895","44.92","1009.393","16.18","84.6","0.0","0.0"],
    [1515271,"2026-04-12 05:30:00","61768","2.0340000000000003","25.9","3.267","34.89","1009.572","16.05","85.6","0.968","0.0"],
    [1515272,"2026-04-12 05:40:00","61769","2.532","28.71","3.463","16.84","1009.746","16.07","84.3","3.52","0.0"],
    [1515273,"2026-04-12 05:50:00","61770","1.544","46.23","3.43","38.58","1009.723","16.03","82.8","7.475","0.0"],
    [1515274,"2026-04-12 06:00:00","61771","1.419","39.38","2.613","16.11","1009.751","16.08","80.4","13.5","0.0"],
    [1515275,"2026-04-12 06:10:00","61772","1.679","349.0","2.679","8.57","1009.967","16.13","79.11","22.57","0.0"],
    [1515276,"2026-04-12 06:20:00","61773","1.8330000000000002","314.4","3.6910000000000003","296.6","1009.914","16.17","79.88","30.66","0.0"],
    [1515277,"2026-04-12 06:30:00","61774","1.6159999999999999","293.3","3.6260000000000003","268.5","1009.994","16.25","80.1","35.56","0.0"],
    [1515278,"2026-04-12 06:40:00","61775","0.855","246.1","1.895","251.6","1010.051","16.32","79.22","40.39","0.0"],
    [1515279,"2026-04-12 06:50:00","61776","1.8630000000000002","247.3","2.8089999999999997","243.0","1010.023","16.33","77.05","48.23","0.0"],
    [1515280,"2026-04-12 07:00:00","61777","2.0580000000000003","256.4","3.201","246.8","1009.974","16.34","73.46","52.27","0.0"],
    [1515281,"2026-04-12 07:10:00","61778","1.4080000000000001","309.0","2.0909999999999997","331.5","1010.08","16.44","70.03","51.84","0.0"],
    [1515282,"2026-04-12 07:20:00","61779","1.161","318.2","2.025","334.6","1010.079","16.49","67.5","53.54","0.0"],
    [1515283,"2026-04-12 07:30:00","61780","1.245","251.9","2.123","249.0","1009.952","16.42","67.15","62.29","0.0"],
    [1515284,"2026-04-12 07:40:00","61781","0.915","304.8","2.025","319.9","1009.912","16.4","67.48","70.5","0.0"],
    [1515285,"2026-04-12 07:50:00","61782","0.214","333.0","1.013","335.5","1009.861","16.33","67.21","62.33","0.0"],
    [1515286,"2026-04-12 08:00:00","61783","0.0","0.0","0.0","0.0","1009.882","16.28","67.26","47.91","0.0"],
    [1515287,"2026-04-12 08:10:00","61784","0.0","0.0","0.0","0.0","1009.877","16.32","67.13","41.85","0.0"],
    [1515288,"2026-04-12 08:20:00","61785","0.0","0.0","0.0","0.0","1009.789","16.38","66.75","50.35","0.0"],
    [1515289,"2026-04-12 08:30:00","61786","0.0","0.0","0.0","0.0","1009.92","16.45","65.06","62.49","0.0"],
    [1515290,"2026-04-12 08:40:00","61787","0.711","232.1","2.025","223.1","1009.75","16.47","64.08","81.5","0.0"],
    [1515291,"2026-04-12 08:50:00","61788","2.123","224.1","4.41","257.3","1009.503","16.65","62.84","89.5","0.0"],
    [1515292,"2026-04-12 09:00:00","61789","4.546","235.2","5.619","250.9","1009.025","16.52","70.87","92.0","0.0"],
    [1515293,"2026-04-12 09:10:00","61790","3.205","221.9","5.684","195.4","1008.862","17.0","65.06","111.8","0.0"],
    [1515294,"2026-04-12 09:20:00","61791","1.443","299.5","3.9530000000000003","245.0","1009.64","17.57","58.39","136.8","0.0"],
    [1515295,"2026-04-12 09:30:00","61792","2.455","349.2","3.5610000000000004","17.05","1010.238","17.59","58.42","173.2","0.0"],
    [1515296,"2026-04-12 09:40:00","61793","2.274","16.63","3.92","37.83","1010.215","17.24","64.06","191.9","0.0"],
    [1515297,"2026-04-12 09:50:00","61794","3.24","36.03","4.312","36.66","1010.116","16.33","76.4","202.7","0.0"],
    [1515298,"2026-04-12 10:00:00","61795","3.1519999999999997","42.91","3.7889999999999997","35.85","1010.023","16.14","78.17","216.0","0.0"],
    [1515299,"2026-04-12 10:10:00","61796","3.097","46.87","4.181","50.82","1009.991","15.99","77.92","217.5","0.0"],
    [1515300,"2026-04-12 10:20:00","61797","2.2","58.5","3.136","55.63","1009.922","16.0","75.07","207.0","0.0"],
    [1515301,"2026-04-12 10:30:00","61798","1.693","53.8","2.45","48.53","1009.765","16.31","70.46","212.1","0.0"],
    [1515302,"2026-04-12 10:40:00","61799","1.258","50.77","1.764","62.56","1009.539","16.44","68.59","223.4","0.0"],
    [1515303,"2026-04-12 10:50:00","61800","1.8730000000000002","32.75","2.679","31.23","1009.476","16.63","66.2","232.9","0.0"],
    [1515304,"2026-04-12 11:00:00","61801","1.932","23.5","2.254","25.72","1009.367","16.56","65.34","295.2","0.0"],
    [1515305,"2026-04-12 11:10:00","61802","1.61","42.49","2.123","47.27","1009.132","16.75","64.22","359.2","0.0"],
    [1515306,"2026-04-12 11:20:00","61803","1.1079999999999999","30.75","2.613","31.05","1009.015","16.86","66.05","403.4","0.0"],
    [1515307,"2026-04-12 11:30:00","61804","1.088","52.95","2.385","54.35","1008.85","16.96","64.16","393.3","0.0"],
    [1515308,"2026-04-12 11:40:00","61805","1.4269999999999998","77.1","2.7439999999999998","74.57","1008.759","17.47","58.68","366.0","0.0"],
    [1515309,"2026-04-12 11:50:00","61806","2.5180000000000002","142.7","4.9","137.4","1008.715","17.79","55.12","281.9","0.0"],
    [1515310,"2026-04-12 12:00:00","61807","2.509","154.6","4.737","187.3","1008.595","17.83","54.83","216.3","0.0"],
    [1515311,"2026-04-12 12:10:00","61808","3.305","142.1","5.194","135.5","1008.516","17.73","53.53","213.9","0.0"],
    [1515312,"2026-04-12 12:20:00","61809","4.15","141.7","6.501","141.2","1008.52","17.36","53.93","235.9","0.0"],
    [1515313,"2026-04-12 12:30:00","61810","4.2219999999999995","142.9","5.782","146.3","1008.448","17.08","54.79","243.1","0.0"],
    [1515314,"2026-04-12 12:40:00","61811","5.055","140.5","7.121","134.9","1008.378","16.87","55.16","247.8","0.0"],
    [1515315,"2026-04-12 12:50:00","61812","4.61","144.3","7.187","128.9","1008.218","16.8","55.61","234.9","0.0"],
    [1515316,"2026-04-12 13:00:00","61813","4.673","147.3","6.664","142.1","1008.035","16.85","55.44","204.7","0.0"],
    [1515317,"2026-04-12 13:10:00","61814","5.537000000000001","141.3","7.415","134.3","1008.029","16.65","55.64","154.5","0.0"],
    [1515318,"2026-04-12 13:20:00","61815","4.345","146.1","6.141","136.7","1007.927","16.63","56.06","121.1","0.0"],
    [1515319,"2026-04-12 13:30:00","61816","3.864","150.5","6.239","144.0","1007.826","16.68","55.97","110.7","0.0"],
    [1515320,"2026-04-12 13:40:00","61817","3.906","149.2","6.042999999999999","152.9","1007.83","16.59","56.23","102.2","0.0"],
    [1515321,"2026-04-12 13:50:00","61818","3.002","147.4","4.671","157.4","1007.932","16.69","56.2","104.0","0.0"],
    [1515322,"2026-04-12 14:00:00","61819","2.8989999999999996","141.0","4.2139999999999995","157.7","1007.926","16.65","56.49","102.9","0.0"],
    [1515323,"2026-04-12 14:10:00","61820","3.022","139.7","4.704","145.4","1007.939","16.55","57.13","105.9","0.0"],
    [1515324,"2026-04-12 14:20:00","61821","3.573","137.1","5.063","139.6","1008.029","16.43","57.75","111.0","0.0"],
    [1515325,"2026-04-12 14:30:00","61822","3.98","135.9","5.357","140.7","1007.994","16.21","58.73","120.9","0.0"],
    [1515326,"2026-04-12 14:40:00","61823","4.123","138.4","5.847","128.7","1007.903","15.95","60.45","122.8","0.0"],
    [1515327,"2026-04-12 14:50:00","61824","3.4819999999999998","139.4","5.357","149.5","1007.829","15.88","61.78","112.6","0.0"],
    [1515328,"2026-04-12 15:00:00","61825","3.93","138.1","5.553","140.1","1007.854","15.61","63.44","112.7","0.0"],
    [1515329,"2026-04-12 15:10:00","61826","3.888","139.6","5.586","146.9","1007.8","15.44","65.12","94.3","0.0"],
    [1515330,"2026-04-12 15:20:00","61827","4.111000000000001","138.9","6.272","126.2","1007.768","15.33","66.32","80.1","0.0"],
    [1515331,"2026-04-12 15:30:00","61828","4.12","140.9","7.4479999999999995","139.8","1007.667","15.27","67.42","96.4","0.0"],
    [1515332,"2026-04-12 15:40:00","61829","4.768","146.8","7.154","136.9","1007.71","15.12","68.34","102.2","0.0"],
    [1515333,"2026-04-12 15:50:00","61830","5.393","147.2","8.1","149.5","1007.724","14.93","69.48","73.51","0.0"],
    [1515334,"2026-04-12 16:00:00","61831","5.041","144.1","7.218999999999999","158.7","1007.765","14.83","70.26","25.78","0.0"],
    [1515335,"2026-04-12 16:10:00","61832","4.254","140.8","6.272","139.4","1007.9","14.74","71.7","14.02","0.1"],
    [1515336,"2026-04-12 16:20:00","61833","4.31","141.6","6.435","136.9","1007.985","14.55","73.36","24.5","0.1"],
    [1515337,"2026-04-12 16:30:00","61834","4.351","136.9","5.815","142.8","1008.049","14.27","75.91","33.12","0.0"],
    [1515338,"2026-04-12 16:40:00","61835","4.328","137.4","6.37","134.2","1008.059","14.1","77.9","31.99","0.0"],
    [1515339,"2026-04-12 16:50:00","61836","3.891","144.6","6.141","139.6","1008.037","14.04","79.78","27.66","0.0"],
    [1515340,"2026-04-12 17:00:00","61837","4.697","148.0","7.709","149.6","1008.039","14.05","80.0","26.71","0.0"],
    [1515341,"2026-04-12 17:10:00","61838","3.9619999999999997","145.6","6.37","157.6","1008.06","14.15","79.2","19.7","0.0"],
    [1515342,"2026-04-12 17:20:00","61839","3.404","145.4","5.553","147.5","1008.064","14.24","78.94","12.17","0.0"],
    [1515343,"2026-04-12 17:30:00","61840","3.8569999999999998","139.3","6.468","145.0","1008.043","14.11","79.68","11.11","0.0"],
    [1515344,"2026-04-12 17:40:00","61841","3.591","135.7","6.109","136.1","1008.014","13.82","82.7","8.53","0.0"],
    [1515345,"2026-04-12 17:50:00","61842","2.815","138.1","4.638999999999999","131.9","1008.017","13.74","85.3","5.541","0.0"],
    [1515346,"2026-04-12 18:00:00","61843","2.8960000000000004","139.7","4.835","149.7","1008.051","13.72","86.6","3.4","0.1"],
    [1515347,"2026-04-12 18:10:00","61844","2.271","144.3","4.345","142.4","1008.046","13.62","88.1","2.017","0.2"],
    [1515348,"2026-04-12 18:20:00","61845","2.602","139.6","4.606","175.5","1008.057","13.48","90.2","1.266","0.2"],
    [1515349,"2026-04-12 18:30:00","61846","2.371","146.9","4.606","175.5","1008.273","13.39","92.1","0.469","0.2"],
    [1515350,"2026-04-12 18:40:00","61847","2.407","143.0","4.018","148.4","1008.804","13.3","93.8","0.14400000000000002","0.2"],
    [1515351,"2026-04-12 18:50:00","61848","1.456","140.1","2.875","127.7","1009.02","13.22","94.9","0.0","0.2"],
    [1515352,"2026-04-12 19:00:00","61849","1.074","135.6","1.993","143.4","1009.084","13.21","96.0","0.009000000000000001","0.3"],
    [1515353,"2026-04-12 19:10:00","61850","1.224","129.8","2.613","125.0","1009.226","13.24","97.3","0.095","0.4"],
    [1515354,"2026-04-12 19:20:00","61851","1.5419999999999998","127.3","2.483","122.8","1009.42","13.25","98.7","0.092","0.3"],
    [1515355,"2026-04-12 19:30:00","61852","2.04","139.2","3.201","131.9","1009.509","13.14","99.7","0.057","0.2"],
    [1515356,"2026-04-12 19:40:00","61853","1.87","144.8","2.613","136.2","1009.433","13.07","100.0","0.005","0.3"],
    [1515357,"2026-04-12 19:50:00","61854","1.871","143.0","2.613","128.5","1009.385","13.05","100.0","0.016","0.3"],
    [1515358,"2026-04-12 20:00:00","61855","2.011","142.7","3.071","146.7","1009.359","13.04","100.0","0.111","0.2"],
    [1515359,"2026-04-12 20:10:00","61856","2.109","141.2","3.267","158.2","1009.341","13.01","100.0","0.0","0.3"],
    [1515360,"2026-04-12 20:20:00","61857","2.474","135.9","3.985","130.9","1009.171","12.9","100.0","0.0","0.4"],
    [1515361,"2026-04-12 20:30:00","61858","2.937","140.3","4.377","137.8","1009.035","12.87","100.0","0.061","0.4"],
    [1515362,"2026-04-12 20:40:00","61859","3.1710000000000003","143.0","4.475","129.9","1008.867","12.8","100.0","0.225","0.2"],
    [1515363,"2026-04-12 20:50:00","61860","2.778","139.0","4.083","135.2","1008.731","12.86","100.0","0.21100000000000002","0.1"],
    [1515364,"2026-04-12 21:00:00","61861","3.5010000000000003","135.0","4.475","136.8","1008.605","12.71","100.0","0.32","0.2"],
    [1515365,"2026-04-12 21:10:00","61862","3.457","133.8","5.096","128.8","1008.367","12.66","100.0","0.23800000000000002","0.1"],
    [1515366,"2026-04-12 21:20:00","61863","3.32","141.1","4.769","140.2","1008.291","12.68","100.0","0.27399999999999997","0.1"],
    [1515367,"2026-04-12 21:30:00","61864","2.931","140.2","4.377","138.9","1008.207","12.66","100.0","0.087","0.5"],
    [1515368,"2026-04-12 21:40:00","61865","3.733","141.8","5.292000000000001","150.1","1008.324","12.64","100.0","0.862","0.5"],
    [1515369,"2026-04-12 21:50:00","61866","3.923","141.4","5.651","135.3","1008.318","12.66","99.4","1.065","0.3"],
    [1515370,"2026-04-12 22:00:00","61867","4.112","136.2","6.403","132.2","1008.234","12.63","98.6","0.5710000000000001","0.7"],
    [1515371,"2026-04-12 22:10:00","61868","4.598","128.0","7.154","141.9","1008.128","12.61","98.5","0.6729999999999999","0.1"],
    [1515372,"2026-04-12 22:20:00","61869","4.552","129.5","6.925","127.6","1008.115","12.6","97.9","0.522","0.2"],
    [1515373,"2026-04-12 22:30:00","61870","4.346","127.1","7.513","132.9","1008.035","12.59","97.6","0.392","0.1"],
    [1515374,"2026-04-12 22:40:00","61871","3.426","133.2","5.227","135.5","1008.03","12.6","97.2","0.084","0.1"],
    [1515375,"2026-04-12 22:50:00","61872","3.772","129.8","5.521","137.9","1007.966","12.59","96.6","0.162","0.0"],
    [1515376,"2026-04-12 23:00:00","61873","3.35","126.9","5.063","114.3","1007.992","12.6","96.5","0.19","0.1"],
    [1515377,"2026-04-12 23:10:00","61874","2.635","134.4","3.985","145.0","1008.009","12.63","96.1","0.198","0.1"],
    [1515378,"2026-04-12 23:20:00","61875","3.466","133.7","4.867","130.1","1008.007","12.62","95.1","0.547","0.1"],
    [1515379,"2026-04-12 23:30:00","61876","4.255","131.8","5.978","135.7","1007.89","12.61","93.4","1.216","0.0"],
    [1515380,"2026-04-12 23:40:00","61877","4.49","129.6","6.566","132.6","1007.785","12.54","92.6","1.494","0.0"],
    [1515381,"2026-04-12 23:50:00","61878","4.572","132.3","6.599","129.9","1007.693","12.43","92.4","2.11","0.0"],
    [1515382,"2026-04-13 00:00:00","61879","4.721","132.5","6.599","130.3","1007.549","12.35","91.7","0.882","0.0"],
    [1515383,"2026-04-13 00:10:00","61880","4.466","130.7","6.468","135.2","1007.379","12.31","91.4","0.358","0.0"],
    [1515384,"2026-04-13 00:20:00","61881","3.2689999999999997","133.8","5.39","127.7","1007.348","12.27","91.7","0.469","0.1"],
    [1515385,"2026-04-13 00:30:00","61882","1.7069999999999999","144.6","3.495","172.9","1007.39","12.28","91.8","0.445","0.2"],
    [1515386,"2026-04-13 00:40:00","61883","2.7439999999999998","132.1","4.377","121.4","1007.367","12.18","92.1","0.247","0.3"],
    [1515387,"2026-04-13 00:50:00","61884","2.013","147.2","3.397","155.0","1007.252","12.04","93.1","0.28800000000000003","0.2"],
    [1515388,"2026-04-13 01:00:00","61885","1.703","128.5","3.071","119.0","1007.21","11.96","94.0","0.32","0.2"],
    [1515389,"2026-04-13 01:10:00","61886","2.102","132.5","3.7889999999999997","132.2","1007.179","11.81","95.0","0.34","0.3"],
    [1515390,"2026-04-13 01:20:00","61887","3.444","129.1","4.671","129.2","1007.001","11.62","96.0","0.304","0.1"],
    [1515391,"2026-04-13 01:30:00","61888","3.362","129.4","4.541","141.5","1006.811","11.57","97.0","0.322","0.1"],
    [1515392,"2026-04-13 01:40:00","61889","2.8819999999999997","128.7","4.41","142.4","1006.767","11.59","97.3","0.37799999999999995","0.0"],
    [1515393,"2026-04-13 01:50:00","61890","2.553","134.1","3.7569999999999997","136.7","1006.729","11.53","97.3","0.365","0.1"],
    [1515394,"2026-04-13 02:00:00","61891","1.946","134.4","3.103","129.6","1006.687","11.59","96.7","0.40700000000000003","0.0"],
    [1515395,"2026-04-13 02:10:00","61892","1.8459999999999999","125.1","2.842","123.9","1006.708","11.66","95.9","0.49700000000000005","0.1"],
    [1515396,"2026-04-13 02:20:00","61893","1.663","123.2","3.201","149.9","1006.75","11.61","95.7","0.48100000000000004","0.0"],
    [1515397,"2026-04-13 02:30:00","61894","2.03","119.8","3.985","123.5","1006.665","11.51","95.3","0.542","0.1"],
    [1515398,"2026-04-13 02:40:00","61895","2.294","109.3","3.593","113.8","1006.622","11.5","95.6","0.602","0.1"],
    [1515399,"2026-04-13 02:50:00","61896","2.345","98.6","4.279","115.7","1006.542","11.31","95.6","0.49200000000000005","0.0"],
    [1515400,"2026-04-13 03:00:00","61897","2.314","94.1","4.671","113.7","1006.465","11.24","95.3","0.48700000000000004","0.2"],
    [1515401,"2026-04-13 03:10:00","61898","2.401","106.2","4.867","114.6","1006.445","11.17","95.1","0.434","0.0"],
    [1515402,"2026-04-13 03:20:00","61899","2.275","99.8","3.887","108.4","1006.414","11.1","95.1","0.39399999999999996","0.1"],
    [1515403,"2026-04-13 03:30:00","61900","1.765","99.5","3.299","121.2","1006.498","11.12","95.1","0.267","0.0"],
    [1515404,"2026-04-13 03:40:00","61901","1.558","131.3","2.7439999999999998","120.2","1006.587","11.19","95.1","0.23600000000000002","0.0"],
    [1515405,"2026-04-13 03:50:00","61902","2.029","133.4","3.005","131.1","1006.697","11.26","94.2","0.20800000000000002","0.0"],
    [1515406,"2026-04-13 04:00:00","61903","2.45","129.3","3.7569999999999997","126.5","1006.747","11.29","93.3","0.172","0.0"],
    [1515407,"2026-04-13 04:10:00","61904","2.9739999999999998","129.1","4.247","129.6","1006.728","11.28","92.3","0.268","0.0"],
    [1515408,"2026-04-13 04:20:00","61905","2.6919999999999997","122.7","4.018","117.6","1006.7","11.31","91.4","0.638","0.0"],
    [1515409,"2026-04-13 04:30:00","61906","3.406","127.3","5.129","131.6","1006.56","11.07","91.6","0.9620000000000001","0.1"],
    [1515410,"2026-04-13 04:40:00","61907","2.479","134.3","4.541","129.2","1006.453","11.01","90.5","0.9059999999999999","0.0"],
    [1515411,"2026-04-13 04:50:00","61908","2.6210000000000004","135.3","3.92","137.7","1006.438","10.73","90.0","0.5479999999999999","0.0"],
    [1515412,"2026-04-13 05:00:00","61909","2.905","135.0","4.638999999999999","132.7","1006.424","10.7","90.1","0.355","0.0"],
    [1515413,"2026-04-13 05:10:00","61910","2.5140000000000002","135.1","3.7889999999999997","127.3","1006.511","10.69","89.9","0.682","0.0"],
    [1515414,"2026-04-13 05:20:00","61911","2.8480000000000003","127.9","4.051","131.6","1006.578","10.72","89.4","1.611","0.0"],
    [1515415,"2026-04-13 05:30:00","61912","2.833","128.0","3.7569999999999997","127.4","1006.654","10.79","88.6","3.654","0.0"],
    [1515416,"2026-04-13 05:40:00","61913","2.8089999999999997","128.9","3.9530000000000003","127.6","1006.703","10.82","87.6","7.314","0.0"],
    [1515417,"2026-04-13 05:50:00","61914","2.5780000000000003","129.7","3.397","124.9","1006.763","10.86","87.3","9.53","0.0"],
    [1515418,"2026-04-13 06:00:00","61915","2.369","127.6","3.299","133.4","1006.925","10.89","87.8","11.43","0.0"],
    [1515419,"2026-04-13 06:10:00","61916","2.639","131.1","3.7239999999999998","124.9","1007.022","10.82","88.1","17.15","0.0"],
    [1515420,"2026-04-13 06:20:00","61917","2.0909999999999997","127.3","3.267","125.8","1007.192","10.85","88.1","23.96","0.0"],
    [1515421,"2026-04-13 06:30:00","61918","2.42","121.8","3.855","128.8","1007.285","10.79","88.4","31.1","0.0"],
    [1515422,"2026-04-13 06:40:00","61919","2.6639999999999997","124.0","4.181","123.8","1007.269","10.68","88.2","40.74","0.0"],
    [1515423,"2026-04-13 06:50:00","61920","2.852","123.1","4.1160000000000005","122.1","1007.274","10.66","87.3","46.61","0.0"],
    [1515424,"2026-04-13 07:00:00","61921","2.2319999999999998","119.8","3.887","119.5","1007.298","10.66","86.2","55.69","0.0"],
    [1515425,"2026-04-13 07:10:00","61922","1.9269999999999998","115.7","3.332","114.3","1007.595","10.78","85.8","72.4","0.0"],
    [1515426,"2026-04-13 07:20:00","61923","1.636","116.3","3.071","135.3","1007.972","10.92","85.3","66.04","0.0"],
    [1515427,"2026-04-13 07:30:00","61924","2.548","129.6","3.43","127.6","1008.185","10.91","84.2","61.98","0.0"],
    [1515428,"2026-04-13 07:40:00","61925","1.7990000000000002","128.3","2.7769999999999997","123.8","1008.302","11.14","83.2","60.22","0.0"],
    [1515429,"2026-04-13 07:50:00","61926","1.357","119.3","2.0580000000000003","126.4","1008.556","11.36","83.0","50.12","0.0"],
    [1515430,"2026-04-13 08:00:00","61927","1.347","112.2","2.417","112.7","1008.78","11.39","83.0","38.02","0.0"],
    [1515431,"2026-04-13 08:10:00","61928","1.391","111.4","2.7110000000000003","110.1","1008.87","11.27","83.1","37.76","0.0"],
    [1515432,"2026-04-13 08:20:00","61929","1.33","102.4","2.352","101.2","1008.898","11.13","82.7","50.88","0.0"],
    [1515433,"2026-04-13 08:30:00","61930","1.317","94.2","2.6460000000000004","106.1","1008.977","11.21","82.1","69.62","0.0"],
    [1515434,"2026-04-13 08:40:00","61931","1.719","92.8","3.1689999999999996","114.0","1009.153","11.14","80.5","87.7","0.0"],
    [1515435,"2026-04-13 08:50:00","61932","2.06","101.0","3.822","117.9","1009.214","11.14","79.17","102.0","0.0"],
    [1515436,"2026-04-13 09:00:00","61933","1.919","107.5","3.201","112.2","1009.281","11.19","78.08","103.5","0.0"],
    [1515437,"2026-04-13 09:10:00","61934","1.6269999999999998","128.5","2.5810000000000004","133.1","1009.399","11.35","76.6","109.7","0.0"],
    [1515438,"2026-04-13 09:20:00","61935","1.077","99.4","1.797","120.6","1009.613","11.67","75.95","126.6","0.0"],
    [1515439,"2026-04-13 09:30:00","61936","1.594","100.0","2.613","101.1","1009.85","11.74","75.24","156.2","0.0"],
    [1515440,"2026-04-13 09:40:00","61937","1.5530000000000002","114.7","2.9730000000000003","134.1","1009.993","11.85","74.88","208.1","0.0"],
    [1515441,"2026-04-13 09:50:00","61938","2.3169999999999997","123.5","3.365","117.6","1010.207","11.94","73.22","229.3","0.0"],
    [1515442,"2026-04-13 10:00:00","61939","2.414","122.6","4.083","127.4","1010.266","12.11","72.64","231.9","0.0"],
    [1515443,"2026-04-13 10:10:00","61940","2.511","129.8","3.822","142.4","1010.257","12.21","71.07","253.5","0.0"],
    [1515444,"2026-04-13 10:20:00","61941","2.029","129.8","2.94","128.4","1008.908","12.5","70.39","308.2","0.0"],
    [1515445,"2026-04-13 10:30:00","61942","1.9380000000000002","118.9","2.7769999999999997","127.6","1008.896","12.6","68.89","326.9","0.0"],
    [1515446,"2026-04-13 10:40:00","61943","1.8159999999999998","114.2","3.5610000000000004","110.3","1008.99","12.95","67.58","378.3","0.0"],
    [1515447,"2026-04-13 10:50:00","61944","1.7409999999999999","107.1","3.1689999999999996","136.3","1009.026","13.16","67.07","594.3","0.0"],
    [1515448,"2026-04-13 11:00:00","61945","2.0869999999999997","128.3","3.5610000000000004","151.6","1008.993","13.4","65.15","824.0","0.0"],
    [1515449,"2026-04-13 11:10:00","61946","1.675","99.4","3.201","96.5","1008.982","13.86","63.16","911.0","0.0"],
    [1515450,"2026-04-13 11:20:00","61947","2.574","68.43","4.149","64.48","1008.976","14.29","62.23","687.4","0.0"],
    [1515451,"2026-04-13 11:30:00","61948","2.594","67.12","4.377","72.28","1008.918","14.34","60.63","876.0","0.0"],
    [1515452,"2026-04-13 11:40:00","61949","3.918","52.27","6.468","64.28","1008.814","14.4","63.22","958.0","0.0"],
    [1515453,"2026-04-13 11:50:00","61950","5.89","44.2","7.905","42.26","1008.76","13.6","75.74","916.0","0.0"],
    [1515454,"2026-04-13 12:00:00","61951","5.912999999999999","47.23","7.775","48.33","1008.761","13.51","78.98","852.0","0.0"],
    [1515455,"2026-04-13 12:10:00","61952","5.95","43.5","7.056","48.8","1008.69","13.11","82.3","867.0","0.0"],
    [1515456,"2026-04-13 12:20:00","61953","5.744","46.31","6.925","52.19","1008.759","13.1","84.6","920.0","0.0"],
    [1515457,"2026-04-13 12:30:00","61954","5.541","42.84","7.023","43.28","1008.781","13.19","85.1","885.0","0.0"],
    [1515458,"2026-04-13 12:40:00","61955","5.439","40.89","6.566","37.74","1008.791","13.39","83.7","925.0","0.0"],
    [1515459,"2026-04-13 12:50:00","61956","5.706","43.82","7.4479999999999995","46.16","1008.848","13.38","83.0","856.0","0.0"],
    [1515460,"2026-04-13 13:00:00","61957","5.396","42.23","7.285","46.08","1008.851","13.58","81.5","826.0","0.0"],
    [1515461,"2026-04-13 13:10:00","61958","5.504","41.47","7.285","40.67","1008.908","13.71","80.6","893.0","0.0"],
    [1515462,"2026-04-13 13:20:00","61959","5.445","41.88","7.415","50.42","1008.979","13.73","80.4","883.0","0.0"],
    [1515463,"2026-04-13 13:30:00","61960","5.856","42.17","8.3","48.82","1009.012","13.78","79.5","881.0","0.0"],
    [1515464,"2026-04-13 13:40:00","61961","6.059","45.98","8.26","42.49","1009.009","13.73","78.78","861.0","0.0"],
    [1515465,"2026-04-13 13:50:00","61962","6.075","47.08","7.775","44.84","1008.947","13.66","79.07","855.0","0.0"],
    [1515466,"2026-04-13 14:00:00","61963","6.26","47.45","7.775","53.26","1008.987","13.63","78.27","847.0","0.0"],
    [1515467,"2026-04-13 14:10:00","61964","5.625","46.27","7.154","47.48","1009.007","13.77","77.25","822.0","0.0"],
    [1515468,"2026-04-13 14:20:00","61965","5.307","41.65","6.86","47.5","1009.013","13.89","75.92","785.6","0.0"],
    [1515469,"2026-04-13 14:30:00","61966","5.438","35.47","6.86","30.68","1008.977","13.96","75.33","771.3","0.0"],
    [1515470,"2026-04-13 14:40:00","61967","4.926","41.34","6.566","48.87","1009.024","14.07","73.27","746.0","0.0"],
    [1515471,"2026-04-13 14:50:00","61968","5.052","42.12","6.9910000000000005","47.79","1009.11","14.2","71.0","718.2","0.0"],
    [1515472,"2026-04-13 15:00:00","61969","4.7860000000000005","38.13","6.566","35.35","1009.126","14.35","69.52","698.3","0.0"],
    [1515473,"2026-04-13 15:10:00","61970","5.152","30.93","6.305","24.72","1009.151","14.3","68.63","675.9","0.0"],
    [1515474,"2026-04-13 15:20:00","61971","4.7860000000000005","25.67","5.651","31.07","1009.198","14.26","70.69","631.3","0.0"],
    [1515475,"2026-04-13 15:30:00","61972","4.231","13.11","5.031000000000001","16.49","1009.295","14.29","70.3","290.9","0.0"],
    [1515476,"2026-04-13 15:40:00","61973","3.843","11.94","5.031000000000001","21.37","1009.375","14.29","70.75","121.8","0.0"],
    [1515477,"2026-04-13 15:50:00","61974","3.6719999999999997","13.79","4.4430000000000005","20.69","1009.441","14.28","70.31","101.2","0.0"],
    [1515478,"2026-04-13 16:00:00","61975","3.639","16.54","4.41","14.63","1009.526","14.32","68.96","100.0","0.0"],
    [1515479,"2026-04-13 16:10:00","61976","3.492","10.54","4.4430000000000005","18.01","1009.606","14.48","69.14","403.4","0.0"],
    [1515480,"2026-04-13 16:20:00","61977","3.17","7.061","3.9530000000000003","6.609","1009.702","14.54","70.19","204.5","0.0"],
    [1515481,"2026-04-13 16:30:00","61978","3.235","11.76","4.1160000000000005","16.36","1009.767","14.41","69.5","165.7","0.0"],
    [1515482,"2026-04-13 16:40:00","61979","2.8480000000000003","4.407","3.92","6.965","1009.881","14.42","69.64","63.27","0.0"],
    [1515483,"2026-04-13 16:50:00","61980","2.82","357.0","3.659","7.2","1010.012","14.39","71.14","74.96","0.0"],
    [1515484,"2026-04-13 17:00:00","61981","2.9330000000000003","332.5","4.083","325.5","1010.111","14.36","70.84","71.41","0.0"],
    [1515485,"2026-04-13 17:10:00","61982","3.136","326.1","4.704","316.0","1010.187","14.39","72.09","63.21","0.0"],
    [1515486,"2026-04-13 17:20:00","61983","3.2960000000000003","331.5","4.377","338.2","1010.248","14.29","73.78","57.27","0.0"],
    [1515487,"2026-04-13 17:30:00","61984","3.447","319.6","4.508","312.8","1010.388","14.23","73.38","45.38","0.0"],
    [1515488,"2026-04-13 17:40:00","61985","2.951","309.0","4.802","301.3","1010.568","14.29","73.2","32.76","0.0"],
    [1515489,"2026-04-13 17:50:00","61986","3.3480000000000003","304.5","4.802","299.3","1010.64","14.28","74.04","25.81","0.0"],
    [1515490,"2026-04-13 18:00:00","61987","3.073","309.0","4.638999999999999","305.1","1010.778","14.27","75.31","21.05","0.0"],
    [1515491,"2026-04-13 18:10:00","61988","2.338","334.9","3.43","346.5","1010.865","14.23","76.24","15.01","0.0"],
    [1515492,"2026-04-13 18:20:00","61989","2.7119999999999997","320.7","3.7569999999999997","315.8","1010.992","14.27","76.93","12.39","0.0"],
    [1515493,"2026-04-13 18:30:00","61990","2.84","315.5","3.822","311.0","1011.108","14.25","78.28","3.285","0.0"],
    [1515494,"2026-04-13 18:40:00","61991","2.9989999999999997","327.8","3.855","324.0","1011.251","14.24","78.07","0.5429999999999999","0.0"],
    [1515495,"2026-04-13 18:50:00","61992","2.416","316.7","3.332","321.8","1011.527","14.32","76.78","0.0","0.0"],
    [1515496,"2026-04-13 19:00:00","61993","2.46","316.3","3.855","306.7","1011.699","14.41","76.32","0.0","0.0"],
    [1515497,"2026-04-13 19:10:00","61994","2.301","339.7","3.0380000000000003","331.2","1011.839","14.5","77.34","0.0","0.0"],
    [1515498,"2026-04-13 19:20:00","61995","2.7310000000000003","345.7","3.985","337.6","1012.005","14.48","77.98","0.0","0.0"],
    [1515499,"2026-04-13 19:30:00","61996","2.733","356.6","3.7569999999999997","16.36","1012.183","14.53","78.32","0.0","0.0"],
    [1515500,"2026-04-13 19:40:00","61997","3.109","347.0","4.4430000000000005","3.165","1012.286","14.59","78.84","0.0","0.0"],
    [1515501,"2026-04-13 19:50:00","61998","3.781","354.4","5.031000000000001","346.6","1012.404","14.45","82.0","0.0","0.0"],
    [1515502,"2026-04-13 20:00:00","61999","3.781","353.7","4.671","7.15","1012.484","14.41","81.5","0.0","0.0"],
    [1515503,"2026-04-13 20:10:00","62000","4.209","5.058","6.697","0.59","1012.631","14.55","78.95","0.0","0.0"],
    [1515504,"2026-04-13 20:20:00","62001","3.845","7.659","5.847","5.186","1012.835","14.62","78.35","0.0","0.0"],
    [1515505,"2026-04-13 20:30:00","62002","4.08","5.32","5.357","1.361","1012.933","14.64","78.41","0.0","0.0"],
    [1515506,"2026-04-13 20:40:00","62003","4.422","6.322","6.272","9.6","1013.023","14.67","77.7","0.0","0.0"],
    [1515507,"2026-04-13 20:50:00","62004","4.287","3.21","5.553","3.955","1013.148","14.74","74.69","0.0","0.0"],
    [1515508,"2026-04-13 21:00:00","62005","4.221","10.14","5.749","18.57","1013.247","14.8","71.98","0.0","0.0"],
    [1515509,"2026-04-13 21:10:00","62006","4.024","354.8","5.422999999999999","342.2","1013.353","14.82","71.8","0.0","0.0"],
    [1515510,"2026-04-13 21:20:00","62007","3.502","3.173","4.933","348.6","1013.421","14.83","71.4","0.0","0.0"],
    [1515511,"2026-04-13 21:30:00","62008","3.613","1.46","4.541","17.1","1013.431","14.81","71.04","0.0","0.0"],
    [1515512,"2026-04-13 21:40:00","62009","3.948","13.78","5.357","15.74","1013.476","14.79","71.04","0.0","0.0"],
    [1515513,"2026-04-13 21:50:00","62010","3.9619999999999997","13.66","4.965","2.544","1013.534","14.85","70.75","0.0","0.0"],
    [1515514,"2026-04-13 22:00:00","62011","3.7560000000000002","22.75","4.704","16.45","1013.677","14.8","71.05","0.0","0.0"],
    [1515515,"2026-04-13 22:10:00","62012","3.468","25.21","4.181","22.79","1013.817","14.79","70.47","0.0","0.0"],
    [1515516,"2026-04-13 22:20:00","62013","3.68","23.68","4.769","23.45","1013.789","14.79","70.73","0.0","0.0"],
    [1515517,"2026-04-13 22:30:00","62014","3.1260000000000003","26.81","4.1160000000000005","27.34","1013.82","14.86","70.51","0.0","0.0"],
    [1515518,"2026-04-13 22:40:00","62015","3.76","25.11","4.573","28.85","1013.841","14.83","69.73","0.0","0.0"],
    [1515519,"2026-04-13 22:50:00","62016","3.944","23.05","4.671","22.71","1013.886","14.9","68.6","0.0","0.0"],
    [1515520,"2026-04-13 23:00:00","62017","3.5580000000000003","26.52","4.541","25.32","1013.978","14.92","70.55","0.0","0.0"],
    [1515521,"2026-04-13 23:10:00","62018","3.6719999999999997","27.17","4.279","18.28","1014.038","14.92","71.83","0.0","0.0"],
    [1515522,"2026-04-13 23:20:00","62019","4.002","25.32","4.606","23.47","1014.037","14.83","71.18","0.0","0.0"],
    [1515523,"2026-04-13 23:30:00","62020","4.288","21.7","5.031000000000001","18.23","1013.978","14.85","69.71","0.0","0.0"],
    [1515524,"2026-04-13 23:40:00","62021","4.289","15.41","5.422999999999999","15.28","1013.949","14.87","69.89","0.0","0.0"],
    [1515525,"2026-04-13 23:50:00","62022","3.76","25.71","4.769","19.66","1014.024","14.87","69.94","0.0","0.0"],
    [1515526,"2026-04-14 00:00:00","62023","4.0680000000000005","25.3","4.802","27.15","1014.063","14.85","69.84","0.0","0.0"],
    [1515527,"2026-04-14 00:10:00","62024","4.18","25.88","4.769","31.13","1014.076","14.87","69.07","0.0","0.0"],
    [1515528,"2026-04-14 00:20:00","62025","3.886","28.48","4.835","25.72","1014.087","14.88","68.22","0.0","0.0"],
    [1515529,"2026-04-14 00:30:00","62026","3.062","36.3","4.345","24.65","1014.094","14.87","68.78","0.0","0.0"],
    [1515530,"2026-04-14 00:40:00","62027","1.2830000000000001","73.05","3.593","32.67","1014.089","14.53","69.38","0.0","0.0"],
    [1515531,"2026-04-14 00:50:00","62028","0.925","110.9","1.633","130.1","1014.125","13.91","73.45","0.0","0.0"],
    [1515532,"2026-04-14 01:00:00","62029","1.041","112.4","2.156","133.3","1014.133","13.59","74.99","0.0","0.0"],
    [1515533,"2026-04-14 01:10:00","62030","2.025","123.4","2.7439999999999998","128.2","1014.124","13.44","76.58","0.0","0.0"],
    [1515534,"2026-04-14 01:20:00","62031","2.106","119.3","2.907","128.6","1014.143","13.24","78.58","0.0","0.0"],
    [1515535,"2026-04-14 01:30:00","62032","2.026","127.2","2.7110000000000003","132.3","1014.135","12.93","80.7","0.0","0.0"],
    [1515536,"2026-04-14 01:40:00","62033","2.009","122.9","2.7439999999999998","119.9","1014.158","12.69","82.6","0.0","0.0"],
    [1515537,"2026-04-14 01:50:00","62034","1.6159999999999999","120.4","2.254","115.8","1014.167","12.61","83.5","0.0","0.0"],
    [1515538,"2026-04-14 02:00:00","62035","1.4580000000000002","115.7","2.156","111.8","1014.197","12.58","83.8","0.0","0.0"],
    [1515539,"2026-04-14 02:10:00","62036","1.77","122.4","2.123","119.6","1014.17","12.52","83.8","0.0","0.0"],
    [1515540,"2026-04-14 02:20:00","62037","1.5230000000000001","118.7","2.0909999999999997","116.6","1014.193","12.5","83.8","0.0","0.0"],
    [1515541,"2026-04-14 02:30:00","62038","1.2209999999999999","117.5","1.666","119.6","1014.162","12.5","83.9","0.0","0.0"],
    [1515542,"2026-04-14 02:40:00","62039","1.557","123.3","2.123","116.6","1014.169","12.5","84.4","0.0","0.0"],
    [1515543,"2026-04-14 02:50:00","62040","1.368","120.5","1.797","125.8","1014.22","12.61","84.5","0.0","0.0"],
    [1515544,"2026-04-14 03:00:00","62041","1.12","116.4","1.568","100.2","1014.274","12.72","83.8","0.0","0.0"],
    [1515545,"2026-04-14 03:10:00","62042","1.262","127.5","1.829","124.1","1014.301","12.73","83.2","0.0","0.0"],
    [1515546,"2026-04-14 03:20:00","62043","1.4909999999999999","132.6","2.352","145.6","1014.333","12.6","83.8","0.0","0.0"],
    [1515547,"2026-04-14 03:30:00","62044","1.5819999999999999","123.3","2.254","121.3","1014.424","12.77","82.5","0.0","0.0"],
    [1515548,"2026-04-14 03:40:00","62045","1.6640000000000001","130.3","3.005","137.7","1014.424","12.55","83.0","0.0","0.0"],
    [1515549,"2026-04-14 03:50:00","62046","1.916","142.2","2.45","137.8","1014.44","12.62","83.2","0.0","0.0"],
    [1515550,"2026-04-14 04:00:00","62047","2.158","139.9","2.9730000000000003","144.7","1014.453","12.62","81.6","0.0","0.0"],
    [1515551,"2026-04-14 04:10:00","62048","2.245","140.0","3.1689999999999996","135.6","1014.428","12.62","80.5","0.0","0.0"],
    [1515552,"2026-04-14 04:20:00","62049","2.096","140.2","2.875","137.8","1014.442","12.5","79.57","0.0","0.0"],
    [1515553,"2026-04-14 04:30:00","62050","2.097","136.7","2.679","139.2","1014.453","12.39","77.07","0.0","0.0"],
    [1515554,"2026-04-14 04:40:00","62051","1.84","125.0","2.7439999999999998","134.5","1014.538","12.11","73.38","0.0","0.0"],
    [1515555,"2026-04-14 04:50:00","62052","1.8969999999999998","126.3","3.201","141.7","1014.642","12.03","72.23","0.0","0.0"],
    [1515556,"2026-04-14 05:00:00","62053","2.219","139.6","3.7569999999999997","148.0","1014.723","12.29","72.45","0.0","0.0"],
    [1515557,"2026-04-14 05:10:00","62054","2.057","145.1","3.005","156.6","1014.771","12.31","70.85","0.05","0.0"],
    [1515558,"2026-04-14 05:20:00","62055","2.219","139.7","3.463","150.7","1014.854","12.27","68.82","2.795","0.0"],
    [1515559,"2026-04-14 05:30:00","62056","2.186","137.4","3.267","134.4","1014.927","11.95","69.68","8.72","0.0"],
    [1515560,"2026-04-14 05:40:00","62057","2.407","144.3","3.365","149.4","1014.96","11.93","69.88","23.84","0.0"],
    [1515561,"2026-04-14 05:50:00","62058","2.55","152.1","3.659","152.2","1015.127","12.25","65.47","48.62","0.0"],
    [1515562,"2026-04-14 06:00:00","62059","1.9869999999999999","153.1","3.332","142.4","1015.276","12.38","63.23","74.76","0.0"],
    [1515563,"2026-04-14 06:10:00","62060","2.396","145.0","3.6910000000000003","144.8","1015.313","12.44","61.65","108.7","0.0"],
    [1515564,"2026-04-14 06:20:00","62061","2.259","143.7","3.0380000000000003","139.9","1015.373","12.62","60.57","141.7","0.0"],
    [1515565,"2026-04-14 06:30:00","62062","2.3280000000000003","138.3","3.495","138.2","1015.443","12.93","60.51","176.4","0.0"],
    [1515566,"2026-04-14 06:40:00","62063","2.9219999999999997","143.1","4.247","134.2","1015.551","12.87","60.9","212.7","0.0"],
    [1515567,"2026-04-14 06:50:00","62064","2.965","145.4","4.083","155.9","1015.595","13.06","59.67","248.6","0.0"],
    [1515568,"2026-04-14 07:00:00","62065","2.6010000000000004","153.8","3.6910000000000003","155.5","1015.688","13.28","57.86","284.5","0.0"],
    [1515569,"2026-04-14 07:10:00","62066","2.568","144.4","3.887","156.9","1015.729","13.48","56.62","319.5","0.0"],
    [1515570,"2026-04-14 07:20:00","62067","1.976","141.2","3.0380000000000003","128.6","1015.801","13.69","55.14","353.5","0.0"],
    [1515571,"2026-04-14 07:30:00","62068","1.942","143.2","2.875","143.7","1015.804","13.89","54.18","389.2","0.0"],
    [1515572,"2026-04-14 07:40:00","62069","2.608","134.3","3.5610000000000004","140.7","1015.811","14.02","53.17","427.7","0.0"],
    [1515573,"2026-04-14 07:50:00","62070","2.8989999999999996","136.6","3.7569999999999997","132.5","1015.839","14.04","52.51","462.6","0.0"],
    [1515574,"2026-04-14 08:00:00","62071","2.484","144.2","3.495","154.6","1015.921","14.32","52.09","494.6","0.0"],
    [1515575,"2026-04-14 08:10:00","62072","1.733","143.2","3.136","133.3","1015.985","14.63","52.02","526.0","0.0"],
    [1515576,"2026-04-14 08:20:00","62073","1.739","142.6","3.397","141.6","1016.056","14.93","51.65","556.3","0.0"],
    [1515577,"2026-04-14 08:30:00","62074","1.594","137.2","2.842","124.8","1016.089","15.14","51.4","588.1","0.0"],
    [1515578,"2026-04-14 08:40:00","62075","1.084","180.4","1.797","84.5","1016.092","15.28","51.48","618.4","0.0"],
    [1515579,"2026-04-14 08:50:00","62076","1.094","357.2","1.699","319.3","1016.123","15.57","51.68","649.1","0.0"],
    [1515580,"2026-04-14 09:00:00","62077","2.343","349.0","2.907","339.7","1016.261","15.31","52.9","679.0","0.0"],
    [1515581,"2026-04-14 09:10:00","62078","1.6980000000000002","5.506","2.189","355.3","1016.406","15.35","52.66","705.9","0.0"],
    [1515582,"2026-04-14 09:20:00","62079","1.411","356.0","2.123","2.766","1016.445","15.57","51.99","728.9","0.0"],
    [1515583,"2026-04-14 09:30:00","62080","2.031","351.2","2.8089999999999997","351.4","1016.441","15.55","54.15","751.2","0.0"],
    [1515584,"2026-04-14 09:40:00","62081","2.681","352.7","3.495","1.247","1016.426","15.42","55.65","774.3","0.0"],
    [1515585,"2026-04-14 09:50:00","62082","3.458","4.645","4.181","7.531000000000001","1016.392","15.38","56.33","796.9","0.0"],
    [1515586,"2026-04-14 10:00:00","62083","4.316","11.46","5.063","19.18","1016.367","15.18","58.54","815.0","0.0"],
    [1515587,"2026-04-14 10:10:00","62084","4.519","28.06","5.031000000000001","26.01","1016.417","15.16","60.03","835.0","0.0"],
    [1515588,"2026-04-14 10:20:00","62085","4.9510000000000005","28.87","5.521","33.89","1016.486","15.13","60.74","847.0","0.0"],
    [1515589,"2026-04-14 10:30:00","62086","4.5169999999999995","32.18","5.39","29.74","1016.557","15.2","62.55","864.0","0.0"],
    [1515590,"2026-04-14 10:40:00","62087","4.9430000000000005","28.74","5.684","35.22","1016.595","15.18","63.14","877.0","0.0"],
    [1515591,"2026-04-14 10:50:00","62088","4.821000000000001","23.61","5.586","26.6","1016.671","15.06","63.62","886.0","0.0"],
    [1515592,"2026-04-14 11:00:00","62089","4.842","30.25","5.619","33.06","1016.665","15.06","64.83","897.0","0.0"],
    [1515593,"2026-04-14 11:10:00","62090","5.246","28.93","6.239","31.4","1016.588","14.97","65.78","906.0","0.0"],
    [1515594,"2026-04-14 11:20:00","62091","5.51","25.28","7.187","25.92","1016.501","14.92","65.91","917.0","0.0"],
    [1515595,"2026-04-14 11:30:00","62092","5.597","30.64","6.697","34.67","1016.515","15.0","66.25","922.0","0.0"],
    [1515596,"2026-04-14 11:40:00","62093","5.235","33.21","6.305","31.04","1016.498","15.06","65.79","925.0","0.0"],
    [1515597,"2026-04-14 11:50:00","62094","5.105","37.7","6.1739999999999995","31.65","1016.534","15.17","64.37","925.0","0.0"],
    [1515598,"2026-04-14 12:00:00","62095","5.47","35.57","6.893","36.53","1016.468","15.19","65.44","925.0","0.0"],
    [1515599,"2026-04-14 12:10:00","62096","5.607","35.53","6.795","35.51","1016.409","15.2","65.56","925.0","0.0"],
    [1515600,"2026-04-14 12:20:00","62097","5.705","34.94","6.925","28.8","1016.322","15.18","65.78","925.0","0.0"],
    [1515601,"2026-04-14 12:30:00","62098","5.566","42.27","7.187","55.11","1016.291","15.28","65.5","922.0","0.0"],
    [1515602,"2026-04-14 12:40:00","62099","6.007000000000001","44.61","7.742000000000001","42.41","1016.279","15.33","64.99","917.0","0.0"],
    [1515603,"2026-04-14 12:50:00","62100","6.335","49.0","7.6770000000000005","49.81","1016.282","15.32","65.6","910.0","0.0"],
    [1515604,"2026-04-14 13:00:00","62101","6.785","49.51","8.43","44.87","1016.293","15.25","66.23","900.0","0.0"],
    [1515605,"2026-04-14 13:10:00","62102","6.8260000000000005","47.89","8.59","48.31","1016.31","15.26","65.75","890.0","0.0"],
    [1515606,"2026-04-14 13:20:00","62103","6.542999999999999","44.85","8.1","41.39","1016.3","15.3","65.26","878.0","0.0"],
    [1515607,"2026-04-14 13:30:00","62104","6.894","46.83","8.66","46.23","1016.35","15.29","65.87","862.0","0.0"],
    [1515608,"2026-04-14 13:40:00","62105","6.534","45.88","8.43","48.53","1016.394","15.31","66.0","847.0","0.0"],
    [1515609,"2026-04-14 13:50:00","62106","6.555","45.96","8.72","48.58","1016.33","15.32","66.0","830.0","0.0"],
    [1515610,"2026-04-14 14:00:00","62107","6.377000000000001","44.82","8.59","43.11","1016.307","15.31","66.11","811.0","0.0"],
    [1515611,"2026-04-14 14:10:00","62108","6.955","48.68","8.69","50.73","1016.294","15.25","66.92","789.2","0.0"],
    [1515612,"2026-04-14 14:20:00","62109","6.4","46.82","8.4","49.27","1016.299","15.29","67.26","767.2","0.0"],
    [1515613,"2026-04-14 14:30:00","62110","5.919","46.83","7.84","53.16","1016.224","15.37","67.72","744.7","0.0"],
    [1515614,"2026-04-14 14:40:00","62111","7.2379999999999995","43.07","8.46","40.83","1016.155","15.16","68.57","722.0","0.0"],
    [1515615,"2026-04-14 14:50:00","62112","6.779","44.98","8.33","45.25","1016.132","15.2","69.88","697.5","0.0"],
    [1515616,"2026-04-14 15:00:00","62113","6.768","45.39","8.2","46.37","1016.077","15.17","69.99","667.7","0.0"],
    [1515617,"2026-04-14 15:10:00","62114","6.7170000000000005","46.61","8.82","40.68","1016.076","15.19","70.59","641.4","0.0"],
    [1515618,"2026-04-14 15:20:00","62115","7.194","44.04","8.53","46.66","1016.157","15.11","70.55","614.4","0.0"],
    [1515619,"2026-04-14 15:30:00","62116","6.596","44.8","8.1","43.86","1016.158","15.12","71.2","583.0","0.0"],
    [1515620,"2026-04-14 15:40:00","62117","6.099","45.46","7.644","39.96","1016.21","15.13","71.84","551.4","0.0"],
    [1515621,"2026-04-14 15:50:00","62118","5.724","46.39","7.709","40.02","1016.325","15.18","71.91","517.3","0.0"],
    [1515622,"2026-04-14 16:00:00","62119","6.114","41.57","7.317","40.75","1016.428","15.16","72.81","484.5","0.0"],
    [1515623,"2026-04-14 16:10:00","62120","6.189","41.47","7.579","38.56","1016.515","15.1","74.19","450.5","0.0"],
    [1515624,"2026-04-14 16:20:00","62121","5.31","45.4","6.5329999999999995","37.53","1016.581","15.21","74.78","414.9","0.0"],
    [1515625,"2026-04-14 16:30:00","62122","5.718","43.1","7.023","52.27","1016.633","15.13","74.82","380.6","0.0"],
    [1515626,"2026-04-14 16:40:00","62123","5.045","46.88","6.697","58.91","1016.725","15.23","75.17","343.8","0.0"],
    [1515627,"2026-04-14 16:50:00","62124","4.927","46.25","6.207000000000001","41.38","1016.824","15.25","75.32","308.7","0.0"],
    [1515628,"2026-04-14 17:00:00","62125","3.423","62.49","5.357","49.75","1016.922","15.5","73.87","269.9","0.0"],
    [1515629,"2026-04-14 17:10:00","62126","3.7910000000000004","53.56","5.292000000000001","60.51","1016.937","15.56","73.74","236.1","0.0"],
    [1515630,"2026-04-14 17:20:00","62127","4.33","49.67","6.011","55.88","1016.99","15.39","73.89","201.2","0.0"],
    [1515631,"2026-04-14 17:30:00","62128","4.23","47.25","5.031000000000001","59.15","1017.028","15.34","73.63","167.3","0.0"],
    [1515632,"2026-04-14 17:40:00","62129","3.472","54.08","5.422999999999999","45.71","1017.175","15.35","74.87","133.7","0.0"],
    [1515633,"2026-04-14 17:50:00","62130","3.242","55.06","4.4430000000000005","39.1","1017.224","15.43","73.04","101.0","0.0"],
    [1515634,"2026-04-14 18:00:00","62131","2.588","60.46","3.855","66.05","1017.355","15.51","72.04","59.13","0.0"],
    [1515635,"2026-04-14 18:10:00","62132","2.184","77.93","3.7889999999999997","84.9","1017.375","15.37","70.87","37.73","0.0"],
    [1515636,"2026-04-14 18:20:00","62133","2.1519999999999997","72.42","3.855","76.8","1017.427","15.45","70.39","20.35","0.0"],
    [1515637,"2026-04-14 18:30:00","62134","2.352","59.38","3.495","59.64","1017.597","15.3","70.68","5.113","0.0"],
    [1515638,"2026-04-14 18:40:00","62135","1.821","77.12","2.7439999999999998","87.9","1017.685","15.23","71.24","0.555","0.0"],
    [1515639,"2026-04-14 18:50:00","62136","1.945","78.79","3.1689999999999996","78.44","1017.835","15.18","71.98","0.0","0.0"],
    [1515640,"2026-04-14 19:00:00","62137","2.3569999999999998","77.68","3.43","89.7","1017.995","15.13","71.88","0.0","0.0"],
    [1515641,"2026-04-14 19:10:00","62138","2.298","87.1","3.43","76.57","1018.16","15.13","72.2","0.0","0.0"],
    [1515642,"2026-04-14 19:20:00","62139","2.215","99.5","3.528","94.2","1018.253","15.13","72.88","0.0","0.0"],
    [1515643,"2026-04-14 19:30:00","62140","2.0269999999999997","99.2","3.495","109.6","1018.382","15.13","73.42","0.0","0.0"],
    [1515644,"2026-04-14 19:40:00","62141","1.896","106.6","3.463","115.6","1018.555","15.05","74.0","0.0","0.0"],
    [1515645,"2026-04-14 19:50:00","62142","1.8619999999999999","98.1","3.201","106.0","1018.662","15.03","74.05","0.0","0.0"],
    [1515646,"2026-04-14 20:00:00","62143","2.168","112.2","3.332","116.1","1018.754","15.02","74.23","0.0","0.0"],
    [1515647,"2026-04-14 20:10:00","62144","2.064","121.7","3.887","118.0","1018.818","14.94","75.19","0.0","0.0"],
    [1515648,"2026-04-14 20:20:00","62145","1.76","118.1","3.528","122.3","1018.942","14.86","76.11","0.0","0.0"],
    [1515649,"2026-04-14 20:30:00","62146","1.3130000000000002","110.2","2.515","106.5","1019.117","14.78","76.59","0.0","0.0"],
    [1515650,"2026-04-14 20:40:00","62147","1.5830000000000002","101.1","3.071","120.9","1019.229","14.75","76.99","0.0","0.0"],
    [1515651,"2026-04-14 20:50:00","62148","1.385","103.6","2.7439999999999998","102.1","1019.343","14.7","77.67","0.0","0.0"],
    [1515652,"2026-04-14 21:00:00","62149","1.581","98.4","2.515","105.9","1019.424","14.64","78.17","0.0","0.0"],
    [1515653,"2026-04-14 21:10:00","62150","1.2229999999999999","103.9","2.156","110.1","1019.419","14.54","78.63","0.0","0.0"],
    [1515654,"2026-04-14 21:20:00","62151","1.383","91.9","2.45","75.72","1019.459","14.52","79.27","0.0","0.0"],
    [1515655,"2026-04-14 21:30:00","62152","1.228","96.2","2.0580000000000003","87.0","1019.467","14.54","79.3","0.0","0.0"],
    [1515656,"2026-04-14 21:40:00","62153","1.374","93.4","2.45","72.17","1019.46","14.5","78.99","0.0","0.0"],
    [1515657,"2026-04-14 21:50:00","62154","1.443","99.9","2.287","131.6","1019.464","14.4","78.13","0.0","0.0"],
    [1515658,"2026-04-14 22:00:00","62155","1.6440000000000001","108.5","3.071","108.1","1019.487","14.29","76.74","0.0","0.0"],
    [1515659,"2026-04-14 22:10:00","62156","1.4869999999999999","108.6","2.287","121.3","1019.413","14.15","74.06","0.0","0.0"],
    [1515660,"2026-04-14 22:20:00","62157","1.1179999999999999","103.4","2.45","109.7","1019.434","14.19","71.19","0.0","0.0"],
    [1515661,"2026-04-14 22:30:00","62158","0.738","103.0","1.307","122.9","1019.453","14.04","65.31","0.0","0.0"],
    [1515662,"2026-04-14 22:40:00","62159","1.109","121.0","1.993","135.9","1019.497","14.25","64.91","0.0","0.0"],
    [1515663,"2026-04-14 22:50:00","62160","1.354","117.1","1.96","124.6","1019.532","14.05","68.06","0.0","0.0"],
    [1515664,"2026-04-14 23:00:00","62161","1.358","132.6","1.993","125.2","1019.572","13.87","69.33","0.0","0.0"],
    [1515665,"2026-04-14 23:10:00","62162","1.069","138.5","1.4369999999999998","134.6","1019.533","13.99","67.39","0.0","0.0"],
    [1515666,"2026-04-14 23:20:00","62163","1.611","130.8","2.025","128.8","1019.457","13.98","66.27","0.0","0.0"],
    [1515667,"2026-04-14 23:30:00","62164","1.52","122.9","2.417","115.6","1019.422","13.78","66.89","0.0","0.0"],
    [1515668,"2026-04-14 23:40:00","62165","0.941","116.9","1.3719999999999999","124.3","1019.405","13.79","66.33","0.0","0.0"],
    [1515669,"2026-04-14 23:50:00","62166","1.351","134.5","1.797","141.0","1019.305","13.86","65.08","0.0","0.0"],
    [1515670,"2026-04-15 00:00:00","62167","0.826","128.9","1.3719999999999999","148.5","1019.25","13.79","65.11","0.0","0.0"],
    [1515671,"2026-04-15 00:10:00","62168","0.639","130.3","0.8490000000000001","126.3","1019.225","13.8","65.19","0.0","0.0"],
    [1515672,"2026-04-15 00:20:00","62169","0.846","117.2","1.078","116.5","1019.21","13.79","64.89","0.0","0.0"],
    [1515673,"2026-04-15 00:30:00","62170","0.735","62.53","1.209","59.56","1019.281","13.66","65.84","0.0","0.0"],
    [1515674,"2026-04-15 00:40:00","62171","0.9209999999999999","88.4","1.4369999999999998","112.8","1019.262","13.44","65.56","0.0","0.0"],
    [1515675,"2026-04-15 00:50:00","62172","0.7609999999999999","85.7","1.143","86.9","1019.261","13.26","65.04","0.0","0.0"],
    [1515676,"2026-04-15 01:00:00","62173","0.32","79.14","0.6859999999999999","83.4","1019.225","13.22","64.65","0.0","0.0"],
    [1515677,"2026-04-15 01:10:00","62174","0.441","54.72","0.8490000000000001","49.51","1019.172","13.02","65.56","0.0","0.0"],
    [1515678,"2026-04-15 01:20:00","62175","0.956","65.64","1.339","69.2","1019.098","13.11","66.74","0.0","0.0"],
    [1515679,"2026-04-15 01:30:00","62176","1.083","122.4","1.4369999999999998","134.9","1019.063","12.72","67.27","0.0","0.0"],
    [1515680,"2026-04-15 01:40:00","62177","0.507","119.9","1.209","136.8","1019.015","12.48","69.29","0.0","0.0"],
    [1515681,"2026-04-15 01:50:00","62178","0.0","0.0","0.0","0.0","1019.034","12.41","70.17","0.0","0.0"],
    [1515682,"2026-04-15 02:00:00","62179","0.11","132.0","0.9470000000000001","129.4","1019.077","12.36","69.93","0.0","0.0"],
    [1515683,"2026-04-15 02:10:00","62180","0.431","123.1","1.4369999999999998","125.7","1019.051","12.47","69.42","0.0","0.0"],
    [1515684,"2026-04-15 02:20:00","62181","1.984","128.2","2.94","124.4","1018.983","12.19","70.69","0.0","0.0"],
    [1515685,"2026-04-15 02:30:00","62182","2.207","128.5","2.94","120.8","1018.948","11.73","74.0","0.0","0.0"],
    [1515686,"2026-04-15 02:40:00","62183","2.0380000000000003","115.5","2.5810000000000004","113.9","1018.949","11.56","75.69","0.0","0.0"],
    [1515687,"2026-04-15 02:50:00","62184","2.1830000000000003","117.1","2.9730000000000003","118.8","1018.96","11.42","75.85","0.0","0.0"],
    [1515688,"2026-04-15 03:00:00","62185","2.27","119.1","2.842","119.0","1018.945","11.48","75.09","0.0","0.0"],
    [1515689,"2026-04-15 03:10:00","62186","1.787","117.2","2.352","120.6","1018.934","11.47","75.69","0.0","0.0"],
    [1515690,"2026-04-15 03:20:00","62187","1.683","116.7","2.352","110.5","1018.875","11.36","75.73","0.0","0.0"],
    [1515691,"2026-04-15 03:30:00","62188","1.018","99.1","1.601","114.0","1018.878","11.46","75.74","0.0","0.0"],
    [1515692,"2026-04-15 03:40:00","62189","1.535","110.6","2.417","109.5","1018.83","11.43","75.02","0.0","0.0"],
    [1515693,"2026-04-15 03:50:00","62190","2.443","117.1","2.7769999999999997","119.1","1018.873","11.17","74.93","0.0","0.0"],
    [1515694,"2026-04-15 04:00:00","62191","2.148","115.9","2.5810000000000004","115.5","1018.931","11.13","74.73","0.0","0.0"],
    [1515695,"2026-04-15 04:10:00","62192","2.6239999999999997","118.7","3.071","122.7","1018.886","11.09","74.25","0.0","0.0"],
    [1515696,"2026-04-15 04:20:00","62193","1.54","118.8","2.352","111.7","1018.916","11.02","75.37","0.0","0.0"],
    [1515697,"2026-04-15 04:30:00","62194","2.267","120.3","2.679","123.3","1018.889","10.93","75.46","0.0","0.0"],
    [1515698,"2026-04-15 04:40:00","62195","2.6510000000000002","120.5","3.201","116.2","1018.866","10.88","75.63","0.0","0.0"],
    [1515699,"2026-04-15 04:50:00","62196","2.3930000000000002","120.3","2.875","115.5","1018.898","10.8","76.84","0.0","0.0"],
    [1515700,"2026-04-15 05:00:00","62197","2.105","121.6","2.515","124.7","1018.967","10.82","76.33","0.0","0.0"],
    [1515701,"2026-04-15 05:10:00","62198","2.055","122.7","2.613","119.7","1019.046","10.9","75.41","0.27399999999999997","0.0"],
    [1515702,"2026-04-15 05:20:00","62199","2.109","118.8","2.483","111.3","1019.085","10.98","74.59","3.6260000000000003","0.0"],
    [1515703,"2026-04-15 05:30:00","62200","1.679","121.6","2.287","124.5","1019.102","11.06","73.97","13.67","0.0"],
    [1515704,"2026-04-15 05:40:00","62201","2.333","119.0","2.7439999999999998","125.3","1019.186","11.06","73.98","31.58","0.0"],
    [1515705,"2026-04-15 05:50:00","62202","2.204","117.4","2.7769999999999997","116.2","1019.304","11.1","73.94","58.46","0.0"],
    [1515706,"2026-04-15 06:00:00","62203","2.006","117.8","2.7769999999999997","123.2","1019.453","11.35","71.45","89.3","0.0"],
    [1515707,"2026-04-15 06:10:00","62204","1.895","119.5","2.679","113.3","1019.563","11.7","68.94","121.1","0.0"],
    [1515708,"2026-04-15 06:20:00","62205","1.65","116.8","2.287","119.7","1019.665","11.94","67.95","155.3","0.0"],
    [1515709,"2026-04-15 06:30:00","62206","1.7590000000000001","119.1","2.613","107.2","1019.831","12.05","66.79","189.2","0.0"],
    [1515710,"2026-04-15 06:40:00","62207","1.4469999999999998","121.7","2.189","118.7","1019.862","12.26","65.86","223.8","0.0"],
    [1515711,"2026-04-15 06:50:00","62208","0.76","119.6","1.3719999999999999","114.7","1019.923","12.71","65.06","255.8","0.0"],
    [1515712,"2026-04-15 07:00:00","62209","0.7090000000000001","111.8","1.4369999999999998","118.3","1019.977","12.87","63.68","290.1","0.0"],
    [1515713,"2026-04-15 07:10:00","62210","0.0","0.0","0.0","0.0","1020.012","14.18","62.26","322.0","0.0"],
    [1515714,"2026-04-15 07:20:00","62211","0.0","0.0","0.0","0.0","1020.146","14.45","59.15","353.7","0.0"],
    [1515715,"2026-04-15 07:30:00","62212","1.242","36.53","1.797","33.16","1020.32","13.89","60.91","393.8","0.0"],
    [1515716,"2026-04-15 07:40:00","62213","1.3019999999999998","41.11","1.895","55.48","1020.43","13.87","60.2","429.6","0.0"],
    [1515717,"2026-04-15 07:50:00","62214","0.769","76.94","1.535","49.38","1020.537","14.28","58.96","459.7","0.0"],
    [1515718,"2026-04-15 08:00:00","62215","0.5920000000000001","94.1","1.797","82.4","1020.636","14.48","56.81","492.1","0.0"],
    [1515719,"2026-04-15 08:10:00","62216","0.462","350.5","1.143","313.9","1020.644","15.15","54.75","519.3","0.0"],
    [1515720,"2026-04-15 08:20:00","62217","1.869","318.3","2.7769999999999997","321.3","1020.709","14.63","56.11","556.5","0.0"],
    [1515721,"2026-04-15 08:30:00","62218","2.204","319.5","2.94","321.9","1020.707","14.14","58.93","598.2","0.0"],
    [1515722,"2026-04-15 08:40:00","62219","1.681","314.1","2.515","311.8","1020.778","14.24","58.68","633.9","0.0"],
    [1515723,"2026-04-15 08:50:00","62220","1.556","311.3","2.385","308.6","1020.805","14.38","58.21","664.8","0.0"],
    [1515724,"2026-04-15 09:00:00","62221","1.291","324.7","2.0909999999999997","320.3","1020.862","14.64","57.03","690.1","0.0"],
    [1515725,"2026-04-15 09:10:00","62222","1.705","295.0","2.417","281.2","1020.876","14.8","53.68","716.4","0.0"],
    [1515726,"2026-04-15 09:20:00","62223","2.351","285.3","3.463","286.0","1020.911","14.89","53.02","740.2","0.0"],
    [1515727,"2026-04-15 09:30:00","62224","2.676","295.3","3.267","291.3","1020.934","14.71","56.91","763.4","0.0"],
    [1515728,"2026-04-15 09:40:00","62225","2.801","302.6","3.528","302.7","1020.963","14.72","57.98","784.4","0.0"],
    [1515729,"2026-04-15 09:50:00","62226","2.912","307.3","3.7569999999999997","318.0","1020.989","14.74","58.6","804.0","0.0"],
    [1515730,"2026-04-15 10:00:00","62227","2.785","309.0","3.5610000000000004","299.4","1021.017","14.74","59.27","821.0","0.0"],
    [1515731,"2026-04-15 10:10:00","62228","2.815","313.0","3.6910000000000003","310.4","1020.907","14.78","60.44","838.0","0.0"],
    [1515732,"2026-04-15 10:20:00","62229","3.042","327.6","4.051","327.3","1020.918","14.82","60.76","853.0","0.0"],
    [1515733,"2026-04-15 10:30:00","62230","2.714","339.4","4.2139999999999995","330.3","1020.898","14.77","61.74","865.0","0.0"],
    [1515734,"2026-04-15 10:40:00","62231","3.5989999999999998","335.2","4.41","336.0","1020.844","14.64","60.72","879.0","0.0"],
    [1515735,"2026-04-15 10:50:00","62232","3.595","334.3","4.312","336.0","1020.809","14.63","59.63","890.0","0.0"],
    [1515736,"2026-04-15 11:00:00","62233","3.1069999999999998","339.5","4.083","340.1","1020.74","14.7","60.28","896.0","0.0"],
    [1515737,"2026-04-15 11:10:00","62234","3.2230000000000003","353.8","3.887","0.308","1020.751","14.75","64.04","900.0","0.0"],
    [1515738,"2026-04-15 11:20:00","62235","3.075","358.9","3.985","346.1","1020.687","14.83","66.47","906.0","0.0"],
    [1515739,"2026-04-15 11:30:00","62236","3.218","1.7009999999999998","3.7889999999999997","2.614","1020.578","14.74","66.02","910.0","0.0"],
    [1515740,"2026-04-15 11:40:00","62237","2.911","17.4","3.6910000000000003","349.6","1020.496","14.88","67.14","910.0","0.0"],
    [1515741,"2026-04-15 11:50:00","62238","3.29","17.74","3.985","20.14","1020.442","14.9","68.18","912.0","0.0"],
    [1515742,"2026-04-15 12:00:00","62239","3.444","17.88","4.083","18.4","1020.294","14.98","69.89","913.0","0.0"],
    [1515743,"2026-04-15 12:10:00","62240","3.3989999999999996","29.0","4.083","34.68","1020.271","14.99","67.52","910.0","0.0"],
    [1515744,"2026-04-15 12:20:00","62241","3.083","36.17","3.7889999999999997","28.06","1020.232","15.32","62.79","905.0","0.0"],
    [1515745,"2026-04-15 12:30:00","62242","4.145","26.0","4.998","26.76","1020.15","15.4","61.53","906.0","0.0"],
    [1515746,"2026-04-15 12:40:00","62243","4.583","31.55","5.357","29.82","1020.135","15.58","60.59","899.0","0.0"],
    [1515747,"2026-04-15 12:50:00","62244","5.074","32.28","5.912999999999999","32.54","1020.144","15.68","58.37","885.0","0.0"],
    [1515748,"2026-04-15 13:00:00","62245","4.978","38.41","5.88","26.12","1020.159","15.82","64.36","878.0","0.0"],
    [1515749,"2026-04-15 13:10:00","62246","5.487","33.58","6.337000000000001","29.88","1020.14","15.64","69.78","868.0","0.0"],
    [1515750,"2026-04-15 13:20:00","62247","4.899","37.09","6.239","30.64","1020.075","15.61","72.6","857.0","0.0"],
    [1515751,"2026-04-15 13:30:00","62248","4.665","38.19","5.7170000000000005","29.25","1019.994","15.64","73.64","847.0","0.0"],
    [1515752,"2026-04-15 13:40:00","62249","5.185","35.51","6.305","35.05","1019.903","15.58","73.99","832.0","0.0"],
    [1515753,"2026-04-15 13:50:00","62250","4.948","33.15","6.109","37.62","1019.805","15.53","75.92","817.0","0.0"],
    [1515754,"2026-04-15 14:00:00","62251","4.812","38.18","6.042999999999999","30.14","1019.75","15.63","75.22","799.5","0.0"],
    [1515755,"2026-04-15 14:10:00","62252","4.612","37.72","5.684","30.01","1019.641","15.68","75.59","781.8","0.0"],
    [1515756,"2026-04-15 14:20:00","62253","4.819","44.04","6.207000000000001","48.56","1019.577","15.76","74.22","762.2","0.0"],
    [1515757,"2026-04-15 14:30:00","62254","4.63","39.36","5.586","31.74","1019.5","15.82","74.07","739.2","0.0"],
    [1515758,"2026-04-15 14:40:00","62255","4.16","40.43","5.7170000000000005","50.84","1019.441","15.89","73.78","716.6","0.0"],
    [1515759,"2026-04-15 14:50:00","62256","4.321000000000001","39.84","5.4879999999999995","51.05","1019.356","15.94","74.8","693.7","0.0"],
    [1515760,"2026-04-15 15:00:00","62257","4.5569999999999995","39.03","5.651","34.25","1019.306","15.93","75.24","667.4","0.0"],
    [1515761,"2026-04-15 15:10:00","62258","4.654","33.92","5.651","28.91","1019.256","15.85","75.86","641.6","0.0"],
    [1515762,"2026-04-15 15:20:00","62259","4.288","46.52","5.521","48.78","1019.294","15.94","76.67","612.8","0.0"],
    [1515763,"2026-04-15 15:30:00","62260","4.005","33.93","5.063","32.44","1019.238","15.98","76.77","581.5","0.0"],
    [1515764,"2026-04-15 15:40:00","62261","4.095","29.86","4.769","30.38","1019.117","15.87","77.44","548.9","0.0"],
    [1515765,"2026-04-15 15:50:00","62262","4.425","25.5","4.867","23.92","1019.098","15.86","77.84","515.6","0.0"],
    [1515766,"2026-04-15 16:00:00","62263","3.997","28.49","4.704","28.0","1019.113","15.87","81.6","481.3","0.0"],
    [1515767,"2026-04-15 16:10:00","62264","4.2","27.13","4.606","25.17","1019.046","15.79","82.9","447.8","0.0"],
    [1515768,"2026-04-15 16:20:00","62265","3.991","30.31","4.638999999999999","31.34","1019.038","15.86","82.5","413.3","0.0"],
    [1515769,"2026-04-15 16:30:00","62266","4.247","40.68","5.1610000000000005","48.36","1019.141","15.97","82.7","377.0","0.0"],
    [1515770,"2026-04-15 16:40:00","62267","4.075","42.3","5.586","43.03","1019.174","16.17","81.6","340.4","0.0"],
    [1515771,"2026-04-15 16:50:00","62268","4.309","47.38","5.292000000000001","50.48","1019.258","16.63","77.5","305.3","0.0"],
    [1515772,"2026-04-15 17:00:00","62269","4.098","42.61","5.2589999999999995","47.87","1019.239","16.62","77.56","270.0","0.0"],
    [1515773,"2026-04-15 17:10:00","62270","4.916","44.55","6.337000000000001","49.52","1019.221","16.59","79.32","234.3","0.0"],
    [1515774,"2026-04-15 17:20:00","62271","5.566","51.42","6.893","44.36","1019.322","16.52","81.1","198.4","0.0"],
    [1515775,"2026-04-15 17:30:00","62272","4.3580000000000005","54.51","6.0760000000000005","43.65","1019.337","16.73","79.48","164.3","0.0"],
    [1515776,"2026-04-15 17:40:00","62273","5.569","55.88","7.317","52.86","1019.343","16.56","80.6","132.1","0.0"],
    [1515777,"2026-04-15 17:50:00","62274","4.769","60.77","6.893","68.19","1019.414","16.54","81.8","100.2","0.0"],
    [1515778,"2026-04-15 18:00:00","62275","4.593999999999999","57.1","6.0760000000000005","55.2","1019.406","16.56","82.1","70.71","0.0"],
    [1515779,"2026-04-15 18:10:00","62276","3.543","68.74","5.782","62.82","1019.41","16.61","80.7","43.96","0.0"],
    [1515780,"2026-04-15 18:20:00","62277","3.6830000000000003","59.8","5.422999999999999","35.47","1019.496","16.6","80.1","20.49","0.0"],
    [1515781,"2026-04-15 18:30:00","62278","4.454","57.69","6.5329999999999995","55.35","1019.553","16.42","80.8","6.496","0.0"],
    [1515782,"2026-04-15 18:40:00","62279","4.617","56.82","7.611000000000001","45.26","1019.736","16.37","82.1","1.158","0.0"],
    [1515783,"2026-04-15 18:50:00","62280","3.446","56.85","5.292000000000001","54.15","1019.839","16.33","85.4","0.0","0.0"],
    [1515784,"2026-04-15 19:00:00","62281","3.717","53.75","5.2589999999999995","39.77","1019.918","16.19","86.4","0.0","0.0"],
    [1515785,"2026-04-15 19:10:00","62282","3.1519999999999997","59.92","4.345","48.26","1020.052","16.18","85.5","0.0","0.0"],
    [1515786,"2026-04-15 19:20:00","62283","2.843","61.84","4.149","61.19","1020.209","16.18","83.2","0.0","0.0"],
    [1515787,"2026-04-15 19:30:00","62284","1.8940000000000001","65.47","3.6260000000000003","58.35","1020.344","16.26","82.3","0.0","0.0"],
    [1515788,"2026-04-15 19:40:00","62285","2.0140000000000002","69.27","4.149","61.97","1020.423","16.19","82.1","0.0","0.0"],
    [1515789,"2026-04-15 19:50:00","62286","2.522","60.2","3.7889999999999997","50.84","1020.524","16.21","81.7","0.0","0.0"],
    [1515790,"2026-04-15 20:00:00","62287","2.29","64.23","3.299","57.03","1020.575","16.18","81.3","0.0","0.0"],
    [1515791,"2026-04-15 20:10:00","62288","1.745","63.74","2.842","66.51","1020.674","16.23","81.9","0.0","0.0"],
    [1515792,"2026-04-15 20:20:00","62289","0.883","91.8","1.764","112.6","1020.764","16.07","83.2","0.0","0.0"],
    [1515793,"2026-04-15 20:30:00","62290","1.136","94.0","3.659","82.6","1020.797","16.01","82.0","0.0","0.0"],
    [1515794,"2026-04-15 20:40:00","62291","1.891","82.4","3.397","86.5","1020.784","16.11","81.0","0.0","0.0"],
    [1515795,"2026-04-15 20:50:00","62292","1.8259999999999998","83.7","3.593","63.29","1020.826","16.07","81.0","0.0","0.0"],
    [1515796,"2026-04-15 21:00:00","62293","1.469","93.1","3.0380000000000003","78.37","1020.86","16.03","81.1","0.0","0.0"],
    [1515797,"2026-04-15 21:10:00","62294","1.919","82.2","3.234","81.6","1020.93","16.04","80.5","0.0","0.0"],
    [1515798,"2026-04-15 21:20:00","62295","1.6480000000000001","92.1","2.94","106.5","1021.094","16.03","80.6","0.0","0.0"],
    [1515799,"2026-04-15 21:30:00","62296","2.092","102.3","3.5610000000000004","105.3","1021.163","16.02","80.2","0.0","0.0"],
    [1515800,"2026-04-15 21:40:00","62297","2.023","107.1","4.312","106.2","1021.227","16.02","81.5","0.0","0.0"],
    [1515801,"2026-04-15 21:50:00","62298","1.6640000000000001","114.6","2.875","121.7","1021.196","15.78","82.6","0.0","0.0"],
    [1515802,"2026-04-15 22:00:00","62299","1.953","109.5","3.659","111.4","1021.191","15.62","82.3","0.0","0.0"],
    [1515803,"2026-04-15 22:10:00","62300","1.818","104.1","2.875","105.2","1021.207","15.57","81.2","0.0","0.0"],
    [1515804,"2026-04-15 22:20:00","62301","1.47","99.4","2.613","103.1","1021.232","15.66","80.0","0.0","0.0"],
    [1515805,"2026-04-15 22:30:00","62302","1.429","105.2","3.071","102.8","1021.156","15.67","79.29","0.0","0.0"],
    [1515806,"2026-04-15 22:40:00","62303","1.58","99.9","2.613","101.0","1021.174","15.69","79.28","0.0","0.0"],
    [1515807,"2026-04-15 22:50:00","62304","1.131","112.8","2.254","134.3","1021.205","15.61","78.81","0.0","0.0"],
    [1515808,"2026-04-15 23:00:00","62305","1.183","112.9","2.025","128.6","1021.263","15.5","78.44","0.0","0.0"],
    [1515809,"2026-04-15 23:10:00","62306","0.7879999999999999","84.9","1.47","85.2","1021.273","15.54","78.38","0.0","0.0"],
    [1515810,"2026-04-15 23:20:00","62307","0.7020000000000001","72.23","1.274","80.9","1021.209","15.54","78.26","0.0","0.0"],
    [1515811,"2026-04-15 23:30:00","62308","0.838","63.65","1.405","74.62","1021.246","15.49","78.84","0.0","0.0"],
    [1515812,"2026-04-15 23:40:00","62309","0.584","91.1","1.143","138.0","1021.307","15.45","78.96","0.0","0.0"],
    [1515813,"2026-04-15 23:50:00","62310","1.821","127.4","2.6460000000000004","121.9","1021.35","15.15","79.17","0.0","0.0"],
    [1515814,"2026-04-16 00:00:00","62311","2.066","120.4","2.45","127.2","1021.39","14.8","80.1","0.0","0.0"],
    [1515815,"2026-04-16 00:10:00","62312","2.148","122.0","2.679","127.1","1021.418","14.59","80.7","0.0","0.0"],
    [1515816,"2026-04-16 00:20:00","62313","2.332","125.4","2.9730000000000003","123.8","1021.403","14.42","81.6","0.0","0.0"],
    [1515817,"2026-04-16 00:30:00","62314","2.492","120.0","2.842","119.1","1021.352","14.32","82.0","0.0","0.0"],
    [1515818,"2026-04-16 00:40:00","62315","1.5819999999999999","122.7","2.352","116.8","1021.273","14.4","82.1","0.0","0.0"],
    [1515819,"2026-04-16 00:50:00","62316","0.865","138.9","1.5030000000000001","131.1","1021.131","14.81","81.0","0.0","0.0"],
    [1515820,"2026-04-16 01:00:00","62317","0.231","130.5","0.6859999999999999","133.5","1021.078","14.87","80.9","0.0","0.0"],
    [1515821,"2026-04-16 01:10:00","62318","0.483","124.8","1.013","100.6","1021.116","14.74","81.2","0.0","0.0"],
    [1515822,"2026-04-16 01:20:00","62319","1.3840000000000001","111.1","2.0580000000000003","118.1","1021.081","14.64","81.0","0.0","0.0"],
    [1515823,"2026-04-16 01:30:00","62320","0.44299999999999995","76.74","1.601","108.0","1021.015","14.5","81.6","0.0","0.0"],
    [1515824,"2026-04-16 01:40:00","62321","0.696","133.3","1.699","129.6","1020.92","14.26","81.9","0.0","0.0"],
    [1515825,"2026-04-16 01:50:00","62322","1.21","127.6","1.633","124.4","1020.925","14.1","81.9","0.0","0.0"],
    [1515826,"2026-04-16 02:00:00","62323","0.857","144.7","1.2409999999999999","142.0","1020.875","14.12","81.7","0.0","0.0"],
    [1515827,"2026-04-16 02:10:00","62324","0.526","154.1","0.8170000000000001","170.9","1020.815","14.14","81.8","0.0","0.0"],
    [1515828,"2026-04-16 02:20:00","62325","0.679","168.8","0.9470000000000001","156.8","1020.813","14.3","81.8","0.0","0.0"],
    [1515829,"2026-04-16 02:30:00","62326","1.111","145.9","1.797","129.1","1020.814","14.4","81.6","0.0","0.0"],
    [1515830,"2026-04-16 02:40:00","62327","1.67","127.8","1.9269999999999998","121.4","1020.717","14.07","81.3","0.0","0.0"],
    [1515831,"2026-04-16 02:50:00","62328","1.252","137.0","1.7309999999999999","127.5","1020.705","13.99","80.9","0.0","0.0"],
    [1515832,"2026-04-16 03:00:00","62329","2.126","127.9","2.8089999999999997","128.3","1020.654","13.94","80.5","0.0","0.0"],
    [1515833,"2026-04-16 03:10:00","62330","2.7939999999999996","120.0","3.201","120.0","1020.619","13.69","81.3","0.0","0.0"],
    [1515834,"2026-04-16 03:20:00","62331","2.481","120.6","2.94","123.3","1020.53","13.7","81.0","0.0","0.0"],
    [1515835,"2026-04-16 03:30:00","62332","2.399","121.0","2.7769999999999997","123.0","1020.519","13.77","80.4","0.0","0.0"],
    [1515836,"2026-04-16 03:40:00","62333","2.898","123.3","3.5610000000000004","122.5","1020.458","13.81","79.77","0.0","0.0"],
    [1515837,"2026-04-16 03:50:00","62334","3.028","125.7","3.7569999999999997","125.2","1020.419","13.75","79.91","0.0","0.0"],
    [1515838,"2026-04-16 04:00:00","62335","3.125","127.9","3.7569999999999997","124.7","1020.415","13.61","80.5","0.0","0.0"],
    [1515839,"2026-04-16 04:10:00","62336","3.214","126.5","3.9530000000000003","131.4","1020.419","13.4","81.5","0.0","0.0"],
    [1515840,"2026-04-16 04:20:00","62337","2.963","124.7","3.6910000000000003","128.3","1020.427","13.35","81.9","0.0","0.0"],
    [1515841,"2026-04-16 04:30:00","62338","2.87","126.4","3.495","116.8","1020.469","13.32","82.2","0.0","0.0"],
    [1515842,"2026-04-16 04:40:00","62339","2.985","124.5","3.463","122.5","1020.472","13.36","82.0","0.0","0.0"],
    [1515843,"2026-04-16 04:50:00","62340","2.8930000000000002","120.8","3.593","124.2","1020.463","13.42","81.4","0.0","0.0"],
    [1515844,"2026-04-16 05:00:00","62341","2.198","127.4","3.299","122.1","1020.53","13.5","80.8","0.0","0.0"],
    [1515845,"2026-04-16 05:10:00","62342","1.8969999999999998","125.4","2.9730000000000003","122.5","1020.661","13.54","80.6","0.664","0.0"],
    [1515846,"2026-04-16 05:20:00","62343","1.722","123.5","2.385","125.8","1020.702","13.61","79.8","6.306","0.0"],
    [1515847,"2026-04-16 05:30:00","62344","1.864","119.5","2.6460000000000004","123.8","1020.725","13.71","78.99","15.58","0.0"],
    [1515848,"2026-04-16 05:40:00","62345","2.531","122.0","2.9730000000000003","121.2","1020.783","13.84","78.21","33.94","0.0"],
    [1515849,"2026-04-16 05:50:00","62346","2.6460000000000004","122.9","3.1689999999999996","125.1","1020.803","13.92","77.64","29.1","0.0"],
    [1515850,"2026-04-16 06:00:00","62347","2.412","123.6","2.907","122.7","1020.87","14.01","77.04","33.05","0.0"],
    [1515851,"2026-04-16 06:10:00","62348","1.171","116.3","2.45","109.6","1020.974","14.11","76.46","35.23","0.0"],
    [1515852,"2026-04-16 06:20:00","62349","1.659","124.6","2.319","127.9","1021.051","14.1","76.35","44.83","0.0"],
    [1515853,"2026-04-16 06:30:00","62350","1.5390000000000001","122.3","2.548","129.0","1021.219","14.07","77.01","103.9","0.0"],
    [1515854,"2026-04-16 06:40:00","62351","1.87","133.0","2.6460000000000004","123.4","1021.223","14.26","76.56","118.2","0.0"],
    [1515855,"2026-04-16 06:50:00","62352","1.771","128.2","2.417","129.1","1021.287","14.51","75.36","149.2","0.0"],
    [1515856,"2026-04-16 07:00:00","62353","1.416","135.3","2.0580000000000003","120.5","1021.253","14.81","74.14","195.0","0.0"],
    [1515857,"2026-04-16 07:10:00","62354","1.4769999999999999","131.8","2.189","138.4","1021.277","15.1","72.86","195.3","0.0"],
    [1515858,"2026-04-16 07:20:00","62355","0.612","123.3","1.47","133.1","1021.399","15.41","72.13","260.8","0.0"],
    [1515859,"2026-04-16 07:30:00","62356","0.183","124.6","0.9470000000000001","213.5","1021.515","15.87","70.07","390.3","0.0"],
    [1515860,"2026-04-16 07:40:00","62357","0.877","217.9","1.797","225.2","1021.478","16.02","69.25","420.3","0.0"],
    [1515861,"2026-04-16 07:50:00","62358","0.001","204.2","0.196","192.2","1021.441","16.54","70.16","451.9","0.0"],
    [1515862,"2026-04-16 08:00:00","62359","1.067","326.3","1.7309999999999999","323.6","1021.458","16.4","71.52","489.8","0.0"],
    [1515863,"2026-04-16 08:10:00","62360","0.152","290.0","1.045","302.6","1021.496","16.81","72.55","518.7","0.0"],
    [1515864,"2026-04-16 08:20:00","62361","0.311","286.6","1.895","255.2","1021.495","17.21","70.13","548.6","0.0"],
    [1515865,"2026-04-16 08:30:00","62362","1.6269999999999998","265.4","2.156","270.5","1021.554","16.47","71.16","602.9","0.0"],
    [1515866,"2026-04-16 08:40:00","62363","1.805","256.7","2.287","260.5","1021.557","16.19","71.39","521.9","0.0"],
    [1515867,"2026-04-16 08:50:00","62364","2.019","261.3","2.483","262.0","1021.593","16.46","69.35","382.5","0.0"],
    [1515868,"2026-04-16 09:00:00","62365","0.731","277.2","1.699","260.9","1021.616","17.06","68.29","402.7","0.0"],
    [1515869,"2026-04-16 09:10:00","62366","1.057","280.2","2.417","285.9","1021.648","17.44","64.14","433.2","0.0"],
    [1515870,"2026-04-16 09:20:00","62367","1.482","317.9","2.156","326.8","1021.743","17.64","63.05","791.0","0.0"],
    [1515871,"2026-04-16 09:30:00","62368","2.285","350.5","2.94","7.742000000000001","1021.817","16.99","70.63","791.5","0.0"],
    [1515872,"2026-04-16 09:40:00","62369","2.291","358.7","2.842","7.1579999999999995","1021.822","16.53","73.96","780.9","0.0"],
    [1515873,"2026-04-16 09:50:00","62370","2.318","1.953","3.0380000000000003","18.43","1021.82","16.67","73.93","785.8","0.0"],
    [1515874,"2026-04-16 10:00:00","62371","2.82","15.33","3.659","18.98","1021.847","16.27","76.97","804.0","0.0"],
    [1515875,"2026-04-16 10:10:00","62372","2.424","9.17","3.234","21.77","1021.857","16.26","78.0","831.0","0.0"],
    [1515876,"2026-04-16 10:20:00","62373","2.438","8.44","3.0380000000000003","6.8020000000000005","1021.827","16.36","76.25","909.0","0.0"],
    [1515877,"2026-04-16 10:30:00","62374","2.294","10.87","2.842","13.21","1021.847","16.44","76.1","780.7","0.0"],
    [1515878,"2026-04-16 10:40:00","62375","2.855","17.04","3.332","13.17","1021.832","18.14","77.03","916.0","0.0"],
    [1515879,"2026-04-16 10:50:00","62376","3.168","22.81","3.659","23.37","1021.784","21.28","65.36","791.9","0.0"],
    [1515880,"2026-04-16 11:00:00","62377","3.3560000000000003","19.79","4.2139999999999995","17.0","1021.75","21.86","59.51","757.2","0.0"],
    [1515881,"2026-04-16 11:10:00","62378","3.9219999999999997","27.13","4.475","37.29","1021.687","21.8","60.36","852.0","0.0"],
    [1515882,"2026-04-16 11:20:00","62379","4.663","32.85","5.357","33.64","1021.626","22.13","58.82","859.0","0.0"],
    [1515883,"2026-04-16 11:30:00","62380","4.154","35.93","5.227","85.7","1021.52","22.24","60.34","857.0","0.0"],
    [1515884,"2026-04-16 11:40:00","62381","2.386","48.88","5.031000000000001","93.3","1021.442","22.24","59.43","863.0","0.0"],
    [1515885,"2026-04-16 11:50:00","62382","0.741","106.0","3.0380000000000003","133.5","1021.348","21.95","59.28","858.0","0.0"],
    [1515886,"2026-04-16 12:00:00","62383","2.565","221.5","6.141","277.9","1021.197","21.52","59.97","862.0","0.0"],
    [1515887,"2026-04-16 12:10:00","62384","5.353","181.8","6.9910000000000005","194.1","1021.084","22.12","56.45","869.0","0.0"],
    [1515888,"2026-04-16 12:20:00","62385","6.002999999999999","184.3","7.579","195.7","1021.013","22.1","54.2","859.0","0.0"],
    [1515889,"2026-04-16 12:30:00","62386","6.0920000000000005","184.6","7.709","187.7","1020.997","21.95","53.56","860.0","0.0"],
    [1515890,"2026-04-16 12:40:00","62387","6.357","186.7","7.742000000000001","190.8","1020.966","21.84","53.69","273.3","0.0"],
    [1515891,"2026-04-16 12:50:00","62388","6.042000000000001","187.5","8.04","184.5","1020.904","21.68","56.2","570.8","0.0"],
    [1515892,"2026-04-16 13:00:00","62389","5.985","191.6","8.33","191.5","1020.849","21.2","57.64","961.0","0.0"],
    [1515893,"2026-04-16 13:10:00","62390","0.6970000000000001","167.7","7.775","183.3","1020.711","18.46","66.03","697.8","0.0"],
    [1515894,"2026-04-16 13:20:00","62391","0.0","0.0","0.0","0.0","1020.621","18.86","65.75","865.0","0.0"],
    [1515895,"2026-04-16 13:30:00","62392","0.0","0.0","0.0","0.0","1020.544","19.4","60.57","851.0","0.0"],
    [1515896,"2026-04-16 13:40:00","62393","0.0","0.0","0.0","0.0","1020.453","19.3","60.04","832.0","0.0"],
    [1515897,"2026-04-16 13:50:00","62394","1.317","147.8","7.0889999999999995","190.5","1020.306","18.95","63.48","825.0","0.0"],
    [1515898,"2026-04-16 14:00:00","62395","5.914","190.2","8.0","190.6","1020.082","18.62","66.03","809.0","0.0"],
    [1515899,"2026-04-16 14:10:00","62396","5.235","213.9","8.4","235.3","1019.927","19.06","58.97","793.1","0.0"],
    [1515900,"2026-04-16 14:20:00","62397","5.631","213.1","7.611000000000001","213.0","1019.823","19.58","51.45","770.1","0.0"],
    [1515901,"2026-04-16 14:30:00","62398","4.857","214.9","7.742000000000001","203.5","1019.755","19.69","52.16","743.2","0.0"],
    [1515902,"2026-04-16 14:40:00","62399","4.511","208.2","6.664","189.9","1019.702","19.71","53.37","719.1","0.0"],
    [1515903,"2026-04-16 14:50:00","62400","4.26","209.6","7.285","209.4","1019.583","19.71","53.34","695.4","0.0"],
    [1515904,"2026-04-16 15:00:00","62401","4.476","220.5","7.971","230.0","1019.48","19.63","49.57","671.9","0.0"],
    [1515905,"2026-04-16 15:10:00","62402","4.527","219.8","8.36","216.0","1019.447","19.62","49.14","646.3","0.0"],
    [1515906,"2026-04-16 15:20:00","62403","5.196000000000001","199.2","8.07","196.9","1019.407","19.47","56.17","616.9","0.0"],
    [1515907,"2026-04-16 15:30:00","62404","6.025","194.9","7.579","188.9","1019.267","18.8","63.04","583.4","0.0"],
    [1515908,"2026-04-16 15:40:00","62405","5.438","196.1","7.84","187.4","1019.191","18.33","68.86","550.7","0.0"],
    [1515909,"2026-04-16 15:50:00","62406","6.919","192.7","8.62","192.9","1019.16","17.68","75.87","518.6","0.0"],
    [1515910,"2026-04-16 16:00:00","62407","5.8229999999999995","197.4","7.644","195.5","1019.108","18.02","74.8","487.5","0.0"],
    [1515911,"2026-04-16 16:10:00","62408","4.686","208.0","6.925","210.6","1019.052","18.86","68.55","456.1","0.0"],
    [1515912,"2026-04-16 16:20:00","62409","4.702","220.6","7.742000000000001","220.7","1018.997","19.88","54.6","420.1","0.0"],
    [1515913,"2026-04-16 16:30:00","62410","4.295","219.9","7.252000000000001","221.4","1019.004","19.97","54.38","389.2","0.0"],
    [1515914,"2026-04-16 16:40:00","62411","4.406000000000001","220.5","7.4479999999999995","223.4","1019.056","19.65","57.41","351.9","0.0"],
    [1515915,"2026-04-16 16:50:00","62412","3.822","226.4","6.9910000000000005","212.2","1019.075","20.12","50.64","317.3","0.0"],
    [1515916,"2026-04-16 17:00:00","62413","4.325","227.5","8.89","216.6","1018.951","20.57","42.91","280.6","0.0"],
    [1515917,"2026-04-16 17:10:00","62414","4.692","228.0","7.6770000000000005","220.9","1018.875","20.48","42.28","242.8","0.0"],
    [1515918,"2026-04-16 17:20:00","62415","3.79","228.9","7.187","214.4","1018.897","20.4","43.87","204.5","0.0"],
    [1515919,"2026-04-16 17:30:00","62416","3.8560000000000003","227.2","7.807","216.0","1018.921","20.31","44.36","170.2","0.0"],
    [1515920,"2026-04-16 17:40:00","62417","4.499","216.5","7.481","222.4","1018.937","20.24","44.51","144.0","0.0"],
    [1515921,"2026-04-16 17:50:00","62418","3.4019999999999997","211.1","7.218999999999999","216.4","1019.043","20.0","46.68","110.7","0.0"],
    [1515922,"2026-04-16 18:00:00","62419","3.8689999999999998","184.5","5.521","177.2","1019.178","19.04","56.25","78.83","0.0"],
    [1515923,"2026-04-16 18:10:00","62420","4.837","183.3","6.042999999999999","195.3","1019.218","17.21","75.67","51.79","0.0"],
    [1515924,"2026-04-16 18:20:00","62421","5.0360000000000005","190.0","6.435","194.2","1019.197","17.15","78.73","28.55","0.0"],
    [1515925,"2026-04-16 18:30:00","62422","5.013","192.2","6.207000000000001","190.2","1019.256","17.14","79.01","7.308","0.0"],
    [1515926,"2026-04-16 18:40:00","62423","3.852","206.4","5.912999999999999","238.4","1019.274","17.12","76.74","1.33","0.0"],
    [1515927,"2026-04-16 18:50:00","62424","3.8310000000000004","212.7","6.403","208.1","1019.333","17.95","64.8","0.0","0.0"],
    [1515928,"2026-04-16 19:00:00","62425","2.905","217.7","4.41","226.1","1019.429","18.32","61.01","0.0","0.0"],
    [1515929,"2026-04-16 19:10:00","62426","3.0839999999999996","217.2","5.4879999999999995","205.7","1019.542","18.32","58.68","0.0","0.0"],
    [1515930,"2026-04-16 19:20:00","62427","2.14","232.6","4.083","213.8","1019.68","18.36","56.53","0.0","0.0"],
    [1515931,"2026-04-16 19:30:00","62428","2.439","226.5","4.083","227.8","1019.78","18.46","55.24","0.0","0.0"],
    [1515932,"2026-04-16 19:40:00","62429","2.176","233.0","3.9530000000000003","234.6","1019.886","18.52","53.52","0.0","0.0"],
    [1515933,"2026-04-16 19:50:00","62430","2.044","227.2","3.267","225.2","1019.946","18.61","51.85","0.0","0.0"],
    [1515934,"2026-04-16 20:00:00","62431","2.128","211.8","3.397","202.4","1020.091","18.47","51.76","0.0","0.0"],
    [1515935,"2026-04-16 20:10:00","62432","2.573","206.6","4.573","210.4","1020.18","18.21","52.47","0.0","0.0"],
    [1515936,"2026-04-16 20:20:00","62433","1.6980000000000002","229.3","3.0380000000000003","278.5","1020.245","18.4","50.68","0.0","0.0"],
    [1515937,"2026-04-16 20:30:00","62434","2.105","242.5","3.495","233.5","1020.34","18.58","48.15","0.0","0.0"],
    [1515938,"2026-04-16 20:40:00","62435","2.009","233.8","3.495","229.9","1020.42","18.6","47.14","0.0","0.0"],
    [1515939,"2026-04-16 20:50:00","62436","1.3359999999999999","206.8","2.0580000000000003","195.7","1020.472","18.22","53.66","0.0","0.0"],
    [1515940,"2026-04-16 21:00:00","62437","0.866","269.0","2.287","288.4","1020.529","17.76","56.21","0.0","0.0"],
    [1515941,"2026-04-16 21:10:00","62438","1.198","263.9","2.417","264.3","1020.528","17.69","57.18","0.0","0.0"],
    [1515942,"2026-04-16 21:20:00","62439","1.07","280.8","1.535","276.3","1020.518","17.52","58.83","0.0","0.0"],
    [1515943,"2026-04-16 21:30:00","62440","1.4169999999999998","216.4","1.895","187.0","1020.527","17.55","58.47","0.0","0.0"],
    [1515944,"2026-04-16 21:40:00","62441","1.704","197.8","2.287","193.8","1020.534","17.35","60.88","0.0","0.0"],
    [1515945,"2026-04-16 21:50:00","62442","1.2770000000000001","208.6","1.797","212.4","1020.53","17.24","61.97","0.0","0.0"],
    [1515946,"2026-04-16 22:00:00","62443","1.915","203.0","2.7110000000000003","201.2","1020.532","17.29","64.78","0.0","0.0"],
    [1515947,"2026-04-16 22:10:00","62444","1.666","204.2","2.385","197.3","1020.562","17.16","67.32","0.0","0.0"],
    [1515948,"2026-04-16 22:20:00","62445","1.903","204.8","2.7110000000000003","225.0","1020.546","17.04","69.47","0.0","0.0"],
    [1515949,"2026-04-16 22:30:00","62446","1.236","230.4","2.7110000000000003","225.0","1020.479","16.92","70.23","0.0","0.0"],
    [1515950,"2026-04-16 22:40:00","62447","1.7","217.8","3.299","197.4","1020.486","17.11","68.73","0.0","0.0"],
    [1515951,"2026-04-16 22:50:00","62448","2.033","262.3","4.051","248.9","1020.514","16.8","70.63","0.0","0.0"],
    [1515952,"2026-04-16 23:00:00","62449","1.9709999999999999","264.8","3.0380000000000003","271.8","1020.484","16.62","72.53","0.0","0.0"],
    [1515953,"2026-04-16 23:10:00","62450","1.546","255.9","2.6460000000000004","253.4","1020.425","16.45","73.26","0.0","0.0"],
    [1515954,"2026-04-16 23:20:00","62451","1.96","254.4","3.201","256.3","1020.394","16.51","72.15","0.0","0.0"],
    [1515955,"2026-04-16 23:30:00","62452","1.844","251.8","3.332","259.6","1020.342","16.56","72.42","0.0","0.0"],
    [1515956,"2026-04-16 23:40:00","62453","1.588","256.3","2.548","273.1","1020.306","16.54","74.04","0.0","0.0"],
    [1515957,"2026-04-16 23:50:00","62454","1.624","257.2","2.875","253.1","1020.294","16.34","77.05","0.0","0.0"],
    [1515958,"2026-04-17 00:00:00","62455","1.504","248.2","2.5810000000000004","254.4","1020.371","16.29","79.74","0.0","0.0"],
    [1515959,"2026-04-17 00:10:00","62456","1.666","238.5","2.875","238.1","1020.35","16.28","82.3","0.0","0.0"],
    [1515960,"2026-04-17 00:20:00","62457","1.517","255.2","2.94","259.1","1020.292","16.16","83.8","0.0","0.0"],
    [1515961,"2026-04-17 00:30:00","62458","1.62","251.5","2.679","263.2","1020.246","16.05","85.5","0.0","0.0"],
    [1515962,"2026-04-17 00:40:00","62459","1.274","255.2","2.352","266.6","1020.132","15.95","87.0","0.0","0.0"],
    [1515963,"2026-04-17 00:50:00","62460","1.655","244.4","3.0380000000000003","260.9","1020.039","15.83","87.3","0.0","0.0"],
    [1515964,"2026-04-17 01:00:00","62461","0.608","240.5","1.797","227.6","1019.991","15.75","84.5","0.0","0.0"],
    [1515965,"2026-04-17 01:10:00","62462","0.009000000000000001","177.4","0.327","183.2","1019.922","15.81","83.6","0.0","0.0"],
    [1515966,"2026-04-17 01:20:00","62463","0.7509999999999999","254.3","1.5030000000000001","262.4","1019.854","15.21","81.1","0.0","0.0"],
    [1515967,"2026-04-17 01:30:00","62464","1.166","270.1","1.7309999999999999","259.1","1019.835","15.1","71.87","0.0","0.0"],
    [1515968,"2026-04-17 01:40:00","62465","1.758","274.9","2.156","283.0","1019.817","14.94","67.49","0.0","0.0"],
    [1515969,"2026-04-17 01:50:00","62466","1.795","269.4","2.156","267.0","1019.767","14.81","65.08","0.0","0.0"],
    [1515970,"2026-04-17 02:00:00","62467","1.91","269.2","2.156","263.2","1019.694","14.7","64.21","0.0","0.0"],
    [1515971,"2026-04-17 02:10:00","62468","1.568","266.9","1.993","268.2","1019.705","14.63","64.58","0.0","0.0"],
    [1515972,"2026-04-17 02:20:00","62469","1.6869999999999998","268.5","2.123","265.1","1019.658","14.52","64.9","0.0","0.0"],
    [1515973,"2026-04-17 02:30:00","62470","1.3619999999999999","264.6","1.633","263.4","1019.664","14.41","65.59","0.0","0.0"],
    [1515974,"2026-04-17 02:40:00","62471","1.145","284.3","1.7309999999999999","285.8","1019.639","14.42","65.91","0.0","0.0"],
    [1515975,"2026-04-17 02:50:00","62472","0.526","265.9","1.3719999999999999","277.9","1019.549","14.47","65.62","0.0","0.0"],
    [1515976,"2026-04-17 03:00:00","62473","0.0","0.0","0.0","0.0","1019.533","14.52","66.08","0.0","0.0"],
    [1515977,"2026-04-17 03:10:00","62474","0.049","251.9","0.653","267.1","1019.5","14.51","67.1","0.0","0.0"],
    [1515978,"2026-04-17 03:20:00","62475","0.29","287.8","0.7509999999999999","292.2","1019.48","14.48","66.74","0.0","0.0"],
    [1515979,"2026-04-17 03:30:00","62476","0.466","269.4","1.2409999999999999","272.0","1019.44","14.49","66.24","0.0","0.0"],
    [1515980,"2026-04-17 03:40:00","62477","1.795","272.3","2.221","270.5","1019.461","14.29","66.46","0.0","0.0"],
    [1515981,"2026-04-17 03:50:00","62478","1.4509999999999998","265.6","2.0909999999999997","267.5","1019.487","14.21","66.21","0.0","0.0"],
    [1515982,"2026-04-17 04:00:00","62479","1.71","268.6","2.221","268.9","1019.481","14.16","66.26","0.0","0.0"],
    [1515983,"2026-04-17 04:10:00","62480","1.796","266.5","2.45","267.4","1019.52","14.09","66.82","0.0","0.0"],
    [1515984,"2026-04-17 04:20:00","62481","2.6010000000000004","265.4","2.907","266.4","1019.48","13.9","66.2","0.0","0.0"],
    [1515985,"2026-04-17 04:30:00","62482","2.094","262.2","2.875","265.6","1019.452","13.72","65.91","0.0","0.0"],
    [1515986,"2026-04-17 04:40:00","62483","2.275","261.7","3.6910000000000003","261.0","1019.458","13.61","66.51","0.0","0.0"],
    [1515987,"2026-04-17 04:50:00","62484","2.522","270.7","3.9530000000000003","285.0","1019.485","13.91","66.12","0.0","0.0"],
    [1515988,"2026-04-17 05:00:00","62485","1.986","265.5","3.267","279.0","1019.505","14.37","63.79","0.21899999999999997","0.0"],
    [1515989,"2026-04-17 05:10:00","62486","2.7319999999999998","267.7","4.345","254.9","1019.531","14.54","62.72","2.4419999999999997","0.0"],
    [1515990,"2026-04-17 05:20:00","62487","1.881","246.7","3.463","257.1","1019.554","14.62","62.24","6.237","0.0"],
    [1515991,"2026-04-17 05:30:00","62488","1.956","256.2","3.855","255.0","1019.594","14.87","60.45","11.63","0.0"],
    [1515992,"2026-04-17 05:40:00","62489","2.173","253.1","3.659","243.3","1019.605","14.79","60.35","18.55","0.0"],
    [1515993,"2026-04-17 05:50:00","62490","1.8940000000000001","256.6","3.92","276.7","1019.678","14.62","61.74","48.19","0.0"],
    [1515994,"2026-04-17 06:00:00","62491","2.141","258.0","3.659","253.1","1019.719","14.85","61.18","73.9","0.0"],
    [1515995,"2026-04-17 06:10:00","62492","2.293","250.8","4.475","260.1","1019.792","15.06","60.12","114.6","0.0"],
    [1515996,"2026-04-17 06:20:00","62493","1.8619999999999999","260.1","3.1689999999999996","269.2","1019.823","15.27","59.7","149.1","0.0"],
    [1515997,"2026-04-17 06:30:00","62494","2.095","256.8","3.7239999999999998","269.8","1019.839","15.31","60.36","179.4","0.0"],
    [1515998,"2026-04-17 06:40:00","62495","2.4930000000000003","256.4","3.9530000000000003","266.6","1019.815","15.36","59.99","217.8","0.0"],
    [1515999,"2026-04-17 06:50:00","62496","2.6069999999999998","247.1","3.887","260.7","1019.811","15.45","60.23","253.5","0.0"],
    [1516000,"2026-04-17 07:00:00","62497","2.3080000000000003","250.6","3.495","254.9","1019.794","15.77","59.35","287.4","0.0"],
    [1516001,"2026-04-17 07:10:00","62498","2.149","243.4","3.7889999999999997","251.7","1019.788","16.09","58.51","322.4","0.0"],
    [1516002,"2026-04-17 07:20:00","62499","2.622","246.3","4.475","255.3","1019.836","16.16","57.52","359.6","0.0"],
    [1516003,"2026-04-17 07:30:00","62500","2.648","241.2","4.279","220.0","1019.912","16.43","55.96","393.0","0.0"],
    [1516004,"2026-04-17 07:40:00","62501","2.23","243.0","3.855","257.3","1019.947","16.87","54.42","428.0","0.0"],
    [1516005,"2026-04-17 07:50:00","62502","1.85","241.7","3.136","275.0","1020.013","17.42","52.54","461.7","0.0"],
    [1516006,"2026-04-17 08:00:00","62503","2.349","238.6","3.7569999999999997","222.4","1020.01","17.65","52.94","483.6","0.0"],
    [1516007,"2026-04-17 08:10:00","62504","2.01","239.4","3.103","257.6","1019.983","17.68","54.74","519.5","0.0"],
    [1516008,"2026-04-17 08:20:00","62505","2.0980000000000003","239.3","3.43","246.5","1020.033","17.89","53.23","558.2","0.0"],
    [1516009,"2026-04-17 08:30:00","62506","2.131","234.8","3.822","251.2","1020.107","18.34","52.29","588.6","0.0"],
    [1516010,"2026-04-17 08:40:00","62507","1.9909999999999999","225.2","2.9730000000000003","213.7","1020.131","18.76","49.89","620.3","0.0"],
    [1516011,"2026-04-17 08:50:00","62508","2.162","215.5","3.463","211.6","1020.183","19.14","51.23","644.2","0.0"],
    [1516012,"2026-04-17 09:00:00","62509","1.854","201.9","3.397","212.0","1020.222","19.17","52.46","668.7","0.0"],
    [1516013,"2026-04-17 09:10:00","62510","2.4130000000000003","176.9","3.6910000000000003","169.0","1020.264","18.49","62.37","686.6","0.0"],
    [1516014,"2026-04-17 09:20:00","62511","3.4530000000000003","172.9","4.638999999999999","172.1","1020.29","17.3","75.34","724.1","0.0"],
    [1516015,"2026-04-17 09:30:00","62512","4.15","173.0","5.651","171.6","1020.33","16.83","83.7","747.8","0.0"],
    [1516016,"2026-04-17 09:40:00","62513","4.641","176.8","5.521","175.0","1020.336","16.56","87.8","770.5","0.0"],
    [1516017,"2026-04-17 09:50:00","62514","4.039","180.6","5.031000000000001","176.8","1020.363","16.82","86.0","788.3","0.0"],
    [1516018,"2026-04-17 10:00:00","62515","3.9939999999999998","183.5","5.063","175.3","1020.366","16.83","85.9","796.0","0.0"],
    [1516019,"2026-04-17 10:10:00","62516","3.88","183.0","4.606","190.9","1020.363","17.18","81.3","821.0","0.0"],
    [1516020,"2026-04-17 10:20:00","62517","3.805","186.3","4.573","187.6","1020.346","17.24","79.43","840.0","0.0"],
    [1516021,"2026-04-17 10:30:00","62518","3.761","187.1","4.541","194.2","1020.387","17.61","74.91","851.0","0.0"],
    [1516022,"2026-04-17 10:40:00","62519","4.25","188.0","5.292000000000001","190.5","1020.312","17.64","74.08","864.0","0.0"],
    [1516023,"2026-04-17 10:50:00","62520","4.39","188.8","5.422999999999999","188.2","1020.276","17.63","75.14","875.0","0.0"],
    [1516024,"2026-04-17 11:00:00","62521","4.391","184.5","5.227","191.1","1020.235","17.53","76.39","881.0","0.0"],
    [1516025,"2026-04-17 11:10:00","62522","4.368","181.9","5.292000000000001","187.4","1020.202","17.52","75.7","890.0","0.0"],
    [1516026,"2026-04-17 11:20:00","62523","4.614","185.0","5.422999999999999","188.3","1020.171","17.59","74.55","896.0","0.0"],
    [1516027,"2026-04-17 11:30:00","62524","4.555","182.5","5.521","190.0","1020.13","17.64","74.48","900.0","0.0"],
    [1516028,"2026-04-17 11:40:00","62525","4.475","187.8","5.521","177.9","1020.065","17.53","75.92","903.0","0.0"],
    [1516029,"2026-04-17 11:50:00","62526","4.36","187.9","5.357","190.1","1020","17.81","71.72","906.0","0.0"],
    [1516030,"2026-04-17 12:00:00","62527","4.2589999999999995","178.7","5.096","173.4","1019.907","17.49","76.49","907.0","0.0"],
    [1516031,"2026-04-17 12:10:00","62528","4.151","183.3","5.227","176.8","1019.804","17.63","75.16","912.0","0.0"],
    [1516032,"2026-04-17 12:20:00","62529","4.433","179.1","5.749","174.9","1019.776","17.66","75.47","910.0","0.0"],
    [1516033,"2026-04-17 12:30:00","62530","4.623","178.2","5.684","173.1","1019.743","17.3","80.9","908.0","0.0"],
    [1516034,"2026-04-17 12:40:00","62531","4.408","177.3","5.292000000000001","174.5","1019.701","17.24","83.3","902.0","0.0"],
    [1516035,"2026-04-17 12:50:00","62532","4.418","175.8","5.096","170.1","1019.658","17.23","85.2","901.0","0.0"],
    [1516036,"2026-04-17 13:00:00","62533","4.45","156.5","5.031000000000001","161.6","1019.639","16.94","86.8","901.0","0.0"],
    [1516037,"2026-04-17 13:10:00","62534","3.877","147.4","4.638999999999999","149.6","1019.62","16.97","87.1","895.0","0.0"],
    [1516038,"2026-04-17 13:20:00","62535","3.888","152.0","4.41","146.8","1019.575","16.95","87.9","889.0","0.0"],
    [1516039,"2026-04-17 13:30:00","62536","3.612","153.1","4.2139999999999995","151.4","1019.502","16.98","88.7","854.0","0.0"],
    [1516040,"2026-04-17 13:40:00","62537","3.609","155.5","4.2139999999999995","156.6","1019.483","16.95","88.3","836.0","0.0"],
    [1516041,"2026-04-17 13:50:00","62538","3.667","164.1","4.181","163.9","1019.428","17.04","85.7","842.0","0.0"],
    [1516042,"2026-04-17 14:00:00","62539","4.072","171.5","4.638999999999999","172.2","1019.315","17.12","85.8","821.0","0.0"],
    [1516043,"2026-04-17 14:10:00","62540","4.004","169.1","4.802","170.7","1019.216","17.2","87.5","803.0","0.0"],
    [1516044,"2026-04-17 14:20:00","62541","4.085","168.3","4.606","165.9","1019.175","17.03","90.4","780.0","0.0"],
    [1516045,"2026-04-17 14:30:00","62542","3.969","178.7","4.802","196.4","1019.065","17.18","89.1","763.0","0.0"],
    [1516046,"2026-04-17 14:40:00","62543","4.353","170.5","4.998","170.7","1018.931","17.13","85.7","736.9","0.0"],
    [1516047,"2026-04-17 14:50:00","62544","3.8560000000000003","165.9","4.638999999999999","169.3","1018.895","17.17","84.5","712.0","0.0"],
    [1516048,"2026-04-17 15:00:00","62545","4.095","169.9","4.573","170.7","1018.834","17.12","84.3","676.9","0.0"],
    [1516049,"2026-04-17 15:10:00","62546","4.57","170.4","5.096","169.7","1018.766","17.16","85.1","660.6","0.0"],
    [1516050,"2026-04-17 15:20:00","62547","4.7669999999999995","171.9","5.455","172.3","1018.732","17.19","84.2","626.1","0.0"],
    [1516051,"2026-04-17 15:30:00","62548","4.811","171.4","5.2589999999999995","168.2","1018.747","17.23","84.7","582.7","0.0"],
    [1516052,"2026-04-17 15:40:00","62549","4.941","171.6","5.4879999999999995","170.4","1018.768","17.21","86.6","555.1","0.0"],
    [1516053,"2026-04-17 15:50:00","62550","4.565","177.8","5.455","171.9","1018.786","17.18","87.4","523.1","0.0"],
    [1516054,"2026-04-17 16:00:00","62551","4.1739999999999995","180.2","5.194","173.4","1018.78","17.57","84.2","485.5","0.0"],
    [1516055,"2026-04-17 16:10:00","62552","4.173","178.6","5.096","174.6","1018.864","17.5","83.5","439.3","0.0"],
    [1516056,"2026-04-17 16:20:00","62553","4.188","179.0","5.357","168.6","1018.947","17.49","84.6","434.6","0.0"],
    [1516057,"2026-04-17 16:30:00","62554","4.1160000000000005","181.4","5.129","183.8","1018.962","17.54","85.0","386.1","0.0"],
    [1516058,"2026-04-17 16:40:00","62555","4.133","180.1","5.292000000000001","171.1","1018.955","17.44","86.0","354.1","0.0"],
    [1516059,"2026-04-17 16:50:00","62556","3.995","187.1","5.194","188.4","1018.908","17.6","84.9","308.4","0.0"],
    [1516060,"2026-04-17 17:00:00","62557","4.288","183.2","5.292000000000001","186.0","1018.915","17.56","82.9","280.9","0.0"],
    [1516061,"2026-04-17 17:10:00","62558","4.198","189.2","5.422999999999999","189.6","1018.946","17.8","82.2","242.5","0.0"],
    [1516062,"2026-04-17 17:20:00","62559","4.0969999999999995","193.4","6.207000000000001","195.1","1018.982","17.94","79.63","204.4","0.0"],
    [1516063,"2026-04-17 17:30:00","62560","4.037","195.7","5.684","187.6","1019.003","18.07","78.01","169.8","0.0"],
    [1516064,"2026-04-17 17:40:00","62561","3.733","204.0","5.096","196.9","1019.012","18.05","75.61","124.9","0.0"],
    [1516065,"2026-04-17 17:50:00","62562","3.937","197.2","4.9","191.6","1019.054","18.11","74.1","75.75","0.0"],
    [1516066,"2026-04-17 18:00:00","62563","3.655","203.3","5.325","205.0","1019.007","18.03","75.68","33.02","0.0"],
    [1516067,"2026-04-17 18:10:00","62564","3.117","208.5","4.867","205.2","1019.106","17.95","77.39","17.92","0.0"],
    [1516068,"2026-04-17 18:20:00","62565","3.353","211.1","4.9","225.8","1019.2","17.72","77.01","10.98","0.0"],
    [1516069,"2026-04-17 18:30:00","62566","3.221","207.0","5.194","195.1","1019.298","17.74","76.46","5.566","0.0"],
    [1516070,"2026-04-17 18:40:00","62567","3.365","204.3","5.063","201.4","1019.34","17.61","77.57","1.0759999999999998","0.0"],
    [1516071,"2026-04-17 18:50:00","62568","3.555","203.2","4.802","208.8","1019.424","17.57","78.54","0.0","0.0"],
    [1516072,"2026-04-17 19:00:00","62569","3.185","203.3","4.541","190.9","1019.52","17.48","80.1","0.0","0.0"],
    [1516073,"2026-04-17 19:10:00","62570","3.0460000000000003","207.6","4.41","203.5","1019.545","17.39","81.2","0.0","0.0"],
    [1516074,"2026-04-17 19:20:00","62571","2.151","213.8","3.7889999999999997","215.1","1019.606","17.39","81.8","0.0","0.0"],
    [1516075,"2026-04-17 19:30:00","62572","1.11","220.8","2.287","200.8","1019.648","17.44","82.3","0.0","0.0"],
    [1516076,"2026-04-17 19:40:00","62573","1.062","230.3","3.463","251.1","1019.693","17.39","83.4","0.0","0.0"],
    [1516077,"2026-04-17 19:50:00","62574","0.9690000000000001","226.3","2.156","224.3","1019.733","17.32","84.4","0.0","0.0"],
    [1516078,"2026-04-17 20:00:00","62575","1.462","221.7","2.385","195.7","1019.771","17.3","85.5","0.0","0.0"],
    [1516079,"2026-04-17 20:10:00","62576","1.6640000000000001","234.9","3.071","240.7","1019.817","17.25","86.4","0.0","0.0"],
    [1516080,"2026-04-17 20:20:00","62577","1.44","224.5","2.842","214.2","1019.933","17.23","87.1","0.0","0.0"],
    [1516081,"2026-04-17 20:30:00","62578","1.187","241.0","3.0380000000000003","253.6","1020.026","17.14","87.8","0.0","0.0"],
    [1516082,"2026-04-17 20:40:00","62579","1.9369999999999998","256.9","3.267","264.6","1020.1","17.06","88.0","0.0","0.0"],
    [1516083,"2026-04-17 20:50:00","62580","1.8219999999999998","253.0","3.6910000000000003","265.7","1020.113","17.04","88.0","0.0","0.0"],
    [1516084,"2026-04-17 21:00:00","62581","1.952","260.4","3.528","259.0","1020.103","17.02","88.2","0.0","0.0"],
    [1516085,"2026-04-17 21:10:00","62582","1.775","253.9","3.136","249.1","1020.079","16.98","88.5","0.0","0.0"],
    [1516086,"2026-04-17 21:20:00","62583","1.681","254.0","3.234","273.8","1020.084","16.96","88.9","0.0","0.0"],
    [1516087,"2026-04-17 21:30:00","62584","1.9909999999999999","251.2","4.051","235.3","1020.077","16.94","89.5","0.0","0.0"],
    [1516088,"2026-04-17 21:40:00","62585","1.9909999999999999","247.0","4.279","253.5","1020.068","16.9","90.3","0.0","0.0"],
    [1516089,"2026-04-17 21:50:00","62586","1.962","247.8","3.397","249.7","1020.044","16.82","91.0","0.0","0.0"],
    [1516090,"2026-04-17 22:00:00","62587","2.542","251.7","3.9530000000000003","254.4","1020.057","16.76","91.5","0.0","0.0"],
    [1516091,"2026-04-17 22:10:00","62588","2.4819999999999998","253.2","4.573","266.9","1020.008","16.71","91.9","0.0","0.0"],
    [1516092,"2026-04-17 22:20:00","62589","2.3280000000000003","251.6","4.018","249.2","1020.026","16.64","92.3","0.0","0.0"],
    [1516093,"2026-04-17 22:30:00","62590","1.831","246.3","3.495","262.1","1020.016","16.59","92.6","0.0","0.0"],
    [1516094,"2026-04-17 22:40:00","62591","1.715","249.8","3.6260000000000003","258.2","1019.944","16.54","92.8","0.0","0.0"],
    [1516095,"2026-04-17 22:50:00","62592","1.7519999999999998","262.1","3.299","254.0","1019.9","16.18","91.9","0.0","0.0"],
    [1516096,"2026-04-17 23:00:00","62593","1.501","251.7","3.234","263.7","1019.888","16.21","89.7","0.0","0.0"],
    [1516097,"2026-04-17 23:10:00","62594","2.154","255.7","3.7569999999999997","268.6","1019.934","16.36","88.1","0.0","0.0"],
    [1516098,"2026-04-17 23:20:00","62595","1.9669999999999999","253.1","3.234","249.3","1019.933","16.22","86.2","0.0","0.0"],
    [1516099,"2026-04-17 23:30:00","62596","2.035","253.1","3.332","261.3","1019.907","16.21","83.9","0.0","0.0"],
    [1516100,"2026-04-17 23:40:00","62597","1.9769999999999999","253.8","3.332","263.9","1019.856","16.18","81.9","0.0","0.0"],
    [1516101,"2026-04-17 23:50:00","62598","2.0069999999999997","254.2","3.43","258.2","1019.765","16.23","81.3","0.0","0.0"],
    [1516102,"2026-04-18 00:00:00","62599","2.0869999999999997","263.8","3.528","261.6","1019.722","16.14","81.9","0.0","0.0"],
    [1516103,"2026-04-18 00:10:00","62600","1.9909999999999999","267.7","2.613","260.1","1019.648","15.89","82.4","0.0","0.0"],
    [1516104,"2026-04-18 00:20:00","62601","1.92","256.8","3.234","264.3","1019.534","15.86","82.0","0.0","0.0"],
    [1516105,"2026-04-18 00:30:00","62602","2.0269999999999997","249.0","3.593","258.0","1019.411","15.83","80.5","0.0","0.0"],
    [1516106,"2026-04-18 00:40:00","62603","1.6019999999999999","244.8","2.5810000000000004","251.5","1019.339","15.77","77.99","0.0","0.0"],
    [1516107,"2026-04-18 00:50:00","62604","2.373","250.3","3.6260000000000003","251.7","1019.191","15.79","75.76","0.0","0.0"],
    [1516108,"2026-04-18 01:00:00","62605","2.7310000000000003","257.4","4.279","253.0","1019.062","15.58","75.53","0.0","0.0"],
    [1516109,"2026-04-18 01:10:00","62606","2.5639999999999996","262.0","3.7239999999999998","261.5","1018.943","15.29","76.73","0.0","0.0"],
    [1516110,"2026-04-18 01:20:00","62607","2.5380000000000003","249.1","3.7569999999999997","260.5","1018.866","15.3","76.74","0.0","0.0"],
    [1516111,"2026-04-18 01:30:00","62608","2.083","245.4","3.103","252.5","1018.801","15.42","75.42","0.0","0.0"],
    [1516112,"2026-04-18 01:40:00","62609","2.036","253.5","3.136","239.1","1018.752","15.4","74.88","0.0","0.0"],
    [1516113,"2026-04-18 01:50:00","62610","1.744","247.0","2.94","256.7","1018.705","15.4","74.96","0.0","0.0"],
    [1516114,"2026-04-18 02:00:00","62611","1.29","259.3","2.7439999999999998","251.1","1018.731","15.37","75.13","0.0","0.0"],
    [1516115,"2026-04-18 02:10:00","62612","1.2570000000000001","260.1","2.156","250.9","1018.728","15.15","76.31","0.0","0.0"],
    [1516116,"2026-04-18 02:20:00","62613","1.39","261.3","1.9269999999999998","266.5","1018.74","15.06","77.09","0.0","0.0"],
    [1516117,"2026-04-18 02:30:00","62614","1.131","259.9","1.633","262.2","1018.716","15.03","77.33","0.0","0.0"],
    [1516118,"2026-04-18 02:40:00","62615","0.9890000000000001","268.1","1.699","266.7","1018.692","15.11","76.8","0.0","0.0"],
    [1516119,"2026-04-18 02:50:00","62616","0.6559999999999999","278.4","1.111","263.5","1018.672","15.21","76.0","0.0","0.0"],
    [1516120,"2026-04-18 03:00:00","62617","0.39899999999999997","277.2","0.8490000000000001","293.9","1018.61","15.21","76.25","0.0","0.0"],
    [1516121,"2026-04-18 03:10:00","62618","0.741","270.0","1.339","268.0","1018.586","15.24","76.04","0.0","0.0"],
    [1516122,"2026-04-18 03:20:00","62619","0.892","255.5","1.4369999999999998","262.7","1018.562","15.25","75.68","0.0","0.0"],
    [1516123,"2026-04-18 03:30:00","62620","0.075","292.4","0.8490000000000001","289.3","1018.544","15.21","76.22","0.0","0.0"],
    [1516124,"2026-04-18 03:40:00","62621","1.026","272.5","1.2409999999999999","279.0","1018.448","15.07","76.38","0.0","0.0"],
    [1516125,"2026-04-18 03:50:00","62622","0.254","265.6","0.8490000000000001","271.0","1018.444","15.12","76.52","0.0","0.0"],
    [1516126,"2026-04-18 04:00:00","62623","0.33799999999999997","263.2","0.915","246.7","1018.456","15.17","76.22","0.0","0.0"],
    [1516127,"2026-04-18 04:10:00","62624","0.537","230.9","0.882","219.3","1018.484","15.31","75.26","0.0","0.0"],
    [1516128,"2026-04-18 04:20:00","62625","0.307","260.9","0.8170000000000001","265.0","1018.454","15.31","74.39","0.0","0.0"],
    [1516129,"2026-04-18 04:30:00","62626","0.39799999999999996","263.3","1.111","261.3","1018.474","15.34","72.93","0.0","0.0"],
    [1516130,"2026-04-18 04:40:00","62627","0.7020000000000001","251.5","1.209","268.4","1018.499","15.63","70.44","0.0","0.0"],
    [1516131,"2026-04-18 04:50:00","62628","0.341","248.6","1.274","255.2","1018.578","15.64","70.72","0.0","0.0"],
    [1516132,"2026-04-18 05:00:00","62629","0.0","0.0","0.0","0.0","1018.675","15.48","72.1","0.767","0.0"],
    [1516133,"2026-04-18 05:10:00","62630","0.0","0.0","0.0","0.0","1018.76","15.36","72.81","4.375","0.0"],
    [1516134,"2026-04-18 05:20:00","62631","0.972","253.3","1.993","249.2","1018.833","15.21","71.36","13.44","0.0"],
    [1516135,"2026-04-18 05:30:00","62632","0.741","250.1","1.829","264.9","1018.924","15.28","70.05","24.57","0.0"],
    [1516136,"2026-04-18 05:40:00","62633","1.922","270.1","2.352","262.6","1018.955","15.22","69.91","34.67","0.0"],
    [1516137,"2026-04-18 05:50:00","62634","2.18","263.7","2.8089999999999997","257.2","1018.989","15.42","68.66","56.96","0.0"],
    [1516138,"2026-04-18 06:00:00","62635","2.406","266.4","3.136","266.3","1019.036","15.66","67.73","101.1","0.0"],
    [1516139,"2026-04-18 06:10:00","62636","2.992","269.7","4.051","272.9","1019.032","15.86","66.92","124.8","0.0"],
    [1516140,"2026-04-18 06:20:00","62637","3.127","277.8","4.279","279.8","1019.066","16.15","66.13","155.6","0.0"],
    [1516141,"2026-04-18 06:30:00","62638","2.327","278.9","3.1689999999999996","278.8","1019.124","16.55","64.79","217.4","0.0"],
    [1516142,"2026-04-18 06:40:00","62639","1.9269999999999998","277.4","2.9730000000000003","279.7","1019.195","17.04","62.93","262.5","0.0"],
    [1516143,"2026-04-18 06:50:00","62640","1.983","261.8","2.9730000000000003","272.8","1019.224","17.48","60.46","269.1","0.0"],
    [1516144,"2026-04-18 07:00:00","62641","1.456","253.7","2.385","261.9","1019.324","17.66","58.74","245.8","0.0"],
    [1516145,"2026-04-18 07:10:00","62642","1.589","249.3","2.254","256.6","1019.409","17.93","57.16","305.0","0.0"],
    [1516146,"2026-04-18 07:20:00","62643","0.935","256.0","2.156","243.1","1019.505","18.29","56.92","369.4","0.0"],
    [1516147,"2026-04-18 07:30:00","62644","0.621","245.8","1.209","255.5","1019.569","18.8","54.91","388.9","0.0"],
    [1516148,"2026-04-18 07:40:00","62645","0.38799999999999996","95.4","1.307","72.51","1019.713","19.0","55.53","419.2","0.0"],
    [1516149,"2026-04-18 07:50:00","62646","1.187","70.53","2.254","89.7","1019.801","18.35","61.19","445.7","0.0"],
    [1516150,"2026-04-18 08:00:00","62647","1.0959999999999999","85.6","1.601","88.9","1019.808","17.82","65.0","441.8","0.0"],
    [1516151,"2026-04-18 08:10:00","62648","0.857","96.6","1.2409999999999999","98.3","1019.925","17.79","64.86","454.8","0.0"],
    [1516152,"2026-04-18 08:20:00","62649","1.0759999999999998","106.9","1.405","96.9","1019.972","17.99","64.94","502.6","0.0"],
    [1516153,"2026-04-18 08:30:00","62650","1.486","130.0","3.397","177.3","1020.017","18.08","63.56","547.7","0.0"],
    [1516154,"2026-04-18 08:40:00","62651","2.609","172.5","3.495","174.5","1020.036","17.42","73.06","596.6","0.0"],
    [1516155,"2026-04-18 08:50:00","62652","2.772","172.9","3.267","172.4","1020.05","16.81","84.6","612.6","0.0"],
    [1516156,"2026-04-18 09:00:00","62653","3.25","174.9","3.7889999999999997","177.1","1020.105","16.5","89.9","624.4","0.0"],
    [1516157,"2026-04-18 09:10:00","62654","3.205","182.0","3.7889999999999997","176.4","1020.102","16.54","92.4","632.4","0.0"],
    [1516158,"2026-04-18 09:20:00","62655","2.987","180.2","3.593","176.7","1020.074","16.65","92.2","677.6","0.0"],
    [1516159,"2026-04-18 09:30:00","62656","3.215","178.5","3.855","177.1","1020.052","16.51","92.8","661.8","0.0"],
    [1516160,"2026-04-18 09:40:00","62657","3.819","175.7","4.181","176.6","1020.105","16.52","93.3","605.7","0.0"],
    [1516161,"2026-04-18 09:50:00","62658","3.884","177.4","4.4430000000000005","179.8","1020.125","16.49","94.7","637.6","0.0"],
    [1516162,"2026-04-18 10:00:00","62659","4.144","181.4","4.606","178.6","1020.143","16.67","94.4","678.8","0.0"],
    [1516163,"2026-04-18 10:10:00","62660","4.158","179.4","4.802","179.9","1020.195","16.6","93.4","686.9","0.0"],
    [1516164,"2026-04-18 10:20:00","62661","4.408","180.4","5.096","178.4","1020.183","16.7","91.1","681.5","0.0"],
    [1516165,"2026-04-18 10:30:00","62662","4.2139999999999995","178.0","5.096","174.2","1020.171","16.74","91.7","691.2","0.0"],
    [1516166,"2026-04-18 10:40:00","62663","3.997","180.0","4.998","175.2","1020.173","16.79","92.6","762.4","0.0"],
    [1516167,"2026-04-18 10:50:00","62664","3.611","181.6","4.606","180.8","1020.153","16.91","92.2","832.0","0.0"],
    [1516168,"2026-04-18 11:00:00","62665","3.4539999999999997","180.5","4.606","177.6","1020.127","17.01","91.1","841.0","0.0"],
    [1516169,"2026-04-18 11:10:00","62666","3.9","176.5","4.769","171.6","1020.108","16.91","90.8","803.0","0.0"],
    [1516170,"2026-04-18 11:20:00","62667","4.058","177.1","4.867","172.6","1020.058","16.94","91.6","862.0","0.0"],
    [1516171,"2026-04-18 11:30:00","62668","4.1339999999999995","177.7","4.867","176.2","1019.993","16.97","92.2","806.0","0.0"],
    [1516172,"2026-04-18 11:40:00","62669","4.829","176.3","5.422999999999999","175.0","1019.935","16.94","91.8","855.0","0.0"],
    [1516173,"2026-04-18 11:50:00","62670","4.393","178.1","5.063","174.8","1019.965","17.06","91.8","868.0","0.0"],
    [1516174,"2026-04-18 12:00:00","62671","4.191","179.8","5.357","173.0","1019.922","17.19","91.7","919.0","0.0"],
    [1516175,"2026-04-18 12:10:00","62672","5.129","176.3","5.749","177.2","1019.851","17.11","92.8","889.0","0.0"],
    [1516176,"2026-04-18 12:20:00","62673","4.503","178.0","5.227","175.7","1019.844","17.07","93.9","829.0","0.0"],
    [1516177,"2026-04-18 12:30:00","62674","4.6","178.8","5.39","176.4","1019.8","17.15","94.1","894.0","0.0"],
    [1516178,"2026-04-18 12:40:00","62675","4.378","178.9","5.292000000000001","175.6","1019.728","17.23","93.4","909.0","0.0"],
    [1516179,"2026-04-18 12:50:00","62676","4.34","179.1","5.2589999999999995","179.7","1019.733","17.25","92.7","848.0","0.0"],
    [1516180,"2026-04-18 13:00:00","62677","4.426","179.0","5.1610000000000005","178.0","1019.749","17.4","92.7","828.0","0.0"],
    [1516181,"2026-04-18 13:10:00","62678","3.85","183.0","4.737","175.8","1019.737","17.46","94.5","885.0","0.0"],
    [1516182,"2026-04-18 13:20:00","62679","3.908","184.0","5.031000000000001","176.5","1019.661","17.89","91.0","901.0","0.0"],
    [1516183,"2026-04-18 13:30:00","62680","4.643","177.1","5.357","175.6","1019.572","17.63","92.4","869.0","0.0"],
    [1516184,"2026-04-18 13:40:00","62681","4.706","176.5","5.292000000000001","174.1","1019.494","17.39","96.4","855.0","0.0"],
    [1516185,"2026-04-18 13:50:00","62682","4.571000000000001","177.7","5.39","175.1","1019.43","17.38","98.6","861.0","0.0"],
    [1516186,"2026-04-18 14:00:00","62683","5.05","177.4","5.684","175.2","1019.32","17.39","99.7","821.0","0.0"],
    [1516187,"2026-04-18 14:10:00","62684","5.327999999999999","176.9","5.815","177.1","1019.227","17.42","100.0","825.0","0.0"],
    [1516188,"2026-04-18 14:20:00","62685","5.104","176.5","5.749","176.5","1019.15","17.3","100.0","572.5","0.0"],
    [1516189,"2026-04-18 14:30:00","62686","4.785","177.0","5.749","170.3","1019.081","17.34","100.0","657.9","0.0"],
    [1516190,"2026-04-18 14:40:00","62687","4.7410000000000005","178.8","5.912999999999999","172.8","1018.996","17.32","100.0","784.1","0.0"],
    [1516191,"2026-04-18 14:50:00","62688","5.0360000000000005","182.2","6.042999999999999","177.1","1018.976","17.3","100.0","665.6","0.0"],
    [1516192,"2026-04-18 15:00:00","62689","4.987","185.4","6.109","186.1","1018.859","17.65","96.5","663.4","0.0"],
    [1516193,"2026-04-18 15:10:00","62690","5.004","187.3","6.37","187.3","1018.809","18.29","86.5","523.2","0.0"],
    [1516194,"2026-04-18 15:20:00","62691","4.824","190.5","6.0760000000000005","192.9","1018.787","18.73","76.73","284.7","0.0"],
    [1516195,"2026-04-18 15:30:00","62692","4.273","195.1","5.194","194.2","1018.816","19.46","65.75","214.6","0.0"],
    [1516196,"2026-04-18 15:40:00","62693","3.7460000000000004","202.7","5.7170000000000005","209.6","1018.816","19.66","60.98","237.2","0.0"],
    [1516197,"2026-04-18 15:50:00","62694","3.0460000000000003","219.3","4.737","199.9","1018.774","20.06","55.53","290.5","0.0"],
    [1516198,"2026-04-18 16:00:00","62695","2.845","217.6","5.2589999999999995","220.6","1018.767","20.31","54.09","336.3","0.0"],
    [1516199,"2026-04-18 16:10:00","62696","2.333","215.5","4.475","206.7","1018.729","20.56","53.55","244.0","0.0"],
    [1516200,"2026-04-18 16:20:00","62697","3.181","214.7","5.194","221.0","1018.716","20.65","51.87","279.0","0.0"],
    [1516201,"2026-04-18 16:30:00","62698","3.2710000000000004","209.0","5.292000000000001","195.4","1018.721","20.59","50.68","297.3","0.0"],
    [1516202,"2026-04-18 16:40:00","62699","2.7569999999999997","212.7","4.4430000000000005","211.4","1018.734","20.66","49.9","461.0","0.0"],
    [1516203,"2026-04-18 16:50:00","62700","2.8","212.9","4.671","236.4","1018.737","20.98","50.32","416.4","0.0"],
    [1516204,"2026-04-18 17:00:00","62701","3.3339999999999996","213.0","5.325","200.5","1018.667","20.98","47.21","355.7","0.0"],
    [1516205,"2026-04-18 17:10:00","62702","2.924","219.2","4.541","214.6","1018.615","20.95","46.83","305.1","0.0"],
    [1516206,"2026-04-18 17:20:00","62703","3.347","221.6","5.1610000000000005","234.8","1018.592","20.89","46.73","259.8","0.0"],
    [1516207,"2026-04-18 17:30:00","62704","2.7689999999999997","217.4","5.39","203.3","1018.559","20.98","44.96","210.2","0.0"],
    [1516208,"2026-04-18 17:40:00","62705","3.282","216.3","5.815","222.4","1018.509","20.68","45.58","163.8","0.0"],
    [1516209,"2026-04-18 17:50:00","62706","3.498","222.9","5.292000000000001","234.0","1018.442","20.45","46.04","122.6","0.0"],
    [1516210,"2026-04-18 18:00:00","62707","3.2910000000000004","221.3","5.815","234.1","1018.425","20.36","45.63","88.3","0.0"],
    [1516211,"2026-04-18 18:10:00","62708","3.424","221.4","5.292000000000001","222.5","1018.436","20.1","46.24","41.79","0.0"],
    [1516212,"2026-04-18 18:20:00","62709","3.07","221.6","4.933","225.7","1018.481","19.79","47.93","21.72","0.0"],
    [1516213,"2026-04-18 18:30:00","62710","3.425","220.4","4.998","226.2","1018.527","19.49","50.03","4.985","0.0"],
    [1516214,"2026-04-18 18:40:00","62711","3.8360000000000003","222.5","5.227","214.2","1018.591","19.15","52.37","0.691","0.0"],
    [1516215,"2026-04-18 18:50:00","62712","3.093","219.7","4.541","212.3","1018.668","18.93","55.16","0.0","0.0"],
    [1516216,"2026-04-18 19:00:00","62713","2.266","221.4","3.495","213.3","1018.771","18.91","56.63","0.0","0.0"],
    [1516217,"2026-04-18 19:10:00","62714","1.895","223.2","3.0380000000000003","215.5","1018.974","18.9","57.39","0.0","0.0"],
    [1516218,"2026-04-18 19:20:00","62715","2.187","216.5","3.397","223.9","1019.054","18.9","57.47","0.0","0.0"],
    [1516219,"2026-04-18 19:30:00","62716","2.275","209.3","2.907","225.0","1019.121","18.78","59.12","0.0","0.0"],
    [1516220,"2026-04-18 19:40:00","62717","2.465","203.1","3.528","215.6","1019.137","18.49","61.14","0.0","0.0"],
    [1516221,"2026-04-18 19:50:00","62718","2.8310000000000004","201.5","3.7239999999999998","203.9","1019.096","18.45","60.89","0.0","0.0"],
    [1516222,"2026-04-18 20:00:00","62719","2.0340000000000003","212.3","3.463","238.2","1019.211","18.45","60.12","0.0","0.0"],
    [1516223,"2026-04-18 20:10:00","62720","2.483","219.1","3.7239999999999998","224.1","1019.258","18.51","59.56","0.0","0.0"],
    [1516224,"2026-04-18 20:20:00","62721","1.854","230.3","3.332","215.9","1019.272","18.47","60.56","0.0","0.0"],
    [1516225,"2026-04-18 20:30:00","62722","1.276","251.8","2.025","261.1","1019.425","18.3","62.19","0.0","0.0"],
    [1516226,"2026-04-18 20:40:00","62723","1.7069999999999999","240.3","2.679","262.0","1019.413","18.2","63.74","0.0","0.0"],
    [1516227,"2026-04-18 20:50:00","62724","1.215","261.8","2.319","227.3","1019.433","18.13","64.94","0.0","0.0"],
    [1516228,"2026-04-18 21:00:00","62725","1.42","247.7","2.221","239.3","1019.477","17.94","66.27","0.0","0.0"],
    [1516229,"2026-04-18 21:10:00","62726","1.19","237.5","1.797","251.8","1019.45","18.01","65.63","0.0","0.0"],
    [1516230,"2026-04-18 21:20:00","62727","1.0170000000000001","239.3","1.633","264.3","1019.492","18.04","65.74","0.0","0.0"],
    [1516231,"2026-04-18 21:30:00","62728","1.5430000000000001","245.9","2.94","252.1","1019.453","17.96","66.12","0.0","0.0"],
    [1516232,"2026-04-18 21:40:00","62729","1.556","242.8","2.385","226.0","1019.391","17.89","65.8","0.0","0.0"],
    [1516233,"2026-04-18 21:50:00","62730","1.225","251.4","2.0909999999999997","267.2","1019.396","17.83","64.75","0.0","0.0"],
    [1516234,"2026-04-18 22:00:00","62731","1.591","244.0","2.613","253.0","1019.341","17.75","62.04","0.0","0.0"],
    [1516235,"2026-04-18 22:10:00","62732","1.76","248.4","2.7110000000000003","255.5","1019.285","17.89","57.03","0.0","0.0"],
    [1516236,"2026-04-18 22:20:00","62733","2.31","249.8","3.6910000000000003","259.3","1019.233","17.76","54.76","0.0","0.0"],
    [1516237,"2026-04-18 22:30:00","62734","2.083","253.7","3.5610000000000004","253.7","1019.204","17.55","54.08","0.0","0.0"],
    [1516238,"2026-04-18 22:40:00","62735","2.23","249.0","3.659","262.4","1019.01","17.49","53.98","0.0","0.0"],
    [1516239,"2026-04-18 22:50:00","62736","2.449","249.8","3.5610000000000004","253.3","1018.944","17.43","53.21","0.0","0.0"],
    [1516240,"2026-04-18 23:00:00","62737","2.6489999999999996","243.3","4.149","235.3","1018.916","17.46","52.68","0.0","0.0"],
    [1516241,"2026-04-18 23:10:00","62738","2.352","243.8","3.6910000000000003","272.2","1018.943","17.55","52.58","0.0","0.0"],
    [1516242,"2026-04-18 23:20:00","62739","2.345","249.1","3.365","258.1","1018.907","17.35","52.98","0.0","0.0"],
    [1516243,"2026-04-18 23:30:00","62740","2.5789999999999997","251.1","4.508","257.6","1018.833","17.13","53.36","0.0","0.0"],
    [1516244,"2026-04-18 23:40:00","62741","2.96","252.8","4.606","259.4","1018.839","16.9","53.68","0.0","0.0"],
    [1516245,"2026-04-18 23:50:00","62742","2.582","252.9","4.2139999999999995","251.1","1018.837","16.73","54.82","0.0","0.0"],
    [1516246,"2026-04-19 00:00:00","62743","2.43","249.7","4.018","259.0","1018.721","16.69","54.69","0.0","0.0"],
    [1516247,"2026-04-19 00:10:00","62744","2.699","249.6","4.083","259.9","1018.611","16.64","54.93","0.0","0.0"],
    [1516248,"2026-04-19 00:20:00","62745","2.813","253.0","4.1160000000000005","249.2","1018.503","16.62","54.67","0.0","0.0"],
    [1516249,"2026-04-19 00:30:00","62746","2.267","247.3","3.43","243.2","1018.467","16.74","54.47","0.0","0.0"],
    [1516250,"2026-04-19 00:40:00","62747","2.305","256.4","3.43","260.9","1018.389","16.66","54.25","0.0","0.0"],
    [1516251,"2026-04-19 00:50:00","62748","2.367","252.9","3.6260000000000003","248.6","1018.267","16.64","54.22","0.0","0.0"],
    [1516252,"2026-04-19 01:00:00","62749","2.6519999999999997","246.1","4.1160000000000005","249.8","1018.068","16.94","52.68","0.0","0.0"],
    [1516253,"2026-04-19 01:10:00","62750","2.718","247.9","4.1160000000000005","239.7","1017.948","17.01","51.84","0.0","0.0"],
    [1516254,"2026-04-19 01:20:00","62751","2.576","246.0","3.887","249.5","1017.806","16.96","51.9","0.0","0.0"],
    [1516255,"2026-04-19 01:30:00","62752","2.513","247.7","4.018","234.0","1017.687","16.96","51.66","0.0","0.0"],
    [1516256,"2026-04-19 01:40:00","62753","2.53","246.9","3.7569999999999997","267.0","1017.633","16.84","52.15","0.0","0.0"],
    [1516257,"2026-04-19 01:50:00","62754","2.42","252.5","3.985","264.5","1017.549","16.74","52.84","0.0","0.0"],
    [1516258,"2026-04-19 02:00:00","62755","2.43","254.8","4.149","275.4","1017.453","16.62","52.95","0.0","0.0"],
    [1516259,"2026-04-19 02:10:00","62756","2.588","256.8","3.6910000000000003","259.0","1017.421","16.64","52.51","0.0","0.0"],
    [1516260,"2026-04-19 02:20:00","62757","2.685","259.8","3.7889999999999997","272.5","1017.324","16.65","52.15","0.0","0.0"],
    [1516261,"2026-04-19 02:30:00","62758","2.517","267.2","3.299","271.3","1017.272","16.76","51.68","0.0","0.0"],
    [1516262,"2026-04-19 02:40:00","62759","1.8719999999999999","281.8","2.842","274.4","1017.257","16.89","51.26","0.0","0.0"],
    [1516263,"2026-04-19 02:50:00","62760","1.435","281.0","2.0909999999999997","272.8","1017.173","17.14","50.21","0.0","0.0"],
    [1516264,"2026-04-19 03:00:00","62761","1.454","277.2","1.895","275.7","1017.083","17.37","48.25","0.0","0.0"],
    [1516265,"2026-04-19 03:10:00","62762","0.47","8.13","1.3719999999999999","56.89","1017.02","17.38","50.22","0.0","0.0"],
    [1516266,"2026-04-19 03:20:00","62763","0.0","0.0","0.0","0.0","1017.023","17.26","52.2","0.0","0.0"],
    [1516267,"2026-04-19 03:30:00","62764","0.53","39.25","1.535","35.65","1016.958","16.99","54.9","0.0","0.0"],
    [1516268,"2026-04-19 03:40:00","62765","0.706","10.42","1.339","34.9","1016.843","16.88","61.27","0.0","0.0"],
    [1516269,"2026-04-19 03:50:00","62766","0.38","23.88","0.8170000000000001","36.07","1016.846","16.62","61.43","0.0","0.0"],
    [1516270,"2026-04-19 04:00:00","62767","0.048","286.2","0.49","286.2","1016.79","16.63","59.33","0.0","0.0"],
    [1516271,"2026-04-19 04:10:00","62768","0.583","271.0","1.111","271.7","1016.7","16.94","54.57","0.0","0.0"],
    [1516272,"2026-04-19 04:20:00","62769","1.1320000000000001","259.4","1.797","261.1","1016.679","16.82","54.05","0.0","0.0"],
    [1516273,"2026-04-19 04:30:00","62770","0.45899999999999996","287.8","1.633","268.7","1016.715","16.55","55.23","0.0","0.0"],
    [1516274,"2026-04-19 04:40:00","62771","0.6940000000000001","303.6","1.274","271.1","1016.744","16.44","55.75","0.0","0.0"],
    [1516275,"2026-04-19 04:50:00","62772","0.006","336.4","0.294","336.5","1016.828","16.46","55.31","0.0","0.0"],
    [1516276,"2026-04-19 05:00:00","62773","0.131","122.3","0.882","120.9","1016.929","16.45","57.54","0.142","0.0"],
    [1516277,"2026-04-19 05:10:00","62774","0.414","122.6","1.045","94.2","1017.099","16.5","61.57","3.679","0.0"],
    [1516278,"2026-04-19 05:20:00","62775","0.718","151.1","1.078","163.3","1017.234","16.56","64.09","14.87","0.0"],
    [1516279,"2026-04-19 05:30:00","62776","1.32","184.9","1.601","171.7","1017.269","16.4","65.16","29.68","0.0"],
    [1516280,"2026-04-19 05:40:00","62777","0.514","214.2","1.013","220.2","1017.313","16.49","62.64","56.77","0.0"],
    [1516281,"2026-04-19 05:50:00","62778","0.527","117.2","1.111","141.6","1017.36","17.54","60.04","62.09","0.0"],
    [1516282,"2026-04-19 06:00:00","62779","1.486","159.4","2.0909999999999997","179.7","1017.448","16.62","64.59","86.9","0.0"],
    [1516283,"2026-04-19 06:10:00","62780","1.965","194.9","2.287","193.4","1017.611","16.53","64.0","89.9","0.0"],
    [1516284,"2026-04-19 06:20:00","62781","1.306","217.4","2.123","189.9","1017.727","16.41","62.91","69.71","0.0"],
    [1516285,"2026-04-19 06:30:00","62782","1.135","240.2","2.0909999999999997","223.3","1017.757","16.47","59.12","68.43","0.0"],
    [1516286,"2026-04-19 06:40:00","62783","1.271","249.3","2.025","233.5","1017.841","16.45","57.37","80.2","0.0"],
    [1516287,"2026-04-19 06:50:00","62784","2.069","254.5","3.1689999999999996","259.6","1017.957","16.33","57.41","180.4","0.0"],
    [1516288,"2026-04-19 07:00:00","62785","2.6","255.1","4.1160000000000005","254.5","1017.951","16.3","57.2","268.1","0.0"],
    [1516289,"2026-04-19 07:10:00","62786","2.334","258.7","3.6910000000000003","264.0","1017.975","16.94","55.59","334.1","0.0"],
    [1516290,"2026-04-19 07:20:00","62787","2.499","258.3","4.638999999999999","263.0","1017.977","17.75","52.6","372.1","0.0"],
    [1516291,"2026-04-19 07:30:00","62788","2.659","245.4","4.279","225.5","1018.039","18.17","51.58","408.6","0.0"],
    [1516292,"2026-04-19 07:40:00","62789","2.347","239.7","4.1160000000000005","231.4","1018.02","18.35","51.49","441.2","0.0"],
    [1516293,"2026-04-19 07:50:00","62790","1.931","229.6","3.528","228.3","1018.035","18.61","49.93","472.0","0.0"],
    [1516294,"2026-04-19 08:00:00","62791","1.891","234.4","3.299","212.8","1018.084","18.89","48.52","497.4","0.0"],
    [1516295,"2026-04-19 08:10:00","62792","1.774","238.4","3.1689999999999996","262.4","1018.112","19.25","48.5","568.0","0.0"],
    [1516296,"2026-04-19 08:20:00","62793","2.0","204.9","3.005","185.2","1018.092","19.39","50.71","411.9","0.0"],
    [1516297,"2026-04-19 08:30:00","62794","2.78","185.7","3.5610000000000004","180.6","1018.177","17.85","67.72","578.5","0.0"],
    [1516298,"2026-04-19 08:40:00","62795","2.833","180.1","3.887","178.0","1018.288","17.77","71.83","685.9","0.0"],
    [1516299,"2026-04-19 08:50:00","62796","3.917","180.5","5.292000000000001","189.1","1018.307","17.57","79.53","543.4","0.0"],
    [1516300,"2026-04-19 09:00:00","62797","4.927","189.5","5.88","190.5","1018.325","17.66","83.0","460.3","0.0"],
    [1516301,"2026-04-19 09:10:00","62798","4.525","183.8","5.227","174.1","1018.431","17.6","80.5","734.6","0.0"],
    [1516302,"2026-04-19 09:20:00","62799","4.4639999999999995","171.3","4.965","174.0","1018.545","16.68","87.8","797.7","0.0"],
    [1516303,"2026-04-19 09:30:00","62800","4.23","178.8","5.063","186.9","1018.687","16.72","91.1","793.2","0.0"],
    [1516304,"2026-04-19 09:40:00","62801","4.364","176.2","5.129","174.6","1018.742","16.88","92.2","832.0","0.0"],
    [1516305,"2026-04-19 09:50:00","62802","5.1739999999999995","177.9","6.109","174.9","1018.719","17.03","95.3","911.0","0.0"],
    [1516306,"2026-04-19 10:00:00","62803","5.5329999999999995","175.9","6.042999999999999","173.6","1018.821","17.0","97.0","966.0","0.0"],
    [1516307,"2026-04-19 10:10:00","62804","5.756","175.7","6.468","173.0","1018.771","16.95","99.6","941.0","0.0"],
    [1516308,"2026-04-19 10:20:00","62805","5.346","178.0","6.207000000000001","174.9","1018.744","16.83","100.0","427.3","0.0"],
    [1516309,"2026-04-19 10:30:00","62806","4.5569999999999995","183.6","5.619","189.4","1018.729","17.01","100.0","404.0","0.0"],
    [1516310,"2026-04-19 10:40:00","62807","4.378","177.0","5.455","184.0","1018.67","16.92","100.0","481.0","0.0"],
    [1516311,"2026-04-19 10:50:00","62808","4.011","170.3","4.9","175.5","1018.614","16.83","100.0","667.8","0.0"],
    [1516312,"2026-04-19 11:00:00","62809","4.512","174.5","6.042999999999999","176.1","1018.48","16.97","97.1","872.0","0.0"],
    [1516313,"2026-04-19 11:10:00","62810","4.973","185.0","6.86","188.5","1018.347","18.51","76.07","910.0","0.0"],
    [1516314,"2026-04-19 11:20:00","62811","5.167000000000001","187.8","6.403","191.4","1018.245","19.4","63.0","910.0","0.0"],
    [1516315,"2026-04-19 11:30:00","62812","5.2620000000000005","190.3","6.893","191.1","1018.183","19.6","59.44","912.0","0.0"],
    [1516316,"2026-04-19 11:40:00","62813","5.754","188.9","7.579","187.1","1018.083","19.54","60.25","915.0","0.0"],
    [1516317,"2026-04-19 11:50:00","62814","5.247999999999999","196.0","6.957999999999999","189.6","1017.985","19.76","58.58","911.0","0.0"],
    [1516318,"2026-04-19 12:00:00","62815","5.532","194.8","8.04","197.2","1017.852","19.77","58.51","910.0","0.0"],
    [1516319,"2026-04-19 12:10:00","62816","5.776","189.8","7.611000000000001","197.9","1017.704","19.35","61.34","912.0","0.0"],
    [1516320,"2026-04-19 12:20:00","62817","5.502000000000001","181.8","6.9910000000000005","188.9","1017.646","18.26","71.61","912.0","0.0"],
    [1516321,"2026-04-19 12:30:00","62818","5.024","180.0","6.272","187.5","1017.655","18.06","75.21","908.0","0.0"],
    [1516322,"2026-04-19 12:40:00","62819","4.928","183.2","6.435","178.9","1017.588","18.06","77.1","904.0","0.0"],
    [1516323,"2026-04-19 12:50:00","62820","5.261","185.8","6.631","183.7","1017.507","18.24","76.96","896.0","0.0"],
    [1516324,"2026-04-19 13:00:00","62821","5.182","184.9","6.403","189.3","1017.411","18.11","80.1","887.0","0.0"],
    [1516325,"2026-04-19 13:10:00","62822","5.171","179.6","6.468","171.5","1017.333","17.8","85.7","876.0","0.0"],
    [1516326,"2026-04-19 13:20:00","62823","5.724","175.7","6.501","176.0","1017.292","17.42","91.9","867.0","0.0"],
    [1516327,"2026-04-19 13:30:00","62824","5.442","174.1","5.978","178.5","1017.264","17.21","96.2","862.0","0.0"],
    [1516328,"2026-04-19 13:40:00","62825","5.192","170.9","6.011","170.0","1017.215","17.12","99.0","824.0","0.0"],
    [1516329,"2026-04-19 13:50:00","62826","4.587","170.1","5.88","174.9","1017.13","17.11","100.0","783.7","0.0"],
    [1516330,"2026-04-19 14:00:00","62827","4.502","168.6","5.325","176.0","1017.082","17.12","100.0","780.7","0.0"],
    [1516331,"2026-04-19 14:10:00","62828","4.654","172.2","6.042999999999999","176.8","1017.092","17.16","99.4","729.6","0.0"],
    [1516332,"2026-04-19 14:20:00","62829","4.319","173.1","5.292000000000001","173.9","1017.046","17.3","96.9","660.4","0.0"],
    [1516333,"2026-04-19 14:30:00","62830","4.363","179.2","5.227","177.3","1016.968","17.44","93.9","658.4","0.0"],
    [1516334,"2026-04-19 14:40:00","62831","3.978","183.1","5.063","176.9","1016.948","17.84","88.8","729.4","0.0"],
    [1516335,"2026-04-19 14:50:00","62832","4.232","175.6","5.194","173.1","1016.84","17.73","86.8","709.8","0.0"],
    [1516336,"2026-04-19 15:00:00","62833","4.64","173.0","5.422999999999999","170.0","1016.74","17.58","88.6","676.7","0.0"],
    [1516337,"2026-04-19 15:10:00","62834","4.617","175.5","6.109","187.7","1016.671","17.57","89.1","649.8","0.0"],
    [1516338,"2026-04-19 15:20:00","62835","4.292","183.8","6.042999999999999","176.0","1016.692","17.95","85.5","610.9","0.0"],
    [1516339,"2026-04-19 15:30:00","62836","3.7889999999999997","186.9","5.586","185.6","1016.815","18.27","81.6","588.2","0.0"],
    [1516340,"2026-04-19 15:40:00","62837","4.435","192.1","6.272","203.1","1016.815","18.76","76.13","556.2","0.0"],
    [1516341,"2026-04-19 15:50:00","62838","5.146","185.7","6.7620000000000005","188.6","1016.713","18.72","75.29","531.6","0.0"],
    [1516342,"2026-04-19 16:00:00","62839","4.591","187.3","6.239","191.9","1016.62","18.47","78.41","498.3","0.0"],
    [1516343,"2026-04-19 16:10:00","62840","4.747","186.5","5.749","190.1","1016.524","18.48","78.68","447.3","0.0"],
    [1516344,"2026-04-19 16:20:00","62841","4.739","185.3","6.0760000000000005","192.3","1016.39","18.32","80.0","409.3","0.0"],
    [1516345,"2026-04-19 16:30:00","62842","4.664","186.8","6.0760000000000005","192.2","1016.461","18.2","81.7","387.7","0.0"],
    [1516346,"2026-04-19 16:40:00","62843","3.6639999999999997","197.8","5.227","186.7","1016.605","18.56","81.7","365.8","0.0"],
    [1516347,"2026-04-19 16:50:00","62844","3.63","198.7","5.227","204.5","1016.847","18.79","80.3","325.9","0.0"],
    [1516348,"2026-04-19 17:00:00","62845","3.667","202.1","4.998","205.1","1016.949","18.96","79.65","283.1","0.0"],
    [1516349,"2026-04-19 17:10:00","62846","3.787","193.4","5.325","195.9","1016.834","18.75","81.4","240.7","0.0"],
    [1516350,"2026-04-19 17:20:00","62847","1.9340000000000002","199.2","4.1160000000000005","209.1","1016.849","18.79","83.1","91.1","0.0"],
    [1516351,"2026-04-19 17:30:00","62848","2.296","180.8","3.43","189.5","1016.821","18.43","84.4","55.09","0.0"],
    [1516352,"2026-04-19 17:40:00","62849","3.2460000000000004","182.7","3.9530000000000003","175.0","1016.812","18.08","88.8","41.64","0.0"],
    [1516353,"2026-04-19 17:50:00","62850","3.2460000000000004","184.5","4.149","180.9","1016.716","17.61","93.9","44.76","0.0"],
    [1516354,"2026-04-19 18:00:00","62851","4.012","175.5","4.9","178.5","1016.675","17.29","97.3","41.7","0.0"],
    [1516355,"2026-04-19 18:10:00","62852","4.121","177.9","4.867","178.4","1016.841","17.06","99.9","31.35","0.0"],
    [1516356,"2026-04-19 18:20:00","62853","3.4019999999999997","175.9","4.1160000000000005","173.7","1016.862","16.93","100.0","19.23","0.0"],
    [1516357,"2026-04-19 18:30:00","62854","3.0010000000000003","178.7","3.495","175.8","1016.882","16.8","100.0","8.45","0.0"],
    [1516358,"2026-04-19 18:40:00","62855","3.097","195.1","3.7889999999999997","199.5","1016.906","16.8","100.0","1.6","0.0"],
    [1516359,"2026-04-19 18:50:00","62856","2.496","191.4","3.1689999999999996","196.5","1016.769","16.86","100.0","0.08","0.0"],
    [1516360,"2026-04-19 19:00:00","62857","1.944","197.4","2.515","192.8","1016.854","16.94","100.0","0.0","0.0"],
    [1516361,"2026-04-19 19:10:00","62858","1.391","200.6","2.189","190.7","1016.879","17.09","100.0","0.0","0.0"],
    [1516362,"2026-04-19 19:20:00","62859","1.869","215.3","2.875","216.3","1016.861","17.15","100.0","0.0","0.0"],
    [1516363,"2026-04-19 19:30:00","62860","1.33","226.1","2.5810000000000004","215.4","1016.929","17.3","99.6","0.0","0.0"],
    [1516364,"2026-04-19 19:40:00","62861","1.2890000000000001","233.8","2.221","242.8","1017.095","17.37","97.9","0.0","0.0"],
    [1516365,"2026-04-19 19:50:00","62862","1.348","219.7","1.96","218.2","1017.194","17.36","96.6","0.0","0.0"],
    [1516366,"2026-04-19 20:00:00","62863","1.689","220.0","2.613","217.5","1017.267","17.37","95.0","0.0","0.0"],
    [1516367,"2026-04-19 20:10:00","62864","1.879","227.6","2.8089999999999997","220.4","1017.146","17.47","91.8","0.0","0.0"],
    [1516368,"2026-04-19 20:20:00","62865","1.6969999999999998","235.4","3.005","229.1","1017.079","17.71","87.1","0.0","0.0"],
    [1516369,"2026-04-19 20:30:00","62866","1.4580000000000002","254.9","2.45","259.2","1017.004","17.88","84.4","0.0","0.0"],
    [1516370,"2026-04-19 20:40:00","62867","1.591","259.7","3.071","276.8","1016.915","17.94","84.9","0.0","0.0"],
    [1516371,"2026-04-19 20:50:00","62868","1.825","251.4","2.9730000000000003","258.7","1016.951","17.78","88.3","0.0","0.0"],
    [1516372,"2026-04-19 21:00:00","62869","2.085","261.7","3.528","265.5","1017.011","17.66","90.3","0.0","0.0"],
    [1516373,"2026-04-19 21:10:00","62870","1.8459999999999999","245.2","2.94","248.2","1016.924","17.64","91.4","0.0","0.0"],
    [1516374,"2026-04-19 21:20:00","62871","2.306","264.3","3.495","251.1","1016.823","17.7","91.3","0.0","0.0"],
    [1516375,"2026-04-19 21:30:00","62872","2.265","259.6","3.365","248.7","1016.777","17.75","90.9","0.0","0.0"],
    [1516376,"2026-04-19 21:40:00","62873","2.3569999999999998","245.6","3.92","249.3","1016.676","17.94","89.3","0.0","0.0"],
    [1516377,"2026-04-19 21:50:00","62874","2.84","236.0","4.181","248.7","1016.452","18.12","86.9","0.0","0.0"],
    [1516378,"2026-04-19 22:00:00","62875","2.7510000000000003","241.3","4.018","245.4","1016.377","18.28","84.9","0.0","0.0"],
    [1516379,"2026-04-19 22:10:00","62876","2.7969999999999997","232.1","4.345","232.7","1016.266","18.31","83.7","0.0","0.0"],
    [1516380,"2026-04-19 22:20:00","62877","2.883","227.0","4.018","219.0","1016.142","18.37","81.7","0.0","0.0"],
    [1516381,"2026-04-19 22:30:00","62878","2.24","245.5","4.149","210.7","1016.128","18.2","80.8","0.0","0.0"],
    [1516382,"2026-04-19 22:40:00","62879","2.28","251.6","3.985","258.5","1016.101","17.8","80.4","0.0","0.0"],
    [1516383,"2026-04-19 22:50:00","62880","2.8710000000000004","266.6","4.508","262.3","1016.101","17.67","77.05","0.0","0.0"],
    [1516384,"2026-04-19 23:00:00","62881","2.496","245.9","4.1160000000000005","265.1","1015.797","17.68","75.26","0.0","0.0"],
    [1516385,"2026-04-19 23:10:00","62882","2.766","234.3","4.2139999999999995","225.1","1015.498","17.68","76.71","0.0","0.0"],
    [1516386,"2026-04-19 23:20:00","62883","2.545","232.5","4.508","230.0","1015.366","17.51","78.49","0.0","0.0"],
    [1516387,"2026-04-19 23:30:00","62884","2.5380000000000003","244.9","4.051","252.3","1015.181","17.52","78.19","0.0","0.0"],
    [1516388,"2026-04-19 23:40:00","62885","2.499","273.1","4.083","270.5","1015.352","17.5","77.95","0.0","0.0"],
    [1516389,"2026-04-19 23:50:00","62886","3.025","274.0","4.802","277.5","1015.402","17.47","76.41","0.0","0.0"],
    [1516390,"2026-04-20 00:00:00","62887","1.659","254.2","2.842","256.6","1015.273","17.49","73.86","0.0","0.0"],
    [1516391,"2026-04-20 00:10:00","62888","2.164","238.0","3.6260000000000003","227.9","1015.198","17.46","73.3","0.0","0.0"],
    [1516392,"2026-04-20 00:20:00","62889","2.0580000000000003","235.5","3.43","215.1","1015.164","17.53","75.65","0.0","0.0"],
    [1516393,"2026-04-20 00:30:00","62890","1.548","253.4","2.7110000000000003","260.0","1015.105","17.62","75.22","0.0","0.0"],
    [1516394,"2026-04-20 00:40:00","62891","1.527","245.8","2.907","258.6","1015.112","17.64","74.7","0.0","0.0"],
    [1516395,"2026-04-20 00:50:00","62892","1.819","252.4","3.463","261.0","1015.002","17.63","73.99","0.0","0.0"],
    [1516396,"2026-04-20 01:00:00","62893","1.7819999999999998","252.5","2.842","267.1","1014.832","17.68","73.33","0.0","0.0"],
    [1516397,"2026-04-20 01:10:00","62894","1.128","238.5","2.7110000000000003","260.1","1014.673","17.72","73.42","0.0","0.0"],
    [1516398,"2026-04-20 01:20:00","62895","0.966","174.4","2.025","171.2","1014.602","17.66","75.18","0.0","0.0"],
    [1516399,"2026-04-20 01:30:00","62896","1.021","207.1","1.633","203.1","1014.596","17.52","77.47","0.0","0.0"],
    [1516400,"2026-04-20 01:40:00","62897","1.14","251.0","2.189","263.1","1014.553","17.49","77.1","0.0","0.0"],
    [1516401,"2026-04-20 01:50:00","62898","0.893","237.9","1.601","233.8","1014.424","17.65","75.36","0.0","0.0"],
    [1516402,"2026-04-20 02:00:00","62899","0.183","219.4","1.895","214.5","1014.382","17.71","75.31","0.0","0.0"],
    [1516403,"2026-04-20 02:10:00","62900","2.294","207.0","3.1689999999999996","197.5","1014.361","17.51","76.9","0.0","0.0"],
    [1516404,"2026-04-20 02:20:00","62901","2.327","209.8","3.332","204.7","1014.341","17.46","76.98","0.0","0.0"],
    [1516405,"2026-04-20 02:30:00","62902","1.598","236.5","2.679","232.7","1014.274","17.39","76.43","0.0","0.0"],
    [1516406,"2026-04-20 02:40:00","62903","2.721","223.0","4.279","223.5","1014.134","17.26","77.54","0.0","0.0"],
    [1516407,"2026-04-20 02:50:00","62904","1.7619999999999998","232.6","3.593","227.6","1014.055","17.25","78.07","0.0","0.0"],
    [1516408,"2026-04-20 03:00:00","62905","1.516","256.0","3.1689999999999996","231.5","1013.99","17.03","79.41","0.0","0.0"],
    [1516409,"2026-04-20 03:10:00","62906","1.838","229.1","3.234","230.1","1013.883","17.03","78.56","0.0","0.0"],
    [1516410,"2026-04-20 03:20:00","62907","1.304","226.2","2.221","211.8","1013.815","17.07","77.33","0.0","0.0"],
    [1516411,"2026-04-20 03:30:00","62908","0.769","228.8","1.307","233.4","1013.773","17.05","76.85","0.0","0.0"],
    [1516412,"2026-04-20 03:40:00","62909","0.9329999999999999","220.0","1.7309999999999999","233.5","1013.724","16.99","76.87","0.0","0.0"],
    [1516413,"2026-04-20 03:50:00","62910","1.568","225.3","2.189","219.0","1013.599","16.87","76.6","0.0","0.0"],
    [1516414,"2026-04-20 04:00:00","62911","1.412","269.7","1.9269999999999998","267.3","1013.626","16.87","76.06","0.0","0.0"],
    [1516415,"2026-04-20 04:10:00","62912","1.214","252.9","2.025","252.3","1013.642","16.65","77.89","0.0","0.0"],
    [1516416,"2026-04-20 04:20:00","62913","0.336","276.6","1.2409999999999999","250.5","1013.585","16.46","78.86","0.0","0.0"],
    [1516417,"2026-04-20 04:30:00","62914","0.46","236.5","1.5030000000000001","226.7","1013.545","16.34","79.87","0.0","0.0"],
    [1516418,"2026-04-20 04:40:00","62915","1.0270000000000001","234.5","1.829","217.4","1013.487","16.31","80.1","0.0","0.0"],
    [1516419,"2026-04-20 04:50:00","62916","1.84","219.5","3.0380000000000003","233.4","1013.42","16.25","80.7","0.0","0.0"],
    [1516420,"2026-04-20 05:00:00","62917","2.013","245.2","3.234","219.7","1013.373","16.32","78.17","0.261","0.0"],
    [1516421,"2026-04-20 05:10:00","62918","1.829","249.8","3.397","261.0","1013.352","16.61","74.67","3.614","0.0"],
    [1516422,"2026-04-20 05:20:00","62919","2.002","239.5","3.103","237.7","1013.387","16.96","72.56","10.64","0.0"],
    [1516423,"2026-04-20 05:30:00","62920","2.016","233.6","3.234","223.5","1013.397","16.95","73.1","18.94","0.0"],
    [1516424,"2026-04-20 05:40:00","62921","1.4480000000000002","230.3","2.679","213.0","1013.476","16.88","74.56","38.77","0.0"],
    [1516425,"2026-04-20 05:50:00","62922","1.472","232.1","2.613","232.6","1013.573","17.03","74.69","65.46","0.0"],
    [1516426,"2026-04-20 06:00:00","62923","1.662","244.6","2.94","218.2","1013.596","17.23","75.85","106.7","0.0"],
    [1516427,"2026-04-20 06:10:00","62924","1.874","249.8","3.201","255.7","1013.685","17.02","76.25","132.6","0.0"],
    [1516428,"2026-04-20 06:20:00","62925","1.4609999999999999","232.6","2.352","254.1","1013.701","17.07","74.95","159.6","0.0"],
    [1516429,"2026-04-20 06:30:00","62926","2.436","211.4","3.887","208.4","1013.636","17.32","73.39","168.6","0.0"],
    [1516430,"2026-04-20 06:40:00","62927","2.53","216.4","4.2139999999999995","224.2","1013.63","17.5","71.94","187.6","0.0"],
    [1516431,"2026-04-20 06:50:00","62928","2.5469999999999997","224.0","4.083","216.6","1013.661","17.65","69.78","228.5","0.0"],
    [1516432,"2026-04-20 07:00:00","62929","2.026","227.2","3.822","199.2","1013.687","18.02","68.9","258.9","0.0"],
    [1516433,"2026-04-20 07:10:00","62930","2.3369999999999997","219.6","3.7239999999999998","220.0","1013.671","18.27","67.82","306.0","0.0"],
    [1516434,"2026-04-20 07:20:00","62931","1.804","221.4","3.365","206.0","1013.679","18.59","67.18","337.8","0.0"],
    [1516435,"2026-04-20 07:30:00","62932","2.3209999999999997","219.1","3.822","217.0","1013.769","18.61","67.11","387.7","0.0"],
    [1516436,"2026-04-20 07:40:00","62933","2.069","226.0","3.6910000000000003","219.7","1013.791","19.03","64.89","426.3","0.0"],
    [1516437,"2026-04-20 07:50:00","62934","2.4659999999999997","223.2","3.92","217.9","1013.797","19.43","63.66","454.1","0.0"],
    [1516438,"2026-04-20 08:00:00","62935","3.247","221.5","5.847","208.4","1013.79","19.21","66.32","501.7","0.0"],
    [1516439,"2026-04-20 08:10:00","62936","2.104","238.3","4.377","210.8","1013.849","19.26","67.41","450.8","0.0"],
    [1516440,"2026-04-20 08:20:00","62937","3.844","216.9","5.651","213.9","1013.803","19.17","67.47","525.5","0.0"],
    [1516441,"2026-04-20 08:30:00","62938","3.029","221.9","5.422999999999999","210.1","1013.849","19.33","68.21","580.7","0.0"],
    [1516442,"2026-04-20 08:40:00","62939","2.141","237.9","4.279","246.5","1013.898","19.63","66.25","625.3","0.0"],
    [1516443,"2026-04-20 08:50:00","62940","2.6510000000000002","218.4","4.965","224.3","1013.862","19.98","64.38","653.9","0.0"],
    [1516444,"2026-04-20 09:00:00","62941","2.407","228.5","4.965","217.7","1013.885","20.25","62.57","581.2","0.0"],
    [1516445,"2026-04-20 09:10:00","62942","2.6310000000000002","201.8","4.4430000000000005","190.5","1013.903","20.48","63.23","688.8","0.0"],
    [1516446,"2026-04-20 09:20:00","62943","3.947","193.0","5.945","197.8","1013.896","19.8","68.96","690.7","0.0"],
    [1516447,"2026-04-20 09:30:00","62944","4.712","205.0","6.599","223.4","1013.98","19.29","72.76","707.7","0.0"],
    [1516448,"2026-04-20 09:40:00","62945","3.6060000000000003","212.9","5.847","214.2","1014.002","19.52","70.37","778.4","0.0"],
    [1516449,"2026-04-20 09:50:00","62946","3.1689999999999996","218.2","4.998","200.5","1013.909","19.75","69.07","843.0","0.0"],
    [1516450,"2026-04-20 10:00:00","62947","3.7910000000000004","203.4","5.815","200.8","1013.942","20.06","66.71","868.0","0.0"],
    [1516451,"2026-04-20 10:10:00","62948","4.314","202.4","6.1739999999999995","206.4","1013.905","19.87","66.01","752.8","0.0"],
    [1516452,"2026-04-20 10:20:00","62949","5.037","196.4","7.513","206.7","1013.796","19.87","67.02","867.0","0.0"],
    [1516453,"2026-04-20 10:30:00","62950","5.099","198.3","7.4479999999999995","192.8","1013.735","19.67","68.48","735.0","0.0"],
    [1516454,"2026-04-20 10:40:00","62951","5.267","201.0","7.938","206.2","1013.6","19.56","68.61","903.0","0.0"],
    [1516455,"2026-04-20 10:50:00","62952","5.746","201.2","8.36","202.9","1013.567","19.78","66.12","908.0","0.0"],
    [1516456,"2026-04-20 11:00:00","62953","5.784","203.4","7.971","195.1","1013.593","19.81","66.68","909.0","0.0"],
    [1516457,"2026-04-20 11:10:00","62954","5.792000000000001","199.4","8.56","201.5","1013.473","19.84","66.48","899.0","0.0"],
    [1516458,"2026-04-20 11:20:00","62955","6.195","196.0","8.66","205.9","1013.329","19.52","68.62","900.0","0.0"],
    [1516459,"2026-04-20 11:30:00","62956","6.005","204.0","9.54","206.2","1013.223","19.85","65.3","907.0","0.0"],
    [1516460,"2026-04-20 11:40:00","62957","5.282","199.5","7.546","188.6","1013.165","20.33","62.71","907.0","0.0"],
    [1516461,"2026-04-20 11:50:00","62958","4.649","204.1","7.154","198.8","1013.126","20.32","62.71","906.0","0.0"],
    [1516462,"2026-04-20 12:00:00","62959","5.58","207.2","8.43","210.0","1013.092","20.13","60.63","911.0","0.0"],
    [1516463,"2026-04-20 12:10:00","62960","6.318","200.5","8.79","201.7","1013.078","19.89","62.01","911.0","0.0"],
    [1516464,"2026-04-20 12:20:00","62961","5.9110000000000005","197.2","8.92","193.2","1013.059","19.76","65.39","911.0","0.0"],
    [1516465,"2026-04-20 12:30:00","62962","6.3839999999999995","192.3","8.46","189.7","1013.012","19.49","66.52","906.0","0.0"],
    [1516466,"2026-04-20 12:40:00","62963","6.329","193.2","9.02","189.4","1012.938","19.24","69.0","900.0","0.0"],
    [1516467,"2026-04-20 12:50:00","62964","6.193","193.3","8.26","188.1","1012.921","19.52","66.99","890.0","0.0"],
    [1516468,"2026-04-20 13:00:00","62965","5.841","195.3","8.79","190.6","1012.862","19.92","64.27","882.0","0.0"],
    [1516469,"2026-04-20 13:10:00","62966","5.856","200.6","8.72","190.5","1012.699","19.71","64.16","873.0","0.0"],
    [1516470,"2026-04-20 13:20:00","62967","5.9","191.1","7.579","189.1","1012.594","19.79","64.17","862.0","0.0"],
    [1516471,"2026-04-20 13:30:00","62968","6.087999999999999","193.1","8.1","198.2","1012.558","19.41","67.09","849.0","0.0"],
    [1516472,"2026-04-20 13:40:00","62969","5.306","194.1","6.957999999999999","201.4","1012.509","19.64","66.81","835.0","0.0"],
    [1516473,"2026-04-20 13:50:00","62970","5.702999999999999","193.1","7.872999999999999","198.6","1012.48","19.61","66.82","821.0","0.0"],
    [1516474,"2026-04-20 14:00:00","62971","5.401","193.9","8.04","193.4","1012.419","19.83","65.54","802.0","0.0"],
    [1516475,"2026-04-20 14:10:00","62972","4.945","201.7","7.382999999999999","201.3","1012.369","20.18","63.67","783.5","0.0"],
    [1516476,"2026-04-20 14:20:00","62973","5.221","209.1","8.3","206.1","1012.312","20.21","60.32","763.1","0.0"],
    [1516477,"2026-04-20 14:30:00","62974","5.263","210.4","8.07","193.1","1012.213","20.43","59.25","742.5","0.0"],
    [1516478,"2026-04-20 14:40:00","62975","5.127000000000001","213.1","9.08","185.4","1012.151","20.6","58.9","721.1","0.0"],
    [1516479,"2026-04-20 14:50:00","62976","3.911","213.2","6.7620000000000005","220.4","1012.045","20.9","57.86","697.4","0.0"],
    [1516480,"2026-04-20 15:00:00","62977","5.292999999999999","220.7","8.66","230.4","1011.955","20.53","56.1","686.4","0.0"],
    [1516481,"2026-04-20 15:10:00","62978","4.372","215.1","8.23","201.5","1011.949","20.53","56.35","327.5","0.0"],
    [1516482,"2026-04-20 15:20:00","62979","5.87","222.6","9.64","228.2","1011.861","20.04","55.77","194.0","0.0"],
    [1516483,"2026-04-20 15:30:00","62980","5.697","222.3","8.4","227.3","1011.712","19.56","58.63","159.3","0.0"],
    [1516484,"2026-04-20 15:40:00","62981","3.483","217.2","6.141","227.6","1011.657","19.59","61.36","196.1","0.0"],
    [1516485,"2026-04-20 15:50:00","62982","4.434","220.8","7.023","222.2","1011.671","19.46","61.94","414.7","0.0"],
    [1516486,"2026-04-20 16:00:00","62983","3.637","214.4","6.042999999999999","207.5","1011.817","19.49","62.17","244.5","0.0"],
    [1516487,"2026-04-20 16:10:00","62984","2.821","214.0","4.835","235.4","1011.985","19.35","62.11","117.0","0.0"],
    [1516488,"2026-04-20 16:20:00","62985","3.3480000000000003","184.3","5.1610000000000005","187.9","1012.203","18.87","64.68","113.2","0.0"],
    [1516489,"2026-04-20 16:30:00","62986","2.866","165.8","4.377","171.4","1012.331","18.54","68.51","465.0","0.0"],
    [1516490,"2026-04-20 16:40:00","62987","3.139","125.3","3.9530000000000003","126.1","1012.431","18.08","74.3","416.9","0.0"],
    [1516491,"2026-04-20 16:50:00","62988","3.3680000000000003","134.5","4.083","154.0","1012.359","17.76","79.67","349.6","0.0"],
    [1516492,"2026-04-20 17:00:00","62989","3.0589999999999997","133.8","4.051","134.9","1012.287","17.44","85.4","305.3","0.0"],
    [1516493,"2026-04-20 17:10:00","62990","2.9619999999999997","91.8","4.279","71.91","1012.586","17.44","86.5","246.9","0.0"],
    [1516494,"2026-04-20 17:20:00","62991","5.0","39.73","7.023","41.19","1013.153","17.53","87.6","131.0","0.0"],
    [1516495,"2026-04-20 17:30:00","62992","3.543","54.16","5.912999999999999","43.74","1013.059","17.31","93.6","100.4","0.0"],
    [1516496,"2026-04-20 17:40:00","62993","3.8710000000000004","75.37","4.802","76.25","1012.863","17.08","97.3","96.5","0.0"],
    [1516497,"2026-04-20 17:50:00","62994","2.9819999999999998","50.12","5.1610000000000005","55.96","1012.928","17.02","99.5","87.6","0.0"],
    [1516498,"2026-04-20 18:00:00","62995","2.9219999999999997","96.0","4.018","101.1","1012.666","16.91","100.0","62.46","0.0"],
    [1516499,"2026-04-20 18:10:00","62996","2.5540000000000003","71.65","3.887","57.95","1012.796","16.96","99.9","45.53","0.0"],
    [1516500,"2026-04-20 18:20:00","62997","2.682","83.8","3.495","86.8","1012.864","16.99","99.5","26.81","0.0"],
    [1516501,"2026-04-20 18:30:00","62998","2.066","111.8","2.842","98.4","1012.793","16.99","99.5","12.3","0.0"],
    [1516502,"2026-04-20 18:40:00","62999","1.446","132.0","2.515","117.5","1012.764","16.95","99.7","2.698","0.0"],
    [1516503,"2026-04-20 18:50:00","63000","1.63","126.5","2.613","120.5","1012.689","16.92","99.9","0.0","0.0"],
    [1516504,"2026-04-20 19:00:00","63001","2.627","146.6","3.201","148.3","1012.627","16.9","100.0","0.0","0.0"],
    [1516505,"2026-04-20 19:10:00","63002","3.2319999999999998","171.4","4.4430000000000005","173.1","1012.532","16.93","100.0","0.0","0.0"],
    [1516506,"2026-04-20 19:20:00","63003","2.329","200.3","3.495","184.8","1012.521","16.95","100.0","0.0","0.0"],
    [1516507,"2026-04-20 19:30:00","63004","2.4619999999999997","199.5","3.332","198.5","1012.6","17.01","100.0","0.0","0.0"],
    [1516508,"2026-04-20 19:40:00","63005","2.481","208.5","3.593","215.5","1012.716","16.99","99.9","0.0","0.0"],
    [1516509,"2026-04-20 19:50:00","63006","2.773","205.6","3.887","192.7","1012.729","17.33","94.6","0.0","0.0"],
    [1516510,"2026-04-20 20:00:00","63007","2.551","206.6","4.2139999999999995","194.4","1012.733","17.75","87.5","0.0","0.0"],
    [1516511,"2026-04-20 20:10:00","63008","0.996","246.3","2.254","253.5","1012.891","17.88","84.7","0.0","0.0"],
    [1516512,"2026-04-20 20:20:00","63009","1.0590000000000002","265.7","2.319","280.1","1012.996","17.86","84.2","0.0","0.0"],
    [1516513,"2026-04-20 20:30:00","63010","2.347","302.7","3.071","308.0","1013.099","17.75","84.2","0.0","0.0"],
    [1516514,"2026-04-20 20:40:00","63011","1.919","280.3","2.875","259.7","1013.143","17.75","83.4","0.0","0.0"],
    [1516515,"2026-04-20 20:50:00","63012","1.226","256.0","2.0580000000000003","265.9","1013.131","17.87","82.0","0.0","0.0"],
    [1516516,"2026-04-20 21:00:00","63013","1.506","266.7","2.515","274.2","1013.073","17.81","81.3","0.0","0.0"],
    [1516517,"2026-04-20 21:10:00","63014","2.065","269.5","3.7569999999999997","260.1","1013.143","17.83","80.2","0.0","0.0"],
    [1516518,"2026-04-20 21:20:00","63015","1.9040000000000001","277.9","3.365","269.4","1013.105","17.79","80.9","0.0","0.0"],
    [1516519,"2026-04-20 21:30:00","63016","1.7080000000000002","281.4","2.842","289.5","1012.991","17.74","81.1","0.0","0.0"],
    [1516520,"2026-04-20 21:40:00","63017","1.288","268.7","3.985","261.0","1012.948","17.72","80.9","0.0","0.0"],
    [1516521,"2026-04-20 21:50:00","63018","1.7990000000000002","258.1","3.887","248.0","1012.798","17.74","80.7","0.0","0.0"],
    [1516522,"2026-04-20 22:00:00","63019","2.075","252.4","4.018","246.7","1012.811","17.61","81.3","0.0","0.0"],
    [1516523,"2026-04-20 22:10:00","63020","1.7819999999999998","248.7","3.7569999999999997","261.9","1012.853","17.52","81.7","0.0","0.0"],
    [1516524,"2026-04-20 22:20:00","63021","1.578","249.4","3.1689999999999996","257.2","1012.801","17.39","82.0","0.0","0.0"],
    [1516525,"2026-04-20 22:30:00","63022","1.3980000000000001","245.6","3.0380000000000003","260.5","1012.7","17.33","82.5","0.0","0.0"],
    [1516526,"2026-04-20 22:40:00","63023","1.399","238.5","2.483","260.6","1012.58","17.31","82.6","0.0","0.0"],
    [1516527,"2026-04-20 22:50:00","63024","1.91","235.9","3.299","247.7","1012.481","17.29","82.1","0.0","0.0"],
    [1516528,"2026-04-20 23:00:00","63025","2.478","232.1","4.018","225.6","1012.395","17.33","81.9","0.0","0.0"],
    [1516529,"2026-04-20 23:10:00","63026","2.562","236.1","4.247","221.3","1012.404","17.42","80.8","0.0","0.0"],
    [1516530,"2026-04-20 23:20:00","63027","2.676","240.2","3.887","257.2","1012.483","17.46","79.25","0.0","0.0"],
    [1516531,"2026-04-20 23:30:00","63028","2.522","245.8","3.822","253.3","1012.475","17.34","79.02","0.0","0.0"],
    [1516532,"2026-04-20 23:40:00","63029","1.9580000000000002","248.5","3.332","253.4","1012.422","17.21","78.92","0.0","0.0"],
    [1516533,"2026-04-20 23:50:00","63030","1.287","256.7","2.287","270.1","1012.493","17.09","79.13","0.0","0.0"],
    [1516534,"2026-04-21 00:00:00","63031","1.785","261.1","2.9730000000000003","256.7","1012.475","17.0","79.35","0.0","0.0"],
    [1516535,"2026-04-21 00:10:00","63032","1.865","255.6","2.842","253.1","1012.368","16.92","79.23","0.0","0.0"],
    [1516536,"2026-04-21 00:20:00","63033","1.9040000000000001","247.9","2.875","246.3","1012.264","17.12","77.6","0.0","0.0"],
    [1516537,"2026-04-21 00:30:00","63034","1.716","248.5","3.103","238.7","1012.184","17.44","74.1","0.0","0.0"],
    [1516538,"2026-04-21 00:40:00","63035","1.604","240.6","2.515","232.6","1012.087","17.42","73.27","0.0","0.0"],
    [1516539,"2026-04-21 00:50:00","63036","1.726","249.6","2.875","245.0","1012.036","17.44","73.3","0.0","0.0"],
    [1516540,"2026-04-21 01:00:00","63037","1.453","247.9","2.287","263.8","1011.982","17.02","76.03","0.0","0.0"],
    [1516541,"2026-04-21 01:10:00","63038","1.454","257.1","2.679","264.1","1011.873","16.57","78.3","0.0","0.0"],
    [1516542,"2026-04-21 01:20:00","63039","1.7730000000000001","247.3","2.6460000000000004","262.8","1011.805","16.61","78.96","0.0","0.0"],
    [1516543,"2026-04-21 01:30:00","63040","1.364","250.7","2.385","252.7","1011.687","16.72","77.96","0.0","0.0"],
    [1516544,"2026-04-21 01:40:00","63041","1.167","244.6","2.417","255.8","1011.557","16.68","78.28","0.0","0.0"],
    [1516545,"2026-04-21 01:50:00","63042","1.694","244.7","2.5810000000000004","241.3","1011.488","17.06","76.38","0.0","0.0"],
    [1516546,"2026-04-21 02:00:00","63043","1.722","242.2","3.005","251.3","1011.46","17.27","75.06","0.0","0.0"],
    [1516547,"2026-04-21 02:10:00","63044","2.119","245.6","3.234","221.2","1011.39","17.36","74.72","0.0","0.0"],
    [1516548,"2026-04-21 02:20:00","63045","1.479","245.4","2.515","261.4","1011.207","17.19","75.22","0.0","0.0"],
    [1516549,"2026-04-21 02:30:00","63046","1.6769999999999998","244.8","2.7110000000000003","237.5","1011.119","17.08","75.81","0.0","0.0"],
    [1516550,"2026-04-21 02:40:00","63047","1.2830000000000001","245.8","2.548","251.5","1011.114","16.96","75.87","0.0","0.0"],
    [1516551,"2026-04-21 02:50:00","63048","1.673","245.0","2.8089999999999997","243.3","1011.048","16.91","76.09","0.0","0.0"],
    [1516552,"2026-04-21 03:00:00","63049","2.079","250.0","2.875","254.1","1010.97","17.15","74.35","0.0","0.0"],
    [1516553,"2026-04-21 03:10:00","63050","1.77","254.0","2.7439999999999998","248.0","1010.969","16.96","74.03","0.0","0.0"],
    [1516554,"2026-04-21 03:20:00","63051","1.735","254.2","2.7110000000000003","257.3","1010.918","16.69","75.37","0.0","0.0"],
    [1516555,"2026-04-21 03:30:00","63052","1.6740000000000002","257.8","2.842","238.7","1010.902","16.75","75.47","0.0","0.0"],
    [1516556,"2026-04-21 03:40:00","63053","1.655","254.6","2.94","253.2","1010.909","16.59","75.69","0.0","0.0"],
    [1516557,"2026-04-21 03:50:00","63054","1.588","252.7","2.7439999999999998","264.7","1010.851","16.59","75.72","0.0","0.0"],
    [1516558,"2026-04-21 04:00:00","63055","2.184","255.4","3.5610000000000004","254.7","1010.824","16.8","74.63","0.0","0.0"],
    [1516559,"2026-04-21 04:10:00","63056","2.497","255.5","3.463","256.2","1010.825","16.84","73.67","0.0","0.0"],
    [1516560,"2026-04-21 04:20:00","63057","2.6689999999999996","253.4","4.2139999999999995","258.1","1010.851","16.6","75.02","0.0","0.0"],
    [1516561,"2026-04-21 04:30:00","63058","3.123","251.3","4.41","259.5","1010.85","16.43","75.99","0.0","0.0"],
    [1516562,"2026-04-21 04:40:00","63059","2.7230000000000003","246.8","3.985","257.6","1010.903","16.12","77.16","0.0","0.0"],
    [1516563,"2026-04-21 04:50:00","63060","2.62","244.4","3.985","255.6","1010.907","15.95","78.24","0.0","0.0"],
    [1516564,"2026-04-21 05:00:00","63061","3.043","244.6","4.835","262.9","1010.922","15.73","78.84","0.21100000000000002","0.0"],
    [1516565,"2026-04-21 05:10:00","63062","2.997","244.5","4.312","251.1","1010.965","15.63","79.41","3.449","0.0"],
    [1516566,"2026-04-21 05:20:00","63063","2.532","246.9","3.6910000000000003","255.1","1011.087","15.9","78.32","9.62","0.0"],
    [1516567,"2026-04-21 05:30:00","63064","2.001","249.6","3.9530000000000003","264.9","1011.136","16.26","75.57","21.07","0.0"],
    [1516568,"2026-04-21 05:40:00","63065","1.7619999999999998","254.4","3.9530000000000003","268.5","1011.238","16.2","74.67","31.6","0.0"],
    [1516569,"2026-04-21 05:50:00","63066","1.74","247.1","2.9730000000000003","255.5","1011.339","15.87","76.74","59.39","0.0"],
    [1516570,"2026-04-21 06:00:00","63067","1.558","250.4","2.6460000000000004","258.4","1011.389","15.88","77.34","85.8","0.0"],
    [1516571,"2026-04-21 06:10:00","63068","0.5429999999999999","259.2","1.699","247.2","1011.479","16.28","76.99","111.6","0.0"],
    [1516572,"2026-04-21 06:20:00","63069","1.026","306.8","1.9269999999999998","279.1","1011.555","16.19","75.83","157.9","0.0"],
    [1516573,"2026-04-21 06:30:00","63070","0.303","316.3","1.176","335.7","1011.624","16.36","75.48","190.1","0.0"],
    [1516574,"2026-04-21 06:40:00","63071","1.395","41.93","2.515","47.84","1011.706","16.9","74.63","192.0","0.0"],
    [1516575,"2026-04-21 06:50:00","63072","1.883","45.87","3.332","43.98","1011.751","16.8","75.95","254.8","0.0"],
    [1516576,"2026-04-21 07:00:00","63073","1.368","42.25","2.189","52.44","1011.824","17.1","75.55","291.3","0.0"],
    [1516577,"2026-04-21 07:10:00","63074","1.183","40.17","2.025","37.63","1011.904","17.48","73.32","313.9","0.0"],
    [1516578,"2026-04-21 07:20:00","63075","2.045","43.2","2.417","46.91","1011.988","17.25","72.93","352.7","0.0"],
    [1516579,"2026-04-21 07:30:00","63076","1.143","29.55","1.8619999999999999","40.88","1011.982","17.51","74.2","392.7","0.0"],
    [1516580,"2026-04-21 07:40:00","63077","1.17","30.48","2.287","28.94","1011.967","18.34","72.23","421.3","0.0"],
    [1516581,"2026-04-21 07:50:00","63078","3.552","31.6","4.41","33.8","1011.963","17.64","73.33","471.8","0.0"],
    [1516582,"2026-04-21 08:00:00","63079","3.123","36.54","4.051","34.98","1012.018","17.42","74.93","506.0","0.0"],
    [1516583,"2026-04-21 08:10:00","63080","2.713","41.78","3.528","44.13","1012.059","17.45","74.32","534.8","0.0"],
    [1516584,"2026-04-21 08:20:00","63081","2.595","64.1","3.495","75.52","1012.046","17.64","72.09","568.7","0.0"],
    [1516585,"2026-04-21 08:30:00","63082","1.669","73.19","2.679","51.51","1012.104","17.96","70.25","565.0","0.0"],
    [1516586,"2026-04-21 08:40:00","63083","1.636","67.04","3.495","69.6","1012.143","18.04","70.34","557.5","0.0"],
    [1516587,"2026-04-21 08:50:00","63084","2.472","56.27","3.7239999999999998","53.14","1012.181","17.91","70.44","631.3","0.0"],
    [1516588,"2026-04-21 09:00:00","63085","2.592","51.51","3.855","44.88","1012.239","17.77","71.45","675.5","0.0"],
    [1516589,"2026-04-21 09:10:00","63086","2.926","51.32","4.051","68.69","1012.252","17.47","74.24","707.6","0.0"],
    [1516590,"2026-04-21 09:20:00","63087","2.665","52.81","3.822","46.11","1012.305","17.33","77.16","741.1","0.0"],
    [1516591,"2026-04-21 09:30:00","63088","2.117","59.15","3.6260000000000003","52.46","1012.357","17.38","78.64","780.6","0.0"],
    [1516592,"2026-04-21 09:40:00","63089","2.023","96.0","3.397","103.7","1012.304","17.36","80.7","788.0","0.0"],
    [1516593,"2026-04-21 09:50:00","63090","1.993","96.8","2.8089999999999997","116.0","1012.293","17.13","83.4","794.5","0.0"],
    [1516594,"2026-04-21 10:00:00","63091","1.756","101.7","2.548","101.5","1012.286","17.08","85.3","797.9","0.0"],
    [1516595,"2026-04-21 10:10:00","63092","1.425","101.7","1.96","84.4","1012.247","17.15","86.1","823.0","0.0"],
    [1516596,"2026-04-21 10:20:00","63093","1.173","125.4","1.666","139.7","1012.196","17.51","85.7","824.0","0.0"],
    [1516597,"2026-04-21 10:30:00","63094","1.4340000000000002","142.5","2.156","141.1","1012.094","17.56","85.3","834.0","0.0"],
    [1516598,"2026-04-21 10:40:00","63095","1.621","112.5","1.993","95.9","1012.009","17.51","85.6","859.0","0.0"],
    [1516599,"2026-04-21 10:50:00","63096","1.625","97.1","2.254","107.9","1011.94","17.54","84.9","881.0","0.0"],
    [1516600,"2026-04-21 11:00:00","63097","1.57","92.8","2.254","92.3","1011.865","17.74","82.8","894.0","0.0"],
    [1516601,"2026-04-21 11:10:00","63098","1.6340000000000001","84.5","2.123","86.2","1011.852","17.83","82.7","895.0","0.0"],
    [1516602,"2026-04-21 11:20:00","63099","1.9409999999999998","81.7","2.9730000000000003","92.4","1011.798","17.71","83.0","886.0","0.0"],
    [1516603,"2026-04-21 11:30:00","63100","2.5540000000000003","85.1","3.201","90.5","1011.756","17.54","85.2","918.0","0.0"],
    [1516604,"2026-04-21 11:40:00","63101","2.351","87.8","2.842","94.3","1011.681","17.44","86.6","883.0","0.0"],
    [1516605,"2026-04-21 11:50:00","63102","2.204","102.3","3.201","102.4","1011.602","17.54","87.3","917.0","0.0"],
    [1516606,"2026-04-21 12:00:00","63103","2.028","94.7","2.842","114.8","1011.564","17.67","86.4","869.0","0.0"],
    [1516607,"2026-04-21 12:10:00","63104","1.881","89.0","2.842","85.1","1011.43","17.72","84.8","871.0","0.0"],
    [1516608,"2026-04-21 12:20:00","63105","1.8359999999999999","84.9","2.613","81.7","1011.34","17.88","83.7","816.0","0.0"],
    [1516609,"2026-04-21 12:30:00","63106","1.6480000000000001","78.11","2.7439999999999998","78.55","1011.3","17.98","84.1","796.0","0.0"],
    [1516610,"2026-04-21 12:40:00","63107","2.115","90.0","3.103","89.1","1011.275","17.95","84.4","864.0","0.0"],
    [1516611,"2026-04-21 12:50:00","63108","2.049","112.2","2.8089999999999997","104.1","1011.249","18.04","85.3","902.0","0.0"],
    [1516612,"2026-04-21 13:00:00","63109","2.437","146.6","3.267","148.2","1011.231","18.12","85.9","894.0","0.0"],
    [1516613,"2026-04-21 13:10:00","63110","2.873","145.0","3.43","145.8","1011.169","18.01","87.4","886.0","0.0"],
    [1516614,"2026-04-21 13:20:00","63111","2.557","127.8","3.43","115.1","1011.04","18.0","89.4","873.0","0.0"],
    [1516615,"2026-04-21 13:30:00","63112","2.661","129.6","3.397","130.7","1010.987","18.02","91.1","861.0","0.0"],
    [1516616,"2026-04-21 13:40:00","63113","2.65","140.0","3.43","143.8","1011.002","17.91","92.9","839.0","0.0"],
    [1516617,"2026-04-21 13:50:00","63114","2.4090000000000003","142.6","3.0380000000000003","129.4","1010.963","17.91","94.5","829.0","0.0"],
    [1516618,"2026-04-21 14:00:00","63115","2.292","138.1","2.94","134.2","1010.946","17.86","95.2","806.0","0.0"],
    [1516619,"2026-04-21 14:10:00","63116","1.97","137.4","2.94","137.9","1010.932","18.04","95.2","790.4","0.0"],
    [1516620,"2026-04-21 14:20:00","63117","2.253","142.6","3.071","143.4","1010.883","18.06","95.2","756.6","0.0"],
    [1516621,"2026-04-21 14:30:00","63118","2.46","152.4","3.234","151.3","1010.796","18.08","95.5","732.2","0.0"],
    [1516622,"2026-04-21 14:40:00","63119","2.824","167.2","3.1689999999999996","163.9","1010.697","18.12","95.5","723.9","0.0"],
    [1516623,"2026-04-21 14:50:00","63120","2.839","168.6","3.201","168.9","1010.654","18.16","96.2","708.4","0.0"],
    [1516624,"2026-04-21 15:00:00","63121","2.875","161.9","3.593","160.6","1010.528","18.13","97.3","667.1","0.0"],
    [1516625,"2026-04-21 15:10:00","63122","3.255","164.6","4.2139999999999995","168.6","1010.353","18.07","98.1","649.8","0.0"],
    [1516626,"2026-04-21 15:20:00","63123","3.085","158.8","3.822","149.7","1010.279","18.12","98.6","627.3","0.0"],
    [1516627,"2026-04-21 15:30:00","63124","3.372","169.8","3.9530000000000003","181.0","1010.175","18.03","99.3","596.8","0.0"],
    [1516628,"2026-04-21 15:40:00","63125","3.6830000000000003","177.3","3.9530000000000003","181.3","1010.214","18.02","99.9","580.5","0.0"],
    [1516629,"2026-04-21 15:50:00","63126","3.6889999999999996","169.6","4.083","165.0","1010.243","17.92","100.0","529.9","0.0"],
    [1516630,"2026-04-21 16:00:00","63127","3.54","163.6","3.887","165.8","1010.268","17.86","100.0","443.6","0.0"],
    [1516631,"2026-04-21 16:10:00","63128","3.825","166.4","4.802","168.4","1010.258","17.82","99.8","419.8","0.0"],
    [1516632,"2026-04-21 16:20:00","63129","4.136","173.0","4.9","172.4","1010.22","17.89","92.8","338.6","0.0"],
    [1516633,"2026-04-21 16:30:00","63130","4.711","175.4","5.815","181.3","1010.22","18.3","90.1","341.6","0.0"],
    [1516634,"2026-04-21 16:40:00","63131","4.822","180.7","5.749","180.8","1010.225","18.36","92.1","340.4","0.0"],
    [1516635,"2026-04-21 16:50:00","63132","4.303999999999999","182.3","5.553","182.4","1010.145","18.35","91.1","355.4","0.0"],
    [1516636,"2026-04-21 17:00:00","63133","3.92","178.7","4.541","174.4","1010.157","18.46","89.4","304.0","0.0"],
    [1516637,"2026-04-21 17:10:00","63134","4.063","173.7","4.9","179.4","1010.133","18.21","91.4","271.9","0.0"],
    [1516638,"2026-04-21 17:20:00","63135","3.8810000000000002","172.0","4.606","178.3","1010.125","18.06","92.8","222.7","0.0"],
    [1516639,"2026-04-21 17:30:00","63136","3.076","174.6","4.247","173.7","1010.356","18.06","92.3","174.7","0.0"],
    [1516640,"2026-04-21 17:40:00","63137","1.9880000000000002","204.7","3.43","221.3","1010.512","18.62","81.6","119.7","0.0"],
    [1516641,"2026-04-21 17:50:00","63138","2.866","190.8","3.7239999999999998","203.9","1010.514","19.23","72.51","59.98","0.0"],
    [1516642,"2026-04-21 18:00:00","63139","3.236","190.6","4.051","189.9","1010.568","19.18","72.31","49.69","0.0"],
    [1516643,"2026-04-21 18:10:00","63140","3.267","192.4","4.508","194.4","1010.594","19.05","72.78","22.83","0.0"],
    [1516644,"2026-04-21 18:20:00","63141","2.611","185.1","3.6260000000000003","181.6","1010.738","18.94","75.38","14.0","0.0"],
    [1516645,"2026-04-21 18:30:00","63142","3.0389999999999997","183.2","4.2139999999999995","195.6","1010.789","18.67","78.74","7.39","0.0"],
    [1516646,"2026-04-21 18:40:00","63143","2.9939999999999998","182.6","3.985","195.0","1010.853","18.03","87.0","1.556","0.0"],
    [1516647,"2026-04-21 18:50:00","63144","3.056","186.1","4.181","189.9","1010.81","18.02","88.1","0.0","0.0"],
    [1516648,"2026-04-21 19:00:00","63145","2.908","186.6","3.7239999999999998","182.4","1010.795","17.93","91.6","0.0","0.0"],
    [1516649,"2026-04-21 19:10:00","63146","2.758","202.6","3.887","214.4","1010.903","17.87","93.6","0.0","0.0"],
    [1516650,"2026-04-21 19:20:00","63147","2.024","206.9","3.7889999999999997","191.0","1011.011","18.13","91.5","0.0","0.0"],
    [1516651,"2026-04-21 19:30:00","63148","2.055","204.4","3.332","204.0","1011.05","18.25","90.3","0.0","0.0"],
    [1516652,"2026-04-21 19:40:00","63149","2.064","204.7","3.397","186.0","1011.009","18.19","90.4","0.0","0.0"],
    [1516653,"2026-04-21 19:50:00","63150","2.273","203.9","3.593","201.7","1011.072","18.19","91.0","0.0","0.0"],
    [1516654,"2026-04-21 20:00:00","63151","3.304","200.4","4.4430000000000005","201.0","1011.014","18.15","91.5","0.0","0.0"],
    [1516655,"2026-04-21 20:10:00","63152","2.6289999999999996","201.3","3.887","213.6","1011.064","18.07","92.5","0.0","0.0"],
    [1516656,"2026-04-21 20:20:00","63153","1.633","213.2","2.5810000000000004","212.1","1011.195","18.13","92.9","0.0","0.0"],
    [1516657,"2026-04-21 20:30:00","63154","1.919","220.7","3.267","227.0","1011.161","18.16","93.3","0.0","0.0"],
    [1516658,"2026-04-21 20:40:00","63155","2.229","225.4","5.2589999999999995","217.3","1011.062","18.21","93.9","0.0","0.0"],
    [1516659,"2026-04-21 20:50:00","63156","2.245","248.6","4.181","263.2","1011.127","18.16","94.1","0.0","0.0"],
    [1516660,"2026-04-21 21:00:00","63157","1.893","241.1","3.299","250.0","1011.147","18.13","94.3","0.0","0.0"],
    [1516661,"2026-04-21 21:10:00","63158","2.235","236.0","3.5610000000000004","215.7","1011.138","18.16","94.3","0.0","0.0"],
    [1516662,"2026-04-21 21:20:00","63159","2.137","234.0","3.43","214.0","1011.163","18.19","94.4","0.0","0.0"],
    [1516663,"2026-04-21 21:30:00","63160","2.0709999999999997","241.5","3.887","228.0","1011.16","18.12","94.3","0.0","0.0"],
    [1516664,"2026-04-21 21:40:00","63161","2.231","240.4","3.267","235.5","1011.084","18.08","94.7","0.0","0.0"],
    [1516665,"2026-04-21 21:50:00","63162","1.99","229.5","3.332","232.7","1011.13","18.03","94.8","0.0","0.0"],
    [1516666,"2026-04-21 22:00:00","63163","1.839","241.4","3.365","266.4","1011.189","17.98","94.6","0.0","0.0"],
    [1516667,"2026-04-21 22:10:00","63164","2.084","224.1","3.659","213.2","1011.199","17.86","94.2","0.0","0.0"],
    [1516668,"2026-04-21 22:20:00","63165","1.7169999999999999","229.1","3.103","210.9","1011.271","17.74","92.5","0.0","0.0"],
    [1516669,"2026-04-21 22:30:00","63166","1.588","231.3","2.7439999999999998","254.2","1011.401","17.73","90.1","0.0","0.0"],
    [1516670,"2026-04-21 22:40:00","63167","1.607","238.1","2.6460000000000004","244.7","1011.478","17.78","88.2","0.0","0.0"],
    [1516671,"2026-04-21 22:50:00","63168","2.0709999999999997","243.6","3.136","228.1","1011.461","17.79","86.8","0.0","0.0"],
    [1516672,"2026-04-21 23:00:00","63169","1.774","241.2","2.875","255.0","1011.423","17.76","85.8","0.0","0.0"],
    [1516673,"2026-04-21 23:10:00","63170","1.98","238.5","3.6910000000000003","274.1","1011.396","17.77","84.2","0.0","0.0"],
    [1516674,"2026-04-21 23:20:00","63171","2.1109999999999998","226.1","3.6260000000000003","224.7","1011.321","17.8","82.7","0.0","0.0"],
    [1516675,"2026-04-21 23:30:00","63172","1.798","233.0","3.1689999999999996","216.4","1011.295","17.73","82.0","0.0","0.0"],
    [1516676,"2026-04-21 23:40:00","63173","1.754","241.6","3.0380000000000003","260.7","1011.324","17.58","81.4","0.0","0.0"],
    [1516677,"2026-04-21 23:50:00","63174","2.181","234.7","3.887","227.4","1011.397","17.5","82.1","0.0","0.0"],
    [1516678,"2026-04-22 00:00:00","63175","2.062","225.8","3.5610000000000004","219.6","1011.491","17.49","82.4","0.0","0.0"],
    [1516679,"2026-04-22 00:10:00","63176","1.986","231.3","3.528","245.6","1011.551","17.52","82.5","0.0","0.0"],
    [1516680,"2026-04-22 00:20:00","63177","2.702","229.2","5.227","201.6","1011.645","17.6","85.1","0.0","0.0"],
    [1516681,"2026-04-22 00:30:00","63178","2.215","237.3","3.7239999999999998","214.9","1011.569","17.12","85.0","0.0","0.0"],
    [1516682,"2026-04-22 00:40:00","63179","1.6130000000000002","248.5","2.679","259.6","1011.512","16.95","79.78","0.0","0.0"],
    [1516683,"2026-04-22 00:50:00","63180","1.699","259.7","2.483","251.8","1011.519","16.7","73.69","0.0","0.0"],
    [1516684,"2026-04-22 01:00:00","63181","1.304","265.1","2.483","269.0","1011.364","16.53","69.8","0.0","0.0"],
    [1516685,"2026-04-22 01:10:00","63182","0.425","245.5","1.405","257.1","1010.995","16.55","66.95","0.0","0.0"],
    [1516686,"2026-04-22 01:20:00","63183","0.927","270.0","1.535","270.6","1010.826","16.87","61.95","0.0","0.0"],
    [1516687,"2026-04-22 01:30:00","63184","0.396","188.9","1.045","195.1","1010.766","17.23","63.04","0.0","0.0"],
    [1516688,"2026-04-22 01:40:00","63185","1.4080000000000001","176.9","2.385","184.4","1010.542","16.91","72.21","0.0","0.0"],
    [1516689,"2026-04-22 01:50:00","63186","1.787","194.8","2.515","192.6","1010.51","16.59","74.81","0.0","0.0"],
    [1516690,"2026-04-22 02:00:00","63187","0.53","274.8","1.666","271.3","1010.559","16.44","71.08","0.0","0.0"],
    [1516691,"2026-04-22 02:10:00","63188","0.11900000000000001","241.9","1.143","263.7","1010.523","16.62","65.26","0.0","0.0"],
    [1516692,"2026-04-22 02:20:00","63189","0.0","0.0","0.0","0.0","1010.451","16.45","65.51","0.0","0.0"],
    [1516693,"2026-04-22 02:30:00","63190","0.2","265.7","1.013","247.0","1010.399","16.35","66.54","0.0","0.0"],
    [1516694,"2026-04-22 02:40:00","63191","1.305","279.4","2.123","277.8","1010.383","16.2","66.2","0.0","0.0"],
    [1516695,"2026-04-22 02:50:00","63192","1.464","268.1","2.221","263.8","1010.406","15.96","66.33","0.0","0.0"],
    [1516696,"2026-04-22 03:00:00","63193","1.083","264.0","2.287","264.2","1010.308","15.93","65.7","0.0","0.0"],
    [1516697,"2026-04-22 03:10:00","63194","1.754","256.8","3.299","258.4","1010.294","15.81","66.89","0.0","0.0"],
    [1516698,"2026-04-22 03:20:00","63195","1.754","249.1","2.8089999999999997","260.6","1010.263","15.76","67.7","0.0","0.0"],
    [1516699,"2026-04-22 03:30:00","63196","1.814","254.1","3.495","266.4","1010.265","15.76","66.96","0.0","0.0"],
    [1516700,"2026-04-22 03:40:00","63197","1.864","258.2","3.103","243.0","1010.171","15.64","67.05","0.0","0.0"],
    [1516701,"2026-04-22 03:50:00","63198","1.117","243.1","2.123","237.8","1010.128","15.72","67.64","0.0","0.0"],
    [1516702,"2026-04-22 04:00:00","63199","2.053","243.5","3.5610000000000004","237.1","1010.223","15.95","68.34","0.0","0.0"],
    [1516703,"2026-04-22 04:10:00","63200","2.142","252.3","3.6910000000000003","244.1","1010.39","15.7","69.22","0.0","0.0"],
    [1516704,"2026-04-22 04:20:00","63201","2.258","253.4","3.7889999999999997","260.8","1010.513","15.47","70.92","0.0","0.0"],
    [1516705,"2026-04-22 04:30:00","63202","2.4530000000000003","246.7","4.018","263.5","1010.536","15.71","73.74","0.0","0.0"],
    [1516706,"2026-04-22 04:40:00","63203","2.1","255.3","4.1160000000000005","265.6","1010.581","15.47","74.19","0.0","0.0"],
    [1516707,"2026-04-22 04:50:00","63204","1.858","256.1","3.201","259.2","1010.601","15.42","76.64","0.0","0.0"],
    [1516708,"2026-04-22 05:00:00","63205","2.151","250.6","3.985","221.0","1010.717","15.66","81.9","0.05","0.0"],
    [1516709,"2026-04-22 05:10:00","63206","2.244","246.1","3.985","258.4","1010.75","15.81","85.3","2.673","0.0"],
    [1516710,"2026-04-22 05:20:00","63207","2.076","261.1","3.365","267.2","1010.897","15.56","87.8","10.97","0.0"],
    [1516711,"2026-04-22 05:30:00","63208","1.676","263.0","3.0380000000000003","263.0","1011.013","15.29","86.8","23.6","0.0"],
    [1516712,"2026-04-22 05:40:00","63209","1.4569999999999999","250.5","2.5810000000000004","216.7","1011.26","15.3","84.5","44.17","0.0"],
    [1516713,"2026-04-22 05:50:00","63210","1.59","265.3","3.1689999999999996","256.9","1011.504","15.47","81.0","67.07","0.0"],
    [1516714,"2026-04-22 06:00:00","63211","1.415","273.8","2.483","266.0","1011.615","15.68","77.77","104.8","0.0"],
    [1516715,"2026-04-22 06:10:00","63212","1.527","259.1","2.7769999999999997","247.3","1011.603","16.0","75.98","122.1","0.0"],
    [1516716,"2026-04-22 06:20:00","63213","1.055","254.8","2.156","268.1","1011.601","16.25","75.01","131.2","0.0"],
    [1516717,"2026-04-22 06:30:00","63214","0.925","254.7","1.797","247.7","1011.77","16.42","74.41","125.6","0.0"],
    [1516718,"2026-04-22 06:40:00","63215","0.843","254.5","1.797","257.4","1011.915","16.74","73.72","216.8","0.0"],
    [1516719,"2026-04-22 06:50:00","63216","1.037","245.4","2.254","233.1","1012.135","17.02","71.95","233.2","0.0"],
    [1516720,"2026-04-22 07:00:00","63217","0.619","201.1","1.5030000000000001","224.3","1012.141","17.34","69.06","191.3","0.0"],
    [1516721,"2026-04-22 07:10:00","63218","0.33","287.0","1.176","260.8","1012.295","17.44","69.86","225.3","0.0"],
    [1516722,"2026-04-22 07:20:00","63219","0.11599999999999999","182.4","1.143","205.8","1012.434","17.46","67.04","224.6","0.0"],
    [1516723,"2026-04-22 07:30:00","63220","0.0","0.0","0.0","0.0","1012.449","18.25","65.57","354.5","0.0"],
    [1516724,"2026-04-22 07:40:00","63221","0.08800000000000001","164.2","0.915","132.7","1012.67","18.21","65.46","363.3","0.0"],
    [1516725,"2026-04-22 07:50:00","63222","0.0","0.0","0.0","0.0","1012.764","17.81","63.83","287.2","0.0"],
    [1516726,"2026-04-22 08:00:00","63223","0.0","0.0","0.0","0.0","1012.821","17.8","61.66","415.9","0.0"],
    [1516727,"2026-04-22 08:10:00","63224","0.0","0.0","0.0","0.0","1012.836","18.46","58.09","490.8","0.0"],
    [1516728,"2026-04-22 08:20:00","63225","0.6659999999999999","151.3","1.568","159.5","1012.815","18.19","65.73","550.4","0.0"],
    [1516729,"2026-04-22 08:30:00","63226","1.2570000000000001","153.6","1.633","158.8","1012.948","17.97","67.97","561.9","0.0"],
    [1516730,"2026-04-22 08:40:00","63227","1.209","146.1","1.633","147.7","1013.102","18.06","67.59","583.7","0.0"],
    [1516731,"2026-04-22 08:50:00","63228","0.7390000000000001","75.75","1.274","39.92","1013.089","18.31","67.91","633.8","0.0"],
    [1516732,"2026-04-22 09:00:00","63229","1.038","69.26","1.9269999999999998","91.3","1013.084","18.36","67.15","669.0","0.0"],
    [1516733,"2026-04-22 09:10:00","63230","1.401","108.5","2.0580000000000003","92.8","1013.187","18.09","68.88","695.5","0.0"],
    [1516734,"2026-04-22 09:20:00","63231","1.485","137.1","1.96","138.6","1013.26","18.09","70.78","749.6","0.0"],
    [1516735,"2026-04-22 09:30:00","63232","2.146","144.7","3.0380000000000003","157.6","1013.269","18.11","72.22","811.0","0.0"],
    [1516736,"2026-04-22 09:40:00","63233","3.075","159.0","3.92","154.5","1013.23","17.88","77.65","703.5","0.0"],
    [1516737,"2026-04-22 09:50:00","63234","3.13","154.6","3.9530000000000003","151.5","1013.269","17.67","84.8","586.7","0.0"],
    [1516738,"2026-04-22 10:00:00","63235","2.734","162.5","3.201","163.6","1013.409","17.56","87.7","705.7","0.0"],
    [1516739,"2026-04-22 10:10:00","63236","2.8930000000000002","166.8","3.267","165.8","1013.464","17.5","90.1","639.8","0.0"],
    [1516740,"2026-04-22 10:20:00","63237","3.3689999999999998","163.5","3.985","175.7","1013.458","17.41","91.3","824.0","0.0"],
    [1516741,"2026-04-22 10:30:00","63238","4.224","173.8","4.671","180.1","1013.435","17.46","92.4","861.0","0.0"],
    [1516742,"2026-04-22 10:40:00","63239","3.492","154.6","3.9530000000000003","147.8","1013.425","17.42","92.1","868.0","0.0"],
    [1516743,"2026-04-22 10:50:00","63240","3.339","139.6","3.9530000000000003","149.5","1013.404","17.43","91.5","853.0","0.0"],
    [1516744,"2026-04-22 11:00:00","63241","3.002","84.8","3.985","100.1","1013.419","17.6","91.3","877.0","0.0"],
    [1516745,"2026-04-22 11:10:00","63242","3.015","88.5","4.508","90.3","1013.492","17.59","91.4","908.0","0.0"],
    [1516746,"2026-04-22 11:20:00","63243","2.676","91.0","3.822","93.7","1013.605","17.72","91.6","893.0","0.0"],
    [1516747,"2026-04-22 11:30:00","63244","2.865","84.4","4.835","98.2","1013.571","17.77","93.2","917.0","0.0"],
    [1516748,"2026-04-22 11:40:00","63245","2.72","83.2","5.031000000000001","72.92","1013.581","17.57","95.7","927.0","0.0"],
    [1516749,"2026-04-22 11:50:00","63246","2.997","84.2","4.9","99.5","1013.702","17.47","97.3","921.0","0.0"],
    [1516750,"2026-04-22 12:00:00","63247","2.418","82.1","4.638999999999999","94.7","1013.774","17.54","98.5","889.0","0.0"],
    [1516751,"2026-04-22 12:10:00","63248","2.2230000000000003","78.34","4.965","76.72","1013.757","17.57","98.8","897.0","0.0"],
    [1516752,"2026-04-22 12:20:00","63249","2.955","84.8","5.619","96.5","1013.786","17.54","99.0","901.0","0.0"],
    [1516753,"2026-04-22 12:30:00","63250","3.29","86.1","5.194","85.9","1013.803","17.52","99.5","912.0","0.0"],
    [1516754,"2026-04-22 12:40:00","63251","3.616","88.3","6.403","89.9","1013.893","17.51","99.9","916.0","0.0"],
    [1516755,"2026-04-22 12:50:00","63252","3.4619999999999997","89.0","6.1739999999999995","96.6","1013.983","17.62","100.0","915.0","0.0"],
    [1516756,"2026-04-22 13:00:00","63253","3.7089999999999996","87.4","6.1739999999999995","96.6","1014.008","17.66","100.0","893.0","0.0"],
    [1516757,"2026-04-22 13:10:00","63254","3.823","89.3","6.207000000000001","95.7","1014.055","17.73","100.0","804.0","0.0"],
    [1516758,"2026-04-22 13:20:00","63255","3.7889999999999997","85.5","6.37","88.0","1014.091","17.42","100.0","498.2","0.0"],
    [1516759,"2026-04-22 13:30:00","63256","4.475","84.8","7.481","84.9","1013.964","16.94","99.9","484.8","0.0"],
    [1516760,"2026-04-22 13:40:00","63257","4.243","82.6","7.35","86.3","1013.988","16.89","96.8","883.0","0.0"],
    [1516761,"2026-04-22 13:50:00","63258","3.198","74.79","5.978","80.4","1014.017","17.23","91.7","787.1","0.0"],
    [1516762,"2026-04-22 14:00:00","63259","3.435","63.57","6.239","92.7","1013.963","17.37","90.2","755.9","0.0"],
    [1516763,"2026-04-22 14:10:00","63260","3.967","49.71","6.893","49.78","1014.021","17.41","90.3","762.7","0.0"],
    [1516764,"2026-04-22 14:20:00","63261","3.115","46.71","5.847","44.64","1014.074","17.4","90.1","493.3","0.0"],
    [1516765,"2026-04-22 14:30:00","63262","2.503","70.63","5.945","69.05","1014.242","17.45","89.7","439.8","0.0"],
    [1516766,"2026-04-22 14:40:00","63263","2.366","68.43","5.096","48.93","1014.334","17.53","90.0","454.5","0.0"],
    [1516767,"2026-04-22 14:50:00","63264","2.6460000000000004","83.2","5.227","76.61","1014.18","17.34","90.4","363.9","0.0"],
    [1516768,"2026-04-22 15:00:00","63265","2.633","46.75","4.998","52.07","1014.199","17.41","91.3","517.1","0.0"],
    [1516769,"2026-04-22 15:10:00","63266","3.075","47.03","5.325","59.38","1014.308","17.37","92.0","529.1","0.0"],
    [1516770,"2026-04-22 15:20:00","63267","3.484","42.9","5.1610000000000005","42.27","1014.441","17.35","92.7","319.1","0.0"],
    [1516771,"2026-04-22 15:30:00","63268","4.133","46.53","5.1610000000000005","48.43","1014.601","17.31","94.0","514.6","0.0"],
    [1516772,"2026-04-22 15:40:00","63269","4.454","46.91","5.7170000000000005","47.59","1014.583","17.34","95.0","547.6","0.0"],
    [1516773,"2026-04-22 15:50:00","63270","5.721","43.56","6.7620000000000005","47.35","1014.629","17.2","96.2","593.6","0.0"],
    [1516774,"2026-04-22 16:00:00","63271","6.127000000000001","39.57","7.807","44.13","1014.796","17.09","98.0","523.5","0.0"],
    [1516775,"2026-04-22 16:10:00","63272","6.686","43.27","8.33","47.04","1014.824","16.88","99.0","386.9","0.0"],
    [1516776,"2026-04-22 16:20:00","63273","6.8839999999999995","44.87","8.72","45.29","1014.777","16.72","99.4","373.2","0.0"],
    [1516777,"2026-04-22 16:30:00","63274","6.372999999999999","44.19","8.13","47.17","1014.84","16.71","99.2","417.3","0.0"],
    [1516778,"2026-04-22 16:40:00","63275","6.053","38.45","7.872999999999999","39.61","1014.752","16.71","98.6","315.0","0.0"],
    [1516779,"2026-04-22 16:50:00","63276","6.345","41.3","8.46","42.35","1014.651","16.74","98.1","317.7","0.0"],
    [1516780,"2026-04-22 17:00:00","63277","6.233","41.8","7.644","44.58","1014.652","16.72","98.2","284.4","0.0"],
    [1516781,"2026-04-22 17:10:00","63278","6.77","43.0","8.2","43.81","1014.523","16.64","97.9","252.7","0.0"],
    [1516782,"2026-04-22 17:20:00","63279","5.99","37.64","7.6770000000000005","20.74","1014.72","16.69","96.8","213.9","0.0"],
    [1516783,"2026-04-22 17:30:00","63280","5.233","42.92","7.023","41.49","1015.004","16.73","95.9","163.0","0.0"],
    [1516784,"2026-04-22 17:40:00","63281","5.026","43.3","6.729","38.74","1015.39","16.75","96.2","103.9","0.0"],
    [1516785,"2026-04-22 17:50:00","63282","3.783","42.91","5.031000000000001","36.43","1015.897","16.74","97.1","76.86","0.0"],
    [1516786,"2026-04-22 18:00:00","63283","3.323","41.4","4.475","46.18","1015.958","16.75","97.9","55.47","0.0"],
    [1516787,"2026-04-22 18:10:00","63284","2.419","48.11","3.985","31.32","1016.108","16.76","98.9","60.52","0.0"],
    [1516788,"2026-04-22 18:20:00","63285","3.495","61.5","4.9","56.92","1015.934","16.77","99.4","38.37","0.0"],
    [1516789,"2026-04-22 18:30:00","63286","3.332","38.91","5.031000000000001","39.64","1016.028","16.81","100.0","11.82","0.0"],
    [1516790,"2026-04-22 18:40:00","63287","3.389","52.93","5.422999999999999","58.17","1016.24","16.8","100.0","3.069","0.0"],
    [1516791,"2026-04-22 18:50:00","63288","3.844","62.7","6.141","53.85","1016.434","16.83","100.0","0.179","0.0"],
    [1516792,"2026-04-22 19:00:00","63289","5.555","61.8","9.73","75.63","1016.322","16.96","100.0","0.033","0.0"],
    [1516793,"2026-04-22 19:10:00","63290","7.845","73.18","11.37","72.94","1016.136","16.81","100.0","0.0","0.0"],
    [1516794,"2026-04-22 19:20:00","63291","7.9239999999999995","73.25","10.85","71.28","1016.145","16.69","100.0","0.0","0.0"],
    [1516795,"2026-04-22 19:30:00","63292","8.66","72.54","11.4","72.0","1016.273","16.69","100.0","0.0","0.0"],
    [1516796,"2026-04-22 19:40:00","63293","9.01","70.32","12.22","69.97","1016.347","16.65","100.0","0.0","0.0"],
    [1516797,"2026-04-22 19:50:00","63294","9.1","65.82","12.71","68.54","1016.531","16.6","100.0","0.0","0.0"],
    [1516798,"2026-04-22 20:00:00","63295","8.21","59.94","11.96","64.23","1016.763","16.7","99.4","0.0","0.0"],
    [1516799,"2026-04-22 20:10:00","63296","9.14","60.87","13.13","55.68","1016.78","16.81","96.4","0.0","0.0"],
    [1516800,"2026-04-22 20:20:00","63297","8.53","58.55","12.97","56.62","1017.027","16.85","95.8","0.0","0.0"],
    [1516801,"2026-04-22 20:30:00","63298","8.48","57.78","12.28","60.48","1017.181","16.89","94.9","0.0","0.0"],
    [1516802,"2026-04-22 20:40:00","63299","6.935","59.0","10.19","68.17","1017.545","16.89","94.8","0.0","0.0"],
    [1516803,"2026-04-22 20:50:00","63300","6.0360000000000005","55.34","9.02","61.16","1017.661","16.81","95.2","0.0","0.0"],
    [1516804,"2026-04-22 21:00:00","63301","6.765","55.97","10.45","60.87","1017.605","16.84","94.0","0.0","0.0"],
    [1516805,"2026-04-22 21:10:00","63302","6.097","52.86","9.24","52.7","1017.789","16.9","93.2","0.0","0.0"],
    [1516806,"2026-04-22 21:20:00","63303","7.369","50.95","9.38","54.16","1017.848","16.85","93.1","0.0","0.0"],
    [1516807,"2026-04-22 21:30:00","63304","6.6370000000000005","51.99","8.89","47.58","1017.955","16.81","93.4","0.0","0.0"],
    [1516808,"2026-04-22 21:40:00","63305","6.047000000000001","50.52","8.2","58.63","1018.301","16.79","93.9","0.0","0.0"],
    [1516809,"2026-04-22 21:50:00","63306","6.335","61.41","10.71","61.4","1018.668","16.79","94.3","0.0","0.0"],
    [1516810,"2026-04-22 22:00:00","63307","8.04","54.39","10.29","64.74","1018.613","16.77","96.0","0.0","0.0"],
    [1516811,"2026-04-22 22:10:00","63308","7.47","54.96","11.04","53.92","1018.65","16.66","98.4","0.0","0.0"],
    [1516812,"2026-04-22 22:20:00","63309","7.148","59.41","10.58","61.19","1018.828","16.58","99.8","0.0","0.0"],
    [1516813,"2026-04-22 22:30:00","63310","7.034","58.17","10.16","50.81","1018.857","16.52","100.0","0.0","0.0"],
    [1516814,"2026-04-22 22:40:00","63311","7.851","57.41","10.98","56.15","1018.578","16.46","100.0","0.0","0.0"],
    [1516815,"2026-04-22 22:50:00","63312","8.07","56.71","11.14","56.04","1018.392","16.45","100.0","0.0","0.0"],
    [1516816,"2026-04-22 23:00:00","63313","8.41","49.98","11.4","54.86","1018.293","16.39","100.0","0.0","0.0"],
    [1516817,"2026-04-22 23:10:00","63314","9.09","50.88","11.92","54.99","1018.153","16.39","100.0","0.0","0.0"],
    [1516818,"2026-04-22 23:20:00","63315","9.73","48.18","12.61","50.04","1018.149","16.3","100.0","0.0","0.0"],
    [1516819,"2026-04-22 23:30:00","63316","9.9","47.32","12.02","46.69","1018.255","16.23","100.0","0.0","0.0"],
    [1516820,"2026-04-22 23:40:00","63317","10.01","47.26","12.77","51.75","1018.325","16.19","100.0","0.0","0.0"],
    [1516821,"2026-04-22 23:50:00","63318","9.79","48.45","12.71","47.15","1018.47","16.17","100.0","0.0","0.0"],
    [1516822,"2026-04-23 00:00:00","63319","8.92","50.89","11.83","46.45","1018.533","16.17","100.0","0.0","0.0"],
    [1516823,"2026-04-23 00:10:00","63320","8.5","58.11","12.12","60.56","1018.595","16.18","99.7","0.0","0.0"],
    [1516824,"2026-04-23 00:20:00","63321","8.57","59.01","11.6","62.98","1018.539","16.16","98.9","0.0","0.0"],
    [1516825,"2026-04-23 00:30:00","63322","8.68","59.07","11.5","58.12","1018.512","16.14","97.7","0.0","0.0"],
    [1516826,"2026-04-23 00:40:00","63323","7.647","43.65","11.73","60.5","1018.557","16.14","96.8","0.0","0.0"],
    [1516827,"2026-04-23 00:50:00","63324","7.5520000000000005","54.51","10.49","56.5","1018.607","16.16","95.9","0.0","0.0"],
    [1516828,"2026-04-23 01:00:00","63325","7.527","56.76","11.07","57.63","1018.742","16.21","94.3","0.0","0.0"],
    [1516829,"2026-04-23 01:10:00","63326","7.962999999999999","54.34","10.06","63.35","1018.617","16.22","93.5","0.0","0.0"],
    [1516830,"2026-04-23 01:20:00","63327","7.415","53.43","9.73","45.93","1018.707","16.24","92.5","0.0","0.0"],
    [1516831,"2026-04-23 01:30:00","63328","7.497000000000001","58.35","10.26","63.5","1018.847","16.23","91.7","0.0","0.0"],
    [1516832,"2026-04-23 01:40:00","63329","7.812","58.23","10.75","70.29","1018.838","16.21","91.3","0.0","0.0"],
    [1516833,"2026-04-23 01:50:00","63330","7.3660000000000005","60.15","10.29","61.59","1018.837","16.15","91.6","0.0","0.0"],
    [1516834,"2026-04-23 02:00:00","63331","7.416","56.87","10.45","55.32","1018.867","16.11","91.7","0.0","0.0"],
    [1516835,"2026-04-23 02:10:00","63332","7.355","54.86","10.19","69.59","1018.929","16.1","91.0","0.0","0.0"],
    [1516836,"2026-04-23 02:20:00","63333","7.395","52.84","9.93","45.37","1018.932","16.13","90.4","0.0","0.0"],
    [1516837,"2026-04-23 02:30:00","63334","7.239","53.25","10.68","45.14","1018.922","16.13","89.7","0.0","0.0"],
    [1516838,"2026-04-23 02:40:00","63335","7.511","58.6","10.81","51.01","1018.965","16.09","90.2","0.0","0.0"],
    [1516839,"2026-04-23 02:50:00","63336","6.765","57.23","9.44","63.44","1018.97","16.06","91.1","0.0","0.0"],
    [1516840,"2026-04-23 03:00:00","63337","6.446000000000001","58.15","9.05","64.31","1018.982","16.03","91.9","0.0","0.0"],
    [1516841,"2026-04-23 03:10:00","63338","6.261","56.34","8.56","51.64","1018.989","16.0","92.5","0.0","0.0"],
    [1516842,"2026-04-23 03:20:00","63339","5.7989999999999995","54.54","8.69","52.77","1019.01","16.0","93.0","0.0","0.0"],
    [1516843,"2026-04-23 03:30:00","63340","6.281000000000001","58.58","8.98","53.02","1019.035","15.94","92.8","0.0","0.0"],
    [1516844,"2026-04-23 03:40:00","63341","6.277","56.35","9.08","56.1","1019.079","16.0","91.7","0.0","0.0"],
    [1516845,"2026-04-23 03:50:00","63342","6.803","55.31","9.44","65.05","1019.069","15.98","92.2","0.0","0.0"],
    [1516846,"2026-04-23 04:00:00","63343","7.394","50.47","10.32","46.15","1019.034","15.93","92.0","0.0","0.0"],
    [1516847,"2026-04-23 04:10:00","63344","7.595","43.14","9.57","37.79","1019.041","16.02","90.2","0.0","0.0"],
    [1516848,"2026-04-23 04:20:00","63345","7.575","45.78","9.6","49.46","1018.989","16.06","89.3","0.0","0.0"],
    [1516849,"2026-04-23 04:30:00","63346","7.184","41.21","9.08","45.21","1019.087","16.08","89.3","0.0","0.0"],
    [1516850,"2026-04-23 04:40:00","63347","6.651","42.8","8.82","45.27","1019.176","16.08","89.4","0.0","0.0"],
    [1516851,"2026-04-23 04:50:00","63348","6.957999999999999","46.24","8.82","46.23","1019.287","16.1","89.1","0.012","0.0"],
    [1516852,"2026-04-23 05:00:00","63349","7.445","48.42","9.57","52.66","1019.262","16.12","88.3","0.9259999999999999","0.0"],
    [1516853,"2026-04-23 05:10:00","63350","8.0","45.67","10.49","47.02","1019.279","16.13","86.9","3.918","0.0"],
    [1516854,"2026-04-23 05:20:00","63351","7.986000000000001","37.4","10.78","47.65","1019.312","16.12","86.2","10.17","0.0"],
    [1516855,"2026-04-23 05:30:00","63352","7.805","39.75","10.42","47.71","1019.331","16.13","86.0","20.14","0.0"],
    [1516856,"2026-04-23 05:40:00","63353","7.7860000000000005","39.9","10.39","39.76","1019.455","16.17","85.6","41.74","0.0"],
    [1516857,"2026-04-23 05:50:00","63354","7.641","40.82","9.57","44.25","1019.583","16.18","86.0","58.41","0.0"],
    [1516858,"2026-04-23 06:00:00","63355","7.349","40.08","9.31","44.83","1019.703","16.18","85.9","77.19","0.0"],
    [1516859,"2026-04-23 06:10:00","63356","6.439","36.48","8.82","43.1","1019.838","16.12","85.1","73.13","0.0"],
    [1516860,"2026-04-23 06:20:00","63357","6.209","39.4","8.17","42.81","1019.971","16.23","82.9","152.5","0.0"],
    [1516861,"2026-04-23 06:30:00","63358","6.1160000000000005","43.03","7.35","37.98","1020.161","16.35","81.9","200.3","0.0"],
    [1516862,"2026-04-23 06:40:00","63359","6.059","44.09","8.0","41.27","1020.184","16.27","83.3","119.1","0.0"],
    [1516863,"2026-04-23 06:50:00","63360","6.307","46.82","8.4","45.04","1020.269","16.28","84.9","191.5","0.0"],
    [1516864,"2026-04-23 07:00:00","63361","7.601","48.94","9.83","59.59","1020.349","16.3","83.1","117.8","0.0"],
    [1516865,"2026-04-23 07:10:00","63362","8.24","45.66","11.14","44.2","1020.465","16.33","82.8","208.3","0.0"],
    [1516866,"2026-04-23 07:20:00","63363","8.55","45.55","11.3","46.8","1020.519","16.36","82.5","273.9","0.0"],
    [1516867,"2026-04-23 07:30:00","63364","8.77","44.55","10.71","52.24","1020.551","16.42","81.7","373.0","0.0"],
    [1516868,"2026-04-23 07:40:00","63365","8.87","45.13","11.27","49.41","1020.675","16.47","81.2","443.1","0.0"],
    [1516869,"2026-04-23 07:50:00","63366","8.68","46.15","10.88","51.02","1020.779","16.53","80.4","443.0","0.0"],
    [1516870,"2026-04-23 08:00:00","63367","8.93","47.01","11.07","50.74","1020.858","16.52","80.1","494.8","0.0"],
    [1516871,"2026-04-23 08:10:00","63368","8.5","47.13","11.14","40.61","1020.963","16.56","80.1","534.4","0.0"],
    [1516872,"2026-04-23 08:20:00","63369","9.19","47.12","11.69","42.55","1020.943","16.55","80.3","533.6","0.0"],
    [1516873,"2026-04-23 08:30:00","63370","8.83","46.64","10.75","43.51","1020.987","16.57","80.9","595.7","0.0"],
    [1516874,"2026-04-23 08:40:00","63371","8.39","47.45","10.32","49.76","1021.075","16.61","81.3","626.2","0.0"],
    [1516875,"2026-04-23 08:50:00","63372","7.841","40.7","10.81","51.3","1021.171","16.66","81.7","655.0","0.0"],
    [1516876,"2026-04-23 09:00:00","63373","8.33","45.3","10.36","49.1","1021.262","16.69","81.5","685.6","0.0"],
    [1516877,"2026-04-23 09:10:00","63374","8.25","46.03","10.71","43.79","1021.361","16.78","81.4","717.0","0.0"],
    [1516878,"2026-04-23 09:20:00","63375","7.894","47.08","10.39","47.33","1021.439","16.82","81.5","757.0","0.0"],
    [1516879,"2026-04-23 09:30:00","63376","7.625","47.1","9.93","50.54","1021.591","16.85","81.4","742.3","0.0"],
    [1516880,"2026-04-23 09:40:00","63377","7.263","48.0","9.08","46.91","1021.666","16.9","80.8","518.4","0.0"],
    [1516881,"2026-04-23 09:50:00","63378","7.057","47.41","8.89","50.54","1021.712","17.0","80.5","803.0","0.0"],
    [1516882,"2026-04-23 10:00:00","63379","7.407","48.7","9.7","40.08","1021.713","17.17","76.45","822.0","0.0"],
    [1516883,"2026-04-23 10:10:00","63380","7.475","49.43","9.9","50.52","1021.715","17.27","74.0","840.0","0.0"],
    [1516884,"2026-04-23 10:20:00","63381","7.257999999999999","47.69","8.62","43.69","963.6245","-24.56","7.577000000000001","447.6","0.0"],
    [1516885,"2026-04-23 10:30:00","63382","7.646","47.25","10.62","41.97","1021.603","7.103","44.99","1069.0","0.0"],
    [1516886,"2026-04-23 12:20:00","63383","0.0","0.0","6.86","40.55","703.6144","-48.11","-3.06","264.8","0.0"],
    [1516887,"2026-04-23 12:30:00","63384","0.0","0.0","0.0","0.0","956.9021","-57.53","-10.64","0.0","0.0"],
    [1516888,"2026-04-23 12:40:00","63385","0.0","0.0","0.0","0.0","1001.424","-57.88","-11.26","0.0","0.0"],
    [1516889,"2026-04-23 12:50:00","63386","0.0","0.0","0.0","0.0","1021.613","-57.82","-11.1","0.0","0.0"],
    [1516890,"2026-04-23 13:00:00","63387","0.0","0.0","0.0","0.0","1021.576","-56.87","-4.177","2813.0","0.0"],
    [1516891,"2026-04-23 13:10:00","63388","0.0","0.0","0.0","0.0","NAN","-11.93","42.07","802.0","0.0"],
    [1516892,"2026-04-23 13:20:00","63389","0.568","50.83","9.34","359.9","1020.301","16.59","63.51","839.0","0.0"],
    [1516893,"2026-04-23 13:30:00","63390","8.26","74.82","11.86","72.69","1020.841","16.52","67.38","831.0","0.0"],
    [1516894,"2026-04-23 13:40:00","63391","9.2","88.7","11.43","89.4","1007.11","16.45","65.85","772.7","0.0"],
    [1516895,"2026-04-23 13:50:00","63392","8.73","91.7","11.69","93.6","1020.691","16.53","63.79","771.8","0.0"],
    [1516896,"2026-04-23 14:00:00","63393","8.72","91.3","11.89","91.9","1020.628","16.49","65.07","771.8","0.0"],
    [1516897,"2026-04-23 14:10:00","63394","7.025","69.51","9.67","91.1","1020.746","16.48","66.83","725.6","0.0"],
    [1516898,"2026-04-23 14:20:00","63395","6.987","61.01","10.45","72.21","1020.733","16.43","66.29","704.7","0.2"],
    [1516899,"2026-04-23 14:30:00","63396","6.737","50.08","9.24","52.4","1020.649","16.41","69.8","682.4","0.0"],
    [1516900,"2026-04-23 14:40:00","63397","6.499","52.5","9.08","57.99","1020.568","16.42","70.46","677.6","0.0"],
    [1516901,"2026-04-23 14:50:00","63398","6.676","57.84","9.41","53.67","1020.498","16.37","70.37","627.5","0.0"],
    [1516902,"2026-04-23 15:00:00","63399","6.91","54.11","10.42","50.49","1020.428","16.44","70.25","582.3","0.0"],
    [1516903,"2026-04-23 15:10:00","63400","7.454","55.28","10.68","51.37","1020.35","16.38","71.4","570.4","0.0"],
    [1516904,"2026-04-23 15:20:00","63401","6.849","53.18","8.92","57.77","1020.358","16.38","72.63","536.4","0.0"],
    [1516905,"2026-04-23 15:30:00","63402","7.115","48.3","9.34","49.73","1020.27","16.33","74.4","508.7","0.0"],
    [1516906,"2026-04-23 15:40:00","63403","6.926","48.03","8.98","46.7","1020.17","16.34","75.61","503.3","0.0"],
    [1516907,"2026-04-23 15:50:00","63404","7.047999999999999","49.06","8.89","58.77","1020.197","16.35","76.66","450.3","0.0"],
    [1516908,"2026-04-23 16:00:00","63405","7.046","53.21","9.15","66.33","1020.157","16.37","77.43","428.9","0.0"],
    [1516909,"2026-04-23 16:10:00","63406","7.1","54.89","9.11","61.29","1020.045","16.35","77.45","402.6","0.0"],
    [1516910,"2026-04-23 16:20:00","63407","6.601","54.45","9.67","58.79","1019.95","16.34","78.05","400.3","0.0"],
    [1516911,"2026-04-23 16:30:00","63408","7.297999999999999","58.18","10.06","59.07","1019.912","16.29","78.18","343.9","0.0"],
    [1516912,"2026-04-23 16:40:00","63409","6.944","57.23","9.7","65.22","1019.877","16.27","78.17","329.9","0.0"],
    [1516913,"2026-04-23 16:50:00","63410","6.818","57.61","9.15","59.17","1019.838","16.28","78.76","271.8","0.0"],
    [1516914,"2026-04-23 17:00:00","63411","7.281000000000001","58.5","10.45","51.63","1019.84","16.24","78.97","256.8","0.0"],
    [1516915,"2026-04-23 17:10:00","63412","7.452000000000001","58.16","10.68","49.87","1019.79","16.23","78.31","203.7","0.0"],
    [1516916,"2026-04-23 17:20:00","63413","6.7989999999999995","57.91","10.78","58.38","1019.745","16.24","77.13","195.6","0.0"],
    [1516917,"2026-04-23 17:30:00","63414","7.479","60.11","10.36","55.35","1019.701","16.26","75.0","141.4","0.0"],
    [1516918,"2026-04-23 17:40:00","63415","6.825","57.44","10.36","58.41","1019.64","16.3","73.22","108.2","0.0"],
    [1516919,"2026-04-23 17:50:00","63416","6.282","49.29","9.57","55.3","1019.631","16.32","72.92","67.1","0.0"],
    [1516920,"2026-04-23 18:00:00","63417","6.037000000000001","45.08","9.41","47.15","1019.722","16.31","72.98","67.1","0.0"],
    [1516921,"2026-04-23 18:10:00","63418","6.367999999999999","37.63","9.38","10.9","1019.701","16.28","74.06","66.07","0.0"],
    [1516922,"2026-04-23 18:20:00","63419","6.066","41.49","8.3","47.96","1019.721","16.25","74.59","14.73","0.0"],
    [1516923,"2026-04-23 18:30:00","63420","6.007000000000001","43.05","7.775","41.36","1019.733","16.21","73.61","0.0","0.0"],
    [1516924,"2026-04-23 18:40:00","63421","6.282","41.4","8.69","68.21","1019.714","16.18","72.66","0.0","0.0"],
    [1516925,"2026-04-23 18:50:00","63422","6.107","39.3","8.46","35.56","1019.788","16.19","72.29","0.0","0.0"],
    [1516926,"2026-04-23 19:00:00","63423","5.77","43.32","8.17","41.67","1019.816","16.21","72.27","0.0","0.0"],
    [1516927,"2026-04-23 19:10:00","63424","5.461","44.07","7.84","50.92","1019.808","16.2","72.21","0.0","0.0"],
    [1516928,"2026-04-23 19:20:00","63425","5.55","46.66","7.6770000000000005","64.29","1019.844","16.17","72.22","0.0","0.0"],
    [1516929,"2026-04-23 19:30:00","63426","5.555","41.42","8.0","35.24","1019.966","16.14","72.19","0.0","0.0"],
    [1516930,"2026-04-23 19:40:00","63427","6.871","37.88","9.11","40.88","1019.974","16.15","71.27","0.0","0.0"],
    [1516931,"2026-04-23 19:50:00","63428","6.237","39.2","9.11","43.9","1020.146","16.14","71.56","0.0","0.0"],
    [1516932,"2026-04-23 20:00:00","63429","6.355","36.64","8.59","32.46","1020.216","16.11","71.7","0.0","0.0"],
    [1516933,"2026-04-23 20:10:00","63430","6.547000000000001","36.33","8.13","35.84","1020.299","16.11","71.19","0.0","0.0"],
    [1516934,"2026-04-23 20:20:00","63431","6.045","36.87","8.13","37.56","1020.384","16.09","71.3","0.0","0.0"],
    [1516935,"2026-04-23 20:30:00","63432","6.0760000000000005","37.27","8.17","30.21","1020.455","16.09","71.44","0.0","0.0"],
    [1516936,"2026-04-23 20:40:00","63433","6.567","37.77","8.0","38.57","1020.436","16.08","71.16","0.0","0.0"],
    [1516937,"2026-04-23 20:50:00","63434","6.343","38.01","7.971","36.54","1020.364","16.03","71.69","0.0","0.0"],
    [1516938,"2026-04-23 21:00:00","63435","6.151","37.4","8.36","33.32","1020.315","16.02","72.43","0.0","0.0"],
    [1516939,"2026-04-23 21:10:00","63436","5.8229999999999995","37.64","7.84","40.89","1020.286","16.02","72.84","0.0","0.0"],
    [1516940,"2026-04-23 21:20:00","63437","5.636","39.59","7.252000000000001","45.62","1020.328","16.03","72.67","0.0","0.0"],
    [1516941,"2026-04-23 21:30:00","63438","5.257999999999999","42.48","6.86","43.87","1020.405","16.0","73.68","0.0","0.0"],
    [1516942,"2026-04-23 21:40:00","63439","4.53","41.14","5.912999999999999","31.45","1020.408","15.96","75.21","0.0","0.0"],
    [1516943,"2026-04-23 21:50:00","63440","4.343","34.11","5.455","34.95","1020.428","15.91","76.51","0.0","0.0"],
    [1516944,"2026-04-23 22:00:00","63441","4.423","34.26","6.011","36.27","1020.425","15.87","75.66","0.0","0.0"],
    [1516945,"2026-04-23 22:10:00","63442","4.515","34.08","5.7170000000000005","40.72","1020.429","15.9","74.19","0.0","0.0"],
    [1516946,"2026-04-23 22:20:00","63443","4.226","35.56","5.7170000000000005","44.06","1020.404","15.9","73.19","0.0","0.0"],
    [1516947,"2026-04-23 22:30:00","63444","4.571000000000001","40.49","5.455","48.91","1020.31","15.83","73.95","0.0","0.0"],
    [1516948,"2026-04-23 22:40:00","63445","3.6639999999999997","33.31","4.998","49.91","1020.294","15.79","73.94","0.0","0.0"],
    [1516949,"2026-04-23 22:50:00","63446","3.821","37.24","5.031000000000001","27.01","1020.33","15.77","73.61","0.0","0.0"],
    [1516950,"2026-04-23 23:00:00","63447","4.231","36.43","5.521","31.79","1020.26","15.78","69.82","0.0","0.0"],
    [1516951,"2026-04-23 23:10:00","63448","4.6530000000000005","32.97","5.815","34.14","1020.172","15.81","68.5","0.0","0.0"],
    [1516952,"2026-04-23 23:20:00","63449","4.825","31.19","5.88","29.22","1020.079","15.82","68.42","0.0","0.0"],
    [1516953,"2026-04-23 23:30:00","63450","4.362","34.33","5.815","29.2","1020.092","15.78","70.08","0.0","0.0"],
    [1516954,"2026-04-23 23:40:00","63451","4.11","34.31","5.063","32.96","1020.072","15.74","70.59","0.0","0.0"],
    [1516955,"2026-04-23 23:50:00","63452","3.819","33.3","4.998","35.6","1020.103","15.73","70.38","0.0","0.0"],
    [1516956,"2026-04-24 00:00:00","63453","3.803","37.53","4.671","28.26","1020.07","15.74","70.67","0.0","0.0"],
    [1516957,"2026-04-24 00:10:00","63454","3.531","39.48","4.4430000000000005","43.59","1019.943","15.74","70.81","0.0","0.0"],
    [1516958,"2026-04-24 00:20:00","63455","3.367","43.89","4.247","35.7","1019.824","15.72","70.53","0.0","0.0"],
    [1516959,"2026-04-24 00:30:00","63456","2.85","49.1","3.6910000000000003","54.06","1019.738","15.71","70.65","0.0","0.0"],
    [1516960,"2026-04-24 00:40:00","63457","2.911","50.69","3.7889999999999997","49.59","1019.733","15.74","69.16","0.0","0.0"],
    [1516961,"2026-04-24 00:50:00","63458","2.638","47.98","3.5610000000000004","42.91","1019.663","15.77","66.96","0.0","0.0"],
    [1516962,"2026-04-24 01:00:00","63459","2.5380000000000003","49.24","3.6260000000000003","41.43","1019.659","15.85","62.55","0.0","0.0"],
    [1516963,"2026-04-24 01:10:00","63460","2.888","40.48","3.6260000000000003","44.82","1019.552","15.78","62.93","0.0","0.0"],
    [1516964,"2026-04-24 01:20:00","63461","2.596","43.17","3.365","36.78","1019.477","15.73","63.14","0.0","0.0"],
    [1516965,"2026-04-24 01:30:00","63462","2.155","39.93","2.7769999999999997","52.5","1019.434","15.73","62.25","0.0","0.0"],
    [1516966,"2026-04-24 01:40:00","63463","2.233","36.53","2.842","33.66","1019.385","15.82","61.36","0.0","0.0"],
    [1516967,"2026-04-24 01:50:00","63464","2.009","36.44","2.7439999999999998","30.48","1019.311","15.86","60.12","0.0","0.0"],
    [1516968,"2026-04-24 02:00:00","63465","2.307","42.48","3.071","40.94","1019.242","15.89","60.14","0.0","0.0"],
    [1516969,"2026-04-24 02:10:00","63466","2.786","43.27","3.822","39.97","1019.183","15.86","59.06","0.0","0.0"],
    [1516970,"2026-04-24 02:20:00","63467","2.603","38.18","3.299","34.47","1019.134","15.83","59.22","0.0","0.0"],
    [1516971,"2026-04-24 02:30:00","63468","2.7439999999999998","34.25","3.365","34.71","1019.143","15.86","58.09","0.0","0.0"],
    [1516972,"2026-04-24 02:40:00","63469","2.206","25.21","3.528","52.71","1019.129","15.89","57.53","0.0","0.0"],
    [1516973,"2026-04-24 02:50:00","63470","2.144","27.2","2.7439999999999998","23.64","1019.142","15.86","56.88","0.0","0.0"],
    [1516974,"2026-04-24 03:00:00","63471","2.025","22.26","2.9730000000000003","13.38","1019.173","15.85","57.49","0.0","0.0"],
    [1516975,"2026-04-24 03:10:00","63472","2.399","15.61","3.463","22.27","1019.14","15.84","56.89","0.0","0.0"],
    [1516976,"2026-04-24 03:20:00","63473","2.083","24.36","2.94","29.14","1019.119","15.87","56.94","0.0","0.0"],
    [1516977,"2026-04-24 03:30:00","63474","1.861","30.82","2.254","35.65","1019.03","15.83","57.58","0.0","0.0"],
    [1516978,"2026-04-24 03:40:00","63475","1.82","30.8","2.483","25.05","1019.033","15.82","57.3","0.0","0.0"],
    [1516979,"2026-04-24 03:50:00","63476","1.633","32.19","2.287","23.95","1019.021","15.78","56.75","0.0","0.0"],
    [1516980,"2026-04-24 04:00:00","63477","1.558","34.73","1.96","39.83","1019.078","15.78","56.15","0.0","0.0"],
    [1516981,"2026-04-24 04:10:00","63478","1.4369999999999998","2.557","2.0580000000000003","26.32","1019.158","15.7","56.92","0.0","0.0"],
    [1516982,"2026-04-24 04:20:00","63479","0.9390000000000001","260.6","1.666","265.2","1019.176","15.02","62.84","0.0","0.0"],
    [1516983,"2026-04-24 04:30:00","63480","0.7490000000000001","281.6","1.4369999999999998","269.8","1019.154","14.84","63.95","0.0","0.0"],
    [1516984,"2026-04-24 04:40:00","63481","0.295","7.972","1.013","34.84","1019.135","14.86","63.95","0.0","0.0"],
    [1516985,"2026-04-24 04:50:00","63482","0.619","340.3","1.111","4.976","1019.152","15.04","64.09","0.0","0.0"],
    [1516986,"2026-04-24 05:00:00","63483","0.217","286.2","1.176","295.6","1019.187","14.96","62.99","0.0","0.0"],
    [1516987,"2026-04-24 05:10:00","63484","0.004","291.8","0.22899999999999998","291.1","1019.211","14.94","63.82","0.0","0.0"],
    [1516988,"2026-04-24 05:20:00","63485","0.017","7.406000000000001","0.359","15.56","1019.3","14.97","63.73","6.322","0.0"],
    [1516989,"2026-04-24 05:30:00","63486","0.131","240.3","0.7190000000000001","247.3","1019.433","15.15","61.9","66.86","0.0"],
    [1516990,"2026-04-24 05:40:00","63487","0.14300000000000002","318.4","0.8170000000000001","320.5","1019.54","15.27","61.59","67.13","0.0"],
    [1516991,"2026-04-24 05:50:00","63488","0.45799999999999996","311.1","0.9470000000000001","308.0","1019.66","15.32","60.6","67.13","0.0"],
    [1516992,"2026-04-24 06:00:00","63489","0.455","270.2","1.078","324.6","1019.78","15.44","60.54","114.7","0.0"],
    [1516993,"2026-04-24 06:10:00","63490","0.0","0.0","0.0","0.0","1019.862","15.86","58.71","134.2","0.0"],
    [1516994,"2026-04-24 06:20:00","63491","0.0","0.0","0.0","0.0","1019.9","16.78","55.97","134.1","0.0"],
    [1516995,"2026-04-24 06:30:00","63492","0.076","111.9","0.621","105.3","1019.865","16.54","56.59","134.6","0.0"],
    [1516996,"2026-04-24 06:40:00","63493","0.488","27.59","1.111","34.78","1019.845","16.59","55.52","195.2","0.0"],
    [1516997,"2026-04-24 06:50:00","63494","0.7140000000000001","337.2","1.013","345.3","1019.776","16.16","57.09","202.5","0.0"],
    [1516998,"2026-04-24 07:00:00","63495","0.8240000000000001","12.69","1.176","20.42","1019.719","16.13","57.45","268.0","0.0"],
    [1516999,"2026-04-24 07:10:00","63496","0.596","78.62","2.0580000000000003","96.4","1019.707","16.72","55.01","272.4","0.0"],
    [1517000,"2026-04-24 07:20:00","63497","1.881","92.6","2.287","82.6","1019.616","15.95","59.68","328.4","0.0"],
    [1517001,"2026-04-24 07:30:00","63498","1.714","94.2","2.5810000000000004","93.0","1019.597","16.21","57.13","351.9","0.0"],
    [1517002,"2026-04-24 07:40:00","63499","1.357","101.8","2.025","97.1","1019.616","16.49","55.01","384.6","0.0"],
    [1517003,"2026-04-24 07:50:00","63500","1.824","93.6","2.548","91.5","1019.578","16.38","57.05","431.0","0.0"],
    [1517004,"2026-04-24 08:00:00","63501","2.101","104.0","2.6460000000000004","93.7","1019.545","16.2","62.51","437.2","0.0"],
    [1517005,"2026-04-24 08:10:00","63502","2.7239999999999998","91.4","3.9530000000000003","87.0","1019.519","16.07","64.45","501.9","0.0"],
    [1517006,"2026-04-24 08:20:00","63503","2.136","69.66","4.933","91.4","1019.448","16.38","61.33","518.0","0.0"],
    [1517007,"2026-04-24 08:30:00","63504","2.5069999999999997","46.23","4.965","29.23","1019.47","16.49","58.28","570.3","0.0"],
    [1517008,"2026-04-24 08:40:00","63505","3.074","77.31","4.802","84.6","1019.588","16.29","57.96","607.0","0.0"],
    [1517009,"2026-04-24 08:50:00","63506","3.681","85.5","4.867","88.7","1019.527","15.82","62.81","637.4","0.0"],
    [1517010,"2026-04-24 09:00:00","63507","3.4789999999999996","84.1","4.867","76.1","1019.454","15.64","67.3","622.1","0.0"],
    [1517011,"2026-04-24 09:10:00","63508","3.6910000000000003","84.0","4.867","79.25","1019.447","15.62","71.83","629.4","0.0"],
    [1517012,"2026-04-24 09:20:00","63509","3.7430000000000003","81.6","4.867","75.26","1019.525","15.55","74.89","640.3","0.0"],
    [1517013,"2026-04-24 09:30:00","63510","3.139","86.8","4.671","80.1","1019.569","15.59","74.36","747.0","0.0"],
    [1517014,"2026-04-24 09:40:00","63511","3.364","93.2","5.096","95.5","1019.668","15.69","75.15","760.6","0.0"],
    [1517015,"2026-04-24 09:50:00","63512","3.635","90.9","4.867","93.9","1019.698","15.69","75.72","749.4","0.0"],
    [1517016,"2026-04-24 10:00:00","63513","3.6919999999999997","94.4","5.325","96.1","1019.819","15.69","75.36","795.3","0.0"],
    [1517017,"2026-04-24 10:10:00","63514","4.317","99.4","5.586","90.7","1019.857","15.66","76.8","812.0","0.0"],
    [1517018,"2026-04-24 10:20:00","63515","3.884","103.0","5.227","103.1","1020.017","15.71","79.45","839.0","0.0"],
    [1517019,"2026-04-24 10:30:00","63516","4.365","114.8","5.619","122.3","1020.076","15.66","81.3","839.0","0.0"],
    [1517020,"2026-04-24 10:40:00","63517","4.486000000000001","111.7","5.586","104.9","1020.041","15.61","82.7","814.0","0.0"],
    [1517021,"2026-04-24 10:50:00","63518","4.012","106.2","5.227","109.9","1019.985","15.68","83.5","777.5","0.0"],
    [1517022,"2026-04-24 11:00:00","63519","3.638","102.9","5.292000000000001","102.1","1019.867","15.75","82.9","886.0","0.0"],
    [1517023,"2026-04-24 11:10:00","63520","4.229","103.7","5.455","104.4","1019.85","15.76","83.5","906.0","0.0"],
    [1517024,"2026-04-24 11:20:00","63521","3.85","109.5","5.2589999999999995","107.7","1019.841","15.86","83.2","836.0","0.0"],
    [1517025,"2026-04-24 11:30:00","63522","4.328","108.0","5.586","101.1","1019.795","15.86","80.8","846.0","0.0"],
    [1517026,"2026-04-24 11:40:00","63523","4.147","108.1","5.684","102.8","1019.711","15.98","81.2","832.0","0.0"],
    [1517027,"2026-04-24 11:50:00","63524","4.2669999999999995","112.3","5.422999999999999","118.1","1019.744","15.97","79.82","839.0","0.0"],
    [1517028,"2026-04-24 12:00:00","63525","4.207","113.2","5.357","105.3","1019.718","16.0","78.3","798.5","0.0"],
    [1517029,"2026-04-24 12:10:00","63526","4.092","110.0","5.1610000000000005","115.4","1019.693","16.08","77.93","879.0","0.0"],
    [1517030,"2026-04-24 12:20:00","63527","4.276","118.6","5.4879999999999995","118.5","1019.796","16.16","77.31","889.0","0.0"],
    [1517031,"2026-04-24 12:30:00","63528","3.963","143.1","5.651","118.5","1019.841","16.19","77.32","874.0","0.0"],
    [1517032,"2026-04-24 12:40:00","63529","4.171","135.4","5.4879999999999995","139.8","1019.947","16.13","76.83","897.0","0.0"],
    [1517033,"2026-04-24 12:50:00","63530","4.327","138.6","5.422999999999999","140.7","1019.991","16.06","77.35","902.0","0.0"],
    [1517034,"2026-04-24 13:00:00","63531","3.8560000000000003","141.4","4.965","136.9","1019.99","16.03","76.75","859.0","0.0"],
    [1517035,"2026-04-24 13:10:00","63532","3.627","143.7","4.835","142.9","1019.933","16.0","76.02","827.0","0.0"],
    [1517036,"2026-04-24 13:20:00","63533","3.553","138.6","4.933","134.9","1019.81","16.05","74.28","839.0","0.0"],
    [1517037,"2026-04-24 13:30:00","63534","3.417","142.9","4.573","135.1","1019.697","16.07","72.98","838.0","0.0"],
    [1517038,"2026-04-24 13:40:00","63535","3.411","142.4","4.312","142.7","1019.678","16.05","73.62","776.5","0.0"],
    [1517039,"2026-04-24 13:50:00","63536","3.377","140.5","4.083","137.7","1019.598","16.06","72.78","772.3","0.0"],
    [1517040,"2026-04-24 14:00:00","63537","3.0010000000000003","134.3","4.247","138.7","1019.535","16.13","70.98","753.3","0.0"],
    [1517041,"2026-04-24 14:10:00","63538","3.005","136.8","3.9530000000000003","142.5","1019.537","16.18","70.7","688.7","0.0"],
    [1517042,"2026-04-24 14:20:00","63539","3.153","139.7","3.985","127.0","1019.439","16.14","70.11","719.0","0.0"],
    [1517043,"2026-04-24 14:30:00","63540","3.005","138.5","4.279","152.5","1019.28","16.18","69.43","651.9","0.0"],
    [1517044,"2026-04-24 14:40:00","63541","3.017","142.2","3.9530000000000003","141.0","1019.194","16.12","69.45","574.4","0.0"],
    [1517045,"2026-04-24 14:50:00","63542","2.978","137.8","3.855","142.1","1019.096","16.16","68.56","570.2","0.0"],
    [1517046,"2026-04-24 15:00:00","63543","3.008","144.4","3.985","156.2","1019.072","16.14","68.52","572.6","0.0"],
    [1517047,"2026-04-24 15:10:00","63544","2.4330000000000003","152.2","3.1689999999999996","157.6","1018.987","16.13","69.32","532.1","0.0"],
    [1517048,"2026-04-24 15:20:00","63545","1.9269999999999998","162.4","3.071","157.2","1018.887","16.21","68.83","518.4","0.0"],
    [1517049,"2026-04-24 15:30:00","63546","2.096","148.9","3.103","139.8","1018.793","16.2","67.62","480.9","0.0"],
    [1517050,"2026-04-24 15:40:00","63547","2.269","158.3","2.842","154.7","1018.726","16.19","66.88","418.3","0.0"],
    [1517051,"2026-04-24 15:50:00","63548","2.135","152.1","2.7439999999999998","156.5","1018.681","16.18","66.94","431.1","0.0"],
    [1517052,"2026-04-24 16:00:00","63549","2.165","142.1","3.071","149.8","1018.641","16.25","65.9","402.5","0.0"],
    [1517053,"2026-04-24 16:10:00","63550","2.119","141.7","2.679","150.8","1018.574","16.22","66.7","391.9","0.0"],
    [1517054,"2026-04-24 16:20:00","63551","2.151","111.6","3.1689999999999996","97.9","1018.549","16.22","66.79","390.2","0.0"],
    [1517055,"2026-04-24 16:30:00","63552","1.7830000000000001","112.0","2.7769999999999997","109.6","1018.55","16.21","67.09","375.3","0.0"],
    [1517056,"2026-04-24 16:40:00","63553","2.02","113.8","2.7769999999999997","104.8","1018.461","16.23","67.25","306.2","0.0"],
    [1517057,"2026-04-24 16:50:00","63554","1.663","98.1","2.483","98.1","1018.371","16.28","67.93","268.7","0.0"],
    [1517058,"2026-04-24 17:00:00","63555","1.876","93.3","2.548","103.0","1018.312","16.19","67.27","268.3","0.0"],
    [1517059,"2026-04-24 17:10:00","63556","1.729","85.0","2.483","82.7","1018.308","16.13","68.33","217.1","0.0"],
    [1517060,"2026-04-24 17:20:00","63557","1.972","81.3","2.5810000000000004","85.2","1018.34","16.11","68.03","201.2","0.0"],
    [1517061,"2026-04-24 17:30:00","63558","1.761","75.66","2.9730000000000003","73.55","1018.232","16.1","68.9","172.8","0.0"],
    [1517062,"2026-04-24 17:40:00","63559","1.72","103.3","2.287","117.0","1018.167","16.06","67.83","134.2","0.0"],
    [1517063,"2026-04-24 17:50:00","63560","1.7","109.9","2.221","116.0","1018.134","16.02","68.21","82.8","0.0"],
    [1517064,"2026-04-24 18:00:00","63561","1.504","105.2","2.189","98.7","1018.12","16.0","69.48","67.09","0.0"],
    [1517065,"2026-04-24 18:10:00","63562","1.131","119.9","2.189","128.2","1018.082","15.95","69.5","34.55","0.0"],
    [1517066,"2026-04-24 18:20:00","63563","1.225","109.6","1.797","104.3","1018.156","15.9","70.12","0.0","0.0"],
    [1517067,"2026-04-24 18:30:00","63564","1.357","107.7","1.764","97.6","1018.128","15.88","71.1","0.0","0.0"],
    [1517068,"2026-04-24 18:40:00","63565","1.347","94.7","1.9269999999999998","94.4","1018.119","15.84","71.84","0.0","0.0"],
    [1517069,"2026-04-24 18:50:00","63566","0.934","84.4","1.829","80.3","1018.192","15.85","72.09","0.0","0.0"],
    [1517070,"2026-04-24 19:00:00","63567","1.301","82.8","1.797","83.3","1018.224","15.8","72.39","0.0","0.0"],
    [1517071,"2026-04-24 19:10:00","63568","1.128","83.8","1.601","62.18","1018.292","15.75","72.69","0.0","0.0"],
    [1517072,"2026-04-24 19:20:00","63569","0.8909999999999999","108.7","1.209","117.2","1018.312","15.72","73.29","0.0","0.0"],
    [1517073,"2026-04-24 19:30:00","63570","0.9","111.7","1.2409999999999999","130.0","1018.387","15.7","73.58","0.0","0.0"],
    [1517074,"2026-04-24 19:40:00","63571","1.148","114.5","1.633","131.3","1018.571","15.71","73.7","0.0","0.0"],
    [1517075,"2026-04-24 19:50:00","63572","1.19","112.9","1.405","103.9","1018.65","15.69","73.95","0.0","0.0"],
    [1517076,"2026-04-24 20:00:00","63573","1.3330000000000002","123.3","1.7309999999999999","122.5","1018.697","15.69","74.07","0.0","0.0"],
    [1517077,"2026-04-24 20:10:00","63574","0.9520000000000001","138.1","1.633","135.4","1018.749","15.7","74.38","0.0","0.0"],
    [1517078,"2026-04-24 20:20:00","63575","0.8270000000000001","149.4","1.307","140.4","1018.772","15.68","74.51","0.0","0.0"],
    [1517079,"2026-04-24 20:30:00","63576","0.708","159.4","1.143","151.9","1018.805","15.67","74.79","0.0","0.0"],
    [1517080,"2026-04-24 20:40:00","63577","0.8109999999999999","131.3","1.405","109.8","1018.771","15.66","75.01","0.0","0.0"],
    [1517081,"2026-04-24 20:50:00","63578","1.1059999999999999","102.7","1.47","95.7","1018.778","15.66","75.05","0.0","0.0"],
    [1517082,"2026-04-24 21:00:00","63579","1.297","109.5","1.633","102.5","1018.864","15.67","75.6","0.0","0.0"],
    [1517083,"2026-04-24 21:10:00","63580","1.08","125.9","1.633","135.4","1018.987","15.65","75.97","0.0","0.0"],
    [1517084,"2026-04-24 21:20:00","63581","1.1320000000000001","119.0","1.633","120.8","1018.984","15.62","75.83","0.0","0.0"],
    [1517085,"2026-04-24 21:30:00","63582","1.304","126.0","1.601","126.2","1019.026","15.62","76.55","0.0","0.0"],
    [1517086,"2026-04-24 21:40:00","63583","1.236","127.4","1.699","131.3","1019.142","15.59","77.31","0.0","0.0"],
    [1517087,"2026-04-24 21:50:00","63584","1.054","111.7","1.568","111.8","1019.175","15.59","77.74","0.0","0.0"],
    [1517088,"2026-04-24 22:00:00","63585","0.872","113.8","1.3719999999999999","100.6","1019.136","15.58","78.16","0.0","0.0"],
    [1517089,"2026-04-24 22:10:00","63586","0.9079999999999999","144.7","1.274","155.3","1019.164","15.56","78.13","0.0","0.0"],
    [1517090,"2026-04-24 22:20:00","63587","0.778","146.6","1.111","138.7","1019.146","15.54","78.54","0.0","0.0"],
    [1517091,"2026-04-24 22:30:00","63588","0.5760000000000001","160.2","1.143","150.4","1019.155","15.53","79.04","0.0","0.0"],
    [1517092,"2026-04-24 22:40:00","63589","0.622","171.5","0.9470000000000001","170.4","1019.13","15.51","79.6","0.0","0.0"],
    [1517093,"2026-04-24 22:50:00","63590","0.45299999999999996","193.7","0.8490000000000001","199.5","1019.142","15.52","79.76","0.0","0.0"],
    [1517094,"2026-04-24 23:00:00","63591","0.667","190.1","0.9470000000000001","215.3","1019.133","15.5","79.74","0.0","0.0"],
    [1517095,"2026-04-24 23:10:00","63592","0.46299999999999997","206.4","0.9470000000000001","209.2","1019.097","15.51","79.89","0.0","0.0"],
    [1517096,"2026-04-24 23:20:00","63593","0.7879999999999999","183.2","1.111","180.1","1019.028","15.5","80.1","0.0","0.0"],
    [1517097,"2026-04-24 23:30:00","63594","0.722","196.5","1.078","181.1","1018.987","15.52","79.86","0.0","0.0"],
    [1517098,"2026-04-24 23:40:00","63595","0.501","227.8","0.8490000000000001","219.1","1018.961","15.46","79.12","0.0","0.0"],
    [1517099,"2026-04-24 23:50:00","63596","0.9259999999999999","257.3","1.307","261.9","1018.916","15.42","78.65","0.0","0.0"],
    [1517100,"2026-04-25 00:00:00","63597","0.789","262.4","1.274","253.7","1018.777","15.31","78.7","0.0","0.0"],
    [1517101,"2026-04-25 00:10:00","63598","0.945","268.0","1.47","269.5","1018.656","15.19","77.99","0.0","0.0"],
    [1517102,"2026-04-25 00:20:00","63599","0.627","300.0","0.915","268.4","1018.512","15.15","77.84","0.0","0.0"],
    [1517103,"2026-04-25 00:30:00","63600","0.621","252.1","0.98","249.4","1018.463","15.18","78.16","0.0","0.0"],
    [1517104,"2026-04-25 00:40:00","63601","0.509","281.6","1.078","264.5","1018.267","15.12","78.13","0.0","0.0"],
    [1517105,"2026-04-25 00:50:00","63602","0.38299999999999995","299.0","0.6859999999999999","296.6","1018.097","15.11","79.18","0.0","0.0"],
    [1517106,"2026-04-25 01:00:00","63603","0.441","252.8","0.8490000000000001","260.4","1018.078","15.13","79.29","0.0","0.0"],
    [1517107,"2026-04-25 01:10:00","63604","0.21899999999999997","294.9","0.555","286.5","1017.919","15.12","79.29","0.0","0.0"],
    [1517108,"2026-04-25 01:20:00","63605","0.29600000000000004","7.768","0.784","20.29","1017.794","15.08","79.95","0.0","0.0"],
    [1517109,"2026-04-25 01:30:00","63606","0.106","38.75","0.588","30.53","1017.756","15.11","80.4","0.0","0.0"],
    [1517110,"2026-04-25 01:40:00","63607","0.0","0.0","0.0","0.0","1017.735","15.03","80.6","0.0","0.0"],
    [1517111,"2026-04-25 01:50:00","63608","0.0","0.0","0.0","0.0","1017.658","15.03","80.3","0.0","0.0"],
    [1517112,"2026-04-25 02:00:00","63609","0.0","0.0","0.0","0.0","1017.663","14.96","80.4","0.0","0.0"],
    [1517113,"2026-04-25 02:10:00","63610","0.33","184.6","0.7509999999999999","176.1","1017.717","14.94","80.8","0.0","0.0"],
    [1517114,"2026-04-25 02:20:00","63611","0.335","226.9","1.013","266.3","1017.822","14.67","77.23","0.0","0.0"],
    [1517115,"2026-04-25 02:30:00","63612","0.076","222.8","0.49","217.4","1017.851","14.52","75.26","0.0","0.0"],
    [1517116,"2026-04-25 02:40:00","63613","0.5579999999999999","233.4","1.078","233.1","1017.919","14.43","74.29","0.0","0.0"],
    [1517117,"2026-04-25 02:50:00","63614","0.785","246.6","1.535","256.2","1017.969","14.25","74.23","0.0","0.0"],
    [1517118,"2026-04-25 03:00:00","63615","1.4409999999999998","267.3","2.189","275.6","1018.005","13.95","73.37","0.0","0.0"],
    [1517119,"2026-04-25 03:10:00","63616","2.175","270.7","2.7110000000000003","269.6","1017.923","13.67","72.43","0.0","0.0"],
    [1517120,"2026-04-25 03:20:00","63617","2.033","266.7","2.483","271.0","1017.871","13.66","71.75","0.0","0.0"],
    [1517121,"2026-04-25 03:30:00","63618","1.933","274.4","2.189","271.0","1017.87","13.65","69.02","0.0","0.0"],
    [1517122,"2026-04-25 03:40:00","63619","2.165","265.9","2.483","268.0","1017.875","13.63","69.72","0.0","0.0"],
    [1517123,"2026-04-25 03:50:00","63620","1.936","268.1","2.515","273.4","1017.844","13.39","70.08","0.0","0.0"],
    [1517124,"2026-04-25 04:00:00","63621","1.896","265.5","2.287","262.1","1017.906","13.3","70.06","0.0","0.0"],
    [1517125,"2026-04-25 04:10:00","63622","1.921","270.0","2.352","270.1","1018.013","13.46","68.3","0.0","0.0"],
    [1517126,"2026-04-25 04:20:00","63623","1.8430000000000002","271.0","2.254","265.7","1017.972","13.44","69.29","0.0","0.0"],
    [1517127,"2026-04-25 04:30:00","63624","1.597","275.6","1.96","264.4","1017.933","13.26","70.0","0.0","0.0"],
    [1517128,"2026-04-25 04:40:00","63625","1.38","289.7","1.797","296.3","1017.923","13.36","70.32","0.0","0.0"],
    [1517129,"2026-04-25 04:50:00","63626","0.927","300.1","1.601","296.1","1017.956","13.59","70.46","0.0","0.0"],
    [1517130,"2026-04-25 05:00:00","63627","0.134","297.7","0.588","295.3","1017.971","13.74","71.02","0.0","0.0"],
    [1517131,"2026-04-25 05:10:00","63628","0.579","51.69","2.254","45.53","1018.041","14.06","72.9","0.0","0.0"],
    [1517132,"2026-04-25 05:20:00","63629","2.225","25.55","2.7769999999999997","27.91","1018.083","14.61","76.95","7.442","0.0"],
    [1517133,"2026-04-25 05:30:00","63630","1.527","19.49","2.907","36.2","1018.141","14.79","76.23","47.65","0.0"],
    [1517134,"2026-04-25 05:40:00","63631","1.249","13.75","1.895","12.34","1018.231","14.88","76.19","55.26","0.0"],
    [1517135,"2026-04-25 05:50:00","63632","1.097","327.0","2.0909999999999997","259.4","1018.229","14.96","75.42","67.2","0.0"],
    [1517136,"2026-04-25 06:00:00","63633","1.318","258.2","1.96","260.0","1018.334","14.37","71.52","118.9","0.0"],
    [1517137,"2026-04-25 06:10:00","63634","0.92","261.6","1.339","260.8","1018.416","14.38","70.06","134.3","0.0"],
    [1517138,"2026-04-25 06:20:00","63635","0.299","264.1","0.8490000000000001","263.0","1018.458","14.67","69.97","134.3","0.0"],
    [1517139,"2026-04-25 06:30:00","63636","0.519","259.6","1.111","255.7","1018.554","14.91","69.66","145.4","0.0"],
    [1517140,"2026-04-25 06:40:00","63637","0.826","227.5","1.666","230.0","1018.553","15.15","69.18","199.8","0.0"],
    [1517141,"2026-04-25 06:50:00","63638","0.39299999999999996","221.3","1.633","227.9","1018.623","15.43","67.91","201.3","0.0"],
    [1517142,"2026-04-25 07:00:00","63639","1.08","207.3","1.666","197.6","1018.714","15.58","66.78","254.0","0.0"],
    [1517143,"2026-04-25 07:10:00","63640","1.308","188.9","1.764","179.6","1018.803","15.53","68.14","270.9","0.0"],
    [1517144,"2026-04-25 07:20:00","63641","1.6840000000000002","172.3","2.189","163.3","1018.883","15.55","70.86","334.7","0.0"],
    [1517145,"2026-04-25 07:30:00","63642","2.175","168.2","2.45","174.0","1019.001","15.44","71.82","382.9","0.0"],
    [1517146,"2026-04-25 07:40:00","63643","1.854","152.2","2.287","152.0","1019.042","15.46","71.68","404.8","0.0"],
    [1517147,"2026-04-25 07:50:00","63644","1.909","150.7","2.385","147.1","1019.03","15.54","73.54","433.1","0.0"],
    [1517148,"2026-04-25 08:00:00","63645","2.085","149.3","2.5810000000000004","145.7","1019.073","15.47","75.56","452.4","0.0"],
    [1517149,"2026-04-25 08:10:00","63646","1.994","150.7","2.5810000000000004","154.6","1019.056","15.45","76.33","501.2","0.0"],
    [1517150,"2026-04-25 08:20:00","63647","2.238","146.9","2.5810000000000004","153.5","1019.002","15.39","77.21","545.2","0.0"],
    [1517151,"2026-04-25 08:30:00","63648","2.451","147.1","2.907","152.0","1019.088","15.43","77.83","570.2","0.0"],
    [1517152,"2026-04-25 08:40:00","63649","2.6319999999999997","148.1","2.9730000000000003","154.2","1019.164","15.43","79.52","582.6","0.0"],
    [1517153,"2026-04-25 08:50:00","63650","2.7430000000000003","147.7","3.332","139.5","1019.225","15.44","79.35","577.3","0.0"],
    [1517154,"2026-04-25 09:00:00","63651","2.721","148.7","3.234","155.7","1019.218","15.46","78.63","636.8","0.0"],
    [1517155,"2026-04-25 09:10:00","63652","2.8739999999999997","144.9","3.6910000000000003","148.8","1019.212","15.54","78.09","640.0","0.0"],
    [1517156,"2026-04-25 09:20:00","63653","2.94","141.0","3.6910000000000003","139.7","1019.192","15.63","78.94","704.5","0.0"],
    [1517157,"2026-04-25 09:30:00","63654","2.6189999999999998","140.5","3.201","142.4","1019.179","15.72","80.7","705.2","0.0"],
    [1517158,"2026-04-25 09:40:00","63655","2.7089999999999996","138.4","3.463","139.7","1019.138","15.71","81.0","754.5","0.0"],
    [1517159,"2026-04-25 09:50:00","63656","2.5580000000000003","139.8","3.495","144.0","1019.055","15.78","80.6","704.6","0.0"],
    [1517160,"2026-04-25 10:00:00","63657","2.722","115.3","3.365","132.8","1019.01","15.82","80.9","734.7","0.0"],
    [1517161,"2026-04-25 10:10:00","63658","2.674","116.5","3.528","112.3","1019.002","15.86","81.1","761.3","0.0"],
    [1517162,"2026-04-25 10:20:00","63659","2.7230000000000003","117.4","3.5610000000000004","121.6","1018.949","15.92","81.1","771.6","0.0"],
    [1517163,"2026-04-25 10:30:00","63660","2.696","127.1","3.495","121.8","1018.963","16.02","80.5","777.8","0.0"],
    [1517164,"2026-04-25 10:40:00","63661","2.432","132.4","3.136","112.7","1018.86","16.11","80.4","839.0","0.0"],
    [1517165,"2026-04-25 10:50:00","63662","2.7489999999999997","148.3","3.397","150.3","1018.839","16.13","79.91","839.0","0.0"],
    [1517166,"2026-04-25 11:00:00","63663","2.6060000000000003","158.5","3.43","160.9","1018.83","16.18","79.74","839.0","0.0"],
    [1517167,"2026-04-25 11:10:00","63664","2.452","153.3","3.103","152.3","1018.761","16.29","77.73","839.0","0.0"],
    [1517168,"2026-04-25 11:20:00","63665","2.964","161.3","3.659","163.4","1018.665","16.35","76.78","839.0","0.0"],
    [1517169,"2026-04-25 11:30:00","63666","3.228","164.1","3.659","162.2","1018.558","16.35","75.71","839.0","0.0"],
    [1517170,"2026-04-25 11:40:00","63667","3.387","167.5","3.7569999999999997","175.0","1018.474","16.44","74.77","810.0","0.0"],
    [1517171,"2026-04-25 11:50:00","63668","3.4819999999999998","167.8","3.985","169.5","1018.405","16.44","74.62","888.0","0.0"],
    [1517172,"2026-04-25 12:00:00","63669","3.7889999999999997","168.0","4.1160000000000005","169.8","1018.37","16.49","74.32","906.0","0.0"],
    [1517173,"2026-04-25 12:10:00","63670","3.658","167.0","4.149","166.9","1018.249","16.56","72.49","906.0","0.0"],
    [1517174,"2026-04-25 12:20:00","63671","3.755","167.6","4.312","171.7","1018.153","16.65","71.03","906.0","0.0"],
    [1517175,"2026-04-25 12:30:00","63672","3.617","164.4","4.181","166.1","1018.06","16.65","76.86","906.0","0.0"],
    [1517176,"2026-04-25 12:40:00","63673","3.469","166.0","4.083","167.6","1018.016","16.56","78.28","892.0","0.0"],
    [1517177,"2026-04-25 12:50:00","63674","3.673","161.8","4.1160000000000005","157.4","1018.071","16.58","78.95","840.0","0.0"],
    [1517178,"2026-04-25 13:00:00","63675","3.8539999999999996","164.9","4.2139999999999995","160.8","1018.005","16.55","79.26","839.0","0.0"],
    [1517179,"2026-04-25 13:10:00","63676","3.6919999999999997","169.2","4.247","181.1","1017.971","16.65","77.81","837.0","0.0"],
    [1517180,"2026-04-25 13:20:00","63677","3.995","169.2","4.4430000000000005","167.0","1017.941","16.65","77.4","837.0","0.0"],
    [1517181,"2026-04-25 13:30:00","63678","3.984","167.8","4.541","167.4","1017.887","16.68","77.62","784.9","0.0"],
    [1517182,"2026-04-25 13:40:00","63679","4.107","170.5","4.867","173.5","1017.87","16.72","78.22","771.4","0.0"],
    [1517183,"2026-04-25 13:50:00","63680","4.325","166.9","5.325","173.6","1017.802","16.77","79.16","771.4","0.0"],
    [1517184,"2026-04-25 14:00:00","63681","4.273","171.0","5.063","169.5","1017.758","16.73","81.3","753.2","0.0"],
    [1517185,"2026-04-25 14:10:00","63682","4.181","168.9","4.835","172.9","1017.699","16.69","81.6","704.4","0.0"],
    [1517186,"2026-04-25 14:20:00","63683","3.937","167.6","4.638999999999999","159.8","1017.631","16.72","81.7","695.9","0.0"],
    [1517187,"2026-04-25 14:30:00","63684","3.951","167.4","4.998","173.2","1017.593","16.74","80.9","680.8","0.0"],
    [1517188,"2026-04-25 14:40:00","63685","4.086","164.6","4.573","165.6","1017.565","16.72","81.3","637.3","0.0"],
    [1517189,"2026-04-25 14:50:00","63686","3.925","165.4","4.377","165.8","1017.572","16.72","81.6","594.9","0.0"],
    [1517190,"2026-04-25 15:00:00","63687","3.792","166.1","4.247","164.8","1017.558","16.74","81.3","569.6","0.0"],
    [1517191,"2026-04-25 15:10:00","63688","3.739","167.0","4.149","167.2","1017.48","16.77","80.6","570.2","0.0"],
    [1517192,"2026-04-25 15:20:00","63689","3.38","169.2","3.7239999999999998","167.1","1017.451","16.77","81.8","570.2","0.0"],
    [1517193,"2026-04-25 15:30:00","63690","3.241","165.6","3.7889999999999997","167.3","1017.483","16.8","82.8","519.7","0.0"],
    [1517194,"2026-04-25 15:40:00","63691","3.363","170.5","4.018","165.4","1017.513","16.8","82.3","500.2","0.0"],
    [1517195,"2026-04-25 15:50:00","63692","3.4560000000000004","171.1","4.083","168.3","1017.532","16.86","82.3","445.9","0.0"],
    [1517196,"2026-04-25 16:00:00","63693","3.5869999999999997","170.7","4.051","170.9","1017.503","16.9","81.7","424.5","0.0"],
    [1517197,"2026-04-25 16:10:00","63694","3.9130000000000003","169.8","4.867","170.0","1017.487","16.89","81.9","421.6","0.0"],
    [1517198,"2026-04-25 16:20:00","63695","4.144","170.2","4.965","173.9","1017.481","16.9","81.8","275.5","0.0"],
    [1517199,"2026-04-25 16:30:00","63696","4.01","173.5","4.867","179.6","1017.515","16.91","82.6","205.2","0.0"],
    [1517200,"2026-04-25 16:40:00","63697","3.79","171.2","4.279","169.4","1017.546","16.89","82.5","235.7","0.0"],
    [1517201,"2026-04-25 16:50:00","63698","3.675","173.9","4.247","177.1","1017.588","16.89","82.8","145.9","0.0"],
    [1517202,"2026-04-25 17:00:00","63699","3.92","173.7","4.508","173.8","1017.556","16.91","82.8","136.3","0.0"],
    [1517203,"2026-04-25 17:10:00","63700","3.925","175.9","4.573","173.3","1017.444","16.92","82.6","146.5","0.0"],
    [1517204,"2026-04-25 17:20:00","63701","3.909","173.4","4.769","173.0","1017.331","16.95","82.1","121.4","0.0"],
    [1517205,"2026-04-25 17:30:00","63702","3.861","175.3","4.638999999999999","172.4","1017.31","16.92","83.0","107.7","0.0"],
    [1517206,"2026-04-25 17:40:00","63703","3.937","176.2","4.475","172.3","1017.364","16.96","82.6","132.6","0.0"],
    [1517207,"2026-04-25 17:50:00","63704","4.06","174.0","4.638999999999999","173.7","1017.318","16.91","82.5","85.3","0.0"],
    [1517208,"2026-04-25 18:00:00","63705","3.365","178.1","4.149","176.1","1017.258","16.93","82.7","67.1","0.0"],
    [1517209,"2026-04-25 18:10:00","63706","3.543","177.9","4.41","174.7","1017.247","16.96","82.7","67.1","0.0"],
    [1517210,"2026-04-25 18:20:00","63707","2.458","196.8","4.018","177.9","1017.294","17.04","74.74","34.7","0.0"],
    [1517211,"2026-04-25 18:30:00","63708","1.9880000000000002","214.6","3.0380000000000003","218.1","1017.374","17.58","62.68","0.0","0.0"],
    [1517212,"2026-04-25 18:40:00","63709","2.505","203.9","3.43","197.1","1017.447","17.61","60.51","0.0","0.0"],
    [1517213,"2026-04-25 18:50:00","63710","2.685","204.2","3.659","191.8","1017.451","17.55","63.56","0.0","0.0"],
    [1517214,"2026-04-25 19:00:00","63711","2.391","206.6","3.6260000000000003","202.2","1017.589","17.41","66.73","0.0","0.0"],
    [1517215,"2026-04-25 19:10:00","63712","2.117","221.0","3.495","222.4","1017.785","17.39","69.15","0.0","0.0"],
    [1517216,"2026-04-25 19:20:00","63713","1.982","210.2","3.136","190.5","1017.884","17.37","74.52","0.0","0.0"],
    [1517217,"2026-04-25 19:30:00","63714","2.158","201.9","3.43","188.7","1017.938","17.22","77.43","0.0","0.0"],
    [1517218,"2026-04-25 19:40:00","63715","2.4859999999999998","204.9","4.083","190.0","1018.053","17.07","76.6","0.0","0.0"],
    [1517219,"2026-04-25 19:50:00","63716","2.176","211.0","3.234","220.7","1018.2","17.1","73.97","0.0","0.0"],
    [1517220,"2026-04-25 20:00:00","63717","2.0","216.8","3.397","225.6","1018.234","17.16","72.1","0.0","0.0"],
    [1517221,"2026-04-25 20:10:00","63718","1.202","244.5","2.123","215.9","1018.301","17.15","72.24","0.0","0.0"],
    [1517222,"2026-04-25 20:20:00","63719","1.672","212.0","2.907","200.9","1018.282","17.15","74.33","0.0","0.0"],
    [1517223,"2026-04-25 20:30:00","63720","1.251","218.8","2.189","203.5","1018.297","17.07","75.06","0.0","0.0"],
    [1517224,"2026-04-25 20:40:00","63721","1.396","209.3","2.0580000000000003","208.0","1018.258","17.07","76.63","0.0","0.0"],
    [1517225,"2026-04-25 20:50:00","63722","2.494","201.8","3.201","198.7","1018.204","16.93","79.7","0.0","0.0"],
    [1517226,"2026-04-25 21:00:00","63723","2.004","207.9","2.9730000000000003","205.6","1018.219","16.84","79.44","0.0","0.0"],
    [1517227,"2026-04-25 21:10:00","63724","1.515","223.8","2.679","216.1","1018.248","16.86","79.29","0.0","0.0"],
    [1517228,"2026-04-25 21:20:00","63725","1.5019999999999998","229.4","2.613","224.8","1018.21","16.86","78.86","0.0","0.0"],
    [1517229,"2026-04-25 21:30:00","63726","1.485","249.3","2.5810000000000004","233.6","1018.167","16.85","78.87","0.0","0.0"],
    [1517230,"2026-04-25 21:40:00","63727","1.791","246.9","3.005","257.2","1018.182","16.82","77.33","0.0","0.0"],
    [1517231,"2026-04-25 21:50:00","63728","1.6780000000000002","251.6","3.365","273.3","1018.181","16.83","76.62","0.0","0.0"],
    [1517232,"2026-04-25 22:00:00","63729","1.425","241.6","3.071","270.2","1018.177","16.83","76.84","0.0","0.0"],
    [1517233,"2026-04-25 22:10:00","63730","1.444","217.7","2.8089999999999997","191.6","1018.123","16.82","77.48","0.0","0.0"],
    [1517234,"2026-04-25 22:20:00","63731","1.8119999999999998","209.4","3.0380000000000003","210.4","1018.083","16.78","78.7","0.0","0.0"],
    [1517235,"2026-04-25 22:30:00","63732","1.445","235.6","2.483","261.0","1018.035","16.76","78.53","0.0","0.0"],
    [1517236,"2026-04-25 22:40:00","63733","1.4669999999999999","222.5","2.6460000000000004","257.9","1018.024","16.73","79.29","0.0","0.0"],
    [1517237,"2026-04-25 22:50:00","63734","1.298","239.5","2.385","269.1","1018.045","16.7","79.48","0.0","0.0"],
    [1517238,"2026-04-25 23:00:00","63735","1.34","229.0","2.613","237.5","1018.043","16.66","80.0","0.0","0.0"],
    [1517239,"2026-04-25 23:10:00","63736","1.44","242.2","2.515","221.9","1018.044","16.64","79.74","0.0","0.0"],
    [1517240,"2026-04-25 23:20:00","63737","1.6269999999999998","247.3","3.6260000000000003","248.6","1018.017","16.6","79.4","0.0","0.0"],
    [1517241,"2026-04-25 23:30:00","63738","1.901","253.5","4.2139999999999995","260.2","1018.03","16.59","79.28","0.0","0.0"],
    [1517242,"2026-04-25 23:40:00","63739","1.713","253.4","3.299","267.6","1017.912","16.56","79.52","0.0","0.0"],
    [1517243,"2026-04-25 23:50:00","63740","2.08","255.6","3.7569999999999997","261.5","1017.827","16.52","79.53","0.0","0.0"],
    [1517244,"2026-04-26 00:00:00","63741","1.349","245.6","2.548","261.8","1017.768","16.44","79.14","0.0","0.0"],
    [1517245,"2026-04-26 00:10:00","63742","1.26","270.1","2.123","270.6","1017.648","16.38","78.23","0.0","0.0"],
    [1517246,"2026-04-26 00:20:00","63743","1.579","278.8","2.221","268.3","1017.584","16.31","74.98","0.0","0.0"],
    [1517247,"2026-04-26 00:30:00","63744","1.431","268.7","2.025","261.4","1017.535","16.28","74.04","0.0","0.0"],
    [1517248,"2026-04-26 00:40:00","63745","1.2670000000000001","247.2","2.156","249.7","1017.507","16.31","74.58","0.0","0.0"],
    [1517249,"2026-04-26 00:50:00","63746","0.912","227.4","2.0580000000000003","240.3","1017.509","16.4","74.34","0.0","0.0"],
    [1517250,"2026-04-26 01:00:00","63747","0.797","253.6","1.601","265.3","1017.471","16.35","72.36","0.0","0.0"],
    [1517251,"2026-04-26 01:10:00","63748","0.019","165.5","0.294","151.3","1017.457","16.29","72.45","0.0","0.0"],
    [1517252,"2026-04-26 01:20:00","63749","0.0","0.0","0.0","0.0","1017.389","16.23","72.3","0.0","0.0"],
    [1517253,"2026-04-26 01:30:00","63750","0.531","171.4","0.6859999999999999","151.9","1017.399","16.36","74.24","0.0","0.0"],
    [1517254,"2026-04-26 01:40:00","63751","0.221","203.1","0.588","202.9","1017.465","16.23","76.04","0.0","0.0"],
    [1517255,"2026-04-26 01:50:00","63752","0.733","145.1","1.045","137.6","1017.484","16.15","74.93","0.0","0.0"],
    [1517256,"2026-04-26 02:00:00","63753","0.341","150.1","0.621","156.3","1017.515","16.18","74.14","0.0","0.0"],
    [1517257,"2026-04-26 02:10:00","63754","0.36","35.53","1.013","32.13","1017.554","16.09","74.03","0.0","0.0"],
    [1517258,"2026-04-26 02:20:00","63755","1.8869999999999998","37.8","3.528","29.7","1017.549","16.19","75.02","0.0","0.0"],
    [1517259,"2026-04-26 02:30:00","63756","3.3080000000000003","24.22","5.194","32.68","1017.588","16.23","71.78","0.0","0.0"],
    [1517260,"2026-04-26 02:40:00","63757","5.058","36.6","6.0760000000000005","37.42","1017.674","16.24","65.63","0.0","0.0"],
    [1517261,"2026-04-26 02:50:00","63758","5.037","37.94","6.5329999999999995","46.1","1017.648","16.12","65.71","0.0","0.0"],
    [1517262,"2026-04-26 03:00:00","63759","4.231","32.87","5.063","26.32","1017.688","16.15","68.21","0.0","0.0"],
    [1517263,"2026-04-26 03:10:00","63760","3.699","32.66","4.541","35.0","1017.689","16.29","78.29","0.0","0.0"],
    [1517264,"2026-04-26 03:20:00","63761","3.531","27.47","4.279","33.51","1017.643","16.23","83.9","0.0","0.0"],
    [1517265,"2026-04-26 03:30:00","63762","2.818","19.59","4.149","16.87","1017.677","16.11","84.6","0.0","0.0"],
    [1517266,"2026-04-26 03:40:00","63763","2.515","1.354","3.463","15.52","1017.773","16.03","79.5","0.0","0.0"],
    [1517267,"2026-04-26 03:50:00","63764","1.756","359.9","2.45","353.5","1017.886","16.07","76.37","0.0","0.0"],
    [1517268,"2026-04-26 04:00:00","63765","1.774","13.41","2.515","21.5","1017.971","16.06","77.61","0.0","0.0"],
    [1517269,"2026-04-26 04:10:00","63766","2.977","24.99","3.9530000000000003","30.55","1018.036","16.13","82.2","0.0","0.0"],
    [1517270,"2026-04-26 04:20:00","63767","3.7880000000000003","31.32","4.508","28.49","1018.042","16.04","87.6","0.0","0.0"],
    [1517271,"2026-04-26 04:30:00","63768","3.1069999999999998","33.24","4.051","35.94","1018.087","15.95","88.0","0.0","0.0"],
    [1517272,"2026-04-26 04:40:00","63769","2.884","35.27","3.5610000000000004","28.36","1018.147","15.89","87.5","0.0","0.0"],
    [1517273,"2026-04-26 04:50:00","63770","2.725","29.15","3.495","37.32","1018.202","15.85","87.4","0.0","0.0"],
    [1517274,"2026-04-26 05:00:00","63771","2.6710000000000003","13.97","3.397","18.49","1018.246","15.92","88.1","0.0","0.0"],
    [1517275,"2026-04-26 05:10:00","63772","2.025","15.81","3.0380000000000003","16.3","1018.299","15.98","88.2","0.0","0.0"],
    [1517276,"2026-04-26 05:20:00","63773","2.13","12.99","2.6460000000000004","9.3","1018.363","15.93","87.3","0.0","0.0"],
    [1517277,"2026-04-26 05:30:00","63774","1.203","2.135","2.319","4.57","1018.49","16.02","86.4","31.02","0.0"],
    [1517278,"2026-04-26 05:40:00","63775","2.075","28.19","2.352","31.02","1018.541","16.09","86.0","67.13","0.0"],
    [1517279,"2026-04-26 05:50:00","63776","2.371","29.36","2.679","33.51","1018.657","16.13","86.6","71.97","0.0"],
    [1517280,"2026-04-26 06:00:00","63777","2.0580000000000003","18.5","2.5810000000000004","21.96","1018.753","16.18","86.7","94.1","0.0"],
    [1517281,"2026-04-26 06:10:00","63778","1.5719999999999998","19.68","2.254","11.73","1018.878","16.33","85.9","125.9","0.0"],
    [1517282,"2026-04-26 06:20:00","63779","1.643","26.04","2.0909999999999997","28.16","1019.011","16.5","85.0","150.1","0.0"],
    [1517283,"2026-04-26 06:30:00","63780","1.053","26.82","1.47","38.01","1019.116","16.58","84.5","162.0","0.0"],
    [1517284,"2026-04-26 06:40:00","63781","0.64","359.6","1.045","31.85","1019.131","16.71","83.4","201.3","0.0"],
    [1517285,"2026-04-26 06:50:00","63782","0.645","55.81","1.176","62.79","1019.133","16.81","83.1","206.8","0.0"],
    [1517286,"2026-04-26 07:00:00","63783","0.731","49.15","1.633","35.12","1019.099","17.21","81.2","266.8","0.0"],
    [1517287,"2026-04-26 07:10:00","63784","1.061","61.03","2.156","100.4","1019.161","17.12","81.4","274.8","0.0"],
    [1517288,"2026-04-26 07:20:00","63785","0.9209999999999999","81.9","1.9269999999999998","103.5","1019.187","17.08","82.0","330.0","0.0"],
    [1517289,"2026-04-26 07:30:00","63786","1.297","63.74","2.483","41.06","1019.211","17.13","81.0","344.0","0.0"],
    [1517290,"2026-04-26 07:40:00","63787","1.511","41.87","2.189","35.48","1019.212","17.0","81.0","402.5","0.0"],
    [1517291,"2026-04-26 07:50:00","63788","1.2990000000000002","27.63","1.797","29.84","1019.225","17.16","80.4","426.9","0.0"],
    [1517292,"2026-04-26 08:00:00","63789","1.376","69.8","2.0580000000000003","91.0","1019.329","17.2","80.6","448.9","0.0"],
    [1517293,"2026-04-26 08:10:00","63790","1.665","99.7","2.385","91.6","1019.393","17.12","80.5","503.1","0.0"],
    [1517294,"2026-04-26 08:20:00","63791","1.454","107.7","2.0909999999999997","103.0","1019.448","17.18","80.9","541.8","0.0"],
    [1517295,"2026-04-26 08:30:00","63792","1.6280000000000001","120.2","2.0580000000000003","111.5","1019.514","17.22","80.4","570.2","0.0"],
    [1517296,"2026-04-26 08:40:00","63793","1.985","118.1","2.417","117.5","1019.537","17.17","81.4","600.8","0.0"],
    [1517297,"2026-04-26 08:50:00","63794","1.838","136.4","2.319","115.7","1019.588","17.19","82.2","637.3","0.0"],
    [1517298,"2026-04-26 09:00:00","63795","2.069","153.9","2.6460000000000004","152.3","1019.563","17.08","83.1","670.6","0.0"],
    [1517299,"2026-04-26 09:10:00","63796","2.5639999999999996","152.8","2.875","152.4","1019.58","17.0","84.5","704.3","0.0"],
    [1517300,"2026-04-26 09:20:00","63797","2.623","147.9","3.1689999999999996","140.1","1019.629","16.99","85.2","699.3","0.0"],
    [1517301,"2026-04-26 09:30:00","63798","2.775","147.8","3.365","147.3","1019.615","16.94","85.3","722.9","0.0"],
    [1517302,"2026-04-26 09:40:00","63799","2.6860000000000004","147.3","3.365","144.2","1019.603","16.97","85.4","770.4","0.0"],
    [1517303,"2026-04-26 09:50:00","63800","2.6860000000000004","150.9","3.528","154.4","1019.629","17.0","85.8","763.1","0.0"],
    [1517304,"2026-04-26 10:00:00","63801","2.539","156.5","2.94","147.6","1019.66","16.99","85.9","768.2","0.0"],
    [1517305,"2026-04-26 10:10:00","63802","2.086","148.9","2.679","144.8","1019.674","17.11","85.4","771.4","0.0"],
    [1517306,"2026-04-26 10:20:00","63803","2.228","145.4","2.8089999999999997","142.6","1019.708","17.17","84.9","761.8","0.0"],
    [1517307,"2026-04-26 10:30:00","63804","2.166","145.3","2.679","141.4","1019.746","17.2","84.6","769.6","0.0"],
    [1517308,"2026-04-26 10:40:00","63805","2.076","131.0","2.6460000000000004","135.5","1019.751","17.35","83.8","782.3","0.0"],
    [1517309,"2026-04-26 10:50:00","63806","1.9169999999999998","125.7","2.45","124.5","1019.792","17.54","82.7","838.0","0.0"],
    [1517310,"2026-04-26 11:00:00","63807","2.3609999999999998","143.5","3.136","140.1","1019.786","17.55","82.7","842.0","0.0"],
    [1517311,"2026-04-26 11:10:00","63808","2.426","155.7","2.94","156.2","1019.783","17.51","83.4","868.0","0.0"],
    [1517312,"2026-04-26 11:20:00","63809","2.2880000000000003","169.1","2.8089999999999997","167.1","1019.697","17.46","84.1","875.0","0.0"],
    [1517313,"2026-04-26 11:30:00","63810","2.181","171.3","2.45","165.0","1019.613","17.44","83.9","900.0","0.0"],
    [1517314,"2026-04-26 11:40:00","63811","2.467","170.3","2.875","170.3","1019.557","17.39","84.7","905.0","0.0"],
    [1517315,"2026-04-26 11:50:00","63812","2.6639999999999997","173.5","2.9730000000000003","174.8","1019.46","17.37","84.8","905.0","0.0"],
    [1517316,"2026-04-26 12:00:00","63813","2.764","173.2","3.005","172.1","1019.392","17.4","85.0","906.0","0.0"],
    [1517317,"2026-04-26 12:10:00","63814","2.9610000000000003","173.0","3.365","173.8","1019.329","17.41","84.3","905.0","0.0"],
    [1517318,"2026-04-26 12:20:00","63815","3.299","170.6","3.6260000000000003","169.3","1019.343","17.48","83.5","888.0","0.0"],
    [1517319,"2026-04-26 12:30:00","63816","3.361","174.3","3.7239999999999998","173.8","1019.323","17.58","83.0","867.0","0.0"],
    [1517320,"2026-04-26 12:40:00","63817","3.2539999999999996","174.5","3.855","177.4","1019.318","17.6","81.9","842.0","0.0"],
    [1517321,"2026-04-26 12:50:00","63818","3.3160000000000003","169.3","4.051","164.4","1019.323","17.73","80.4","839.0","0.0"],
    [1517322,"2026-04-26 13:00:00","63819","4.314","168.2","4.998","169.5","1019.275","17.72","80.7","839.0","0.0"],
    [1517323,"2026-04-26 13:10:00","63820","4.452","172.8","5.063","171.0","1019.208","17.74","81.0","839.0","0.0"],
    [1517324,"2026-04-26 13:20:00","63821","3.508","178.9","4.835","172.2","1019.145","17.95","77.28","839.0","0.0"],
    [1517325,"2026-04-26 13:30:00","63822","4.004","173.0","4.867","172.6","1019.113","18.06","75.64","797.5","0.0"],
    [1517326,"2026-04-26 13:40:00","63823","4.65","173.9","5.39","171.2","1019.017","18.2","75.61","771.4","0.0"],
    [1517327,"2026-04-26 13:50:00","63824","4.64","174.9","5.422999999999999","173.7","1018.905","18.25","78.26","771.4","0.0"],
    [1517328,"2026-04-26 14:00:00","63825","4.486000000000001","173.6","5.096","170.9","1018.755","18.1","81.0","761.2","0.0"],
    [1517329,"2026-04-26 14:10:00","63826","4.448","177.3","5.2589999999999995","176.8","1018.709","18.13","81.9","706.5","0.0"],
    [1517330,"2026-04-26 14:20:00","63827","4.3469999999999995","177.2","5.063","173.6","1018.669","18.08","82.1","704.3","0.0"],
    [1517331,"2026-04-26 14:30:00","63828","4.368","175.9","5.2589999999999995","174.9","1018.653","17.99","82.2","690.9","0.0"],
    [1517332,"2026-04-26 14:40:00","63829","4.178999999999999","176.0","5.1610000000000005","171.2","1018.649","18.08","81.7","637.3","0.0"],
    [1517333,"2026-04-26 14:50:00","63830","4.774","175.1","5.7170000000000005","175.0","1018.597","17.95","83.1","636.7","0.0"],
    [1517334,"2026-04-26 15:00:00","63831","4.763","173.5","5.586","172.7","1018.633","17.9","83.3","596.9","0.0"],
    [1517335,"2026-04-26 15:10:00","63832","4.44","173.1","5.096","172.3","1018.615","17.83","83.2","570.1","0.0"],
    [1517336,"2026-04-26 15:20:00","63833","4.437","173.7","5.031000000000001","171.1","1018.599","17.86","82.5","550.6","0.0"],
    [1517337,"2026-04-26 15:30:00","63834","3.63","178.7","4.867","174.7","1018.681","18.09","81.0","503.0","0.0"],
    [1517338,"2026-04-26 15:40:00","63835","3.318","175.5","4.377","169.7","1018.645","18.28","78.21","495.9","0.0"],
    [1517339,"2026-04-26 15:50:00","63836","3.318","173.2","4.377","171.0","1018.585","18.29","78.31","437.3","0.0"],
    [1517340,"2026-04-26 16:00:00","63837","3.2060000000000004","170.6","3.9530000000000003","173.0","1018.495","18.41","75.49","434.3","0.0"],
    [1517341,"2026-04-26 16:10:00","63838","2.5839999999999996","174.8","3.495","163.6","1018.439","18.45","76.43","402.4","0.0"],
    [1517342,"2026-04-26 16:20:00","63839","1.48","172.0","2.515","188.1","1018.47","18.75","63.47","400.2","0.0"],
    [1517343,"2026-04-26 16:30:00","63840","0.991","161.3","1.96","185.9","1018.543","19.33","55.6","336.0","0.0"],
    [1517344,"2026-04-26 16:40:00","63841","0.975","144.0","1.96","160.9","1018.564","19.92","47.1","330.4","0.0"],
    [1517345,"2026-04-26 16:50:00","63842","1.435","151.6","1.9269999999999998","157.9","1018.436","20.14","45.42","269.6","0.0"],
    [1517346,"2026-04-26 17:00:00","63843","1.121","150.6","1.601","159.8","1018.424","20.12","45.41","268.2","0.0"],
    [1517347,"2026-04-26 17:10:00","63844","0.9359999999999999","128.4","1.4369999999999998","134.8","1018.394","20.18","46.03","211.0","0.0"],
    [1517348,"2026-04-26 17:20:00","63845","0.807","110.9","1.2409999999999999","107.3","1018.367","20.33","45.61","201.2","0.0"],
    [1517349,"2026-04-26 17:30:00","63846","0.997","136.0","1.764","140.1","1018.323","20.31","46.74","172.5","0.0"],
    [1517350,"2026-04-26 17:40:00","63847","1.9269999999999998","145.7","2.287","149.6","1018.282","20.14","45.5","134.1","0.0"],
    [1517351,"2026-04-26 17:50:00","63848","1.671","142.5","2.025","143.0","1018.349","19.92","46.11","130.3","0.0"],
    [1517352,"2026-04-26 18:00:00","63849","1.695","151.2","2.156","148.0","1018.434","19.55","52.79","67.87","0.0"],
    [1517353,"2026-04-26 18:10:00","63850","2.306","146.5","2.515","150.6","1018.402","19.3","53.36","67.06","0.0"],
    [1517354,"2026-04-26 18:20:00","63851","2.267","156.4","2.548","159.5","1018.394","19.13","56.59","55.74","0.0"],
    [1517355,"2026-04-26 18:30:00","63852","2.033","160.7","2.221","155.6","1018.463","18.94","59.62","0.027999999999999997","0.0"],
    [1517356,"2026-04-26 18:40:00","63853","2.123","172.9","2.842","186.9","1018.566","18.54","63.14","0.0","0.0"],
    [1517357,"2026-04-26 18:50:00","63854","2.201","179.1","2.842","186.9","1018.647","18.7","61.97","0.0","0.0"],
    [1517358,"2026-04-26 19:00:00","63855","2.798","176.2","3.397","170.9","1018.742","18.3","77.29","0.0","0.0"],
    [1517359,"2026-04-26 19:10:00","63856","3.0589999999999997","176.4","3.887","174.5","1018.834","17.85","85.2","0.0","0.0"],
    [1517360,"2026-04-26 19:20:00","63857","3.42","184.1","4.573","189.1","1018.846","17.74","86.8","0.0","0.0"],
    [1517361,"2026-04-26 19:30:00","63858","3.886","188.6","4.867","190.1","1018.863","17.77","87.2","0.0","0.0"],
    [1517362,"2026-04-26 19:40:00","63859","3.197","194.2","4.638999999999999","192.2","1018.927","17.75","85.0","0.0","0.0"],
    [1517363,"2026-04-26 19:50:00","63860","1.51","222.4","3.299","209.5","1019.114","18.18","74.99","0.0","0.0"],
    [1517364,"2026-04-26 20:00:00","63861","1.865","251.9","2.9730000000000003","264.4","1019.191","18.29","77.76","0.0","0.0"],
    [1517365,"2026-04-26 20:10:00","63862","1.6640000000000001","245.7","2.7439999999999998","234.1","1019.338","18.21","78.67","0.0","0.0"],
    [1517366,"2026-04-26 20:20:00","63863","1.6230000000000002","239.2","2.8089999999999997","252.5","1019.323","18.24","77.17","0.0","0.0"],
    [1517367,"2026-04-26 20:30:00","63864","1.764","244.6","2.9730000000000003","229.0","1019.294","18.36","72.75","0.0","0.0"],
    [1517368,"2026-04-26 20:40:00","63865","1.2930000000000001","213.7","2.6460000000000004","173.5","1019.376","18.42","76.65","0.0","0.0"],
    [1517369,"2026-04-26 20:50:00","63866","2.1430000000000002","202.0","3.397","197.4","1019.371","18.2","78.99","0.0","0.0"],
    [1517370,"2026-04-26 21:00:00","63867","1.6269999999999998","215.8","2.9730000000000003","195.4","1019.406","18.15","78.89","0.0","0.0"],
    [1517371,"2026-04-26 21:10:00","63868","2.331","203.8","3.92","195.0","1019.441","18.12","80.2","0.0","0.0"],
    [1517372,"2026-04-26 21:20:00","63869","1.2670000000000001","225.0","2.189","203.0","1019.483","18.03","82.7","0.0","0.0"],
    [1517373,"2026-04-26 21:30:00","63870","2.855","204.9","5.749","205.0","1019.521","17.94","83.4","0.0","0.0"],
    [1517374,"2026-04-26 21:40:00","63871","2.639","213.2","4.737","211.5","1019.528","17.82","84.2","0.0","0.0"],
    [1517375,"2026-04-26 21:50:00","63872","1.6269999999999998","238.7","3.267","254.9","1019.535","17.87","83.9","0.0","0.0"],
    [1517376,"2026-04-26 22:00:00","63873","2.0580000000000003","237.1","3.985","271.5","1019.487","17.9","83.5","0.0","0.0"],
    [1517377,"2026-04-26 22:10:00","63874","2.031","220.1","3.299","218.1","1019.439","17.86","83.5","0.0","0.0"],
    [1517378,"2026-04-26 22:20:00","63875","1.936","242.9","3.7239999999999998","262.8","1019.352","17.86","83.9","0.0","0.0"],
    [1517379,"2026-04-26 22:30:00","63876","2.093","248.8","4.638999999999999","261.1","1019.271","17.78","83.5","0.0","0.0"],
    [1517380,"2026-04-26 22:40:00","63877","2.315","248.1","3.92","258.7","1019.223","17.81","81.8","0.0","0.0"],
    [1517381,"2026-04-26 22:50:00","63878","1.486","239.2","4.083","270.6","1019.222","17.86","80.8","0.0","0.0"],
    [1517382,"2026-04-26 23:00:00","63879","1.653","243.9","3.332","230.5","1019.216","17.84","80.5","0.0","0.0"],
    [1517383,"2026-04-26 23:10:00","63880","1.565","251.1","2.5810000000000004","262.8","1019.122","17.75","80.1","0.0","0.0"],
    [1517384,"2026-04-26 23:20:00","63881","1.4569999999999999","247.7","2.254","261.2","1019.13","17.72","79.24","0.0","0.0"],
    [1517385,"2026-04-26 23:30:00","63882","1.4909999999999999","249.7","2.6460000000000004","252.6","1019.107","17.74","79.04","0.0","0.0"],
    [1517386,"2026-04-26 23:40:00","63883","1.055","232.2","2.0909999999999997","267.5","1019.085","17.73","78.88","0.0","0.0"],
    [1517387,"2026-04-26 23:50:00","63884","1.067","227.6","1.9269999999999998","224.7","1019.075","17.72","77.18","0.0","0.0"],
    [1517388,"2026-04-27 00:00:00","63885","0.775","260.6","1.568","256.8","1018.958","17.75","76.19","0.0","0.0"],
    [1517389,"2026-04-27 00:10:00","63886","0.7879999999999999","248.7","1.699","266.5","1018.835","17.6","74.51","0.0","0.0"],
    [1517390,"2026-04-27 00:20:00","63887","0.268","245.1","0.9470000000000001","250.7","1018.76","17.65","74.57","0.0","0.0"],
    [1517391,"2026-04-27 00:30:00","63888","1.094","260.4","1.895","256.0","1018.738","17.45","70.61","0.0","0.0"],
    [1517392,"2026-04-27 00:40:00","63889","0.66","254.1","1.8619999999999999","288.6","1018.628","17.29","62.58","0.0","0.0"],
    [1517393,"2026-04-27 00:50:00","63890","1.014","236.9","1.699","265.1","1018.514","17.28","60.09","0.0","0.0"],
    [1517394,"2026-04-27 01:00:00","63891","0.8170000000000001","237.7","1.5030000000000001","226.5","1018.403","17.32","59.01","0.0","0.0"],
    [1517395,"2026-04-27 01:10:00","63892","0.887","219.2","1.307","197.8","1018.296","17.21","58.4","0.0","0.0"],
    [1517396,"2026-04-27 01:20:00","63893","1.032","250.2","1.666","248.3","1018.25","17.08","57.63","0.0","0.0"],
    [1517397,"2026-04-27 01:30:00","63894","0.382","235.4","1.045","259.6","1018.161","17.12","57.27","0.0","0.0"],
    [1517398,"2026-04-27 01:40:00","63895","1.137","246.1","1.895","264.2","1018.096","17.02","56.53","0.0","0.0"],
    [1517399,"2026-04-27 01:50:00","63896","1.187","258.2","2.483","260.3","1018.092","16.87","56.33","0.0","0.0"],
    [1517400,"2026-04-27 02:00:00","63897","2.315","259.5","3.5610000000000004","253.5","1018.076","16.6","55.57","0.0","0.0"],
    [1517401,"2026-04-27 02:10:00","63898","2.035","255.3","3.463","265.1","1018.084","16.42","55.74","0.0","0.0"],
    [1517402,"2026-04-27 02:20:00","63899","2.8760000000000003","249.0","4.541","254.8","1018.08","16.55","53.93","0.0","0.0"],
    [1517403,"2026-04-27 02:30:00","63900","2.1319999999999997","254.9","3.92","250.9","1018.118","16.76","55.02","0.0","0.0"],
    [1517404,"2026-04-27 02:40:00","63901","1.9969999999999999","261.7","3.5610000000000004","262.5","1018.117","16.89","54.97","0.0","0.0"],
    [1517405,"2026-04-27 02:50:00","63902","1.1059999999999999","268.6","2.0909999999999997","253.4","1018.118","17.01","54.11","0.0","0.0"],
    [1517406,"2026-04-27 03:00:00","63903","0.6920000000000001","248.6","1.666","245.7","1018.056","17.03","53.02","0.0","0.0"],
    [1517407,"2026-04-27 03:10:00","63904","1.518","227.9","2.45","222.4","1017.992","17.49","50.46","0.0","0.0"],
    [1517408,"2026-04-27 03:20:00","63905","1.564","195.2","2.221","186.7","1017.972","17.57","52.33","0.0","0.0"],
    [1517409,"2026-04-27 03:30:00","63906","0.862","209.9","1.993","194.4","1017.994","17.46","52.25","0.0","0.0"],
    [1517410,"2026-04-27 03:40:00","63907","0.146","347.2","1.209","206.4","1018.028","17.5","52.32","0.0","0.0"],
    [1517411,"2026-04-27 03:50:00","63908","1.1179999999999999","229.1","1.7309999999999999","247.2","1018.042","17.55","52.27","0.0","0.0"],
    [1517412,"2026-04-27 04:00:00","63909","1.558","250.4","3.365","268.1","1018.003","17.41","54.75","0.0","0.0"],
    [1517413,"2026-04-27 04:10:00","63910","1.64","275.4","3.005","264.8","1018.104","17.22","56.43","0.0","0.0"],
    [1517414,"2026-04-27 04:20:00","63911","1.7169999999999999","250.9","3.005","256.6","1018.109","17.18","56.69","0.0","0.0"],
    [1517415,"2026-04-27 04:30:00","63912","1.7990000000000002","247.9","3.103","257.1","1018.118","17.28","52.69","0.0","0.0"],
    [1517416,"2026-04-27 04:40:00","63913","1.5519999999999998","258.3","2.45","262.9","1018.179","17.35","53.57","0.0","0.0"],
    [1517417,"2026-04-27 04:50:00","63914","1.157","271.3","1.764","259.8","1018.252","17.36","54.89","0.0","0.0"],
    [1517418,"2026-04-27 05:00:00","63915","1.8330000000000002","294.4","2.679","303.0","1018.24","17.4","54.52","0.0","0.0"],
    [1517419,"2026-04-27 05:10:00","63916","1.858","281.9","2.6460000000000004","293.0","1018.261","17.39","53.13","0.0","0.0"],
    [1517420,"2026-04-27 05:20:00","63917","2.064","268.5","2.679","263.5","1018.277","17.4","52.23","1.929","0.0"],
    [1517421,"2026-04-27 05:30:00","63918","1.6030000000000002","261.2","2.189","256.0","1018.429","17.39","53.44","1.5659999999999998","0.0"],
    [1517422,"2026-04-27 05:40:00","63919","0.267","219.0","1.3719999999999999","217.9","1018.53","17.4","54.49","56.29","0.0"],
    [1517423,"2026-04-27 05:50:00","63920","0.0","0.0","0.0","0.0","1018.598","17.46","55.93","67.11","0.0"],
    [1517424,"2026-04-27 06:00:00","63921","0.0","0.0","0.0","0.0","1018.699","17.7","54.95","77.79","0.0"],
    [1517425,"2026-04-27 06:10:00","63922","0.0","0.0","0.0","0.0","1018.756","17.84","55.55","85.1","0.0"],
    [1517426,"2026-04-27 06:20:00","63923","0.0","0.0","0.0","0.0","1018.849","17.8","56.57","133.1","0.0"],
    [1517427,"2026-04-27 06:30:00","63924","0.004","123.6","0.7190000000000001","123.4","1018.943","18.13","55.44","95.5","0.0"],
    [1517428,"2026-04-27 06:40:00","63925","1.202","141.6","2.319","161.6","1018.972","17.8","60.26","134.2","0.0"],
    [1517429,"2026-04-27 06:50:00","63926","0.975","142.5","1.307","157.5","1019.067","17.82","61.92","134.2","0.0"],
    [1517430,"2026-04-27 07:00:00","63927","1.501","133.8","2.319","120.7","1019.086","17.75","64.32","217.6","0.0"],
    [1517431,"2026-04-27 07:10:00","63928","1.6280000000000001","115.4","2.515","104.1","1019.055","17.8","68.81","375.0","0.0"],
    [1517432,"2026-04-27 07:20:00","63929","1.9380000000000002","89.6","3.1689999999999996","85.2","1019.076","17.71","75.57","402.7","0.0"],
    [1517433,"2026-04-27 07:30:00","63930","1.421","65.81","2.7439999999999998","46.56","1019.107","17.8","77.08","435.9","0.0"],
    [1517434,"2026-04-27 07:40:00","63931","2.275","62.98","3.887","61.28","1019.076","17.82","76.8","441.5","0.0"],
    [1517435,"2026-04-27 07:50:00","63932","2.319","57.05","3.495","42.88","1019.057","17.75","78.54","504.8","0.0"],
    [1517436,"2026-04-27 08:00:00","63933","1.926","58.67","3.659","41.78","1019.088","17.73","79.55","564.5","0.0"],
    [1517437,"2026-04-27 08:10:00","63934","1.454","84.1","2.613","34.27","1019.151","17.92","80.5","575.3","0.0"],
    [1517438,"2026-04-27 08:20:00","63935","2.057","94.3","3.7889999999999997","101.9","1019.145","17.73","81.7","624.0","0.0"],
    [1517439,"2026-04-27 08:30:00","63936","2.467","94.3","3.495","98.6","1019.232","17.48","84.2","586.8","0.0"],
    [1517440,"2026-04-27 08:40:00","63937","1.804","62.63","3.397","57.18","1019.274","17.5","84.5","617.8","0.0"],
    [1517441,"2026-04-27 08:50:00","63938","2.275","45.93","3.299","41.17","1019.21","17.55","83.1","524.5","0.0"],
    [1517442,"2026-04-27 09:00:00","63939","3.1010000000000004","41.84","3.822","41.92","1019.107","17.46","82.6","695.3","0.0"],
    [1517443,"2026-04-27 09:10:00","63940","3.283","35.18","4.149","49.44","1019.113","17.51","82.3","704.2","0.0"],
    [1517444,"2026-04-27 09:20:00","63941","3.679","31.53","5.292000000000001","32.16","1019.106","17.54","81.7","705.4","0.0"],
    [1517445,"2026-04-27 09:30:00","63942","3.795","30.62","4.737","33.24","1019.135","17.68","81.3","764.9","0.0"],
    [1517446,"2026-04-27 09:40:00","63943","4.22","30.29","5.292000000000001","31.87","1019.111","17.62","81.0","771.4","0.0"],
    [1517447,"2026-04-27 09:50:00","63944","4.761","28.97","5.651","30.2","1019.082","17.64","77.18","816.0","0.0"],
    [1517448,"2026-04-27 10:00:00","63945","4.54","29.98","5.39","29.91","1019.091","17.78","76.51","749.2","0.0"],
    [1517449,"2026-04-27 10:10:00","63946","4.5","29.63","5.227","32.95","1019.093","17.75","76.84","837.0","0.0"],
    [1517450,"2026-04-27 10:20:00","63947","4.0089999999999995","31.73","5.096","28.92","1019.075","17.84","75.74","855.0","0.0"],
    [1517451,"2026-04-27 10:30:00","63948","3.714","40.79","4.867","40.13","1019.133","17.95","73.74","901.0","0.0"],
    [1517452,"2026-04-27 10:40:00","63949","3.548","40.73","4.541","35.33","1019.17","17.89","77.97","932.0","0.0"],
    [1517453,"2026-04-27 10:50:00","63950","2.573","40.4","4.181","46.75","1019.223","18.12","75.7","624.9","0.0"],
    [1517454,"2026-04-27 11:00:00","63951","2.59","44.52","4.051","37.1","1019.206","18.07","78.46","651.8","0.0"],
    [1517455,"2026-04-27 11:10:00","63952","2.3169999999999997","45.59","4.083","62.41","1019.153","18.03","79.22","517.1","0.0"],
    [1517456,"2026-04-27 11:20:00","63953","1.367","56.29","2.842","38.51","1019.084","18.18","77.4","672.9","0.0"],
    [1517457,"2026-04-27 11:30:00","63954","1.557","53.53","2.7439999999999998","45.36","1018.972","18.28","75.46","405.3","0.0"],
    [1517458,"2026-04-27 11:40:00","63955","1.456","59.29","3.1689999999999996","24.04","1018.864","18.27","75.85","624.7","0.0"],
    [1517459,"2026-04-27 11:50:00","63956","1.151","53.78","2.45","40.14","1018.822","18.47","74.75","794.1","0.0"],
    [1517460,"2026-04-27 12:00:00","63957","1.936","98.3","2.875","85.8","1018.714","18.4","72.19","821.0","0.0"],
    [1517461,"2026-04-27 12:10:00","63958","2.106","88.8","2.7769999999999997","86.4","1018.637","18.38","71.93","747.5","0.0"],
    [1517462,"2026-04-27 12:20:00","63959","1.974","91.0","2.8089999999999997","96.3","1018.63","18.34","73.4","945.0","0.0"],
    [1517463,"2026-04-27 12:30:00","63960","2.523","95.2","3.495","119.6","1018.519","18.19","77.0","813.0","0.0"],
    [1517464,"2026-04-27 12:40:00","63961","2.58","122.5","3.463","116.0","1018.411","18.17","78.53","911.0","0.0"],
    [1517465,"2026-04-27 12:50:00","63962","2.822","163.3","3.332","164.7","1018.321","17.99","80.2","953.0","0.0"],
    [1517466,"2026-04-27 13:00:00","63963","2.8960000000000004","167.9","3.397","163.3","1018.379","17.86","80.2","998.0","0.0"],
    [1517467,"2026-04-27 13:10:00","63964","3.03","169.7","3.528","167.6","1018.412","17.81","81.2","928.0","0.0"],
    [1517468,"2026-04-27 13:20:00","63965","2.553","168.3","2.94","172.5","1018.407","17.79","81.4","841.0","0.0"],
    [1517469,"2026-04-27 13:30:00","63966","2.714","166.2","2.9730000000000003","165.8","1018.267","17.8","80.9","838.0","0.0"],
    [1517470,"2026-04-27 13:40:00","63967","2.968","159.0","3.528","162.6","1018.146","17.88","82.8","830.0","0.0"],
    [1517471,"2026-04-27 13:50:00","63968","3.407","163.5","3.887","166.6","1018.059","17.79","83.6","797.3","0.0"],
    [1517472,"2026-04-27 14:00:00","63969","2.8810000000000002","165.7","3.234","162.9","1017.938","17.76","83.3","659.7","0.0"],
    [1517473,"2026-04-27 14:10:00","63970","2.398","170.4","3.136","181.7","1017.714","17.77","83.8","687.0","0.0"],
    [1517474,"2026-04-27 14:20:00","63971","2.735","167.3","3.299","169.7","1017.567","17.76","82.9","704.1","0.0"],
    [1517475,"2026-04-27 14:30:00","63972","2.9930000000000003","166.6","3.365","168.5","1017.434","17.75","80.8","704.1","0.0"],
    [1517476,"2026-04-27 14:40:00","63973","2.8360000000000003","161.4","3.071","160.1","1017.424","17.88","77.72","658.0","0.0"],
    [1517477,"2026-04-27 14:50:00","63974","3.022","158.2","3.528","162.6","1017.486","18.0","76.19","637.1","0.0"],
    [1517478,"2026-04-27 15:00:00","63975","3.116","160.5","3.495","158.7","1017.563","17.98","79.64","630.1","0.0"],
    [1517479,"2026-04-27 15:10:00","63976","3.324","162.9","3.7239999999999998","161.1","1017.578","17.92","80.0","570.8","0.0"],
    [1517480,"2026-04-27 15:20:00","63977","3.2110000000000003","162.2","3.593","165.7","1017.582","17.91","80.1","569.7","0.0"],
    [1517481,"2026-04-27 15:30:00","63978","3.1010000000000004","167.4","3.495","166.4","1017.476","17.91","79.48","511.7","0.0"],
    [1517482,"2026-04-27 15:40:00","63979","3.388","170.5","3.6260000000000003","171.5","1017.383","17.91","77.42","502.9","0.0"],
    [1517483,"2026-04-27 15:50:00","63980","3.372","169.6","3.7239999999999998","171.2","1017.352","17.99","75.91","465.9","0.0"],
    [1517484,"2026-04-27 16:00:00","63981","2.9939999999999998","170.1","3.463","172.4","1017.333","18.0","77.88","435.9","0.0"],
    [1517485,"2026-04-27 16:10:00","63982","2.6839999999999997","165.0","3.071","168.9","1017.455","18.02","77.55","415.6","0.0"],
    [1517486,"2026-04-27 16:20:00","63983","2.0180000000000002","156.4","2.483","156.9","1017.474","18.05","76.4","402.3","0.0"],
    [1517487,"2026-04-27 16:30:00","63984","2.457","163.0","3.005","171.3","1017.362","18.14","74.01","373.1","0.0"],
    [1517488,"2026-04-27 16:40:00","63985","2.515","166.0","3.071","181.2","1017.251","18.14","76.25","335.3","0.0"],
    [1517489,"2026-04-27 16:50:00","63986","2.247","157.3","2.6460000000000004","154.2","1017.262","18.01","77.95","299.1","0.0"],
    [1517490,"2026-04-27 17:00:00","63987","2.052","156.0","2.548","161.4","1017.167","18.01","79.15","268.2","0.0"],
    [1517491,"2026-04-27 17:10:00","63988","2.207","140.4","2.7110000000000003","143.8","1017.062","17.97","79.14","230.4","0.0"],
    [1517492,"2026-04-27 17:20:00","63989","1.619","159.1","2.287","162.7","1017.079","18.0","77.57","201.2","0.0"],
    [1517493,"2026-04-27 17:30:00","63990","1.272","164.9","1.764","177.3","1017.129","18.03","75.35","162.9","0.0"],
    [1517494,"2026-04-27 17:40:00","63991","1.5490000000000002","172.2","1.96","166.6","1017.08","18.06","74.59","134.1","0.0"],
    [1517495,"2026-04-27 17:50:00","63992","1.6019999999999999","192.2","2.5810000000000004","191.0","1017.156","18.1","73.98","123.0","0.0"],
    [1517496,"2026-04-27 18:00:00","63993","2.661","175.3","3.103","168.8","1017.127","18.09","73.38","67.82","0.0"],
    [1517497,"2026-04-27 18:10:00","63994","2.616","165.0","3.136","167.2","1017.145","18.01","75.44","67.07","0.0"],
    [1517498,"2026-04-27 18:20:00","63995","2.898","173.4","3.463","173.9","1017.247","17.94","78.22","51.79","0.0"],
    [1517499,"2026-04-27 18:30:00","63996","3.3139999999999996","189.8","4.312","209.7","1017.282","17.98","75.55","1.37","0.0"],
    [1517500,"2026-04-27 18:40:00","63997","2.8939999999999997","208.8","4.279","208.6","1017.307","18.35","63.36","0.0","0.0"],
    [1517501,"2026-04-27 18:50:00","63998","2.424","208.5","3.7239999999999998","208.1","1017.337","18.38","64.69","0.0","0.0"],
    [1517502,"2026-04-27 19:00:00","63999","1.944","223.0","3.1689999999999996","227.5","1017.354","18.35","70.14","0.0","0.0"],
    [1517503,"2026-04-27 19:10:00","64000","1.921","222.9","3.234","211.3","1017.345","18.27","70.75","0.0","0.0"],
    [1517504,"2026-04-27 19:20:00","64001","1.34","213.6","2.189","216.0","1017.364","18.28","71.49","0.0","0.0"],
    [1517505,"2026-04-27 19:30:00","64002","1.288","191.9","1.764","205.2","1017.384","18.18","70.88","0.0","0.0"],
    [1517506,"2026-04-27 19:40:00","64003","1.921","190.0","2.45","191.6","1017.454","18.13","70.05","0.0","0.0"],
    [1517507,"2026-04-27 19:50:00","64004","1.827","180.7","2.515","192.4","1017.536","18.13","72.5","0.0","0.0"],
    [1517508,"2026-04-27 20:00:00","64005","2.0340000000000003","167.9","2.5810000000000004","163.5","1017.574","17.75","80.4","0.0","0.0"],
    [1517509,"2026-04-27 20:10:00","64006","2.638","169.0","2.875","173.3","1017.527","17.6","79.63","0.0","0.0"],
    [1517510,"2026-04-27 20:20:00","64007","1.639","187.0","2.6460000000000004","177.2","1017.539","17.54","81.7","0.0","0.0"],
    [1517511,"2026-04-27 20:30:00","64008","1.495","191.5","2.123","203.5","1017.577","17.54","82.0","0.0","0.0"],
    [1517512,"2026-04-27 20:40:00","64009","1.246","185.1","1.764","191.5","1017.507","17.54","80.4","0.0","0.0"],
    [1517513,"2026-04-27 20:50:00","64010","1.4909999999999999","190.4","1.9269999999999998","188.6","1017.445","17.56","79.05","0.0","0.0"],
    [1517514,"2026-04-27 21:00:00","64011","1.4580000000000002","190.5","2.287","190.0","1017.435","17.63","79.05","0.0","0.0"],
    [1517515,"2026-04-27 21:10:00","64012","1.371","193.7","2.025","192.7","1017.37","17.74","75.24","0.0","0.0"],
    [1517516,"2026-04-27 21:20:00","64013","0.7709999999999999","223.8","1.274","215.0","1017.297","17.91","73.36","0.0","0.0"],
    [1517517,"2026-04-27 21:30:00","64014","1.004","216.8","1.47","209.1","1017.279","18.06","71.95","0.0","0.0"],
    [1517518,"2026-04-27 21:40:00","64015","1.251","226.8","1.993","227.5","1017.272","18.1","71.52","0.0","0.0"],
    [1517519,"2026-04-27 21:50:00","64016","1.96","201.7","3.005","199.3","1017.193","17.99","73.82","0.0","0.0"],
    [1517520,"2026-04-27 22:00:00","64017","1.287","214.8","2.0909999999999997","223.9","1017.132","17.86","74.37","0.0","0.0"],
    [1517521,"2026-04-27 22:10:00","64018","1.486","209.2","1.96","191.5","1017.095","17.79","75.87","0.0","0.0"],
    [1517522,"2026-04-27 22:20:00","64019","1.22","231.6","1.8619999999999999","228.4","1017.075","17.78","76.03","0.0","0.0"],
    [1517523,"2026-04-27 22:30:00","64020","1.2409999999999999","237.1","2.679","227.9","1016.995","17.77","76.93","0.0","0.0"],
    [1517524,"2026-04-27 22:40:00","64021","0.9179999999999999","249.0","1.535","225.3","1016.92","17.71","77.81","0.0","0.0"],
    [1517525,"2026-04-27 22:50:00","64022","1.291","261.7","2.287","251.2","1016.85","17.58","75.45","0.0","0.0"],
    [1517526,"2026-04-27 23:00:00","64023","1.129","222.4","1.764","206.1","1016.863","17.49","71.55","0.0","0.0"],
    [1517527,"2026-04-27 23:10:00","64024","1.4280000000000002","218.1","2.287","209.8","1016.836","17.57","68.36","0.0","0.0"],
    [1517528,"2026-04-27 23:20:00","64025","1.547","219.9","2.319","225.5","1016.728","17.61","66.59","0.0","0.0"],
    [1517529,"2026-04-27 23:30:00","64026","0.905","241.7","1.699","225.2","1016.641","17.6","64.77","0.0","0.0"],
    [1517530,"2026-04-27 23:40:00","64027","1.008","242.6","1.9269999999999998","233.6","1016.589","17.41","61.33","0.0","0.0"],
    [1517531,"2026-04-27 23:50:00","64028","1.234","241.7","2.025","254.2","1016.487","17.16","56.54","0.0","0.0"],
    [1517532,"2026-04-28 00:00:00","64029","1.3259999999999998","237.3","2.6460000000000004","231.2","1016.421","17.04","54.93","0.0","0.0"],
    [1517533,"2026-04-28 00:10:00","64030","1.757","243.4","3.397","250.0","1016.318","16.77","54.52","0.0","0.0"],
    [1517534,"2026-04-28 00:20:00","64031","1.9","233.5","3.267","234.9","1016.225","16.57","53.89","0.0","0.0"],
    [1517535,"2026-04-28 00:30:00","64032","2.189","245.3","3.332","254.5","1016.237","16.44","54.0","0.0","0.0"],
    [1517536,"2026-04-28 00:40:00","64033","2.4419999999999997","240.0","3.887","250.0","1016.203","16.06","55.36","0.0","0.0"],
    [1517537,"2026-04-28 00:50:00","64034","2.461","251.8","3.495","263.8","1016.113","16.02","55.17","0.0","0.0"],
    [1517538,"2026-04-28 01:00:00","64035","1.621","260.4","3.0380000000000003","257.9","1015.989","15.98","55.87","0.0","0.0"],
    [1517539,"2026-04-28 01:10:00","64036","1.39","262.3","1.96","263.8","1015.86","16.01","56.43","0.0","0.0"],
    [1517540,"2026-04-28 01:20:00","64037","1.246","263.1","2.025","271.8","1015.62","15.98","57.46","0.0","0.0"],
    [1517541,"2026-04-28 01:30:00","64038","1.229","257.9","2.0580000000000003","261.0","1015.523","16.17","58.41","0.0","0.0"],
    [1517542,"2026-04-28 01:40:00","64039","1.219","242.8","2.287","237.2","1015.428","16.42","59.64","0.0","0.0"],
    [1517543,"2026-04-28 01:50:00","64040","0.6920000000000001","246.9","2.0580000000000003","273.1","1015.312","16.68","61.53","0.0","0.0"],
    [1517544,"2026-04-28 02:00:00","64041","0.638","245.8","1.535","233.2","1015.247","16.68","58.76","0.0","0.0"],
    [1517545,"2026-04-28 02:10:00","64042","0.693","232.9","1.601","225.5","1015.227","16.53","55.27","0.0","0.0"],
    [1517546,"2026-04-28 02:20:00","64043","0.519","251.4","1.307","255.2","1015.185","16.54","53.75","0.0","0.0"],
    [1517547,"2026-04-28 02:30:00","64044","1.111","255.4","1.8619999999999999","264.7","1015.122","16.23","55.2","0.0","0.0"],
    [1517548,"2026-04-28 02:40:00","64045","1.146","245.1","2.45","265.2","1015.069","15.97","56.96","0.0","0.0"],
    [1517549,"2026-04-28 02:50:00","64046","1.416","242.9","2.287","262.0","1014.973","15.62","59.11","0.0","0.0"],
    [1517550,"2026-04-28 03:00:00","64047","2.245","255.5","3.659","257.1","1014.863","15.1","60.9","0.0","0.0"],
    [1517551,"2026-04-28 03:10:00","64048","2.3169999999999997","266.6","3.822","272.7","1014.774","14.67","62.15","0.0","0.0"],
    [1517552,"2026-04-28 03:20:00","64049","2.532","265.2","3.7569999999999997","267.1","1014.752","14.58","62.6","0.0","0.0"],
    [1517553,"2026-04-28 03:30:00","64050","2.589","267.5","3.528","262.5","1014.731","14.61","63.09","0.0","0.0"],
    [1517554,"2026-04-28 03:40:00","64051","2.526","278.6","2.94","283.9","1014.625","14.66","63.25","0.0","0.0"],
    [1517555,"2026-04-28 03:50:00","64052","2.089","275.3","2.7439999999999998","270.6","1014.553","15.08","61.7","0.0","0.0"],
    [1517556,"2026-04-28 04:00:00","64053","1.34","267.8","1.993","267.8","1014.443","15.36","60.86","0.0","0.0"],
    [1517557,"2026-04-28 04:10:00","64054","0.963","267.1","1.3719999999999999","266.2","1014.345","15.37","61.52","0.0","0.0"],
    [1517558,"2026-04-28 04:20:00","64055","0.97","304.8","1.2409999999999999","308.1","1014.212","15.31","62.54","0.0","0.0"],
    [1517559,"2026-04-28 04:30:00","64056","0.8220000000000001","281.3","1.209","273.6","1014.244","15.41","62.75","0.0","0.0"],
    [1517560,"2026-04-28 04:40:00","64057","0.10400000000000001","313.6","0.621","293.4","1014.242","15.67","63.24","0.0","0.0"],
    [1517561,"2026-04-28 04:50:00","64058","0.0","0.0","0.0","0.0","1014.193","15.72","63.42","0.0","0.0"],
    [1517562,"2026-04-28 05:00:00","64059","0.48200000000000004","250.4","0.882","260.1","1014.203","15.69","63.58","0.0","0.0"],
    [1517563,"2026-04-28 05:10:00","64060","0.198","230.0","0.7509999999999999","244.1","1014.244","15.72","64.27","0.0","0.0"],
    [1517564,"2026-04-28 05:20:00","64061","0.0","0.0","0.0","0.0","1014.287","15.69","65.25","29.15","0.0"],
    [1517565,"2026-04-28 05:30:00","64062","0.499","269.7","1.339","267.4","1014.385","15.83","64.98","65.4","0.0"],
    [1517566,"2026-04-28 05:40:00","64063","0.762","259.4","1.405","266.4","1014.381","15.81","66.09","67.13","0.0"],
    [1517567,"2026-04-28 05:50:00","64064","1.21","264.1","1.601","264.0","1014.467","15.87","65.68","67.15","0.0"],
    [1517568,"2026-04-28 06:00:00","64065","1.156","259.6","1.829","263.5","1014.546","15.9","65.38","115.1","0.0"],
    [1517569,"2026-04-28 06:10:00","64066","0.27399999999999997","243.5","0.784","268.5","1014.568","16.28","64.8","134.2","0.0"],
    [1517570,"2026-04-28 06:20:00","64067","0.0","0.0","0.0","0.0","1014.614","16.92","63.33","134.2","0.0"],
    [1517571,"2026-04-28 06:30:00","64068","0.366","158.0","1.2409999999999999","152.8","1014.731","17.27","63.17","151.2","0.0"],
    [1517572,"2026-04-28 06:40:00","64069","1.1909999999999998","168.6","1.535","179.7","1014.712","16.74","67.85","201.3","0.0"],
    [1517573,"2026-04-28 06:50:00","64070","1.236","167.4","1.568","166.0","1014.69","16.73","66.9","201.4","0.0"],
    [1517574,"2026-04-28 07:00:00","64071","0.43700000000000006","138.8","0.98","155.2","1014.647","17.01","66.18","266.2","0.0"],
    [1517575,"2026-04-28 07:10:00","64072","0.10800000000000001","132.0","0.555","129.0","1014.672","17.41","64.89","268.4","0.0"],
    [1517576,"2026-04-28 07:20:00","64073","0.228","87.7","0.7190000000000001","92.9","1014.686","18.21","60.15","329.0","0.0"],
    [1517577,"2026-04-28 07:30:00","64074","1.1059999999999999","98.2","1.96","67.86","1014.724","17.78","63.47","374.7","0.0"],
    [1517578,"2026-04-28 07:40:00","64075","1.8969999999999998","65.87","3.92","43.95","1014.74","17.4","67.8","402.7","0.0"],
    [1517579,"2026-04-28 07:50:00","64076","4.07","47.23","5.129","47.02","1014.741","17.32","72.53","435.7","0.0"],
    [1517580,"2026-04-28 08:00:00","64077","4.435","45.29","4.9","45.37","1014.745","17.06","77.38","482.9","0.0"],
    [1517581,"2026-04-28 08:10:00","64078","3.844","45.02","4.671","44.18","1014.802","17.08","77.3","505.5","0.0"],
    [1517582,"2026-04-28 08:20:00","64079","3.08","37.64","3.887","37.88","1014.892","17.21","78.34","569.3","0.0"],
    [1517583,"2026-04-28 08:30:00","64080","3.345","47.14","3.92","45.96","1014.942","17.17","81.8","583.4","0.0"],
    [1517584,"2026-04-28 08:40:00","64081","2.937","46.85","3.659","46.86","1015.054","17.17","81.1","637.2","0.0"],
    [1517585,"2026-04-28 08:50:00","64082","1.8219999999999998","73.76","3.267","44.58","1015.19","17.33","78.2","637.3","0.0"],
    [1517586,"2026-04-28 09:00:00","64083","1.6130000000000002","126.5","2.352","137.7","1015.227","17.61","72.95","693.0","0.0"],
    [1517587,"2026-04-28 09:10:00","64084","2.102","149.4","2.842","158.0","1015.218","17.54","74.42","704.4","0.0"],
    [1517588,"2026-04-28 09:20:00","64085","2.8489999999999998","158.0","3.332","155.5","1015.241","17.39","74.02","741.8","0.0"],
    [1517589,"2026-04-28 09:30:00","64086","3.458","161.5","4.018","165.6","1015.319","17.39","70.43","771.4","0.0"],
    [1517590,"2026-04-28 09:40:00","64087","3.488","157.1","3.92","160.8","1015.37","17.37","72.73","771.4","0.0"],
    [1517591,"2026-04-28 09:50:00","64088","3.3789999999999996","157.9","4.018","164.1","1015.368","17.45","74.48","801.0","0.0"],
    [1517592,"2026-04-28 10:00:00","64089","3.968","164.8","4.541","166.0","1015.339","17.46","76.18","839.0","0.0"],
    [1517593,"2026-04-28 10:10:00","64090","3.445","159.7","3.887","159.5","1015.293","17.45","77.32","839.0","0.0"],
    [1517594,"2026-04-28 10:20:00","64091","3.074","154.4","3.593","154.0","1015.249","17.5","76.6","839.0","0.0"],
    [1517595,"2026-04-28 10:30:00","64092","3.883","167.4","4.4430000000000005","173.1","1015.269","17.53","78.38","843.0","0.0"],
    [1517596,"2026-04-28 10:40:00","64093","4.093","170.8","5.031000000000001","176.8","1015.22","17.59","78.03","885.0","0.0"],
    [1517597,"2026-04-28 10:50:00","64094","3.583","166.5","4.2139999999999995","167.0","1015.095","17.63","76.87","905.0","0.0"],
    [1517598,"2026-04-28 11:00:00","64095","3.303","168.0","3.92","171.7","1014.959","17.65","77.01","906.0","0.0"],
    [1517599,"2026-04-28 11:10:00","64096","3.627","169.4","4.149","173.7","1014.909","17.6","79.8","906.0","0.0"],
    [1517600,"2026-04-28 11:20:00","64097","3.64","166.6","4.2139999999999995","163.2","1014.806","17.56","81.7","906.0","0.0"],
    [1517601,"2026-04-28 11:30:00","64098","3.467","166.4","3.822","168.5","1014.712","17.52","82.4","895.0","0.0"],
    [1517602,"2026-04-28 11:40:00","64099","3.6430000000000002","164.4","4.018","163.4","1014.593","17.53","82.7","906.0","0.0"],
    [1517603,"2026-04-28 11:50:00","64100","3.873","165.1","4.312","165.9","1014.497","17.57","82.8","906.0","0.0"],
    [1517604,"2026-04-28 12:00:00","64101","3.853","166.8","4.671","172.3","1014.379","17.59","82.3","906.0","0.0"],
    [1517605,"2026-04-28 12:10:00","64102","3.575","161.3","3.985","162.9","1014.331","17.61","81.8","906.0","0.0"],
    [1517606,"2026-04-28 12:20:00","64103","3.2039999999999997","159.1","3.6260000000000003","164.6","1014.198","17.69","80.3","906.0","0.0"],
    [1517607,"2026-04-28 12:30:00","64104","2.94","148.8","3.397","150.9","1014.085","17.78","80.7","906.0","0.0"],
    [1517608,"2026-04-28 12:40:00","64105","2.9130000000000003","148.5","3.397","153.1","1013.959","17.76","82.1","905.0","0.0"],
    [1517609,"2026-04-28 12:50:00","64106","3.014","152.8","3.659","159.3","1013.877","17.76","82.2","863.0","0.0"],
    [1517610,"2026-04-28 13:00:00","64107","3.01","152.2","4.051","152.0","1013.825","17.83","82.3","897.0","0.0"],
    [1517611,"2026-04-28 13:10:00","64108","3.01","146.8","3.822","148.6","1013.793","17.89","81.5","860.0","0.0"],
    [1517612,"2026-04-28 13:20:00","64109","2.752","151.6","3.659","147.1","1013.72","17.97","80.8","839.0","0.0"],
    [1517613,"2026-04-28 13:30:00","64110","3.042","157.2","3.7889999999999997","157.8","1013.71","18.01","81.1","833.0","0.0"],
    [1517614,"2026-04-28 13:40:00","64111","3.057","151.7","3.593","151.8","1013.573","18.02","78.44","838.0","0.0"],
    [1517615,"2026-04-28 13:50:00","64112","2.659","153.5","3.593","162.4","1013.443","18.16","76.68","800.0","0.0"],
    [1517616,"2026-04-28 14:00:00","64113","2.693","151.0","3.6910000000000003","143.7","1013.331","18.19","76.76","771.3","0.0"],
    [1517617,"2026-04-28 14:10:00","64114","3.255","163.3","3.7889999999999997","162.8","1013.401","18.21","76.64","764.0","0.0"],
    [1517618,"2026-04-28 14:20:00","64115","3.201","161.7","3.855","169.0","1013.346","18.21","77.32","730.7","0.0"],
    [1517619,"2026-04-28 14:30:00","64116","3.091","156.1","3.593","150.2","1013.231","18.25","76.3","745.6","0.0"],
    [1517620,"2026-04-28 14:40:00","64117","2.997","159.6","3.659","147.6","1013.119","18.28","75.65","449.5","0.0"],
    [1517621,"2026-04-28 14:50:00","64118","3.089","154.2","3.593","156.0","1013.016","18.28","72.16","404.3","0.0"],
    [1517622,"2026-04-28 15:00:00","64119","3.015","153.3","3.887","149.4","1013.004","18.38","70.32","402.4","0.0"],
    [1517623,"2026-04-28 15:10:00","64120","2.906","155.3","3.397","148.5","1012.927","18.42","70.85","410.3","0.0"],
    [1517624,"2026-04-28 15:20:00","64121","3.023","157.2","3.7569999999999997","164.6","1012.812","18.44","71.15","596.9","0.0"],
    [1517625,"2026-04-28 15:30:00","64122","3.28","161.0","4.083","160.0","1012.81","18.52","69.97","584.7","0.0"],
    [1517626,"2026-04-28 15:40:00","64123","2.8360000000000003","160.9","3.6260000000000003","166.8","1012.661","18.47","70.66","400.3","0.0"],
    [1517627,"2026-04-28 15:50:00","64124","2.909","163.4","3.43","160.2","1012.586","18.47","71.84","358.7","0.0"],
    [1517628,"2026-04-28 16:00:00","64125","2.9989999999999997","168.0","3.5610000000000004","177.5","1012.491","18.41","72.38","274.6","0.0"],
    [1517629,"2026-04-28 16:10:00","64126","2.845","157.0","3.267","163.0","1012.459","18.48","73.72","451.2","0.0"],
    [1517630,"2026-04-28 16:20:00","64127","3.175","164.3","4.1160000000000005","168.6","1012.458","18.49","74.85","415.8","0.0"],
    [1517631,"2026-04-28 16:30:00","64128","3.162","165.2","3.6910000000000003","164.7","1012.438","18.5","74.22","392.6","0.0"],
    [1517632,"2026-04-28 16:40:00","64129","3.137","162.3","3.822","161.0","1012.47","18.5","73.73","334.3","0.0"],
    [1517633,"2026-04-28 16:50:00","64130","3.0460000000000003","154.1","3.6910000000000003","159.6","1012.439","18.5","72.99","254.8","0.0"],
    [1517634,"2026-04-28 17:00:00","64131","2.6639999999999997","141.7","3.495","157.9","1012.337","18.55","71.18","228.3","0.0"],
    [1517635,"2026-04-28 17:10:00","64132","2.3409999999999997","139.1","3.071","138.3","1012.315","18.58","71.85","201.2","0.0"],
    [1517636,"2026-04-28 17:20:00","64133","1.87","122.5","2.515","119.9","1012.288","18.55","73.47","201.2","0.0"],
    [1517637,"2026-04-28 17:30:00","64134","2.02","107.4","2.613","111.1","1012.226","18.58","71.84","167.7","0.0"],
    [1517638,"2026-04-28 17:40:00","64135","2.372","108.6","2.7769999999999997","107.9","1012.196","18.55","71.29","134.1","0.0"],
    [1517639,"2026-04-28 17:50:00","64136","2.263","95.1","2.94","101.4","1012.095","18.53","72.19","71.8","0.0"],
    [1517640,"2026-04-28 18:00:00","64137","2.501","90.8","3.528","88.4","1012.013","18.48","71.52","66.94","0.0"],
    [1517641,"2026-04-28 18:10:00","64138","2.281","77.58","3.1689999999999996","74.83","1011.861","18.4","72.3","18.14","0.0"],
    [1517642,"2026-04-28 18:20:00","64139","2.66","77.23","3.43","73.32","1011.75","18.37","72.85","0.0","0.0"],
    [1517643,"2026-04-28 18:30:00","64140","3.263","71.2","3.9530000000000003","74.03","1011.56","18.29","72.15","0.0","0.0"],
    [1517644,"2026-04-28 18:40:00","64141","2.7030000000000003","61.64","3.985","69.51","1011.391","18.28","72.61","0.0","0.0"],
    [1517645,"2026-04-28 18:50:00","64142","2.701","61.0","3.92","63.02","1011.404","18.24","74.16","0.0","0.0"],
    [1517646,"2026-04-28 19:00:00","64143","3.361","62.03","4.41","60.97","1011.342","18.19","74.07","0.0","0.0"],
    [1517647,"2026-04-28 19:10:00","64144","3.358","57.73","4.508","64.92","1011.381","18.16","74.7","0.0","0.0"],
    [1517648,"2026-04-28 19:20:00","64145","3.325","53.19","4.606","39.85","1011.385","18.12","75.44","0.0","0.0"],
    [1517649,"2026-04-28 19:30:00","64146","3.699","40.07","5.129","32.25","1011.468","18.08","74.95","0.0","0.0"],
    [1517650,"2026-04-28 19:40:00","64147","3.391","47.53","5.096","36.11","1011.591","18.06","76.14","0.0","0.0"],
    [1517651,"2026-04-28 19:50:00","64148","3.465","57.62","5.096","69.4","1011.721","18.01","76.23","0.0","0.0"],
    [1517652,"2026-04-28 20:00:00","64149","3.3680000000000003","58.34","5.063","69.38","1011.903","18.03","74.81","0.0","0.0"],
    [1517653,"2026-04-28 20:10:00","64150","3.326","60.46","4.573","70.5","1012.134","18.03","74.57","0.0","0.0"],
    [1517654,"2026-04-28 20:20:00","64151","2.7310000000000003","56.93","3.985","68.8","1012.289","18.05","75.73","0.0","0.0"],
    [1517655,"2026-04-28 20:30:00","64152","3.17","62.77","4.312","53.8","1012.36","18.0","77.61","0.0","0.0"],
    [1517656,"2026-04-28 20:40:00","64153","3.4360000000000004","63.13","5.227","54.1","1012.399","17.93","78.18","0.0","0.0"],
    [1517657,"2026-04-28 20:50:00","64154","3.63","71.14","4.541","82.0","1012.403","17.87","79.01","0.0","0.0"],
    [1517658,"2026-04-28 21:00:00","64155","3.813","72.72","4.802","77.65","1012.387","17.84","79.83","0.0","0.0"],
    [1517659,"2026-04-28 21:10:00","64156","3.795","73.03","4.9","73.49","1012.441","17.78","81.2","0.0","0.0"],
    [1517660,"2026-04-28 21:20:00","64157","3.6489999999999996","75.42","5.129","86.5","1012.724","17.74","81.4","0.0","0.0"],
    [1517661,"2026-04-28 21:30:00","64158","3.824","70.68","5.2589999999999995","75.72","1012.828","17.75","82.2","0.0","0.0"],
    [1517662,"2026-04-28 21:40:00","64159","3.485","76.32","4.475","77.39","1013.029","17.73","82.5","0.0","0.0"],
    [1517663,"2026-04-28 21:50:00","64160","3.5380000000000003","84.4","4.638999999999999","79.27","1013.204","17.76","82.6","0.0","0.0"],
    [1517664,"2026-04-28 22:00:00","64161","2.989","81.5","4.1160000000000005","84.1","1013.322","17.79","82.1","0.0","0.0"],
    [1517665,"2026-04-28 22:10:00","64162","3.6489999999999996","84.5","4.835","95.7","1013.394","17.79","82.3","0.0","0.0"],
    [1517666,"2026-04-28 22:20:00","64163","3.5469999999999997","75.86","5.031000000000001","71.18","1013.503","17.8","83.0","0.0","0.0"],
    [1517667,"2026-04-28 22:30:00","64164","4.158","71.95","6.0760000000000005","68.15","1013.413","17.78","82.6","0.0","0.0"],
    [1517668,"2026-04-28 22:40:00","64165","4.137","78.38","5.292000000000001","83.5","1013.568","17.8","82.0","0.0","0.0"],
    [1517669,"2026-04-28 22:50:00","64166","3.498","79.76","4.965","81.5","1013.683","17.84","82.0","0.0","0.0"],
    [1517670,"2026-04-28 23:00:00","64167","4.074","83.5","5.651","78.76","1013.616","17.8","82.3","0.0","0.0"],
    [1517671,"2026-04-28 23:10:00","64168","3.7110000000000003","86.5","4.867","84.9","1013.69","17.77","81.8","0.0","0.0"],
    [1517672,"2026-04-28 23:20:00","64169","3.221","77.73","4.247","78.36","1013.707","17.74","83.0","0.0","0.0"],
    [1517673,"2026-04-28 23:30:00","64170","3.7230000000000003","63.13","4.671","67.23","1013.569","17.63","82.8","0.0","0.0"],
    [1517674,"2026-04-28 23:40:00","64171","3.531","50.5","4.508","43.42","1013.567","17.63","82.6","0.0","0.0"],
    [1517675,"2026-04-28 23:50:00","64172","3.77","50.2","4.737","63.38","1013.473","17.63","83.5","0.0","0.0"],
    [1517676,"2026-04-29 00:00:00","64173","3.485","57.81","4.769","61.71","1013.385","17.63","83.2","0.0","0.0"],
    [1517677,"2026-04-29 00:10:00","64174","3.4939999999999998","63.0","4.998","60.95","1013.378","17.67","83.2","0.0","0.0"],
    [1517678,"2026-04-29 00:20:00","64175","3.595","58.01","5.292000000000001","50.57","1013.238","17.67","82.3","0.0","0.0"],
    [1517679,"2026-04-29 00:30:00","64176","4.423","74.2","6.042999999999999","70.6","1013.216","17.7","82.5","0.0","0.0"],
    [1517680,"2026-04-29 00:40:00","64177","4.721","77.48","5.945","79.24","1013.1","17.67","82.8","0.0","0.0"],
    [1517681,"2026-04-29 00:50:00","64178","4.72","73.67","6.0760000000000005","63.86","1012.983","17.61","83.1","0.0","0.0"],
    [1517682,"2026-04-29 01:00:00","64179","4.408","77.59","5.553","84.2","1013","17.62","83.4","0.0","0.0"],
    [1517683,"2026-04-29 01:10:00","64180","4.784","73.5","5.7170000000000005","74.31","1013.009","17.61","84.1","0.0","0.0"],
    [1517684,"2026-04-29 01:20:00","64181","4.723","70.38","5.847","72.98","1012.811","17.56","83.8","0.0","0.0"],
    [1517685,"2026-04-29 01:30:00","64182","4.772","68.44","6.337000000000001","76.09","1012.67","17.57","85.0","0.0","0.0"],
    [1517686,"2026-04-29 01:40:00","64183","4.573","67.46","6.141","72.12","1012.573","17.54","84.6","0.0","0.0"],
    [1517687,"2026-04-29 01:50:00","64184","4.2989999999999995","74.3","5.455","71.05","1012.626","17.54","85.1","0.0","0.0"],
    [1517688,"2026-04-29 02:00:00","64185","3.985","73.46","5.194","68.76","1012.625","17.52","85.4","0.0","0.0"],
    [1517689,"2026-04-29 02:10:00","64186","4.2780000000000005","70.32","5.4879999999999995","72.32","1012.409","17.49","85.3","0.0","0.0"],
    [1517690,"2026-04-29 02:20:00","64187","4.151","77.22","5.325","76.48","1012.352","17.48","85.2","0.0","0.0"],
    [1517691,"2026-04-29 02:30:00","64188","4.226","75.32","5.586","73.18","1012.278","17.48","85.6","0.0","0.0"],
    [1517692,"2026-04-29 02:40:00","64189","4.415","61.24","5.978","70.99","1012.239","17.47","84.9","0.0","0.0"],
    [1517693,"2026-04-29 02:50:00","64190","4.399","57.99","6.0760000000000005","57.58","1012.18","17.48","84.5","0.0","0.0"],
    [1517694,"2026-04-29 03:00:00","64191","4.059","40.36","6.239","39.61","1012.047","17.46","84.7","0.0","0.0"],
    [1517695,"2026-04-29 03:10:00","64192","4.06","59.76","5.749","58.73","1012.128","17.47","84.0","0.0","0.0"],
    [1517696,"2026-04-29 03:20:00","64193","5.045","44.21","6.631","48.45","1011.996","17.44","85.0","0.0","0.0"],
    [1517697,"2026-04-29 03:30:00","64194","5.822","44.46","7.35","44.23","1011.795","17.38","84.2","0.0","0.0"],
    [1517698,"2026-04-29 03:40:00","64195","5.9","36.45","7.611000000000001","45.18","1011.743","17.27","85.4","0.0","0.0"],
    [1517699,"2026-04-29 03:50:00","64196","6.324","35.72","8.46","35.64","1011.612","17.19","85.3","0.0","0.0"],
    [1517700,"2026-04-29 04:00:00","64197","6.104","40.01","8.07","41.47","1011.526","17.2","85.2","0.0","0.0"],
    [1517701,"2026-04-29 04:10:00","64198","6.452000000000001","44.28","8.04","46.77","1011.558","17.17","84.7","0.0","0.0"],
    [1517702,"2026-04-29 04:20:00","64199","6.376","44.82","7.938","50.81","1011.582","17.13","84.4","0.0","0.0"],
    [1517703,"2026-04-29 04:30:00","64200","6.837000000000001","42.75","8.69","43.39","1011.517","17.13","84.4","0.0","0.0"],
    [1517704,"2026-04-29 04:40:00","64201","7.069","40.37","8.98","40.5","1011.447","17.1","84.3","0.0","0.0"],
    [1517705,"2026-04-29 04:50:00","64202","6.872999999999999","37.02","8.43","32.7","1011.364","17.02","84.5","0.0","0.1"],
    [1517706,"2026-04-29 05:00:00","64203","6.996","38.5","9.18","34.69","1011.34","16.91","85.3","0.0","0.0"],
    [1517707,"2026-04-29 05:10:00","64204","7.1160000000000005","39.78","9.34","38.3","1011.397","16.98","84.8","0.0","0.0"],
    [1517708,"2026-04-29 05:20:00","64205","7.077000000000001","39.07","9.8","44.31","1011.417","16.99","83.8","0.0","0.0"],
    [1517709,"2026-04-29 05:30:00","64206","7.662000000000001","39.88","9.21","37.95","1011.391","17.0","82.9","0.0","0.0"],
    [1517710,"2026-04-29 05:40:00","64207","7.252999999999999","36.27","9.31","32.39","1011.369","17.0","83.4","24.69","0.0"],
    [1517711,"2026-04-29 05:50:00","64208","7.136","34.75","9.02","30.38","1011.4","16.98","83.1","62.22","0.0"],
    [1517712,"2026-04-29 06:00:00","64209","6.999","36.2","8.59","42.8","1011.419","16.96","83.1","68.79","0.0"],
    [1517713,"2026-04-29 06:10:00","64210","7.167999999999999","44.67","9.05","43.81","1011.445","16.97","82.9","119.6","0.0"],
    [1517714,"2026-04-29 06:20:00","64211","7.084","48.15","8.85","51.65","1011.573","16.95","83.0","68.62","0.0"],
    [1517715,"2026-04-29 06:30:00","64212","6.638","49.04","8.72","41.44","1011.65","16.94","83.7","139.1","0.0"],
    [1517716,"2026-04-29 06:40:00","64213","7.0329999999999995","46.94","9.08","43.27","1011.627","16.92","83.5","212.7","0.0"],
    [1517717,"2026-04-29 06:50:00","64214","6.218999999999999","49.73","8.72","50.66","1011.916","16.97","83.1","172.2","0.0"],
    [1517718,"2026-04-29 07:00:00","64215","5.879","55.79","7.905","54.36","1012.077","16.98","82.8","213.3","0.0"],
    [1517719,"2026-04-29 07:10:00","64216","5.952999999999999","58.76","8.04","55.03","1012.126","17.0","82.2","266.7","0.0"],
    [1517720,"2026-04-29 07:20:00","64217","6.079","64.5","8.56","71.91","1012.222","16.99","82.4","292.8","0.0"],
    [1517721,"2026-04-29 07:30:00","64218","6.3629999999999995","66.27","9.11","71.45","1012.287","16.98","82.1","350.5","0.0"],
    [1517722,"2026-04-29 07:40:00","64219","6.432","66.93","8.69","75.0","1012.429","17.04","81.6","415.4","0.0"],
    [1517723,"2026-04-29 07:50:00","64220","6.545","65.7","8.59","72.62","1012.575","17.06","81.9","436.2","0.0"],
    [1517724,"2026-04-29 08:00:00","64221","7.007000000000001","68.44","9.34","75.91","1012.581","17.06","82.3","472.8","0.0"],
    [1517725,"2026-04-29 08:10:00","64222","7.29","70.07","10.49","69.19","1012.607","17.05","82.7","503.3","0.0"],
    [1517726,"2026-04-29 08:20:00","64223","6.67","70.96","9.18","75.12","1012.766","17.09","83.0","533.1","0.0"],
    [1517727,"2026-04-29 08:30:00","64224","6.894","72.42","9.54","74.0","1012.805","17.13","81.6","570.3","0.0"],
    [1517728,"2026-04-29 08:40:00","64225","7.175","73.79","9.96","74.34","1012.887","17.2","80.5","590.5","0.0"],
    [1517729,"2026-04-29 08:50:00","64226","7.18","68.65","9.73","67.2","1012.946","17.12","81.9","389.0","0.0"],
    [1517730,"2026-04-29 09:00:00","64227","7.195","70.41","9.51","71.65","1012.955","17.11","82.2","423.3","0.0"],
    [1517731,"2026-04-29 09:10:00","64228","7.695","72.59","9.24","71.25","1013.138","17.15","81.0","429.8","0.0"],
    [1517732,"2026-04-29 09:20:00","64229","7.236000000000001","73.91","9.77","68.43","1013.219","17.23","80.9","798.3","0.0"],
    [1517733,"2026-04-29 09:30:00","64230","6.62","75.68","8.75","73.82","1013.317","17.31","81.1","784.6","0.0"],
    [1517734,"2026-04-29 09:40:00","64231","6.705","76.25","8.85","84.3","1013.327","17.3","81.8","582.5","0.0"],
    [1517735,"2026-04-29 09:50:00","64232","6.047999999999999","83.5","8.13","80.8","1013.454","17.29","82.4","364.8","0.0"],
    [1517736,"2026-04-29 10:00:00","64233","6.159","81.9","8.49","83.0","1013.467","17.34","82.1","792.0","0.0"],
    [1517737,"2026-04-29 10:10:00","64234","6.765","93.4","9.08","96.2","1013.581","17.41","82.0","839.0","0.0"],
    [1517738,"2026-04-29 10:20:00","64235","7.49","101.1","9.54","106.7","1013.522","17.42","81.7","798.4","0.0"],
    [1517739,"2026-04-29 10:30:00","64236","7.557","98.8","9.57","103.6","1013.505","17.41","81.4","530.7","0.0"],
    [1517740,"2026-04-29 10:40:00","64237","6.654","92.6","9.05","91.5","1013.682","17.44","81.4","738.4","0.0"],
    [1517741,"2026-04-29 10:50:00","64238","6.428","89.9","8.17","93.0","1013.71","17.52","81.4","846.0","0.0"],
    [1517742,"2026-04-29 11:00:00","64239","6.446000000000001","87.3","8.59","92.5","1013.657","17.51","81.0","899.0","0.0"],
    [1517743,"2026-04-29 11:10:00","64240","6.791","88.0","9.02","86.8","1013.628","17.51","80.2","892.0","0.0"],
    [1517744,"2026-04-29 11:20:00","64241","6.562","89.7","8.69","93.2","1013.697","17.54","80.2","908.0","0.0"],
    [1517745,"2026-04-29 11:30:00","64242","5.676","81.6","8.33","82.7","1013.613","17.55","81.3","906.0","0.0"],
    [1517746,"2026-04-29 11:40:00","64243","5.957999999999999","73.76","7.872999999999999","68.61","1013.637","17.49","80.9","906.0","0.0"],
    [1517747,"2026-04-29 11:50:00","64244","5.857","67.2","8.04","75.44","1013.416","17.5","81.1","906.0","0.0"],
    [1517748,"2026-04-29 12:00:00","64245","6.218999999999999","59.98","8.1","73.37","1013.356","17.55","81.1","906.0","0.0"],
    [1517749,"2026-04-29 12:10:00","64246","7.232","40.47","9.18","37.06","1013.178","17.5","81.9","891.0","0.0"],
    [1517750,"2026-04-29 12:20:00","64247","7.279","42.18","9.67","41.9","1013.264","17.49","82.0","906.0","0.0"],
    [1517751,"2026-04-29 12:30:00","64248","6.519","43.74","8.53","45.92","1013.232","17.5","82.2","905.0","0.0"],
    [1517752,"2026-04-29 12:40:00","64249","6.672000000000001","44.03","8.2","38.95","1013.2","17.48","81.6","848.0","0.0"],
    [1517753,"2026-04-29 12:50:00","64250","6.393","44.88","8.04","48.25","1013.204","17.54","81.6","843.0","0.0"],
    [1517754,"2026-04-29 13:00:00","64251","6.042000000000001","49.17","7.611000000000001","50.4","1013.238","17.54","82.1","839.0","0.0"],
    [1517755,"2026-04-29 13:10:00","64252","5.892","46.07","7.154","48.23","1013.26","17.59","82.2","839.0","0.0"],
    [1517756,"2026-04-29 13:20:00","64253","4.245","38.08","7.056","56.31","1013.442","17.68","81.4","834.0","0.0"],
    [1517757,"2026-04-29 13:30:00","64254","4.253","58.07","6.207000000000001","51.26","1013.455","17.77","81.3","798.0","0.0"],
    [1517758,"2026-04-29 13:40:00","64255","4.575","62.92","6.5329999999999995","54.83","1013.383","17.68","82.6","792.6","0.0"],
    [1517759,"2026-04-29 13:50:00","64256","4.258","59.45","6.337000000000001","49.43","1013.281","17.65","82.5","769.6","0.0"],
    [1517760,"2026-04-29 14:00:00","64257","4.646","45.07","5.945","53.92","1013.169","17.71","83.1","710.1","0.0"],
    [1517761,"2026-04-29 14:10:00","64258","4.838","45.93","6.664","47.95","1013.04","17.62","83.8","656.4","0.0"],
    [1517762,"2026-04-29 14:20:00","64259","5.175","44.52","6.893","39.84","1012.863","17.67","82.9","706.1","0.0"],
    [1517763,"2026-04-29 14:30:00","64260","5.992000000000001","41.6","7.252000000000001","43.46","1012.712","17.55","83.4","606.2","0.0"],
    [1517764,"2026-04-29 14:40:00","64261","5.412000000000001","46.44","6.566","49.94","1012.76","17.6","84.0","607.1","0.0"],
    [1517765,"2026-04-29 14:50:00","64262","5.513999999999999","40.05","7.513","15.2","1012.733","17.54","84.9","438.8","0.0"],
    [1517766,"2026-04-29 15:00:00","64263","6.131","42.02","7.252000000000001","41.25","1012.565","17.39","85.0","207.0","0.0"],
    [1517767,"2026-04-29 15:10:00","64264","5.789","43.38","7.056","42.22","1012.608","17.47","83.6","508.7","0.0"],
    [1517768,"2026-04-29 15:20:00","64265","5.917999999999999","44.84","7.154","47.88","1012.538","17.53","82.7","580.0","0.0"],
    [1517769,"2026-04-29 15:30:00","64266","5.4270000000000005","47.14","7.285","53.66","1012.496","17.61","82.5","442.7","0.0"],
    [1517770,"2026-04-29 15:40:00","64267","5.996","44.62","7.285","45.3","1012.399","17.56","83.2","357.5","0.0"],
    [1517771,"2026-04-29 15:50:00","64268","5.388999999999999","43.55","6.795","48.69","1012.548","17.5","83.6","418.2","0.0"],
    [1517772,"2026-04-29 16:00:00","64269","5.8870000000000005","46.54","7.317","47.26","1012.356","17.51","83.5","421.9","0.0"],
    [1517773,"2026-04-29 16:10:00","64270","5.476","45.52","7.023","46.29","1012.414","17.53","83.4","421.6","0.0"],
    [1517774,"2026-04-29 16:20:00","64271","5.324","43.31","6.468","50.78","1012.534","17.53","83.8","402.6","0.0"],
    [1517775,"2026-04-29 16:30:00","64272","5.685","41.24","6.631","40.38","1012.515","17.47","84.4","373.2","0.0"],
    [1517776,"2026-04-29 16:40:00","64273","5.215","39.78","6.435","37.8","1012.488","17.48","84.5","335.5","0.0"],
    [1517777,"2026-04-29 16:50:00","64274","4.905","41.2","6.207000000000001","41.43","1012.466","17.49","84.6","291.4","0.0"],
    [1517778,"2026-04-29 17:00:00","64275","5.197","41.52","6.305","39.18","1012.463","17.44","85.0","264.8","0.0"],
    [1517779,"2026-04-29 17:10:00","64276","4.975","40.26","6.239","43.36","1012.453","17.46","85.3","207.7","0.0"],
    [1517780,"2026-04-29 17:20:00","64277","5.301","40.53","6.468","42.76","1012.378","17.47","85.4","196.3","0.0"],
    [1517781,"2026-04-29 17:30:00","64278","5.209","39.14","6.599","44.82","1012.361","17.46","85.3","142.7","0.0"],
    [1517782,"2026-04-29 17:40:00","64279","4.385","29.92","6.337000000000001","37.85","1012.411","17.47","85.2","131.8","0.0"],
    [1517783,"2026-04-29 17:50:00","64280","5.2170000000000005","38.14","6.305","38.15","1012.473","17.45","85.6","86.6","0.0"],
    [1517784,"2026-04-29 18:00:00","64281","4.567","34.92","5.978","47.24","1012.541","17.44","86.1","67.09","0.0"],
    [1517785,"2026-04-29 18:10:00","64282","4.555","38.98","5.749","41.4","1012.634","17.42","86.4","51.14","0.0"],
    [1517786,"2026-04-29 18:20:00","64283","4.3180000000000005","39.84","5.847","37.37","1012.629","17.4","86.8","0.084","0.0"],
    [1517787,"2026-04-29 18:30:00","64284","3.388","40.78","4.638999999999999","42.88","1012.889","17.4","87.1","0.0","0.0"],
    [1517788,"2026-04-29 18:40:00","64285","3.284","42.17","4.475","48.82","1013.158","17.38","87.7","0.0","0.0"],
    [1517789,"2026-04-29 18:50:00","64286","3.1210000000000004","47.56","4.377","63.78","1013.298","17.38","88.0","0.0","0.0"],
    [1517790,"2026-04-29 19:00:00","64287","3.423","37.93","4.769","36.93","1013.315","17.36","88.4","0.0","0.0"],
    [1517791,"2026-04-29 19:10:00","64288","3.38","38.0","4.4430000000000005","31.67","1013.446","17.35","88.7","0.0","0.0"],
    [1517792,"2026-04-29 19:20:00","64289","3.91","36.72","5.227","32.63","1013.528","17.37","89.1","0.0","0.0"],
    [1517793,"2026-04-29 19:30:00","64290","4.067","40.39","5.096","35.43","1013.731","17.38","89.1","0.0","0.0"],
    [1517794,"2026-04-29 19:40:00","64291","4.207","38.11","5.912999999999999","41.5","1013.865","17.38","89.0","0.0","0.0"],
    [1517795,"2026-04-29 19:50:00","64292","3.833","43.01","5.325","26.67","1014.075","17.38","88.7","0.0","0.0"],
    [1517796,"2026-04-29 20:00:00","64293","4.275","39.76","6.0760000000000005","36.24","1014.106","17.38","88.5","0.0","0.0"],
    [1517797,"2026-04-29 20:10:00","64294","4.824","37.15","6.7620000000000005","42.81","1014.131","17.38","88.2","0.0","0.0"],
    [1517798,"2026-04-29 20:20:00","64295","5.433","37.36","7.023","31.75","1014.272","17.39","88.2","0.0","0.0"],
    [1517799,"2026-04-29 20:30:00","64296","5.255","39.64","7.579","38.33","1014.34","17.42","87.8","0.0","0.0"],
    [1517800,"2026-04-29 20:40:00","64297","5.02","41.5","6.468","45.52","1014.46","17.42","87.9","0.0","0.0"],
    [1517801,"2026-04-29 20:50:00","64298","5.664","44.14","6.9910000000000005","46.35","1014.503","17.43","87.7","0.0","0.0"],
    [1517802,"2026-04-29 21:00:00","64299","5.073","47.78","6.599","48.38","1014.604","17.42","87.9","0.0","0.0"],
    [1517803,"2026-04-29 21:10:00","64300","5.14","49.35","6.435","53.74","1014.724","17.39","87.9","0.0","0.0"],
    [1517804,"2026-04-29 21:20:00","64301","4.789","49.0","5.912999999999999","48.52","1014.849","17.38","88.2","0.0","0.0"],
    [1517805,"2026-04-29 21:30:00","64302","5.169","44.49","6.501","44.47","1014.809","17.35","88.1","0.0","0.0"],
    [1517806,"2026-04-29 21:40:00","64303","5.303999999999999","43.64","6.631","47.84","1014.784","17.32","88.2","0.0","0.0"],
    [1517807,"2026-04-29 21:50:00","64304","5.311","44.92","6.729","38.07","1014.764","17.32","88.1","0.0","0.0"],
    [1517808,"2026-04-29 22:00:00","64305","5.817","40.98","7.121","39.75","1014.692","17.3","88.3","0.0","0.0"],
    [1517809,"2026-04-29 22:10:00","64306","5.0360000000000005","39.47","6.631","47.69","1014.829","17.29","88.7","0.0","0.0"],
    [1517810,"2026-04-29 22:20:00","64307","5.7410000000000005","42.21","6.795","40.68","1014.854","17.28","88.8","0.0","0.0"],
    [1517811,"2026-04-29 22:30:00","64308","4.8839999999999995","44.49","6.501","41.41","1014.898","17.26","89.1","0.0","0.0"],
    [1517812,"2026-04-29 22:40:00","64309","4.949","44.66","6.011","32.56","1014.82","17.25","89.3","0.0","0.0"],
    [1517813,"2026-04-29 22:50:00","64310","5.324","44.32","6.566","41.17","1014.778","17.24","89.1","0.0","0.0"],
    [1517814,"2026-04-29 23:00:00","64311","5.2620000000000005","42.73","6.37","38.2","1014.811","17.24","89.1","0.0","0.0"],
    [1517815,"2026-04-29 23:10:00","64312","4.883","46.09","5.978","42.92","1014.93","17.23","89.1","0.0","0.0"],
    [1517816,"2026-04-29 23:20:00","64313","4.862","44.62","5.815","42.54","1014.93","17.22","89.0","0.0","0.0"],
    [1517817,"2026-04-29 23:30:00","64314","3.983","36.97","5.521","29.31","1014.971","17.23","88.8","0.0","0.0"],
    [1517818,"2026-04-29 23:40:00","64315","3.5189999999999997","38.72","4.9","37.88","1015.061","17.23","89.3","0.0","0.0"],
    [1517819,"2026-04-29 23:50:00","64316","4.19","37.69","5.422999999999999","23.69","1014.919","17.18","89.3","0.0","0.0"],
    [1517820,"2026-04-30 00:00:00","64317","4.9639999999999995","30.47","5.978","31.64","1014.784","17.16","89.4","0.0","0.0"],
    [1517821,"2026-04-30 00:10:00","64318","3.96","31.3","5.096","30.28","1014.977","17.16","89.5","0.0","0.0"],
    [1517822,"2026-04-30 00:20:00","64319","4.135","29.54","5.031000000000001","31.74","1014.954","17.13","89.4","0.0","0.0"],
    [1517823,"2026-04-30 00:30:00","64320","4.413","31.25","5.325","35.08","1014.909","17.11","88.7","0.0","0.0"],
    [1517824,"2026-04-30 00:40:00","64321","4.787","30.56","5.7170000000000005","31.43","1014.855","17.11","87.6","0.0","0.0"],
    [1517825,"2026-04-30 00:50:00","64322","4.8839999999999995","32.13","5.782","34.07","1014.704","17.15","87.3","0.0","0.0"],
    [1517826,"2026-04-30 01:00:00","64323","4.591","37.84","6.207000000000001","36.52","1014.675","17.12","88.1","0.0","0.0"],
    [1517827,"2026-04-30 01:10:00","64324","4.328","29.51","5.782","31.09","1014.607","17.06","87.6","0.0","0.0"],
    [1517828,"2026-04-30 01:20:00","64325","4.656000000000001","30.65","5.684","31.16","1014.519","17.09","87.3","0.0","0.0"],
    [1517829,"2026-04-30 01:30:00","64326","4.254","23.73","5.096","31.06","1014.487","17.06","87.2","0.0","0.0"],
    [1517830,"2026-04-30 01:40:00","64327","3.6430000000000002","14.86","4.769","14.05","1014.525","17.11","85.3","0.0","0.0"],
    [1517831,"2026-04-30 01:50:00","64328","3.263","25.63","4.345","33.67","1014.491","17.19","83.9","0.0","0.0"],
    [1517832,"2026-04-30 02:00:00","64329","3.033","21.46","4.1160000000000005","11.91","1014.484","17.22","82.9","0.0","0.0"],
    [1517833,"2026-04-30 02:10:00","64330","3.076","20.16","3.9530000000000003","24.11","1014.476","17.28","80.5","0.0","0.0"],
    [1517834,"2026-04-30 02:20:00","64331","2.633","21.86","3.495","26.72","1014.48","17.35","79.07","0.0","0.0"],
    [1517835,"2026-04-30 02:30:00","64332","3.1069999999999998","19.21","3.92","18.32","1014.518","17.47","75.33","0.0","0.0"],
    [1517836,"2026-04-30 02:40:00","64333","2.821","17.85","4.083","17.08","1014.511","17.52","75.51","0.0","0.0"],
    [1517837,"2026-04-30 02:50:00","64334","2.7689999999999997","17.48","3.495","8.93","1014.524","17.51","75.41","0.0","0.0"],
    [1517838,"2026-04-30 03:00:00","64335","2.628","9.89","3.6910000000000003","336.3","1014.416","17.46","75.21","0.0","0.0"],
    [1517839,"2026-04-30 03:10:00","64336","2.8089999999999997","356.9","3.659","344.5","1014.373","17.58","73.74","0.0","0.0"],
    [1517840,"2026-04-30 03:20:00","64337","2.2030000000000003","3.142","2.842","7.275","1014.361","17.57","72.94","0.0","0.0"],
    [1517841,"2026-04-30 03:30:00","64338","2.312","4.085","2.9730000000000003","6.643","1014.423","17.63","70.8","0.0","0.0"],
    [1517842,"2026-04-30 03:40:00","64339","1.972","358.2","2.8089999999999997","359.2","1014.486","17.65","69.99","0.0","0.0"],
    [1517843,"2026-04-30 03:50:00","64340","1.3769999999999998","0.127","2.189","339.4","1014.488","17.66","69.12","0.0","0.0"],
    [1517844,"2026-04-30 04:00:00","64341","1.015","343.7","1.666","345.9","1014.476","17.57","69.56","0.0","0.0"],
    [1517845,"2026-04-30 04:10:00","64342","0.16699999999999998","315.7","0.784","336.4","1014.526","17.5","68.41","0.0","0.0"],
    [1517846,"2026-04-30 04:20:00","64343","0.355","268.6","1.4369999999999998","265.9","1014.53","17.41","69.08","0.0","0.0"],
    [1517847,"2026-04-30 04:30:00","64344","1.199","259.1","1.8619999999999999","259.4","1014.662","17.09","72.01","0.0","0.0"],
    [1517848,"2026-04-30 04:40:00","64345","0.826","250.5","1.895","255.5","1014.761","16.83","73.83","0.0","0.0"],
    [1517849,"2026-04-30 04:50:00","64346","0.777","265.5","1.078","259.6","1014.854","16.78","74.77","0.0","0.0"],
    [1517850,"2026-04-30 05:00:00","64347","0.066","227.5","0.882","240.8","1014.957","16.66","76.15","0.0","0.0"],
    [1517851,"2026-04-30 05:10:00","64348","0.0","0.0","0.0","0.0","1015.068","16.63","77.11","0.0","0.0"],
    [1517852,"2026-04-30 05:20:00","64349","0.0","0.0","0.0","0.0","1015.192","16.67","76.67","25.28","0.0"],
    [1517853,"2026-04-30 05:30:00","64350","0.22399999999999998","4.113","1.176","8.75","1015.273","16.83","76.66","59.74","0.0"],
    [1517854,"2026-04-30 05:40:00","64351","1.705","20.75","2.613","36.68","1015.368","17.11","73.91","66.7","0.0"],
    [1517855,"2026-04-30 05:50:00","64352","1.9780000000000002","26.88","2.613","36.68","1015.534","17.43","71.01","65.3","0.0"],
    [1517856,"2026-04-30 06:00:00","64353","1.8030000000000002","41.36","2.7110000000000003","57.71","1015.725","17.4","72.11","67.12","0.0"],
    [1517857,"2026-04-30 06:10:00","64354","1.375","46.71","2.613","39.55","1015.906","17.44","73.97","118.3","0.0"],
    [1517858,"2026-04-30 06:20:00","64355","2.174","44.14","3.201","40.02","1015.86","17.45","75.45","137.7","0.0"],
    [1517859,"2026-04-30 06:30:00","64356","2.489","47.65","3.6260000000000003","52.75","1015.896","17.28","76.84","96.1","0.0"],
    [1517860,"2026-04-30 06:40:00","64357","2.945","51.93","4.051","46.04","1015.903","17.22","79.86","188.6","0.0"],
    [1517861,"2026-04-30 06:50:00","64358","3.61","46.52","4.737","53.89","1015.808","17.17","82.9","235.3","0.0"],
    [1517862,"2026-04-30 07:00:00","64359","3.964","47.62","5.39","43.11","1015.776","17.08","83.9","243.7","0.0"],
    [1517863,"2026-04-30 07:10:00","64360","3.8710000000000004","47.79","5.063","40.37","1015.844","17.08","83.6","289.9","0.0"],
    [1517864,"2026-04-30 07:20:00","64361","4.185","44.33","5.357","37.06","1015.819","17.11","84.3","323.3","0.0"],
    [1517865,"2026-04-30 07:30:00","64362","4.26","40.22","5.096","41.73","1015.831","17.07","85.5","338.2","0.0"],
    [1517866,"2026-04-30 07:40:00","64363","3.864","37.03","5.357","44.24","1015.949","16.99","86.1","208.2","0.0"],
    [1517867,"2026-04-30 07:50:00","64364","3.648","36.43","4.769","40.61","1016.128","16.96","85.8","247.1","0.0"],
    [1517868,"2026-04-30 08:00:00","64365","3.6710000000000003","32.29","4.802","31.94","1016.079","17.02","84.9","277.1","0.0"],
    [1517869,"2026-04-30 08:10:00","64366","3.391","40.34","4.475","29.25","1016.187","17.11","83.7","451.7","0.0"],
    [1517870,"2026-04-30 08:20:00","64367","2.884","41.9","3.887","53.19","1016.41","17.27","81.7","570.4","0.0"],
    [1517871,"2026-04-30 08:30:00","64368","3.161","34.04","4.377","29.61","1016.483","17.35","79.42","583.0","0.0"],
    [1517872,"2026-04-30 08:40:00","64369","2.944","43.75","4.541","50.17","1016.624","17.5","76.85","447.7","0.0"],
    [1517873,"2026-04-30 08:50:00","64370","1.885","47.93","4.279","42.71","1016.768","17.61","75.84","335.5","0.0"],
    [1517874,"2026-04-30 09:00:00","64371","2.019","50.11","3.365","37.54","1016.924","17.59","75.61","344.7","0.0"],
    [1517875,"2026-04-30 09:10:00","64372","1.6669999999999998","42.96","2.7769999999999997","36.33","1017.205","17.69","74.97","335.5","0.0"],
    [1517876,"2026-04-30 09:20:00","64373","1.508","62.53","3.332","51.15","1017.26","17.75","74.13","385.7","0.0"],
    [1517877,"2026-04-30 09:30:00","64374","2.146","90.1","3.7889999999999997","88.7","1017.215","17.94","73.22","758.0","0.0"],
    [1517878,"2026-04-30 09:40:00","64375","1.99","63.56","4.835","106.7","1017.244","18.08","72.36","716.4","0.0"],
    [1517879,"2026-04-30 09:50:00","64376","1.83","59.02","3.7239999999999998","3.4","1017.329","18.11","73.02","773.1","0.0"],
    [1517880,"2026-04-30 10:00:00","64377","3.167","47.93","5.749","43.06","1017.433","17.98","76.51","411.1","0.0"],
    [1517881,"2026-04-30 10:10:00","64378","3.275","48.9","6.827000000000001","43.56","1017.496","17.85","78.8","341.2","0.0"],
    [1517882,"2026-04-30 10:20:00","64379","4.098","45.3","5.912999999999999","39.5","1017.558","17.79","79.94","463.1","0.0"],
    [1517883,"2026-04-30 10:30:00","64380","4.1160000000000005","40.19","5.292000000000001","34.8","1017.532","17.81","81.2","854.0","0.0"],
    [1517884,"2026-04-30 10:40:00","64381","4.257","37.32","5.749","38.04","1017.56","17.84","83.0","839.0","0.0"],
    [1517885,"2026-04-30 10:50:00","64382","4.422","42.56","5.586","42.72","1017.589","17.84","83.9","844.0","0.0"],
    [1517886,"2026-04-30 11:00:00","64383","5.1610000000000005","47.36","6.795","43.71","1017.476","17.9","83.9","848.0","0.0"],
    [1517887,"2026-04-30 11:10:00","64384","5.4079999999999995","45.06","7.023","46.9","1017.384","17.96","83.7","885.0","0.0"],
    [1517888,"2026-04-30 11:20:00","64385","5.48","41.64","7.317","41.34","1017.371","17.97","83.7","769.3","0.0"],
    [1517889,"2026-04-30 11:30:00","64386","5.769","42.78","7.154","38.64","1017.287","17.96","83.5","886.0","0.0"],
    [1517890,"2026-04-30 11:40:00","64387","5.393","46.1","6.435","56.89","1017.31","18.02","83.7","919.0","0.0"],
    [1517891,"2026-04-30 11:50:00","64388","5.289","49.65","7.056","47.65","1017.289","18.08","83.7","902.0","0.0"],
    [1517892,"2026-04-30 12:00:00","64389","5.244","41.82","7.056","46.13","1017.219","18.11","83.6","906.0","0.0"],
    [1517893,"2026-04-30 12:10:00","64390","5.739","42.91","7.121","42.82","1017.128","18.13","83.0","909.0","0.0"],
    [1517894,"2026-04-30 12:20:00","64391","5.726","44.09","7.6770000000000005","42.66","1017.058","18.26","81.7","906.0","0.0"],
    [1517895,"2026-04-30 12:30:00","64392","5.727","42.64","8.13","47.81","1016.995","18.31","81.9","917.0","0.0"],
    [1517896,"2026-04-30 12:40:00","64393","5.653","40.87","8.13","50.94","1016.984","18.32","82.9","933.0","0.0"],
    [1517897,"2026-04-30 12:50:00","64394","5.472","40.04","7.644","50.29","1017.072","18.35","83.8","776.9","0.0"],
    [1517898,"2026-04-30 13:00:00","64395","4.885","36.45","8.82","28.78","1017.061","18.28","84.3","763.4","0.0"],
    [1517899,"2026-04-30 13:10:00","64396","4.0889999999999995","40.06","7.481","45.86","1017.114","18.26","84.5","839.0","0.0"],
    [1517900,"2026-04-30 13:20:00","64397","4.255","40.25","8.75","39.46","1017.071","18.26","84.6","833.0","0.0"],
    [1517901,"2026-04-30 13:30:00","64398","4.89","42.38","9.31","26.55","1017.033","18.23","84.8","819.0","0.0"],
    [1517902,"2026-04-30 13:40:00","64399","3.287","50.54","7.252000000000001","38.19","1017.044","18.21","85.3","771.5","0.0"],
    [1517903,"2026-04-30 13:50:00","64400","4.579","43.31","9.8","49.98","1017.024","18.2","85.6","771.4","0.0"],
    [1517904,"2026-04-30 14:00:00","64401","6.195","42.15","8.59","38.35","1017.039","18.16","86.1","753.9","0.0"],
    [1517905,"2026-04-30 14:10:00","64402","6.135","44.66","7.905","45.49","1017.023","18.13","86.2","724.5","0.0"],
    [1517906,"2026-04-30 14:20:00","64403","6.255","45.13","8.43","39.93","1016.933","18.08","86.3","704.4","0.0"],
    [1517907,"2026-04-30 14:30:00","64404","6.077000000000001","44.72","8.17","55.79","1016.826","18.07","86.3","698.0","0.0"],
    [1517908,"2026-04-30 14:40:00","64405","6.292999999999999","48.05","8.13","53.58","1016.82","18.02","86.3","644.6","0.0"],
    [1517909,"2026-04-30 14:50:00","64406","6.195","49.34","8.26","44.26","1016.819","18.01","86.2","637.3","0.0"],
    [1517910,"2026-04-30 15:00:00","64407","6.542999999999999","48.32","8.43","45.13","1016.707","17.99","85.6","619.5","0.0"],
    [1517911,"2026-04-30 15:10:00","64408","6.539","43.97","8.79","50.78","1016.765","18.03","84.3","570.3","0.0"],
    [1517912,"2026-04-30 15:20:00","64409","5.8629999999999995","43.39","7.709","53.35","1016.794","18.14","84.0","560.0","0.0"],
    [1517913,"2026-04-30 15:30:00","64410","5.977","46.11","7.905","50.64","1016.811","18.13","83.6","503.5","0.0"],
    [1517914,"2026-04-30 15:40:00","64411","5.952000000000001","44.91","8.26","38.59","1016.817","18.19","81.8","500.3","0.0"],
    [1517915,"2026-04-30 15:50:00","64412","4.912","44.46","6.925","39.77","1016.811","18.28","81.7","440.3","0.0"],
    [1517916,"2026-04-30 16:00:00","64413","5.16","43.54","7.023","50.01","1016.826","18.33","81.9","434.8","0.0"],
    [1517917,"2026-04-30 16:10:00","64414","5.51","46.94","7.121","49.18","1016.921","18.22","81.7","402.9","0.0"],
    [1517918,"2026-04-30 16:20:00","64415","5.096","42.34","6.305","39.19","1016.953","18.1","83.3","402.0","0.0"],
    [1517919,"2026-04-30 16:30:00","64416","4.856","41.03","6.0760000000000005","44.56","1016.972","18.05","82.8","353.3","0.0"],
    [1517920,"2026-04-30 16:40:00","64417","5.001","42.76","6.0760000000000005","40.31","1016.98","18.06","81.7","335.4","0.0"],
    [1517921,"2026-04-30 16:50:00","64418","4.626","37.72","6.141","35.77","1016.897","18.08","82.1","291.7","0.0"],
    [1517922,"2026-04-30 17:00:00","64419","4.987","40.07","6.468","36.58","1016.852","18.05","83.2","249.5","0.0"],
    [1517923,"2026-04-30 17:10:00","64420","4.52","36.34","6.435","38.91","1016.859","18.01","84.1","200.7","0.0"],
    [1517924,"2026-04-30 17:20:00","64421","5.101","40.47","6.599","43.95","1016.878","17.94","84.3","199.6","0.0"],
    [1517925,"2026-04-30 17:30:00","64422","4.227","38.24","5.749","36.1","1016.889","17.97","84.5","170.5","0.0"],
    [1517926,"2026-04-30 17:40:00","64423","3.602","41.92","5.4879999999999995","40.31","1016.993","17.95","84.6","111.0","0.0"],
    [1517927,"2026-04-30 17:50:00","64424","3.1180000000000003","53.53","4.279","68.88","1017.049","17.97","84.3","75.98","0.0"],
    [1517928,"2026-04-30 18:00:00","64425","3.196","59.31","4.965","55.7","1017.104","17.94","83.7","67.09","0.0"],
    [1517929,"2026-04-30 18:10:00","64426","3.83","58.89","5.4879999999999995","59.6","1017.075","17.94","82.4","67.09","0.0"],
    [1517930,"2026-04-30 18:20:00","64427","4.296","44.05","6.566","35.81","1017.105","17.93","82.7","41.99","0.0"],
    [1517931,"2026-04-30 18:30:00","64428","4.544","41.27","6.042999999999999","47.7","1017.211","17.84","83.6","12.86","0.0"],
    [1517932,"2026-04-30 18:40:00","64429","4.6819999999999995","36.4","6.468","26.37","1017.38","17.81","84.1","0.0","0.0"],
    [1517933,"2026-04-30 18:50:00","64430","5.412000000000001","33.74","6.925","25.38","1017.327","17.78","84.0","0.0","0.0"],
    [1517934,"2026-04-30 19:00:00","64431","5.795","36.43","8.1","36.12","1017.395","17.77","84.5","0.0","0.0"],
    [1517935,"2026-04-30 19:10:00","64432","5.931","38.23","8.0","43.62","1017.557","17.74","84.6","0.0","0.0"],
    [1517936,"2026-04-30 19:20:00","64433","5.471","29.03","8.26","26.15","1017.671","17.69","85.0","0.0","0.0"],
    [1517937,"2026-04-30 19:30:00","64434","4.4830000000000005","42.41","7.742000000000001","34.52","1017.847","17.68","86.0","0.0","0.0"],
    [1517938,"2026-04-30 19:40:00","64435","5.035","42.35","7.317","37.74","1017.989","17.64","87.1","0.0","0.0"],
    [1517939,"2026-04-30 19:50:00","64436","4.566","50.35","6.631","51.0","1018.122","17.61","87.8","0.0","0.0"],
    [1517940,"2026-04-30 20:00:00","64437","4.2669999999999995","55.57","6.468","56.47","1018.28","17.63","87.9","0.0","0.0"],
    [1517941,"2026-04-30 20:10:00","64438","5.9079999999999995","66.11","9.57","73.89","1018.259","17.66","87.5","0.0","0.0"],
    [1517942,"2026-04-30 20:20:00","64439","7.537999999999999","72.06","10.71","72.5","1018.309","17.68","87.2","0.0","0.0"],
    [1517943,"2026-04-30 20:30:00","64440","7.952000000000001","74.61","11.01","74.7","1018.373","17.68","87.0","0.0","0.0"],
    [1517944,"2026-04-30 20:40:00","64441","8.31","71.35","11.11","70.81","1018.518","17.69","86.1","0.0","0.0"],
    [1517945,"2026-04-30 20:50:00","64442","8.86","72.06","11.6","73.26","1018.67","17.72","85.9","0.0","0.0"],
    [1517946,"2026-04-30 21:00:00","64443","8.92","67.15","12.12","67.69","1018.719","17.69","86.9","0.0","0.0"],
    [1517947,"2026-04-30 21:10:00","64444","8.76","71.8","10.75","71.44","1018.829","17.64","86.9","0.0","0.0"],
    [1517948,"2026-04-30 21:20:00","64445","8.96","71.19","11.73","61.76","1018.872","17.62","86.1","0.0","0.0"],
    [1517949,"2026-04-30 21:30:00","64446","9.3","71.57","12.15","75.38","1018.946","17.63","85.6","0.0","0.0"],
    [1517950,"2026-04-30 21:40:00","64447","7.867999999999999","68.68","11.04","71.07","1019.017","17.65","85.4","0.0","0.0"],
    [1517951,"2026-04-30 21:50:00","64448","8.37","68.43","11.11","77.1","1019.065","17.62","86.1","0.0","0.0"],
    [1517952,"2026-04-30 22:00:00","64449","7.906000000000001","67.16","10.88","77.43","1019.035","17.58","87.0","0.0","0.0"],
    [1517953,"2026-04-30 22:10:00","64450","7.984","68.55","11.07","74.12","1019.013","17.54","86.5","0.0","0.0"],
    [1517954,"2026-04-30 22:20:00","64451","7.965","68.21","10.55","70.23","1019.044","17.59","83.7","0.0","0.0"],
    [1517955,"2026-04-30 22:30:00","64452","8.79","69.65","12.32","70.73","1019.118","17.66","82.3","0.0","0.0"],
    [1517956,"2026-04-30 22:40:00","64453","7.962999999999999","71.42","10.45","69.66","1019.225","17.73","81.3","0.0","0.0"],
    [1517957,"2026-04-30 22:50:00","64454","7.965","71.03","10.58","71.4","1019.252","17.76","80.4","0.0","0.0"],
    [1517958,"2026-04-30 23:00:00","64455","7.694","69.17","10.22","69.08","1019.364","17.83","78.94","0.0","0.0"],
    [1517959,"2026-04-30 23:10:00","64456","7.047999999999999","70.53","9.21","62.44","1019.468","17.86","79.36","0.0","0.0"],
    [1517960,"2026-04-30 23:20:00","64457","6.765","70.92","8.95","75.36","1019.639","17.81","79.55","0.0","0.0"],
    [1517961,"2026-04-30 23:30:00","64458","6.478","69.39","8.53","58.65","1019.793","17.81","79.24","0.0","0.0"],
    [1517962,"2026-04-30 23:40:00","64459","6.765","70.51","8.82","69.2","1019.927","17.79","79.81","0.0","0.0"],
    [1517963,"2026-04-30 23:50:00","64460","5.857","62.78","8.3","59.59","1019.99","17.77","80.6","0.0","0.0"],
    [1517964,"2026-05-01 00:00:00","64461","6.247999999999999","65.01","8.95","75.72","1020.083","17.74","81.0","0.0","0.0"],
    [1517965,"2026-05-01 00:10:00","64462","6.1","63.47","8.23","79.61","1020.161","17.74","80.9","0.0","0.0"],
    [1517966,"2026-05-01 00:20:00","64463","5.513","55.6","7.709","56.29","1020.169","17.73","81.2","0.0","0.0"],
    [1517967,"2026-05-01 00:30:00","64464","6.178999999999999","49.59","7.742000000000001","49.27","1020.104","17.73","80.9","0.0","0.0"],
    [1517968,"2026-05-01 00:40:00","64465","6.371","49.76","8.13","50.28","1020.07","17.85","79.93","0.0","0.0"],
    [1517969,"2026-05-01 00:50:00","64466","5.504","56.47","8.89","50.55","1020.144","17.78","81.5","0.0","0.0"],
    [1517970,"2026-05-01 01:00:00","64467","5.746","56.01","7.546","57.4","1020.07","17.74","81.2","0.0","0.0"],
    [1517971,"2026-05-01 01:10:00","64468","5.541","57.19","8.0","55.47","1019.943","17.66","82.2","0.0","0.0"],
    [1517972,"2026-05-01 01:20:00","64469","6.115","58.29","9.41","61.04","1019.818","17.56","82.4","0.0","0.0"],
    [1517973,"2026-05-01 01:30:00","64470","5.742000000000001","55.12","9.51","41.59","1019.779","17.52","83.8","0.0","0.0"],
    [1517974,"2026-05-01 01:40:00","64471","5.9510000000000005","53.01","7.709","60.14","1019.734","17.33","85.2","0.0","0.0"],
    [1517975,"2026-05-01 01:50:00","64472","5.2620000000000005","53.61","7.056","67.44","1019.839","17.25","86.0","0.0","0.0"],
    [1517976,"2026-05-01 02:00:00","64473","6.042999999999999","46.55","7.546","45.33","1019.787","17.19","86.0","0.0","0.0"],
    [1517977,"2026-05-01 02:10:00","64474","6.513","47.06","8.85","47.66","1019.795","17.18","85.3","0.0","0.0"],
    [1517978,"2026-05-01 02:20:00","64475","6.46","48.0","8.2","50.76","1019.835","17.19","85.0","0.0","0.0"],
    [1517979,"2026-05-01 02:30:00","64476","6.4110000000000005","44.31","8.75","51.42","1019.841","17.15","85.0","0.0","0.0"],
    [1517980,"2026-05-01 02:40:00","64477","6.852","50.59","9.02","50.7","1019.762","17.15","83.8","0.0","0.0"],
    [1517981,"2026-05-01 02:50:00","64478","6.779","51.06","9.41","55.3","1019.826","17.09","83.9","0.0","0.0"],
    [1517982,"2026-05-01 03:00:00","64479","7.523","48.1","9.34","48.85","1019.807","17.11","82.6","0.0","0.0"],
    [1517983,"2026-05-01 03:10:00","64480","6.874","48.43","9.24","47.65","1019.887","17.19","81.7","0.0","0.0"],
    [1517984,"2026-05-01 03:20:00","64481","6.852","47.55","8.85","46.61","1019.909","17.22","81.1","0.0","0.0"],
    [1517985,"2026-05-01 03:30:00","64482","5.912999999999999","31.59","8.75","20.63","1019.973","17.22","81.5","0.0","0.0"],
    [1517986,"2026-05-01 03:40:00","64483","6.565","43.73","8.89","54.35","1020.039","17.17","81.3","0.0","0.0"],
    [1517987,"2026-05-01 03:50:00","64484","7.145","42.1","8.95","41.39","1019.974","17.16","80.8","0.0","0.0"],
    [1517988,"2026-05-01 04:00:00","64485","7.025","41.38","9.15","38.22","1019.927","17.13","81.0","0.0","0.0"],
    [1517989,"2026-05-01 04:10:00","64486","6.667999999999999","44.33","8.92","48.35","1019.895","17.14","80.7","0.0","0.0"],
    [1517990,"2026-05-01 04:20:00","64487","6.899","42.8","8.82","42.52","1019.936","17.11","81.1","0.0","0.0"],
    [1517991,"2026-05-01 04:30:00","64488","5.736000000000001","32.4","7.807","36.97","1019.97","17.12","80.8","0.0","0.0"],
    [1517992,"2026-05-01 04:40:00","64489","4.615","22.27","6.435","25.97","1020.039","17.02","80.7","0.0","0.0"],
    [1517993,"2026-05-01 04:50:00","64490","3.802","26.63","4.9","32.92","1020.178","16.91","79.46","0.0","0.0"],
    [1517994,"2026-05-01 05:00:00","64491","3.305","20.34","4.541","25.37","1020.277","16.9","78.79","0.0","0.0"],
    [1517995,"2026-05-01 05:10:00","64492","3.389","6.522","4.345","16.78","1020.317","16.9","77.29","0.0","0.0"],
    [1517996,"2026-05-01 05:20:00","64493","2.785","4.092","5.031000000000001","21.99","1020.381","16.92","75.83","0.0","0.0"],
    [1517997,"2026-05-01 05:30:00","64494","2.889","12.7","4.541","21.55","1020.545","17.05","73.35","26.26","0.0"],
    [1517998,"2026-05-01 05:40:00","64495","3.2969999999999997","9.73","4.181","12.54","1020.596","17.13","73.22","65.91","0.0"],
    [1517999,"2026-05-01 05:50:00","64496","4.081","7.997999999999999","5.4879999999999995","2.641","1020.603","17.18","72.14","67.12","0.0"],
    [1518000,"2026-05-01 06:00:00","64497","4.131","8.61","5.325","5.59","1020.672","17.29","71.57","93.1","0.0"],
    [1518001,"2026-05-01 06:10:00","64498","3.641","14.89","4.508","10.71","1020.799","17.37","72.01","124.3","0.0"],
    [1518002,"2026-05-01 06:20:00","64499","4.016","14.89","5.031000000000001","5.67","1020.854","17.45","71.3","134.1","0.0"],
    [1518003,"2026-05-01 06:30:00","64500","3.8680000000000003","22.99","5.325","28.16","1020.898","17.58","71.54","134.2","0.0"],
    [1518004,"2026-05-01 06:40:00","64501","4.585","28.72","5.749","27.47","1020.878","17.68","70.39","173.0","0.0"],
    [1518005,"2026-05-01 06:50:00","64502","4.888","30.54","6.631","33.11","1020.927","17.73","71.83","182.8","0.0"],
    [1518006,"2026-05-01 07:00:00","64503","5.643","31.1","7.056","29.71","1021.017","17.81","71.79","265.4","0.0"],
    [1518007,"2026-05-01 07:10:00","64504","5.486000000000001","35.47","7.154","37.58","1021.084","17.85","72.32","288.3","0.0"],
    [1518008,"2026-05-01 07:20:00","64505","5.687","33.92","8.1","32.84","1021.066","17.9","73.17","344.4","0.0"],
    [1518009,"2026-05-01 07:30:00","64506","6.216","31.5","8.17","37.92","1021.08","17.96","73.26","402.6","0.0"],
    [1518010,"2026-05-01 07:40:00","64507","5.857","33.51","7.611000000000001","32.93","1021.173","18.07","72.96","401.1","0.0"],
    [1518011,"2026-05-01 07:50:00","64508","5.855","40.63","7.415","44.51","1021.376","18.21","71.26","387.2","0.0"],
    [1518012,"2026-05-01 08:00:00","64509","4.726","35.71","7.382999999999999","28.48","1021.535","18.19","74.31","323.4","0.0"],
    [1518013,"2026-05-01 08:10:00","64510","3.2030000000000003","28.13","7.971","31.9","1021.661","18.25","74.54","394.4","0.0"],
    [1518014,"2026-05-01 08:20:00","64511","3.937","32.21","8.49","36.81","1021.776","18.14","75.87","438.4","0.0"],
    [1518015,"2026-05-01 08:30:00","64512","5.082","32.28","9.87","22.3","1021.829","18.03","75.71","496.7","0.0"],
    [1518016,"2026-05-01 08:40:00","64513","5.784","33.79","10.26","31.7","1021.845","18.08","74.89","479.2","0.0"],
    [1518017,"2026-05-01 08:50:00","64514","6.396","29.6","11.73","32.46","1021.858","18.14","74.31","480.7","0.0"],
    [1518018,"2026-05-01 09:00:00","64515","5.898","34.56","10.88","34.24","1021.984","18.16","74.16","475.0","0.0"],
    [1518019,"2026-05-01 09:10:00","64516","6.3420000000000005","30.42","11.47","26.87","1022.019","18.17","74.28","488.6","0.0"],
    [1518020,"2026-05-01 09:20:00","64517","6.422999999999999","29.97","11.07","30.63","1022.096","18.19","74.6","577.6","0.0"],
    [1518021,"2026-05-01 09:30:00","64518","5.495","36.81","9.77","38.26","1022.139","18.09","75.86","434.1","0.0"],
    [1518022,"2026-05-01 09:40:00","64519","4.738","31.68","9.31","37.05","1022.242","18.02","75.83","494.3","0.0"],
    [1518023,"2026-05-01 09:50:00","64520","4.7219999999999995","41.91","9.6","54.06","1022.389","18.08","76.03","591.5","0.0"],
    [1518024,"2026-05-01 10:00:00","64521","4.687","32.19","11.17","46.76","1022.426","18.14","74.63","722.3","0.0"],
    [1518025,"2026-05-01 10:10:00","64522","4.46","43.53","10.52","28.1","1022.359","18.28","72.78","712.5","0.0"],
    [1518026,"2026-05-01 10:20:00","64523","4.743","41.26","9.8","31.81","1022.376","18.33","71.8","776.7","0.0"],
    [1518027,"2026-05-01 10:30:00","64524","5.023","41.74","10.32","25.43","1022.378","18.45","69.99","802.0","0.0"],
    [1518028,"2026-05-01 10:40:00","64525","5.034","60.42","10.36","79.0","1022.511","18.48","69.15","847.0","0.0"],
    [1518029,"2026-05-01 10:50:00","64526","5.53","52.12","10.52","76.82","1022.438","18.42","70.1","863.0","0.0"],
    [1518030,"2026-05-01 11:00:00","64527","5.957999999999999","37.65","11.76","24.52","1022.399","18.34","71.88","832.0","0.0"],
    [1518031,"2026-05-01 11:10:00","64528","6.599","23.54","13.59","20.56","1022.34","18.3","72.86","765.0","0.0"],
    [1518032,"2026-05-01 11:20:00","64529","7.781000000000001","28.26","13.16","25.24","1022.257","18.2","73.78","742.3","0.0"],
    [1518033,"2026-05-01 11:30:00","64530","7.362","29.73","11.86","19.31","1022.257","18.15","74.86","797.5","0.0"],
    [1518034,"2026-05-01 11:40:00","64531","7.0520000000000005","30.97","12.22","25.98","1022.255","18.11","75.21","777.0","0.0"],
    [1518035,"2026-05-01 11:50:00","64532","6.558","30.64","12.25","28.54","1022.269","18.1","75.17","741.3","0.0"],
    [1518036,"2026-05-01 12:00:00","64533","5.574","27.85","10.81","28.49","1022.347","18.04","75.28","735.3","0.0"],
    [1518037,"2026-05-01 12:10:00","64534","5.11","46.77","11.3","32.66","1022.328","18.0","74.53","780.1","0.0"],
    [1518038,"2026-05-01 12:20:00","64535","5.343999999999999","54.51","10.85","28.2","1022.247","18.0","73.79","833.0","0.0"],
    [1518039,"2026-05-01 12:30:00","64536","4.828","48.18","10.55","63.95","1022.252","17.97","73.31","741.9","0.0"],
    [1518040,"2026-05-01 12:40:00","64537","4.708","55.67","10.03","76.1","1022.299","17.95","72.73","777.8","0.0"],
    [1518041,"2026-05-01 12:50:00","64538","6.082999999999999","74.58","12.48","80.7","1022.374","17.93","71.46","861.0","0.0"],
    [1518042,"2026-05-01 13:00:00","64539","6.287000000000001","75.01","11.6","103.2","1022.418","17.92","71.66","791.4","0.0"],
    [1518043,"2026-05-01 13:10:00","64540","6.624","77.95","10.71","92.7","1022.488","17.93","69.6","802.0","0.0"],
    [1518044,"2026-05-01 13:20:00","64541","6.816","78.28","12.51","85.0","1022.461","17.96","69.28","684.3","0.0"],
    [1518045,"2026-05-01 13:30:00","64542","6.812","80.4","10.68","67.28","1022.474","17.9","70.39","648.8","0.0"],
    [1518046,"2026-05-01 13:40:00","64543","6.15","75.68","10.29","99.1","1022.472","17.89","70.96","589.3","0.0"],
    [1518047,"2026-05-01 13:50:00","64544","6.016","80.7","10.62","85.2","1022.429","17.87","69.5","583.9","0.0"],
    [1518048,"2026-05-01 14:00:00","64545","6.627000000000001","79.92","12.61","83.8","1022.359","17.82","70.38","461.5","0.0"],
    [1518049,"2026-05-01 14:10:00","64546","6.091","69.07","11.66","90.8","1022.296","17.79","69.9","500.2","0.0"],
    [1518050,"2026-05-01 14:20:00","64547","5.739","77.55","10.85","79.84","1022.285","17.81","69.63","515.3","0.0"],
    [1518051,"2026-05-01 14:30:00","64548","5.492000000000001","74.9","11.4","87.1","1022.329","17.77","71.56","481.0","0.0"],
    [1518052,"2026-05-01 14:40:00","64549","4.656000000000001","66.62","8.82","76.53","1022.306","17.73","72.36","500.6","0.0"],
    [1518053,"2026-05-01 14:50:00","64550","4.987","30.88","9.02","14.64","1022.298","17.79","72.57","481.2","0.0"],
    [1518054,"2026-05-01 15:00:00","64551","6.369","24.36","10.68","43.37","1022.258","17.78","71.76","432.3","0.0"],
    [1518055,"2026-05-01 15:10:00","64552","7.055","29.04","9.9","11.14","1022.305","17.77","71.97","358.8","0.0"],
    [1518056,"2026-05-01 15:20:00","64553","6.765","33.61","10.13","27.5","1022.296","17.73","73.02","335.6","0.0"],
    [1518057,"2026-05-01 15:30:00","64554","6.461","32.88","11.07","30.3","1022.235","17.7","73.53","335.5","0.0"],
    [1518058,"2026-05-01 15:40:00","64555","6.075","32.56","10.65","30.94","1022.297","17.68","74.38","286.5","0.0"],
    [1518059,"2026-05-01 15:50:00","64556","6.97","35.16","10.45","42.86","1022.264","17.58","74.63","268.4","0.0"],
    [1518060,"2026-05-01 16:00:00","64557","6.517","36.39","9.51","35.81","1022.294","17.58","74.98","234.8","0.0"],
    [1518061,"2026-05-01 16:10:00","64558","6.437","37.6","8.49","37.72","1022.307","17.55","76.83","206.2","0.0"],
    [1518062,"2026-05-01 16:20:00","64559","7.125","37.14","9.11","26.96","1022.272","17.48","77.48","204.5","0.0"],
    [1518063,"2026-05-01 16:30:00","64560","6.796","39.34","9.8","359.8","1022.226","17.45","79.26","158.8","0.0"],
    [1518064,"2026-05-01 16:40:00","64561","6.477","44.64","8.26","45.03","1022.308","17.45","79.67","134.2","0.0"],
    [1518065,"2026-05-01 16:50:00","64562","6.359","48.29","7.807","48.39","1022.313","17.4","80.5","134.2","0.0"],
    [1518066,"2026-05-01 17:00:00","64563","6.097","45.3","7.513","49.68","1022.329","17.39","81.3","134.2","0.0"],
    [1518067,"2026-05-01 17:10:00","64564","6.09","47.6","7.938","49.21","1022.357","17.39","81.6","128.7","0.0"],
    [1518068,"2026-05-01 17:20:00","64565","5.437","38.37","7.056","37.42","1022.454","17.43","81.9","97.7","0.0"],
    [1518069,"2026-05-01 17:30:00","64566","5.1","42.37","8.26","53.59","1022.533","17.41","82.3","67.22","0.0"],
    [1518070,"2026-05-01 17:40:00","64567","4.876","44.33","7.0889999999999995","36.35","1022.558","17.42","82.2","67.1","0.0"],
    [1518071,"2026-05-01 17:50:00","64568","3.866","45.88","5.325","58.14","1022.668","17.44","83.0","67.1","0.0"],
    [1518072,"2026-05-01 18:00:00","64569","4.312","53.32","6.403","49.1","1022.742","17.43","83.6","67.1","0.0"],
    [1518073,"2026-05-01 18:10:00","64570","4.048","69.37","6.566","66.58","1022.807","17.45","84.1","67.1","0.0"],
    [1518074,"2026-05-01 18:20:00","64571","5.355","78.79","7.35","82.0","1022.842","17.41","84.6","66.13","0.0"],
    [1518075,"2026-05-01 18:30:00","64572","5.5","83.5","7.187","79.19","1022.987","17.41","84.5","32.49","0.0"],
    [1518076,"2026-05-01 18:40:00","64573","5.211","86.2","6.893","83.7","1023.153","17.41","84.5","0.8109999999999999","0.0"],
    [1518077,"2026-05-01 18:50:00","64574","4.647","86.6","6.925","85.9","1023.239","17.43","85.0","0.0","0.0"],
    [1518078,"2026-05-01 19:00:00","64575","4.435","93.6","6.0760000000000005","88.9","1023.316","17.43","85.2","0.0","0.0"],
    [1518079,"2026-05-01 19:10:00","64576","4.664","93.8","6.599","97.6","1023.357","17.42","85.0","0.0","0.0"],
    [1518080,"2026-05-01 19:20:00","64577","4.978","94.8","6.37","95.6","1023.446","17.39","85.4","0.0","0.0"],
    [1518081,"2026-05-01 19:30:00","64578","4.894","90.3","6.7620000000000005","84.3","1023.506","17.31","86.3","0.0","0.0"],
    [1518082,"2026-05-01 19:40:00","64579","4.961","81.9","6.501","74.91","1023.594","17.29","86.4","0.0","0.0"],
    [1518083,"2026-05-01 19:50:00","64580","4.667","83.2","6.0760000000000005","90.6","1023.666","17.31","86.6","0.0","0.0"],
    [1518084,"2026-05-01 20:00:00","64581","4.595","72.39","6.305","72.87","1023.789","17.37","86.4","0.0","0.0"],
    [1518085,"2026-05-01 20:10:00","64582","4.694","73.06","6.337000000000001","48.82","1023.906","17.44","85.5","0.0","0.0"],
    [1518086,"2026-05-01 20:20:00","64583","4.69","71.6","5.88","73.49","1024.003","17.42","86.1","0.0","0.0"],
    [1518087,"2026-05-01 20:30:00","64584","4.71","70.41","6.141","70.36","1024.109","17.43","85.5","0.0","0.0"],
    [1518088,"2026-05-01 20:40:00","64585","4.4110000000000005","67.65","6.109","66.0","1024.14","17.49","84.7","0.0","0.0"],
    [1518089,"2026-05-01 20:50:00","64586","4.574","61.37","6.403","59.33","1024.108","17.55","83.6","0.0","0.0"],
    [1518090,"2026-05-01 21:00:00","64587","4.681","68.51","6.599","68.35","1024.134","17.62","83.1","0.0","0.0"],
    [1518091,"2026-05-01 21:10:00","64588","4.751","69.61","6.207000000000001","62.12","1024.134","17.62","83.5","0.0","0.0"],
    [1518092,"2026-05-01 21:20:00","64589","3.39","57.1","4.998","51.42","1024.167","17.61","84.2","0.0","0.0"],
    [1518093,"2026-05-01 21:30:00","64590","4.061","67.77","5.357","76.94","1024.248","17.62","83.9","0.0","0.0"],
    [1518094,"2026-05-01 21:40:00","64591","3.3739999999999997","45.11","5.031000000000001","59.39","1024.231","17.67","83.6","0.0","0.0"],
    [1518095,"2026-05-01 21:50:00","64592","3.213","47.83","5.422999999999999","71.12","1024.216","17.69","84.2","0.0","0.0"],
    [1518096,"2026-05-01 22:00:00","64593","3.5810000000000004","50.65","5.063","57.28","1024.145","17.65","84.7","0.0","0.0"],
    [1518097,"2026-05-01 22:10:00","64594","3.8089999999999997","49.26","5.4879999999999995","65.8","1024.13","17.61","85.4","0.0","0.0"],
    [1518098,"2026-05-01 22:20:00","64595","3.445","40.52","4.247","41.09","1024.171","17.58","86.7","0.0","0.0"],
    [1518099,"2026-05-01 22:30:00","64596","3.608","43.05","4.638999999999999","42.95","1024.175","17.53","87.3","0.0","0.0"],
    [1518100,"2026-05-01 22:40:00","64597","3.7430000000000003","53.37","5.2589999999999995","59.36","1024.124","17.48","86.9","0.0","0.0"],
    [1518101,"2026-05-01 22:50:00","64598","3.198","45.77","4.867","49.93","1024.196","17.58","87.0","0.0","0.0"],
    [1518102,"2026-05-01 23:00:00","64599","3.5069999999999997","43.94","4.573","51.71","1024.253","17.55","87.8","0.0","0.0"],
    [1518103,"2026-05-01 23:10:00","64600","3.56","49.59","4.835","36.39","1024.285","17.48","87.3","0.0","0.0"],
    [1518104,"2026-05-01 23:20:00","64601","3.847","45.54","4.965","41.18","1024.282","17.47","85.6","0.0","0.0"],
    [1518105,"2026-05-01 23:30:00","64602","3.553","54.55","4.737","54.62","1024.302","17.52","85.6","0.0","0.0"],
    [1518106,"2026-05-01 23:40:00","64603","3.6489999999999996","51.68","4.573","47.04","1024.234","17.52","86.0","0.0","0.0"],
    [1518107,"2026-05-01 23:50:00","64604","3.8689999999999998","52.9","5.39","53.28","1024.181","17.48","86.6","0.0","0.0"],
    [1518108,"2026-05-02 00:00:00","64605","4.157","55.46","5.749","50.04","1024.097","17.45","87.0","0.0","0.0"],
    [1518109,"2026-05-02 00:10:00","64606","3.983","53.55","5.096","58.95","1023.946","17.44","87.9","0.0","0.0"],
    [1518110,"2026-05-02 00:20:00","64607","3.823","47.11","5.455","52.08","1023.886","17.39","88.2","0.0","0.0"],
    [1518111,"2026-05-02 00:30:00","64608","4.14","43.21","5.096","35.85","1023.758","17.37","87.1","0.0","0.0"],
    [1518112,"2026-05-02 00:40:00","64609","4.042","38.82","4.965","41.7","1023.642","17.37","83.6","0.0","0.0"],
    [1518113,"2026-05-02 00:50:00","64610","4.77","43.85","5.684","44.76","1023.457","17.46","83.2","0.0","0.0"],
    [1518114,"2026-05-02 01:00:00","64611","4.643","42.61","5.88","48.04","1023.355","17.47","83.7","0.0","0.0"],
    [1518115,"2026-05-02 01:10:00","64612","4.815","41.93","6.239","49.51","1023.281","17.4","83.2","0.0","0.0"],
    [1518116,"2026-05-02 01:20:00","64613","4.632","40.21","5.945","43.72","1023.24","17.38","83.1","0.0","0.0"],
    [1518117,"2026-05-02 01:30:00","64614","4.57","41.21","5.749","46.59","1023.157","17.41","84.4","0.0","0.0"],
    [1518118,"2026-05-02 01:40:00","64615","4.321000000000001","38.37","5.978","46.19","1023.138","17.41","85.6","0.0","0.0"],
    [1518119,"2026-05-02 01:50:00","64616","4.228","37.67","5.357","36.44","1023.175","17.39","85.1","0.0","0.0"],
    [1518120,"2026-05-02 02:00:00","64617","4.402","41.17","6.0760000000000005","43.2","1023.184","17.41","84.3","0.0","0.0"],
    [1518121,"2026-05-02 02:10:00","64618","4.761","42.89","5.815","36.81","1023.052","17.42","84.5","0.0","0.0"],
    [1518122,"2026-05-02 02:20:00","64619","4.534","44.68","5.521","47.47","1023.059","17.41","84.0","0.0","0.0"],
    [1518123,"2026-05-02 02:30:00","64620","4.506","47.34","5.619","49.96","1023.06","17.44","84.0","0.0","0.0"],
    [1518124,"2026-05-02 02:40:00","64621","4.8069999999999995","45.19","6.141","49.48","1023.093","17.43","83.5","0.0","0.0"],
    [1518125,"2026-05-02 02:50:00","64622","4.857","46.79","5.88","41.78","1023.077","17.43","83.6","0.0","0.0"],
    [1518126,"2026-05-02 03:00:00","64623","5.15","45.13","6.5329999999999995","49.31","1022.949","17.42","84.2","0.0","0.0"],
    [1518127,"2026-05-02 03:10:00","64624","5.313","48.45","6.795","54.55","1022.851","17.36","84.8","0.0","0.0"],
    [1518128,"2026-05-02 03:20:00","64625","5.167999999999999","45.87","6.305","47.27","1022.851","17.33","85.2","0.0","0.0"],
    [1518129,"2026-05-02 03:30:00","64626","5.292000000000001","47.86","6.795","47.24","1022.741","17.32","85.9","0.0","0.0"],
    [1518130,"2026-05-02 03:40:00","64627","5.1739999999999995","48.43","6.5329999999999995","43.45","1022.762","17.29","86.4","0.0","0.0"],
    [1518131,"2026-05-02 03:50:00","64628","4.905","48.52","6.337000000000001","53.95","1022.784","17.29","86.5","0.0","0.0"],
    [1518132,"2026-05-02 04:00:00","64629","4.742","48.09","6.011","46.92","1022.724","17.28","86.8","0.0","0.0"],
    [1518133,"2026-05-02 04:10:00","64630","4.706","47.4","5.847","43.03","1022.753","17.25","86.8","0.0","0.0"],
    [1518134,"2026-05-02 04:20:00","64631","4.565","45.78","5.586","42.88","1022.804","17.21","86.5","0.0","0.0"],
    [1518135,"2026-05-02 04:30:00","64632","4.052","46.15","5.2589999999999995","47.26","1022.841","17.23","86.7","0.0","0.0"],
    [1518136,"2026-05-02 04:40:00","64633","4.449","46.7","5.455","44.99","1022.84","17.22","86.5","0.0","0.0"],
    [1518137,"2026-05-02 04:50:00","64634","4.666","43.29","5.749","47.92","1022.827","17.17","86.3","0.0","0.0"],
    [1518138,"2026-05-02 05:00:00","64635","4.836","45.99","6.337000000000001","46.11","1022.84","17.17","86.2","0.0","0.0"],
    [1518139,"2026-05-02 05:10:00","64636","5.019","44.49","6.435","46.2","1022.787","17.16","86.0","0.0","0.0"],
    [1518140,"2026-05-02 05:20:00","64637","3.679","13.31","6.141","36.37","1022.924","17.16","85.4","0.0","0.0"],
    [1518141,"2026-05-02 05:30:00","64638","4.635","40.09","6.1739999999999995","41.96","1022.944","17.16","85.0","0.0","0.0"],
    [1518142,"2026-05-02 05:40:00","64639","4.598","45.46","5.684","40.0","1023","17.18","84.6","0.0","0.0"],
    [1518143,"2026-05-02 05:50:00","64640","4.936","46.07","5.945","44.57","1023.007","17.18","83.8","0.0","0.0"],
    [1518144,"2026-05-02 06:00:00","64641","4.5489999999999995","42.84","5.586","42.72","1023.136","17.18","83.8","0.308","0.0"],
    [1518145,"2026-05-02 06:10:00","64642","4.163","42.78","5.129","34.8","1023.261","17.18","83.7","29.28","0.0"],
    [1518146,"2026-05-02 06:20:00","64643","4.164","42.72","5.194","36.31","1023.255","17.2","83.8","46.81","0.0"],
    [1518147,"2026-05-02 06:30:00","64644","4.555","43.68","5.455","42.35","1023.22","17.18","83.9","67.11","0.0"],
    [1518148,"2026-05-02 06:40:00","64645","3.859","42.99","5.325","38.22","1023.352","17.2","83.8","67.11","0.0"],
    [1518149,"2026-05-02 06:50:00","64646","3.822","41.96","4.769","37.45","1023.447","17.23","83.5","67.11","0.0"],
    [1518150,"2026-05-02 07:00:00","64647","3.804","44.24","4.965","48.91","1023.461","17.21","83.4","68.0","0.0"],
    [1518151,"2026-05-02 07:10:00","64648","4.197","37.63","5.1610000000000005","43.08","1023.382","17.19","83.7","79.58","0.0"],
    [1518152,"2026-05-02 07:20:00","64649","4.268","41.53","5.292000000000001","42.82","1023.321","17.2","83.8","67.11","0.0"],
    [1518153,"2026-05-02 07:30:00","64650","4.388999999999999","40.76","5.782","39.72","1023.229","17.21","83.4","92.8","0.0"],
    [1518154,"2026-05-02 07:40:00","64651","4.225","39.81","5.4879999999999995","47.97","1023.206","17.18","83.2","78.93","0.0"],
    [1518155,"2026-05-02 07:50:00","64652","3.898","31.54","5.357","32.63","1023.296","17.18","83.1","106.9","0.0"],
    [1518156,"2026-05-02 08:00:00","64653","4.015","29.73","4.769","25.68","1023.328","17.18","82.7","142.6","0.0"],
    [1518157,"2026-05-02 08:10:00","64654","3.6860000000000004","32.77","4.671","35.7","1023.345","17.2","82.4","172.8","0.0"],
    [1518158,"2026-05-02 08:20:00","64655","3.79","31.99","4.802","28.56","1023.319","17.22","82.3","146.1","0.0"],
    [1518159,"2026-05-02 08:30:00","64656","4.265","28.04","4.835","29.45","1023.25","17.2","82.4","201.3","0.0"],
    [1518160,"2026-05-02 08:40:00","64657","4.098","31.3","5.031000000000001","27.01","1023.287","17.25","81.9","201.3","0.0"],
    [1518161,"2026-05-02 08:50:00","64658","4.446000000000001","30.48","5.422999999999999","28.62","1023.205","17.25","82.2","176.7","0.0"],
    [1518162,"2026-05-02 09:00:00","64659","4.329","28.8","5.1610000000000005","27.38","1023.294","17.29","82.0","136.2","0.0"],
    [1518163,"2026-05-02 09:10:00","64660","4.444","32.5","5.325","24.78","1023.234","17.28","82.1","254.2","0.0"],
    [1518164,"2026-05-02 09:20:00","64661","4.458","32.57","5.619","23.13","1023.159","17.37","82.1","339.9","0.0"],
    [1518165,"2026-05-02 09:30:00","64662","4.351","37.47","5.422999999999999","42.8","1023.193","17.42","81.4","378.9","0.0"],
    [1518166,"2026-05-02 09:40:00","64663","4.202","45.01","5.39","49.46","1023.233","17.47","81.5","371.0","0.0"],
    [1518167,"2026-05-02 09:50:00","64664","4.471","46.83","5.1610000000000005","47.69","1023.113","17.47","82.0","561.9","0.0"],
    [1518168,"2026-05-02 10:00:00","64665","4.468","47.49","5.292000000000001","43.61","1023.031","17.45","81.9","550.6","0.0"],
    [1518169,"2026-05-02 10:10:00","64666","4.2589999999999995","49.62","5.129","39.96","1023.004","17.5","82.0","472.2","0.0"],
    [1518170,"2026-05-02 10:20:00","64667","2.888","52.47","4.671","50.47","1023.083","17.6","82.3","445.1","0.0"],
    [1518171,"2026-05-02 10:30:00","64668","2.65","44.51","4.41","54.76","1023.156","17.6","82.6","402.6","0.0"],
    [1518172,"2026-05-02 10:40:00","64669","2.488","59.0","5.031000000000001","34.17","1023.119","17.6","82.7","454.3","0.0"],
    [1518173,"2026-05-02 10:50:00","64670","3.5010000000000003","77.99","6.435","83.2","1022.92","17.45","82.7","378.7","0.0"],
    [1518174,"2026-05-02 11:00:00","64671","4.02","88.1","6.207000000000001","96.3","1022.749","17.38","84.0","335.5","0.0"],
    [1518175,"2026-05-02 11:10:00","64672","5.272","87.7","6.957999999999999","94.2","1022.674","17.25","84.6","364.1","0.0"],
    [1518176,"2026-05-02 11:20:00","64673","4.794","86.6","6.827000000000001","90.9","1022.649","17.24","85.1","402.2","0.0"],
    [1518177,"2026-05-02 11:30:00","64674","3.397","84.0","6.893","90.1","1022.682","17.3","85.8","402.6","0.0"],
    [1518178,"2026-05-02 11:40:00","64675","2.458","68.78","5.227","97.0","1022.643","17.35","84.6","407.6","0.0"],
    [1518179,"2026-05-02 11:50:00","64676","2.843","60.04","5.815","120.1","1022.521","17.39","84.5","402.3","0.0"],
    [1518180,"2026-05-02 12:00:00","64677","3.0410000000000004","83.3","5.39","101.1","1022.471","17.39","84.2","484.0","0.0"],
    [1518181,"2026-05-02 12:10:00","64678","3.035","86.5","5.945","91.0","1022.511","17.46","83.1","568.9","0.0"],
    [1518182,"2026-05-02 12:20:00","64679","3.451","90.6","4.737","96.0","1022.571","17.45","81.8","368.4","0.0"],
    [1518183,"2026-05-02 12:30:00","64680","3.489","87.7","5.063","91.8","1022.549","17.43","81.3","265.9","0.0"],
    [1518184,"2026-05-02 12:40:00","64681","3.8569999999999998","89.0","5.422999999999999","92.2","1022.467","17.39","82.1","298.5","0.0"],
    [1518185,"2026-05-02 12:50:00","64682","3.458","90.5","5.227","86.5","1022.442","17.43","82.4","450.4","0.0"],
    [1518186,"2026-05-02 13:00:00","64683","4.641","88.3","6.501","86.3","1022.196","17.46","82.7","556.1","0.0"],
    [1518187,"2026-05-02 13:10:00","64684","3.657","92.4","5.031000000000001","85.9","1022.232","17.57","81.5","936.0","0.0"],
    [1518188,"2026-05-02 13:20:00","64685","3.801","94.8","5.096","99.3","1022.215","17.69","79.89","630.5","0.0"],
    [1518189,"2026-05-02 13:30:00","64686","3.6189999999999998","95.7","4.704","94.0","1022.228","17.56","80.6","417.0","0.0"],
    [1518190,"2026-05-02 13:40:00","64687","3.6630000000000003","89.1","4.737","87.1","1022.005","17.51","81.0","405.3","0.0"],
    [1518191,"2026-05-02 13:50:00","64688","3.344","87.7","4.475","85.0","1021.978","17.5","81.0","388.3","0.0"],
    [1518192,"2026-05-02 14:00:00","64689","2.887","87.2","4.475","100.9","1021.871","17.52","81.2","402.5","0.0"],
    [1518193,"2026-05-02 14:10:00","64690","2.609","49.37","4.541","32.5","1021.668","17.58","81.0","421.0","0.0"],
    [1518194,"2026-05-02 14:20:00","64691","2.27","73.33","4.704","100.4","1021.52","17.67","80.6","418.4","0.0"],
    [1518195,"2026-05-02 14:30:00","64692","2.343","79.47","4.769","83.5","1021.399","17.69","80.4","434.5","0.0"],
    [1518196,"2026-05-02 14:40:00","64693","3.2689999999999997","86.3","4.9","82.5","1021.219","17.61","80.4","527.7","0.0"],
    [1518197,"2026-05-02 14:50:00","64694","3.4389999999999996","88.6","4.933","90.0","1021.092","17.56","80.3","485.5","0.0"],
    [1518198,"2026-05-02 15:00:00","64695","3.553","89.9","4.737","96.6","1020.956","17.58","79.77","366.4","0.0"],
    [1518199,"2026-05-02 15:10:00","64696","3.4819999999999998","90.7","4.867","91.3","1020.912","17.59","78.85","366.1","0.0"],
    [1518200,"2026-05-02 15:20:00","64697","3.27","91.0","4.279","96.2","1020.9","17.6","79.47","356.2","0.0"],
    [1518201,"2026-05-02 15:30:00","64698","3.23","92.0","4.638999999999999","90.6","1020.797","17.6","79.79","406.1","0.0"],
    [1518202,"2026-05-02 15:40:00","64699","3.051","102.8","4.41","89.9","1020.69","17.57","80.1","332.7","0.0"],
    [1518203,"2026-05-02 15:50:00","64700","2.9560000000000004","84.8","3.9530000000000003","86.4","1020.676","17.56","80.1","209.9","0.0"],
    [1518204,"2026-05-02 16:00:00","64701","3.239","83.3","3.887","62.82","1020.616","17.51","79.71","192.0","0.0"],
    [1518205,"2026-05-02 16:10:00","64702","3.1319999999999997","82.0","4.051","72.4","1020.507","17.52","80.1","201.2","0.0"],
    [1518206,"2026-05-02 16:20:00","64703","3.011","79.22","4.051","73.69","1020.343","17.52","80.5","187.2","0.0"],
    [1518207,"2026-05-02 16:30:00","64704","3.8089999999999997","71.29","4.508","73.24","1020.14","17.43","80.6","186.7","0.0"],
    [1518208,"2026-05-02 16:40:00","64705","2.517","82.0","4.149","70.21","1020.216","17.45","81.3","160.7","0.0"],
    [1518209,"2026-05-02 16:50:00","64706","2.945","78.64","3.7889999999999997","82.7","1020.183","17.47","81.2","134.2","0.0"],
    [1518210,"2026-05-02 17:00:00","64707","3.295","75.58","4.181","88.3","1019.938","17.46","81.1","127.4","0.0"],
    [1518211,"2026-05-02 17:10:00","64708","3.886","74.14","4.933","72.02","1019.7","17.45","81.2","134.2","0.0"],
    [1518212,"2026-05-02 17:20:00","64709","3.6210000000000004","65.41","4.9","68.93","1019.709","17.43","81.3","108.7","0.0"],
    [1518213,"2026-05-02 17:30:00","64710","3.137","60.1","4.638999999999999","52.81","1019.545","17.42","81.3","67.16","0.0"],
    [1518214,"2026-05-02 17:40:00","64711","3.6010000000000004","57.98","5.292000000000001","54.83","1019.393","17.44","81.6","67.1","0.0"],
    [1518215,"2026-05-02 17:50:00","64712","3.51","68.27","4.769","78.4","1019.345","17.4","82.1","67.1","0.0"],
    [1518216,"2026-05-02 18:00:00","64713","2.88","43.68","4.083","52.95","1019.356","17.41","82.1","33.44","0.0"],
    [1518217,"2026-05-02 18:10:00","64714","2.94","38.0","3.92","40.76","1019.389","17.36","82.0","18.45","0.0"],
    [1518218,"2026-05-02 18:20:00","64715","2.6639999999999997","36.64","3.5610000000000004","36.19","1019.522","17.34","81.8","0.0","0.0"],
    [1518219,"2026-05-02 18:30:00","64716","2.835","41.17","4.051","52.53","1019.411","17.36","81.8","0.0","0.0"],
    [1518220,"2026-05-02 18:40:00","64717","2.5540000000000003","45.98","3.5610000000000004","49.15","1019.324","17.4","81.8","0.0","0.0"],
    [1518221,"2026-05-02 18:50:00","64718","2.251","47.42","3.267","58.28","1019.471","17.41","82.7","0.0","0.0"],
    [1518222,"2026-05-02 19:00:00","64719","2.781","46.76","4.737","36.24","1019.469","17.37","82.9","0.0","0.0"],
    [1518223,"2026-05-02 19:10:00","64720","3.0439999999999996","50.8","4.508","63.44","1019.269","17.36","83.3","0.0","0.0"],
    [1518224,"2026-05-02 19:20:00","64721","3.548","43.88","5.455","38.34","1019.152","17.35","84.0","0.0","0.0"],
    [1518225,"2026-05-02 19:30:00","64722","4.843999999999999","37.93","5.782","38.36","1019.091","17.25","83.7","0.0","0.0"],
    [1518226,"2026-05-02 19:40:00","64723","4.56","38.16","5.782","40.84","1019.246","17.31","83.3","0.0","0.0"],
    [1518227,"2026-05-02 19:50:00","64724","4.118","36.84","4.998","41.39","1019.403","17.33","83.5","0.0","0.0"],
    [1518228,"2026-05-02 20:00:00","64725","4.077","37.31","4.998","34.75","1019.47","17.33","83.4","0.0","0.0"],
    [1518229,"2026-05-02 20:10:00","64726","3.8310000000000004","39.23","5.129","27.83","1019.452","17.35","83.7","0.0","0.0"],
    [1518230,"2026-05-02 20:20:00","64727","4.43","37.2","5.357","40.18","1019.516","17.32","83.7","0.0","0.0"],
    [1518231,"2026-05-02 20:30:00","64728","4.159","37.74","4.998","39.42","1019.724","17.34","83.8","0.0","0.0"],
    [1518232,"2026-05-02 20:40:00","64729","3.8339999999999996","37.64","4.802","36.69","1019.848","17.4","83.7","0.0","0.0"],
    [1518233,"2026-05-02 20:50:00","64730","4.434","38.33","5.194","47.76","1019.751","17.38","83.4","0.0","0.0"],
    [1518234,"2026-05-02 21:00:00","64731","3.839","38.8","5.194","33.15","1019.763","17.39","83.9","0.0","0.0"],
    [1518235,"2026-05-02 21:10:00","64732","4.04","39.65","5.586","38.65","1019.751","17.4","84.0","0.0","0.0"],
    [1518236,"2026-05-02 21:20:00","64733","3.8960000000000004","39.77","5.39","47.52","1019.705","17.41","84.1","0.0","0.0"],
    [1518237,"2026-05-02 21:30:00","64734","3.928","39.91","5.455","45.61","1019.661","17.42","84.4","0.0","0.0"],
    [1518238,"2026-05-02 21:40:00","64735","4.703","37.27","6.1739999999999995","37.49","1019.484","17.4","84.2","0.0","0.0"],
    [1518239,"2026-05-02 21:50:00","64736","4.845","36.97","6.207000000000001","33.68","1019.367","17.41","84.7","0.0","0.0"],
    [1518240,"2026-05-02 22:00:00","64737","4.053999999999999","38.25","5.2589999999999995","32.01","1019.498","17.43","85.2","0.0","0.0"],
    [1518241,"2026-05-02 22:10:00","64738","3.358","45.7","5.096","54.67","1019.441","17.45","86.0","0.0","0.0"],
    [1518242,"2026-05-02 22:20:00","64739","3.525","42.5","4.541","43.16","1019.295","17.45","86.5","0.0","0.0"],
    [1518243,"2026-05-02 22:30:00","64740","3.3110000000000004","56.85","4.4430000000000005","58.97","1019.167","17.46","87.2","0.0","0.0"],
    [1518244,"2026-05-02 22:40:00","64741","3.091","71.31","4.2139999999999995","49.23","1019.165","17.46","88.4","0.0","0.0"],
    [1518245,"2026-05-02 22:50:00","64742","3.178","100.3","4.345","97.9","1019.106","17.36","86.4","0.0","0.0"],
    [1518246,"2026-05-02 23:00:00","64743","2.67","117.8","3.659","107.5","1019.117","17.47","83.8","0.0","0.0"],
    [1518247,"2026-05-02 23:10:00","64744","2.024","114.0","2.7439999999999998","112.1","1019.206","17.47","83.6","0.0","0.0"],
    [1518248,"2026-05-02 23:20:00","64745","2.158","117.2","3.005","126.7","1019.168","17.47","83.0","0.0","0.0"],
    [1518249,"2026-05-02 23:30:00","64746","2.298","116.9","3.071","117.2","1019.026","17.46","82.1","0.0","0.0"],
    [1518250,"2026-05-02 23:40:00","64747","2.5869999999999997","121.1","3.397","117.6","1018.962","17.45","80.8","0.0","0.0"],
    [1518251,"2026-05-02 23:50:00","64748","2.068","104.2","3.071","110.7","1018.951","17.47","81.0","0.0","0.0"],
    [1518252,"2026-05-03 00:00:00","64749","2.053","99.0","2.842","99.7","1018.927","17.44","80.1","0.0","0.0"],
    [1518253,"2026-05-03 00:10:00","64750","2.204","97.3","2.875","80.6","1018.756","17.48","80.5","0.0","0.0"],
    [1518254,"2026-05-03 00:20:00","64751","2.32","104.3","3.136","106.9","1018.587","17.45","80.8","0.0","0.0"],
    [1518255,"2026-05-03 00:30:00","64752","2.259","97.0","2.875","106.9","1018.449","17.43","80.8","0.0","0.0"],
    [1518256,"2026-05-03 00:40:00","64753","1.902","104.5","2.7439999999999998","99.6","1018.412","17.42","80.8","0.0","0.0"],
    [1518257,"2026-05-03 00:50:00","64754","1.849","103.5","2.45","103.6","1018.316","17.4","80.7","0.0","0.0"],
    [1518258,"2026-05-03 01:00:00","64755","1.902","109.2","2.352","100.8","1018.328","17.37","80.1","0.0","0.0"],
    [1518259,"2026-05-03 01:10:00","64756","2.075","117.8","2.7769999999999997","106.5","1018.08","17.41","80.3","0.0","0.0"],
    [1518260,"2026-05-03 01:20:00","64757","2.525","112.8","3.071","117.4","1017.88","17.41","80.4","0.0","0.0"],
    [1518261,"2026-05-03 01:30:00","64758","2.4730000000000003","115.2","3.1689999999999996","114.6","1017.845","17.38","79.31","0.0","0.0"],
    [1518262,"2026-05-03 01:40:00","64759","3.015","131.8","3.822","133.8","1017.672","17.42","75.52","0.0","0.0"],
    [1518263,"2026-05-03 01:50:00","64760","2.805","122.1","3.463","125.1","1017.595","17.47","76.98","0.0","0.0"],
    [1518264,"2026-05-03 02:00:00","64761","2.456","125.9","3.463","125.7","1017.558","17.42","77.57","0.0","0.0"],
    [1518265,"2026-05-03 02:10:00","64762","2.476","119.1","3.299","114.7","1017.494","17.43","78.77","0.0","0.0"],
    [1518266,"2026-05-03 02:20:00","64763","2.465","109.4","3.397","96.6","1017.468","17.41","81.3","0.0","0.0"],
    [1518267,"2026-05-03 02:30:00","64764","2.418","107.0","3.495","95.6","1017.373","17.31","80.6","0.0","0.0"],
    [1518268,"2026-05-03 02:40:00","64765","2.877","106.5","3.9530000000000003","107.8","1017.421","17.34","80.8","0.0","0.0"],
    [1518269,"2026-05-03 02:50:00","64766","3.1460000000000004","103.2","3.9530000000000003","119.0","1017.37","17.34","82.0","0.0","0.0"],
    [1518270,"2026-05-03 03:00:00","64767","2.748","85.9","3.887","90.3","1017.303","17.29","82.6","0.0","0.0"],
    [1518271,"2026-05-03 03:10:00","64768","2.532","93.8","3.659","87.6","1017.254","17.21","81.2","0.0","0.0"],
    [1518272,"2026-05-03 03:20:00","64769","2.3209999999999997","86.3","3.103","89.2","1017.174","17.27","80.6","0.0","0.0"],
    [1518273,"2026-05-03 03:30:00","64770","2.585","87.4","3.659","67.87","1017.081","17.26","78.95","0.0","0.0"],
    [1518274,"2026-05-03 03:40:00","64771","2.455","98.7","3.397","95.5","1016.97","17.27","78.39","0.0","0.0"],
    [1518275,"2026-05-03 03:50:00","64772","2.58","95.5","3.365","97.0","1016.88","17.26","77.8","0.0","0.0"],
    [1518276,"2026-05-03 04:00:00","64773","2.3","72.23","3.528","91.2","1016.792","17.26","76.4","0.0","0.0"],
    [1518277,"2026-05-03 04:10:00","64774","2.783","79.01","3.463","70.34","1016.804","17.26","76.64","0.0","0.0"],
    [1518278,"2026-05-03 04:20:00","64775","2.614","77.13","3.6910000000000003","87.8","1016.727","17.25","77.5","0.0","0.0"],
    [1518279,"2026-05-03 04:30:00","64776","2.238","83.5","3.985","89.9","1016.692","17.22","76.95","0.0","0.0"],
    [1518280,"2026-05-03 04:40:00","64777","2.77","80.3","3.299","85.1","1016.772","17.24","76.43","0.0","0.0"],
    [1518281,"2026-05-03 04:50:00","64778","2.7319999999999998","75.8","3.92","67.59","1016.743","17.23","76.91","0.0","0.0"],
    [1518282,"2026-05-03 05:00:00","64779","3.3110000000000004","72.09","4.149","61.29","1016.754","17.2","76.48","0.0","0.0"],
    [1518283,"2026-05-03 05:10:00","64780","2.513","61.12","3.985","42.01","1016.741","17.24","76.54","0.0","0.0"],
    [1518284,"2026-05-03 05:20:00","64781","2.0780000000000003","78.56","3.9530000000000003","94.4","1016.867","17.24","77.4","13.09","0.0"],
    [1518285,"2026-05-03 05:30:00","64782","2.76","71.81","3.985","81.7","1016.887","17.21","77.25","50.28","0.0"],
    [1518286,"2026-05-03 05:40:00","64783","2.787","77.16","4.312","86.0","1016.856","17.22","76.89","67.11","0.0"],
    [1518287,"2026-05-03 05:50:00","64784","2.505","59.61","4.083","36.31","1016.716","17.24","76.48","67.11","0.0"],
    [1518288,"2026-05-03 06:00:00","64785","3.327","55.97","4.965","49.28","1016.646","17.24","75.15","67.11","0.0"],
    [1518289,"2026-05-03 06:10:00","64786","3.22","54.41","4.541","46.79","1016.795","17.3","75.39","82.1","0.0"],
    [1518290,"2026-05-03 06:20:00","64787","2.825","54.01","5.357","56.15","1016.854","17.29","76.43","134.2","0.0"],
    [1518291,"2026-05-03 06:30:00","64788","3.7230000000000003","56.59","5.553","59.0","1016.762","17.26","76.09","134.2","0.0"],
    [1518292,"2026-05-03 06:40:00","64789","4.032","53.67","5.619","51.94","1016.703","17.25","76.09","134.9","0.0"],
    [1518293,"2026-05-03 06:50:00","64790","4.218","54.39","6.042999999999999","47.42","1016.745","17.26","75.53","144.5","0.0"],
    [1518294,"2026-05-03 07:00:00","64791","3.755","54.46","5.521","43.98","1016.865","17.31","75.33","201.3","0.0"],
    [1518295,"2026-05-03 07:10:00","64792","3.466","51.07","5.39","57.46","1016.806","17.33","75.07","193.2","0.0"],
    [1518296,"2026-05-03 07:20:00","64793","3.6","49.95","5.292000000000001","52.23","1016.677","17.33","74.47","200.9","0.0"],
    [1518297,"2026-05-03 07:30:00","64794","3.99","57.15","5.749","48.82","1016.695","17.36","73.83","201.3","0.0"],
    [1518298,"2026-05-03 07:40:00","64795","4.14","55.32","5.749","51.78","1016.78","17.39","74.39","220.9","0.0"],
    [1518299,"2026-05-03 07:50:00","64796","3.3539999999999996","60.41","5.553","54.27","1016.855","17.43","74.71","244.1","0.0"],
    [1518300,"2026-05-03 08:00:00","64797","3.1830000000000003","79.91","5.651","94.5","1016.81","17.45","75.42","279.8","0.0"],
    [1518301,"2026-05-03 08:10:00","64798","3.638","90.5","5.096","98.0","1016.823","17.43","75.08","337.7","0.0"],
    [1518302,"2026-05-03 08:20:00","64799","3.3080000000000003","89.0","4.704","94.4","1016.854","17.45","73.93","335.5","0.0"],
    [1518303,"2026-05-03 08:30:00","64800","3.31","87.9","4.312","90.2","1016.834","17.46","74.75","335.5","0.0"],
    [1518304,"2026-05-03 08:40:00","64801","2.903","90.2","4.083","98.3","1016.89","17.47","74.81","338.1","0.0"],
    [1518305,"2026-05-03 08:50:00","64802","3.049","97.9","4.41","84.3","1017.059","17.48","74.17","340.4","0.0"],
    [1518306,"2026-05-03 09:00:00","64803","3.3819999999999997","95.0","4.312","96.3","1017.062","17.47","74.19","344.8","0.0"],
    [1518307,"2026-05-03 09:10:00","64804","3.154","90.6","4.4430000000000005","87.2","1017.091","17.5","74.13","365.4","0.0"],
    [1518308,"2026-05-03 09:20:00","64805","3.259","100.0","4.247","99.9","1017.179","17.48","74.44","356.6","0.0"],
    [1518309,"2026-05-03 09:30:00","64806","3.082","107.2","3.985","104.4","1017.208","17.5","75.34","404.2","0.0"],
    [1518310,"2026-05-03 09:40:00","64807","3.0010000000000003","103.0","4.1160000000000005","84.6","1017.211","17.53","76.55","413.5","0.0"],
    [1518311,"2026-05-03 09:50:00","64808","3.491","89.2","4.965","92.7","1017.024","17.57","76.83","564.4","0.0"],
    [1518312,"2026-05-03 10:00:00","64809","2.747","75.82","4.933","69.34","1016.957","17.62","76.62","381.2","0.0"],
    [1518313,"2026-05-03 10:10:00","64810","3.102","96.3","4.2139999999999995","98.0","1017.231","17.6","76.95","455.7","0.0"],
    [1518314,"2026-05-03 10:20:00","64811","3.0660000000000003","82.0","4.541","94.6","1017.083","17.59","77.78","450.5","0.0"],
    [1518315,"2026-05-03 10:30:00","64812","2.7489999999999997","83.1","4.1160000000000005","88.3","1017.102","17.65","76.99","591.6","0.0"],
    [1518316,"2026-05-03 10:40:00","64813","2.483","68.47","3.7889999999999997","60.23","1017.065","17.72","76.97","481.5","0.0"],
    [1518317,"2026-05-03 10:50:00","64814","2.925","59.07","4.704","59.54","1016.943","17.69","77.02","497.6","0.0"],
    [1518318,"2026-05-03 11:00:00","64815","3.55","54.6","4.835","55.76","1016.912","17.68","77.15","531.8","0.0"],
    [1518319,"2026-05-03 11:10:00","64816","3.27","56.79","5.129","54.83","1016.83","17.69","76.83","545.1","0.0"],
    [1518320,"2026-05-03 11:20:00","64817","2.573","59.61","4.638999999999999","56.73","1016.878","17.75","76.89","478.8","0.0"],
    [1518321,"2026-05-03 11:30:00","64818","2.952","54.31","4.671","37.21","1016.763","17.77","77.02","655.5","0.0"],
    [1518322,"2026-05-03 11:40:00","64819","3.2760000000000002","51.61","5.521","51.93","1016.55","17.8","76.75","624.6","0.0"],
    [1518323,"2026-05-03 11:50:00","64820","3.8560000000000003","55.56","5.292000000000001","55.34","1016.264","17.79","76.73","558.9","0.0"],
    [1518324,"2026-05-03 12:00:00","64821","3.95","52.75","5.553","67.15","1016.172","17.71","77.63","486.1","0.0"],
    [1518325,"2026-05-03 12:10:00","64822","4.507","53.97","6.109","62.01","1016.213","17.61","78.88","363.4","0.0"],
    [1518326,"2026-05-03 12:20:00","64823","3.69","61.09","6.1739999999999995","61.85","1016.077","17.6","78.79","231.5","0.0"],
    [1518327,"2026-05-03 12:30:00","64824","2.721","97.1","4.508","105.4","1016.173","17.69","78.85","182.7","0.0"],
    [1518328,"2026-05-03 12:40:00","64825","2.833","92.5","4.051","93.1","1016.375","17.61","78.95","184.8","0.0"],
    [1518329,"2026-05-03 12:50:00","64826","3.25","96.7","4.508","103.9","1016.259","17.58","78.58","265.2","0.0"],
    [1518330,"2026-05-03 13:00:00","64827","3.386","92.5","4.737","100.4","1016.117","17.62","77.88","284.4","0.0"],
    [1518331,"2026-05-03 13:10:00","64828","3.53","94.9","4.606","96.7","1015.97","17.63","76.91","281.1","0.0"],
    [1518332,"2026-05-03 13:20:00","64829","3.048","91.9","4.671","86.1","1015.884","17.67","76.33","201.3","0.0"],
    [1518333,"2026-05-03 13:30:00","64830","2.6889999999999996","70.85","4.4430000000000005","91.7","1015.652","17.68","75.81","205.2","0.0"],
    [1518334,"2026-05-03 13:40:00","64831","2.9010000000000002","77.94","4.769","65.34","1015.554","17.67","75.82","269.4","0.0"],
    [1518335,"2026-05-03 13:50:00","64832","2.812","54.51","5.227","42.89","1015.361","17.72","74.69","270.0","0.0"],
    [1518336,"2026-05-03 14:00:00","64833","3.415","53.96","5.227","42.89","1015.089","17.72","74.64","236.8","0.0"],
    [1518337,"2026-05-03 14:10:00","64834","3.835","60.13","5.422999999999999","68.07","1014.799","17.66","76.62","161.6","0.0"],
    [1518338,"2026-05-03 14:20:00","64835","3.825","87.1","5.4879999999999995","91.5","1014.538","17.26","82.1","134.2","0.0"],
    [1518339,"2026-05-03 14:30:00","64836","4.24","95.5","5.684","90.0","1014.487","17.03","78.75","169.2","0.0"],
    [1518340,"2026-05-03 14:40:00","64837","4.775","98.7","6.37","100.9","1014.365","17.16","69.35","201.3","0.0"],
    [1518341,"2026-05-03 14:50:00","64838","4.73","99.2","6.207000000000001","97.6","1014.291","17.18","68.38","207.3","0.0"],
    [1518342,"2026-05-03 15:00:00","64839","5.026","102.5","6.664","102.4","1014.405","17.06","71.02","240.0","0.0"],
    [1518343,"2026-05-03 15:10:00","64840","4.772","109.3","6.272","111.4","1014.509","17.07","73.17","240.0","0.0"],
    [1518344,"2026-05-03 15:20:00","64841","5.14","109.7","6.37","113.8","1014.48","17.04","72.93","201.3","0.0"],
    [1518345,"2026-05-03 15:30:00","64842","3.8080000000000003","114.2","5.586","112.2","1014.415","17.01","72.67","197.7","0.0"],
    [1518346,"2026-05-03 15:40:00","64843","3.8089999999999997","103.5","4.965","109.5","1014.393","16.96","71.52","136.8","0.0"],
    [1518347,"2026-05-03 15:50:00","64844","3.8989999999999996","107.2","5.2589999999999995","106.4","1014.506","17.03","70.08","134.2","0.0"],
    [1518348,"2026-05-03 16:00:00","64845","3.612","99.0","4.867","92.7","1014.501","17.06","71.27","126.8","0.0"],
    [1518349,"2026-05-03 16:10:00","64846","3.716","85.6","4.769","87.6","1014.438","17.03","73.3","67.1","0.0"],
    [1518350,"2026-05-03 16:20:00","64847","4.713","78.86","6.272","86.1","1014.147","17.0","74.18","67.1","0.0"],
    [1518351,"2026-05-03 16:30:00","64848","3.9189999999999996","80.8","5.4879999999999995","63.13","1014.257","16.91","75.3","67.1","0.0"],
    [1518352,"2026-05-03 16:40:00","64849","4.729","74.7","5.88","71.28","1014.164","16.81","77.92","75.41","0.0"],
    [1518353,"2026-05-03 16:50:00","64850","4.272","69.22","6.37","71.26","1014.037","16.83","79.63","100.2","0.0"],
    [1518354,"2026-05-03 17:00:00","64851","5.4","71.46","6.697","75.05","1013.912","16.76","82.3","67.11","0.0"],
    [1518355,"2026-05-03 17:10:00","64852","4.699","64.75","6.403","77.11","1013.742","16.76","83.6","57.65","0.0"],
    [1518356,"2026-05-03 17:20:00","64853","4.122","42.74","6.435","47.71","1013.738","16.77","84.1","29.83","0.0"],
    [1518357,"2026-05-03 17:30:00","64854","4.053","38.43","5.586","44.08","1013.893","16.74","84.2","4.334","0.0"],
    [1518358,"2026-05-03 17:40:00","64855","4.228","34.71","5.7170000000000005","35.41","1014.069","16.75","84.1","0.0","0.0"],
    [1518359,"2026-05-03 17:50:00","64856","3.7510000000000003","30.86","5.586","19.39","1014.253","16.79","84.3","0.0","0.0"],
    [1518360,"2026-05-03 18:00:00","64857","3.472","35.79","4.279","23.49","1014.319","16.76","84.4","0.11199999999999999","0.0"],
    [1518361,"2026-05-03 18:10:00","64858","3.2960000000000003","35.35","4.573","19.33","1014.324","16.83","84.6","0.0","0.0"],
    [1518362,"2026-05-03 18:20:00","64859","3.0460000000000003","37.03","4.247","38.41","1014.445","16.84","84.4","0.0","0.0"],
    [1518363,"2026-05-03 18:30:00","64860","3.218","35.04","4.149","33.08","1014.429","16.82","84.0","0.0","0.0"],
    [1518364,"2026-05-03 18:40:00","64861","3.2569999999999997","30.81","4.083","35.59","1014.458","16.85","84.4","0.0","0.0"],
    [1518365,"2026-05-03 18:50:00","64862","4.162","34.46","5.357","27.15","1014.135","16.62","86.8","0.0","0.5"],
    [1518366,"2026-05-03 19:00:00","64863","4.129","35.98","4.802","37.93","1014.164","16.25","90.4","0.0","0.2"],
    [1518367,"2026-05-03 19:10:00","64864","4.0360000000000005","35.66","5.194","36.21","1014.233","16.4","89.9","0.0","0.0"],
    [1518368,"2026-05-03 19:20:00","64865","3.0989999999999998","34.12","4.247","33.13","1014.356","16.53","89.5","0.0","0.0"],
    [1518369,"2026-05-03 19:30:00","64866","3.4130000000000003","32.0","4.279","30.23","1014.405","16.55","89.1","0.0","0.0"],
    [1518370,"2026-05-03 19:40:00","64867","3.1239999999999997","43.8","4.051","42.63","1014.514","16.63","89.0","0.0","0.1"],
    [1518371,"2026-05-03 19:50:00","64868","3.367","30.98","4.312","54.44","1014.541","16.52","89.7","0.0","0.1"],
    [1518372,"2026-05-03 20:00:00","64869","3.091","33.92","4.508","31.69","1014.655","16.47","89.5","0.0","0.0"],
    [1518373,"2026-05-03 20:10:00","64870","3.844","26.23","4.671","29.07","1014.706","16.59","88.8","0.0","0.0"],
    [1518374,"2026-05-03 20:20:00","64871","3.585","19.65","4.279","20.88","1014.705","16.64","88.5","0.0","0.0"],
    [1518375,"2026-05-03 20:30:00","64872","3.272","19.76","4.149","20.67","1014.698","16.72","88.1","0.0","0.0"],
    [1518376,"2026-05-03 20:40:00","64873","3.2119999999999997","18.6","3.887","9.72","1014.683","16.73","88.5","0.0","0.0"],
    [1518377,"2026-05-03 20:50:00","64874","2.89","23.23","3.6910000000000003","14.94","1014.641","16.73","88.4","0.0","0.0"],
    [1518378,"2026-05-03 21:00:00","64875","2.9730000000000003","18.13","3.822","18.78","1014.68","16.78","88.2","0.0","0.0"],
    [1518379,"2026-05-03 21:10:00","64876","3.2030000000000003","30.58","3.822","35.94","1014.526","16.83","88.5","0.0","0.0"],
    [1518380,"2026-05-03 21:20:00","64877","4.624","32.82","5.521","31.45","1014.315","16.85","88.6","0.0","0.0"],
    [1518381,"2026-05-03 21:30:00","64878","3.517","25.49","4.638999999999999","40.13","1014.405","16.76","88.8","0.0","0.0"],
    [1518382,"2026-05-03 21:40:00","64879","3.263","12.27","4.051","12.38","1014.466","16.7","88.4","0.0","0.0"],
    [1518383,"2026-05-03 21:50:00","64880","3.5389999999999997","19.46","4.312","19.8","1014.383","16.58","87.5","0.0","0.0"],
    [1518384,"2026-05-03 22:00:00","64881","3.6","18.51","4.247","19.68","1014.382","16.6","86.6","0.0","0.0"],
    [1518385,"2026-05-03 22:10:00","64882","3.6069999999999998","16.5","4.247","19.93","1014.466","16.61","85.7","0.0","0.0"],
    [1518386,"2026-05-03 22:20:00","64883","3.262","19.31","4.2139999999999995","20.58","1014.468","16.64","85.7","0.0","0.0"],
    [1518387,"2026-05-03 22:30:00","64884","3.248","18.23","3.822","15.7","1014.446","16.64","85.4","0.0","0.0"],
    [1518388,"2026-05-03 22:40:00","64885","3.176","12.86","3.855","14.53","1014.43","16.62","84.9","0.0","0.0"],
    [1518389,"2026-05-03 22:50:00","64886","2.8360000000000003","15.21","3.6260000000000003","19.12","1014.383","16.64","84.9","0.0","0.0"],
    [1518390,"2026-05-03 23:00:00","64887","3.062","21.09","3.6260000000000003","16.01","1014.3","16.68","85.1","0.0","0.0"],
    [1518391,"2026-05-03 23:10:00","64888","3.28","21.49","3.887","15.97","1014.208","16.64","85.0","0.0","0.0"],
    [1518392,"2026-05-03 23:20:00","64889","3.205","17.66","3.5610000000000004","16.91","1014.279","16.6","84.8","0.0","0.0"],
    [1518393,"2026-05-03 23:30:00","64890","2.847","13.75","3.299","15.0","1014.241","16.6","84.6","0.0","0.0"],
    [1518394,"2026-05-03 23:40:00","64891","3.0260000000000002","18.02","4.083","20.19","1014.109","16.62","84.9","0.0","0.0"],
    [1518395,"2026-05-03 23:50:00","64892","3.182","20.34","3.7239999999999998","20.67","1013.969","16.61","85.3","0.0","0.0"],
    [1518396,"2026-05-04 00:00:00","64893","3.0239999999999996","18.93","3.43","21.63","1013.97","16.56","85.4","0.0","0.0"],
    [1518397,"2026-05-04 00:10:00","64894","2.6060000000000003","9.5","3.299","9.46","1014.01","16.63","85.8","0.0","0.0"],
    [1518398,"2026-05-04 00:20:00","64895","2.435","356.8","3.267","349.5","1014.051","16.64","85.6","0.0","0.0"],
    [1518399,"2026-05-04 00:30:00","64896","2.2880000000000003","8.89","3.136","11.05","1013.922","16.62","85.3","0.0","0.0"],
    [1518400,"2026-05-04 00:40:00","64897","2.234","359.3","3.071","353.7","1013.868","16.63","85.2","0.0","0.0"],
    [1518401,"2026-05-04 00:50:00","64898","2.33","357.8","3.1689999999999996","342.1","1013.766","16.69","85.2","0.0","0.0"],
    [1518402,"2026-05-04 01:00:00","64899","2.053","11.75","2.6460000000000004","9.03","1013.669","16.67","84.9","0.0","0.0"],
    [1518403,"2026-05-04 01:10:00","64900","2.085","1.033","2.6460000000000004","343.7","1013.675","16.7","84.7","0.0","0.0"],
    [1518404,"2026-05-04 01:20:00","64901","1.764","357.5","2.385","336.2","1013.635","16.73","84.6","0.0","0.0"],
    [1518405,"2026-05-04 01:30:00","64902","2.201","352.9","2.8089999999999997","349.3","1013.511","16.76","84.1","0.0","0.0"],
    [1518406,"2026-05-04 01:40:00","64903","1.567","16.22","2.483","5.26","1013.43","16.82","83.8","0.0","0.0"],
    [1518407,"2026-05-04 01:50:00","64904","1.5530000000000002","34.58","2.0580000000000003","48.62","1013.424","16.83","83.6","0.0","0.0"],
    [1518408,"2026-05-04 02:00:00","64905","1.483","33.18","2.025","26.12","1013.401","16.8","82.7","0.0","0.0"],
    [1518409,"2026-05-04 02:10:00","64906","1.0270000000000001","34.54","1.4369999999999998","37.57","1013.371","16.82","82.4","0.0","0.0"],
    [1518410,"2026-05-04 02:20:00","64907","1.595","22.14","1.9269999999999998","21.95","1013.269","16.81","80.8","0.0","0.0"],
    [1518411,"2026-05-04 02:30:00","64908","1.5019999999999998","35.0","1.797","31.03","1013.173","16.87","80.4","0.0","0.0"],
    [1518412,"2026-05-04 02:40:00","64909","1.306","43.43","1.666","54.55","1013.214","16.88","80.6","0.0","0.0"],
    [1518413,"2026-05-04 02:50:00","64910","1.268","35.4","1.601","37.62","1013.302","16.87","80.5","0.0","0.0"],
    [1518414,"2026-05-04 03:00:00","64911","0.9590000000000001","33.87","1.176","40.05","1013.432","16.87","79.57","0.0","0.0"],
    [1518415,"2026-05-04 03:10:00","64912","0.8","8.87","1.013","12.25","1013.517","16.92","79.31","0.0","0.0"],
    [1518416,"2026-05-04 03:20:00","64913","0.929","299.4","1.5030000000000001","259.3","1013.532","16.92","81.2","0.0","0.0"],
    [1518417,"2026-05-04 03:30:00","64914","0.826","258.5","1.405","276.1","1013.307","16.67","84.2","0.0","0.0"],
    [1518418,"2026-05-04 03:40:00","64915","0.154","74.22","0.7509999999999999","105.8","1013.104","16.6","84.1","0.0","0.0"],
    [1518419,"2026-05-04 03:50:00","64916","0.868","80.2","1.699","65.65","1013.201","16.72","82.4","0.0","0.0"],
    [1518420,"2026-05-04 04:00:00","64917","0.7879999999999999","76.17","1.2409999999999999","103.2","1013.162","16.91","81.4","0.0","0.0"],
    [1518421,"2026-05-04 04:10:00","64918","0.9","58.52","1.209","52.66","1013.022","16.96","82.2","0.0","0.0"],
    [1518422,"2026-05-04 04:20:00","64919","0.614","52.77","0.882","53.01","1013.018","16.9","82.9","0.0","0.0"],
    [1518423,"2026-05-04 04:30:00","64920","0.6609999999999999","63.47","0.9470000000000001","61.63","1012.908","16.9","83.4","0.0","0.0"],
    [1518424,"2026-05-04 04:40:00","64921","0.324","14.01","0.784","37.23","1012.907","16.88","83.3","0.0","0.0"],
    [1518425,"2026-05-04 04:50:00","64922","0.0","0.0","0.0","0.0","1012.91","16.89","83.2","0.0","0.0"],
    [1518426,"2026-05-04 05:00:00","64923","0.0","0.0","0.0","0.0","1012.929","16.86","83.3","0.0","0.0"],
    [1518427,"2026-05-04 05:10:00","64924","0.40299999999999997","238.9","0.7190000000000001","251.4","1013.024","16.86","83.3","0.0","0.0"],
    [1518428,"2026-05-04 05:20:00","64925","0.884","255.8","1.535","264.0","1013.002","16.82","83.0","0.0","0.0"],
    [1518429,"2026-05-04 05:30:00","64926","0.956","251.6","1.5030000000000001","247.4","1013.033","16.78","82.7","0.0","0.0"],
    [1518430,"2026-05-04 05:40:00","64927","1.197","250.2","1.829","256.4","1013.032","16.76","82.5","5.172999999999999","0.0"],
    [1518431,"2026-05-04 05:50:00","64928","0.603","261.4","1.535","257.5","1012.944","16.75","82.3","49.5","0.0"],
    [1518432,"2026-05-04 06:00:00","64929","0.0","226.7","0.033","226.7","1012.921","16.87","81.9","67.11","0.0"],
    [1518433,"2026-05-04 06:10:00","64930","0.073","276.4","0.457","270.6","1012.967","17.0","81.5","67.11","0.0"],
    [1518434,"2026-05-04 06:20:00","64931","0.485","264.7","0.9470000000000001","263.4","1012.912","17.03","81.3","75.97","0.0"],
    [1518435,"2026-05-04 06:30:00","64932","0.504","282.7","1.2409999999999999","264.8","1012.856","17.16","80.4","219.4","0.0"],
    [1518436,"2026-05-04 06:40:00","64933","0.94","283.8","1.3719999999999999","309.9","1012.835","17.42","79.07","268.4","0.0"],
    [1518437,"2026-05-04 06:50:00","64934","1.308","285.4","1.993","281.5","1012.851","17.49","77.74","309.8","0.0"],
    [1518438,"2026-05-04 07:00:00","64935","0.425","267.9","1.47","288.3","1012.829","17.83","76.67","314.0","0.0"],
    [1518439,"2026-05-04 07:10:00","64936","0.58","177.2","1.405","340.2","1012.921","18.05","75.64","355.6","0.0"],
    [1518440,"2026-05-04 07:20:00","64937","0.513","134.4","2.385","203.7","1012.91","18.29","73.85","373.8","0.0"],
    [1518441,"2026-05-04 07:30:00","64938","1.716","183.1","2.7769999999999997","209.7","1012.86","18.12","73.7","385.4","0.0"],
    [1518442,"2026-05-04 07:40:00","64939","0.547","158.6","2.025","147.9","1012.755","18.42","73.28","436.2","0.0"],
    [1518443,"2026-05-04 07:50:00","64940","2.059","161.3","3.005","163.4","1012.677","18.3","73.65","500.6","0.0"],
    [1518444,"2026-05-04 08:00:00","64941","2.505","153.6","3.332","171.4","1012.595","17.86","75.58","385.0","0.0"],
    [1518445,"2026-05-04 08:10:00","64942","3.043","161.1","3.397","170.5","1012.55","17.74","78.05","403.1","0.0"],
    [1518446,"2026-05-04 08:20:00","64943","3.345","153.9","4.051","160.0","1012.445","17.61","78.06","312.7","0.0"],
    [1518447,"2026-05-04 08:30:00","64944","3.9610000000000003","157.9","4.508","169.7","1012.403","17.57","79.59","268.3","0.0"],
    [1518448,"2026-05-04 08:40:00","64945","3.78","167.1","4.4430000000000005","165.1","1012.461","17.46","81.4","327.6","0.0"],
    [1518449,"2026-05-04 08:50:00","64946","3.47","167.2","3.9530000000000003","166.1","1012.378","17.46","82.3","320.3","0.0"],
    [1518450,"2026-05-04 09:00:00","64947","4.032","164.1","4.638999999999999","166.3","1012.325","17.45","83.2","342.5","0.0"],
    [1518451,"2026-05-04 09:10:00","64948","4.218","164.0","4.573","162.1","1012.277","17.46","83.7","573.2","0.0"],
    [1518452,"2026-05-04 09:20:00","64949","4.501","167.7","5.7170000000000005","174.6","1012.311","17.51","83.2","742.4","0.0"],
    [1518453,"2026-05-04 09:30:00","64950","5.013999999999999","170.2","5.7170000000000005","178.7","1012.405","17.58","84.2","729.2","0.0"],
    [1518454,"2026-05-04 09:40:00","64951","5.385","172.1","6.1739999999999995","178.7","1012.396","17.5","84.7","503.7","0.0"],
    [1518455,"2026-05-04 09:50:00","64952","5.93","179.0","7.382999999999999","177.4","1012.456","17.6","84.4","303.5","0.0"],
    [1518456,"2026-05-04 10:00:00","64953","5.513999999999999","183.6","6.893","176.7","1012.486","17.65","84.6","331.7","0.0"],
    [1518457,"2026-05-04 10:10:00","64954","5.557","189.0","7.252000000000001","191.8","1012.505","17.65","85.4","351.1","0.0"],
    [1518458,"2026-05-04 10:20:00","64955","4.77","189.0","5.978","189.5","1012.391","17.61","85.0","339.5","0.0"],
    [1518459,"2026-05-04 10:30:00","64956","4.905","192.0","5.782","190.7","1012.374","17.61","84.6","222.6","0.0"],
    [1518460,"2026-05-04 10:40:00","64957","5.06","189.4","6.141","186.3","1012.345","17.63","84.7","120.3","0.0"],
    [1518461,"2026-05-04 10:50:00","64958","5.178","185.1","6.37","191.2","1012.283","17.46","86.3","122.1","0.0"],
    [1518462,"2026-05-04 11:00:00","64959","4.938","174.9","6.207000000000001","171.7","1012.209","17.18","89.1","154.8","0.2"],
    [1518463,"2026-05-04 11:10:00","64960","5.385","178.8","6.631","172.9","1012.185","17.04","89.9","191.7","0.1"],
    [1518464,"2026-05-04 11:20:00","64961","5.466","171.4","6.5329999999999995","165.2","1012.095","16.93","89.9","232.4","0.2"],
    [1518465,"2026-05-04 11:30:00","64962","4.927","183.3","6.272","172.0","1012.115","16.98","88.6","425.3","0.0"],
    [1518466,"2026-05-04 11:40:00","64963","4.467","184.2","6.501","194.2","1012.161","17.28","85.1","610.6","0.0"],
    [1518467,"2026-05-04 11:50:00","64964","4.638999999999999","181.0","6.207000000000001","168.3","1012.145","17.44","86.3","399.5","0.0"],
    [1518468,"2026-05-04 12:00:00","64965","4.272","190.3","5.39","188.9","1012.165","17.33","87.6","276.9","0.0"],
    [1518469,"2026-05-04 12:10:00","64966","4.115","192.9","5.455","189.0","1012.052","17.32","86.5","328.0","0.0"],
    [1518470,"2026-05-04 12:20:00","64967","4.285","188.6","5.684","183.4","1012.008","17.52","86.5","333.1","0.0"],
    [1518471,"2026-05-04 12:30:00","64968","3.827","199.7","5.651","206.0","1011.965","17.66","87.8","319.3","0.0"],
    [1518472,"2026-05-04 12:40:00","64969","3.7910000000000004","199.0","5.129","196.8","1011.9","17.82","86.1","265.7","0.0"],
    [1518473,"2026-05-04 12:50:00","64970","3.738","191.8","5.2589999999999995","185.9","1011.702","17.93","83.9","202.4","0.0"],
    [1518474,"2026-05-04 13:00:00","64971","4.062","193.9","5.096","188.6","1011.712","17.98","84.4","202.3","0.0"],
    [1518475,"2026-05-04 13:10:00","64972","4.1739999999999995","198.4","6.0760000000000005","210.1","1011.819","18.06","84.7","299.8","0.0"],
    [1518476,"2026-05-04 13:20:00","64973","3.734","212.6","6.207000000000001","207.6","1011.854","18.07","83.2","268.4","0.0"],
    [1518477,"2026-05-04 13:30:00","64974","3.6860000000000004","213.2","5.455","203.2","1011.822","18.15","80.5","201.1","0.0"],
    [1518478,"2026-05-04 13:40:00","64975","3.786","194.1","5.847","193.2","1011.839","18.1","81.2","145.3","0.0"],
    [1518479,"2026-05-04 13:50:00","64976","3.1260000000000003","203.2","5.194","212.1","1011.849","17.89","82.4","134.2","0.0"],
    [1518480,"2026-05-04 14:00:00","64977","2.463","214.0","3.985","203.8","1011.79","17.76","81.6","137.4","0.1"],
    [1518481,"2026-05-04 14:10:00","64978","3.1260000000000003","199.2","4.704","198.2","1011.716","17.65","79.85","147.2","0.0"],
    [1518482,"2026-05-04 14:20:00","64979","3.215","188.3","5.063","188.3","1011.563","17.57","79.93","128.5","0.0"],
    [1518483,"2026-05-04 14:30:00","64980","3.196","203.7","5.096","201.2","1011.622","17.55","78.8","152.1","0.0"],
    [1518484,"2026-05-04 14:40:00","64981","3.051","208.3","4.149","215.0","1011.516","17.5","80.5","189.8","0.2"],
    [1518485,"2026-05-04 14:50:00","64982","2.515","236.8","3.92","225.7","1011.403","17.39","81.0","134.2","0.0"],
    [1518486,"2026-05-04 15:00:00","64983","1.5030000000000001","240.6","2.5810000000000004","274.8","1011.285","17.36","80.4","79.57","0.0"],
    [1518487,"2026-05-04 15:10:00","64984","1.766","245.2","3.887","264.2","1011.159","17.42","82.8","67.1","0.2"],
    [1518488,"2026-05-04 15:20:00","64985","1.7519999999999998","237.8","3.593","255.1","1011.241","17.21","85.3","52.62","0.2"],
    [1518489,"2026-05-04 15:30:00","64986","1.442","257.5","2.45","217.8","1011.074","17.0","85.7","77.9","0.7"],
    [1518490,"2026-05-04 15:40:00","64987","0.605","241.7","2.254","245.6","1011.057","16.78","87.2","134.2","0.5"],
    [1518491,"2026-05-04 15:50:00","64988","0.693","211.9","1.535","162.5","1011.14","16.71","88.1","109.4","0.1"],
    [1518492,"2026-05-04 16:00:00","64989","1.3219999999999998","255.8","2.483","253.5","1011.263","16.8","87.8","66.94","0.0"],
    [1518493,"2026-05-04 16:10:00","64990","1.05","231.1","2.483","246.9","1011.35","16.72","86.4","54.05","0.0"],
    [1518494,"2026-05-04 16:20:00","64991","0.6659999999999999","166.8","1.633","173.3","1011.121","16.69","86.1","73.51","0.4"],
    [1518495,"2026-05-04 16:30:00","64992","1.011","152.4","1.568","164.2","1010.983","16.64","86.9","131.8","0.2"],
    [1518496,"2026-05-04 16:40:00","64993","0.22899999999999998","136.3","0.784","140.3","1010.855","16.6","87.6","228.9","0.1"],
    [1518497,"2026-05-04 16:50:00","64994","0.004","109.4","0.196","109.1","1010.772","16.72","87.3","143.6","0.0"],
    [1518498,"2026-05-04 17:00:00","64995","0.225","182.9","0.7509999999999999","162.5","1010.766","16.64","87.7","125.0","0.0"],
    [1518499,"2026-05-04 17:10:00","64996","0.46399999999999997","174.1","1.307","187.4","1010.697","16.72","88.1","169.2","0.0"],
    [1518500,"2026-05-04 17:20:00","64997","1.381","178.3","1.7309999999999999","171.6","1010.693","16.71","87.5","209.6","0.0"],
    [1518501,"2026-05-04 17:30:00","64998","1.3619999999999999","175.1","1.829","173.0","1010.71","16.72","87.2","119.1","0.0"],
    [1518502,"2026-05-04 17:40:00","64999","0.93","198.5","1.339","187.7","1010.703","16.77","87.0","79.38","0.0"],
    [1518503,"2026-05-04 17:50:00","65000","1.0959999999999999","212.0","2.156","233.0","1010.69","16.9","86.7","89.4","0.0"],
    [1518504,"2026-05-04 18:00:00","65001","1.375","253.8","2.613","272.4","1010.683","17.25","85.1","113.5","0.0"],
    [1518505,"2026-05-04 18:10:00","65002","0.863","225.4","1.8619999999999999","207.5","1010.523","17.31","84.2","25.58","0.0"],
    [1518506,"2026-05-04 18:20:00","65003","1.963","210.0","2.875","209.6","1010.786","17.21","84.2","0.0","0.0"],
    [1518507,"2026-05-04 18:30:00","65004","2.171","213.0","4.181","215.2","1010.98","17.19","85.0","0.0","0.0"],
    [1518508,"2026-05-04 18:40:00","65005","2.873","202.5","4.051","197.5","1010.97","17.04","84.5","0.0","0.0"],
    [1518509,"2026-05-04 18:50:00","65006","1.465","224.9","2.6460000000000004","210.8","1011.061","16.93","85.0","0.0","0.0"],
    [1518510,"2026-05-04 19:00:00","65007","1.67","235.7","3.0380000000000003","280.6","1011.168","16.79","85.1","0.0","0.0"],
    [1518511,"2026-05-04 19:10:00","65008","2.471","251.4","4.279","251.0","1011.24","16.65","84.6","0.0","0.0"],
    [1518512,"2026-05-04 19:20:00","65009","2.04","250.8","3.855","242.7","1011.423","16.59","84.3","0.0","0.0"],
    [1518513,"2026-05-04 19:30:00","65010","2.1790000000000003","243.0","4.704","259.1","1011.483","16.54","83.9","0.0","0.0"],
    [1518514,"2026-05-04 19:40:00","65011","2.7110000000000003","254.9","5.325","248.3","1011.586","16.57","84.8","0.0","0.0"],
    [1518515,"2026-05-04 19:50:00","65012","2.5","252.8","4.933","276.2","1011.761","16.69","86.2","0.0","0.0"],
    [1518516,"2026-05-04 20:00:00","65013","3.089","244.3","5.1610000000000005","260.0","1012.02","16.71","86.3","0.0","0.0"],
    [1518517,"2026-05-04 20:10:00","65014","1.956","256.8","3.495","263.0","1012.107","16.79","85.5","0.0","0.0"],
    [1518518,"2026-05-04 20:20:00","65015","3.593","302.2","5.88","297.1","1012.076","17.09","80.6","0.0","0.0"],
    [1518519,"2026-05-04 20:30:00","65016","3.014","310.7","6.042999999999999","321.9","1011.946","17.31","75.42","0.0","0.0"],
    [1518520,"2026-05-04 20:40:00","65017","3.904","295.3","6.37","305.3","1012.095","16.94","70.33","0.0","0.0"],
    [1518521,"2026-05-04 20:50:00","65018","3.1060000000000003","316.0","4.247","301.9","1011.846","16.78","69.95","0.0","0.0"],
    [1518522,"2026-05-04 21:00:00","65019","2.015","306.5","3.299","317.0","1012.01","16.83","70.0","0.0","0.0"],
    [1518523,"2026-05-04 21:10:00","65020","1.012","249.7","2.025","282.3","1012.115","16.74","70.13","0.0","0.0"],
    [1518524,"2026-05-04 21:20:00","65021","1.2","134.5","1.9269999999999998","138.0","1011.923","16.77","69.0","0.0","0.0"],
    [1518525,"2026-05-04 21:30:00","65022","1.837","191.6","2.548","192.5","1011.87","16.68","72.07","0.0","0.0"],
    [1518526,"2026-05-04 21:40:00","65023","1.845","242.0","3.6260000000000003","222.2","1011.903","16.06","74.99","0.0","0.0"],
    [1518527,"2026-05-04 21:50:00","65024","1.7180000000000002","245.7","3.136","260.0","1011.762","15.6","77.45","0.0","0.0"],
    [1518528,"2026-05-04 22:00:00","65025","2.006","250.6","2.9730000000000003","261.2","1011.658","15.41","78.29","0.0","0.0"],
    [1518529,"2026-05-04 22:10:00","65026","2.3609999999999998","250.8","4.541","256.0","1011.657","15.31","79.36","0.0","0.0"],
    [1518530,"2026-05-04 22:20:00","65027","1.979","251.5","3.43","259.1","1011.708","15.21","79.72","0.0","0.0"],
    [1518531,"2026-05-04 22:30:00","65028","1.797","261.1","3.136","246.2","1011.658","15.21","79.77","0.0","0.0"],
    [1518532,"2026-05-04 22:40:00","65029","1.892","257.0","3.43","263.4","1011.717","15.12","80.6","0.0","0.0"],
    [1518533,"2026-05-04 22:50:00","65030","1.912","243.7","3.397","260.6","1011.797","15.03","80.7","0.0","0.0"],
    [1518534,"2026-05-04 23:00:00","65031","2.525","268.5","3.887","281.4","1011.875","14.99","80.6","0.0","0.0"],
    [1518535,"2026-05-04 23:10:00","65032","2.872","266.9","5.031000000000001","271.3","1011.922","15.28","77.82","0.0","0.0"],
    [1518536,"2026-05-04 23:20:00","65033","3.6710000000000003","280.7","5.325","284.1","1012.001","15.52","74.65","0.0","0.0"],
    [1518537,"2026-05-04 23:30:00","65034","3.1489999999999996","282.7","4.541","290.2","1012.032","15.56","74.18","0.0","0.0"],
    [1518538,"2026-05-04 23:40:00","65035","2.274","285.6","3.463","285.5","1011.989","15.4","75.06","0.0","0.0"],
    [1518539,"2026-05-04 23:50:00","65036","2.545","289.0","3.7889999999999997","277.5","1011.972","15.48","73.42","0.0","0.0"],
    [1518540,"2026-05-05 00:00:00","65037","2.073","295.1","3.1689999999999996","311.7","1012.011","15.57","73.16","0.0","0.0"],
    [1518541,"2026-05-05 00:10:00","65038","1.9169999999999998","290.3","2.7110000000000003","299.7","1011.974","15.66","71.78","0.0","0.0"],
    [1518542,"2026-05-05 00:20:00","65039","2.064","297.6","3.43","302.6","1011.864","15.76","70.56","0.0","0.0"],
    [1518543,"2026-05-05 00:30:00","65040","1.8230000000000002","298.9","2.842","321.4","1011.852","15.87","68.43","0.0","0.0"],
    [1518544,"2026-05-05 00:40:00","65041","1.54","300.6","2.417","281.5","1011.867","15.96","67.0","0.0","0.0"],
    [1518545,"2026-05-05 00:50:00","65042","2.015","299.2","3.6260000000000003","313.4","1011.875","15.93","66.43","0.0","0.0"],
    [1518546,"2026-05-05 01:00:00","65043","2.905","289.0","4.279","293.1","1011.902","15.97","65.12","0.0","0.0"],
    [1518547,"2026-05-05 01:10:00","65044","2.5340000000000003","289.4","4.018","286.9","1011.834","15.9","65.38","0.0","0.0"],
    [1518548,"2026-05-05 01:20:00","65045","1.5859999999999999","287.5","2.679","277.5","1011.792","15.72","66.13","0.0","0.0"],
    [1518549,"2026-05-05 01:30:00","65046","1.579","276.4","2.0580000000000003","276.6","1011.759","15.47","67.64","0.0","0.0"],
    [1518550,"2026-05-05 01:40:00","65047","1.615","286.0","2.417","280.8","1011.723","15.3","70.18","0.0","0.0"],
    [1518551,"2026-05-05 01:50:00","65048","2.261","276.3","3.7569999999999997","276.3","1011.747","15.17","69.91","0.0","0.0"],
    [1518552,"2026-05-05 02:00:00","65049","2.451","282.6","3.92","285.7","1011.748","15.29","69.61","0.0","0.0"],
    [1518553,"2026-05-05 02:10:00","65050","2.6060000000000003","278.3","3.9530000000000003","265.2","1011.761","15.26","69.5","0.0","0.0"],
    [1518554,"2026-05-05 02:20:00","65051","3.123","280.2","4.933","285.4","1011.755","15.31","68.95","0.0","0.0"],
    [1518555,"2026-05-05 02:30:00","65052","3.517","281.6","5.2589999999999995","293.2","1011.796","15.17","69.45","0.0","0.0"],
    [1518556,"2026-05-05 02:40:00","65053","3.2230000000000003","281.7","4.704","301.0","1011.831","15.19","69.48","0.0","0.0"],
    [1518557,"2026-05-05 02:50:00","65054","3.3739999999999997","284.2","5.194","281.4","1011.853","15.21","69.24","0.0","0.0"],
    [1518558,"2026-05-05 03:00:00","65055","3.533","286.1","6.5329999999999995","298.2","1011.839","15.16","69.33","0.0","0.0"],
    [1518559,"2026-05-05 03:10:00","65056","3.175","274.8","4.41","289.0","1011.87","14.99","70.01","0.0","0.0"],
    [1518560,"2026-05-05 03:20:00","65057","3.5610000000000004","283.3","5.194","284.1","1011.843","14.82","71.32","0.0","0.0"],
    [1518561,"2026-05-05 03:30:00","65058","3.8480000000000003","292.8","5.978","311.6","1011.757","15.01","70.17","0.0","0.0"],
    [1518562,"2026-05-05 03:40:00","65059","4.744","287.3","6.957999999999999","286.3","1011.747","15.14","68.95","0.0","0.0"],
    [1518563,"2026-05-05 03:50:00","65060","5.608","289.9","7.742000000000001","290.3","1011.764","15.0","69.73","0.0","0.0"],
    [1518564,"2026-05-05 04:00:00","65061","4.5680000000000005","277.2","7.6770000000000005","284.7","1011.785","14.66","71.41","0.0","0.0"],
    [1518565,"2026-05-05 04:10:00","65062","2.9160000000000004","266.3","5.749","269.4","1011.785","14.33","73.36","0.0","0.0"],
    [1518566,"2026-05-05 04:20:00","65063","2.75","265.3","4.638999999999999","287.5","1011.752","14.17","74.17","0.0","0.0"],
    [1518567,"2026-05-05 04:30:00","65064","2.745","272.8","4.345","237.8","1011.606","14.1","74.37","0.0","0.0"],
    [1518568,"2026-05-05 04:40:00","65065","2.235","274.9","3.299","273.5","1011.609","14.08","74.59","0.0","0.0"],
    [1518569,"2026-05-05 04:50:00","65066","2.302","267.2","3.43","273.4","1011.614","13.92","75.14","0.0","0.0"],
    [1518570,"2026-05-05 05:00:00","65067","2.698","284.5","4.279","289.2","1011.558","14.09","73.57","0.0","0.0"],
    [1518571,"2026-05-05 05:10:00","65068","2.227","294.9","3.822","306.3","1011.45","14.44","70.91","0.0","0.0"],
    [1518572,"2026-05-05 05:20:00","65069","2.0669999999999997","307.0","3.495","312.2","1011.452","14.67","69.63","4.308","0.0"],
    [1518573,"2026-05-05 05:30:00","65070","1.719","276.5","2.548","266.1","1011.591","14.53","70.15","67.14","0.0"],
    [1518574,"2026-05-05 05:40:00","65071","2.146","280.8","3.071","279.2","1011.699","14.44","70.29","99.9","0.0"],
    [1518575,"2026-05-05 05:50:00","65072","1.685","303.3","2.287","313.0","1011.713","14.63","70.03","134.3","0.0"],
    [1518576,"2026-05-05 06:00:00","65073","0.973","288.1","2.548","275.3","1011.724","14.74","69.31","157.2","0.0"],
    [1518577,"2026-05-05 06:10:00","65074","2.108","283.1","3.6910000000000003","282.5","1011.806","14.98","68.22","201.4","0.0"],
    [1518578,"2026-05-05 06:20:00","65075","2.907","292.9","4.377","284.3","1011.705","15.08","67.59","232.8","0.0"],
    [1518579,"2026-05-05 06:30:00","65076","2.7310000000000003","288.6","4.247","290.0","1011.712","15.15","66.96","247.6","0.0"],
    [1518580,"2026-05-05 06:40:00","65077","2.645","284.2","4.279","289.6","1011.731","15.24","67.09","210.0","0.0"],
    [1518581,"2026-05-05 06:50:00","65078","2.4330000000000003","286.0","3.7239999999999998","302.8","1011.76","15.41","67.3","276.0","0.0"],
    [1518582,"2026-05-05 07:00:00","65079","2.479","289.4","3.9530000000000003","283.9","1011.683","15.59","65.49","377.6","0.0"],
    [1518583,"2026-05-05 07:10:00","65080","1.555","273.8","2.287","281.0","1011.698","15.97","64.44","389.2","0.0"],
    [1518584,"2026-05-05 07:20:00","65081","0.889","251.3","2.0909999999999997","249.9","1011.784","16.17","63.31","381.9","0.0"],
    [1518585,"2026-05-05 07:30:00","65082","0.457","132.0","1.666","124.0","1011.77","16.74","62.13","436.1","0.0"],
    [1518586,"2026-05-05 07:40:00","65083","2.0469999999999997","108.9","2.6460000000000004","118.2","1011.784","16.33","64.46","474.3","0.0"],
    [1518587,"2026-05-05 07:50:00","65084","2.019","79.92","3.1689999999999996","90.6","1011.726","15.97","68.08","354.3","0.0"],
    [1518588,"2026-05-05 08:00:00","65085","1.083","103.9","2.7769999999999997","99.3","1011.691","15.81","67.93","227.3","0.0"],
    [1518589,"2026-05-05 08:10:00","65086","1.169","157.0","2.45","172.6","1011.805","16.12","66.81","531.1","0.0"],
    [1518590,"2026-05-05 08:20:00","65087","2.042","172.5","2.5810000000000004","176.2","1011.992","16.05","67.73","275.7","0.0"],
    [1518591,"2026-05-05 08:30:00","65088","1.624","177.9","2.287","191.1","1012.067","16.01","67.99","312.4","0.0"],
    [1518592,"2026-05-05 08:40:00","65089","2.6010000000000004","286.2","5.227","300.9","1012.053","16.21","65.63","397.7","0.0"],
    [1518593,"2026-05-05 08:50:00","65090","3.344","324.3","4.965","310.2","1011.765","16.4","64.9","824.0","0.0"],
    [1518594,"2026-05-05 09:00:00","65091","1.864","27.73","3.7239999999999998","6.252000000000001","1011.477","16.85","62.65","809.0","0.0"],
    [1518595,"2026-05-05 09:10:00","65092","0.691","32.67","1.601","33.07","1011.682","17.65","59.54","800.0","0.0"],
    [1518596,"2026-05-05 09:20:00","65093","1.328","44.78","2.319","32.65","1011.709","17.52","60.45","777.9","0.0"],
    [1518597,"2026-05-05 09:30:00","65094","1.1420000000000001","114.1","2.8089999999999997","143.5","1011.747","17.48","61.54","642.5","0.0"],
    [1518598,"2026-05-05 09:40:00","65095","2.9810000000000003","149.0","3.593","155.8","1012.014","17.02","63.45","273.7","0.0"],
    [1518599,"2026-05-05 09:50:00","65096","2.419","144.5","3.1689999999999996","167.5","1012.127","16.94","61.7","179.8","0.0"],
    [1518600,"2026-05-05 10:00:00","65097","1.742","115.6","2.352","102.1","1011.99","17.16","61.69","212.5","0.0"],
    [1518601,"2026-05-05 10:10:00","65098","1.7","91.5","2.483","92.5","1011.91","17.11","62.01","201.2","0.0"],
    [1518602,"2026-05-05 10:20:00","65099","1.8","36.51","2.548","35.78","1011.8","17.22","62.38","245.5","0.0"],
    [1518603,"2026-05-05 10:30:00","65100","2.066","48.03","3.43","48.44","1011.814","17.2","63.25","212.7","0.0"],
    [1518604,"2026-05-05 10:40:00","65101","1.9469999999999998","88.2","3.136","96.6","1011.862","17.21","64.6","535.1","0.0"],
    [1518605,"2026-05-05 10:50:00","65102","2.56","109.7","3.299","106.9","1011.889","17.24","65.38","983.0","0.0"],
    [1518606,"2026-05-05 11:00:00","65103","1.6969999999999998","87.3","2.842","80.3","1011.77","17.26","64.96","907.0","0.0"],
    [1518607,"2026-05-05 11:10:00","65104","1.7930000000000001","90.0","3.397","117.3","1011.772","17.39","65.35","953.0","0.0"],
    [1518608,"2026-05-05 11:20:00","65105","2.1959999999999997","98.8","3.332","89.5","1011.642","17.12","67.77","864.0","0.0"],
    [1518609,"2026-05-05 11:30:00","65106","1.6669999999999998","67.17","3.005","96.2","1011.579","17.1","67.61","648.3","0.0"],
    [1518610,"2026-05-05 11:40:00","65107","2.3930000000000002","102.9","3.92","113.5","1011.641","17.0","67.73","288.9","0.0"],
    [1518611,"2026-05-05 11:50:00","65108","3.2539999999999996","110.7","3.887","107.0","1011.551","16.98","66.14","659.7","0.0"],
    [1518612,"2026-05-05 12:00:00","65109","3.3710000000000004","121.3","4.508","118.2","1011.496","17.07","68.25","789.5","0.0"],
    [1518613,"2026-05-05 12:10:00","65110","3.2960000000000003","127.1","4.41","138.8","1011.356","16.99","67.46","1008.0","0.0"],
    [1518614,"2026-05-05 12:20:00","65111","2.484","123.4","3.855","121.5","1011.278","16.98","68.11","893.0","0.0"],
    [1518615,"2026-05-05 12:30:00","65112","2.611","137.6","3.6910000000000003","145.3","1011.27","16.96","70.19","673.1","0.0"],
    [1518616,"2026-05-05 12:40:00","65113","2.359","143.8","3.7569999999999997","159.9","1011.19","16.91","69.66","502.3","0.0"],
    [1518617,"2026-05-05 12:50:00","65114","2.708","143.4","3.659","140.6","1011.106","16.95","67.21","913.0","0.0"],
    [1518618,"2026-05-05 13:00:00","65115","3.8280000000000003","147.8","5.357","146.6","1011.092","16.98","71.83","874.0","0.0"],
    [1518619,"2026-05-05 13:10:00","65116","4.0760000000000005","145.8","5.357","142.2","1011.037","16.57","75.06","860.0","0.0"],
    [1518620,"2026-05-05 13:20:00","65117","4.747","152.7","6.042999999999999","148.1","1011.026","16.46","73.54","851.0","0.0"],
    [1518621,"2026-05-05 13:30:00","65118","4.388999999999999","144.3","5.39","144.5","1010.929","16.25","75.16","909.0","0.0"],
    [1518622,"2026-05-05 13:40:00","65119","3.94","138.5","4.933","137.0","1010.867","16.26","73.36","839.0","0.0"],
    [1518623,"2026-05-05 13:50:00","65120","3.135","145.4","4.4430000000000005","147.5","1010.816","16.45","72.76","777.4","0.0"],
    [1518624,"2026-05-05 14:00:00","65121","2.86","145.2","4.247","141.5","1010.799","16.56","71.91","828.0","0.0"],
    [1518625,"2026-05-05 14:10:00","65122","3.012","144.8","3.985","145.7","1010.688","16.6","73.24","836.0","0.0"],
    [1518626,"2026-05-05 14:20:00","65123","3.1839999999999997","140.9","4.051","140.3","1010.582","16.56","74.06","785.2","0.0"],
    [1518627,"2026-05-05 14:30:00","65124","3.222","118.5","3.9530000000000003","113.2","1010.499","16.54","74.9","733.6","0.0"],
    [1518628,"2026-05-05 14:40:00","65125","3.065","119.7","4.377","116.0","1010.334","16.6","76.92","704.4","0.0"],
    [1518629,"2026-05-05 14:50:00","65126","2.512","115.2","4.1160000000000005","126.3","1010.186","16.78","76.61","687.5","0.0"],
    [1518630,"2026-05-05 15:00:00","65127","2.659","146.4","3.7889999999999997","159.5","1010.231","16.93","73.14","637.2","0.0"],
    [1518631,"2026-05-05 15:10:00","65128","2.8789999999999996","149.2","4.018","137.8","1010.215","17.0","71.65","644.7","0.0"],
    [1518632,"2026-05-05 15:20:00","65129","2.2359999999999998","136.8","3.6910000000000003","134.6","1010.24","17.14","72.42","579.9","0.0"],
    [1518633,"2026-05-05 15:30:00","65130","2.628","145.0","3.365","148.9","1010.243","17.02","74.72","389.4","0.0"],
    [1518634,"2026-05-05 15:40:00","65131","1.974","161.7","2.613","161.6","1010.269","17.01","75.43","382.7","0.0"],
    [1518635,"2026-05-05 15:50:00","65132","1.6269999999999998","161.8","2.548","171.8","1010.39","17.05","75.69","260.5","0.0"],
    [1518636,"2026-05-05 16:00:00","65133","1.7269999999999999","165.6","2.94","151.2","1010.343","17.11","76.1","406.8","0.0"],
    [1518637,"2026-05-05 16:10:00","65134","2.015","157.1","2.613","165.7","1010.265","17.08","76.4","347.9","0.0"],
    [1518638,"2026-05-05 16:20:00","65135","2.1630000000000003","153.3","2.7110000000000003","143.9","1010.191","17.03","77.36","203.3","0.0"],
    [1518639,"2026-05-05 16:30:00","65136","1.015","206.1","1.895","178.6","1010.371","17.22","76.63","320.8","0.0"],
    [1518640,"2026-05-05 16:40:00","65137","1.16","160.3","2.025","163.2","1010.436","17.42","76.19","309.0","0.0"],
    [1518641,"2026-05-05 16:50:00","65138","1.3419999999999999","151.5","2.0909999999999997","166.0","1010.485","17.3","76.76","247.0","0.0"],
    [1518642,"2026-05-05 17:00:00","65139","1.47","118.9","2.156","112.0","1010.492","17.42","74.37","132.7","0.0"],
    [1518643,"2026-05-05 17:10:00","65140","1.713","94.5","2.483","106.5","1010.458","17.43","76.46","133.4","0.0"],
    [1518644,"2026-05-05 17:20:00","65141","1.913","117.9","2.7769999999999997","121.2","1010.432","17.3","76.92","78.71","0.0"],
    [1518645,"2026-05-05 17:30:00","65142","1.9509999999999998","75.26","3.463","57.04","1010.577","17.33","77.22","41.59","0.0"],
    [1518646,"2026-05-05 17:40:00","65143","1.069","92.6","1.993","73.79","1010.645","17.2","78.11","0.055999999999999994","0.0"],
    [1518647,"2026-05-05 17:50:00","65144","1.475","139.3","2.417","134.3","1010.493","17.26","76.79","45.15","0.0"],
    [1518648,"2026-05-05 18:00:00","65145","2.045","153.9","2.7769999999999997","144.2","1010.466","17.35","75.69","35.95","0.0"],
    [1518649,"2026-05-05 18:10:00","65146","2.379","162.1","3.1689999999999996","172.3","1010.385","17.43","73.9","0.055999999999999994","0.0"],
    [1518650,"2026-05-05 18:20:00","65147","3.052","168.0","3.92","167.5","1010.224","17.49","75.73","0.0","0.0"],
    [1518651,"2026-05-05 18:30:00","65148","3.765","156.6","4.345","155.6","1009.985","17.35","77.97","0.0","0.0"],
    [1518652,"2026-05-05 18:40:00","65149","3.866","163.2","4.606","162.5","1009.843","17.28","78.72","0.0","0.0"],
    [1518653,"2026-05-05 18:50:00","65150","4.42","157.7","4.965","155.2","1009.609","17.28","79.51","0.0","0.0"],
    [1518654,"2026-05-05 19:00:00","65151","4.31","167.8","4.9","178.9","1009.67","17.25","79.02","0.0","0.0"],
    [1518655,"2026-05-05 19:10:00","65152","3.6189999999999998","178.6","4.769","171.6","1009.743","17.42","78.26","0.0","0.0"],
    [1518656,"2026-05-05 19:20:00","65153","1.4680000000000002","206.8","2.613","201.8","1009.945","17.46","77.26","0.0","0.0"],
    [1518657,"2026-05-05 19:30:00","65154","1.266","148.2","1.895","130.1","1009.964","17.46","76.69","0.0","0.0"],
    [1518658,"2026-05-05 19:40:00","65155","1.514","157.4","2.156","159.0","1010.136","17.44","76.97","0.0","0.0"],
    [1518659,"2026-05-05 19:50:00","65156","2.0909999999999997","61.93","5.2589999999999995","21.43","1010.542","17.37","71.36","0.0","0.0"],
    [1518660,"2026-05-05 20:00:00","65157","3.245","5.024","5.096","6.934","1010.768","16.85","61.68","0.0","0.0"],
    [1518661,"2026-05-05 20:10:00","65158","2.265","352.9","2.842","12.44","1010.99","16.94","61.53","0.0","0.0"],
    [1518662,"2026-05-05 20:20:00","65159","1.614","327.8","2.417","330.3","1011.051","16.99","60.53","0.0","0.0"],
    [1518663,"2026-05-05 20:30:00","65160","1.715","302.8","2.875","332.7","1011.117","17.14","59.92","0.0","0.0"],
    [1518664,"2026-05-05 20:40:00","65161","0.888","239.2","1.4369999999999998","257.1","1011.239","17.22","59.16","0.0","0.0"],
    [1518665,"2026-05-05 20:50:00","65162","1.006","158.7","1.666","163.9","1011.174","17.28","61.1","0.0","0.0"],
    [1518666,"2026-05-05 21:00:00","65163","1.056","202.1","1.699","184.8","1011.213","17.28","61.55","0.0","0.0"],
    [1518667,"2026-05-05 21:10:00","65164","1.198","244.2","2.156","258.2","1011.337","17.38","58.42","0.0","0.0"],
    [1518668,"2026-05-05 21:20:00","65165","1.595","235.8","3.0380000000000003","238.7","1011.493","17.24","59.53","0.0","0.0"],
    [1518669,"2026-05-05 21:30:00","65166","1.5619999999999998","255.5","3.332","274.5","1011.458","17.05","59.74","0.0","0.0"],
    [1518670,"2026-05-05 21:40:00","65167","1.4240000000000002","268.2","3.397","284.0","1011.51","17.05","60.6","0.0","0.0"],
    [1518671,"2026-05-05 21:50:00","65168","2.544","301.9","3.5610000000000004","311.2","1011.621","16.99","61.06","0.0","0.0"],
    [1518672,"2026-05-05 22:00:00","65169","2.347","331.6","4.018","326.7","1011.492","17.07","59.8","0.0","0.0"],
    [1518673,"2026-05-05 22:10:00","65170","1.7530000000000001","350.7","2.6460000000000004","3.272","1011.461","17.14","58.87","0.0","0.0"],
    [1518674,"2026-05-05 22:20:00","65171","0.48200000000000004","322.9","1.699","305.4","1011.429","17.15","59.63","0.0","0.0"],
    [1518675,"2026-05-05 22:30:00","65172","2.171","306.0","3.234","307.4","1011.327","17.13","59.17","0.0","0.0"],
    [1518676,"2026-05-05 22:40:00","65173","1.975","321.6","2.94","320.0","1011.157","17.15","59.54","0.0","0.0"],
    [1518677,"2026-05-05 22:50:00","65174","1.9","321.2","2.7110000000000003","321.0","1011.042","17.12","60.8","0.0","0.0"],
    [1518678,"2026-05-05 23:00:00","65175","1.845","290.1","2.875","286.1","1010.881","16.99","61.94","0.0","0.0"],
    [1518679,"2026-05-05 23:10:00","65176","0.21","263.9","1.274","261.1","1010.764","16.86","63.49","0.0","0.0"],
    [1518680,"2026-05-05 23:20:00","65177","0.0","0.0","0.0","0.0","1010.739","16.83","63.79","0.0","0.0"],
    [1518681,"2026-05-05 23:30:00","65178","0.242","328.4","1.045","333.7","1010.964","16.89","64.34","0.0","0.0"],
    [1518682,"2026-05-05 23:40:00","65179","1.192","323.8","2.0909999999999997","344.0","1011.078","16.98","64.43","0.0","0.0"],
    [1518683,"2026-05-05 23:50:00","65180","0.47200000000000003","271.6","1.2409999999999999","336.9","1011.115","16.96","63.57","0.0","0.0"],
    [1518684,"2026-05-06 00:00:00","65181","0.953","51.87","4.018","39.62","1011.123","16.81","65.52","0.0","0.0"],
    [1518685,"2026-05-06 00:10:00","65182","2.766","25.0","3.887","41.86","1011.098","16.35","68.1","0.0","0.0"],
    [1518686,"2026-05-06 00:20:00","65183","1.801","6.938","2.875","14.32","1011.05","16.23","69.11","0.0","0.0"],
    [1518687,"2026-05-06 00:30:00","65184","2.012","335.0","2.6460000000000004","331.4","1010.983","16.15","68.76","0.0","0.0"],
    [1518688,"2026-05-06 00:40:00","65185","1.31","335.9","2.483","344.3","1010.991","15.97","68.99","0.0","0.0"],
    [1518689,"2026-05-06 00:50:00","65186","0.79","247.1","1.307","265.0","1011.02","15.76","71.47","0.0","0.0"],
    [1518690,"2026-05-06 01:00:00","65187","0.43200000000000005","227.0","1.4369999999999998","248.3","1010.927","15.52","71.93","0.0","0.0"],
    [1518691,"2026-05-06 01:10:00","65188","0.721","276.1","1.7309999999999999","269.8","1010.82","15.5","72.05","0.0","0.0"],
    [1518692,"2026-05-06 01:20:00","65189","1.517","263.9","2.319","254.2","1010.81","15.29","72.45","0.0","0.0"],
    [1518693,"2026-05-06 01:30:00","65190","0.935","243.9","1.8619999999999999","265.1","1010.831","15.22","72.22","0.0","0.0"],
    [1518694,"2026-05-06 01:40:00","65191","0.899","228.8","1.699","215.3","1010.874","15.36","70.03","0.0","0.0"],
    [1518695,"2026-05-06 01:50:00","65192","1.1520000000000001","284.7","2.842","251.6","1010.991","15.19","70.92","0.0","0.0"],
    [1518696,"2026-05-06 02:00:00","65193","1.902","275.3","2.907","281.3","1010.96","14.9","70.67","0.0","0.0"],
    [1518697,"2026-05-06 02:10:00","65194","2.138","272.0","3.6910000000000003","266.1","1011.035","14.47","73.96","0.0","0.0"],
    [1518698,"2026-05-06 02:20:00","65195","2.314","263.1","3.7889999999999997","253.9","1011.105","13.95","75.2","0.0","0.0"],
    [1518699,"2026-05-06 02:30:00","65196","2.022","269.4","3.005","266.3","1011.126","13.86","75.64","0.0","0.0"],
    [1518700,"2026-05-06 02:40:00","65197","1.7990000000000002","274.3","2.483","264.5","1011.076","14.0","76.0","0.0","0.0"],
    [1518701,"2026-05-06 02:50:00","65198","2.029","279.3","3.463","277.5","1011.072","14.59","69.84","0.0","0.0"],
    [1518702,"2026-05-06 03:00:00","65199","2.4730000000000003","276.3","4.41","283.7","1011.06","14.82","65.26","0.0","0.0"],
    [1518703,"2026-05-06 03:10:00","65200","3.4730000000000003","287.6","4.802","288.3","1011.06","15.21","58.78","0.0","0.0"],
    [1518704,"2026-05-06 03:20:00","65201","3.365","290.8","5.063","295.3","1011.028","15.17","58.29","0.0","0.0"],
    [1518705,"2026-05-06 03:30:00","65202","3.2289999999999996","289.0","4.475","279.1","1011.072","15.07","58.41","0.0","0.0"],
    [1518706,"2026-05-06 03:40:00","65203","3.0810000000000004","283.4","4.312","273.1","1011.16","15.1","57.03","0.0","0.0"],
    [1518707,"2026-05-06 03:50:00","65204","2.7569999999999997","271.7","4.312","284.4","1011.18","14.89","58.03","0.0","0.0"],
    [1518708,"2026-05-06 04:00:00","65205","2.682","265.3","4.541","275.1","1011.238","14.53","60.31","0.0","0.0"],
    [1518709,"2026-05-06 04:10:00","65206","3.133","266.3","5.39","263.5","1011.326","14.22","62.7","0.0","0.0"],
    [1518710,"2026-05-06 04:20:00","65207","3.125","272.9","4.965","271.7","1011.262","13.78","66.91","0.0","0.0"],
    [1518711,"2026-05-06 04:30:00","65208","2.677","269.1","4.181","262.0","1011.242","13.56","68.35","0.0","0.0"],
    [1518712,"2026-05-06 04:40:00","65209","2.392","285.2","3.7569999999999997","274.4","1011.268","13.82","65.75","0.0","0.0"],
    [1518713,"2026-05-06 04:50:00","65210","2.778","283.8","3.6910000000000003","290.1","1011.363","14.38","61.8","0.0","0.0"],
    [1518714,"2026-05-06 05:00:00","65211","3.031","287.5","4.149","278.4","1011.45","14.35","61.52","0.0","0.0"],
    [1518715,"2026-05-06 05:10:00","65212","2.571","291.0","3.6910000000000003","275.3","1011.606","14.25","61.29","19.75","0.0"],
    [1518716,"2026-05-06 05:20:00","65213","1.632","275.9","3.005","299.7","1011.754","14.07","62.72","59.33","0.0"],
    [1518717,"2026-05-06 05:30:00","65214","1.1059999999999999","255.5","2.0580000000000003","256.3","1011.831","13.93","64.63","56.56","0.0"],
    [1518718,"2026-05-06 05:40:00","65215","2.18","266.4","3.299","273.2","1011.899","13.9","64.14","120.9","0.0"],
    [1518719,"2026-05-06 05:50:00","65216","2.679","287.9","3.855","285.9","1011.924","14.05","63.77","134.3","0.0"],
    [1518720,"2026-05-06 06:00:00","65217","2.778","291.7","4.247","300.5","1011.893","14.2","63.49","181.4","0.0"],
    [1518721,"2026-05-06 06:10:00","65218","3.612","303.6","5.815","287.3","1011.928","14.54","58.54","201.3","0.0"],
    [1518722,"2026-05-06 06:20:00","65219","1.889","297.6","4.312","336.3","1011.991","15.01","57.82","246.8","0.0"],
    [1518723,"2026-05-06 06:30:00","65220","2.147","295.3","5.782","316.7","1012.046","15.16","55.3","268.4","0.0"],
    [1518724,"2026-05-06 06:40:00","65221","4.298","313.1","6.631","309.2","1012.085","15.33","52.19","319.2","0.0"],
    [1518725,"2026-05-06 06:50:00","65222","3.9539999999999997","313.9","6.5329999999999995","312.9","1012.17","15.46","51.32","335.5","0.0"],
    [1518726,"2026-05-06 07:00:00","65223","2.559","337.6","4.769","331.4","1012.235","15.6","51.98","381.0","0.0"],
    [1518727,"2026-05-06 07:10:00","65224","1.97","301.1","2.9730000000000003","315.8","1012.326","15.81","50.54","402.6","0.0"],
    [1518728,"2026-05-06 07:20:00","65225","2.13","342.7","3.365","10.06","1012.422","15.79","52.62","424.7","0.0"],
    [1518729,"2026-05-06 07:30:00","65226","2.908","325.2","4.541","333.6","1012.603","15.69","50.45","436.1","0.0"],
    [1518730,"2026-05-06 07:40:00","65227","1.4169999999999998","310.8","2.8089999999999997","306.2","1012.701","15.69","49.5","482.0","0.0"],
    [1518731,"2026-05-06 07:50:00","65228","1.778","299.8","3.071","310.5","1012.808","15.93","49.1","503.2","0.0"],
    [1518732,"2026-05-06 08:00:00","65229","1.341","292.0","3.7569999999999997","276.8","1012.787","15.98","49.84","526.7","0.0"],
    [1518733,"2026-05-06 08:10:00","65230","1.89","246.4","4.051","263.9","1012.783","16.21","51.16","570.2","0.0"],
    [1518734,"2026-05-06 08:20:00","65231","2.719","248.1","4.704","222.4","1012.802","16.16","51.0","586.1","0.0"],
    [1518735,"2026-05-06 08:30:00","65232","2.738","224.6","5.194","211.1","1012.911","16.24","51.06","637.3","0.0"],
    [1518736,"2026-05-06 08:40:00","65233","3.6489999999999996","221.2","5.945","215.8","1012.961","16.16","50.6","639.5","0.0"],
    [1518737,"2026-05-06 08:50:00","65234","2.4","236.3","3.7239999999999998","239.8","1013.007","16.5","48.78","696.5","0.0"],
    [1518738,"2026-05-06 09:00:00","65235","3.213","290.4","4.737","305.9","1012.939","16.7","47.75","704.4","0.0"],
    [1518739,"2026-05-06 09:10:00","65236","2.5789999999999997","300.9","4.149","290.8","1013.019","16.8","47.25","726.3","0.0"],
    [1518740,"2026-05-06 09:20:00","65237","3.2319999999999998","289.6","4.998","279.9","1013.041","17.05","45.1","771.1","0.0"],
    [1518741,"2026-05-06 09:30:00","65238","2.286","261.4","4.312","253.4","1013.07","17.76","43.18","771.4","0.0"],
    [1518742,"2026-05-06 09:40:00","65239","2.585","258.3","4.345","261.2","1013.042","17.56","43.41","802.0","0.0"],
    [1518743,"2026-05-06 09:50:00","65240","2.053","261.6","4.149","263.9","1012.973","17.89","43.37","838.0","0.0"],
    [1518744,"2026-05-06 10:00:00","65241","1.8459999999999999","266.7","3.887","290.7","1012.857","17.65","44.21","838.0","0.0"],
    [1518745,"2026-05-06 10:10:00","65242","3.824","181.8","5.129","168.4","1012.754","17.4","46.92","838.0","0.0"],
    [1518746,"2026-05-06 10:20:00","65243","4.902","177.0","6.109","172.0","1012.717","16.92","49.82","874.0","0.0"],
    [1518747,"2026-05-06 10:30:00","65244","5.0280000000000005","165.5","5.88","160.2","1012.673","16.96","49.27","905.0","0.0"],
    [1518748,"2026-05-06 10:40:00","65245","4.78","164.6","5.651","167.4","1012.562","16.88","49.52","906.0","0.0"],
    [1518749,"2026-05-06 10:50:00","65246","4.363","163.4","4.933","160.0","1012.489","16.98","48.93","906.0","0.0"],
    [1518750,"2026-05-06 11:00:00","65247","4.777","161.8","5.978","167.1","1012.471","17.14","46.62","906.0","0.0"],
    [1518751,"2026-05-06 11:10:00","65248","5.225","169.5","6.042999999999999","171.7","1012.438","16.95","50.65","906.0","0.0"],
    [1518752,"2026-05-06 11:20:00","65249","5.622000000000001","174.6","6.501","170.4","1012.32","16.98","50.97","912.0","0.0"],
    [1518753,"2026-05-06 11:30:00","65250","5.044","178.8","6.0760000000000005","168.9","1012.287","17.05","50.31","933.0","0.0"],
    [1518754,"2026-05-06 11:40:00","65251","5.061","179.3","6.403","169.0","1012.232","17.02","53.02","956.0","0.0"],
    [1518755,"2026-05-06 11:50:00","65252","4.841","178.3","5.684","175.2","1012.259","17.08","52.48","952.0","0.0"],
    [1518756,"2026-05-06 12:00:00","65253","5.117","183.3","6.403","173.2","1012.215","17.22","51.95","945.0","0.0"],
    [1518757,"2026-05-06 12:10:00","65254","5.37","185.0","6.599","184.9","1012.228","17.1","52.65","925.0","0.0"],
    [1518758,"2026-05-06 12:20:00","65255","5.683","178.1","7.513","173.6","1012.19","16.99","54.33","915.0","0.0"],
    [1518759,"2026-05-06 12:30:00","65256","5.4879999999999995","182.4","7.154","171.0","1012.151","17.03","52.22","906.0","0.0"],
    [1518760,"2026-05-06 12:40:00","65257","5.226","188.1","6.827000000000001","199.2","1012.149","17.1","53.64","906.0","0.0"],
    [1518761,"2026-05-06 12:50:00","65258","5.187","181.4","6.435","195.4","1012.052","17.02","54.33","906.0","0.0"],
    [1518762,"2026-05-06 13:00:00","65259","5.29","169.6","6.501","160.5","1012.018","17.01","56.21","906.0","0.0"],
    [1518763,"2026-05-06 13:10:00","65260","5.109","164.8","5.978","166.4","1012.052","16.93","56.69","906.0","0.0"],
    [1518764,"2026-05-06 13:20:00","65261","4.85","171.7","5.945","169.3","1011.993","17.03","54.44","887.0","0.0"],
    [1518765,"2026-05-06 13:30:00","65262","5.382999999999999","175.1","6.7620000000000005","171.1","1011.926","17.11","54.77","839.0","0.0"],
    [1518766,"2026-05-06 13:40:00","65263","5.445","171.1","6.305","166.0","1011.839","17.12","56.3","839.0","0.0"],
    [1518767,"2026-05-06 13:50:00","65264","5.597","173.7","6.37","183.7","1011.73","17.08","57.07","839.0","0.0"],
    [1518768,"2026-05-06 14:00:00","65265","5.8660000000000005","174.1","7.154","169.1","1011.653","17.17","57.81","783.1","0.0"],
    [1518769,"2026-05-06 14:10:00","65266","6.279","175.9","7.35","181.6","1011.537","17.1","59.26","771.6","0.0"],
    [1518770,"2026-05-06 14:20:00","65267","6.391","176.0","7.611000000000001","178.9","1011.463","17.13","58.72","771.6","0.0"],
    [1518771,"2026-05-06 14:30:00","65268","6.487","178.8","7.709","181.2","1011.389","17.22","56.49","733.1","0.0"],
    [1518772,"2026-05-06 14:40:00","65269","5.829","171.2","6.957999999999999","164.9","1011.406","17.33","58.64","704.5","0.0"],
    [1518773,"2026-05-06 14:50:00","65270","5.247000000000001","178.2","6.827000000000001","175.1","1011.384","17.35","57.65","700.9","0.0"],
    [1518774,"2026-05-06 15:00:00","65271","5.431","182.5","6.435","174.8","1011.295","17.44","56.79","642.2","0.0"],
    [1518775,"2026-05-06 15:10:00","65272","5.377000000000001","190.0","6.827000000000001","190.0","1011.22","17.5","56.57","637.3","0.0"],
    [1518776,"2026-05-06 15:20:00","65273","4.984","187.0","6.5329999999999995","197.6","1011.207","17.55","57.58","600.1","0.0"],
    [1518777,"2026-05-06 15:30:00","65274","4.822","180.4","6.272","176.4","1011.099","17.57","56.83","570.2","0.0"],
    [1518778,"2026-05-06 15:40:00","65275","4.846","179.0","6.337000000000001","169.4","1011.068","17.59","57.21","544.4","0.0"],
    [1518779,"2026-05-06 15:50:00","65276","4.888999999999999","175.5","6.207000000000001","168.9","1011.039","17.47","58.29","503.1","0.0"],
    [1518780,"2026-05-06 16:00:00","65277","4.428999999999999","181.8","5.88","174.2","1010.991","17.63","59.75","479.6","0.0"],
    [1518781,"2026-05-06 16:10:00","65278","4.493","174.4","5.553","171.0","1010.98","17.57","62.02","436.0","0.0"],
    [1518782,"2026-05-06 16:20:00","65279","4.1610000000000005","183.0","5.2589999999999995","166.2","1010.98","17.57","63.48","424.4","0.0"],
    [1518783,"2026-05-06 16:30:00","65280","3.99","179.4","5.096","195.6","1010.98","17.52","64.25","402.5","0.0"],
    [1518784,"2026-05-06 16:40:00","65281","3.682","182.6","4.638999999999999","173.9","1010.954","17.52","63.46","381.6","0.0"],
    [1518785,"2026-05-06 16:50:00","65282","3.4189999999999996","182.2","4.606","173.4","1010.986","17.6","62.31","335.4","0.0"],
    [1518786,"2026-05-06 17:00:00","65283","3.977","169.9","4.769","173.5","1011.02","17.48","61.14","305.2","0.0"],
    [1518787,"2026-05-06 17:10:00","65284","3.6460000000000004","176.9","4.671","175.6","1011.078","17.51","61.66","268.3","0.0"],
    [1518788,"2026-05-06 17:20:00","65285","3.036","173.3","4.475","171.2","1011.224","17.52","61.53","226.3","0.0"],
    [1518789,"2026-05-06 17:30:00","65286","3.04","168.1","3.887","178.9","1011.267","17.46","62.12","201.2","0.0"],
    [1518790,"2026-05-06 17:40:00","65287","3.4619999999999997","181.1","4.345","182.4","1011.302","17.57","61.11","171.4","0.0"],
    [1518791,"2026-05-06 17:50:00","65288","3.852","174.5","4.965","157.9","1011.43","17.54","61.79","134.2","0.0"],
    [1518792,"2026-05-06 18:00:00","65289","3.81","179.0","5.422999999999999","175.2","1011.363","17.59","62.36","121.7","0.0"],
    [1518793,"2026-05-06 18:10:00","65290","4.008","165.3","4.867","167.2","1011.495","17.52","63.11","67.11","0.0"],
    [1518794,"2026-05-06 18:20:00","65291","3.64","169.2","4.312","159.4","1011.618","17.51","63.67","59.54","0.0"],
    [1518795,"2026-05-06 18:30:00","65292","3.071","163.3","4.018","166.3","1011.684","17.44","63.1","35.73","0.0"],
    [1518796,"2026-05-06 18:40:00","65293","2.5180000000000002","168.5","3.201","174.9","1011.746","17.42","61.69","0.0","0.0"],
    [1518797,"2026-05-06 18:50:00","65294","2.14","161.3","2.7439999999999998","163.5","1011.934","17.43","62.85","0.0","0.0"],
    [1518798,"2026-05-06 19:00:00","65295","2.15","168.6","2.6460000000000004","170.4","1012.017","17.43","62.82","0.0","0.0"],
    [1518799,"2026-05-06 19:10:00","65296","2.238","152.1","2.7769999999999997","156.7","1012.152","17.43","62.62","0.0","0.0"],
    [1518800,"2026-05-06 19:20:00","65297","2.274","151.2","3.332","151.8","1012.208","17.43","61.66","0.0","0.0"],
    [1518801,"2026-05-06 19:30:00","65298","1.751","154.5","2.319","156.3","1012.301","17.42","63.49","0.0","0.0"],
    [1518802,"2026-05-06 19:40:00","65299","1.374","162.9","2.287","163.3","1012.379","17.4","63.91","0.0","0.0"],
    [1518803,"2026-05-06 19:50:00","65300","0.752","142.0","1.176","147.7","1012.635","17.36","64.58","0.0","0.0"],
    [1518804,"2026-05-06 20:00:00","65301","0.457","153.8","0.7190000000000001","162.3","1012.776","17.35","65.53","0.0","0.0"],
    [1518805,"2026-05-06 20:10:00","65302","0.001","101.4","0.196","101.4","1012.878","17.3","66.08","0.0","0.0"],
    [1518806,"2026-05-06 20:20:00","65303","0.616","181.8","1.143","173.0","1013.016","17.29","66.56","0.0","0.0"],
    [1518807,"2026-05-06 20:30:00","65304","0.59","165.2","1.045","184.0","1013.241","17.39","68.13","0.0","0.0"],
    [1518808,"2026-05-06 20:40:00","65305","0.34","190.1","0.98","178.8","1013.4","17.39","69.06","0.0","0.0"],
    [1518809,"2026-05-06 20:50:00","65306","0.018000000000000002","105.4","0.327","110.1","1013.486","17.29","68.99","0.0","0.0"],
    [1518810,"2026-05-06 21:00:00","65307","0.025","128.8","0.392","128.6","1013.564","17.26","69.79","0.0","0.0"],
    [1518811,"2026-05-06 21:10:00","65308","0.0","0.0","0.0","0.0","1013.615","17.25","69.29","0.0","0.0"],
    [1518812,"2026-05-06 21:20:00","65309","0.0","0.0","0.0","0.0","1013.704","17.26","69.67","0.0","0.0"],
    [1518813,"2026-05-06 21:30:00","65310","0.526","262.1","1.339","264.7","1013.62","17.26","70.27","0.0","0.0"],
    [1518814,"2026-05-06 21:40:00","65311","0.695","290.9","1.143","305.7","1013.613","17.22","69.16","0.0","0.0"],
    [1518815,"2026-05-06 21:50:00","65312","0.94","290.9","1.5030000000000001","292.3","1013.642","17.27","67.64","0.0","0.0"],
    [1518816,"2026-05-06 22:00:00","65313","1.554","297.5","1.829","298.2","1013.636","17.29","67.0","0.0","0.0"],
    [1518817,"2026-05-06 22:10:00","65314","1.105","292.1","1.568","287.1","1013.681","17.29","66.6","0.0","0.0"],
    [1518818,"2026-05-06 22:20:00","65315","0.718","299.9","1.078","303.7","1013.678","17.28","67.05","0.0","0.0"],
    [1518819,"2026-05-06 22:30:00","65316","1.051","296.4","1.3719999999999999","295.0","1013.578","17.25","67.67","0.0","0.0"],
    [1518820,"2026-05-06 22:40:00","65317","0.7240000000000001","325.5","1.078","341.7","1013.595","17.23","68.61","0.0","0.0"],
    [1518821,"2026-05-06 22:50:00","65318","1.218","357.2","2.221","34.85","1013.659","17.27","69.0","0.0","0.0"],
    [1518822,"2026-05-06 23:00:00","65319","1.9280000000000002","31.25","2.483","30.48","1013.67","17.34","72.17","0.0","0.0"],
    [1518823,"2026-05-06 23:10:00","65320","2.103","32.63","2.9730000000000003","34.54","1013.719","17.34","72.81","0.0","0.0"],
    [1518824,"2026-05-06 23:20:00","65321","3.608","21.1","4.2139999999999995","20.27","1013.685","17.2","71.85","0.0","0.0"],
    [1518825,"2026-05-06 23:30:00","65322","3.17","17.63","4.1160000000000005","22.05","1013.647","17.12","70.5","0.0","0.0"],
    [1518826,"2026-05-06 23:40:00","65323","3.843","15.43","4.638999999999999","17.55","1013.725","17.12","71.18","0.0","0.0"],
    [1518827,"2026-05-06 23:50:00","65324","4.917","26.14","6.566","29.7","1013.763","16.87","74.37","0.0","0.0"],
    [1518828,"2026-05-07 00:00:00","65325","5.865","33.52","7.187","33.07","1013.757","16.4","79.87","0.0","0.0"],
    [1518829,"2026-05-07 00:10:00","65326","5.473","29.78","7.154","29.1","1013.756","16.22","80.6","0.0","0.0"],
    [1518830,"2026-05-07 00:20:00","65327","6.231","32.29","7.742000000000001","30.44","1013.643","16.16","78.83","0.0","0.0"],
    [1518831,"2026-05-07 00:30:00","65328","6.204","30.3","7.252000000000001","27.02","1013.604","16.19","76.61","0.0","0.0"],
    [1518832,"2026-05-07 00:40:00","65329","5.602","38.51","6.827000000000001","31.59","1013.612","16.32","75.5","0.0","0.0"],
    [1518833,"2026-05-07 00:50:00","65330","5.182","48.12","6.501","48.9","1013.609","16.33","77.87","0.0","0.0"],
    [1518834,"2026-05-07 01:00:00","65331","5.0169999999999995","46.16","6.468","39.82","1013.525","16.18","81.5","0.0","0.0"],
    [1518835,"2026-05-07 01:10:00","65332","4.853","48.63","6.042999999999999","54.1","1013.472","16.07","81.2","0.0","0.0"],
    [1518836,"2026-05-07 01:20:00","65333","4.316","38.87","5.945","39.89","1013.438","16.01","80.6","0.0","0.0"],
    [1518837,"2026-05-07 01:30:00","65334","4.637","39.4","6.0760000000000005","34.35","1013.404","16.06","79.72","0.0","0.0"],
    [1518838,"2026-05-07 01:40:00","65335","4.603","36.77","5.619","34.04","1013.377","16.1","77.77","0.0","0.0"],
    [1518839,"2026-05-07 01:50:00","65336","3.7939999999999996","23.14","5.521","27.84","1013.337","16.17","79.24","0.0","0.0"],
    [1518840,"2026-05-07 02:00:00","65337","4.544","35.37","6.5329999999999995","29.77","1013.28","16.11","78.24","0.0","0.0"],
    [1518841,"2026-05-07 02:10:00","65338","4.468","33.64","6.0760000000000005","28.6","1013.189","16.2","78.1","0.0","0.0"],
    [1518842,"2026-05-07 02:20:00","65339","4.0489999999999995","25.56","5.4879999999999995","35.26","1013.247","16.1","78.26","0.0","0.0"],
    [1518843,"2026-05-07 02:30:00","65340","3.864","22.28","5.227","20.98","1013.239","16.07","77.59","0.0","0.0"],
    [1518844,"2026-05-07 02:40:00","65341","2.8339999999999996","20.79","4.2139999999999995","3.759","1013.278","15.99","76.39","0.0","0.0"],
    [1518845,"2026-05-07 02:50:00","65342","2.7","23.51","3.593","34.34","1013.352","15.98","76.44","0.0","0.0"],
    [1518846,"2026-05-07 03:00:00","65343","2.505","26.4","3.136","24.37","1013.381","15.93","76.27","0.0","0.0"],
    [1518847,"2026-05-07 03:10:00","65344","2.721","28.42","3.593","25.57","1013.366","15.88","75.65","0.0","0.0"],
    [1518848,"2026-05-07 03:20:00","65345","3.076","21.07","3.9530000000000003","25.24","1013.385","15.88","75.41","0.0","0.0"],
    [1518849,"2026-05-07 03:30:00","65346","2.841","16.31","3.659","13.84","1013.304","15.89","75.81","0.0","0.0"],
    [1518850,"2026-05-07 03:40:00","65347","3.068","11.17","3.7569999999999997","19.32","1013.211","15.83","75.31","0.0","0.0"],
    [1518851,"2026-05-07 03:50:00","65348","2.9","16.9","3.528","20.4","1013.19","15.79","75.78","0.0","0.0"],
    [1518852,"2026-05-07 04:00:00","65349","2.853","19.28","3.593","24.73","1013.19","15.77","76.09","0.0","0.0"],
    [1518853,"2026-05-07 04:10:00","65350","3.009","25.93","3.92","23.21","1013.211","15.75","77.05","0.0","0.0"],
    [1518854,"2026-05-07 04:20:00","65351","2.9189999999999996","27.8","3.7569999999999997","23.34","1013.224","15.67","77.58","0.0","0.0"],
    [1518855,"2026-05-07 04:30:00","65352","3.25","27.19","4.018","35.02","1013.238","15.63","78.34","0.0","0.0"],
    [1518856,"2026-05-07 04:40:00","65353","2.937","27.07","3.528","32.43","1013.27","15.59","78.13","0.0","0.0"],
    [1518857,"2026-05-07 04:50:00","65354","3.138","27.68","3.7889999999999997","32.36","1013.152","15.56","78.33","0.0","0.0"],
    [1518858,"2026-05-07 05:00:00","65355","2.861","18.7","3.7239999999999998","15.22","1013.157","15.58","78.72","0.0","0.0"],
    [1518859,"2026-05-07 05:10:00","65356","2.1319999999999997","14.95","3.299","6.837999999999999","1013.36","15.55","77.74","30.26","0.0"],
    [1518860,"2026-05-07 05:20:00","65357","2.63","23.03","3.234","13.42","1013.502","15.56","77.72","62.26","0.0"],
    [1518861,"2026-05-07 05:30:00","65358","2.537","11.88","3.103","17.73","1013.583","15.62","77.77","67.18","0.0"],
    [1518862,"2026-05-07 05:40:00","65359","2.431","12.53","2.94","10.81","1013.585","15.64","77.27","102.9","0.0"],
    [1518863,"2026-05-07 05:50:00","65360","2.7760000000000002","15.23","3.365","21.79","1013.673","15.77","77.19","96.5","0.0"],
    [1518864,"2026-05-07 06:00:00","65361","2.7030000000000003","16.1","3.299","20.44","1013.769","15.69","77.51","67.11","0.0"],
    [1518865,"2026-05-07 06:10:00","65362","2.673","23.9","3.365","41.07","1013.847","15.75","77.83","100.1","0.0"],
    [1518866,"2026-05-07 06:20:00","65363","2.617","19.27","3.593","14.23","1013.896","15.88","76.95","138.3","0.0"],
    [1518867,"2026-05-07 06:30:00","65364","2.5380000000000003","20.8","3.299","30.09","1013.987","15.81","77.06","77.35","0.0"],
    [1518868,"2026-05-07 06:40:00","65365","2.937","29.16","3.92","25.11","1014.117","15.88","77.46","133.4","0.0"],
    [1518869,"2026-05-07 06:50:00","65366","3.15","26.52","4.377","32.43","1014.197","15.96","77.5","326.4","0.0"],
    [1518870,"2026-05-07 07:00:00","65367","3.318","24.97","4.41","28.87","1014.28","15.96","77.68","245.2","0.0"],
    [1518871,"2026-05-07 07:10:00","65368","3.537","22.95","4.998","22.57","1014.341","16.06","77.77","286.6","0.0"],
    [1518872,"2026-05-07 07:20:00","65369","3.8","25.4","4.737","30.03","1014.434","15.95","78.59","226.7","0.0"],
    [1518873,"2026-05-07 07:30:00","65370","4.109","25.54","5.227","29.35","1014.468","16.04","78.27","344.1","0.0"],
    [1518874,"2026-05-07 07:40:00","65371","4.736000000000001","29.9","5.978","32.64","1014.461","15.98","79.5","103.3","0.0"],
    [1518875,"2026-05-07 07:50:00","65372","4.5489999999999995","41.67","6.435","28.15","1014.51","16.04","79.77","140.1","0.0"],
    [1518876,"2026-05-07 08:00:00","65373","3.86","41.64","6.631","44.79","1014.501","16.43","72.86","426.9","0.0"],
    [1518877,"2026-05-07 08:10:00","65374","3.648","44.76","7.382999999999999","61.07","1014.462","16.55","72.19","451.7","0.0"],
    [1518878,"2026-05-07 08:20:00","65375","3.115","42.91","5.912999999999999","22.86","1014.46","16.66","71.21","461.0","0.0"],
    [1518879,"2026-05-07 08:30:00","65376","3.786","89.9","6.239","105.8","1014.568","16.61","70.87","484.2","0.0"],
    [1518880,"2026-05-07 08:40:00","65377","2.6260000000000003","49.43","7.218999999999999","58.93","1014.507","16.66","71.02","429.4","0.0"],
    [1518881,"2026-05-07 08:50:00","65378","3.489","84.9","6.957999999999999","97.2","1014.458","16.69","69.28","656.6","0.0"],
    [1518882,"2026-05-07 09:00:00","65379","3.306","70.54","6.7620000000000005","106.8","1014.51","16.71","68.93","709.3","0.0"],
    [1518883,"2026-05-07 09:10:00","65380","3.826","90.9","6.207000000000001","97.1","1014.643","16.73","68.26","674.6","0.0"],
    [1518884,"2026-05-07 09:20:00","65381","2.932","87.6","5.815","115.7","1014.736","16.78","68.5","707.5","0.0"],
    [1518885,"2026-05-07 09:30:00","65382","3.102","80.7","5.945","95.2","1014.755","16.76","68.26","769.1","0.0"],
    [1518886,"2026-05-07 09:40:00","65383","1.995","91.5","4.671","96.6","1014.851","16.87","67.5","757.8","0.0"],
    [1518887,"2026-05-07 09:50:00","65384","3.675","94.9","6.011","103.6","1014.909","16.79","67.3","804.0","0.0"],
    [1518888,"2026-05-07 10:00:00","65385","3.2119999999999997","92.3","6.141","103.3","1014.954","16.7","68.26","766.6","0.0"],
    [1518889,"2026-05-07 10:10:00","65386","2.676","83.4","5.39","47.01","1014.82","16.76","68.38","890.0","0.0"],
    [1518890,"2026-05-07 10:20:00","65387","3.472","91.9","6.141","90.6","1014.783","16.77","69.73","907.0","0.0"],
    [1518891,"2026-05-07 10:30:00","65388","3.185","53.4","6.468","38.51","1014.619","16.76","69.58","875.0","0.0"],
    [1518892,"2026-05-07 10:40:00","65389","3.185","41.81","6.011","50.91","1014.571","16.76","69.36","762.4","0.0"],
    [1518893,"2026-05-07 10:50:00","65390","2.863","48.83","6.795","43.63","1014.474","16.75","70.14","667.4","0.0"],
    [1518894,"2026-05-07 11:00:00","65391","3.1889999999999996","91.1","5.684","97.7","1014.478","16.73","70.38","693.7","0.0"],
    [1518895,"2026-05-07 11:10:00","65392","2.8939999999999997","59.22","5.749","92.0","1014.304","16.76","70.07","882.0","0.0"],
    [1518896,"2026-05-07 11:20:00","65393","3.255","91.0","5.1610000000000005","99.1","1014.336","16.74","69.62","772.7","0.0"],
    [1518897,"2026-05-07 11:30:00","65394","4.026","101.7","5.357","95.0","1014.334","16.69","70.33","743.0","0.0"],
    [1518898,"2026-05-07 11:40:00","65395","4.247","99.9","5.749","101.5","1014.271","16.71","69.9","939.0","0.0"],
    [1518899,"2026-05-07 11:50:00","65396","4.27","109.7","5.7170000000000005","120.8","1014.286","16.79","69.11","966.0","0.0"],
    [1518900,"2026-05-07 12:00:00","65397","4.747","112.6","6.337000000000001","111.8","1014.208","16.76","69.04","954.0","0.0"],
    [1518901,"2026-05-07 12:10:00","65398","4.352","114.8","5.619","121.8","1014.148","16.86","67.62","754.8","0.0"],
    [1518902,"2026-05-07 12:20:00","65399","4.37","106.3","5.782","96.6","1014.048","16.91","67.49","955.0","0.0"],
    [1518903,"2026-05-07 12:30:00","65400","4.144","106.0","5.619","94.8","1014.026","16.88","67.31","947.0","0.0"],
    [1518904,"2026-05-07 12:40:00","65401","4.553","104.9","5.945","99.8","1013.948","16.92","68.16","861.0","0.0"],
    [1518905,"2026-05-07 12:50:00","65402","4.178","105.8","5.815","126.4","1013.893","16.85","67.62","755.5","0.0"],
    [1518906,"2026-05-07 13:00:00","65403","4.099","102.3","5.7170000000000005","103.6","1013.729","16.88","66.18","673.0","0.0"],
    [1518907,"2026-05-07 13:10:00","65404","3.883","99.3","5.749","110.6","1013.639","16.81","66.72","712.5","0.0"],
    [1518908,"2026-05-07 13:20:00","65405","3.7239999999999998","102.6","5.292000000000001","95.3","1013.563","16.87","65.57","797.1","0.0"],
    [1518909,"2026-05-07 13:30:00","65406","4.162","94.1","6.042999999999999","101.2","1013.434","16.84","65.5","693.0","0.0"],
    [1518910,"2026-05-07 13:40:00","65407","4.073","99.0","5.357","91.5","1013.451","16.84","66.44","625.5","0.0"],
    [1518911,"2026-05-07 13:50:00","65408","3.365","95.0","5.422999999999999","73.04","1013.206","16.89","66.28","717.6","0.0"],
    [1518912,"2026-05-07 14:00:00","65409","3.114","90.0","6.272","93.2","1013.077","16.89","67.02","659.4","0.0"],
    [1518913,"2026-05-07 14:10:00","65410","2.432","81.1","5.129","100.6","1012.989","16.9","67.27","688.5","0.0"],
    [1518914,"2026-05-07 14:20:00","65411","3.458","41.27","6.141","34.8","1012.767","16.95","67.9","686.9","0.0"],
    [1518915,"2026-05-07 14:30:00","65412","2.6260000000000003","75.17","4.769","34.54","1012.808","16.97","68.12","459.8","0.0"],
    [1518916,"2026-05-07 14:40:00","65413","2.251","63.38","4.965","36.6","1012.763","17.01","69.13","449.3","0.0"],
    [1518917,"2026-05-07 14:50:00","65414","2.9930000000000003","87.4","4.704","104.4","1012.831","16.99","69.43","572.6","0.0"],
    [1518918,"2026-05-07 15:00:00","65415","2.5180000000000002","68.62","5.782","51.03","1012.735","17.02","69.74","444.0","0.0"],
    [1518919,"2026-05-07 15:10:00","65416","3.4939999999999998","100.7","5.455","100.5","1012.739","16.95","71.25","368.0","0.0"],
    [1518920,"2026-05-07 15:20:00","65417","3.784","97.4","5.063","117.5","1012.672","16.95","71.86","420.7","0.0"],
    [1518921,"2026-05-07 15:30:00","65418","3.6069999999999998","95.8","5.521","98.9","1012.54","16.89","71.78","408.3","0.0"],
    [1518922,"2026-05-07 15:40:00","65419","2.31","61.49","4.573","54.98","1012.366","16.99","71.83","412.4","0.0"],
    [1518923,"2026-05-07 15:50:00","65420","2.63","88.7","5.063","99.9","1012.32","16.99","71.38","375.5","0.0"],
    [1518924,"2026-05-07 16:00:00","65421","2.535","68.33","4.671","113.3","1012.19","16.98","71.71","335.6","0.0"],
    [1518925,"2026-05-07 16:10:00","65422","2.823","72.87","5.1610000000000005","108.0","1012.119","16.96","71.68","278.9","0.0"],
    [1518926,"2026-05-07 16:20:00","65423","3.055","84.9","5.4879999999999995","101.0","1012.067","16.9","72.07","268.4","0.0"],
    [1518927,"2026-05-07 16:30:00","65424","2.349","62.48","5.619","73.18","1012.081","16.96","72.19","269.7","0.0"],
    [1518928,"2026-05-07 16:40:00","65425","1.781","70.34","4.835","70.95","1012.284","17.01","71.88","229.7","0.0"],
    [1518929,"2026-05-07 16:50:00","65426","2.344","84.1","4.018","93.6","1012.277","16.94","71.9","278.9","0.0"],
    [1518930,"2026-05-07 17:00:00","65427","2.841","91.8","5.031000000000001","97.6","1012.352","16.95","72.89","228.4","0.0"],
    [1518931,"2026-05-07 17:10:00","65428","2.661","96.0","4.802","110.8","1012.448","16.92","73.96","139.4","0.0"],
    [1518932,"2026-05-07 17:20:00","65429","2.614","89.9","4.1160000000000005","97.1","1012.542","16.93","73.83","193.3","0.0"],
    [1518933,"2026-05-07 17:30:00","65430","3.66","64.93","4.606","68.48","1012.467","16.83","75.15","142.9","0.0"],
    [1518934,"2026-05-07 17:40:00","65431","3.693","55.43","4.638999999999999","58.65","1012.358","16.83","74.79","131.5","0.0"],
    [1518935,"2026-05-07 17:50:00","65432","3.2560000000000002","49.03","4.867","58.9","1012.418","16.85","75.37","77.61","0.0"],
    [1518936,"2026-05-07 18:00:00","65433","3.089","72.98","4.573","87.7","1012.54","16.81","74.99","67.1","0.0"],
    [1518937,"2026-05-07 18:10:00","65434","3.114","65.74","3.985","64.21","1012.618","16.84","75.36","67.1","0.0"],
    [1518938,"2026-05-07 18:20:00","65435","2.988","73.36","4.737","65.45","1012.675","16.82","74.74","67.1","0.0"],
    [1518939,"2026-05-07 18:30:00","65436","3.178","70.07","4.573","80.9","1012.736","16.8","75.31","67.1","0.0"],
    [1518940,"2026-05-07 18:40:00","65437","2.7439999999999998","79.77","3.6260000000000003","51.5","1012.834","16.89","75.57","19.88","0.0"],
    [1518941,"2026-05-07 18:50:00","65438","2.8810000000000002","70.68","3.822","69.54","1012.876","16.83","75.29","0.0","0.0"],
    [1518942,"2026-05-07 19:00:00","65439","2.838","58.91","3.92","47.3","1012.912","16.87","76.1","0.0","0.0"],
    [1518943,"2026-05-07 19:10:00","65440","2.699","60.08","3.822","76.56","1013.029","16.87","75.64","0.0","0.0"],
    [1518944,"2026-05-07 19:20:00","65441","2.725","68.82","3.7569999999999997","86.6","1013.191","16.85","75.6","0.0","0.0"],
    [1518945,"2026-05-07 19:30:00","65442","2.4859999999999998","68.38","3.92","70.68","1013.378","16.88","75.68","0.0","0.0"],
    [1518946,"2026-05-07 19:40:00","65443","2.426","63.65","3.332","68.12","1013.433","16.87","75.37","0.0","0.0"],
    [1518947,"2026-05-07 19:50:00","65444","2.576","40.34","3.528","12.57","1013.502","16.88","74.88","0.0","0.0"],
    [1518948,"2026-05-07 20:00:00","65445","2.5980000000000003","33.82","4.606","21.06","1013.584","16.84","75.77","0.0","0.0"],
    [1518949,"2026-05-07 20:10:00","65446","2.6860000000000004","37.28","3.7239999999999998","34.43","1013.803","16.84","75.04","0.0","0.0"],
    [1518950,"2026-05-07 20:20:00","65447","2.7910000000000004","44.54","3.659","34.85","1013.944","16.84","74.83","0.0","0.0"],
    [1518951,"2026-05-07 20:30:00","65448","2.5780000000000003","46.01","3.463","41.48","1014.138","16.91","75.26","0.0","0.0"],
    [1518952,"2026-05-07 20:40:00","65449","2.728","31.91","3.7239999999999998","32.22","1014.216","16.87","76.15","0.0","0.0"],
    [1518953,"2026-05-07 20:50:00","65450","2.553","47.66","3.1689999999999996","57.8","1014.241","16.85","75.58","0.0","0.0"],
    [1518954,"2026-05-07 21:00:00","65451","2.3569999999999998","55.87","3.1689999999999996","51.77","1014.258","16.88","76.09","0.0","0.0"],
    [1518955,"2026-05-07 21:10:00","65452","2.222","74.53","2.907","96.9","1014.251","16.85","75.73","0.0","0.0"],
    [1518956,"2026-05-07 21:20:00","65453","2.437","75.3","3.201","77.82","1014.236","16.85","75.68","0.0","0.0"],
    [1518957,"2026-05-07 21:30:00","65454","2.397","75.3","3.0380000000000003","84.9","1014.236","16.81","76.46","0.0","0.0"],
    [1518958,"2026-05-07 21:40:00","65455","2.03","77.07","2.7110000000000003","77.7","1014.204","16.8","76.6","0.0","0.0"],
    [1518959,"2026-05-07 21:50:00","65456","1.8119999999999998","66.49","2.548","77.48","1014.187","16.8","75.82","0.0","0.0"],
    [1518960,"2026-05-07 22:00:00","65457","2.2","36.06","2.907","26.64","1014.159","16.8","76.47","0.0","0.0"],
    [1518961,"2026-05-07 22:10:00","65458","2.285","35.49","2.907","27.66","1014.138","16.75","76.52","0.0","0.0"],
    [1518962,"2026-05-07 22:20:00","65459","2.3819999999999997","30.84","3.005","20.97","1014.092","16.74","76.77","0.0","0.0"],
    [1518963,"2026-05-07 22:30:00","65460","2.142","31.7","2.7110000000000003","35.22","1014.062","16.73","77.05","0.0","0.0"],
    [1518964,"2026-05-07 22:40:00","65461","1.8969999999999998","27.96","2.7439999999999998","9.82","1014.044","16.72","77.21","0.0","0.0"],
    [1518965,"2026-05-07 22:50:00","65462","1.906","30.76","2.613","29.08","1013.983","16.71","77.35","0.0","0.0"],
    [1518966,"2026-05-07 23:00:00","65463","1.893","48.52","2.613","34.66","1013.897","16.72","77.03","0.0","0.0"],
    [1518967,"2026-05-07 23:10:00","65464","1.6159999999999999","47.58","2.123","65.21","1013.829","16.74","77.6","0.0","0.0"],
    [1518968,"2026-05-07 23:20:00","65465","1.314","49.39","2.0909999999999997","40.46","1013.82","16.69","76.76","0.0","0.0"],
    [1518969,"2026-05-07 23:30:00","65466","0.813","87.0","1.5030000000000001","48.35","1013.756","16.69","76.47","0.0","0.0"],
    [1518970,"2026-05-07 23:40:00","65467","1.239","81.7","1.568","87.9","1013.638","16.69","76.33","0.0","0.0"],
    [1518971,"2026-05-07 23:50:00","65468","0.57","74.68","1.405","77.91","1013.623","16.68","76.79","0.0","0.0"],
    [1518972,"2026-05-08 00:00:00","65469","0.5489999999999999","48.35","0.915","53.74","1013.565","16.65","76.32","0.0","0.0"],
    [1518973,"2026-05-08 00:10:00","65470","0.591","43.87","1.209","44.12","1013.427","16.66","76.49","0.0","0.0"],
    [1518974,"2026-05-08 00:20:00","65471","0.461","59.91","1.111","54.15","1013.375","16.64","76.23","0.0","0.0"],
    [1518975,"2026-05-08 00:30:00","65472","0.639","26.64","1.111","24.43","1013.285","16.66","76.61","0.0","0.0"],
    [1518976,"2026-05-08 00:40:00","65473","0.715","343.8","1.274","5.251","1013.245","16.64","76.51","0.0","0.0"],
    [1518977,"2026-05-08 00:50:00","65474","0.687","275.3","1.5030000000000001","280.0","1013.177","16.6","75.4","0.0","0.0"],
    [1518978,"2026-05-08 01:00:00","65475","0.7290000000000001","255.6","1.405","256.5","1013.145","16.57","75.26","0.0","0.0"],
    [1518979,"2026-05-08 01:10:00","65476","0.581","281.8","0.882","277.5","1013.014","16.52","75.48","0.0","0.0"],
    [1518980,"2026-05-08 01:20:00","65477","0.986","273.9","1.405","272.5","1012.933","16.54","75.26","0.0","0.0"],
    [1518981,"2026-05-08 01:30:00","65478","0.722","250.3","1.143","270.5","1012.863","16.51","75.36","0.0","0.0"],
    [1518982,"2026-05-08 01:40:00","65479","0.14800000000000002","231.4","0.653","230.2","1012.786","16.42","74.2","0.0","0.0"],
    [1518983,"2026-05-08 01:50:00","65480","0.743","247.8","1.5030000000000001","257.7","1012.812","16.38","71.44","0.0","0.0"],
    [1518984,"2026-05-08 02:00:00","65481","1.062","249.2","1.764","261.4","1012.746","16.38","70.0","0.0","0.0"],
    [1518985,"2026-05-08 02:10:00","65482","1.446","252.3","2.254","252.9","1012.641","16.31","70.03","0.0","0.0"],
    [1518986,"2026-05-08 02:20:00","65483","1.311","259.4","2.319","261.2","1012.577","16.2","71.03","0.0","0.0"],
    [1518987,"2026-05-08 02:30:00","65484","0.675","258.0","1.143","254.6","1012.55","16.18","71.23","0.0","0.0"],
    [1518988,"2026-05-08 02:40:00","65485","1.1320000000000001","267.8","1.5030000000000001","267.6","1012.462","16.2","71.18","0.0","0.0"],
    [1518989,"2026-05-08 02:50:00","65486","0.9209999999999999","255.5","1.535","261.3","1012.393","16.06","71.68","0.0","0.0"],
    [1518990,"2026-05-08 03:00:00","65487","1.265","257.5","1.764","256.9","1012.378","16.01","71.5","0.0","0.0"],
    [1518991,"2026-05-08 03:10:00","65488","1.4669999999999999","260.6","2.287","260.9","1012.35","15.73","72.45","0.0","0.0"],
    [1518992,"2026-05-08 03:20:00","65489","1.8559999999999999","264.9","2.385","264.2","1012.298","15.54","73.19","0.0","0.0"],
    [1518993,"2026-05-08 03:30:00","65490","1.631","266.4","2.189","265.5","1012.261","15.47","73.3","0.0","0.0"],
    [1518994,"2026-05-08 03:40:00","65491","1.838","259.1","2.417","264.2","1012.192","15.35","73.6","0.0","0.0"],
    [1518995,"2026-05-08 03:50:00","65492","1.5230000000000001","257.3","2.156","261.2","1012.221","15.36","73.11","0.0","0.0"],
    [1518996,"2026-05-08 04:00:00","65493","2.2969999999999997","265.7","2.8089999999999997","269.5","1012.269","15.32","72.49","0.0","0.0"],
    [1518997,"2026-05-08 04:10:00","65494","2.401","264.5","3.005","266.1","1012.285","15.18","72.17","0.0","0.0"],
    [1518998,"2026-05-08 04:20:00","65495","2.06","266.0","2.613","257.8","1012.347","15.13","70.94","0.0","0.0"],
    [1518999,"2026-05-08 04:30:00","65496","1.774","259.0","2.287","255.7","1012.417","15.03","70.17","0.0","0.0"],
    [1519000,"2026-05-08 04:40:00","65497","1.7080000000000002","259.1","2.156","260.3","1012.565","15.07","69.16","0.0","0.0"],
    [1519001,"2026-05-08 04:50:00","65498","1.821","266.1","2.45","271.7","1012.571","15.03","68.84","0.0","0.0"],
    [1519002,"2026-05-08 05:00:00","65499","1.1540000000000001","255.4","1.764","270.9","1012.623","14.99","68.85","0.0","0.0"],
    [1519003,"2026-05-08 05:10:00","65500","0.629","269.2","1.5030000000000001","266.4","1012.765","15.05","68.38","0.0","0.0"],
    [1519004,"2026-05-08 05:20:00","65501","1.176","275.1","1.8619999999999999","268.8","1012.849","15.01","68.88","0.0","0.0"],
    [1519005,"2026-05-08 05:30:00","65502","1.25","268.7","1.829","260.8","1012.964","14.97","68.13","7.972","0.0"],
    [1519006,"2026-05-08 05:40:00","65503","0.937","287.2","1.274","284.7","1012.985","15.18","67.91","63.35","0.0"],
    [1519007,"2026-05-08 05:50:00","65504","1.22","289.2","1.568","281.1","1012.961","15.33","67.88","67.13","0.0"],
    [1519008,"2026-05-08 06:00:00","65505","0.9570000000000001","310.7","1.405","300.9","1012.97","15.48","67.79","75.43","0.0"],
    [1519009,"2026-05-08 06:10:00","65506","0.836","316.4","1.176","313.8","1013.037","15.64","67.99","106.0","0.0"],
    [1519010,"2026-05-08 06:20:00","65507","0.451","314.0","0.8490000000000001","324.6","1013.084","15.84","68.05","134.3","0.0"],
    [1519011,"2026-05-08 06:30:00","65508","0.447","307.5","0.882","300.1","1013.082","16.04","67.64","134.2","0.0"],
    [1519012,"2026-05-08 06:40:00","65509","0.157","40.39","1.764","26.23","1013.138","16.42","69.84","182.1","0.0"],
    [1519013,"2026-05-08 06:50:00","65510","1.588","33.3","2.352","26.59","1013.178","16.75","71.83","280.5","0.0"],
    [1519014,"2026-05-08 07:00:00","65511","1.546","31.55","2.352","21.74","1013.276","16.65","72.62","309.9","0.0"],
    [1519015,"2026-05-08 07:10:00","65512","1.4709999999999999","23.67","1.96","26.02","1013.387","16.84","71.94","394.4","0.0"],
    [1519016,"2026-05-08 07:20:00","65513","1.4069999999999998","36.45","1.993","58.02","1013.569","16.92","72.58","411.2","0.0"],
    [1519017,"2026-05-08 07:30:00","65514","1.6219999999999999","37.0","2.352","40.99","1013.698","16.93","72.75","417.7","0.0"],
    [1519018,"2026-05-08 07:40:00","65515","2.194","33.53","2.9730000000000003","36.26","1013.683","16.86","72.11","404.6","0.0"],
    [1519019,"2026-05-08 07:50:00","65516","2.386","37.54","3.495","38.68","1013.771","16.88","68.91","431.9","0.0"],
    [1519020,"2026-05-08 08:00:00","65517","3.22","28.88","4.149","31.55","1013.895","16.81","66.52","402.6","0.0"],
    [1519021,"2026-05-08 08:10:00","65518","3.139","30.31","3.593","27.99","1014.038","16.75","66.22","416.8","0.0"],
    [1519022,"2026-05-08 08:20:00","65519","2.63","31.59","3.5610000000000004","37.77","1014.186","16.83","68.02","425.0","0.0"],
    [1519023,"2026-05-08 08:30:00","65520","2.418","33.69","3.5610000000000004","25.54","1014.28","16.92","70.22","394.4","0.0"],
    [1519024,"2026-05-08 08:40:00","65521","2.075","33.92","2.9730000000000003","38.38","1014.449","17.0","72.54","424.7","0.0"],
    [1519025,"2026-05-08 08:50:00","65522","1.849","39.05","3.005","29.07","1014.526","17.06","73.23","508.0","0.0"],
    [1519026,"2026-05-08 09:00:00","65523","1.4980000000000002","38.12","2.385","27.89","1014.651","17.25","73.06","547.4","0.0"],
    [1519027,"2026-05-08 09:10:00","65524","1.216","92.7","2.6460000000000004","77.33","1014.818","17.25","74.35","509.6","0.0"],
    [1519028,"2026-05-08 09:20:00","65525","0.873","85.7","2.189","101.7","1014.864","17.33","74.29","574.4","0.0"],
    [1519029,"2026-05-08 09:30:00","65526","1.056","82.4","2.45","83.5","1014.846","17.53","73.99","660.9","0.0"],
    [1519030,"2026-05-08 09:40:00","65527","1.636","91.3","2.7110000000000003","80.6","1014.903","17.39","74.63","865.0","0.0"],
    [1519031,"2026-05-08 09:50:00","65528","1.355","66.28","2.875","98.6","1014.971","17.53","74.37","641.0","0.0"],
    [1519032,"2026-05-08 10:00:00","65529","1.453","51.7","2.5810000000000004","17.94","1015.077","17.38","75.19","539.6","0.0"],
    [1519033,"2026-05-08 10:10:00","65530","2.062","30.35","3.6260000000000003","33.42","1014.935","17.39","75.76","588.2","0.0"],
    [1519034,"2026-05-08 10:20:00","65531","2.293","31.22","3.7569999999999997","46.21","1014.777","17.43","76.42","602.0","0.0"],
    [1519035,"2026-05-08 10:30:00","65532","1.6030000000000002","47.66","3.103","90.1","1014.746","17.57","75.54","457.9","0.0"],
    [1519036,"2026-05-08 10:40:00","65533","2.4930000000000003","101.2","3.397","108.9","1014.656","17.57","73.95","426.6","0.0"],
    [1519037,"2026-05-08 10:50:00","65534","2.623","119.5","3.528","128.4","1014.65","17.58","70.28","426.9","0.0"],
    [1519038,"2026-05-08 11:00:00","65535","1.911","124.7","3.005","121.9","1014.72","17.63","68.68","422.9","0.0"],
    [1519039,"2026-05-08 11:10:00","65536","2.261","110.8","3.136","113.3","1014.662","17.68","66.38","435.2","0.0"],
    [1519040,"2026-05-08 11:20:00","65537","2.2119999999999997","122.1","3.136","136.3","1014.729","17.72","66.48","402.5","0.0"],
    [1519041,"2026-05-08 11:30:00","65538","2.492","129.9","3.7239999999999998","135.3","1014.744","17.72","66.66","427.0","0.0"],
    [1519042,"2026-05-08 11:40:00","65539","2.714","120.2","3.43","110.3","1014.755","17.7","68.67","416.9","0.0"],
    [1519043,"2026-05-08 11:50:00","65540","2.6839999999999997","144.4","3.365","153.4","1014.843","17.65","70.58","636.3","0.0"],
    [1519044,"2026-05-08 12:00:00","65541","2.6239999999999997","145.5","3.463","144.9","1014.837","17.73","70.81","954.0","0.0"],
    [1519045,"2026-05-08 12:10:00","65542","2.719","143.1","3.43","137.4","1014.752","17.74","70.65","1018.0","0.0"],
    [1519046,"2026-05-08 12:20:00","65543","2.229","134.1","3.397","117.7","1014.694","17.8","70.53","974.0","0.0"],
    [1519047,"2026-05-08 12:30:00","65544","2.701","115.7","3.855","121.0","1014.695","17.72","71.01","638.0","0.0"],
    [1519048,"2026-05-08 12:40:00","65545","2.397","108.7","3.593","107.7","1014.721","17.73","72.08","426.2","0.0"],
    [1519049,"2026-05-08 12:50:00","65546","2.476","93.4","3.234","91.3","1014.652","17.62","72.71","256.5","0.0"],
    [1519050,"2026-05-08 13:00:00","65547","2.678","123.7","3.6260000000000003","164.7","1014.737","17.32","75.41","156.0","0.1"],
    [1519051,"2026-05-08 13:10:00","65548","2.079","201.9","3.985","183.6","1014.725","16.73","84.7","189.0","0.1"],
    [1519052,"2026-05-08 13:20:00","65549","0.27","150.9","0.882","239.8","1014.558","16.89","83.1","521.1","0.0"],
    [1519053,"2026-05-08 13:30:00","65550","2.5610000000000004","99.6","4.149","106.1","1014.437","17.35","77.62","726.4","0.0"],
    [1519054,"2026-05-08 13:40:00","65551","3.096","117.0","4.312","129.4","1014.501","17.66","74.84","775.2","0.0"],
    [1519055,"2026-05-08 13:50:00","65552","3.655","115.1","4.737","115.2","1014.494","17.62","74.71","818.0","0.0"],
    [1519056,"2026-05-08 14:00:00","65553","3.3360000000000003","109.6","4.541","132.5","1014.414","17.7","74.63","703.3","0.0"],
    [1519057,"2026-05-08 14:10:00","65554","3.8939999999999997","106.2","5.1610000000000005","110.3","1014.245","17.63","74.23","375.8","0.0"],
    [1519058,"2026-05-08 14:20:00","65555","3.4589999999999996","107.4","4.606","104.1","1014.171","17.62","74.88","383.1","0.0"],
    [1519059,"2026-05-08 14:30:00","65556","3.62","114.0","4.508","123.0","1014.074","17.61","75.18","524.0","0.0"],
    [1519060,"2026-05-08 14:40:00","65557","3.282","107.8","4.769","115.4","1014.001","17.65","74.65","628.1","0.0"],
    [1519061,"2026-05-08 14:50:00","65558","3.3","116.9","4.41","131.8","1014.048","17.64","72.04","413.6","0.0"],
    [1519062,"2026-05-08 15:00:00","65559","3.388","129.1","4.279","140.6","1014.173","17.67","71.29","724.8","0.0"],
    [1519063,"2026-05-08 15:10:00","65560","3.449","136.8","4.541","135.1","1014.218","17.56","73.11","637.4","0.0"],
    [1519064,"2026-05-08 15:20:00","65561","3.388","145.1","4.181","141.6","1014.192","17.59","74.16","622.6","0.0"],
    [1519065,"2026-05-08 15:30:00","65562","3.696","152.4","4.475","147.6","1014.116","17.56","72.39","570.3","0.0"],
    [1519066,"2026-05-08 15:40:00","65563","3.525","155.8","4.2139999999999995","144.7","1014.054","17.58","73.57","553.5","0.0"],
    [1519067,"2026-05-08 15:50:00","65564","4.099","148.3","5.4879999999999995","144.7","1013.932","17.62","72.19","500.7","0.0"],
    [1519068,"2026-05-08 16:00:00","65565","4.03","149.0","5.096","148.9","1013.901","17.67","71.51","448.3","0.0"],
    [1519069,"2026-05-08 16:10:00","65566","3.5589999999999997","151.2","5.651","146.1","1013.808","17.72","72.05","503.1","0.0"],
    [1519070,"2026-05-08 16:20:00","65567","3.964","141.6","5.1610000000000005","153.2","1013.728","17.7","73.8","401.2","0.0"],
    [1519071,"2026-05-08 16:30:00","65568","3.2880000000000003","149.9","5.325","145.1","1013.824","17.72","73.73","461.8","0.0"],
    [1519072,"2026-05-08 16:40:00","65569","3.516","141.8","4.606","143.7","1013.878","17.71","72.03","364.4","0.0"],
    [1519073,"2026-05-08 16:50:00","65570","3.133","155.6","4.149","134.8","1013.926","17.74","71.91","263.3","0.0"],
    [1519074,"2026-05-08 17:00:00","65571","2.9389999999999996","137.5","3.7239999999999998","139.2","1013.975","17.7","73.85","304.6","0.0"],
    [1519075,"2026-05-08 17:10:00","65572","2.475","136.8","3.365","134.6","1013.971","17.74","74.15","268.3","0.0"],
    [1519076,"2026-05-08 17:20:00","65573","2.55","137.3","3.6910000000000003","134.8","1014.016","17.75","72.46","235.8","0.0"],
    [1519077,"2026-05-08 17:30:00","65574","2.424","139.4","3.136","141.0","1014.049","17.73","72.48","176.8","0.0"],
    [1519078,"2026-05-08 17:40:00","65575","1.915","135.0","2.842","145.7","1014.061","17.73","72.57","180.7","0.0"],
    [1519079,"2026-05-08 17:50:00","65576","1.72","138.3","2.842","141.2","1014.011","17.67","71.98","133.1","0.0"],
    [1519080,"2026-05-08 18:00:00","65577","1.324","147.9","2.0909999999999997","143.0","1013.971","17.74","71.29","112.2","0.0"],
    [1519081,"2026-05-08 18:10:00","65578","0.996","122.1","1.797","100.1","1013.999","17.78","71.32","67.08","0.0"],
    [1519082,"2026-05-08 18:20:00","65579","0.9790000000000001","116.2","1.633","127.2","1014.061","17.72","71.33","65.8","0.0"],
    [1519083,"2026-05-08 18:30:00","65580","0.5579999999999999","132.6","1.405","101.0","1014.259","17.67","72.84","0.14","0.0"],
    [1519084,"2026-05-08 18:40:00","65581","0.845","121.6","1.339","164.1","1014.414","17.63","73.48","0.0","0.0"],
    [1519085,"2026-05-08 18:50:00","65582","1.443","99.6","2.0909999999999997","92.2","1014.455","17.56","73.52","0.0","0.0"],
    [1519086,"2026-05-08 19:00:00","65583","1.8769999999999998","99.1","2.319","100.2","1014.508","17.52","73.97","0.0","0.0"],
    [1519087,"2026-05-08 19:10:00","65584","1.9809999999999999","103.7","2.483","86.1","1014.587","17.53","74.35","0.0","0.0"],
    [1519088,"2026-05-08 19:20:00","65585","2.158","107.7","2.8089999999999997","105.7","1014.671","17.52","75.43","0.0","0.0"],
    [1519089,"2026-05-08 19:30:00","65586","2.366","93.9","3.103","91.4","1014.798","17.5","76.11","0.0","0.0"],
    [1519090,"2026-05-08 19:40:00","65587","2.592","93.2","3.5610000000000004","82.9","1014.815","17.52","76.14","0.0","0.0"],
    [1519091,"2026-05-08 19:50:00","65588","2.478","89.6","3.365","84.3","1014.829","17.53","76.67","0.0","0.0"],
    [1519092,"2026-05-08 20:00:00","65589","2.552","88.6","3.6910000000000003","85.0","1014.943","17.56","77.12","0.0","0.0"],
    [1519093,"2026-05-08 20:10:00","65590","2.878","89.9","4.051","83.2","1015.017","17.56","77.66","0.0","0.0"],
    [1519094,"2026-05-08 20:20:00","65591","2.735","100.3","3.6260000000000003","103.7","1015.166","17.59","78.45","0.0","0.0"],
    [1519095,"2026-05-08 20:30:00","65592","2.4730000000000003","105.7","3.887","101.4","1015.267","17.55","79.19","0.0","0.0"],
    [1519096,"2026-05-08 20:40:00","65593","2.783","107.6","3.9530000000000003","100.9","1015.341","17.51","78.92","0.0","0.0"],
    [1519097,"2026-05-08 20:50:00","65594","2.276","104.4","3.071","103.7","1015.411","17.53","78.95","0.0","0.0"],
    [1519098,"2026-05-08 21:00:00","65595","2.18","98.6","3.005","115.3","1015.492","17.5","78.42","0.0","0.0"],
    [1519099,"2026-05-08 21:10:00","65596","2.33","89.3","3.397","97.6","1015.505","17.55","78.7","0.0","0.0"],
    [1519100,"2026-05-08 21:20:00","65597","2.555","90.6","3.495","80.3","1015.565","17.56","79.34","0.0","0.0"],
    [1519101,"2026-05-08 21:30:00","65598","2.832","94.8","3.92","95.8","1015.514","17.52","79.57","0.0","0.0"],
    [1519102,"2026-05-08 21:40:00","65599","2.855","93.7","4.051","104.2","1015.407","17.56","79.33","0.0","0.0"],
    [1519103,"2026-05-08 21:50:00","65600","2.792","86.0","3.659","90.5","1015.345","17.57","79.34","0.0","0.0"],
    [1519104,"2026-05-08 22:00:00","65601","2.59","84.0","3.7889999999999997","96.5","1015.403","17.58","79.46","0.0","0.0"],
    [1519105,"2026-05-08 22:10:00","65602","2.719","95.7","3.5610000000000004","103.8","1015.422","17.61","80.1","0.0","0.0"],
    [1519106,"2026-05-08 22:20:00","65603","3.248","97.7","4.345","108.4","1015.416","17.59","80.2","0.0","0.0"],
    [1519107,"2026-05-08 22:30:00","65604","3.1860000000000004","101.9","4.149","93.2","1015.401","17.62","78.43","0.0","0.0"],
    [1519108,"2026-05-08 22:40:00","65605","3.39","102.7","4.345","99.6","1015.354","17.65","77.98","0.0","0.0"],
    [1519109,"2026-05-08 22:50:00","65606","3.02","111.1","3.887","120.2","1015.285","17.67","76.48","0.0","0.0"],
    [1519110,"2026-05-08 23:00:00","65607","3.1519999999999997","104.0","4.2139999999999995","103.9","1015.241","17.68","76.54","0.0","0.0"],
    [1519111,"2026-05-08 23:10:00","65608","2.461","102.7","3.495","96.5","1015.183","17.67","76.8","0.0","0.0"],
    [1519112,"2026-05-08 23:20:00","65609","2.782","84.4","3.659","82.8","1015.194","17.66","77.56","0.0","0.0"],
    [1519113,"2026-05-08 23:30:00","65610","2.668","79.78","3.7239999999999998","81.0","1015.178","17.64","76.75","0.0","0.0"],
    [1519114,"2026-05-08 23:40:00","65611","2.217","80.9","2.907","79.67","1015.162","17.67","77.28","0.0","0.0"],
    [1519115,"2026-05-08 23:50:00","65612","2.478","74.49","3.1689999999999996","74.42","1015.122","17.65","78.19","0.0","0.0"],
    [1519116,"2026-05-09 00:00:00","65613","2.895","79.23","3.92","86.6","1015.003","17.63","79.69","0.0","0.0"],
    [1519117,"2026-05-09 00:10:00","65614","3.281","89.2","4.4430000000000005","92.5","1014.917","17.6","80.9","0.0","0.0"],
    [1519118,"2026-05-09 00:20:00","65615","3.175","84.0","4.965","94.2","1014.933","17.52","81.9","0.0","0.0"],
    [1519119,"2026-05-09 00:30:00","65616","3.214","80.3","4.541","81.5","1014.942","17.42","83.5","0.0","0.1"],
    [1519120,"2026-05-09 00:40:00","65617","2.884","88.2","4.312","92.7","1014.899","17.54","81.9","0.0","0.0"],
    [1519121,"2026-05-09 00:50:00","65618","2.924","86.8","4.573","89.8","1014.861","17.6","81.3","0.0","0.0"],
    [1519122,"2026-05-09 01:00:00","65619","3.5439999999999996","114.0","5.096","124.1","1014.741","17.63","81.3","0.0","0.0"],
    [1519123,"2026-05-09 01:10:00","65620","3.345","119.6","4.671","110.4","1014.6","17.62","80.2","0.0","0.0"],
    [1519124,"2026-05-09 01:20:00","65621","3.773","116.0","4.704","114.5","1014.645","17.68","79.53","0.0","0.0"],
    [1519125,"2026-05-09 01:30:00","65622","3.409","109.8","4.737","107.2","1014.562","17.66","79.37","0.0","0.0"],
    [1519126,"2026-05-09 01:40:00","65623","3.1","98.1","4.018","117.3","1014.343","17.64","80.2","0.0","0.0"],
    [1519127,"2026-05-09 01:50:00","65624","2.965","82.5","4.279","79.95","1014.199","17.59","80.6","0.0","0.0"],
    [1519128,"2026-05-09 02:00:00","65625","2.853","77.6","3.6910000000000003","68.29","1014.182","17.58","81.1","0.0","0.0"],
    [1519129,"2026-05-09 02:10:00","65626","3.1439999999999997","78.52","3.887","76.92","1014.018","17.54","79.82","0.0","0.0"],
    [1519130,"2026-05-09 02:20:00","65627","2.508","83.1","3.6910000000000003","79.34","1014.02","17.59","79.88","0.0","0.0"],
    [1519131,"2026-05-09 02:30:00","65628","2.8789999999999996","56.64","4.018","50.82","1013.882","17.56","80.1","0.0","0.0"],
    [1519132,"2026-05-09 02:40:00","65629","3.1430000000000002","44.24","4.1160000000000005","53.96","1013.804","17.51","81.0","0.0","0.0"],
    [1519133,"2026-05-09 02:50:00","65630","2.863","24.9","3.659","28.94","1013.807","17.22","83.3","0.0","0.0"],
    [1519134,"2026-05-09 03:00:00","65631","2.715","30.65","3.43","18.57","1013.875","17.15","83.5","0.0","0.0"],
    [1519135,"2026-05-09 03:10:00","65632","2.602","74.61","3.6910000000000003","97.8","1013.896","17.32","82.7","0.0","0.0"],
    [1519136,"2026-05-09 03:20:00","65633","3.105","85.3","3.9530000000000003","89.8","1013.831","17.54","81.9","0.0","0.0"],
    [1519137,"2026-05-09 03:30:00","65634","2.494","64.86","3.659","96.3","1013.804","17.52","82.1","0.0","0.0"],
    [1519138,"2026-05-09 03:40:00","65635","2.511","46.06","3.365","47.63","1013.69","17.13","82.8","0.0","0.0"],
    [1519139,"2026-05-09 03:50:00","65636","3.0669999999999997","84.9","4.508","98.1","1013.66","17.31","83.2","0.0","0.0"],
    [1519140,"2026-05-09 04:00:00","65637","3.8489999999999998","100.6","5.063","97.6","1013.647","17.49","81.4","0.0","0.0"],
    [1519141,"2026-05-09 04:10:00","65638","3.5410000000000004","97.4","4.508","107.1","1013.672","17.52","81.0","0.0","0.0"],
    [1519142,"2026-05-09 04:20:00","65639","3.575","88.2","4.737","91.0","1013.588","17.51","81.1","0.0","0.0"],
    [1519143,"2026-05-09 04:30:00","65640","3.7110000000000003","99.8","4.671","99.1","1013.665","17.51","81.3","0.0","0.0"],
    [1519144,"2026-05-09 04:40:00","65641","3.4389999999999996","91.4","4.867","95.8","1013.545","17.52","81.9","0.0","0.0"],
    [1519145,"2026-05-09 04:50:00","65642","3.6439999999999997","86.9","4.9","95.8","1013.606","17.51","81.9","0.0","0.0"],
    [1519146,"2026-05-09 05:00:00","65643","3.7960000000000003","82.8","4.9","82.1","1013.439","17.5","81.7","0.0","0.0"],
    [1519147,"2026-05-09 05:10:00","65644","4.223","71.38","5.1610000000000005","67.1","1013.37","17.49","82.1","0.0","0.0"],
    [1519148,"2026-05-09 05:20:00","65645","3.98","67.66","5.4879999999999995","69.58","1013.334","17.51","81.2","2.88","0.0"],
    [1519149,"2026-05-09 05:30:00","65646","4.165","50.23","5.4879999999999995","53.06","1013.265","17.56","82.8","32.6","0.0"],
    [1519150,"2026-05-09 05:40:00","65647","4.3919999999999995","42.62","5.521","36.01","1013.318","17.48","83.1","19.13","0.0"],
    [1519151,"2026-05-09 05:50:00","65648","4.8839999999999995","35.56","6.109","41.62","1013.382","17.45","83.6","13.45","0.0"],
    [1519152,"2026-05-09 06:00:00","65649","5.1979999999999995","31.65","6.272","25.21","1013.416","17.24","84.6","0.0","0.0"],
    [1519153,"2026-05-09 06:10:00","65650","4.728","31.63","7.154","35.93","1013.415","17.21","85.1","12.53","0.0"],
    [1519154,"2026-05-09 06:20:00","65651","2.8569999999999998","37.24","5.978","37.6","1013.415","17.32","82.9","77.9","0.0"],
    [1519155,"2026-05-09 06:30:00","65652","3.693","39.88","5.945","38.2","1013.495","17.38","83.6","133.9","0.0"],
    [1519156,"2026-05-09 06:40:00","65653","2.6660000000000004","77.67","5.619","87.9","1013.508","17.52","80.1","178.4","0.0"],
    [1519157,"2026-05-09 06:50:00","65654","3.0660000000000003","83.0","5.847","92.3","1013.457","17.64","78.95","204.8","0.0"],
    [1519158,"2026-05-09 07:00:00","65655","2.508","68.34","5.945","64.75","1013.431","17.68","78.81","236.8","0.0"],
    [1519159,"2026-05-09 07:10:00","65656","2.4419999999999997","54.76","5.063","48.29","1013.387","17.74","77.09","279.5","0.0"],
    [1519160,"2026-05-09 07:20:00","65657","3.2","49.75","5.619","43.35","1013.228","17.78","77.03","265.4","0.0"],
    [1519161,"2026-05-09 07:30:00","65658","4.041","42.23","6.9910000000000005","31.63","1013.058","17.71","77.22","204.7","0.0"],
    [1519162,"2026-05-09 07:40:00","65659","3.279","52.04","6.305","54.69","1013.011","17.7","77.5","269.2","0.0"],
    [1519163,"2026-05-09 07:50:00","65660","3.616","77.94","7.546","90.7","1012.962","17.72","77.98","324.2","0.0"],
    [1519164,"2026-05-09 08:00:00","65661","4.425","78.58","7.481","84.0","1012.839","17.68","79.7","229.0","0.0"],
    [1519165,"2026-05-09 08:10:00","65662","3.95","57.25","8.62","46.64","1012.705","17.69","81.0","366.3","0.0"],
    [1519166,"2026-05-09 08:20:00","65663","3.908","73.87","7.285","86.3","1012.795","17.68","80.6","345.1","0.0"],
    [1519167,"2026-05-09 08:30:00","65664","4.705","46.81","9.54","42.39","1012.679","17.64","80.2","332.8","0.0"],
    [1519168,"2026-05-09 08:40:00","65665","6.542000000000001","40.91","8.95","39.36","1012.691","17.62","82.5","343.9","0.0"],
    [1519169,"2026-05-09 08:50:00","65666","6.711","41.6","8.66","41.08","1012.852","17.41","84.2","442.0","0.0"],
    [1519170,"2026-05-09 09:00:00","65667","6.631","45.64","8.2","48.11","1012.933","17.43","83.6","547.4","0.0"],
    [1519171,"2026-05-09 09:10:00","65668","6.954","47.25","8.89","41.22","1013.05","17.48","82.8","493.2","0.0"],
    [1519172,"2026-05-09 09:20:00","65669","6.593999999999999","46.57","8.0","52.65","1013.203","17.44","82.4","428.9","0.0"],
    [1519173,"2026-05-09 09:30:00","65670","6.73","44.73","9.24","42.65","1013.178","17.5","81.4","401.2","0.0"],
    [1519174,"2026-05-09 09:40:00","65671","6.349","44.18","8.04","38.38","1013.332","17.56","81.8","339.6","0.0"],
    [1519175,"2026-05-09 09:50:00","65672","6.496","45.79","8.26","41.51","1013.627","17.58","81.5","335.5","0.0"],
    [1519176,"2026-05-09 10:00:00","65673","6.395","46.07","8.07","47.13","1013.675","17.59","81.1","335.5","0.0"],
    [1519177,"2026-05-09 10:10:00","65674","5.474","41.43","7.415","33.85","1013.836","17.68","82.0","316.8","0.0"],
    [1519178,"2026-05-09 10:20:00","65675","3.989","71.47","7.84","92.7","1014.062","17.81","79.37","344.1","0.0"],
    [1519179,"2026-05-09 10:30:00","65676","4.306","67.25","6.9910000000000005","93.9","1013.957","17.83","78.41","429.1","0.0"],
    [1519180,"2026-05-09 10:40:00","65677","4.851","39.22","8.59","37.84","1013.753","17.85","77.6","320.6","0.0"],
    [1519181,"2026-05-09 10:50:00","65678","5.435","41.37","7.644","51.11","1013.56","17.81","78.6","236.1","0.0"],
    [1519182,"2026-05-09 11:00:00","65679","5.562","39.01","9.02","41.63","1013.563","17.75","79.31","178.8","0.0"],
    [1519183,"2026-05-09 11:10:00","65680","5.829","35.8","10.26","56.09","1013.786","17.74","79.29","187.4","0.0"],
    [1519184,"2026-05-09 11:20:00","65681","4.928999999999999","48.26","9.18","48.09","1013.914","17.32","81.6","85.6","0.0"],
    [1519185,"2026-05-09 11:30:00","65682","6.07","31.47","7.481","23.37","1013.68","17.01","81.4","113.4","0.0"],
    [1519186,"2026-05-09 11:40:00","65683","5.665","33.3","7.611000000000001","52.45","1013.502","17.29","81.6","179.9","0.0"],
    [1519187,"2026-05-09 11:50:00","65684","6.393","43.31","8.04","40.13","1013.207","17.62","80.1","192.6","0.0"],
    [1519188,"2026-05-09 12:00:00","65685","6.812","41.89","8.59","41.47","1012.648","17.65","79.24","136.4","0.0"],
    [1519189,"2026-05-09 12:10:00","65686","7.81","40.83","9.57","38.72","1012.225","17.65","79.59","126.7","0.0"],
    [1519190,"2026-05-09 12:20:00","65687","7.7010000000000005","41.37","10.03","39.61","1011.885","17.59","79.58","100.9","0.0"],
    [1519191,"2026-05-09 12:30:00","65688","8.32","45.57","10.78","49.39","1011.478","17.58","78.8","114.7","0.0"],
    [1519192,"2026-05-09 12:40:00","65689","9.13","41.97","11.89","43.48","1011.012","17.59","79.73","76.67","0.0"],
    [1519193,"2026-05-09 12:50:00","65690","9.95","41.24","12.35","45.14","1010.741","17.61","79.21","67.1","0.0"],
    [1519194,"2026-05-09 13:00:00","65691","7.63","37.12","11.47","41.44","1011.448","17.64","79.92","59.47","0.0"],
    [1519195,"2026-05-09 13:10:00","65692","5.7620000000000005","40.56","7.971","42.86","1012.407","17.58","80.3","33.13","0.0"],
    [1519196,"2026-05-09 13:20:00","65693","4.502","41.57","6.501","42.56","1012.827","17.61","80.8","25.5","0.3"],
    [1519197,"2026-05-09 13:30:00","65694","3.158","45.8","5.586","46.69","1013.153","17.07","82.5","33.22","0.8"],
    [1519198,"2026-05-09 13:40:00","65695","2.1830000000000003","64.89","4.475","32.9","1013.22","16.77","85.4","25.53","0.8"],
    [1519199,"2026-05-09 13:50:00","65696","3.3139999999999996","71.06","7.252000000000001","91.1","1012.974","16.4","85.6","0.168","0.8"],
    [1519200,"2026-05-09 14:00:00","65697","4.32","65.04","9.9","93.7","1012.545","16.68","86.3","0.0","0.6"],
    [1519201,"2026-05-09 14:10:00","65698","5.571000000000001","65.83","10.32","28.45","1011.974","16.91","84.7","0.0","0.2"],
    [1519202,"2026-05-09 14:20:00","65699","9.58","41.44","14.14","41.35","1010.816","16.77","86.0","0.0","0.9"],
    [1519203,"2026-05-09 14:30:00","65700","12.93","47.55","15.35","49.67","1009.623","16.47","84.8","35.79","0.8"],
    [1519204,"2026-05-09 14:40:00","65701","11.19","45.61","14.73","42.46","1009.331","16.4","83.8","56.82","0.3"],
    [1519205,"2026-05-09 14:50:00","65702","10.61","35.57","14.31","50.23","1009.026","16.53","84.7","51.23","0.1"],
    [1519206,"2026-05-09 15:00:00","65703","8.81","39.06","13.23","29.55","1009.978","16.52","84.7","44.27","0.2"],
    [1519207,"2026-05-09 15:10:00","65704","4.606","45.03","11.37","48.52","1012.006","16.74","82.7","49.92","0.1"],
    [1519208,"2026-05-09 15:20:00","65705","4.271","91.9","6.599","87.0","1012.71","16.8","79.61","56.97","0.4"],
    [1519209,"2026-05-09 15:30:00","65706","2.786","90.4","5.063","85.8","1013.068","16.43","75.39","14.01","0.4"],
    [1519210,"2026-05-09 15:40:00","65707","4.473","93.0","6.468","85.6","1013.26","16.3","78.62","0.0","0.7"],
    [1519211,"2026-05-09 15:50:00","65708","2.8","83.9","4.083","92.3","1013.219","15.84","79.95","0.0","0.7"],
    [1519212,"2026-05-09 16:00:00","65709","3.077","84.1","4.41","81.1","1013.015","15.54","81.5","0.0","0.7"],
    [1519213,"2026-05-09 16:10:00","65710","3.5660000000000003","61.28","5.422999999999999","54.77","1012.604","15.2","85.4","0.0","1.2"],
    [1519214,"2026-05-09 16:20:00","65711","4.396","42.74","5.586","40.48","1012.236","14.89","85.3","0.0","0.9"],
    [1519215,"2026-05-09 16:30:00","65712","5.3629999999999995","40.3","7.872999999999999","45.5","1011.769","14.94","87.0","0.0","0.6"],
    [1519216,"2026-05-09 16:40:00","65713","6.287999999999999","33.93","9.73","31.19","1011.189","14.9","85.2","0.0","0.2"],
    [1519217,"2026-05-09 16:50:00","65714","8.49","25.25","10.32","30.14","1010.369","15.12","85.8","0.0","0.1"],
    [1519218,"2026-05-09 17:00:00","65715","7.082000000000001","27.37","10.26","28.91","1010.54","15.06","86.0","0.0","0.1"],
    [1519219,"2026-05-09 17:10:00","65716","6.931","20.17","9.05","22.04","1010.254","15.13","87.2","0.0","0.0"],
    [1519220,"2026-05-09 17:20:00","65717","5.386","13.01","7.579","26.96","1010.489","15.31","88.3","0.0","0.0"],
    [1519221,"2026-05-09 17:30:00","65718","4.209","7.028","6.631","359.6","1010.608","15.27","87.1","0.0","0.0"],
    [1519222,"2026-05-09 17:40:00","65719","2.802","14.29","4.41","8.59","1010.689","15.22","86.9","0.0","0.0"],
    [1519223,"2026-05-09 17:50:00","65720","4.3839999999999995","29.22","5.945","31.29","1010.5","15.32","85.8","0.0","0.0"],
    [1519224,"2026-05-09 18:00:00","65721","3.533","5.909","4.802","4.6819999999999995","1010.554","15.46","85.1","0.0","0.0"],
    [1519225,"2026-05-09 18:10:00","65722","2.191","349.3","3.495","327.4","1010.717","15.49","85.1","0.0","0.0"],
    [1519226,"2026-05-09 18:20:00","65723","2.089","4.632","2.8089999999999997","8.23","1010.888","15.56","84.3","0.055999999999999994","0.0"],
    [1519227,"2026-05-09 18:30:00","65724","1.758","1.962","2.7110000000000003","18.25","1010.95","15.71","83.2","0.0","0.0"],
    [1519228,"2026-05-09 18:40:00","65725","0.6629999999999999","9.43","1.307","26.46","1011.082","15.73","83.1","0.0","0.0"],
    [1519229,"2026-05-09 18:50:00","65726","0.314","344.2","1.078","295.4","1011.276","15.72","83.3","0.0","0.0"],
    [1519230,"2026-05-09 19:00:00","65727","0.903","256.5","1.4369999999999998","271.8","1011.565","15.77","83.9","0.0","0.0"],
    [1519231,"2026-05-09 19:10:00","65728","0.614","230.8","1.274","221.2","1011.716","15.73","83.9","0.0","0.0"],
    [1519232,"2026-05-09 19:20:00","65729","0.115","251.5","0.8170000000000001","246.2","1011.809","15.81","84.4","0.0","0.0"],
    [1519233,"2026-05-09 19:30:00","65730","1.216","300.2","2.221","307.1","1011.939","15.76","84.3","0.0","0.0"],
    [1519234,"2026-05-09 19:40:00","65731","1.631","293.3","2.417","285.9","1011.992","15.79","84.5","0.0","0.0"],
    [1519235,"2026-05-09 19:50:00","65732","1.6469999999999998","283.8","2.319","286.2","1012.131","15.68","85.5","0.0","0.0"],
    [1519236,"2026-05-09 20:00:00","65733","1.689","285.3","2.45","287.9","1012.298","15.66","85.6","0.0","0.0"],
    [1519237,"2026-05-09 20:10:00","65734","1.693","279.8","2.319","284.1","1012.454","15.66","85.3","0.0","0.0"],
    [1519238,"2026-05-09 20:20:00","65735","1.4769999999999999","260.6","2.6460000000000004","266.9","1012.584","15.65","86.3","0.0","0.0"],
    [1519239,"2026-05-09 20:30:00","65736","1.705","262.7","2.7769999999999997","256.8","1012.847","15.61","87.0","0.0","0.0"],
    [1519240,"2026-05-09 20:40:00","65737","1.364","261.4","2.287","263.5","1013.038","15.63","87.0","0.0","0.0"],
    [1519241,"2026-05-09 20:50:00","65738","0.8640000000000001","250.7","1.5030000000000001","237.1","1013.11","15.66","87.0","0.0","0.0"],
    [1519242,"2026-05-09 21:00:00","65739","1.245","236.4","2.156","235.5","1013.279","15.63","87.4","0.0","0.0"],
    [1519243,"2026-05-09 21:10:00","65740","1.3130000000000002","239.3","2.254","210.2","1013.247","15.57","87.7","0.0","0.0"],
    [1519244,"2026-05-09 21:20:00","65741","1.5030000000000001","253.5","2.352","244.2","1013.215","15.53","88.5","0.0","0.0"],
    [1519245,"2026-05-09 21:30:00","65742","1.2690000000000001","252.5","1.8619999999999999","260.5","1013.258","15.48","89.0","0.0","0.0"],
    [1519246,"2026-05-09 21:40:00","65743","1.34","251.2","2.123","268.9","1013.336","15.43","89.2","0.0","0.0"],
    [1519247,"2026-05-09 21:50:00","65744","0.9390000000000001","239.5","1.7309999999999999","260.8","1013.412","15.46","89.4","0.0","0.0"],
    [1519248,"2026-05-09 22:00:00","65745","1.006","249.5","2.156","269.5","1013.435","15.4","89.8","0.0","0.0"],
    [1519249,"2026-05-09 22:10:00","65746","1.208","259.3","1.895","281.6","1013.408","15.33","90.1","0.0","0.0"],
    [1519250,"2026-05-09 22:20:00","65747","1.136","248.2","2.0909999999999997","271.0","1013.341","15.27","89.9","0.0","0.0"],
    [1519251,"2026-05-09 22:30:00","65748","0.925","255.5","2.123","262.5","1013.313","15.26","89.5","0.0","0.0"],
    [1519252,"2026-05-09 22:40:00","65749","1.421","283.3","2.123","300.3","1013.256","15.29","88.7","0.0","0.0"],
    [1519253,"2026-05-09 22:50:00","65750","1.099","255.7","1.9269999999999998","261.7","1013.318","15.34","88.0","0.0","0.0"],
    [1519254,"2026-05-09 23:00:00","65751","1.1520000000000001","248.4","1.96","235.6","1013.415","15.24","88.3","0.0","0.0"],
    [1519255,"2026-05-09 23:10:00","65752","1.796","242.0","2.7769999999999997","249.0","1013.469","15.22","88.1","0.0","0.0"],
    [1519256,"2026-05-09 23:20:00","65753","1.496","250.9","3.43","279.0","1013.457","15.03","89.4","0.0","0.0"],
    [1519257,"2026-05-09 23:30:00","65754","1.989","257.5","3.495","255.7","1013.359","14.83","90.4","0.0","0.0"],
    [1519258,"2026-05-09 23:40:00","65755","2.2569999999999997","264.9","3.463","243.5","1013.324","14.76","90.4","0.0","0.0"],
    [1519259,"2026-05-09 23:50:00","65756","1.8869999999999998","262.3","2.94","256.3","1013.237","14.83","89.5","0.0","0.0"],
    [1519260,"2026-05-10 00:00:00","65757","1.831","270.3","2.5810000000000004","272.8","1013.183","14.81","89.0","0.0","0.0"],
    [1519261,"2026-05-10 00:10:00","65758","1.4409999999999998","289.2","2.221","283.0","1012.976","14.97","87.2","0.0","0.0"],
    [1519262,"2026-05-10 00:20:00","65759","1.5630000000000002","286.0","2.156","291.9","1012.766","15.16","84.9","0.0","0.0"],
    [1519263,"2026-05-10 00:30:00","65760","1.649","280.2","2.189","279.9","1012.731","15.19","83.5","0.0","0.0"],
    [1519264,"2026-05-10 00:40:00","65761","1.2690000000000001","286.3","1.7309999999999999","274.0","1012.602","15.27","82.8","0.0","0.0"],
    [1519265,"2026-05-10 00:50:00","65762","1.244","290.6","1.7309999999999999","311.3","1012.443","15.34","82.1","0.0","0.0"],
    [1519266,"2026-05-10 01:00:00","65763","0.938","282.2","1.829","305.9","1012.363","15.4","81.6","0.0","0.0"],
    [1519267,"2026-05-10 01:10:00","65764","1.3019999999999998","265.1","1.8619999999999999","268.1","1012.36","15.37","81.2","0.0","0.0"],
    [1519268,"2026-05-10 01:20:00","65765","1.431","254.3","2.0909999999999997","255.5","1012.356","15.26","82.3","0.0","0.0"],
    [1519269,"2026-05-10 01:30:00","65766","1.376","244.2","2.0580000000000003","251.6","1012.332","15.16","82.3","0.0","0.0"],
    [1519270,"2026-05-10 01:40:00","65767","2.271","254.2","3.1689999999999996","256.7","1012.344","15.09","81.3","0.0","0.0"],
    [1519271,"2026-05-10 01:50:00","65768","1.844","249.0","2.9730000000000003","258.2","1012.429","14.83","83.2","0.0","0.0"],
    [1519272,"2026-05-10 02:00:00","65769","2.167","243.1","3.495","251.7","1012.494","14.73","83.0","0.0","0.0"],
    [1519273,"2026-05-10 02:10:00","65770","2.238","239.9","3.5610000000000004","253.0","1012.625","14.53","83.8","0.0","0.0"],
    [1519274,"2026-05-10 02:20:00","65771","1.9869999999999999","256.4","3.267","245.5","1012.689","14.08","86.5","0.0","0.0"],
    [1519275,"2026-05-10 02:30:00","65772","1.734","260.2","2.548","266.7","1012.632","13.87","87.8","0.0","0.0"],
    [1519276,"2026-05-10 02:40:00","65773","1.6019999999999999","249.5","2.679","258.9","1012.558","13.9","87.1","0.0","0.0"],
    [1519277,"2026-05-10 02:50:00","65774","1.2690000000000001","252.8","2.319","259.9","1012.453","13.94","86.6","0.0","0.0"],
    [1519278,"2026-05-10 03:00:00","65775","1.287","257.1","1.9269999999999998","274.9","1012.335","13.92","86.6","0.0","0.0"],
    [1519279,"2026-05-10 03:10:00","65776","1.36","254.3","1.96","257.6","1012.287","13.95","86.4","0.0","0.0"],
    [1519280,"2026-05-10 03:20:00","65777","1.8","259.1","2.7110000000000003","266.6","1012.257","13.94","85.8","0.0","0.0"],
    [1519281,"2026-05-10 03:30:00","65778","1.9180000000000001","265.1","2.5810000000000004","273.7","1012.191","13.97","85.4","0.0","0.0"],
    [1519282,"2026-05-10 03:40:00","65779","2.256","261.5","3.593","263.3","1012.209","13.94","85.7","0.0","0.0"],
    [1519283,"2026-05-10 03:50:00","65780","1.3869999999999998","259.2","2.548","252.0","1012.262","13.8","86.8","0.0","0.0"],
    [1519284,"2026-05-10 04:00:00","65781","1.615","258.2","3.1689999999999996","255.6","1012.217","13.89","85.5","0.0","0.0"],
    [1519285,"2026-05-10 04:10:00","65782","1.4180000000000001","248.5","2.5810000000000004","261.0","1012.262","13.82","85.2","0.0","0.0"],
    [1519286,"2026-05-10 04:20:00","65783","1.599","252.0","3.005","268.1","1012.334","13.83","84.6","0.0","0.0"],
    [1519287,"2026-05-10 04:30:00","65784","2.175","275.0","2.9730000000000003","276.7","1012.338","13.77","84.7","0.0","0.0"],
    [1519288,"2026-05-10 04:40:00","65785","1.496","250.6","2.189","261.5","1012.295","13.82","84.1","0.0","0.0"],
    [1519289,"2026-05-10 04:50:00","65786","1.2919999999999998","247.8","2.0580000000000003","257.4","1012.249","13.88","83.2","0.0","0.0"],
    [1519290,"2026-05-10 05:00:00","65787","1.29","260.5","2.156","273.5","1012.196","13.68","84.3","8.7","0.0"],
    [1519291,"2026-05-10 05:10:00","65788","1.0959999999999999","244.3","2.352","257.3","1012.14","13.65","84.9","38.61","0.0"],
    [1519292,"2026-05-10 05:20:00","65789","1.296","250.4","2.025","239.4","1012.083","13.75","84.4","67.14","0.0"],
    [1519293,"2026-05-10 05:30:00","65790","1.63","242.9","2.483","201.6","1012.115","13.84","84.6","80.4","0.0"],
    [1519294,"2026-05-10 05:40:00","65791","1.963","258.1","3.201","261.1","1012.187","14.12","83.1","128.1","0.0"],
    [1519295,"2026-05-10 05:50:00","65792","1.45","263.3","2.548","263.9","1012.155","14.49","81.9","136.1","0.0"],
    [1519296,"2026-05-10 06:00:00","65793","1.527","260.3","2.7110000000000003","279.7","1012.161","14.73","81.2","187.9","0.0"],
    [1519297,"2026-05-10 06:10:00","65794","1.4569999999999999","263.2","3.136","265.5","1012.206","14.87","81.0","201.3","0.0"],
    [1519298,"2026-05-10 06:20:00","65795","1.7080000000000002","267.8","3.495","266.0","1012.257","15.22","80.7","251.8","0.0"],
    [1519299,"2026-05-10 06:30:00","65796","1.685","265.1","2.7110000000000003","268.9","1012.309","15.47","79.73","268.4","0.0"],
    [1519300,"2026-05-10 06:40:00","65797","2.002","264.7","3.985","259.0","1012.316","15.65","79.72","322.2","0.0"],
    [1519301,"2026-05-10 06:50:00","65798","2.386","260.9","4.573","263.3","1012.336","15.72","80.4","336.2","0.0"],
    [1519302,"2026-05-10 07:00:00","65799","1.923","254.5","3.9530000000000003","279.4","1012.431","15.93","80.2","391.5","0.0"],
    [1519303,"2026-05-10 07:10:00","65800","1.636","263.7","2.9730000000000003","300.9","1012.453","16.27","79.15","402.6","0.0"],
    [1519304,"2026-05-10 07:20:00","65801","2.069","260.4","3.822","275.5","1012.478","16.6","78.03","425.4","0.0"],
    [1519305,"2026-05-10 07:30:00","65802","1.989","247.4","4.312","219.9","1012.496","16.87","77.17","438.7","0.0"],
    [1519306,"2026-05-10 07:40:00","65803","2.362","238.2","4.4430000000000005","242.2","1012.511","16.94","76.38","487.4","0.0"],
    [1519307,"2026-05-10 07:50:00","65804","2.234","237.1","4.312","252.1","1012.574","17.23","75.98","522.8","0.0"],
    [1519308,"2026-05-10 08:00:00","65805","1.66","246.2","4.018","257.8","1012.644","17.55","75.68","319.5","0.0"],
    [1519309,"2026-05-10 08:10:00","65806","3.71","228.9","8.07","211.4","1012.659","17.76","75.78","375.4","0.0"],
    [1519310,"2026-05-10 08:20:00","65807","4.607","225.3","7.382999999999999","216.0","1012.645","17.95","74.9","651.5","0.0"],
    [1519311,"2026-05-10 08:30:00","65808","5.327999999999999","225.3","9.47","220.7","1012.684","18.03","74.03","604.0","0.0"],
    [1519312,"2026-05-10 08:40:00","65809","5.9110000000000005","219.2","10.22","220.2","1012.686","18.01","73.99","686.6","0.0"],
    [1519313,"2026-05-10 08:50:00","65810","6.061","217.3","9.9","215.9","1012.649","18.25","72.48","703.5","0.0"],
    [1519314,"2026-05-10 09:00:00","65811","4.6739999999999995","221.6","8.98","218.2","1012.635","18.5","72.65","705.7","0.0"],
    [1519315,"2026-05-10 09:10:00","65812","5.224","224.0","10.16","222.4","1012.622","18.62","72.11","748.3","0.0"],
    [1519316,"2026-05-10 09:20:00","65813","5.825","225.6","10.09","215.8","1012.697","18.73","71.63","771.4","0.0"],
    [1519317,"2026-05-10 09:30:00","65814","6.011","219.7","10.09","222.9","1012.703","18.68","73.25","771.6","0.0"],
    [1519318,"2026-05-10 09:40:00","65815","5.252000000000001","220.8","10.29","228.2","1012.708","18.91","71.78","820.0","0.0"],
    [1519319,"2026-05-10 09:50:00","65816","5.402","213.1","8.3","217.6","1012.669","19.05","70.18","838.0","0.0"],
    [1519320,"2026-05-10 10:00:00","65817","4.628","216.0","7.644","223.2","1012.624","19.29","71.2","839.0","0.0"],
    [1519321,"2026-05-10 10:10:00","65818","6.019","214.1","9.96","205.9","1012.597","19.24","70.82","894.0","0.0"],
    [1519322,"2026-05-10 10:20:00","65819","7.626","220.5","11.43","219.3","1012.621","18.92","71.49","877.0","0.0"],
    [1519323,"2026-05-10 10:30:00","65820","6.362","222.2","9.8","220.6","1012.569","19.09","70.06","897.0","0.0"],
    [1519324,"2026-05-10 10:40:00","65821","6.334","214.7","10.75","210.5","1012.496","19.19","70.99","824.0","0.0"],
    [1519325,"2026-05-10 10:50:00","65822","6.053","212.9","10.09","200.8","1012.461","19.27","70.97","918.0","0.0"],
    [1519326,"2026-05-10 11:00:00","65823","5.537000000000001","220.6","9.67","230.0","1012.414","19.51","69.03","753.9","0.0"],
    [1519327,"2026-05-10 11:10:00","65824","6.053","215.7","10.0","232.9","1012.349","19.41","70.27","1003.0","0.0"],
    [1519328,"2026-05-10 11:20:00","65825","6.434","214.8","9.8","203.1","1012.251","19.31","71.33","809.0","0.0"],
    [1519329,"2026-05-10 11:30:00","65826","6.132000000000001","222.3","10.65","224.5","1012.22","19.28","71.95","763.3","0.0"],
    [1519330,"2026-05-10 11:40:00","65827","6.749","211.4","10.39","214.4","1012.154","19.33","71.13","953.0","0.0"],
    [1519331,"2026-05-10 11:50:00","65828","6.867000000000001","210.5","10.58","201.1","1012.072","19.16","73.43","951.0","0.0"],
    [1519332,"2026-05-10 12:00:00","65829","4.8","216.0","7.742000000000001","230.9","1011.986","19.52","72.58","962.0","0.0"],
    [1519333,"2026-05-10 12:10:00","65830","5.454","214.3","9.08","204.9","1011.835","19.62","71.22","981.0","0.0"],
    [1519334,"2026-05-10 12:20:00","65831","5.1739999999999995","215.5","10.36","237.0","1011.717","19.8","70.09","986.0","0.0"],
    [1519335,"2026-05-10 12:30:00","65832","6.409","208.6","9.11","203.9","1011.594","19.76","70.96","731.3","0.0"],
    [1519336,"2026-05-10 12:40:00","65833","6.227","213.5","10.39","222.3","1011.56","19.8","67.14","901.0","0.0"],
    [1519337,"2026-05-10 12:50:00","65834","5.375","209.9","8.36","211.2","1011.459","19.97","65.1","906.0","0.0"],
    [1519338,"2026-05-10 13:00:00","65835","7.111000000000001","201.7","10.13","199.9","1011.346","20.01","66.19","904.0","0.0"],
    [1519339,"2026-05-10 13:10:00","65836","5.632000000000001","211.7","9.77","213.8","1011.375","20.25","63.78","905.0","0.0"],
    [1519340,"2026-05-10 13:20:00","65837","6.642","197.3","9.47","207.3","1011.221","20.21","64.05","904.0","0.0"],
    [1519341,"2026-05-10 13:30:00","65838","6.563","205.3","9.7","214.4","1011.234","20.26","62.13","845.0","0.0"],
    [1519342,"2026-05-10 13:40:00","65839","5.375","209.2","9.38","207.8","1011.178","20.36","60.96","832.0","0.0"],
    [1519343,"2026-05-10 13:50:00","65840","5.4639999999999995","207.0","8.46","218.3","1011.005","20.72","56.89","838.0","0.0"],
    [1519344,"2026-05-10 14:00:00","65841","5.66","207.9","9.31","206.9","1010.863","20.77","57.49","834.0","0.0"],
    [1519345,"2026-05-10 14:10:00","65842","5.847","206.2","9.38","198.5","1010.807","20.75","57.93","775.6","0.0"],
    [1519346,"2026-05-10 14:20:00","65843","6.566","202.9","9.87","202.1","1010.676","20.52","59.1","771.2","0.0"],
    [1519347,"2026-05-10 14:30:00","65844","5.957999999999999","214.2","9.87","195.8","1010.581","20.48","59.21","765.1","0.0"],
    [1519348,"2026-05-10 14:40:00","65845","4.658","217.4","9.7","203.8","1010.486","20.76","57.03","704.3","0.0"],
    [1519349,"2026-05-10 14:50:00","65846","5.542999999999999","220.1","9.31","225.0","1010.464","20.36","60.99","704.1","0.0"],
    [1519350,"2026-05-10 15:00:00","65847","6.005","212.0","9.77","201.6","1010.317","20.26","63.07","655.5","0.0"],
    [1519351,"2026-05-10 15:10:00","65848","5.435","219.7","8.43","226.5","1010.236","20.27","62.16","633.7","0.0"],
    [1519352,"2026-05-10 15:20:00","65849","5.487","220.9","8.92","226.7","1010.177","20.28","62.99","611.1","0.0"],
    [1519353,"2026-05-10 15:30:00","65850","5.385","209.4","8.49","220.3","1010.176","20.35","62.83","570.0","0.0"],
    [1519354,"2026-05-10 15:40:00","65851","5.48","223.3","8.85","215.8","1010.151","20.05","64.12","555.3","0.0"],
    [1519355,"2026-05-10 15:50:00","65852","4.7330000000000005","218.8","8.59","220.1","1010.075","20.11","64.2","503.0","0.0"],
    [1519356,"2026-05-10 16:00:00","65853","5.346","218.3","9.34","225.2","1010.031","19.92","67.11","501.5","0.0"],
    [1519357,"2026-05-10 16:10:00","65854","4.362","218.1","7.056","186.1","1009.993","20.0","66.36","437.0","0.0"],
    [1519358,"2026-05-10 16:20:00","65855","6.082000000000001","218.8","10.65","232.7","1009.842","20.06","60.12","435.9","0.0"],
    [1519359,"2026-05-10 16:30:00","65856","6.065","220.3","10.29","220.7","1009.73","20.01","60.47","407.4","0.0"],
    [1519360,"2026-05-10 16:40:00","65857","5.902","220.9","9.34","227.1","1009.771","19.99","59.64","402.3","0.0"],
    [1519361,"2026-05-10 16:50:00","65858","5.6160000000000005","217.8","9.67","220.0","1009.817","19.96","61.53","342.0","0.0"],
    [1519362,"2026-05-10 17:00:00","65859","4.482","222.7","10.16","218.1","1009.934","19.86","63.38","331.9","0.0"],
    [1519363,"2026-05-10 17:10:00","65860","3.7769999999999997","230.1","6.599","217.1","1009.964","20.02","62.05","269.0","0.0"],
    [1519364,"2026-05-10 17:20:00","65861","4.842","223.1","10.13","214.5","1009.968","19.99","62.41","264.7","0.0"],
    [1519365,"2026-05-10 17:30:00","65862","5.598","219.6","10.26","211.1","1010.061","19.68","64.25","201.6","0.0"],
    [1519366,"2026-05-10 17:40:00","65863","5.343999999999999","219.8","8.89","205.6","1010.133","19.6","65.64","196.0","0.0"],
    [1519367,"2026-05-10 17:50:00","65864","5.403","225.9","11.34","219.8","1010.229","19.57","64.58","135.9","0.0"],
    [1519368,"2026-05-10 18:00:00","65865","4.723","218.1","7.317","214.0","1010.33","19.61","64.82","134.1","0.0"],
    [1519369,"2026-05-10 18:10:00","65866","5.357","219.7","9.44","222.8","1010.404","19.54","65.54","81.9","0.0"],
    [1519370,"2026-05-10 18:20:00","65867","6.209","219.3","10.36","221.1","1010.528","19.31","66.6","2.404","0.0"],
    [1519371,"2026-05-10 18:30:00","65868","5.702999999999999","221.0","8.82","222.2","1010.63","19.16","67.59","0.0","0.0"],
    [1519372,"2026-05-10 18:40:00","65869","4.178999999999999","223.9","6.664","221.8","1010.835","19.17","66.79","0.0","0.0"],
    [1519373,"2026-05-10 18:50:00","65870","4.176","230.1","7.35","220.0","1010.9","19.24","65.34","0.0","0.0"],
    [1519374,"2026-05-10 19:00:00","65871","5.038","221.1","8.33","227.2","1010.973","19.28","64.77","0.0","0.0"],
    [1519375,"2026-05-10 19:10:00","65872","4.2219999999999995","224.7","6.697","212.4","1010.978","19.29","65.37","0.0","0.0"],
    [1519376,"2026-05-10 19:20:00","65873","4.308","226.4","6.9910000000000005","204.6","1010.98","19.25","66.16","0.0","0.0"],
    [1519377,"2026-05-10 19:30:00","65874","3.0869999999999997","224.7","6.141","208.9","1011.091","19.25","67.3","0.0","0.0"],
    [1519378,"2026-05-10 19:40:00","65875","2.575","233.1","5.096","214.2","1011.128","19.21","68.29","0.0","0.0"],
    [1519379,"2026-05-10 19:50:00","65876","3.074","237.7","5.749","257.8","1011.171","19.2","67.22","0.0","0.0"],
    [1519380,"2026-05-10 20:00:00","65877","3.335","238.5","5.651","222.8","1011.22","19.32","64.7","0.0","0.0"],
    [1519381,"2026-05-10 20:10:00","65878","3.301","236.6","6.5329999999999995","221.7","1011.213","19.49","60.83","0.0","0.0"],
    [1519382,"2026-05-10 20:20:00","65879","2.261","245.6","4.149","238.5","1011.262","19.56","58.66","0.0","0.0"],
    [1519383,"2026-05-10 20:30:00","65880","2.3","271.2","4.2139999999999995","287.5","1011.281","19.57","57.55","0.0","0.0"],
    [1519384,"2026-05-10 20:40:00","65881","2.767","263.2","4.965","261.0","1011.343","19.56","58.06","0.0","0.0"],
    [1519385,"2026-05-10 20:50:00","65882","2.23","253.9","4.933","276.4","1011.555","19.57","58.25","0.0","0.0"],
    [1519386,"2026-05-10 21:00:00","65883","3.3139999999999996","268.5","6.0760000000000005","268.3","1011.637","19.56","59.78","0.0","0.0"],
    [1519387,"2026-05-10 21:10:00","65884","3.0180000000000002","268.3","6.305","289.7","1011.648","19.42","61.43","0.0","0.0"],
    [1519388,"2026-05-10 21:20:00","65885","4.401","288.8","7.218999999999999","296.2","1011.471","19.31","60.45","0.0","0.0"],
    [1519389,"2026-05-10 21:30:00","65886","5.933","295.7","10.0","298.3","1011.321","19.27","57.59","0.0","0.0"],
    [1519390,"2026-05-10 21:40:00","65887","5.069","297.5","7.872999999999999","311.9","1011.052","19.08","58.19","0.0","0.0"],
    [1519391,"2026-05-10 21:50:00","65888","5.103","291.1","7.579","280.5","1011.032","18.9","58.81","0.0","0.0"],
    [1519392,"2026-05-10 22:00:00","65889","3.892","293.7","5.651","304.1","1010.865","18.77","59.82","0.0","0.0"],
    [1519393,"2026-05-10 22:10:00","65890","4.244","288.4","5.684","276.1","1010.847","18.67","60.13","0.0","0.0"],
    [1519394,"2026-05-10 22:20:00","65891","3.2439999999999998","286.6","4.638999999999999","276.3","1010.847","18.59","60.66","0.0","0.0"],
    [1519395,"2026-05-10 22:30:00","65892","3.008","291.3","4.1160000000000005","280.0","1010.883","18.49","61.31","0.0","0.0"],
    [1519396,"2026-05-10 22:40:00","65893","3.4760000000000004","291.0","5.063","279.8","1010.952","18.29","62.32","0.0","0.0"],
    [1519397,"2026-05-10 22:50:00","65894","3.7569999999999997","286.2","5.422999999999999","286.8","1010.983","18.2","62.45","0.0","0.0"],
    [1519398,"2026-05-10 23:00:00","65895","3.093","278.1","5.194","285.4","1011.013","18.16","62.43","0.0","0.0"],
    [1519399,"2026-05-10 23:10:00","65896","2.1519999999999997","274.3","3.43","268.0","1010.959","18.03","63.02","0.0","0.0"],
    [1519400,"2026-05-10 23:20:00","65897","1.96","252.2","3.5610000000000004","269.1","1011.031","17.96","62.73","0.0","0.0"],
    [1519401,"2026-05-10 23:30:00","65898","1.983","266.5","4.802","274.7","1011.044","17.89","63.25","0.0","0.0"],
    [1519402,"2026-05-10 23:40:00","65899","2.552","276.0","4.769","281.9","1010.901","17.77","63.42","0.0","0.0"],
    [1519403,"2026-05-10 23:50:00","65900","1.936","237.6","3.6910000000000003","201.0","1010.943","17.67","63.08","0.0","0.0"],
    [1519404,"2026-05-11 00:00:00","65901","1.975","233.3","3.397","242.5","1011.005","17.69","62.11","0.0","0.0"],
    [1519405,"2026-05-11 00:10:00","65902","2.662","230.5","4.377","225.8","1011.145","17.7","61.24","0.0","0.0"],
    [1519406,"2026-05-11 00:20:00","65903","2.677","235.3","4.769","213.6","1011.113","17.93","59.58","0.0","0.0"],
    [1519407,"2026-05-11 00:30:00","65904","2.4530000000000003","229.1","4.018","225.6","1010.966","17.94","59.22","0.0","0.0"],
    [1519408,"2026-05-11 00:40:00","65905","2.531","232.0","4.933","222.5","1011.084","17.99","58.79","0.0","0.0"],
    [1519409,"2026-05-11 00:50:00","65906","2.6239999999999997","238.8","4.769","264.5","1011.019","17.97","58.88","0.0","0.0"],
    [1519410,"2026-05-11 01:00:00","65907","3.57","267.9","6.109","282.1","1011.099","18.03","58.17","0.0","0.0"],
    [1519411,"2026-05-11 01:10:00","65908","2.7760000000000002","251.5","5.88","282.5","1011.023","18.02","58.41","0.0","0.0"],
    [1519412,"2026-05-11 01:20:00","65909","2.066","233.6","3.659","239.1","1011.045","17.73","60.15","0.0","0.0"],
    [1519413,"2026-05-11 01:30:00","65910","1.6669999999999998","230.4","2.9730000000000003","231.9","1010.94","17.66","60.17","0.0","0.0"],
    [1519414,"2026-05-11 01:40:00","65911","1.735","217.2","3.005","215.0","1010.89","17.58","60.65","0.0","0.0"],
    [1519415,"2026-05-11 01:50:00","65912","2.347","194.4","3.5610000000000004","191.2","1010.964","17.41","63.11","0.0","0.0"],
    [1519416,"2026-05-11 02:00:00","65913","2.178","194.8","3.201","212.8","1011.008","17.05","64.32","0.0","0.0"],
    [1519417,"2026-05-11 02:10:00","65914","1.8430000000000002","192.5","2.842","187.4","1010.965","16.96","64.55","0.0","0.0"],
    [1519418,"2026-05-11 02:20:00","65915","0.966","244.8","2.123","257.6","1011","16.98","62.96","0.0","0.0"],
    [1519419,"2026-05-11 02:30:00","65916","1.376","270.6","2.907","288.9","1011.011","16.87","62.42","0.0","0.0"],
    [1519420,"2026-05-11 02:40:00","65917","1.757","275.6","3.463","277.9","1010.934","17.04","60.27","0.0","0.0"],
    [1519421,"2026-05-11 02:50:00","65918","1.705","279.4","2.45","291.7","1010.943","17.13","59.97","0.0","0.0"],
    [1519422,"2026-05-11 03:00:00","65919","1.575","278.5","2.254","268.2","1010.888","16.93","60.58","0.0","0.0"],
    [1519423,"2026-05-11 03:10:00","65920","1.798","283.8","2.875","286.5","1010.763","16.95","60.86","0.0","0.0"],
    [1519424,"2026-05-11 03:20:00","65921","1.671","261.4","2.6460000000000004","258.8","1010.872","16.77","60.87","0.0","0.0"],
    [1519425,"2026-05-11 03:30:00","65922","1.6219999999999999","262.7","2.94","285.3","1010.929","16.69","60.59","0.0","0.0"],
    [1519426,"2026-05-11 03:40:00","65923","1.4140000000000001","254.6","2.7769999999999997","272.1","1010.916","16.6","61.29","0.0","0.0"],
    [1519427,"2026-05-11 03:50:00","65924","1.5390000000000001","243.4","2.5810000000000004","235.6","1010.959","16.46","62.71","0.0","0.0"],
    [1519428,"2026-05-11 04:00:00","65925","1.349","242.4","3.267","254.4","1010.929","16.24","64.05","0.0","0.0"],
    [1519429,"2026-05-11 04:10:00","65926","1.534","242.5","2.613","253.5","1011.016","16.24","63.19","0.0","0.0"],
    [1519430,"2026-05-11 04:20:00","65927","1.412","260.3","2.9730000000000003","249.0","1011.044","16.12","63.89","0.0","0.0"],
    [1519431,"2026-05-11 04:30:00","65928","1.53","264.2","3.5610000000000004","260.0","1011.067","16.04","63.89","0.0","0.0"],
    [1519432,"2026-05-11 04:40:00","65929","1.587","268.4","2.875","272.2","1011.05","15.84","64.79","0.0","0.0"],
    [1519433,"2026-05-11 04:50:00","65930","1.505","264.4","2.613","264.9","1011.111","15.93","64.22","0.0","0.0"],
    [1519434,"2026-05-11 05:00:00","65931","1.49","269.4","2.385","274.1","1011.208","15.98","64.11","0.0","0.0"],
    [1519435,"2026-05-11 05:10:00","65932","1.446","272.5","2.45","253.5","1011.363","16.14","63.6","1.3430000000000002","0.0"],
    [1519436,"2026-05-11 05:20:00","65933","1.3119999999999998","274.3","2.287","261.9","1011.527","16.22","63.09","55.83","0.0"],
    [1519437,"2026-05-11 05:30:00","65934","1.275","272.1","2.385","255.5","1011.687","16.51","61.98","105.8","0.0"],
    [1519438,"2026-05-11 05:40:00","65935","0.727","280.4","1.699","258.4","1011.863","16.71","61.33","113.0","0.0"],
    [1519439,"2026-05-11 05:50:00","65936","1.561","295.1","2.352","289.3","1011.944","16.81","60.83","169.7","0.0"],
    [1519440,"2026-05-11 06:00:00","65937","1.715","297.4","2.679","304.7","1012.016","17.02","59.74","164.7","0.0"],
    [1519441,"2026-05-11 06:10:00","65938","1.6","295.9","2.483","294.7","1012.155","17.29","57.92","250.6","0.0"],
    [1519442,"2026-05-11 06:20:00","65939","1.646","293.0","2.319","307.2","1012.255","17.6","56.04","283.7","0.0"],
    [1519443,"2026-05-11 06:30:00","65940","1.295","274.1","2.613","288.0","1012.334","17.91","55.09","335.5","0.0"],
    [1519444,"2026-05-11 06:40:00","65941","1.979","294.1","3.005","288.4","1012.393","18.0","54.03","335.4","0.0"],
    [1519445,"2026-05-11 06:50:00","65942","2.153","299.7","4.541","290.1","1012.445","18.11","53.45","389.7","0.0"],
    [1519446,"2026-05-11 07:00:00","65943","2.066","279.5","3.267","261.0","1012.48","18.35","53.06","415.2","0.0"],
    [1519447,"2026-05-11 07:10:00","65944","2.296","285.9","3.887","281.7","1012.486","18.45","52.38","335.4","0.0"],
    [1519448,"2026-05-11 07:20:00","65945","2.225","267.8","3.9530000000000003","264.7","1012.509","18.53","51.98","290.5","0.0"],
    [1519449,"2026-05-11 07:30:00","65946","1.858","276.1","3.887","257.7","1012.538","18.59","51.15","276.1","0.0"],
    [1519450,"2026-05-11 07:40:00","65947","2.477","267.8","5.031000000000001","251.4","1012.588","18.59","50.89","268.3","0.0"],
    [1519451,"2026-05-11 07:50:00","65948","1.9240000000000002","270.7","3.822","282.5","1012.624","18.66","51.55","268.3","0.0"],
    [1519452,"2026-05-11 08:00:00","65949","1.821","243.1","3.103","261.5","1012.612","18.78","50.7","272.5","0.0"],
    [1519453,"2026-05-11 08:10:00","65950","1.557","251.5","2.94","270.6","1012.589","18.9","50.68","371.6","0.0"],
    [1519454,"2026-05-11 08:20:00","65951","1.2830000000000001","222.5","3.528","220.0","1012.618","19.11","50.45","310.6","0.0"],
    [1519455,"2026-05-11 08:30:00","65952","1.6030000000000002","225.5","3.855","222.2","1012.651","19.18","49.56","279.6","0.0"],
    [1519456,"2026-05-11 08:40:00","65953","1.6059999999999999","262.5","3.103","258.9","1012.706","19.47","47.69","335.4","0.0"],
    [1519457,"2026-05-11 08:50:00","65954","2.7539999999999996","290.6","5.325","305.9","1012.694","19.64","45.72","402.6","0.0"],
    [1519458,"2026-05-11 09:00:00","65955","3.472","288.7","6.011","306.6","1012.727","19.78","45.89","366.3","0.0"],
    [1519459,"2026-05-11 09:10:00","65956","3.574","293.2","5.4879999999999995","315.3","1012.765","19.78","45.31","383.9","0.0"],
    [1519460,"2026-05-11 09:20:00","65957","3.853","298.3","5.749","313.5","1012.719","19.95","44.46","511.5","0.0"],
    [1519461,"2026-05-11 09:30:00","65958","3.6639999999999997","296.2","6.0760000000000005","295.8","1012.776","20.11","44.64","427.4","0.0"],
    [1519462,"2026-05-11 09:40:00","65959","3.335","291.0","5.88","313.8","1012.846","20.31","44.04","408.6","0.0"],
    [1519463,"2026-05-11 09:50:00","65960","1.857","227.4","4.867","300.6","1012.811","20.1","48.64","376.6","0.0"],
    [1519464,"2026-05-11 10:00:00","65961","3.985","191.9","5.912999999999999","192.9","1012.799","19.67","55.25","665.3","0.0"],
    [1519465,"2026-05-11 10:10:00","65962","4.979","189.6","6.566","192.5","1012.701","19.6","55.23","928.0","0.0"],
    [1519466,"2026-05-11 10:20:00","65963","4.843","192.1","5.945","188.4","1012.687","19.5","56.84","933.0","0.0"],
    [1519467,"2026-05-11 10:30:00","65964","2.6919999999999997","213.0","5.325","201.4","1012.67","20.2","53.42","949.0","0.0"],
    [1519468,"2026-05-11 10:40:00","65965","2.827","268.0","5.749","248.0","1012.586","21.38","39.19","792.0","0.0"],
    [1519469,"2026-05-11 10:50:00","65966","3.9589999999999996","294.3","6.501","311.7","1012.567","21.74","39.01","946.0","0.0"],
    [1519470,"2026-05-11 11:00:00","65967","4.228","296.8","7.0889999999999995","258.1","1012.645","21.66","37.71","934.0","0.0"],
    [1519471,"2026-05-11 11:10:00","65968","3.236","290.4","5.619","272.1","1012.513","21.83","39.07","960.0","0.0"],
    [1519472,"2026-05-11 11:20:00","65969","3.2460000000000004","302.0","5.651","296.2","1012.404","21.75","39.93","971.0","0.0"],
    [1519473,"2026-05-11 11:30:00","65970","4.61","209.9","8.66","195.4","1012.308","21.55","46.82","972.0","0.0"],
    [1519474,"2026-05-11 11:40:00","65971","6.4479999999999995","206.1","10.03","206.6","1012.215","20.76","51.47","972.0","0.0"],
    [1519475,"2026-05-11 11:50:00","65972","5.9110000000000005","203.4","9.28","195.5","1012.257","20.78","52.85","972.0","0.0"],
    [1519476,"2026-05-11 12:00:00","65973","6.127999999999999","204.8","9.7","192.7","1012.206","20.79","53.81","972.0","0.0"],
    [1519477,"2026-05-11 12:10:00","65974","8.26","194.3","10.75","193.8","1012.04","19.91","58.03","972.0","0.0"],
    [1519478,"2026-05-11 12:20:00","65975","8.04","195.6","10.94","191.7","1012.028","20.03","58.63","972.0","0.0"],
    [1519479,"2026-05-11 12:30:00","65976","7.853","194.6","10.26","189.8","1012.044","19.74","60.14","972.0","0.0"],
    [1519480,"2026-05-11 12:40:00","65977","6.882000000000001","199.2","10.29","192.3","1012.046","19.96","59.24","916.0","0.0"],
    [1519481,"2026-05-11 12:50:00","65978","7.026","197.5","10.62","193.2","1011.892","20.36","57.08","905.0","0.0"],
    [1519482,"2026-05-11 13:00:00","65979","7.4639999999999995","191.2","9.96","191.4","1011.771","20.17","57.42","905.0","0.0"],
    [1519483,"2026-05-11 13:10:00","65980","6.056","203.8","9.73","201.3","1011.798","21.23","50.31","905.0","0.0"],
    [1519484,"2026-05-11 13:20:00","65981","5.357","210.9","9.34","236.2","1011.815","21.47","49.58","904.0","0.0"],
    [1519485,"2026-05-11 13:30:00","65982","5.992000000000001","212.8","9.9","214.5","1011.8","21.41","52.05","864.0","0.0"],
    [1519486,"2026-05-11 13:40:00","65983","6.598","205.9","9.9","204.4","1011.722","21.08","53.57","838.0","0.0"],
    [1519487,"2026-05-11 13:50:00","65984","6.433","212.5","9.38","223.8","1011.717","21.25","50.87","838.0","0.0"],
    [1519488,"2026-05-11 14:00:00","65985","6.653","204.3","10.29","193.9","1011.598","21.27","51.17","838.0","0.0"],
    [1519489,"2026-05-11 14:10:00","65986","6.318","217.4","10.36","224.6","1011.62","21.55","48.83","778.7","0.0"],
    [1519490,"2026-05-11 14:20:00","65987","6.6979999999999995","220.9","11.34","224.3","1011.497","21.63","47.52","771.2","0.0"],
    [1519491,"2026-05-11 14:30:00","65988","6.949","216.4","13.16","232.0","1011.318","21.74","43.35","764.5","0.0"],
    [1519492,"2026-05-11 14:40:00","65989","7.276","221.7","10.78","225.7","1011.338","21.74","44.4","710.3","0.0"],
    [1519493,"2026-05-11 14:50:00","65990","6.18","217.5","9.9","202.9","1011.174","21.21","54.85","704.1","0.0"],
    [1519494,"2026-05-11 15:00:00","65991","7.002999999999999","216.5","10.49","199.6","1011.089","20.88","57.67","669.3","0.0"],
    [1519495,"2026-05-11 15:10:00","65992","6.638","211.7","11.17","222.4","1011.032","20.76","57.21","635.0","0.0"],
    [1519496,"2026-05-11 15:20:00","65993","6.945","216.7","11.37","215.4","1010.999","20.82","54.55","619.5","0.0"],
    [1519497,"2026-05-11 15:30:00","65994","7.224","219.2","11.96","221.0","1010.995","20.82","50.7","570.0","0.0"],
    [1519498,"2026-05-11 15:40:00","65995","6.769","219.9","12.74","222.7","1011.177","20.71","54.34","569.9","0.0"],
    [1519499,"2026-05-11 15:50:00","65996","7.904","212.8","13.2","226.9","1011.253","20.24","60.71","516.0","0.0"],
    [1519500,"2026-05-11 16:00:00","65997","7.558","218.1","13.23","219.4","1011.321","20.14","62.7","502.9","0.0"],
    [1519501,"2026-05-11 16:10:00","65998","7.1579999999999995","217.1","11.6","218.0","1011.305","20.05","63.45","447.7","0.0"],
    [1519502,"2026-05-11 16:20:00","65999","7.465","218.1","12.05","226.3","1011.302","19.98","65.95","435.9","0.0"],
    [1519503,"2026-05-11 16:30:00","66000","7.039","218.2","11.96","224.5","1011.346","19.99","66.24","405.2","0.0"],
    [1519504,"2026-05-11 16:40:00","66001","6.601","217.8","11.83","221.2","1011.428","19.99","65.63","402.4","0.0"],
    [1519505,"2026-05-11 16:50:00","66002","7.195","220.9","12.87","225.4","1011.445","20.04","63.62","345.3","0.0"],
    [1519506,"2026-05-11 17:00:00","66003","7.847","223.4","13.33","227.2","1011.517","20.06","62.94","334.7","0.0"],
    [1519507,"2026-05-11 17:10:00","66004","7.736000000000001","220.9","12.48","216.1","1011.526","20.16","60.57","273.8","0.0"],
    [1519508,"2026-05-11 17:20:00","66005","7.278","217.6","12.67","214.8","1011.631","20.06","62.74","266.6","0.0"],
    [1519509,"2026-05-11 17:30:00","66006","7.551","219.9","11.76","225.2","1011.684","19.98","63.49","202.5","0.0"],
    [1519510,"2026-05-11 17:40:00","66007","6.132000000000001","222.4","12.12","223.9","1011.68","20.0","63.8","200.8","0.0"],
    [1519511,"2026-05-11 17:50:00","66008","4.768","225.2","10.29","218.2","1011.714","20.06","64.67","139.3","0.0"],
    [1519512,"2026-05-11 18:00:00","66009","4.941","225.3","7.546","227.2","1011.703","20.01","65.69","134.2","0.0"],
    [1519513,"2026-05-11 18:10:00","66010","5.033","231.3","9.9","215.5","1011.803","19.99","64.52","95.8","0.0"],
    [1519514,"2026-05-11 18:20:00","66011","4.894","221.7","8.49","209.0","1011.973","19.91","66.27","67.08","0.0"],
    [1519515,"2026-05-11 18:30:00","66012","4.102","235.1","7.807","221.6","1012.075","19.71","69.03","67.08","0.0"],
    [1519516,"2026-05-11 18:40:00","66013","3.4389999999999996","242.2","8.62","262.5","1012.151","19.62","68.68","22.5","0.0"],
    [1519517,"2026-05-11 18:50:00","66014","3.6460000000000004","243.4","7.218999999999999","230.8","1012.221","19.58","66.82","0.0","0.0"],
    [1519518,"2026-05-11 19:00:00","66015","3.2","243.6","6.011","270.0","1012.342","19.54","63.2","0.0","0.0"],
    [1519519,"2026-05-11 19:10:00","66016","2.4459999999999997","243.2","5.1610000000000005","218.8","1012.498","19.64","59.28","0.0","0.0"],
    [1519520,"2026-05-11 19:20:00","66017","2.7510000000000003","247.5","5.096","261.6","1012.604","19.64","57.98","0.0","0.0"],
    [1519521,"2026-05-11 19:30:00","66018","2.8989999999999996","237.7","4.998","241.2","1012.621","19.59","57.94","0.0","0.0"],
    [1519522,"2026-05-11 19:40:00","66019","2.775","250.4","4.737","286.4","1012.797","19.57","56.28","0.0","0.0"],
    [1519523,"2026-05-11 19:50:00","66020","2.826","269.8","4.671","249.7","1012.98","19.56","53.38","0.0","0.0"],
    [1519524,"2026-05-11 20:00:00","66021","2.494","263.7","4.2139999999999995","261.5","1013.089","19.63","50.66","0.0","0.0"],
    [1519525,"2026-05-11 20:10:00","66022","2.653","243.7","5.292000000000001","260.3","1013.18","19.7","47.07","0.0","0.0"],
    [1519526,"2026-05-11 20:20:00","66023","3.739","237.0","6.272","230.4","1013.218","19.83","46.02","0.0","0.0"],
    [1519527,"2026-05-11 20:30:00","66024","3.6189999999999998","237.3","5.847","225.1","1013.334","19.95","48.68","0.0","0.0"],
    [1519528,"2026-05-11 20:40:00","66025","3.4730000000000003","246.5","5.912999999999999","259.1","1013.472","19.81","51.68","0.0","0.0"],
    [1519529,"2026-05-11 20:50:00","66026","2.388","262.9","4.671","244.9","1013.57","19.55","53.89","0.0","0.0"],
    [1519530,"2026-05-11 21:00:00","66027","2.611","263.7","4.018","276.3","1013.639","19.32","55.92","0.0","0.0"],
    [1519531,"2026-05-11 21:10:00","66028","2.5639999999999996","244.9","4.835","252.3","1013.641","19.38","54.56","0.0","0.0"],
    [1519532,"2026-05-11 21:20:00","66029","2.862","243.6","4.933","224.0","1013.78","19.55","53.92","0.0","0.0"],
    [1519533,"2026-05-11 21:30:00","66030","3.1239999999999997","230.3","4.769","232.5","1013.826","19.79","54.6","0.0","0.0"],
    [1519534,"2026-05-11 21:40:00","66031","3.787","218.4","5.2589999999999995","215.8","1013.858","19.53","59.04","0.0","0.0"],
    [1519535,"2026-05-11 21:50:00","66032","3.377","230.4","5.4879999999999995","216.5","1013.818","19.64","54.88","0.0","0.0"],
    [1519536,"2026-05-11 22:00:00","66033","2.628","240.7","5.063","257.6","1013.914","19.22","56.69","0.0","0.0"],
    [1519537,"2026-05-11 22:10:00","66034","1.286","301.0","2.94","248.3","1014.152","19.16","56.88","0.0","0.0"],
    [1519538,"2026-05-11 22:20:00","66035","0.877","78.3","1.993","69.28","1014.31","19.21","56.0","0.0","0.0"],
    [1519539,"2026-05-11 22:30:00","66036","0.11","77.95","0.8490000000000001","341.1","1014.414","19.22","54.8","0.0","0.0"],
    [1519540,"2026-05-11 22:40:00","66037","2.015","2.6189999999999998","3.6910000000000003","16.22","1014.455","18.99","61.52","0.0","0.0"],
    [1519541,"2026-05-11 22:50:00","66038","3.71","21.83","4.475","26.5","1014.407","18.58","69.25","0.0","0.0"],
    [1519542,"2026-05-11 23:00:00","66039","3.819","20.23","4.541","18.29","1014.401","18.26","72.38","0.0","0.0"],
    [1519543,"2026-05-11 23:10:00","66040","3.7760000000000002","19.49","4.377","16.69","1014.355","18.07","72.6","0.0","0.0"],
    [1519544,"2026-05-11 23:20:00","66041","2.9160000000000004","23.18","3.7889999999999997","20.61","1014.327","18.16","69.46","0.0","0.0"],
    [1519545,"2026-05-11 23:30:00","66042","3.0469999999999997","24.0","3.6910000000000003","22.11","1014.266","18.39","65.94","0.0","0.0"],
    [1519546,"2026-05-11 23:40:00","66043","2.331","34.9","2.907","48.08","1014.332","18.53","64.25","0.0","0.0"],
    [1519547,"2026-05-11 23:50:00","66044","2.355","37.69","3.005","38.17","1014.393","18.59","63.15","0.0","0.0"],
    [1519548,"2026-05-12 00:00:00","66045","2.11","43.02","2.842","39.22","1014.307","18.53","63.63","0.0","0.0"],
    [1519549,"2026-05-12 00:10:00","66046","1.9680000000000002","52.09","2.842","51.47","1014.339","18.46","64.03","0.0","0.0"],
    [1519550,"2026-05-12 00:20:00","66047","1.905","52.15","3.005","52.99","1014.31","18.33","64.37","0.0","0.0"],
    [1519551,"2026-05-12 00:30:00","66048","2.082","38.78","2.7439999999999998","41.98","1014.274","18.27","63.7","0.0","0.0"],
    [1519552,"2026-05-12 00:40:00","66049","2.282","40.56","3.1689999999999996","32.37","1014.279","18.21","63.62","0.0","0.0"],
    [1519553,"2026-05-12 00:50:00","66050","2.747","33.45","3.299","30.8","1014.251","18.37","61.53","0.0","0.0"],
    [1519554,"2026-05-12 01:00:00","66051","2.339","22.91","2.9730000000000003","30.67","1014.148","18.49","59.24","0.0","0.0"],
    [1519555,"2026-05-12 01:10:00","66052","2.248","16.13","2.94","8.75","1014.052","18.4","60.37","0.0","0.0"],
    [1519556,"2026-05-12 01:20:00","66053","1.854","13.6","2.5810000000000004","13.28","1014.027","18.37","60.74","0.0","0.0"],
    [1519557,"2026-05-12 01:30:00","66054","1.845","6.992000000000001","2.679","10.01","1013.911","18.31","63.06","0.0","0.0"],
    [1519558,"2026-05-12 01:40:00","66055","1.032","357.3","1.568","2.819","1013.943","18.27","61.77","0.0","0.0"],
    [1519559,"2026-05-12 01:50:00","66056","1.3769999999999998","5.733","2.319","4.504","1013.888","18.25","62.73","0.0","0.0"],
    [1519560,"2026-05-12 02:00:00","66057","1.329","15.6","1.993","11.2","1013.785","18.21","64.46","0.0","0.0"],
    [1519561,"2026-05-12 02:10:00","66058","1.357","338.9","2.45","8.15","1013.802","18.19","63.03","0.0","0.0"],
    [1519562,"2026-05-12 02:20:00","66059","0.924","274.9","1.568","272.9","1013.73","18.05","60.68","0.0","0.0"],
    [1519563,"2026-05-12 02:30:00","66060","0.575","236.6","0.882","271.1","1013.674","17.85","61.35","0.0","0.0"],
    [1519564,"2026-05-12 02:40:00","66061","0.8390000000000001","251.5","1.895","261.9","1013.676","17.51","63.24","0.0","0.0"],
    [1519565,"2026-05-12 02:50:00","66062","2.015","261.2","2.515","257.0","1013.677","17.06","62.11","0.0","0.0"],
    [1519566,"2026-05-12 03:00:00","66063","2.184","265.2","2.7439999999999998","264.9","1013.737","16.64","62.72","0.0","0.0"],
    [1519567,"2026-05-12 03:10:00","66064","1.545","272.3","2.025","260.3","1013.788","16.35","63.52","0.0","0.0"],
    [1519568,"2026-05-12 03:20:00","66065","1.412","269.6","1.764","262.0","1013.716","16.31","63.92","0.0","0.0"],
    [1519569,"2026-05-12 03:30:00","66066","1.085","294.8","1.405","295.4","1013.675","16.51","63.73","0.0","0.0"],
    [1519570,"2026-05-12 03:40:00","66067","1.178","290.3","1.535","291.6","1013.693","16.46","64.48","0.0","0.0"],
    [1519571,"2026-05-12 03:50:00","66068","0.33","296.5","1.111","294.9","1013.699","16.32","65.25","0.0","0.0"],
    [1519572,"2026-05-12 04:00:00","66069","0.20800000000000002","305.9","0.7509999999999999","252.3","1013.709","16.51","65.59","0.0","0.0"],
    [1519573,"2026-05-12 04:10:00","66070","0.16699999999999998","279.2","0.8490000000000001","273.0","1013.79","16.5","67.24","0.0","0.0"],
    [1519574,"2026-05-12 04:20:00","66071","0.88","268.8","2.483","264.5","1013.923","16.54","65.85","0.0","0.0"],
    [1519575,"2026-05-12 04:30:00","66072","2.2319999999999998","267.5","2.515","265.9","1014.005","16.16","66.51","0.0","0.0"],
    [1519576,"2026-05-12 04:40:00","66073","1.909","262.2","2.287","258.0","1014.023","15.85","67.08","0.0","0.0"],
    [1519577,"2026-05-12 04:50:00","66074","1.141","254.4","1.797","264.3","1013.982","15.84","67.43","0.0","0.0"],
    [1519578,"2026-05-12 05:00:00","66075","0.13699999999999998","185.3","0.784","208.9","1013.98","16.18","67.76","7.244","0.0"],
    [1519579,"2026-05-12 05:10:00","66076","1.099","257.0","2.352","261.5","1014.007","16.24","66.86","60.81","0.0"],
    [1519580,"2026-05-12 05:20:00","66077","1.7630000000000001","260.6","2.6460000000000004","264.7","1014.087","16.22","66.14","67.13","0.0"],
    [1519581,"2026-05-12 05:30:00","66078","2.099","270.3","2.679","274.4","1014.109","16.12","66.79","72.99","0.0"],
    [1519582,"2026-05-12 05:40:00","66079","2.371","275.0","2.875","267.6","1014.141","16.19","66.39","130.0","0.0"],
    [1519583,"2026-05-12 05:50:00","66080","2.401","276.0","2.907","277.8","1014.241","16.5","65.24","138.7","0.0"],
    [1519584,"2026-05-12 06:00:00","66081","2.166","272.0","2.613","261.6","1014.346","16.75","64.38","200.9","0.0"],
    [1519585,"2026-05-12 06:10:00","66082","1.8769999999999998","278.0","2.319","282.2","1014.478","17.16","62.96","201.6","0.0"],
    [1519586,"2026-05-12 06:20:00","66083","1.9","264.2","2.385","274.9","1014.496","17.38","62.41","258.9","0.0"],
    [1519587,"2026-05-12 06:30:00","66084","1.605","275.1","2.352","277.7","1014.546","17.86","60.02","271.5","0.0"],
    [1519588,"2026-05-12 06:40:00","66085","1.385","267.0","2.189","286.6","1014.577","18.47","57.61","334.4","0.0"],
    [1519589,"2026-05-12 06:50:00","66086","1.296","227.4","2.221","212.2","1014.6","18.68","56.01","338.5","0.0"],
    [1519590,"2026-05-12 07:00:00","66087","0.47200000000000003","260.4","1.47","239.6","1014.68","19.2","54.93","402.4","0.0"],
    [1519591,"2026-05-12 07:10:00","66088","1.831","88.7","2.7439999999999998","88.6","1014.718","18.67","59.23","402.9","0.0"],
    [1519592,"2026-05-12 07:20:00","66089","3.634","48.08","4.769","42.37","1014.762","18.05","61.84","432.0","0.0"],
    [1519593,"2026-05-12 07:30:00","66090","3.533","32.72","4.083","27.94","1014.777","17.99","61.75","435.9","0.0"],
    [1519594,"2026-05-12 07:40:00","66091","3.772","34.22","4.377","31.26","1014.781","17.99","62.77","496.0","0.0"],
    [1519595,"2026-05-12 07:50:00","66092","3.5210000000000004","31.76","4.149","27.85","1014.692","18.1","62.85","503.1","0.0"],
    [1519596,"2026-05-12 08:00:00","66093","3.6430000000000002","39.97","4.312","40.76","1014.651","18.12","64.55","559.3","0.0"],
    [1519597,"2026-05-12 08:10:00","66094","4.718999999999999","47.33","5.39","49.83","1014.594","17.91","63.97","570.2","0.0"],
    [1519598,"2026-05-12 08:20:00","66095","5.023","51.57","6.042999999999999","49.73","1014.525","17.72","70.02","611.7","0.0"],
    [1519599,"2026-05-12 08:30:00","66096","5.081","53.11","6.239","57.34","1014.458","17.48","76.99","637.3","0.0"],
    [1519600,"2026-05-12 08:40:00","66097","4.59","47.33","5.7170000000000005","47.49","1014.514","17.32","81.3","649.1","0.0"],
    [1519601,"2026-05-12 08:50:00","66098","4.71","45.11","5.88","45.31","1014.603","17.2","82.2","703.2","0.0"],
    [1519602,"2026-05-12 09:00:00","66099","4.538","47.13","5.325","48.47","1014.681","17.23","83.3","704.4","0.0"],
    [1519603,"2026-05-12 09:10:00","66100","4.824","51.33","6.042999999999999","48.13","1014.733","17.32","82.5","743.9","0.0"],
    [1519604,"2026-05-12 09:20:00","66101","5.025","50.94","5.782","48.16","1014.75","17.39","83.8","771.5","0.0"],
    [1519605,"2026-05-12 09:30:00","66102","4.521","50.66","6.011","56.52","1014.833","17.45","82.1","771.5","0.0"],
    [1519606,"2026-05-12 09:40:00","66103","4.373","49.25","5.455","42.27","1014.854","17.59","84.2","794.6","0.0"],
    [1519607,"2026-05-12 09:50:00","66104","4.144","47.21","5.782","43.53","1014.893","17.58","87.1","810.0","0.0"],
    [1519608,"2026-05-12 10:00:00","66105","4.071000000000001","44.87","5.815","38.01","1014.829","17.57","87.8","751.2","0.0"],
    [1519609,"2026-05-12 10:10:00","66106","3.986","47.18","5.521","44.57","1014.859","17.63","87.7","808.0","0.0"],
    [1519610,"2026-05-12 10:20:00","66107","4.199","42.47","5.521","50.28","1014.842","17.66","87.8","852.0","0.0"],
    [1519611,"2026-05-12 10:30:00","66108","4.106","42.87","5.031000000000001","52.6","1014.801","17.64","88.4","899.0","0.0"],
    [1519612,"2026-05-12 10:40:00","66109","4.114","42.45","5.586","43.14","1014.753","17.76","88.5","906.0","0.0"],
    [1519613,"2026-05-12 10:50:00","66110","4.032","39.26","5.521","23.11","1014.675","17.89","88.1","906.0","0.0"],
    [1519614,"2026-05-12 11:00:00","66111","3.18","37.12","5.847","56.26","1014.599","18.29","85.3","906.0","0.0"],
    [1519615,"2026-05-12 11:10:00","66112","2.988","81.7","5.194","99.4","1014.549","18.47","83.7","907.0","0.0"],
    [1519616,"2026-05-12 11:20:00","66113","3.8280000000000003","95.1","4.965","105.1","1014.418","18.43","84.2","899.0","0.0"],
    [1519617,"2026-05-12 11:30:00","66114","3.678","88.9","4.835","85.9","1014.27","18.41","86.2","883.0","0.0"],
    [1519618,"2026-05-12 11:40:00","66115","4.4830000000000005","108.8","6.011","119.1","1014.061","18.48","85.4","960.0","0.0"],
    [1519619,"2026-05-12 11:50:00","66116","4.89","98.0","6.795","96.3","1013.973","18.61","84.0","689.1","0.0"],
    [1519620,"2026-05-12 12:00:00","66117","4.975","99.9","6.664","99.8","1013.894","18.53","85.6","599.0","0.0"],
    [1519621,"2026-05-12 12:10:00","66118","5.041","97.4","6.697","83.1","1013.824","18.44","84.9","740.5","0.0"],
    [1519622,"2026-05-12 12:20:00","66119","5.992000000000001","97.2","9.05","102.3","1013.745","18.2","82.3","392.2","0.0"],
    [1519623,"2026-05-12 12:30:00","66120","6.682","97.4","8.49","98.5","1013.683","18.06","81.6","422.7","0.0"],
    [1519624,"2026-05-12 12:40:00","66121","6.822","94.6","9.41","93.3","1013.55","17.95","82.0","524.4","0.0"],
    [1519625,"2026-05-12 12:50:00","66122","6.06","95.6","7.775","95.9","1013.497","17.95","82.3","699.6","0.0"],
    [1519626,"2026-05-12 13:00:00","66123","5.784","97.8","8.04","100.2","1013.533","18.0","82.6","781.9","0.0"],
    [1519627,"2026-05-12 13:10:00","66124","5.416","103.4","7.317","96.7","1013.556","18.07","82.9","495.3","0.0"],
    [1519628,"2026-05-12 13:20:00","66125","4.856","104.5","7.872999999999999","128.3","1013.566","18.14","82.9","394.4","0.0"],
    [1519629,"2026-05-12 13:30:00","66126","4.732","100.1","6.109","89.4","1013.356","18.17","83.6","302.1","0.0"],
    [1519630,"2026-05-12 13:40:00","66127","4.7860000000000005","112.7","6.697","117.2","1013.144","18.3","84.8","256.4","0.0"],
    [1519631,"2026-05-12 13:50:00","66128","4.7669999999999995","116.4","7.121","117.7","1013.092","18.33","84.1","208.7","0.0"],
    [1519632,"2026-05-12 14:00:00","66129","5.495","102.1","6.9910000000000005","94.2","1012.86","18.1","84.3","323.9","0.0"],
    [1519633,"2026-05-12 14:10:00","66130","5.479","93.1","7.121","92.7","1012.711","18.02","84.5","257.4","0.0"],
    [1519634,"2026-05-12 14:20:00","66131","4.757","93.8","7.187","98.7","1012.774","18.04","84.5","185.2","0.0"],
    [1519635,"2026-05-12 14:30:00","66132","5.725","94.5","7.481","104.0","1012.622","17.99","84.1","235.0","0.0"],
    [1519636,"2026-05-12 14:40:00","66133","5.722","97.2","7.611000000000001","93.6","1012.493","18.02","83.9","346.4","0.0"],
    [1519637,"2026-05-12 14:50:00","66134","5.187","87.2","7.056","86.4","1012.507","17.97","83.9","160.9","0.0"],
    [1519638,"2026-05-12 15:00:00","66135","5.468","95.3","6.957999999999999","89.8","1012.493","17.97","84.1","135.9","0.0"],
    [1519639,"2026-05-12 15:10:00","66136","4.992","96.0","6.1739999999999995","92.6","1012.658","18.02","84.0","215.3","0.0"],
    [1519640,"2026-05-12 15:20:00","66137","4.739","104.6","6.664","113.4","1012.414","18.07","83.8","220.9","0.0"],
    [1519641,"2026-05-12 15:30:00","66138","4.586","108.0","6.337000000000001","107.1","1012.405","18.02","83.6","134.7","0.0"],
    [1519642,"2026-05-12 15:40:00","66139","3.859","113.2","5.815","117.4","1012.865","18.0","83.8","36.96","0.0"],
    [1519643,"2026-05-12 15:50:00","66140","2.8169999999999997","136.2","5.912999999999999","115.5","1012.797","18.04","84.0","21.61","0.0"],
    [1519644,"2026-05-12 16:00:00","66141","9.05","346.3","16.63","317.3","1013.055","15.79","77.31","0.0","0.3"],
    [1519645,"2026-05-12 16:10:00","66142","5.171","352.5","8.2","344.8","1012.736","14.17","79.71","0.0","0.3"],
    [1519646,"2026-05-12 16:20:00","66143","2.8289999999999997","26.01","4.018","19.31","1012.478","14.18","79.98","47.67","0.1"],
    [1519647,"2026-05-12 16:30:00","66144","2.305","75.6","3.92","82.4","1012.542","14.41","79.62","63.14","0.0"],
    [1519648,"2026-05-12 16:40:00","66145","5.33","86.0","7.546","107.7","1012.738","14.76","80.1","25.95","0.0"],
    [1519649,"2026-05-12 16:50:00","66146","5.404","45.08","6.337000000000001","33.47","1012.449","14.66","81.6","66.92","0.0"],
    [1519650,"2026-05-12 17:00:00","66147","3.927","56.91","5.815","58.3","1012.244","14.91","78.95","122.8","0.0"],
    [1519651,"2026-05-12 17:10:00","66148","2.716","36.46","3.822","16.07","1012.213","15.3","76.33","134.3","0.0"],
    [1519652,"2026-05-12 17:20:00","66149","2.44","354.7","3.332","15.85","1012.137","15.51","76.94","134.3","0.0"],
    [1519653,"2026-05-12 17:30:00","66150","1.187","342.9","2.319","335.2","1012.059","15.58","76.87","97.1","0.0"],
    [1519654,"2026-05-12 17:40:00","66151","0.324","46.71","1.078","334.2","1011.893","15.79","76.76","67.12","0.0"],
    [1519655,"2026-05-12 17:50:00","66152","1.709","107.8","4.051","105.4","1011.602","15.83","76.92","67.12","0.0"],
    [1519656,"2026-05-12 18:00:00","66153","4.062","84.0","5.227","69.36","1011.353","15.94","75.7","18.65","0.0"],
    [1519657,"2026-05-12 18:10:00","66154","3.7119999999999997","78.69","5.553","60.09","1011.487","16.26","73.93","0.0","0.0"],
    [1519658,"2026-05-12 18:20:00","66155","2.906","69.5","4.704","50.83","1011.441","16.4","77.79","0.0","0.0"],
    [1519659,"2026-05-12 18:30:00","66156","3.553","44.83","4.933","30.9","1011.591","16.1","80.0","0.0","0.0"],
    [1519660,"2026-05-12 18:40:00","66157","3.998","37.27","5.39","31.8","1011.831","16.03","78.94","0.0","0.0"],
    [1519661,"2026-05-12 18:50:00","66158","4.3069999999999995","26.49","6.042999999999999","19.44","1012.065","16.14","78.76","0.0","0.1"],
    [1519662,"2026-05-12 19:00:00","66159","3.4410000000000003","5.25","5.619","348.2","1012.6","16.23","80.3","0.0","0.0"],
    [1519663,"2026-05-12 19:10:00","66160","2.7030000000000003","45.79","3.9530000000000003","42.37","1012.397","16.19","79.78","0.0","0.0"],
    [1519664,"2026-05-12 19:20:00","66161","2.251","48.64","3.136","61.75","1012.339","16.34","79.47","0.0","0.0"],
    [1519665,"2026-05-12 19:30:00","66162","2.069","58.71","2.9730000000000003","58.32","1012.255","16.28","79.64","0.0","0.0"],
    [1519666,"2026-05-12 19:40:00","66163","1.855","68.2","2.548","59.01","1012.208","16.32","78.63","0.0","0.0"],
    [1519667,"2026-05-12 19:50:00","66164","1.713","117.8","2.352","122.8","1012.17","16.31","78.7","0.0","0.0"],
    [1519668,"2026-05-12 20:00:00","66165","1.3219999999999998","160.1","2.254","189.2","1012.348","16.36","78.76","0.0","0.0"],
    [1519669,"2026-05-12 20:10:00","66166","1.695","200.5","2.7110000000000003","195.4","1012.488","16.42","77.81","0.0","0.0"],
    [1519670,"2026-05-12 20:20:00","66167","2.267","201.5","3.397","183.5","1012.488","16.58","77.27","0.0","0.0"],
    [1519671,"2026-05-12 20:30:00","66168","1.807","213.9","3.071","219.2","1012.477","16.79","74.72","0.0","0.0"],
    [1519672,"2026-05-12 20:40:00","66169","1.79","230.3","3.136","231.7","1012.581","17.01","74.52","0.0","0.0"],
    [1519673,"2026-05-12 20:50:00","66170","1.517","244.2","3.0380000000000003","258.4","1012.676","16.95","74.36","0.0","0.0"],
    [1519674,"2026-05-12 21:00:00","66171","1.12","241.1","2.0580000000000003","251.2","1012.789","16.87","75.84","0.0","0.0"],
    [1519675,"2026-05-12 21:10:00","66172","1.3619999999999999","281.0","2.123","284.0","1012.736","16.82","75.42","0.0","0.0"],
    [1519676,"2026-05-12 21:20:00","66173","1.391","293.8","1.993","298.9","1012.744","16.77","76.02","0.0","0.0"],
    [1519677,"2026-05-12 21:30:00","66174","1.004","301.8","1.4369999999999998","293.0","1012.722","16.67","74.82","0.0","0.0"],
    [1519678,"2026-05-12 21:40:00","66175","0.7759999999999999","320.7","1.045","311.4","1012.683","16.69","75.38","0.0","0.0"],
    [1519679,"2026-05-12 21:50:00","66176","1.026","358.4","1.3719999999999999","0.09699999999999999","1012.738","16.73","74.78","0.0","0.0"],
    [1519680,"2026-05-12 22:00:00","66177","0.145","15.79","0.653","18.75","1012.81","16.78","75.53","0.0","0.0"],
    [1519681,"2026-05-12 22:10:00","66178","0.591","235.3","1.045","225.1","1012.878","16.71","74.36","0.0","0.0"],
    [1519682,"2026-05-12 22:20:00","66179","0.985","264.6","1.5030000000000001","243.3","1012.994","16.79","72.03","0.0","0.0"],
    [1519683,"2026-05-12 22:30:00","66180","0.44","304.2","1.045","284.1","1013.06","16.83","73.19","0.0","0.0"],
    [1519684,"2026-05-12 22:40:00","66181","0.557","45.73","1.013","72.21","1013.117","16.84","73.77","0.0","0.0"],
    [1519685,"2026-05-12 22:50:00","66182","1.8119999999999998","36.18","3.92","24.57","1013.198","16.93","73.9","0.0","0.0"],
    [1519686,"2026-05-12 23:00:00","66183","3.46","32.23","4.279","33.79","1013.236","16.58","80.5","0.0","0.0"],
    [1519687,"2026-05-12 23:10:00","66184","2.735","30.21","3.495","24.24","1013.327","16.51","79.85","0.0","0.0"],
    [1519688,"2026-05-12 23:20:00","66185","2.674","33.7","3.299","32.23","1013.251","16.62","80.2","0.0","0.0"],
    [1519689,"2026-05-12 23:30:00","66186","2.384","64.38","3.6910000000000003","53.63","1013.168","16.66","80.7","0.0","0.0"],
    [1519690,"2026-05-12 23:40:00","66187","1.939","75.53","2.548","76.93","1013.188","16.82","77.61","0.0","0.0"],
    [1519691,"2026-05-12 23:50:00","66188","1.639","65.34","2.254","64.96","1013.272","16.84","76.59","0.0","0.0"],
    [1519692,"2026-05-13 00:00:00","66189","2.021","62.77","3.267","71.79","1013.293","16.86","74.16","0.0","0.0"],
    [1519693,"2026-05-13 00:10:00","66190","2.775","74.54","3.43","75.87","1013.145","16.83","74.16","0.0","0.0"],
    [1519694,"2026-05-13 00:20:00","66191","2.544","79.3","3.528","75.32","1013.063","16.8","75.62","0.0","0.0"],
    [1519695,"2026-05-13 00:30:00","66192","2.634","51.12","3.495","46.42","1012.999","16.71","77.05","0.0","0.0"],
    [1519696,"2026-05-13 00:40:00","66193","2.008","48.61","2.6460000000000004","67.94","1012.986","16.62","77.71","0.0","0.0"],
    [1519697,"2026-05-13 00:50:00","66194","1.8659999999999999","72.95","2.613","87.4","1012.923","16.59","77.85","0.0","0.0"],
    [1519698,"2026-05-13 01:00:00","66195","1.716","85.6","2.515","84.2","1012.88","16.67","77.33","0.0","0.0"],
    [1519699,"2026-05-13 01:10:00","66196","1.88","98.5","2.483","102.6","1012.755","16.63","77.9","0.0","0.0"],
    [1519700,"2026-05-13 01:20:00","66197","1.0490000000000002","98.8","1.633","98.9","1012.739","16.59","78.71","0.0","0.0"],
    [1519701,"2026-05-13 01:30:00","66198","1.567","114.0","2.679","99.4","1012.672","16.59","78.75","0.0","0.0"],
    [1519702,"2026-05-13 01:40:00","66199","1.5330000000000001","118.1","2.417","126.4","1012.613","16.61","80.5","0.0","0.0"],
    [1519703,"2026-05-13 01:50:00","66200","1.5830000000000002","135.8","2.221","127.3","1012.551","16.57","80.9","0.0","0.0"],
    [1519704,"2026-05-13 02:00:00","66201","1.324","145.3","1.797","134.4","1012.468","16.56","79.93","0.0","0.0"],
    [1519705,"2026-05-13 02:10:00","66202","1.5419999999999998","186.0","2.254","264.7","1012.387","16.57","80.1","0.0","0.0"],
    [1519706,"2026-05-13 02:20:00","66203","2.029","257.4","3.397","277.5","1012.422","15.96","80.0","0.0","0.0"],
    [1519707,"2026-05-13 02:30:00","66204","2.234","271.2","3.7889999999999997","265.3","1012.467","15.56","80.4","0.0","0.0"],
    [1519708,"2026-05-13 02:40:00","66205","2.3209999999999997","277.6","3.267","277.5","1012.431","15.61","79.38","0.0","0.0"],
    [1519709,"2026-05-13 02:50:00","66206","2.063","280.8","3.103","275.2","1012.393","15.65","78.54","0.0","0.0"],
    [1519710,"2026-05-13 03:00:00","66207","1.8780000000000001","289.1","3.136","305.8","1012.347","15.72","77.64","0.0","0.0"],
    [1519711,"2026-05-13 03:10:00","66208","1.837","288.7","2.6460000000000004","297.2","1012.333","15.85","76.58","0.0","0.0"],
    [1519712,"2026-05-13 03:20:00","66209","1.7069999999999999","284.2","2.7110000000000003","274.1","1012.338","15.96","76.36","0.0","0.0"],
    [1519713,"2026-05-13 03:30:00","66210","1.245","258.9","2.7439999999999998","269.1","1012.351","16.01","76.47","0.0","0.0"],
    [1519714,"2026-05-13 03:40:00","66211","2.616","279.1","4.377","294.6","1012.33","16.06","73.38","0.0","0.0"],
    [1519715,"2026-05-13 03:50:00","66212","3.253","286.8","4.835","278.6","1012.408","16.29","69.08","0.0","0.0"],
    [1519716,"2026-05-13 04:00:00","66213","3.628","303.9","5.357","297.2","1012.447","16.18","69.27","0.0","0.0"],
    [1519717,"2026-05-13 04:10:00","66214","3.65","297.9","5.586","307.6","1012.478","16.03","68.19","0.0","0.0"],
    [1519718,"2026-05-13 04:20:00","66215","3.2030000000000003","296.0","5.194","283.8","1012.502","15.9","68.17","0.0","0.0"],
    [1519719,"2026-05-13 04:30:00","66216","3.9530000000000003","297.0","7.317","298.2","1012.551","15.81","66.55","0.0","0.0"],
    [1519720,"2026-05-13 04:40:00","66217","3.125","294.5","4.704","297.9","1012.607","15.71","65.78","0.0","0.0"],
    [1519721,"2026-05-13 04:50:00","66218","3.142","296.6","4.835","304.6","1012.66","15.6","65.12","0.0","0.0"],
    [1519722,"2026-05-13 05:00:00","66219","3.611","296.6","5.749","302.0","1012.685","15.5","64.7","0.0","0.0"],
    [1519723,"2026-05-13 05:10:00","66220","3.577","293.2","5.4879999999999995","301.3","1012.742","15.31","64.34","12.56","0.0"],
    [1519724,"2026-05-13 05:20:00","66221","3.675","294.1","6.141","304.6","1012.873","15.16","63.69","18.46","0.0"],
    [1519725,"2026-05-13 05:30:00","66222","4.159","290.5","7.317","287.4","1013.118","15.09","63.12","54.46","0.0"],
    [1519726,"2026-05-13 05:40:00","66223","4.515","296.0","6.893","318.5","1013.282","15.04","62.66","67.04","0.0"],
    [1519727,"2026-05-13 05:50:00","66224","5.122000000000001","292.7","8.04","301.5","1013.384","15.01","62.15","67.13","0.0"],
    [1519728,"2026-05-13 06:00:00","66225","4.738","295.8","6.893","298.1","1013.357","14.99","62.53","67.13","0.0"],
    [1519729,"2026-05-13 06:10:00","66226","3.935","294.3","6.239","283.9","1013.42","14.98","63.02","67.29","0.0"],
    [1519730,"2026-05-13 06:20:00","66227","4.104","293.0","5.847","279.9","1013.526","15.03","62.48","125.8","0.0"],
    [1519731,"2026-05-13 06:30:00","66228","3.222","290.1","5.292000000000001","282.4","1013.525","15.14","61.95","106.5","0.0"],
    [1519732,"2026-05-13 06:40:00","66229","2.7539999999999996","294.7","4.638999999999999","302.8","1013.633","15.31","61.03","189.9","0.0"],
    [1519733,"2026-05-13 06:50:00","66230","2.474","293.0","4.541","273.8","1013.666","15.59","60.21","346.0","0.0"],
    [1519734,"2026-05-13 07:00:00","66231","3.315","298.4","5.129","307.7","1013.769","15.61","60.22","342.8","0.0"],
    [1519735,"2026-05-13 07:10:00","66232","3.02","289.0","4.998","281.2","1013.881","15.65","60.01","351.1","0.0"],
    [1519736,"2026-05-13 07:20:00","66233","2.5180000000000002","285.6","4.018","266.1","1013.926","15.7","60.08","431.9","0.0"],
    [1519737,"2026-05-13 07:30:00","66234","2.38","277.0","4.4430000000000005","264.2","1013.964","16.0","59.39","436.6","0.0"],
    [1519738,"2026-05-13 07:40:00","66235","2.34","257.8","4.9","256.0","1013.972","16.12","59.37","495.4","0.0"],
    [1519739,"2026-05-13 07:50:00","66236","2.615","264.4","4.247","260.7","1013.941","16.11","59.41","503.2","0.0"],
    [1519740,"2026-05-13 08:00:00","66237","3.065","273.7","4.4430000000000005","270.3","1013.937","16.3","59.42","557.1","0.0"],
    [1519741,"2026-05-13 08:10:00","66238","2.3480000000000003","249.8","4.2139999999999995","284.1","1013.943","16.41","59.13","570.2","0.0"],
    [1519742,"2026-05-13 08:20:00","66239","2.101","266.9","3.5610000000000004","281.7","1013.972","16.62","58.5","609.7","0.0"],
    [1519743,"2026-05-13 08:30:00","66240","1.9509999999999998","273.6","3.985","271.2","1014","16.8","58.05","637.3","0.0"],
    [1519744,"2026-05-13 08:40:00","66241","0.9440000000000001","316.3","2.189","294.2","1013.96","16.89","57.85","638.0","0.0"],
    [1519745,"2026-05-13 08:50:00","66242","0.915","301.0","2.483","292.4","1013.904","17.2","56.64","697.8","0.0"],
    [1519746,"2026-05-13 09:00:00","66243","0.62","259.7","1.633","273.7","1013.843","17.49","56.19","704.2","0.0"],
    [1519747,"2026-05-13 09:10:00","66244","0.24100000000000002","5.672000000000001","1.111","57.89","1013.842","17.75","54.51","727.4","0.0"],
    [1519748,"2026-05-13 09:20:00","66245","1.137","45.26","2.6460000000000004","279.1","1013.911","17.73","55.73","737.8","0.0"],
    [1519749,"2026-05-13 09:30:00","66246","2.145","159.9","3.7889999999999997","250.9","1014.013","17.42","56.75","803.0","0.0"],
    [1519750,"2026-05-13 09:40:00","66247","1.473","167.8","3.071","198.4","1014.114","17.64","56.99","753.8","0.0"],
    [1519751,"2026-05-13 09:50:00","66248","1.807","129.3","4.279","73.4","1014.102","17.46","58.75","875.0","0.0"],
    [1519752,"2026-05-13 10:00:00","66249","2.436","217.7","4.606","225.2","1014.139","18.05","53.95","773.7","0.0"],
    [1519753,"2026-05-13 10:10:00","66250","1.829","237.8","3.7569999999999997","156.3","1014.146","18.17","53.25","904.0","0.0"],
    [1519754,"2026-05-13 10:20:00","66251","1.754","224.4","4.671","205.4","1014.189","18.48","51.97","749.5","0.0"],
    [1519755,"2026-05-13 10:30:00","66252","3.1860000000000004","181.2","5.586","178.0","1014.162","17.6","58.52","608.1","0.0"],
    [1519756,"2026-05-13 10:40:00","66253","5.153","179.5","6.7620000000000005","189.7","1014.092","17.25","63.48","1006.0","0.0"],
    [1519757,"2026-05-13 10:50:00","66254","5.854","176.0","6.827000000000001","173.4","1014.016","17.18","61.86","1077.0","0.0"],
    [1519758,"2026-05-13 11:00:00","66255","5.13","177.3","6.011","180.8","1014.039","17.19","62.01","1082.0","0.0"],
    [1519759,"2026-05-13 11:10:00","66256","5.224","172.3","6.403","176.3","1014.013","17.2","60.89","1020.0","0.0"],
    [1519760,"2026-05-13 11:20:00","66257","5.4079999999999995","165.5","6.207000000000001","163.8","1013.966","17.16","62.13","1035.0","0.0"],
    [1519761,"2026-05-13 11:30:00","66258","5.79","168.7","6.566","169.8","1013.938","17.07","63.41","825.0","0.0"],
    [1519762,"2026-05-13 11:40:00","66259","5.836","168.6","6.305","174.5","1013.869","17.1","62.22","918.0","0.0"],
    [1519763,"2026-05-13 11:50:00","66260","5.358","175.1","6.011","168.9","1013.865","17.27","62.53","893.0","0.0"],
    [1519764,"2026-05-13 12:00:00","66261","5.568","171.8","6.141","166.8","1013.775","17.19","63.52","394.7","0.0"],
    [1519765,"2026-05-13 12:10:00","66262","4.716","179.9","5.619","174.1","1013.858","17.41","62.81","531.1","0.0"],
    [1519766,"2026-05-13 12:20:00","66263","5.046","179.0","5.945","181.1","1013.805","17.37","63.58","390.0","0.0"],
    [1519767,"2026-05-13 12:30:00","66264","5.3870000000000005","182.8","6.697","174.4","1013.77","17.55","61.81","902.0","0.0"],
    [1519768,"2026-05-13 12:40:00","66265","4.971","181.2","6.109","175.0","1013.793","17.47","63.23","544.3","0.0"],
    [1519769,"2026-05-13 12:50:00","66266","5.187","181.4","6.468","176.6","1013.741","17.41","63.92","944.0","0.0"],
    [1519770,"2026-05-13 13:00:00","66267","4.953","187.7","5.945","184.5","1013.645","17.49","62.58","824.0","0.0"],
    [1519771,"2026-05-13 13:10:00","66268","4.269","189.3","5.4879999999999995","191.8","1013.593","17.62","60.77","615.6","0.0"],
    [1519772,"2026-05-13 13:20:00","66269","4.31","182.9","5.945","180.5","1013.522","17.73","58.81","909.0","0.0"],
    [1519773,"2026-05-13 13:30:00","66270","4.566","183.4","6.042999999999999","173.3","1013.443","17.82","59.21","886.0","0.0"],
    [1519774,"2026-05-13 13:40:00","66271","4.655","184.9","5.978","191.2","1013.428","17.79","59.63","839.0","0.0"],
    [1519775,"2026-05-13 13:50:00","66272","5.007","190.7","6.042999999999999","189.8","1013.362","17.82","58.93","839.0","0.0"],
    [1519776,"2026-05-13 14:00:00","66273","4.729","182.7","5.847","175.7","1013.282","17.91","58.9","790.4","0.0"],
    [1519777,"2026-05-13 14:10:00","66274","5.29","182.4","6.7620000000000005","183.7","1013.15","17.85","60.3","771.4","0.0"],
    [1519778,"2026-05-13 14:20:00","66275","4.955","179.7","6.239","177.6","1013.069","17.79","59.45","771.4","0.0"],
    [1519779,"2026-05-13 14:30:00","66276","5.457999999999999","186.6","6.827000000000001","190.4","1013.067","17.85","60.27","747.6","0.0"],
    [1519780,"2026-05-13 14:40:00","66277","5.296","186.6","6.599","193.4","1012.965","17.86","58.57","704.4","0.0"],
    [1519781,"2026-05-13 14:50:00","66278","4.828","188.0","6.042999999999999","177.2","1012.904","17.96","57.76","704.3","0.0"],
    [1519782,"2026-05-13 15:00:00","66279","5.357","185.9","6.631","180.2","1012.898","17.98","58.04","646.6","0.0"],
    [1519783,"2026-05-13 15:10:00","66280","5.481","175.7","7.023","161.0","1012.877","17.99","60.29","637.3","0.0"],
    [1519784,"2026-05-13 15:20:00","66281","5.518","171.2","6.664","173.1","1012.916","18.02","58.28","606.4","0.0"],
    [1519785,"2026-05-13 15:30:00","66282","5.015","161.2","6.0760000000000005","163.0","1012.934","18.01","58.87","570.2","0.0"],
    [1519786,"2026-05-13 15:40:00","66283","4.334","155.5","5.292000000000001","153.5","1012.917","18.04","57.46","568.5","0.0"],
    [1519787,"2026-05-13 15:50:00","66284","4.6610000000000005","160.6","5.7170000000000005","170.3","1012.869","18.07","57.82","505.6","0.0"],
    [1519788,"2026-05-13 16:00:00","66285","4.378","151.4","5.031000000000001","148.5","1012.845","18.1","58.08","502.6","0.0"],
    [1519789,"2026-05-13 16:10:00","66286","4.029","137.1","4.9","144.0","1012.813","18.0","59.86","438.9","0.0"],
    [1519790,"2026-05-13 16:20:00","66287","3.548","129.0","4.541","135.9","1012.738","18.02","59.79","424.4","0.0"],
    [1519791,"2026-05-13 16:30:00","66288","3.322","125.6","4.4430000000000005","111.6","1012.709","18.02","59.82","335.2","0.0"],
    [1519792,"2026-05-13 16:40:00","66289","3.533","118.1","4.312","112.5","1012.656","17.92","63.41","114.8","0.0"],
    [1519793,"2026-05-13 16:50:00","66290","2.8930000000000002","124.6","4.083","119.5","1012.602","17.86","62.26","134.2","0.0"],
    [1519794,"2026-05-13 17:00:00","66291","3.127","107.2","4.345","100.6","1012.565","17.82","62.53","73.9","0.0"],
    [1519795,"2026-05-13 17:10:00","66292","3.2710000000000004","92.8","4.4430000000000005","96.9","1012.6","17.64","64.59","114.4","0.0"],
    [1519796,"2026-05-13 17:20:00","66293","3.446","87.5","4.41","77.32","1012.565","17.61","64.41","92.8","0.0"],
    [1519797,"2026-05-13 17:30:00","66294","3.592","84.7","4.737","78.81","1012.57","17.63","64.29","203.5","0.0"],
    [1519798,"2026-05-13 17:40:00","66295","3.8360000000000003","74.33","5.031000000000001","75.77","1012.665","17.63","63.58","191.1","0.0"],
    [1519799,"2026-05-13 17:50:00","66296","4.238","73.23","5.684","66.78","1012.685","17.56","63.81","134.2","0.0"],
    [1519800,"2026-05-13 18:00:00","66297","4.658","73.13","5.978","74.52","1012.686","17.53","64.3","134.2","0.0"],
    [1519801,"2026-05-13 18:10:00","66298","4.3580000000000005","76.66","5.422999999999999","69.9","1012.703","17.53","64.84","93.3","0.0"],
    [1519802,"2026-05-13 18:20:00","66299","3.863","75.6","5.553","95.7","1012.72","17.54","65.22","67.09","0.0"],
    [1519803,"2026-05-13 18:30:00","66300","4.683","72.38","6.0760000000000005","75.44","1012.714","17.48","65.86","55.16","0.0"],
    [1519804,"2026-05-13 18:40:00","66301","4.902","73.49","6.207000000000001","69.18","1012.71","17.42","65.13","0.0","0.0"],
    [1519805,"2026-05-13 18:50:00","66302","4.8069999999999995","65.15","6.305","65.98","1012.745","17.41","67.94","0.0","0.0"],
    [1519806,"2026-05-13 19:00:00","66303","4.963","62.65","6.435","73.69","1012.672","17.4","69.45","0.0","0.0"],
    [1519807,"2026-05-13 19:10:00","66304","4.66","58.71","6.9910000000000005","58.4","1012.727","17.38","70.36","0.0","0.0"],
    [1519808,"2026-05-13 19:20:00","66305","4.82","54.92","6.925","70.21","1012.716","17.35","69.93","0.0","0.0"],
    [1519809,"2026-05-13 19:30:00","66306","4.3260000000000005","53.49","6.042999999999999","73.79","1012.717","17.37","70.19","0.0","0.0"],
    [1519810,"2026-05-13 19:40:00","66307","4.5280000000000005","46.91","6.0760000000000005","33.0","1012.737","17.35","68.48","0.0","0.0"],
    [1519811,"2026-05-13 19:50:00","66308","5.81","37.31","7.154","42.46","1012.769","17.36","66.98","0.0","0.0"],
    [1519812,"2026-05-13 20:00:00","66309","5.417999999999999","36.59","6.631","36.97","1012.843","17.38","66.68","0.0","0.0"],
    [1519813,"2026-05-13 20:10:00","66310","5.0889999999999995","37.01","6.501","38.33","1012.933","17.37","66.51","0.0","0.0"],
    [1519814,"2026-05-13 20:20:00","66311","4.614","32.61","5.782","35.95","1013.11","17.38","66.78","0.0","0.0"],
    [1519815,"2026-05-13 20:30:00","66312","4.334","32.34","5.651","42.43","1013.166","17.44","66.45","0.0","0.0"],
    [1519816,"2026-05-13 20:40:00","66313","4.753","26.05","5.586","17.53","1013.175","17.44","67.23","0.0","0.0"],
    [1519817,"2026-05-13 20:50:00","66314","4.373","25.79","5.4879999999999995","20.64","1013.269","17.42","67.22","0.0","0.0"],
    [1519818,"2026-05-13 21:00:00","66315","3.7769999999999997","27.42","4.638999999999999","20.49","1013.397","17.38","68.34","0.0","0.0"],
    [1519819,"2026-05-13 21:10:00","66316","4.11","19.88","4.802","20.32","1013.384","17.36","67.88","0.0","0.0"],
    [1519820,"2026-05-13 21:20:00","66317","4.059","16.11","4.965","7.468999999999999","1013.371","17.35","69.38","0.0","0.0"],
    [1519821,"2026-05-13 21:30:00","66318","3.75","21.18","4.998","20.96","1013.4","17.35","69.46","0.0","0.0"],
    [1519822,"2026-05-13 21:40:00","66319","3.4419999999999997","29.48","3.9530000000000003","33.54","1013.345","17.3","68.62","0.0","0.0"],
    [1519823,"2026-05-13 21:50:00","66320","2.7260000000000004","23.89","3.365","28.16","1013.324","17.29","69.13","0.0","0.0"],
    [1519824,"2026-05-13 22:00:00","66321","2.613","24.43","3.5610000000000004","33.33","1013.268","17.25","69.17","0.0","0.0"],
    [1519825,"2026-05-13 22:10:00","66322","2.153","23.67","2.907","28.03","1013.209","17.26","69.55","0.0","0.0"],
    [1519826,"2026-05-13 22:20:00","66323","2.3169999999999997","27.55","2.9730000000000003","17.66","1013.1","17.25","69.87","0.0","0.0"],
    [1519827,"2026-05-13 22:30:00","66324","2.394","28.56","2.842","27.35","1013.043","17.21","69.29","0.0","0.0"],
    [1519828,"2026-05-13 22:40:00","66325","2.302","24.44","2.9730000000000003","17.53","1012.939","17.21","69.86","0.0","0.0"],
    [1519829,"2026-05-13 22:50:00","66326","1.7409999999999999","34.99","2.352","28.32","1012.829","17.17","69.88","0.0","0.0"],
    [1519830,"2026-05-13 23:00:00","66327","1.206","52.11","1.699","47.15","1012.758","17.14","70.12","0.0","0.0"],
    [1519831,"2026-05-13 23:10:00","66328","0.9590000000000001","35.1","1.47","52.91","1012.678","17.11","70.14","0.0","0.0"],
    [1519832,"2026-05-13 23:20:00","66329","1.209","25.43","2.123","33.81","1012.528","17.06","70.63","0.0","0.0"],
    [1519833,"2026-05-13 23:30:00","66330","1.714","23.26","2.254","25.26","1012.4","17.04","70.2","0.0","0.0"],
    [1519834,"2026-05-13 23:40:00","66331","1.2890000000000001","25.93","1.993","15.55","1012.395","17.06","70.69","0.0","0.0"],
    [1519835,"2026-05-13 23:50:00","66332","0.624","12.46","0.8490000000000001","12.05","1012.307","17.02","71.38","0.0","0.0"],
    [1519836,"2026-05-14 00:00:00","66333","0.71","0.9470000000000001","1.405","345.3","1012.184","17.0","71.75","0.0","0.0"],
    [1519837,"2026-05-14 00:10:00","66334","0.99","338.2","1.601","351.9","1012.107","16.98","71.38","0.0","0.0"],
    [1519838,"2026-05-14 00:20:00","66335","1.2329999999999999","232.3","2.0580000000000003","223.3","1012.008","16.83","72.14","0.0","0.0"],
    [1519839,"2026-05-14 00:30:00","66336","1.547","252.6","2.548","250.4","1011.89","16.48","72.85","0.0","0.0"],
    [1519840,"2026-05-14 00:40:00","66337","1.391","250.0","2.287","261.4","1011.702","16.36","73.07","0.0","0.0"],
    [1519841,"2026-05-14 00:50:00","66338","1.338","254.9","2.156","264.2","1011.534","16.29","73.29","0.0","0.0"],
    [1519842,"2026-05-14 01:00:00","66339","1.361","257.1","1.8619999999999999","266.1","1011.376","16.28","73.32","0.0","0.0"],
    [1519843,"2026-05-14 01:10:00","66340","1.2","243.8","2.189","256.4","1011.308","16.27","73.29","0.0","0.0"],
    [1519844,"2026-05-14 01:20:00","66341","0.9129999999999999","239.0","1.9269999999999998","262.3","1011.213","16.28","73.09","0.0","0.0"],
    [1519845,"2026-05-14 01:30:00","66342","0.932","262.1","1.633","269.9","1011.081","16.3","72.69","0.0","0.0"],
    [1519846,"2026-05-14 01:40:00","66343","0.8220000000000001","263.0","1.405","275.5","1010.963","16.16","73.72","0.0","0.0"],
    [1519847,"2026-05-14 01:50:00","66344","0.5760000000000001","231.7","1.111","247.3","1010.832","16.14","73.12","0.0","0.0"],
    [1519848,"2026-05-14 02:00:00","66345","0.575","241.6","1.111","209.8","1010.788","16.16","72.15","0.0","0.0"],
    [1519849,"2026-05-14 02:10:00","66346","0.34","244.9","1.405","246.8","1010.689","16.21","69.87","0.0","0.0"],
    [1519850,"2026-05-14 02:20:00","66347","0.48","279.1","1.274","327.8","1010.636","16.19","69.34","0.0","0.0"],
    [1519851,"2026-05-14 02:30:00","66348","1.722","284.4","2.613","316.5","1010.592","16.24","61.07","0.0","0.0"],
    [1519852,"2026-05-14 02:40:00","66349","1.369","261.0","2.156","267.6","1010.562","16.34","60.14","0.0","0.0"],
    [1519853,"2026-05-14 02:50:00","66350","1.433","273.0","3.397","283.7","1010.482","16.19","61.0","0.0","0.0"],
    [1519854,"2026-05-14 03:00:00","66351","3.075","291.2","4.475","281.7","1010.488","16.42","53.22","0.0","0.0"],
    [1519855,"2026-05-14 03:10:00","66352","3.647","297.5","4.9","302.9","1010.464","16.49","51.36","0.0","0.0"],
    [1519856,"2026-05-14 03:20:00","66353","3.529","297.3","5.292000000000001","304.3","1010.432","16.36","51.12","0.0","0.0"],
    [1519857,"2026-05-14 03:30:00","66354","2.895","292.8","4.737","291.5","1010.325","16.23","51.48","0.0","0.0"],
    [1519858,"2026-05-14 03:40:00","66355","2.8110000000000004","291.6","4.018","289.9","1010.232","16.11","51.56","0.0","0.0"],
    [1519859,"2026-05-14 03:50:00","66356","2.986","285.0","4.247","286.7","1010.087","15.89","54.79","0.0","0.0"],
    [1519860,"2026-05-14 04:00:00","66357","3.3960000000000004","286.1","4.475","280.7","1009.995","15.73","56.79","0.0","0.0"],
    [1519861,"2026-05-14 04:10:00","66358","2.6319999999999997","295.0","3.7569999999999997","287.9","1009.992","15.65","56.45","0.0","0.0"],
    [1519862,"2026-05-14 04:20:00","66359","3.57","297.6","5.521","288.1","1009.958","15.62","55.05","0.0","0.0"],
    [1519863,"2026-05-14 04:30:00","66360","3.4419999999999997","301.9","4.965","286.4","1009.997","15.51","54.72","0.0","0.0"],
    [1519864,"2026-05-14 04:40:00","66361","2.437","290.0","4.835","272.2","1009.968","15.46","54.32","0.0","0.0"],
    [1519865,"2026-05-14 04:50:00","66362","2.9330000000000003","291.3","4.1160000000000005","294.8","1010.007","15.27","54.19","0.0","0.0"],
    [1519866,"2026-05-14 05:00:00","66363","2.8939999999999997","281.4","4.573","284.1","1010.056","15.14","54.72","7.16","0.0"],
    [1519867,"2026-05-14 05:10:00","66364","3.158","275.8","4.508","270.0","1010.097","14.99","55.51","49.06","0.0"],
    [1519868,"2026-05-14 05:20:00","66365","3.165","271.2","5.4879999999999995","274.9","1010.096","14.9","55.82","67.13","0.0"],
    [1519869,"2026-05-14 05:30:00","66366","3.888","280.9","6.305","276.4","1010.188","14.94","54.39","107.0","0.0"],
    [1519870,"2026-05-14 05:40:00","66367","3.965","285.9","6.795","286.7","1010.27","14.92","54.34","134.2","0.0"],
    [1519871,"2026-05-14 05:50:00","66368","4.3580000000000005","284.9","6.599","278.1","1010.357","14.87","54.19","160.4","0.0"],
    [1519872,"2026-05-14 06:00:00","66369","4.504","284.4","7.056","285.3","1010.328","14.88","53.67","201.3","0.0"],
    [1519873,"2026-05-14 06:10:00","66370","4.4239999999999995","288.5","6.305","274.1","1010.367","14.92","52.51","221.4","0.0"],
    [1519874,"2026-05-14 06:20:00","66371","4.891","288.5","7.056","258.2","1010.336","14.97","51.79","268.4","0.0"],
    [1519875,"2026-05-14 06:30:00","66372","4.198","286.1","6.272","277.7","1010.314","15.06","51.8","292.4","0.0"],
    [1519876,"2026-05-14 06:40:00","66373","5.1080000000000005","286.8","7.35","282.5","1010.19","15.13","51.25","335.5","0.0"],
    [1519877,"2026-05-14 06:50:00","66374","5.043","285.0","7.579","282.3","1010.181","15.24","51.02","361.9","0.0"],
    [1519878,"2026-05-14 07:00:00","66375","5.235","286.5","8.56","267.4","1010.159","15.37","50.76","402.6","0.0"],
    [1519879,"2026-05-14 07:10:00","66376","5.305","290.0","7.84","277.3","1010.138","15.37","50.85","420.4","0.0"],
    [1519880,"2026-05-14 07:20:00","66377","4.09","289.1","6.337000000000001","279.8","1010.081","15.57","50.86","436.1","0.0"],
    [1519881,"2026-05-14 07:30:00","66378","4.026","284.3","5.782","274.7","1010.023","15.8","50.58","475.4","0.0"],
    [1519882,"2026-05-14 07:40:00","66379","4.154","281.2","7.971","284.7","1010.052","16.1","49.7","503.2","0.0"],
    [1519883,"2026-05-14 07:50:00","66380","4.664","281.4","6.7620000000000005","280.1","1010.044","16.21","48.77","542.1","0.0"],
    [1519884,"2026-05-14 08:00:00","66381","4.363","292.9","7.579","304.6","1010.04","16.47","48.6","570.3","0.0"],
    [1519885,"2026-05-14 08:10:00","66382","4.756","301.8","7.6770000000000005","297.9","1009.957","16.32","48.73","600.8","0.0"],
    [1519886,"2026-05-14 08:20:00","66383","4.4319999999999995","304.8","7.742000000000001","296.1","1009.839","16.77","45.92","637.3","0.0"],
    [1519887,"2026-05-14 08:30:00","66384","4.177","318.6","6.925","332.9","1009.651","16.93","44.94","652.7","0.0"],
    [1519888,"2026-05-14 08:40:00","66385","3.923","305.4","7.252000000000001","305.9","1009.524","17.5","40.77","701.3","0.0"],
    [1519889,"2026-05-14 08:50:00","66386","4.039","313.2","7.611000000000001","307.6","1009.421","17.64","39.34","704.4","0.0"],
    [1519890,"2026-05-14 09:00:00","66387","6.101","317.0","10.62","316.8","1009.244","18.09","38.68","754.5","0.0"],
    [1519891,"2026-05-14 09:10:00","66388","6.346","314.7","9.8","325.7","1009.249","18.24","39.01","771.6","0.0"],
    [1519892,"2026-05-14 09:20:00","66389","4.272","306.8","7.415","315.6","1009.312","18.1","39.66","827.0","0.0"],
    [1519893,"2026-05-14 09:30:00","66390","3.76","310.8","6.435","299.4","1009.18","18.04","40.53","905.0","0.0"],
    [1519894,"2026-05-14 09:40:00","66391","2.481","282.5","5.88","333.6","1009.058","18.39","40.61","832.0","0.0"],
    [1519895,"2026-05-14 09:50:00","66392","1.575","72.9","4.247","201.8","1008.865","18.39","42.8","905.0","0.0"],
    [1519896,"2026-05-14 10:00:00","66393","3.282","186.6","5.455","202.3","1008.634","17.9","49.1","809.0","0.0"],
    [1519897,"2026-05-14 10:10:00","66394","4.037","185.8","6.042999999999999","199.3","1008.409","17.67","52.82","677.2","0.0"],
    [1519898,"2026-05-14 10:20:00","66395","5.37","173.9","9.02","189.0","1008.169","17.35","59.32","801.0","0.0"],
    [1519899,"2026-05-14 10:30:00","66396","3.1889999999999996","148.4","6.305","166.7","1008.047","17.7","53.01","477.2","0.0"],
    [1519900,"2026-05-14 10:40:00","66397","1.831","5.827999999999999","5.782","322.4","1008.045","18.2","48.4","415.5","0.0"],
    [1519901,"2026-05-14 10:50:00","66398","3.42","320.4","5.455","334.7","1008.001","18.75","42.32","463.9","0.0"],
    [1519902,"2026-05-14 11:00:00","66399","1.807","229.9","4.933","258.4","1007.923","19.27","45.23","455.2","0.0"],
    [1519903,"2026-05-14 11:10:00","66400","5.405","189.5","6.9910000000000005","193.0","1007.686","18.23","57.26","500.9","0.0"],
    [1519904,"2026-05-14 11:20:00","66401","3.089","164.9","6.042999999999999","170.7","1007.503","18.08","54.43","629.0","0.0"],
    [1519905,"2026-05-14 11:30:00","66402","2.072","162.0","7.742000000000001","267.9","1007.385","18.45","53.2","677.8","0.0"],
    [1519906,"2026-05-14 11:40:00","66403","4.029","278.5","7.513","280.7","1007.326","20.36","29.56","711.8","0.0"],
    [1519907,"2026-05-14 11:50:00","66404","6.465","299.5","10.26","307.6","1007.159","20.76","25.98","854.0","0.0"],
    [1519908,"2026-05-14 12:00:00","66405","5.271","308.3","10.81","313.6","1006.899","20.61","26.51","837.0","0.0"],
    [1519909,"2026-05-14 12:10:00","66406","3.985","286.4","6.827000000000001","256.3","1006.679","21.02","26.54","779.6","0.0"],
    [1519910,"2026-05-14 12:20:00","66407","5.949","302.9","10.65","286.6","1006.536","20.89","26.85","584.1","0.0"],
    [1519911,"2026-05-14 12:30:00","66408","7.353","310.5","10.58","323.1","1006.252","20.69","28.58","945.0","0.0"],
    [1519912,"2026-05-14 12:40:00","66409","6.024","300.0","9.67","281.5","1006.096","21.04","28.87","892.0","0.0"],
    [1519913,"2026-05-14 12:50:00","66410","5.398","307.1","8.85","328.4","1005.859","21.19","29.86","914.0","0.0"],
    [1519914,"2026-05-14 13:00:00","66411","5.622000000000001","295.5","9.93","276.3","1005.613","21.53","28.48","910.0","0.0"],
    [1519915,"2026-05-14 13:10:00","66412","5.632999999999999","289.9","9.18","317.4","1005.383","21.91","27.01","907.0","0.0"],
    [1519916,"2026-05-14 13:20:00","66413","4.926","283.9","10.13","273.8","1005.227","22.48","25.82","923.0","0.0"],
    [1519917,"2026-05-14 13:30:00","66414","4.484","292.0","8.79","315.7","1005.035","22.32","27.06","906.0","0.0"],
    [1519918,"2026-05-14 13:40:00","66415","5.122999999999999","283.6","8.82","269.9","1004.812","22.64","26.8","847.0","0.0"],
    [1519919,"2026-05-14 13:50:00","66416","3.966","283.6","8.23","313.1","1004.665","22.66","28.29","877.0","0.0"],
    [1519920,"2026-05-14 14:00:00","66417","5.484","287.4","11.24","314.4","1004.603","22.87","28.63","666.4","0.0"],
    [1519921,"2026-05-14 14:10:00","66418","6.263","298.1","10.45","310.0","1004.58","22.25","29.24","821.0","0.0"],
    [1519922,"2026-05-14 14:20:00","66419","5.644","297.8","9.73","317.1","1004.444","22.27","29.5","776.4","0.0"],
    [1519923,"2026-05-14 14:30:00","66420","6.11","288.8","10.13","289.7","1004.384","22.53","28.84","818.0","0.0"],
    [1519924,"2026-05-14 14:40:00","66421","7.016","295.8","10.42","302.3","1004.341","22.4","29.41","771.2","0.0"],
    [1519925,"2026-05-14 14:50:00","66422","5.204","279.2","9.44","300.9","1004.154","22.62","29.25","491.3","0.0"],
    [1519926,"2026-05-14 15:00:00","66423","6.563","292.9","10.42","287.1","1004.028","22.26","29.56","289.4","0.0"],
    [1519927,"2026-05-14 15:10:00","66424","6.769","299.1","10.26","307.8","1004.001","22.29","29.63","498.1","0.0"],
    [1519928,"2026-05-14 15:20:00","66425","7.629","293.0","13.16","287.8","1003.976","22.48","29.22","624.7","0.0"],
    [1519929,"2026-05-14 15:30:00","66426","7.622999999999999","292.7","13.85","285.2","1003.982","22.48","28.69","606.3","0.0"],
    [1519930,"2026-05-14 15:40:00","66427","7.035","278.3","12.22","286.1","1003.872","22.71","27.42","570.0","0.0"],
    [1519931,"2026-05-14 15:50:00","66428","7.018","284.5","11.86","274.7","1003.813","22.7","28.29","570.0","0.0"],
    [1519932,"2026-05-14 16:00:00","66429","6.164","267.0","12.15","242.7","1003.857","22.91","27.55","525.9","0.0"],
    [1519933,"2026-05-14 16:10:00","66430","6.157","260.0","11.6","268.0","1003.782","22.86","27.23","476.0","0.0"],
    [1519934,"2026-05-14 16:20:00","66431","7.056","292.6","11.4","294.9","1003.774","22.46","28.19","435.9","0.0"],
    [1519935,"2026-05-14 16:30:00","66432","7.558","292.9","11.66","290.6","1003.837","22.17","28.27","402.8","0.0"],
    [1519936,"2026-05-14 16:40:00","66433","6.792000000000001","291.9","10.75","277.7","1003.683","22.06","29.24","402.3","0.0"],
    [1519937,"2026-05-14 16:50:00","66434","6.568","294.6","10.91","297.4","1003.654","22.06","28.81","365.4","0.0"],
    [1519938,"2026-05-14 17:00:00","66435","7.496","297.1","13.07","282.5","1003.638","21.88","28.98","335.3","0.0"],
    [1519939,"2026-05-14 17:10:00","66436","6.181","302.1","11.86","309.0","1003.564","21.77","29.21","290.1","0.0"],
    [1519940,"2026-05-14 17:20:00","66437","8.0","297.4","12.61","285.4","1003.499","21.85","25.64","268.2","0.0"],
    [1519941,"2026-05-14 17:30:00","66438","6.042000000000001","300.6","10.13","297.6","1003.32","21.84","25.81","216.6","0.0"],
    [1519942,"2026-05-14 17:40:00","66439","5.2139999999999995","295.7","8.07","303.8","1003.32","21.86","26.47","200.5","0.0"],
    [1519943,"2026-05-14 17:50:00","66440","6.171","313.8","9.9","322.4","1003.328","21.42","29.45","148.3","0.0"],
    [1519944,"2026-05-14 18:00:00","66441","6.02","316.7","11.73","309.3","1003.385","21.18","29.47","134.1","0.0"],
    [1519945,"2026-05-14 18:10:00","66442","4.564","318.4","7.382999999999999","323.4","1003.421","21.1","30.33","46.02","0.0"],
    [1519946,"2026-05-14 18:20:00","66443","5.381","347.8","9.54","47.84","1003.761","20.37","39.34","8.24","0.0"],
    [1519947,"2026-05-14 18:30:00","66444","5.513999999999999","56.09","8.92","66.11","1003.962","17.13","69.39","12.24","0.0"],
    [1519948,"2026-05-14 18:40:00","66445","6.871","55.11","10.06","58.64","1003.927","16.73","76.78","0.0","0.0"],
    [1519949,"2026-05-14 18:50:00","66446","6.347","54.29","8.98","31.35","1004.011","16.22","81.1","0.0","0.0"],
    [1519950,"2026-05-14 19:00:00","66447","6.5889999999999995","59.31","9.28","58.42","1004.114","16.03","81.0","0.0","0.0"],
    [1519951,"2026-05-14 19:10:00","66448","6.149","59.1","9.15","58.32","1004.186","16.02","81.0","0.0","0.0"],
    [1519952,"2026-05-14 19:20:00","66449","6.377000000000001","56.56","8.95","55.27","1004.275","16.02","81.5","0.0","0.0"],
    [1519953,"2026-05-14 19:30:00","66450","6.43","40.12","9.24","52.08","1004.204","15.97","80.2","0.0","0.0"],
    [1519954,"2026-05-14 19:40:00","66451","6.405","61.55","9.02","57.23","1004.249","16.02","80.5","0.0","0.0"],
    [1519955,"2026-05-14 19:50:00","66452","6.917999999999999","64.23","10.22","65.9","1004.246","15.89","79.4","0.0","0.0"],
    [1519956,"2026-05-14 20:00:00","66453","7.257999999999999","68.87","9.51","75.17","1004.34","15.85","79.59","0.0","0.0"],
    [1519957,"2026-05-14 20:10:00","66454","7.007000000000001","62.87","9.96","79.1","1004.461","15.79","78.54","0.0","0.0"],
    [1519958,"2026-05-14 20:20:00","66455","5.244","58.23","7.579","64.13","1004.691","15.87","78.76","0.0","0.0"],
    [1519959,"2026-05-14 20:30:00","66456","5.524","53.56","7.938","61.99","1004.687","15.98","78.56","0.0","0.0"],
    [1519960,"2026-05-14 20:40:00","66457","6.191","60.08","8.2","53.89","1004.741","15.91","78.11","0.0","0.0"],
    [1519961,"2026-05-14 20:50:00","66458","6.194","58.26","8.33","57.14","1004.791","15.89","78.05","0.0","0.0"],
    [1519962,"2026-05-14 21:00:00","66459","5.252000000000001","63.07","8.3","60.21","1004.787","15.95","78.15","0.0","0.0"],
    [1519963,"2026-05-14 21:10:00","66460","5.122999999999999","62.3","7.252000000000001","72.31","1004.791","15.97","78.22","0.0","0.0"],
    [1519964,"2026-05-14 21:20:00","66461","4.92","61.85","6.729","62.18","1004.733","15.94","77.84","0.0","0.0"],
    [1519965,"2026-05-14 21:30:00","66462","4.97","60.52","6.925","54.96","1004.72","15.96","78.06","0.0","0.0"],
    [1519966,"2026-05-14 21:40:00","66463","4.7410000000000005","69.26","6.0760000000000005","68.79","1004.672","15.94","77.47","0.0","0.0"],
    [1519967,"2026-05-14 21:50:00","66464","4.03","66.45","6.599","64.97","1004.681","15.97","77.2","0.0","0.0"],
    [1519968,"2026-05-14 22:00:00","66465","5.244","76.7","7.252000000000001","79.01","1004.594","15.96","76.71","0.0","0.0"],
    [1519969,"2026-05-14 22:10:00","66466","4.755","71.74","6.272","77.77","1004.601","15.96","77.0","0.0","0.0"],
    [1519970,"2026-05-14 22:20:00","66467","3.783","57.34","5.129","32.65","1004.592","15.89","77.2","0.0","0.0"],
    [1519971,"2026-05-14 22:30:00","66468","4.324","57.0","5.7170000000000005","79.83","1004.492","15.9","77.26","0.0","0.0"],
    [1519972,"2026-05-14 22:40:00","66469","4.25","48.62","5.749","47.6","1004.47","15.89","76.36","0.0","0.0"],
    [1519973,"2026-05-14 22:50:00","66470","4.381","55.23","6.1739999999999995","58.29","1004.463","15.92","75.13","0.0","0.0"],
    [1519974,"2026-05-14 23:00:00","66471","4.46","63.7","5.912999999999999","72.79","1004.439","15.99","74.94","0.0","0.0"],
    [1519975,"2026-05-14 23:10:00","66472","4.295","64.81","6.141","61.71","1004.414","15.96","73.92","0.0","0.0"],
    [1519976,"2026-05-14 23:20:00","66473","3.6660000000000004","62.58","5.2589999999999995","56.37","1004.482","15.98","73.12","0.0","0.0"],
    [1519977,"2026-05-14 23:30:00","66474","3.4739999999999998","57.17","4.769","63.06","1004.5","16.01","73.53","0.0","0.0"],
    [1519978,"2026-05-14 23:40:00","66475","3.2439999999999998","60.33","4.965","75.4","1004.33","16.0","73.16","0.0","0.0"],
    [1519979,"2026-05-14 23:50:00","66476","3.472","51.31","4.508","44.98","1004.26","16.01","71.12","0.0","0.0"],
    [1519980,"2026-05-15 00:00:00","66477","3.755","51.2","5.2589999999999995","49.94","1004.199","15.98","71.2","0.0","0.0"],
    [1519981,"2026-05-15 00:10:00","66478","3.6439999999999997","52.1","4.933","51.31","1004.052","16.02","72.21","0.0","0.0"],
    [1519982,"2026-05-15 00:20:00","66479","2.799","26.76","3.887","359.1","1003.951","16.05","74.24","0.0","0.0"],
    [1519983,"2026-05-15 00:30:00","66480","3.87","14.66","5.39","27.8","1003.826","15.95","74.46","0.0","0.0"],
    [1519984,"2026-05-15 00:40:00","66481","2.9360000000000004","16.75","3.822","17.37","1003.791","15.74","73.87","0.0","0.0"],
    [1519985,"2026-05-15 00:50:00","66482","2.504","51.37","3.136","21.0","1003.52","15.78","74.54","0.0","0.0"],
    [1519986,"2026-05-15 01:00:00","66483","2.437","73.22","3.397","80.6","1003.241","15.7","75.12","0.0","0.0"],
    [1519987,"2026-05-15 01:10:00","66484","2.246","85.9","3.005","76.05","1002.959","15.8","76.4","0.0","0.0"],
    [1519988,"2026-05-15 01:20:00","66485","1.8159999999999998","76.78","2.8089999999999997","77.53","1002.761","15.76","76.06","0.0","0.0"],
    [1519989,"2026-05-15 01:30:00","66486","0.9420000000000001","104.7","1.8619999999999999","105.4","1002.705","15.91","74.36","0.0","0.0"],
    [1519990,"2026-05-15 01:40:00","66487","0.52","175.4","1.568","176.8","1002.533","16.05","73.16","0.0","0.0"],
    [1519991,"2026-05-15 01:50:00","66488","0.736","90.0","1.339","82.6","1002.24","16.01","71.11","0.0","0.0"],
    [1519992,"2026-05-15 02:00:00","66489","0.905","70.09","1.535","67.83","1002.001","16.07","73.35","0.0","0.0"],
    [1519993,"2026-05-15 02:10:00","66490","1.05","314.4","2.6460000000000004","321.3","1002.164","16.03","71.97","0.0","0.0"],
    [1519994,"2026-05-15 02:20:00","66491","2.205","322.4","3.6910000000000003","307.3","1002.156","16.03","74.7","0.0","0.0"],
    [1519995,"2026-05-15 02:30:00","66492","3.24","326.7","4.247","316.1","1002.053","16.01","73.17","0.0","0.0"],
    [1519996,"2026-05-15 02:40:00","66493","2.775","325.8","4.312","347.6","1001.882","15.98","74.71","0.0","0.0"],
    [1519997,"2026-05-15 02:50:00","66494","6.455","8.74","9.51","357.3","1001.805","15.23","76.34","0.0","0.0"],
    [1519998,"2026-05-15 03:00:00","66495","6.447","332.3","8.95","326.9","1002.071","15.2","53.06","0.0","0.0"],
    [1519999,"2026-05-15 03:10:00","66496","5.122000000000001","332.8","7.382999999999999","332.5","1002.242","15.24","50.58","0.0","0.0"],
    [1520000,"2026-05-15 03:20:00","66497","5.107","337.8","8.13","315.8","1002.249","15.04","50.89","0.0","0.0"],
    [1520001,"2026-05-15 03:30:00","66498","5.041","320.7","7.709","319.5","1002.18","14.8","51.22","0.0","0.0"],
    [1520002,"2026-05-15 03:40:00","66499","5.0089999999999995","310.8","9.11","319.2","1002.132","14.75","52.08","0.0","0.0"],
    [1520003,"2026-05-15 03:50:00","66500","5.2170000000000005","306.8","8.75","305.1","1002.066","14.69","52.35","0.0","0.0"],
    [1520004,"2026-05-15 04:00:00","66501","5.457999999999999","312.7","9.05","322.3","1002.051","14.61","52.53","0.0","0.0"],
    [1520005,"2026-05-15 04:10:00","66502","7.03","316.0","10.81","322.1","1002.256","14.49","53.25","0.0","0.0"],
    [1520006,"2026-05-15 04:20:00","66503","6.497000000000001","325.8","10.03","330.7","1002.389","14.32","54.24","0.0","0.0"],
    [1520007,"2026-05-15 04:30:00","66504","6.1370000000000005","326.4","9.02","330.9","1002.375","14.19","54.13","0.0","0.0"],
    [1520008,"2026-05-15 04:40:00","66505","5.725","318.8","7.611000000000001","329.1","1002.406","14.11","54.61","0.0","0.0"],
    [1520009,"2026-05-15 04:50:00","66506","5.142","304.8","9.15","300.2","1002.516","14.03","54.2","0.0","0.0"],
    [1520010,"2026-05-15 05:00:00","66507","5.199","296.5","7.35","287.8","1002.611","14.02","54.05","0.0","0.0"],
    [1520011,"2026-05-15 05:10:00","66508","5.431","312.4","7.905","321.7","1002.617","14.06","55.04","0.0","0.0"],
    [1520012,"2026-05-15 05:20:00","66509","5.347","309.6","8.53","323.0","1002.598","14.08","54.78","0.0","0.0"],
    [1520013,"2026-05-15 05:30:00","66510","4.16","307.6","7.187","309.8","1002.742","14.08","55.51","0.0","0.0"],
    [1520014,"2026-05-15 05:40:00","66511","3.1919999999999997","311.4","4.704","341.4","1002.724","14.01","54.98","4.923","0.0"],
    [1520015,"2026-05-15 05:50:00","66512","4.54","322.0","7.187","329.6","1002.782","14.02","55.64","46.88","0.0"],
    [1520016,"2026-05-15 06:00:00","66513","5.632999999999999","319.5","8.2","324.3","1002.861","13.98","55.66","67.05","0.0"],
    [1520017,"2026-05-15 06:10:00","66514","5.365","327.5","7.35","330.8","1002.907","13.98","56.91","66.74","0.0"],
    [1520018,"2026-05-15 06:20:00","66515","5.671","322.4","7.905","319.0","1002.957","13.96","57.16","67.13","0.0"],
    [1520019,"2026-05-15 06:30:00","66516","5.978","321.0","8.43","319.8","1003.051","13.94","55.96","67.13","0.0"],
    [1520020,"2026-05-15 06:40:00","66517","5.5729999999999995","314.0","7.938","317.2","1003.079","13.95","56.28","67.13","0.0"],
    [1520021,"2026-05-15 06:50:00","66518","4.9","313.9","7.611000000000001","319.8","1003.007","14.04","56.23","67.13","0.0"],
    [1520022,"2026-05-15 07:00:00","66519","5.122999999999999","322.2","7.023","314.1","1003.066","14.01","55.93","67.13","0.0"],
    [1520023,"2026-05-15 07:10:00","66520","4.7669999999999995","326.0","6.435","330.1","1003.128","14.04","56.47","67.13","0.0"],
    [1520024,"2026-05-15 07:20:00","66521","3.4389999999999996","321.0","5.586","334.4","1003.254","14.06","55.83","67.13","0.0"],
    [1520025,"2026-05-15 07:30:00","66522","2.97","319.3","5.031000000000001","310.4","1003.351","14.1","55.51","67.13","0.0"],
    [1520026,"2026-05-15 07:40:00","66523","3.623","329.6","5.4879999999999995","323.0","1003.439","14.16","56.01","67.13","0.0"],
    [1520027,"2026-05-15 07:50:00","66524","3.37","321.8","5.227","321.6","1003.4","14.07","55.58","67.13","0.0"],
    [1520028,"2026-05-15 08:00:00","66525","2.807","328.0","4.345","333.5","1003.514","14.17","55.93","67.13","0.0"],
    [1520029,"2026-05-15 08:10:00","66526","3.2560000000000002","324.9","4.704","327.2","1003.606","14.15","55.46","67.13","0.0"],
    [1520030,"2026-05-15 08:20:00","66527","2.9389999999999996","335.0","4.2139999999999995","316.0","1003.724","14.2","55.98","67.13","0.0"],
    [1520031,"2026-05-15 08:30:00","66528","2.206","338.4","3.463","345.9","1003.914","14.22","55.51","67.13","0.0"],
    [1520032,"2026-05-15 08:40:00","66529","1.44","337.8","2.7769999999999997","339.0","1004.075","14.24","55.04","67.13","0.0"],
    [1520033,"2026-05-15 08:50:00","66530","1.43","341.8","2.352","342.7","1004.318","14.33","54.98","67.13","0.0"],
    [1520034,"2026-05-15 09:00:00","66531","2.617","8.07","3.7889999999999997","4.765","1004.392","14.36","54.18","98.4","0.0"],
    [1520035,"2026-05-15 09:10:00","66532","3.219","18.84","4.704","18.28","1004.412","14.28","54.36","134.3","0.0"],
    [1520036,"2026-05-15 09:20:00","66533","3.177","20.03","4.508","11.85","1004.301","14.27","55.32","134.3","0.0"],
    [1520037,"2026-05-15 09:30:00","66534","2.383","15.87","3.5610000000000004","7.568","1004.364","14.28","54.65","136.7","0.0"],
    [1520038,"2026-05-15 09:40:00","66535","1.716","9.7","3.071","21.07","1004.43","14.38","54.75","197.1","0.0"],
    [1520039,"2026-05-15 09:50:00","66536","1.621","358.4","2.842","10.76","1004.564","14.42","54.34","201.4","0.0"],
    [1520040,"2026-05-15 10:00:00","66537","1.528","300.3","2.417","296.0","1004.734","14.52","53.76","201.4","0.0"],
    [1520041,"2026-05-15 10:10:00","66538","1.237","306.6","2.0580000000000003","289.2","1004.778","14.55","53.14","201.4","0.0"],
    [1520042,"2026-05-15 10:20:00","66539","1.626","287.3","3.659","258.0","1004.746","14.62","53.03","227.1","0.0"],
    [1520043,"2026-05-15 10:30:00","66540","2.1959999999999997","264.7","3.7569999999999997","284.2","1004.909","14.9","51.84","268.5","0.0"],
    [1520044,"2026-05-15 10:40:00","66541","2.423","249.2","4.769","267.7","1004.98","14.9","51.95","275.7","0.0"],
    [1520045,"2026-05-15 10:50:00","66542","2.627","273.7","4.051","259.1","1004.963","14.92","51.91","368.1","0.0"],
    [1520046,"2026-05-15 11:00:00","66543","2.1519999999999997","285.8","3.7239999999999998","298.8","1004.979","14.92","52.07","402.7","0.0"],
    [1520047,"2026-05-15 11:10:00","66544","1.68","299.0","3.005","310.0","1004.959","14.93","51.95","404.8","0.0"],
    [1520048,"2026-05-15 11:20:00","66545","2.384","290.1","4.345","272.8","1004.931","15.3","51.06","446.1","0.0"],
    [1520049,"2026-05-15 11:30:00","66546","2.285","271.5","4.2139999999999995","279.3","1005.004","15.46","50.45","528.8","0.0"],
    [1520050,"2026-05-15 11:40:00","66547","1.5230000000000001","287.1","2.352","276.6","1004.947","15.45","50.21","616.4","0.0"],
    [1520051,"2026-05-15 11:50:00","66548","0.622","338.2","1.2409999999999999","315.8","1004.845","15.7","50.35","595.6","0.0"],
    [1520052,"2026-05-15 12:00:00","66549","1.5330000000000001","262.4","3.071","299.6","1004.828","15.94","48.73","548.1","0.0"],
    [1520053,"2026-05-15 12:10:00","66550","1.147","167.7","5.129","167.5","1004.762","16.34","47.6","577.6","0.0"],
    [1520054,"2026-05-15 12:20:00","66551","5.4879999999999995","178.5","6.697","173.9","1004.727","15.58","54.99","688.1","0.0"],
    [1520055,"2026-05-15 12:30:00","66552","5.351","177.0","6.7620000000000005","163.4","1004.794","15.43","56.13","514.7","0.0"],
    [1520056,"2026-05-15 12:40:00","66553","5.6770000000000005","180.3","7.644","194.2","1004.855","15.48","55.31","722.9","0.0"],
    [1520057,"2026-05-15 12:50:00","66554","5.944","178.9","7.415","173.3","1004.959","15.58","52.8","720.0","0.0"],
    [1520058,"2026-05-15 13:00:00","66555","6.244","177.2","8.23","173.9","1005.012","15.68","53.15","764.9","0.0"],
    [1520059,"2026-05-15 13:10:00","66556","5.525","186.3","7.481","170.4","1005.162","15.7","51.88","584.6","0.0"],
    [1520060,"2026-05-15 13:20:00","66557","5.625","182.1","7.546","170.2","1005.217","15.81","52.33","651.8","0.0"],
    [1520061,"2026-05-15 13:30:00","66558","5.615","182.3","7.546","189.1","1005.145","15.8","53.3","571.5","0.0"],
    [1520062,"2026-05-15 13:40:00","66559","6.202999999999999","180.3","8.82","170.8","1005.077","15.96","54.05","608.4","0.0"],
    [1520063,"2026-05-15 13:50:00","66560","6.459","179.9","8.4","171.3","1005.104","15.74","56.28","658.4","0.0"],
    [1520064,"2026-05-15 14:00:00","66561","6.103","181.1","8.36","170.7","1005.167","15.76","54.16","756.6","0.0"],
    [1520065,"2026-05-15 14:10:00","66562","6.351","175.5","8.07","171.5","1005.202","15.74","56.4","688.5","0.0"],
    [1520066,"2026-05-15 14:20:00","66563","6.2","172.4","7.35","166.5","1005.228","15.79","55.85","640.8","0.0"],
    [1520067,"2026-05-15 14:30:00","66564","5.419","184.7","7.35","190.9","1005.278","15.84","54.97","610.9","0.0"],
    [1520068,"2026-05-15 14:40:00","66565","5.274","191.9","7.513","193.0","1005.455","15.87","56.09","262.5","0.0"],
    [1520069,"2026-05-15 14:50:00","66566","3.989","213.9","6.501","197.5","1005.878","16.03","52.95","99.9","0.0"],
    [1520070,"2026-05-15 15:00:00","66567","4.2589999999999995","254.5","9.67","285.1","1006.187","16.28","49.51","67.1","0.0"],
    [1520071,"2026-05-15 15:10:00","66568","3.984","199.6","8.43","154.9","1005.538","15.76","46.77","72.16","0.0"],
    [1520072,"2026-05-15 15:20:00","66569","7.3660000000000005","177.1","9.83","153.6","1004.856","15.73","49.9","185.0","0.0"],
    [1520073,"2026-05-15 15:30:00","66570","7.308","184.7","9.6","188.8","1005.243","15.2","54.79","434.7","0.0"],
    [1520074,"2026-05-15 15:40:00","66571","4.94","189.2","8.3","177.6","1005.651","15.35","52.65","524.7","0.0"],
    [1520075,"2026-05-15 15:50:00","66572","2.1830000000000003","145.4","3.332","190.2","1006.149","15.96","48.58","551.4","0.0"],
    [1520076,"2026-05-15 16:00:00","66573","3.073","69.57","7.872999999999999","81.3","1006.312","16.0","48.48","183.3","0.0"],
    [1520077,"2026-05-15 16:10:00","66574","5.472","45.52","11.01","25.71","1006.361","14.97","58.7","168.4","0.0"],
    [1520078,"2026-05-15 16:20:00","66575","5.099","32.5","9.38","14.16","1006.434","14.48","62.05","164.7","0.0"],
    [1520079,"2026-05-15 16:30:00","66576","6.006","47.24","9.24","73.06","1006.618","14.39","61.51","398.9","0.0"],
    [1520080,"2026-05-15 16:40:00","66577","6.307","79.71","8.59","77.84","1006.873","14.44","58.78","323.1","0.0"],
    [1520081,"2026-05-15 16:50:00","66578","5.8","92.0","7.35","99.6","1006.961","14.58","57.25","367.4","0.0"],
    [1520082,"2026-05-15 17:00:00","66579","4.7330000000000005","100.3","7.382999999999999","106.1","1007.023","14.66","55.89","295.4","0.0"],
    [1520083,"2026-05-15 17:10:00","66580","4.397","79.83","6.042999999999999","77.47","1007.132","14.63","57.29","129.7","0.0"],
    [1520084,"2026-05-15 17:20:00","66581","3.616","82.7","4.965","83.6","1007.31","14.66","58.87","67.11","0.0"],
    [1520085,"2026-05-15 17:30:00","66582","4.008","94.4","5.586","98.1","1007.24","14.71","59.41","67.11","0.0"],
    [1520086,"2026-05-15 17:40:00","66583","3.9130000000000003","104.7","5.847","98.6","1007.314","14.65","61.82","67.11","0.0"],
    [1520087,"2026-05-15 17:50:00","66584","4.762","119.1","6.435","117.6","1007.388","14.58","61.11","67.11","0.0"],
    [1520088,"2026-05-15 18:00:00","66585","4.0969999999999995","119.3","5.521","127.7","1007.564","14.74","59.87","67.12","0.0"],
    [1520089,"2026-05-15 18:10:00","66586","3.52","122.9","4.247","114.3","1007.801","14.79","59.19","110.5","0.0"],
    [1520090,"2026-05-15 18:20:00","66587","3.247","127.2","4.541","103.7","1007.913","14.94","58.48","131.7","0.0"],
    [1520091,"2026-05-15 18:30:00","66588","3.403","119.9","4.606","115.5","1008.008","15.0","59.86","71.48","0.0"],
    [1520092,"2026-05-15 18:40:00","66589","2.9330000000000003","121.4","3.887","117.4","1008.251","14.89","61.36","19.52","0.0"],
    [1520093,"2026-05-15 18:50:00","66590","2.845","112.3","4.1160000000000005","118.8","1008.424","14.89","61.59","0.0","0.0"],
    [1520094,"2026-05-15 19:00:00","66591","2.909","115.7","4.279","117.1","1008.5","14.93","59.97","0.0","0.0"],
    [1520095,"2026-05-15 19:10:00","66592","3.362","130.5","4.083","120.0","1008.619","14.99","62.3","0.0","0.0"],
    [1520096,"2026-05-15 19:20:00","66593","3.23","136.0","4.508","135.7","1008.696","14.96","63.22","0.0","0.0"],
    [1520097,"2026-05-15 19:30:00","66594","2.625","127.1","3.92","126.4","1008.878","14.95","62.93","0.0","0.0"],
    [1520098,"2026-05-15 19:40:00","66595","2.964","127.2","3.7239999999999998","114.6","1008.995","14.98","63.04","0.0","0.0"],
    [1520099,"2026-05-15 19:50:00","66596","2.555","133.8","3.6260000000000003","124.6","1009.276","14.99","63.33","0.0","0.0"],
    [1520100,"2026-05-15 20:00:00","66597","2.807","120.1","3.855","96.5","1009.455","14.89","62.91","0.0","0.0"],
    [1520101,"2026-05-15 20:10:00","66598","2.323","121.1","4.279","102.6","1009.644","14.85","63.73","0.0","0.0"],
    [1520102,"2026-05-15 20:20:00","66599","2.633","111.6","3.9530000000000003","124.9","1009.81","14.87","64.68","0.0","0.0"],
    [1520103,"2026-05-15 20:30:00","66600","2.445","121.8","3.985","149.9","1009.887","14.82","65.68","0.0","0.0"],
    [1520104,"2026-05-15 20:40:00","66601","2.9730000000000003","146.3","4.802","140.1","1010.004","14.88","68.53","0.0","0.0"],
    [1520105,"2026-05-15 20:50:00","66602","4.133","150.8","5.586","153.9","1010.142","14.61","71.44","0.0","0.0"],
    [1520106,"2026-05-15 21:00:00","66603","3.67","160.5","4.9","160.4","1010.236","14.42","71.79","0.0","0.0"],
    [1520107,"2026-05-15 21:10:00","66604","4.228","161.7","5.194","159.7","1010.32","14.4","72.43","0.0","0.0"],
    [1520108,"2026-05-15 21:20:00","66605","3.54","167.8","4.573","168.6","1010.508","14.32","71.74","0.0","0.0"],
    [1520109,"2026-05-15 21:30:00","66606","3.5260000000000002","169.5","4.835","165.3","1010.634","14.36","71.44","0.0","0.0"],
    [1520110,"2026-05-15 21:40:00","66607","2.983","166.2","4.149","164.4","1010.7","14.29","71.66","0.0","0.0"],
    [1520111,"2026-05-15 21:50:00","66608","3.0589999999999997","183.9","3.985","193.6","1010.762","14.31","72.19","0.0","0.0"],
    [1520112,"2026-05-15 22:00:00","66609","1.8730000000000002","189.0","2.7110000000000003","189.0","1010.876","14.31","72.17","0.0","0.0"],
    [1520113,"2026-05-15 22:10:00","66610","1.795","213.6","2.9730000000000003","213.8","1011.029","14.28","71.82","0.0","0.0"],
    [1520114,"2026-05-15 22:20:00","66611","0.857","243.5","1.633","202.7","1011.149","14.23","71.95","0.0","0.0"],
    [1520115,"2026-05-15 22:30:00","66612","0.7879999999999999","281.6","1.111","270.9","1011.173","14.2","72.66","0.0","0.0"],
    [1520116,"2026-05-15 22:40:00","66613","0.8590000000000001","264.4","1.3719999999999999","257.8","1011.227","14.16","72.75","0.0","0.0"],
    [1520117,"2026-05-15 22:50:00","66614","0.9540000000000001","264.3","1.764","277.2","1011.323","14.2","72.74","0.0","0.0"],
    [1520118,"2026-05-15 23:00:00","66615","1.067","224.0","1.797","230.9","1011.236","14.3","72.5","0.0","0.0"],
    [1520119,"2026-05-15 23:10:00","66616","1.064","224.9","1.666","199.6","1011.241","14.41","71.91","0.0","0.0"],
    [1520120,"2026-05-15 23:20:00","66617","1.147","256.5","1.895","251.1","1011.263","14.39","72.18","0.0","0.0"],
    [1520121,"2026-05-15 23:30:00","66618","1.7480000000000002","268.2","2.94","290.3","1011.323","14.28","72.59","0.0","0.0"],
    [1520122,"2026-05-15 23:40:00","66619","1.605","265.3","2.319","262.9","1011.287","14.0","73.9","0.0","0.0"],
    [1520123,"2026-05-15 23:50:00","66620","1.705","296.0","2.254","275.4","1011.338","13.95","74.8","0.0","0.0"],
    [1520124,"2026-05-16 00:00:00","66621","1.156","307.9","1.666","305.6","1011.284","14.09","74.69","0.0","0.0"],
    [1520125,"2026-05-16 00:10:00","66622","1.247","303.4","2.0580000000000003","314.9","1011.31","14.15","74.81","0.0","0.0"],
    [1520126,"2026-05-16 00:20:00","66623","1.067","304.9","2.025","300.9","1011.32","14.24","74.2","0.0","0.0"],
    [1520127,"2026-05-16 00:30:00","66624","1.103","304.4","1.8619999999999999","311.5","1011.284","14.29","73.86","0.0","0.0"],
    [1520128,"2026-05-16 00:40:00","66625","1.08","256.4","2.352","264.3","1011.264","14.2","73.01","0.0","0.0"],
    [1520129,"2026-05-16 00:50:00","66626","1.777","269.5","3.201","296.1","1011.267","14.09","74.11","0.0","0.0"],
    [1520130,"2026-05-16 01:00:00","66627","1.614","268.1","2.5810000000000004","247.0","1011.2","13.92","74.87","0.0","0.0"],
    [1520131,"2026-05-16 01:10:00","66628","1.6440000000000001","285.1","2.613","299.0","1011.192","13.97","75.09","0.0","0.0"],
    [1520132,"2026-05-16 01:20:00","66629","1.835","286.9","2.385","278.2","1011.215","14.05","74.62","0.0","0.0"],
    [1520133,"2026-05-16 01:30:00","66630","1.53","272.9","2.0580000000000003","271.5","1011.28","13.93","75.25","0.0","0.0"],
    [1520134,"2026-05-16 01:40:00","66631","1.834","269.6","2.7110000000000003","265.0","1011.343","13.7","76.23","0.0","0.0"],
    [1520135,"2026-05-16 01:50:00","66632","1.611","268.8","2.5810000000000004","282.3","1011.389","13.56","76.83","0.0","0.0"],
    [1520136,"2026-05-16 02:00:00","66633","2.441","294.0","4.573","299.1","1011.453","13.77","75.3","0.0","0.0"],
    [1520137,"2026-05-16 02:10:00","66634","3.222","290.4","4.671","283.2","1011.599","13.82","64.9","0.0","0.0"],
    [1520138,"2026-05-16 02:20:00","66635","3.4589999999999996","294.8","5.1610000000000005","289.2","1011.684","13.67","55.5","0.0","0.0"],
    [1520139,"2026-05-16 02:30:00","66636","3.6310000000000002","294.0","5.1610000000000005","292.2","1011.755","13.59","53.19","0.0","0.0"],
    [1520140,"2026-05-16 02:40:00","66637","3.67","293.3","5.063","294.3","1011.849","13.44","53.57","0.0","0.0"],
    [1520141,"2026-05-16 02:50:00","66638","4.864","297.8","7.513","296.8","1011.915","13.21","54.81","0.0","0.0"],
    [1520142,"2026-05-16 03:00:00","66639","5.426","300.2","8.0","303.4","1011.839","12.76","55.29","0.0","0.0"],
    [1520143,"2026-05-16 03:10:00","66640","5.252999999999999","298.9","8.56","313.8","1011.86","12.44","55.59","0.0","0.0"],
    [1520144,"2026-05-16 03:20:00","66641","4.188","297.8","6.631","307.2","1011.781","12.32","57.14","0.0","0.0"],
    [1520145,"2026-05-16 03:30:00","66642","4.277","307.9","6.109","310.9","1011.795","12.36","59.41","0.0","0.0"],
    [1520146,"2026-05-16 03:40:00","66643","3.8560000000000003","303.6","6.141","295.7","1011.855","12.43","60.8","0.0","0.0"],
    [1520147,"2026-05-16 03:50:00","66644","3.9810000000000003","298.7","5.782","313.6","1011.871","12.28","59.63","0.0","0.0"],
    [1520148,"2026-05-16 04:00:00","66645","4.1339999999999995","289.5","5.619","289.5","1011.969","12.18","58.34","0.0","0.0"],
    [1520149,"2026-05-16 04:10:00","66646","4.641","293.3","6.893","288.3","1011.908","12.15","57.32","0.0","0.0"],
    [1520150,"2026-05-16 04:20:00","66647","3.648","285.1","6.109","288.3","1011.887","11.87","57.73","0.0","0.0"],
    [1520151,"2026-05-16 04:30:00","66648","3.323","289.0","5.88","299.6","1011.945","11.87","58.02","0.0","0.0"],
    [1520152,"2026-05-16 04:40:00","66649","3.4139999999999997","284.1","6.272","303.3","1012.104","12.0","57.4","0.0","0.0"],
    [1520153,"2026-05-16 04:50:00","66650","2.472","252.7","4.41","254.3","1012.263","11.78","56.86","0.0","0.0"],
    [1520154,"2026-05-16 05:00:00","66651","3.093","256.4","4.802","257.5","1012.249","11.54","58.18","33.32","0.0"],
    [1520155,"2026-05-16 05:10:00","66652","3.053","248.0","5.749","251.5","1012.42","11.17","60.16","67.15","0.0"],
    [1520156,"2026-05-16 05:20:00","66653","3.182","264.7","5.194","261.2","1012.552","11.09","60.17","67.15","0.0"],
    [1520157,"2026-05-16 05:30:00","66654","2.3930000000000002","272.9","4.508","268.4","1012.664","11.3","59.54","73.0","0.0"],
    [1520158,"2026-05-16 05:40:00","66655","3.3539999999999996","276.7","5.096","283.3","1012.796","11.54","58.26","134.3","0.0"],
    [1520159,"2026-05-16 05:50:00","66656","2.911","266.2","5.88","274.3","1012.958","11.63","57.41","164.4","0.0"],
    [1520160,"2026-05-16 06:00:00","66657","4.027","273.3","6.664","279.0","1013.169","11.79","55.75","201.4","0.0"],
    [1520161,"2026-05-16 06:10:00","66658","5.183","281.2","7.872999999999999","280.0","1013.219","11.65","55.82","249.1","0.0"],
    [1520162,"2026-05-16 06:20:00","66659","5.279","285.8","8.23","288.4","1013.227","11.57","55.16","268.5","0.0"],
    [1520163,"2026-05-16 06:30:00","66660","4.631","279.9","6.795","283.1","1013.163","11.81","54.23","318.4","0.0"],
    [1520164,"2026-05-16 06:40:00","66661","3.5989999999999998","275.4","5.847","275.0","1013.244","12.06","53.72","335.6","0.0"],
    [1520165,"2026-05-16 06:50:00","66662","3.787","284.0","5.553","271.5","1013.321","12.23","52.72","386.7","0.0"],
    [1520166,"2026-05-16 07:00:00","66663","3.3169999999999997","270.0","5.227","275.3","1013.338","12.34","52.43","402.7","0.0"],
    [1520167,"2026-05-16 07:10:00","66664","2.8539999999999996","276.2","4.377","276.3","1013.326","12.51","52.1","429.6","0.0"],
    [1520168,"2026-05-16 07:20:00","66665","3.52","286.0","5.782","289.7","1013.377","12.71","51.49","436.2","0.0"],
    [1520169,"2026-05-16 07:30:00","66666","3.362","282.9","4.508","279.5","1013.547","12.88","50.17","487.5","0.0"],
    [1520170,"2026-05-16 07:40:00","66667","3.363","288.7","4.4430000000000005","283.1","1013.546","13.0","49.91","503.3","0.0"],
    [1520171,"2026-05-16 07:50:00","66668","2.908","285.2","4.769","286.1","1013.56","13.36","48.72","545.0","0.0"],
    [1520172,"2026-05-16 08:00:00","66669","3.486","295.6","4.9","283.3","1013.458","13.65","47.89","570.4","0.0"],
    [1520173,"2026-05-16 08:10:00","66670","4.33","295.3","6.0760000000000005","285.9","1013.429","13.95","47.05","607.4","0.0"],
    [1520174,"2026-05-16 08:20:00","66671","4.066","317.5","5.39","319.9","1013.376","14.44","46.19","637.5","0.0"],
    [1520175,"2026-05-16 08:30:00","66672","3.733","325.6","5.194","313.7","1013.444","14.88","44.87","652.6","0.0"],
    [1520176,"2026-05-16 08:40:00","66673","1.96","300.5","3.985","304.6","1013.618","15.3","41.63","702.1","0.0"],
    [1520177,"2026-05-16 08:50:00","66674","2.4459999999999997","290.9","4.475","313.3","1013.677","15.82","39.13","704.5","0.0"],
    [1520178,"2026-05-16 09:00:00","66675","2.772","319.7","4.4430000000000005","303.5","1013.744","15.96","38.68","745.9","0.0"],
    [1520179,"2026-05-16 09:10:00","66676","1.34","320.1","2.907","307.8","1013.673","16.21","37.19","771.6","0.0"],
    [1520180,"2026-05-16 09:20:00","66677","0.648","91.1","3.136","98.9","1013.628","16.96","35.8","773.8","0.0"],
    [1520181,"2026-05-16 09:30:00","66678","3.4539999999999997","110.9","4.279","123.2","1013.61","16.34","38.86","826.0","0.0"],
    [1520182,"2026-05-16 09:40:00","66679","3.142","119.3","4.051","117.5","1013.717","16.14","40.68","839.0","0.0"],
    [1520183,"2026-05-16 09:50:00","66680","3.679","135.2","4.671","142.5","1013.871","16.01","44.01","839.0","0.0"],
    [1520184,"2026-05-16 10:00:00","66681","3.992","147.2","5.292000000000001","164.9","1013.831","15.84","48.03","865.0","0.0"],
    [1520185,"2026-05-16 10:10:00","66682","2.904","129.3","4.1160000000000005","134.6","1013.906","15.75","46.81","906.0","0.0"],
    [1520186,"2026-05-16 10:20:00","66683","3.5389999999999997","137.4","5.031000000000001","139.1","1014.012","15.78","47.94","906.0","0.0"],
    [1520187,"2026-05-16 10:30:00","66684","3.7569999999999997","149.1","5.4879999999999995","149.6","1014.026","15.51","50.1","906.0","0.0"],
    [1520188,"2026-05-16 10:40:00","66685","3.528","150.4","5.325","138.3","1014.165","15.44","50.97","906.0","0.0"],
    [1520189,"2026-05-16 10:50:00","66686","3.182","154.3","4.345","157.5","1014.172","15.42","52.31","921.0","0.0"],
    [1520190,"2026-05-16 11:00:00","66687","3.1189999999999998","151.1","4.247","139.1","1014.155","15.4","53.51","962.0","0.0"],
    [1520191,"2026-05-16 11:10:00","66688","3.656","162.6","4.541","151.3","1014.087","15.39","52.47","973.0","0.0"],
    [1520192,"2026-05-16 11:20:00","66689","4.137","165.8","5.619","162.1","1014.102","15.41","49.66","973.0","0.0"],
    [1520193,"2026-05-16 11:30:00","66690","4.548","170.7","5.684","172.7","1014.094","15.34","49.63","973.0","0.0"],
    [1520194,"2026-05-16 11:40:00","66691","3.877","170.4","5.031000000000001","172.1","1014.069","15.33","46.07","973.0","0.0"],
    [1520195,"2026-05-16 11:50:00","66692","3.717","163.4","4.737","170.4","1014.025","15.39","46.65","973.0","0.0"],
    [1520196,"2026-05-16 12:00:00","66693","4.169","164.7","5.2589999999999995","166.7","1014.004","15.36","52.13","973.0","0.0"],
    [1520197,"2026-05-16 12:10:00","66694","4.183","180.3","5.2589999999999995","173.2","1014.092","15.38","54.89","973.0","0.0"],
    [1520198,"2026-05-16 12:20:00","66695","4.311","178.6","5.978","175.0","1014.154","15.49","54.61","973.0","0.0"],
    [1520199,"2026-05-16 12:30:00","66696","4.95","170.0","5.88","168.6","1014.144","15.4","55.66","973.0","0.0"],
    [1520200,"2026-05-16 12:40:00","66697","4.754","176.0","6.1739999999999995","194.9","1014.176","15.54","56.27","950.0","0.0"],
    [1520201,"2026-05-16 12:50:00","66698","5.058","186.6","6.501","197.0","1014.118","15.57","56.16","911.0","0.0"],
    [1520202,"2026-05-16 13:00:00","66699","5.047","177.5","6.337000000000001","176.0","1014.135","15.53","55.97","906.0","0.0"],
    [1520203,"2026-05-16 13:10:00","66700","5.3","177.9","7.023","175.3","1014.247","15.51","55.65","906.0","0.0"],
    [1520204,"2026-05-16 13:20:00","66701","5.181","180.2","6.9910000000000005","177.6","1014.249","15.6","56.51","906.0","0.0"],
    [1520205,"2026-05-16 13:30:00","66702","5.904","176.0","7.611000000000001","175.9","1014.309","15.52","57.64","906.0","0.0"],
    [1520206,"2026-05-16 13:40:00","66703","5.204","183.7","6.893","175.0","1014.365","15.66","54.07","876.0","0.0"],
    [1520207,"2026-05-16 13:50:00","66704","4.846","173.7","5.912999999999999","177.2","1014.397","15.73","49.96","839.0","0.0"],
    [1520208,"2026-05-16 14:00:00","66705","4.4910000000000005","171.4","6.141","158.9","1014.463","15.74","48.25","837.0","0.0"],
    [1520209,"2026-05-16 14:10:00","66706","4.739","161.7","5.912999999999999","150.6","1014.485","15.75","50.9","816.0","0.0"],
    [1520210,"2026-05-16 14:20:00","66707","4.538","156.7","5.651","163.1","1014.443","15.78","54.38","771.6","0.0"],
    [1520211,"2026-05-16 14:30:00","66708","4.308","160.7","5.422999999999999","164.3","1014.409","15.76","54.23","771.9","0.0"],
    [1520212,"2026-05-16 14:40:00","66709","4.535","158.3","5.782","169.1","1014.388","15.77","55.21","514.8","0.0"],
    [1520213,"2026-05-16 14:50:00","66710","4.783","152.0","5.912999999999999","157.0","1014.293","15.73","55.5","378.7","0.0"],
    [1520214,"2026-05-16 15:00:00","66711","4.648","154.6","5.945","143.9","1014.215","15.73","56.83","405.3","0.0"],
    [1520215,"2026-05-16 15:10:00","66712","4.617","155.8","6.272","147.3","1014.224","15.8","56.95","647.9","0.0"],
    [1520216,"2026-05-16 15:20:00","66713","4.2860000000000005","161.2","5.521","170.0","1014.265","15.91","57.39","709.4","0.0"],
    [1520217,"2026-05-16 15:30:00","66714","4.226","157.8","5.357","141.8","1014.302","15.95","57.26","609.3","0.0"],
    [1520218,"2026-05-16 15:40:00","66715","3.8169999999999997","163.6","5.1610000000000005","161.6","1014.28","16.1","52.3","570.3","0.0"],
    [1520219,"2026-05-16 15:50:00","66716","3.617","149.5","4.573","147.4","1014.268","16.11","53.71","533.2","0.0"],
    [1520220,"2026-05-16 16:00:00","66717","3.475","148.9","4.377","141.5","1014.264","16.13","54.27","503.2","0.0"],
    [1520221,"2026-05-16 16:10:00","66718","3.4160000000000004","150.7","4.247","158.3","1014.248","16.15","53.1","473.9","0.0"],
    [1520222,"2026-05-16 16:20:00","66719","3.534","151.8","4.671","161.9","1014.222","16.21","52.51","436.1","0.0"],
    [1520223,"2026-05-16 16:30:00","66720","3.3789999999999996","145.7","4.933","151.3","1014.125","16.22","52.54","423.6","0.0"],
    [1520224,"2026-05-16 16:40:00","66721","3.167","152.4","4.41","151.4","1014.05","16.27","51.82","402.5","0.0"],
    [1520225,"2026-05-16 16:50:00","66722","2.826","142.4","3.822","149.2","1013.978","16.29","51.59","374.5","0.0"],
    [1520226,"2026-05-16 17:00:00","66723","2.8489999999999998","153.7","3.7569999999999997","148.5","1013.886","16.37","50.66","335.4","0.0"],
    [1520227,"2026-05-16 17:10:00","66724","3.0669999999999997","132.8","3.985","121.8","1013.846","16.36","49.73","309.5","0.0"],
    [1520228,"2026-05-16 17:20:00","66725","2.977","128.3","4.345","123.0","1013.79","16.43","49.31","268.3","0.0"],
    [1520229,"2026-05-16 17:30:00","66726","2.5639999999999996","110.1","3.463","106.7","1013.753","16.4","50.61","231.1","0.0"],
    [1520230,"2026-05-16 17:40:00","66727","2.4019999999999997","107.1","3.103","120.1","1013.837","16.45","47.85","201.3","0.0"],
    [1520231,"2026-05-16 17:50:00","66728","2.56","94.2","3.299","91.7","1013.921","16.46","46.78","152.5","0.0"],
    [1520232,"2026-05-16 18:00:00","66729","2.8789999999999996","91.4","3.822","95.9","1014.012","16.54","47.74","134.2","0.0"],
    [1520233,"2026-05-16 18:10:00","66730","2.964","82.0","3.822","92.6","1014.062","16.56","44.33","118.2","0.0"],
    [1520234,"2026-05-16 18:20:00","66731","3.0780000000000003","77.07","4.018","72.22","1014.104","16.6","47.05","67.09","0.0"],
    [1520235,"2026-05-16 18:30:00","66732","3.323","89.7","4.279","93.0","1014.208","16.55","49.18","67.09","0.0"],
    [1520236,"2026-05-16 18:40:00","66733","3.043","93.1","4.475","90.9","1014.395","16.53","50.6","52.95","0.0"],
    [1520237,"2026-05-16 18:50:00","66734","3.4560000000000004","86.1","4.4430000000000005","96.2","1014.616","16.48","50.73","0.084","0.0"],
    [1520238,"2026-05-16 19:00:00","66735","3.19","90.3","4.181","89.8","1014.797","16.46","52.13","0.0","0.0"],
    [1520239,"2026-05-16 19:10:00","66736","3.0980000000000003","100.6","4.247","110.7","1015.052","16.44","55.65","0.0","0.0"],
    [1520240,"2026-05-16 19:20:00","66737","3.3560000000000003","107.0","4.377","106.8","1015.217","16.4","56.21","0.0","0.0"],
    [1520241,"2026-05-16 19:30:00","66738","2.7119999999999997","83.3","3.7569999999999997","84.0","1015.36","16.41","56.3","0.0","0.0"],
    [1520242,"2026-05-16 19:40:00","66739","2.97","91.6","3.985","83.8","1015.485","16.45","56.81","0.0","0.0"],
    [1520243,"2026-05-16 19:50:00","66740","3.242","99.8","4.933","99.7","1015.677","16.44","58.24","0.0","0.0"],
    [1520244,"2026-05-16 20:00:00","66741","3.404","106.7","4.508","111.0","1015.857","16.42","59.7","0.0","0.0"],
    [1520245,"2026-05-16 20:10:00","66742","3.406","114.5","4.2139999999999995","108.2","1016.123","16.45","59.63","0.0","0.0"],
    [1520246,"2026-05-16 20:20:00","66743","3.108","119.3","4.4430000000000005","109.4","1016.302","16.48","61.16","0.0","0.0"],
    [1520247,"2026-05-16 20:30:00","66744","2.6439999999999997","126.3","3.9530000000000003","121.5","1016.514","16.49","62.02","0.0","0.0"],
    [1520248,"2026-05-16 20:40:00","66745","3.013","118.2","3.855","124.8","1016.644","16.49","63.08","0.0","0.0"],
    [1520249,"2026-05-16 20:50:00","66746","3.1719999999999997","130.8","4.4430000000000005","136.2","1016.846","16.5","64.43","0.0","0.0"],
    [1520250,"2026-05-16 21:00:00","66747","2.608","133.0","3.6260000000000003","117.9","1017.041","16.49","64.74","0.0","0.0"],
    [1520251,"2026-05-16 21:10:00","66748","3.2689999999999997","140.7","4.018","136.3","1017.11","16.5","65.19","0.0","0.0"],
    [1520252,"2026-05-16 21:20:00","66749","3.3489999999999998","150.2","4.181","156.4","1017.124","16.5","66.24","0.0","0.0"],
    [1520253,"2026-05-16 21:30:00","66750","2.9760000000000004","147.3","4.018","144.3","1017.113","16.49","65.72","0.0","0.0"],
    [1520254,"2026-05-16 21:40:00","66751","2.285","146.6","3.0380000000000003","153.2","1017.169","16.53","63.73","0.0","0.0"],
    [1520255,"2026-05-16 21:50:00","66752","2.7510000000000003","153.5","4.1160000000000005","153.4","1017.205","16.59","64.21","0.0","0.0"],
    [1520256,"2026-05-16 22:00:00","66753","3.4419999999999997","161.7","4.149","160.5","1017.266","16.62","64.65","0.0","0.0"],
    [1520257,"2026-05-16 22:10:00","66754","4.138999999999999","164.7","4.933","165.9","1017.274","16.59","65.91","0.0","0.0"],
    [1520258,"2026-05-16 22:20:00","66755","4.862","162.5","5.88","167.1","1017.327","16.54","67.1","0.0","0.0"],
    [1520259,"2026-05-16 22:30:00","66756","4.218999999999999","162.2","5.357","166.5","1017.354","16.53","68.19","0.0","0.0"],
    [1520260,"2026-05-16 22:40:00","66757","4.421","161.0","5.651","164.0","1017.305","16.46","68.68","0.0","0.0"],
    [1520261,"2026-05-16 22:50:00","66758","3.795","160.7","4.4430000000000005","160.0","1017.237","16.48","69.47","0.0","0.0"],
    [1520262,"2026-05-16 23:00:00","66759","4.171","164.8","5.096","168.1","1017.105","16.48","70.19","0.0","0.0"],
    [1520263,"2026-05-16 23:10:00","66760","4.04","162.6","5.194","164.8","1017.025","16.38","69.84","0.0","0.0"],
    [1520264,"2026-05-16 23:20:00","66761","3.752","164.9","4.606","163.0","1016.916","16.38","70.66","0.0","0.0"],
    [1520265,"2026-05-16 23:30:00","66762","3.3169999999999997","172.2","4.149","168.8","1016.844","16.37","70.69","0.0","0.0"],
    [1520266,"2026-05-16 23:40:00","66763","3.1430000000000002","182.4","4.018","172.3","1016.819","16.37","68.98","0.0","0.0"],
    [1520267,"2026-05-16 23:50:00","66764","3.5669999999999997","175.2","4.41","171.4","1016.69","16.38","69.54","0.0","0.0"],
    [1520268,"2026-05-17 00:00:00","66765","3.323","177.2","4.4430000000000005","167.5","1016.676","16.39","70.1","0.0","0.0"],
    [1520269,"2026-05-17 00:10:00","66766","2.7739999999999996","177.6","3.855","176.7","1016.602","16.37","69.41","0.0","0.0"],
    [1520270,"2026-05-17 00:20:00","66767","2.778","171.0","3.855","157.7","1016.434","16.4","69.98","0.0","0.0"],
    [1520271,"2026-05-17 00:30:00","66768","2.359","171.4","3.005","173.9","1016.292","16.38","68.49","0.0","0.0"],
    [1520272,"2026-05-17 00:40:00","66769","2.522","156.9","3.1689999999999996","157.5","1016.16","16.42","68.38","0.0","0.0"],
    [1520273,"2026-05-17 00:50:00","66770","1.933","165.1","2.8089999999999997","152.9","1016.025","16.41","66.41","0.0","0.0"],
    [1520274,"2026-05-17 01:00:00","66771","1.462","169.0","2.319","166.1","1015.892","16.43","65.59","0.0","0.0"],
    [1520275,"2026-05-17 01:10:00","66772","1.423","165.7","2.156","197.6","1015.851","16.42","65.46","0.0","0.0"],
    [1520276,"2026-05-17 01:20:00","66773","1.633","175.5","2.156","196.4","1015.848","16.43","64.8","0.0","0.0"],
    [1520277,"2026-05-17 01:30:00","66774","2.016","160.5","2.679","160.3","1015.816","16.46","65.45","0.0","0.0"],
    [1520278,"2026-05-17 01:40:00","66775","1.3659999999999999","156.5","2.254","159.3","1015.783","16.41","64.45","0.0","0.0"],
    [1520279,"2026-05-17 01:50:00","66776","1.4169999999999998","154.2","1.9269999999999998","152.9","1015.713","16.43","63.83","0.0","0.0"],
    [1520280,"2026-05-17 02:00:00","66777","1.48","157.2","2.025","151.5","1015.638","16.44","63.92","0.0","0.0"],
    [1520281,"2026-05-17 02:10:00","66778","1.666","164.0","2.319","156.8","1015.618","16.44","64.07","0.0","0.0"],
    [1520282,"2026-05-17 02:20:00","66779","1.608","159.7","2.254","161.1","1015.618","16.43","64.78","0.0","0.0"],
    [1520283,"2026-05-17 02:30:00","66780","1.81","160.3","2.352","168.8","1015.578","16.39","65.95","0.0","0.0"],
    [1520284,"2026-05-17 02:40:00","66781","2.2230000000000003","164.9","3.136","157.9","1015.62","16.41","64.7","0.0","0.0"],
    [1520285,"2026-05-17 02:50:00","66782","1.984","158.4","2.548","160.7","1015.639","16.42","63.68","0.0","0.0"],
    [1520286,"2026-05-17 03:00:00","66783","1.777","147.8","2.287","152.1","1015.623","16.43","62.67","0.0","0.0"],
    [1520287,"2026-05-17 03:10:00","66784","1.1540000000000001","153.9","1.8619999999999999","130.5","1015.558","16.45","60.56","0.0","0.0"],
    [1520288,"2026-05-17 03:20:00","66785","0.48700000000000004","159.6","0.882","168.1","1015.53","16.43","60.9","0.0","0.0"],
    [1520289,"2026-05-17 03:30:00","66786","0.0","0.0","0.0","0.0","1015.471","16.36","60.85","0.0","0.0"],
    [1520290,"2026-05-17 03:40:00","66787","0.01","19.8","0.294","36.28","1015.388","16.3","62.23","0.0","0.0"],
    [1520291,"2026-05-17 03:50:00","66788","0.49200000000000005","37.27","0.98","48.27","1015.37","16.32","62.52","0.0","0.0"],
    [1520292,"2026-05-17 04:00:00","66789","0.775","35.14","1.2409999999999999","32.6","1015.336","16.37","62.98","0.0","0.0"],
    [1520293,"2026-05-17 04:10:00","66790","1.245","20.69","2.025","19.2","1015.303","16.36","63.93","0.0","0.0"],
    [1520294,"2026-05-17 04:20:00","66791","2.055","24.87","3.397","21.81","1015.273","16.35","65.04","0.0","0.0"],
    [1520295,"2026-05-17 04:30:00","66792","2.7960000000000003","9.3","3.234","18.75","1015.336","16.09","68.07","0.0","0.0"],
    [1520296,"2026-05-17 04:40:00","66793","2.655","12.87","3.593","20.08","1015.356","16.01","69.7","0.0","0.0"],
    [1520297,"2026-05-17 04:50:00","66794","2.496","5.5089999999999995","3.1689999999999996","12.33","1015.405","15.87","69.5","0.0","0.0"],
    [1520298,"2026-05-17 05:00:00","66795","2.467","6.568","3.267","12.41","1015.428","15.82","69.44","2.182","0.0"],
    [1520299,"2026-05-17 05:10:00","66796","2.9930000000000003","8.48","3.822","4.165","1015.417","15.75","69.74","50.51","0.0"],
    [1520300,"2026-05-17 05:20:00","66797","3.1069999999999998","7.932","4.377","4.715","1015.448","15.75","69.82","67.13","0.0"],
    [1520301,"2026-05-17 05:30:00","66798","3.6489999999999996","17.2","4.345","27.05","1015.516","15.81","71.27","67.13","0.0"],
    [1520302,"2026-05-17 05:40:00","66799","3.92","12.58","4.769","13.17","1015.517","15.75","72.84","91.7","0.0"],
    [1520303,"2026-05-17 05:50:00","66800","3.673","13.1","4.508","18.36","1015.568","15.8","73.44","163.5","0.0"],
    [1520304,"2026-05-17 06:00:00","66801","3.557","8.07","4.345","15.36","1015.685","15.82","73.38","201.0","0.0"],
    [1520305,"2026-05-17 06:10:00","66802","3.4389999999999996","10.85","4.181","6.739","1015.7","15.86","73.65","198.8","0.0"],
    [1520306,"2026-05-17 06:20:00","66803","3.5869999999999997","15.64","4.541","11.05","1015.763","15.94","74.14","203.4","0.0"],
    [1520307,"2026-05-17 06:30:00","66804","4.0760000000000005","24.2","5.1610000000000005","22.27","1015.767","16.04","74.64","301.4","0.0"],
    [1520308,"2026-05-17 06:40:00","66805","4.319","28.9","5.292000000000001","26.68","1015.81","15.93","74.43","316.2","0.0"],
    [1520309,"2026-05-17 06:50:00","66806","4.675","28.46","5.7170000000000005","28.3","1015.97","15.91","74.91","384.7","0.0"],
    [1520310,"2026-05-17 07:00:00","66807","4.592","28.27","6.0760000000000005","25.45","1016.069","15.9","75.52","273.5","0.0"],
    [1520311,"2026-05-17 07:10:00","66808","4.784","32.55","5.815","22.99","1016.137","15.93","76.07","410.3","0.0"],
    [1520312,"2026-05-17 07:20:00","66809","4.293","33.06","5.422999999999999","28.22","1016.241","16.01","77.04","436.6","0.0"],
    [1520313,"2026-05-17 07:30:00","66810","4.453","38.86","5.553","33.27","1016.315","16.04","76.99","458.5","0.0"],
    [1520314,"2026-05-17 07:40:00","66811","3.9819999999999998","40.67","5.129","35.34","1016.425","16.11","76.94","503.2","0.0"],
    [1520315,"2026-05-17 07:50:00","66812","3.969","47.6","5.1610000000000005","56.04","1016.547","16.15","76.05","513.2","0.0"],
    [1520316,"2026-05-17 08:00:00","66813","3.8089999999999997","47.73","4.9","39.42","1016.648","16.25","74.71","570.3","0.0"],
    [1520317,"2026-05-17 08:10:00","66814","3.6510000000000002","46.22","5.7170000000000005","45.07","1016.691","16.37","74.47","578.7","0.0"],
    [1520318,"2026-05-17 08:20:00","66815","3.319","48.73","5.7170000000000005","58.79","1016.757","16.4","74.0","637.4","0.0"],
    [1520319,"2026-05-17 08:30:00","66816","3.219","44.86","5.684","27.73","1016.81","16.44","73.56","672.0","0.0"],
    [1520320,"2026-05-17 08:40:00","66817","3.859","45.33","6.501","58.0","1016.778","16.48","72.27","701.8","0.0"],
    [1520321,"2026-05-17 08:50:00","66818","3.648","46.01","6.566","38.01","1016.745","16.54","71.22","704.5","0.0"],
    [1520322,"2026-05-17 09:00:00","66819","2.763","61.7","5.782","83.8","1016.786","16.62","71.15","706.2","0.0"],
    [1520323,"2026-05-17 09:10:00","66820","2.678","73.79","5.292000000000001","44.68","1016.895","16.68","70.92","769.2","0.0"],
    [1520324,"2026-05-17 09:20:00","66821","3.659","86.0","6.468","95.2","1016.886","16.64","70.36","771.5","0.0"],
    [1520325,"2026-05-17 09:30:00","66822","3.109","83.7","6.141","77.08","1016.886","16.64","70.73","774.0","0.0"],
    [1520326,"2026-05-17 09:40:00","66823","3.2430000000000003","83.5","6.305","88.0","1016.876","16.71","70.15","832.0","0.0"],
    [1520327,"2026-05-17 09:50:00","66824","3.242","76.3","6.566","83.9","1016.879","16.67","71.86","839.0","0.0"],
    [1520328,"2026-05-17 10:00:00","66825","2.7489999999999997","83.1","6.011","113.3","1016.909","16.75","71.59","839.0","0.0"],
    [1520329,"2026-05-17 10:10:00","66826","2.9760000000000004","70.09","6.1739999999999995","53.34","1016.967","16.72","72.59","860.0","0.0"],
    [1520330,"2026-05-17 10:20:00","66827","3.233","75.33","5.7170000000000005","72.34","1017.056","16.7","72.76","890.0","0.0"],
    [1520331,"2026-05-17 10:30:00","66828","3.392","86.7","6.011","102.4","1017.1","16.73","73.27","906.0","0.0"],
    [1520332,"2026-05-17 10:40:00","66829","3.74","85.5","6.435","95.6","1017.136","16.78","72.72","906.0","0.0"],
    [1520333,"2026-05-17 10:50:00","66830","3.5660000000000003","83.1","6.305","92.1","1017.1","16.79","72.76","906.0","0.0"],
    [1520334,"2026-05-17 11:00:00","66831","2.6919999999999997","80.8","6.272","84.8","1017.095","16.82","71.91","905.0","0.0"],
    [1520335,"2026-05-17 11:10:00","66832","2.932","82.6","6.566","92.1","1017.105","16.9","72.8","909.0","0.0"],
    [1520336,"2026-05-17 11:20:00","66833","3.7230000000000003","84.1","6.664","94.2","1017.102","16.82","73.34","945.0","0.0"],
    [1520337,"2026-05-17 11:30:00","66834","4.477","87.3","5.847","93.8","1017.059","16.83","73.64","946.0","0.0"],
    [1520338,"2026-05-17 11:40:00","66835","4.272","84.1","5.88","73.77","1017.112","16.81","73.41","957.0","0.0"],
    [1520339,"2026-05-17 11:50:00","66836","4.486000000000001","87.9","6.011","90.5","1017.099","16.89","72.56","973.0","0.0"],
    [1520340,"2026-05-17 12:00:00","66837","4.29","84.9","6.599","95.9","1017.076","16.88","72.01","964.0","0.0"],
    [1520341,"2026-05-17 12:10:00","66838","3.24","87.1","5.782","76.6","1017.046","17.01","71.54","965.0","0.0"],
    [1520342,"2026-05-17 12:20:00","66839","3.988","84.7","5.815","91.4","1016.971","17.01","70.89","915.0","0.0"],
    [1520343,"2026-05-17 12:30:00","66840","3.838","82.1","5.357","100.7","1016.917","17.07","70.88","881.0","0.0"],
    [1520344,"2026-05-17 12:40:00","66841","3.3689999999999998","86.6","5.1610000000000005","75.39","1016.907","17.13","71.0","853.0","0.0"],
    [1520345,"2026-05-17 12:50:00","66842","3.5789999999999997","94.8","5.586","111.4","1016.873","17.25","71.05","858.0","0.0"],
    [1520346,"2026-05-17 13:00:00","66843","3.341","89.1","4.671","104.6","1016.826","17.28","70.89","815.0","0.0"],
    [1520347,"2026-05-17 13:10:00","66844","3.41","83.7","4.933","88.9","1016.769","17.32","70.79","850.0","0.0"],
    [1520348,"2026-05-17 13:20:00","66845","2.986","85.5","4.2139999999999995","79.44","1016.693","17.37","70.88","920.0","0.0"],
    [1520349,"2026-05-17 13:30:00","66846","2.87","91.1","4.1160000000000005","90.8","1016.558","17.42","69.9","844.0","0.0"],
    [1520350,"2026-05-17 13:40:00","66847","2.4019999999999997","104.4","3.6910000000000003","100.9","1016.509","17.54","69.41","797.0","0.0"],
    [1520351,"2026-05-17 13:50:00","66848","2.565","150.7","3.528","142.2","1016.491","17.51","67.85","815.0","0.0"],
    [1520352,"2026-05-17 14:00:00","66849","2.568","152.8","4.1160000000000005","165.0","1016.395","17.56","67.39","802.0","0.0"],
    [1520353,"2026-05-17 14:10:00","66850","3.466","165.4","4.769","171.1","1016.297","17.52","66.8","788.0","0.0"],
    [1520354,"2026-05-17 14:20:00","66851","4.303","173.1","5.357","172.9","1016.162","17.52","67.81","694.6","0.0"],
    [1520355,"2026-05-17 14:30:00","66852","4.984","173.5","6.109","173.2","1015.981","17.49","69.19","652.7","0.0"],
    [1520356,"2026-05-17 14:40:00","66853","4.684","174.4","5.782","174.7","1015.817","17.57","69.39","594.1","0.0"],
    [1520357,"2026-05-17 14:50:00","66854","4.851","174.4","6.1739999999999995","175.1","1015.729","17.52","71.58","617.1","0.0"],
    [1520358,"2026-05-17 15:00:00","66855","5.013999999999999","186.3","6.827000000000001","192.9","1015.638","17.77","67.41","592.0","0.0"],
    [1520359,"2026-05-17 15:10:00","66856","4.771","188.5","6.827000000000001","191.7","1015.618","17.96","63.78","588.5","0.0"],
    [1520360,"2026-05-17 15:20:00","66857","5.601","188.7","7.252000000000001","189.3","1015.549","17.83","62.08","536.6","0.0"],
    [1520361,"2026-05-17 15:30:00","66858","5.617000000000001","194.4","8.1","200.7","1015.507","17.85","60.7","492.2","0.0"],
    [1520362,"2026-05-17 15:40:00","66859","5.131","195.2","7.644","203.0","1015.402","18.07","52.38","438.8","0.0"],
    [1520363,"2026-05-17 15:50:00","66860","5.206","201.4","7.513","192.6","1015.353","18.21","51.87","462.9","0.0"],
    [1520364,"2026-05-17 16:00:00","66861","5.431","202.5","8.46","195.1","1015.381","18.07","52.31","460.7","0.0"],
    [1520365,"2026-05-17 16:10:00","66862","5.042","209.2","8.59","206.9","1015.408","18.09","54.42","418.9","0.0"],
    [1520366,"2026-05-17 16:20:00","66863","4.768","211.7","8.13","223.2","1015.351","18.2","55.57","430.8","0.0"],
    [1520367,"2026-05-17 16:30:00","66864","4.63","212.7","8.33","225.9","1015.358","18.21","57.03","383.3","0.0"],
    [1520368,"2026-05-17 16:40:00","66865","5.54","203.3","9.11","200.4","1015.327","18.13","57.54","263.8","0.0"],
    [1520369,"2026-05-17 16:50:00","66866","5.6739999999999995","206.6","8.79","210.2","1015.234","17.79","59.05","315.4","0.0"],
    [1520370,"2026-05-17 17:00:00","66867","6.122000000000001","202.7","10.29","201.2","1015.175","17.74","59.5","338.5","0.0"],
    [1520371,"2026-05-17 17:10:00","66868","4.92","207.4","9.02","215.5","1015.241","17.83","59.27","327.1","0.0"],
    [1520372,"2026-05-17 17:20:00","66869","4.875","209.2","8.04","205.8","1015.352","17.93","59.18","268.3","0.0"],
    [1520373,"2026-05-17 17:30:00","66870","4.408","221.9","7.775","222.5","1015.453","17.93","59.11","226.8","0.0"],
    [1520374,"2026-05-17 17:40:00","66871","5.1370000000000005","219.1","7.938","212.0","1015.568","17.77","59.87","145.4","0.0"],
    [1520375,"2026-05-17 17:50:00","66872","4.117","218.3","7.218999999999999","229.4","1015.691","17.79","60.79","140.0","0.0"],
    [1520376,"2026-05-17 18:00:00","66873","4.684","219.4","7.579","222.2","1015.714","17.85","61.33","134.2","0.0"],
    [1520377,"2026-05-17 18:10:00","66874","3.95","223.9","7.905","223.4","1015.801","17.84","61.52","126.8","0.0"],
    [1520378,"2026-05-17 18:20:00","66875","4.301","218.8","6.86","217.4","1015.846","17.77","64.02","67.92","0.0"],
    [1520379,"2026-05-17 18:30:00","66876","3.89","219.8","7.252000000000001","218.0","1015.919","17.74","64.86","23.26","0.0"],
    [1520380,"2026-05-17 18:40:00","66877","2.84","229.7","4.638999999999999","213.4","1015.974","17.69","65.49","0.0","0.0"],
    [1520381,"2026-05-17 18:50:00","66878","4.158","220.1","6.86","215.7","1016.056","17.65","66.4","0.0","0.0"],
    [1520382,"2026-05-17 19:00:00","66879","3.2430000000000003","229.7","6.957999999999999","210.8","1016.143","17.55","67.81","0.0","0.0"],
    [1520383,"2026-05-17 19:10:00","66880","2.484","227.3","4.475","208.2","1016.233","17.54","68.79","0.0","0.0"],
    [1520384,"2026-05-17 19:20:00","66881","1.9509999999999998","237.5","3.9530000000000003","213.6","1016.302","17.55","69.4","0.0","0.0"],
    [1520385,"2026-05-17 19:30:00","66882","2.3680000000000003","242.3","4.541","216.7","1016.393","17.47","70.43","0.0","0.0"],
    [1520386,"2026-05-17 19:40:00","66883","2.392","242.2","3.9530000000000003","227.5","1016.516","17.45","71.21","0.0","0.0"],
    [1520387,"2026-05-17 19:50:00","66884","2.3040000000000003","233.6","4.1160000000000005","256.6","1016.613","17.45","71.71","0.0","0.0"],
    [1520388,"2026-05-17 20:00:00","66885","2.121","239.4","3.7569999999999997","223.8","1016.734","17.42","72.16","0.0","0.0"],
    [1520389,"2026-05-17 20:10:00","66886","1.749","242.8","3.234","250.6","1016.897","17.41","72.41","0.0","0.0"],
    [1520390,"2026-05-17 20:20:00","66887","1.7590000000000001","235.9","2.9730000000000003","257.6","1017.003","17.35","72.31","0.0","0.0"],
    [1520391,"2026-05-17 20:30:00","66888","1.535","234.1","2.7769999999999997","250.6","1017.183","17.37","72.3","0.0","0.0"],
    [1520392,"2026-05-17 20:40:00","66889","1.516","225.0","2.7110000000000003","210.2","1017.256","17.37","72.31","0.0","0.0"],
    [1520393,"2026-05-17 20:50:00","66890","1.5730000000000002","228.4","3.005","228.0","1017.296","17.35","72.3","0.0","0.0"],
    [1520394,"2026-05-17 21:00:00","66891","1.3969999999999998","227.3","3.103","222.1","1017.384","17.34","72.39","0.0","0.0"],
    [1520395,"2026-05-17 21:10:00","66892","0.907","235.2","2.0909999999999997","223.3","1017.414","17.32","72.54","0.0","0.0"],
    [1520396,"2026-05-17 21:20:00","66893","0.5720000000000001","255.5","2.287","242.8","1017.384","17.28","72.62","0.0","0.0"],
    [1520397,"2026-05-17 21:30:00","66894","0.6409999999999999","247.3","1.274","242.2","1017.422","17.2","72.66","0.0","0.0"],
    [1520398,"2026-05-17 21:40:00","66895","1.431","283.0","2.417","298.2","1017.448","17.17","72.63","0.0","0.0"],
    [1520399,"2026-05-17 21:50:00","66896","1.7630000000000001","297.1","2.548","305.5","1017.41","17.18","72.26","0.0","0.0"],
    [1520400,"2026-05-17 22:00:00","66897","1.944","305.1","2.515","308.9","1017.325","17.13","72.77","0.0","0.0"],
    [1520401,"2026-05-17 22:10:00","66898","1.1640000000000001","298.9","1.9269999999999998","292.4","1017.269","17.14","72.91","0.0","0.0"],
    [1520402,"2026-05-17 22:20:00","66899","1.026","281.3","1.895","266.2","1017.299","17.14","72.57","0.0","0.0"],
    [1520403,"2026-05-17 22:30:00","66900","0.613","254.3","1.2409999999999999","270.2","1017.333","17.11","72.78","0.0","0.0"],
    [1520404,"2026-05-17 22:40:00","66901","0.9640000000000001","235.4","2.025","236.6","1017.351","17.03","73.05","0.0","0.0"],
    [1520405,"2026-05-17 22:50:00","66902","1.053","243.5","2.025","218.6","1017.43","17.05","73.0","0.0","0.0"],
    [1520406,"2026-05-17 23:00:00","66903","0.6990000000000001","238.6","1.3719999999999999","217.2","1017.483","17.05","73.32","0.0","0.0"],
    [1520407,"2026-05-17 23:10:00","66904","0.737","255.5","1.8619999999999999","228.0","1017.419","16.94","72.99","0.0","0.0"],
    [1520408,"2026-05-17 23:20:00","66905","0.62","252.7","1.829","237.7","1017.411","16.85","73.01","0.0","0.0"],
    [1520409,"2026-05-17 23:30:00","66906","1.024","270.7","1.7309999999999999","259.1","1017.385","16.75","73.25","0.0","0.0"],
    [1520410,"2026-05-17 23:40:00","66907","0.7190000000000001","271.3","1.209","263.1","1017.355","16.6","73.26","0.0","0.0"],
    [1520411,"2026-05-17 23:50:00","66908","0.5670000000000001","258.4","1.339","285.5","1017.344","16.64","73.87","0.0","0.0"],
    [1520412,"2026-05-18 00:00:00","66909","0.535","255.3","1.111","279.9","1017.348","16.67","73.95","0.0","0.0"],
    [1520413,"2026-05-18 00:10:00","66910","0.818","266.5","1.143","279.3","1017.222","16.7","73.6","0.0","0.0"],
    [1520414,"2026-05-18 00:20:00","66911","0.563","252.0","1.209","277.5","1017.097","16.71","73.69","0.0","0.0"],
    [1520415,"2026-05-18 00:30:00","66912","0.569","237.6","1.2409999999999999","218.5","1017.107","16.67","73.91","0.0","0.0"],
    [1520416,"2026-05-18 00:40:00","66913","0.5710000000000001","236.0","0.98","220.8","1016.966","16.67","73.29","0.0","0.0"],
    [1520417,"2026-05-18 00:50:00","66914","0.775","233.2","1.4369999999999998","264.4","1016.832","16.59","72.79","0.0","0.0"],
    [1520418,"2026-05-18 01:00:00","66915","0.9470000000000001","258.1","1.5030000000000001","265.1","1016.798","16.49","72.98","0.0","0.0"],
    [1520419,"2026-05-18 01:10:00","66916","0.75","253.8","1.4369999999999998","265.7","1016.701","16.39","73.26","0.0","0.0"],
    [1520420,"2026-05-18 01:20:00","66917","0.382","249.3","0.784","250.6","1016.634","16.43","73.3","0.0","0.0"],
    [1520421,"2026-05-18 01:30:00","66918","0.019","256.8","0.261","259.3","1016.604","16.47","73.9","0.0","0.0"],
    [1520422,"2026-05-18 01:40:00","66919","0.434","288.4","0.8170000000000001","287.2","1016.564","16.45","73.76","0.0","0.0"],
    [1520423,"2026-05-18 01:50:00","66920","0.589","266.5","0.882","282.8","1016.559","16.47","73.55","0.0","0.0"],
    [1520424,"2026-05-18 02:00:00","66921","0.517","228.2","0.882","234.2","1016.505","16.47","74.17","0.0","0.0"],
    [1520425,"2026-05-18 02:10:00","66922","0.184","237.2","0.784","233.4","1016.568","16.49","74.46","0.0","0.0"],
    [1520426,"2026-05-18 02:20:00","66923","0.038","160.5","0.392","171.7","1016.537","16.44","75.09","0.0","0.0"],
    [1520427,"2026-05-18 02:30:00","66924","0.22","178.1","0.653","181.6","1016.475","16.48","75.43","0.0","0.0"],
    [1520428,"2026-05-18 02:40:00","66925","0.033","221.0","0.327","209.1","1016.468","16.37","75.99","0.0","0.0"],
    [1520429,"2026-05-18 02:50:00","66926","0.975","260.6","1.699","265.5","1016.523","16.22","75.31","0.0","0.0"],
    [1520430,"2026-05-18 03:00:00","66927","1.1079999999999999","264.9","1.601","266.4","1016.482","16.02","75.13","0.0","0.0"],
    [1520431,"2026-05-18 03:10:00","66928","1.777","267.9","2.352","272.1","1016.539","15.83","75.78","0.0","0.0"],
    [1520432,"2026-05-18 03:20:00","66929","1.6030000000000002","262.0","2.352","266.1","1016.568","15.73","76.43","0.0","0.0"],
    [1520433,"2026-05-18 03:30:00","66930","1.459","273.0","2.0580000000000003","276.7","1016.62","15.88","76.1","0.0","0.0"],
    [1520434,"2026-05-18 03:40:00","66931","1.466","284.4","2.287","278.4","1016.552","16.08","75.95","0.0","0.0"],
    [1520435,"2026-05-18 03:50:00","66932","1.2570000000000001","285.3","2.123","302.2","1016.502","16.28","75.39","0.0","0.0"],
    [1520436,"2026-05-18 04:00:00","66933","1.099","284.6","2.352","316.4","1016.447","16.43","75.69","0.0","0.0"],
    [1520437,"2026-05-18 04:10:00","66934","0.615","249.2","1.7309999999999999","259.8","1016.499","16.43","75.99","0.0","0.0"],
    [1520438,"2026-05-18 04:20:00","66935","0.726","255.3","1.47","278.5","1016.544","16.41","76.17","0.0","0.0"],
    [1520439,"2026-05-18 04:30:00","66936","0.647","257.5","1.111","251.7","1016.554","16.43","75.99","0.0","0.0"],
    [1520440,"2026-05-18 04:40:00","66937","0.772","251.5","1.96","232.9","1016.527","16.49","75.99","0.0","0.0"],
    [1520441,"2026-05-18 04:50:00","66938","1.3159999999999998","245.9","2.221","257.8","1016.601","16.15","75.79","0.0","0.0"],
    [1520442,"2026-05-18 05:00:00","66939","1.4480000000000002","257.0","2.156","259.4","1016.681","15.77","76.66","19.94","0.0"],
    [1520443,"2026-05-18 05:10:00","66940","1.4269999999999998","263.0","1.96","253.3","1016.789","15.77","77.14","67.12","0.0"],
    [1520444,"2026-05-18 05:20:00","66941","1.364","267.9","2.385","268.2","1016.901","15.9","76.76","67.12","0.0"],
    [1520445,"2026-05-18 05:30:00","66942","0.9129999999999999","249.2","1.764","266.1","1016.951","16.03","76.14","67.12","0.0"],
    [1520446,"2026-05-18 05:40:00","66943","0.6990000000000001","234.7","1.633","259.7","1017.019","16.23","75.62","67.12","0.0"],
    [1520447,"2026-05-18 05:50:00","66944","1.3619999999999999","240.9","2.189","263.0","1017.128","16.3","74.22","114.6","0.0"],
    [1520448,"2026-05-18 06:00:00","66945","1.831","245.9","2.483","252.6","1017.234","16.16","73.4","134.2","0.0"],
    [1520449,"2026-05-18 06:10:00","66946","1.528","266.7","2.6460000000000004","266.3","1017.265","16.23","73.11","169.6","0.0"],
    [1520450,"2026-05-18 06:20:00","66947","1.729","283.0","2.548","264.8","1017.329","16.58","71.57","189.5","0.0"],
    [1520451,"2026-05-18 06:30:00","66948","2.213","286.2","3.299","283.9","1017.381","16.77","70.09","134.2","0.0"],
    [1520452,"2026-05-18 06:40:00","66949","2.378","277.2","3.495","285.8","1017.49","16.9","68.85","134.2","0.0"],
    [1520453,"2026-05-18 06:50:00","66950","2.655","282.9","3.7889999999999997","279.8","1017.559","17.0","67.91","135.0","0.0"],
    [1520454,"2026-05-18 07:00:00","66951","1.892","270.1","3.528","275.5","1017.6","17.18","67.57","131.8","0.0"],
    [1520455,"2026-05-18 07:10:00","66952","1.199","284.2","2.45","257.4","1017.571","17.3","67.21","162.6","0.0"],
    [1520456,"2026-05-18 07:20:00","66953","0.826","320.6","1.535","313.4","1017.476","17.33","67.42","201.3","0.0"],
    [1520457,"2026-05-18 07:30:00","66954","0.978","247.2","1.8619999999999999","229.0","1017.555","17.6","68.38","360.5","0.0"],
    [1520458,"2026-05-18 07:40:00","66955","1.192","199.8","2.123","180.5","1017.575","17.63","68.85","298.7","0.0"],
    [1520459,"2026-05-18 07:50:00","66956","1.4980000000000002","179.1","2.613","170.2","1017.625","17.56","68.8","268.6","0.0"],
    [1520460,"2026-05-18 08:00:00","66957","2.7060000000000004","165.9","3.5610000000000004","165.2","1017.599","17.52","71.54","322.0","0.0"],
    [1520461,"2026-05-18 08:10:00","66958","3.1519999999999997","165.0","4.1160000000000005","165.8","1017.67","17.5","73.78","494.1","0.0"],
    [1520462,"2026-05-18 08:20:00","66959","3.431","170.1","4.083","176.4","1017.786","17.44","75.38","566.8","0.0"],
    [1520463,"2026-05-18 08:30:00","66960","3.4530000000000003","167.0","4.377","173.7","1017.822","17.38","75.04","631.7","0.0"],
    [1520464,"2026-05-18 08:40:00","66961","3.5580000000000003","167.8","4.541","166.2","1017.871","17.35","75.32","618.2","0.0"],
    [1520465,"2026-05-18 08:50:00","66962","3.74","166.9","4.312","170.8","1017.907","17.38","75.93","745.5","0.0"],
    [1520466,"2026-05-18 09:00:00","66963","3.9410000000000003","168.2","4.835","175.0","1017.947","17.42","77.01","758.1","0.0"],
    [1520467,"2026-05-18 09:10:00","66964","4.507","169.8","5.129","172.7","1017.91","17.39","77.89","872.0","0.0"],
    [1520468,"2026-05-18 09:20:00","66965","4.401","171.1","5.031000000000001","169.2","1017.925","17.42","78.59","899.0","0.0"],
    [1520469,"2026-05-18 09:30:00","66966","4.5169999999999995","175.3","6.042999999999999","180.7","1017.912","17.39","79.37","470.3","0.0"],
    [1520470,"2026-05-18 09:40:00","66967","4.441","190.5","5.292000000000001","194.8","1018.061","17.43","79.24","169.3","0.0"],
    [1520471,"2026-05-18 09:50:00","66968","4.346","178.5","5.521","176.1","1018.035","17.55","79.4","430.1","0.0"],
    [1520472,"2026-05-18 10:00:00","66969","4.419","173.6","5.553","170.2","1018.059","17.55","79.45","736.4","0.0"],
    [1520473,"2026-05-18 10:10:00","66970","4.011","177.3","4.998","175.8","1018.144","17.64","79.57","729.3","0.0"],
    [1520474,"2026-05-18 10:20:00","66971","3.76","183.1","5.063","192.9","1018.205","17.69","80.0","524.4","0.0"],
    [1520475,"2026-05-18 10:30:00","66972","4.396","181.1","6.0760000000000005","195.7","1018.148","17.72","78.21","213.4","0.0"],
    [1520476,"2026-05-18 10:40:00","66973","4.524","186.8","6.042999999999999","192.9","1018.101","17.78","77.83","216.5","0.0"],
    [1520477,"2026-05-18 10:50:00","66974","4.64","190.1","6.403","188.3","1018.137","17.79","76.5","201.3","0.0"],
    [1520478,"2026-05-18 11:00:00","66975","4.209","189.5","5.4879999999999995","190.5","1018.277","17.77","77.2","151.1","0.0"],
    [1520479,"2026-05-18 11:10:00","66976","3.905","185.0","5.1610000000000005","190.7","1018.189","17.77","77.79","134.2","0.0"],
    [1520480,"2026-05-18 11:20:00","66977","4.074","185.4","6.011","194.2","1018.254","17.79","76.24","134.2","0.0"],
    [1520481,"2026-05-18 11:30:00","66978","3.202","208.5","4.867","199.1","1018.412","17.89","72.99","134.2","0.0"],
    [1520482,"2026-05-18 11:40:00","66979","1.954","215.1","3.659","186.0","1018.477","18.04","69.12","134.2","0.0"],
    [1520483,"2026-05-18 11:50:00","66980","2.6519999999999997","202.9","4.1160000000000005","221.2","1018.35","17.93","71.59","144.7","0.1"],
    [1520484,"2026-05-18 12:00:00","66981","3.426","169.3","4.769","169.6","1017.977","17.87","72.35","390.6","0.0"],
    [1520485,"2026-05-18 12:10:00","66982","4.302","178.2","5.292000000000001","174.4","1017.715","17.77","77.64","565.5","0.0"],
    [1520486,"2026-05-18 12:20:00","66983","4.6","193.3","5.912999999999999","189.1","1017.807","17.76","78.51","524.4","0.1"],
    [1520487,"2026-05-18 12:30:00","66984","4.44","185.4","5.684","180.4","1017.731","17.88","76.39","428.6","0.0"],
    [1520488,"2026-05-18 12:40:00","66985","4.209","191.7","5.39","200.6","1017.677","17.93","77.63","329.3","0.0"],
    [1520489,"2026-05-18 12:50:00","66986","4.454","191.0","5.2589999999999995","196.1","1017.686","17.86","77.55","388.4","0.0"],
    [1520490,"2026-05-18 13:00:00","66987","4.601","188.9","5.978","174.0","1017.665","17.91","77.74","251.4","0.0"],
    [1520491,"2026-05-18 13:10:00","66988","4.59","189.9","6.207000000000001","190.6","1017.804","17.96","79.31","144.6","0.0"],
    [1520492,"2026-05-18 13:20:00","66989","4.492","203.6","6.957999999999999","195.3","1017.928","18.05","79.02","134.2","0.0"],
    [1520493,"2026-05-18 13:30:00","66990","3.925","222.8","5.782","213.7","1018.168","18.16","78.74","78.56","0.2"],
    [1520494,"2026-05-18 13:40:00","66991","1.514","231.2","2.6460000000000004","254.2","1018.03","17.88","81.8","71.49","0.6"],
    [1520495,"2026-05-18 13:50:00","66992","3.628","158.3","7.154","172.1","1017.434","17.56","83.3","123.4","0.5"],
    [1520496,"2026-05-18 14:00:00","66993","6.287000000000001","179.2","8.4","173.3","1017.092","17.63","84.6","213.7","0.2"],
    [1520497,"2026-05-18 14:10:00","66994","3.96","205.6","5.88","192.2","1017.334","17.71","85.7","268.4","0.0"],
    [1520498,"2026-05-18 14:20:00","66995","4.5760000000000005","192.7","6.599","200.9","1017.14","17.92","83.3","486.1","0.1"],
    [1520499,"2026-05-18 14:30:00","66996","5.521","194.1","7.872999999999999","190.0","1017.072","18.1","82.5","480.5","0.0"],
    [1520500,"2026-05-18 14:40:00","66997","4.973","197.9","7.546","201.5","1017.078","18.35","81.4","505.6","0.0"],
    [1520501,"2026-05-18 14:50:00","66998","3.653","209.0","7.285","216.8","1017.181","18.58","81.2","492.0","0.0"],
    [1520502,"2026-05-18 15:00:00","66999","5.111000000000001","201.8","7.709","199.0","1017.094","18.42","80.8","395.5","0.0"],
    [1520503,"2026-05-18 15:10:00","67000","5.622999999999999","193.4","7.415","190.9","1016.973","18.38","81.2","434.1","0.0"],
    [1520504,"2026-05-18 15:20:00","67001","5.6770000000000005","195.1","7.285","194.7","1016.84","18.32","81.6","435.4","0.0"],
    [1520505,"2026-05-18 15:30:00","67002","5.081","199.7","7.252000000000001","208.0","1016.86","18.4","81.7","451.3","0.0"],
    [1520506,"2026-05-18 15:40:00","67003","5.271","194.4","7.154","182.8","1016.882","18.35","82.1","486.0","0.0"],
    [1520507,"2026-05-18 15:50:00","67004","5.117","197.4","7.481","197.3","1016.901","18.4","81.8","441.1","0.0"],
    [1520508,"2026-05-18 16:00:00","67005","5.358","193.9","7.742000000000001","186.6","1016.95","18.47","80.0","434.7","0.0"],
    [1520509,"2026-05-18 16:10:00","67006","4.95","197.0","8.0","185.7","1017.082","18.48","80.2","363.4","0.0"],
    [1520510,"2026-05-18 16:20:00","67007","4.254","198.4","7.513","206.4","1017.089","18.45","80.9","297.2","0.0"],
    [1520511,"2026-05-18 16:30:00","67008","4.422","188.2","6.5329999999999995","185.6","1017.006","18.35","82.1","226.1","0.0"],
    [1520512,"2026-05-18 16:40:00","67009","4.806","185.3","5.978","193.6","1016.946","18.19","82.2","219.7","0.0"],
    [1520513,"2026-05-18 16:50:00","67010","4.1530000000000005","190.1","6.042999999999999","192.2","1016.934","18.23","83.0","147.7","0.0"],
    [1520514,"2026-05-18 17:00:00","67011","4.499","194.2","6.141","195.2","1016.917","18.18","82.2","95.4","0.0"],
    [1520515,"2026-05-18 17:10:00","67012","3.04","200.6","6.011","183.8","1017","18.24","81.3","123.4","0.0"],
    [1520516,"2026-05-18 17:20:00","67013","3.864","194.7","5.553","190.6","1016.905","18.23","82.8","67.09","0.0"],
    [1520517,"2026-05-18 17:30:00","67014","4.434","200.0","6.468","193.0","1016.911","18.11","83.4","67.09","0.0"],
    [1520518,"2026-05-18 17:40:00","67015","2.546","209.3","4.051","208.3","1017.09","18.23","82.8","67.09","0.0"],
    [1520519,"2026-05-18 17:50:00","67016","2.656","217.1","4.573","232.7","1017.277","18.26","83.4","67.1","0.0"],
    [1520520,"2026-05-18 18:00:00","67017","2.457","215.4","3.7889999999999997","212.5","1017.386","18.25","84.5","67.1","0.0"],
    [1520521,"2026-05-18 18:10:00","67018","3.181","197.3","5.194","199.5","1017.442","18.28","85.5","63.1","0.0"],
    [1520522,"2026-05-18 18:20:00","67019","3.035","199.0","6.305","190.7","1017.504","18.27","86.6","1.65","0.0"],
    [1520523,"2026-05-18 18:30:00","67020","3.113","200.2","5.096","203.7","1017.505","18.26","86.8","0.0","0.0"],
    [1520524,"2026-05-18 18:40:00","67021","3.273","198.2","4.573","181.4","1017.551","18.25","86.7","0.0","0.0"],
    [1520525,"2026-05-18 18:50:00","67022","2.907","202.5","4.573","207.4","1017.669","18.19","85.1","0.0","0.0"],
    [1520526,"2026-05-18 19:00:00","67023","2.012","208.5","3.6260000000000003","234.4","1017.819","18.26","84.6","0.0","0.0"],
    [1520527,"2026-05-18 19:10:00","67024","3.112","201.3","4.508","201.6","1017.747","18.28","84.4","0.0","0.0"],
    [1520528,"2026-05-18 19:20:00","67025","2.456","199.9","3.528","198.5","1017.705","18.25","85.5","0.0","0.0"],
    [1520529,"2026-05-18 19:30:00","67026","2.168","206.1","3.201","209.7","1017.75","18.2","86.3","0.0","0.0"],
    [1520530,"2026-05-18 19:40:00","67027","2.574","203.3","3.9530000000000003","200.5","1017.802","18.2","86.8","0.0","0.0"],
    [1520531,"2026-05-18 19:50:00","67028","2.024","220.2","3.0380000000000003","219.6","1017.908","18.18","87.1","0.0","0.0"],
    [1520532,"2026-05-18 20:00:00","67029","1.695","202.4","3.1689999999999996","230.9","1018.07","18.19","86.7","0.0","0.0"],
    [1520533,"2026-05-18 20:10:00","67030","2.2359999999999998","191.8","3.201","200.1","1018.112","18.2","87.2","0.0","0.0"],
    [1520534,"2026-05-18 20:20:00","67031","2.053","207.7","2.94","197.3","1018.249","18.15","87.6","0.0","0.0"],
    [1520535,"2026-05-18 20:30:00","67032","2.147","198.4","3.103","192.2","1018.38","18.14","87.6","0.0","0.0"],
    [1520536,"2026-05-18 20:40:00","67033","1.999","197.6","3.005","189.5","1018.524","18.17","88.0","0.0","0.0"],
    [1520537,"2026-05-18 20:50:00","67034","2.488","199.0","3.365","208.2","1018.584","18.15","88.6","0.0","0.0"],
    [1520538,"2026-05-18 21:00:00","67035","2.5980000000000003","200.9","3.7889999999999997","207.1","1018.641","18.09","88.6","0.0","0.0"],
    [1520539,"2026-05-18 21:10:00","67036","2.43","207.0","3.267","210.4","1018.686","18.03","88.4","0.0","0.0"],
    [1520540,"2026-05-18 21:20:00","67037","1.8359999999999999","205.9","3.136","191.4","1018.733","18.03","88.1","0.0","0.0"],
    [1520541,"2026-05-18 21:30:00","67038","2.504","206.9","3.659","220.3","1018.74","18.0","87.5","0.0","0.0"],
    [1520542,"2026-05-18 21:40:00","67039","2.634","197.4","3.6910000000000003","188.6","1018.719","18.0","87.0","0.0","0.0"],
    [1520543,"2026-05-18 21:50:00","67040","2.5540000000000003","197.0","3.6260000000000003","196.5","1018.774","17.99","86.6","0.0","0.0"],
    [1520544,"2026-05-18 22:00:00","67041","2.611","197.4","3.6260000000000003","197.6","1018.789","18.0","86.5","0.0","0.0"],
    [1520545,"2026-05-18 22:10:00","67042","2.465","205.3","3.299","206.6","1018.855","17.97","86.4","0.0","0.0"],
    [1520546,"2026-05-18 22:20:00","67043","2.056","207.3","3.0380000000000003","217.2","1018.861","17.97","86.3","0.0","0.0"],
    [1520547,"2026-05-18 22:30:00","67044","2.186","201.0","3.0380000000000003","185.6","1018.83","17.97","86.7","0.0","0.0"],
    [1520548,"2026-05-18 22:40:00","67045","2.102","202.1","3.299","196.8","1018.769","17.94","87.2","0.0","0.0"],
    [1520549,"2026-05-18 22:50:00","67046","2.0909999999999997","202.0","3.299","196.8","1018.727","17.86","87.3","0.0","0.0"],
    [1520550,"2026-05-18 23:00:00","67047","1.821","200.4","2.45","194.2","1018.757","17.83","87.5","0.0","0.0"],
    [1520551,"2026-05-18 23:10:00","67048","1.9180000000000001","200.9","2.515","210.4","1018.826","17.75","87.2","0.0","0.0"],
    [1520552,"2026-05-18 23:20:00","67049","1.942","205.6","2.679","194.7","1018.863","17.77","86.4","0.0","0.0"],
    [1520553,"2026-05-18 23:30:00","67050","1.643","210.9","2.287","210.0","1018.816","17.81","86.4","0.0","0.0"],
    [1520554,"2026-05-18 23:40:00","67051","1.161","219.3","2.123","210.0","1018.802","17.8","86.6","0.0","0.0"],
    [1520555,"2026-05-18 23:50:00","67052","1.168","215.7","1.9269999999999998","218.0","1018.742","17.81","86.6","0.0","0.0"],
    [1520556,"2026-05-19 00:00:00","67053","0.9940000000000001","222.0","1.699","202.3","1018.724","17.81","86.9","0.0","0.0"],
    [1520557,"2026-05-19 00:10:00","67054","0.96","259.0","1.339","272.2","1018.714","17.76","86.9","0.0","0.0"],
    [1520558,"2026-05-19 00:20:00","67055","0.6629999999999999","264.3","1.143","280.6","1018.677","17.65","87.2","0.0","0.0"],
    [1520559,"2026-05-19 00:30:00","67056","0.309","223.4","0.6859999999999999","210.1","1018.578","17.6","87.4","0.0","0.0"],
    [1520560,"2026-05-19 00:40:00","67057","0.649","211.1","1.078","208.5","1018.539","17.58","87.6","0.0","0.0"],
    [1520561,"2026-05-19 00:50:00","67058","0.67","182.7","0.9470000000000001","186.5","1018.502","17.6","87.7","0.0","0.0"],
    [1520562,"2026-05-19 01:00:00","67059","0.825","193.7","1.143","190.9","1018.438","17.64","87.7","0.0","0.0"],
    [1520563,"2026-05-19 01:10:00","67060","0.46","210.8","0.7509999999999999","204.9","1018.452","17.61","87.7","0.0","0.0"],
    [1520564,"2026-05-19 01:20:00","67061","0.0","0.0","0.0","0.0","1018.401","17.6","87.9","0.0","0.0"],
    [1520565,"2026-05-19 01:30:00","67062","0.034","192.0","0.425","195.8","1018.355","17.59","87.9","0.0","0.0"],
    [1520566,"2026-05-19 01:40:00","67063","0.38","194.9","0.915","200.2","1018.364","17.6","88.4","0.0","0.0"],
    [1520567,"2026-05-19 01:50:00","67064","0.163","206.8","0.915","200.2","1018.41","17.54","89.0","0.0","0.0"],
    [1520568,"2026-05-19 02:00:00","67065","0.0","0.0","0.0","0.0","1018.377","17.49","89.1","0.0","0.0"],
    [1520569,"2026-05-19 02:10:00","67066","0.0","0.0","0.0","0.0","1018.271","17.48","89.3","0.0","0.0"],
    [1520570,"2026-05-19 02:20:00","67067","0.0","0.0","0.0","0.0","1018.299","17.41","89.3","0.0","0.0"],
    [1520571,"2026-05-19 02:30:00","67068","0.171","338.0","0.621","347.4","1018.23","17.32","89.2","0.0","0.0"],
    [1520572,"2026-05-19 02:40:00","67069","0.267","319.2","0.882","272.2","1018.243","17.22","88.9","0.0","0.0"],
    [1520573,"2026-05-19 02:50:00","67070","0.9570000000000001","270.5","1.176","268.4","1018.257","17.01","88.2","0.0","0.0"],
    [1520574,"2026-05-19 03:00:00","67071","0.7709999999999999","261.3","1.209","262.0","1018.241","16.93","88.1","0.0","0.0"],
    [1520575,"2026-05-19 03:10:00","67072","0.883","244.7","1.666","259.5","1018.253","16.86","88.2","0.0","0.0"],
    [1520576,"2026-05-19 03:20:00","67073","0.738","232.9","1.4369999999999998","248.8","1018.293","16.8","88.2","0.0","0.0"],
    [1520577,"2026-05-19 03:30:00","67074","0.7609999999999999","245.2","1.699","258.9","1018.383","16.76","88.1","0.0","0.0"],
    [1520578,"2026-05-19 03:40:00","67075","0.598","254.1","1.339","253.2","1018.294","16.72","88.0","0.0","0.0"],
    [1520579,"2026-05-19 03:50:00","67076","1.083","263.2","1.4369999999999998","267.0","1018.328","16.68","87.9","0.0","0.0"],
    [1520580,"2026-05-19 04:00:00","67077","0.638","239.9","1.3719999999999999","254.9","1018.283","16.73","87.9","0.0","0.0"],
    [1520581,"2026-05-19 04:10:00","67078","0.214","192.6","0.915","177.9","1018.249","16.79","87.9","0.0","0.0"],
    [1520582,"2026-05-19 04:20:00","67079","0.0","0.0","0.0","0.0","1018.241","16.82","88.1","0.0","0.0"],
    [1520583,"2026-05-19 04:30:00","67080","0.0","0.0","0.0","0.0","1018.372","16.78","88.1","0.0","0.0"],
    [1520584,"2026-05-19 04:40:00","67081","0.0","0.0","0.0","0.0","1018.48","16.8","88.3","0.0","0.0"],
    [1520585,"2026-05-19 04:50:00","67082","0.0","0.0","0.0","0.0","1018.569","16.79","88.4","0.0","0.0"],
    [1520586,"2026-05-19 05:00:00","67083","0.192","256.1","0.882","256.7","1018.684","16.73","88.0","2.573","0.0"],
    [1520587,"2026-05-19 05:10:00","67084","0.177","258.5","0.784","256.4","1018.701","16.72","87.3","33.84","0.0"],
    [1520588,"2026-05-19 05:20:00","67085","0.073","186.3","0.523","201.5","1018.758","16.89","87.2","71.98","0.0"],
    [1520589,"2026-05-19 05:30:00","67086","0.51","231.1","1.045","226.2","1018.918","16.99","86.8","72.21","0.0"],
    [1520590,"2026-05-19 05:40:00","67087","0.078","286.9","0.555","286.9","1018.961","17.04","86.5","80.7","0.0"],
    [1520591,"2026-05-19 05:50:00","67088","0.254","272.8","0.621","271.3","1018.992","17.06","85.8","134.0","0.0"],
    [1520592,"2026-05-19 06:00:00","67089","0.0","0.0","0.0","0.0","1019.016","17.66","84.9","195.4","0.0"],
    [1520593,"2026-05-19 06:10:00","67090","0.0","0.0","0.0","0.0","1019.097","18.78","81.2","265.4","0.0"],
    [1520594,"2026-05-19 06:20:00","67091","0.0","0.0","0.0","0.0","1019.279","19.23","76.34","127.0","0.0"],
    [1520595,"2026-05-19 06:30:00","67092","0.0","0.0","0.0","0.0","1019.39","18.29","80.3","197.0","0.0"],
    [1520596,"2026-05-19 06:40:00","67093","0.0","0.0","0.0","0.0","1019.486","18.03","82.9","125.4","0.0"],
    [1520597,"2026-05-19 06:50:00","67094","0.0","0.0","0.0","0.0","1019.491","17.98","83.1","201.0","0.0"],
    [1520598,"2026-05-19 07:00:00","67095","0.591","101.7","1.307","103.3","1019.484","17.94","82.6","325.6","0.0"],
    [1520599,"2026-05-19 07:10:00","67096","1.6130000000000002","100.8","2.156","103.3","1019.552","17.86","82.5","329.9","0.0"],
    [1520600,"2026-05-19 07:20:00","67097","1.4040000000000001","114.1","1.9269999999999998","120.0","1019.667","17.82","82.5","454.9","0.0"],
    [1520601,"2026-05-19 07:30:00","67098","1.641","139.7","2.0909999999999997","127.9","1019.809","17.96","82.3","534.7","0.0"],
    [1520602,"2026-05-19 07:40:00","67099","1.686","144.2","2.352","143.1","1019.94","18.01","82.3","544.5","0.0"],
    [1520603,"2026-05-19 07:50:00","67100","2.23","143.8","2.842","157.9","1020.024","17.85","83.4","391.2","0.0"],
    [1520604,"2026-05-19 08:00:00","67101","2.602","144.5","3.005","154.1","1020.051","17.82","83.9","286.2","0.0"],
    [1520605,"2026-05-19 08:10:00","67102","2.458","142.1","2.842","137.8","1020.066","17.86","83.5","361.9","0.0"],
    [1520606,"2026-05-19 08:20:00","67103","2.585","137.3","3.201","139.6","1020.099","18.01","83.0","366.0","0.0"],
    [1520607,"2026-05-19 08:30:00","67104","3.0669999999999997","148.5","3.528","158.0","1020.033","17.95","84.0","499.7","0.0"],
    [1520608,"2026-05-19 08:40:00","67105","3.133","144.5","3.5610000000000004","150.4","1020.057","18.02","84.0","704.9","0.0"],
    [1520609,"2026-05-19 08:50:00","67106","3.0069999999999997","143.3","3.365","147.0","1020.117","18.09","83.5","717.2","0.0"],
    [1520610,"2026-05-19 09:00:00","67107","2.948","150.4","3.463","152.0","1020.171","18.17","83.4","724.7","0.0"],
    [1520611,"2026-05-19 09:10:00","67108","3.286","149.6","3.855","152.9","1020.16","18.09","84.4","460.4","0.0"],
    [1520612,"2026-05-19 09:20:00","67109","3.477","153.6","3.985","152.3","1020.154","18.08","85.2","461.5","0.0"],
    [1520613,"2026-05-19 09:30:00","67110","3.7110000000000003","155.0","4.1160000000000005","158.0","1020.228","18.05","86.0","527.3","0.0"],
    [1520614,"2026-05-19 09:40:00","67111","3.7769999999999997","156.1","4.345","158.3","1020.314","18.04","85.6","465.6","0.0"],
    [1520615,"2026-05-19 09:50:00","67112","3.6460000000000004","157.4","4.149","157.8","1020.362","18.12","85.1","498.7","0.0"],
    [1520616,"2026-05-19 10:00:00","67113","4.1080000000000005","164.6","4.737","166.2","1020.329","18.24","84.1","803.0","0.0"],
    [1520617,"2026-05-19 10:10:00","67114","4.209","169.9","4.737","172.3","1020.42","18.23","83.8","920.0","0.0"],
    [1520618,"2026-05-19 10:20:00","67115","4.204","165.8","4.704","163.1","1020.462","18.28","83.4","858.0","0.0"],
    [1520619,"2026-05-19 10:30:00","67116","4.226","163.7","4.867","166.8","1020.464","18.31","82.4","905.0","0.0"],
    [1520620,"2026-05-19 10:40:00","67117","4.374","165.5","4.933","166.9","1020.424","18.33","83.3","906.0","0.0"],
    [1520621,"2026-05-19 10:50:00","67118","4.3069999999999995","164.9","4.867","167.5","1020.427","18.32","83.3","906.0","0.0"],
    [1520622,"2026-05-19 11:00:00","67119","4.684","168.4","5.292000000000001","166.3","1020.45","18.39","83.1","906.0","0.0"],
    [1520623,"2026-05-19 11:10:00","67120","4.419","167.3","5.194","165.8","1020.473","18.41","84.2","907.0","0.0"],
    [1520624,"2026-05-19 11:20:00","67121","4.723","170.9","5.292000000000001","170.3","1020.432","18.42","84.6","921.0","0.0"],
    [1520625,"2026-05-19 11:30:00","67122","4.63","171.2","5.1610000000000005","176.1","1020.461","18.48","84.1","913.0","0.0"],
    [1520626,"2026-05-19 11:40:00","67123","4.656000000000001","170.8","5.292000000000001","170.7","1020.413","18.56","82.9","948.0","0.0"],
    [1520627,"2026-05-19 11:50:00","67124","4.9319999999999995","174.0","5.651","174.0","1020.318","18.63","82.9","920.0","0.0"],
    [1520628,"2026-05-19 12:00:00","67125","4.795","172.6","5.782","165.1","1020.321","18.69","82.5","929.0","0.0"],
    [1520629,"2026-05-19 12:10:00","67126","4.633","175.2","5.619","178.6","1020.347","18.69","82.2","900.0","0.0"],
    [1520630,"2026-05-19 12:20:00","67127","4.695","175.8","5.684","175.7","1020.314","18.69","83.0","949.0","0.0"],
    [1520631,"2026-05-19 12:30:00","67128","4.573","174.2","5.815","174.5","1020.401","18.74","82.5","910.0","0.0"],
    [1520632,"2026-05-19 12:40:00","67129","4.77","174.1","5.684","174.2","1020.306","18.7","83.8","906.0","0.0"],
    [1520633,"2026-05-19 12:50:00","67130","5.126","170.9","5.684","171.4","1020.246","18.61","84.9","906.0","0.0"],
    [1520634,"2026-05-19 13:00:00","67131","4.518","170.8","5.194","172.2","1020.243","18.58","84.8","906.0","0.0"],
    [1520635,"2026-05-19 13:10:00","67132","4.2139999999999995","170.1","5.325","172.9","1020.304","18.63","83.9","867.0","0.0"],
    [1520636,"2026-05-19 13:20:00","67133","3.758","165.7","4.475","161.3","1020.253","18.69","84.7","881.0","0.0"],
    [1520637,"2026-05-19 13:30:00","67134","4.335","165.9","4.835","164.9","1020.183","18.66","84.0","863.0","0.0"],
    [1520638,"2026-05-19 13:40:00","67135","4.112","167.4","4.737","170.8","1020.157","18.73","84.3","820.0","0.0"],
    [1520639,"2026-05-19 13:50:00","67136","4.301","170.2","5.619","172.3","1020.081","18.75","84.7","814.0","0.0"],
    [1520640,"2026-05-19 14:00:00","67137","4.473","173.7","5.619","172.3","1019.99","18.85","84.5","789.7","0.0"],
    [1520641,"2026-05-19 14:10:00","67138","4.088","176.4","5.553","173.8","1020.059","18.91","84.9","848.0","0.0"],
    [1520642,"2026-05-19 14:20:00","67139","4.354","173.0","5.422999999999999","173.3","1019.986","18.97","84.2","847.0","0.0"],
    [1520643,"2026-05-19 14:30:00","67140","4.218","177.9","5.227","164.2","1019.871","19.02","84.6","647.5","0.0"],
    [1520644,"2026-05-19 14:40:00","67141","4.08","184.3","5.129","176.8","1019.859","19.16","84.0","638.2","0.0"],
    [1520645,"2026-05-19 14:50:00","67142","4.336","189.6","5.7170000000000005","199.3","1019.827","19.12","84.3","677.0","0.0"],
    [1520646,"2026-05-19 15:00:00","67143","5.202000000000001","192.0","6.37","196.1","1019.742","19.14","84.3","624.8","0.0"],
    [1520647,"2026-05-19 15:10:00","67144","4.323","183.4","5.945","177.9","1019.822","19.18","84.4","626.9","0.0"],
    [1520648,"2026-05-19 15:20:00","67145","4.648","171.9","5.553","169.3","1019.872","19.2","83.5","596.5","0.0"],
    [1520649,"2026-05-19 15:30:00","67146","4.93","169.5","6.109","169.5","1019.797","19.1","84.5","476.6","0.0"],
    [1520650,"2026-05-19 15:40:00","67147","4.672","169.0","5.815","169.3","1019.772","19.05","83.2","357.8","0.0"],
    [1520651,"2026-05-19 15:50:00","67148","3.78","178.0","4.835","170.7","1019.827","19.13","83.9","512.1","0.0"],
    [1520652,"2026-05-19 16:00:00","67149","3.667","188.3","4.769","188.6","1019.823","19.26","82.7","452.1","0.0"],
    [1520653,"2026-05-19 16:10:00","67150","4.178","171.4","5.325","169.4","1019.815","19.16","83.1","369.6","0.0"],
    [1520654,"2026-05-19 16:20:00","67151","4.977","170.4","5.619","169.3","1019.807","19.07","83.5","349.2","0.0"],
    [1520655,"2026-05-19 16:30:00","67152","4.481","176.7","5.553","172.3","1019.881","19.16","82.6","416.6","0.0"],
    [1520656,"2026-05-19 16:40:00","67153","4.357","188.5","5.194","190.4","1019.944","19.27","82.5","327.3","0.0"],
    [1520657,"2026-05-19 16:50:00","67154","4.197","178.3","5.651","162.2","1019.964","19.2","83.1","362.7","0.0"],
    [1520658,"2026-05-19 17:00:00","67155","4.36","173.4","5.357","170.2","1020.036","19.16","83.6","332.3","0.0"],
    [1520659,"2026-05-19 17:10:00","67156","4.6530000000000005","173.9","5.586","173.9","1020.037","19.04","85.2","312.5","0.0"],
    [1520660,"2026-05-19 17:20:00","67157","4.698","169.7","6.239","174.7","1020.06","18.96","86.1","291.7","0.0"],
    [1520661,"2026-05-19 17:30:00","67158","4.631","166.7","5.7170000000000005","173.5","1020.12","18.89","85.6","105.7","0.0"],
    [1520662,"2026-05-19 17:40:00","67159","4.243","172.4","4.998","174.3","1020.197","18.88","85.7","69.7","0.0"],
    [1520663,"2026-05-19 17:50:00","67160","3.6660000000000004","175.1","4.279","176.6","1020.271","18.98","86.2","67.42","0.0"],
    [1520664,"2026-05-19 18:00:00","67161","4.095","188.5","5.455","193.5","1020.362","18.89","85.2","68.48","0.0"],
    [1520665,"2026-05-19 18:10:00","67162","3.438","183.6","4.475","194.4","1020.528","18.99","83.4","68.98","0.0"],
    [1520666,"2026-05-19 18:20:00","67163","3.576","178.8","4.704","173.0","1020.561","19.02","80.9","67.09","0.0"],
    [1520667,"2026-05-19 18:30:00","67164","3.4360000000000004","170.3","4.41","174.1","1020.636","18.98","81.5","67.09","0.0"],
    [1520668,"2026-05-19 18:40:00","67165","3.0989999999999998","176.9","4.181","175.2","1020.662","19.04","80.2","67.09","0.0"],
    [1520669,"2026-05-19 18:50:00","67166","3.0839999999999996","170.4","4.018","159.3","1020.703","19.06","80.1","13.67","0.0"],
    [1520670,"2026-05-19 19:00:00","67167","2.588","170.8","3.103","172.5","1020.828","19.05","80.2","0.0","0.0"],
    [1520671,"2026-05-19 19:10:00","67168","2.494","167.8","3.1689999999999996","171.7","1020.833","19.05","81.0","0.0","0.0"],
    [1520672,"2026-05-19 19:20:00","67169","1.857","167.1","2.221","178.7","1020.961","19.0","82.1","0.0","0.0"],
    [1520673,"2026-05-19 19:30:00","67170","2.6310000000000002","175.9","3.6910000000000003","177.2","1020.975","18.84","83.0","0.0","0.0"],
    [1520674,"2026-05-19 19:40:00","67171","2.49","173.6","3.005","170.3","1021.029","18.71","83.3","0.0","0.0"],
    [1520675,"2026-05-19 19:50:00","67172","2.31","173.0","2.7439999999999998","173.5","1021.14","18.63","84.3","0.0","0.0"],
    [1520676,"2026-05-19 20:00:00","67173","2.166","161.8","2.417","175.5","1021.313","18.56","84.3","0.0","0.0"],
    [1520677,"2026-05-19 20:10:00","67174","1.945","150.6","2.319","144.9","1021.48","18.54","83.7","0.0","0.0"],
    [1520678,"2026-05-19 20:20:00","67175","1.399","137.6","1.895","134.9","1021.706","18.55","83.4","0.0","0.0"],
    [1520679,"2026-05-19 20:30:00","67176","1.298","114.7","2.515","113.5","1021.882","18.58","83.5","0.0","0.0"],
    [1520680,"2026-05-19 20:40:00","67177","1.945","116.2","2.515","111.7","1021.981","18.57","83.6","0.0","0.0"],
    [1520681,"2026-05-19 20:50:00","67178","1.695","112.3","2.0580000000000003","109.1","1022.152","18.55","83.5","0.0","0.0"],
    [1520682,"2026-05-19 21:00:00","67179","1.2830000000000001","106.6","1.993","108.8","1022.209","18.54","83.6","0.0","0.0"],
    [1520683,"2026-05-19 21:10:00","67180","1.368","97.6","1.797","98.3","1022.246","18.53","83.6","0.0","0.0"],
    [1520684,"2026-05-19 21:20:00","67181","1.212","93.6","1.7309999999999999","87.5","1022.338","18.53","83.6","0.0","0.0"],
    [1520685,"2026-05-19 21:30:00","67182","1.375","85.0","1.9269999999999998","79.6","1022.408","18.53","83.7","0.0","0.0"],
    [1520686,"2026-05-19 21:40:00","67183","0.5770000000000001","85.2","1.568","76.38","1022.479","18.54","84.1","0.0","0.0"],
    [1520687,"2026-05-19 21:50:00","67184","1.12","91.8","1.5030000000000001","82.5","1022.472","18.5","84.5","0.0","0.0"],
    [1520688,"2026-05-19 22:00:00","67185","1.159","99.1","1.47","102.9","1022.495","18.46","84.9","0.0","0.0"],
    [1520689,"2026-05-19 22:10:00","67186","0.768","66.08","1.143","79.47","1022.565","18.42","85.1","0.0","0.0"],
    [1520690,"2026-05-19 22:20:00","67187","0.867","60.32","1.307","56.29","1022.607","18.38","85.1","0.0","0.0"],
    [1520691,"2026-05-19 22:30:00","67188","0.511","47.63","0.6859999999999999","26.5","1022.673","18.37","85.0","0.0","0.0"],
    [1520692,"2026-05-19 22:40:00","67189","0.8740000000000001","31.73","1.176","32.76","1022.667","18.32","85.2","0.0","0.0"],
    [1520693,"2026-05-19 22:50:00","67190","0.483","62.57","0.8490000000000001","69.98","1022.649","18.29","84.6","0.0","0.0"],
    [1520694,"2026-05-19 23:00:00","67191","0.586","37.75","0.8170000000000001","11.57","1022.65","18.28","84.1","0.0","0.0"],
    [1520695,"2026-05-19 23:10:00","67192","0.627","26.47","0.882","12.93","1022.593","18.27","84.3","0.0","0.0"],
    [1520696,"2026-05-19 23:20:00","67193","0.535","35.27","0.915","46.09","1022.596","18.24","83.7","0.0","0.0"],
    [1520697,"2026-05-19 23:30:00","67194","0.175","50.34","0.6859999999999999","48.21","1022.565","18.28","83.5","0.0","0.0"],
    [1520698,"2026-05-19 23:40:00","67195","0.258","76.3","0.555","75.17","1022.518","18.27","84.1","0.0","0.0"],
    [1520699,"2026-05-19 23:50:00","67196","0.0","0.0","0.0","0.0","1022.51","18.2","84.6","0.0","0.0"],
    [1520700,"2026-05-20 00:00:00","67197","0.0","0.0","0.0","0.0","1022.505","18.15","85.2","0.0","0.0"],
    [1520701,"2026-05-20 00:10:00","67198","0.0","0.0","0.0","0.0","1022.539","18.07","85.1","0.0","0.0"],
    [1520702,"2026-05-20 00:20:00","67199","0.28300000000000003","132.8","0.588","125.6","1022.602","18.12","84.9","0.0","0.0"],
    [1520703,"2026-05-20 00:30:00","67200","0.7559999999999999","198.4","1.111","204.7","1022.593","18.14","85.5","0.0","0.0"],
    [1520704,"2026-05-20 00:40:00","67201","0.444","215.1","0.98","202.2","1022.578","18.09","85.8","0.0","0.0"],
    [1520705,"2026-05-20 00:50:00","67202","0.698","269.0","1.209","275.7","1022.558","17.97","85.1","0.0","0.0"],
    [1520706,"2026-05-20 01:00:00","67203","1.052","267.8","1.633","262.4","1022.52","17.94","84.8","0.0","0.0"],
    [1520707,"2026-05-20 01:10:00","67204","0.76","260.2","1.143","259.7","1022.46","17.91","84.8","0.0","0.0"],
    [1520708,"2026-05-20 01:20:00","67205","0.141","251.6","0.915","249.4","1022.406","17.86","85.0","0.0","0.0"],
    [1520709,"2026-05-20 01:30:00","67206","0.382","264.2","0.915","267.6","1022.48","17.9","85.2","0.0","0.0"],
    [1520710,"2026-05-20 01:40:00","67207","0.308","244.1","0.9470000000000001","268.9","1022.402","17.94","85.1","0.0","0.0"],
    [1520711,"2026-05-20 01:50:00","67208","0.392","228.7","0.882","224.3","1022.38","17.93","85.1","0.0","0.0"],
    [1520712,"2026-05-20 02:00:00","67209","0.414","259.4","1.078","258.4","1022.382","17.88","84.8","0.0","0.0"],
    [1520713,"2026-05-20 02:10:00","67210","0.622","266.1","0.784","260.0","1022.387","17.76","84.2","0.0","0.0"],
    [1520714,"2026-05-20 02:20:00","67211","0.263","279.2","0.882","283.9","1022.44","17.73","83.8","0.0","0.0"],
    [1520715,"2026-05-20 02:30:00","67212","0.42200000000000004","293.0","0.8170000000000001","283.5","1022.504","17.67","83.8","0.0","0.0"],
    [1520716,"2026-05-20 02:40:00","67213","0.0","0.0","0.0","0.0","1022.462","17.62","84.1","0.0","0.0"],
    [1520717,"2026-05-20 02:50:00","67214","0.0","0.0","0.0","0.0","1022.46","17.62","84.4","0.0","0.0"],
    [1520718,"2026-05-20 03:00:00","67215","0.552","355.3","0.8170000000000001","4.504","1022.522","17.66","84.8","0.0","0.0"],
    [1520719,"2026-05-20 03:10:00","67216","0.7140000000000001","14.49","0.8170000000000001","10.11","1022.52","17.75","85.4","0.0","0.0"],
    [1520720,"2026-05-20 03:20:00","67217","0.96","23.42","1.4369999999999998","37.94","1022.529","17.83","86.2","0.0","0.0"],
    [1520721,"2026-05-20 03:30:00","67218","1.147","35.97","1.405","34.64","1022.545","17.87","87.7","0.0","0.0"],
    [1520722,"2026-05-20 03:40:00","67219","0.797","32.4","0.915","35.48","1022.597","17.73","88.2","0.0","0.0"],
    [1520723,"2026-05-20 03:50:00","67220","0.185","12.1","0.8170000000000001","20.32","1022.673","17.71","88.4","0.0","0.0"],
    [1520724,"2026-05-20 04:00:00","67221","0.0","0.0","0.0","0.0","1022.727","17.72","88.8","0.0","0.0"],
    [1520725,"2026-05-20 04:10:00","67222","0.5870000000000001","263.6","1.3719999999999999","261.4","1022.813","17.43","88.2","0.0","0.0"],
    [1520726,"2026-05-20 04:20:00","67223","0.735","280.4","1.013","269.1","1022.866","17.15","87.0","0.0","0.0"],
    [1520727,"2026-05-20 04:30:00","67224","0.65","269.6","0.8490000000000001","285.7","1022.952","17.33","86.2","0.0","0.0"],
    [1520728,"2026-05-20 04:40:00","67225","0.081","241.4","0.621","243.2","1023.056","17.46","86.0","0.0","0.0"],
    [1520729,"2026-05-20 04:50:00","67226","0.0","0.0","0.0","0.0","1023.17","17.49","86.9","0.0","0.0"],
    [1520730,"2026-05-20 05:00:00","67227","0.0","0.0","0.0","0.0","1023.233","17.58","87.7","19.63","0.0"],
    [1520731,"2026-05-20 05:10:00","67228","0.04","318.5","0.359","317.2","1023.309","17.49","87.4","65.72","0.0"],
    [1520732,"2026-05-20 05:20:00","67229","0.46399999999999997","275.2","0.9470000000000001","276.7","1023.446","17.47","86.4","67.12","0.0"],
    [1520733,"2026-05-20 05:30:00","67230","0.473","267.7","0.653","270.2","1023.614","17.64","84.8","107.8","0.0"],
    [1520734,"2026-05-20 05:40:00","67231","0.057","260.1","0.555","260.6","1023.731","18.08","83.4","134.2","0.0"],
    [1520735,"2026-05-20 05:50:00","67232","0.045","142.7","0.457","147.4","1023.926","18.65","81.9","149.5","0.0"],
    [1520736,"2026-05-20 06:00:00","67233","0.838","24.53","1.96","31.55","1024.022","18.6","80.8","199.8","0.0"],
    [1520737,"2026-05-20 06:10:00","67234","1.5330000000000001","31.54","2.221","26.92","1024.146","18.35","79.58","215.8","0.0"],
    [1520738,"2026-05-20 06:20:00","67235","1.796","19.85","2.613","21.67","1024.218","18.52","78.42","268.3","0.0"],
    [1520739,"2026-05-20 06:30:00","67236","2.476","26.41","3.005","21.38","1024.302","18.81","74.72","284.1","0.0"],
    [1520740,"2026-05-20 06:40:00","67237","2.033","46.96","2.613","52.64","1024.422","19.14","73.08","335.4","0.0"],
    [1520741,"2026-05-20 06:50:00","67238","2.031","62.29","2.6460000000000004","59.06","1024.537","19.18","71.9","354.4","0.0"],
    [1520742,"2026-05-20 07:00:00","67239","2.753","70.98","3.7239999999999998","68.2","1024.612","19.09","72.73","402.5","0.0"],
    [1520743,"2026-05-20 07:10:00","67240","2.625","81.0","3.7889999999999997","80.1","1024.657","18.85","75.91","411.1","0.0"],
    [1520744,"2026-05-20 07:20:00","67241","2.445","85.5","3.299","90.0","1024.776","18.86","79.37","420.2","0.0"],
    [1520745,"2026-05-20 07:30:00","67242","2.365","89.0","2.875","86.6","1024.846","18.55","83.2","470.8","0.0"],
    [1520746,"2026-05-20 07:40:00","67243","1.932","88.4","2.385","79.23","1024.996","18.58","83.3","512.6","0.0"],
    [1520747,"2026-05-20 07:50:00","67244","1.845","89.0","2.352","94.5","1025.014","18.63","83.5","454.7","0.0"],
    [1520748,"2026-05-20 08:00:00","67245","1.64","98.3","2.025","102.6","1025.077","18.59","84.8","369.8","0.0"],
    [1520749,"2026-05-20 08:10:00","67246","2.057","110.1","2.515","119.6","1025.194","18.65","85.2","598.8","0.0"],
    [1520750,"2026-05-20 08:20:00","67247","2.164","118.6","2.842","117.9","1025.239","18.66","85.2","578.3","0.0"],
    [1520751,"2026-05-20 08:30:00","67248","1.909","121.6","2.548","118.7","1025.305","18.72","85.1","502.3","0.0"],
    [1520752,"2026-05-20 08:40:00","67249","1.861","118.2","2.45","117.8","1025.424","18.74","84.8","566.3","0.0"],
    [1520753,"2026-05-20 08:50:00","67250","2.055","113.8","2.7110000000000003","106.5","1025.456","18.94","84.0","627.5","0.0"],
    [1520754,"2026-05-20 09:00:00","67251","1.459","116.3","2.287","111.6","1025.533","18.98","82.9","677.8","0.0"],
    [1520755,"2026-05-20 09:10:00","67252","1.715","122.3","2.679","117.5","1025.562","19.25","81.4","542.5","0.0"],
    [1520756,"2026-05-20 09:20:00","67253","1.117","120.8","2.189","109.4","1025.613","19.08","82.1","564.9","0.0"],
    [1520757,"2026-05-20 09:30:00","67254","1.0270000000000001","116.1","1.993","120.1","1025.615","19.41","80.8","781.3","0.0"],
    [1520758,"2026-05-20 09:40:00","67255","0.966","90.8","1.535","95.0","1025.667","19.43","80.6","793.4","0.0"],
    [1520759,"2026-05-20 09:50:00","67256","0.695","142.6","1.47","103.1","1025.712","19.61","80.9","838.0","0.0"],
    [1520760,"2026-05-20 10:00:00","67257","1.3219999999999998","166.2","1.797","169.3","1025.758","19.41","82.7","833.0","0.0"],
    [1520761,"2026-05-20 10:10:00","67258","1.5319999999999998","170.3","2.156","160.9","1025.843","19.24","84.0","838.0","0.0"],
    [1520762,"2026-05-20 10:20:00","67259","1.3880000000000001","164.9","1.797","168.1","1025.909","19.24","84.0","844.0","0.0"],
    [1520763,"2026-05-20 10:30:00","67260","1.284","143.9","1.8619999999999999","147.6","1025.923","19.39","83.3","878.0","0.0"],
    [1520764,"2026-05-20 10:40:00","67261","1.6869999999999998","131.6","2.7110000000000003","135.8","1025.883","19.49","82.7","848.0","0.0"],
    [1520765,"2026-05-20 10:50:00","67262","1.33","156.7","1.633","149.4","1025.896","19.56","83.7","889.0","0.0"],
    [1520766,"2026-05-20 11:00:00","67263","1.351","165.3","1.96","139.3","1025.816","19.61","83.3","909.0","0.0"],
    [1520767,"2026-05-20 11:10:00","67264","1.526","173.2","1.96","178.3","1025.767","19.59","83.0","909.0","0.0"],
    [1520768,"2026-05-20 11:20:00","67265","1.5090000000000001","176.3","2.123","167.4","1025.742","19.6","83.1","907.0","0.0"],
    [1520769,"2026-05-20 11:30:00","67266","1.709","173.8","2.0909999999999997","170.7","1025.812","19.58","83.0","917.0","0.0"],
    [1520770,"2026-05-20 11:40:00","67267","2.056","171.7","2.483","169.5","1025.8","19.55","83.4","933.0","0.0"],
    [1520771,"2026-05-20 11:50:00","67268","2.248","168.8","2.907","162.2","1025.713","19.56","83.7","920.0","0.0"],
    [1520772,"2026-05-20 12:00:00","67269","2.445","172.4","2.9730000000000003","162.2","1025.672","19.5","83.8","861.0","0.0"],
    [1520773,"2026-05-20 12:10:00","67270","2.258","173.3","2.515","172.6","1025.76","19.55","83.1","808.0","0.0"],
    [1520774,"2026-05-20 12:20:00","67271","2.431","170.6","2.7110000000000003","172.0","1025.757","19.6","82.8","815.0","0.0"],
    [1520775,"2026-05-20 12:30:00","67272","2.267","167.8","2.8089999999999997","174.8","1025.712","19.69","81.9","858.0","0.0"],
    [1520776,"2026-05-20 12:40:00","67273","2.336","166.2","2.875","169.5","1025.59","19.78","81.7","903.0","0.0"],
    [1520777,"2026-05-20 12:50:00","67274","2.539","166.3","2.9730000000000003","168.8","1025.599","19.77","81.4","905.0","0.0"],
    [1520778,"2026-05-20 13:00:00","67275","2.67","161.6","3.267","169.0","1025.558","19.84","81.1","905.0","0.0"],
    [1520779,"2026-05-20 13:10:00","67276","2.555","168.5","2.907","160.4","1025.679","19.89","80.9","903.0","0.0"],
    [1520780,"2026-05-20 13:20:00","67277","2.037","163.0","2.5810000000000004","167.4","1025.749","19.95","79.85","876.0","0.0"],
    [1520781,"2026-05-20 13:30:00","67278","2.001","158.5","2.5810000000000004","164.4","1025.779","20.06","78.87","839.0","0.0"],
    [1520782,"2026-05-20 13:40:00","67279","1.916","149.2","2.6460000000000004","147.0","1025.785","20.13","77.99","838.0","0.0"],
    [1520783,"2026-05-20 13:50:00","67280","2.169","146.5","3.0380000000000003","152.6","1025.77","20.18","77.48","838.0","0.0"],
    [1520784,"2026-05-20 14:00:00","67281","2.378","150.4","3.201","147.3","1025.708","20.19","76.16","835.0","0.0"],
    [1520785,"2026-05-20 14:10:00","67282","2.3369999999999997","135.2","4.083","135.5","1025.62","20.24","74.71","787.9","0.0"],
    [1520786,"2026-05-20 14:20:00","67283","2.282","129.4","3.6260000000000003","118.8","1025.553","20.37","71.48","742.4","0.0"],
    [1520787,"2026-05-20 14:30:00","67284","2.197","142.9","2.8089999999999997","141.2","1025.432","20.35","72.79","707.7","0.0"],
    [1520788,"2026-05-20 14:40:00","67285","2.102","138.5","3.593","141.1","1025.37","20.36","73.65","687.8","0.0"],
    [1520789,"2026-05-20 14:50:00","67286","2.82","132.0","3.887","126.7","1025.287","20.34","69.12","672.0","0.0"],
    [1520790,"2026-05-20 15:00:00","67287","2.503","125.5","3.103","139.4","1025.184","20.36","69.4","580.8","0.0"],
    [1520791,"2026-05-20 15:10:00","67288","2.283","110.2","2.907","108.0","1025.193","20.34","70.14","556.2","0.0"],
    [1520792,"2026-05-20 15:20:00","67289","1.953","104.2","3.005","94.7","1025.226","20.39","70.44","575.3","0.0"],
    [1520793,"2026-05-20 15:30:00","67290","2.05","87.9","2.8089999999999997","84.5","1025.218","20.32","71.18","593.9","0.0"],
    [1520794,"2026-05-20 15:40:00","67291","1.751","107.0","2.45","104.3","1025.184","20.35","71.5","553.1","0.0"],
    [1520795,"2026-05-20 15:50:00","67292","1.7590000000000001","105.6","2.515","112.2","1025.114","20.3","72.41","533.6","0.0"],
    [1520796,"2026-05-20 16:00:00","67293","1.814","106.0","2.548","85.1","1025.052","20.3","72.03","501.3","0.0"],
    [1520797,"2026-05-20 16:10:00","67294","1.4669999999999999","107.7","2.385","108.9","1025.056","20.28","71.08","449.3","0.0"],
    [1520798,"2026-05-20 16:20:00","67295","2.04","111.5","2.842","102.4","1024.985","20.3","69.6","433.6","0.0"],
    [1520799,"2026-05-20 16:30:00","67296","1.932","108.8","2.45","94.6","1024.953","20.3","69.61","408.4","0.0"],
    [1520800,"2026-05-20 16:40:00","67297","1.801","106.9","2.679","105.9","1024.906","20.28","69.94","396.8","0.0"],
    [1520801,"2026-05-20 16:50:00","67298","1.506","113.0","2.45","104.2","1024.84","20.3","69.82","355.5","0.0"],
    [1520802,"2026-05-20 17:00:00","67299","1.275","111.9","2.7769999999999997","95.8","1024.844","20.32","69.13","263.8","0.0"],
    [1520803,"2026-05-20 17:10:00","67300","2.3409999999999997","86.6","3.0380000000000003","85.8","1024.839","20.25","70.39","298.3","0.0"],
    [1520804,"2026-05-20 17:20:00","67301","2.246","66.67","4.802","48.31","1024.818","20.31","71.12","272.0","0.0"],
    [1520805,"2026-05-20 17:30:00","67302","2.37","48.0","4.149","52.7","1024.863","20.39","71.02","207.3","0.0"],
    [1520806,"2026-05-20 17:40:00","67303","2.82","48.39","3.659","53.06","1024.918","20.35","71.73","201.1","0.0"],
    [1520807,"2026-05-20 17:50:00","67304","2.522","50.59","3.985","51.09","1024.916","20.35","71.7","172.0","0.0"],
    [1520808,"2026-05-20 18:00:00","67305","1.857","51.32","3.005","51.62","1024.942","20.46","71.01","135.3","0.0"],
    [1520809,"2026-05-20 18:10:00","67306","2.042","63.09","3.0380000000000003","44.87","1024.951","20.45","71.93","131.6","0.0"],
    [1520810,"2026-05-20 18:20:00","67307","1.765","71.88","2.613","66.87","1024.97","20.37","72.2","73.46","0.0"],
    [1520811,"2026-05-20 18:30:00","67308","1.9809999999999999","71.07","2.417","77.2","1025.009","20.36","72.91","67.06","0.0"],
    [1520812,"2026-05-20 18:40:00","67309","1.5830000000000002","68.55","2.417","62.68","1025.048","20.34","73.3","52.06","0.0"],
    [1520813,"2026-05-20 18:50:00","67310","1.4909999999999999","63.75","2.221","69.35","1025.081","20.34","71.43","0.0","0.0"],
    [1520814,"2026-05-20 19:00:00","67311","1.604","66.13","2.319","69.19","1025.104","20.37","70.55","0.0","0.0"],
    [1520815,"2026-05-20 19:10:00","67312","1.55","65.23","2.0580000000000003","63.53","1025.099","20.37","71.4","0.0","0.0"],
    [1520816,"2026-05-20 19:20:00","67313","1.2","57.02","1.633","72.32","1025.102","20.35","71.3","0.0","0.0"],
    [1520817,"2026-05-20 19:30:00","67314","1.153","75.14","1.666","86.1","1025.1","20.33","70.88","0.0","0.0"],
    [1520818,"2026-05-20 19:40:00","67315","0.884","99.0","1.568","74.05","1025.153","20.38","70.47","0.0","0.0"],
    [1520819,"2026-05-20 19:50:00","67316","0.8759999999999999","86.5","1.143","93.4","1025.186","20.31","70.77","0.0","0.0"],
    [1520820,"2026-05-20 20:00:00","67317","0.62","75.63","0.9470000000000001","66.53","1025.268","20.3","70.8","0.0","0.0"],
    [1520821,"2026-05-20 20:10:00","67318","0.506","82.6","1.078","88.1","1025.364","20.3","71.38","0.0","0.0"],
    [1520822,"2026-05-20 20:20:00","67319","0.38","79.66","0.6859999999999999","76.67","1025.401","20.24","71.88","0.0","0.0"],
    [1520823,"2026-05-20 20:30:00","67320","0.003","115.1","0.22899999999999998","118.0","1025.475","20.17","71.8","0.0","0.0"],
    [1520824,"2026-05-20 20:40:00","67321","0.0","0.0","0.0","0.0","1025.6","20.14","72.27","0.0","0.0"],
    [1520825,"2026-05-20 20:50:00","67322","0.597","165.0","1.045","163.5","1025.705","20.17","72.26","0.0","0.0"],
    [1520826,"2026-05-20 21:00:00","67323","0.851","173.6","1.111","189.3","1025.74","20.06","73.87","0.0","0.0"],
    [1520827,"2026-05-20 21:10:00","67324","0.828","186.4","1.045","205.9","1025.759","19.93","74.19","0.0","0.0"],
    [1520828,"2026-05-20 21:20:00","67325","0.7190000000000001","198.6","0.915","198.2","1025.728","19.9","74.37","0.0","0.0"],
    [1520829,"2026-05-20 21:30:00","67326","1.355","183.2","1.9269999999999998","179.8","1025.666","19.9","74.16","0.0","0.0"],
    [1520830,"2026-05-20 21:40:00","67327","1.15","190.6","1.633","185.1","1025.632","19.9","75.56","0.0","0.0"],
    [1520831,"2026-05-20 21:50:00","67328","1.349","195.0","1.797","200.8","1025.618","19.64","77.02","0.0","0.0"],
    [1520832,"2026-05-20 22:00:00","67329","1.3159999999999998","201.4","1.829","198.2","1025.595","19.62","77.38","0.0","0.0"],
    [1520833,"2026-05-20 22:10:00","67330","1.1840000000000002","234.9","1.96","249.7","1025.56","19.88","72.69","0.0","0.0"],
    [1520834,"2026-05-20 22:20:00","67331","1.238","258.7","2.0580000000000003","259.8","1025.508","20.31","68.86","0.0","0.0"],
    [1520835,"2026-05-20 22:30:00","67332","1.381","249.9","2.5810000000000004","247.2","1025.455","20.39","68.7","0.0","0.0"],
    [1520836,"2026-05-20 22:40:00","67333","1.037","253.4","2.0909999999999997","267.6","1025.361","20.45","68.68","0.0","0.0"],
    [1520837,"2026-05-20 22:50:00","67334","0.738","244.0","1.405","242.6","1025.36","20.43","68.18","0.0","0.0"],
    [1520838,"2026-05-20 23:00:00","67335","0.633","240.4","1.47","247.4","1025.325","20.44","67.28","0.0","0.0"],
    [1520839,"2026-05-20 23:10:00","67336","0.9790000000000001","250.4","1.8619999999999999","254.7","1025.237","20.48","65.8","0.0","0.0"],
    [1520840,"2026-05-20 23:20:00","67337","0.006","257.0","0.261","235.4","1025.232","20.38","66.67","0.0","0.0"],
    [1520841,"2026-05-20 23:30:00","67338","0.35600000000000004","252.8","0.882","259.6","1025.271","20.19","67.57","0.0","0.0"],
    [1520842,"2026-05-20 23:40:00","67339","1.31","257.2","1.9269999999999998","262.4","1025.265","20.13","67.64","0.0","0.0"],
    [1520843,"2026-05-20 23:50:00","67340","1.4069999999999998","247.9","2.613","253.0","1025.198","20.02","67.69","0.0","0.0"],
    [1520844,"2026-05-21 00:00:00","67341","1.594","269.2","2.254","265.2","1025.114","19.76","68.25","0.0","0.0"],
    [1520845,"2026-05-21 00:10:00","67342","0.76","249.5","1.601","278.3","1025.058","19.53","68.46","0.0","0.0"],
    [1520846,"2026-05-21 00:20:00","67343","1.095","246.3","1.96","277.3","1025.069","19.56","67.7","0.0","0.0"],
    [1520847,"2026-05-21 00:30:00","67344","1.3659999999999999","251.8","1.96","259.1","1025.022","19.46","67.65","0.0","0.0"],
    [1520848,"2026-05-21 00:40:00","67345","1.829","253.0","2.7439999999999998","264.7","1025.023","19.25","68.78","0.0","0.0"],
    [1520849,"2026-05-21 00:50:00","67346","1.6840000000000002","252.2","2.189","242.4","1024.946","18.91","70.5","0.0","0.0"],
    [1520850,"2026-05-21 01:00:00","67347","1.65","249.0","2.417","253.5","1024.875","18.63","71.32","0.0","0.0"],
    [1520851,"2026-05-21 01:10:00","67348","1.4980000000000002","252.9","2.123","264.4","1024.846","18.55","71.33","0.0","0.0"],
    [1520852,"2026-05-21 01:20:00","67349","1.903","261.2","2.8089999999999997","261.5","1024.776","18.32","72.6","0.0","0.0"],
    [1520853,"2026-05-21 01:30:00","67350","2.489","263.5","3.103","268.5","1024.742","18.19","73.12","0.0","0.0"],
    [1520854,"2026-05-21 01:40:00","67351","2.318","261.6","3.071","259.4","1024.807","18.12","73.08","0.0","0.0"],
    [1520855,"2026-05-21 01:50:00","67352","2.591","264.1","3.071","265.7","1024.8","18.11","73.02","0.0","0.0"],
    [1520856,"2026-05-21 02:00:00","67353","2.105","264.9","2.613","264.9","1024.785","18.06","73.46","0.0","0.0"],
    [1520857,"2026-05-21 02:10:00","67354","2.222","263.6","2.515","262.4","1024.841","18.08","73.1","0.0","0.0"],
    [1520858,"2026-05-21 02:20:00","67355","2.411","263.0","2.94","260.2","1024.859","18.15","72.59","0.0","0.0"],
    [1520859,"2026-05-21 02:30:00","67356","2.3","263.9","2.679","264.3","1024.868","18.04","73.23","0.0","0.0"],
    [1520860,"2026-05-21 02:40:00","67357","2.211","264.8","2.45","262.1","1024.828","17.9","73.85","0.0","0.0"],
    [1520861,"2026-05-21 02:50:00","67358","2.3280000000000003","265.3","2.613","267.1","1024.779","17.89","73.73","0.0","0.0"],
    [1520862,"2026-05-21 03:00:00","67359","2.076","265.2","2.417","263.1","1024.721","17.91","73.55","0.0","0.0"],
    [1520863,"2026-05-21 03:10:00","67360","2.272","262.2","2.679","261.5","1024.675","17.99","72.99","0.0","0.0"],
    [1520864,"2026-05-21 03:20:00","67361","2.04","262.0","2.254","260.6","1024.628","18.2","71.58","0.0","0.0"],
    [1520865,"2026-05-21 03:30:00","67362","1.871","262.6","2.254","264.3","1024.601","18.3","70.37","0.0","0.0"],
    [1520866,"2026-05-21 03:40:00","67363","1.3630000000000002","267.0","1.535","264.6","1024.577","18.38","69.49","0.0","0.0"],
    [1520867,"2026-05-21 03:50:00","67364","1.255","271.4","1.47","266.3","1024.557","18.46","68.63","0.0","0.0"],
    [1520868,"2026-05-21 04:00:00","67365","1.479","270.8","1.96","264.4","1024.551","18.49","68.2","0.0","0.0"],
    [1520869,"2026-05-21 04:10:00","67366","1.835","260.1","2.254","261.0","1024.579","18.62","66.75","0.0","0.0"],
    [1520870,"2026-05-21 04:20:00","67367","1.749","259.7","2.254","256.2","1024.513","18.6","66.46","0.0","0.0"],
    [1520871,"2026-05-21 04:30:00","67368","1.733","266.3","2.254","265.2","1024.508","18.56","66.83","0.0","0.0"],
    [1520872,"2026-05-21 04:40:00","67369","0.414","244.5","1.4369999999999998","264.2","1024.589","18.56","66.99","0.0","0.0"],
    [1520873,"2026-05-21 04:50:00","67370","0.9079999999999999","277.1","1.535","287.9","1024.703","18.58","66.93","0.0","0.0"],
    [1520874,"2026-05-21 05:00:00","67371","0.9159999999999999","323.3","1.568","290.0","1024.739","18.56","68.64","1.874","0.0"],
    [1520875,"2026-05-21 05:10:00","67372","0.069","41.4","0.6859999999999999","72.89","1024.849","18.79","70.12","63.28","0.0"],
    [1520876,"2026-05-21 05:20:00","67373","0.21100000000000002","78.77","0.882","108.4","1024.92","19.16","70.32","67.1","0.0"],
    [1520877,"2026-05-21 05:30:00","67374","0.157","102.5","0.653","96.5","1025.051","19.59","73.84","74.6","0.0"],
    [1520878,"2026-05-21 05:40:00","67375","0.276","178.2","0.588","161.1","1025.235","19.12","77.16","112.6","0.0"],
    [1520879,"2026-05-21 05:50:00","67376","0.0","0.0","0.0","0.0","1025.316","18.97","77.0","136.8","0.0"],
    [1520880,"2026-05-21 06:00:00","67377","0.0","0.0","0.0","0.0","1025.397","19.15","75.51","200.0","0.0"],
    [1520881,"2026-05-21 06:10:00","67378","0.418","142.9","1.013","121.7","1025.546","19.19","74.97","210.9","0.0"],
    [1520882,"2026-05-21 06:20:00","67379","0.583","119.7","0.9470000000000001","143.3","1025.655","19.25","73.5","267.0","0.0"],
    [1520883,"2026-05-21 06:30:00","67380","0.5770000000000001","99.7","1.829","100.0","1025.683","19.42","71.12","268.3","0.0"],
    [1520884,"2026-05-21 06:40:00","67381","1.588","94.2","1.993","105.7","1025.77","19.27","71.22","334.1","0.0"],
    [1520885,"2026-05-21 06:50:00","67382","1.099","116.0","1.8619999999999999","103.7","1025.913","19.42","69.58","350.0","0.0"],
    [1520886,"2026-05-21 07:00:00","67383","0.002","106.3","0.261","103.2","1025.998","20.06","67.64","402.3","0.0"],
    [1520887,"2026-05-21 07:10:00","67384","0.07200000000000001","40.55","1.045","25.35","1026.103","21.09","63.25","402.3","0.0"],
    [1520888,"2026-05-21 07:20:00","67385","0.669","85.5","1.797","98.0","1026.168","20.79","63.09","426.1","0.0"],
    [1520889,"2026-05-21 07:30:00","67386","1.6280000000000001","103.8","2.385","108.9","1026.219","20.2","65.13","454.8","0.0"],
    [1520890,"2026-05-21 07:40:00","67387","1.462","88.1","2.9730000000000003","95.1","1026.281","20.14","67.61","477.5","0.0"],
    [1520891,"2026-05-21 07:50:00","67388","1.925","62.86","3.299","48.46","1026.237","20.12","67.8","502.9","0.0"],
    [1520892,"2026-05-21 08:00:00","67389","2.909","49.65","3.7569999999999997","36.88","1026.239","20.25","64.99","554.8","0.0"],
    [1520893,"2026-05-21 08:10:00","67390","3.2510000000000003","43.55","4.508","51.82","1026.273","20.11","65.87","570.4","0.0"],
    [1520894,"2026-05-21 08:20:00","67391","3.22","35.1","4.541","45.52","1026.304","20.17","68.31","627.3","0.0"],
    [1520895,"2026-05-21 08:30:00","67392","3.517","42.87","4.2139999999999995","42.17","1026.288","20.08","68.96","637.1","0.0"],
    [1520896,"2026-05-21 08:40:00","67393","2.7060000000000004","36.37","3.495","39.85","1026.312","20.2","68.14","668.0","0.0"],
    [1520897,"2026-05-21 08:50:00","67394","2.524","36.15","3.593","39.05","1026.267","20.24","68.32","704.1","0.0"],
    [1520898,"2026-05-21 09:00:00","67395","2.742","32.78","3.495","37.73","1026.179","20.27","69.54","704.4","0.0"],
    [1520899,"2026-05-21 09:10:00","67396","2.452","36.08","3.234","38.11","1026.23","20.32","69.69","762.5","0.0"],
    [1520900,"2026-05-21 09:20:00","67397","2.1959999999999997","42.11","3.397","38.88","1026.265","20.33","71.19","771.2","0.0"],
    [1520901,"2026-05-21 09:30:00","67398","1.421","53.41","3.071","48.94","1026.301","20.5","71.71","771.8","0.0"],
    [1520902,"2026-05-21 09:40:00","67399","0.9540000000000001","91.2","2.417","102.5","1026.323","20.68","71.09","833.0","0.0"],
    [1520903,"2026-05-21 09:50:00","67400","1.716","94.2","2.907","100.2","1026.286","20.68","70.98","838.0","0.0"],
    [1520904,"2026-05-21 10:00:00","67401","1.929","101.0","2.7110000000000003","116.0","1026.258","20.69","70.89","838.0","0.0"],
    [1520905,"2026-05-21 10:10:00","67402","2.128","101.8","3.332","93.8","1026.237","20.81","69.83","874.0","0.0"],
    [1520906,"2026-05-21 10:20:00","67403","1.954","99.5","2.7439999999999998","120.2","1026.225","20.95","67.75","905.0","0.0"],
    [1520907,"2026-05-21 10:30:00","67404","2.335","113.0","3.43","121.7","1026.204","21.09","65.38","905.0","0.0"],
    [1520908,"2026-05-21 10:40:00","67405","2.412","119.5","3.1689999999999996","114.6","1026.117","21.15","65.26","905.0","0.0"],
    [1520909,"2026-05-21 10:50:00","67406","2.7230000000000003","119.0","3.5610000000000004","114.2","1026.079","21.21","63.67","905.0","0.0"],
    [1520910,"2026-05-21 11:00:00","67407","3.137","120.4","4.1160000000000005","120.1","1025.945","21.25","62.35","916.0","0.0"],
    [1520911,"2026-05-21 11:10:00","67408","2.81","118.6","3.6260000000000003","118.1","1025.869","21.2","63.41","970.0","0.0"],
    [1520912,"2026-05-21 11:20:00","67409","2.909","135.9","4.018","138.1","1025.769","21.15","65.28","972.0","0.0"],
    [1520913,"2026-05-21 11:30:00","67410","2.8169999999999997","140.9","3.7239999999999998","142.8","1025.72","21.02","66.24","972.0","0.0"],
    [1520914,"2026-05-21 11:40:00","67411","3.253","141.4","4.018","144.4","1025.623","20.91","67.6","972.0","0.0"],
    [1520915,"2026-05-21 11:50:00","67412","3.238","140.0","4.2139999999999995","128.0","1025.566","20.94","67.48","972.0","0.0"],
    [1520916,"2026-05-21 12:00:00","67413","2.839","139.1","3.887","125.8","1025.583","20.89","67.77","972.0","0.0"],
    [1520917,"2026-05-21 12:10:00","67414","3.028","144.5","4.051","143.2","1025.57","20.88","68.85","972.0","0.0"],
    [1520918,"2026-05-21 12:20:00","67415","3.2089999999999996","144.8","4.018","136.9","1025.483","20.77","69.79","972.0","0.0"],
    [1520919,"2026-05-21 12:30:00","67416","2.748","146.0","3.463","132.7","1025.416","20.76","70.84","970.0","0.0"],
    [1520920,"2026-05-21 12:40:00","67417","3.111","141.0","4.051","142.3","1025.316","20.73","70.8","919.0","0.0"],
    [1520921,"2026-05-21 12:50:00","67418","2.622","143.8","3.495","164.0","1025.259","20.72","71.92","905.0","0.0"],
    [1520922,"2026-05-21 13:00:00","67419","2.977","142.3","3.887","143.1","1025.194","20.62","71.64","905.0","0.0"],
    [1520923,"2026-05-21 13:10:00","67420","2.356","146.4","3.397","145.2","1025.218","20.67","72.37","905.0","0.0"],
    [1520924,"2026-05-21 13:20:00","67421","2.7030000000000003","153.2","3.332","136.9","1025.173","20.63","71.97","905.0","0.0"],
    [1520925,"2026-05-21 13:30:00","67422","2.892","154.7","3.855","142.6","1025.121","20.63","72.4","897.0","0.0"],
    [1520926,"2026-05-21 13:40:00","67423","2.907","152.3","3.6910000000000003","153.1","1025.134","20.62","73.08","841.0","0.0"],
    [1520927,"2026-05-21 13:50:00","67424","2.952","149.8","3.855","147.7","1025.14","20.58","73.49","838.0","0.0"],
    [1520928,"2026-05-21 14:00:00","67425","3.173","151.2","3.92","156.3","1025.083","20.59","72.8","838.0","0.0"],
    [1520929,"2026-05-21 14:10:00","67426","3.102","153.7","3.822","159.0","1024.963","20.59","74.51","813.0","0.0"],
    [1520930,"2026-05-21 14:20:00","67427","3.301","155.6","3.855","157.2","1024.928","20.51","74.81","771.2","0.0"],
    [1520931,"2026-05-21 14:30:00","67428","2.875","152.5","3.822","163.1","1024.822","20.5","76.44","771.1","0.0"],
    [1520932,"2026-05-21 14:40:00","67429","2.966","159.3","3.463","166.7","1024.694","20.51","76.02","720.5","0.0"],
    [1520933,"2026-05-21 14:50:00","67430","3.305","164.9","4.051","165.3","1024.631","20.42","75.7","704.1","0.0"],
    [1520934,"2026-05-21 15:00:00","67431","3.355","157.9","4.083","166.1","1024.568","20.46","73.94","697.5","0.0"],
    [1520935,"2026-05-21 15:10:00","67432","3.181","155.9","3.9530000000000003","161.5","1024.533","20.57","75.6","637.1","0.0"],
    [1520936,"2026-05-21 15:20:00","67433","3.551","164.1","4.279","176.5","1024.457","20.45","75.95","637.0","0.0"],
    [1520937,"2026-05-21 15:30:00","67434","3.8810000000000002","169.3","4.933","171.0","1024.385","20.46","77.17","581.8","0.0"],
    [1520938,"2026-05-21 15:40:00","67435","4.1819999999999995","166.6","4.933","166.6","1024.332","20.42","80.1","569.5","0.0"],
    [1520939,"2026-05-21 15:50:00","67436","4.852","170.6","6.011","167.3","1024.28","20.31","81.6","520.9","0.0"],
    [1520940,"2026-05-21 16:00:00","67437","5.414","172.8","6.207000000000001","175.1","1024.227","20.42","81.9","502.9","0.0"],
    [1520941,"2026-05-21 16:10:00","67438","4.5360000000000005","182.3","5.586","190.2","1024.134","20.65","81.3","463.7","0.0"],
    [1520942,"2026-05-21 16:20:00","67439","5.37","173.6","6.239","171.4","1024.025","20.72","79.41","435.9","0.0"],
    [1520943,"2026-05-21 16:30:00","67440","4.532","183.6","5.88","173.3","1023.988","20.92","74.44","416.2","0.0"],
    [1520944,"2026-05-21 16:40:00","67441","4.758","193.6","6.0760000000000005","194.8","1023.871","21.88","62.27","402.3","0.0"],
    [1520945,"2026-05-21 16:50:00","67442","5.159","187.7","6.893","185.9","1023.725","21.67","65.9","383.5","0.0"],
    [1520946,"2026-05-21 17:00:00","67443","4.724","188.4","6.435","185.3","1023.778","21.93","60.88","335.3","0.0"],
    [1520947,"2026-05-21 17:10:00","67444","5.422999999999999","190.6","6.697","186.8","1023.688","22.0","59.98","318.4","0.0"],
    [1520948,"2026-05-21 17:20:00","67445","4.808","192.4","6.729","184.7","1023.625","21.8","64.71","268.2","0.0"],
    [1520949,"2026-05-21 17:30:00","67446","5.004","186.0","6.272","179.8","1023.616","21.58","69.86","250.0","0.0"],
    [1520950,"2026-05-21 17:40:00","67447","4.859","184.0","6.37","188.9","1023.609","21.21","72.08","201.2","0.0"],
    [1520951,"2026-05-21 17:50:00","67448","5.045","182.8","6.566","183.1","1023.635","21.02","74.46","188.7","0.0"],
    [1520952,"2026-05-21 18:00:00","67449","4.912","186.3","6.141","188.7","1023.647","21.18","69.42","134.2","0.0"],
    [1520953,"2026-05-21 18:10:00","67450","5.28","187.7","6.795","188.2","1023.626","21.24","69.41","134.0","0.0"],
    [1520954,"2026-05-21 18:20:00","67451","5.235","195.9","6.827000000000001","195.5","1023.699","21.24","70.3","79.72","0.0"],
    [1520955,"2026-05-21 18:30:00","67452","4.102","207.1","5.749","199.6","1023.824","21.45","66.32","67.06","0.0"],
    [1520956,"2026-05-21 18:40:00","67453","3.903","198.7","5.88","196.2","1023.902","21.43","67.38","66.06","0.0"],
    [1520957,"2026-05-21 18:50:00","67454","3.765","201.2","5.357","201.2","1024.023","21.17","72.27","7.684","0.0"],
    [1520958,"2026-05-21 19:00:00","67455","2.908","201.4","4.638999999999999","201.3","1024.098","21.1","72.88","0.0","0.0"],
    [1520959,"2026-05-21 19:10:00","67456","3.32","201.4","5.031000000000001","210.9","1024.221","20.87","75.35","0.0","0.0"],
    [1520960,"2026-05-21 19:20:00","67457","2.0780000000000003","199.9","3.299","207.1","1024.313","20.85","74.23","0.0","0.0"],
    [1520961,"2026-05-21 19:30:00","67458","2.526","203.2","3.822","203.5","1024.349","20.8","73.49","0.0","0.0"],
    [1520962,"2026-05-21 19:40:00","67459","1.5430000000000001","206.8","3.005","216.3","1024.431","20.85","74.06","0.0","0.0"],
    [1520963,"2026-05-21 19:50:00","67460","1.776","195.2","2.7110000000000003","194.0","1024.509","20.75","76.17","0.0","0.0"],
    [1520964,"2026-05-21 20:00:00","67461","1.9869999999999999","188.1","2.613","185.4","1024.619","20.6","78.48","0.0","0.0"],
    [1520965,"2026-05-21 20:10:00","67462","2.062","181.8","2.7110000000000003","191.6","1024.665","20.3","82.3","0.0","0.0"],
    [1520966,"2026-05-21 20:20:00","67463","1.8869999999999998","178.0","2.7110000000000003","168.0","1024.734","20.19","85.5","0.0","0.0"],
    [1520967,"2026-05-21 20:30:00","67464","1.726","179.9","2.5810000000000004","195.2","1024.793","19.96","87.4","0.0","0.0"],
    [1520968,"2026-05-21 20:40:00","67465","1.185","187.8","1.9269999999999998","188.4","1024.903","19.87","87.9","0.0","0.0"],
    [1520969,"2026-05-21 20:50:00","67466","1.436","184.9","2.417","192.2","1024.917","19.79","85.9","0.0","0.0"],
    [1520970,"2026-05-21 21:00:00","67467","1.969","196.5","2.548","199.4","1024.911","20.01","83.3","0.0","0.0"],
    [1520971,"2026-05-21 21:10:00","67468","1.831","196.3","2.352","193.7","1024.916","20.14","83.2","0.0","0.0"],
    [1520972,"2026-05-21 21:20:00","67469","1.901","201.6","2.352","207.0","1024.851","20.11","83.4","0.0","0.0"],
    [1520973,"2026-05-21 21:30:00","67470","1.673","222.3","2.254","224.9","1024.857","20.15","83.4","0.0","0.0"],
    [1520974,"2026-05-21 21:40:00","67471","1.505","236.7","2.6460000000000004","232.2","1024.82","20.25","82.8","0.0","0.0"],
    [1520975,"2026-05-21 21:50:00","67472","1.5659999999999998","233.3","2.6460000000000004","244.7","1024.861","20.26","82.9","0.0","0.0"],
    [1520976,"2026-05-21 22:00:00","67473","1.631","247.3","2.9730000000000003","255.7","1024.885","20.22","82.9","0.0","0.0"],
    [1520977,"2026-05-21 22:10:00","67474","1.683","254.0","3.332","261.5","1024.882","20.19","82.8","0.0","0.0"],
    [1520978,"2026-05-21 22:20:00","67475","1.1","252.3","1.8619999999999999","261.6","1024.893","20.15","82.6","0.0","0.0"],
    [1520979,"2026-05-21 22:30:00","67476","1.766","246.2","2.94","256.2","1024.834","20.07","81.1","0.0","0.0"],
    [1520980,"2026-05-21 22:40:00","67477","1.709","249.9","2.94","251.7","1024.866","20.11","80.9","0.0","0.0"],
    [1520981,"2026-05-21 22:50:00","67478","1.5130000000000001","257.5","2.6460000000000004","249.3","1024.855","20.07","81.4","0.0","0.0"],
    [1520982,"2026-05-21 23:00:00","67479","1.3619999999999999","249.5","2.483","262.6","1024.869","20.01","81.8","0.0","0.0"],
    [1520983,"2026-05-21 23:10:00","67480","1.847","252.1","3.299","242.1","1024.809","19.98","81.7","0.0","0.0"],
    [1520984,"2026-05-21 23:20:00","67481","1.735","252.4","2.94","254.0","1024.742","19.95","80.6","0.0","0.0"],
    [1520985,"2026-05-21 23:30:00","67482","1.794","251.1","2.679","247.8","1024.733","19.91","80.9","0.0","0.0"],
    [1520986,"2026-05-21 23:40:00","67483","1.962","264.2","2.907","267.8","1024.734","19.85","81.8","0.0","0.0"],
    [1520987,"2026-05-21 23:50:00","67484","1.588","260.2","3.0380000000000003","254.5","1024.708","19.65","82.6","0.0","0.0"],
    [1520988,"2026-05-22 00:00:00","67485","1.6780000000000002","260.2","2.8089999999999997","263.9","1024.676","19.47","82.4","0.0","0.0"],
    [1520989,"2026-05-22 00:10:00","67486","1.6130000000000002","255.7","3.103","258.8","1024.57","19.41","80.9","0.0","0.0"],
    [1520990,"2026-05-22 00:20:00","67487","2.089","248.6","3.855","263.8","1024.552","19.41","79.25","0.0","0.0"],
    [1520991,"2026-05-22 00:30:00","67488","1.899","247.8","3.7239999999999998","255.4","1024.509","19.39","77.3","0.0","0.0"],
    [1520992,"2026-05-22 00:40:00","67489","2.208","246.0","3.463","249.8","1024.419","19.38","75.32","0.0","0.0"],
    [1520993,"2026-05-22 00:50:00","67490","1.653","256.5","3.136","270.5","1024.366","19.28","73.39","0.0","0.0"],
    [1520994,"2026-05-22 01:00:00","67491","1.7369999999999999","253.4","3.43","269.4","1024.361","19.22","71.27","0.0","0.0"],
    [1520995,"2026-05-22 01:10:00","67492","1.55","251.7","2.875","245.9","1024.344","19.23","69.27","0.0","0.0"],
    [1520996,"2026-05-22 01:20:00","67493","1.368","252.9","3.0380000000000003","246.4","1024.336","19.12","68.72","0.0","0.0"],
    [1520997,"2026-05-22 01:30:00","67494","2.238","246.9","3.6260000000000003","256.1","1024.258","19.39","64.8","0.0","0.0"],
    [1520998,"2026-05-22 01:40:00","67495","1.969","245.6","3.103","241.4","1024.195","19.47","62.68","0.0","0.0"],
    [1520999,"2026-05-22 01:50:00","67496","1.69","246.1","3.332","249.8","1024.137","19.57","60.77","0.0","0.0"],
    [1521000,"2026-05-22 02:00:00","67497","2.491","250.8","3.593","253.9","1024.089","19.73","59.09","0.0","0.0"],
    [1521001,"2026-05-22 02:10:00","67498","1.745","249.4","2.907","242.9","1024.075","19.89","56.48","0.0","0.0"],
    [1521002,"2026-05-22 02:20:00","67499","1.564","261.5","2.7769999999999997","260.0","1024.083","19.44","61.28","0.0","0.0"],
    [1521003,"2026-05-22 02:30:00","67500","1.3869999999999998","264.6","2.7110000000000003","253.0","1024.082","19.18","62.45","0.0","0.0"],
    [1521004,"2026-05-22 02:40:00","67501","1.6380000000000001","254.2","2.94","254.0","1024.026","18.97","62.6","0.0","0.0"],
    [1521005,"2026-05-22 02:50:00","67502","1.776","255.7","3.1689999999999996","257.8","1024.032","18.86","62.51","0.0","0.0"],
    [1521006,"2026-05-22 03:00:00","67503","2.119","253.6","3.332","264.3","1024.018","19.17","59.06","0.0","0.0"],
    [1521007,"2026-05-22 03:10:00","67504","1.8230000000000002","266.9","2.613","283.7","1023.992","18.88","61.19","0.0","0.0"],
    [1521008,"2026-05-22 03:20:00","67505","1.681","258.1","2.9730000000000003","258.5","1023.975","18.63","61.16","0.0","0.0"],
    [1521009,"2026-05-22 03:30:00","67506","2.54","256.9","3.495","254.6","1023.886","18.39","62.25","0.0","0.0"],
    [1521010,"2026-05-22 03:40:00","67507","2.495","255.1","3.659","252.0","1023.889","18.42","61.3","0.0","0.0"],
    [1521011,"2026-05-22 03:50:00","67508","2.061","253.6","3.267","252.3","1023.892","18.54","60.48","0.0","0.0"],
    [1521012,"2026-05-22 04:00:00","67509","2.2119999999999997","252.3","3.887","269.9","1023.852","18.96","57.55","0.0","0.0"],
    [1521013,"2026-05-22 04:10:00","67510","2.31","251.9","3.6260000000000003","249.9","1023.872","19.31","55.7","0.0","0.0"],
    [1521014,"2026-05-22 04:20:00","67511","2.296","253.6","3.5610000000000004","245.6","1023.884","19.41","55.48","0.0","0.0"],
    [1521015,"2026-05-22 04:30:00","67512","2.0780000000000003","253.9","3.299","247.7","1023.971","19.14","57.08","0.0","0.0"],
    [1521016,"2026-05-22 04:40:00","67513","2.497","250.3","3.7889999999999997","259.4","1024.07","19.12","57.02","0.0","0.0"],
    [1521017,"2026-05-22 04:50:00","67514","2.8560000000000003","253.0","4.1160000000000005","253.5","1024.114","19.21","56.31","0.0","0.0"],
    [1521018,"2026-05-22 05:00:00","67515","2.2319999999999998","268.3","3.43","250.1","1024.164","18.68","59.53","56.59","0.0"],
    [1521019,"2026-05-22 05:10:00","67516","1.2930000000000001","311.4","1.895","265.1","1024.359","18.48","61.58","34.81","0.0"],
    [1521020,"2026-05-22 05:20:00","67517","1.579","41.81","2.94","41.09","1024.595","18.76","62.84","50.61","0.0"],
    [1521021,"2026-05-22 05:30:00","67518","2.6039999999999996","35.65","3.887","42.44","1024.681","19.03","64.94","110.2","0.0"],
    [1521022,"2026-05-22 05:40:00","67519","2.113","18.44","2.842","23.49","1024.747","19.48","61.01","119.8","0.0"],
    [1521023,"2026-05-22 05:50:00","67520","1.807","22.5","2.842","30.24","1024.812","19.71","59.44","164.4","0.0"],
    [1521024,"2026-05-22 06:00:00","67521","2.082","34.77","2.907","49.09","1024.832","19.95","57.87","201.3","0.0"],
    [1521025,"2026-05-22 06:10:00","67522","2.218","37.55","3.267","37.09","1024.87","20.29","56.0","225.3","0.0"],
    [1521026,"2026-05-22 06:20:00","67523","1.954","41.1","2.8089999999999997","62.61","1024.916","20.34","56.87","268.3","0.0"],
    [1521027,"2026-05-22 06:30:00","67524","2.673","36.17","3.365","44.13","1024.957","20.2","57.77","295.6","0.0"],
    [1521028,"2026-05-22 06:40:00","67525","3.015","31.13","3.887","38.24","1025.106","20.16","60.13","335.4","0.0"],
    [1521029,"2026-05-22 06:50:00","67526","3.678","32.57","5.586","37.21","1025.154","20.46","62.51","356.6","0.0"],
    [1521030,"2026-05-22 07:00:00","67527","4.235","26.22","5.194","26.92","1025.284","20.31","70.01","402.4","0.0"],
    [1521031,"2026-05-22 07:10:00","67528","3.812","32.97","5.096","53.59","1025.386","19.99","72.65","406.0","0.0"],
    [1521032,"2026-05-22 07:20:00","67529","4.399","44.72","5.586","48.44","1025.441","19.98","70.32","435.9","0.0"],
    [1521033,"2026-05-22 07:30:00","67530","4.329","32.42","5.292000000000001","31.26","1025.542","20.54","64.94","438.8","0.0"],
    [1521034,"2026-05-22 07:40:00","67531","4.0169999999999995","36.57","5.194","40.83","1025.636","20.66","65.54","502.6","0.0"],
    [1521035,"2026-05-22 07:50:00","67532","4.178","45.76","4.9","44.54","1025.615","20.29","68.84","503.0","0.0"],
    [1521036,"2026-05-22 08:00:00","67533","4.055","48.58","4.573","50.67","1025.631","20.35","67.24","564.7","0.0"],
    [1521037,"2026-05-22 08:10:00","67534","3.759","45.6","4.279","46.37","1025.681","20.43","66.8","570.0","0.0"],
    [1521038,"2026-05-22 08:20:00","67535","3.49","43.23","4.279","49.54","1025.718","20.41","67.69","618.1","0.0"],
    [1521039,"2026-05-22 08:30:00","67536","3.1910000000000003","40.57","3.9530000000000003","43.13","1025.743","20.3","70.51","637.1","0.0"],
    [1521040,"2026-05-22 08:40:00","67537","3.21","40.26","3.822","41.46","1025.774","20.17","73.47","651.6","0.0"],
    [1521041,"2026-05-22 08:50:00","67538","3.285","39.41","4.2139999999999995","42.44","1025.805","20.03","75.1","704.1","0.0"],
    [1521042,"2026-05-22 09:00:00","67539","3.201","39.28","3.92","40.29","1025.8","19.86","77.51","704.1","0.0"],
    [1521043,"2026-05-22 09:10:00","67540","3.0239999999999996","35.87","4.1160000000000005","31.79","1025.788","19.79","79.7","740.5","0.0"],
    [1521044,"2026-05-22 09:20:00","67541","3.4760000000000004","40.41","4.247","40.51","1025.815","19.73","81.6","771.2","0.0"],
    [1521045,"2026-05-22 09:30:00","67542","3.37","37.2","4.083","38.74","1025.849","19.64","83.2","771.2","0.0"],
    [1521046,"2026-05-22 09:40:00","67543","3.321","35.84","4.345","38.11","1025.816","19.65","84.5","805.0","0.0"],
    [1521047,"2026-05-22 09:50:00","67544","3.07","36.95","3.855","35.66","1025.83","19.65","85.0","838.0","0.0"],
    [1521048,"2026-05-22 10:00:00","67545","3.07","38.12","4.018","41.3","1025.838","19.77","85.8","838.0","0.0"],
    [1521049,"2026-05-22 10:10:00","67546","3.008","35.1","3.9530000000000003","34.2","1025.85","19.76","87.1","838.0","0.0"],
    [1521050,"2026-05-22 10:20:00","67547","2.4019999999999997","36.03","3.397","37.4","1025.849","19.87","87.5","859.0","0.0"],
    [1521051,"2026-05-22 10:30:00","67548","1.969","39.79","3.332","37.9","1025.846","19.9","87.6","900.0","0.0"],
    [1521052,"2026-05-22 10:40:00","67549","2.278","41.24","3.397","32.89","1025.793","20.02","87.1","905.0","0.0"],
    [1521053,"2026-05-22 10:50:00","67550","2.2880000000000003","34.26","3.201","39.13","1025.749","19.97","87.3","905.0","0.0"],
    [1521054,"2026-05-22 11:00:00","67551","2.003","43.27","3.299","60.38","1025.681","19.95","87.3","905.0","0.0"],
    [1521055,"2026-05-22 11:10:00","67552","1.238","79.26","2.548","106.7","1025.646","20.12","86.8","905.0","0.0"],
    [1521056,"2026-05-22 11:20:00","67553","1.5530000000000002","47.16","2.7769999999999997","42.84","1025.611","20.24","86.1","905.0","0.0"],
    [1521057,"2026-05-22 11:30:00","67554","1.764","51.36","3.1689999999999996","58.63","1025.6","20.23","85.1","915.0","0.0"],
    [1521058,"2026-05-22 11:40:00","67555","2.219","42.62","3.267","40.02","1025.543","20.29","84.5","937.0","0.0"],
    [1521059,"2026-05-22 11:50:00","67556","2.354","41.23","3.6910000000000003","44.31","1025.503","20.28","85.7","940.0","0.0"],
    [1521060,"2026-05-22 12:00:00","67557","1.607","60.98","3.267","60.48","1025.492","20.39","85.5","926.0","0.0"],
    [1521061,"2026-05-22 12:10:00","67558","2.092","45.64","3.332","38.66","1025.408","20.39","83.0","926.0","0.0"],
    [1521062,"2026-05-22 12:20:00","67559","1.74","48.09","3.005","37.1","1025.357","20.6","79.63","908.0","0.0"],
    [1521063,"2026-05-22 12:30:00","67560","2.34","43.8","3.6260000000000003","38.93","1025.318","20.79","74.31","905.0","0.0"],
    [1521064,"2026-05-22 12:40:00","67561","2.072","43.62","3.6910000000000003","49.71","1025.283","21.0","76.28","905.0","0.0"],
    [1521065,"2026-05-22 12:50:00","67562","2.39","45.45","3.659","47.34","1025.177","20.9","80.1","905.0","0.0"],
    [1521066,"2026-05-22 13:00:00","67563","2.29","49.34","3.7889999999999997","62.55","1025.182","20.81","79.3","905.0","0.0"],
    [1521067,"2026-05-22 13:10:00","67564","2.03","50.07","3.5610000000000004","35.06","1025.161","20.99","77.41","905.0","0.0"],
    [1521068,"2026-05-22 13:20:00","67565","2.252","45.41","3.659","54.92","1025.095","20.96","76.7","896.0","0.0"],
    [1521069,"2026-05-22 13:30:00","67566","2.7060000000000004","40.79","4.541","40.78","1025.065","21.01","76.45","840.0","0.0"],
    [1521070,"2026-05-22 13:40:00","67567","2.8510000000000004","41.69","4.769","41.04","1025.033","20.91","78.44","838.0","0.0"],
    [1521071,"2026-05-22 13:50:00","67568","2.985","39.32","4.377","45.03","1024.981","20.9","80.5","838.0","0.0"],
    [1521072,"2026-05-22 14:00:00","67569","2.549","39.72","4.2139999999999995","40.96","1024.969","20.88","82.2","812.0","0.0"],
    [1521073,"2026-05-22 14:10:00","67570","2.405","45.1","4.1160000000000005","40.85","1024.899","20.84","82.3","771.2","0.0"],
    [1521074,"2026-05-22 14:20:00","67571","1.96","41.41","3.397","33.33","1024.825","20.89","81.5","771.2","0.0"],
    [1521075,"2026-05-22 14:30:00","67572","1.999","56.77","3.267","91.0","1024.807","20.93","81.4","764.2","0.0"],
    [1521076,"2026-05-22 14:40:00","67573","2.773","39.82","3.985","36.36","1024.796","20.87","80.2","707.9","0.0"],
    [1521077,"2026-05-22 14:50:00","67574","3.299","49.71","4.2139999999999995","50.73","1024.706","20.85","75.98","704.1","0.0"],
    [1521078,"2026-05-22 15:00:00","67575","3.188","40.0","4.2139999999999995","41.23","1024.713","20.93","77.47","666.3","0.0"],
    [1521079,"2026-05-22 15:10:00","67576","2.347","46.26","3.855","36.32","1024.679","20.97","78.07","637.0","0.0"],
    [1521080,"2026-05-22 15:20:00","67577","2.229","60.47","3.43","41.55","1024.643","21.12","77.85","627.8","0.0"],
    [1521081,"2026-05-22 15:30:00","67578","2.036","46.2","3.495","41.38","1024.62","21.19","77.25","570.1","0.0"],
    [1521082,"2026-05-22 15:40:00","67579","1.7630000000000001","46.26","2.7439999999999998","40.21","1024.575","21.3","75.21","568.9","0.0"],
    [1521083,"2026-05-22 15:50:00","67580","1.466","40.95","2.483","55.21","1024.543","21.49","73.91","505.2","0.0"],
    [1521084,"2026-05-22 16:00:00","67581","1.423","46.6","2.548","44.65","1024.549","21.54","73.75","501.7","0.0"],
    [1521085,"2026-05-22 16:10:00","67582","1.545","94.4","2.417","100.4","1024.542","21.54","71.44","438.3","0.0"],
    [1521086,"2026-05-22 16:20:00","67583","1.976","95.8","2.6460000000000004","91.3","1024.516","21.45","71.12","435.8","0.0"],
    [1521087,"2026-05-22 16:30:00","67584","2.125","83.2","3.7569999999999997","16.85","1024.562","21.44","72.75","410.2","0.0"],
    [1521088,"2026-05-22 16:40:00","67585","2.051","87.6","2.842","87.2","1024.56","21.41","73.64","402.3","0.0"],
    [1521089,"2026-05-22 16:50:00","67586","1.3119999999999998","110.6","2.221","103.8","1024.442","21.61","72.78","356.3","0.0"],
    [1521090,"2026-05-22 17:00:00","67587","1.473","96.7","2.0580000000000003","105.9","1024.409","21.64","72.91","335.2","0.0"],
    [1521091,"2026-05-22 17:10:00","67588","1.581","78.11","2.221","68.22","1024.395","21.68","73.24","285.8","0.0"],
    [1521092,"2026-05-22 17:20:00","67589","1.8119999999999998","63.96","2.45","57.49","1024.317","21.68","73.56","268.2","0.0"],
    [1521093,"2026-05-22 17:30:00","67590","1.9","72.82","2.613","72.43","1024.35","21.7","74.31","216.5","0.0"],
    [1521094,"2026-05-22 17:40:00","67591","2.12","88.6","2.7110000000000003","89.2","1024.332","21.7","75.91","201.1","0.0"],
    [1521095,"2026-05-22 17:50:00","67592","2.356","108.1","2.9730000000000003","107.4","1024.342","21.69","78.49","162.6","0.0"],
    [1521096,"2026-05-22 18:00:00","67593","2.3409999999999997","99.9","2.842","107.0","1024.348","21.51","81.3","134.1","0.0"],
    [1521097,"2026-05-22 18:10:00","67594","2.539","101.5","3.267","109.1","1024.36","21.35","83.3","117.6","0.0"],
    [1521098,"2026-05-22 18:20:00","67595","2.855","89.2","3.659","79.17","1024.398","21.17","84.7","67.81","0.0"],
    [1521099,"2026-05-22 18:30:00","67596","2.766","87.5","3.463","94.2","1024.475","21.0","84.5","67.06","0.0"],
    [1521100,"2026-05-22 18:40:00","67597","2.491","87.3","3.1689999999999996","83.0","1024.512","21.04","83.5","56.38","0.0"],
    [1521101,"2026-05-22 18:50:00","67598","2.5580000000000003","84.0","3.071","86.3","1024.594","21.02","83.0","2.431","0.0"],
    [1521102,"2026-05-22 19:00:00","67599","2.508","86.0","3.1689999999999996","92.0","1024.636","21.04","83.6","0.0","0.0"],
    [1521103,"2026-05-22 19:10:00","67600","2.3040000000000003","88.9","2.94","81.0","1024.675","20.93","83.2","0.0","0.0"],
    [1521104,"2026-05-22 19:20:00","67601","1.851","86.6","2.613","93.8","1024.703","21.02","80.5","0.0","0.0"],
    [1521105,"2026-05-22 19:30:00","67602","1.577","79.5","1.993","89.8","1024.757","21.02","79.82","0.0","0.0"],
    [1521106,"2026-05-22 19:40:00","67603","1.359","84.0","2.254","90.9","1024.82","21.02","79.57","0.0","0.0"],
    [1521107,"2026-05-22 19:50:00","67604","0.767","55.52","1.5030000000000001","94.9","1024.917","21.0","79.99","0.0","0.0"],
    [1521108,"2026-05-22 20:00:00","67605","1.054","59.27","1.568","61.09","1024.924","20.91","80.2","0.0","0.0"],
    [1521109,"2026-05-22 20:10:00","67606","1.263","52.96","1.797","60.07","1024.953","20.9","80.4","0.0","0.0"],
    [1521110,"2026-05-22 20:20:00","67607","1.127","46.22","1.895","60.12","1024.992","20.89","80.9","0.0","0.0"],
    [1521111,"2026-05-22 20:30:00","67608","1.6480000000000001","34.28","2.189","41.05","1025.053","20.79","81.4","0.0","0.0"],
    [1521112,"2026-05-22 20:40:00","67609","1.1440000000000001","32.72","1.601","38.87","1025.084","20.75","80.7","0.0","0.0"],
    [1521113,"2026-05-22 20:50:00","67610","0.768","47.45","1.405","34.89","1025.106","20.73","80.4","0.0","0.0"],
    [1521114,"2026-05-22 21:00:00","67611","0.7040000000000001","43.12","1.013","43.37","1025.164","20.67","80.8","0.0","0.0"],
    [1521115,"2026-05-22 21:10:00","67612","0.9079999999999999","41.19","1.143","38.68","1025.202","20.65","80.5","0.0","0.0"],
    [1521116,"2026-05-22 21:20:00","67613","0.445","31.43","1.013","45.77","1025.243","20.64","80.4","0.0","0.0"],
    [1521117,"2026-05-22 21:30:00","67614","0.0","0.0","0.0","0.0","1025.182","20.54","80.8","0.0","0.0"],
    [1521118,"2026-05-22 21:40:00","67615","0.0","0.0","0.0","0.0","1025.113","20.46","81.1","0.0","0.0"],
    [1521119,"2026-05-22 21:50:00","67616","0.0","0.0","0.0","0.0","1025.133","20.52","81.1","0.0","0.0"],
    [1521120,"2026-05-22 22:00:00","67617","0.052000000000000005","184.7","0.359","186.4","1025.089","20.59","80.4","0.0","0.0"],
    [1521121,"2026-05-22 22:10:00","67618","0.26","186.0","0.653","186.0","1024.972","20.6","80.2","0.0","0.0"],
    [1521122,"2026-05-22 22:20:00","67619","0.34700000000000003","206.7","0.784","212.4","1024.898","20.57","79.84","0.0","0.0"],
    [1521123,"2026-05-22 22:30:00","67620","0.259","250.1","0.915","262.6","1024.812","20.76","78.57","0.0","0.0"],
    [1521124,"2026-05-22 22:40:00","67621","1.082","252.8","2.123","251.0","1024.768","21.04","75.9","0.0","0.0"],
    [1521125,"2026-05-22 22:50:00","67622","1.148","251.5","1.993","259.9","1024.766","21.17","74.82","0.0","0.0"],
    [1521126,"2026-05-22 23:00:00","67623","1.307","252.8","2.0580000000000003","255.0","1024.702","21.13","73.31","0.0","0.0"],
    [1521127,"2026-05-22 23:10:00","67624","1.016","245.0","1.993","249.5","1024.651","21.14","70.94","0.0","0.0"],
    [1521128,"2026-05-22 23:20:00","67625","0.778","241.9","1.895","257.5","1024.609","21.17","71.1","0.0","0.0"],
    [1521129,"2026-05-22 23:30:00","67626","0.9079999999999999","251.8","1.764","249.9","1024.522","21.16","71.47","0.0","0.0"],
    [1521130,"2026-05-22 23:40:00","67627","0.867","262.2","1.8619999999999999","266.5","1024.371","21.06","71.73","0.0","0.0"],
    [1521131,"2026-05-22 23:50:00","67628","0.41700000000000004","262.5","0.915","244.1","1024.3","20.89","71.54","0.0","0.0"],
    [1521132,"2026-05-23 00:00:00","67629","0.755","223.3","1.797","216.7","1024.306","20.83","70.38","0.0","0.0"],
    [1521133,"2026-05-23 00:10:00","67630","0.33299999999999996","246.0","0.9470000000000001","229.0","1024.29","20.79","70.02","0.0","0.0"],
    [1521134,"2026-05-23 00:20:00","67631","0.609","245.0","1.2409999999999999","260.0","1024.281","20.65","68.51","0.0","0.0"],
    [1521135,"2026-05-23 00:30:00","67632","0.9740000000000001","259.9","1.666","256.0","1024.187","20.35","67.75","0.0","0.0"],
    [1521136,"2026-05-23 00:40:00","67633","1.115","250.2","1.7309999999999999","255.0","1024.118","20.1","67.67","0.0","0.0"],
    [1521137,"2026-05-23 00:50:00","67634","0.16399999999999998","244.3","0.882","237.3","1024.073","20.08","67.81","0.0","0.0"],
    [1521138,"2026-05-23 01:00:00","67635","0.105","151.9","0.49","151.8","1024.034","20.02","70.09","0.0","0.0"],
    [1521139,"2026-05-23 01:10:00","67636","0.873","188.0","1.2409999999999999","192.1","1023.993","19.77","72.68","0.0","0.0"],
    [1521140,"2026-05-23 01:20:00","67637","0.42","207.3","1.078","200.7","1023.964","19.7","72.31","0.0","0.0"],
    [1521141,"2026-05-23 01:30:00","67638","0.139","197.4","0.621","189.0","1023.911","19.78","72.67","0.0","0.0"],
    [1521142,"2026-05-23 01:40:00","67639","0.073","4.44","0.392","4.277","1023.835","19.58","71.41","0.0","0.0"],
    [1521143,"2026-05-23 01:50:00","67640","0.0","0.0","0.0","0.0","1023.785","19.47","69.97","0.0","0.0"],
    [1521144,"2026-05-23 02:00:00","67641","0.0","0.0","0.0","0.0","1023.809","19.49","73.5","0.0","0.0"],
    [1521145,"2026-05-23 02:10:00","67642","0.064","145.0","0.555","145.1","1023.826","19.38","74.71","0.0","0.0"],
    [1521146,"2026-05-23 02:20:00","67643","0.04","160.0","0.523","142.0","1023.869","19.35","71.23","0.0","0.0"],
    [1521147,"2026-05-23 02:30:00","67644","0.0","0.0","0.0","0.0","1023.954","19.57","70.76","0.0","0.0"],
    [1521148,"2026-05-23 02:40:00","67645","0.133","300.1","0.588","289.2","1023.956","19.66","70.57","0.0","0.0"],
    [1521149,"2026-05-23 02:50:00","67646","0.354","280.7","1.111","276.6","1023.981","19.59","68.21","0.0","0.0"],
    [1521150,"2026-05-23 03:00:00","67647","0.789","271.2","1.307","265.1","1024.016","19.75","66.11","0.0","0.0"],
    [1521151,"2026-05-23 03:10:00","67648","0.6970000000000001","288.7","0.9470000000000001","289.5","1024.018","19.74","65.86","0.0","0.0"],
    [1521152,"2026-05-23 03:20:00","67649","0.64","312.5","0.915","312.6","1024.039","19.69","66.38","0.0","0.0"],
    [1521153,"2026-05-23 03:30:00","67650","0.728","328.0","0.98","316.2","1024.042","19.72","66.24","0.0","0.0"],
    [1521154,"2026-05-23 03:40:00","67651","0.706","3.071","1.535","42.93","1024.002","19.82","68.76","0.0","0.0"],
    [1521155,"2026-05-23 03:50:00","67652","0.889","25.49","1.96","28.32","1024.039","19.73","74.63","0.0","0.0"],
    [1521156,"2026-05-23 04:00:00","67653","2.43","33.07","3.1689999999999996","27.43","1024.061","19.85","81.5","0.0","0.0"],
    [1521157,"2026-05-23 04:10:00","67654","2.3569999999999998","29.23","3.1689999999999996","28.67","1024.186","19.77","79.3","0.0","0.0"],
    [1521158,"2026-05-23 04:20:00","67655","2.1590000000000003","28.5","3.201","38.46","1024.223","19.71","79.3","0.0","0.0"],
    [1521159,"2026-05-23 04:30:00","67656","2.513","32.6","3.071","36.43","1024.23","19.63","78.85","0.0","0.0"],
    [1521160,"2026-05-23 04:40:00","67657","2.6430000000000002","34.54","3.1689999999999996","35.02","1024.209","19.66","77.8","0.0","0.0"],
    [1521161,"2026-05-23 04:50:00","67658","2.174","29.19","2.842","38.41","1024.211","19.7","77.18","0.28","0.0"],
    [1521162,"2026-05-23 05:00:00","67659","1.7009999999999998","33.64","2.287","37.42","1024.239","19.64","77.12","47.22","0.0"],
    [1521163,"2026-05-23 05:10:00","67660","1.8219999999999998","26.88","2.483","33.92","1024.302","19.7","76.15","65.65","0.0"],
    [1521164,"2026-05-23 05:20:00","67661","1.681","28.58","2.0909999999999997","28.77","1024.435","19.8","75.73","67.47","0.0"],
    [1521165,"2026-05-23 05:30:00","67662","1.5490000000000002","16.16","2.156","339.4","1024.504","19.83","76.95","107.4","0.0"],
    [1521166,"2026-05-23 05:40:00","67663","1.266","38.39","1.895","43.58","1024.596","20.01","77.4","134.2","0.0"],
    [1521167,"2026-05-23 05:50:00","67664","1.12","9.44","1.405","0.22699999999999998","1024.705","20.08","75.06","168.7","0.0"],
    [1521168,"2026-05-23 06:00:00","67665","1.081","15.59","1.339","18.85","1024.726","20.33","74.04","201.3","0.0"],
    [1521169,"2026-05-23 06:10:00","67666","1.27","15.72","1.633","336.3","1024.796","20.39","73.96","210.0","0.0"],
    [1521170,"2026-05-23 06:20:00","67667","1.185","16.9","1.47","16.61","1024.821","20.44","73.51","254.8","0.0"],
    [1521171,"2026-05-23 06:30:00","67668","0.8959999999999999","15.4","1.2409999999999999","13.58","1024.876","20.56","74.4","268.3","0.0"],
    [1521172,"2026-05-23 06:40:00","67669","0.34700000000000003","15.04","1.47","20.82","1024.916","20.74","74.33","321.4","0.0"],
    [1521173,"2026-05-23 06:50:00","67670","1.122","32.03","1.601","32.68","1025.037","20.67","73.34","335.8","0.0"],
    [1521174,"2026-05-23 07:00:00","67671","1.685","48.98","2.613","62.71","1025.09","20.49","76.3","386.3","0.0"],
    [1521175,"2026-05-23 07:10:00","67672","2.0340000000000003","55.58","3.071","64.86","1025.147","20.3","77.97","402.8","0.0"],
    [1521176,"2026-05-23 07:20:00","67673","1.8869999999999998","59.99","2.7110000000000003","59.5","1025.289","20.23","77.5","430.6","0.0"],
    [1521177,"2026-05-23 07:30:00","67674","1.71","58.72","2.515","59.83","1025.349","20.28","76.9","439.7","0.0"],
    [1521178,"2026-05-23 07:40:00","67675","2.384","50.81","3.201","57.53","1025.4","20.27","77.98","501.9","0.0"],
    [1521179,"2026-05-23 07:50:00","67676","2.614","47.48","3.365","56.61","1025.436","20.17","80.6","507.5","0.0"],
    [1521180,"2026-05-23 08:00:00","67677","2.9810000000000003","50.48","4.149","50.77","1025.562","20.11","82.2","567.7","0.0"],
    [1521181,"2026-05-23 08:10:00","67678","3.4619999999999997","46.37","4.181","45.58","1025.63","20.12","82.6","570.0","0.0"],
    [1521182,"2026-05-23 08:20:00","67679","4.431","43.59","4.965","46.1","1025.63","20.2","84.3","585.2","0.0"],
    [1521183,"2026-05-23 08:30:00","67680","4.565","47.0","5.325","45.57","1025.682","20.18","85.9","603.9","0.0"],
    [1521184,"2026-05-23 08:40:00","67681","4.383","47.32","5.422999999999999","45.05","1025.712","20.18","86.3","641.0","0.0"],
    [1521185,"2026-05-23 08:50:00","67682","4.151","48.3","5.684","48.19","1025.752","20.29","85.5","698.6","0.0"],
    [1521186,"2026-05-23 09:00:00","67683","3.819","47.92","5.063","45.58","1025.776","20.41","86.6","704.1","0.0"],
    [1521187,"2026-05-23 09:10:00","67684","3.887","49.55","5.194","53.9","1025.771","20.24","87.7","725.5","0.0"],
    [1521188,"2026-05-23 09:20:00","67685","3.568","45.54","5.063","38.67","1025.813","20.28","87.0","771.2","0.0"],
    [1521189,"2026-05-23 09:30:00","67686","3.514","39.95","5.521","43.09","1025.922","20.42","86.3","771.2","0.0"],
    [1521190,"2026-05-23 09:40:00","67687","2.895","34.31","5.031000000000001","23.37","1025.995","20.57","86.0","786.0","0.0"],
    [1521191,"2026-05-23 09:50:00","67688","1.921","44.51","4.475","50.99","1026.111","20.72","85.1","837.0","0.0"],
    [1521192,"2026-05-23 10:00:00","67689","2.8110000000000004","86.8","4.345","93.7","1026.173","20.76","85.1","838.0","0.0"],
    [1521193,"2026-05-23 10:10:00","67690","3.2939999999999996","90.1","4.345","88.5","1026.211","20.65","86.3","838.0","0.0"],
    [1521194,"2026-05-23 10:20:00","67691","3.3689999999999998","94.1","4.312","93.6","1026.25","20.55","87.6","860.0","0.0"],
    [1521195,"2026-05-23 10:30:00","67692","3.361","96.9","4.41","98.7","1026.231","20.56","88.2","904.0","0.0"],
    [1521196,"2026-05-23 10:40:00","67693","3.335","95.0","4.802","104.0","1026.202","20.61","88.0","905.0","0.0"],
    [1521197,"2026-05-23 10:50:00","67694","3.342","99.6","4.573","104.8","1026.207","20.68","88.1","905.0","0.0"],
    [1521198,"2026-05-23 11:00:00","67695","3.265","99.3","4.345","96.8","1026.193","20.71","87.8","905.0","0.0"],
    [1521199,"2026-05-23 11:10:00","67696","3.2089999999999996","101.0","4.247","103.3","1026.186","20.81","88.4","905.0","0.0"],
    [1521200,"2026-05-23 11:20:00","67697","3.111","107.1","4.018","108.2","1026.172","20.84","89.0","909.0","0.0"],
    [1521201,"2026-05-23 11:30:00","67698","2.338","102.5","3.7889999999999997","112.7","1026.135","20.9","89.3","916.0","0.0"],
    [1521202,"2026-05-23 11:40:00","67699","2.938","109.1","3.855","108.5","1026.107","20.94","89.5","939.0","0.0"],
    [1521203,"2026-05-23 11:50:00","67700","2.4819999999999998","118.6","3.887","113.2","1026.098","20.99","89.4","929.0","0.0"],
    [1521204,"2026-05-23 12:00:00","67701","2.8089999999999997","136.9","3.7569999999999997","134.2","1026.1","20.97","88.5","939.0","0.0"],
    [1521205,"2026-05-23 12:10:00","67702","3.049","140.5","3.855","138.2","1026.05","20.95","87.1","935.0","0.0"],
    [1521206,"2026-05-23 12:20:00","67703","3.4939999999999998","140.5","4.2139999999999995","138.6","1026.015","21.07","85.7","913.0","0.0"],
    [1521207,"2026-05-23 12:30:00","67704","3.41","139.6","4.083","146.1","1025.976","21.13","85.9","905.0","0.0"],
    [1521208,"2026-05-23 12:40:00","67705","3.228","144.7","3.7239999999999998","138.7","1025.978","21.14","84.9","905.0","0.0"],
    [1521209,"2026-05-23 12:50:00","67706","3.1310000000000002","143.7","4.051","139.3","1025.946","21.28","82.5","905.0","0.0"],
    [1521210,"2026-05-23 13:00:00","67707","3.623","139.8","4.247","138.5","1025.919","21.31","82.8","905.0","0.0"],
    [1521211,"2026-05-23 13:10:00","67708","3.1439999999999997","142.7","4.051","138.3","1025.904","21.34","84.2","899.0","0.0"],
    [1521212,"2026-05-23 13:20:00","67709","3.4139999999999997","146.8","4.083","141.0","1025.879","21.3","84.3","900.0","0.0"],
    [1521213,"2026-05-23 13:30:00","67710","3.105","145.1","4.018","145.8","1025.855","21.36","84.1","848.0","0.0"],
    [1521214,"2026-05-23 13:40:00","67711","3.062","147.9","3.7889999999999997","151.1","1025.797","21.38","84.0","838.0","0.0"],
    [1521215,"2026-05-23 13:50:00","67712","2.765","150.6","3.495","147.0","1025.789","21.44","84.5","838.0","0.0"],
    [1521216,"2026-05-23 14:00:00","67713","2.877","151.3","3.463","156.3","1025.807","21.43","84.5","832.0","0.0"],
    [1521217,"2026-05-23 14:10:00","67714","2.9819999999999998","152.0","3.9530000000000003","145.8","1025.761","21.38","82.0","781.6","0.0"],
    [1521218,"2026-05-23 14:20:00","67715","2.533","154.6","3.005","152.5","1025.678","21.5","80.8","771.1","0.0"],
    [1521219,"2026-05-23 14:30:00","67716","2.458","158.6","3.136","157.0","1025.626","21.52","80.6","726.1","0.0"],
    [1521220,"2026-05-23 14:40:00","67717","2.401","156.6","3.103","161.2","1025.537","21.57","79.65","704.0","0.0"],
    [1521221,"2026-05-23 14:50:00","67718","2.191","156.2","2.8089999999999997","156.6","1025.479","21.6","79.47","682.3","0.0"],
    [1521222,"2026-05-23 15:00:00","67719","2.272","156.1","2.842","158.9","1025.462","21.64","77.98","644.5","0.0"],
    [1521223,"2026-05-23 15:10:00","67720","2.395","153.2","3.267","154.1","1025.404","21.73","77.84","636.9","0.0"],
    [1521224,"2026-05-23 15:20:00","67721","2.8280000000000003","155.7","3.397","147.0","1025.25","21.74","78.81","636.8","0.0"],
    [1521225,"2026-05-23 15:30:00","67722","2.6639999999999997","159.5","3.397","159.9","1025.172","21.71","80.0","584.6","0.0"],
    [1521226,"2026-05-23 15:40:00","67723","2.5180000000000002","154.0","3.234","163.2","1025.126","21.73","80.4","525.4","0.0"],
    [1521227,"2026-05-23 15:50:00","67724","2.8489999999999998","152.4","3.495","157.7","1025.08","21.71","80.9","502.8","0.0"],
    [1521228,"2026-05-23 16:00:00","67725","2.258","153.8","2.8089999999999997","143.3","1025.086","21.69","80.2","485.5","0.0"],
    [1521229,"2026-05-23 16:10:00","67726","1.952","161.4","2.6460000000000004","150.2","1025.043","21.76","79.5","435.7","0.0"],
    [1521230,"2026-05-23 16:20:00","67727","2.32","156.8","2.875","155.8","1024.979","21.71","78.78","417.4","0.0"],
    [1521231,"2026-05-23 16:30:00","67728","2.392","163.5","3.201","158.5","1024.923","21.76","77.43","394.7","0.0"],
    [1521232,"2026-05-23 16:40:00","67729","2.589","159.6","3.1689999999999996","155.6","1024.82","21.76","76.18","382.4","0.0"],
    [1521233,"2026-05-23 16:50:00","67730","2.249","154.2","2.907","164.3","1024.773","21.77","76.92","335.2","0.0"],
    [1521234,"2026-05-23 17:00:00","67731","2.195","161.8","2.679","160.5","1024.681","21.74","77.68","293.6","0.0"],
    [1521235,"2026-05-23 17:10:00","67732","1.696","157.9","2.0909999999999997","158.8","1024.676","21.71","79.43","268.2","0.0"],
    [1521236,"2026-05-23 17:20:00","67733","1.435","159.6","1.764","167.2","1024.668","21.59","80.3","237.5","0.0"],
    [1521237,"2026-05-23 17:30:00","67734","1.3219999999999998","152.5","1.764","161.6","1024.626","21.59","80.7","201.1","0.0"],
    [1521238,"2026-05-23 17:40:00","67735","1.253","147.6","1.535","143.1","1024.652","21.61","80.8","201.1","0.0"],
    [1521239,"2026-05-23 17:50:00","67736","1.546","158.7","1.993","164.7","1024.612","21.65","81.0","159.2","0.0"],
    [1521240,"2026-05-23 18:00:00","67737","1.672","159.1","2.156","159.1","1024.595","21.59","81.5","134.1","0.0"],
    [1521241,"2026-05-23 18:10:00","67738","1.3259999999999998","161.6","1.96","155.1","1024.604","21.55","82.0","125.4","0.0"],
    [1521242,"2026-05-23 18:20:00","67739","0.887","148.0","1.209","153.3","1024.696","21.54","81.4","73.0","0.0"],
    [1521243,"2026-05-23 18:30:00","67740","0.835","151.1","1.307","137.2","1024.708","21.56","81.3","67.06","0.0"],
    [1521244,"2026-05-23 18:40:00","67741","1.225","151.1","1.535","155.3","1024.693","21.53","81.5","55.18","0.0"],
    [1521245,"2026-05-23 18:50:00","67742","1.198","150.6","1.535","149.9","1024.654","21.45","82.5","4.359","0.0"],
    [1521246,"2026-05-23 19:00:00","67743","0.8740000000000001","151.1","1.111","150.4","1024.615","21.39","83.1","0.0","0.0"],
    [1521247,"2026-05-23 19:10:00","67744","1.115","159.5","1.3719999999999999","156.8","1024.573","21.32","83.7","0.0","0.0"],
    [1521248,"2026-05-23 19:20:00","67745","0.898","175.3","1.2409999999999999","164.7","1024.516","21.29","84.1","0.0","0.0"],
    [1521249,"2026-05-23 19:30:00","67746","1.056","177.2","1.307","187.3","1024.539","21.21","84.6","0.0","0.0"],
    [1521250,"2026-05-23 19:40:00","67747","1.3030000000000002","192.9","1.633","181.3","1024.578","21.23","84.4","0.0","0.0"],
    [1521251,"2026-05-23 19:50:00","67748","1.3359999999999999","180.9","1.895","188.0","1024.611","21.26","84.5","0.0","0.0"],
    [1521252,"2026-05-23 20:00:00","67749","1.3030000000000002","173.9","1.535","176.4","1024.662","21.2","85.2","0.0","0.0"],
    [1521253,"2026-05-23 20:10:00","67750","1.466","195.1","1.9269999999999998","198.5","1024.735","21.17","85.8","0.0","0.0"],
    [1521254,"2026-05-23 20:20:00","67751","1.693","190.6","2.189","195.4","1024.782","21.17","85.8","0.0","0.0"],
    [1521255,"2026-05-23 20:30:00","67752","1.9069999999999998","191.2","2.221","193.5","1024.919","21.21","85.8","0.0","0.0"],
    [1521256,"2026-05-23 20:40:00","67753","2.318","199.6","2.907","197.0","1024.988","21.17","86.7","0.0","0.0"],
    [1521257,"2026-05-23 20:50:00","67754","2.185","197.3","2.613","193.3","1025.068","21.12","87.3","0.0","0.0"],
    [1521258,"2026-05-23 21:00:00","67755","1.9269999999999998","191.0","2.385","192.2","1025.092","21.06","87.1","0.0","0.0"],
    [1521259,"2026-05-23 21:10:00","67756","1.646","191.9","2.189","189.7","1025.139","20.99","87.4","0.0","0.0"],
    [1521260,"2026-05-23 21:20:00","67757","1.7180000000000002","195.1","2.156","193.6","1025.196","20.96","87.7","0.0","0.0"],
    [1521261,"2026-05-23 21:30:00","67758","1.7619999999999998","199.0","2.123","201.9","1025.264","20.95","87.0","0.0","0.0"],
    [1521262,"2026-05-23 21:40:00","67759","1.814","197.9","2.319","203.9","1025.279","21.08","85.9","0.0","0.0"],
    [1521263,"2026-05-23 21:50:00","67760","1.055","224.6","1.96","212.9","1025.231","21.24","82.9","0.0","0.0"],
    [1521264,"2026-05-23 22:00:00","67761","0.866","224.0","1.666","242.6","1025.256","21.56","80.6","0.0","0.0"],
    [1521265,"2026-05-23 22:10:00","67762","0.5870000000000001","221.3","1.3719999999999999","204.2","1025.259","21.63","80.3","0.0","0.0"],
    [1521266,"2026-05-23 22:20:00","67763","0.595","211.7","1.143","199.1","1025.3","21.59","80.8","0.0","0.0"],
    [1521267,"2026-05-23 22:30:00","67764","1.071","236.3","1.993","222.7","1025.307","21.53","81.1","0.0","0.0"],
    [1521268,"2026-05-23 22:40:00","67765","1.2","237.9","2.287","220.7","1025.321","21.58","81.1","0.0","0.0"],
    [1521269,"2026-05-23 22:50:00","67766","1.177","249.2","2.0580000000000003","262.0","1025.269","21.54","81.6","0.0","0.0"],
    [1521270,"2026-05-23 23:00:00","67767","0.772","254.3","1.568","248.7","1025.178","21.45","81.8","0.0","0.0"],
    [1521271,"2026-05-23 23:10:00","67768","0.9179999999999999","255.1","1.4369999999999998","263.7","1025.171","21.4","81.7","0.0","0.0"],
    [1521272,"2026-05-23 23:20:00","67769","0.617","247.5","1.307","260.4","1025.154","21.37","81.5","0.0","0.0"],
    [1521273,"2026-05-23 23:30:00","67770","0.706","245.5","1.405","244.3","1025.132","21.36","81.0","0.0","0.0"],
    [1521274,"2026-05-23 23:40:00","67771","0.998","236.2","1.895","239.7","1025.049","21.34","79.99","0.0","0.0"],
    [1521275,"2026-05-23 23:50:00","67772","1.067","246.5","1.895","247.2","1024.973","21.36","79.24","0.0","0.0"],
    [1521276,"2026-05-24 00:00:00","67773","0.868","242.6","1.535","247.3","1024.934","21.25","78.82","0.0","0.0"],
    [1521277,"2026-05-24 00:10:00","67774","0.882","244.1","1.993","248.1","1024.913","21.17","78.17","0.0","0.0"],
    [1521278,"2026-05-24 00:20:00","67775","0.5770000000000001","238.1","1.274","247.6","1024.875","21.15","77.91","0.0","0.0"],
    [1521279,"2026-05-24 00:30:00","67776","0.932","242.8","1.96","240.4","1024.753","21.05","77.03","0.0","0.0"],
    [1521280,"2026-05-24 00:40:00","67777","1.026","240.0","1.7309999999999999","217.0","1024.646","20.99","74.23","0.0","0.0"],
    [1521281,"2026-05-24 00:50:00","67778","1.08","239.1","1.993","248.2","1024.595","21.05","72.26","0.0","0.0"],
    [1521282,"2026-05-24 01:00:00","67779","1.0090000000000001","234.2","1.699","240.6","1024.602","20.98","71.6","0.0","0.0"],
    [1521283,"2026-05-24 01:10:00","67780","1.084","240.3","1.96","265.1","1024.557","20.83","71.72","0.0","0.0"],
    [1521284,"2026-05-24 01:20:00","67781","1.21","236.0","1.895","242.8","1024.476","20.77","71.5","0.0","0.0"],
    [1521285,"2026-05-24 01:30:00","67782","1.518","250.5","2.613","246.8","1024.42","20.75","71.76","0.0","0.0"],
    [1521286,"2026-05-24 01:40:00","67783","1.141","255.5","2.45","250.7","1024.439","20.49","73.27","0.0","0.0"],
    [1521287,"2026-05-24 01:50:00","67784","1.249","255.3","2.0909999999999997","258.1","1024.494","20.29","73.94","0.0","0.0"],
    [1521288,"2026-05-24 02:00:00","67785","0.853","261.9","1.699","264.5","1024.478","20.12","74.42","0.0","0.0"],
    [1521289,"2026-05-24 02:10:00","67786","0.5720000000000001","224.9","1.274","220.4","1024.517","19.95","74.82","0.0","0.0"],
    [1521290,"2026-05-24 02:20:00","67787","0.442","223.6","1.013","215.6","1024.574","19.86","74.83","0.0","0.0"],
    [1521291,"2026-05-24 02:30:00","67788","0.23399999999999999","253.2","0.8170000000000001","250.0","1024.629","19.72","75.13","0.0","0.0"],
    [1521292,"2026-05-24 02:40:00","67789","0.33799999999999997","248.2","0.8170000000000001","253.4","1024.642","19.53","75.66","0.0","0.0"],
    [1521293,"2026-05-24 02:50:00","67790","0.688","266.1","1.307","263.5","1024.593","19.5","75.57","0.0","0.0"],
    [1521294,"2026-05-24 03:00:00","67791","0.9259999999999999","276.2","1.274","263.8","1024.594","19.49","75.73","0.0","0.0"],
    [1521295,"2026-05-24 03:10:00","67792","1.1520000000000001","265.5","1.4369999999999998","270.7","1024.611","19.42","75.91","0.0","0.0"],
    [1521296,"2026-05-24 03:20:00","67793","1.3769999999999998","266.2","1.7309999999999999","264.2","1024.619","19.29","75.84","0.0","0.0"],
    [1521297,"2026-05-24 03:30:00","67794","1.38","266.1","1.601","274.4","1024.598","19.19","75.82","0.0","0.0"],
    [1521298,"2026-05-24 03:40:00","67795","1.229","271.6","1.5030000000000001","264.1","1024.615","19.14","76.35","0.0","0.0"],
    [1521299,"2026-05-24 03:50:00","67796","0.888","292.7","1.307","305.2","1024.626","19.17","76.73","0.0","0.0"],
    [1521300,"2026-05-24 04:00:00","67797","0.313","320.1","0.882","304.4","1024.673","19.46","77.57","0.0","0.0"],
    [1521301,"2026-05-24 04:10:00","67798","0.7859999999999999","328.6","1.274","343.4","1024.736","19.49","78.59","0.0","0.0"],
    [1521302,"2026-05-24 04:20:00","67799","0.585","327.6","1.5030000000000001","339.4","1024.829","19.51","78.83","0.0","0.0"],
    [1521303,"2026-05-24 04:30:00","67800","0.5920000000000001","310.1","1.2409999999999999","313.4","1024.837","19.61","78.75","0.0","0.0"],
    [1521304,"2026-05-24 04:40:00","67801","0.496","296.7","0.915","298.2","1024.846","19.55","77.65","0.0","0.0"],
    [1521305,"2026-05-24 04:50:00","67802","0.113","289.7","0.555","296.5","1024.849","19.63","77.33","4.697","0.0"],
    [1521306,"2026-05-24 05:00:00","67803","0.655","271.0","1.2409999999999999","263.5","1024.857","19.78","76.49","57.04","0.0"],
    [1521307,"2026-05-24 05:10:00","67804","1.4409999999999998","260.7","1.96","273.0","1024.905","19.58","76.19","55.5","0.0"],
    [1521308,"2026-05-24 05:20:00","67805","1.844","264.8","2.254","270.2","1024.953","19.45","74.92","80.1","0.0"],
    [1521309,"2026-05-24 05:30:00","67806","1.4869999999999999","263.4","1.993","260.7","1025.026","19.48","73.8","102.7","0.0"],
    [1521310,"2026-05-24 05:40:00","67807","1.7309999999999999","262.8","2.189","259.9","1025.146","19.7","71.37","133.1","0.0"],
    [1521311,"2026-05-24 05:50:00","67808","1.696","260.8","2.0909999999999997","260.1","1025.196","19.94","69.84","171.9","0.0"],
    [1521312,"2026-05-24 06:00:00","67809","1.021","269.0","1.405","282.1","1025.211","20.28","68.87","201.2","0.0"],
    [1521313,"2026-05-24 06:10:00","67810","1.023","267.6","1.5030000000000001","272.3","1025.275","20.59","67.94","231.1","0.0"],
    [1521314,"2026-05-24 06:20:00","67811","0.9159999999999999","264.7","1.535","253.4","1025.259","20.88","67.12","268.3","0.0"],
    [1521315,"2026-05-24 06:30:00","67812","0.41700000000000004","282.4","1.535","256.7","1025.313","21.27","66.35","275.9","0.0"],
    [1521316,"2026-05-24 06:40:00","67813","0.017","223.8","0.457","276.5","1025.395","22.03","64.46","335.3","0.0"],
    [1521317,"2026-05-24 06:50:00","67814","0.0","0.0","0.0","0.0","1025.472","22.15","63.57","354.4","0.0"],
    [1521318,"2026-05-24 07:00:00","67815","0.0","0.0","0.0","0.0","1025.512","21.52","64.77","402.3","0.0"],
    [1521319,"2026-05-24 07:10:00","67816","0.0","0.0","0.0","0.0","1025.568","21.42","63.99","409.2","0.0"],
    [1521320,"2026-05-24 07:20:00","67817","0.0","0.0","0.0","0.0","1025.586","21.6","63.49","435.8","0.0"],
    [1521321,"2026-05-24 07:30:00","67818","1.126","123.4","1.9269999999999998","113.6","1025.617","21.94","65.76","464.7","0.0"],
    [1521322,"2026-05-24 07:40:00","67819","1.788","120.4","2.025","120.3","1025.658","21.63","67.94","502.8","0.0"],
    [1521323,"2026-05-24 07:50:00","67820","1.841","124.2","2.156","124.0","1025.646","21.59","70.2","519.8","0.0"],
    [1521324,"2026-05-24 08:00:00","67821","1.7069999999999999","138.2","2.123","143.7","1025.726","21.65","69.48","569.9","0.0"],
    [1521325,"2026-05-24 08:10:00","67822","2.126","144.0","2.385","142.6","1025.867","21.52","69.71","571.1","0.0"],
    [1521326,"2026-05-24 08:20:00","67823","2.086","139.3","2.548","141.8","1025.898","21.61","70.05","634.3","0.0"],
    [1521327,"2026-05-24 08:30:00","67824","2.238","143.1","2.515","147.5","1025.911","21.62","71.02","636.9","0.0"],
    [1521328,"2026-05-24 08:40:00","67825","2.332","140.2","2.7439999999999998","141.6","1026.027","21.68","70.93","673.6","0.0"],
    [1521329,"2026-05-24 08:50:00","67826","2.552","143.8","3.071","138.3","1026.128","21.64","72.25","704.0","0.0"],
    [1521330,"2026-05-24 09:00:00","67827","2.653","139.4","2.907","140.6","1026.21","21.54","71.63","704.4","0.0"],
    [1521331,"2026-05-24 09:10:00","67828","2.7439999999999998","143.6","3.267","147.8","1026.292","21.63","70.77","758.5","0.0"],
    [1521332,"2026-05-24 09:20:00","67829","2.611","149.3","3.071","155.2","1026.277","21.58","72.88","771.0","0.0"],
    [1521333,"2026-05-24 09:30:00","67830","2.384","149.6","2.8089999999999997","153.5","1026.36","21.55","73.3","771.5","0.0"],
    [1521334,"2026-05-24 09:40:00","67831","2.3","149.2","2.875","147.8","1026.436","21.55","74.69","828.0","0.0"],
    [1521335,"2026-05-24 09:50:00","67832","1.9509999999999998","141.1","2.287","140.9","1026.441","21.55","74.33","838.0","0.0"],
    [1521336,"2026-05-24 10:00:00","67833","1.976","143.9","2.352","139.3","1026.447","21.81","72.07","838.0","0.0"],
    [1521337,"2026-05-24 10:10:00","67834","2.006","144.0","2.287","141.6","1026.52","21.87","72.41","868.0","0.0"],
    [1521338,"2026-05-24 10:20:00","67835","1.935","148.5","2.352","144.1","1026.536","21.89","69.66","905.0","0.0"],
    [1521339,"2026-05-24 10:30:00","67836","2.176","147.6","2.45","143.7","1026.503","22.07","68.06","905.0","0.0"],
    [1521340,"2026-05-24 10:40:00","67837","2.237","153.2","2.515","156.9","1026.468","22.08","68.51","905.0","0.0"],
    [1521341,"2026-05-24 10:50:00","67838","2.457","155.9","2.842","152.0","1026.458","22.08","71.31","905.0","0.0"],
    [1521342,"2026-05-24 11:00:00","67839","2.5860000000000003","165.6","2.9730000000000003","166.6","1026.449","21.9","71.9","912.0","0.0"],
    [1521343,"2026-05-24 11:10:00","67840","2.82","165.5","3.234","164.2","1026.417","21.85","71.21","963.0","0.0"],
    [1521344,"2026-05-24 11:20:00","67841","2.977","167.0","3.397","165.7","1026.37","21.82","72.42","972.0","0.0"],
    [1521345,"2026-05-24 11:30:00","67842","3.3480000000000003","166.0","3.7239999999999998","164.8","1026.387","21.76","73.83","972.0","0.0"],
    [1521346,"2026-05-24 11:40:00","67843","3.502","165.0","3.9530000000000003","168.1","1026.361","21.62","77.54","972.0","0.0"],
    [1521347,"2026-05-24 11:50:00","67844","3.338","164.5","3.6910000000000003","166.5","1026.344","21.59","78.05","972.0","0.0"],
    [1521348,"2026-05-24 12:00:00","67845","3.287","161.1","3.463","161.6","1026.351","21.62","78.35","972.0","0.0"],
    [1521349,"2026-05-24 12:10:00","67846","3.4760000000000004","158.9","3.855","159.0","1026.342","21.77","76.67","972.0","0.0"],
    [1521350,"2026-05-24 12:20:00","67847","3.361","155.3","3.6910000000000003","148.4","1026.293","21.82","78.59","972.0","0.0"],
    [1521351,"2026-05-24 12:30:00","67848","3.552","163.1","3.92","169.6","1026.278","21.77","79.52","972.0","0.0"],
    [1521352,"2026-05-24 12:40:00","67849","3.5039999999999996","166.2","3.822","168.0","1026.289","21.72","79.41","965.0","0.0"],
    [1521353,"2026-05-24 12:50:00","67850","3.42","163.2","3.659","160.7","1026.253","21.67","79.9","922.0","0.0"],
    [1521354,"2026-05-24 13:00:00","67851","3.465","166.5","3.822","167.7","1026.147","21.76","79.59","905.0","0.0"],
    [1521355,"2026-05-24 13:10:00","67852","3.738","175.7","4.149","175.2","1026.074","21.8","79.21","905.0","0.0"],
    [1521356,"2026-05-24 13:20:00","67853","4.047","171.4","4.377","170.4","1026.061","21.87","78.83","905.0","0.0"],
    [1521357,"2026-05-24 13:30:00","67854","4.368","169.9","4.704","174.0","1026.048","21.93","76.64","905.0","0.0"],
    [1521358,"2026-05-24 13:40:00","67855","4.136","170.3","4.573","169.0","1026.027","22.09","74.85","883.0","0.0"],
    [1521359,"2026-05-24 13:50:00","67856","4.178","168.6","4.835","172.5","1026.02","22.1","74.83","838.0","0.0"],
    [1521360,"2026-05-24 14:00:00","67857","3.9419999999999997","164.2","4.4430000000000005","168.8","1025.992","22.11","78.51","838.0","0.0"],
    [1521361,"2026-05-24 14:10:00","67858","3.978","167.4","4.345","168.8","1025.956","21.91","81.6","831.0","0.0"],
    [1521362,"2026-05-24 14:20:00","67859","3.772","162.2","4.247","164.6","1025.927","21.95","80.8","773.2","0.0"],
    [1521363,"2026-05-24 14:30:00","67860","3.877","165.3","4.083","163.3","1025.883","21.95","80.2","771.0","0.0"],
    [1521364,"2026-05-24 14:40:00","67861","3.6010000000000004","165.6","3.985","177.5","1025.864","22.04","80.2","742.8","0.0"],
    [1521365,"2026-05-24 14:50:00","67862","3.61","161.3","4.083","157.8","1025.88","22.1","78.37","704.0","0.0"],
    [1521366,"2026-05-24 15:00:00","67863","3.498","163.7","3.9530000000000003","162.2","1025.871","22.18","78.41","703.7","0.0"],
    [1521367,"2026-05-24 15:10:00","67864","3.366","163.7","3.7239999999999998","163.1","1025.856","22.18","78.5","644.5","0.0"],
    [1521368,"2026-05-24 15:20:00","67865","3.495","163.0","3.7569999999999997","164.1","1025.911","22.21","77.23","636.9","0.0"],
    [1521369,"2026-05-24 15:30:00","67866","3.5010000000000003","163.2","3.6910000000000003","162.1","1025.905","22.16","78.86","596.1","0.0"],
    [1521370,"2026-05-24 15:40:00","67867","3.628","162.8","3.822","163.6","1025.864","22.1","80.1","569.8","0.0"],
    [1521371,"2026-05-24 15:50:00","67868","3.56","160.1","3.855","161.6","1025.848","22.13","78.97","547.4","0.0"],
    [1521372,"2026-05-24 16:00:00","67869","3.307","163.8","3.9530000000000003","172.8","1025.86","22.35","74.67","502.8","0.0"],
    [1521373,"2026-05-24 16:10:00","67870","2.7910000000000004","154.5","3.201","154.2","1025.871","22.36","77.42","484.1","0.0"],
    [1521374,"2026-05-24 16:20:00","67871","2.955","155.3","3.593","170.2","1025.852","22.44","73.54","435.7","0.0"],
    [1521375,"2026-05-24 16:30:00","67872","2.6630000000000003","151.9","3.136","152.4","1025.812","22.42","74.74","426.5","0.0"],
    [1521376,"2026-05-24 16:40:00","67873","2.6830000000000003","148.9","3.5610000000000004","159.0","1025.818","22.45","71.68","402.2","0.0"],
    [1521377,"2026-05-24 16:50:00","67874","2.206","147.9","2.8089999999999997","173.4","1025.805","22.75","68.44","390.9","0.0"],
    [1521378,"2026-05-24 17:00:00","67875","2.13","144.8","2.7439999999999998","151.7","1025.771","22.58","70.07","335.2","0.0"],
    [1521379,"2026-05-24 17:10:00","67876","1.7630000000000001","138.1","2.156","147.5","1025.766","22.6","68.8","325.1","0.0"],
    [1521380,"2026-05-24 17:20:00","67877","1.431","143.4","1.993","150.0","1025.718","22.66","66.94","268.2","0.0"],
    [1521381,"2026-05-24 17:30:00","67878","1.959","149.6","2.319","146.0","1025.683","22.68","64.77","261.6","0.0"],
    [1521382,"2026-05-24 17:40:00","67879","2.0180000000000002","153.1","2.287","163.1","1025.677","22.69","65.81","201.3","0.0"],
    [1521383,"2026-05-24 17:50:00","67880","1.9609999999999999","150.0","2.254","148.9","1025.71","22.54","67.82","197.8","0.0"],
    [1521384,"2026-05-24 18:00:00","67881","2.211","144.4","2.483","140.3","1025.673","22.56","68.01","138.6","0.0"],
    [1521385,"2026-05-24 18:10:00","67882","2.11","149.7","2.5810000000000004","143.7","1025.691","22.57","68.26","134.1","0.0"],
    [1521386,"2026-05-24 18:20:00","67883","1.621","154.8","1.895","154.0","1025.636","22.42","70.73","92.0","0.0"],
    [1521387,"2026-05-24 18:30:00","67884","1.8459999999999999","170.1","2.254","175.9","1025.609","22.27","69.62","67.05","0.0"],
    [1521388,"2026-05-24 18:40:00","67885","1.7009999999999998","185.3","2.679","193.7","1025.611","22.29","68.56","65.82","0.0"],
    [1521389,"2026-05-24 18:50:00","67886","1.6680000000000001","183.0","2.189","176.2","1025.632","22.23","70.48","4.415","0.0"],
    [1521390,"2026-05-24 19:00:00","67887","1.867","172.2","2.221","172.8","1025.621","22.07","71.4","0.0","0.0"],
    [1521391,"2026-05-24 19:10:00","67888","1.828","180.6","2.221","179.2","1025.582","21.96","74.62","0.0","0.0"],
    [1521392,"2026-05-24 19:20:00","67889","1.683","188.0","2.0909999999999997","199.3","1025.571","21.86","74.5","0.0","0.0"],
    [1521393,"2026-05-24 19:30:00","67890","1.304","203.4","2.352","224.6","1025.632","22.46","67.79","0.0","0.0"],
    [1521394,"2026-05-24 19:40:00","67891","1.2209999999999999","202.2","1.829","211.7","1025.677","22.94","65.27","0.0","0.0"],
    [1521395,"2026-05-24 19:50:00","67892","1.038","210.7","1.535","198.4","1025.738","22.96","67.08","0.0","0.0"],
    [1521396,"2026-05-24 20:00:00","67893","0.429","221.9","1.078","235.5","1025.849","22.59","69.58","0.0","0.0"],
    [1521397,"2026-05-24 20:10:00","67894","1.051","218.4","1.8619999999999999","219.8","1025.97","22.63","68.9","0.0","0.0"],
    [1521398,"2026-05-24 20:20:00","67895","0.9470000000000001","214.9","1.829","221.6","1026.075","22.67","69.26","0.0","0.0"],
    [1521399,"2026-05-24 20:30:00","67896","0.9229999999999999","199.4","1.699","216.7","1026.226","22.34","72.85","0.0","0.0"],
    [1521400,"2026-05-24 20:40:00","67897","1.069","210.0","1.699","208.7","1026.332","22.3","71.54","0.0","0.0"],
    [1521401,"2026-05-24 20:50:00","67898","1.301","212.7","1.8619999999999999","231.7","1026.434","22.5","68.63","0.0","0.0"],
    [1521402,"2026-05-24 21:00:00","67899","1.175","202.0","1.5030000000000001","216.4","1026.59","22.72","65.98","0.0","0.0"],
    [1521403,"2026-05-24 21:10:00","67900","1.271","190.1","1.633","190.7","1026.682","22.5","69.58","0.0","0.0"],
    [1521404,"2026-05-24 21:20:00","67901","1.4480000000000002","187.0","1.8619999999999999","184.2","1026.67","22.04","75.13","0.0","0.0"],
    [1521405,"2026-05-24 21:30:00","67902","1.421","195.3","1.666","196.2","1026.696","21.71","80.1","0.0","0.0"],
    [1521406,"2026-05-24 21:40:00","67903","1.249","180.3","1.601","174.5","1026.721","21.49","82.8","0.0","0.0"],
    [1521407,"2026-05-24 21:50:00","67904","1.246","182.5","1.797","171.7","1026.773","21.23","86.6","0.0","0.0"],
    [1521408,"2026-05-24 22:00:00","67905","0.9490000000000001","181.7","1.274","187.4","1026.836","21.04","87.4","0.0","0.0"],
    [1521409,"2026-05-24 22:10:00","67906","1.197","185.7","1.47","189.6","1026.801","21.01","87.7","0.0","0.0"],
    [1521410,"2026-05-24 22:20:00","67907","1.1440000000000001","184.6","1.405","177.5","1026.826","20.95","87.0","0.0","0.0"],
    [1521411,"2026-05-24 22:30:00","67908","1.2570000000000001","186.7","1.7309999999999999","194.1","1026.765","21.02","86.5","0.0","0.0"],
    [1521412,"2026-05-24 22:40:00","67909","1.207","187.8","1.7309999999999999","193.9","1026.727","21.04","87.0","0.0","0.0"],
    [1521413,"2026-05-24 22:50:00","67910","1.161","188.5","1.535","185.8","1026.658","21.0","87.3","0.0","0.0"],
    [1521414,"2026-05-24 23:00:00","67911","0.7959999999999999","178.0","1.2409999999999999","180.9","1026.625","20.95","88.1","0.0","0.0"],
    [1521415,"2026-05-24 23:10:00","67912","0.713","187.8","1.045","180.0","1026.577","20.85","88.7","0.0","0.0"],
    [1521416,"2026-05-24 23:20:00","67913","0.65","192.8","1.045","192.5","1026.512","20.8","89.0","0.0","0.0"],
    [1521417,"2026-05-24 23:30:00","67914","0.624","202.5","0.98","194.3","1026.481","20.76","88.9","0.0","0.0"],
    [1521418,"2026-05-24 23:40:00","67915","0.6940000000000001","168.6","1.209","174.5","1026.525","20.82","88.4","0.0","0.0"],
    [1521419,"2026-05-24 23:50:00","67916","0.627","181.2","1.209","180.3","1026.531","20.78","89.0","0.0","0.0"],
    [1521420,"2026-05-25 00:00:00","67917","0.6829999999999999","189.6","0.9470000000000001","179.5","1026.481","20.64","89.7","0.0","0.0"],
    [1521421,"2026-05-25 00:10:00","67918","0.382","192.6","0.7509999999999999","193.6","1026.393","20.44","89.3","0.0","0.0"],
    [1521422,"2026-05-25 00:20:00","67919","0.391","185.8","0.8170000000000001","199.8","1026.388","19.94","85.7","0.0","0.0"],
    [1521423,"2026-05-25 00:30:00","67920","0.371","239.9","0.8490000000000001","202.8","1026.384","20.28","80.5","0.0","0.0"],
    [1521424,"2026-05-25 00:40:00","67921","0.496","261.4","1.2409999999999999","263.3","1026.365","20.63","72.1","0.0","0.0"],
    [1521425,"2026-05-25 00:50:00","67922","0.0","0.0","0.0","0.0","1026.272","20.97","75.79","0.0","0.0"],
    [1521426,"2026-05-25 01:00:00","67923","0.0","0.0","0.0","0.0","1026.14","20.62","77.24","0.0","0.0"],
    [1521427,"2026-05-25 01:10:00","67924","0.0","0.0","0.0","0.0","1026.103","20.59","75.49","0.0","0.0"],
    [1521428,"2026-05-25 01:20:00","67925","0.207","90.9","0.653","89.6","1026.172","20.61","76.17","0.0","0.0"],
    [1521429,"2026-05-25 01:30:00","67926","0.264","116.5","0.653","91.6","1026.257","20.51","75.53","0.0","0.0"],
    [1521430,"2026-05-25 01:40:00","67927","0.0","0.0","0.0","0.0","1026.232","20.42","75.21","0.0","0.0"],
    [1521431,"2026-05-25 01:50:00","67928","0.0","0.0","0.0","0.0","1026.267","20.45","75.69","0.0","0.0"],
    [1521432,"2026-05-25 02:00:00","67929","0.0","0.0","0.0","0.0","1026.292","20.44","75.58","0.0","0.0"],
    [1521433,"2026-05-25 02:10:00","67930","0.0","0.0","0.0","0.0","1026.34","20.29","69.87","0.0","0.0"],
    [1521434,"2026-05-25 02:20:00","67931","0.514","288.5","0.882","290.4","1026.333","20.52","64.9","0.0","0.0"],
    [1521435,"2026-05-25 02:30:00","67932","0.084","280.3","0.7509999999999999","271.8","1026.328","20.92","67.41","0.0","0.0"],
    [1521436,"2026-05-25 02:40:00","67933","0.073","72.05","0.555","78.27","1026.321","20.56","68.55","0.0","0.0"],
    [1521437,"2026-05-25 02:50:00","67934","0.522","56.73","1.633","47.11","1026.295","20.52","69.37","0.0","0.0"],
    [1521438,"2026-05-25 03:00:00","67935","1.1440000000000001","15.5","1.47","8.15","1026.292","20.59","68.74","0.0","0.0"],
    [1521439,"2026-05-25 03:10:00","67936","0.858","347.4","1.176","348.5","1026.306","20.57","71.9","0.0","0.0"],
    [1521440,"2026-05-25 03:20:00","67937","1.19","4.648","2.875","16.91","1026.351","20.53","69.92","0.0","0.0"],
    [1521441,"2026-05-25 03:30:00","67938","2.7760000000000002","21.83","3.201","21.32","1026.339","20.8","62.04","0.0","0.0"],
    [1521442,"2026-05-25 03:40:00","67939","2.469","26.72","3.005","23.42","1026.432","21.04","63.42","0.0","0.0"],
    [1521443,"2026-05-25 03:50:00","67940","2.231","36.41","2.842","39.38","1026.508","21.14","65.75","0.0","0.0"],
    [1521444,"2026-05-25 04:00:00","67941","2.051","31.44","2.45","30.54","1026.508","21.1","60.43","0.0","0.0"],
    [1521445,"2026-05-25 04:10:00","67942","1.354","34.0","1.96","31.72","1026.55","20.99","63.37","0.0","0.0"],
    [1521446,"2026-05-25 04:20:00","67943","1.319","22.9","1.797","31.49","1026.613","20.87","62.89","0.0","0.0"],
    [1521447,"2026-05-25 04:30:00","67944","1.5290000000000001","18.49","1.8619999999999999","24.3","1026.679","20.97","57.19","0.0","0.0"],
    [1521448,"2026-05-25 04:40:00","67945","1.237","354.3","1.633","355.2","1026.753","20.89","58.0","0.0","0.0"],
    [1521449,"2026-05-25 04:50:00","67946","0.8290000000000001","330.0","1.666","309.0","1026.853","20.71","58.09","0.867","0.0"],
    [1521450,"2026-05-25 05:00:00","67947","0.436","332.0","1.013","325.7","1026.966","20.8","57.89","45.21","0.0"],
    [1521451,"2026-05-25 05:10:00","67948","1.04","353.3","1.568","344.4","1026.981","20.98","59.72","67.1","0.0"],
    [1521452,"2026-05-25 05:20:00","67949","0.841","340.4","1.699","348.0","1027.075","21.05","58.59","58.37","0.0"],
    [1521453,"2026-05-25 05:30:00","67950","1.416","9.94","2.9730000000000003","20.01","1027.167","21.46","60.94","130.9","0.0"],
    [1521454,"2026-05-25 05:40:00","67951","2.9589999999999996","19.18","3.528","16.52","1027.2","21.56","58.28","134.2","0.0"],
    [1521455,"2026-05-25 05:50:00","67952","2.529","19.65","3.071","21.78","1027.282","21.59","62.37","181.2","0.0"],
    [1521456,"2026-05-25 06:00:00","67953","3.134","17.05","3.6910000000000003","18.64","1027.35","21.63","61.87","201.2","0.0"],
    [1521457,"2026-05-25 06:10:00","67954","2.905","18.75","3.495","18.52","1027.435","21.76","62.62","234.2","0.0"],
    [1521458,"2026-05-25 06:20:00","67955","3.069","17.51","3.5610000000000004","18.15","1027.436","21.78","62.31","268.3","0.0"],
    [1521459,"2026-05-25 06:30:00","67956","3.037","28.06","4.345","25.4","1027.513","21.74","66.78","297.3","0.0"],
    [1521460,"2026-05-25 06:40:00","67957","2.967","30.38","3.7889999999999997","30.77","1027.656","21.65","68.28","335.3","0.0"],
    [1521461,"2026-05-25 06:50:00","67958","2.77","28.75","3.887","32.38","1027.798","21.78","65.59","367.3","0.0"],
    [1521462,"2026-05-25 07:00:00","67959","2.822","36.83","3.495","33.17","1027.943","21.84","65.72","402.3","0.0"],
    [1521463,"2026-05-25 07:10:00","67960","3.07","41.88","4.377","46.3","1028.01","21.76","67.52","413.7","0.0"],
    [1521464,"2026-05-25 07:20:00","67961","3.158","45.17","3.887","48.53","1028.095","21.71","67.12","435.9","0.0"],
    [1521465,"2026-05-25 07:30:00","67962","3.0839999999999996","38.15","4.377","47.35","1028.207","21.78","66.07","453.7","0.0"],
    [1521466,"2026-05-25 07:40:00","67963","3.2089999999999996","23.24","4.247","37.22","1028.251","21.85","64.59","502.9","0.0"],
    [1521467,"2026-05-25 07:50:00","67964","3.341","30.61","4.1160000000000005","37.69","1028.255","21.8","64.26","515.1","0.0"],
    [1521468,"2026-05-25 08:00:00","67965","3.179","36.92","4.083","49.76","1028.332","21.87","64.02","570.0","0.0"],
    [1521469,"2026-05-25 08:10:00","67966","3.0660000000000003","43.63","3.7239999999999998","43.43","1028.406","21.84","64.78","570.0","0.0"],
    [1521470,"2026-05-25 08:20:00","67967","2.708","44.0","3.6260000000000003","45.39","1028.442","21.8","66.22","626.8","0.0"],
    [1521471,"2026-05-25 08:30:00","67968","2.81","45.4","3.593","45.76","1028.448","21.76","67.15","637.1","0.0"],
    [1521472,"2026-05-25 08:40:00","67969","2.461","41.1","3.463","44.32","1028.421","21.76","68.08","660.2","0.0"],
    [1521473,"2026-05-25 08:50:00","67970","2.3680000000000003","46.67","3.1689999999999996","47.33","1028.443","21.78","67.85","704.1","0.0"],
    [1521474,"2026-05-25 09:00:00","67971","2.042","45.67","2.842","47.09","1028.48","21.87","66.81","704.1","0.0"],
    [1521475,"2026-05-25 09:10:00","67972","1.844","45.09","2.45","39.56","1028.564","21.94","66.85","750.2","0.0"],
    [1521476,"2026-05-25 09:20:00","67973","1.965","50.51","2.907","45.95","1028.675","21.97","67.53","771.1","0.0"],
    [1521477,"2026-05-25 09:30:00","67974","2.174","36.11","2.9730000000000003","48.26","1028.69","21.9","66.93","771.1","0.0"],
    [1521478,"2026-05-25 09:40:00","67975","1.939","38.7","2.9730000000000003","47.91","1028.692","21.98","67.81","809.0","0.0"],
    [1521479,"2026-05-25 09:50:00","67976","2.6430000000000002","72.59","3.365","83.3","1028.736","21.95","69.27","838.0","0.0"],
    [1521480,"2026-05-25 10:00:00","67977","2.884","69.55","3.659","88.9","1028.77","21.87","71.64","838.0","0.0"],
    [1521481,"2026-05-25 10:10:00","67978","3.0189999999999997","74.18","3.9530000000000003","64.67","1028.82","21.85","72.35","853.0","0.0"],
    [1521482,"2026-05-25 10:20:00","67979","3.168","75.11","4.149","78.94","1028.845","21.84","74.11","904.0","0.0"],
    [1521483,"2026-05-25 10:30:00","67980","3.41","69.59","4.279","58.12","1028.794","21.71","76.18","905.0","0.0"],
    [1521484,"2026-05-25 10:40:00","67981","3.048","65.85","4.083","57.69","1028.821","21.65","77.05","905.0","0.0"],
    [1521485,"2026-05-25 10:50:00","67982","3.02","61.45","3.985","62.31","1028.813","21.66","77.48","905.0","0.0"],
    [1521486,"2026-05-25 11:00:00","67983","2.926","58.05","4.377","59.44","1028.799","21.67","77.64","908.0","0.0"],
    [1521487,"2026-05-25 11:10:00","67984","2.845","56.09","3.822","50.39","1028.812","21.69","78.4","936.0","0.0"],
    [1521488,"2026-05-25 11:20:00","67985","2.803","58.91","3.7889999999999997","52.24","1028.813","21.74","78.86","969.0","0.0"],
    [1521489,"2026-05-25 11:30:00","67986","3.386","74.41","4.4430000000000005","75.63","1028.796","21.66","78.44","972.0","0.0"],
    [1521490,"2026-05-25 11:40:00","67987","3.407","77.05","4.312","73.9","1028.765","21.71","76.36","972.0","0.0"],
    [1521491,"2026-05-25 11:50:00","67988","3.305","73.06","4.508","78.61","1028.726","21.86","75.73","972.0","0.0"],
    [1521492,"2026-05-25 12:00:00","67989","3.1830000000000003","73.61","4.018","67.5","1028.722","21.78","77.49","972.0","0.0"],
    [1521493,"2026-05-25 12:10:00","67990","3.083","72.82","3.855","70.04","1028.701","21.78","79.08","972.0","0.0"],
    [1521494,"2026-05-25 12:20:00","67991","3.082","78.01","4.083","80.1","1028.65","21.78","78.51","972.0","0.0"],
    [1521495,"2026-05-25 12:30:00","67992","2.79","77.99","3.7569999999999997","74.21","1028.64","21.92","74.58","955.0","0.0"],
    [1521496,"2026-05-25 12:40:00","67993","2.813","74.08","3.5610000000000004","64.2","1028.577","21.99","74.03","915.0","0.0"],
    [1521497,"2026-05-25 12:50:00","67994","2.801","78.88","3.887","80.1","1028.553","22.0","72.98","905.0","0.0"],
    [1521498,"2026-05-25 13:00:00","67995","3.324","70.85","3.985","63.67","1028.487","22.09","69.41","905.0","0.0"],
    [1521499,"2026-05-25 13:10:00","67996","3.262","72.03","4.2139999999999995","64.99","1028.447","22.17","66.64","905.0","0.0"],
    [1521500,"2026-05-25 13:20:00","67997","3.373","71.72","4.377","66.82","1028.442","22.3","64.87","905.0","0.0"],
    [1521501,"2026-05-25 13:30:00","67998","3.194","74.89","3.822","86.1","1028.463","22.34","63.37","905.0","0.0"],
    [1521502,"2026-05-25 13:40:00","67999","3.359","75.38","4.377","66.47","1028.442","22.34","63.27","852.0","0.0"],
    [1521503,"2026-05-25 13:50:00","68000","3.147","73.42","4.051","78.53","1028.405","22.39","63.75","838.0","0.0"],
    [1521504,"2026-05-25 14:00:00","68001","2.6660000000000004","77.48","3.6910000000000003","70.17","1028.33","22.37","64.96","838.0","0.0"],
    [1521505,"2026-05-25 14:10:00","68002","2.654","74.63","3.6910000000000003","70.63","1028.264","22.3","65.65","814.0","0.0"],
    [1521506,"2026-05-25 14:20:00","68003","2.753","73.61","3.43","78.53","1028.177","22.3","66.58","771.1","0.0"],
    [1521507,"2026-05-25 14:30:00","68004","2.583","72.48","3.495","73.53","1028.1","22.22","67.79","771.0","0.0"],
    [1521508,"2026-05-25 14:40:00","68005","2.471","77.7","3.365","81.1","1028.076","22.26","68.29","741.5","0.0"],
    [1521509,"2026-05-25 14:50:00","68006","2.385","78.2","3.267","76.35","1028.06","22.23","69.31","704.0","0.0"],
    [1521510,"2026-05-25 15:00:00","68007","2.6039999999999996","73.64","3.5610000000000004","70.18","1028.036","22.23","69.62","704.0","0.0"],
    [1521511,"2026-05-25 15:10:00","68008","2.725","76.16","3.6260000000000003","74.58","1028.044","22.25","69.87","644.1","0.0"],
    [1521512,"2026-05-25 15:20:00","68009","2.98","74.57","3.855","78.29","1027.958","22.26","70.16","636.9","0.0"],
    [1521513,"2026-05-25 15:30:00","68010","2.699","74.43","3.7569999999999997","83.5","1028.024","22.25","70.48","604.7","0.0"],
    [1521514,"2026-05-25 15:40:00","68011","2.6719999999999997","74.46","3.92","71.79","1028.012","22.27","70.54","569.8","0.0"],
    [1521515,"2026-05-25 15:50:00","68012","2.824","77.21","3.822","76.14","1027.963","22.24","70.64","551.9","0.0"],
    [1521516,"2026-05-25 16:00:00","68013","2.741","78.28","3.365","86.2","1027.919","22.24","71.23","502.8","0.0"],
    [1521517,"2026-05-25 16:10:00","68014","2.592","66.4","4.083","24.13","1027.823","22.26","72.56","493.9","0.0"],
    [1521518,"2026-05-25 16:20:00","68015","2.775","72.95","3.495","79.17","1027.699","22.14","74.38","436.4","0.0"],
    [1521519,"2026-05-25 16:30:00","68016","2.353","56.02","3.7889999999999997","54.02","1027.624","22.12","75.49","428.3","0.0"],
    [1521520,"2026-05-25 16:40:00","68017","2.705","75.17","3.887","82.3","1027.55","22.0","76.22","402.3","0.0"],
    [1521521,"2026-05-25 16:50:00","68018","2.591","72.29","3.332","72.98","1027.441","22.01","76.39","398.7","0.0"],
    [1521522,"2026-05-25 17:00:00","68019","2.9560000000000004","73.77","3.6260000000000003","71.11","1027.367","21.94","76.59","339.0","0.0"],
    [1521523,"2026-05-25 17:10:00","68020","2.451","74.67","3.397","63.45","1027.361","21.96","76.49","331.2","0.0"],
    [1521524,"2026-05-25 17:20:00","68021","2.123","75.25","2.875","77.49","1027.341","21.94","75.93","272.6","0.0"],
    [1521525,"2026-05-25 17:30:00","68022","1.633","60.83","2.6460000000000004","70.28","1027.349","21.96","75.59","262.1","0.0"],
    [1521526,"2026-05-25 17:40:00","68023","1.611","63.76","2.352","49.28","1027.393","21.97","75.16","202.2","0.0"],
    [1521527,"2026-05-25 17:50:00","68024","1.8219999999999998","79.67","2.515","85.3","1027.408","21.99","74.42","198.7","0.0"],
    [1521528,"2026-05-25 18:00:00","68025","1.3130000000000002","76.29","1.993","73.09","1027.398","22.04","74.16","141.6","0.0"],
    [1521529,"2026-05-25 18:10:00","68026","1.137","78.88","1.764","92.5","1027.39","22.06","73.58","134.1","0.0"],
    [1521530,"2026-05-25 18:20:00","68027","1.331","91.7","1.764","97.7","1027.392","21.99","75.04","96.4","0.0"],
    [1521531,"2026-05-25 18:30:00","68028","1.137","99.9","1.601","97.9","1027.381","21.94","75.3","67.05","0.0"],
    [1521532,"2026-05-25 18:40:00","68029","0.898","97.5","1.339","91.9","1027.392","21.91","75.7","65.66","0.0"],
    [1521533,"2026-05-25 18:50:00","68030","0.92","116.6","1.47","110.0","1027.399","21.91","75.69","6.901","0.0"],
    [1521534,"2026-05-25 19:00:00","68031","1.068","116.7","1.405","125.4","1027.336","21.79","77.01","0.0","0.0"],
    [1521535,"2026-05-25 19:10:00","68032","0.893","115.5","1.2409999999999999","120.6","1027.327","21.7","77.82","0.0","0.0"],
    [1521536,"2026-05-25 19:20:00","68033","0.6990000000000001","143.2","0.882","127.7","1027.338","21.64","78.15","0.0","0.0"],
    [1521537,"2026-05-25 19:30:00","68034","0.755","162.1","0.915","162.2","1027.385","21.58","78.76","0.0","0.0"],
    [1521538,"2026-05-25 19:40:00","68035","0.7859999999999999","161.9","1.078","164.2","1027.465","21.52","78.97","0.0","0.0"],
    [1521539,"2026-05-25 19:50:00","68036","1.084","159.7","1.307","151.4","1027.531","21.52","79.16","0.0","0.0"],
    [1521540,"2026-05-25 20:00:00","68037","1.188","147.9","1.339","141.1","1027.531","21.52","79.7","0.0","0.0"],
    [1521541,"2026-05-25 20:10:00","68038","0.951","132.9","1.535","133.1","1027.56","21.51","80.5","0.0","0.0"],
    [1521542,"2026-05-25 20:20:00","68039","0.8859999999999999","128.8","1.143","134.4","1027.641","21.45","81.5","0.0","0.0"],
    [1521543,"2026-05-25 20:30:00","68040","0.722","125.6","1.078","133.7","1027.708","21.41","81.9","0.0","0.0"],
    [1521544,"2026-05-25 20:40:00","68041","0.706","118.6","0.98","124.6","1027.767","21.39","82.1","0.0","0.0"],
    [1521545,"2026-05-25 20:50:00","68042","0.965","118.9","1.307","124.8","1027.812","21.39","82.4","0.0","0.0"],
    [1521546,"2026-05-25 21:00:00","68043","0.768","102.1","1.111","111.2","1027.864","21.44","82.3","0.0","0.0"],
    [1521547,"2026-05-25 21:10:00","68044","0.364","121.3","0.7190000000000001","103.2","1027.835","21.43","82.3","0.0","0.0"],
    [1521548,"2026-05-25 21:20:00","68045","0.8420000000000001","186.5","1.307","211.9","1027.815","21.34","83.2","0.0","0.0"],
    [1521549,"2026-05-25 21:30:00","68046","0.835","196.1","1.176","205.1","1027.798","21.33","83.3","0.0","0.0"],
    [1521550,"2026-05-25 21:40:00","68047","0.893","189.3","1.078","194.0","1027.779","21.31","83.8","0.0","0.0"],
    [1521551,"2026-05-25 21:50:00","68048","0.8859999999999999","194.6","1.47","193.1","1027.787","21.23","84.3","0.0","0.0"],
    [1521552,"2026-05-25 22:00:00","68049","0.885","193.8","1.47","193.1","1027.805","21.2","84.5","0.0","0.0"],
    [1521553,"2026-05-25 22:10:00","68050","1.094","176.0","1.405","173.9","1027.789","21.16","84.8","0.0","0.0"],
    [1521554,"2026-05-25 22:20:00","68051","0.847","181.0","1.5030000000000001","173.2","1027.757","20.95","86.1","0.0","0.0"],
    [1521555,"2026-05-25 22:30:00","68052","1.015","194.7","1.568","198.2","1027.784","20.86","86.7","0.0","0.0"],
    [1521556,"2026-05-25 22:40:00","68053","1.2309999999999999","217.6","2.025","219.7","1027.825","20.92","86.0","0.0","0.0"],
    [1521557,"2026-05-25 22:50:00","68054","1.202","245.4","2.025","266.9","1027.781","21.24","83.8","0.0","0.0"],
    [1521558,"2026-05-25 23:00:00","68055","1.075","242.4","1.9269999999999998","263.8","1027.744","21.32","83.0","0.0","0.0"],
    [1521559,"2026-05-25 23:10:00","68056","0.731","232.4","1.274","219.7","1027.705","21.23","80.5","0.0","0.0"],
    [1521560,"2026-05-25 23:20:00","68057","0.835","245.0","1.7309999999999999","233.2","1027.705","21.23","77.39","0.0","0.0"],
    [1521561,"2026-05-25 23:30:00","68058","1.119","263.2","2.123","256.9","1027.703","21.23","71.11","0.0","0.0"],
    [1521562,"2026-05-25 23:40:00","68059","0.998","261.1","1.5030000000000001","268.9","1027.663","21.08","64.78","0.0","0.0"],
    [1521563,"2026-05-25 23:50:00","68060","1.085","262.8","1.7309999999999999","278.6","1027.592","20.94","60.07","0.0","0.0"],
    [1521564,"2026-05-26 00:00:00","68061","1.182","262.8","1.666","273.2","1027.563","20.81","58.06","0.0","0.0"],
    [1521565,"2026-05-26 00:10:00","68062","0.9209999999999999","254.0","1.764","256.6","1027.564","20.76","58.38","0.0","0.0"],
    [1521566,"2026-05-26 00:20:00","68063","0.8270000000000001","254.0","1.568","259.0","1027.557","20.59","60.02","0.0","0.0"],
    [1521567,"2026-05-26 00:30:00","68064","0.763","272.7","1.274","268.9","1027.472","20.41","60.38","0.0","0.0"],
    [1521568,"2026-05-26 00:40:00","68065","1.2309999999999999","270.6","1.568","269.5","1027.386","20.39","60.29","0.0","0.0"],
    [1521569,"2026-05-26 00:50:00","68066","1.097","282.0","1.405","277.5","1027.309","20.2","61.46","0.0","0.0"],
    [1521570,"2026-05-26 01:00:00","68067","0.758","299.8","1.013","288.0","1027.303","20.22","61.56","0.0","0.0"],
    [1521571,"2026-05-26 01:10:00","68068","0.645","305.1","0.8170000000000001","298.8","1027.231","20.26","61.81","0.0","0.0"],
    [1521572,"2026-05-26 01:20:00","68069","0.253","314.8","0.588","318.9","1027.124","20.31","61.86","0.0","0.0"],
    [1521573,"2026-05-26 01:30:00","68070","0.22899999999999998","284.4","0.8490000000000001","258.6","1027.025","20.57","62.3","0.0","0.0"],
    [1521574,"2026-05-26 01:40:00","68071","0.478","286.4","0.98","255.9","1026.99","20.59","63.42","0.0","0.0"],
    [1521575,"2026-05-26 01:50:00","68072","1.105","276.7","2.025","268.9","1026.924","20.46","63.41","0.0","0.0"],
    [1521576,"2026-05-26 02:00:00","68073","2.233","261.4","2.6460000000000004","263.0","1026.88","20.01","63.52","0.0","0.0"],
    [1521577,"2026-05-26 02:10:00","68074","2.061","260.1","2.417","262.1","1026.863","19.88","63.69","0.0","0.0"],
    [1521578,"2026-05-26 02:20:00","68075","2.2969999999999997","262.3","2.6460000000000004","260.8","1026.849","19.79","62.2","0.0","0.0"],
    [1521579,"2026-05-26 02:30:00","68076","2.218","260.7","2.5810000000000004","261.6","1026.804","19.72","61.66","0.0","0.0"],
    [1521580,"2026-05-26 02:40:00","68077","1.983","262.1","2.352","263.6","1026.779","19.72","61.01","0.0","0.0"],
    [1521581,"2026-05-26 02:50:00","68078","2.181","263.6","2.5810000000000004","262.6","1026.745","19.63","60.53","0.0","0.0"],
    [1521582,"2026-05-26 03:00:00","68079","2.217","267.0","2.548","266.9","1026.736","19.68","60.08","0.0","0.0"],
    [1521583,"2026-05-26 03:10:00","68080","2.165","265.2","2.515","262.1","1026.676","19.6","60.37","0.0","0.0"],
    [1521584,"2026-05-26 03:20:00","68081","1.683","260.4","2.483","262.1","1026.678","19.48","60.66","0.0","0.0"],
    [1521585,"2026-05-26 03:30:00","68082","1.719","269.1","2.319","264.9","1026.718","19.39","60.92","0.0","0.0"],
    [1521586,"2026-05-26 03:40:00","68083","0.6679999999999999","298.2","1.143","291.5","1026.671","19.29","61.86","0.0","0.0"],
    [1521587,"2026-05-26 03:50:00","68084","0.898","279.9","1.339","265.7","1026.626","19.48","60.89","0.0","0.0"],
    [1521588,"2026-05-26 04:00:00","68085","1.0759999999999998","264.2","1.8619999999999999","262.4","1026.563","19.62","61.08","0.0","0.0"],
    [1521589,"2026-05-26 04:10:00","68086","1.736","265.1","2.156","262.8","1026.523","19.63","60.61","0.0","0.0"],
    [1521590,"2026-05-26 04:20:00","68087","2.17","265.4","2.483","269.8","1026.587","19.69","60.2","0.0","0.0"],
    [1521591,"2026-05-26 04:30:00","68088","2.15","269.2","2.7769999999999997","260.8","1026.675","19.59","59.48","0.0","0.0"],
    [1521592,"2026-05-26 04:40:00","68089","2.395","264.8","2.8089999999999997","268.1","1026.674","19.53","59.06","0.0","0.0"],
    [1521593,"2026-05-26 04:50:00","68090","1.8730000000000002","265.4","2.254","260.9","1026.76","19.62","58.42","25.97","0.0"],
    [1521594,"2026-05-26 05:00:00","68091","2.096","264.6","2.319","266.6","1026.851","19.79","57.35","67.1","0.0"],
    [1521595,"2026-05-26 05:10:00","68092","2.326","260.7","2.6460000000000004","262.9","1026.919","19.85","56.96","67.1","0.0"],
    [1521596,"2026-05-26 05:20:00","68093","2.292","261.2","2.613","260.5","1026.953","19.99","56.33","106.0","0.0"],
    [1521597,"2026-05-26 05:30:00","68094","1.9169999999999998","259.5","2.613","262.1","1027.011","20.13","55.29","120.2","0.0"],
    [1521598,"2026-05-26 05:40:00","68095","2.33","262.8","3.0380000000000003","264.2","1027.026","20.25","54.91","132.5","0.0"],
    [1521599,"2026-05-26 05:50:00","68096","2.487","266.1","3.659","266.2","1027.043","20.48","54.88","191.9","0.0"],
    [1521600,"2026-05-26 06:00:00","68097","2.127","267.6","3.43","257.4","1027.089","20.77","54.61","201.2","0.0"],
    [1521601,"2026-05-26 06:10:00","68098","1.7590000000000001","280.4","3.071","265.6","1027.144","21.13","53.88","251.4","0.0"],
    [1521602,"2026-05-26 06:20:00","68099","1.607","282.7","2.385","293.3","1027.11","21.43","53.22","268.2","0.0"],
    [1521603,"2026-05-26 06:30:00","68100","1.5","268.8","2.5810000000000004","275.6","1027.133","21.78","52.08","312.9","0.0"],
    [1521604,"2026-05-26 06:40:00","68101","1.2790000000000001","281.7","2.025","268.9","1027.221","22.07","50.49","335.3","0.0"],
    [1521605,"2026-05-26 06:50:00","68102","0.516","283.6","1.5030000000000001","290.5","1027.314","22.4","49.28","380.5","0.0"],
    [1521606,"2026-05-26 07:00:00","68103","0.0","0.0","0.0","0.0","1027.347","22.73","47.92","402.3","0.0"],
    [1521607,"2026-05-26 07:10:00","68104","0.0","0.0","0.0","0.0","1027.375","23.4","46.14","419.7","0.0"],
    [1521608,"2026-05-26 07:20:00","68105","1.115","14.42","1.8619999999999999","7.768","1027.417","22.95","53.69","435.8","0.0"],
    [1521609,"2026-05-26 07:30:00","68106","1.112","32.84","1.47","30.52","1027.455","22.57","56.65","474.7","0.0"],
    [1521610,"2026-05-26 07:40:00","68107","0.627","124.0","0.8490000000000001","51.72","1027.417","22.77","57.32","502.8","0.0"],
    [1521611,"2026-05-26 07:50:00","68108","0.7959999999999999","128.9","1.078","138.5","1027.415","22.73","57.2","527.9","0.0"],
    [1521612,"2026-05-26 08:00:00","68109","1.197","117.3","1.568","117.7","1027.44","22.67","59.37","569.8","0.0"],
    [1521613,"2026-05-26 08:10:00","68110","1.4880000000000002","108.1","2.0580000000000003","107.1","1027.46","22.82","57.37","592.6","0.0"],
    [1521614,"2026-05-26 08:20:00","68111","1.93","118.8","2.287","112.1","1027.421","22.7","60.7","636.8","0.0"],
    [1521615,"2026-05-26 08:30:00","68112","1.8519999999999999","140.8","2.0909999999999997","144.4","1027.407","22.59","62.37","636.9","0.0"],
    [1521616,"2026-05-26 08:40:00","68113","2.083","152.4","2.515","145.1","1027.45","22.52","63.97","695.1","0.0"],
    [1521617,"2026-05-26 08:50:00","68114","3.1239999999999997","154.1","4.508","163.0","1027.512","22.42","64.54","703.9","0.0"],
    [1521618,"2026-05-26 09:00:00","68115","4.507","170.1","5.096","174.3","1027.515","21.87","61.72","732.7","0.0"],
    [1521619,"2026-05-26 09:10:00","68116","4.65","173.3","5.2589999999999995","173.0","1027.472","21.59","66.07","770.9","0.0"],
    [1521620,"2026-05-26 09:20:00","68117","4.553","177.5","5.455","173.2","1027.461","21.59","66.68","771.0","0.0"],
    [1521621,"2026-05-26 09:30:00","68118","4.378","180.6","5.1610000000000005","176.8","1027.492","21.91","64.6","792.8","0.0"],
    [1521622,"2026-05-26 09:40:00","68119","4.774","179.5","5.7170000000000005","170.0","1027.52","21.85","67.03","838.0","0.0"],
    [1521623,"2026-05-26 09:50:00","68120","4.971","183.4","5.978","190.6","1027.572","22.1","65.92","838.0","0.0"],
    [1521624,"2026-05-26 10:00:00","68121","4.997","181.3","6.0760000000000005","186.9","1027.615","22.0","66.88","841.0","0.0"],
    [1521625,"2026-05-26 10:10:00","68122","4.988","180.0","6.109","170.5","1027.696","21.94","64.43","903.0","0.0"],
    [1521626,"2026-05-26 10:20:00","68123","4.913","181.8","5.88","175.3","1027.685","22.06","67.15","905.0","0.0"],
    [1521627,"2026-05-26 10:30:00","68124","4.978","178.6","5.978","182.6","1027.669","21.92","70.55","905.0","0.0"],
    [1521628,"2026-05-26 10:40:00","68125","5.041","178.1","6.0760000000000005","173.0","1027.658","21.69","72.65","905.0","0.0"],
    [1521629,"2026-05-26 10:50:00","68126","5.035","181.6","5.88","177.1","1027.613","21.88","67.36","912.0","0.0"],
    [1521630,"2026-05-26 11:00:00","68127","4.83","183.5","6.042999999999999","177.3","1027.596","22.06","66.46","971.0","0.0"],
    [1521631,"2026-05-26 11:10:00","68128","4.806","181.5","5.912999999999999","176.0","1027.52","22.11","66.42","972.0","0.0"],
    [1521632,"2026-05-26 11:20:00","68129","4.802","180.1","5.815","173.0","1027.447","22.09","66.8","972.0","0.0"],
    [1521633,"2026-05-26 11:30:00","68130","4.656000000000001","179.3","5.815","174.1","1027.397","22.07","68.56","972.0","0.0"],
    [1521634,"2026-05-26 11:40:00","68131","4.565","175.9","5.422999999999999","181.4","1027.345","21.87","72.88","972.0","0.0"],
    [1521635,"2026-05-26 11:50:00","68132","4.952","174.8","5.815","173.3","1027.292","21.8","73.45","972.0","0.0"],
    [1521636,"2026-05-26 12:00:00","68133","5.129","172.4","6.109","168.6","1027.213","21.85","73.65","972.0","0.0"],
    [1521637,"2026-05-26 12:10:00","68134","5.141","173.0","5.945","168.7","1027.155","21.74","74.32","972.0","0.0"],
    [1521638,"2026-05-26 12:20:00","68135","4.8469999999999995","177.1","5.749","175.8","1027.118","21.99","72.01","972.0","0.0"],
    [1521639,"2026-05-26 12:30:00","68136","4.559","182.0","5.586","190.9","1026.959","22.47","67.35","972.0","0.0"],
    [1521640,"2026-05-26 12:40:00","68137","4.606","184.2","5.553","192.3","1026.846","22.8","62.31","972.0","0.0"],
    [1521641,"2026-05-26 12:50:00","68138","4.797","182.7","6.305","180.8","1026.727","23.71","52.6","933.0","0.0"],
    [1521642,"2026-05-26 13:00:00","68139","5.155","179.7","6.5329999999999995","188.2","1026.621","23.85","53.75","905.0","0.0"],
    [1521643,"2026-05-26 13:10:00","68140","5.13","179.3","6.207000000000001","186.0","1026.592","23.5","57.27","905.0","0.0"],
    [1521644,"2026-05-26 13:20:00","68141","5.511","183.3","6.664","188.5","1026.543","24.28","49.52","905.0","0.0"],
    [1521645,"2026-05-26 13:30:00","68142","5.659","185.9","7.0889999999999995","188.3","1026.469","24.86","45.51","904.0","0.0"],
    [1521646,"2026-05-26 13:40:00","68143","5.143","189.7","6.337000000000001","188.0","1026.412","25.08","44.05","891.0","0.0"],
    [1521647,"2026-05-26 13:50:00","68144","6.026","186.9","7.056","183.5","1026.324","25.05","43.51","842.0","0.0"],
    [1521648,"2026-05-26 14:00:00","68145","5.545","183.7","7.0889999999999995","187.6","1026.194","24.79","46.95","838.0","0.0"],
    [1521649,"2026-05-26 14:10:00","68146","5.039","177.3","6.337000000000001","179.1","1026.098","24.21","52.42","838.0","0.0"],
    [1521650,"2026-05-26 14:20:00","68147","4.966","176.4","6.272","172.8","1026.091","23.38","58.78","789.7","0.0"],
    [1521651,"2026-05-26 14:30:00","68148","4.745","174.6","6.011","176.5","1026.009","23.01","65.84","771.0","0.0"],
    [1521652,"2026-05-26 14:40:00","68149","4.81","172.0","5.7170000000000005","172.9","1025.862","22.79","67.49","758.3","0.0"],
    [1521653,"2026-05-26 14:50:00","68150","4.869","174.9","6.011","175.2","1025.783","23.03","65.54","704.1","0.0"],
    [1521654,"2026-05-26 15:00:00","68151","4.888","180.6","6.109","177.9","1025.72","23.24","61.38","704.0","0.0"],
    [1521655,"2026-05-26 15:10:00","68152","4.8839999999999995","180.6","6.207000000000001","184.8","1025.632","23.55","61.84","669.0","0.0"],
    [1521656,"2026-05-26 15:20:00","68153","5.01","182.7","6.9910000000000005","190.1","1025.576","23.61","60.22","636.9","0.0"],
    [1521657,"2026-05-26 15:30:00","68154","4.784","182.6","6.042999999999999","187.3","1025.484","23.54","62.7","622.6","0.0"],
    [1521658,"2026-05-26 15:40:00","68155","5.131","181.8","6.1739999999999995","184.0","1025.411","23.62","61.62","569.9","0.0"],
    [1521659,"2026-05-26 15:50:00","68156","5.066","178.7","6.272","192.8","1025.332","23.41","65.87","567.6","0.0"],
    [1521660,"2026-05-26 16:00:00","68157","4.715","179.4","6.0760000000000005","175.8","1025.236","23.13","68.51","503.1","0.0"],
    [1521661,"2026-05-26 16:10:00","68158","4.827","175.3","5.815","169.8","1025.169","22.8","74.12","502.5","0.0"],
    [1521662,"2026-05-26 16:20:00","68159","4.684","177.7","5.684","169.6","1025.107","22.75","74.14","441.9","0.0"],
    [1521663,"2026-05-26 16:30:00","68160","4.702","179.8","5.782","193.4","1024.993","22.9","72.79","435.1","0.0"],
    [1521664,"2026-05-26 16:40:00","68161","4.765","182.7","5.945","190.5","1024.962","23.2","68.82","403.7","0.0"],
    [1521665,"2026-05-26 16:50:00","68162","4.945","181.2","6.337000000000001","192.0","1024.913","23.29","69.91","401.9","0.0"],
    [1521666,"2026-05-26 17:00:00","68163","4.665","185.5","5.684","185.7","1024.939","23.15","70.42","339.8","0.0"],
    [1521667,"2026-05-26 17:10:00","68164","4.33","185.0","5.455","189.5","1024.916","23.22","70.89","334.3","0.0"],
    [1521668,"2026-05-26 17:20:00","68165","4.447","182.2","5.2589999999999995","180.4","1024.833","23.06","72.59","273.3","0.0"],
    [1521669,"2026-05-26 17:30:00","68166","4.246","182.5","5.2589999999999995","193.7","1024.829","22.94","74.95","265.2","0.0"],
    [1521670,"2026-05-26 17:40:00","68167","4.516","178.0","5.651","174.5","1024.843","22.61","77.8","206.3","0.0"],
    [1521671,"2026-05-26 17:50:00","68168","4.288","185.0","5.1610000000000005","187.3","1024.853","22.66","77.51","200.3","0.0"],
    [1521672,"2026-05-26 18:00:00","68169","4.268","185.0","5.096","193.3","1024.859","22.79","76.74","145.2","0.0"],
    [1521673,"2026-05-26 18:10:00","68170","4.408","185.3","5.684","188.9","1024.868","22.75","77.32","134.1","0.0"],
    [1521674,"2026-05-26 18:20:00","68171","4.394","184.0","5.357","186.1","1024.858","22.69","77.81","105.0","0.0"],
    [1521675,"2026-05-26 18:30:00","68172","4.3839999999999995","186.3","5.227","186.1","1024.828","22.68","77.73","67.06","0.0"],
    [1521676,"2026-05-26 18:40:00","68173","4.1530000000000005","187.4","4.965","186.7","1024.824","22.65","77.35","67.06","0.0"],
    [1521677,"2026-05-26 18:50:00","68174","3.997","189.9","5.063","190.6","1024.748","22.76","76.23","18.02","0.0"],
    [1521678,"2026-05-26 19:00:00","68175","3.5789999999999997","188.1","4.475","190.4","1024.71","22.72","76.77","0.0","0.0"],
    [1521679,"2026-05-26 19:10:00","68176","3.6260000000000003","191.6","4.4430000000000005","189.3","1024.697","22.64","78.2","0.0","0.0"],
    [1521680,"2026-05-26 19:20:00","68177","2.7689999999999997","195.7","3.7569999999999997","211.3","1024.686","22.56","79.02","0.0","0.0"],
    [1521681,"2026-05-26 19:30:00","68178","2.6260000000000003","200.1","3.887","197.2","1024.686","22.82","76.46","0.0","0.0"],
    [1521682,"2026-05-26 19:40:00","68179","2.6710000000000003","205.1","3.463","204.2","1024.684","22.86","77.47","0.0","0.0"],
    [1521683,"2026-05-26 19:50:00","68180","2.2840000000000003","207.0","3.6260000000000003","207.8","1024.74","22.88","77.7","0.0","0.0"],
    [1521684,"2026-05-26 20:00:00","68181","2.215","205.0","3.5610000000000004","202.7","1024.828","22.82","78.97","0.0","0.0"],
    [1521685,"2026-05-26 20:10:00","68182","2.292","202.4","3.822","221.6","1024.919","22.65","80.9","0.0","0.0"],
    [1521686,"2026-05-26 20:20:00","68183","1.9969999999999999","201.7","4.018","197.4","1025.044","22.55","81.7","0.0","0.0"],
    [1521687,"2026-05-26 20:30:00","68184","2.158","202.3","3.5610000000000004","182.2","1025.114","22.48","82.4","0.0","0.0"],
    [1521688,"2026-05-26 20:40:00","68185","1.734","206.4","3.0380000000000003","183.5","1025.249","22.5","82.2","0.0","0.0"],
    [1521689,"2026-05-26 20:50:00","68186","1.714","202.3","3.234","192.4","1025.268","22.45","82.2","0.0","0.0"],
    [1521690,"2026-05-26 21:00:00","68187","1.328","216.5","2.515","227.4","1025.358","22.43","82.1","0.0","0.0"],
    [1521691,"2026-05-26 21:10:00","68188","1.555","217.7","2.7110000000000003","213.0","1025.343","22.48","82.5","0.0","0.0"],
    [1521692,"2026-05-26 21:20:00","68189","1.795","226.8","3.6910000000000003","214.0","1025.289","22.44","83.5","0.0","0.0"],
    [1521693,"2026-05-26 21:30:00","68190","1.652","227.0","2.842","262.4","1025.22","22.34","84.1","0.0","0.0"],
    [1521694,"2026-05-26 21:40:00","68191","1.608","233.8","3.7889999999999997","232.1","1025.17","22.31","84.3","0.0","0.0"],
    [1521695,"2026-05-26 21:50:00","68192","1.4269999999999998","232.4","2.907","223.8","1025.104","22.19","84.5","0.0","0.0"],
    [1521696,"2026-05-26 22:00:00","68193","1.775","246.9","3.9530000000000003","264.7","1025.057","22.18","84.3","0.0","0.0"],
    [1521697,"2026-05-26 22:10:00","68194","1.617","239.4","3.299","260.9","1025.017","22.18","84.6","0.0","0.0"],
    [1521698,"2026-05-26 22:20:00","68195","1.244","235.2","3.005","273.5","1024.937","22.11","85.0","0.0","0.0"],
    [1521699,"2026-05-26 22:30:00","68196","1.511","260.8","3.136","278.7","1024.876","22.05","85.2","0.0","0.0"],
    [1521700,"2026-05-26 22:40:00","68197","1.9809999999999999","258.5","3.5610000000000004","265.0","1024.792","22.01","85.1","0.0","0.0"],
    [1521701,"2026-05-26 22:50:00","68198","1.915","249.7","3.7889999999999997","247.7","1024.765","21.97","84.9","0.0","0.0"],
    [1521702,"2026-05-26 23:00:00","68199","2.208","247.0","3.855","267.4","1024.742","21.92","83.3","0.0","0.0"],
    [1521703,"2026-05-26 23:10:00","68200","2.181","252.5","4.345","259.6","1024.65","21.97","81.3","0.0","0.0"],
    [1521704,"2026-05-26 23:20:00","68201","2.133","248.9","3.136","271.6","1024.53","21.92","77.89","0.0","0.0"],
    [1521705,"2026-05-26 23:30:00","68202","2.184","243.4","4.2139999999999995","270.7","1024.395","21.98","74.8","0.0","0.0"],
    [1521706,"2026-05-26 23:40:00","68203","1.817","247.5","2.842","256.8","1024.313","22.01","74.22","0.0","0.0"],
    [1521707,"2026-05-26 23:50:00","68204","1.46","253.3","2.5810000000000004","259.4","1024.193","21.93","73.16","0.0","0.0"],
    [1521708,"2026-05-27 00:00:00","68205","1.357","255.7","2.319","273.2","1024.087","21.71","71.65","0.0","0.0"],
    [1521709,"2026-05-27 00:10:00","68206","1.537","254.7","2.7110000000000003","255.6","1024.019","21.42","66.83","0.0","0.0"],
    [1521710,"2026-05-27 00:20:00","68207","1.35","252.7","2.483","250.1","1023.907","21.55","63.61","0.0","0.0"],
    [1521711,"2026-05-27 00:30:00","68208","1.446","250.4","2.548","242.3","1023.852","21.58","62.02","0.0","0.0"],
    [1521712,"2026-05-27 00:40:00","68209","1.225","247.3","2.156","252.4","1023.782","21.44","60.58","0.0","0.0"],
    [1521713,"2026-05-27 00:50:00","68210","1.854","254.6","2.94","273.5","1023.703","21.06","60.47","0.0","0.0"],
    [1521714,"2026-05-27 01:00:00","68211","1.3","249.1","2.352","265.5","1023.614","20.97","60.22","0.0","0.0"],
    [1521715,"2026-05-27 01:10:00","68212","0.867","241.5","1.568","233.4","1023.543","20.88","60.01","0.0","0.0"],
    [1521716,"2026-05-27 01:20:00","68213","1.0","239.7","1.797","257.9","1023.474","20.99","58.35","0.0","0.0"],
    [1521717,"2026-05-27 01:30:00","68214","1.273","240.9","2.287","256.8","1023.375","21.0","57.64","0.0","0.0"],
    [1521718,"2026-05-27 01:40:00","68215","1.462","251.7","2.45","251.3","1023.276","21.01","57.22","0.0","0.0"],
    [1521719,"2026-05-27 01:50:00","68216","1.6130000000000002","255.0","2.221","253.1","1023.146","20.9","57.63","0.0","0.0"],
    [1521720,"2026-05-27 02:00:00","68217","1.9180000000000001","232.4","3.201","222.6","1023.05","21.1","54.91","0.0","0.0"],
    [1521721,"2026-05-27 02:10:00","68218","1.892","232.1","3.267","229.1","1022.974","21.87","52.03","0.0","0.0"],
    [1521722,"2026-05-27 02:20:00","68219","1.7730000000000001","258.4","2.7439999999999998","259.9","1022.913","20.91","57.71","0.0","0.0"],
    [1521723,"2026-05-27 02:30:00","68220","1.764","251.0","2.6460000000000004","271.7","1022.863","20.31","58.74","0.0","0.0"],
    [1521724,"2026-05-27 02:40:00","68221","1.835","232.7","2.9730000000000003","229.0","1022.759","21.1","54.81","0.0","0.0"],
    [1521725,"2026-05-27 02:50:00","68222","2.051","228.7","3.234","222.8","1022.681","21.34","55.28","0.0","0.0"],
    [1521726,"2026-05-27 03:00:00","68223","1.724","244.5","2.907","224.2","1022.653","20.85","57.14","0.0","0.0"],
    [1521727,"2026-05-27 03:10:00","68224","1.454","246.1","2.254","252.6","1022.577","20.19","58.08","0.0","0.0"],
    [1521728,"2026-05-27 03:20:00","68225","1.666","252.9","2.679","262.3","1022.474","20.33","57.15","0.0","0.0"],
    [1521729,"2026-05-27 03:30:00","68226","1.4509999999999998","252.3","2.0580000000000003","261.0","1022.449","19.89","58.72","0.0","0.0"],
    [1521730,"2026-05-27 03:40:00","68227","1.54","251.1","2.221","226.9","1022.379","19.87","58.67","0.0","0.0"],
    [1521731,"2026-05-27 03:50:00","68228","1.804","251.3","3.234","263.7","1022.357","19.96","58.09","0.0","0.0"],
    [1521732,"2026-05-27 04:00:00","68229","1.972","258.7","3.299","264.1","1022.37","19.56","59.45","0.0","0.0"],
    [1521733,"2026-05-27 04:10:00","68230","1.341","260.5","2.0909999999999997","274.2","1022.402","19.5","59.37","0.0","0.0"],
    [1521734,"2026-05-27 04:20:00","68231","1.199","243.2","2.221","259.4","1022.488","19.53","59.13","0.0","0.0"],
    [1521735,"2026-05-27 04:30:00","68232","1.787","236.6","2.613","229.3","1022.461","20.0","55.91","0.0","0.0"],
    [1521736,"2026-05-27 04:40:00","68233","1.768","249.4","2.8089999999999997","254.3","1022.423","19.62","58.31","0.0","0.0"],
    [1521737,"2026-05-27 04:50:00","68234","1.662","257.0","2.7439999999999998","267.2","1022.487","19.35","59.2","0.0","0.0"],
    [1521738,"2026-05-27 05:00:00","68235","1.974","257.7","3.201","254.1","1022.468","19.23","58.89","12.67","0.0"],
    [1521739,"2026-05-27 05:10:00","68236","1.83","255.4","3.0380000000000003","261.8","1022.477","19.4","57.6","67.1","0.0"],
    [1521740,"2026-05-27 05:20:00","68237","1.629","258.2","2.6460000000000004","264.4","1022.467","19.72","56.25","91.7","0.0"],
    [1521741,"2026-05-27 05:30:00","68238","1.7480000000000002","251.8","3.0380000000000003","252.7","1022.518","20.05","54.64","128.9","0.0"],
    [1521742,"2026-05-27 05:40:00","68239","2.119","251.3","3.397","262.8","1022.56","20.45","52.86","149.6","0.0"],
    [1521743,"2026-05-27 05:50:00","68240","2.004","251.1","3.136","255.9","1022.638","20.52","52.62","201.3","0.0"],
    [1521744,"2026-05-27 06:00:00","68241","1.4169999999999998","249.3","2.319","255.2","1022.723","20.72","52.11","201.9","0.0"],
    [1521745,"2026-05-27 06:10:00","68242","1.56","249.2","2.515","252.4","1022.827","21.17","50.6","263.4","0.0"],
    [1521746,"2026-05-27 06:20:00","68243","1.5959999999999999","248.3","2.7769999999999997","254.6","1022.878","21.39","50.02","268.3","0.0"],
    [1521747,"2026-05-27 06:30:00","68244","1.5119999999999998","245.4","2.5810000000000004","222.1","1022.941","21.88","48.13","290.5","0.0"],
    [1521748,"2026-05-27 06:40:00","68245","1.7590000000000001","236.7","2.94","253.1","1022.991","22.35","46.77","335.3","0.0"],
    [1521749,"2026-05-27 06:50:00","68246","1.9909999999999999","237.8","3.1689999999999996","257.0","1023.039","22.62","46.34","382.3","0.0"],
    [1521750,"2026-05-27 07:00:00","68247","2.129","242.3","3.7569999999999997","267.6","1023.124","22.78","46.6","402.4","0.0"],
    [1521751,"2026-05-27 07:10:00","68248","2.141","236.3","3.397","260.2","1023.135","22.85","46.02","428.6","0.0"],
    [1521752,"2026-05-27 07:20:00","68249","2.25","228.3","3.855","224.6","1023.144","23.01","46.66","444.7","0.0"],
    [1521753,"2026-05-27 07:30:00","68250","2.066","238.9","3.6910000000000003","248.6","1023.139","23.12","47.39","502.2","0.0"],
    [1521754,"2026-05-27 07:40:00","68251","1.649","240.0","3.593","219.5","1023.156","23.24","49.39","502.8","0.0"],
    [1521755,"2026-05-27 07:50:00","68252","2.052","224.2","3.855","217.9","1023.105","23.39","49.65","515.8","0.0"],
    [1521756,"2026-05-27 08:00:00","68253","1.848","236.8","3.593","267.4","1023.088","23.65","50.03","569.5","0.0"],
    [1521757,"2026-05-27 08:10:00","68254","1.768","237.9","3.985","212.3","1023.091","23.92","50.9","573.5","0.0"],
    [1521758,"2026-05-27 08:20:00","68255","1.875","241.0","3.9530000000000003","265.2","1023.06","24.33","50.76","624.7","0.0"],
    [1521759,"2026-05-27 08:30:00","68256","2.677","218.6","5.227","202.6","1022.989","24.56","53.6","635.2","0.0"],
    [1521760,"2026-05-27 08:40:00","68257","3.2260000000000004","213.3","6.042999999999999","224.9","1022.969","24.62","53.25","696.2","0.0"],
    [1521761,"2026-05-27 08:50:00","68258","3.801","218.5","6.011","223.9","1022.976","24.8","50.13","703.9","0.0"],
    [1521762,"2026-05-27 09:00:00","68259","3.2110000000000003","224.8","5.619","215.0","1022.95","25.15","47.13","709.7","0.0"],
    [1521763,"2026-05-27 09:10:00","68260","4.423","218.2","6.664","218.8","1022.879","25.29","44.56","769.3","0.0"],
    [1521764,"2026-05-27 09:20:00","68261","4.625","211.7","6.599","190.9","1022.869","25.36","44.82","770.9","0.0"],
    [1521765,"2026-05-27 09:30:00","68262","4.395","206.6","6.697","195.5","1022.802","25.13","46.9","815.0","0.0"],
    [1521766,"2026-05-27 09:40:00","68263","3.887","214.7","6.239","211.1","1022.756","25.55","44.42","837.0","0.0"],
    [1521767,"2026-05-27 09:50:00","68264","4.3469999999999995","211.1","7.218999999999999","226.9","1022.715","25.65","42.68","838.0","0.0"],
    [1521768,"2026-05-27 10:00:00","68265","4.574","205.8","7.611000000000001","212.1","1022.638","25.65","42.95","849.0","0.0"],
    [1521769,"2026-05-27 10:10:00","68266","4.803","211.2","7.872999999999999","215.1","1022.604","25.95","40.56","903.0","0.0"],
    [1521770,"2026-05-27 10:20:00","68267","4.471","206.7","8.2","198.8","1022.598","26.09","40.22","905.0","0.0"],
    [1521771,"2026-05-27 10:30:00","68268","5.125","202.3","8.3","207.2","1022.526","25.78","41.83","905.0","0.0"],
    [1521772,"2026-05-27 10:40:00","68269","4.908","209.2","8.23","211.3","1022.495","25.96","41.54","905.0","0.0"],
    [1521773,"2026-05-27 10:50:00","68270","5.4510000000000005","203.2","7.579","193.1","1022.369","25.67","44.13","917.0","0.0"],
    [1521774,"2026-05-27 11:00:00","68271","5.499","207.2","9.08","198.3","1022.257","25.73","43.22","962.0","0.0"],
    [1521775,"2026-05-27 11:10:00","68272","4.729","209.9","7.644","200.0","1022.213","25.86","42.89","972.0","0.0"],
    [1521776,"2026-05-27 11:20:00","68273","4.787","204.5","8.85","197.4","1022.138","25.6","46.84","972.0","0.0"],
    [1521777,"2026-05-27 11:30:00","68274","4.93","203.8","7.775","210.2","1022.057","25.46","47.75","966.0","0.0"],
    [1521778,"2026-05-27 11:40:00","68275","5.269","206.0","8.82","208.8","1021.935","25.1","51.71","972.0","0.0"],
    [1521779,"2026-05-27 11:50:00","68276","5.019","209.2","7.611000000000001","213.9","1021.87","25.22","51.9","972.0","0.0"],
    [1521780,"2026-05-27 12:00:00","68277","4.7219999999999995","212.3","8.98","197.3","1021.798","25.38","50.28","972.0","0.0"],
    [1521781,"2026-05-27 12:10:00","68278","5.922000000000001","203.4","9.11","209.8","1021.694","25.25","51.28","972.0","0.0"],
    [1521782,"2026-05-27 12:20:00","68279","6.359","195.4","8.95","186.7","1021.612","24.75","56.6","972.0","0.0"],
    [1521783,"2026-05-27 12:30:00","68280","5.749","198.3","8.92","191.9","1021.602","24.77","55.72","970.0","0.0"],
    [1521784,"2026-05-27 12:40:00","68281","5.979","197.4","9.11","197.4","1021.519","24.58","57.44","972.0","0.0"],
    [1521785,"2026-05-27 12:50:00","68282","5.9910000000000005","204.7","8.69","195.9","1021.483","24.98","54.1","950.0","0.0"],
    [1521786,"2026-05-27 13:00:00","68283","4.91","214.8","8.4","235.5","1021.504","25.39","50.66","908.0","0.0"],
    [1521787,"2026-05-27 13:10:00","68284","5.894","215.0","9.87","198.7","1021.408","25.42","50.13","905.0","0.0"],
    [1521788,"2026-05-27 13:20:00","68285","4.737","216.0","8.23","215.2","1021.369","25.65","48.31","905.0","0.0"],
    [1521789,"2026-05-27 13:30:00","68286","5.892","205.6","8.59","205.2","1021.177","25.52","50.39","905.0","0.0"],
    [1521790,"2026-05-27 13:40:00","68287","6.551","205.1","9.31","191.8","1021.062","25.39","51.34","860.0","0.0"],
    [1521791,"2026-05-27 13:50:00","68288","5.2989999999999995","206.0","9.96","196.6","1020.919","25.33","53.04","842.0","0.0"],
    [1521792,"2026-05-27 14:00:00","68289","5.827000000000001","206.2","9.15","203.4","1020.811","25.25","53.69","838.0","0.0"],
    [1521793,"2026-05-27 14:10:00","68290","5.936","209.0","9.7","208.8","1020.712","25.34","53.14","836.0","0.0"],
    [1521794,"2026-05-27 14:20:00","68291","5.957999999999999","207.8","9.73","195.2","1020.56","25.16","53.46","775.0","0.0"],
    [1521795,"2026-05-27 14:30:00","68292","5.474","215.8","9.96","200.0","1020.495","25.33","52.36","770.9","0.0"],
    [1521796,"2026-05-27 14:40:00","68293","5.103","212.9","8.4","203.0","1020.398","25.37","52.13","756.7","0.0"],
    [1521797,"2026-05-27 14:50:00","68294","5.672999999999999","213.7","8.92","209.6","1020.25","25.22","53.87","700.5","0.0"],
    [1521798,"2026-05-27 15:00:00","68295","5.524","210.4","9.18","202.5","1020.137","25.26","54.7","702.2","0.0"],
    [1521799,"2026-05-27 15:10:00","68296","5.039","217.2","8.69","208.4","1020.088","25.19","55.42","637.9","0.0"],
    [1521800,"2026-05-27 15:20:00","68297","4.383","218.6","8.4","226.8","1020.033","25.33","55.72","636.8","0.0"],
    [1521801,"2026-05-27 15:30:00","68298","4.115","216.0","7.742000000000001","226.8","1019.938","25.36","55.9","592.4","0.0"],
    [1521802,"2026-05-27 15:40:00","68299","5.82","215.1","8.85","203.9","1019.865","25.16","55.9","569.8","0.0"],
    [1521803,"2026-05-27 15:50:00","68300","4.981","218.6","8.79","225.1","1019.868","25.23","55.3","537.0","0.0"],
    [1521804,"2026-05-27 16:00:00","68301","4.055","219.1","8.13","221.1","1019.789","25.36","54.75","502.8","0.0"],
    [1521805,"2026-05-27 16:10:00","68302","4.74","217.4","7.644","230.0","1019.662","25.39","54.3","490.9","0.0"],
    [1521806,"2026-05-27 16:20:00","68303","5.334","221.1","8.79","226.6","1019.58","25.18","55.67","435.9","0.0"],
    [1521807,"2026-05-27 16:30:00","68304","5.127999999999999","217.0","8.92","227.3","1019.509","25.03","57.42","435.7","0.0"],
    [1521808,"2026-05-27 16:40:00","68305","4.6610000000000005","219.2","7.611000000000001","216.4","1019.462","24.96","57.79","403.9","0.0"],
    [1521809,"2026-05-27 16:50:00","68306","4.874","222.0","7.971","221.3","1019.343","24.92","57.35","401.6","0.0"],
    [1521810,"2026-05-27 17:00:00","68307","3.52","224.9","5.978","212.3","1019.266","25.03","57.25","336.5","0.0"],
    [1521811,"2026-05-27 17:10:00","68308","3.549","223.3","5.7170000000000005","220.8","1019.198","25.16","55.32","335.2","0.0"],
    [1521812,"2026-05-27 17:20:00","68309","3.68","224.2","6.827000000000001","211.1","1019.188","25.04","55.36","272.8","0.0"],
    [1521813,"2026-05-27 17:30:00","68310","4.294","227.2","7.513","221.8","1019.161","24.98","54.94","268.1","0.0"],
    [1521814,"2026-05-27 17:40:00","68311","4.114","225.4","6.141","225.0","1019.148","24.9","54.35","205.4","0.0"],
    [1521815,"2026-05-27 17:50:00","68312","3.554","227.7","5.88","207.4","1019.139","24.97","53.66","201.1","0.0"],
    [1521816,"2026-05-27 18:00:00","68313","3.237","231.1","8.43","226.2","1019.101","25.01","54.95","143.0","0.0"],
    [1521817,"2026-05-27 18:10:00","68314","4.874","222.4","8.59","216.4","1019.077","24.73","56.51","134.1","0.0"],
    [1521818,"2026-05-27 18:20:00","68315","3.142","231.0","5.88","233.1","1019.07","24.73","56.73","96.4","0.0"],
    [1521819,"2026-05-27 18:30:00","68316","3.5060000000000002","229.9","7.546","230.2","1019.094","24.63","57.16","67.04","0.0"],
    [1521820,"2026-05-27 18:40:00","68317","2.6889999999999996","238.4","4.867","229.6","1019.151","24.61","57.42","66.93","0.0"],
    [1521821,"2026-05-27 18:50:00","68318","2.86","232.7","5.521","232.1","1019.177","24.44","58.23","4.302","0.0"],
    [1521822,"2026-05-27 19:00:00","68319","2.6689999999999996","225.6","5.227","219.4","1019.217","24.3","58.81","0.0","0.0"],
    [1521823,"2026-05-27 19:10:00","68320","2.475","225.5","4.965","211.5","1019.278","24.2","59.58","0.0","0.0"],
    [1521824,"2026-05-27 19:20:00","68321","2.653","225.8","5.619","204.4","1019.339","24.11","59.45","0.0","0.0"],
    [1521825,"2026-05-27 19:30:00","68322","2.496","228.3","4.247","203.1","1019.382","24.07","58.95","0.0","0.0"],
    [1521826,"2026-05-27 19:40:00","68323","2.616","241.5","4.508","240.4","1019.497","24.04","58.3","0.0","0.0"],
    [1521827,"2026-05-27 19:50:00","68324","2.924","244.8","4.541","271.1","1019.603","24.01","57.53","0.0","0.0"],
    [1521828,"2026-05-27 20:00:00","68325","2.8510000000000004","242.2","5.782","263.5","1019.686","23.99","56.76","0.0","0.0"],
    [1521829,"2026-05-27 20:10:00","68326","2.867","247.9","4.4430000000000005","268.3","1019.749","24.0","55.78","0.0","0.0"],
    [1521830,"2026-05-27 20:20:00","68327","3.071","243.9","5.2589999999999995","253.8","1019.816","23.89","55.24","0.0","0.0"],
    [1521831,"2026-05-27 20:30:00","68328","2.654","239.4","4.181","240.4","1019.911","23.73","55.36","0.0","0.0"],
    [1521832,"2026-05-27 20:40:00","68329","2.7","242.1","4.573","237.2","1019.923","23.69","55.93","0.0","0.0"],
    [1521833,"2026-05-27 20:50:00","68330","3.096","242.8","4.704","222.8","1020.002","23.69","55.22","0.0","0.0"],
    [1521834,"2026-05-27 21:00:00","68331","2.702","243.7","4.638999999999999","249.7","1020.017","23.65","55.23","0.0","0.0"],
    [1521835,"2026-05-27 21:10:00","68332","2.912","238.1","4.573","225.6","1019.945","23.55","55.39","0.0","0.0"],
    [1521836,"2026-05-27 21:20:00","68333","2.605","234.5","4.475","233.1","1019.922","23.5","55.62","0.0","0.0"],
    [1521837,"2026-05-27 21:30:00","68334","2.362","241.6","3.5610000000000004","236.0","1019.875","23.43","55.42","0.0","0.0"],
    [1521838,"2026-05-27 21:40:00","68335","2.254","235.7","3.234","226.3","1019.89","23.29","55.65","0.0","0.0"],
    [1521839,"2026-05-27 21:50:00","68336","2.086","233.9","3.267","230.6","1019.85","23.2","56.21","0.0","0.0"],
    [1521840,"2026-05-27 22:00:00","68337","2.286","233.5","3.7239999999999998","233.5","1019.82","23.09","56.84","0.0","0.0"],
    [1521841,"2026-05-27 22:10:00","68338","2.535","227.1","4.345","218.8","1019.76","23.0","57.85","0.0","0.0"],
    [1521842,"2026-05-27 22:20:00","68339","2.885","221.8","4.737","215.6","1019.721","22.94","58.69","0.0","0.0"],
    [1521843,"2026-05-27 22:30:00","68340","3.1489999999999996","220.5","4.671","216.1","1019.685","22.99","58.28","0.0","0.0"],
    [1521844,"2026-05-27 22:40:00","68341","2.4459999999999997","224.5","4.083","213.3","1019.641","22.91","58.58","0.0","0.0"],
    [1521845,"2026-05-27 22:50:00","68342","2.189","229.1","3.43","219.7","1019.634","22.84","58.9","0.0","0.0"],
    [1521846,"2026-05-27 23:00:00","68343","2.113","226.6","3.463","208.0","1019.584","22.82","58.37","0.0","0.0"],
    [1521847,"2026-05-27 23:10:00","68344","2.764","222.3","4.279","214.0","1019.481","22.89","57.41","0.0","0.0"],
    [1521848,"2026-05-27 23:20:00","68345","3.233","222.1","4.704","236.6","1019.442","22.93","57.22","0.0","0.0"],
    [1521849,"2026-05-27 23:30:00","68346","2.642","227.2","3.887","231.2","1019.404","22.85","57.05","0.0","0.0"],
    [1521850,"2026-05-27 23:40:00","68347","2.3080000000000003","235.4","3.528","256.9","1019.348","22.83","55.88","0.0","0.0"],
    [1521851,"2026-05-27 23:50:00","68348","2.015","229.5","3.463","226.9","1019.285","22.64","56.32","0.0","0.0"],
    [1521852,"2026-05-28 00:00:00","68349","2.057","238.9","3.365","261.0","1019.201","22.66","55.35","0.0","0.0"],
    [1521853,"2026-05-28 00:10:00","68350","2.002","240.4","3.136","249.7","1019.18","22.72","54.11","0.0","0.0"],
    [1521854,"2026-05-28 00:20:00","68351","1.781","234.8","2.8089999999999997","242.7","1019.131","22.67","53.57","0.0","0.0"],
    [1521855,"2026-05-28 00:30:00","68352","1.6869999999999998","217.9","3.0380000000000003","227.4","1019.054","22.63","53.79","0.0","0.0"],
    [1521856,"2026-05-28 00:40:00","68353","2.185","213.7","3.201","223.4","1018.988","23.0","51.1","0.0","0.0"],
    [1521857,"2026-05-28 00:50:00","68354","2.603","207.3","3.495","206.8","1018.909","22.51","54.45","0.0","0.0"],
    [1521858,"2026-05-28 01:00:00","68355","1.8530000000000002","233.9","3.332","217.9","1018.875","22.57","52.27","0.0","0.0"],
    [1521859,"2026-05-28 01:10:00","68356","1.9969999999999999","233.0","3.234","231.2","1018.821","22.29","54.34","0.0","0.0"],
    [1521860,"2026-05-28 01:20:00","68357","2.2319999999999998","233.8","3.332","233.9","1018.804","22.04","54.54","0.0","0.0"],
    [1521861,"2026-05-28 01:30:00","68358","2.096","226.4","3.1689999999999996","212.2","1018.778","22.26","52.19","0.0","0.0"],
    [1521862,"2026-05-28 01:40:00","68359","2.117","243.5","3.6260000000000003","220.7","1018.73","22.53","51.33","0.0","0.0"],
    [1521863,"2026-05-28 01:50:00","68360","2.3609999999999998","244.5","3.7569999999999997","228.6","1018.678","21.87","55.82","0.0","0.0"],
    [1521864,"2026-05-28 02:00:00","68361","2.175","244.0","3.495","253.6","1018.691","21.62","56.93","0.0","0.0"],
    [1521865,"2026-05-28 02:10:00","68362","2.33","241.5","3.92","254.0","1018.663","21.73","55.24","0.0","0.0"],
    [1521866,"2026-05-28 02:20:00","68363","2.182","225.8","3.7569999999999997","222.1","1018.545","22.2","51.88","0.0","0.0"],
    [1521867,"2026-05-28 02:30:00","68364","2.449","221.7","4.018","217.0","1018.479","22.4","51.63","0.0","0.0"],
    [1521868,"2026-05-28 02:40:00","68365","2.3369999999999997","241.8","4.018","261.9","1018.443","22.28","52.64","0.0","0.0"],
    [1521869,"2026-05-28 02:50:00","68366","2.867","247.1","4.606","260.0","1018.357","21.63","55.79","0.0","0.0"],
    [1521870,"2026-05-28 03:00:00","68367","2.7039999999999997","249.6","4.638999999999999","252.3","1018.323","21.75","54.82","0.0","0.0"],
    [1521871,"2026-05-28 03:10:00","68368","2.27","252.6","4.181","248.6","1018.234","21.71","55.52","0.0","0.0"],
    [1521872,"2026-05-28 03:20:00","68369","1.93","264.9","3.659","262.9","1018.172","21.34","57.4","0.0","0.0"],
    [1521873,"2026-05-28 03:30:00","68370","2.396","265.6","4.41","290.7","1018.124","21.32","56.55","0.0","0.0"],
    [1521874,"2026-05-28 03:40:00","68371","1.903","273.7","3.397","258.6","1018.106","21.43","56.15","0.0","0.0"],
    [1521875,"2026-05-28 03:50:00","68372","1.686","270.6","2.842","272.5","1018.152","21.7","54.68","0.0","0.0"],
    [1521876,"2026-05-28 04:00:00","68373","1.626","256.6","3.1689999999999996","259.1","1018.187","22.04","52.9","0.0","0.0"],
    [1521877,"2026-05-28 04:10:00","68374","1.929","255.2","3.5610000000000004","259.2","1018.251","21.9","53.85","0.0","0.0"],
    [1521878,"2026-05-28 04:20:00","68375","2.148","252.4","3.397","248.4","1018.318","21.28","56.1","0.0","0.0"],
    [1521879,"2026-05-28 04:30:00","68376","3.111","251.7","5.031000000000001","255.0","1018.371","21.29","55.53","0.0","0.0"],
    [1521880,"2026-05-28 04:40:00","68377","3.306","255.1","5.063","250.4","1018.397","21.24","55.95","0.0","0.0"],
    [1521881,"2026-05-28 04:50:00","68378","2.174","258.0","4.018","267.1","1018.424","21.02","57.41","5.899","0.0"],
    [1521882,"2026-05-28 05:00:00","68379","2.397","260.0","3.5610000000000004","248.5","1018.456","20.99","57.6","66.76","0.0"],
    [1521883,"2026-05-28 05:10:00","68380","2.193","256.3","3.299","250.5","1018.49","21.14","57.05","67.09","0.0"],
    [1521884,"2026-05-28 05:20:00","68381","2.373","254.9","3.887","255.8","1018.602","21.29","56.54","77.69","0.0"],
    [1521885,"2026-05-28 05:30:00","68382","2.322","256.7","3.365","252.3","1018.637","21.42","55.81","134.2","0.0"],
    [1521886,"2026-05-28 05:40:00","68383","2.7769999999999997","253.6","4.018","251.0","1018.63","21.92","53.61","134.2","0.0"],
    [1521887,"2026-05-28 05:50:00","68384","1.761","258.2","3.267","255.0","1018.675","22.6","51.29","183.5","0.0"],
    [1521888,"2026-05-28 06:00:00","68385","1.716","244.6","3.332","217.9","1018.739","22.98","49.89","201.2","0.0"],
    [1521889,"2026-05-28 06:10:00","68386","2.208","233.8","3.5610000000000004","213.7","1018.806","23.25","48.79","233.1","0.0"],
    [1521890,"2026-05-28 06:20:00","68387","2.445","238.9","3.855","224.4","1018.891","23.15","49.3","268.2","0.0"],
    [1521891,"2026-05-28 06:30:00","68388","2.127","245.0","3.6910000000000003","239.9","1019.028","23.35","49.19","297.8","0.0"],
    [1521892,"2026-05-28 06:40:00","68389","2.693","244.8","4.541","252.0","1019.041","23.87","47.13","335.2","0.0"],
    [1521893,"2026-05-28 06:50:00","68390","2.761","239.6","4.4430000000000005","253.2","1019.085","24.05","46.56","364.3","0.0"],
    [1521894,"2026-05-28 07:00:00","68391","2.7310000000000003","242.2","4.149","229.1","1019.137","24.28","46.1","402.3","0.0"],
    [1521895,"2026-05-28 07:10:00","68392","2.41","237.9","3.92","263.5","1019.205","24.54","45.56","414.1","0.0"],
    [1521896,"2026-05-28 07:20:00","68393","2.088","234.2","4.2139999999999995","256.8","1019.207","24.95","44.53","435.7","0.0"],
    [1521897,"2026-05-28 07:30:00","68394","1.893","212.3","3.234","227.4","1019.192","25.49","43.3","447.2","0.0"],
    [1521898,"2026-05-28 07:40:00","68395","1.5719999999999998","216.3","2.7110000000000003","212.2","1019.164","26.06","42.05","502.3","0.0"],
    [1521899,"2026-05-28 07:50:00","68396","2.491","197.9","3.7889999999999997","213.2","1019.163","26.05","43.63","511.8","0.0"],
    [1521900,"2026-05-28 08:00:00","68397","3.1310000000000002","181.0","4.018","172.8","1019.167","23.59","58.03","569.6","0.0"],
    [1521901,"2026-05-28 08:10:00","68398","2.9139999999999997","180.7","3.7569999999999997","170.2","1019.213","22.93","62.62","569.8","0.0"],
    [1521902,"2026-05-28 08:20:00","68399","3.9130000000000003","178.4","5.39","180.6","1019.229","23.56","56.93","620.0","0.0"],
    [1521903,"2026-05-28 08:30:00","68400","3.98","181.6","4.867","180.3","1019.231","23.01","59.85","636.8","0.0"],
    [1521904,"2026-05-28 08:40:00","68401","4.377","190.3","5.684","190.8","1019.161","23.93","57.2","654.5","0.0"],
    [1521905,"2026-05-28 08:50:00","68402","4.527","193.5","5.749","190.9","1019.192","25.05","56.57","703.9","0.0"],
    [1521906,"2026-05-28 09:00:00","68403","4.195","197.3","5.7170000000000005","207.7","1019.285","25.27","55.92","703.9","0.0"],
    [1521907,"2026-05-28 09:10:00","68404","4.206","210.0","5.782","218.7","1019.348","25.75","54.16","750.9","0.0"],
    [1521908,"2026-05-28 09:20:00","68405","3.49","204.9","5.521","224.7","1019.405","26.22","52.14","770.9","0.0"],
    [1521909,"2026-05-28 09:30:00","68406","3.451","213.6","5.39","195.4","1019.474","26.42","51.75","770.9","0.0"],
    [1521910,"2026-05-28 09:40:00","68407","3.853","206.4","5.651","196.6","1019.453","26.47","52.79","823.0","0.0"],
    [1521911,"2026-05-28 09:50:00","68408","4.039","205.2","5.847","208.9","1019.443","26.37","52.12","838.0","0.0"],
    [1521912,"2026-05-28 10:00:00","68409","4.362","211.0","6.729","205.8","1019.494","26.39","50.81","838.0","0.0"],
    [1521913,"2026-05-28 10:10:00","68410","4.071000000000001","222.1","5.7170000000000005","219.8","1019.503","26.36","50.85","846.0","0.0"],
    [1521914,"2026-05-28 10:20:00","68411","4.163","220.5","6.239","222.9","1019.465","26.53","49.46","903.0","0.0"],
    [1521915,"2026-05-28 10:30:00","68412","4.064","215.8","6.109","233.1","1019.423","26.57","50.45","905.0","0.0"],
    [1521916,"2026-05-28 10:40:00","68413","3.648","217.1","5.619","221.7","1019.465","26.68","49.74","905.0","0.0"],
    [1521917,"2026-05-28 10:50:00","68414","3.595","223.7","6.305","217.3","1019.414","26.9","48.92","905.0","0.0"],
    [1521918,"2026-05-28 11:00:00","68415","3.43","209.7","5.096","200.5","1019.322","27.32","48.56","905.0","0.0"],
    [1521919,"2026-05-28 11:10:00","68416","4.422","205.8","6.468","217.5","1019.262","26.91","51.14","920.0","0.0"],
    [1521920,"2026-05-28 11:20:00","68417","3.698","210.7","5.684","199.7","1019.231","27.05","49.96","940.0","0.0"],
    [1521921,"2026-05-28 11:30:00","68418","3.1069999999999998","217.6","5.1610000000000005","224.1","1019.17","27.43","46.39","960.0","0.0"],
    [1521922,"2026-05-28 11:40:00","68419","4.553","224.9","7.252000000000001","220.4","1019.13","27.42","42.95","972.0","0.0"],
    [1521923,"2026-05-28 11:50:00","68420","5.0969999999999995","220.3","7.218999999999999","223.7","1019.062","27.4","42.34","972.0","0.0"],
    [1521924,"2026-05-28 12:00:00","68421","4.323","218.9","7.4479999999999995","209.1","1019.033","27.73","40.35","972.0","0.0"],
    [1521925,"2026-05-28 12:10:00","68422","4.204","221.1","6.141","219.0","1018.978","28.05","39.33","970.0","0.0"],
    [1521926,"2026-05-28 12:20:00","68423","3.3289999999999997","210.8","5.063","189.6","1018.921","28.38","38.57","941.0","0.0"],
    [1521927,"2026-05-28 12:30:00","68424","4.353","224.4","7.317","220.2","1018.801","28.45","36.83","938.0","0.0"],
    [1521928,"2026-05-28 12:40:00","68425","4.192","216.6","6.468","217.1","1018.687","28.66","36.95","913.0","0.0"],
    [1521929,"2026-05-28 12:50:00","68426","4.563","219.1","6.893","212.2","1018.615","28.65","37.06","905.0","0.0"],
    [1521930,"2026-05-28 13:00:00","68427","3.353","223.9","5.782","214.9","1018.515","28.75","37.79","905.0","0.0"],
    [1521931,"2026-05-28 13:10:00","68428","3.675","220.2","7.579","229.6","1018.441","28.78","38.96","905.0","0.0"],
    [1521932,"2026-05-28 13:20:00","68429","4.16","223.0","7.382999999999999","219.3","1018.451","28.44","37.83","905.0","0.0"],
    [1521933,"2026-05-28 13:30:00","68430","3.884","219.5","7.252000000000001","212.8","1018.464","28.37","39.48","883.0","0.0"],
    [1521934,"2026-05-28 13:40:00","68431","4.2669999999999995","219.9","6.795","215.2","1018.439","28.22","38.7","842.0","0.0"],
    [1521935,"2026-05-28 13:50:00","68432","5.1739999999999995","221.4","8.1","214.4","1018.339","28.41","36.52","838.0","0.0"],
    [1521936,"2026-05-28 14:00:00","68433","4.122","219.0","7.938","226.8","1018.247","28.53","35.51","838.0","0.0"],
    [1521937,"2026-05-28 14:10:00","68434","3.8760000000000003","218.5","6.7620000000000005","227.9","1018.106","28.92","34.19","794.7","0.0"],
    [1521938,"2026-05-28 14:20:00","68435","4.263999999999999","219.8","7.644","232.1","1018.054","28.9","33.93","770.6","0.0"],
    [1521939,"2026-05-28 14:30:00","68436","4.605","226.1","7.187","223.5","1017.968","28.83","35.12","769.3","0.0"],
    [1521940,"2026-05-28 14:40:00","68437","4.8660000000000005","204.6","6.9910000000000005","198.1","1017.929","28.46","39.45","714.0","0.0"],
    [1521941,"2026-05-28 14:50:00","68438","4.391","206.7","6.893","216.8","1017.918","27.89","42.12","703.6","0.0"],
    [1521942,"2026-05-28 15:00:00","68439","4.524","213.7","7.4479999999999995","209.2","1017.847","27.7","44.24","672.8","0.0"],
    [1521943,"2026-05-28 15:10:00","68440","5.135","221.4","7.971","229.5","1017.819","27.41","44.21","636.6","0.0"],
    [1521944,"2026-05-28 15:20:00","68441","5.31","219.7","7.938","226.1","1017.796","27.42","43.55","625.3","0.0"],
    [1521945,"2026-05-28 15:30:00","68442","5.581","223.0","9.15","230.4","1017.721","27.35","42.98","570.2","0.0"],
    [1521946,"2026-05-28 15:40:00","68443","5.4","224.9","8.92","227.7","1017.68","27.18","43.56","565.8","0.0"],
    [1521947,"2026-05-28 15:50:00","68444","5.132000000000001","225.6","7.415","228.5","1017.603","27.09","44.7","507.4","0.0"],
    [1521948,"2026-05-28 16:00:00","68445","5.199","224.2","8.4","223.1","1017.589","26.96","45.73","502.2","0.0"],
    [1521949,"2026-05-28 16:10:00","68446","5.045","220.8","8.07","228.2","1017.509","26.99","45.19","445.4","0.0"],
    [1521950,"2026-05-28 16:20:00","68447","4.137","221.0","7.4479999999999995","237.0","1017.432","27.1","44.33","435.6","0.0"],
    [1521951,"2026-05-28 16:30:00","68448","5.311","223.7","8.1","232.0","1017.432","26.98","43.74","416.3","0.0"],
    [1521952,"2026-05-28 16:40:00","68449","5.511","225.3","8.4","214.3","1017.381","26.81","44.81","402.1","0.0"],
    [1521953,"2026-05-28 16:50:00","68450","5.732","224.0","9.02","220.5","1017.373","26.75","44.68","367.9","0.0"],
    [1521954,"2026-05-28 17:00:00","68451","5.513","223.6","9.41","223.1","1017.32","26.62","46.72","335.1","0.0"],
    [1521955,"2026-05-28 17:10:00","68452","5.341","226.5","8.56","217.1","1017.336","26.36","48.15","302.6","0.0"],
    [1521956,"2026-05-28 17:20:00","68453","4.9110000000000005","224.9","7.611000000000001","227.4","1017.397","26.32","48.83","268.1","0.0"],
    [1521957,"2026-05-28 17:30:00","68454","4.341","224.8","7.056","239.5","1017.453","26.28","49.66","233.0","0.0"],
    [1521958,"2026-05-28 17:40:00","68455","4.441","222.7","8.26","226.5","1017.532","26.13","49.93","201.1","0.0"],
    [1521959,"2026-05-28 17:50:00","68456","4.365","222.4","6.827000000000001","224.3","1017.572","26.06","49.65","176.2","0.0"],
    [1521960,"2026-05-28 18:00:00","68457","5.627000000000001","225.8","9.05","226.8","1017.653","25.96","49.73","134.1","0.0"],
    [1521961,"2026-05-28 18:10:00","68458","5.7010000000000005","222.7","8.49","212.9","1017.692","25.79","50.71","134.1","0.0"],
    [1521962,"2026-05-28 18:20:00","68459","5.167999999999999","224.1","8.13","217.8","1017.789","25.65","50.92","79.05","0.0"],
    [1521963,"2026-05-28 18:30:00","68460","5.372000000000001","224.9","8.79","214.3","1017.826","25.55","51.82","67.04","0.0"],
    [1521964,"2026-05-28 18:40:00","68461","5.917000000000001","223.8","9.57","234.9","1017.835","25.47","51.12","67.04","0.0"],
    [1521965,"2026-05-28 18:50:00","68462","5.284","225.0","8.13","221.7","1017.874","25.28","52.39","22.21","0.0"],
    [1521966,"2026-05-28 19:00:00","68463","6.024","223.0","8.79","219.9","1017.834","25.1","53.56","0.0","0.0"],
    [1521967,"2026-05-28 19:10:00","68464","6.135","225.2","9.38","223.2","1017.778","25.01","53.18","0.0","0.0"],
    [1521968,"2026-05-28 19:20:00","68465","4.2330000000000005","228.4","8.49","217.6","1017.888","24.99","53.7","0.0","0.0"],
    [1521969,"2026-05-28 19:30:00","68466","2.803","254.6","5.194","260.5","1018.023","24.98","51.67","0.0","0.0"],
    [1521970,"2026-05-28 19:40:00","68467","2.6289999999999996","244.1","5.129","259.5","1017.997","24.87","50.62","0.0","0.0"],
    [1521971,"2026-05-28 19:50:00","68468","3.253","243.5","5.2589999999999995","264.1","1018.098","24.88","52.24","0.0","0.0"],
    [1521972,"2026-05-28 20:00:00","68469","2.867","246.0","5.227","251.0","1018.216","24.92","54.02","0.0","0.0"],
    [1521973,"2026-05-28 20:10:00","68470","2.8160000000000003","250.3","5.129","257.2","1018.356","24.83","52.66","0.0","0.0"],
    [1521974,"2026-05-28 20:20:00","68471","2.8360000000000003","245.5","4.377","265.7","1018.452","24.82","52.32","0.0","0.0"],
    [1521975,"2026-05-28 20:30:00","68472","2.927","243.1","4.638999999999999","253.3","1018.585","24.82","52.14","0.0","0.0"],
    [1521976,"2026-05-28 20:40:00","68473","2.8339999999999996","246.1","5.129","254.6","1018.693","24.92","52.0","0.0","0.0"],
    [1521977,"2026-05-28 20:50:00","68474","2.378","254.1","4.051","281.7","1018.83","24.94","52.54","0.0","0.0"],
    [1521978,"2026-05-28 21:00:00","68475","2.095","256.0","3.397","266.3","1018.959","24.71","52.73","0.0","0.0"],
    [1521979,"2026-05-28 21:10:00","68476","2.356","253.8","4.181","268.7","1019.002","24.58","53.53","0.0","0.0"],
    [1521980,"2026-05-28 21:20:00","68477","2.531","246.5","3.9530000000000003","251.8","1019.054","24.8","52.87","0.0","0.0"],
    [1521981,"2026-05-28 21:30:00","68478","2.358","250.8","3.887","254.9","1019.128","24.89","53.23","0.0","0.0"],
    [1521982,"2026-05-28 21:40:00","68479","1.9469999999999998","252.8","3.593","257.2","1019.162","24.61","54.09","0.0","0.0"],
    [1521983,"2026-05-28 21:50:00","68480","2.079","260.0","3.659","264.3","1019.135","24.39","55.55","0.0","0.0"],
    [1521984,"2026-05-28 22:00:00","68481","1.7280000000000002","246.9","3.92","267.1","1019.11","24.48","54.79","0.0","0.0"],
    [1521985,"2026-05-28 22:10:00","68482","1.81","259.0","3.234","259.3","1019.055","24.48","55.97","0.0","0.0"],
    [1521986,"2026-05-28 22:20:00","68483","2.01","247.5","3.43","258.0","1018.981","24.55","54.39","0.0","0.0"],
    [1521987,"2026-05-28 22:30:00","68484","1.905","247.1","4.051","266.1","1018.939","24.66","56.1","0.0","0.0"],
    [1521988,"2026-05-28 22:40:00","68485","2.278","246.0","3.7889999999999997","258.4","1018.907","24.64","57.59","0.0","0.0"],
    [1521989,"2026-05-28 22:50:00","68486","3.214","243.8","5.063","259.4","1018.781","24.67","55.73","0.0","0.0"],
    [1521990,"2026-05-28 23:00:00","68487","3.408","241.9","5.129","252.8","1018.693","24.65","55.22","0.0","0.0"],
    [1521991,"2026-05-28 23:10:00","68488","2.7230000000000003","239.6","4.835","258.5","1018.648","24.56","55.03","0.0","0.0"],
    [1521992,"2026-05-28 23:20:00","68489","2.435","242.6","4.051","260.3","1018.604","24.82","54.46","0.0","0.0"],
    [1521993,"2026-05-28 23:30:00","68490","2.475","238.4","3.7569999999999997","258.4","1018.57","24.76","52.74","0.0","0.0"],
    [1521994,"2026-05-28 23:40:00","68491","1.994","236.7","3.071","257.0","1018.547","24.87","50.08","0.0","0.0"],
    [1521995,"2026-05-28 23:50:00","68492","2.385","238.9","4.181","227.9","1018.354","24.69","52.6","0.0","0.0"],
    [1521996,"2026-05-29 00:00:00","68493","2.735","236.3","4.279","256.5","1018.286","24.56","54.69","0.0","0.0"],
    [1521997,"2026-05-29 00:10:00","68494","2.764","242.3","4.149","229.2","1018.265","24.42","51.05","0.0","0.0"],
    [1521998,"2026-05-29 00:20:00","68495","2.823","239.4","4.475","262.0","1018.234","24.52","47.83","0.0","0.0"],
    [1521999,"2026-05-29 00:30:00","68496","2.659","241.1","4.2139999999999995","244.9","1018.185","24.78","46.35","0.0","0.0"],
    [1522000,"2026-05-29 00:40:00","68497","2.526","242.0","3.887","255.8","1018.152","24.56","48.41","0.0","0.0"],
    [1522001,"2026-05-29 00:50:00","68498","2.313","247.3","4.149","253.8","1018.046","24.54","48.72","0.0","0.0"],
    [1522002,"2026-05-29 01:00:00","68499","1.742","248.8","3.365","260.3","1018.025","24.36","49.6","0.0","0.0"],
    [1522003,"2026-05-29 01:10:00","68500","1.496","247.3","2.613","266.6","1017.999","24.25","50.21","0.0","0.0"],
    [1522004,"2026-05-29 01:20:00","68501","0.649","256.9","1.895","245.0","1017.981","24.03","50.44","0.0","0.0"],
    [1522005,"2026-05-29 01:30:00","68502","1.3119999999999998","259.1","2.8089999999999997","267.0","1017.868","23.7","49.77","0.0","0.0"],
    [1522006,"2026-05-29 01:40:00","68503","1.8730000000000002","252.2","3.7239999999999998","255.6","1017.747","23.54","47.62","0.0","0.0"],
    [1522007,"2026-05-29 01:50:00","68504","2.3369999999999997","261.7","3.397","267.5","1017.684","23.47","47.21","0.0","0.0"],
    [1522008,"2026-05-29 02:00:00","68505","2.384","262.6","3.332","258.3","1017.606","23.54","46.6","0.0","0.0"],
    [1522009,"2026-05-29 02:10:00","68506","2.404","268.1","2.94","270.5","1017.558","23.38","47.34","0.0","0.0"],
    [1522010,"2026-05-29 02:20:00","68507","1.739","263.9","2.842","268.5","1017.631","23.52","46.6","0.0","0.0"],
    [1522011,"2026-05-29 02:30:00","68508","0.33899999999999997","211.6","0.882","281.0","1017.691","23.57","47.26","0.0","0.0"],
    [1522012,"2026-05-29 02:40:00","68509","0.33299999999999996","219.8","1.2409999999999999","221.0","1017.715","23.6","46.48","0.0","0.0"],
    [1522013,"2026-05-29 02:50:00","68510","0.06","334.1","0.425","334.0","1017.724","23.33","49.63","0.0","0.0"],
    [1522014,"2026-05-29 03:00:00","68511","0.42100000000000004","187.4","1.764","193.2","1017.758","22.67","53.1","0.0","0.0"],
    [1522015,"2026-05-29 03:10:00","68512","1.225","206.1","2.0909999999999997","176.4","1017.729","22.52","56.1","0.0","0.0"],
    [1522016,"2026-05-29 03:20:00","68513","0.077","244.6","0.621","219.3","1017.719","22.26","58.55","0.0","0.0"],
    [1522017,"2026-05-29 03:30:00","68514","1.2329999999999999","272.4","1.895","246.5","1017.796","22.62","52.79","0.0","0.0"],
    [1522018,"2026-05-29 03:40:00","68515","1.442","265.2","1.96","265.0","1017.849","23.23","48.16","0.0","0.0"],
    [1522019,"2026-05-29 03:50:00","68516","1.6740000000000002","255.6","2.0909999999999997","254.1","1017.842","23.7","45.01","0.0","0.0"],
    [1522020,"2026-05-29 04:00:00","68517","1.126","261.2","2.189","261.3","1017.863","24.04","43.85","0.0","0.0"],
    [1522021,"2026-05-29 04:10:00","68518","0.987","261.2","1.8619999999999999","259.3","1017.847","23.72","46.9","0.0","0.0"],
    [1522022,"2026-05-29 04:20:00","68519","1.781","260.1","2.385","260.8","1017.876","23.92","46.24","0.0","0.0"],
    [1522023,"2026-05-29 04:30:00","68520","1.9580000000000002","258.8","2.287","262.7","1017.931","23.91","46.47","0.0","0.0"],
    [1522024,"2026-05-29 04:40:00","68521","1.4769999999999999","279.4","2.221","262.5","1018.051","23.86","47.27","0.0","0.0"],
    [1522025,"2026-05-29 04:50:00","68522","1.604","17.76","2.8089999999999997","25.85","1018.163","23.18","51.63","4.752","0.0"],
    [1522026,"2026-05-29 05:00:00","68523","2.347","34.73","2.875","39.29","1018.32","22.81","54.24","64.24","0.0"],
    [1522027,"2026-05-29 05:10:00","68524","1.464","53.25","2.7110000000000003","39.24","1018.387","22.83","53.43","67.08","0.0"],
    [1522028,"2026-05-29 05:20:00","68525","1.6340000000000001","107.3","3.0380000000000003","82.9","1018.474","22.32","60.04","118.5","0.0"],
    [1522029,"2026-05-29 05:30:00","68526","1.65","146.2","2.8089999999999997","150.9","1018.553","21.69","63.77","133.2","0.0"],
    [1522030,"2026-05-29 05:40:00","68527","0.929","169.9","1.7309999999999999","149.5","1018.666","21.9","62.2","134.2","0.0"],
    [1522031,"2026-05-29 05:50:00","68528","0.6459999999999999","167.7","1.274","160.5","1018.767","22.24","59.34","165.3","0.0"],
    [1522032,"2026-05-29 06:00:00","68529","0.7090000000000001","195.9","1.013","194.0","1018.848","22.52","56.73","201.2","0.0"],
    [1522033,"2026-05-29 06:10:00","68530","0.555","194.8","1.078","198.8","1018.894","23.02","53.97","203.2","0.0"],
    [1522034,"2026-05-29 06:20:00","68531","0.28600000000000003","171.6","0.555","179.9","1018.96","23.3","51.97","265.3","0.0"],
    [1522035,"2026-05-29 06:30:00","68532","0.462","169.1","0.7190000000000001","166.8","1019.063","23.38","50.51","268.2","0.0"],
    [1522036,"2026-05-29 06:40:00","68533","0.32","170.4","0.784","166.1","1019.12","24.18","47.5","322.7","0.0"],
    [1522037,"2026-05-29 06:50:00","68534","0.429","141.4","0.784","145.1","1019.191","24.11","47.38","335.2","0.0"],
    [1522038,"2026-05-29 07:00:00","68535","0.7759999999999999","116.6","1.111","144.8","1019.354","24.55","45.93","388.6","0.0"],
    [1522039,"2026-05-29 07:10:00","68536","1.093","140.4","1.666","157.1","1019.417","24.71","46.42","402.2","0.0"],
    [1522040,"2026-05-29 07:20:00","68537","1.234","144.8","1.535","160.0","1019.519","24.38","47.37","426.6","0.0"],
    [1522041,"2026-05-29 07:30:00","68538","1.2830000000000001","134.3","1.797","147.7","1019.64","24.3","48.0","435.8","0.0"],
    [1522042,"2026-05-29 07:40:00","68539","1.5759999999999998","152.5","2.156","156.8","1019.798","24.08","48.89","490.6","0.0"],
    [1522043,"2026-05-29 07:50:00","68540","2.31","155.7","2.5810000000000004","160.6","1019.88","24.01","48.45","502.8","0.0"],
    [1522044,"2026-05-29 08:00:00","68541","2.515","165.0","3.7239999999999998","174.1","1019.96","23.33","56.97","549.5","0.0"],
    [1522045,"2026-05-29 08:10:00","68542","2.722","165.2","3.071","172.3","1020.011","22.46","67.23","569.8","0.0"],
    [1522046,"2026-05-29 08:20:00","68543","2.181","159.1","3.103","167.6","1020.069","22.51","70.53","594.2","0.0"],
    [1522047,"2026-05-29 08:30:00","68544","2.265","165.1","3.365","170.7","1020.138","22.43","71.95","636.8","0.0"],
    [1522048,"2026-05-29 08:40:00","68545","1.9340000000000002","162.6","2.613","170.8","1020.173","22.77","70.67","639.1","0.0"],
    [1522049,"2026-05-29 08:50:00","68546","2.327","181.1","2.8089999999999997","177.8","1020.168","22.53","75.05","636.9","0.0"],
    [1522050,"2026-05-29 09:00:00","68547","2.883","171.3","3.495","177.7","1020.176","22.79","71.6","697.0","0.0"],
    [1522051,"2026-05-29 09:10:00","68548","2.6460000000000004","173.6","3.5610000000000004","172.6","1020.28","22.53","74.93","704.1","0.0"],
    [1522052,"2026-05-29 09:20:00","68549","2.6189999999999998","180.7","3.201","175.7","1020.369","22.94","72.99","747.6","0.0"],
    [1522053,"2026-05-29 09:30:00","68550","2.479","182.4","3.005","178.3","1020.416","22.68","77.94","770.9","0.0"],
    [1522054,"2026-05-29 09:40:00","68551","2.878","179.7","3.593","175.9","1020.449","22.34","79.43","800.0","0.0"],
    [1522055,"2026-05-29 09:50:00","68552","2.677","182.1","3.267","174.1","1020.5","22.6","77.3","838.0","0.0"],
    [1522056,"2026-05-29 10:00:00","68553","3.407","190.4","4.018","189.8","1020.473","22.8","74.34","838.0","0.0"],
    [1522057,"2026-05-29 10:10:00","68554","2.911","181.2","3.6910000000000003","192.6","1020.442","22.97","73.6","838.0","0.0"],
    [1522058,"2026-05-29 10:20:00","68555","2.9739999999999998","174.7","3.6260000000000003","174.7","1020.41","23.19","69.52","854.0","0.0"],
    [1522059,"2026-05-29 10:30:00","68556","2.992","183.4","3.7569999999999997","181.2","1020.358","23.11","74.17","903.0","0.0"],
    [1522060,"2026-05-29 10:40:00","68557","3.055","178.6","3.887","183.5","1020.33","23.17","70.94","902.0","0.0"],
    [1522061,"2026-05-29 10:50:00","68558","2.966","186.3","3.593","191.5","1020.324","23.18","73.98","905.0","0.0"],
    [1522062,"2026-05-29 11:00:00","68559","3.0980000000000003","182.4","3.855","176.6","1020.257","23.27","72.3","905.0","0.0"],
    [1522063,"2026-05-29 11:10:00","68560","3.142","182.6","3.985","176.5","1020.175","23.15","74.86","905.0","0.0"],
    [1522064,"2026-05-29 11:20:00","68561","3.1239999999999997","180.5","3.887","179.5","1020.142","23.11","73.12","905.0","0.0"],
    [1522065,"2026-05-29 11:30:00","68562","3.464","180.1","4.475","176.7","1020.145","23.44","70.45","905.0","0.0"],
    [1522066,"2026-05-29 11:40:00","68563","4.065","181.1","4.737","177.2","1020.128","23.28","70.85","905.0","0.0"],
    [1522067,"2026-05-29 11:50:00","68564","3.747","184.5","4.475","185.1","1020.175","23.08","72.81","907.0","0.0"],
    [1522068,"2026-05-29 12:00:00","68565","3.925","180.0","4.573","176.5","1020.188","22.99","73.53","905.0","0.0"],
    [1522069,"2026-05-29 12:10:00","68566","3.6180000000000003","184.0","4.279","175.1","1020.187","22.88","74.48","905.0","0.0"],
    [1522070,"2026-05-29 12:20:00","68567","3.7060000000000004","185.8","4.475","187.9","1020.17","23.1","73.56","905.0","0.0"],
    [1522071,"2026-05-29 12:30:00","68568","4.23","186.7","5.325","191.3","1020.166","23.31","71.87","905.0","0.0"],
    [1522072,"2026-05-29 12:40:00","68569","4.295","186.9","5.325","186.1","1020.145","23.59","70.36","905.0","0.0"],
    [1522073,"2026-05-29 12:50:00","68570","3.9760000000000004","183.1","4.998","185.0","1020.172","23.43","72.0","905.0","0.0"],
    [1522074,"2026-05-29 13:00:00","68571","4.155","175.0","5.129","174.6","1020.199","23.03","76.98","905.0","0.0"],
    [1522075,"2026-05-29 13:10:00","68572","4.115","162.0","4.606","169.6","1020.261","22.65","81.7","893.0","0.0"],
    [1522076,"2026-05-29 13:20:00","68573","3.115","135.8","3.985","150.0","1020.382","22.94","81.7","846.0","0.0"],
    [1522077,"2026-05-29 13:30:00","68574","3.279","97.8","4.247","89.0","1020.478","23.08","82.3","838.0","0.0"],
    [1522078,"2026-05-29 13:40:00","68575","3.258","68.39","4.835","77.83","1020.58","23.14","82.6","837.0","0.0"],
    [1522079,"2026-05-29 13:50:00","68576","2.449","45.06","5.422999999999999","45.93","1020.552","23.4","81.7","835.0","0.0"],
    [1522080,"2026-05-29 14:00:00","68577","3.23","29.15","5.782","4.63","1020.495","23.54","82.3","776.1","0.0"],
    [1522081,"2026-05-29 14:10:00","68578","2.331","35.83","5.357","30.38","1020.48","23.49","82.3","771.0","0.0"],
    [1522082,"2026-05-29 14:20:00","68579","3.301","29.86","5.782","29.6","1020.507","23.48","82.1","771.0","0.0"],
    [1522083,"2026-05-29 14:30:00","68580","3.215","34.13","6.631","28.42","1020.473","23.44","82.2","721.7","0.0"],
    [1522084,"2026-05-29 14:40:00","68581","4.016","27.35","7.285","35.57","1020.428","23.22","81.8","703.9","0.0"],
    [1522085,"2026-05-29 14:50:00","68582","3.273","45.28","6.566","80.9","1020.422","22.84","81.9","697.8","0.0"],
    [1522086,"2026-05-29 15:00:00","68583","3.333","41.34","6.403","5.957999999999999","1020.397","22.47","84.5","638.3","0.0"],
    [1522087,"2026-05-29 15:10:00","68584","2.96","57.36","6.0760000000000005","43.44","1020.397","22.33","85.9","636.1","0.0"],
    [1522088,"2026-05-29 15:20:00","68585","2.5180000000000002","40.97","5.031000000000001","41.87","1020.368","22.26","85.4","584.7","0.0"],
    [1522089,"2026-05-29 15:30:00","68586","2.511","33.99","5.292000000000001","32.04","1020.388","22.31","84.4","569.9","0.0"],
    [1522090,"2026-05-29 15:40:00","68587","2.116","35.84","4.41","30.89","1020.333","22.33","84.0","569.9","0.0"],
    [1522091,"2026-05-29 15:50:00","68588","3.2119999999999997","32.1","6.0760000000000005","24.31","1020.348","22.3","84.1","436.7","0.0"],
    [1522092,"2026-05-29 16:00:00","68589","4.141","35.29","6.37","38.05","1020.378","22.15","84.7","351.6","0.0"],
    [1522093,"2026-05-29 16:10:00","68590","3.2760000000000002","35.43","4.965","34.54","1020.298","22.04","85.8","296.1","0.0"],
    [1522094,"2026-05-29 16:20:00","68591","3.281","38.77","5.39","44.01","1020.209","21.96","86.0","269.7","0.0"],
    [1522095,"2026-05-29 16:30:00","68592","2.821","40.95","3.332","39.2","1020.209","21.86","86.9","252.5","0.0"],
    [1522096,"2026-05-29 16:40:00","68593","1.9580000000000002","53.33","2.417","61.14","1020.09","21.75","87.5","201.2","0.0"],
    [1522097,"2026-05-29 16:50:00","68594","2.0869999999999997","44.23","2.8089999999999997","48.53","1020.06","21.73","87.6","165.7","0.0"],
    [1522098,"2026-05-29 17:00:00","68595","2.123","39.87","2.6460000000000004","41.89","1020.133","21.68","87.5","134.1","0.0"],
    [1522099,"2026-05-29 17:10:00","68596","2.1919999999999997","39.8","2.9730000000000003","42.38","1020.154","21.67","87.2","134.1","0.0"],
    [1522100,"2026-05-29 17:20:00","68597","2.64","32.42","3.299","29.19","1020.209","21.6","87.1","91.3","0.0"],
    [1522101,"2026-05-29 17:30:00","68598","2.086","35.87","2.875","39.63","1020.109","21.61","87.2","67.06","0.0"],
    [1522102,"2026-05-29 17:40:00","68599","3.1060000000000003","30.65","3.6910000000000003","29.6","1020.154","21.57","87.5","67.07","0.0"],
    [1522103,"2026-05-29 17:50:00","68600","3.455","41.99","4.2139999999999995","38.16","1020.196","21.56","87.3","67.07","0.0"],
    [1522104,"2026-05-29 18:00:00","68601","3.29","36.54","3.985","44.07","1020.303","21.55","87.4","67.08","0.0"],
    [1522105,"2026-05-29 18:10:00","68602","2.793","24.53","4.1160000000000005","28.97","1020.484","21.59","86.9","67.08","0.0"],
    [1522106,"2026-05-29 18:20:00","68603","3.53","36.03","4.638999999999999","33.96","1020.49","21.57","86.8","67.08","0.0"],
    [1522107,"2026-05-29 18:30:00","68604","3.397","40.46","4.149","43.15","1020.452","21.57","86.9","49.81","0.0"],
    [1522108,"2026-05-29 18:40:00","68605","2.938","39.87","3.7569999999999997","45.15","1020.476","21.5","87.3","40.47","0.0"],
    [1522109,"2026-05-29 18:50:00","68606","2.8939999999999997","39.39","3.528","33.05","1020.488","21.45","87.6","12.86","0.0"],
    [1522110,"2026-05-29 19:00:00","68607","2.693","33.83","3.7239999999999998","47.16","1020.562","21.38","87.9","0.0","0.0"],
    [1522111,"2026-05-29 19:10:00","68608","2.8819999999999997","42.72","3.887","44.13","1020.478","21.4","88.0","0.0","0.0"],
    [1522112,"2026-05-29 19:20:00","68609","3.049","31.34","3.6910000000000003","39.4","1020.57","21.36","88.4","0.0","0.0"],
    [1522113,"2026-05-29 19:30:00","68610","2.763","35.36","3.365","33.28","1020.638","21.31","88.4","0.0","0.0"],
    [1522114,"2026-05-29 19:40:00","68611","2.313","39.26","2.875","40.74","1020.66","21.35","88.1","0.0","0.0"],
    [1522115,"2026-05-29 19:50:00","68612","2.966","40.44","3.7889999999999997","39.81","1020.685","21.36","88.0","0.0","0.0"],
    [1522116,"2026-05-29 20:00:00","68613","2.54","31.82","3.495","30.61","1020.864","21.36","88.1","0.0","0.0"],
    [1522117,"2026-05-29 20:10:00","68614","2.728","34.75","3.332","29.87","1020.975","21.31","88.5","0.0","0.0"],
    [1522118,"2026-05-29 20:20:00","68615","2.722","34.11","3.397","31.91","1021.133","21.31","88.5","0.0","0.0"],
    [1522119,"2026-05-29 20:30:00","68616","2.7310000000000003","26.68","3.6260000000000003","23.34","1021.267","21.34","88.5","0.0","0.0"],
    [1522120,"2026-05-29 20:40:00","68617","2.786","29.52","3.495","17.85","1021.381","21.35","88.6","0.0","0.0"],
    [1522121,"2026-05-29 20:50:00","68618","2.278","39.34","2.875","40.07","1021.364","21.34","88.7","0.0","0.0"],
    [1522122,"2026-05-29 21:00:00","68619","2.154","42.25","2.5810000000000004","47.28","1021.335","21.37","88.8","0.0","0.0"],
    [1522123,"2026-05-29 21:10:00","68620","2.095","37.68","2.5810000000000004","40.81","1021.413","21.33","88.9","0.0","0.0"],
    [1522124,"2026-05-29 21:20:00","68621","1.534","39.21","2.254","45.03","1021.329","21.32","89.1","0.0","0.0"],
    [1522125,"2026-05-29 21:30:00","68622","1.256","35.71","1.797","34.11","1021.301","21.34","89.4","0.0","0.0"],
    [1522126,"2026-05-29 21:40:00","68623","1.906","24.51","2.385","22.59","1021.296","21.32","89.4","0.0","0.0"],
    [1522127,"2026-05-29 21:50:00","68624","1.6569999999999998","35.67","2.156","38.09","1021.191","21.35","89.2","0.0","0.0"],
    [1522128,"2026-05-29 22:00:00","68625","1.32","27.52","1.633","35.66","1021.125","21.33","88.7","0.0","0.0"],
    [1522129,"2026-05-29 22:10:00","68626","1.022","37.09","1.2409999999999999","31.42","1021.065","21.44","88.2","0.0","0.0"],
    [1522130,"2026-05-29 22:20:00","68627","0.8370000000000001","49.95","1.078","34.82","1020.903","21.5","86.3","0.0","0.0"],
    [1522131,"2026-05-29 22:30:00","68628","0.915","94.5","1.3719999999999999","111.1","1020.717","21.61","83.2","0.0","0.0"],
    [1522132,"2026-05-29 22:40:00","68629","0.66","97.3","1.209","82.6","1020.769","21.86","82.5","0.0","0.0"],
    [1522133,"2026-05-29 22:50:00","68630","1.001","139.7","1.307","154.5","1020.681","21.68","85.4","0.0","0.0"],
    [1522134,"2026-05-29 23:00:00","68631","0.8490000000000001","152.9","1.209","149.7","1020.61","21.36","87.5","0.0","0.0"],
    [1522135,"2026-05-29 23:10:00","68632","0.076","155.0","0.588","142.6","1020.495","21.3","88.3","0.0","0.0"],
    [1522136,"2026-05-29 23:20:00","68633","0.23800000000000002","123.1","0.8490000000000001","122.2","1020.375","21.28","88.9","0.0","0.0"],
    [1522137,"2026-05-29 23:30:00","68634","0.282","82.6","1.111","76.4","1020.346","21.3","89.3","0.0","0.0"],
    [1522138,"2026-05-29 23:40:00","68635","0.7170000000000001","82.5","1.307","85.7","1020.338","21.25","89.5","0.0","0.0"],
    [1522139,"2026-05-29 23:50:00","68636","0.207","49.82","0.8490000000000001","88.5","1020.393","21.27","89.4","0.0","0.0"],
    [1522140,"2026-05-30 00:00:00","68637","0.8170000000000001","49.26","1.209","61.4","1020.443","21.19","89.6","0.0","0.0"],
    [1522141,"2026-05-30 00:10:00","68638","0.815","36.76","1.209","56.2","1020.391","21.22","89.8","0.0","0.0"],
    [1522142,"2026-05-30 00:20:00","68639","0.77","15.45","1.176","23.71","1020.287","21.19","90.0","0.0","0.0"],
    [1522143,"2026-05-30 00:30:00","68640","0.65","30.7","1.013","31.13","1020.13","21.25","90.0","0.0","0.0"],
    [1522144,"2026-05-30 00:40:00","68641","0.726","51.16","1.535","58.47","1019.975","21.22","90.0","0.0","0.0"],
    [1522145,"2026-05-30 00:50:00","68642","1.538","49.03","2.025","54.81","1019.892","21.29","90.1","0.0","0.0"],
    [1522146,"2026-05-30 01:00:00","68643","1.182","31.15","1.5030000000000001","28.7","1019.847","21.23","90.6","0.0","0.0"],
    [1522147,"2026-05-30 01:10:00","68644","0.7979999999999999","26.01","1.307","37.07","1019.757","21.17","91.0","0.0","0.0"],
    [1522148,"2026-05-30 01:20:00","68645","0.425","31.8","1.143","8.06","1019.77","21.14","91.1","0.0","0.0"],
    [1522149,"2026-05-30 01:30:00","68646","0.41700000000000004","85.3","0.6859999999999999","98.5","1019.752","21.16","91.3","0.0","0.0"],
    [1522150,"2026-05-30 01:40:00","68647","0.491","96.5","0.882","96.8","1019.79","21.12","91.8","0.0","0.0"],
    [1522151,"2026-05-30 01:50:00","68648","0.0","0.0","0.0","0.0","1019.742","20.99","92.1","0.0","0.0"],
    [1522152,"2026-05-30 02:00:00","68649","0.0","0.0","0.0","0.0","1019.687","21.0","92.4","0.0","0.0"],
    [1522153,"2026-05-30 02:10:00","68650","0.0","0.0","0.0","0.0","1019.665","20.98","92.8","0.0","0.0"],
    [1522154,"2026-05-30 02:20:00","68651","0.35","269.7","0.653","266.3","1019.71","21.0","92.8","0.0","0.0"],
    [1522155,"2026-05-30 02:30:00","68652","0.085","258.8","0.555","259.5","1019.741","20.83","91.9","0.0","0.0"],
    [1522156,"2026-05-30 02:40:00","68653","0.36200000000000004","172.8","1.078","175.5","1019.759","20.76","91.0","0.0","0.0"],
    [1522157,"2026-05-30 02:50:00","68654","0.779","179.4","1.078","172.2","1019.766","20.9","91.1","0.0","0.0"],
    [1522158,"2026-05-30 03:00:00","68655","0.627","191.3","1.045","182.5","1019.725","20.73","92.1","0.0","0.0"],
    [1522159,"2026-05-30 03:10:00","68656","0.7759999999999999","190.9","1.176","202.8","1019.614","20.68","91.9","0.0","0.0"],
    [1522160,"2026-05-30 03:20:00","68657","1.1179999999999999","170.9","1.535","173.9","1019.583","20.68","90.8","0.0","0.0"],
    [1522161,"2026-05-30 03:30:00","68658","1.271","168.9","1.47","173.4","1019.511","20.96","91.6","0.0","0.0"],
    [1522162,"2026-05-30 03:40:00","68659","1.193","165.5","1.47","167.3","1019.536","20.63","91.3","0.0","0.0"],
    [1522163,"2026-05-30 03:50:00","68660","1.495","149.5","1.9269999999999998","150.5","1019.591","20.65","91.0","0.0","0.0"],
    [1522164,"2026-05-30 04:00:00","68661","1.013","151.4","1.699","159.6","1019.571","20.84","90.3","0.0","0.0"],
    [1522165,"2026-05-30 04:10:00","68662","0.7829999999999999","128.7","1.045","107.5","1019.525","21.07","91.5","0.0","0.0"],
    [1522166,"2026-05-30 04:20:00","68663","0.8859999999999999","109.4","1.339","102.3","1019.552","21.12","92.7","0.0","0.0"],
    [1522167,"2026-05-30 04:30:00","68664","0.0","0.0","0.0","0.0","1019.551","21.15","93.2","0.0","0.0"],
    [1522168,"2026-05-30 04:40:00","68665","0.166","32.06","0.588","26.5","1019.509","21.01","93.6","0.0","0.0"],
    [1522169,"2026-05-30 04:50:00","68666","0.71","56.7","1.535","69.26","1019.522","21.09","94.1","10.04","0.0"],
    [1522170,"2026-05-30 05:00:00","68667","1.258","76.68","1.699","72.76","1019.598","21.14","94.4","34.5","0.0"],
    [1522171,"2026-05-30 05:10:00","68668","1.348","73.13","2.417","103.1","1019.678","21.06","94.7","65.58","0.0"],
    [1522172,"2026-05-30 05:20:00","68669","1.376","64.61","1.96","63.92","1019.775","21.04","94.9","67.09","0.0"],
    [1522173,"2026-05-30 05:30:00","68670","1.6969999999999998","31.95","2.8089999999999997","42.98","1019.848","20.96","94.8","116.2","0.0"],
    [1522174,"2026-05-30 05:40:00","68671","2.285","28.98","3.201","43.66","1019.944","20.61","94.5","134.2","0.0"],
    [1522175,"2026-05-30 05:50:00","68672","2.456","28.66","3.005","31.1","1019.973","20.58","91.7","146.1","0.0"],
    [1522176,"2026-05-30 06:00:00","68673","2.645","35.67","3.332","39.09","1019.974","21.0","89.6","174.5","0.0"],
    [1522177,"2026-05-30 06:10:00","68674","3.198","29.32","3.7889999999999997","29.83","1020.012","21.0","90.5","200.7","0.0"],
    [1522178,"2026-05-30 06:20:00","68675","3.03","29.22","3.463","28.16","1020.059","20.94","92.8","218.6","0.0"],
    [1522179,"2026-05-30 06:30:00","68676","3.1489999999999996","29.98","3.7239999999999998","27.63","1020.036","20.97","93.0","158.8","0.0"],
    [1522180,"2026-05-30 06:40:00","68677","3.0860000000000003","28.27","3.659","31.37","1020.116","20.93","92.7","232.7","0.0"],
    [1522181,"2026-05-30 06:50:00","68678","2.6189999999999998","23.77","3.7569999999999997","27.43","1020.292","20.91","92.4","280.4","0.0"],
    [1522182,"2026-05-30 07:00:00","68679","3.279","29.04","4.051","30.69","1020.38","20.89","91.9","306.1","0.0"],
    [1522183,"2026-05-30 07:10:00","68680","2.7289999999999996","29.74","3.9530000000000003","25.97","1020.464","20.71","92.2","399.7","0.0"],
    [1522184,"2026-05-30 07:20:00","68681","2.233","15.49","2.7769999999999997","19.22","1020.468","20.76","91.8","421.0","0.0"],
    [1522185,"2026-05-30 07:30:00","68682","2.136","35.99","2.613","47.86","1020.518","20.86","90.9","435.9","0.0"],
    [1522186,"2026-05-30 07:40:00","68683","2.411","42.73","3.103","48.79","1020.613","20.95","90.2","477.3","0.0"],
    [1522187,"2026-05-30 07:50:00","68684","2.229","41.88","3.43","49.79","1020.687","21.03","88.8","500.0","0.0"],
    [1522188,"2026-05-30 08:00:00","68685","2.076","37.96","2.8089999999999997","49.97","1020.711","21.29","86.4","524.2","0.0"],
    [1522189,"2026-05-30 08:10:00","68686","1.788","50.84","2.6460000000000004","33.07","1020.71","21.46","85.9","570.0","0.0"],
    [1522190,"2026-05-30 08:20:00","68687","1.148","81.5","2.8089999999999997","101.5","1020.682","21.69","86.5","579.6","0.0"],
    [1522191,"2026-05-30 08:30:00","68688","1.3980000000000001","63.75","2.548","88.3","1020.688","21.73","86.9","632.9","0.0"],
    [1522192,"2026-05-30 08:40:00","68689","1.528","83.4","3.463","94.1","1020.688","21.72","87.3","637.0","0.0"],
    [1522193,"2026-05-30 08:50:00","68690","2.149","89.6","3.1689999999999996","105.3","1020.701","21.66","88.1","684.2","0.0"],
    [1522194,"2026-05-30 09:00:00","68691","2.182","90.7","3.1689999999999996","93.0","1020.696","21.57","89.2","704.0","0.0"],
    [1522195,"2026-05-30 09:10:00","68692","2.258","92.7","3.365","90.1","1020.722","21.6","89.7","716.9","0.0"],
    [1522196,"2026-05-30 09:20:00","68693","2.359","82.9","3.267","83.8","1020.774","21.64","89.5","767.5","0.0"],
    [1522197,"2026-05-30 09:30:00","68694","2.628","91.8","3.92","93.5","1020.762","21.64","88.5","769.1","0.0"],
    [1522198,"2026-05-30 09:40:00","68695","2.713","91.1","3.463","92.7","1020.758","21.78","85.5","786.5","0.0"],
    [1522199,"2026-05-30 09:50:00","68696","3.07","93.6","3.6910000000000003","94.0","1020.795","21.88","83.9","838.0","0.0"],
    [1522200,"2026-05-30 10:00:00","68697","2.82","95.0","3.7569999999999997","96.5","1020.78","21.93","84.5","831.0","0.0"],
    [1522201,"2026-05-30 10:10:00","68698","2.9139999999999997","101.3","3.855","106.7","1020.772","21.93","83.9","838.0","0.0"],
    [1522202,"2026-05-30 10:20:00","68699","2.766","98.4","3.593","97.4","1020.801","22.01","83.7","851.0","0.0"],
    [1522203,"2026-05-30 10:30:00","68700","2.923","102.2","4.1160000000000005","105.7","1020.787","22.02","83.0","901.0","0.0"],
    [1522204,"2026-05-30 10:40:00","68701","2.906","101.2","4.377","92.9","1020.792","22.02","82.9","905.0","0.0"],
    [1522205,"2026-05-30 10:50:00","68702","3.076","102.3","3.92","107.3","1020.721","22.12","82.2","905.0","0.0"],
    [1522206,"2026-05-30 11:00:00","68703","3.17","102.7","3.887","108.2","1020.68","22.08","82.7","893.0","0.0"],
    [1522207,"2026-05-30 11:10:00","68704","3.076","99.2","3.985","95.9","1020.573","22.09","83.6","906.0","0.0"],
    [1522208,"2026-05-30 11:20:00","68705","2.969","104.3","4.181","100.4","1020.497","22.09","83.7","934.0","0.0"],
    [1522209,"2026-05-30 11:30:00","68706","3.437","101.7","4.508","98.4","1020.412","22.08","83.4","917.0","0.0"],
    [1522210,"2026-05-30 11:40:00","68707","3.214","97.9","4.4430000000000005","105.1","1020.387","22.1","83.3","963.0","0.0"],
    [1522211,"2026-05-30 11:50:00","68708","3.435","103.8","4.606","110.6","1020.423","22.16","82.6","966.0","0.0"],
    [1522212,"2026-05-30 12:00:00","68709","3.214","103.4","4.279","91.5","1020.36","22.16","81.9","970.0","0.0"],
    [1522213,"2026-05-30 12:10:00","68710","2.9789999999999996","94.1","4.573","106.7","1020.243","22.2","81.9","969.0","0.0"],
    [1522214,"2026-05-30 12:20:00","68711","2.957","87.7","3.855","103.3","1020.17","22.12","82.4","916.0","0.0"],
    [1522215,"2026-05-30 12:30:00","68712","2.905","88.1","3.985","96.3","1020.063","22.14","83.0","918.0","0.0"],
    [1522216,"2026-05-30 12:40:00","68713","2.305","90.8","3.6260000000000003","104.7","1019.974","22.21","82.6","907.0","0.0"],
    [1522217,"2026-05-30 12:50:00","68714","2.699","92.1","3.5610000000000004","99.1","1019.873","22.19","83.2","906.0","0.0"],
    [1522218,"2026-05-30 13:00:00","68715","2.978","92.1","4.312","92.7","1019.823","22.18","83.1","893.0","0.0"],
    [1522219,"2026-05-30 13:10:00","68716","2.843","99.3","4.083","102.1","1019.761","22.14","83.9","902.0","0.0"],
    [1522220,"2026-05-30 13:20:00","68717","2.802","94.4","3.822","106.0","1019.655","22.14","83.7","903.0","0.0"],
    [1522221,"2026-05-30 13:30:00","68718","2.9410000000000003","94.5","3.7569999999999997","94.3","1019.532","22.15","83.7","903.0","0.0"],
    [1522222,"2026-05-30 13:40:00","68719","2.763","94.2","3.6910000000000003","90.0","1019.544","22.18","83.5","870.0","0.0"],
    [1522223,"2026-05-30 13:50:00","68720","2.949","89.2","3.6910000000000003","90.5","1019.536","22.2","83.1","847.0","0.0"],
    [1522224,"2026-05-30 14:00:00","68721","2.7769999999999997","96.0","3.7889999999999997","82.5","1019.482","22.24","82.3","838.0","0.0"],
    [1522225,"2026-05-30 14:10:00","68722","2.7680000000000002","87.9","3.7889999999999997","102.2","1019.351","22.28","82.5","708.5","0.0"],
    [1522226,"2026-05-30 14:20:00","68723","2.066","89.4","3.397","108.0","1019.357","22.35","81.8","640.1","0.0"],
    [1522227,"2026-05-30 14:30:00","68724","2.162","68.39","3.234","41.32","1019.352","22.47","81.1","612.8","0.0"],
    [1522228,"2026-05-30 14:40:00","68725","2.6289999999999996","40.74","4.1160000000000005","27.59","1019.375","22.49","80.5","644.8","0.0"],
    [1522229,"2026-05-30 14:50:00","68726","2.917","41.14","4.2139999999999995","34.29","1019.373","22.49","80.5","516.9","0.0"],
    [1522230,"2026-05-30 15:00:00","68727","2.815","45.56","3.855","41.17","1019.343","22.52","81.2","516.4","0.0"],
    [1522231,"2026-05-30 15:10:00","68728","2.04","41.39","3.822","31.35","1019.306","22.49","81.2","424.8","0.0"],
    [1522232,"2026-05-30 15:20:00","68729","2.02","56.35","4.181","50.76","1019.339","22.56","80.9","295.9","0.0"],
    [1522233,"2026-05-30 15:30:00","68730","2.761","58.01","3.7889999999999997","57.38","1019.364","22.4","81.7","268.2","0.0"],
    [1522234,"2026-05-30 15:40:00","68731","2.705","51.68","3.528","36.98","1019.244","22.37","81.9","268.2","0.0"],
    [1522235,"2026-05-30 15:50:00","68732","2.685","61.87","3.7239999999999998","55.8","1019.183","22.32","82.3","271.3","0.0"],
    [1522236,"2026-05-30 16:00:00","68733","2.614","70.06","3.528","69.66","1019.046","22.31","81.7","290.6","0.0"],
    [1522237,"2026-05-30 16:10:00","68734","2.4219999999999997","66.99","3.1689999999999996","77.36","1018.954","22.35","80.7","244.0","0.0"],
    [1522238,"2026-05-30 16:20:00","68735","2.3080000000000003","64.79","3.0380000000000003","75.69","1019.005","22.37","81.0","201.2","0.0"],
    [1522239,"2026-05-30 16:30:00","68736","1.993","55.79","2.94","36.03","1019.073","22.32","82.0","195.7","0.0"],
    [1522240,"2026-05-30 16:40:00","68737","2.075","81.5","2.7439999999999998","97.5","1018.956","22.31","81.2","157.3","0.0"],
    [1522241,"2026-05-30 16:50:00","68738","1.8219999999999998","78.21","2.842","82.2","1018.766","22.35","81.8","134.1","0.0"],
    [1522242,"2026-05-30 17:00:00","68739","2.231","80.3","2.907","67.7","1018.702","22.28","82.1","134.1","0.0"],
    [1522243,"2026-05-30 17:10:00","68740","2.0140000000000002","63.11","3.005","71.13","1018.827","22.31","82.2","134.1","0.0"],
    [1522244,"2026-05-30 17:20:00","68741","2.0","51.93","2.7110000000000003","47.72","1018.912","22.25","82.5","134.1","0.0"],
    [1522245,"2026-05-30 17:30:00","68742","2.26","38.85","2.907","29.58","1018.909","22.27","82.2","127.1","0.0"],
    [1522246,"2026-05-30 17:40:00","68743","1.966","51.02","2.6460000000000004","57.55","1018.883","22.23","81.9","85.9","0.0"],
    [1522247,"2026-05-30 17:50:00","68744","1.9569999999999999","45.39","2.7769999999999997","45.07","1018.946","22.25","81.5","67.07","0.0"],
    [1522248,"2026-05-30 18:00:00","68745","1.7719999999999998","48.27","2.7769999999999997","45.07","1018.967","22.31","81.3","67.07","0.0"],
    [1522249,"2026-05-30 18:10:00","68746","1.7280000000000002","37.92","2.385","29.73","1019.051","22.25","81.3","67.07","0.0"],
    [1522250,"2026-05-30 18:20:00","68747","1.6119999999999999","45.17","2.352","55.28","1019.126","22.27","80.9","61.96","0.0"],
    [1522251,"2026-05-30 18:30:00","68748","2.531","37.51","3.593","44.2","1019.239","22.31","80.7","33.71","0.0"],
    [1522252,"2026-05-30 18:40:00","68749","2.021","32.89","3.332","45.39","1019.386","22.28","81.5","14.37","0.0"],
    [1522253,"2026-05-30 18:50:00","68750","1.037","33.06","1.895","50.61","1019.411","22.19","81.8","0.0","0.0"],
    [1522254,"2026-05-30 19:00:00","68751","0.785","14.99","1.176","21.54","1019.504","22.15","81.4","0.0","0.0"],
    [1522255,"2026-05-30 19:10:00","68752","0.19399999999999998","11.28","0.555","354.8","1019.511","22.18","80.8","0.0","0.0"],
    [1522256,"2026-05-30 19:20:00","68753","0.35600000000000004","64.69","0.621","65.71","1019.509","22.23","80.0","0.0","0.0"],
    [1522257,"2026-05-30 19:30:00","68754","0.588","133.8","1.209","128.7","1019.454","22.24","79.9","0.0","0.0"],
    [1522258,"2026-05-30 19:40:00","68755","1.2429999999999999","132.1","1.535","137.7","1019.336","22.26","80.2","0.0","0.0"],
    [1522259,"2026-05-30 19:50:00","68756","0.9570000000000001","148.3","1.405","151.1","1019.253","22.2","81.1","0.0","0.0"],
    [1522260,"2026-05-30 20:00:00","68757","0.366","169.1","1.176","145.6","1019.271","22.12","81.5","0.0","0.0"],
    [1522261,"2026-05-30 20:10:00","68758","0.956","185.5","1.307","185.3","1019.328","22.17","80.2","0.0","0.0"],
    [1522262,"2026-05-30 20:20:00","68759","1.4069999999999998","156.2","1.9269999999999998","157.6","1019.36","22.23","79.84","0.0","0.0"],
    [1522263,"2026-05-30 20:30:00","68760","1.829","171.6","2.319","164.6","1019.303","22.1","81.4","0.0","0.0"],
    [1522264,"2026-05-30 20:40:00","68761","0.654","203.8","1.307","182.8","1019.403","22.02","81.8","0.0","0.0"],
    [1522265,"2026-05-30 20:50:00","68762","0.6729999999999999","169.1","1.111","173.3","1019.466","22.07","81.5","0.0","0.0"],
    [1522266,"2026-05-30 21:00:00","68763","1.6019999999999999","187.5","2.287","182.6","1019.497","22.07","81.9","0.0","0.0"],
    [1522267,"2026-05-30 21:10:00","68764","2.031","187.5","2.613","180.2","1019.57","21.99","82.1","0.0","0.0"],
    [1522268,"2026-05-30 21:20:00","68765","2.01","192.1","2.679","197.5","1019.545","21.86","82.2","0.0","0.0"],
    [1522269,"2026-05-30 21:30:00","68766","1.633","175.6","2.45","171.2","1019.423","22.14","79.7","0.0","0.0"],
    [1522270,"2026-05-30 21:40:00","68767","1.409","173.8","2.156","182.6","1019.455","21.98","82.3","0.0","0.0"],
    [1522271,"2026-05-30 21:50:00","68768","1.645","185.6","2.189","177.6","1019.315","21.9","84.0","0.0","0.0"],
    [1522272,"2026-05-30 22:00:00","68769","1.847","189.6","2.221","199.9","1019.246","21.84","85.4","0.0","0.0"],
    [1522273,"2026-05-30 22:10:00","68770","1.4869999999999999","187.6","1.895","175.7","1019.211","21.82","85.8","0.0","0.0"],
    [1522274,"2026-05-30 22:20:00","68771","1.247","201.1","1.797","180.1","1019.299","21.81","86.1","0.0","0.0"],
    [1522275,"2026-05-30 22:30:00","68772","1.176","180.9","1.7309999999999999","182.7","1019.305","21.93","85.1","0.0","0.0"],
    [1522276,"2026-05-30 22:40:00","68773","1.192","192.2","1.633","185.4","1019.282","21.89","85.6","0.0","0.0"],
    [1522277,"2026-05-30 22:50:00","68774","1.125","190.9","1.666","173.8","1019.162","21.97","85.0","0.0","0.0"],
    [1522278,"2026-05-30 23:00:00","68775","0.887","205.2","1.274","209.0","1019.067","21.99","84.7","0.0","0.0"],
    [1522279,"2026-05-30 23:10:00","68776","0.29","213.8","1.2409999999999999","262.1","1018.969","21.99","83.8","0.0","0.0"],
    [1522280,"2026-05-30 23:20:00","68777","1.12","254.4","1.764","261.1","1018.904","22.15","82.1","0.0","0.0"],
    [1522281,"2026-05-30 23:30:00","68778","1.087","264.5","1.895","282.5","1018.902","22.31","80.5","0.0","0.0"],
    [1522282,"2026-05-30 23:40:00","68779","0.873","257.3","1.666","260.1","1018.884","22.33","80.3","0.0","0.0"],
    [1522283,"2026-05-30 23:50:00","68780","0.322","252.4","1.209","257.0","1018.724","22.24","79.65","0.0","0.0"],
    [1522284,"2026-05-31 00:00:00","68781","0.364","263.0","0.8170000000000001","263.8","1018.644","22.24","79.1","0.0","0.0"],
    [1522285,"2026-05-31 00:10:00","68782","0.428","184.1","1.013","177.0","1018.51","22.22","80.0","0.0","0.0"],
    [1522286,"2026-05-31 00:20:00","68783","0.33799999999999997","240.1","0.882","262.1","1018.426","21.82","82.9","0.0","0.0"],
    [1522287,"2026-05-31 00:30:00","68784","0.927","248.5","1.666","255.5","1018.409","21.97","81.1","0.0","0.0"],
    [1522288,"2026-05-31 00:40:00","68785","0.726","245.9","1.699","255.6","1018.288","22.17","79.83","0.0","0.0"],
    [1522289,"2026-05-31 00:50:00","68786","0.523","262.8","1.176","260.1","1018.268","22.15","80.2","0.0","0.0"],
    [1522290,"2026-05-31 01:00:00","68787","0.561","240.9","1.633","268.8","1018.213","22.02","80.6","0.0","0.0"],
    [1522291,"2026-05-31 01:10:00","68788","0.376","271.7","1.2409999999999999","249.4","1018.165","21.84","79.47","0.0","0.0"],
    [1522292,"2026-05-31 01:20:00","68789","0.669","241.7","1.405","260.1","1018.2","21.65","74.21","0.0","0.0"],
    [1522293,"2026-05-31 01:30:00","68790","0.637","260.7","0.98","261.7","1018.213","21.73","70.24","0.0","0.0"],
    [1522294,"2026-05-31 01:40:00","68791","0.019","266.3","0.392","265.2","1018.095","21.7","69.67","0.0","0.0"],
    [1522295,"2026-05-31 01:50:00","68792","0.075","126.9","0.8490000000000001","130.2","1018.131","21.6","72.13","0.0","0.0"],
    [1522296,"2026-05-31 02:00:00","68793","0.183","187.1","0.588","170.0","1018.061","21.2","76.15","0.0","0.0"],
    [1522297,"2026-05-31 02:10:00","68794","0.302","263.7","1.405","267.3","1018.026","21.07","73.78","0.0","0.0"],
    [1522298,"2026-05-31 02:20:00","68795","1.6980000000000002","267.1","2.7769999999999997","264.9","1018.05","21.09","66.68","0.0","0.0"],
    [1522299,"2026-05-31 02:30:00","68796","1.6369999999999998","261.3","2.7769999999999997","264.0","1017.92","21.02","65.44","0.0","0.0"],
    [1522300,"2026-05-31 02:40:00","68797","2.342","261.6","3.103","263.8","1017.948","20.71","66.1","0.0","0.0"],
    [1522301,"2026-05-31 02:50:00","68798","2.438","263.8","3.136","264.6","1017.918","20.43","66.95","0.0","0.0"],
    [1522302,"2026-05-31 03:00:00","68799","2.356","265.1","3.136","264.6","1017.897","20.27","67.14","0.0","0.0"],
    [1522303,"2026-05-31 03:10:00","68800","2.301","265.3","2.7439999999999998","268.2","1017.902","20.25","66.77","0.0","0.0"],
    [1522304,"2026-05-31 03:20:00","68801","2.319","266.7","3.071","263.7","1017.873","20.34","66.03","0.0","0.0"],
    [1522305,"2026-05-31 03:30:00","68802","1.838","262.5","3.005","267.5","1017.88","20.43","65.27","0.0","0.0"],
    [1522306,"2026-05-31 03:40:00","68803","1.7080000000000002","268.2","2.221","266.0","1017.89","20.53","64.28","0.0","0.0"],
    [1522307,"2026-05-31 03:50:00","68804","1.535","264.5","2.613","252.4","1017.925","20.65","62.98","0.0","0.0"],
    [1522308,"2026-05-31 04:00:00","68805","1.216","270.1","1.993","265.7","1017.905","20.6","63.0","0.0","0.0"],
    [1522309,"2026-05-31 04:10:00","68806","0.158","263.8","0.882","264.1","1017.941","20.49","63.15","0.0","0.0"],
    [1522310,"2026-05-31 04:20:00","68807","0.0","0.0","0.0","0.0","1018.05","20.61","63.97","0.0","0.0"],
    [1522311,"2026-05-31 04:30:00","68808","0.0","0.0","0.0","0.0","1018.131","20.75","65.73","0.0","0.0"],
    [1522312,"2026-05-31 04:40:00","68809","0.0","0.0","0.0","0.0","1018.202","20.81","66.4","0.0","0.0"],
    [1522313,"2026-05-31 04:50:00","68810","0.0","0.0","0.0","0.0","1018.324","20.92","66.52","0.252","0.0"],
    [1522314,"2026-05-31 05:00:00","68811","0.308","144.6","0.8490000000000001","131.3","1018.393","20.9","68.47","51.95","0.0"],
    [1522315,"2026-05-31 05:10:00","68812","0.7290000000000001","45.1","1.9269999999999998","359.8","1018.46","20.91","67.88","55.44","0.0"],
    [1522316,"2026-05-31 05:20:00","68813","1.4240000000000002","10.7","2.221","22.61","1018.632","21.38","65.37","67.09","0.0"],
    [1522317,"2026-05-31 05:30:00","68814","2.173","15.18","3.6260000000000003","25.46","1018.704","21.45","65.69","116.9","0.0"],
    [1522318,"2026-05-31 05:40:00","68815","2.353","14.62","3.201","10.46","1018.719","21.54","65.2","134.2","0.0"],
    [1522319,"2026-05-31 05:50:00","68816","2.4419999999999997","25.84","3.365","30.52","1018.708","21.68","64.61","154.2","0.0"],
    [1522320,"2026-05-31 06:00:00","68817","3.162","29.46","3.855","28.32","1018.751","21.67","63.8","201.2","0.0"],
    [1522321,"2026-05-31 06:10:00","68818","2.603","23.27","3.365","25.96","1018.838","21.71","63.97","201.9","0.0"],
    [1522322,"2026-05-31 06:20:00","68819","2.9539999999999997","26.92","3.822","29.76","1018.786","21.75","65.86","265.7","0.0"],
    [1522323,"2026-05-31 06:30:00","68820","2.923","26.01","3.659","28.64","1018.811","21.78","66.15","268.3","0.0"],
    [1522324,"2026-05-31 06:40:00","68821","2.7319999999999998","26.96","3.6910000000000003","29.17","1018.879","21.82","68.15","326.7","0.0"],
    [1522325,"2026-05-31 06:50:00","68822","3.013","31.6","3.495","23.67","1018.855","21.91","69.58","335.6","0.0"],
    [1522326,"2026-05-31 07:00:00","68823","2.77","36.53","3.495","43.01","1018.84","21.94","69.95","395.2","0.0"],
    [1522327,"2026-05-31 07:10:00","68824","3.0039999999999996","44.53","3.6910000000000003","46.2","1018.893","21.9","71.7","402.5","0.0"],
    [1522328,"2026-05-31 07:20:00","68825","2.8960000000000004","44.39","3.299","45.67","1019.045","21.9","72.81","434.4","0.0"],
    [1522329,"2026-05-31 07:30:00","68826","2.841","45.94","3.1689999999999996","46.93","1019.095","21.92","74.86","437.7","0.0"],
    [1522330,"2026-05-31 07:40:00","68827","2.681","46.24","2.9730000000000003","42.7","1019.132","21.93","76.38","444.8","0.0"],
    [1522331,"2026-05-31 07:50:00","68828","2.346","49.05","2.7110000000000003","47.72","1019.124","22.09","76.14","502.9","0.0"],
    [1522332,"2026-05-31 08:00:00","68829","2.6189999999999998","45.61","3.234","50.05","1019.121","22.08","79.55","551.0","0.0"],
    [1522333,"2026-05-31 08:10:00","68830","2.877","48.05","3.43","54.18","1019.099","21.92","81.2","570.0","0.0"],
    [1522334,"2026-05-31 08:20:00","68831","2.577","50.56","3.495","47.07","1019.162","21.99","81.5","597.1","0.0"],
    [1522335,"2026-05-31 08:30:00","68832","2.471","43.25","3.5610000000000004","41.25","1019.22","22.01","81.8","637.0","0.0"],
    [1522336,"2026-05-31 08:40:00","68833","2.217","50.99","3.397","50.65","1019.195","22.13","80.9","637.3","0.0"],
    [1522337,"2026-05-31 08:50:00","68834","1.556","58.92","3.136","33.59","1019.145","22.34","79.64","694.2","0.0"],
    [1522338,"2026-05-31 09:00:00","68835","1.8530000000000002","86.2","2.8089999999999997","71.04","1019.147","22.5","78.61","704.0","0.0"],
    [1522339,"2026-05-31 09:10:00","68836","2.191","89.5","3.299","86.0","1019.164","22.43","78.77","710.5","0.0"],
    [1522340,"2026-05-31 09:20:00","68837","2.22","100.7","3.103","100.7","1019.157","22.44","79.09","770.1","0.0"],
    [1522341,"2026-05-31 09:30:00","68838","2.305","126.0","3.299","121.1","1019.188","22.6","79.95","771.0","0.0"],
    [1522342,"2026-05-31 09:40:00","68839","2.8369999999999997","139.8","3.6910000000000003","139.0","1019.131","22.52","82.4","777.4","0.0"],
    [1522343,"2026-05-31 09:50:00","68840","2.85","141.7","3.43","126.8","1019.127","22.46","83.2","834.0","0.0"],
    [1522344,"2026-05-31 10:00:00","68841","3.155","137.4","3.822","136.7","1019.116","22.47","83.0","838.0","0.0"],
    [1522345,"2026-05-31 10:10:00","68842","3.26","143.7","3.887","139.3","1019.098","22.51","82.4","838.0","0.0"],
    [1522346,"2026-05-31 10:20:00","68843","2.444","148.2","3.136","145.2","1019.123","22.55","82.1","840.0","0.0"],
    [1522347,"2026-05-31 10:30:00","68844","2.5540000000000003","149.5","3.397","153.7","1019.083","22.61","82.2","882.0","0.0"],
    [1522348,"2026-05-31 10:40:00","68845","2.39","149.8","2.94","142.7","1019.059","22.65","82.3","905.0","0.0"],
    [1522349,"2026-05-31 10:50:00","68846","2.379","149.2","3.0380000000000003","148.1","1019.074","22.73","82.2","905.0","0.0"],
    [1522350,"2026-05-31 11:00:00","68847","2.142","154.1","2.6460000000000004","149.0","1019.067","22.79","82.2","905.0","0.0"],
    [1522351,"2026-05-31 11:10:00","68848","2.6510000000000002","164.6","3.201","167.5","1019.023","22.78","82.0","905.0","0.0"],
    [1522352,"2026-05-31 11:20:00","68849","3.0380000000000003","162.9","3.6260000000000003","161.2","1019.003","22.74","82.3","905.0","0.0"],
    [1522353,"2026-05-31 11:30:00","68850","2.792","164.2","3.43","170.4","1018.914","22.75","82.4","905.0","0.0"],
    [1522354,"2026-05-31 11:40:00","68851","3.208","160.0","3.7889999999999997","158.0","1018.826","22.75","82.4","905.0","0.0"],
    [1522355,"2026-05-31 11:50:00","68852","3.182","157.1","3.6910000000000003","157.4","1018.746","22.76","81.5","906.0","0.0"],
    [1522356,"2026-05-31 12:00:00","68853","3.2680000000000002","155.5","3.9530000000000003","151.7","1018.656","22.85","81.6","907.0","0.0"],
    [1522357,"2026-05-31 12:10:00","68854","3.228","158.1","3.7889999999999997","160.2","1018.576","22.87","81.7","905.0","0.0"],
    [1522358,"2026-05-31 12:20:00","68855","2.9419999999999997","164.0","3.6260000000000003","165.0","1018.537","22.92","81.7","905.0","0.0"],
    [1522359,"2026-05-31 12:30:00","68856","3.194","159.1","3.855","165.2","1018.511","22.88","82.2","905.0","0.0"],
    [1522360,"2026-05-31 12:40:00","68857","3.468","159.5","3.985","158.9","1018.489","22.89","81.8","905.0","0.0"],
    [1522361,"2026-05-31 12:50:00","68858","3.4539999999999997","168.2","4.149","172.5","1018.371","22.89","82.0","905.0","0.0"],
    [1522362,"2026-05-31 13:00:00","68859","3.8710000000000004","169.0","4.377","168.5","1018.313","22.86","82.1","905.0","0.0"],
    [1522363,"2026-05-31 13:10:00","68860","4.0360000000000005","167.6","4.541","168.0","1018.223","22.91","81.6","905.0","0.0"],
    [1522364,"2026-05-31 13:20:00","68861","3.4930000000000003","166.3","4.1160000000000005","156.8","1018.209","22.85","82.9","880.0","0.0"],
    [1522365,"2026-05-31 13:30:00","68862","3.4130000000000003","167.3","4.1160000000000005","156.8","1018.167","22.87","82.8","860.0","0.0"],
    [1522366,"2026-05-31 13:40:00","68863","4.099","168.9","4.835","167.7","1018.078","22.92","82.6","837.0","0.0"],
    [1522367,"2026-05-31 13:50:00","68864","3.734","165.9","4.769","172.7","1018.021","22.99","82.4","817.0","0.0"],
    [1522368,"2026-05-31 14:00:00","68865","3.715","167.4","4.279","168.0","1018.063","22.96","83.0","799.4","0.0"],
    [1522369,"2026-05-31 14:10:00","68866","3.605","167.1","4.149","170.6","1018.048","22.94","82.9","764.9","0.0"],
    [1522370,"2026-05-31 14:20:00","68867","3.363","164.5","3.9530000000000003","167.0","1017.947","22.93","82.9","745.6","0.0"],
    [1522371,"2026-05-31 14:30:00","68868","3.27","163.1","3.985","164.2","1017.939","23.02","82.7","677.5","0.0"],
    [1522372,"2026-05-31 14:40:00","68869","3.3539999999999996","161.9","4.377","166.1","1017.887","22.97","83.3","674.1","0.0"],
    [1522373,"2026-05-31 14:50:00","68870","3.832","163.8","4.4430000000000005","155.1","1017.736","22.98","83.4","572.3","0.0"],
    [1522374,"2026-05-31 15:00:00","68871","3.54","165.5","4.312","165.4","1017.723","22.9","83.6","445.2","0.0"],
    [1522375,"2026-05-31 15:10:00","68872","3.2560000000000002","166.7","3.7239999999999998","167.0","1017.715","22.93","83.5","381.6","0.0"],
    [1522376,"2026-05-31 15:20:00","68873","3.073","167.3","4.1160000000000005","164.4","1017.709","22.96","83.3","476.3","0.0"],
    [1522377,"2026-05-31 15:30:00","68874","2.65","165.7","3.1689999999999996","168.1","1017.744","23.02","83.3","524.9","0.0"],
    [1522378,"2026-05-31 15:40:00","68875","2.467","166.6","3.1689999999999996","165.4","1017.729","23.05","82.9","413.9","0.0"],
    [1522379,"2026-05-31 15:50:00","68876","2.772","166.0","3.201","161.8","1017.687","23.08","83.1","405.7","0.0"],
    [1522380,"2026-05-31 16:00:00","68877","2.9389999999999996","170.0","3.528","172.7","1017.65","23.06","83.0","339.1","0.0"],
    [1522381,"2026-05-31 16:10:00","68878","2.806","168.7","3.299","176.2","1017.65","23.03","83.5","252.2","0.0"],
    [1522382,"2026-05-31 16:20:00","68879","2.855","184.9","3.6910000000000003","195.3","1017.565","23.01","83.7","201.1","0.0"],
    [1522383,"2026-05-31 16:30:00","68880","2.65","176.7","3.7239999999999998","190.8","1017.601","23.02","83.6","201.1","0.0"],
    [1522384,"2026-05-31 16:40:00","68881","2.334","169.5","2.9730000000000003","185.1","1017.553","23.07","83.2","201.1","0.0"],
    [1522385,"2026-05-31 16:50:00","68882","2.568","182.0","3.463","178.7","1017.551","23.05","83.8","197.6","0.0"],
    [1522386,"2026-05-31 17:00:00","68883","3.5460000000000003","173.3","4.247","170.2","1017.481","22.94","84.3","146.8","0.0"],
    [1522387,"2026-05-31 17:10:00","68884","3.398","176.4","4.573","174.0","1017.582","22.93","84.7","134.1","0.0"],
    [1522388,"2026-05-31 17:20:00","68885","3.509","186.0","4.41","173.4","1017.487","22.94","83.1","134.1","0.0"],
    [1522389,"2026-05-31 17:30:00","68886","3.15","194.8","4.279","188.5","1017.548","23.34","79.98","112.8","0.0"],
    [1522390,"2026-05-31 17:40:00","68887","3.2510000000000003","188.6","4.541","196.9","1017.54","23.32","80.2","75.66","0.0"],
    [1522391,"2026-05-31 17:50:00","68888","3.342","192.4","4.4430000000000005","200.6","1017.498","23.32","78.93","67.06","0.0"],
    [1522392,"2026-05-31 18:00:00","68889","3.1010000000000004","179.8","4.312","192.4","1017.401","23.25","81.2","67.06","0.0"],
    [1522393,"2026-05-31 18:10:00","68890","3.096","183.8","3.985","175.6","1017.371","22.93","83.9","67.06","0.0"],
    [1522394,"2026-05-31 18:20:00","68891","3.045","175.3","3.6910000000000003","170.0","1017.509","22.8","85.0","67.06","0.0"],
    [1522395,"2026-05-31 18:30:00","68892","3.042","170.6","3.5610000000000004","173.6","1017.584","22.69","85.9","44.93","0.0"],
    [1522396,"2026-05-31 18:40:00","68893","3.741","181.0","4.541","192.2","1017.427","22.62","86.3","9.3","0.0"],
    [1522397,"2026-05-31 18:50:00","68894","3.38","178.7","4.247","195.8","1017.44","22.74","85.9","0.0","0.0"],
    [1522398,"2026-05-31 19:00:00","68895","2.813","184.0","3.659","178.8","1017.457","22.7","86.3","0.0","0.0"],
    [1522399,"2026-05-31 19:10:00","68896","2.591","187.6","3.365","194.5","1017.446","22.74","86.2","0.0","0.0"],
    [1522400,"2026-05-31 19:20:00","68897","2.6210000000000004","177.3","3.43","194.9","1017.371","22.78","85.9","0.0","0.0"],
    [1522401,"2026-05-31 19:30:00","68898","2.241","166.4","2.679","169.5","1017.404","22.62","87.4","0.0","0.0"],
    [1522402,"2026-05-31 19:40:00","68899","2.1390000000000002","159.0","2.45","155.4","1017.37","22.59","87.9","0.0","0.0"],
    [1522403,"2026-05-31 19:50:00","68900","2.2119999999999997","176.9","3.005","173.7","1017.293","22.68","87.2","0.0","0.0"],
    [1522404,"2026-05-31 20:00:00","68901","2.004","192.8","2.7110000000000003","198.6","1017.235","22.71","87.4","0.0","0.0"],
    [1522405,"2026-05-31 20:10:00","68902","1.93","178.9","2.613","184.7","1017.398","22.71","87.6","0.0","0.0"],
    [1522406,"2026-05-31 20:20:00","68903","1.713","149.4","2.221","144.3","1017.517","22.73","87.5","0.0","0.0"],
    [1522407,"2026-05-31 20:30:00","68904","2.792","152.2","3.332","151.4","1017.311","22.74","87.5","0.0","0.0"],
    [1522408,"2026-05-31 20:40:00","68905","1.736","146.2","2.254","160.7","1017.503","22.68","88.3","0.0","0.0"],
    [1522409,"2026-05-31 20:50:00","68906","1.8519999999999999","146.9","2.417","152.8","1017.574","22.67","88.5","0.0","0.0"],
    [1522410,"2026-05-31 21:00:00","68907","0.9990000000000001","118.9","2.0580000000000003","145.3","1017.857","22.7","88.6","0.0","0.0"],
    [1522411,"2026-05-31 21:10:00","68908","1.614","153.0","2.123","155.4","1017.774","22.73","88.0","0.0","0.0"],
    [1522412,"2026-05-31 21:20:00","68909","1.666","149.4","2.123","153.3","1017.753","22.73","88.2","0.0","0.0"],
    [1522413,"2026-05-31 21:30:00","68910","1.0390000000000001","129.6","1.568","134.3","1017.803","22.68","88.4","0.0","0.0"],
    [1522414,"2026-05-31 21:40:00","68911","0.9470000000000001","114.5","1.274","131.4","1017.76","22.74","88.1","0.0","0.0"],
    [1522415,"2026-05-31 21:50:00","68912","0.785","91.3","1.4369999999999998","98.7","1017.825","22.79","87.6","0.0","0.0"],
    [1522416,"2026-05-31 22:00:00","68913","0.764","92.9","1.535","93.7","1017.852","22.83","87.7","0.0","0.0"],
    [1522417,"2026-05-31 22:10:00","68914","0.573","121.4","1.045","111.7","1017.867","22.83","88.1","0.0","0.0"],
    [1522418,"2026-05-31 22:20:00","68915","0.17800000000000002","112.7","0.8490000000000001","113.8","1017.882","22.77","88.5","0.0","0.0"],
    [1522419,"2026-05-31 22:30:00","68916","0.05","8.26","0.392","9.13","1017.984","22.66","88.8","0.0","0.0"],
    [1522420,"2026-05-31 22:40:00","68917","0.0","0.0","0.0","0.0","1017.967","22.55","89.4","0.0","0.0"],
    [1522421,"2026-05-31 22:50:00","68918","0.898","166.2","1.4369999999999998","189.6","1017.898","22.57","89.4","0.0","0.0"],
    [1522422,"2026-05-31 23:00:00","68919","1.3130000000000002","201.7","1.601","195.4","1017.911","22.53","89.0","0.0","0.0"],
    [1522423,"2026-05-31 23:10:00","68920","1.271","188.0","1.96","183.8","1017.916","22.56","88.3","0.0","0.0"],
    [1522424,"2026-05-31 23:20:00","68921","1.018","172.7","1.699","193.2","1017.873","22.61","88.2","0.0","0.0"],
    [1522425,"2026-05-31 23:30:00","68922","0.7","140.6","0.784","146.1","1017.911","22.54","88.8","0.0","0.0"],
    [1522426,"2026-05-31 23:40:00","68923","0.242","110.7","0.588","132.9","1017.916","22.5","89.0","0.0","0.0"],
    [1522427,"2026-05-31 23:50:00","68924","0.784","94.1","1.5030000000000001","96.1","1017.834","22.51","88.8","0.0","0.0"],
    [1522428,"2026-06-01 00:00:00","68925","1.415","79.66","1.8619999999999999","77.23","1017.738","22.55","88.9","0.0","0.0"],
    [1522429,"2026-06-01 00:10:00","68926","1.227","62.6","2.254","58.01","1017.61","22.51","89.4","0.0","0.0"],
    [1522430,"2026-06-01 00:20:00","68927","2.237","58.06","2.94","59.72","1017.514","22.46","90.4","0.0","0.0"],
    [1522431,"2026-06-01 00:30:00","68928","2.052","56.67","2.842","54.15","1017.495","22.39","90.9","0.0","0.0"],
    [1522432,"2026-06-01 00:40:00","68929","1.841","49.81","2.287","52.31","1017.542","22.36","90.9","0.0","0.0"],
    [1522433,"2026-06-01 00:50:00","68930","2.1180000000000003","36.43","2.7769999999999997","41.63","1017.642","22.28","91.0","0.0","0.0"],
    [1522434,"2026-06-01 01:00:00","68931","2.541","29.81","3.299","26.95","1017.706","22.22","91.3","0.0","0.0"],
    [1522435,"2026-06-01 01:10:00","68932","3.1010000000000004","30.82","3.7569999999999997","30.83","1017.696","22.22","91.4","0.0","0.0"],
    [1522436,"2026-06-01 01:20:00","68933","3.4530000000000003","30.91","4.475","28.49","1017.699","22.25","91.5","0.0","0.0"],
    [1522437,"2026-06-01 01:30:00","68934","4.087","31.75","4.638999999999999","32.05","1017.683","22.28","92.4","0.0","0.0"],
    [1522438,"2026-06-01 01:40:00","68935","3.452","35.43","4.4430000000000005","36.05","1017.626","22.22","92.9","0.0","0.0"],
    [1522439,"2026-06-01 01:50:00","68936","3.029","37.48","4.1160000000000005","31.05","1017.651","22.19","93.2","0.0","0.0"],
    [1522440,"2026-06-01 02:00:00","68937","3.8280000000000003","29.72","4.508","32.28","1017.693","22.18","93.4","0.0","0.0"],
    [1522441,"2026-06-01 02:10:00","68938","4.41","39.87","5.815","44.18","1017.658","21.81","91.1","0.0","0.0"],
    [1522442,"2026-06-01 02:20:00","68939","4.5","36.51","6.272","32.13","1017.62","22.05","86.2","0.0","0.0"],
    [1522443,"2026-06-01 02:30:00","68940","4.852","30.81","6.042999999999999","29.39","1017.549","22.09","87.3","0.0","0.0"],
    [1522444,"2026-06-01 02:40:00","68941","5.075","26.39","6.109","28.49","1017.497","21.98","88.1","0.0","0.0"],
    [1522445,"2026-06-01 02:50:00","68942","5.602","32.08","6.827000000000001","27.77","1017.424","21.97","88.3","0.0","0.0"],
    [1522446,"2026-06-01 03:00:00","68943","5.553","31.54","6.795","28.8","1017.378","21.97","88.8","0.0","0.0"],
    [1522447,"2026-06-01 03:10:00","68944","4.942","39.57","6.501","30.46","1017.391","22.05","89.2","0.0","0.0"],
    [1522448,"2026-06-01 03:20:00","68945","3.6660000000000004","64.04","5.129","76.35","1017.42","22.23","89.8","0.0","0.0"],
    [1522449,"2026-06-01 03:30:00","68946","3.92","73.5","5.455","76.47","1017.413","22.27","89.3","0.0","0.0"],
    [1522450,"2026-06-01 03:40:00","68947","3.733","72.77","4.965","63.46","1017.429","22.31","88.5","0.0","0.0"],
    [1522451,"2026-06-01 03:50:00","68948","3.565","61.67","5.553","59.87","1017.395","22.25","87.0","0.0","0.0"],
    [1522452,"2026-06-01 04:00:00","68949","4.093999999999999","47.26","5.194","42.9","1017.334","22.28","85.9","0.0","0.0"],
    [1522453,"2026-06-01 04:10:00","68950","3.877","38.11","4.965","41.78","1017.319","21.92","88.2","0.0","0.0"],
    [1522454,"2026-06-01 04:20:00","68951","3.8169999999999997","34.05","4.573","37.8","1017.356","21.82","88.0","0.0","0.0"],
    [1522455,"2026-06-01 04:30:00","68952","3.8789999999999996","29.68","4.573","31.51","1017.384","21.8","87.6","0.0","0.0"],
    [1522456,"2026-06-01 04:40:00","68953","3.6239999999999997","31.52","4.181","28.65","1017.395","21.79","87.2","0.0","0.0"],
    [1522457,"2026-06-01 04:50:00","68954","3.623","31.31","4.541","31.78","1017.444","21.81","87.1","0.084","0.0"],
    [1522458,"2026-06-01 05:00:00","68955","2.81","19.17","4.802","345.5","1017.51","21.81","87.1","18.42","0.0"],
    [1522459,"2026-06-01 05:10:00","68956","3.759","30.14","4.2139999999999995","31.14","1017.511","21.79","86.2","48.36","0.0"],
    [1522460,"2026-06-01 05:20:00","68957","3.694","31.23","4.312","35.97","1017.502","21.85","85.5","67.09","0.0"],
    [1522461,"2026-06-01 05:30:00","68958","3.718","28.55","4.312","32.1","1017.492","21.94","84.9","83.1","0.0"],
    [1522462,"2026-06-01 05:40:00","68959","3.531","32.27","4.345","30.82","1017.516","21.96","84.5","130.6","0.0"],
    [1522463,"2026-06-01 05:50:00","68960","3.552","30.07","4.018","33.42","1017.594","22.01","84.1","140.4","0.0"],
    [1522464,"2026-06-01 06:00:00","68961","3.185","27.43","3.855","36.29","1017.696","22.06","83.8","196.3","0.0"],
    [1522465,"2026-06-01 06:10:00","68962","3.428","29.18","4.051","29.02","1017.749","22.1","83.4","203.2","0.0"],
    [1522466,"2026-06-01 06:20:00","68963","3.1460000000000004","29.68","3.6910000000000003","26.31","1017.816","22.14","83.1","242.1","0.0"],
    [1522467,"2026-06-01 06:30:00","68964","2.483","24.33","3.365","29.53","1017.865","22.22","82.6","260.1","0.0"],
    [1522468,"2026-06-01 06:40:00","68965","2.123","36.47","3.103","29.03","1017.926","22.31","82.1","297.3","0.0"],
    [1522469,"2026-06-01 06:50:00","68966","2.092","46.9","3.234","28.91","1018.042","22.33","81.5","346.9","0.0"],
    [1522470,"2026-06-01 07:00:00","68967","1.786","46.98","2.45","55.27","1018.143","22.48","80.6","396.9","0.0"],
    [1522471,"2026-06-01 07:10:00","68968","1.743","43.44","2.385","38.82","1018.251","22.52","80.3","387.1","0.0"],
    [1522472,"2026-06-01 07:20:00","68969","1.383","45.95","2.221","73.46","1018.358","22.58","79.8","428.8","0.0"],
    [1522473,"2026-06-01 07:30:00","68970","1.28","31.88","1.666","47.14","1018.378","22.71","79.42","452.1","0.0"],
    [1522474,"2026-06-01 07:40:00","68971","0.569","43.36","1.3719999999999999","24.86","1018.405","22.9","79.26","440.4","0.0"],
    [1522475,"2026-06-01 07:50:00","68972","0.174","101.8","1.111","102.8","1018.398","23.72","76.88","463.3","0.0"],
    [1522476,"2026-06-01 08:00:00","68973","0.8740000000000001","141.4","1.666","142.2","1018.365","23.33","78.35","521.5","0.0"],
    [1522477,"2026-06-01 08:10:00","68974","1.551","152.0","3.0380000000000003","159.5","1018.41","23.07","78.75","501.1","0.0"],
    [1522478,"2026-06-01 08:20:00","68975","3.06","165.7","3.6260000000000003","167.2","1018.385","22.81","76.44","530.4","0.0"],
    [1522479,"2026-06-01 08:30:00","68976","2.861","174.9","3.7569999999999997","175.9","1018.398","22.94","75.89","590.2","0.0"],
    [1522480,"2026-06-01 08:40:00","68977","3.2319999999999998","172.6","4.541","161.1","1018.425","23.03","76.62","638.6","0.0"],
    [1522481,"2026-06-01 08:50:00","68978","3.187","175.1","4.018","168.7","1018.425","22.95","77.05","657.8","0.0"],
    [1522482,"2026-06-01 09:00:00","68979","3.177","179.9","4.018","175.2","1018.383","23.07","77.22","654.0","0.0"],
    [1522483,"2026-06-01 09:10:00","68980","3.2289999999999996","175.7","4.018","173.6","1018.32","23.03","76.14","716.5","0.0"],
    [1522484,"2026-06-01 09:20:00","68981","3.513","174.2","4.4430000000000005","172.4","1018.325","23.08","75.64","763.3","0.0"],
    [1522485,"2026-06-01 09:30:00","68982","3.443","185.2","4.704","196.0","1018.324","23.16","75.84","758.4","0.0"],
    [1522486,"2026-06-01 09:40:00","68983","3.6260000000000003","186.9","4.704","197.5","1018.301","23.28","74.85","791.8","0.0"],
    [1522487,"2026-06-01 09:50:00","68984","3.51","188.3","4.802","184.9","1018.315","23.31","75.24","838.0","0.0"],
    [1522488,"2026-06-01 10:00:00","68985","3.895","187.9","5.063","195.3","1018.291","23.42","75.33","851.0","0.0"],
    [1522489,"2026-06-01 10:10:00","68986","4.862","191.4","5.782","182.7","1018.219","23.33","76.53","843.0","0.0"],
    [1522490,"2026-06-01 10:20:00","68987","4.13","187.9","5.129","188.4","1018.189","23.31","76.96","895.0","0.0"],
    [1522491,"2026-06-01 10:30:00","68988","4.265","184.5","5.521","190.5","1018.196","23.38","76.33","917.0","0.0"],
    [1522492,"2026-06-01 10:40:00","68989","4.615","183.2","6.403","188.8","1018.142","23.44","76.18","907.0","0.0"],
    [1522493,"2026-06-01 10:50:00","68990","4.721","186.2","6.042999999999999","193.7","1018.067","23.36","76.66","907.0","0.0"],
    [1522494,"2026-06-01 11:00:00","68991","4.64","186.1","6.011","195.3","1018.002","23.46","74.76","905.0","0.0"],
    [1522495,"2026-06-01 11:10:00","68992","4.665","187.6","5.945","187.7","1017.888","23.53","74.33","905.0","0.0"],
    [1522496,"2026-06-01 11:20:00","68993","5.146","185.4","6.664","189.8","1017.793","23.56","72.71","906.0","0.0"],
    [1522497,"2026-06-01 11:30:00","68994","5.308","186.6","6.697","193.3","1017.764","23.56","73.49","911.0","0.0"],
    [1522498,"2026-06-01 11:40:00","68995","5.005","183.7","6.664","179.8","1017.694","23.73","73.33","927.0","0.0"],
    [1522499,"2026-06-01 11:50:00","68996","5.502999999999999","185.3","7.154","186.3","1017.613","23.74","72.78","962.0","0.0"],
    [1522500,"2026-06-01 12:00:00","68997","5.6579999999999995","186.6","7.709","191.5","1017.586","23.73","72.57","926.0","0.0"],
    [1522501,"2026-06-01 12:10:00","68998","6.313","187.1","8.2","189.2","1017.442","23.71","73.56","966.0","0.0"],
    [1522502,"2026-06-01 12:20:00","68999","6.266","185.8","8.17","191.9","1017.307","23.69","72.78","912.0","0.0"],
    [1522503,"2026-06-01 12:30:00","69000","5.7620000000000005","184.9","7.579","192.0","1017.187","23.76","70.86","905.0","0.0"],
    [1522504,"2026-06-01 12:40:00","69001","6.226","187.1","8.89","183.7","1017.033","23.74","72.09","905.0","0.0"],
    [1522505,"2026-06-01 12:50:00","69002","6.027","185.6","7.709","182.8","1016.923","23.76","71.95","897.0","0.0"],
    [1522506,"2026-06-01 13:00:00","69003","6.274","184.5","8.59","191.3","1016.828","23.74","73.03","849.0","0.0"],
    [1522507,"2026-06-01 13:10:00","69004","6.107","182.9","7.84","191.5","1016.744","23.76","70.7","904.0","0.0"],
    [1522508,"2026-06-01 13:20:00","69005","6.5329999999999995","183.3","8.23","164.8","1016.601","23.77","69.92","840.0","0.0"],
    [1522509,"2026-06-01 13:30:00","69006","6.521","182.3","8.43","191.6","1016.45","23.77","68.05","843.0","0.0"],
    [1522510,"2026-06-01 13:40:00","69007","6.374","182.6","8.13","176.4","1016.388","23.86","67.13","838.0","0.0"],
    [1522511,"2026-06-01 13:50:00","69008","6.415","178.4","8.69","173.7","1016.294","23.74","69.29","838.0","0.0"],
    [1522512,"2026-06-01 14:00:00","69009","5.597","184.0","7.187","175.2","1016.265","23.71","69.66","780.7","0.0"],
    [1522513,"2026-06-01 14:10:00","69010","6.121","179.4","8.23","173.1","1016.129","23.77","69.99","771.0","0.0"],
    [1522514,"2026-06-01 14:20:00","69011","6.319","186.8","8.4","190.2","1016.03","23.78","69.26","771.0","0.0"],
    [1522515,"2026-06-01 14:30:00","69012","5.609","187.7","7.938","195.1","1015.92","23.87","69.78","744.3","0.0"],
    [1522516,"2026-06-01 14:40:00","69013","6.306","189.4","9.15","188.3","1015.74","23.79","69.0","704.0","0.0"],
    [1522517,"2026-06-01 14:50:00","69014","6.457999999999999","188.1","8.69","186.0","1015.676","23.8","67.39","703.1","0.0"],
    [1522518,"2026-06-01 15:00:00","69015","6.207999999999999","187.2","8.56","190.2","1015.63","23.81","69.1","652.2","0.0"],
    [1522519,"2026-06-01 15:10:00","69016","6.227","187.3","8.4","189.0","1015.494","23.75","68.27","636.9","0.0"],
    [1522520,"2026-06-01 15:20:00","69017","6.141","187.2","8.4","191.2","1015.431","23.82","67.3","628.4","0.0"],
    [1522521,"2026-06-01 15:30:00","69018","5.632999999999999","185.6","7.513","191.0","1015.347","23.85","66.54","569.9","0.0"],
    [1522522,"2026-06-01 15:40:00","69019","5.615","187.1","8.0","191.3","1015.289","23.83","66.58","568.8","0.0"],
    [1522523,"2026-06-01 15:50:00","69020","5.702000000000001","188.3","8.69","193.9","1015.22","23.89","65.5","516.7","0.0"],
    [1522524,"2026-06-01 16:00:00","69021","5.939","188.0","7.35","183.3","1015.136","23.86","67.13","502.8","0.0"],
    [1522525,"2026-06-01 16:10:00","69022","5.744","186.4","7.84","191.7","1015.043","23.84","68.24","463.8","0.0"],
    [1522526,"2026-06-01 16:20:00","69023","5.7410000000000005","183.4","7.84","199.2","1014.882","23.8","68.32","435.7","0.0"],
    [1522527,"2026-06-01 16:30:00","69024","5.642","187.0","7.971","184.0","1014.769","23.66","69.81","418.8","0.0"],
    [1522528,"2026-06-01 16:40:00","69025","5.641","186.4","8.46","186.2","1014.639","23.71","69.55","402.3","0.0"],
    [1522529,"2026-06-01 16:50:00","69026","5.5920000000000005","185.0","7.611000000000001","190.0","1014.571","23.67","69.62","366.7","0.0"],
    [1522530,"2026-06-01 17:00:00","69027","5.574","193.4","7.611000000000001","190.0","1014.624","23.61","70.17","335.2","0.0"],
    [1522531,"2026-06-01 17:10:00","69028","4.955","202.8","7.35","212.0","1014.63","23.69","71.96","317.8","0.0"],
    [1522532,"2026-06-01 17:20:00","69029","4.814","199.8","7.218999999999999","199.8","1014.528","23.77","73.34","268.6","0.0"],
    [1522533,"2026-06-01 17:30:00","69030","4.82","200.2","8.07","194.1","1014.438","23.81","74.39","204.7","0.0"],
    [1522534,"2026-06-01 17:40:00","69031","4.9719999999999995","195.8","7.382999999999999","188.5","1014.374","23.51","74.32","147.2","0.0"],
    [1522535,"2026-06-01 17:50:00","69032","5.295","199.1","8.62","195.5","1014.366","23.64","72.17","148.8","0.0"],
    [1522536,"2026-06-01 18:00:00","69033","5.292000000000001","202.4","7.4479999999999995","203.5","1014.345","23.78","72.35","132.1","0.0"],
    [1522537,"2026-06-01 18:10:00","69034","5.247000000000001","201.7","7.546","216.5","1014.302","23.7","73.21","87.6","0.0"],
    [1522538,"2026-06-01 18:20:00","69035","5.209","197.3","7.35","201.1","1014.325","23.61","74.32","76.0","0.0"],
    [1522539,"2026-06-01 18:30:00","69036","5.0089999999999995","203.8","7.023","208.3","1014.337","23.58","74.6","69.46","0.0"],
    [1522540,"2026-06-01 18:40:00","69037","4.351","200.3","6.5329999999999995","206.5","1014.297","23.53","75.32","50.07","0.0"],
    [1522541,"2026-06-01 18:50:00","69038","3.707","194.7","5.684","203.5","1014.296","23.39","76.8","0.251","0.0"],
    [1522542,"2026-06-01 19:00:00","69039","4.497","201.3","5.847","205.1","1014.242","23.37","77.13","0.0","0.0"],
    [1522543,"2026-06-01 19:10:00","69040","4.351","203.0","5.782","208.1","1014.236","23.32","77.64","0.0","0.0"],
    [1522544,"2026-06-01 19:20:00","69041","4.506","197.2","6.337000000000001","200.8","1014.132","23.31","78.27","0.0","0.0"],
    [1522545,"2026-06-01 19:30:00","69042","3.845","191.9","5.292000000000001","202.0","1014.122","23.2","79.97","0.0","0.0"],
    [1522546,"2026-06-01 19:40:00","69043","3.5839999999999996","194.0","4.704","192.0","1014.211","23.12","80.8","0.0","0.0"],
    [1522547,"2026-06-01 19:50:00","69044","3.28","195.2","4.671","197.0","1014.298","23.15","80.4","0.0","0.0"],
    [1522548,"2026-06-01 20:00:00","69045","3.553","192.3","4.638999999999999","190.7","1014.313","23.13","80.8","0.0","0.0"],
    [1522549,"2026-06-01 20:10:00","69046","3.9410000000000003","189.8","5.031000000000001","185.6","1014.427","22.97","82.0","0.0","0.0"],
    [1522550,"2026-06-01 20:20:00","69047","3.5380000000000003","195.1","5.129","188.7","1014.693","23.05","81.1","0.0","0.0"],
    [1522551,"2026-06-01 20:30:00","69048","3.826","196.6","4.9","195.2","1014.812","23.16","80.5","0.0","0.0"],
    [1522552,"2026-06-01 20:40:00","69049","4.06","195.9","5.2589999999999995","198.2","1014.814","23.14","81.0","0.0","0.0"],
    [1522553,"2026-06-01 20:50:00","69050","3.859","191.5","5.227","198.0","1014.831","23.05","81.7","0.0","0.0"],
    [1522554,"2026-06-01 21:00:00","69051","3.554","195.5","4.9","193.5","1014.947","22.95","81.9","0.0","0.0"],
    [1522555,"2026-06-01 21:10:00","69052","4.14","190.0","5.357","193.2","1014.81","22.97","81.2","0.0","0.0"],
    [1522556,"2026-06-01 21:20:00","69053","3.877","191.7","4.867","191.2","1014.739","22.85","82.0","0.0","0.0"],
    [1522557,"2026-06-01 21:30:00","69054","3.205","196.2","4.671","198.9","1014.761","22.77","82.1","0.0","0.0"],
    [1522558,"2026-06-01 21:40:00","69055","3.478","200.7","4.998","203.1","1014.77","22.95","80.3","0.0","0.0"],
    [1522559,"2026-06-01 21:50:00","69056","3.3169999999999997","204.7","4.867","207.3","1014.732","23.01","79.93","0.0","0.0"],
    [1522560,"2026-06-01 22:00:00","69057","3.4589999999999996","202.0","5.031000000000001","212.1","1014.682","23.04","79.57","0.0","0.0"],
    [1522561,"2026-06-01 22:10:00","69058","3.428","196.1","4.802","196.8","1014.577","22.99","80.3","0.0","0.0"],
    [1522562,"2026-06-01 22:20:00","69059","3.2710000000000004","206.9","4.769","212.6","1014.546","22.97","80.4","0.0","0.0"],
    [1522563,"2026-06-01 22:30:00","69060","2.7489999999999997","209.3","4.051","204.0","1014.627","23.01","80.1","0.0","0.0"],
    [1522564,"2026-06-01 22:40:00","69061","2.432","214.2","4.247","225.1","1014.552","23.05","79.86","0.0","0.0"],
    [1522565,"2026-06-01 22:50:00","69062","1.9469999999999998","222.0","4.312","231.9","1014.53","23.09","79.81","0.0","0.0"],
    [1522566,"2026-06-01 23:00:00","69063","2.188","249.9","4.769","264.6","1014.577","23.1","79.68","0.0","0.0"],
    [1522567,"2026-06-01 23:10:00","69064","2.7969999999999997","253.4","4.475","249.7","1014.502","23.1","79.23","0.0","0.0"],
    [1522568,"2026-06-01 23:20:00","69065","1.8769999999999998","248.5","3.9530000000000003","274.2","1014.365","23.13","79.56","0.0","0.0"],
    [1522569,"2026-06-01 23:30:00","69066","1.905","244.6","3.201","265.6","1014.241","23.14","79.87","0.0","0.0"],
    [1522570,"2026-06-01 23:40:00","69067","1.713","244.7","2.8089999999999997","259.5","1014.182","23.09","80.3","0.0","0.0"],
    [1522571,"2026-06-01 23:50:00","69068","1.2690000000000001","234.3","2.875","265.6","1014.104","23.07","80.3","0.0","0.0"],
    [1522572,"2026-06-02 00:00:00","69069","1.2819999999999998","245.5","4.737","272.8","1014.036","23.03","80.7","0.0","0.0"],
    [1522573,"2026-06-02 00:10:00","69070","1.7469999999999999","252.9","3.463","260.2","1013.947","22.94","81.5","0.0","0.0"],
    [1522574,"2026-06-02 00:20:00","69071","1.984","258.5","3.7239999999999998","265.4","1013.883","22.91","81.8","0.0","0.0"],
    [1522575,"2026-06-02 00:30:00","69072","1.672","249.6","3.397","261.6","1013.927","22.9","81.9","0.0","0.0"],
    [1522576,"2026-06-02 00:40:00","69073","1.306","216.7","2.417","156.5","1013.664","22.93","81.9","0.0","0.0"],
    [1522577,"2026-06-02 00:50:00","69074","3.287","188.5","4.247","179.0","1013.312","22.59","84.1","0.0","0.0"],
    [1522578,"2026-06-02 01:00:00","69075","1.631","242.7","3.0380000000000003","237.3","1013.473","22.56","85.1","0.0","0.0"],
    [1522579,"2026-06-02 01:10:00","69076","1.6640000000000001","241.7","3.659","196.1","1013.367","22.7","84.1","0.0","0.0"],
    [1522580,"2026-06-02 01:20:00","69077","2.966","203.4","4.279","211.9","1013.203","22.62","83.6","0.0","0.0"],
    [1522581,"2026-06-02 01:30:00","69078","1.861","209.5","4.2139999999999995","207.4","1013.129","22.63","83.4","0.0","0.0"],
    [1522582,"2026-06-02 01:40:00","69079","1.3230000000000002","246.7","2.7439999999999998","288.8","1013.054","22.57","83.7","0.0","0.0"],
    [1522583,"2026-06-02 01:50:00","69080","1.5819999999999999","273.1","2.5810000000000004","263.7","1012.979","22.55","84.1","0.0","0.0"],
    [1522584,"2026-06-02 02:00:00","69081","1.867","291.7","2.483","284.4","1012.964","22.41","83.7","0.0","0.0"],
    [1522585,"2026-06-02 02:10:00","69082","1.663","284.6","2.352","284.3","1012.891","22.41","83.7","0.0","0.0"],
    [1522586,"2026-06-02 02:20:00","69083","1.46","270.3","2.515","272.6","1012.758","22.4","84.1","0.0","0.0"],
    [1522587,"2026-06-02 02:30:00","69084","1.611","263.6","2.417","269.3","1012.723","22.33","84.5","0.0","0.0"],
    [1522588,"2026-06-02 02:40:00","69085","1.683","271.1","2.679","266.3","1012.749","22.31","84.5","0.0","0.0"],
    [1522589,"2026-06-02 02:50:00","69086","1.54","265.3","2.417","263.8","1012.718","22.27","83.4","0.0","0.0"],
    [1522590,"2026-06-02 03:00:00","69087","1.35","257.7","3.071","262.8","1012.591","22.28","82.1","0.0","0.0"],
    [1522591,"2026-06-02 03:10:00","69088","1.524","240.6","2.7439999999999998","260.2","1012.489","22.3","81.9","0.0","0.0"],
    [1522592,"2026-06-02 03:20:00","69089","1.861","214.5","3.365","212.7","1012.361","22.31","82.8","0.0","0.0"],
    [1522593,"2026-06-02 03:30:00","69090","1.751","236.0","3.1689999999999996","245.8","1012.277","22.25","83.3","0.0","0.0"],
    [1522594,"2026-06-02 03:40:00","69091","1.61","228.8","2.907","264.4","1012.129","22.15","83.7","0.0","0.0"],
    [1522595,"2026-06-02 03:50:00","69092","1.115","243.1","1.96","248.2","1012.153","22.13","84.1","0.0","0.0"],
    [1522596,"2026-06-02 04:00:00","69093","2.024","277.8","3.267","284.4","1012.292","22.0","84.0","0.0","0.0"],
    [1522597,"2026-06-02 04:10:00","69094","2.01","269.6","3.136","266.1","1012.363","21.89","83.9","0.0","0.0"],
    [1522598,"2026-06-02 04:20:00","69095","0.768","247.5","1.339","276.1","1012.213","21.74","84.7","0.0","0.0"],
    [1522599,"2026-06-02 04:30:00","69096","1.028","250.3","2.0580000000000003","279.5","1012.219","21.84","85.3","0.0","0.0"],
    [1522600,"2026-06-02 04:40:00","69097","1.895","270.5","2.842","284.7","1012.446","21.78","84.9","0.28","0.0"],
    [1522601,"2026-06-02 04:50:00","69098","1.486","269.3","2.5810000000000004","263.6","1012.501","21.95","84.7","8.08","0.0"],
    [1522602,"2026-06-02 05:00:00","69099","0.804","252.4","1.797","287.8","1012.405","22.14","85.1","13.0","0.0"],
    [1522603,"2026-06-02 05:10:00","69100","0.547","233.3","1.764","237.5","1012.31","22.13","85.6","32.96","0.0"],
    [1522604,"2026-06-02 05:20:00","69101","0.757","241.9","1.764","247.5","1012.274","22.14","85.6","33.71","0.0"],
    [1522605,"2026-06-02 05:30:00","69102","0.912","227.3","1.601","264.9","1012.309","22.13","85.6","64.96","0.0"],
    [1522606,"2026-06-02 05:40:00","69103","0.434","227.5","1.601","264.6","1012.317","22.22","85.4","93.6","0.0"],
    [1522607,"2026-06-02 05:50:00","69104","0.657","232.6","2.189","268.2","1012.321","22.33","84.8","146.9","0.0"],
    [1522608,"2026-06-02 06:00:00","69105","0.65","248.2","1.764","269.4","1012.402","22.55","83.8","181.8","0.0"],
    [1522609,"2026-06-02 06:10:00","69106","1.089","259.3","2.025","267.7","1012.416","22.7","83.0","214.1","0.0"],
    [1522610,"2026-06-02 06:20:00","69107","1.3130000000000002","265.6","2.287","274.1","1012.381","22.81","82.5","186.6","0.0"],
    [1522611,"2026-06-02 06:30:00","69108","2.238","275.8","3.43","268.8","1012.337","22.76","82.7","194.0","0.0"],
    [1522612,"2026-06-02 06:40:00","69109","2.207","277.7","3.365","268.8","1012.316","22.78","82.7","219.5","0.0"],
    [1522613,"2026-06-02 06:50:00","69110","2.322","274.0","3.985","286.4","1012.325","22.87","82.0","233.3","0.0"],
    [1522614,"2026-06-02 07:00:00","69111","2.009","284.5","3.234","270.9","1012.404","23.0","81.0","227.4","0.0"],
    [1522615,"2026-06-02 07:10:00","69112","2.459","273.1","3.92","309.3","1012.455","23.08","80.3","205.1","0.0"],
    [1522616,"2026-06-02 07:20:00","69113","2.1790000000000003","290.4","3.6910000000000003","282.2","1012.473","23.22","78.44","299.6","0.0"],
    [1522617,"2026-06-02 07:30:00","69114","1.6119999999999999","272.9","3.855","259.9","1012.544","23.38","76.88","283.7","0.0"],
    [1522618,"2026-06-02 07:40:00","69115","1.6030000000000002","262.2","3.267","265.5","1012.482","23.52","75.3","305.8","0.0"],
    [1522619,"2026-06-02 07:50:00","69116","2.8569999999999998","211.5","4.769","219.4","1012.443","23.68","72.84","327.2","0.0"],
    [1522620,"2026-06-02 08:00:00","69117","1.575","236.9","2.875","292.8","1012.479","23.91","72.02","277.1","0.0"],
    [1522621,"2026-06-02 08:10:00","69118","2.523","178.4","3.332","175.1","1012.483","23.41","77.51","282.7","0.0"],
    [1522622,"2026-06-02 08:20:00","69119","3.525","172.8","4.377","166.7","1012.352","22.62","82.1","232.1","0.0"],
    [1522623,"2026-06-02 08:30:00","69120","3.522","173.4","4.573","171.8","1012.322","22.55","82.8","280.1","0.0"],
    [1522624,"2026-06-02 08:40:00","69121","4.044","177.5","5.031000000000001","185.3","1012.152","22.42","84.6","403.7","0.0"],
    [1522625,"2026-06-02 08:50:00","69122","4.416","180.7","5.2589999999999995","195.6","1012.091","22.73","83.8","422.1","0.0"],
    [1522626,"2026-06-02 09:00:00","69123","4.824","173.2","5.651","172.9","1012.098","22.41","86.9","468.0","0.0"],
    [1522627,"2026-06-02 09:10:00","69124","4.638","168.7","5.227","169.6","1012.1","22.36","88.5","606.7","0.0"],
    [1522628,"2026-06-02 09:20:00","69125","4.303","167.7","4.671","169.8","1012.134","22.31","89.5","534.2","0.0"],
    [1522629,"2026-06-02 09:30:00","69126","4.152","167.8","4.802","166.0","1012.225","22.38","89.3","600.4","0.0"],
    [1522630,"2026-06-02 09:40:00","69127","4.52","164.0","5.031000000000001","169.5","1012.31","22.51","89.0","718.4","0.0"],
    [1522631,"2026-06-02 09:50:00","69128","4.419","161.4","4.9","174.4","1012.313","22.66","88.1","768.8","0.0"],
    [1522632,"2026-06-02 10:00:00","69129","4.276","155.6","4.704","157.4","1012.272","22.74","87.8","684.5","0.0"],
    [1522633,"2026-06-02 10:10:00","69130","3.947","156.6","4.638999999999999","175.0","1012.38","22.74","87.9","793.1","0.0"],
    [1522634,"2026-06-02 10:20:00","69131","3.9139999999999997","158.5","4.41","152.1","1012.345","22.83","87.6","774.1","0.0"],
    [1522635,"2026-06-02 10:30:00","69132","4.052","160.2","4.835","162.9","1012.313","22.87","87.8","740.3","0.0"],
    [1522636,"2026-06-02 10:40:00","69133","4.8","163.6","5.292000000000001","160.0","1012.263","22.77","88.4","737.5","0.0"],
    [1522637,"2026-06-02 10:50:00","69134","4.667","166.3","6.011","160.3","1012.213","22.92","87.4","704.4","0.0"],
    [1522638,"2026-06-02 11:00:00","69135","4.4","164.9","4.769","166.5","1012.262","22.99","87.4","770.8","0.0"],
    [1522639,"2026-06-02 11:10:00","69136","3.984","168.3","5.063","165.8","1012.377","23.03","86.9","789.3","0.0"],
    [1522640,"2026-06-02 11:20:00","69137","4.447","170.6","5.815","174.2","1012.338","23.15","85.4","788.3","0.0"],
    [1522641,"2026-06-02 11:30:00","69138","4.402","171.1","5.619","174.0","1012.267","23.17","86.1","775.8","0.0"],
    [1522642,"2026-06-02 11:40:00","69139","4.359","171.3","5.619","181.0","1012.288","23.11","86.0","876.0","0.0"],
    [1522643,"2026-06-02 11:50:00","69140","3.992","168.9","4.933","170.7","1012.24","23.17","85.7","931.0","0.0"],
    [1522644,"2026-06-02 12:00:00","69141","4.163","165.3","4.541","163.9","1012.146","23.19","85.2","767.7","0.0"],
    [1522645,"2026-06-02 12:10:00","69142","4.136","167.8","4.508","165.8","1012.145","23.19","85.2","780.2","0.0"],
    [1522646,"2026-06-02 12:20:00","69143","4.353","164.9","4.802","165.5","1012.146","23.05","84.5","686.8","0.0"],
    [1522647,"2026-06-02 12:30:00","69144","4.452","165.2","4.867","170.0","1012.106","23.32","83.1","608.4","0.0"],
    [1522648,"2026-06-02 12:40:00","69145","4.415","167.7","5.325","176.7","1012.06","23.3","82.9","528.4","0.0"],
    [1522649,"2026-06-02 12:50:00","69146","4.353","167.3","4.965","170.5","1012.057","23.4","82.0","625.4","0.0"],
    [1522650,"2026-06-02 13:00:00","69147","4.177","165.4","4.835","167.0","1012.091","23.39","82.1","688.1","0.0"],
    [1522651,"2026-06-02 13:10:00","69148","4.1739999999999995","168.9","4.867","168.7","1012.106","23.42","81.0","572.0","0.0"],
    [1522652,"2026-06-02 13:20:00","69149","3.895","169.6","4.279","171.4","1012.047","23.52","81.2","693.9","0.0"],
    [1522653,"2026-06-02 13:30:00","69150","3.6630000000000003","167.8","4.149","172.2","1012.001","23.52","81.2","486.3","0.0"],
    [1522654,"2026-06-02 13:40:00","69151","3.7560000000000002","166.4","4.247","165.1","1012.061","23.36","82.5","402.3","0.0"],
    [1522655,"2026-06-02 13:50:00","69152","3.324","155.5","4.312","160.1","1012.057","23.53","80.4","391.3","0.0"],
    [1522656,"2026-06-02 14:00:00","69153","3.114","152.6","3.6910000000000003","143.0","1012.035","23.61","80.4","359.2","0.0"],
    [1522657,"2026-06-02 14:10:00","69154","3.0810000000000004","157.8","3.659","158.2","1011.98","23.58","80.5","515.7","0.0"],
    [1522658,"2026-06-02 14:20:00","69155","2.609","146.8","3.234","145.6","1012.067","23.67","79.1","418.2","0.0"],
    [1522659,"2026-06-02 14:30:00","69156","2.759","134.2","3.7239999999999998","121.4","1012.093","23.72","78.43","437.4","0.0"],
    [1522660,"2026-06-02 14:40:00","69157","2.63","115.7","3.43","111.6","1012.201","23.88","75.18","451.0","0.0"],
    [1522661,"2026-06-02 14:50:00","69158","3.0260000000000002","92.5","3.92","101.5","1012.198","23.98","74.9","627.7","0.0"],
    [1522662,"2026-06-02 15:00:00","69159","3.15","86.2","4.965","96.8","1012.218","24.01","76.02","624.7","0.0"],
    [1522663,"2026-06-02 15:10:00","69160","2.951","82.2","6.435","61.92","1012.251","23.89","77.74","492.8","0.0"],
    [1522664,"2026-06-02 15:20:00","69161","2.9139999999999997","82.3","5.782","87.4","1012.32","23.82","78.46","283.3","0.0"],
    [1522665,"2026-06-02 15:30:00","69162","3.153","50.5","5.684","40.86","1012.301","23.78","79.18","299.7","0.0"],
    [1522666,"2026-06-02 15:40:00","69163","2.662","56.56","4.835","44.38","1012.347","23.83","79.55","575.1","0.0"],
    [1522667,"2026-06-02 15:50:00","69164","3.355","42.26","5.619","42.84","1012.359","23.87","79.68","533.6","0.0"],
    [1522668,"2026-06-02 16:00:00","69165","3.775","42.37","6.337000000000001","34.02","1012.504","23.9","79.62","502.8","0.0"],
    [1522669,"2026-06-02 16:10:00","69166","4.207","44.33","7.056","38.15","1012.623","23.84","80.1","457.9","0.0"],
    [1522670,"2026-06-02 16:20:00","69167","4.115","49.23","6.795","24.99","1012.691","23.83","78.65","421.9","0.0"],
    [1522671,"2026-06-02 16:30:00","69168","6.126","57.77","9.38","75.93","1012.715","23.88","73.34","402.5","0.0"],
    [1522672,"2026-06-02 16:40:00","69169","5.9879999999999995","66.6","9.05","78.67","1012.806","23.79","73.74","402.3","0.0"],
    [1522673,"2026-06-02 16:50:00","69170","6.3260000000000005","71.07","8.46","76.6","1012.853","23.77","72.85","358.9","0.0"],
    [1522674,"2026-06-02 17:00:00","69171","5.277","77.27","7.938","71.07","1012.823","23.72","74.65","332.4","0.0"],
    [1522675,"2026-06-02 17:10:00","69172","5.071000000000001","80.7","7.971","86.9","1012.789","23.7","73.87","305.0","0.0"],
    [1522676,"2026-06-02 17:20:00","69173","5.53","83.8","7.611000000000001","85.0","1012.83","23.65","70.24","258.0","0.0"],
    [1522677,"2026-06-02 17:30:00","69174","5.343999999999999","88.3","7.415","92.7","1012.912","23.55","72.7","263.6","0.0"],
    [1522678,"2026-06-02 17:40:00","69175","5.322","91.4","6.9910000000000005","89.5","1013.044","23.4","72.14","144.2","0.0"],
    [1522679,"2026-06-02 17:50:00","69176","5.625","88.8","7.218999999999999","90.8","1013.037","23.42","70.75","138.9","0.0"],
    [1522680,"2026-06-02 18:00:00","69177","5.088","93.9","7.317","92.2","1013.097","23.33","70.72","134.1","0.0"],
    [1522681,"2026-06-02 18:10:00","69178","4.419","98.2","6.0760000000000005","102.8","1013.156","23.3","70.78","134.1","0.0"],
    [1522682,"2026-06-02 18:20:00","69179","4.591","94.3","6.403","100.8","1013.193","23.27","71.32","95.8","0.0"],
    [1522683,"2026-06-02 18:30:00","69180","4.518","95.4","6.207000000000001","90.5","1013.106","23.23","70.73","67.06","0.0"],
    [1522684,"2026-06-02 18:40:00","69181","4.52","103.0","6.0760000000000005","100.3","1013.171","23.18","71.18","67.06","0.0"],
    [1522685,"2026-06-02 18:50:00","69182","4.218","104.1","5.978","111.2","1013.3","23.15","71.36","22.07","0.0"],
    [1522686,"2026-06-02 19:00:00","69183","4.654","111.0","6.207000000000001","122.2","1013.27","23.08","71.23","0.0","0.0"],
    [1522687,"2026-06-02 19:10:00","69184","4.657","113.1","6.042999999999999","108.9","1013.317","22.98","72.16","0.0","0.0"],
    [1522688,"2026-06-02 19:20:00","69185","4.774","113.1","6.272","113.2","1013.437","22.89","74.09","0.0","0.0"],
    [1522689,"2026-06-02 19:30:00","69186","5.435","109.1","6.9910000000000005","106.7","1013.452","22.93","73.45","0.0","0.0"],
    [1522690,"2026-06-02 19:40:00","69187","4.821000000000001","104.7","6.435","109.7","1013.593","23.01","72.52","0.0","0.0"],
    [1522691,"2026-06-02 19:50:00","69188","4.868","102.0","6.403","109.5","1013.646","22.99","72.95","0.0","0.0"],
    [1522692,"2026-06-02 20:00:00","69189","3.93","99.4","5.031000000000001","90.9","1013.917","23.05","70.98","0.0","0.0"],
    [1522693,"2026-06-02 20:10:00","69190","3.642","98.5","4.508","98.8","1014.064","23.03","73.16","0.0","0.0"],
    [1522694,"2026-06-02 20:20:00","69191","2.763","99.8","4.083","99.2","1014.321","23.0","72.49","0.0","0.0"],
    [1522695,"2026-06-02 20:30:00","69192","3.0660000000000003","107.5","4.018","99.3","1014.519","22.96","69.19","0.0","0.0"],
    [1522696,"2026-06-02 20:40:00","69193","3.366","107.5","4.41","106.8","1014.717","23.05","66.1","0.0","0.0"],
    [1522697,"2026-06-02 20:50:00","69194","3.09","115.0","4.279","114.1","1014.909","23.03","66.06","0.0","0.0"],
    [1522698,"2026-06-02 21:00:00","69195","3.0389999999999997","133.4","4.083","124.2","1014.935","22.91","70.99","0.0","0.0"],
    [1522699,"2026-06-02 21:10:00","69196","3.569","138.4","4.41","138.3","1015.029","22.7","72.42","0.0","0.0"],
    [1522700,"2026-06-02 21:20:00","69197","3.383","151.0","4.606","153.2","1015.109","22.77","71.71","0.0","0.0"],
    [1522701,"2026-06-02 21:30:00","69198","3.7","157.4","4.475","157.6","1015.276","22.61","74.71","0.0","0.0"],
    [1522702,"2026-06-02 21:40:00","69199","2.924","156.5","3.6910000000000003","147.6","1015.412","22.6","72.32","0.0","0.0"],
    [1522703,"2026-06-02 21:50:00","69200","3.613","156.7","5.031000000000001","146.5","1015.406","22.57","71.26","0.0","0.0"],
    [1522704,"2026-06-02 22:00:00","69201","4.656000000000001","145.8","6.011","143.1","1015.381","22.55","69.4","0.0","0.0"],
    [1522705,"2026-06-02 22:10:00","69202","4.598","153.5","6.0760000000000005","145.1","1015.41","22.53","69.16","0.0","0.0"],
    [1522706,"2026-06-02 22:20:00","69203","4.381","159.8","5.455","153.1","1015.416","22.48","68.98","0.0","0.0"],
    [1522707,"2026-06-02 22:30:00","69204","4.593999999999999","162.0","5.357","167.7","1015.492","22.35","71.61","0.0","0.0"],
    [1522708,"2026-06-02 22:40:00","69205","5.341","161.8","6.599","160.5","1015.471","22.1","72.51","0.0","0.0"],
    [1522709,"2026-06-02 22:50:00","69206","4.831","172.0","5.815","175.9","1015.501","21.99","73.08","0.0","0.0"],
    [1522710,"2026-06-02 23:00:00","69207","4.596","170.7","5.651","160.4","1015.592","22.0","72.92","0.0","0.0"],
    [1522711,"2026-06-02 23:10:00","69208","5.104","165.4","5.978","161.7","1015.549","21.86","73.08","0.0","0.0"],
    [1522712,"2026-06-02 23:20:00","69209","4.773","173.3","5.815","167.6","1015.565","21.81","72.71","0.0","0.0"],
    [1522713,"2026-06-02 23:30:00","69210","4.588","169.5","5.749","168.5","1015.603","21.81","72.6","0.0","0.0"],
    [1522714,"2026-06-02 23:40:00","69211","4.926","173.6","5.847","172.8","1015.624","21.81","72.38","0.0","0.0"],
    [1522715,"2026-06-02 23:50:00","69212","5.08","169.0","5.978","176.6","1015.526","21.71","74.23","0.0","0.0"],
    [1522716,"2026-06-03 00:00:00","69213","4.603","166.2","5.782","162.9","1015.488","21.66","72.69","0.0","0.0"],
    [1522717,"2026-06-03 00:10:00","69214","3.6519999999999997","169.0","4.377","179.3","1015.523","21.68","73.76","0.0","0.0"],
    [1522718,"2026-06-03 00:20:00","69215","4.006","167.8","4.769","170.0","1015.536","21.6","74.44","0.0","0.0"],
    [1522719,"2026-06-03 00:30:00","69216","3.668","169.4","4.508","165.5","1015.513","21.61","73.2","0.0","0.0"],
    [1522720,"2026-06-03 00:40:00","69217","3.97","166.8","4.737","162.3","1015.476","21.63","71.48","0.0","0.0"],
    [1522721,"2026-06-03 00:50:00","69218","3.715","166.2","4.377","169.9","1015.507","21.69","68.46","0.0","0.0"],
    [1522722,"2026-06-03 01:00:00","69219","2.762","181.8","4.083","175.4","1015.603","21.76","68.16","0.0","0.0"],
    [1522723,"2026-06-03 01:10:00","69220","2.846","193.1","4.018","194.3","1015.732","21.69","68.79","0.0","0.0"],
    [1522724,"2026-06-03 01:20:00","69221","3.281","181.6","4.638999999999999","172.0","1015.779","21.69","68.81","0.0","0.0"],
    [1522725,"2026-06-03 01:30:00","69222","3.1239999999999997","186.0","4.149","173.5","1015.833","21.72","67.24","0.0","0.0"],
    [1522726,"2026-06-03 01:40:00","69223","2.403","202.7","3.7239999999999998","195.3","1015.886","21.69","65.97","0.0","0.0"],
    [1522727,"2026-06-03 01:50:00","69224","3.1439999999999997","196.7","4.083","192.5","1015.803","21.74","67.07","0.0","0.0"],
    [1522728,"2026-06-03 02:00:00","69225","2.753","202.4","4.018","196.6","1015.746","21.7","67.97","0.0","0.0"],
    [1522729,"2026-06-03 02:10:00","69226","2.313","208.8","3.463","215.2","1015.759","21.7","67.68","0.0","0.0"],
    [1522730,"2026-06-03 02:20:00","69227","3.214","204.3","4.541","203.3","1015.702","21.74","67.19","0.0","0.0"],
    [1522731,"2026-06-03 02:30:00","69228","4.356","199.0","6.337000000000001","195.6","1015.573","21.77","68.45","0.0","0.0"],
    [1522732,"2026-06-03 02:40:00","69229","4.774","189.3","6.1739999999999995","176.4","1015.481","21.65","69.36","0.0","0.0"],
    [1522733,"2026-06-03 02:50:00","69230","4.503","190.2","6.599","188.6","1015.562","21.73","67.01","0.0","0.0"],
    [1522734,"2026-06-03 03:00:00","69231","4.128","195.5","5.4879999999999995","194.9","1015.73","21.66","68.39","0.0","0.0"],
    [1522735,"2026-06-03 03:10:00","69232","3.3489999999999998","218.9","6.109","213.3","1015.899","21.56","63.1","0.0","0.0"],
    [1522736,"2026-06-03 03:20:00","69233","2.7939999999999996","231.6","4.965","240.9","1015.938","21.5","53.46","0.0","0.0"],
    [1522737,"2026-06-03 03:30:00","69234","2.687","225.0","4.541","218.1","1015.939","21.36","52.69","0.0","0.0"],
    [1522738,"2026-06-03 03:40:00","69235","2.102","235.6","3.7239999999999998","271.6","1016.017","21.21","53.72","0.0","0.0"],
    [1522739,"2026-06-03 03:50:00","69236","2.8680000000000003","236.8","5.194","216.0","1015.952","21.18","53.42","0.0","0.0"],
    [1522740,"2026-06-03 04:00:00","69237","4.08","292.7","6.729","279.3","1016.045","20.94","51.08","0.0","0.0"],
    [1522741,"2026-06-03 04:10:00","69238","3.552","289.7","5.912999999999999","298.0","1016.096","20.63","48.86","0.0","0.0"],
    [1522742,"2026-06-03 04:20:00","69239","3.452","287.9","5.553","282.9","1016.132","20.35","46.81","0.0","0.0"],
    [1522743,"2026-06-03 04:30:00","69240","4.045","291.4","7.187","304.1","1016.243","20.01","45.7","0.0","0.0"],
    [1522744,"2026-06-03 04:40:00","69241","4.842","299.6","7.579","323.4","1016.357","19.85","45.29","0.0","0.0"],
    [1522745,"2026-06-03 04:50:00","69242","3.762","310.0","6.729","310.7","1016.477","19.73","46.54","0.0","0.0"],
    [1522746,"2026-06-03 05:00:00","69243","4.121","312.3","5.7170000000000005","318.1","1016.579","19.63","46.56","28.74","0.0"],
    [1522747,"2026-06-03 05:10:00","69244","2.8","307.9","5.455","324.2","1016.653","19.6","46.28","61.01","0.0"],
    [1522748,"2026-06-03 05:20:00","69245","2.124","300.6","3.463","299.3","1016.644","19.65","45.84","38.47","0.0"],
    [1522749,"2026-06-03 05:30:00","69246","2.204","294.1","3.659","285.0","1016.676","19.63","45.69","51.25","0.0"],
    [1522750,"2026-06-03 05:40:00","69247","2.616","291.5","4.083","325.7","1016.729","19.59","45.38","139.1","0.0"],
    [1522751,"2026-06-03 05:50:00","69248","3.01","292.3","4.573","279.9","1016.779","19.61","45.15","201.3","0.0"],
    [1522752,"2026-06-03 06:00:00","69249","3.7680000000000002","289.8","5.651","304.4","1016.855","19.61","45.13","214.5","0.0"],
    [1522753,"2026-06-03 06:10:00","69250","4.312","292.6","6.141","294.0","1016.864","19.61","44.77","268.3","0.0"],
    [1522754,"2026-06-03 06:20:00","69251","3.965","284.8","5.782","274.1","1016.882","19.75","44.7","284.8","0.0"],
    [1522755,"2026-06-03 06:30:00","69252","3.4760000000000004","285.5","5.325","286.3","1016.856","19.83","44.55","335.4","0.0"],
    [1522756,"2026-06-03 06:40:00","69253","3.907","288.7","6.37","288.0","1016.875","19.9","44.66","347.1","0.0"],
    [1522757,"2026-06-03 06:50:00","69254","4.042","287.2","5.782","283.4","1016.936","20.0","44.09","402.3","0.0"],
    [1522758,"2026-06-03 07:00:00","69255","4.0","287.9","5.521","271.5","1017.002","20.19","43.64","410.2","0.0"],
    [1522759,"2026-06-03 07:10:00","69256","4.151","286.7","6.501","274.4","1017.092","20.35","43.01","435.9","0.0"],
    [1522760,"2026-06-03 07:20:00","69257","4.221","279.6","6.435","284.1","1017.084","20.53","42.31","442.3","0.0"],
    [1522761,"2026-06-03 07:30:00","69258","4.487","288.5","6.207000000000001","286.7","1017.223","20.51","42.2","497.9","0.0"],
    [1522762,"2026-06-03 07:40:00","69259","3.69","301.4","5.129","310.0","1017.368","20.6","42.58","504.6","0.0"],
    [1522763,"2026-06-03 07:50:00","69260","2.945","291.2","4.41","286.0","1017.535","20.87","41.89","558.6","0.0"],
    [1522764,"2026-06-03 08:00:00","69261","2.915","273.4","4.965","278.2","1017.621","21.22","41.33","570.0","0.0"],
    [1522765,"2026-06-03 08:10:00","69262","3.3310000000000004","281.4","4.9","273.2","1017.614","21.23","40.5","611.3","0.0"],
    [1522766,"2026-06-03 08:20:00","69263","2.388","279.4","4.247","294.4","1017.572","21.55","39.81","637.0","0.0"],
    [1522767,"2026-06-03 08:30:00","69264","2.363","295.1","4.345","287.1","1017.603","21.64","39.14","656.2","0.0"],
    [1522768,"2026-06-03 08:40:00","69265","0.991","299.4","2.254","320.2","1017.612","21.6","39.11","703.7","0.0"],
    [1522769,"2026-06-03 08:50:00","69266","1.912","161.6","3.397","154.5","1017.578","21.61","39.89","704.0","0.0"],
    [1522770,"2026-06-03 09:00:00","69267","3.475","159.0","4.998","154.4","1017.561","21.25","42.72","753.9","0.0"],
    [1522771,"2026-06-03 09:10:00","69268","4.4430000000000005","149.1","5.1610000000000005","154.3","1017.551","20.98","43.6","769.8","0.0"],
    [1522772,"2026-06-03 09:20:00","69269","4.066","145.5","4.867","148.4","1017.629","20.98","46.4","774.1","0.0"],
    [1522773,"2026-06-03 09:30:00","69270","5.2","157.4","6.37","157.8","1017.634","20.83","47.92","825.0","0.0"],
    [1522774,"2026-06-03 09:40:00","69271","4.882","157.0","6.207000000000001","155.3","1017.553","20.67","49.99","838.0","0.0"],
    [1522775,"2026-06-03 09:50:00","69272","5.7379999999999995","163.8","7.285","158.5","1017.558","20.65","50.78","838.0","0.0"],
    [1522776,"2026-06-03 10:00:00","69273","5.825","161.3","6.86","163.6","1017.636","20.58","51.97","856.0","0.0"],
    [1522777,"2026-06-03 10:10:00","69274","6.255","165.1","7.187","177.6","1017.717","20.49","53.4","905.0","0.0"],
    [1522778,"2026-06-03 10:20:00","69275","5.885","163.1","6.925","163.9","1017.74","20.36","55.32","905.0","0.0"],
    [1522779,"2026-06-03 10:30:00","69276","6.053","166.3","7.121","166.2","1017.755","20.34","54.27","905.0","0.0"],
    [1522780,"2026-06-03 10:40:00","69277","5.939","166.8","6.7620000000000005","162.9","1017.705","20.35","53.24","905.0","0.0"],
    [1522781,"2026-06-03 10:50:00","69278","5.2589999999999995","174.6","6.697","176.9","1017.729","20.4","54.16","913.0","0.0"],
    [1522782,"2026-06-03 11:00:00","69279","5.315","174.9","7.546","179.4","1017.745","20.39","54.76","956.0","0.0"],
    [1522783,"2026-06-03 11:10:00","69280","4.946000000000001","178.8","6.403","174.3","1017.811","20.49","51.21","972.0","0.0"],
    [1522784,"2026-06-03 11:20:00","69281","4.724","185.5","6.239","189.5","1017.808","20.5","51.06","970.0","0.0"],
    [1522785,"2026-06-03 11:30:00","69282","5.042","173.0","6.7620000000000005","173.3","1017.696","20.61","51.69","971.0","0.0"],
    [1522786,"2026-06-03 11:40:00","69283","4.912","178.3","6.207000000000001","178.9","1017.687","20.72","52.31","972.0","0.0"],
    [1522787,"2026-06-03 11:50:00","69284","5.142","178.4","6.893","175.4","1017.669","20.82","53.64","972.0","0.0"],
    [1522788,"2026-06-03 12:00:00","69285","5.545","179.0","6.697","191.2","1017.569","20.78","51.97","972.0","0.0"],
    [1522789,"2026-06-03 12:10:00","69286","5.4670000000000005","180.3","6.86","171.4","1017.387","20.86","52.17","972.0","0.0"],
    [1522790,"2026-06-03 12:20:00","69287","5.5120000000000005","183.6","7.0889999999999995","191.5","1017.219","20.95","52.7","969.0","0.0"],
    [1522791,"2026-06-03 12:30:00","69288","5.834","186.1","7.481","186.9","1017.116","20.93","53.58","972.0","0.0"],
    [1522792,"2026-06-03 12:40:00","69289","5.53","185.5","7.121","191.2","1017.08","20.98","54.53","968.0","0.0"],
    [1522793,"2026-06-03 12:50:00","69290","5.44","183.0","6.9910000000000005","181.6","1017.022","21.09","52.0","925.0","0.0"],
    [1522794,"2026-06-03 13:00:00","69291","6.026","181.5","7.611000000000001","187.1","1016.939","21.13","51.71","905.0","0.0"],
    [1522795,"2026-06-03 13:10:00","69292","5.6610000000000005","182.9","7.742000000000001","189.9","1016.915","21.19","51.8","905.0","0.0"],
    [1522796,"2026-06-03 13:20:00","69293","5.095","183.0","6.305","176.1","1016.821","21.16","53.91","905.0","0.0"],
    [1522797,"2026-06-03 13:30:00","69294","5.144","179.2","6.7620000000000005","169.8","1016.757","21.19","55.53","904.0","0.0"],
    [1522798,"2026-06-03 13:40:00","69295","5.462000000000001","178.4","7.023","175.7","1016.651","21.28","53.49","870.0","0.0"],
    [1522799,"2026-06-03 13:50:00","69296","5.539","171.4","6.729","170.2","1016.532","21.12","57.17","838.0","0.0"],
    [1522800,"2026-06-03 14:00:00","69297","4.796","167.2","5.7170000000000005","172.2","1016.409","21.1","56.01","838.0","0.0"],
    [1522801,"2026-06-03 14:10:00","69298","4.705","167.3","5.2589999999999995","168.1","1016.328","21.15","56.36","838.0","0.0"],
    [1522802,"2026-06-03 14:20:00","69299","5.263999999999999","171.3","6.272","171.9","1016.174","21.29","57.93","782.8","0.0"],
    [1522803,"2026-06-03 14:30:00","69300","5.077","174.3","6.1739999999999995","180.2","1016.087","21.41","57.02","771.2","0.0"],
    [1522804,"2026-06-03 14:40:00","69301","5.067","170.9","6.305","176.8","1016.109","21.53","53.54","761.2","0.0"],
    [1522805,"2026-06-03 14:50:00","69302","5.345","179.2","7.218999999999999","169.9","1016.149","21.95","51.69","705.2","0.0"],
    [1522806,"2026-06-03 15:00:00","69303","5.693","168.6","6.566","169.5","1015.942","21.73","55.51","704.1","0.0"],
    [1522807,"2026-06-03 15:10:00","69304","5.664","166.7","6.7620000000000005","166.1","1015.813","21.69","57.9","670.1","0.0"],
    [1522808,"2026-06-03 15:20:00","69305","5.693","177.1","7.154","166.0","1015.847","21.89","59.95","637.1","0.0"],
    [1522809,"2026-06-03 15:30:00","69306","5.871","190.8","9.54","193.8","1015.779","22.49","54.83","626.2","0.0"],
    [1522810,"2026-06-03 15:40:00","69307","6.029","185.8","8.72","203.0","1015.69","22.49","56.73","570.9","0.0"],
    [1522811,"2026-06-03 15:50:00","69308","5.837000000000001","184.9","7.971","199.3","1015.558","22.32","59.42","570.0","0.0"],
    [1522812,"2026-06-03 16:00:00","69309","6.355","184.5","9.83","185.3","1015.409","22.55","58.9","515.6","0.0"],
    [1522813,"2026-06-03 16:10:00","69310","6.518","199.5","10.94","195.5","1015.305","22.67","60.02","502.9","0.0"],
    [1522814,"2026-06-03 16:20:00","69311","5.992000000000001","209.5","9.93","208.4","1015.238","22.98","60.07","454.1","0.0"],
    [1522815,"2026-06-03 16:30:00","69312","6.194","205.7","10.03","213.1","1015.035","23.0","62.61","435.8","0.0"],
    [1522816,"2026-06-03 16:40:00","69313","6.103","209.7","10.06","201.8","1014.996","22.92","63.91","410.4","0.0"],
    [1522817,"2026-06-03 16:50:00","69314","5.393","212.1","8.98","193.5","1014.902","22.93","65.0","402.3","0.0"],
    [1522818,"2026-06-03 17:00:00","69315","6.062","211.4","10.09","203.1","1014.766","22.81","66.25","350.1","0.0"],
    [1522819,"2026-06-03 17:10:00","69316","5.6770000000000005","218.4","10.16","229.6","1014.69","22.89","65.59","335.2","0.0"],
    [1522820,"2026-06-03 17:20:00","69317","5.557","208.6","9.93","199.0","1014.599","22.8","67.04","275.3","0.0"],
    [1522821,"2026-06-03 17:30:00","69318","5.621","212.9","9.28","205.5","1014.693","22.8","66.02","268.0","0.0"],
    [1522822,"2026-06-03 17:40:00","69319","5.327000000000001","219.7","11.14","224.2","1014.846","22.82","64.3","207.0","0.0"],
    [1522823,"2026-06-03 17:50:00","69320","5.398","218.5","11.6","218.4","1014.885","22.69","63.08","201.1","0.0"],
    [1522824,"2026-06-03 18:00:00","69321","6.8839999999999995","208.0","10.36","199.0","1014.738","22.62","63.39","155.6","0.0"],
    [1522825,"2026-06-03 18:10:00","69322","5.5329999999999995","215.2","9.28","219.6","1014.744","22.54","64.15","134.1","0.0"],
    [1522826,"2026-06-03 18:20:00","69323","5.162999999999999","215.5","7.644","224.1","1014.796","22.53","64.16","120.2","0.0"],
    [1522827,"2026-06-03 18:30:00","69324","5.4079999999999995","208.9","10.19","206.5","1014.747","22.46","65.1","67.06","0.0"],
    [1522828,"2026-06-03 18:40:00","69325","6.034","204.7","9.96","201.6","1014.772","22.37","64.93","67.06","0.0"],
    [1522829,"2026-06-03 18:50:00","69326","5.3389999999999995","205.5","8.82","198.8","1014.763","22.34","66.13","58.28","0.0"],
    [1522830,"2026-06-03 19:00:00","69327","5.377000000000001","212.6","9.54","204.7","1014.738","22.32","66.35","6.426","0.0"],
    [1522831,"2026-06-03 19:10:00","69328","5.178999999999999","218.7","9.24","203.5","1014.691","22.21","66.89","0.0","0.0"],
    [1522832,"2026-06-03 19:20:00","69329","5.718","223.8","9.57","221.4","1014.789","22.2","67.08","0.0","0.0"],
    [1522833,"2026-06-03 19:30:00","69330","5.385","216.6","8.49","207.6","1014.856","22.11","68.64","0.0","0.0"],
    [1522834,"2026-06-03 19:40:00","69331","4.688","216.7","8.0","233.3","1014.983","22.06","69.84","0.0","0.0"],
    [1522835,"2026-06-03 19:50:00","69332","4.585","211.6","7.872999999999999","215.3","1015.019","21.98","70.03","0.0","0.0"],
    [1522836,"2026-06-03 20:00:00","69333","4.853","210.2","7.218999999999999","198.8","1015.145","21.9","71.04","0.0","0.0"],
    [1522837,"2026-06-03 20:10:00","69334","4.322","219.6","8.04","227.8","1015.286","21.88","72.36","0.0","0.0"],
    [1522838,"2026-06-03 20:20:00","69335","4.611000000000001","221.4","7.285","235.1","1015.571","21.95","72.96","0.0","0.0"],
    [1522839,"2026-06-03 20:30:00","69336","3.014","216.5","5.749","239.8","1015.658","22.02","73.63","0.0","0.0"],
    [1522840,"2026-06-03 20:40:00","69337","3.9730000000000003","200.5","6.141","194.9","1015.686","21.83","74.26","0.0","0.0"],
    [1522841,"2026-06-03 20:50:00","69338","4.7669999999999995","196.8","6.957999999999999","198.5","1015.524","21.75","74.92","0.0","0.0"],
    [1522842,"2026-06-03 21:00:00","69339","3.85","206.6","6.435","210.7","1015.523","21.74","75.14","0.0","0.0"],
    [1522843,"2026-06-03 21:10:00","69340","3.517","214.9","5.553","231.1","1015.473","21.83","75.11","0.0","0.0"],
    [1522844,"2026-06-03 21:20:00","69341","3.523","211.3","7.971","208.1","1015.485","21.83","75.55","0.0","0.0"],
    [1522845,"2026-06-03 21:30:00","69342","3.8489999999999998","206.3","6.141","204.1","1015.463","21.79","76.26","0.0","0.0"],
    [1522846,"2026-06-03 21:40:00","69343","3.714","212.5","5.4879999999999995","193.9","1015.466","21.78","76.78","0.0","0.0"],
    [1522847,"2026-06-03 21:50:00","69344","2.8489999999999998","212.4","4.737","189.3","1015.445","21.85","76.74","0.0","0.0"],
    [1522848,"2026-06-03 22:00:00","69345","2.589","213.4","3.985","215.9","1015.49","21.86","77.51","0.0","0.0"],
    [1522849,"2026-06-03 22:10:00","69346","3.944","225.0","6.664","218.4","1015.514","21.9","76.66","0.0","0.0"],
    [1522850,"2026-06-03 22:20:00","69347","3.403","212.7","5.88","213.0","1015.41","21.88","76.88","0.0","0.0"],
    [1522851,"2026-06-03 22:30:00","69348","3.468","211.5","6.141","220.7","1015.396","21.91","77.39","0.0","0.0"],
    [1522852,"2026-06-03 22:40:00","69349","3.015","215.0","5.945","230.4","1015.569","21.86","77.36","0.0","0.0"],
    [1522853,"2026-06-03 22:50:00","69350","3.1439999999999997","211.1","5.357","230.1","1015.597","21.83","77.93","0.0","0.0"],
    [1522854,"2026-06-03 23:00:00","69351","4.467","216.7","7.056","220.1","1015.503","21.76","78.44","0.0","0.0"],
    [1522855,"2026-06-03 23:10:00","69352","3.9010000000000002","216.0","7.187","225.4","1015.474","21.73","78.94","0.0","0.0"],
    [1522856,"2026-06-03 23:20:00","69353","3.054","221.8","5.455","202.6","1015.419","21.84","79.08","0.0","0.0"],
    [1522857,"2026-06-03 23:30:00","69354","3.273","216.9","5.357","226.8","1015.293","21.82","78.9","0.0","0.0"],
    [1522858,"2026-06-03 23:40:00","69355","3.576","215.4","6.435","225.1","1015.195","21.77","79.11","0.0","0.0"],
    [1522859,"2026-06-03 23:50:00","69356","3.677","214.6","6.141","227.0","1015.101","21.81","79.01","0.0","0.0"],
    [1522860,"2026-06-04 00:00:00","69357","3.0639999999999996","210.7","5.553","228.2","1014.994","21.76","78.68","0.0","0.0"],
    [1522861,"2026-06-04 00:10:00","69358","3.398","212.8","6.337000000000001","201.9","1014.991","21.8","78.29","0.0","0.0"],
    [1522862,"2026-06-04 00:20:00","69359","3.245","213.7","5.292000000000001","219.9","1015.018","21.81","78.71","0.0","0.0"],
    [1522863,"2026-06-04 00:30:00","69360","3.793","216.5","5.978","212.3","1015.016","21.83","78.57","0.0","0.0"],
    [1522864,"2026-06-04 00:40:00","69361","2.545","210.8","4.737","205.1","1014.89","21.84","78.66","0.0","0.0"],
    [1522865,"2026-06-04 00:50:00","69362","3.616","201.4","5.39","219.9","1014.664","21.79","78.84","0.0","0.0"],
    [1522866,"2026-06-04 01:00:00","69363","3.386","207.7","5.096","209.0","1014.562","21.79","79.29","0.0","0.0"],
    [1522867,"2026-06-04 01:10:00","69364","3.845","203.9","5.325","189.4","1014.413","21.71","80.3","0.0","0.0"],
    [1522868,"2026-06-04 01:20:00","69365","3.511","206.2","6.0760000000000005","203.0","1014.208","21.75","80.7","0.0","0.0"],
    [1522869,"2026-06-04 01:30:00","69366","4.205","198.5","6.042999999999999","200.1","1013.973","21.67","81.6","0.0","0.0"],
    [1522870,"2026-06-04 01:40:00","69367","2.414","216.7","4.345","191.7","1013.902","21.72","81.9","0.0","0.0"],
    [1522871,"2026-06-04 01:50:00","69368","3.093","201.1","5.7170000000000005","204.7","1013.682","21.72","82.7","0.0","0.0"],
    [1522872,"2026-06-04 02:00:00","69369","3.449","212.7","6.109","203.1","1013.539","21.64","82.5","0.0","0.0"],
    [1522873,"2026-06-04 02:10:00","69370","3.0210000000000004","211.9","5.521","207.4","1013.547","21.7","82.5","0.0","0.0"],
    [1522874,"2026-06-04 02:20:00","69371","2.454","217.6","4.573","234.0","1013.558","21.71","82.7","0.0","0.0"],
    [1522875,"2026-06-04 02:30:00","69372","3.0439999999999996","217.6","5.455","222.3","1013.559","21.68","82.5","0.0","0.0"],
    [1522876,"2026-06-04 02:40:00","69373","2.119","217.8","3.887","195.9","1013.468","21.66","82.5","0.0","0.0"],
    [1522877,"2026-06-04 02:50:00","69374","3.113","207.8","5.129","216.8","1013.4","21.63","82.0","0.0","0.0"],
    [1522878,"2026-06-04 03:00:00","69375","3.091","204.7","5.194","206.9","1013.194","21.52","82.8","0.0","0.0"],
    [1522879,"2026-06-04 03:10:00","69376","2.714","216.3","5.227","222.6","1013.141","21.55","82.9","0.0","0.0"],
    [1522880,"2026-06-04 03:20:00","69377","2.8110000000000004","205.0","4.377","192.7","1013.089","21.54","83.4","0.0","0.0"],
    [1522881,"2026-06-04 03:30:00","69378","3.147","207.1","4.769","202.1","1013.116","21.5","84.0","0.0","0.0"],
    [1522882,"2026-06-04 03:40:00","69379","3.392","202.5","4.933","202.3","1013.036","21.44","84.7","0.0","0.0"],
    [1522883,"2026-06-04 03:50:00","69380","2.885","202.3","4.018","225.1","1013.025","21.41","85.2","0.0","0.0"],
    [1522884,"2026-06-04 04:00:00","69381","2.62","201.8","4.018","192.1","1013.092","21.37","85.7","0.0","0.0"],
    [1522885,"2026-06-04 04:10:00","69382","2.7880000000000003","197.4","3.822","194.2","1013.151","21.34","86.0","0.0","0.0"],
    [1522886,"2026-06-04 04:20:00","69383","2.668","201.5","4.345","197.6","1013.187","21.33","86.4","0.0","0.0"],
    [1522887,"2026-06-04 04:30:00","69384","2.553","204.9","3.593","213.0","1013.193","21.39","86.0","0.0","0.0"],
    [1522888,"2026-06-04 04:40:00","69385","2.5810000000000004","212.9","3.822","223.1","1013.241","21.48","85.6","0.0","0.0"],
    [1522889,"2026-06-04 04:50:00","69386","2.909","199.6","4.149","216.1","1013.198","21.48","85.7","0.0","0.0"],
    [1522890,"2026-06-04 05:00:00","69387","2.64","201.4","4.083","196.4","1013.284","21.52","85.6","10.73","0.0"],
    [1522891,"2026-06-04 05:10:00","69388","3.307","199.5","4.9","199.2","1013.23","21.57","85.4","63.74","0.0"],
    [1522892,"2026-06-04 05:20:00","69389","3.215","202.7","4.638999999999999","206.7","1013.229","21.55","85.5","55.88","0.0"],
    [1522893,"2026-06-04 05:30:00","69390","2.6510000000000002","209.0","3.7569999999999997","216.0","1013.206","21.64","84.7","67.09","0.0"],
    [1522894,"2026-06-04 05:40:00","69391","2.306","236.0","4.312","224.1","1013.315","21.81","83.7","92.0","0.0"],
    [1522895,"2026-06-04 05:50:00","69392","2.525","215.8","4.247","229.2","1013.275","21.92","83.4","138.5","0.0"],
    [1522896,"2026-06-04 06:00:00","69393","2.6510000000000002","220.7","5.357","199.0","1013.312","21.94","83.1","144.2","0.0"],
    [1522897,"2026-06-04 06:10:00","69394","3.0239999999999996","212.8","5.521","209.3","1013.31","22.01","82.3","164.8","0.0"],
    [1522898,"2026-06-04 06:20:00","69395","4.0","198.6","5.586","202.2","1013.288","21.95","82.5","194.2","0.0"],
    [1522899,"2026-06-04 06:30:00","69396","3.915","196.4","5.651","194.8","1013.329","21.76","84.8","153.7","0.0"],
    [1522900,"2026-06-04 06:40:00","69397","4.288","199.8","6.109","202.7","1013.287","21.74","84.2","228.2","0.0"],
    [1522901,"2026-06-04 06:50:00","69398","3.773","205.6","5.945","208.2","1013.279","21.92","82.8","307.4","0.0"],
    [1522902,"2026-06-04 07:00:00","69399","4.4430000000000005","201.6","6.011","210.1","1013.232","22.07","81.3","366.7","0.0"],
    [1522903,"2026-06-04 07:10:00","69400","5.584","193.2","8.53","193.3","1013.055","21.98","82.5","437.1","0.0"],
    [1522904,"2026-06-04 07:20:00","69401","5.851","188.5","7.285","181.4","1012.983","21.88","83.0","515.9","0.0"],
    [1522905,"2026-06-04 07:30:00","69402","5.05","194.8","7.415","190.4","1012.956","21.86","83.4","446.9","0.0"],
    [1522906,"2026-06-04 07:40:00","69403","5.202000000000001","190.9","7.611000000000001","191.7","1012.907","21.9","82.7","481.3","0.0"],
    [1522907,"2026-06-04 07:50:00","69404","5.559","190.2","8.04","187.4","1012.798","21.94","81.7","534.5","0.0"],
    [1522908,"2026-06-04 08:00:00","69405","6.097","187.5","8.26","199.2","1012.666","21.83","81.7","555.0","0.0"],
    [1522909,"2026-06-04 08:10:00","69406","5.944","187.2","7.775","193.3","1012.562","21.83","82.5","621.7","0.0"],
    [1522910,"2026-06-04 08:20:00","69407","5.877999999999999","187.6","7.938","184.3","1012.555","21.79","82.5","670.9","0.0"],
    [1522911,"2026-06-04 08:30:00","69408","6.355","187.7","8.2","186.7","1012.505","21.85","81.5","600.9","0.0"],
    [1522912,"2026-06-04 08:40:00","69409","6.377999999999999","188.2","8.4","188.6","1012.406","21.84","80.9","679.2","0.0"],
    [1522913,"2026-06-04 08:50:00","69410","6.492000000000001","188.1","8.79","194.0","1012.35","21.82","80.5","712.5","0.0"],
    [1522914,"2026-06-04 09:00:00","69411","6.712000000000001","185.3","8.79","185.4","1012.282","21.9","80.2","740.6","0.0"],
    [1522915,"2026-06-04 09:10:00","69412","6.36","187.6","9.11","191.6","1012.255","22.0","79.58","626.0","0.0"],
    [1522916,"2026-06-04 09:20:00","69413","5.8629999999999995","187.2","8.33","187.9","1012.215","22.11","78.78","572.6","0.0"],
    [1522917,"2026-06-04 09:30:00","69414","6.44","184.4","8.66","191.8","1012.155","22.13","77.18","712.7","0.0"],
    [1522918,"2026-06-04 09:40:00","69415","6.6","186.6","8.59","183.3","1012.199","22.16","77.03","453.2","0.0"],
    [1522919,"2026-06-04 09:50:00","69416","6.14","188.9","8.3","193.9","1012.21","22.04","78.81","390.3","0.0"],
    [1522920,"2026-06-04 10:00:00","69417","6.827999999999999","190.8","8.72","192.3","1012.199","21.94","79.17","335.3","0.0"],
    [1522921,"2026-06-04 10:10:00","69418","6.694","190.2","8.98","189.7","1012.216","21.93","79.61","279.5","0.0"],
    [1522922,"2026-06-04 10:20:00","69419","6.461","190.5","9.28","192.0","1012.223","21.93","80.5","240.6","0.0"],
    [1522923,"2026-06-04 10:30:00","69420","6.603","186.6","8.75","191.4","1012.104","21.98","80.1","321.6","0.0"],
    [1522924,"2026-06-04 10:40:00","69421","6.0089999999999995","191.6","8.0","182.3","1012.101","22.01","81.1","326.1","0.0"],
    [1522925,"2026-06-04 10:50:00","69422","6.325","186.3","8.98","188.8","1011.936","22.05","81.2","772.6","0.0"],
    [1522926,"2026-06-04 11:00:00","69423","6.511","186.1","8.4","177.2","1011.849","22.12","81.4","742.7","0.0"],
    [1522927,"2026-06-04 11:10:00","69424","6.987","188.7","9.02","195.6","1011.776","22.06","81.8","584.9","0.0"],
    [1522928,"2026-06-04 11:20:00","69425","6.357","187.9","8.46","191.8","1011.719","22.09","81.8","402.7","0.0"],
    [1522929,"2026-06-04 11:30:00","69426","6.58","191.6","9.34","190.0","1011.726","22.04","82.2","272.5","0.0"],
    [1522930,"2026-06-04 11:40:00","69427","6.235","188.7","8.13","196.5","1011.694","22.08","82.2","230.3","0.0"],
    [1522931,"2026-06-04 11:50:00","69428","6.765","192.8","8.46","202.0","1011.685","22.18","81.7","213.5","0.0"],
    [1522932,"2026-06-04 12:00:00","69429","6.472","191.8","8.46","197.3","1011.693","22.18","82.1","184.7","0.0"],
    [1522933,"2026-06-04 12:10:00","69430","5.561","189.1","7.905","197.0","1011.674","22.22","82.4","128.8","0.0"],
    [1522934,"2026-06-04 12:20:00","69431","5.433","188.9","7.775","198.4","1011.593","22.14","83.2","95.7","0.0"],
    [1522935,"2026-06-04 12:30:00","69432","5.096","190.5","7.644","190.3","1011.539","22.13","83.1","94.6","0.0"],
    [1522936,"2026-06-04 12:40:00","69433","5.688","191.3","7.938","196.9","1011.384","22.1","83.3","122.2","0.0"],
    [1522937,"2026-06-04 12:50:00","69434","5.827000000000001","188.4","7.742000000000001","186.6","1011.22","22.05","83.6","129.5","0.0"],
    [1522938,"2026-06-04 13:00:00","69435","5.805","189.2","8.4","198.1","1011.108","22.07","83.5","213.6","0.0"],
    [1522939,"2026-06-04 13:10:00","69436","5.519","191.3","7.84","197.3","1011.037","22.14","83.1","334.3","0.0"],
    [1522940,"2026-06-04 13:20:00","69437","5.895","190.6","8.62","189.5","1011","22.13","83.3","237.7","0.0"],
    [1522941,"2026-06-04 13:30:00","69438","5.712999999999999","188.4","7.709","184.9","1010.976","22.16","83.2","164.6","0.0"],
    [1522942,"2026-06-04 13:40:00","69439","6.149","187.7","8.4","175.1","1010.896","22.18","83.3","203.0","0.0"],
    [1522943,"2026-06-04 13:50:00","69440","6.132000000000001","189.3","8.23","200.4","1010.732","22.16","83.2","324.1","0.0"],
    [1522944,"2026-06-04 14:00:00","69441","6.031000000000001","187.9","8.17","189.4","1010.633","22.2","83.4","269.2","0.0"],
    [1522945,"2026-06-04 14:10:00","69442","5.957999999999999","188.6","7.905","199.1","1010.631","22.11","83.9","215.4","0.0"],
    [1522946,"2026-06-04 14:20:00","69443","5.242999999999999","191.0","7.056","193.5","1010.668","22.12","84.2","134.1","0.0"],
    [1522947,"2026-06-04 14:30:00","69444","4.435","193.4","7.546","191.7","1010.635","22.3","83.3","155.9","0.0"],
    [1522948,"2026-06-04 14:40:00","69445","4.783","189.0","6.7620000000000005","189.7","1010.516","22.3","83.5","221.2","0.0"],
    [1522949,"2026-06-04 14:50:00","69446","6.1610000000000005","186.4","8.89","190.0","1010.32","22.25","83.6","330.5","0.0"],
    [1522950,"2026-06-04 15:00:00","69447","5.742999999999999","186.4","8.3","188.2","1010.112","22.22","83.6","325.9","0.0"],
    [1522951,"2026-06-04 15:10:00","69448","5.14","189.5","7.056","196.2","1010.156","22.07","85.2","276.7","0.0"],
    [1522952,"2026-06-04 15:20:00","69449","5.0680000000000005","189.6","6.86","192.2","1010.181","22.09","85.4","198.3","0.0"],
    [1522953,"2026-06-04 15:30:00","69450","5.51","188.6","7.0889999999999995","188.9","1010.012","22.09","85.4","226.8","0.0"],
    [1522954,"2026-06-04 15:40:00","69451","4.9430000000000005","188.6","6.729","191.7","1009.902","22.11","85.6","201.2","0.0"],
    [1522955,"2026-06-04 15:50:00","69452","3.924","185.3","5.651","187.3","1009.786","22.06","86.3","334.7","0.0"],
    [1522956,"2026-06-04 16:00:00","69453","3.272","183.0","4.508","173.1","1009.711","22.03","87.0","265.3","0.0"],
    [1522957,"2026-06-04 16:10:00","69454","3.196","184.3","4.508","193.7","1009.845","21.99","87.2","256.7","0.0"],
    [1522958,"2026-06-04 16:20:00","69455","3.965","180.3","5.651","179.2","1009.96","22.06","86.9","197.3","0.0"],
    [1522959,"2026-06-04 16:30:00","69456","3.888","180.4","5.096","177.4","1009.962","22.04","87.2","132.0","0.0"],
    [1522960,"2026-06-04 16:40:00","69457","3.319","183.7","5.4879999999999995","169.7","1010.046","22.0","87.5","67.62","0.0"],
    [1522961,"2026-06-04 16:50:00","69458","4.367","178.1","5.4879999999999995","169.7","1009.901","21.95","87.7","95.6","0.0"],
    [1522962,"2026-06-04 17:00:00","69459","4.093","188.4","5.292000000000001","191.8","1010.096","21.93","87.8","61.65","0.0"],
    [1522963,"2026-06-04 17:10:00","69460","3.907","186.7","5.651","180.1","1010.251","21.88","88.5","9.7","0.0"],
    [1522964,"2026-06-04 17:20:00","69461","3.824","186.8","5.88","190.5","1010.518","21.8","89.2","0.0","0.0"],
    [1522965,"2026-06-04 17:30:00","69462","3.806","185.3","4.867","192.9","1010.595","22.0","87.4","0.0","0.0"],
    [1522966,"2026-06-04 17:40:00","69463","4.082","171.5","4.933","166.4","1010.576","22.07","87.0","0.0","0.0"],
    [1522967,"2026-06-04 17:50:00","69464","3.0980000000000003","165.8","4.377","171.5","1010.657","21.97","87.1","0.0","0.0"],
    [1522968,"2026-06-04 18:00:00","69465","3.8819999999999997","150.9","4.867","156.7","1010.623","21.88","87.5","0.0","0.0"],
    [1522969,"2026-06-04 18:10:00","69466","4.412","158.0","5.847","171.7","1010.749","21.85","87.8","0.0","0.0"],
    [1522970,"2026-06-04 18:20:00","69467","5.122000000000001","159.7","5.945","173.1","1010.899","21.94","87.4","0.0","0.0"],
    [1522971,"2026-06-04 18:30:00","69468","5.446000000000001","157.4","6.207000000000001","150.8","1010.985","21.86","88.1","0.0","0.4"],
    [1522972,"2026-06-04 18:40:00","69469","5.985","153.7","7.872999999999999","159.2","1011.009","21.66","89.5","0.0","0.2"],
    [1522973,"2026-06-04 18:50:00","69470","5.371","142.2","7.023","144.6","1011.324","21.46","91.0","0.0","0.1"],
    [1522974,"2026-06-04 19:00:00","69471","7.372999999999999","68.03","12.81","73.85","1011.87","19.4","89.3","0.0","0.1"],
    [1522975,"2026-06-04 19:10:00","69472","8.08","53.68","12.67","60.67","1011.877","17.9","91.4","0.0","0.0"],
    [1522976,"2026-06-04 19:20:00","69473","6.577999999999999","52.14","9.54","57.3","1012.2","17.7","90.6","0.0","0.1"],
    [1522977,"2026-06-04 19:30:00","69474","7.426","35.09","10.39","29.72","1012.307","17.64","89.0","0.0","0.0"],
    [1522978,"2026-06-04 19:40:00","69475","7.055","41.31","10.16","33.24","1012.35","17.67","87.5","0.0","0.0"],
    [1522979,"2026-06-04 19:50:00","69476","7.37","63.91","11.04","74.89","1012.448","17.88","85.6","0.0","0.0"],
    [1522980,"2026-06-04 20:00:00","69477","8.41","70.63","10.68","69.53","1012.598","17.97","81.9","0.0","0.0"],
    [1522981,"2026-06-04 20:10:00","69478","6.9910000000000005","55.34","11.11","70.27","1012.733","18.12","81.5","0.0","0.1"],
    [1522982,"2026-06-04 20:20:00","69479","8.04","35.12","10.91","30.68","1013.287","17.88","81.0","0.0","0.4"],
    [1522983,"2026-06-04 20:30:00","69480","7.91","31.84","11.34","34.1","1013.828","17.3","84.1","0.0","2.0"],
    [1522984,"2026-06-04 20:40:00","69481","6.341","17.64","8.3","8.18","1014.52","17.14","88.5","0.0","0.4"],
    [1522985,"2026-06-04 20:50:00","69482","7.245","36.33","10.19","38.6","1014.232","17.07","87.5","0.0","0.4"],
    [1522986,"2026-06-04 21:00:00","69483","6.028","37.07","7.579","39.12","1014.18","16.87","88.3","0.0","0.2"],
    [1522987,"2026-06-04 21:10:00","69484","4.925","31.74","7.023","40.48","1014.449","16.71","89.6","0.0","0.0"],
    [1522988,"2026-06-04 21:20:00","69485","6.0089999999999995","36.34","8.43","55.54","1014.639","16.67","89.7","0.0","0.0"],
    [1522989,"2026-06-04 21:30:00","69486","7.053999999999999","64.86","9.64","71.88","1014.138","16.71","89.3","0.0","0.3"],
    [1522990,"2026-06-04 21:40:00","69487","5.602","51.96","9.21","58.16","1014.504","16.6","91.0","0.0","0.0"],
    [1522991,"2026-06-04 21:50:00","69488","7.2010000000000005","63.36","11.04","68.87","1014.491","16.61","90.7","0.0","0.1"],
    [1522992,"2026-06-04 22:00:00","69489","8.54","65.07","11.76","71.54","1014.288","16.68","89.3","0.0","0.0"],
    [1522993,"2026-06-04 22:10:00","69490","7.636","62.85","10.62","77.59","1014.578","16.65","88.8","0.0","0.0"],
    [1522994,"2026-06-04 22:20:00","69491","7.926","61.34","10.58","57.82","1014.696","16.68","87.7","0.0","0.0"],
    [1522995,"2026-06-04 22:30:00","69492","6.97","59.35","9.54","76.31","1014.717","16.86","87.6","0.0","0.0"],
    [1522996,"2026-06-04 22:40:00","69493","6.919","57.77","9.34","59.07","1014.868","16.91","86.9","0.0","0.0"],
    [1522997,"2026-06-04 22:50:00","69494","7.218999999999999","43.86","9.51","39.48","1015.238","16.99","86.3","0.0","0.0"],
    [1522998,"2026-06-04 23:00:00","69495","7.477","50.0","9.6","49.46","1015.27","16.95","86.0","0.0","0.0"],
    [1522999,"2026-06-04 23:10:00","69496","6.468","47.42","8.75","51.13","1015.433","17.04","85.8","0.0","0.0"],
    [1523000,"2026-06-04 23:20:00","69497","7.13","46.85","9.21","44.32","1015.38","16.94","86.0","0.0","0.2"],
    [1523001,"2026-06-04 23:30:00","69498","7.579","53.43","9.77","56.01","1015.158","16.72","86.5","0.0","0.1"],
    [1523002,"2026-06-04 23:40:00","69499","7.7989999999999995","48.45","9.87","43.45","1015.192","16.6","86.9","0.0","0.3"],
    [1523003,"2026-06-04 23:50:00","69500","6.882000000000001","45.24","9.34","48.15","1015.424","16.52","88.1","0.0","0.4"],
    [1523004,"2026-06-05 00:00:00","69501","7.581","46.95","10.03","38.3","1015.378","16.4","88.7","0.0","0.6"],
    [1523005,"2026-06-05 00:10:00","69502","7.577999999999999","48.21","9.31","42.5","1015.379","16.26","88.5","0.0","0.3"],
    [1523006,"2026-06-05 00:20:00","69503","7.329","49.81","9.41","50.34","1015.281","16.23","88.5","0.0","0.0"],
    [1523007,"2026-06-05 00:30:00","69504","6.417000000000001","49.81","8.46","63.67","1015.391","16.5","88.5","0.0","0.0"],
    [1523008,"2026-06-05 00:40:00","69505","6.4079999999999995","58.8","8.33","55.46","1015.393","16.43","87.8","0.0","0.2"],
    [1523009,"2026-06-05 00:50:00","69506","5.985","55.69","8.07","59.49","1015.439","16.38","87.9","0.0","0.0"],
    [1523010,"2026-06-05 01:00:00","69507","5.684","53.98","7.481","44.3","1015.427","16.56","87.3","0.0","0.0"],
    [1523011,"2026-06-05 01:10:00","69508","6.452000000000001","59.93","8.75","59.38","1015.306","16.56","85.2","0.0","0.0"],
    [1523012,"2026-06-05 01:20:00","69509","6.193","60.49","8.33","59.62","1015.206","16.7","85.2","0.0","0.0"],
    [1523013,"2026-06-05 01:30:00","69510","4.848","57.7","6.599","64.37","1015.342","16.86","84.9","0.0","0.0"],
    [1523014,"2026-06-05 01:40:00","69511","4.612","45.63","6.566","36.15","1015.429","16.95","83.7","0.0","0.0"],
    [1523015,"2026-06-05 01:50:00","69512","4.293","52.31","5.749","46.17","1015.529","17.01","82.7","0.0","0.0"],
    [1523016,"2026-06-05 02:00:00","69513","4.408","46.55","6.207000000000001","49.17","1015.526","17.07","82.4","0.0","0.0"],
    [1523017,"2026-06-05 02:10:00","69514","4.026","39.07","5.422999999999999","39.69","1015.613","17.08","82.3","0.0","0.0"],
    [1523018,"2026-06-05 02:20:00","69515","4.115","37.91","5.2589999999999995","49.59","1015.638","17.1","82.8","0.0","0.0"],
    [1523019,"2026-06-05 02:30:00","69516","3.94","43.56","5.847","50.43","1015.626","17.13","82.9","0.0","0.0"],
    [1523020,"2026-06-05 02:40:00","69517","4.051","42.94","5.455","45.3","1015.672","17.16","81.3","0.0","0.0"],
    [1523021,"2026-06-05 02:50:00","69518","3.591","37.25","4.802","14.87","1015.742","17.25","80.8","0.0","0.0"],
    [1523022,"2026-06-05 03:00:00","69519","3.2760000000000002","29.56","4.802","20.74","1015.757","17.05","84.1","0.0","0.0"],
    [1523023,"2026-06-05 03:10:00","69520","2.843","34.29","4.867","34.35","1015.74","17.02","83.9","0.0","0.0"],
    [1523024,"2026-06-05 03:20:00","69521","3.407","32.18","4.508","33.18","1015.702","17.06","84.0","0.0","0.0"],
    [1523025,"2026-06-05 03:30:00","69522","2.971","25.58","3.659","39.33","1015.748","16.98","85.4","0.0","0.0"],
    [1523026,"2026-06-05 03:40:00","69523","2.3569999999999998","32.68","3.267","23.47","1015.689","16.85","86.4","0.0","0.0"],
    [1523027,"2026-06-05 03:50:00","69524","1.757","20.41","2.5810000000000004","9.91","1015.689","16.84","86.8","0.0","0.0"],
    [1523028,"2026-06-05 04:00:00","69525","2.233","324.9","2.875","326.9","1015.789","16.89","87.1","0.0","0.0"],
    [1523029,"2026-06-05 04:10:00","69526","2.374","332.9","3.299","335.2","1015.779","16.85","87.3","0.0","0.0"],
    [1523030,"2026-06-05 04:20:00","69527","1.994","300.2","3.332","319.7","1015.833","16.9","87.4","0.0","0.0"],
    [1523031,"2026-06-05 04:30:00","69528","2.31","296.3","3.0380000000000003","303.9","1015.869","16.85","87.2","0.0","0.0"],
    [1523032,"2026-06-05 04:40:00","69529","1.8230000000000002","297.0","2.7769999999999997","287.6","1015.848","16.86","87.0","0.0","0.0"],
    [1523033,"2026-06-05 04:50:00","69530","1.9569999999999999","278.1","2.7439999999999998","290.7","1015.929","16.95","86.9","0.0","0.0"],
    [1523034,"2026-06-05 05:00:00","69531","2.396","283.0","3.92","278.2","1016.111","16.99","87.0","0.0","0.0"],
    [1523035,"2026-06-05 05:10:00","69532","2.191","288.2","3.234","290.4","1016.172","16.95","86.7","0.0","0.0"],
    [1523036,"2026-06-05 05:20:00","69533","2.185","283.4","3.528","291.2","1016.246","17.03","86.5","31.51","0.0"],
    [1523037,"2026-06-05 05:30:00","69534","2.417","286.4","3.6260000000000003","271.7","1016.317","17.08","86.1","53.27","0.0"],
    [1523038,"2026-06-05 05:40:00","69535","2.283","286.6","3.822","278.1","1016.293","17.07","85.8","67.11","0.0"],
    [1523039,"2026-06-05 05:50:00","69536","2.177","292.4","3.7239999999999998","279.6","1016.374","17.12","85.5","69.85","0.0"],
    [1523040,"2026-06-05 06:00:00","69537","1.126","298.8","2.123","304.7","1016.308","17.22","85.3","128.8","0.0"],
    [1523041,"2026-06-05 06:10:00","69538","1.734","275.1","2.548","272.4","1016.517","17.36","84.7","120.6","0.0"],
    [1523042,"2026-06-05 06:20:00","69539","0.779","254.2","1.699","286.0","1016.515","17.52","83.7","188.0","0.0"],
    [1523043,"2026-06-05 06:30:00","69540","0.578","255.3","1.666","251.4","1016.592","17.92","81.4","230.9","0.0"],
    [1523044,"2026-06-05 06:40:00","69541","1.182","271.8","2.45","257.8","1016.644","17.96","78.97","169.5","0.0"],
    [1523045,"2026-06-05 06:50:00","69542","1.4780000000000002","281.4","2.842","260.3","1016.713","18.02","79.16","160.5","0.0"],
    [1523046,"2026-06-05 07:00:00","69543","1.3419999999999999","320.0","1.829","313.2","1016.728","17.91","79.64","134.2","0.0"],
    [1523047,"2026-06-05 07:10:00","69544","1.399","305.4","2.156","311.1","1016.798","17.91","79.25","134.2","0.0"],
    [1523048,"2026-06-05 07:20:00","69545","1.601","299.4","2.548","277.9","1017.005","18.01","78.77","134.2","0.0"],
    [1523049,"2026-06-05 07:30:00","69546","2.44","264.4","3.887","265.1","1017.182","18.16","76.71","114.6","0.0"],
    [1523050,"2026-06-05 07:40:00","69547","2.374","276.9","3.822","265.4","1017.335","18.31","73.85","134.2","0.0"],
    [1523051,"2026-06-05 07:50:00","69548","3.977","294.9","6.011","312.9","1017.499","18.27","71.95","183.6","0.0"],
    [1523052,"2026-06-05 08:00:00","69549","5.244","292.6","6.9910000000000005","305.0","1017.533","17.99","70.8","295.6","0.0"],
    [1523053,"2026-06-05 08:10:00","69550","5.346","286.4","7.285","285.0","1017.552","17.89","70.29","393.9","0.0"],
    [1523054,"2026-06-05 08:20:00","69551","3.97","295.1","7.611000000000001","276.4","1017.4","17.99","69.09","378.3","0.0"],
    [1523055,"2026-06-05 08:30:00","69552","3.424","298.6","4.867","315.4","1017.295","17.99","68.73","265.7","0.0"],
    [1523056,"2026-06-05 08:40:00","69553","2.3080000000000003","287.6","3.463","292.4","1017.293","18.17","69.21","321.7","0.0"],
    [1523057,"2026-06-05 08:50:00","69554","2.275","282.8","3.43","288.3","1017.283","18.43","69.05","333.5","0.0"],
    [1523058,"2026-06-05 09:00:00","69555","2.044","246.8","4.1160000000000005","212.7","1017.251","18.86","68.57","520.1","0.0"],
    [1523059,"2026-06-05 09:10:00","69556","1.8969999999999998","224.6","3.822","256.5","1017.071","19.2","67.81","644.5","0.0"],
    [1523060,"2026-06-05 09:20:00","69557","3.6010000000000004","207.6","7.187","187.9","1017.123","19.48","66.48","426.6","0.0"],
    [1523061,"2026-06-05 09:30:00","69558","3.6860000000000004","215.6","5.619","216.9","1017.229","19.29","67.63","307.3","0.0"],
    [1523062,"2026-06-05 09:40:00","69559","3.165","208.7","6.239","186.0","1017.27","19.09","70.01","256.9","0.0"],
    [1523063,"2026-06-05 09:50:00","69560","3.945","210.7","6.042999999999999","203.1","1017.34","19.19","69.32","885.0","0.0"],
    [1523064,"2026-06-05 10:00:00","69561","4.155","214.0","7.154","210.1","1017.369","19.54","68.43","896.0","0.0"],
    [1523065,"2026-06-05 10:10:00","69562","4.137","216.7","6.729","202.8","1017.398","19.58","68.33","553.5","0.0"],
    [1523066,"2026-06-05 10:20:00","69563","3.1319999999999997","221.3","5.586","205.0","1017.429","19.75","66.99","451.1","0.0"],
    [1523067,"2026-06-05 10:30:00","69564","3.187","220.3","6.893","219.2","1017.391","19.92","64.64","590.6","0.0"],
    [1523068,"2026-06-05 10:40:00","69565","3.852","212.5","6.795","222.5","1017.351","19.99","63.36","988.0","0.0"],
    [1523069,"2026-06-05 10:50:00","69566","4.609","208.1","7.317","222.9","1017.215","20.04","63.14","753.2","0.0"],
    [1523070,"2026-06-05 11:00:00","69567","2.8930000000000002","235.4","6.305","220.8","1017.246","20.28","61.75","614.0","0.0"],
    [1523071,"2026-06-05 11:10:00","69568","3.862","220.1","7.709","216.1","1017.276","20.31","60.89","785.8","0.0"],
    [1523072,"2026-06-05 11:20:00","69569","5.871","196.6","8.17","191.2","1017.205","19.9","65.07","453.3","0.0"],
    [1523073,"2026-06-05 11:30:00","69570","5.357","201.2","8.69","190.1","1017.274","19.62","68.57","402.2","0.0"],
    [1523074,"2026-06-05 11:40:00","69571","4.888999999999999","222.5","7.252000000000001","228.3","1017.387","19.71","67.04","402.6","0.0"],
    [1523075,"2026-06-05 11:50:00","69572","5.444","201.9","8.75","194.8","1017.278","19.61","67.26","350.7","0.0"],
    [1523076,"2026-06-05 12:00:00","69573","4.354","214.2","6.925","229.9","1017.303","19.56","67.71","306.9","0.0"],
    [1523077,"2026-06-05 12:10:00","69574","4.228","207.1","6.631","191.6","1017.23","19.54","68.65","311.1","0.0"],
    [1523078,"2026-06-05 12:20:00","69575","4.601","201.4","7.382999999999999","195.0","1017.147","19.47","68.9","276.6","0.0"],
    [1523079,"2026-06-05 12:30:00","69576","5.2139999999999995","194.7","7.513","198.7","1017.118","19.42","68.11","296.7","0.0"],
    [1523080,"2026-06-05 12:40:00","69577","5.83","195.7","8.04","194.7","1017.104","19.34","68.67","271.0","0.0"],
    [1523081,"2026-06-05 12:50:00","69578","5.48","203.4","7.579","214.0","1017.129","19.31","69.19","268.3","0.0"],
    [1523082,"2026-06-05 13:00:00","69579","6.261","195.5","8.53","201.2","1017.016","19.36","69.82","310.6","0.0"],
    [1523083,"2026-06-05 13:10:00","69580","5.608","201.7","8.4","196.1","1016.867","19.31","70.0","410.0","0.0"],
    [1523084,"2026-06-05 13:20:00","69581","5.792999999999999","192.2","8.43","216.6","1016.744","19.46","69.94","444.8","0.0"],
    [1523085,"2026-06-05 13:30:00","69582","5.5920000000000005","192.0","9.28","201.1","1016.691","19.4","70.6","295.9","0.0"],
    [1523086,"2026-06-05 13:40:00","69583","5.454","187.8","8.13","192.5","1016.745","19.36","71.71","420.2","0.0"],
    [1523087,"2026-06-05 13:50:00","69584","5.49","187.6","8.23","190.5","1016.716","19.37","70.99","425.4","0.0"],
    [1523088,"2026-06-05 14:00:00","69585","5.559","181.5","7.709","176.6","1016.62","19.43","70.09","614.7","0.0"],
    [1523089,"2026-06-05 14:10:00","69586","5.638","179.6","7.317","175.8","1016.543","19.53","67.57","646.5","0.0"],
    [1523090,"2026-06-05 14:20:00","69587","5.82","183.9","7.807","191.4","1016.471","19.59","66.74","799.5","0.0"],
    [1523091,"2026-06-05 14:30:00","69588","5.477","185.5","6.957999999999999","183.5","1016.49","19.61","67.03","673.3","0.0"],
    [1523092,"2026-06-05 14:40:00","69589","5.982","185.9","7.807","191.3","1016.459","19.56","66.28","474.9","0.0"],
    [1523093,"2026-06-05 14:50:00","69590","5.931","187.1","8.04","190.9","1016.485","19.51","67.08","419.0","0.0"],
    [1523094,"2026-06-05 15:00:00","69591","5.667000000000001","187.1","7.644","191.5","1016.454","19.58","67.35","591.7","0.0"],
    [1523095,"2026-06-05 15:10:00","69592","5.507999999999999","180.0","6.925","190.9","1016.448","19.56","67.13","541.0","0.0"],
    [1523096,"2026-06-05 15:20:00","69593","5.394","182.8","7.579","178.7","1016.396","19.59","67.52","504.3","0.0"],
    [1523097,"2026-06-05 15:30:00","69594","5.468","184.1","7.317","172.3","1016.354","19.57","68.09","374.8","0.0"],
    [1523098,"2026-06-05 15:40:00","69595","4.981","180.4","6.631","178.3","1016.314","19.52","67.36","516.6","0.0"],
    [1523099,"2026-06-05 15:50:00","69596","5.256","178.3","6.7620000000000005","169.9","1016.332","19.51","68.17","552.0","0.0"],
    [1523100,"2026-06-05 16:00:00","69597","5.44","175.8","6.925","176.7","1016.144","19.46","68.39","479.7","0.0"],
    [1523101,"2026-06-05 16:10:00","69598","4.645","182.9","6.272","187.0","1016.164","19.45","69.47","495.4","0.0"],
    [1523102,"2026-06-05 16:20:00","69599","4.985","179.9","6.0760000000000005","170.9","1016.265","19.47","70.5","409.8","0.0"],
    [1523103,"2026-06-05 16:30:00","69600","5.267","179.1","6.631","174.6","1016.263","19.38","70.93","271.0","0.0"],
    [1523104,"2026-06-05 16:40:00","69601","4.971","185.2","6.795","192.0","1016.289","19.44","70.64","405.2","0.0"],
    [1523105,"2026-06-05 16:50:00","69602","4.885","182.4","6.109","183.0","1016.247","19.46","69.87","439.2","0.0"],
    [1523106,"2026-06-05 17:00:00","69603","4.863","179.6","6.109","172.8","1016.115","19.43","70.6","337.2","0.0"],
    [1523107,"2026-06-05 17:10:00","69604","4.553","181.6","6.435","181.9","1016.065","19.45","70.59","180.9","0.0"],
    [1523108,"2026-06-05 17:20:00","69605","4.968","176.9","6.272","174.7","1016.131","19.36","71.68","206.2","0.0"],
    [1523109,"2026-06-05 17:30:00","69606","4.5089999999999995","183.2","6.207000000000001","175.2","1016.185","19.35","71.2","182.7","0.0"],
    [1523110,"2026-06-05 17:40:00","69607","4.372","182.6","5.7170000000000005","173.2","1016.176","19.39","71.75","142.9","0.0"],
    [1523111,"2026-06-05 17:50:00","69608","4.541","175.1","5.684","167.5","1016.109","19.26","71.6","138.7","0.0"],
    [1523112,"2026-06-05 18:00:00","69609","3.6889999999999996","182.0","4.606","174.3","1016.138","19.35","71.63","209.6","0.0"],
    [1523113,"2026-06-05 18:10:00","69610","3.9410000000000003","185.1","5.096","186.9","1016.176","19.37","71.66","126.5","0.0"],
    [1523114,"2026-06-05 18:20:00","69611","4.178","181.9","5.292000000000001","174.8","1016.225","19.28","72.29","67.08","0.0"],
    [1523115,"2026-06-05 18:30:00","69612","3.937","177.0","4.737","178.0","1016.233","19.27","72.88","41.84","0.0"],
    [1523116,"2026-06-05 18:40:00","69613","3.7960000000000003","181.4","4.704","177.5","1016.345","19.25","72.67","34.78","0.0"],
    [1523117,"2026-06-05 18:50:00","69614","3.821","188.8","5.031000000000001","206.6","1016.443","19.22","72.21","1.286","0.0"],
    [1523118,"2026-06-05 19:00:00","69615","3.9419999999999997","176.8","4.965","173.5","1016.424","19.23","72.52","0.0","0.0"],
    [1523119,"2026-06-05 19:10:00","69616","3.803","186.8","4.9","188.9","1016.435","19.2","73.39","0.0","0.0"],
    [1523120,"2026-06-05 19:20:00","69617","3.395","181.2","4.606","170.9","1016.385","19.17","73.36","0.0","0.0"],
    [1523121,"2026-06-05 19:30:00","69618","3.839","183.2","4.998","174.2","1016.385","19.16","73.79","0.0","0.0"],
    [1523122,"2026-06-05 19:40:00","69619","3.6719999999999997","183.7","4.965","176.3","1016.427","19.18","73.52","0.0","0.0"],
    [1523123,"2026-06-05 19:50:00","69620","3.717","185.7","4.802","169.7","1016.555","19.19","73.99","0.0","0.0"],
    [1523124,"2026-06-05 20:00:00","69621","3.7430000000000003","188.1","4.638999999999999","188.3","1016.657","19.18","73.27","0.0","0.0"],
    [1523125,"2026-06-05 20:10:00","69622","3.4960000000000004","188.0","4.541","190.8","1016.804","19.22","72.96","0.0","0.0"],
    [1523126,"2026-06-05 20:20:00","69623","3.2439999999999998","189.7","4.181","198.0","1016.989","19.22","73.68","0.0","0.0"],
    [1523127,"2026-06-05 20:30:00","69624","3.193","192.3","4.377","199.2","1017.126","19.23","72.32","0.0","0.0"],
    [1523128,"2026-06-05 20:40:00","69625","3.4730000000000003","179.5","4.149","194.5","1017.146","19.24","72.97","0.0","0.0"],
    [1523129,"2026-06-05 20:50:00","69626","3.637","189.7","4.802","185.8","1017.274","19.24","72.79","0.0","0.0"],
    [1523130,"2026-06-05 21:00:00","69627","3.535","191.8","4.867","189.1","1017.375","19.29","72.37","0.0","0.0"],
    [1523131,"2026-06-05 21:10:00","69628","3.424","192.1","4.475","193.3","1017.332","19.31","72.21","0.0","0.0"],
    [1523132,"2026-06-05 21:20:00","69629","3.339","189.9","4.345","189.0","1017.317","19.3","72.65","0.0","0.0"],
    [1523133,"2026-06-05 21:30:00","69630","3.1460000000000004","191.7","4.312","191.5","1017.276","19.32","72.57","0.0","0.0"],
    [1523134,"2026-06-05 21:40:00","69631","2.7460000000000004","195.6","4.312","190.4","1017.306","19.32","72.18","0.0","0.0"],
    [1523135,"2026-06-05 21:50:00","69632","2.807","189.6","3.92","193.3","1017.324","19.36","72.27","0.0","0.0"],
    [1523136,"2026-06-05 22:00:00","69633","3.1180000000000003","194.5","4.279","190.8","1017.347","19.38","72.66","0.0","0.0"],
    [1523137,"2026-06-05 22:10:00","69634","3.685","192.0","4.671","196.4","1017.364","19.38","72.3","0.0","0.0"],
    [1523138,"2026-06-05 22:20:00","69635","3.2739999999999996","194.6","4.2139999999999995","189.4","1017.352","19.4","72.57","0.0","0.0"],
    [1523139,"2026-06-05 22:30:00","69636","3.469","195.9","4.541","201.8","1017.4","19.44","73.1","0.0","0.0"],
    [1523140,"2026-06-05 22:40:00","69637","3.323","196.3","4.475","200.3","1017.383","19.47","73.07","0.0","0.0"],
    [1523141,"2026-06-05 22:50:00","69638","2.91","202.8","4.933","198.3","1017.298","19.48","72.66","0.0","0.0"],
    [1523142,"2026-06-05 23:00:00","69639","1.084","236.6","2.319","193.6","1017.415","19.5","72.9","0.0","0.0"],
    [1523143,"2026-06-05 23:10:00","69640","1.807","281.0","2.907","292.3","1017.396","19.4","73.05","0.0","0.0"],
    [1523144,"2026-06-05 23:20:00","69641","1.935","297.9","2.8089999999999997","290.1","1017.363","19.35","73.04","0.0","0.0"],
    [1523145,"2026-06-05 23:30:00","69642","1.69","298.8","2.515","303.1","1017.233","19.3","72.8","0.0","0.0"],
    [1523146,"2026-06-05 23:40:00","69643","0.623","281.7","1.829","263.0","1017.178","19.29","73.34","0.0","0.0"],
    [1523147,"2026-06-05 23:50:00","69644","1.204","283.5","1.9269999999999998","261.9","1017.05","19.29","73.14","0.0","0.0"],
    [1523148,"2026-06-06 00:00:00","69645","1.2890000000000001","298.8","2.0909999999999997","307.0","1016.927","19.24","73.45","0.0","0.0"],
    [1523149,"2026-06-06 00:10:00","69646","1.4580000000000002","285.4","2.254","288.6","1017.012","19.21","73.15","0.0","0.0"],
    [1523150,"2026-06-06 00:20:00","69647","1.145","288.2","1.9269999999999998","296.7","1016.954","19.19","73.13","0.0","0.0"],
    [1523151,"2026-06-06 00:30:00","69648","1.68","291.1","2.45","291.8","1017.058","19.18","73.21","0.0","0.0"],
    [1523152,"2026-06-06 00:40:00","69649","1.8659999999999999","295.1","2.679","300.3","1016.994","19.11","73.2","0.0","0.0"],
    [1523153,"2026-06-06 00:50:00","69650","1.851","295.7","2.6460000000000004","301.1","1016.937","19.05","73.28","0.0","0.0"],
    [1523154,"2026-06-06 01:00:00","69651","1.8530000000000002","287.7","2.679","288.6","1016.835","19.03","73.4","0.0","0.0"],
    [1523155,"2026-06-06 01:10:00","69652","1.959","289.6","2.45","298.2","1016.865","18.99","73.45","0.0","0.0"],
    [1523156,"2026-06-06 01:20:00","69653","2.164","295.5","3.103","294.2","1016.926","18.99","73.55","0.0","0.0"],
    [1523157,"2026-06-06 01:30:00","69654","2.066","294.9","2.907","292.4","1016.872","18.95","73.49","0.0","0.0"],
    [1523158,"2026-06-06 01:40:00","69655","1.993","290.5","3.005","297.3","1016.727","18.92","73.64","0.0","0.0"],
    [1523159,"2026-06-06 01:50:00","69656","1.879","293.0","3.201","287.9","1016.69","18.92","73.72","0.0","0.0"],
    [1523160,"2026-06-06 02:00:00","69657","1.9680000000000002","294.4","2.7110000000000003","274.1","1016.709","18.89","74.02","0.0","0.0"],
    [1523161,"2026-06-06 02:10:00","69658","1.454","292.5","2.352","281.1","1016.697","18.89","74.04","0.0","0.0"],
    [1523162,"2026-06-06 02:20:00","69659","1.921","291.2","2.385","285.4","1016.728","18.86","73.93","0.0","0.0"],
    [1523163,"2026-06-06 02:30:00","69660","2.0540000000000003","302.2","2.7769999999999997","304.9","1016.746","18.87","74.3","0.0","0.0"],
    [1523164,"2026-06-06 02:40:00","69661","1.84","301.4","3.071","299.4","1016.628","18.89","73.85","0.0","0.0"],
    [1523165,"2026-06-06 02:50:00","69662","2.175","299.7","3.136","305.5","1016.675","18.91","73.42","0.0","0.0"],
    [1523166,"2026-06-06 03:00:00","69663","1.95","302.0","3.103","303.2","1016.715","18.97","73.29","0.0","0.0"],
    [1523167,"2026-06-06 03:10:00","69664","2.006","301.0","2.7769999999999997","298.5","1016.754","19.0","73.01","0.0","0.0"],
    [1523168,"2026-06-06 03:20:00","69665","2.032","296.9","3.5610000000000004","303.8","1016.711","19.04","72.77","0.0","0.0"],
    [1523169,"2026-06-06 03:30:00","69666","2.052","295.0","3.299","295.6","1016.702","19.11","72.55","0.0","0.0"],
    [1523170,"2026-06-06 03:40:00","69667","2.0469999999999997","296.2","3.0380000000000003","291.7","1016.826","19.15","72.12","0.0","0.0"],
    [1523171,"2026-06-06 03:50:00","69668","2.025","293.3","3.397","288.2","1016.823","19.18","71.78","0.0","0.0"],
    [1523172,"2026-06-06 04:00:00","69669","1.896","296.8","2.94","312.6","1016.683","19.21","71.63","0.0","0.0"],
    [1523173,"2026-06-06 04:10:00","69670","1.6269999999999998","293.1","2.319","288.1","1016.487","19.23","71.86","0.0","0.0"],
    [1523174,"2026-06-06 04:20:00","69671","1.507","290.8","2.352","293.3","1016.408","19.22","71.75","0.0","0.0"],
    [1523175,"2026-06-06 04:30:00","69672","1.89","297.1","2.7110000000000003","308.6","1016.594","19.24","71.95","0.0","0.0"],
    [1523176,"2026-06-06 04:40:00","69673","1.804","300.4","3.103","304.8","1016.676","19.26","71.51","0.0","0.0"],
    [1523177,"2026-06-06 04:50:00","69674","2.016","294.5","2.6460000000000004","295.9","1016.897","19.3","71.39","0.0","0.0"],
    [1523178,"2026-06-06 05:00:00","69675","1.974","295.4","2.842","312.0","1016.974","19.36","70.97","0.0","0.0"],
    [1523179,"2026-06-06 05:10:00","69676","1.671","296.3","2.7110000000000003","307.0","1016.961","19.43","70.57","17.22","0.0"],
    [1523180,"2026-06-06 05:20:00","69677","0.8740000000000001","268.3","1.601","223.2","1016.863","19.51","70.64","67.1","0.0"],
    [1523181,"2026-06-06 05:30:00","69678","1.5959999999999999","281.6","2.548","275.5","1017.074","19.54","70.31","33.91","0.0"],
    [1523182,"2026-06-06 05:40:00","69679","1.6269999999999998","279.5","2.515","282.0","1017.212","19.57","70.48","0.5870000000000001","0.0"],
    [1523183,"2026-06-06 05:50:00","69680","1.483","277.0","2.7439999999999998","288.3","1017.231","19.56","71.13","9.37","0.0"],
    [1523184,"2026-06-06 06:00:00","69681","1.641","284.6","2.842","284.2","1017.339","19.52","71.1","65.47","0.0"],
    [1523185,"2026-06-06 06:10:00","69682","1.171","269.0","2.156","276.4","1017.343","19.56","71.33","67.09","0.0"],
    [1523186,"2026-06-06 06:20:00","69683","1.682","274.0","2.319","258.6","1017.429","19.55","70.8","67.09","0.0"],
    [1523187,"2026-06-06 06:30:00","69684","1.9469999999999998","283.6","2.613","262.1","1017.555","19.58","70.47","67.09","0.0"],
    [1523188,"2026-06-06 06:40:00","69685","1.695","264.7","2.8089999999999997","263.6","1017.691","19.67","70.03","68.43","0.0"],
    [1523189,"2026-06-06 06:50:00","69686","1.92","268.3","3.201","270.2","1017.659","19.68","69.58","157.9","0.0"],
    [1523190,"2026-06-06 07:00:00","69687","1.29","259.3","2.7769999999999997","276.7","1017.637","19.85","69.36","202.0","0.0"],
    [1523191,"2026-06-06 07:10:00","69688","1.548","257.7","2.483","276.4","1017.804","19.93","69.24","218.6","0.0"],
    [1523192,"2026-06-06 07:20:00","69689","1.5430000000000001","252.2","2.9730000000000003","264.8","1017.881","20.08","68.16","279.4","0.0"],
    [1523193,"2026-06-06 07:30:00","69690","2.36","266.8","3.822","264.1","1017.892","20.25","67.06","277.5","0.0"],
    [1523194,"2026-06-06 07:40:00","69691","2.415","208.8","3.822","200.9","1017.925","20.41","67.86","358.8","0.0"],
    [1523195,"2026-06-06 07:50:00","69692","1.555","240.3","2.842","199.1","1018.08","20.5","67.01","332.9","0.0"],
    [1523196,"2026-06-06 08:00:00","69693","1.261","244.0","3.005","220.3","1018.052","20.87","65.68","430.6","0.0"],
    [1523197,"2026-06-06 08:10:00","69694","1.97","227.2","5.031000000000001","193.3","1018.041","21.01","66.16","623.2","0.0"],
    [1523198,"2026-06-06 08:20:00","69695","3.9219999999999997","183.3","5.651","198.2","1017.977","20.6","70.73","637.1","0.0"],
    [1523199,"2026-06-06 08:30:00","69696","4.8660000000000005","176.6","6.042999999999999","172.8","1017.958","20.32","71.82","637.1","0.0"],
    [1523200,"2026-06-06 08:40:00","69697","4.9239999999999995","181.5","6.403","172.8","1018.046","20.4","70.7","649.2","0.0"],
    [1523201,"2026-06-06 08:50:00","69698","5.3870000000000005","174.6","6.5329999999999995","168.5","1018.065","20.38","71.09","704.1","0.0"],
    [1523202,"2026-06-06 09:00:00","69699","5.396","170.9","6.337000000000001","170.7","1018.036","20.23","73.49","704.1","0.0"],
    [1523203,"2026-06-06 09:10:00","69700","5.46","171.3","6.37","170.3","1018.055","20.14","73.7","748.0","0.0"],
    [1523204,"2026-06-06 09:20:00","69701","5.577000000000001","172.8","6.501","173.8","1018.077","20.17","74.47","771.2","0.0"],
    [1523205,"2026-06-06 09:30:00","69702","5.631","175.9","6.7620000000000005","175.5","1018.139","20.29","74.61","771.3","0.0"],
    [1523206,"2026-06-06 09:40:00","69703","5.282","181.7","6.566","181.5","1018.142","20.37","74.35","827.0","0.0"],
    [1523207,"2026-06-06 09:50:00","69704","5.152","180.7","6.697","176.1","1018.248","20.43","74.72","838.0","0.0"],
    [1523208,"2026-06-06 10:00:00","69705","5.038","178.5","6.207000000000001","187.4","1018.32","20.48","75.8","838.0","0.0"],
    [1523209,"2026-06-06 10:10:00","69706","5.4879999999999995","171.4","6.501","170.7","1018.422","20.4","77.08","804.0","0.0"],
    [1523210,"2026-06-06 10:20:00","69707","5.28","169.9","6.239","169.4","1018.574","20.39","77.5","881.0","0.0"],
    [1523211,"2026-06-06 10:30:00","69708","4.99","184.9","6.7620000000000005","196.0","1018.613","20.58","76.69","823.0","0.0"],
    [1523212,"2026-06-06 10:40:00","69709","5.263","181.0","7.415","175.9","1018.642","20.73","77.1","883.0","0.0"],
    [1523213,"2026-06-06 10:50:00","69710","5.3229999999999995","182.6","6.7620000000000005","174.8","1018.744","20.71","77.11","884.0","0.0"],
    [1523214,"2026-06-06 11:00:00","69711","5.347","184.6","6.9910000000000005","189.4","1018.754","20.84","76.05","909.0","0.0"],
    [1523215,"2026-06-06 11:10:00","69712","6.226","177.9","7.6770000000000005","176.2","1018.794","20.81","77.44","937.0","0.0"],
    [1523216,"2026-06-06 11:20:00","69713","6.0329999999999995","179.4","7.872999999999999","171.3","1018.85","20.77","77.41","939.0","0.0"],
    [1523217,"2026-06-06 11:30:00","69714","5.638999999999999","183.0","6.925","193.9","1018.931","20.96","76.02","948.0","0.0"],
    [1523218,"2026-06-06 11:40:00","69715","5.471","181.0","7.218999999999999","186.2","1019.019","21.0","76.47","965.0","0.0"],
    [1523219,"2026-06-06 11:50:00","69716","5.7379999999999995","180.0","7.579","175.0","1018.993","21.07","76.92","942.0","0.0"],
    [1523220,"2026-06-06 12:00:00","69717","5.855","181.2","7.382999999999999","175.0","1018.925","21.04","77.1","941.0","0.0"],
    [1523221,"2026-06-06 12:10:00","69718","5.472","182.0","7.317","175.6","1018.917","21.22","76.5","904.0","0.0"],
    [1523222,"2026-06-06 12:20:00","69719","6.11","176.8","7.546","176.8","1018.915","21.1","78.33","875.0","0.0"],
    [1523223,"2026-06-06 12:30:00","69720","5.202000000000001","181.4","6.7620000000000005","176.9","1018.876","21.11","77.39","764.2","0.0"],
    [1523224,"2026-06-06 12:40:00","69721","5.0569999999999995","179.0","6.893","175.7","1018.945","21.16","78.97","653.7","0.0"],
    [1523225,"2026-06-06 12:50:00","69722","5.8020000000000005","175.5","7.056","174.1","1018.968","20.93","81.3","677.8","0.0"],
    [1523226,"2026-06-06 13:00:00","69723","4.85","180.3","6.435","190.8","1018.962","21.02","80.7","608.0","0.0"],
    [1523227,"2026-06-06 13:10:00","69724","5.0280000000000005","176.7","6.109","174.8","1018.919","20.93","81.6","533.1","0.0"],
    [1523228,"2026-06-06 13:20:00","69725","4.837","185.7","6.729","188.4","1018.901","21.08","80.3","469.2","0.0"],
    [1523229,"2026-06-06 13:30:00","69726","5.559","189.3","7.513","192.7","1018.845","21.13","79.91","434.5","0.0"],
    [1523230,"2026-06-06 13:40:00","69727","5.162000000000001","191.0","7.187","187.0","1018.889","21.25","79.67","573.9","0.0"],
    [1523231,"2026-06-06 13:50:00","69728","5.622999999999999","191.1","7.905","196.0","1018.826","21.5","78.46","505.4","0.0"],
    [1523232,"2026-06-06 14:00:00","69729","5.278","198.4","7.415","191.4","1018.814","21.51","78.41","678.7","0.0"],
    [1523233,"2026-06-06 14:10:00","69730","5.939","193.1","7.872999999999999","195.9","1018.847","21.64","77.87","419.0","0.0"],
    [1523234,"2026-06-06 14:20:00","69731","5.278","196.5","7.154","194.0","1018.865","21.65","79.22","443.5","0.0"],
    [1523235,"2026-06-06 14:30:00","69732","5.341","196.1","7.546","199.5","1018.821","21.64","79.58","386.5","0.0"],
    [1523236,"2026-06-06 14:40:00","69733","4.6610000000000005","201.4","7.056","197.0","1018.761","21.79","78.75","364.7","0.0"],
    [1523237,"2026-06-06 14:50:00","69734","3.872","206.7","5.912999999999999","199.3","1018.717","21.9","77.94","396.1","0.0"],
    [1523238,"2026-06-06 15:00:00","69735","3.863","208.6","5.684","191.8","1018.676","22.06","76.99","440.1","0.0"],
    [1523239,"2026-06-06 15:10:00","69736","2.873","220.0","5.292000000000001","215.1","1018.615","22.29","75.97","393.9","0.0"],
    [1523240,"2026-06-06 15:20:00","69737","3.515","221.8","5.815","222.0","1018.62","22.33","75.14","432.7","0.0"],
    [1523241,"2026-06-06 15:30:00","69738","3.3939999999999997","213.8","5.651","238.5","1018.624","22.74","73.43","624.5","0.0"],
    [1523242,"2026-06-06 15:40:00","69739","3.353","208.7","6.042999999999999","201.7","1018.67","23.07","71.1","574.8","0.0"],
    [1523243,"2026-06-06 15:50:00","69740","5.58","189.4","7.218999999999999","183.9","1018.45","22.45","75.52","448.1","0.0"],
    [1523244,"2026-06-06 16:00:00","69741","5.6370000000000005","189.9","6.893","192.3","1018.429","22.24","76.38","423.3","0.0"],
    [1523245,"2026-06-06 16:10:00","69742","5.5729999999999995","191.3","6.86","191.5","1018.531","22.31","75.57","406.6","0.0"],
    [1523246,"2026-06-06 16:20:00","69743","4.3069999999999995","198.6","6.011","215.7","1018.592","22.57","74.4","353.1","0.0"],
    [1523247,"2026-06-06 16:30:00","69744","5.37","195.0","6.729","191.8","1018.593","22.24","76.96","371.6","0.0"],
    [1523248,"2026-06-06 16:40:00","69745","5.675","195.9","7.611000000000001","190.5","1018.584","22.15","77.75","363.8","0.0"],
    [1523249,"2026-06-06 16:50:00","69746","4.928999999999999","197.7","6.9910000000000005","198.0","1018.63","22.16","78.1","338.0","0.0"],
    [1523250,"2026-06-06 17:00:00","69747","5.27","197.6","7.218999999999999","200.5","1018.709","22.13","78.16","379.9","0.0"],
    [1523251,"2026-06-06 17:10:00","69748","4.158","205.8","6.207000000000001","204.5","1018.707","22.23","77.96","284.9","0.0"],
    [1523252,"2026-06-06 17:20:00","69749","3.9410000000000003","213.4","5.945","226.0","1018.784","22.22","77.94","220.3","0.0"],
    [1523253,"2026-06-06 17:30:00","69750","3.0380000000000003","212.2","5.684","211.8","1018.891","22.22","78.5","178.6","0.0"],
    [1523254,"2026-06-06 17:40:00","69751","3.1310000000000002","207.4","5.194","190.9","1018.981","22.15","79.26","189.2","0.0"],
    [1523255,"2026-06-06 17:50:00","69752","3.367","205.8","5.422999999999999","207.7","1019.059","22.01","80.5","213.2","0.0"],
    [1523256,"2026-06-06 18:00:00","69753","3.8169999999999997","221.6","6.468","230.3","1019.192","22.06","79.73","200.3","0.0"],
    [1523257,"2026-06-06 18:10:00","69754","3.31","219.8","4.835","223.1","1019.329","22.05","80.1","123.9","0.0"],
    [1523258,"2026-06-06 18:20:00","69755","3.7969999999999997","220.1","5.978","226.4","1019.484","21.97","80.6","132.9","0.0"],
    [1523259,"2026-06-06 18:30:00","69756","3.3310000000000004","216.4","5.357","206.3","1019.575","21.91","81.3","67.53","0.0"],
    [1523260,"2026-06-06 18:40:00","69757","3.513","210.8","5.129","219.1","1019.676","21.75","82.4","67.0","0.0"],
    [1523261,"2026-06-06 18:50:00","69758","3.27","213.1","5.096","242.0","1019.799","21.66","83.0","59.91","0.0"],
    [1523262,"2026-06-06 19:00:00","69759","2.97","214.1","4.998","220.4","1019.867","21.59","83.4","34.0","0.0"],
    [1523263,"2026-06-06 19:10:00","69760","2.625","210.3","4.737","197.1","1019.897","21.56","83.6","0.0","0.0"],
    [1523264,"2026-06-06 19:20:00","69761","2.696","217.8","4.671","234.4","1020.098","21.53","83.9","0.0","0.0"],
    [1523265,"2026-06-06 19:30:00","69762","2.506","216.9","4.508","188.4","1020.207","21.52","84.3","0.0","0.0"],
    [1523266,"2026-06-06 19:40:00","69763","2.6430000000000002","222.9","4.606","229.8","1020.3","21.46","84.7","0.0","0.0"],
    [1523267,"2026-06-06 19:50:00","69764","2.262","213.8","3.92","214.1","1020.436","21.4","85.1","0.0","0.0"],
    [1523268,"2026-06-06 20:00:00","69765","2.628","211.6","4.1160000000000005","211.6","1020.476","21.39","85.4","0.0","0.0"],
    [1523269,"2026-06-06 20:10:00","69766","2.8680000000000003","204.9","4.933","193.0","1020.615","21.32","85.9","0.0","0.0"],
    [1523270,"2026-06-06 20:20:00","69767","2.4330000000000003","208.9","3.9530000000000003","215.8","1020.741","21.3","86.2","0.0","0.0"],
    [1523271,"2026-06-06 20:30:00","69768","2.351","207.2","4.2139999999999995","213.9","1020.908","21.3","86.5","0.0","0.0"],
    [1523272,"2026-06-06 20:40:00","69769","2.568","206.4","3.985","195.5","1021.079","21.28","86.8","0.0","0.0"],
    [1523273,"2026-06-06 20:50:00","69770","2.292","206.5","3.332","215.0","1021.173","21.25","87.1","0.0","0.0"],
    [1523274,"2026-06-06 21:00:00","69771","2.628","201.1","4.279","201.6","1021.35","21.24","87.3","0.0","0.0"],
    [1523275,"2026-06-06 21:10:00","69772","2.7560000000000002","198.6","4.2139999999999995","204.1","1021.548","21.21","87.4","0.0","0.0"],
    [1523276,"2026-06-06 21:20:00","69773","2.9210000000000003","198.4","4.377","199.1","1021.781","21.21","87.6","0.0","0.0"],
    [1523277,"2026-06-06 21:30:00","69774","2.812","193.0","4.083","193.7","1021.856","21.19","87.9","0.0","0.0"],
    [1523278,"2026-06-06 21:40:00","69775","2.603","202.4","4.279","220.6","1021.942","21.17","87.9","0.0","0.0"],
    [1523279,"2026-06-06 21:50:00","69776","2.1180000000000003","196.2","3.1689999999999996","190.2","1021.918","21.18","87.8","0.0","0.0"],
    [1523280,"2026-06-06 22:00:00","69777","2.889","200.7","4.1160000000000005","216.2","1021.989","21.17","87.5","0.0","0.0"],
    [1523281,"2026-06-06 22:10:00","69778","2.948","197.3","4.279","202.1","1022.02","21.16","86.9","0.0","0.0"],
    [1523282,"2026-06-06 22:20:00","69779","2.103","205.7","3.463","223.6","1022.164","21.19","86.5","0.0","0.0"],
    [1523283,"2026-06-06 22:30:00","69780","2.258","202.8","3.855","197.6","1022.192","21.19","86.1","0.0","0.0"],
    [1523284,"2026-06-06 22:40:00","69781","0.7879999999999999","217.8","2.319","213.4","1022.221","21.17","86.2","0.0","0.0"],
    [1523285,"2026-06-06 22:50:00","69782","1.3130000000000002","203.2","2.417","214.7","1022.358","21.13","86.3","0.0","0.0"],
    [1523286,"2026-06-06 23:00:00","69783","1.178","199.6","2.254","176.1","1022.426","21.06","86.4","0.0","0.0"],
    [1523287,"2026-06-06 23:10:00","69784","1.9180000000000001","203.4","3.136","218.3","1022.317","21.04","86.3","0.0","0.0"],
    [1523288,"2026-06-06 23:20:00","69785","1.454","201.2","2.45","219.7","1022.303","21.01","86.4","0.0","0.0"],
    [1523289,"2026-06-06 23:30:00","69786","0.289","226.2","1.111","349.4","1022.306","20.99","86.4","0.0","0.0"],
    [1523290,"2026-06-06 23:40:00","69787","0.002","240.5","0.261","235.1","1022.39","21.01","86.4","0.0","0.0"],
    [1523291,"2026-06-06 23:50:00","69788","0.17300000000000001","124.0","0.915","144.5","1022.446","20.97","86.4","0.0","0.0"],
    [1523292,"2026-06-07 00:00:00","69789","0.441","147.9","0.915","150.5","1022.435","20.95","86.2","0.0","0.0"],
    [1523293,"2026-06-07 00:10:00","69790","0.446","131.3","0.915","160.8","1022.38","20.95","86.1","0.0","0.0"],
    [1523294,"2026-06-07 00:20:00","69791","0.0","0.0","0.0","0.0","1022.396","20.95","86.0","0.0","0.0"],
    [1523295,"2026-06-07 00:30:00","69792","0.331","117.0","1.143","114.8","1022.343","20.92","86.1","0.0","0.0"],
    [1523296,"2026-06-07 00:40:00","69793","1.189","128.4","1.339","119.7","1022.365","20.91","86.3","0.0","0.0"],
    [1523297,"2026-06-07 00:50:00","69794","1.963","157.4","2.548","165.8","1022.341","20.87","86.4","0.0","0.0"],
    [1523298,"2026-06-07 01:00:00","69795","2.511","166.3","2.9730000000000003","164.1","1022.286","20.76","86.9","0.0","0.0"],
    [1523299,"2026-06-07 01:10:00","69796","1.9140000000000001","179.8","3.0380000000000003","167.4","1022.278","20.71","87.6","0.0","0.0"],
    [1523300,"2026-06-07 01:20:00","69797","0.764","216.3","1.666","182.3","1022.275","20.66","87.3","0.0","0.0"],
    [1523301,"2026-06-07 01:30:00","69798","1.081","198.8","1.895","196.5","1022.278","20.65","86.6","0.0","0.0"],
    [1523302,"2026-06-07 01:40:00","69799","0.354","191.3","1.307","196.8","1022.319","20.65","86.3","0.0","0.0"],
    [1523303,"2026-06-07 01:50:00","69800","0.0","0.0","0.0","0.0","1022.253","20.64","86.2","0.0","0.0"],
    [1523304,"2026-06-07 02:00:00","69801","0.33399999999999996","293.5","0.915","268.3","1022.228","20.69","85.9","0.0","0.0"],
    [1523305,"2026-06-07 02:10:00","69802","0.0","0.0","0.0","0.0","1022.26","20.69","85.8","0.0","0.0"],
    [1523306,"2026-06-07 02:20:00","69803","0.35","211.8","0.8170000000000001","235.9","1022.232","20.62","85.9","0.0","0.0"],
    [1523307,"2026-06-07 02:30:00","69804","0.084","22.09","0.588","61.13","1022.218","20.69","85.7","0.0","0.0"],
    [1523308,"2026-06-07 02:40:00","69805","0.203","304.1","0.6859999999999999","328.9","1022.139","20.64","86.2","0.0","0.0"],
    [1523309,"2026-06-07 02:50:00","69806","0.175","256.0","0.7190000000000001","255.2","1022.12","20.52","86.7","0.0","0.0"],
    [1523310,"2026-06-07 03:00:00","69807","0.535","306.8","0.784","340.9","1022.088","20.48","86.9","0.0","0.0"],
    [1523311,"2026-06-07 03:10:00","69808","0.165","247.2","0.915","251.7","1022.124","20.45","87.1","0.0","0.0"],
    [1523312,"2026-06-07 03:20:00","69809","1.153","32.43","2.156","42.26","1022.103","20.36","87.5","0.0","0.0"],
    [1523313,"2026-06-07 03:30:00","69810","1.34","47.55","2.123","46.3","1022.165","20.15","88.4","0.0","0.0"],
    [1523314,"2026-06-07 03:40:00","69811","0.54","47.23","1.535","46.59","1022.216","20.08","88.9","0.0","0.0"],
    [1523315,"2026-06-07 03:50:00","69812","0.0","0.0","0.0","0.0","1022.311","20.06","89.2","0.0","0.0"],
    [1523316,"2026-06-07 04:00:00","69813","0.653","50.48","1.209","57.55","1022.341","20.05","89.1","0.0","0.0"],
    [1523317,"2026-06-07 04:10:00","69814","0.401","44.56","0.915","52.45","1022.438","20.06","88.8","0.0","0.0"],
    [1523318,"2026-06-07 04:20:00","69815","0.0","0.0","0.0","0.0","1022.48","20.04","89.0","0.0","0.0"],
    [1523319,"2026-06-07 04:30:00","69816","0.0","0.0","0.0","0.0","1022.5","20.01","89.4","0.0","0.0"],
    [1523320,"2026-06-07 04:40:00","69817","0.045","291.1","0.588","291.4","1022.584","19.94","89.6","0.5870000000000001","0.0"],
    [1523321,"2026-06-07 04:50:00","69818","0.7140000000000001","278.7","1.143","260.6","1022.602","19.69","88.7","34.39","0.0"],
    [1523322,"2026-06-07 05:00:00","69819","0.993","268.0","1.7309999999999999","257.5","1022.796","19.65","87.6","61.2","0.0"],
    [1523323,"2026-06-07 05:10:00","69820","0.9520000000000001","258.3","1.5030000000000001","257.8","1022.937","19.79","86.6","67.1","0.0"],
    [1523324,"2026-06-07 05:20:00","69821","0.696","220.6","1.045","254.4","1023.012","19.99","85.7","94.8","0.0"],
    [1523325,"2026-06-07 05:30:00","69822","0.134","194.4","0.523","184.3","1023.093","20.22","85.2","117.1","0.0"],
    [1523326,"2026-06-07 05:40:00","69823","0.0","0.0","0.0","0.0","1023.223","20.51","84.6","135.7","0.0"],
    [1523327,"2026-06-07 05:50:00","69824","0.0","0.0","0.0","0.0","1023.288","20.78","83.0","186.8","0.0"],
    [1523328,"2026-06-07 06:00:00","69825","0.159","164.9","0.8490000000000001","151.5","1023.384","21.02","81.5","201.2","0.0"],
    [1523329,"2026-06-07 06:10:00","69826","0.768","179.5","1.4369999999999998","245.9","1023.448","20.64","82.8","251.3","0.0"],
    [1523330,"2026-06-07 06:20:00","69827","0.349","191.9","0.98","232.1","1023.417","20.81","81.2","268.2","0.0"],
    [1523331,"2026-06-07 06:30:00","69828","0.36200000000000004","154.8","1.045","151.5","1023.46","21.02","79.77","303.9","0.0"],
    [1523332,"2026-06-07 06:40:00","69829","0.958","149.2","1.143","145.6","1023.579","20.99","79.57","335.3","0.0"],
    [1523333,"2026-06-07 06:50:00","69830","1.085","151.3","1.405","155.7","1023.681","20.85","80.5","357.4","0.0"],
    [1523334,"2026-06-07 07:00:00","69831","0.97","154.3","1.078","154.6","1023.787","20.87","80.5","391.4","0.0"],
    [1523335,"2026-06-07 07:10:00","69832","1.236","152.0","1.5030000000000001","147.6","1023.844","20.97","79.82","416.8","0.0"],
    [1523336,"2026-06-07 07:20:00","69833","1.192","147.4","1.699","136.5","1023.918","21.06","79.88","435.8","0.0"],
    [1523337,"2026-06-07 07:30:00","69834","1.035","137.7","1.5030000000000001","153.7","1023.936","21.1","79.14","455.5","0.0"],
    [1523338,"2026-06-07 07:40:00","69835","1.3769999999999998","128.9","1.8619999999999999","134.0","1023.953","21.25","76.87","502.8","0.0"],
    [1523339,"2026-06-07 07:50:00","69836","1.386","117.4","1.9269999999999998","112.1","1024.081","21.34","71.35","538.5","0.0"],
    [1523340,"2026-06-07 08:00:00","69837","1.699","123.0","2.385","133.2","1024.169","21.42","70.74","507.0","0.0"],
    [1523341,"2026-06-07 08:10:00","69838","1.9980000000000002","132.6","2.385","135.9","1024.212","21.15","74.99","528.2","0.0"],
    [1523342,"2026-06-07 08:20:00","69839","1.979","137.5","2.548","148.7","1024.268","21.1","74.15","586.8","0.0"],
    [1523343,"2026-06-07 08:30:00","69840","1.9969999999999999","143.0","2.515","145.1","1024.331","21.13","71.23","632.2","0.0"],
    [1523344,"2026-06-07 08:40:00","69841","2.5660000000000003","153.5","3.234","154.1","1024.384","21.22","70.31","676.6","0.0"],
    [1523345,"2026-06-07 08:50:00","69842","2.863","156.7","4.2139999999999995","161.8","1024.436","21.05","75.47","713.6","0.0"],
    [1523346,"2026-06-07 09:00:00","69843","3.049","159.7","3.7889999999999997","160.4","1024.501","20.95","76.4","698.6","0.0"],
    [1523347,"2026-06-07 09:10:00","69844","3.174","164.5","3.528","167.4","1024.558","21.04","75.93","709.8","0.0"],
    [1523348,"2026-06-07 09:20:00","69845","3.1289999999999996","168.2","3.528","169.9","1024.627","21.04","77.71","741.6","0.0"],
    [1523349,"2026-06-07 09:30:00","69846","3.195","171.9","3.6910000000000003","173.6","1024.681","21.16","79.86","782.3","0.0"],
    [1523350,"2026-06-07 09:40:00","69847","3.3989999999999996","169.0","3.822","167.9","1024.683","21.27","82.0","750.6","0.0"],
    [1523351,"2026-06-07 09:50:00","69848","3.4339999999999997","167.9","4.083","167.6","1024.687","21.17","82.7","789.5","0.0"],
    [1523352,"2026-06-07 10:00:00","69849","3.795","169.4","4.149","166.1","1024.716","21.22","82.9","827.0","0.0"],
    [1523353,"2026-06-07 10:10:00","69850","3.556","168.7","3.855","168.7","1024.787","21.28","83.5","835.0","0.0"],
    [1523354,"2026-06-07 10:20:00","69851","3.52","170.5","4.1160000000000005","168.2","1024.792","21.32","84.4","789.9","0.0"],
    [1523355,"2026-06-07 10:30:00","69852","3.59","169.3","4.312","167.9","1024.842","21.34","84.3","827.0","0.0"],
    [1523356,"2026-06-07 10:40:00","69853","4.18","170.7","5.292000000000001","176.3","1024.761","21.43","81.9","894.0","0.0"],
    [1523357,"2026-06-07 10:50:00","69854","3.8789999999999996","172.2","4.737","172.5","1024.715","21.55","80.8","905.0","0.0"],
    [1523358,"2026-06-07 11:00:00","69855","3.707","172.9","4.835","174.8","1024.683","21.64","78.55","910.0","0.0"],
    [1523359,"2026-06-07 11:10:00","69856","3.827","169.9","4.704","171.7","1024.62","21.71","76.52","898.0","0.0"],
    [1523360,"2026-06-07 11:20:00","69857","3.7969999999999997","169.1","4.769","171.5","1024.461","21.74","76.65","905.0","0.0"],
    [1523361,"2026-06-07 11:30:00","69858","4.308","166.1","4.704","170.7","1024.197","21.56","79.42","907.0","0.0"],
    [1523362,"2026-06-07 11:40:00","69859","4.09","161.2","4.998","158.3","1024.071","21.48","77.39","920.0","0.0"],
    [1523363,"2026-06-07 11:50:00","69860","3.616","154.6","4.247","153.6","1023.943","21.56","76.41","908.0","0.0"],
    [1523364,"2026-06-07 12:00:00","69861","3.8110000000000004","154.9","4.933","158.9","1023.849","21.54","74.7","951.0","0.0"],
    [1523365,"2026-06-07 12:10:00","69862","4.342","157.1","5.063","156.9","1023.666","21.5","72.63","970.0","0.0"],
    [1523366,"2026-06-07 12:20:00","69863","4.001","155.4","4.606","156.1","1023.472","21.51","69.74","855.0","0.0"],
    [1523367,"2026-06-07 12:30:00","69864","3.975","153.9","4.671","154.0","1023.309","21.55","69.26","930.0","0.0"],
    [1523368,"2026-06-07 12:40:00","69865","4.141","158.4","4.802","158.9","1023.272","21.48","70.95","728.0","0.0"],
    [1523369,"2026-06-07 12:50:00","69866","4.039","160.6","4.737","155.9","1023.185","21.47","71.37","725.7","0.0"],
    [1523370,"2026-06-07 13:00:00","69867","4.504","158.3","5.292000000000001","162.9","1023.129","21.42","71.2","902.0","0.0"],
    [1523371,"2026-06-07 13:10:00","69868","4.923","153.1","5.651","151.7","1023.047","21.5","65.19","943.0","0.0"],
    [1523372,"2026-06-07 13:20:00","69869","4.798","152.2","5.4879999999999995","155.3","1023.028","21.46","65.34","904.0","0.0"],
    [1523373,"2026-06-07 13:30:00","69870","4.836","157.3","5.455","158.7","1022.991","21.43","66.23","895.0","0.0"],
    [1523374,"2026-06-07 13:40:00","69871","4.7219999999999995","159.3","5.619","166.1","1022.991","21.37","65.52","855.0","0.0"],
    [1523375,"2026-06-07 13:50:00","69872","4.728","161.9","5.619","155.8","1022.923","21.38","65.22","838.0","0.0"],
    [1523376,"2026-06-07 14:00:00","69873","5.082","162.0","5.815","165.1","1022.838","21.38","66.11","838.0","0.0"],
    [1523377,"2026-06-07 14:10:00","69874","4.931","162.5","5.847","162.4","1022.698","21.34","65.53","822.0","0.0"],
    [1523378,"2026-06-07 14:20:00","69875","4.063","159.1","5.325","168.2","1022.586","21.34","65.83","771.2","0.0"],
    [1523379,"2026-06-07 14:30:00","69876","3.6710000000000003","162.6","4.377","169.8","1022.448","21.39","66.31","771.2","0.0"],
    [1523380,"2026-06-07 14:40:00","69877","2.736","158.8","3.6910000000000003","159.3","1022.409","21.41","66.3","736.9","0.0"],
    [1523381,"2026-06-07 14:50:00","69878","3.1210000000000004","160.4","3.92","162.9","1022.318","21.43","66.28","704.1","0.0"],
    [1523382,"2026-06-07 15:00:00","69879","3.355","162.0","4.149","163.8","1022.2","21.47","66.26","704.0","0.0"],
    [1523383,"2026-06-07 15:10:00","69880","3.437","165.4","4.051","169.8","1022.212","21.48","67.04","642.2","0.0"],
    [1523384,"2026-06-07 15:20:00","69881","4.0089999999999995","169.8","4.638999999999999","172.7","1022.167","21.49","67.8","636.9","0.0"],
    [1523385,"2026-06-07 15:30:00","69882","4.606","171.9","5.227","175.9","1022.225","21.47","68.24","613.8","0.0"],
    [1523386,"2026-06-07 15:40:00","69883","4.463","174.8","5.357","173.9","1022.205","21.5","67.7","569.9","0.0"],
    [1523387,"2026-06-07 15:50:00","69884","4.1","179.0","5.194","167.5","1022.166","21.56","67.87","565.4","0.0"],
    [1523388,"2026-06-07 16:00:00","69885","4.004","179.7","5.292000000000001","180.6","1022.101","21.62","68.33","503.0","0.0"],
    [1523389,"2026-06-07 16:10:00","69886","4.011","182.1","4.867","169.6","1022.024","21.6","68.11","502.9","0.0"],
    [1523390,"2026-06-07 16:20:00","69887","3.9330000000000003","186.9","4.9","194.9","1021.999","21.67","68.27","443.7","0.0"],
    [1523391,"2026-06-07 16:30:00","69888","4.0889999999999995","186.3","5.096","193.9","1021.94","21.67","67.55","435.8","0.0"],
    [1523392,"2026-06-07 16:40:00","69889","4.038","176.7","4.671","166.4","1021.815","21.64","68.28","410.5","0.0"],
    [1523393,"2026-06-07 16:50:00","69890","4.105","177.9","5.325","177.0","1021.731","21.6","68.14","402.3","0.0"],
    [1523394,"2026-06-07 17:00:00","69891","4.401","172.7","5.129","174.0","1021.696","21.57","67.87","359.7","0.0"],
    [1523395,"2026-06-07 17:10:00","69892","4.256","174.5","4.867","170.7","1021.678","21.6","67.64","335.2","0.0"],
    [1523396,"2026-06-07 17:20:00","69893","4.198","172.5","4.867","178.1","1021.606","21.56","69.02","291.6","0.0"],
    [1523397,"2026-06-07 17:30:00","69894","4.515","172.4","5.096","171.9","1021.535","21.54","68.57","268.2","0.0"],
    [1523398,"2026-06-07 17:40:00","69895","4.428","174.4","5.1610000000000005","175.1","1021.519","21.55","68.77","237.0","0.0"],
    [1523399,"2026-06-07 17:50:00","69896","4.3180000000000005","175.3","5.1610000000000005","175.5","1021.36","21.64","69.06","201.2","0.0"],
    [1523400,"2026-06-07 18:00:00","69897","4.273","173.1","4.802","172.9","1021.238","21.59","68.67","175.7","0.0"],
    [1523401,"2026-06-07 18:10:00","69898","3.767","177.7","4.606","188.7","1021.291","21.61","68.19","134.1","0.0"],
    [1523402,"2026-06-07 18:20:00","69899","3.458","186.6","4.247","191.1","1021.347","21.73","67.37","134.1","0.0"],
    [1523403,"2026-06-07 18:30:00","69900","3.397","187.7","4.345","194.8","1021.28","21.75","65.44","76.56","0.0"],
    [1523404,"2026-06-07 18:40:00","69901","3.1830000000000003","183.1","4.508","183.7","1021.237","21.82","64.87","67.06","0.0"],
    [1523405,"2026-06-07 18:50:00","69902","3.092","185.8","3.9530000000000003","188.5","1021.227","21.86","64.47","66.97","0.0"],
    [1523406,"2026-06-07 19:00:00","69903","3.4130000000000003","198.2","4.541","192.6","1021.234","22.04","61.32","10.23","0.0"],
    [1523407,"2026-06-07 19:10:00","69904","2.82","199.6","3.855","204.0","1021.225","22.05","61.74","0.0","0.0"],
    [1523408,"2026-06-07 19:20:00","69905","2.0469999999999997","201.5","3.495","221.5","1021.202","21.99","62.24","0.0","0.0"],
    [1523409,"2026-06-07 19:30:00","69906","1.504","218.3","3.071","214.4","1021.232","21.97","61.98","0.0","0.0"],
    [1523410,"2026-06-07 19:40:00","69907","0.7490000000000001","214.3","1.601","210.2","1021.234","21.99","62.28","0.0","0.0"],
    [1523411,"2026-06-07 19:50:00","69908","0.632","216.7","1.666","232.7","1021.227","21.98","61.73","0.0","0.0"],
    [1523412,"2026-06-07 20:00:00","69909","0.975","238.6","2.352","264.8","1021.248","21.99","60.6","0.0","0.0"],
    [1523413,"2026-06-07 20:10:00","69910","0.743","226.0","1.797","272.2","1021.319","22.05","60.59","0.0","0.0"],
    [1523414,"2026-06-07 20:20:00","69911","1.133","222.4","2.221","256.3","1021.433","22.02","62.01","0.0","0.0"],
    [1523415,"2026-06-07 20:30:00","69912","1.014","246.5","1.9269999999999998","268.0","1021.413","22.04","62.24","0.0","0.0"],
    [1523416,"2026-06-07 20:40:00","69913","0.494","221.3","1.2409999999999999","249.8","1021.508","22.08","62.08","0.0","0.0"],
    [1523417,"2026-06-07 20:50:00","69914","0.207","212.5","0.9470000000000001","257.6","1021.602","21.97","63.02","0.0","0.0"],
    [1523418,"2026-06-07 21:00:00","69915","0.212","271.7","0.784","312.1","1021.621","21.9","63.55","0.0","0.0"],
    [1523419,"2026-06-07 21:10:00","69916","0.309","308.1","1.143","303.8","1021.643","21.85","63.38","0.0","0.0"],
    [1523420,"2026-06-07 21:20:00","69917","0.032","294.3","0.653","296.6","1021.654","21.8","64.09","0.0","0.0"],
    [1523421,"2026-06-07 21:30:00","69918","0.12300000000000001","137.0","0.588","133.2","1021.599","21.72","63.65","0.0","0.0"],
    [1523422,"2026-06-07 21:40:00","69919","0.153","182.0","0.588","181.5","1021.587","21.68","63.88","0.0","0.0"],
    [1523423,"2026-06-07 21:50:00","69920","0.359","194.6","0.8170000000000001","200.0","1021.652","21.69","64.97","0.0","0.0"],
    [1523424,"2026-06-07 22:00:00","69921","0.8909999999999999","184.9","1.176","172.8","1021.585","21.57","65.94","0.0","0.0"],
    [1523425,"2026-06-07 22:10:00","69922","0.7140000000000001","190.7","1.013","201.6","1021.44","21.65","64.59","0.0","0.0"],
    [1523426,"2026-06-07 22:20:00","69923","0.441","209.8","1.143","214.1","1021.363","21.73","60.73","0.0","0.0"],
    [1523427,"2026-06-07 22:30:00","69924","1.334","189.0","1.96","181.2","1021.312","21.71","63.35","0.0","0.0"],
    [1523428,"2026-06-07 22:40:00","69925","1.301","187.5","1.829","187.7","1021.207","21.53","64.59","0.0","0.0"],
    [1523429,"2026-06-07 22:50:00","69926","1.061","189.1","1.797","185.9","1021.185","21.52","65.54","0.0","0.0"],
    [1523430,"2026-06-07 23:00:00","69927","0.39799999999999996","188.8","1.078","187.2","1021.238","21.46","63.96","0.0","0.0"],
    [1523431,"2026-06-07 23:10:00","69928","0.29600000000000004","253.5","0.98","227.6","1021.122","21.53","61.5","0.0","0.0"],
    [1523432,"2026-06-07 23:20:00","69929","1.088","260.4","1.535","277.1","1021.168","21.51","61.42","0.0","0.0"],
    [1523433,"2026-06-07 23:30:00","69930","0.9640000000000001","258.6","1.7309999999999999","268.7","1021.221","21.15","63.81","0.0","0.0"],
    [1523434,"2026-06-07 23:40:00","69931","0.575","232.6","1.568","244.2","1021.189","21.09","62.7","0.0","0.0"],
    [1523435,"2026-06-07 23:50:00","69932","0.732","273.3","1.47","265.9","1021.2","21.15","61.83","0.0","0.0"],
    [1523436,"2026-06-08 00:00:00","69933","1.2790000000000001","269.5","1.764","259.6","1021.175","21.13","61.93","0.0","0.0"],
    [1523437,"2026-06-08 00:10:00","69934","1.486","267.3","1.7309999999999999","260.9","1021.116","21.08","62.67","0.0","0.0"],
    [1523438,"2026-06-08 00:20:00","69935","1.784","266.2","2.156","261.1","1021.046","20.97","61.85","0.0","0.0"],
    [1523439,"2026-06-08 00:30:00","69936","1.926","264.7","2.221","268.6","1021.019","20.88","61.78","0.0","0.0"],
    [1523440,"2026-06-08 00:40:00","69937","1.67","264.4","2.254","263.8","1020.87","20.85","60.88","0.0","0.0"],
    [1523441,"2026-06-08 00:50:00","69938","1.761","273.4","2.221","280.7","1020.796","20.86","60.47","0.0","0.0"],
    [1523442,"2026-06-08 01:00:00","69939","1.8090000000000002","268.8","2.0909999999999997","271.1","1020.701","20.79","60.56","0.0","0.0"],
    [1523443,"2026-06-08 01:10:00","69940","1.611","266.3","1.96","269.6","1020.567","20.61","60.85","0.0","0.0"],
    [1523444,"2026-06-08 01:20:00","69941","1.755","260.5","2.123","264.8","1020.499","20.5","61.41","0.0","0.0"],
    [1523445,"2026-06-08 01:30:00","69942","1.653","259.9","2.189","263.7","1020.455","20.34","61.74","0.0","0.0"],
    [1523446,"2026-06-08 01:40:00","69943","1.8119999999999998","262.1","2.45","266.3","1020.35","20.2","61.58","0.0","0.0"],
    [1523447,"2026-06-08 01:50:00","69944","2.104","260.5","2.45","261.6","1020.19","20.03","62.63","0.0","0.0"],
    [1523448,"2026-06-08 02:00:00","69945","2.412","264.7","2.7769999999999997","274.5","1020.044","19.94","63.27","0.0","0.0"],
    [1523449,"2026-06-08 02:10:00","69946","2.454","263.6","3.1689999999999996","261.6","1019.955","19.84","64.27","0.0","0.0"],
    [1523450,"2026-06-08 02:20:00","69947","2.305","265.8","2.7769999999999997","263.6","1019.881","19.81","64.26","0.0","0.0"],
    [1523451,"2026-06-08 02:30:00","69948","2.053","265.2","2.875","266.9","1019.808","19.71","64.58","0.0","0.0"],
    [1523452,"2026-06-08 02:40:00","69949","1.7280000000000002","269.5","2.45","268.5","1019.706","19.77","64.39","0.0","0.0"],
    [1523453,"2026-06-08 02:50:00","69950","1.568","275.3","2.156","267.4","1019.596","19.75","64.48","0.0","0.0"],
    [1523454,"2026-06-08 03:00:00","69951","1.347","251.4","2.123","257.7","1019.567","19.78","64.52","0.0","0.0"],
    [1523455,"2026-06-08 03:10:00","69952","1.439","270.5","2.221","267.2","1019.475","19.74","65.53","0.0","0.0"],
    [1523456,"2026-06-08 03:20:00","69953","2.026","261.3","2.6460000000000004","272.0","1019.42","19.42","66.77","0.0","0.0"],
    [1523457,"2026-06-08 03:30:00","69954","2.319","263.0","2.7769999999999997","261.3","1019.399","19.3","67.08","0.0","0.0"],
    [1523458,"2026-06-08 03:40:00","69955","1.222","278.9","2.352","276.8","1019.286","19.2","67.95","0.0","0.0"],
    [1523459,"2026-06-08 03:50:00","69956","0.764","285.6","1.209","300.6","1019.239","19.28","67.41","0.0","0.0"],
    [1523460,"2026-06-08 04:00:00","69957","0.654","259.5","1.078","243.1","1019.185","19.5","66.29","0.0","0.0"],
    [1523461,"2026-06-08 04:10:00","69958","0.943","273.6","1.47","277.3","1019.075","19.36","66.98","0.0","0.0"],
    [1523462,"2026-06-08 04:20:00","69959","0.93","285.1","1.4369999999999998","278.5","1019.007","19.35","67.24","0.0","0.0"],
    [1523463,"2026-06-08 04:30:00","69960","0.502","264.6","0.7509999999999999","288.8","1018.941","19.5","67.21","0.0","0.0"],
    [1523464,"2026-06-08 04:40:00","69961","0.88","255.3","1.405","257.5","1018.941","19.55","67.64","0.0","0.0"],
    [1523465,"2026-06-08 04:50:00","69962","0.9990000000000001","271.8","1.209","280.6","1018.825","19.58","67.76","34.84","0.0"],
    [1523466,"2026-06-08 05:00:00","69963","1.008","263.4","1.2409999999999999","268.9","1018.773","19.74","66.17","50.33","0.0"],
    [1523467,"2026-06-08 05:10:00","69964","0.6709999999999999","261.9","1.045","270.8","1018.764","19.97","65.75","67.1","0.0"],
    [1523468,"2026-06-08 05:20:00","69965","0.992","264.7","1.47","272.3","1018.74","20.12","65.14","93.0","0.0"],
    [1523469,"2026-06-08 05:30:00","69966","0.9990000000000001","273.7","1.405","290.0","1018.837","20.28","65.24","125.7","0.0"],
    [1523470,"2026-06-08 05:40:00","69967","0.996","272.2","1.797","264.7","1018.889","20.54","63.72","136.5","0.0"],
    [1523471,"2026-06-08 05:50:00","69968","0.9640000000000001","254.8","1.47","248.0","1018.933","20.81","62.51","199.4","0.0"],
    [1523472,"2026-06-08 06:00:00","69969","0.965","245.5","1.764","265.1","1018.875","21.01","61.8","201.2","0.0"],
    [1523473,"2026-06-08 06:10:00","69970","0.763","223.9","1.339","214.3","1018.959","21.31","60.61","251.8","0.0"],
    [1523474,"2026-06-08 06:20:00","69971","0.664","226.3","1.307","174.4","1019.036","21.47","59.39","268.2","0.0"],
    [1523475,"2026-06-08 06:30:00","69972","0.18100000000000002","148.4","0.621","140.7","1019.049","22.06","58.1","306.6","0.0"],
    [1523476,"2026-06-08 06:40:00","69973","0.628","147.0","1.078","145.6","1019.007","21.96","58.29","335.2","0.0"],
    [1523477,"2026-06-08 06:50:00","69974","1.022","136.8","1.2409999999999999","137.4","1019.044","21.71","58.65","374.8","0.0"],
    [1523478,"2026-06-08 07:00:00","69975","1.081","145.4","1.535","142.6","1019.043","21.86","59.72","402.3","0.0"],
    [1523479,"2026-06-08 07:10:00","69976","1.6669999999999998","144.3","2.156","144.4","1019.07","21.59","64.33","417.1","0.0"],
    [1523480,"2026-06-08 07:20:00","69977","2.085","138.9","2.483","138.0","1019.109","21.49","64.87","435.7","0.0"],
    [1523481,"2026-06-08 07:30:00","69978","3.2","150.4","4.247","148.8","1019.236","21.42","64.91","468.2","0.0"],
    [1523482,"2026-06-08 07:40:00","69979","3.7430000000000003","153.9","4.149","155.6","1019.302","21.41","67.25","502.8","0.0"],
    [1523483,"2026-06-08 07:50:00","69980","3.985","155.8","4.508","150.5","1019.404","21.34","69.1","523.0","0.0"],
    [1523484,"2026-06-08 08:00:00","69981","4.581","154.2","5.1610000000000005","154.2","1019.523","21.32","72.27","569.9","0.0"],
    [1523485,"2026-06-08 08:10:00","69982","4.189","166.0","4.737","164.2","1019.555","21.21","75.41","572.2","0.0"],
    [1523486,"2026-06-08 08:20:00","69983","3.45","168.4","4.018","171.8","1019.539","21.11","76.71","633.6","0.0"],
    [1523487,"2026-06-08 08:30:00","69984","3.196","166.4","3.7569999999999997","166.8","1019.544","21.13","76.41","637.0","0.0"],
    [1523488,"2026-06-08 08:40:00","69985","3.5460000000000003","165.2","4.1160000000000005","165.3","1019.524","21.18","76.74","673.6","0.0"],
    [1523489,"2026-06-08 08:50:00","69986","3.5380000000000003","171.7","4.2139999999999995","172.2","1019.519","21.19","76.11","704.1","0.0"],
    [1523490,"2026-06-08 09:00:00","69987","3.991","173.3","4.835","175.6","1019.446","21.25","75.11","707.6","0.0"],
    [1523491,"2026-06-08 09:10:00","69988","3.78","173.4","4.377","170.5","1019.397","21.29","75.42","768.7","0.0"],
    [1523492,"2026-06-08 09:20:00","69989","4.393","170.3","4.867","172.7","1019.349","21.31","75.2","771.1","0.0"],
    [1523493,"2026-06-08 09:30:00","69990","4.228","172.3","4.671","170.6","1019.307","21.41","75.04","775.0","0.0"],
    [1523494,"2026-06-08 09:40:00","69991","4.356","173.1","5.096","175.0","1019.285","21.39","76.72","836.0","0.0"],
    [1523495,"2026-06-08 09:50:00","69992","4.808","175.9","5.782","171.9","1019.269","21.49","75.32","838.0","0.0"],
    [1523496,"2026-06-08 10:00:00","69993","4.539","178.9","5.39","178.4","1019.264","21.66","74.32","838.0","0.0"],
    [1523497,"2026-06-08 10:10:00","69994","4.635","178.4","5.4879999999999995","176.2","1019.273","21.65","74.72","843.0","0.0"],
    [1523498,"2026-06-08 10:20:00","69995","4.303","179.9","5.325","175.4","1019.279","21.73","73.52","897.0","0.0"],
    [1523499,"2026-06-08 10:30:00","69996","4.516","178.2","5.357","176.1","1019.284","21.75","73.78","905.0","0.0"],
    [1523500,"2026-06-08 10:40:00","69997","5.01","177.0","5.782","174.9","1019.338","21.71","73.83","905.0","0.0"],
    [1523501,"2026-06-08 10:50:00","69998","5.2620000000000005","174.2","5.945","175.4","1019.413","21.79","72.62","905.0","0.0"],
    [1523502,"2026-06-08 11:00:00","69999","5.287999999999999","175.5","5.945","176.4","1019.44","21.75","74.06","905.0","0.0"],
    [1523503,"2026-06-08 11:10:00","70000","4.876","174.8","5.7170000000000005","175.3","1019.416","21.78","73.0","905.0","0.0"],
    [1523504,"2026-06-08 11:20:00","70001","4.54","177.6","5.553","172.7","1019.363","21.91","71.79","919.0","0.0"],
    [1523505,"2026-06-08 11:30:00","70002","5.393","178.1","6.631","177.7","1019.295","21.92","72.19","947.0","0.0"],
    [1523506,"2026-06-08 11:40:00","70003","5.153","179.7","6.1739999999999995","180.2","1019.265","22.13","74.69","970.0","0.0"],
    [1523507,"2026-06-08 11:50:00","70004","5.0889999999999995","182.3","6.337000000000001","189.2","1019.217","21.94","77.07","972.0","0.0"],
    [1523508,"2026-06-08 12:00:00","70005","5.157","183.2","6.664","179.7","1019.168","21.95","76.39","969.0","0.0"],
    [1523509,"2026-06-08 12:10:00","70006","5.334","176.3","6.501","171.6","1019.064","21.91","76.93","966.0","0.0"],
    [1523510,"2026-06-08 12:20:00","70007","5.38","175.5","6.7620000000000005","174.6","1018.994","21.79","78.11","942.0","0.0"],
    [1523511,"2026-06-08 12:30:00","70008","4.646","182.1","5.815","175.3","1018.927","21.92","76.91","909.0","0.0"],
    [1523512,"2026-06-08 12:40:00","70009","4.631","178.9","6.239","174.7","1018.826","21.96","77.63","905.0","0.0"],
    [1523513,"2026-06-08 12:50:00","70010","4.795","177.6","6.042999999999999","175.8","1018.666","21.86","78.14","905.0","0.0"],
    [1523514,"2026-06-08 13:00:00","70011","4.947","175.3","5.978","174.3","1018.567","21.84","78.49","905.0","0.0"],
    [1523515,"2026-06-08 13:10:00","70012","4.583","173.6","5.325","173.3","1018.437","21.77","78.97","905.0","0.0"],
    [1523516,"2026-06-08 13:20:00","70013","4.766","170.4","5.651","172.0","1018.338","21.73","79.16","905.0","0.0"],
    [1523517,"2026-06-08 13:30:00","70014","5.012","169.5","5.619","170.7","1018.201","21.75","79.1","879.0","0.0"],
    [1523518,"2026-06-08 13:40:00","70015","5.321000000000001","171.1","6.011","169.8","1018.116","21.77","78.28","838.0","0.0"],
    [1523519,"2026-06-08 13:50:00","70016","5.062","169.4","5.847","172.0","1018.082","21.81","79.34","838.0","0.0"],
    [1523520,"2026-06-08 14:00:00","70017","5.2620000000000005","172.5","5.912999999999999","172.7","1018.001","21.74","81.3","838.0","0.0"],
    [1523521,"2026-06-08 14:10:00","70018","5.228","174.3","6.109","171.4","1017.863","21.8","81.2","796.5","0.0"],
    [1523522,"2026-06-08 14:20:00","70019","5.254","174.9","5.978","169.9","1017.776","21.77","81.8","771.2","0.0"],
    [1523523,"2026-06-08 14:30:00","70020","5.138999999999999","173.8","5.912999999999999","174.8","1017.638","21.78","81.4","771.2","0.0"],
    [1523524,"2026-06-08 14:40:00","70021","5.563","174.8","6.337000000000001","173.7","1017.539","21.79","81.1","738.8","0.0"],
    [1523525,"2026-06-08 14:50:00","70022","5.292000000000001","178.0","6.141","175.3","1017.44","21.86","80.5","704.1","0.0"],
    [1523526,"2026-06-08 15:00:00","70023","5.162000000000001","177.1","6.109","177.1","1017.335","21.91","81.2","702.1","0.0"],
    [1523527,"2026-06-08 15:10:00","70024","5.507000000000001","173.9","6.272","171.8","1017.182","21.84","81.7","647.2","0.0"],
    [1523528,"2026-06-08 15:20:00","70025","5.756","172.4","6.631","176.2","1017.162","21.79","82.1","637.0","0.0"],
    [1523529,"2026-06-08 15:30:00","70026","5.579","171.1","6.599","173.8","1017.098","21.74","82.5","614.0","0.0"],
    [1523530,"2026-06-08 15:40:00","70027","5.388","173.8","6.631","186.1","1017.072","21.78","81.9","570.0","0.0"],
    [1523531,"2026-06-08 15:50:00","70028","5.478","173.6","6.305","176.6","1017.019","21.83","82.0","562.3","0.0"],
    [1523532,"2026-06-08 16:00:00","70029","5.646","175.6","6.566","172.6","1016.833","21.94","80.9","504.5","0.0"],
    [1523533,"2026-06-08 16:10:00","70030","5.638","177.3","6.729","176.0","1016.723","22.05","80.9","500.0","0.0"],
    [1523534,"2026-06-08 16:20:00","70031","5.346","179.1","6.37","174.5","1016.544","22.19","79.57","441.7","0.0"],
    [1523535,"2026-06-08 16:30:00","70032","5.119","180.8","6.239","181.1","1016.461","22.25","79.48","435.6","0.0"],
    [1523536,"2026-06-08 16:40:00","70033","5.186","181.9","6.501","189.3","1016.427","22.46","77.19","404.6","0.0"],
    [1523537,"2026-06-08 16:50:00","70034","4.716","180.9","5.945","194.9","1016.334","22.75","74.6","402.3","0.0"],
    [1523538,"2026-06-08 17:00:00","70035","4.638999999999999","180.3","5.684","181.6","1016.274","22.51","77.03","349.8","0.0"],
    [1523539,"2026-06-08 17:10:00","70036","4.388","180.8","5.357","177.2","1016.237","22.55","76.9","335.3","0.0"],
    [1523540,"2026-06-08 17:20:00","70037","4.109","182.7","5.815","188.0","1016.186","22.71","73.97","286.2","0.0"],
    [1523541,"2026-06-08 17:30:00","70038","3.59","189.5","4.835","192.1","1016.264","23.45","67.16","268.2","0.0"],
    [1523542,"2026-06-08 17:40:00","70039","2.013","197.8","3.6260000000000003","181.0","1016.242","24.0","62.8","222.7","0.0"],
    [1523543,"2026-06-08 17:50:00","70040","1.263","233.6","3.136","220.3","1016.228","24.97","54.65","201.1","0.0"],
    [1523544,"2026-06-08 18:00:00","70041","2.589","257.4","4.737","265.4","1016.336","25.52","52.07","168.6","0.0"],
    [1523545,"2026-06-08 18:10:00","70042","2.086","255.7","4.083","278.0","1016.277","25.54","51.92","130.9","0.0"],
    [1523546,"2026-06-08 18:20:00","70043","2.08","246.0","3.495","255.9","1016.233","25.72","49.98","115.1","0.0"],
    [1523547,"2026-06-08 18:30:00","70044","2.086","234.6","3.7889999999999997","177.2","1016.167","25.83","48.55","67.04","0.0"],
    [1523548,"2026-06-08 18:40:00","70045","3.028","186.7","4.737","179.2","1016.099","23.39","74.49","50.64","0.0"],
    [1523549,"2026-06-08 18:50:00","70046","3.035","188.1","4.345","178.6","1016.07","22.63","80.0","0.11199999999999999","0.0"],
    [1523550,"2026-06-08 19:00:00","70047","3.0210000000000004","187.4","4.4430000000000005","187.1","1015.989","22.29","81.5","0.223","0.0"],
    [1523551,"2026-06-08 19:10:00","70048","2.542","183.7","3.92","175.6","1015.867","22.19","81.7","0.0","0.0"],
    [1523552,"2026-06-08 19:20:00","70049","2.7","183.8","3.7569999999999997","184.6","1015.959","22.07","80.6","0.0","0.0"],
    [1523553,"2026-06-08 19:30:00","70050","2.938","184.4","3.855","184.1","1016.065","22.31","77.13","0.0","0.0"],
    [1523554,"2026-06-08 19:40:00","70051","2.2569999999999997","180.3","3.201","180.2","1016.14","22.29","80.7","0.0","0.0"],
    [1523555,"2026-06-08 19:50:00","70052","2.7760000000000002","157.0","3.92","149.8","1016.291","22.12","82.4","0.0","0.0"],
    [1523556,"2026-06-08 20:00:00","70053","3.26","147.2","4.181","158.7","1016.446","22.02","85.2","0.0","0.0"],
    [1523557,"2026-06-08 20:10:00","70054","2.23","103.2","3.463","81.2","1016.709","21.9","87.4","0.0","0.0"],
    [1523558,"2026-06-08 20:20:00","70055","2.572","118.9","3.136","114.2","1016.841","21.77","88.2","0.0","0.0"],
    [1523559,"2026-06-08 20:30:00","70056","1.64","121.4","2.907","124.9","1017.065","21.72","87.9","0.0","0.0"],
    [1523560,"2026-06-08 20:40:00","70057","2.336","65.13","3.5610000000000004","56.19","1017.353","21.79","87.3","0.0","0.0"],
    [1523561,"2026-06-08 20:50:00","70058","2.3369999999999997","39.47","3.43","31.93","1017.529","21.85","86.9","0.0","0.0"],
    [1523562,"2026-06-08 21:00:00","70059","2.276","34.71","3.267","22.27","1017.675","21.82","86.7","0.0","0.0"],
    [1523563,"2026-06-08 21:10:00","70060","2.197","35.39","2.9730000000000003","32.91","1017.717","21.88","86.5","0.0","0.0"],
    [1523564,"2026-06-08 21:20:00","70061","1.2890000000000001","68.29","2.0909999999999997","33.24","1017.679","21.89","86.5","0.0","0.0"],
    [1523565,"2026-06-08 21:30:00","70062","2.387","34.63","3.1689999999999996","32.41","1017.792","21.86","87.0","0.0","0.0"],
    [1523566,"2026-06-08 21:40:00","70063","2.755","36.1","3.5610000000000004","48.57","1017.843","21.8","87.6","0.0","0.0"],
    [1523567,"2026-06-08 21:50:00","70064","3.39","41.68","4.4430000000000005","48.21","1017.752","21.76","87.9","0.0","0.0"],
    [1523568,"2026-06-08 22:00:00","70065","3.359","45.92","4.181","38.89","1017.818","21.77","88.7","0.0","0.0"],
    [1523569,"2026-06-08 22:10:00","70066","3.635","36.79","4.835","32.83","1017.934","21.7","89.4","0.0","0.0"],
    [1523570,"2026-06-08 22:20:00","70067","3.627","34.39","4.867","38.79","1017.901","21.69","89.7","0.0","0.0"],
    [1523571,"2026-06-08 22:30:00","70068","4.431","38.11","5.651","47.34","1017.882","21.69","90.0","0.0","0.0"],
    [1523572,"2026-06-08 22:40:00","70069","4.603","34.95","5.945","30.14","1017.841","21.61","89.9","0.0","0.0"],
    [1523573,"2026-06-08 22:50:00","70070","4.496","35.22","5.651","33.51","1017.92","21.57","89.3","0.0","0.0"],
    [1523574,"2026-06-08 23:00:00","70071","5.015","31.36","5.782","28.96","1018.069","21.57","89.1","0.0","0.0"],
    [1523575,"2026-06-08 23:10:00","70072","4.794","29.17","5.749","32.36","1018.098","21.57","88.9","0.0","0.0"],
    [1523576,"2026-06-08 23:20:00","70073","3.23","20.97","4.181","16.96","1018.391","21.59","88.7","0.0","0.0"],
    [1523577,"2026-06-08 23:30:00","70074","3.325","30.04","4.149","35.26","1018.306","21.57","88.7","0.0","0.0"],
    [1523578,"2026-06-08 23:40:00","70075","3.1460000000000004","30.72","3.6260000000000003","33.95","1018.228","21.58","88.6","0.0","0.0"],
    [1523579,"2026-06-08 23:50:00","70076","2.8","34.22","3.365","32.81","1018.188","21.57","88.7","0.0","0.0"],
    [1523580,"2026-06-09 00:00:00","70077","2.656","36.26","3.201","44.7","1018.006","21.54","88.9","0.0","0.0"],
    [1523581,"2026-06-09 00:10:00","70078","3.353","44.23","4.1160000000000005","42.47","1017.806","21.49","89.3","0.0","0.0"],
    [1523582,"2026-06-09 00:20:00","70079","3.384","52.1","4.475","47.96","1017.573","21.44","89.9","0.0","0.0"],
    [1523583,"2026-06-09 00:30:00","70080","3.2760000000000002","71.46","4.573","65.19","1017.447","21.42","90.1","0.0","0.0"],
    [1523584,"2026-06-09 00:40:00","70081","2.9930000000000003","81.8","4.2139999999999995","73.66","1017.345","21.45","89.7","0.0","0.0"],
    [1523585,"2026-06-09 00:50:00","70082","2.477","63.72","3.463","65.14","1017.483","21.44","88.4","0.0","0.0"],
    [1523586,"2026-06-09 01:00:00","70083","2.343","51.47","3.234","60.64","1017.606","21.47","87.0","0.0","0.0"],
    [1523587,"2026-06-09 01:10:00","70084","2.394","41.93","3.005","49.92","1017.609","21.52","85.5","0.0","0.0"],
    [1523588,"2026-06-09 01:20:00","70085","2.53","31.65","2.94","24.49","1017.659","21.56","85.0","0.0","0.0"],
    [1523589,"2026-06-09 01:30:00","70086","2.1630000000000003","26.41","3.136","31.7","1017.588","21.56","84.6","0.0","0.0"],
    [1523590,"2026-06-09 01:40:00","70087","2.352","31.82","3.071","35.28","1017.536","21.52","84.3","0.0","0.0"],
    [1523591,"2026-06-09 01:50:00","70088","2.189","33.06","2.6460000000000004","31.31","1017.441","21.49","83.5","0.0","0.0"],
    [1523592,"2026-06-09 02:00:00","70089","2.149","39.32","2.5810000000000004","31.53","1017.357","21.5","83.1","0.0","0.0"],
    [1523593,"2026-06-09 02:10:00","70090","1.6669999999999998","58.2","2.483","43.92","1017.286","21.53","83.2","0.0","0.0"],
    [1523594,"2026-06-09 02:20:00","70091","1.5230000000000001","63.1","2.515","63.81","1017.359","21.46","82.6","0.0","0.0"],
    [1523595,"2026-06-09 02:30:00","70092","2.052","68.25","2.6460000000000004","57.38","1017.4","21.55","80.9","0.0","0.0"],
    [1523596,"2026-06-09 02:40:00","70093","1.791","78.76","2.6460000000000004","71.8","1017.364","21.62","79.86","0.0","0.0"],
    [1523597,"2026-06-09 02:50:00","70094","1.5390000000000001","95.4","2.221","93.0","1017.373","21.61","80.1","0.0","0.0"],
    [1523598,"2026-06-09 03:00:00","70095","1.15","113.1","1.829","96.5","1017.432","21.59","80.0","0.0","0.0"],
    [1523599,"2026-06-09 03:10:00","70096","0.965","113.5","1.3719999999999999","107.5","1017.456","21.52","80.4","0.0","0.0"],
    [1523600,"2026-06-09 03:20:00","70097","0.8809999999999999","130.3","1.339","131.8","1017.544","21.51","80.6","0.0","0.0"],
    [1523601,"2026-06-09 03:30:00","70098","0.6679999999999999","126.1","1.176","118.9","1017.58","21.47","80.6","0.0","0.0"],
    [1523602,"2026-06-09 03:40:00","70099","0.45899999999999996","127.7","0.784","136.9","1017.561","21.47","80.9","0.0","0.0"],
    [1523603,"2026-06-09 03:50:00","70100","0.0","0.0","0.0","0.0","1017.607","21.42","81.4","0.0","0.0"],
    [1523604,"2026-06-09 04:00:00","70101","0.015","180.8","0.49","178.0","1017.618","21.36","82.2","0.0","0.0"],
    [1523605,"2026-06-09 04:10:00","70102","1.094","187.3","1.47","201.4","1017.588","21.31","82.8","0.0","0.0"],
    [1523606,"2026-06-09 04:20:00","70103","1.297","190.4","1.568","170.5","1017.52","21.25","83.3","0.0","0.0"],
    [1523607,"2026-06-09 04:30:00","70104","1.819","185.9","2.319","187.9","1017.533","21.2","83.2","0.0","0.0"],
    [1523608,"2026-06-09 04:40:00","70105","2.3609999999999998","186.0","2.907","174.8","1017.52","21.29","82.0","0.0","0.0"],
    [1523609,"2026-06-09 04:50:00","70106","2.574","190.9","3.234","193.1","1017.52","21.33","82.5","19.23","0.0"],
    [1523610,"2026-06-09 05:00:00","70107","2.463","191.2","3.005","196.3","1017.653","21.26","83.1","65.08","0.0"],
    [1523611,"2026-06-09 05:10:00","70108","2.505","197.0","2.842","196.1","1017.793","21.28","83.2","67.09","0.0"],
    [1523612,"2026-06-09 05:20:00","70109","2.8139999999999996","195.7","3.528","189.5","1017.848","21.32","82.4","67.09","0.0"],
    [1523613,"2026-06-09 05:30:00","70110","2.94","188.0","3.6910000000000003","194.9","1017.824","21.38","81.2","101.0","0.0"],
    [1523614,"2026-06-09 05:40:00","70111","2.758","191.8","3.267","195.1","1017.841","21.4","82.5","145.5","0.0"],
    [1523615,"2026-06-09 05:50:00","70112","2.499","192.1","3.103","199.2","1017.864","21.33","82.2","185.7","0.0"],
    [1523616,"2026-06-09 06:00:00","70113","2.101","203.0","3.005","204.8","1017.91","21.35","81.9","150.2","0.0"],
    [1523617,"2026-06-09 06:10:00","70114","1.584","217.2","3.0380000000000003","210.3","1017.976","21.42","81.2","148.9","0.0"],
    [1523618,"2026-06-09 06:20:00","70115","1.34","224.5","3.43","224.6","1018.086","21.6","80.1","138.4","0.0"],
    [1523619,"2026-06-09 06:30:00","70116","1.626","240.5","3.234","283.4","1018.18","21.92","78.59","163.9","0.0"],
    [1523620,"2026-06-09 06:40:00","70117","2.484","213.3","4.802","197.6","1018.262","21.84","78.29","76.59","0.0"],
    [1523621,"2026-06-09 06:50:00","70118","1.621","226.8","3.005","196.8","1018.301","21.86","78.19","104.0","0.0"],
    [1523622,"2026-06-09 07:00:00","70119","1.6980000000000002","231.5","3.136","238.5","1018.309","21.94","77.25","197.6","0.0"],
    [1523623,"2026-06-09 07:10:00","70120","1.642","225.0","3.1689999999999996","204.6","1018.305","22.08","76.68","201.2","0.0"],
    [1523624,"2026-06-09 07:20:00","70121","2.0","217.0","3.495","221.0","1018.318","22.17","76.61","230.8","0.0"],
    [1523625,"2026-06-09 07:30:00","70122","1.6","237.6","3.201","269.7","1018.362","22.23","75.99","267.1","0.0"],
    [1523626,"2026-06-09 07:40:00","70123","1.7109999999999999","242.0","2.907","266.2","1018.378","22.35","75.34","260.5","0.0"],
    [1523627,"2026-06-09 07:50:00","70124","2.109","243.5","4.149","224.8","1018.405","22.39","74.94","201.3","0.0"],
    [1523628,"2026-06-09 08:00:00","70125","2.697","215.1","4.933","221.2","1018.432","22.43","74.99","252.5","0.0"],
    [1523629,"2026-06-09 08:10:00","70126","2.79","221.6","5.651","212.7","1018.424","22.51","74.4","299.0","0.0"],
    [1523630,"2026-06-09 08:20:00","70127","2.7319999999999998","214.9","4.998","202.3","1018.408","22.64","74.3","380.2","0.0"],
    [1523631,"2026-06-09 08:30:00","70128","2.6060000000000003","222.4","5.455","194.5","1018.423","22.7","74.34","378.1","0.0"],
    [1523632,"2026-06-09 08:40:00","70129","3.576","206.0","6.37","189.8","1018.454","22.69","74.99","344.6","0.0"],
    [1523633,"2026-06-09 08:50:00","70130","4.8069999999999995","198.3","6.468","196.0","1018.44","22.18","77.99","426.5","0.0"],
    [1523634,"2026-06-09 09:00:00","70131","5.053999999999999","193.9","7.252000000000001","192.8","1018.456","22.38","76.36","521.9","0.0"],
    [1523635,"2026-06-09 09:10:00","70132","5.752999999999999","190.1","7.4479999999999995","188.8","1018.443","22.12","78.1","506.8","0.0"],
    [1523636,"2026-06-09 09:20:00","70133","5.825","189.0","7.807","196.7","1018.377","22.16","77.75","541.8","0.0"],
    [1523637,"2026-06-09 09:30:00","70134","5.582999999999999","191.1","7.709","194.9","1018.395","22.23","77.51","541.5","0.0"],
    [1523638,"2026-06-09 09:40:00","70135","5.803","189.4","7.285","197.3","1018.38","22.36","77.2","614.7","0.0"],
    [1523639,"2026-06-09 09:50:00","70136","5.779","192.1","7.579","201.2","1018.331","22.46","77.03","592.4","0.0"],
    [1523640,"2026-06-09 10:00:00","70137","5.66","194.2","7.218999999999999","206.6","1018.264","22.4","77.8","523.7","0.0"],
    [1523641,"2026-06-09 10:10:00","70138","3.569","210.5","7.611000000000001","202.8","1018.275","22.97","75.7","508.5","0.0"],
    [1523642,"2026-06-09 10:20:00","70139","4.232","213.0","7.121","219.6","1018.271","23.13","74.65","691.9","0.0"],
    [1523643,"2026-06-09 10:30:00","70140","3.366","212.6","6.239","204.1","1018.267","23.5","72.99","661.2","0.0"],
    [1523644,"2026-06-09 10:40:00","70141","4.9319999999999995","194.9","7.023","204.4","1018.171","23.32","73.71","674.8","0.0"],
    [1523645,"2026-06-09 10:50:00","70142","5.547999999999999","194.1","7.742000000000001","196.4","1018.078","23.14","74.97","938.0","0.0"],
    [1523646,"2026-06-09 11:00:00","70143","6.2589999999999995","187.0","7.938","188.7","1017.923","22.87","76.19","949.0","0.0"],
    [1523647,"2026-06-09 11:10:00","70144","6.712000000000001","188.1","8.13","186.6","1017.872","22.74","76.05","762.8","0.0"],
    [1523648,"2026-06-09 11:20:00","70145","6.171","187.3","7.872999999999999","190.3","1017.828","22.9","75.53","671.4","0.0"],
    [1523649,"2026-06-09 11:30:00","70146","6.257000000000001","186.1","7.513","192.5","1017.737","23.07","74.83","875.0","0.0"],
    [1523650,"2026-06-09 11:40:00","70147","6.347","187.6","7.807","188.8","1017.622","23.17","74.3","971.0","0.0"],
    [1523651,"2026-06-09 11:50:00","70148","6.223","186.8","7.481","187.2","1017.561","23.21","74.07","918.0","0.0"],
    [1523652,"2026-06-09 12:00:00","70149","6.1770000000000005","187.4","7.6770000000000005","185.5","1017.526","23.13","73.99","890.0","0.0"],
    [1523653,"2026-06-09 12:10:00","70150","6.023","189.6","7.121","189.4","1017.537","23.36","72.27","907.0","0.0"],
    [1523654,"2026-06-09 12:20:00","70151","6.059","185.4","7.807","189.2","1017.494","23.1","75.03","905.0","0.0"],
    [1523655,"2026-06-09 12:30:00","70152","6.236000000000001","187.0","7.709","180.6","1017.427","22.94","75.37","905.0","0.0"],
    [1523656,"2026-06-09 12:40:00","70153","5.789","184.2","7.187","188.2","1017.406","23.18","73.26","905.0","0.0"],
    [1523657,"2026-06-09 12:50:00","70154","5.985","186.3","7.905","189.9","1017.347","23.11","74.32","905.0","0.0"],
    [1523658,"2026-06-09 13:00:00","70155","6.013","188.8","7.611000000000001","192.7","1017.28","23.28","72.97","905.0","0.0"],
    [1523659,"2026-06-09 13:10:00","70156","6.346","186.2","7.644","188.6","1017.176","23.13","74.32","905.0","0.0"],
    [1523660,"2026-06-09 13:20:00","70157","5.961","186.6","7.905","189.2","1017.177","23.16","74.28","899.0","0.0"],
    [1523661,"2026-06-09 13:30:00","70158","6.422999999999999","186.8","8.1","187.6","1017.144","23.2","73.89","758.8","0.0"],
    [1523662,"2026-06-09 13:40:00","70159","6.122999999999999","180.3","7.971","183.1","1017.137","22.92","76.23","766.0","0.0"],
    [1523663,"2026-06-09 13:50:00","70160","6.9910000000000005","175.5","8.23","172.2","1017.14","22.23","81.6","570.3","0.0"],
    [1523664,"2026-06-09 14:00:00","70161","6.803","180.3","8.3","185.9","1017.181","22.01","82.4","775.7","0.0"],
    [1523665,"2026-06-09 14:10:00","70162","6.1770000000000005","183.6","7.807","186.3","1017.192","22.08","81.5","539.7","0.0"],
    [1523666,"2026-06-09 14:20:00","70163","6.05","183.3","7.742000000000001","182.7","1017.197","22.06","81.1","668.3","0.0"],
    [1523667,"2026-06-09 14:30:00","70164","5.757999999999999","184.1","7.285","188.7","1017.121","22.09","81.0","732.9","0.0"],
    [1523668,"2026-06-09 14:40:00","70165","5.861000000000001","178.1","6.957999999999999","176.4","1017.013","22.03","81.3","723.3","0.0"],
    [1523669,"2026-06-09 14:50:00","70166","5.944","176.4","7.513","167.2","1017.021","21.9","82.1","706.7","0.0"],
    [1523670,"2026-06-09 15:00:00","70167","5.626","171.7","6.664","169.7","1017.038","21.93","83.5","712.6","0.0"],
    [1523671,"2026-06-09 15:10:00","70168","5.771","167.3","6.7620000000000005","164.5","1017.077","21.68","84.7","602.2","0.0"],
    [1523672,"2026-06-09 15:20:00","70169","5.486000000000001","165.1","6.141","158.2","1017.079","21.67","83.9","508.7","0.0"],
    [1523673,"2026-06-09 15:30:00","70170","5.279","155.7","6.435","160.7","1017.145","21.63","84.3","379.9","0.0"],
    [1523674,"2026-06-09 15:40:00","70171","5.067","153.6","6.239","153.9","1017.16","21.46","83.6","351.4","0.0"],
    [1523675,"2026-06-09 15:50:00","70172","4.4430000000000005","149.2","5.651","146.9","1017.156","21.43","82.3","365.2","0.0"],
    [1523676,"2026-06-09 16:00:00","70173","4.489","150.9","5.325","149.5","1017.085","21.42","80.5","499.8","0.0"],
    [1523677,"2026-06-09 16:10:00","70174","4.591","149.2","5.39","152.1","1016.977","21.38","79.23","494.7","0.0"],
    [1523678,"2026-06-09 16:20:00","70175","4.5089999999999995","151.3","5.39","148.8","1016.817","21.37","78.73","446.3","0.0"],
    [1523679,"2026-06-09 16:30:00","70176","4.322","163.6","5.422999999999999","162.2","1016.738","21.34","77.98","396.1","0.0"],
    [1523680,"2026-06-09 16:40:00","70177","4.289","160.3","5.292000000000001","180.1","1016.716","21.3","78.22","226.6","0.0"],
    [1523681,"2026-06-09 16:50:00","70178","4.256","154.7","5.063","150.2","1016.706","21.26","78.65","242.1","0.0"],
    [1523682,"2026-06-09 17:00:00","70179","4.397","160.2","5.292000000000001","161.3","1016.615","21.26","78.88","202.7","0.0"],
    [1523683,"2026-06-09 17:10:00","70180","5.065","162.5","5.978","173.3","1016.496","21.24","78.57","285.2","0.0"],
    [1523684,"2026-06-09 17:20:00","70181","5.377000000000001","162.3","6.403","170.0","1016.451","21.22","78.87","273.6","0.0"],
    [1523685,"2026-06-09 17:30:00","70182","4.938","162.1","5.978","160.8","1016.453","21.18","78.57","190.5","0.0"],
    [1523686,"2026-06-09 17:40:00","70183","4.645","160.7","5.815","149.9","1016.547","21.11","78.5","134.3","0.0"],
    [1523687,"2026-06-09 17:50:00","70184","4.324","159.6","5.031000000000001","160.1","1016.624","21.09","77.85","141.0","0.0"],
    [1523688,"2026-06-09 18:00:00","70185","3.937","158.4","4.671","164.1","1016.605","21.1","78.01","92.4","0.0"],
    [1523689,"2026-06-09 18:10:00","70186","4.024","159.4","4.671","153.2","1016.526","21.09","77.65","111.7","0.0"],
    [1523690,"2026-06-09 18:20:00","70187","3.605","160.7","4.4430000000000005","160.2","1016.497","21.09","77.25","73.27","0.0"],
    [1523691,"2026-06-09 18:30:00","70188","3.799","164.8","4.4430000000000005","167.4","1016.493","21.1","76.61","67.07","0.0"],
    [1523692,"2026-06-09 18:40:00","70189","3.548","166.3","4.083","160.3","1016.581","21.1","76.48","66.82","0.0"],
    [1523693,"2026-06-09 18:50:00","70190","3.102","172.3","4.051","169.0","1016.698","21.13","77.04","39.44","0.0"],
    [1523694,"2026-06-09 19:00:00","70191","3.338","170.6","3.855","168.4","1016.808","21.08","76.56","0.0","0.0"],
    [1523695,"2026-06-09 19:10:00","70192","3.491","173.1","4.149","166.8","1016.839","21.1","76.42","0.0","0.0"],
    [1523696,"2026-06-09 19:20:00","70193","3.2569999999999997","171.5","3.9530000000000003","167.5","1016.897","21.08","75.81","0.0","0.0"],
    [1523697,"2026-06-09 19:30:00","70194","3.0189999999999997","164.7","3.7239999999999998","158.7","1016.898","21.08","75.56","0.0","0.0"],
    [1523698,"2026-06-09 19:40:00","70195","2.438","160.4","2.907","155.7","1017.012","21.11","75.38","0.0","0.0"],
    [1523699,"2026-06-09 19:50:00","70196","2.434","160.3","2.842","167.4","1016.937","21.08","76.13","0.0","0.0"],
    [1523700,"2026-06-09 20:00:00","70197","2.388","168.1","2.94","172.9","1017.002","21.08","75.74","0.0","0.0"],
    [1523701,"2026-06-09 20:10:00","70198","1.8869999999999998","161.3","2.548","173.1","1016.977","21.09","75.29","0.0","0.0"],
    [1523702,"2026-06-09 20:20:00","70199","1.975","171.5","2.45","171.1","1017.01","21.07","75.04","0.0","0.0"],
    [1523703,"2026-06-09 20:30:00","70200","2.063","169.8","2.417","172.9","1017.075","21.09","75.58","0.0","0.0"],
    [1523704,"2026-06-09 20:40:00","70201","1.825","190.8","2.156","193.2","1017.201","21.09","75.6","0.0","0.0"],
    [1523705,"2026-06-09 20:50:00","70202","0.983","200.8","1.7309999999999999","195.9","1017.326","21.12","75.84","0.0","0.0"],
    [1523706,"2026-06-09 21:00:00","70203","0.794","204.1","1.895","197.3","1017.356","21.13","75.36","0.0","0.0"],
    [1523707,"2026-06-09 21:10:00","70204","1.16","197.2","2.483","199.9","1017.247","21.21","75.22","0.0","0.0"],
    [1523708,"2026-06-09 21:20:00","70205","1.205","216.4","2.0580000000000003","196.4","1017.213","21.17","75.83","0.0","0.0"],
    [1523709,"2026-06-09 21:30:00","70206","1.284","260.2","1.895","266.3","1017.24","21.23","75.19","0.0","0.0"],
    [1523710,"2026-06-09 21:40:00","70207","1.28","264.1","2.417","259.2","1017.344","21.3","74.91","0.0","0.0"],
    [1523711,"2026-06-09 21:50:00","70208","1.031","251.3","1.993","260.2","1017.34","21.28","75.05","0.0","0.0"],
    [1523712,"2026-06-09 22:00:00","70209","1.348","283.6","2.287","285.3","1017.344","21.29","75.42","0.0","0.0"],
    [1523713,"2026-06-09 22:10:00","70210","1.436","267.4","2.417","292.5","1017.299","21.23","75.57","0.0","0.0"],
    [1523714,"2026-06-09 22:20:00","70211","1.032","247.1","2.025","259.6","1017.296","21.24","75.54","0.0","0.0"],
    [1523715,"2026-06-09 22:30:00","70212","1.714","259.4","2.679","274.7","1017.211","21.19","75.66","0.0","0.0"],
    [1523716,"2026-06-09 22:40:00","70213","2.137","257.3","3.332","254.9","1017.262","21.23","75.67","0.0","0.0"],
    [1523717,"2026-06-09 22:50:00","70214","1.149","256.2","2.45","260.8","1017.228","21.18","76.13","0.0","0.0"],
    [1523718,"2026-06-09 23:00:00","70215","1.085","254.3","1.895","270.0","1017.309","21.2","76.3","0.0","0.0"],
    [1523719,"2026-06-09 23:10:00","70216","1.008","248.1","2.221","216.9","1017.438","21.19","76.37","0.0","0.0"],
    [1523720,"2026-06-09 23:20:00","70217","1.203","242.4","2.0909999999999997","217.4","1017.519","21.13","76.6","0.0","0.0"],
    [1523721,"2026-06-09 23:30:00","70218","1.314","249.2","2.483","257.9","1017.483","21.11","76.65","0.0","0.0"],
    [1523722,"2026-06-09 23:40:00","70219","1.208","235.6","2.0580000000000003","235.7","1017.399","21.11","76.8","0.0","0.0"],
    [1523723,"2026-06-09 23:50:00","70220","1.574","250.6","2.7769999999999997","268.1","1017.415","21.06","76.9","0.0","0.0"],
    [1523724,"2026-06-10 00:00:00","70221","1.911","265.7","3.267","257.1","1017.436","21.08","76.93","0.0","0.0"],
    [1523725,"2026-06-10 00:10:00","70222","2.029","265.7","3.43","266.7","1017.453","21.14","76.77","0.0","0.0"],
    [1523726,"2026-06-10 00:20:00","70223","2.092","273.1","3.365","274.9","1017.477","21.13","76.94","0.0","0.0"],
    [1523727,"2026-06-10 00:30:00","70224","1.893","273.0","3.299","274.2","1017.476","21.08","77.26","0.0","0.0"],
    [1523728,"2026-06-10 00:40:00","70225","1.551","261.7","2.7769999999999997","262.2","1017.436","21.06","76.77","0.0","0.0"],
    [1523729,"2026-06-10 00:50:00","70226","1.7180000000000002","262.1","2.842","265.8","1017.394","21.08","76.08","0.0","0.0"],
    [1523730,"2026-06-10 01:00:00","70227","1.3619999999999999","263.1","2.679","266.1","1017.431","21.15","75.74","0.0","0.0"],
    [1523731,"2026-06-10 01:10:00","70228","1.175","263.3","2.189","291.7","1017.341","21.19","75.44","0.0","0.0"],
    [1523732,"2026-06-10 01:20:00","70229","1.2229999999999999","269.5","2.319","264.4","1017.293","21.19","75.08","0.0","0.0"],
    [1523733,"2026-06-10 01:30:00","70230","1.757","285.9","2.5810000000000004","282.7","1017.276","21.18","74.74","0.0","0.0"],
    [1523734,"2026-06-10 01:40:00","70231","1.053","289.5","1.601","292.3","1017.193","21.2","74.67","0.0","0.0"],
    [1523735,"2026-06-10 01:50:00","70232","0.9640000000000001","285.8","1.797","282.3","1017.126","21.22","74.35","0.0","0.0"],
    [1523736,"2026-06-10 02:00:00","70233","1.189","295.6","1.993","282.5","1017.09","21.21","73.98","0.0","0.0"],
    [1523737,"2026-06-10 02:10:00","70234","1.619","286.6","2.613","290.2","1017.09","21.26","73.72","0.0","0.0"],
    [1523738,"2026-06-10 02:20:00","70235","1.865","281.9","3.593","288.0","1017.083","21.29","73.45","0.0","0.0"],
    [1523739,"2026-06-10 02:30:00","70236","1.879","277.1","2.94","286.5","1016.959","21.34","73.21","0.0","0.0"],
    [1523740,"2026-06-10 02:40:00","70237","1.4409999999999998","254.6","2.319","246.8","1016.824","21.3","73.17","0.0","0.0"],
    [1523741,"2026-06-10 02:50:00","70238","1.021","231.7","1.993","259.1","1016.733","21.25","73.46","0.0","0.0"],
    [1523742,"2026-06-10 03:00:00","70239","1.304","238.5","1.895","217.1","1016.747","21.19","73.55","0.0","0.0"],
    [1523743,"2026-06-10 03:10:00","70240","1.31","236.9","2.189","258.3","1016.672","21.18","73.52","0.0","0.0"],
    [1523744,"2026-06-10 03:20:00","70241","1.59","262.8","2.5810000000000004","261.9","1016.732","21.17","73.84","0.0","0.0"],
    [1523745,"2026-06-10 03:30:00","70242","1.386","263.4","2.613","279.9","1016.718","21.19","73.97","0.0","0.0"],
    [1523746,"2026-06-10 03:40:00","70243","1.4509999999999998","282.6","2.515","286.6","1016.699","21.24","74.09","0.0","0.0"],
    [1523747,"2026-06-10 03:50:00","70244","1.3659999999999999","274.1","2.319","285.1","1016.69","21.24","73.87","0.0","0.0"],
    [1523748,"2026-06-10 04:00:00","70245","1.585","283.7","2.319","284.1","1016.707","21.22","73.77","0.0","0.0"],
    [1523749,"2026-06-10 04:10:00","70246","1.926","281.1","3.0380000000000003","282.1","1016.72","21.24","73.28","0.0","0.0"],
    [1523750,"2026-06-10 04:20:00","70247","1.99","281.8","3.103","289.9","1016.842","21.3","72.56","0.0","0.0"],
    [1523751,"2026-06-10 04:30:00","70248","1.535","279.2","2.7110000000000003","291.0","1016.875","21.37","72.05","0.0","0.0"],
    [1523752,"2026-06-10 04:40:00","70249","1.694","278.4","2.7439999999999998","288.4","1016.942","21.44","70.93","0.0","0.0"],
    [1523753,"2026-06-10 04:50:00","70250","1.083","258.6","2.254","260.8","1016.894","21.51","69.74","0.0","0.0"],
    [1523754,"2026-06-10 05:00:00","70251","0.9","237.4","1.633","225.2","1016.919","21.49","69.4","0.0","0.0"],
    [1523755,"2026-06-10 05:10:00","70252","0.8390000000000001","236.3","1.405","264.4","1016.983","21.52","68.74","4.249","0.0"],
    [1523756,"2026-06-10 05:20:00","70253","1.135","234.0","1.797","232.9","1017.132","21.59","68.16","31.67","0.0"],
    [1523757,"2026-06-10 05:30:00","70254","1.012","235.6","1.601","246.0","1017.285","21.63","67.96","66.67","0.0"],
    [1523758,"2026-06-10 05:40:00","70255","1.071","225.3","2.123","212.7","1017.357","21.72","67.22","67.12","0.0"],
    [1523759,"2026-06-10 05:50:00","70256","1.058","227.8","1.797","226.3","1017.438","21.8","66.39","67.09","0.0"],
    [1523760,"2026-06-10 06:00:00","70257","1.143","218.0","2.025","210.7","1017.521","21.84","64.92","67.08","0.0"],
    [1523761,"2026-06-10 06:10:00","70258","0.772","231.7","2.189","190.3","1017.603","21.82","67.05","67.08","0.0"],
    [1523762,"2026-06-10 06:20:00","70259","1.393","239.5","2.45","219.0","1017.769","21.86","66.19","67.16","0.0"],
    [1523763,"2026-06-10 06:30:00","70260","1.594","233.0","2.7110000000000003","216.7","1017.826","21.89","64.48","158.0","0.0"],
    [1523764,"2026-06-10 06:40:00","70261","1.5030000000000001","234.2","2.679","221.8","1017.92","22.0","60.81","157.9","0.0"],
    [1523765,"2026-06-10 06:50:00","70262","1.252","251.9","2.907","280.2","1018.009","22.07","60.48","90.4","0.0"],
    [1523766,"2026-06-10 07:00:00","70263","1.867","288.6","2.875","299.5","1018.087","22.1","62.78","70.63","0.0"],
    [1523767,"2026-06-10 07:10:00","70264","2.099","18.73","5.455","125.5","1018.319","21.78","66.83","67.19","0.0"],
    [1523768,"2026-06-10 07:20:00","70265","4.909","119.6","7.35","131.5","1018.333","20.7","77.91","93.9","0.0"],
    [1523769,"2026-06-10 07:30:00","70266","5.2010000000000005","126.9","6.697","134.2","1018.486","20.21","80.0","134.2","0.0"],
    [1523770,"2026-06-10 07:40:00","70267","4.94","117.4","6.0760000000000005","115.6","1018.545","20.05","79.97","143.0","0.0"],
    [1523771,"2026-06-10 07:50:00","70268","4.7860000000000005","114.5","6.042999999999999","115.1","1018.613","20.13","78.69","134.2","0.0"],
    [1523772,"2026-06-10 08:00:00","70269","4.317","106.2","5.521","101.0","1018.721","20.14","77.79","129.6","0.0"],
    [1523773,"2026-06-10 08:10:00","70270","3.1460000000000004","109.3","4.965","81.5","1018.891","20.12","77.49","67.81","0.0"],
    [1523774,"2026-06-10 08:20:00","70271","3.708","93.2","4.835","95.9","1019.007","19.91","77.56","67.08","0.0"],
    [1523775,"2026-06-10 08:30:00","70272","3.505","87.9","4.704","70.96","1019.058","19.86","76.86","67.08","0.0"],
    [1523776,"2026-06-10 08:40:00","70273","3.327","100.9","4.671","104.5","1019.161","19.87","76.96","67.09","0.0"],
    [1523777,"2026-06-10 08:50:00","70274","3.154","83.4","4.051","89.5","1019.229","19.92","76.16","67.09","0.0"],
    [1523778,"2026-06-10 09:00:00","70275","3.185","73.31","4.377","68.49","1019.282","19.83","74.75","67.74","0.0"],
    [1523779,"2026-06-10 09:10:00","70276","3.67","72.56","4.802","64.19","1019.329","19.78","74.99","77.69","0.0"],
    [1523780,"2026-06-10 09:20:00","70277","3.821","71.95","5.1610000000000005","71.43","1019.384","19.65","73.81","123.2","0.0"],
    [1523781,"2026-06-10 09:30:00","70278","3.3139999999999996","90.7","4.2139999999999995","95.5","1019.47","19.69","73.57","169.2","0.0"],
    [1523782,"2026-06-10 09:40:00","70279","2.697","88.2","3.6910000000000003","91.4","1019.565","19.74","73.13","184.3","0.0"],
    [1523783,"2026-06-10 09:50:00","70280","2.603","106.5","3.495","93.4","1019.634","19.71","72.74","203.7","0.0"],
    [1523784,"2026-06-10 10:00:00","70281","2.667","109.6","3.7239999999999998","108.7","1019.689","19.74","72.5","273.5","0.0"],
    [1523785,"2026-06-10 10:10:00","70282","2.673","117.2","3.6910000000000003","130.6","1019.698","19.79","72.81","276.3","0.0"],
    [1523786,"2026-06-10 10:20:00","70283","2.735","123.7","3.985","117.2","1019.667","19.83","73.1","305.2","0.0"],
    [1523787,"2026-06-10 10:30:00","70284","2.917","118.0","4.2139999999999995","112.4","1019.652","19.79","72.23","291.4","0.0"],
    [1523788,"2026-06-10 10:40:00","70285","3.199","127.8","4.247","125.8","1019.578","19.83","72.13","412.0","0.0"],
    [1523789,"2026-06-10 10:50:00","70286","3.6260000000000003","119.3","4.737","108.4","1019.527","19.93","71.96","541.4","0.0"],
    [1523790,"2026-06-10 11:00:00","70287","4.002","118.3","5.129","124.0","1019.504","19.81","70.94","439.1","0.0"],
    [1523791,"2026-06-10 11:10:00","70288","3.7560000000000002","115.1","4.9","124.9","1019.508","19.75","70.47","570.1","0.0"],
    [1523792,"2026-06-10 11:20:00","70289","3.7760000000000002","120.8","5.2589999999999995","106.8","1019.464","19.84","70.52","852.0","0.0"],
    [1523793,"2026-06-10 11:30:00","70290","3.5580000000000003","120.3","5.031000000000001","121.6","1019.456","19.89","70.39","636.4","0.0"],
    [1523794,"2026-06-10 11:40:00","70291","3.545","126.6","4.671","113.8","1019.46","19.79","70.87","393.7","0.0"],
    [1523795,"2026-06-10 11:50:00","70292","3.053","127.9","4.312","132.1","1019.432","19.79","71.36","388.3","0.0"],
    [1523796,"2026-06-10 12:00:00","70293","3.638","132.7","5.325","120.6","1019.227","19.86","71.07","524.4","0.0"],
    [1523797,"2026-06-10 12:10:00","70294","4.045","147.7","5.619","145.7","1019.128","19.85","72.39","373.1","0.0"],
    [1523798,"2026-06-10 12:20:00","70295","4.728","150.6","6.893","149.1","1019.036","19.82","70.21","432.8","0.0"],
    [1523799,"2026-06-10 12:30:00","70296","4.996","149.4","6.631","157.2","1019.037","19.88","69.88","424.3","0.0"],
    [1523800,"2026-06-10 12:40:00","70297","4.97","151.0","7.056","151.7","1019.079","19.89","68.79","436.2","0.0"],
    [1523801,"2026-06-10 12:50:00","70298","4.918","154.2","6.631","158.6","1019.093","19.93","69.35","537.7","0.0"],
    [1523802,"2026-06-10 13:00:00","70299","4.749","144.4","6.207000000000001","148.6","1019.103","19.97","69.8","605.6","0.0"],
    [1523803,"2026-06-10 13:10:00","70300","4.809","148.6","6.011","152.9","1019.112","20.05","70.54","724.1","0.0"],
    [1523804,"2026-06-10 13:20:00","70301","5.033","154.8","6.1739999999999995","151.5","1019.069","20.04","70.37","928.0","0.0"],
    [1523805,"2026-06-10 13:30:00","70302","4.9110000000000005","152.4","6.566","148.8","1019.087","20.11","71.2","918.0","0.0"],
    [1523806,"2026-06-10 13:40:00","70303","4.868","156.1","6.042999999999999","164.8","1019.092","20.15","71.41","857.0","0.0"],
    [1523807,"2026-06-10 13:50:00","70304","4.927","151.6","6.0760000000000005","155.4","1019.101","20.2","71.14","816.0","0.0"],
    [1523808,"2026-06-10 14:00:00","70305","4.813","149.2","5.815","148.6","1019.07","20.12","70.16","774.3","0.0"],
    [1523809,"2026-06-10 14:10:00","70306","5.341","157.7","6.827000000000001","167.1","1018.987","20.21","70.89","755.6","0.0"],
    [1523810,"2026-06-10 14:20:00","70307","5.211","161.4","6.599","161.1","1019.047","20.24","70.42","607.0","0.0"],
    [1523811,"2026-06-10 14:30:00","70308","5.307","159.1","6.239","161.8","1019.031","20.19","70.25","630.3","0.0"],
    [1523812,"2026-06-10 14:40:00","70309","5.414","157.2","6.468","156.7","1019.032","20.19","70.47","521.3","0.0"],
    [1523813,"2026-06-10 14:50:00","70310","5.149","158.4","6.7620000000000005","163.1","1019.019","20.21","70.32","497.4","0.0"],
    [1523814,"2026-06-10 15:00:00","70311","4.973","147.0","6.1739999999999995","141.2","1019.136","20.18","70.25","443.5","0.0"],
    [1523815,"2026-06-10 15:10:00","70312","4.985","146.1","6.5329999999999995","153.4","1019.143","20.23","70.4","571.1","0.0"],
    [1523816,"2026-06-10 15:20:00","70313","4.8839999999999995","140.7","6.011","143.2","1019.096","20.22","69.86","624.4","0.0"],
    [1523817,"2026-06-10 15:30:00","70314","4.76","137.6","7.285","137.6","1019","20.27","70.17","655.5","0.0"],
    [1523818,"2026-06-10 15:40:00","70315","4.581","138.0","5.847","140.2","1018.978","20.24","69.7","601.8","0.0"],
    [1523819,"2026-06-10 15:50:00","70316","4.435","137.7","5.782","135.0","1018.977","20.25","69.52","574.2","0.0"],
    [1523820,"2026-06-10 16:00:00","70317","4.157","129.5","5.619","132.9","1018.958","20.29","68.76","523.2","0.0"],
    [1523821,"2026-06-10 16:10:00","70318","4.206","132.6","5.521","136.3","1018.913","20.35","68.21","601.5","0.0"],
    [1523822,"2026-06-10 16:20:00","70319","3.614","128.6","5.455","120.3","1018.961","20.37","68.14","583.1","0.0"],
    [1523823,"2026-06-10 16:30:00","70320","4.419","114.9","5.619","113.7","1018.914","20.32","68.5","420.8","0.0"],
    [1523824,"2026-06-10 16:40:00","70321","3.966","115.8","5.521","100.2","1018.939","20.22","68.33","264.8","0.0"],
    [1523825,"2026-06-10 16:50:00","70322","4.376","117.7","5.684","114.1","1019.01","20.15","67.81","298.5","0.0"],
    [1523826,"2026-06-10 17:00:00","70323","4.145","126.8","5.521","124.5","1019.131","20.12","67.94","186.8","0.0"],
    [1523827,"2026-06-10 17:10:00","70324","3.841","121.3","5.129","109.0","1019.218","20.19","67.86","282.5","0.0"],
    [1523828,"2026-06-10 17:20:00","70325","3.7739999999999996","121.6","4.998","124.0","1019.284","20.16","66.85","296.9","0.0"],
    [1523829,"2026-06-10 17:30:00","70326","3.583","125.2","4.704","135.5","1019.376","20.2","66.51","281.8","0.0"],
    [1523830,"2026-06-10 17:40:00","70327","3.775","130.4","5.325","127.7","1019.436","20.11","65.95","111.0","0.0"],
    [1523831,"2026-06-10 17:50:00","70328","3.363","132.6","5.031000000000001","169.6","1019.47","20.16","66.05","67.06","0.0"],
    [1523832,"2026-06-10 18:00:00","70329","3.52","134.3","4.475","143.3","1019.554","20.15","66.09","67.07","0.0"],
    [1523833,"2026-06-10 18:10:00","70330","2.952","129.8","4.149","140.8","1019.639","20.14","65.99","67.08","0.0"],
    [1523834,"2026-06-10 18:20:00","70331","2.75","128.8","3.6910000000000003","132.2","1019.753","20.19","65.61","67.08","0.0"],
    [1523835,"2026-06-10 18:30:00","70332","2.483","125.2","4.083","138.6","1019.784","20.18","65.69","67.08","0.0"],
    [1523836,"2026-06-10 18:40:00","70333","2.76","136.8","4.279","141.2","1019.882","20.19","65.45","66.39","0.0"],
    [1523837,"2026-06-10 18:50:00","70334","2.499","141.0","3.463","137.9","1020.015","20.17","65.0","33.57","0.0"],
    [1523838,"2026-06-10 19:00:00","70335","2.965","150.8","4.541","161.9","1020.059","20.22","65.44","0.0","0.0"],
    [1523839,"2026-06-10 19:10:00","70336","2.719","146.1","3.7569999999999997","145.7","1020.055","20.19","64.63","0.0","0.0"],
    [1523840,"2026-06-10 19:20:00","70337","2.423","150.2","3.463","145.0","1020.044","20.2","64.69","0.0","0.0"],
    [1523841,"2026-06-10 19:30:00","70338","2.559","143.4","3.365","140.8","1020.043","20.23","64.42","0.0","0.0"],
    [1523842,"2026-06-10 19:40:00","70339","3.0660000000000003","154.3","4.247","143.2","1020.072","20.23","63.76","0.0","0.0"],
    [1523843,"2026-06-10 19:50:00","70340","2.5580000000000003","141.8","3.6910000000000003","139.5","1020.184","20.27","63.72","0.0","0.0"],
    [1523844,"2026-06-10 20:00:00","70341","3.013","154.8","4.345","164.5","1020.279","20.3","63.7","0.0","0.0"],
    [1523845,"2026-06-10 20:10:00","70342","2.966","160.6","4.312","149.2","1020.403","20.33","63.59","0.0","0.0"],
    [1523846,"2026-06-10 20:20:00","70343","2.267","168.8","3.659","181.3","1020.602","20.36","63.34","0.0","0.0"],
    [1523847,"2026-06-10 20:30:00","70344","2.8160000000000003","178.4","3.7889999999999997","180.6","1020.788","20.39","62.25","0.0","0.0"],
    [1523848,"2026-06-10 20:40:00","70345","2.6180000000000003","186.4","3.6260000000000003","195.5","1020.957","20.45","63.41","0.0","0.0"],
    [1523849,"2026-06-10 20:50:00","70346","2.9419999999999997","180.8","3.7239999999999998","166.7","1020.964","20.45","62.76","0.0","0.0"],
    [1523850,"2026-06-10 21:00:00","70347","2.7880000000000003","185.2","3.822","167.3","1021.023","20.5","62.48","0.0","0.0"],
    [1523851,"2026-06-10 21:10:00","70348","2.728","186.6","3.6260000000000003","166.9","1021.015","20.52","62.45","0.0","0.0"],
    [1523852,"2026-06-10 21:20:00","70349","2.721","185.6","3.985","197.5","1021.018","20.55","61.84","0.0","0.0"],
    [1523853,"2026-06-10 21:30:00","70350","2.819","189.0","4.083","200.5","1021.071","20.59","62.12","0.0","0.0"],
    [1523854,"2026-06-10 21:40:00","70351","2.778","192.1","3.887","194.9","1021.116","20.59","62.25","0.0","0.0"],
    [1523855,"2026-06-10 21:50:00","70352","2.386","197.2","3.201","190.4","1021.242","20.62","61.6","0.0","0.0"],
    [1523856,"2026-06-10 22:00:00","70353","2.765","192.4","3.9530000000000003","182.5","1021.295","20.65","61.77","0.0","0.0"],
    [1523857,"2026-06-10 22:10:00","70354","2.612","196.8","3.659","194.5","1021.36","20.69","61.74","0.0","0.0"],
    [1523858,"2026-06-10 22:20:00","70355","2.6719999999999997","193.3","4.1160000000000005","195.6","1021.351","20.68","61.88","0.0","0.0"],
    [1523859,"2026-06-10 22:30:00","70356","2.5069999999999997","193.2","3.5610000000000004","186.5","1021.361","20.68","62.73","0.0","0.0"],
    [1523860,"2026-06-10 22:40:00","70357","2.79","201.8","3.7239999999999998","186.9","1021.354","20.67","62.95","0.0","0.0"],
    [1523861,"2026-06-10 22:50:00","70358","1.7169999999999999","222.0","3.136","215.1","1021.401","20.66","61.69","0.0","0.0"],
    [1523862,"2026-06-10 23:00:00","70359","1.2590000000000001","224.9","2.515","204.1","1021.403","20.6","62.38","0.0","0.0"],
    [1523863,"2026-06-10 23:10:00","70360","2.028","211.7","3.071","215.2","1021.342","20.61","62.07","0.0","0.0"],
    [1523864,"2026-06-10 23:20:00","70361","2.521","209.7","3.659","213.0","1021.247","20.68","62.08","0.0","0.0"],
    [1523865,"2026-06-10 23:30:00","70362","3.0010000000000003","197.6","4.41","195.5","1021.188","20.68","63.3","0.0","0.0"],
    [1523866,"2026-06-10 23:40:00","70363","3.391","193.3","4.606","199.3","1021.186","20.64","63.57","0.0","0.0"],
    [1523867,"2026-06-10 23:50:00","70364","2.323","203.7","3.659","197.5","1021.198","20.68","64.05","0.0","0.0"],
    [1523868,"2026-06-11 00:00:00","70365","2.464","208.6","3.887","193.6","1021.213","20.71","62.05","0.0","0.0"],
    [1523869,"2026-06-11 00:10:00","70366","2.694","203.1","3.9530000000000003","201.1","1021.147","20.76","62.86","0.0","0.0"],
    [1523870,"2026-06-11 00:20:00","70367","2.387","207.7","3.887","207.4","1021.177","20.78","62.64","0.0","0.0"],
    [1523871,"2026-06-11 00:30:00","70368","2.9219999999999997","199.7","3.92","204.0","1021.183","20.75","63.69","0.0","0.0"],
    [1523872,"2026-06-11 00:40:00","70369","2.6689999999999996","209.6","4.018","213.8","1021.166","20.75","63.13","0.0","0.0"],
    [1523873,"2026-06-11 00:50:00","70370","1.7690000000000001","217.3","2.94","194.5","1021.129","20.78","63.57","0.0","0.0"],
    [1523874,"2026-06-11 01:00:00","70371","1.4240000000000002","224.6","2.5810000000000004","228.0","1021.083","20.78","63.64","0.0","0.0"],
    [1523875,"2026-06-11 01:10:00","70372","1.238","227.4","2.025","205.1","1021.108","20.77","63.66","0.0","0.0"],
    [1523876,"2026-06-11 01:20:00","70373","1.6540000000000001","215.3","3.299","204.9","1021.124","20.76","63.6","0.0","0.0"],
    [1523877,"2026-06-11 01:30:00","70374","2.021","222.0","2.875","207.5","1021.217","20.84","63.17","0.0","0.0"],
    [1523878,"2026-06-11 01:40:00","70375","1.921","206.0","2.875","180.0","1021.255","20.81","63.72","0.0","0.0"],
    [1523879,"2026-06-11 01:50:00","70376","2.37","206.2","3.985","213.4","1021.205","20.8","63.95","0.0","0.0"],
    [1523880,"2026-06-11 02:00:00","70377","2.136","213.2","3.855","213.1","1021.168","20.79","64.38","0.0","0.0"],
    [1523881,"2026-06-11 02:10:00","70378","3.082","196.0","4.018","192.9","1021.052","20.71","66.2","0.0","0.0"],
    [1523882,"2026-06-11 02:20:00","70379","2.044","204.5","4.018","197.7","1021.048","20.68","65.41","0.0","0.0"],
    [1523883,"2026-06-11 02:30:00","70380","2.8169999999999997","203.9","5.815","201.9","1020.98","20.67","66.63","0.0","0.0"],
    [1523884,"2026-06-11 02:40:00","70381","3.202","200.9","4.638999999999999","201.0","1020.903","20.63","66.27","0.0","0.0"],
    [1523885,"2026-06-11 02:50:00","70382","2.88","188.1","4.312","190.7","1020.837","20.61","67.52","0.0","0.0"],
    [1523886,"2026-06-11 03:00:00","70383","2.694","206.6","6.0760000000000005","193.4","1020.921","20.39","70.22","0.0","0.0"],
    [1523887,"2026-06-11 03:10:00","70384","1.6669999999999998","201.4","3.071","199.1","1020.989","20.29","70.76","0.0","0.0"],
    [1523888,"2026-06-11 03:20:00","70385","1.8619999999999999","208.5","3.005","221.5","1021.036","20.42","70.82","0.0","0.0"],
    [1523889,"2026-06-11 03:30:00","70386","2.301","202.0","3.7889999999999997","200.6","1020.989","20.48","71.72","0.0","0.0"],
    [1523890,"2026-06-11 03:40:00","70387","1.006","233.6","2.0909999999999997","267.6","1021.039","20.4","72.5","0.0","0.0"],
    [1523891,"2026-06-11 03:50:00","70388","1.93","243.4","4.2139999999999995","266.9","1021.112","20.4","69.8","0.0","0.0"],
    [1523892,"2026-06-11 04:00:00","70389","2.612","233.2","4.377","250.9","1021.178","20.49","59.16","0.0","0.0"],
    [1523893,"2026-06-11 04:10:00","70390","3.0069999999999997","243.4","5.422999999999999","247.4","1021.289","20.37","55.19","0.0","0.0"],
    [1523894,"2026-06-11 04:20:00","70391","2.244","239.1","4.737","262.3","1021.367","20.12","55.8","0.0","0.0"],
    [1523895,"2026-06-11 04:30:00","70392","2.34","245.5","4.965","257.9","1021.445","19.95","55.01","0.0","0.0"],
    [1523896,"2026-06-11 04:40:00","70393","2.238","219.3","3.495","243.2","1021.543","19.89","54.3","0.0","0.0"],
    [1523897,"2026-06-11 04:50:00","70394","2.6689999999999996","210.7","4.9","213.1","1021.582","19.91","53.77","0.0","0.0"],
    [1523898,"2026-06-11 05:00:00","70395","1.919","228.1","3.397","206.8","1021.678","19.98","53.58","28.71","0.0"],
    [1523899,"2026-06-11 05:10:00","70396","2.213","208.8","3.659","188.4","1021.679","19.87","54.01","67.1","0.0"],
    [1523900,"2026-06-11 05:20:00","70397","2.001","224.2","3.267","200.2","1021.718","19.82","54.34","77.22","0.0"],
    [1523901,"2026-06-11 05:30:00","70398","1.9240000000000002","240.4","3.5610000000000004","238.8","1021.767","19.51","58.47","116.4","0.0"],
    [1523902,"2026-06-11 05:40:00","70399","2.094","243.9","3.7569999999999997","216.3","1021.744","19.27","57.83","145.5","0.0"],
    [1523903,"2026-06-11 05:50:00","70400","1.7180000000000002","249.1","3.0380000000000003","232.4","1021.824","19.28","56.87","192.8","0.0"],
    [1523904,"2026-06-11 06:00:00","70401","0.872","210.2","2.123","264.0","1021.866","19.46","56.59","201.3","0.0"],
    [1523905,"2026-06-11 06:10:00","70402","0.0","0.0","0.0","0.0","1021.989","19.8","56.26","225.3","0.0"],
    [1523906,"2026-06-11 06:20:00","70403","1.4","167.0","2.0909999999999997","167.4","1022.073","19.68","58.21","233.2","0.0"],
    [1523907,"2026-06-11 06:30:00","70404","0.894","110.3","1.47","116.7","1022.148","19.86","57.96","306.2","0.0"],
    [1523908,"2026-06-11 06:40:00","70405","0.33299999999999996","92.2","1.666","118.3","1022.324","20.3","55.89","329.6","0.0"],
    [1523909,"2026-06-11 06:50:00","70406","1.805","112.9","2.45","108.9","1022.428","20.08","55.77","347.5","0.0"],
    [1523910,"2026-06-11 07:00:00","70407","1.72","105.0","2.287","119.0","1022.529","19.83","56.95","386.8","0.0"],
    [1523911,"2026-06-11 07:10:00","70408","1.402","111.0","1.993","111.7","1022.619","19.91","56.3","398.5","0.0"],
    [1523912,"2026-06-11 07:20:00","70409","1.51","108.9","2.45","97.9","1022.734","20.0","55.41","413.3","0.0"],
    [1523913,"2026-06-11 07:30:00","70410","1.5290000000000001","95.4","2.45","97.9","1022.86","20.01","56.6","443.8","0.0"],
    [1523914,"2026-06-11 07:40:00","70411","1.517","89.0","2.385","77.36","1022.885","20.08","56.39","454.0","0.0"],
    [1523915,"2026-06-11 07:50:00","70412","1.982","64.79","3.299","39.49","1023.011","20.13","56.29","474.0","0.0"],
    [1523916,"2026-06-11 08:00:00","70413","2.231","109.4","3.103","113.2","1023.064","20.06","56.31","442.8","0.0"],
    [1523917,"2026-06-11 08:10:00","70414","2.325","108.4","3.201","99.8","1023.118","20.02","55.93","466.4","0.0"],
    [1523918,"2026-06-11 08:20:00","70415","2.21","102.9","3.234","92.7","1023.147","20.05","56.07","505.6","0.0"],
    [1523919,"2026-06-11 08:30:00","70416","1.484","83.2","2.8089999999999997","99.9","1023.258","20.22","56.71","550.2","0.0"],
    [1523920,"2026-06-11 08:40:00","70417","1.669","97.8","3.332","96.7","1023.306","20.25","57.19","573.2","0.0"],
    [1523921,"2026-06-11 08:50:00","70418","1.518","86.4","3.1689999999999996","100.0","1023.388","20.19","57.66","574.9","0.0"],
    [1523922,"2026-06-11 09:00:00","70419","1.807","101.2","2.679","103.6","1023.346","20.21","57.64","632.4","0.0"],
    [1523923,"2026-06-11 09:10:00","70420","1.5330000000000001","108.6","2.7110000000000003","107.4","1023.318","20.24","58.72","702.5","0.0"],
    [1523924,"2026-06-11 09:20:00","70421","1.011","90.5","2.6460000000000004","100.2","1023.34","20.51","58.96","752.6","0.0"],
    [1523925,"2026-06-11 09:30:00","70422","1.248","99.9","2.842","107.3","1023.37","20.51","59.12","751.8","0.0"],
    [1523926,"2026-06-11 09:40:00","70423","2.303","118.3","3.005","124.7","1023.418","20.22","58.68","787.9","0.0"],
    [1523927,"2026-06-11 09:50:00","70424","2.144","123.5","3.332","119.6","1023.479","20.21","57.32","827.0","0.0"],
    [1523928,"2026-06-11 10:00:00","70425","1.8430000000000002","92.0","2.842","82.8","1023.506","20.34","57.91","777.0","0.0"],
    [1523929,"2026-06-11 10:10:00","70426","1.4669999999999999","97.7","2.417","116.4","1023.494","20.47","58.26","834.0","0.0"],
    [1523930,"2026-06-11 10:20:00","70427","1.754","101.0","2.7110000000000003","95.6","1023.567","20.58","57.83","800.0","0.0"],
    [1523931,"2026-06-11 10:30:00","70428","1.3030000000000002","114.0","2.0580000000000003","161.0","1023.603","20.78","58.48","876.0","0.0"],
    [1523932,"2026-06-11 10:40:00","70429","1.538","143.0","2.221","152.6","1023.673","20.88","55.64","894.0","0.0"],
    [1523933,"2026-06-11 10:50:00","70430","2.9360000000000004","166.4","4.181","170.2","1023.661","20.84","60.38","841.0","0.0"],
    [1523934,"2026-06-11 11:00:00","70431","3.904","173.2","5.031000000000001","174.3","1023.67","20.63","63.93","815.0","0.0"],
    [1523935,"2026-06-11 11:10:00","70432","4.734","171.3","6.011","163.8","1023.693","20.59","63.3","742.4","0.0"],
    [1523936,"2026-06-11 11:20:00","70433","3.722","165.8","5.194","167.9","1023.722","20.54","63.58","804.0","0.0"],
    [1523937,"2026-06-11 11:30:00","70434","4.57","176.6","5.749","197.1","1023.685","20.56","63.99","877.0","0.0"],
    [1523938,"2026-06-11 11:40:00","70435","4.777","175.7","5.651","174.4","1023.612","20.61","65.18","880.0","0.0"],
    [1523939,"2026-06-11 11:50:00","70436","4.966","178.3","6.207000000000001","177.4","1023.515","20.6","65.05","825.0","0.0"],
    [1523940,"2026-06-11 12:00:00","70437","5.007","179.6","6.207000000000001","179.1","1023.478","20.59","64.36","796.3","0.0"],
    [1523941,"2026-06-11 12:10:00","70438","5.2589999999999995","177.6","6.403","170.0","1023.426","20.57","63.38","733.7","0.0"],
    [1523942,"2026-06-11 12:20:00","70439","4.975","186.6","6.337000000000001","187.7","1023.412","20.68","61.63","845.0","0.0"],
    [1523943,"2026-06-11 12:30:00","70440","5.081","181.5","6.435","173.5","1023.361","20.6","62.69","847.0","0.0"],
    [1523944,"2026-06-11 12:40:00","70441","4.613","183.7","5.749","178.4","1023.42","20.68","61.77","846.0","0.0"],
    [1523945,"2026-06-11 12:50:00","70442","4.715","185.5","6.1739999999999995","191.0","1023.461","20.61","62.03","832.0","0.0"],
    [1523946,"2026-06-11 13:00:00","70443","4.6930000000000005","184.4","6.0760000000000005","171.2","1023.466","20.62","61.32","919.0","0.0"],
    [1523947,"2026-06-11 13:10:00","70444","4.611000000000001","175.1","5.815","171.4","1023.404","20.56","57.43","861.0","0.0"],
    [1523948,"2026-06-11 13:20:00","70445","4.28","177.2","5.292000000000001","189.5","1023.32","20.56","59.72","684.7","0.0"],
    [1523949,"2026-06-11 13:30:00","70446","4.502","178.4","5.39","179.2","1023.29","20.65","59.06","853.0","0.0"],
    [1523950,"2026-06-11 13:40:00","70447","4.399","176.1","5.292000000000001","169.5","1023.233","20.76","61.48","889.0","0.0"],
    [1523951,"2026-06-11 13:50:00","70448","4.808","173.5","5.553","170.9","1023.246","20.73","59.91","880.0","0.0"],
    [1523952,"2026-06-11 14:00:00","70449","5.117","173.1","6.042999999999999","167.2","1023.163","20.75","59.76","839.0","0.0"],
    [1523953,"2026-06-11 14:10:00","70450","4.904","181.8","6.207000000000001","174.9","1023.079","20.92","61.6","838.0","0.0"],
    [1523954,"2026-06-11 14:20:00","70451","5.155","177.9","6.011","171.3","1022.991","21.01","61.81","834.0","0.0"],
    [1523955,"2026-06-11 14:30:00","70452","5.857","174.7","6.631","174.3","1022.923","20.98","62.87","771.4","0.0"],
    [1523956,"2026-06-11 14:40:00","70453","5.406000000000001","177.3","7.0889999999999995","174.5","1022.87","21.07","63.28","751.2","0.0"],
    [1523957,"2026-06-11 14:50:00","70454","5.353","178.9","6.5329999999999995","174.6","1022.843","21.09","62.88","669.4","0.0"],
    [1523958,"2026-06-11 15:00:00","70455","5.132000000000001","180.5","6.5329999999999995","172.9","1022.827","21.21","60.69","692.3","0.0"],
    [1523959,"2026-06-11 15:10:00","70456","5.724","174.8","6.827000000000001","174.3","1022.689","21.15","60.07","703.7","0.0"],
    [1523960,"2026-06-11 15:20:00","70457","5.325","179.0","6.468","173.1","1022.63","21.19","61.99","652.8","0.0"],
    [1523961,"2026-06-11 15:30:00","70458","4.8919999999999995","188.5","5.88","192.4","1022.647","21.27","57.25","637.1","0.0"],
    [1523962,"2026-06-11 15:40:00","70459","4.88","179.3","5.88","174.1","1022.568","21.38","57.07","586.3","0.0"],
    [1523963,"2026-06-11 15:50:00","70460","5.121","175.4","6.141","175.2","1022.612","21.42","57.3","570.0","0.0"],
    [1523964,"2026-06-11 16:00:00","70461","4.724","181.9","6.37","192.4","1022.59","21.57","57.03","516.3","0.0"],
    [1523965,"2026-06-11 16:10:00","70462","4.631","183.8","6.337000000000001","174.0","1022.573","21.8","54.9","502.2","0.0"],
    [1523966,"2026-06-11 16:20:00","70463","4.888","187.9","6.207000000000001","192.4","1022.54","21.83","53.47","450.8","0.0"],
    [1523967,"2026-06-11 16:30:00","70464","4.6610000000000005","190.2","6.5329999999999995","191.9","1022.583","21.81","55.22","429.6","0.0"],
    [1523968,"2026-06-11 16:40:00","70465","4.216","203.3","5.586","195.9","1022.658","22.02","53.63","411.3","0.0"],
    [1523969,"2026-06-11 16:50:00","70466","4.4510000000000005","196.9","6.631","200.9","1022.685","21.97","53.64","402.3","0.0"],
    [1523970,"2026-06-11 17:00:00","70467","4.103","201.4","7.121","207.7","1022.751","21.96","51.79","394.8","0.0"],
    [1523971,"2026-06-11 17:10:00","70468","4.303999999999999","189.6","6.468","193.9","1022.817","21.98","48.75","335.3","0.0"],
    [1523972,"2026-06-11 17:20:00","70469","4.461","183.2","6.403","185.2","1022.827","21.83","54.35","332.4","0.0"],
    [1523973,"2026-06-11 17:30:00","70470","4.664","187.8","6.403","192.2","1022.796","21.86","52.27","269.5","0.0"],
    [1523974,"2026-06-11 17:40:00","70471","4.3260000000000005","194.4","5.651","192.9","1022.798","22.1","52.89","259.6","0.0"],
    [1523975,"2026-06-11 17:50:00","70472","4.56","188.8","6.272","189.7","1022.822","22.04","56.6","197.8","0.0"],
    [1523976,"2026-06-11 18:00:00","70473","3.923","187.1","5.325","188.3","1022.921","21.98","56.89","199.6","0.0"],
    [1523977,"2026-06-11 18:10:00","70474","4.404","195.1","5.422999999999999","193.1","1022.963","21.95","57.79","140.8","0.0"],
    [1523978,"2026-06-11 18:20:00","70475","4.27","199.8","5.4879999999999995","189.8","1023.052","21.9","54.89","133.7","0.0"],
    [1523979,"2026-06-11 18:30:00","70476","4.393","191.2","6.109","181.2","1023.064","21.97","56.22","76.45","0.0"],
    [1523980,"2026-06-11 18:40:00","70477","4.272","193.1","5.521","190.4","1023.113","21.88","56.4","67.06","0.0"],
    [1523981,"2026-06-11 18:50:00","70478","3.627","206.2","5.1610000000000005","191.5","1023.195","21.9","58.22","67.06","0.0"],
    [1523982,"2026-06-11 19:00:00","70479","3.681","197.2","5.422999999999999","213.3","1023.154","21.82","60.8","9.97","0.0"],
    [1523983,"2026-06-11 19:10:00","70480","2.654","205.8","5.292000000000001","203.3","1023.258","21.82","60.96","0.0","0.0"],
    [1523984,"2026-06-11 19:20:00","70481","2.985","206.9","4.704","206.4","1023.35","21.82","61.32","0.0","0.0"],
    [1523985,"2026-06-11 19:30:00","70482","3.1189999999999998","201.8","4.475","195.9","1023.486","21.75","62.87","0.0","0.0"],
    [1523986,"2026-06-11 19:40:00","70483","3.175","198.7","4.345","205.5","1023.547","21.63","64.48","0.0","0.0"],
    [1523987,"2026-06-11 19:50:00","70484","2.33","209.0","4.475","193.3","1023.662","21.63","64.84","0.0","0.0"],
    [1523988,"2026-06-11 20:00:00","70485","2.5780000000000003","223.2","4.181","231.9","1023.764","21.63","65.79","0.0","0.0"],
    [1523989,"2026-06-11 20:10:00","70486","2.148","215.5","4.083","203.1","1023.863","21.63","67.17","0.0","0.0"],
    [1523990,"2026-06-11 20:20:00","70487","2.253","214.4","3.985","193.0","1023.984","21.6","69.31","0.0","0.0"],
    [1523991,"2026-06-11 20:30:00","70488","2.907","213.5","4.41","220.6","1024.156","21.48","70.68","0.0","0.0"],
    [1523992,"2026-06-11 20:40:00","70489","2.568","208.8","4.1160000000000005","204.8","1024.308","21.41","71.34","0.0","0.0"],
    [1523993,"2026-06-11 20:50:00","70490","2.69","220.0","5.4879999999999995","227.7","1024.396","21.34","71.4","0.0","0.0"],
    [1523994,"2026-06-11 21:00:00","70491","2.344","221.1","4.638999999999999","233.2","1024.502","21.3","71.52","0.0","0.0"],
    [1523995,"2026-06-11 21:10:00","70492","3.1630000000000003","224.6","5.39","217.4","1024.517","21.25","71.68","0.0","0.0"],
    [1523996,"2026-06-11 21:20:00","70493","2.6060000000000003","223.2","4.508","209.7","1024.581","21.21","72.05","0.0","0.0"],
    [1523997,"2026-06-11 21:30:00","70494","2.38","221.3","4.1160000000000005","231.1","1024.675","21.18","72.0","0.0","0.0"],
    [1523998,"2026-06-11 21:40:00","70495","1.9469999999999998","230.6","2.94","206.2","1024.664","21.13","72.34","0.0","0.0"],
    [1523999,"2026-06-11 21:50:00","70496","1.605","227.9","2.6460000000000004","200.8","1024.637","21.12","72.81","0.0","0.0"],
    [1524000,"2026-06-11 22:00:00","70497","1.39","234.5","2.679","222.2","1024.577","21.07","72.85","0.0","0.0"],
    [1524001,"2026-06-11 22:10:00","70498","1.8880000000000001","239.7","3.201","246.9","1024.446","20.98","72.43","0.0","0.0"],
    [1524002,"2026-06-11 22:20:00","70499","2.122","239.9","3.495","237.7","1024.427","20.93","71.82","0.0","0.0"],
    [1524003,"2026-06-11 22:30:00","70500","1.0590000000000002","227.5","2.254","242.3","1024.441","20.91","71.38","0.0","0.0"],
    [1524004,"2026-06-11 22:40:00","70501","1.4580000000000002","250.0","3.267","259.5","1024.422","20.87","70.72","0.0","0.0"],
    [1524005,"2026-06-11 22:50:00","70502","1.253","254.6","2.842","263.9","1024.415","20.84","66.59","0.0","0.0"],
    [1524006,"2026-06-11 23:00:00","70503","1.341","270.4","2.45","260.3","1024.405","20.84","65.58","0.0","0.0"],
    [1524007,"2026-06-11 23:10:00","70504","1.69","267.2","3.103","265.4","1024.415","20.84","66.44","0.0","0.0"],
    [1524008,"2026-06-11 23:20:00","70505","1.097","239.5","3.103","265.4","1024.385","20.85","68.23","0.0","0.0"],
    [1524009,"2026-06-11 23:30:00","70506","1.777","258.7","2.6460000000000004","263.3","1024.267","20.77","67.71","0.0","0.0"],
    [1524010,"2026-06-11 23:40:00","70507","1.0170000000000001","250.2","2.025","246.2","1024.233","20.69","66.13","0.0","0.0"],
    [1524011,"2026-06-11 23:50:00","70508","1.197","252.4","2.45","259.8","1024.227","20.59","65.12","0.0","0.0"],
    [1524012,"2026-06-12 00:00:00","70509","1.431","263.9","2.287","261.4","1024.284","20.49","64.23","0.0","0.0"],
    [1524013,"2026-06-12 00:10:00","70510","1.9080000000000001","261.5","2.515","263.7","1024.258","20.36","63.86","0.0","0.0"],
    [1524014,"2026-06-12 00:20:00","70511","1.66","269.5","2.0909999999999997","270.4","1024.172","20.38","63.55","0.0","0.0"],
    [1524015,"2026-06-12 00:30:00","70512","1.619","257.3","2.221","265.8","1024.164","20.42","63.2","0.0","0.0"],
    [1524016,"2026-06-12 00:40:00","70513","0.711","274.0","1.209","271.9","1024.237","20.58","62.84","0.0","0.0"],
    [1524017,"2026-06-12 00:50:00","70514","0.11","272.8","0.7509999999999999","265.7","1024.321","20.65","62.82","0.0","0.0"],
    [1524018,"2026-06-12 01:00:00","70515","0.907","274.9","1.47","261.1","1024.348","20.55","62.83","0.0","0.0"],
    [1524019,"2026-06-12 01:10:00","70516","0.113","277.0","0.7190000000000001","276.8","1024.281","20.62","64.33","0.0","0.0"],
    [1524020,"2026-06-12 01:20:00","70517","0.5579999999999999","259.3","1.339","261.5","1024.256","20.41","64.63","0.0","0.0"],
    [1524021,"2026-06-12 01:30:00","70518","0.0","0.0","0.0","0.0","1024.281","20.35","66.43","0.0","0.0"],
    [1524022,"2026-06-12 01:40:00","70519","0.754","276.4","1.3719999999999999","272.5","1024.286","20.19","66.11","0.0","0.0"],
    [1524023,"2026-06-12 01:50:00","70520","0.48","245.4","1.307","255.1","1024.294","20.02","66.6","0.0","0.0"],
    [1524024,"2026-06-12 02:00:00","70521","0.048","262.9","0.523","269.8","1024.213","19.97","67.62","0.0","0.0"],
    [1524025,"2026-06-12 02:10:00","70522","0.331","249.7","1.307","265.9","1024.232","19.94","67.1","0.0","0.0"],
    [1524026,"2026-06-12 02:20:00","70523","1.194","265.5","1.764","262.6","1024.395","19.78","67.61","0.0","0.0"],
    [1524027,"2026-06-12 02:30:00","70524","1.496","263.0","2.0909999999999997","262.1","1024.428","19.65","67.95","0.0","0.0"],
    [1524028,"2026-06-12 02:40:00","70525","1.331","260.3","1.8619999999999999","253.7","1024.49","19.61","68.28","0.0","0.0"],
    [1524029,"2026-06-12 02:50:00","70526","1.5130000000000001","259.2","2.123","270.1","1024.578","19.55","68.82","0.0","0.0"],
    [1524030,"2026-06-12 03:00:00","70527","1.46","257.4","2.123","265.0","1024.66","19.51","68.91","0.0","0.0"],
    [1524031,"2026-06-12 03:10:00","70528","1.7409999999999999","262.7","3.299","259.2","1024.705","19.37","69.46","0.0","0.0"],
    [1524032,"2026-06-12 03:20:00","70529","2.411","260.9","3.528","263.7","1024.757","18.73","70.52","0.0","0.0"],
    [1524033,"2026-06-12 03:30:00","70530","1.8259999999999998","258.3","3.0380000000000003","260.2","1024.81","18.31","71.9","0.0","0.0"],
    [1524034,"2026-06-12 03:40:00","70531","1.9880000000000002","264.2","2.94","263.4","1024.873","18.18","72.33","0.0","0.0"],
    [1524035,"2026-06-12 03:50:00","70532","1.952","270.5","2.7769999999999997","278.8","1024.934","18.3","72.45","0.0","0.0"],
    [1524036,"2026-06-12 04:00:00","70533","1.692","265.4","2.123","258.3","1025.002","18.41","72.39","0.0","0.0"],
    [1524037,"2026-06-12 04:10:00","70534","1.641","261.8","2.254","266.2","1025.03","18.45","72.39","0.0","0.0"],
    [1524038,"2026-06-12 04:20:00","70535","1.425","258.7","2.0580000000000003","254.6","1025.166","18.58","71.85","0.0","0.0"],
    [1524039,"2026-06-12 04:30:00","70536","1.207","253.1","2.0580000000000003","255.0","1025.277","18.64","71.49","0.0","0.0"],
    [1524040,"2026-06-12 04:40:00","70537","1.5590000000000002","264.7","2.156","262.8","1025.335","18.68","71.56","0.252","0.0"],
    [1524041,"2026-06-12 04:50:00","70538","1.649","254.6","2.483","257.2","1025.347","18.69","71.1","49.43","0.0"],
    [1524042,"2026-06-12 05:00:00","70539","1.03","247.4","1.7309999999999999","262.4","1025.474","18.81","70.14","50.02","0.0"],
    [1524043,"2026-06-12 05:10:00","70540","1.6909999999999998","261.3","2.613","270.3","1025.626","18.7","69.71","68.25","0.0"],
    [1524044,"2026-06-12 05:20:00","70541","1.9980000000000002","280.3","3.071","288.6","1025.648","18.91","69.01","125.5","0.0"],
    [1524045,"2026-06-12 05:30:00","70542","1.535","283.2","2.679","311.8","1025.637","19.7","66.92","134.2","0.0"],
    [1524046,"2026-06-12 05:40:00","70543","2.5660000000000003","290.9","3.822","284.7","1025.692","20.05","66.76","162.1","0.0"],
    [1524047,"2026-06-12 05:50:00","70544","2.6310000000000002","295.6","3.9530000000000003","286.9","1025.62","20.39","68.07","201.2","0.0"],
    [1524048,"2026-06-12 06:00:00","70545","2.662","293.7","3.887","281.9","1025.598","20.61","68.36","218.9","0.0"],
    [1524049,"2026-06-12 06:10:00","70546","2.872","291.9","4.4430000000000005","288.5","1025.525","20.82","68.74","268.3","0.0"],
    [1524050,"2026-06-12 06:20:00","70547","2.6830000000000003","292.3","4.541","283.2","1025.616","20.92","69.51","277.1","0.0"],
    [1524051,"2026-06-12 06:30:00","70548","2.537","296.0","4.181","278.9","1025.651","21.07","69.44","335.1","0.0"],
    [1524052,"2026-06-12 06:40:00","70549","2.199","288.1","3.5610000000000004","293.8","1025.648","21.38","68.62","340.4","0.0"],
    [1524053,"2026-06-12 06:50:00","70550","2.24","287.3","3.365","268.8","1025.631","21.6","67.8","401.6","0.0"],
    [1524054,"2026-06-12 07:00:00","70551","1.723","278.0","2.9730000000000003","279.8","1025.634","21.81","67.1","402.3","0.0"],
    [1524055,"2026-06-12 07:10:00","70552","1.82","279.6","3.6260000000000003","293.4","1025.584","22.08","65.87","423.2","0.0"],
    [1524056,"2026-06-12 07:20:00","70553","2.197","284.2","3.43","288.9","1025.614","22.11","65.54","435.8","0.0"],
    [1524057,"2026-06-12 07:30:00","70554","1.358","258.0","2.613","88.7","1025.635","22.48","64.23","476.5","0.0"],
    [1524058,"2026-06-12 07:40:00","70555","2.447","82.6","3.299","76.17","1025.61","21.52","67.29","502.8","0.0"],
    [1524059,"2026-06-12 07:50:00","70556","3.1289999999999996","89.6","3.887","80.5","1025.631","21.05","69.08","542.2","0.0"],
    [1524060,"2026-06-12 08:00:00","70557","2.47","96.6","3.234","92.0","1025.634","21.09","69.25","569.8","0.0"],
    [1524061,"2026-06-12 08:10:00","70558","2.891","105.6","3.5610000000000004","106.9","1025.686","21.19","69.72","586.3","0.0"],
    [1524062,"2026-06-12 08:20:00","70559","3.0780000000000003","118.6","3.5610000000000004","117.8","1025.743","21.25","70.88","636.9","0.0"],
    [1524063,"2026-06-12 08:30:00","70560","3.056","128.8","3.659","130.7","1025.682","21.34","71.67","637.2","0.0"],
    [1524064,"2026-06-12 08:40:00","70561","3.154","147.3","3.822","163.3","1025.597","21.43","72.82","693.4","0.0"],
    [1524065,"2026-06-12 08:50:00","70562","3.5060000000000002","153.9","3.9530000000000003","162.7","1025.562","21.52","70.86","704.0","0.0"],
    [1524066,"2026-06-12 09:00:00","70563","4.022","152.6","4.737","164.4","1025.504","21.61","72.43","727.5","0.0"],
    [1524067,"2026-06-12 09:10:00","70564","4.105","173.8","5.096","173.9","1025.433","21.57","77.32","771.1","0.0"],
    [1524068,"2026-06-12 09:20:00","70565","4.471","177.0","5.651","178.4","1025.48","21.48","79.02","771.1","0.0"],
    [1524069,"2026-06-12 09:30:00","70566","4.361000000000001","181.4","5.619","191.8","1025.485","21.59","78.82","798.2","0.0"],
    [1524070,"2026-06-12 09:40:00","70567","4.776","173.9","5.553","177.1","1025.499","21.47","80.7","838.0","0.0"],
    [1524071,"2026-06-12 09:50:00","70568","4.169","179.9","5.129","186.6","1025.43","21.49","81.5","838.0","0.0"],
    [1524072,"2026-06-12 10:00:00","70569","4.164","183.0","5.031000000000001","169.8","1025.501","21.62","81.5","840.0","0.0"],
    [1524073,"2026-06-12 10:10:00","70570","4.048","185.9","5.031000000000001","191.9","1025.495","21.68","81.3","890.0","0.0"],
    [1524074,"2026-06-12 10:20:00","70571","4.463","176.9","5.422999999999999","170.4","1025.488","21.7","81.1","905.0","0.0"],
    [1524075,"2026-06-12 10:30:00","70572","4.223","176.6","5.292000000000001","172.0","1025.472","21.73","82.2","905.0","0.0"],
    [1524076,"2026-06-12 10:40:00","70573","4.761","171.7","5.553","167.8","1025.494","21.64","82.9","905.0","0.0"],
    [1524077,"2026-06-12 10:50:00","70574","4.852","174.2","6.042999999999999","175.5","1025.573","21.65","83.3","908.0","0.0"],
    [1524078,"2026-06-12 11:00:00","70575","4.746","187.4","5.978","182.3","1025.559","21.82","81.9","944.0","0.0"],
    [1524079,"2026-06-12 11:10:00","70576","4.417","184.7","5.553","178.9","1025.592","21.97","81.1","971.0","0.0"],
    [1524080,"2026-06-12 11:20:00","70577","5.149","183.5","6.827000000000001","188.1","1025.578","22.09","80.6","972.0","0.0"],
    [1524081,"2026-06-12 11:30:00","70578","5.246","183.9","6.664","194.2","1025.516","22.13","80.3","972.0","0.0"],
    [1524082,"2026-06-12 11:40:00","70579","5.063","185.0","6.207000000000001","185.5","1025.494","22.19","79.89","972.0","0.0"],
    [1524083,"2026-06-12 11:50:00","70580","5.202999999999999","181.1","6.5329999999999995","173.3","1025.385","22.27","79.62","972.0","0.0"],
    [1524084,"2026-06-12 12:00:00","70581","5.153","184.9","6.5329999999999995","187.0","1025.321","22.36","77.85","972.0","0.0"],
    [1524085,"2026-06-12 12:10:00","70582","5.487","181.8","7.252000000000001","187.1","1025.289","22.54","77.67","972.0","0.0"],
    [1524086,"2026-06-12 12:20:00","70583","5.656000000000001","185.3","7.023","189.2","1025.188","22.8","71.9","971.0","0.0"],
    [1524087,"2026-06-12 12:30:00","70584","5.627000000000001","191.3","7.0889999999999995","191.6","1025.112","23.17","68.44","972.0","0.0"],
    [1524088,"2026-06-12 12:40:00","70585","5.776","192.3","7.971","198.1","1025.052","23.38","65.5","972.0","0.0"],
    [1524089,"2026-06-12 12:50:00","70586","5.651","191.8","7.481","190.3","1024.948","23.34","67.14","972.0","0.0"],
    [1524090,"2026-06-12 13:00:00","70587","6.167999999999999","192.6","8.82","182.6","1024.846","23.52","64.24","920.0","0.0"],
    [1524091,"2026-06-12 13:10:00","70588","5.893","190.4","8.23","197.8","1024.795","23.8","63.29","905.0","0.0"],
    [1524092,"2026-06-12 13:20:00","70589","4.815","210.1","8.26","193.6","1024.825","24.01","64.09","905.0","0.0"],
    [1524093,"2026-06-12 13:30:00","70590","4.869","206.3","7.938","200.7","1024.782","24.16","65.5","905.0","0.0"],
    [1524094,"2026-06-12 13:40:00","70591","4.461","205.9","7.285","191.9","1024.692","24.35","63.44","903.0","0.0"],
    [1524095,"2026-06-12 13:50:00","70592","4.2010000000000005","216.2","6.925","225.6","1024.638","24.62","59.86","850.0","0.0"],
    [1524096,"2026-06-12 14:00:00","70593","5.063","215.2","7.317","245.7","1024.526","24.51","57.87","838.0","0.0"],
    [1524097,"2026-06-12 14:10:00","70594","4.888","209.9","7.4479999999999995","196.8","1024.419","24.69","56.06","838.0","0.0"],
    [1524098,"2026-06-12 14:20:00","70595","5.065","210.6","7.35","227.1","1024.327","24.96","55.39","803.0","0.0"],
    [1524099,"2026-06-12 14:30:00","70596","4.401","212.2","7.415","204.5","1024.172","25.13","53.96","770.9","0.0"],
    [1524100,"2026-06-12 14:40:00","70597","3.9960000000000004","216.3","6.795","221.1","1024.059","25.51","51.86","768.8","0.0"],
    [1524101,"2026-06-12 14:50:00","70598","4.623","211.6","7.35","211.7","1023.97","25.6","49.73","706.4","0.0"],
    [1524102,"2026-06-12 15:00:00","70599","4.963","203.7","7.481","210.2","1023.872","25.49","49.15","703.9","0.0"],
    [1524103,"2026-06-12 15:10:00","70600","3.542","216.4","5.7170000000000005","212.2","1023.853","25.67","48.89","682.5","0.0"],
    [1524104,"2026-06-12 15:20:00","70601","4.7669999999999995","209.8","7.807","197.7","1023.82","25.4","51.46","636.7","0.0"],
    [1524105,"2026-06-12 15:30:00","70602","4.645","218.7","7.709","227.0","1023.786","25.36","49.84","636.0","0.0"],
    [1524106,"2026-06-12 15:40:00","70603","3.728","219.7","6.305","192.6","1023.777","25.17","56.32","572.8","0.0"],
    [1524107,"2026-06-12 15:50:00","70604","4.418","202.8","7.938","202.1","1023.729","24.95","55.7","569.5","0.0"],
    [1524108,"2026-06-12 16:00:00","70605","4.111000000000001","216.6","7.775","234.0","1023.786","24.89","57.0","514.4","0.0"],
    [1524109,"2026-06-12 16:10:00","70606","4.48","211.5","7.513","209.6","1023.745","24.64","58.88","502.6","0.0"],
    [1524110,"2026-06-12 16:20:00","70607","4.615","213.1","7.187","231.6","1023.735","24.56","60.39","459.7","0.0"],
    [1524111,"2026-06-12 16:30:00","70608","5.44","215.9","7.481","228.3","1023.675","24.36","59.95","435.6","0.0"],
    [1524112,"2026-06-12 16:40:00","70609","5.082","212.7","8.33","235.6","1023.636","24.38","58.71","419.0","0.0"],
    [1524113,"2026-06-12 16:50:00","70610","4.774","212.1","7.154","196.4","1023.611","24.53","58.69","402.2","0.0"],
    [1524114,"2026-06-12 17:00:00","70611","5.61","221.0","8.82","216.2","1023.623","24.45","56.07","374.6","0.0"],
    [1524115,"2026-06-12 17:10:00","70612","4.521","221.4","8.17","225.1","1023.552","24.52","56.46","335.2","0.0"],
    [1524116,"2026-06-12 17:20:00","70613","3.3080000000000003","222.4","6.239","223.6","1023.454","24.8","56.64","306.5","0.0"],
    [1524117,"2026-06-12 17:30:00","70614","4.51","222.1","7.154","230.5","1023.47","24.74","57.23","268.1","0.0"],
    [1524118,"2026-06-12 17:40:00","70615","4.1339999999999995","222.4","7.056","222.9","1023.44","24.81","55.72","244.9","0.0"],
    [1524119,"2026-06-12 17:50:00","70616","4.178","225.4","6.795","228.3","1023.457","25.0","52.65","201.1","0.0"],
    [1524120,"2026-06-12 18:00:00","70617","3.615","215.6","5.978","235.7","1023.462","24.94","54.85","188.9","0.0"],
    [1524121,"2026-06-12 18:10:00","70618","4.1819999999999995","219.3","7.023","223.8","1023.452","24.69","57.0","134.1","0.0"],
    [1524122,"2026-06-12 18:20:00","70619","3.3710000000000004","214.7","5.292000000000001","200.6","1023.457","24.55","58.35","134.1","0.0"],
    [1524123,"2026-06-12 18:30:00","70620","4.1080000000000005","223.1","6.631","225.3","1023.409","24.5","59.9","89.1","0.0"],
    [1524124,"2026-06-12 18:40:00","70621","4.085","226.1","7.513","219.6","1023.333","24.2","61.26","67.04","0.0"],
    [1524125,"2026-06-12 18:50:00","70622","3.0639999999999996","232.3","7.023","219.9","1023.301","24.35","60.93","67.04","0.0"],
    [1524126,"2026-06-12 19:00:00","70623","3.128","231.7","6.141","214.8","1023.237","24.07","63.88","18.41","0.0"],
    [1524127,"2026-06-12 19:10:00","70624","3.0069999999999997","233.8","6.9910000000000005","210.3","1023.273","23.85","66.65","0.0","0.0"],
    [1524128,"2026-06-12 19:20:00","70625","2.852","245.3","5.292000000000001","261.0","1023.312","23.63","67.08","0.0","0.0"],
    [1524129,"2026-06-12 19:30:00","70626","2.895","248.9","4.638999999999999","249.0","1023.362","23.75","63.69","0.0","0.0"],
    [1524130,"2026-06-12 19:40:00","70627","3.025","242.2","4.835","223.7","1023.338","23.72","64.68","0.0","0.0"],
    [1524131,"2026-06-12 19:50:00","70628","3.03","241.6","5.651","255.2","1023.335","23.62","66.4","0.0","0.0"],
    [1524132,"2026-06-12 20:00:00","70629","3.053","242.3","4.998","246.1","1023.398","23.71","64.28","0.0","0.0"],
    [1524133,"2026-06-12 20:10:00","70630","2.6839999999999997","244.3","4.41","255.8","1023.441","23.84","61.86","0.0","0.0"],
    [1524134,"2026-06-12 20:20:00","70631","2.449","247.1","3.659","274.7","1023.538","23.8","61.78","0.0","0.0"],
    [1524135,"2026-06-12 20:30:00","70632","2.154","253.3","3.43","246.8","1023.608","23.71","62.36","0.0","0.0"],
    [1524136,"2026-06-12 20:40:00","70633","2.381","244.6","3.495","233.7","1023.634","23.51","63.34","0.0","0.0"],
    [1524137,"2026-06-12 20:50:00","70634","1.8419999999999999","248.1","3.1689999999999996","253.8","1023.72","23.39","64.61","0.0","0.0"],
    [1524138,"2026-06-12 21:00:00","70635","1.604","253.6","2.679","254.9","1023.806","23.45","62.82","0.0","0.0"],
    [1524139,"2026-06-12 21:10:00","70636","1.181","245.1","1.993","266.8","1023.871","23.52","61.82","0.0","0.0"],
    [1524140,"2026-06-12 21:20:00","70637","1.298","225.9","2.45","223.1","1023.872","23.77","59.95","0.0","0.0"],
    [1524141,"2026-06-12 21:30:00","70638","0.599","236.5","1.7309999999999999","225.1","1023.914","23.77","59.47","0.0","0.0"],
    [1524142,"2026-06-12 21:40:00","70639","1.4609999999999999","227.9","2.7110000000000003","203.2","1023.958","23.73","59.16","0.0","0.0"],
    [1524143,"2026-06-12 21:50:00","70640","0.7190000000000001","270.4","2.0580000000000003","268.2","1023.943","23.42","60.82","0.0","0.0"],
    [1524144,"2026-06-12 22:00:00","70641","1.3869999999999998","238.6","2.0909999999999997","255.0","1023.941","23.51","59.8","0.0","0.0"],
    [1524145,"2026-06-12 22:10:00","70642","2.22","202.1","3.1689999999999996","204.9","1023.945","23.45","60.56","0.0","0.0"],
    [1524146,"2026-06-12 22:20:00","70643","0.603","229.8","2.679","206.4","1023.91","23.39","60.15","0.0","0.0"],
    [1524147,"2026-06-12 22:30:00","70644","0.556","207.1","1.9269999999999998","228.4","1023.937","23.26","60.39","0.0","0.0"],
    [1524148,"2026-06-12 22:40:00","70645","0.315","252.5","1.045","264.6","1023.936","23.23","60.79","0.0","0.0"],
    [1524149,"2026-06-12 22:50:00","70646","0.703","218.1","1.274","198.5","1023.909","23.19","61.81","0.0","0.0"],
    [1524150,"2026-06-12 23:00:00","70647","1.652","262.1","2.7439999999999998","273.4","1023.895","22.91","63.48","0.0","0.0"],
    [1524151,"2026-06-12 23:10:00","70648","0.57","294.8","2.352","274.0","1023.829","22.88","62.06","0.0","0.0"],
    [1524152,"2026-06-12 23:20:00","70649","0.8740000000000001","257.4","1.3719999999999999","257.1","1023.742","22.88","60.82","0.0","0.0"],
    [1524153,"2026-06-12 23:30:00","70650","0.40299999999999997","242.5","1.2409999999999999","273.4","1023.674","22.78","60.48","0.0","0.0"],
    [1524154,"2026-06-12 23:40:00","70651","0.35600000000000004","162.5","1.339","155.9","1023.628","22.65","63.7","0.0","0.0"],
    [1524155,"2026-06-12 23:50:00","70652","0.377","204.3","1.3719999999999999","166.4","1023.568","22.66","63.22","0.0","0.0"],
    [1524156,"2026-06-13 00:00:00","70653","0.004","305.4","0.261","301.1","1023.592","22.62","62.1","0.0","0.0"],
    [1524157,"2026-06-13 00:10:00","70654","0.866","259.5","2.189","251.8","1023.503","22.52","62.03","0.0","0.0"],
    [1524158,"2026-06-13 00:20:00","70655","1.579","257.8","2.156","259.6","1023.444","22.57","59.96","0.0","0.0"],
    [1524159,"2026-06-13 00:30:00","70656","2.04","262.8","2.679","261.1","1023.401","22.38","60.43","0.0","0.0"],
    [1524160,"2026-06-13 00:40:00","70657","1.8230000000000002","271.9","2.287","262.7","1023.275","22.22","60.6","0.0","0.0"],
    [1524161,"2026-06-13 00:50:00","70658","2.093","259.8","2.5810000000000004","257.0","1023.211","22.19","59.97","0.0","0.0"],
    [1524162,"2026-06-13 01:00:00","70659","2.23","258.4","2.907","262.8","1023.187","22.44","58.85","0.0","0.0"],
    [1524163,"2026-06-13 01:10:00","70660","2.057","254.1","3.0380000000000003","267.5","1023.151","22.22","58.22","0.0","0.0"],
    [1524164,"2026-06-13 01:20:00","70661","2.128","259.3","3.365","268.9","1023.121","21.84","59.52","0.0","0.0"],
    [1524165,"2026-06-13 01:30:00","70662","2.4019999999999997","262.7","3.43","252.9","1022.999","21.75","59.48","0.0","0.0"],
    [1524166,"2026-06-13 01:40:00","70663","2.46","263.9","3.495","271.4","1022.81","21.83","58.32","0.0","0.0"],
    [1524167,"2026-06-13 01:50:00","70664","2.234","264.7","2.9730000000000003","259.3","1022.649","21.92","57.29","0.0","0.0"],
    [1524168,"2026-06-13 02:00:00","70665","2.175","270.6","2.613","258.7","1022.506","22.22","54.66","0.0","0.0"],
    [1524169,"2026-06-13 02:10:00","70666","2.471","264.6","3.201","263.0","1022.448","22.33","53.85","0.0","0.0"],
    [1524170,"2026-06-13 02:20:00","70667","2.456","263.2","2.875","266.5","1022.346","22.18","55.3","0.0","0.0"],
    [1524171,"2026-06-13 02:30:00","70668","1.9269999999999998","267.7","2.515","265.3","1022.269","22.27","53.89","0.0","0.0"],
    [1524172,"2026-06-13 02:40:00","70669","0.828","238.5","2.548","263.9","1022.266","22.25","54.41","0.0","0.0"],
    [1524173,"2026-06-13 02:50:00","70670","0.741","239.1","1.8619999999999999","228.8","1022.221","22.14","54.64","0.0","0.0"],
    [1524174,"2026-06-13 03:00:00","70671","1.347","239.7","2.385","267.8","1022.248","22.11","54.92","0.0","0.0"],
    [1524175,"2026-06-13 03:10:00","70672","2.575","249.1","4.247","248.2","1022.293","22.06","57.04","0.0","0.0"],
    [1524176,"2026-06-13 03:20:00","70673","2.441","262.3","3.92","269.7","1022.315","21.94","57.53","0.0","0.0"],
    [1524177,"2026-06-13 03:30:00","70674","2.574","265.1","4.083","265.1","1022.214","21.92","57.28","0.0","0.0"],
    [1524178,"2026-06-13 03:40:00","70675","2.522","267.5","3.92","261.5","1022.117","21.89","57.31","0.0","0.0"],
    [1524179,"2026-06-13 03:50:00","70676","2.219","264.1","3.397","257.1","1022.133","21.89","57.25","0.0","0.0"],
    [1524180,"2026-06-13 04:00:00","70677","2.52","268.9","3.495","261.6","1022.154","21.89","57.05","0.0","0.0"],
    [1524181,"2026-06-13 04:10:00","70678","2.573","273.9","2.907","282.2","1022.159","21.92","56.87","0.0","0.0"],
    [1524182,"2026-06-13 04:20:00","70679","2.201","263.2","3.071","262.1","1022.198","21.87","56.6","0.0","0.0"],
    [1524183,"2026-06-13 04:30:00","70680","2.089","277.2","2.907","262.2","1022.236","21.75","57.45","0.0","0.0"],
    [1524184,"2026-06-13 04:40:00","70681","2.279","270.7","2.875","269.8","1022.252","21.79","57.09","0.0","0.0"],
    [1524185,"2026-06-13 04:50:00","70682","2.431","266.3","3.495","274.2","1022.267","21.85","56.28","45.57","0.0"],
    [1524186,"2026-06-13 05:00:00","70683","2.548","265.1","3.5610000000000004","270.3","1022.306","22.1","55.01","67.09","0.0"],
    [1524187,"2026-06-13 05:10:00","70684","2.26","257.0","3.887","264.1","1022.341","22.39","53.96","67.09","0.0"],
    [1524188,"2026-06-13 05:20:00","70685","2.421","273.3","3.855","265.5","1022.378","22.54","54.02","123.4","0.0"],
    [1524189,"2026-06-13 05:30:00","70686","1.435","275.8","2.221","264.3","1022.397","22.76","53.98","111.5","0.0"],
    [1524190,"2026-06-13 05:40:00","70687","1.208","271.9","1.8619999999999999","254.7","1022.367","23.08","52.67","162.9","0.0"],
    [1524191,"2026-06-13 05:50:00","70688","1.651","260.6","2.45","252.1","1022.457","23.27","51.57","201.2","0.0"],
    [1524192,"2026-06-13 06:00:00","70689","1.77","272.9","3.0380000000000003","272.3","1022.504","23.65","49.95","218.2","0.0"],
    [1524193,"2026-06-13 06:10:00","70690","1.392","284.2","2.613","271.8","1022.529","24.03","48.97","268.2","0.0"],
    [1524194,"2026-06-13 06:20:00","70691","0.7659999999999999","330.3","1.2409999999999999","329.3","1022.531","24.41","47.64","271.2","0.0"],
    [1524195,"2026-06-13 06:30:00","70692","1.706","32.85","3.299","34.27","1022.617","23.81","55.8","334.2","0.0"],
    [1524196,"2026-06-13 06:40:00","70693","2.3480000000000003","33.97","2.842","30.55","1022.602","22.61","63.84","338.2","0.0"],
    [1524197,"2026-06-13 06:50:00","70694","2.042","34.52","2.679","33.27","1022.582","22.73","60.74","401.1","0.0"],
    [1524198,"2026-06-13 07:00:00","70695","1.555","40.01","2.45","33.76","1022.602","23.23","55.94","402.2","0.0"],
    [1524199,"2026-06-13 07:10:00","70696","0.264","63.38","1.209","44.49","1022.615","24.1","51.96","427.9","0.0"],
    [1524200,"2026-06-13 07:20:00","70697","0.084","214.3","0.392","211.4","1022.52","24.33","51.22","435.7","0.0"],
    [1524201,"2026-06-13 07:30:00","70698","0.013999999999999999","89.8","0.327","84.6","1022.592","25.39","47.92","463.7","0.0"],
    [1524202,"2026-06-13 07:40:00","70699","0.45","145.5","0.7509999999999999","144.0","1022.519","25.0","48.77","502.7","0.0"],
    [1524203,"2026-06-13 07:50:00","70700","0.95","160.1","1.339","177.6","1022.372","24.54","49.94","508.4","0.0"],
    [1524204,"2026-06-13 08:00:00","70701","1.318","167.2","1.4369999999999998","169.2","1022.342","24.36","49.67","569.6","0.0"],
    [1524205,"2026-06-13 08:10:00","70702","1.3419999999999999","155.0","1.666","170.9","1022.263","24.59","48.37","594.8","0.0"],
    [1524206,"2026-06-13 08:20:00","70703","1.528","165.3","1.666","156.2","1022.239","24.57","49.43","636.6","0.0"],
    [1524207,"2026-06-13 08:30:00","70704","1.625","165.8","1.7309999999999999","159.8","1022.216","24.7","48.44","642.0","0.0"],
    [1524208,"2026-06-13 08:40:00","70705","1.69","158.6","2.123","159.3","1022.139","24.91","48.92","697.4","0.0"],
    [1524209,"2026-06-13 08:50:00","70706","2.106","172.6","2.417","174.6","1022.014","24.77","51.61","695.2","0.0"],
    [1524210,"2026-06-13 09:00:00","70707","2.276","187.0","2.907","192.8","1021.932","24.23","60.08","741.0","0.0"],
    [1524211,"2026-06-13 09:10:00","70708","2.8989999999999996","178.9","3.6260000000000003","179.9","1021.927","24.0","58.26","730.0","0.0"],
    [1524212,"2026-06-13 09:20:00","70709","3.0660000000000003","181.1","4.018","174.2","1021.851","23.99","63.6","770.8","0.0"],
    [1524213,"2026-06-13 09:30:00","70710","3.3960000000000004","180.5","4.279","175.3","1021.783","24.21","61.24","793.1","0.0"],
    [1524214,"2026-06-13 09:40:00","70711","3.775","179.9","4.606","178.8","1021.765","24.04","63.42","838.0","0.0"],
    [1524215,"2026-06-13 09:50:00","70712","3.648","187.1","4.377","195.6","1021.727","23.8","70.35","838.0","0.0"],
    [1524216,"2026-06-13 10:00:00","70713","4.015","182.9","5.521","168.5","1021.729","23.74","70.14","838.0","0.0"],
    [1524217,"2026-06-13 10:10:00","70714","4.586","178.0","6.86","180.6","1021.786","23.71","68.55","885.0","0.0"],
    [1524218,"2026-06-13 10:20:00","70715","4.484","180.8","6.141","183.8","1021.972","23.61","74.45","905.0","0.0"],
    [1524219,"2026-06-13 10:30:00","70716","3.2939999999999996","161.6","4.606","163.4","1022.116","23.32","73.89","905.0","0.0"],
    [1524220,"2026-06-13 10:40:00","70717","3.063","149.6","3.9530000000000003","160.1","1022.088","23.34","73.75","897.0","0.0"],
    [1524221,"2026-06-13 10:50:00","70718","3.968","163.0","4.41","167.3","1021.997","23.34","74.49","969.0","0.0"],
    [1524222,"2026-06-13 11:00:00","70719","3.741","164.0","4.671","171.0","1022.051","23.41","72.96","954.0","0.0"],
    [1524223,"2026-06-13 11:10:00","70720","3.535","159.2","4.018","164.6","1022.071","23.51","68.87","972.0","0.0"],
    [1524224,"2026-06-13 11:20:00","70721","3.6910000000000003","147.7","5.357","157.3","1022.022","23.37","71.51","961.0","0.0"],
    [1524225,"2026-06-13 11:30:00","70722","2.715","134.9","3.7889999999999997","146.9","1022.013","23.43","74.97","968.0","0.0"],
    [1524226,"2026-06-13 11:40:00","70723","3.252","129.4","4.051","127.3","1021.97","23.15","78.47","950.0","0.0"],
    [1524227,"2026-06-13 11:50:00","70724","3.266","131.7","4.279","134.3","1021.901","23.0","79.7","972.0","0.0"],
    [1524228,"2026-06-13 12:00:00","70725","3.111","132.0","3.855","126.4","1021.782","22.98","79.06","972.0","0.0"],
    [1524229,"2026-06-13 12:10:00","70726","2.88","130.7","3.92","136.2","1021.737","23.11","77.53","968.0","0.0"],
    [1524230,"2026-06-13 12:20:00","70727","3.445","133.3","4.1160000000000005","137.2","1021.657","23.12","75.73","972.0","0.0"],
    [1524231,"2026-06-13 12:30:00","70728","3.8160000000000003","148.8","4.704","153.3","1021.641","23.16","75.14","972.0","0.0"],
    [1524232,"2026-06-13 12:40:00","70729","3.793","152.1","4.541","153.7","1021.596","23.17","76.42","972.0","0.0"],
    [1524233,"2026-06-13 12:50:00","70730","3.859","162.8","4.4430000000000005","165.7","1021.537","23.14","78.31","921.0","0.0"],
    [1524234,"2026-06-13 13:00:00","70731","3.9810000000000003","162.5","4.312","164.1","1021.469","23.05","81.4","964.0","0.0"],
    [1524235,"2026-06-13 13:10:00","70732","3.995","161.7","4.345","162.9","1021.388","22.97","81.0","931.0","0.0"],
    [1524236,"2026-06-13 13:20:00","70733","4.281000000000001","163.6","4.638999999999999","165.8","1021.315","23.09","79.03","889.0","0.0"],
    [1524237,"2026-06-13 13:30:00","70734","4.58","162.1","5.031000000000001","162.3","1021.192","23.11","79.47","841.0","0.0"],
    [1524238,"2026-06-13 13:40:00","70735","4.587","164.2","4.965","168.8","1021.11","23.2","79.73","794.1","0.0"],
    [1524239,"2026-06-13 13:50:00","70736","3.807","158.6","4.606","163.3","1021.052","23.27","79.68","779.4","0.0"],
    [1524240,"2026-06-13 14:00:00","70737","3.7289999999999996","157.7","4.247","158.0","1020.988","23.25","79.42","760.9","0.0"],
    [1524241,"2026-06-13 14:10:00","70738","3.792","150.8","4.247","151.4","1020.88","23.33","81.0","724.4","0.0"],
    [1524242,"2026-06-13 14:20:00","70739","3.745","153.3","4.2139999999999995","156.7","1020.794","23.27","84.1","739.3","0.0"],
    [1524243,"2026-06-13 14:30:00","70740","4.023","164.9","4.671","171.9","1020.737","23.23","84.0","765.7","0.0"],
    [1524244,"2026-06-13 14:40:00","70741","4.388999999999999","166.5","4.998","166.4","1020.651","23.17","84.6","769.2","0.0"],
    [1524245,"2026-06-13 14:50:00","70742","4.452","166.5","4.998","167.8","1020.487","23.24","83.9","723.2","0.0"],
    [1524246,"2026-06-13 15:00:00","70743","4.43","165.5","5.096","163.6","1020.361","23.25","85.0","704.1","0.0"],
    [1524247,"2026-06-13 15:10:00","70744","4.468","161.6","4.965","157.3","1020.296","23.36","84.7","703.9","0.0"],
    [1524248,"2026-06-13 15:20:00","70745","4.363","160.2","4.802","159.0","1020.237","23.38","85.2","665.8","0.0"],
    [1524249,"2026-06-13 15:30:00","70746","4.337","165.1","5.39","168.5","1020.19","23.48","81.7","636.8","0.0"],
    [1524250,"2026-06-13 15:40:00","70747","3.927","155.1","4.835","151.5","1020.129","23.56","84.3","585.5","0.0"],
    [1524251,"2026-06-13 15:50:00","70748","3.8789999999999996","156.6","5.063","158.7","1020.063","23.36","86.9","538.4","0.0"],
    [1524252,"2026-06-13 16:00:00","70749","3.675","165.0","4.247","171.2","1020.076","23.23","86.0","440.4","0.0"],
    [1524253,"2026-06-13 16:10:00","70750","3.96","170.4","4.41","180.7","1020.031","23.27","84.2","409.4","0.0"],
    [1524254,"2026-06-13 16:20:00","70751","3.736","173.3","5.325","171.9","1020.002","23.19","84.5","420.1","0.0"],
    [1524255,"2026-06-13 16:30:00","70752","4.2589999999999995","168.1","5.129","178.2","1019.909","23.33","83.0","409.6","0.0"],
    [1524256,"2026-06-13 16:40:00","70753","4.053","170.4","4.573","169.1","1019.844","23.23","84.5","354.8","0.0"],
    [1524257,"2026-06-13 16:50:00","70754","4.152","172.8","5.1610000000000005","170.6","1019.708","23.29","83.9","420.2","0.0"],
    [1524258,"2026-06-13 17:00:00","70755","3.97","170.1","4.737","169.7","1019.632","23.27","84.7","399.2","0.0"],
    [1524259,"2026-06-13 17:10:00","70756","3.84","165.2","4.377","166.5","1019.634","23.22","85.5","345.9","0.0"],
    [1524260,"2026-06-13 17:20:00","70757","4.355","166.5","4.998","171.6","1019.565","23.16","86.2","335.2","0.0"],
    [1524261,"2026-06-13 17:30:00","70758","4.172","167.8","5.031000000000001","170.1","1019.514","23.23","85.6","286.9","0.0"],
    [1524262,"2026-06-13 17:40:00","70759","3.95","170.4","4.606","169.4","1019.468","23.14","86.3","268.1","0.0"],
    [1524263,"2026-06-13 17:50:00","70760","4.114","173.0","4.769","172.5","1019.371","23.17","86.1","215.7","0.0"],
    [1524264,"2026-06-13 18:00:00","70761","4.408","171.7","5.031000000000001","169.0","1019.361","23.18","86.0","195.7","0.0"],
    [1524265,"2026-06-13 18:10:00","70762","4.188","170.9","4.933","171.6","1019.28","23.16","86.1","141.7","0.0"],
    [1524266,"2026-06-13 18:20:00","70763","4.7669999999999995","167.8","5.455","167.5","1019.195","23.15","86.1","134.1","0.0"],
    [1524267,"2026-06-13 18:30:00","70764","4.888999999999999","166.2","5.227","166.8","1019.109","23.13","85.8","100.2","0.0"],
    [1524268,"2026-06-13 18:40:00","70765","4.928999999999999","170.0","5.7170000000000005","170.3","1019.057","23.13","86.1","67.05","0.0"],
    [1524269,"2026-06-13 18:50:00","70766","4.473","175.7","5.325","170.8","1019.051","22.98","87.8","67.06","0.0"],
    [1524270,"2026-06-13 19:00:00","70767","4.048","179.8","5.357","177.4","1019.043","22.96","86.5","40.99","0.0"],
    [1524271,"2026-06-13 19:10:00","70768","4.399","190.7","5.325","192.8","1018.957","23.36","80.4","0.084","0.0"],
    [1524272,"2026-06-13 19:20:00","70769","3.889","193.3","5.1610000000000005","194.5","1018.938","23.82","74.26","0.0","0.0"],
    [1524273,"2026-06-13 19:30:00","70770","3.031","203.7","5.129","214.3","1018.917","24.56","64.51","0.0","0.0"],
    [1524274,"2026-06-13 19:40:00","70771","2.928","205.4","4.998","222.1","1018.868","24.85","60.83","0.0","0.0"],
    [1524275,"2026-06-13 19:50:00","70772","3.082","208.3","4.737","205.4","1018.888","25.05","57.61","0.0","0.0"],
    [1524276,"2026-06-13 20:00:00","70773","2.6260000000000003","212.9","4.312","217.3","1018.909","25.15","55.47","0.0","0.0"],
    [1524277,"2026-06-13 20:10:00","70774","2.819","212.1","5.422999999999999","223.4","1018.978","25.17","55.09","0.0","0.0"],
    [1524278,"2026-06-13 20:20:00","70775","2.687","210.3","4.606","210.7","1019.032","25.06","54.98","0.0","0.0"],
    [1524279,"2026-06-13 20:30:00","70776","1.844","223.7","3.332","203.5","1019.068","25.17","53.97","0.0","0.0"],
    [1524280,"2026-06-13 20:40:00","70777","1.5830000000000002","225.7","3.136","244.7","1019.096","25.19","53.77","0.0","0.0"],
    [1524281,"2026-06-13 20:50:00","70778","1.923","234.7","3.234","251.3","1019.121","25.48","49.74","0.0","0.0"],
    [1524282,"2026-06-13 21:00:00","70779","2.021","239.7","4.181","258.5","1019.12","25.62","47.76","0.0","0.0"],
    [1524283,"2026-06-13 21:10:00","70780","1.834","236.2","3.593","279.5","1019.103","25.72","46.75","0.0","0.0"],
    [1524284,"2026-06-13 21:20:00","70781","1.3459999999999999","237.2","2.6460000000000004","268.8","1019.046","25.43","49.07","0.0","0.0"],
    [1524285,"2026-06-13 21:30:00","70782","1.306","260.7","3.234","257.5","1018.971","25.25","47.86","0.0","0.0"],
    [1524286,"2026-06-13 21:40:00","70783","1.258","255.6","2.156","274.1","1018.803","25.05","48.26","0.0","0.0"],
    [1524287,"2026-06-13 21:50:00","70784","1.314","246.3","2.189","254.2","1018.758","24.98","47.08","0.0","0.0"],
    [1524288,"2026-06-13 22:00:00","70785","1.594","240.1","2.7110000000000003","231.2","1018.706","25.17","45.09","0.0","0.0"],
    [1524289,"2026-06-13 22:10:00","70786","1.28","249.6","2.5810000000000004","225.4","1018.665","25.32","44.0","0.0","0.0"],
    [1524290,"2026-06-13 22:20:00","70787","1.939","243.7","3.7239999999999998","217.2","1018.656","25.45","41.76","0.0","0.0"],
    [1524291,"2026-06-13 22:30:00","70788","1.733","242.1","3.234","243.1","1018.662","25.54","42.28","0.0","0.0"],
    [1524292,"2026-06-13 22:40:00","70789","1.024","246.4","2.123","246.5","1018.559","25.22","43.49","0.0","0.0"],
    [1524293,"2026-06-13 22:50:00","70790","1.828","240.0","3.0380000000000003","263.2","1018.483","25.31","41.93","0.0","0.0"],
    [1524294,"2026-06-13 23:00:00","70791","1.7890000000000001","242.3","3.0380000000000003","238.1","1018.459","25.41","41.11","0.0","0.0"],
    [1524295,"2026-06-13 23:10:00","70792","1.5719999999999998","244.1","2.842","252.4","1018.384","25.34","41.28","0.0","0.0"],
    [1524296,"2026-06-13 23:20:00","70793","1.791","233.5","2.907","219.3","1018.305","25.26","41.35","0.0","0.0"],
    [1524297,"2026-06-13 23:30:00","70794","1.2309999999999999","252.9","2.417","265.0","1018.175","25.22","41.78","0.0","0.0"],
    [1524298,"2026-06-13 23:40:00","70795","0.973","246.5","2.123","258.1","1018.081","24.85","42.65","0.0","0.0"],
    [1524299,"2026-06-13 23:50:00","70796","1.306","240.0","2.156","263.8","1018.046","25.2","40.74","0.0","0.0"],
    [1524300,"2026-06-14 00:00:00","70797","1.114","252.9","1.96","270.5","1017.945","25.07","41.72","0.0","0.0"],
    [1524301,"2026-06-14 00:10:00","70798","1.18","247.1","2.0580000000000003","239.3","1017.845","24.73","42.61","0.0","0.0"],
    [1524302,"2026-06-14 00:20:00","70799","0.961","249.5","1.9269999999999998","240.6","1017.676","24.63","43.29","0.0","0.0"],
    [1524303,"2026-06-14 00:30:00","70800","1.1079999999999999","245.9","1.993","236.9","1017.574","24.34","44.01","0.0","0.0"],
    [1524304,"2026-06-14 00:40:00","70801","1.535","251.2","2.875","262.8","1017.486","24.49","42.62","0.0","0.0"],
    [1524305,"2026-06-14 00:50:00","70802","1.7690000000000001","245.5","3.43","266.1","1017.366","24.57","42.15","0.0","0.0"],
    [1524306,"2026-06-14 01:00:00","70803","2.106","253.5","3.495","256.4","1017.222","24.58","42.63","0.0","0.0"],
    [1524307,"2026-06-14 01:10:00","70804","2.219","255.8","3.528","243.3","1017.057","24.01","44.28","0.0","0.0"],
    [1524308,"2026-06-14 01:20:00","70805","2.104","258.8","3.593","246.9","1016.982","24.09","43.31","0.0","0.0"],
    [1524309,"2026-06-14 01:30:00","70806","1.876","254.4","3.103","270.2","1016.919","24.01","43.5","0.0","0.0"],
    [1524310,"2026-06-14 01:40:00","70807","1.626","251.4","3.005","254.2","1016.803","24.1","42.8","0.0","0.0"],
    [1524311,"2026-06-14 01:50:00","70808","1.7619999999999998","243.0","3.0380000000000003","257.6","1016.748","24.02","42.92","0.0","0.0"],
    [1524312,"2026-06-14 02:00:00","70809","1.656","243.3","3.201","228.1","1016.673","23.94","43.62","0.0","0.0"],
    [1524313,"2026-06-14 02:10:00","70810","2.225","254.8","3.659","255.3","1016.637","23.26","45.83","0.0","0.0"],
    [1524314,"2026-06-14 02:20:00","70811","2.2159999999999997","254.4","3.299","251.1","1016.659","23.4","44.8","0.0","0.0"],
    [1524315,"2026-06-14 02:30:00","70812","2.228","258.1","3.136","271.9","1016.596","23.5","44.54","0.0","0.0"],
    [1524316,"2026-06-14 02:40:00","70813","2.367","257.3","3.5610000000000004","253.0","1016.529","23.35","45.06","0.0","0.0"],
    [1524317,"2026-06-14 02:50:00","70814","2.093","254.4","3.7889999999999997","258.0","1016.482","23.54","44.15","0.0","0.0"],
    [1524318,"2026-06-14 03:00:00","70815","1.7180000000000002","258.5","2.907","258.2","1016.432","23.66","44.08","0.0","0.0"],
    [1524319,"2026-06-14 03:10:00","70816","2.339","262.5","3.43","271.0","1016.367","23.28","45.73","0.0","0.0"],
    [1524320,"2026-06-14 03:20:00","70817","1.8119999999999998","247.9","3.299","258.0","1016.266","23.31","45.29","0.0","0.0"],
    [1524321,"2026-06-14 03:30:00","70818","2.403","264.2","3.855","265.8","1016.207","23.04","47.11","0.0","0.0"],
    [1524322,"2026-06-14 03:40:00","70819","2.43","275.6","3.855","276.2","1016.102","22.83","47.57","0.0","0.0"],
    [1524323,"2026-06-14 03:50:00","70820","1.7890000000000001","277.4","2.385","273.2","1016.147","22.89","48.0","0.0","0.0"],
    [1524324,"2026-06-14 04:00:00","70821","1.304","282.4","1.96","267.1","1016.173","22.94","47.73","0.0","0.0"],
    [1524325,"2026-06-14 04:10:00","70822","1.113","340.0","1.8619999999999999","309.5","1016.235","23.14","47.21","0.0","0.0"],
    [1524326,"2026-06-14 04:20:00","70823","3.245","43.65","5.2589999999999995","41.62","1016.29","23.16","56.22","0.0","0.0"],
    [1524327,"2026-06-14 04:30:00","70824","4.508","19.92","6.1739999999999995","21.04","1016.356","23.18","52.4","0.0","0.0"],
    [1524328,"2026-06-14 04:40:00","70825","2.9019999999999997","6.6160000000000005","4.508","0.162","1016.475","23.42","50.93","0.0","0.0"],
    [1524329,"2026-06-14 04:50:00","70826","1.406","5.702000000000001","2.8089999999999997","16.2","1016.511","23.3","50.85","14.68","0.0"],
    [1524330,"2026-06-14 05:00:00","70827","1.006","16.0","1.699","27.25","1016.497","23.45","53.96","67.09","0.0"],
    [1524331,"2026-06-14 05:10:00","70828","0.618","280.9","1.699","262.6","1016.505","23.44","52.55","52.02","0.0"],
    [1524332,"2026-06-14 05:20:00","70829","1.133","262.0","1.993","255.7","1016.507","23.74","49.11","113.4","0.0"],
    [1524333,"2026-06-14 05:30:00","70830","1.7269999999999999","274.2","2.287","269.7","1016.502","24.01","47.49","124.9","0.0"],
    [1524334,"2026-06-14 05:40:00","70831","1.93","277.3","2.613","268.1","1016.498","24.43","44.97","157.1","0.0"],
    [1524335,"2026-06-14 05:50:00","70832","2.544","267.6","3.495","262.7","1016.57","24.41","45.51","201.2","0.0"],
    [1524336,"2026-06-14 06:00:00","70833","2.23","263.7","3.397","266.2","1016.593","24.2","46.08","204.2","0.0"],
    [1524337,"2026-06-14 06:10:00","70834","2.611","269.3","3.43","266.1","1016.534","24.22","45.12","266.4","0.0"],
    [1524338,"2026-06-14 06:20:00","70835","1.8880000000000001","267.4","3.071","268.9","1016.454","24.19","45.91","268.7","0.0"],
    [1524339,"2026-06-14 06:30:00","70836","1.903","258.6","2.385","268.7","1016.419","24.52","44.81","328.0","0.0"],
    [1524340,"2026-06-14 06:40:00","70837","1.261","258.9","2.287","248.7","1016.389","24.95","43.57","335.2","0.0"],
    [1524341,"2026-06-14 06:50:00","70838","0.953","255.9","1.764","276.6","1016.415","25.35","42.43","384.4","0.0"],
    [1524342,"2026-06-14 07:00:00","70839","0.608","242.3","1.797","271.6","1016.494","25.72","43.93","402.2","0.0"],
    [1524343,"2026-06-14 07:10:00","70840","0.042","94.2","0.49","102.7","1016.464","26.02","43.79","423.1","0.0"],
    [1524344,"2026-06-14 07:20:00","70841","0.13","102.1","0.8490000000000001","97.3","1016.449","26.14","40.92","435.6","0.0"],
    [1524345,"2026-06-14 07:30:00","70842","0.935","221.7","1.5030000000000001","268.2","1016.548","26.35","40.69","467.1","0.0"],
    [1524346,"2026-06-14 07:40:00","70843","1.041","150.6","1.666","189.4","1016.461","26.41","42.89","502.6","0.0"],
    [1524347,"2026-06-14 07:50:00","70844","1.6909999999999998","160.0","2.025","170.6","1016.42","26.27","40.34","507.5","0.0"],
    [1524348,"2026-06-14 08:00:00","70845","2.121","177.3","3.103","179.1","1016.449","26.22","40.82","565.6","0.0"],
    [1524349,"2026-06-14 08:10:00","70846","3.1919999999999997","175.9","4.051","174.0","1016.489","25.55","46.71","580.7","0.0"],
    [1524350,"2026-06-14 08:20:00","70847","4.162","180.7","5.096","165.9","1016.453","24.71","55.56","636.6","0.0"],
    [1524351,"2026-06-14 08:30:00","70848","3.7880000000000003","184.6","4.541","190.5","1016.405","25.13","56.04","636.8","0.0"],
    [1524352,"2026-06-14 08:40:00","70849","3.7089999999999996","178.6","4.606","171.2","1016.462","24.65","60.04","686.3","0.0"],
    [1524353,"2026-06-14 08:50:00","70850","4.185","172.4","5.063","169.5","1016.462","24.1","63.75","703.8","0.0"],
    [1524354,"2026-06-14 09:00:00","70851","4.532","178.3","5.847","190.6","1016.425","24.25","61.92","719.0","0.0"],
    [1524355,"2026-06-14 09:10:00","70852","4.409","183.9","5.782","192.5","1016.471","24.65","58.52","770.9","0.0"],
    [1524356,"2026-06-14 09:20:00","70853","3.5639999999999996","175.1","4.247","176.0","1016.389","24.14","60.92","770.9","0.0"],
    [1524357,"2026-06-14 09:30:00","70854","3.3569999999999998","174.6","4.508","170.5","1016.353","24.49","57.38","809.0","0.0"],
    [1524358,"2026-06-14 09:40:00","70855","2.957","179.2","4.377","173.8","1016.298","24.19","58.68","838.0","0.0"],
    [1524359,"2026-06-14 09:50:00","70856","2.8139999999999996","176.1","3.299","179.0","1016.35","25.33","49.57","838.0","0.0"],
    [1524360,"2026-06-14 10:00:00","70857","2.705","180.5","3.365","181.1","1016.211","24.79","55.75","846.0","0.0"],
    [1524361,"2026-06-14 10:10:00","70858","2.571","175.3","2.875","177.6","1016.134","25.4","42.84","885.0","0.0"],
    [1524362,"2026-06-14 10:20:00","70859","2.6889999999999996","175.1","2.94","177.8","1016.1","25.44","44.65","905.0","0.0"],
    [1524363,"2026-06-14 10:30:00","70860","2.7689999999999997","175.4","3.267","174.9","1016.079","25.41","44.62","905.0","0.0"],
    [1524364,"2026-06-14 10:40:00","70861","2.546","178.7","3.201","177.8","1016.054","25.56","44.26","900.0","0.0"],
    [1524365,"2026-06-14 10:50:00","70862","1.953","176.0","2.319","172.7","1016.004","25.79","45.13","911.0","0.0"],
    [1524366,"2026-06-14 11:00:00","70863","2.113","175.6","2.483","177.2","1016.005","25.72","42.93","964.0","0.0"],
    [1524367,"2026-06-14 11:10:00","70864","2.301","175.3","2.6460000000000004","179.1","1015.95","25.89","41.95","972.0","0.0"],
    [1524368,"2026-06-14 11:20:00","70865","1.69","170.9","2.025","164.0","1015.87","25.86","44.01","972.0","0.0"],
    [1524369,"2026-06-14 11:30:00","70866","1.834","168.8","2.189","174.3","1015.909","26.03","41.66","972.0","0.0"],
    [1524370,"2026-06-14 11:40:00","70867","1.4569999999999999","144.2","2.548","150.4","1015.816","26.23","41.19","972.0","0.0"],
    [1524371,"2026-06-14 11:50:00","70868","1.505","126.2","2.8089999999999997","115.3","1015.727","26.31","40.95","950.0","0.0"],
    [1524372,"2026-06-14 12:00:00","70869","2.161","142.7","3.332","155.0","1015.622","26.02","44.37","830.0","0.0"],
    [1524373,"2026-06-14 12:10:00","70870","2.1830000000000003","159.4","3.005","172.4","1015.513","25.33","51.39","934.0","0.0"],
    [1524374,"2026-06-14 12:20:00","70871","2.318","165.5","3.0380000000000003","176.8","1015.528","25.49","48.75","939.0","0.0"],
    [1524375,"2026-06-14 12:30:00","70872","2.932","179.6","3.495","172.6","1015.586","24.95","61.91","795.3","0.0"],
    [1524376,"2026-06-14 12:40:00","70873","2.7889999999999997","174.3","3.495","170.5","1015.524","24.9","53.79","942.0","0.0"],
    [1524377,"2026-06-14 12:50:00","70874","3.0010000000000003","164.6","3.887","172.9","1015.436","25.25","50.72","899.0","0.0"],
    [1524378,"2026-06-14 13:00:00","70875","2.759","178.7","3.6910000000000003","171.5","1015.434","25.27","52.09","905.0","0.0"],
    [1524379,"2026-06-14 13:10:00","70876","2.7439999999999998","183.7","3.6260000000000003","194.6","1015.342","25.37","50.34","905.0","0.0"],
    [1524380,"2026-06-14 13:20:00","70877","2.912","178.8","3.985","173.3","1015.284","25.45","49.44","903.0","0.0"],
    [1524381,"2026-06-14 13:30:00","70878","2.125","178.1","3.071","177.4","1015.171","25.52","49.47","853.0","0.0"],
    [1524382,"2026-06-14 13:40:00","70879","2.19","173.2","3.071","161.7","1015.093","25.53","48.38","838.0","0.0"],
    [1524383,"2026-06-14 13:50:00","70880","2.46","174.0","3.136","171.4","1015.092","25.54","47.86","814.0","0.0"],
    [1524384,"2026-06-14 14:00:00","70881","2.1109999999999998","170.4","2.8089999999999997","176.0","1015.073","25.48","48.71","837.0","0.0"],
    [1524385,"2026-06-14 14:10:00","70882","1.9780000000000002","163.4","2.842","181.8","1015.055","25.52","48.2","789.1","0.0"],
    [1524386,"2026-06-14 14:20:00","70883","1.847","163.3","2.875","169.0","1014.983","25.53","46.51","770.6","0.0"],
    [1524387,"2026-06-14 14:30:00","70884","1.364","160.4","1.9269999999999998","154.1","1014.85","25.63","46.81","770.6","0.0"],
    [1524388,"2026-06-14 14:40:00","70885","1.9569999999999999","160.6","2.515","157.6","1014.819","25.6","45.73","749.9","0.0"],
    [1524389,"2026-06-14 14:50:00","70886","2.233","167.4","2.94","172.4","1014.866","25.53","46.93","694.4","0.0"],
    [1524390,"2026-06-14 15:00:00","70887","2.6039999999999996","170.2","3.201","167.2","1014.855","25.43","48.64","698.2","0.0"],
    [1524391,"2026-06-14 15:10:00","70888","2.338","168.0","3.005","181.4","1014.715","25.33","49.72","590.8","0.0"],
    [1524392,"2026-06-14 15:20:00","70889","1.739","165.3","2.189","167.1","1014.543","25.43","47.75","636.6","0.0"],
    [1524393,"2026-06-14 15:30:00","70890","1.531","162.1","2.385","163.1","1014.396","25.53","46.73","616.5","0.0"],
    [1524394,"2026-06-14 15:40:00","70891","1.581","157.5","2.221","174.3","1014.332","25.6","45.3","569.6","0.0"],
    [1524395,"2026-06-14 15:50:00","70892","1.411","159.6","2.156","145.6","1014.284","25.67","44.41","562.2","0.0"],
    [1524396,"2026-06-14 16:00:00","70893","1.946","149.4","2.483","151.3","1014.248","25.64","45.03","504.6","0.0"],
    [1524397,"2026-06-14 16:10:00","70894","1.646","163.5","2.254","168.1","1014.215","25.52","46.03","491.9","0.0"],
    [1524398,"2026-06-14 16:20:00","70895","1.6580000000000001","156.7","2.0909999999999997","158.8","1014.127","25.43","47.36","410.6","0.0"],
    [1524399,"2026-06-14 16:30:00","70896","1.51","151.4","1.993","155.1","1014.03","25.32","46.24","179.9","0.0"],
    [1524400,"2026-06-14 16:40:00","70897","1.345","145.3","2.0580000000000003","130.9","1013.905","25.27","47.58","145.3","0.0"],
    [1524401,"2026-06-14 16:50:00","70898","1.548","156.1","2.123","152.2","1013.836","25.3","46.27","156.2","0.0"],
    [1524402,"2026-06-14 17:00:00","70899","1.705","156.0","2.319","161.6","1013.878","25.2","48.59","319.8","0.0"],
    [1524403,"2026-06-14 17:10:00","70900","1.345","157.1","1.764","166.0","1013.779","25.14","49.42","339.7","0.0"],
    [1524404,"2026-06-14 17:20:00","70901","1.837","171.0","2.189","176.4","1013.662","25.2","47.8","326.1","0.0"],
    [1524405,"2026-06-14 17:30:00","70902","1.858","189.3","2.352","194.9","1013.58","25.04","51.91","232.0","0.0"],
    [1524406,"2026-06-14 17:40:00","70903","1.3030000000000002","188.6","1.993","203.5","1013.571","24.95","52.79","196.6","0.0"],
    [1524407,"2026-06-14 17:50:00","70904","1.37","162.8","1.96","156.3","1013.512","24.96","49.5","105.3","0.0"],
    [1524408,"2026-06-14 18:00:00","70905","1.564","158.8","1.993","160.1","1013.516","25.0","48.85","196.9","0.0"],
    [1524409,"2026-06-14 18:10:00","70906","1.156","157.2","1.7309999999999999","166.6","1013.452","25.03","48.98","145.9","0.0"],
    [1524410,"2026-06-14 18:20:00","70907","0.8220000000000001","173.0","1.2409999999999999","184.6","1013.412","25.15","47.04","127.5","0.0"],
    [1524411,"2026-06-14 18:30:00","70908","0.861","179.5","1.307","192.8","1013.431","25.72","38.18","74.86","0.0"],
    [1524412,"2026-06-14 18:40:00","70909","0.54","148.6","1.013","158.4","1013.443","25.62","40.78","67.04","0.0"],
    [1524413,"2026-06-14 18:50:00","70910","0.36","179.9","1.013","169.4","1013.459","25.58","41.01","67.04","0.0"],
    [1524414,"2026-06-14 19:00:00","70911","0.616","141.4","0.915","134.2","1013.447","25.5","40.46","27.04","0.0"],
    [1524415,"2026-06-14 19:10:00","70912","0.8170000000000001","147.2","1.339","141.1","1013.404","25.4","45.27","0.0","0.0"],
    [1524416,"2026-06-14 19:20:00","70913","0.84","157.6","1.2409999999999999","155.6","1013.363","25.03","45.46","0.0","0.0"],
    [1524417,"2026-06-14 19:30:00","70914","0.917","151.6","1.176","155.6","1013.314","25.18","45.82","0.0","0.0"],
    [1524418,"2026-06-14 19:40:00","70915","0.978","154.7","1.274","146.4","1013.39","25.0","45.81","0.0","0.0"],
    [1524419,"2026-06-14 19:50:00","70916","1.162","132.8","1.4369999999999998","124.3","1013.455","25.01","48.01","0.0","0.0"],
    [1524420,"2026-06-14 20:00:00","70917","0.951","153.8","1.47","191.2","1013.466","24.6","52.79","0.0","0.0"],
    [1524421,"2026-06-14 20:10:00","70918","2.11","189.9","2.483","197.2","1013.498","24.68","51.69","0.0","0.0"],
    [1524422,"2026-06-14 20:20:00","70919","2.189","187.3","2.7439999999999998","190.9","1013.53","24.31","57.74","0.0","0.0"],
    [1524423,"2026-06-14 20:30:00","70920","2.009","194.6","2.7439999999999998","189.6","1013.596","24.26","58.56","0.0","0.0"],
    [1524424,"2026-06-14 20:40:00","70921","0.711","225.8","1.568","202.1","1013.633","24.82","53.48","0.0","0.0"],
    [1524425,"2026-06-14 20:50:00","70922","0.226","240.0","0.882","257.1","1013.681","25.25","45.76","0.0","0.0"],
    [1524426,"2026-06-14 21:00:00","70923","0.958","248.0","2.221","247.5","1013.714","25.98","37.66","0.0","0.0"],
    [1524427,"2026-06-14 21:10:00","70924","1.291","246.5","2.287","225.7","1013.789","26.11","36.73","0.0","0.0"],
    [1524428,"2026-06-14 21:20:00","70925","0.9520000000000001","251.4","1.96","239.7","1013.832","26.03","37.77","0.0","0.0"],
    [1524429,"2026-06-14 21:30:00","70926","1.5530000000000002","247.5","2.94","250.7","1013.745","25.93","38.34","0.0","0.0"],
    [1524430,"2026-06-14 21:40:00","70927","2.122","243.8","3.495","258.8","1013.669","25.89","38.51","0.0","0.0"],
    [1524431,"2026-06-14 21:50:00","70928","1.5","248.3","2.7110000000000003","246.9","1013.628","25.84","39.15","0.0","0.0"],
    [1524432,"2026-06-14 22:00:00","70929","1.675","271.7","3.005","281.3","1013.523","25.82","39.78","0.0","0.0"],
    [1524433,"2026-06-14 22:10:00","70930","1.3780000000000001","249.9","2.7769999999999997","245.4","1013.536","25.87","39.64","0.0","0.0"],
    [1524434,"2026-06-14 22:20:00","70931","1.726","244.0","2.842","242.1","1013.464","25.87","39.71","0.0","0.0"],
    [1524435,"2026-06-14 22:30:00","70932","1.6","246.0","2.8089999999999997","256.6","1013.379","25.68","40.84","0.0","0.0"],
    [1524436,"2026-06-14 22:40:00","70933","1.556","256.4","2.548","249.6","1013.286","25.5","41.7","0.0","0.0"],
    [1524437,"2026-06-14 22:50:00","70934","1.946","259.5","2.842","256.4","1013.227","25.43","41.47","0.0","0.0"],
    [1524438,"2026-06-14 23:00:00","70935","2.005","268.5","2.8089999999999997","277.9","1013.318","25.3","42.14","0.0","0.0"],
    [1524439,"2026-06-14 23:10:00","70936","1.9040000000000001","264.9","2.679","262.5","1013.344","25.3","41.77","0.0","0.0"],
    [1524440,"2026-06-14 23:20:00","70937","1.304","231.1","1.895","256.3","1013.233","25.41","42.62","0.0","0.0"],
    [1524441,"2026-06-14 23:30:00","70938","0.48100000000000004","119.9","1.339","141.0","1013.204","24.84","47.45","0.0","0.0"],
    [1524442,"2026-06-14 23:40:00","70939","1.5330000000000001","195.6","2.385","203.8","1013.283","24.49","52.92","0.0","0.0"],
    [1524443,"2026-06-14 23:50:00","70940","2.119","218.4","2.94","212.1","1013.315","25.06","42.96","0.0","0.0"],
    [1524444,"2026-06-15 00:00:00","70941","1.036","248.6","1.7309999999999999","245.2","1013.29","25.66","39.93","0.0","0.0"],
    [1524445,"2026-06-15 00:10:00","70942","1.6","264.9","2.613","260.1","1013.195","25.19","41.99","0.0","0.0"],
    [1524446,"2026-06-15 00:20:00","70943","1.746","270.9","2.417","269.9","1013.121","24.74","43.93","0.0","0.0"],
    [1524447,"2026-06-15 00:30:00","70944","1.7919999999999998","261.1","2.417","263.4","1013.034","24.66","43.83","0.0","0.0"],
    [1524448,"2026-06-15 00:40:00","70945","1.778","257.8","2.7110000000000003","255.5","1012.94","24.82","42.8","0.0","0.0"],
    [1524449,"2026-06-15 00:50:00","70946","1.7180000000000002","262.0","3.005","263.4","1012.795","24.94","42.92","0.0","0.0"],
    [1524450,"2026-06-15 01:00:00","70947","2.009","262.2","2.5810000000000004","266.7","1012.583","24.79","43.36","0.0","0.0"],
    [1524451,"2026-06-15 01:10:00","70948","1.973","268.1","2.5810000000000004","283.8","1012.433","24.65","44.26","0.0","0.0"],
    [1524452,"2026-06-15 01:20:00","70949","1.08","252.1","2.0580000000000003","260.8","1012.414","24.77","43.18","0.0","0.0"],
    [1524453,"2026-06-15 01:30:00","70950","0.684","218.9","1.209","241.8","1012.281","24.86","46.06","0.0","0.0"],
    [1524454,"2026-06-15 01:40:00","70951","0.955","214.7","2.123","221.1","1012.194","24.5","46.57","0.0","0.0"],
    [1524455,"2026-06-15 01:50:00","70952","1.5","235.2","2.7110000000000003","260.8","1012.126","25.01","42.28","0.0","0.0"],
    [1524456,"2026-06-15 02:00:00","70953","1.197","239.0","1.96","255.3","1012.053","24.91","41.8","0.0","0.0"],
    [1524457,"2026-06-15 02:10:00","70954","1.27","227.7","2.385","222.4","1011.946","24.68","43.03","0.0","0.0"],
    [1524458,"2026-06-15 02:20:00","70955","2.237","247.2","3.7239999999999998","257.9","1011.904","24.1","44.74","0.0","0.0"],
    [1524459,"2026-06-15 02:30:00","70956","2.108","252.9","3.495","263.2","1011.9","23.88","45.26","0.0","0.0"],
    [1524460,"2026-06-15 02:40:00","70957","2.033","241.9","3.463","249.5","1011.748","23.72","45.17","0.0","0.0"],
    [1524461,"2026-06-15 02:50:00","70958","2.036","238.4","3.136","223.6","1011.679","23.91","44.72","0.0","0.0"],
    [1524462,"2026-06-15 03:00:00","70959","2.173","240.2","3.332","259.0","1011.57","24.15","43.44","0.0","0.0"],
    [1524463,"2026-06-15 03:10:00","70960","2.8560000000000003","238.1","4.377","231.1","1011.47","24.17","43.59","0.0","0.0"],
    [1524464,"2026-06-15 03:20:00","70961","2.997","239.3","4.508","252.7","1011.409","23.97","44.31","0.0","0.0"],
    [1524465,"2026-06-15 03:30:00","70962","3.0380000000000003","238.5","4.802","258.5","1011.363","24.11","43.36","0.0","0.0"],
    [1524466,"2026-06-15 03:40:00","70963","2.137","242.7","4.083","244.4","1011.306","24.16","43.3","0.0","0.0"],
    [1524467,"2026-06-15 03:50:00","70964","1.65","257.2","3.9530000000000003","259.0","1011.229","23.99","44.11","0.0","0.0"],
    [1524468,"2026-06-15 04:00:00","70965","1.9240000000000002","263.8","3.43","269.2","1011.155","23.9","44.39","0.0","0.0"],
    [1524469,"2026-06-15 04:10:00","70966","2.207","269.4","3.822","289.1","1011.107","23.75","44.93","0.0","0.0"],
    [1524470,"2026-06-15 04:20:00","70967","1.339","263.7","2.025","271.5","1011.072","23.61","45.25","0.0","0.0"],
    [1524471,"2026-06-15 04:30:00","70968","2.484","263.6","3.136","260.9","1011.083","23.6","45.09","0.0","0.0"],
    [1524472,"2026-06-15 04:40:00","70969","1.7719999999999998","267.1","2.907","261.8","1011.075","23.74","44.87","0.0","0.0"],
    [1524473,"2026-06-15 04:50:00","70970","1.609","269.8","2.45","277.8","1011.032","24.11","43.36","12.83","0.0"],
    [1524474,"2026-06-15 05:00:00","70971","2.255","184.1","3.1689999999999996","168.6","1011.127","24.32","45.55","58.05","0.0"],
    [1524475,"2026-06-15 05:10:00","70972","1.228","273.3","2.0580000000000003","207.5","1011.174","24.16","46.16","67.08","0.0"],
    [1524476,"2026-06-15 05:20:00","70973","1.175","270.0","1.829","278.6","1011.224","24.54","42.34","76.27","0.0"],
    [1524477,"2026-06-15 05:30:00","70974","1.078","269.6","2.385","269.6","1011.346","24.69","41.66","132.6","0.0"],
    [1524478,"2026-06-15 05:40:00","70975","1.307","274.9","2.319","277.7","1011.424","24.89","41.39","134.1","0.0"],
    [1524479,"2026-06-15 05:50:00","70976","2.185","22.68","3.593","46.09","1011.553","24.75","46.52","174.2","0.0"],
    [1524480,"2026-06-15 06:00:00","70977","3.375","50.79","4.1160000000000005","49.53","1011.605","23.8","57.41","201.2","0.0"],
    [1524481,"2026-06-15 06:10:00","70978","3.452","43.96","4.573","62.05","1011.69","24.2","49.99","231.5","0.0"],
    [1524482,"2026-06-15 06:20:00","70979","2.385","37.29","3.463","24.12","1011.807","24.58","50.77","268.2","0.0"],
    [1524483,"2026-06-15 06:30:00","70980","2.443","23.79","4.1160000000000005","31.76","1011.804","24.52","50.35","280.3","0.0"],
    [1524484,"2026-06-15 06:40:00","70981","1.9809999999999999","29.58","3.234","46.6","1011.827","25.03","46.15","334.8","0.0"],
    [1524485,"2026-06-15 06:50:00","70982","3.7760000000000002","44.61","4.638999999999999","47.37","1011.838","24.68","55.64","349.1","0.0"],
    [1524486,"2026-06-15 07:00:00","70983","3.927","36.91","6.109","40.66","1011.905","25.15","49.37","402.3","0.0"],
    [1524487,"2026-06-15 07:10:00","70984","6.756","30.72","9.02","29.89","1011.957","25.9","43.57","406.9","0.0"],
    [1524488,"2026-06-15 07:20:00","70985","6.902","36.7","9.77","41.17","1012.012","24.88","56.14","435.8","0.0"],
    [1524489,"2026-06-15 07:30:00","70986","6.6739999999999995","30.98","7.872999999999999","31.3","1012.015","24.07","67.6","436.0","0.0"],
    [1524490,"2026-06-15 07:40:00","70987","6.851","27.16","8.69","27.3","1012.032","23.94","64.3","496.9","0.0"],
    [1524491,"2026-06-15 07:50:00","70988","6.454","28.74","8.07","32.24","1012.18","24.41","58.22","503.9","0.0"],
    [1524492,"2026-06-15 08:00:00","70989","5.496","28.34","6.827000000000001","29.75","1012.251","24.71","54.91","563.9","0.0"],
    [1524493,"2026-06-15 08:10:00","70990","4.433","26.91","5.88","23.1","1012.298","24.97","52.97","569.9","0.0"],
    [1524494,"2026-06-15 08:20:00","70991","4.375","34.68","5.651","44.22","1012.293","25.13","52.33","603.7","0.0"],
    [1524495,"2026-06-15 08:30:00","70992","4.298","42.74","6.37","32.52","1012.372","25.1","54.49","606.7","0.0"],
    [1524496,"2026-06-15 08:40:00","70993","3.3810000000000002","50.93","5.88","64.86","1012.49","25.24","53.32","676.5","0.0"],
    [1524497,"2026-06-15 08:50:00","70994","3.318","83.4","5.422999999999999","77.8","1012.592","25.16","54.83","704.0","0.0"],
    [1524498,"2026-06-15 09:00:00","70995","4.06","97.8","5.912999999999999","89.6","1012.689","25.05","54.37","719.4","0.0"],
    [1524499,"2026-06-15 09:10:00","70996","4.433","115.4","5.815","115.6","1012.845","24.93","56.68","785.5","0.0"],
    [1524500,"2026-06-15 09:20:00","70997","4.398","118.3","6.337000000000001","155.3","1012.964","24.87","55.38","768.4","0.0"],
    [1524501,"2026-06-15 09:30:00","70998","4.596","121.7","6.141","117.5","1013.117","24.86","56.19","756.0","0.0"],
    [1524502,"2026-06-15 09:40:00","70999","4.486000000000001","127.4","6.337000000000001","122.6","1013.228","24.52","58.23","795.1","0.0"],
    [1524503,"2026-06-15 09:50:00","71000","4.256","116.8","5.978","109.6","1013.268","24.58","55.85","838.0","0.0"],
    [1524504,"2026-06-15 10:00:00","71001","4.016","140.4","5.227","135.2","1013.363","24.25","60.93","838.0","0.0"],
    [1524505,"2026-06-15 10:10:00","71002","3.92","148.9","5.063","145.9","1013.533","23.82","64.8","838.0","0.0"],
    [1524506,"2026-06-15 10:20:00","71003","3.888","155.5","4.9","146.4","1013.627","23.61","67.57","848.0","0.0"],
    [1524507,"2026-06-15 10:30:00","71004","3.987","156.4","5.096","154.1","1013.588","23.64","66.76","904.0","0.0"],
    [1524508,"2026-06-15 10:40:00","71005","3.31","151.2","4.475","160.6","1013.582","23.54","67.59","905.0","0.0"],
    [1524509,"2026-06-15 10:50:00","71006","2.995","155.9","4.279","151.6","1013.648","23.71","66.2","905.0","0.0"],
    [1524510,"2026-06-15 11:00:00","71007","3.443","168.0","4.606","178.3","1013.681","23.9","65.12","905.0","0.0"],
    [1524511,"2026-06-15 11:10:00","71008","3.741","177.9","4.802","192.0","1013.682","23.95","66.54","905.0","0.0"],
    [1524512,"2026-06-15 11:20:00","71009","3.4589999999999996","170.8","5.422999999999999","176.2","1013.801","24.16","61.8","905.0","0.0"],
    [1524513,"2026-06-15 11:30:00","71010","2.667","171.6","3.6910000000000003","169.3","1013.934","24.29","63.79","905.0","0.0"],
    [1524514,"2026-06-15 11:40:00","71011","2.311","173.0","3.201","178.6","1013.954","24.18","64.25","905.0","0.0"],
    [1524515,"2026-06-15 11:50:00","71012","2.149","171.3","3.103","181.1","1013.949","24.39","60.3","917.0","0.0"],
    [1524516,"2026-06-15 12:00:00","71013","2.208","170.9","2.842","172.7","1013.989","24.59","56.54","972.0","0.0"],
    [1524517,"2026-06-15 12:10:00","71014","2.6639999999999997","169.4","3.6910000000000003","169.2","1013.978","24.72","53.82","972.0","0.0"],
    [1524518,"2026-06-15 12:20:00","71015","2.858","166.8","3.593","164.2","1013.967","24.71","53.65","946.0","0.0"],
    [1524519,"2026-06-15 12:30:00","71016","2.782","166.9","3.659","167.9","1014.062","24.69","53.58","940.0","0.0"],
    [1524520,"2026-06-15 12:40:00","71017","3.605","170.5","4.965","176.5","1014.062","24.65","54.51","905.0","0.0"],
    [1524521,"2026-06-15 12:50:00","71018","3.361","171.5","4.704","167.4","1014.087","24.69","54.01","905.0","0.0"],
    [1524522,"2026-06-15 13:00:00","71019","2.741","168.7","3.234","166.6","1014.088","24.59","54.93","905.0","0.0"],
    [1524523,"2026-06-15 13:10:00","71020","2.495","190.0","3.6260000000000003","189.4","1014.116","24.7","56.25","905.0","0.0"],
    [1524524,"2026-06-15 13:20:00","71021","2.917","188.6","3.7239999999999998","195.2","1014.161","24.74","56.13","905.0","0.0"],
    [1524525,"2026-06-15 13:30:00","71022","3.2880000000000003","193.5","4.051","197.8","1014.224","24.76","54.4","905.0","0.0"],
    [1524526,"2026-06-15 13:40:00","71023","3.201","186.3","3.887","199.7","1014.176","24.79","54.19","905.0","0.0"],
    [1524527,"2026-06-15 13:50:00","71024","3.1060000000000003","193.2","4.051","194.4","1014.177","24.9","53.53","883.0","0.0"],
    [1524528,"2026-06-15 14:00:00","71025","3.116","191.6","3.7569999999999997","192.6","1014.13","24.8","53.58","689.4","0.0"],
    [1524529,"2026-06-15 14:10:00","71026","2.884","191.5","3.5610000000000004","172.8","1014.131","24.72","53.62","527.9","0.0"],
    [1524530,"2026-06-15 14:20:00","71027","2.877","193.9","3.593","205.4","1014.091","24.8","52.1","555.4","0.0"],
    [1524531,"2026-06-15 14:30:00","71028","2.526","197.9","3.365","195.1","1014.055","24.91","49.88","669.5","0.0"],
    [1524532,"2026-06-15 14:40:00","71029","2.365","188.1","3.7569999999999997","172.3","1014.013","25.17","44.56","692.4","0.0"],
    [1524533,"2026-06-15 14:50:00","71030","3.013","182.1","4.247","197.6","1013.865","24.95","49.29","821.0","0.0"],
    [1524534,"2026-06-15 15:00:00","71031","3.4210000000000003","184.9","4.2139999999999995","196.7","1013.885","24.94","50.85","758.2","0.0"],
    [1524535,"2026-06-15 15:10:00","71032","3.1039999999999996","193.5","4.508","196.8","1013.811","24.91","49.16","493.2","0.0"],
    [1524536,"2026-06-15 15:20:00","71033","2.508","199.2","3.397","201.2","1013.718","24.98","47.11","421.3","0.0"],
    [1524537,"2026-06-15 15:30:00","71034","2.501","185.4","3.528","183.6","1013.643","25.1","45.06","362.4","0.0"],
    [1524538,"2026-06-15 15:40:00","71035","2.714","180.5","3.7889999999999997","168.4","1013.541","24.98","44.88","270.5","0.0"],
    [1524539,"2026-06-15 15:50:00","71036","2.765","190.5","3.365","195.9","1013.575","24.94","45.52","244.5","0.0"],
    [1524540,"2026-06-15 16:00:00","71037","2.658","189.8","3.822","196.1","1013.632","25.0","44.43","201.1","0.0"],
    [1524541,"2026-06-15 16:10:00","71038","2.918","194.5","4.051","198.9","1013.629","25.23","39.14","201.1","0.0"],
    [1524542,"2026-06-15 16:20:00","71039","1.87","193.2","2.907","193.1","1013.63","25.3","38.5","201.1","0.0"],
    [1524543,"2026-06-15 16:30:00","71040","1.946","169.2","2.7439999999999998","173.4","1013.689","25.34","38.41","236.4","0.0"],
    [1524544,"2026-06-15 16:40:00","71041","2.528","164.2","3.1689999999999996","165.9","1013.545","25.39","35.0","290.0","0.0"],
    [1524545,"2026-06-15 16:50:00","71042","2.064","185.3","2.7769999999999997","170.3","1013.683","25.45","36.28","356.0","0.0"],
    [1524546,"2026-06-15 17:00:00","71043","2.966","173.5","4.083","172.9","1013.546","25.38","38.69","375.0","0.0"],
    [1524547,"2026-06-15 17:10:00","71044","3.0269999999999997","172.9","3.985","177.9","1013.481","25.37","39.94","384.0","0.0"],
    [1524548,"2026-06-15 17:20:00","71045","2.6519999999999997","173.9","3.332","168.5","1013.517","25.39","41.14","349.4","0.0"],
    [1524549,"2026-06-15 17:30:00","71046","2.708","183.8","3.822","171.4","1013.441","25.75","41.01","335.2","0.0"],
    [1524550,"2026-06-15 17:40:00","71047","4.135","175.2","5.129","172.0","1013.374","25.47","43.09","320.7","0.0"],
    [1524551,"2026-06-15 17:50:00","71048","4.0969999999999995","173.5","4.835","167.5","1013.426","25.12","46.78","192.7","0.0"],
    [1524552,"2026-06-15 18:00:00","71049","3.002","178.9","4.2139999999999995","172.4","1013.555","25.17","43.73","134.1","0.0"],
    [1524553,"2026-06-15 18:10:00","71050","2.325","173.9","2.907","167.9","1013.618","25.6","36.22","113.8","0.0"],
    [1524554,"2026-06-15 18:20:00","71051","2.9330000000000003","172.4","3.495","176.5","1013.58","25.61","37.13","67.06","0.0"],
    [1524555,"2026-06-15 18:30:00","71052","2.67","177.3","3.201","173.9","1013.598","25.45","39.97","67.04","0.0"],
    [1524556,"2026-06-15 18:40:00","71053","3.0060000000000002","174.9","3.7569999999999997","174.0","1013.638","25.17","45.55","67.02","0.0"],
    [1524557,"2026-06-15 18:50:00","71054","2.6719999999999997","186.7","3.5610000000000004","190.8","1013.636","25.5","43.23","26.46","0.0"],
    [1524558,"2026-06-15 19:00:00","71055","2.463","195.0","3.7239999999999998","191.0","1013.68","25.83","38.24","0.0","0.0"],
    [1524559,"2026-06-15 19:10:00","71056","1.03","249.0","2.6460000000000004","264.6","1013.769","26.16","35.11","0.0","0.0"],
    [1524560,"2026-06-15 19:20:00","71057","1.557","241.4","3.136","272.6","1013.866","26.45","34.13","0.0","0.0"],
    [1524561,"2026-06-15 19:30:00","71058","1.902","243.4","3.397","255.5","1013.77","26.41","34.41","0.0","0.0"],
    [1524562,"2026-06-15 19:40:00","71059","1.6880000000000002","256.3","3.201","269.5","1013.722","26.45","34.32","0.0","0.0"],
    [1524563,"2026-06-15 19:50:00","71060","1.734","258.4","3.005","260.2","1013.809","26.48","31.38","0.0","0.0"],
    [1524564,"2026-06-15 20:00:00","71061","1.68","262.3","2.907","255.1","1013.918","26.56","29.57","0.0","0.0"],
    [1524565,"2026-06-15 20:10:00","71062","1.5930000000000002","221.2","2.7110000000000003","205.7","1013.984","26.33","34.54","0.0","0.0"],
    [1524566,"2026-06-15 20:20:00","71063","1.831","228.8","4.2139999999999995","262.7","1014.18","25.81","38.33","0.0","0.0"],
    [1524567,"2026-06-15 20:30:00","71064","2.6689999999999996","251.8","4.2139999999999995","260.2","1014.438","25.76","34.71","0.0","0.0"],
    [1524568,"2026-06-15 20:40:00","71065","1.7830000000000001","254.2","3.071","269.9","1014.58","25.67","34.9","0.0","0.0"],
    [1524569,"2026-06-15 20:50:00","71066","1.969","266.9","2.7769999999999997","268.7","1014.669","25.69","33.84","0.0","0.0"],
    [1524570,"2026-06-15 21:00:00","71067","1.482","268.8","2.352","263.9","1014.737","25.7","34.49","0.0","0.0"],
    [1524571,"2026-06-15 21:10:00","71068","1.252","278.8","2.025","270.7","1014.716","25.72","35.06","0.0","0.0"],
    [1524572,"2026-06-15 21:20:00","71069","1.5490000000000002","275.3","2.189","263.4","1014.771","25.76","34.97","0.0","0.0"],
    [1524573,"2026-06-15 21:30:00","71070","1.5219999999999998","278.6","2.025","274.2","1014.78","25.81","35.79","0.0","0.0"],
    [1524574,"2026-06-15 21:40:00","71071","1.535","269.6","1.993","268.7","1014.797","25.77","36.12","0.0","0.0"],
    [1524575,"2026-06-15 21:50:00","71072","1.666","271.6","2.0909999999999997","268.2","1014.749","25.78","35.84","0.0","0.0"],
    [1524576,"2026-06-15 22:00:00","71073","1.3319999999999999","287.8","1.764","287.5","1014.683","25.9","35.82","0.0","0.0"],
    [1524577,"2026-06-15 22:10:00","71074","1.348","285.7","1.699","284.9","1014.693","26.19","34.42","0.0","0.0"],
    [1524578,"2026-06-15 22:20:00","71075","1.34","277.8","2.0909999999999997","265.4","1014.693","26.45","33.05","0.0","0.0"],
    [1524579,"2026-06-15 22:30:00","71076","1.969","271.3","2.483","273.5","1014.67","26.22","34.48","0.0","0.0"],
    [1524580,"2026-06-15 22:40:00","71077","1.8769999999999998","263.2","2.156","258.8","1014.647","26.01","34.56","0.0","0.0"],
    [1524581,"2026-06-15 22:50:00","71078","1.571","261.2","2.123","257.0","1014.658","26.04","33.38","0.0","0.0"],
    [1524582,"2026-06-15 23:00:00","71079","1.6640000000000001","260.1","2.483","268.0","1014.647","25.91","32.74","0.0","0.0"],
    [1524583,"2026-06-15 23:10:00","71080","2.114","268.7","3.0380000000000003","256.4","1014.579","25.36","35.08","0.0","0.0"],
    [1524584,"2026-06-15 23:20:00","71081","2.144","262.7","3.201","262.7","1014.542","25.09","34.93","0.0","0.0"],
    [1524585,"2026-06-15 23:30:00","71082","2.1630000000000003","266.6","3.299","264.4","1014.491","25.11","34.76","0.0","0.0"],
    [1524586,"2026-06-15 23:40:00","71083","2.064","267.3","2.842","256.3","1014.448","25.19","34.17","0.0","0.0"],
    [1524587,"2026-06-15 23:50:00","71084","1.855","262.5","2.679","269.6","1014.396","25.22","33.4","0.0","0.0"],
    [1524588,"2026-06-16 00:00:00","71085","2.0869999999999997","262.6","3.005","263.6","1014.343","25.43","32.08","0.0","0.0"],
    [1524589,"2026-06-16 00:10:00","71086","2.189","264.1","3.1689999999999996","259.6","1014.341","25.61","30.99","0.0","0.0"],
    [1524590,"2026-06-16 00:20:00","71087","2.426","267.1","3.234","267.8","1014.347","25.62","30.09","0.0","0.0"],
    [1524591,"2026-06-16 00:30:00","71088","1.9509999999999998","269.3","2.842","267.9","1014.32","25.45","30.26","0.0","0.0"],
    [1524592,"2026-06-16 00:40:00","71089","1.827","292.7","2.613","284.6","1014.242","25.57","29.73","0.0","0.0"],
    [1524593,"2026-06-16 00:50:00","71090","1.584","278.1","2.548","303.8","1014.252","25.63","29.45","0.0","0.0"],
    [1524594,"2026-06-16 01:00:00","71091","2.11","266.0","2.7110000000000003","262.3","1014.282","25.44","29.47","0.0","0.0"],
    [1524595,"2026-06-16 01:10:00","71092","2.0340000000000003","260.3","2.548","263.2","1014.271","25.5","28.98","0.0","0.0"],
    [1524596,"2026-06-16 01:20:00","71093","1.4709999999999999","294.6","2.0909999999999997","262.0","1014.302","25.73","28.62","0.0","0.0"],
    [1524597,"2026-06-16 01:30:00","71094","0.9329999999999999","72.11","1.829","83.1","1014.326","25.98","35.7","0.0","0.0"],
    [1524598,"2026-06-16 01:40:00","71095","0.774","150.0","1.111","121.8","1014.259","25.52","38.69","0.0","0.0"],
    [1524599,"2026-06-16 01:50:00","71096","1.264","251.6","2.156","268.9","1014.285","25.42","34.14","0.0","0.0"],
    [1524600,"2026-06-16 02:00:00","71097","2.025","262.3","2.45","261.1","1014.308","25.37","31.47","0.0","0.0"],
    [1524601,"2026-06-16 02:10:00","71098","1.902","260.3","2.679","258.9","1014.381","25.08","33.22","0.0","0.0"],
    [1524602,"2026-06-16 02:20:00","71099","2.042","263.8","2.45","262.4","1014.396","24.81","34.69","0.0","0.0"],
    [1524603,"2026-06-16 02:30:00","71100","1.17","259.4","1.829","261.5","1014.419","24.66","35.38","0.0","0.0"],
    [1524604,"2026-06-16 02:40:00","71101","1.534","260.7","2.385","262.4","1014.445","24.75","34.74","0.0","0.0"],
    [1524605,"2026-06-16 02:50:00","71102","2.3409999999999997","260.7","3.005","255.2","1014.395","24.59","35.59","0.0","0.0"],
    [1524606,"2026-06-16 03:00:00","71103","1.8419999999999999","268.0","2.7769999999999997","262.8","1014.401","24.26","37.49","0.0","0.0"],
    [1524607,"2026-06-16 03:10:00","71104","1.348","276.6","1.797","264.5","1014.469","24.21","38.1","0.0","0.0"],
    [1524608,"2026-06-16 03:20:00","71105","1.074","280.2","1.829","253.0","1014.549","24.06","39.04","0.0","0.0"],
    [1524609,"2026-06-16 03:30:00","71106","0.358","267.4","1.4369999999999998","260.3","1014.716","23.98","39.46","0.0","0.0"],
    [1524610,"2026-06-16 03:40:00","71107","0.88","288.0","1.5030000000000001","277.1","1014.775","23.98","39.49","0.0","0.0"],
    [1524611,"2026-06-16 03:50:00","71108","0.515","282.8","1.274","304.2","1014.869","23.97","39.69","0.0","0.0"],
    [1524612,"2026-06-16 04:00:00","71109","1.286","300.0","1.535","312.5","1014.979","23.86","40.86","0.0","0.0"],
    [1524613,"2026-06-16 04:10:00","71110","0.5760000000000001","327.6","1.111","294.8","1015.047","23.9","40.46","0.0","0.0"],
    [1524614,"2026-06-16 04:20:00","71111","0.0","0.0","0.0","0.0","1015.128","23.73","45.72","0.0","0.0"],
    [1524615,"2026-06-16 04:30:00","71112","1.3319999999999999","274.4","1.96","262.0","1015.252","23.64","43.02","0.0","0.0"],
    [1524616,"2026-06-16 04:40:00","71113","1.3319999999999999","243.0","2.483","251.3","1015.374","23.68","41.73","0.0","0.0"],
    [1524617,"2026-06-16 04:50:00","71114","2.535","261.5","3.6910000000000003","262.1","1015.485","23.47","42.35","37.65","0.0"],
    [1524618,"2026-06-16 05:00:00","71115","2.713","268.2","3.6260000000000003","266.4","1015.546","23.17","43.74","66.1","0.0"],
    [1524619,"2026-06-16 05:10:00","71116","2.26","273.7","3.92","269.9","1015.537","23.19","43.74","67.08","0.0"],
    [1524620,"2026-06-16 05:20:00","71117","1.67","298.0","2.515","280.6","1015.581","23.57","42.65","105.4","0.0"],
    [1524621,"2026-06-16 05:30:00","71118","1.861","291.2","2.483","289.1","1015.629","23.94","40.6","120.5","0.0"],
    [1524622,"2026-06-16 05:40:00","71119","1.9969999999999999","273.2","2.7769999999999997","276.8","1015.718","24.17","40.17","132.4","0.0"],
    [1524623,"2026-06-16 05:50:00","71120","1.557","272.3","3.0380000000000003","278.1","1015.929","24.37","40.02","187.4","0.0"],
    [1524624,"2026-06-16 06:00:00","71121","0.627","235.3","1.47","261.1","1016.134","24.83","38.9","201.2","0.0"],
    [1524625,"2026-06-16 06:10:00","71122","0.0","0.0","0.0","0.0","1016.291","25.1","38.5","241.0","0.0"],
    [1524626,"2026-06-16 06:20:00","71123","0.494","238.9","1.339","264.7","1016.46","25.12","39.87","268.2","0.0"],
    [1524627,"2026-06-16 06:30:00","71124","0.657","223.3","1.3719999999999999","261.6","1016.544","25.29","38.52","286.2","0.0"],
    [1524628,"2026-06-16 06:40:00","71125","0.44799999999999995","173.8","0.8170000000000001","182.1","1016.673","25.49","37.2","335.1","0.0"],
    [1524629,"2026-06-16 06:50:00","71126","0.218","188.7","0.6859999999999999","188.0","1016.78","25.82","36.65","348.5","0.0"],
    [1524630,"2026-06-16 07:00:00","71127","0.0","0.0","0.0","0.0","1016.87","26.68","34.83","400.2","0.0"],
    [1524631,"2026-06-16 07:10:00","71128","0.139","152.9","1.2409999999999999","154.2","1016.933","26.7","35.04","404.8","0.0"],
    [1524632,"2026-06-16 07:20:00","71129","0.608","154.8","1.307","147.2","1016.988","25.74","36.62","435.2","0.0"],
    [1524633,"2026-06-16 07:30:00","71130","0.9059999999999999","147.4","1.699","152.0","1017.061","25.97","36.75","441.9","0.0"],
    [1524634,"2026-06-16 07:40:00","71131","1.03","151.3","1.405","145.0","1017.147","25.99","38.18","498.2","0.0"],
    [1524635,"2026-06-16 07:50:00","71132","0.805","158.6","1.5030000000000001","148.2","1017.206","26.1","39.47","505.1","0.0"],
    [1524636,"2026-06-16 08:00:00","71133","1.139","172.6","1.96","159.9","1017.28","26.27","37.19","560.0","0.0"],
    [1524637,"2026-06-16 08:10:00","71134","1.565","156.7","1.993","160.5","1017.27","25.65","43.82","569.6","0.0"],
    [1524638,"2026-06-16 08:20:00","71135","1.416","169.7","1.895","173.0","1017.317","25.5","42.07","619.4","0.0"],
    [1524639,"2026-06-16 08:30:00","71136","1.077","186.2","1.633","171.0","1017.367","25.88","38.94","636.6","0.0"],
    [1524640,"2026-06-16 08:40:00","71137","0.8009999999999999","176.7","1.209","184.3","1017.408","26.32","37.75","653.3","0.0"],
    [1524641,"2026-06-16 08:50:00","71138","0.527","110.9","1.209","74.07","1017.463","27.29","34.26","702.3","0.0"],
    [1524642,"2026-06-16 09:00:00","71139","1.102","121.0","1.601","137.9","1017.539","27.11","35.61","703.6","0.0"],
    [1524643,"2026-06-16 09:10:00","71140","1.1520000000000001","132.0","1.666","137.0","1017.6","27.02","36.17","743.8","0.0"],
    [1524644,"2026-06-16 09:20:00","71141","1.2429999999999999","121.1","1.9269999999999998","129.7","1017.623","26.61","40.64","770.6","0.0"],
    [1524645,"2026-06-16 09:30:00","71142","1.4569999999999999","121.9","2.5810000000000004","112.5","1017.723","27.0","35.81","770.6","0.0"],
    [1524646,"2026-06-16 09:40:00","71143","1.6","125.1","2.515","124.1","1017.798","26.9","35.45","799.1","0.0"],
    [1524647,"2026-06-16 09:50:00","71144","1.936","112.2","2.94","105.4","1017.887","27.08","33.84","838.0","0.0"],
    [1524648,"2026-06-16 10:00:00","71145","1.47","115.9","2.483","115.9","1017.993","27.07","33.2","838.0","0.0"],
    [1524649,"2026-06-16 10:10:00","71146","1.514","137.5","2.352","146.3","1018.098","26.86","35.44","838.0","0.0"],
    [1524650,"2026-06-16 10:20:00","71147","1.585","135.2","2.907","112.9","1018.144","26.82","35.74","860.0","0.0"],
    [1524651,"2026-06-16 10:30:00","71148","1.4609999999999999","129.5","2.254","144.3","1018.217","26.8","36.81","896.0","0.0"],
    [1524652,"2026-06-16 10:40:00","71149","2.356","150.9","2.9730000000000003","145.0","1018.331","26.58","37.71","902.0","0.0"],
    [1524653,"2026-06-16 10:50:00","71150","2.428","147.2","3.267","142.6","1018.455","26.42","38.51","905.0","0.0"],
    [1524654,"2026-06-16 11:00:00","71151","2.233","143.1","3.136","141.8","1018.488","26.41","38.02","905.0","0.0"],
    [1524655,"2026-06-16 11:10:00","71152","2.174","146.9","2.842","159.2","1018.488","26.31","40.55","905.0","0.0"],
    [1524656,"2026-06-16 11:20:00","71153","2.261","150.4","3.1689999999999996","146.7","1018.499","26.14","40.2","908.0","0.0"],
    [1524657,"2026-06-16 11:30:00","71154","2.372","153.1","3.201","144.1","1018.538","26.12","41.53","926.0","0.0"],
    [1524658,"2026-06-16 11:40:00","71155","2.647","152.8","3.267","155.9","1018.548","25.95","43.39","938.0","0.0"],
    [1524659,"2026-06-16 11:50:00","71156","2.9139999999999997","141.1","3.92","141.9","1018.543","25.94","43.03","942.0","0.0"],
    [1524660,"2026-06-16 12:00:00","71157","2.7710000000000004","135.4","3.7889999999999997","137.9","1018.479","25.86","43.94","941.0","0.0"],
    [1524661,"2026-06-16 12:10:00","71158","2.995","131.7","4.1160000000000005","114.7","1018.439","25.67","47.42","941.0","0.0"],
    [1524662,"2026-06-16 12:20:00","71159","3.148","120.2","3.855","125.1","1018.477","25.55","47.22","934.0","0.0"],
    [1524663,"2026-06-16 12:30:00","71160","2.823","134.6","3.6910000000000003","142.9","1018.485","25.36","52.26","906.0","0.0"],
    [1524664,"2026-06-16 12:40:00","71161","2.9189999999999996","147.8","3.7889999999999997","158.6","1018.506","25.24","52.88","905.0","0.0"],
    [1524665,"2026-06-16 12:50:00","71162","2.986","125.6","3.887","138.9","1018.524","25.06","55.32","905.0","0.0"],
    [1524666,"2026-06-16 13:00:00","71163","3.2889999999999997","126.6","4.475","127.3","1018.52","24.95","56.52","905.0","0.0"],
    [1524667,"2026-06-16 13:10:00","71164","3.465","140.2","4.475","142.1","1018.563","24.92","55.14","905.0","0.0"],
    [1524668,"2026-06-16 13:20:00","71165","2.6639999999999997","133.8","3.463","128.3","1018.559","24.9","55.52","905.0","0.0"],
    [1524669,"2026-06-16 13:30:00","71166","2.858","139.6","3.822","139.3","1018.6","24.95","56.13","888.0","0.0"],
    [1524670,"2026-06-16 13:40:00","71167","2.7260000000000004","135.6","3.659","149.6","1018.63","24.83","56.84","838.0","0.0"],
    [1524671,"2026-06-16 13:50:00","71168","2.35","114.4","3.5610000000000004","124.8","1018.555","24.86","57.88","838.0","0.0"],
    [1524672,"2026-06-16 14:00:00","71169","2.745","109.8","3.5610000000000004","108.7","1018.547","24.78","59.48","838.0","0.0"],
    [1524673,"2026-06-16 14:10:00","71170","2.3609999999999998","109.1","3.43","113.7","1018.508","24.7","61.47","823.0","0.0"],
    [1524674,"2026-06-16 14:20:00","71171","2.469","112.2","3.299","83.3","1018.437","24.61","63.54","770.9","0.0"],
    [1524675,"2026-06-16 14:30:00","71172","2.55","102.8","3.7889999999999997","104.1","1018.443","24.57","62.79","770.9","0.0"],
    [1524676,"2026-06-16 14:40:00","71173","2.6630000000000003","88.6","3.397","95.2","1018.337","24.49","62.94","745.2","0.0"],
    [1524677,"2026-06-16 14:50:00","71174","2.61","91.9","3.267","98.0","1018.188","24.58","62.26","703.7","0.0"],
    [1524678,"2026-06-16 15:00:00","71175","2.366","87.2","3.332","99.4","1018.112","24.58","63.01","702.8","0.0"],
    [1524679,"2026-06-16 15:10:00","71176","2.378","91.8","3.299","99.3","1018.128","24.54","64.23","664.8","0.0"],
    [1524680,"2026-06-16 15:20:00","71177","2.7680000000000002","91.7","3.6910000000000003","98.9","1018.181","24.48","64.25","636.6","0.0"],
    [1524681,"2026-06-16 15:30:00","71178","2.528","87.1","3.6260000000000003","93.2","1018.331","24.49","65.31","624.1","0.0"],
    [1524682,"2026-06-16 15:40:00","71179","2.113","83.8","3.92","90.8","1018.341","24.58","64.56","569.6","0.0"],
    [1524683,"2026-06-16 15:50:00","71180","1.818","74.61","3.593","89.2","1018.417","24.51","63.12","569.5","0.0"],
    [1524684,"2026-06-16 16:00:00","71181","2.115","55.91","4.083","38.61","1018.416","24.54","63.96","507.8","0.0"],
    [1524685,"2026-06-16 16:10:00","71182","2.395","45.59","4.377","55.92","1018.424","24.44","63.48","499.0","0.0"],
    [1524686,"2026-06-16 16:20:00","71183","3.295","67.96","4.312","53.0","1018.285","24.23","66.19","452.8","0.0"],
    [1524687,"2026-06-16 16:30:00","71184","3.313","68.74","4.573","65.03","1018.267","24.1","62.01","435.6","0.0"],
    [1524688,"2026-06-16 16:40:00","71185","2.948","69.46","3.855","79.79","1018.278","24.21","61.59","410.2","0.0"],
    [1524689,"2026-06-16 16:50:00","71186","2.9789999999999996","67.84","3.887","77.62","1018.335","24.23","62.16","402.2","0.0"],
    [1524690,"2026-06-16 17:00:00","71187","3.1069999999999998","74.26","3.7889999999999997","69.69","1018.347","24.1","62.3","392.1","0.0"],
    [1524691,"2026-06-16 17:10:00","71188","2.585","75.13","3.659","73.73","1018.359","24.13","62.66","335.2","0.0"],
    [1524692,"2026-06-16 17:20:00","71189","2.613","68.13","3.495","66.8","1018.404","24.1","62.41","316.9","0.0"],
    [1524693,"2026-06-16 17:30:00","71190","2.772","65.41","3.43","64.52","1018.42","24.13","62.05","259.6","0.0"],
    [1524694,"2026-06-16 17:40:00","71191","2.72","51.57","3.6260000000000003","44.74","1018.498","24.12","63.58","227.2","0.0"],
    [1524695,"2026-06-16 17:50:00","71192","2.285","43.48","3.201","2.105","1018.604","24.15","63.04","208.1","0.0"],
    [1524696,"2026-06-16 18:00:00","71193","2.717","53.52","3.593","30.83","1018.648","24.05","63.13","134.1","0.0"],
    [1524697,"2026-06-16 18:10:00","71194","3.35","32.99","4.769","32.45","1018.724","24.08","61.98","134.1","0.0"],
    [1524698,"2026-06-16 18:20:00","71195","3.2089999999999996","36.25","4.051","34.31","1018.731","24.03","63.7","125.9","0.0"],
    [1524699,"2026-06-16 18:30:00","71196","2.62","40.17","3.659","35.91","1018.721","23.99","62.63","71.96","0.0"],
    [1524700,"2026-06-16 18:40:00","71197","2.455","38.67","3.593","39.59","1018.823","23.97","62.2","67.05","0.0"],
    [1524701,"2026-06-16 18:50:00","71198","1.8130000000000002","52.84","2.417","59.37","1018.689","23.95","61.72","66.88","0.0"],
    [1524702,"2026-06-16 19:00:00","71199","1.111","47.95","2.385","42.22","1018.581","23.86","63.55","18.16","0.0"],
    [1524703,"2026-06-16 19:10:00","71200","0.679","43.9","1.078","22.4","1018.64","23.86","61.01","0.0","0.0"],
    [1524704,"2026-06-16 19:20:00","71201","0.038","88.9","0.588","88.2","1018.727","23.98","59.87","0.0","0.0"],
    [1524705,"2026-06-16 19:30:00","71202","0.309","38.13","0.621","51.67","1018.736","23.86","59.74","0.0","0.0"],
    [1524706,"2026-06-16 19:40:00","71203","0.196","67.58","0.7190000000000001","51.51","1018.725","23.89","60.8","0.0","0.0"],
    [1524707,"2026-06-16 19:50:00","71204","0.276","58.91","0.8170000000000001","56.79","1018.786","23.98","59.94","0.0","0.0"],
    [1524708,"2026-06-16 20:00:00","71205","0.133","62.3","0.653","64.72","1018.763","23.95","60.33","0.0","0.0"],
    [1524709,"2026-06-16 20:10:00","71206","0.0","0.0","0.0","0.0","1018.811","23.88","59.95","0.0","0.0"],
    [1524710,"2026-06-16 20:20:00","71207","0.758","28.81","1.307","50.6","1018.884","23.96","58.71","0.0","0.0"],
    [1524711,"2026-06-16 20:30:00","71208","0.7959999999999999","44.28","1.3719999999999999","25.76","1018.909","24.12","58.73","0.0","0.0"],
    [1524712,"2026-06-16 20:40:00","71209","0.99","33.07","1.2409999999999999","41.02","1018.923","24.17","57.37","0.0","0.0"],
    [1524713,"2026-06-16 20:50:00","71210","0.94","65.42","1.405","32.52","1018.966","24.35","52.37","0.0","0.0"],
    [1524714,"2026-06-16 21:00:00","71211","0.214","53.05","0.555","57.71","1018.969","24.51","53.32","0.0","0.0"],
    [1524715,"2026-06-16 21:10:00","71212","0.054000000000000006","24.95","0.523","28.73","1018.987","24.16","56.15","0.0","0.0"],
    [1524716,"2026-06-16 21:20:00","71213","0.0","0.0","0.0","0.0","1018.935","24.12","56.56","0.0","0.0"],
    [1524717,"2026-06-16 21:30:00","71214","0.0","0.0","0.0","0.0","1018.88","24.1","61.43","0.0","0.0"],
    [1524718,"2026-06-16 21:40:00","71215","0.29600000000000004","149.2","0.915","153.0","1018.876","23.99","62.27","0.0","0.0"],
    [1524719,"2026-06-16 21:50:00","71216","0.888","166.8","1.209","187.7","1019.023","23.97","61.07","0.0","0.0"],
    [1524720,"2026-06-16 22:00:00","71217","1.165","172.3","1.797","180.1","1019.135","23.94","63.91","0.0","0.0"],
    [1524721,"2026-06-16 22:10:00","71218","1.058","194.3","1.47","200.6","1019.245","23.76","65.03","0.0","0.0"],
    [1524722,"2026-06-16 22:20:00","71219","0.35100000000000003","235.4","1.078","256.9","1019.278","23.97","55.76","0.0","0.0"],
    [1524723,"2026-06-16 22:30:00","71220","1.4869999999999999","269.0","2.5810000000000004","272.0","1019.299","24.71","43.6","0.0","0.0"],
    [1524724,"2026-06-16 22:40:00","71221","1.859","268.4","2.417","269.7","1019.353","24.79","41.67","0.0","0.0"],
    [1524725,"2026-06-16 22:50:00","71222","1.409","282.6","1.96","284.2","1019.308","24.75","42.67","0.0","0.0"],
    [1524726,"2026-06-16 23:00:00","71223","1.047","291.3","1.4369999999999998","288.8","1019.253","24.8","42.24","0.0","0.0"],
    [1524727,"2026-06-16 23:10:00","71224","0.8320000000000001","301.6","1.2409999999999999","286.7","1019.264","24.89","41.88","0.0","0.0"],
    [1524728,"2026-06-16 23:20:00","71225","0.998","325.5","1.307","321.8","1019.171","24.8","42.59","0.0","0.0"],
    [1524729,"2026-06-16 23:30:00","71226","0.6559999999999999","291.1","0.9470000000000001","313.7","1019.167","25.07","39.68","0.0","0.0"],
    [1524730,"2026-06-16 23:40:00","71227","0.6759999999999999","213.9","1.2409999999999999","204.2","1019.224","25.1","42.38","0.0","0.0"],
    [1524731,"2026-06-16 23:50:00","71228","0.851","197.3","1.5030000000000001","208.6","1019.297","24.66","45.85","0.0","0.0"],
    [1524732,"2026-06-17 00:00:00","71229","1.3019999999999998","268.3","2.7439999999999998","273.0","1019.309","24.62","43.46","0.0","0.0"],
    [1524733,"2026-06-17 00:10:00","71230","1.921","274.8","3.005","267.9","1019.32","24.07","44.63","0.0","0.0"],
    [1524734,"2026-06-17 00:20:00","71231","1.334","258.2","2.189","270.6","1019.303","23.66","45.58","0.0","0.0"],
    [1524735,"2026-06-17 00:30:00","71232","2.056","268.1","3.201","266.9","1019.328","23.44","46.38","0.0","0.0"],
    [1524736,"2026-06-17 00:40:00","71233","2.296","266.3","3.234","271.4","1019.307","23.29","46.91","0.0","0.0"],
    [1524737,"2026-06-17 00:50:00","71234","2.5810000000000004","266.5","3.528","266.7","1019.312","23.2","47.18","0.0","0.0"],
    [1524738,"2026-06-17 01:00:00","71235","2.228","266.6","3.005","263.6","1019.303","23.22","46.84","0.0","0.0"],
    [1524739,"2026-06-17 01:10:00","71236","1.995","258.0","3.6910000000000003","256.5","1019.358","23.37","46.6","0.0","0.0"],
    [1524740,"2026-06-17 01:20:00","71237","1.77","255.3","3.0380000000000003","277.4","1019.411","23.61","45.86","0.0","0.0"],
    [1524741,"2026-06-17 01:30:00","71238","2.406","254.1","4.247","249.0","1019.457","23.88","43.48","0.0","0.0"],
    [1524742,"2026-06-17 01:40:00","71239","2.011","253.8","3.528","248.4","1019.44","23.99","43.29","0.0","0.0"],
    [1524743,"2026-06-17 01:50:00","71240","2.178","261.0","3.136","261.3","1019.349","23.4","46.1","0.0","0.0"],
    [1524744,"2026-06-17 02:00:00","71241","2.225","258.8","3.593","251.0","1019.327","23.22","45.99","0.0","0.0"],
    [1524745,"2026-06-17 02:10:00","71242","1.985","261.2","3.1689999999999996","254.2","1019.328","23.13","46.14","0.0","0.0"],
    [1524746,"2026-06-17 02:20:00","71243","2.115","261.7","3.0380000000000003","262.2","1019.279","23.19","45.74","0.0","0.0"],
    [1524747,"2026-06-17 02:30:00","71244","2.072","265.6","2.875","272.1","1019.124","23.03","47.56","0.0","0.0"],
    [1524748,"2026-06-17 02:40:00","71245","2.0540000000000003","261.9","3.234","257.5","1019.018","23.01","47.47","0.0","0.0"],
    [1524749,"2026-06-17 02:50:00","71246","2.305","259.6","3.365","245.8","1018.912","23.26","45.83","0.0","0.0"],
    [1524750,"2026-06-17 03:00:00","71247","2.199","259.5","3.495","263.5","1018.739","23.47","45.31","0.0","0.0"],
    [1524751,"2026-06-17 03:10:00","71248","2.158","275.0","3.397","279.9","1018.624","23.02","47.49","0.0","0.0"],
    [1524752,"2026-06-17 03:20:00","71249","2.1519999999999997","276.6","2.907","268.1","1018.468","22.7","48.55","0.0","0.0"],
    [1524753,"2026-06-17 03:30:00","71250","1.982","270.1","2.6460000000000004","262.9","1018.412","22.86","47.48","0.0","0.0"],
    [1524754,"2026-06-17 03:40:00","71251","1.177","268.8","2.156","265.3","1018.427","22.89","47.73","0.0","0.0"],
    [1524755,"2026-06-17 03:50:00","71252","0.929","261.6","1.699","266.0","1018.481","22.86","48.3","0.0","0.0"],
    [1524756,"2026-06-17 04:00:00","71253","0.522","234.3","0.8490000000000001","215.2","1018.508","23.01","48.46","0.0","0.0"],
    [1524757,"2026-06-17 04:10:00","71254","0.7390000000000001","255.0","1.111","269.4","1018.62","22.82","49.15","0.0","0.0"],
    [1524758,"2026-06-17 04:20:00","71255","0.937","279.2","1.307","266.9","1018.604","22.71","48.39","0.0","0.0"],
    [1524759,"2026-06-17 04:30:00","71256","0.025","301.8","0.425","301.8","1018.696","22.62","49.43","0.0","0.0"],
    [1524760,"2026-06-17 04:40:00","71257","0.0","0.0","0.0","0.0","1018.783","22.62","51.03","0.0","0.0"],
    [1524761,"2026-06-17 04:50:00","71258","0.434","210.3","0.8170000000000001","203.0","1018.831","22.76","51.22","32.4","0.0"],
    [1524762,"2026-06-17 05:00:00","71259","0.073","224.5","0.7509999999999999","221.3","1018.766","23.01","50.54","62.98","0.0"],
    [1524763,"2026-06-17 05:10:00","71260","0.706","312.2","1.045","302.2","1018.735","23.02","51.2","67.08","0.0"],
    [1524764,"2026-06-17 05:20:00","71261","0.94","266.6","1.4369999999999998","259.1","1018.787","23.14","49.37","96.9","0.0"],
    [1524765,"2026-06-17 05:30:00","71262","0.588","244.3","1.176","265.2","1019.017","23.43","48.2","134.1","0.0"],
    [1524766,"2026-06-17 05:40:00","71263","0.8420000000000001","266.4","1.405","266.6","1019.118","23.67","46.13","136.7","0.0"],
    [1524767,"2026-06-17 05:50:00","71264","0.568","257.2","1.078","263.9","1019.133","23.88","45.64","197.1","0.0"],
    [1524768,"2026-06-17 06:00:00","71265","0.642","220.3","1.013","191.5","1019.241","24.09","46.44","201.2","0.0"],
    [1524769,"2026-06-17 06:10:00","71266","0.7040000000000001","114.5","1.078","69.89","1019.283","24.06","46.3","246.4","0.0"],
    [1524770,"2026-06-17 06:20:00","71267","1.625","77.82","2.254","93.7","1019.315","24.14","47.42","268.2","0.0"],
    [1524771,"2026-06-17 06:30:00","71268","2.056","100.3","2.483","95.3","1019.428","23.69","54.86","313.3","0.0"],
    [1524772,"2026-06-17 06:40:00","71269","1.787","76.48","2.5810000000000004","39.26","1019.482","23.45","60.21","335.2","0.0"],
    [1524773,"2026-06-17 06:50:00","71270","1.84","43.37","2.5810000000000004","36.51","1019.44","23.45","57.9","372.1","0.0"],
    [1524774,"2026-06-17 07:00:00","71271","1.825","47.35","2.5810000000000004","57.14","1019.441","23.58","53.78","402.2","0.0"],
    [1524775,"2026-06-17 07:10:00","71272","1.824","30.62","2.679","27.83","1019.452","23.9","50.97","416.8","0.0"],
    [1524776,"2026-06-17 07:20:00","71273","1.8419999999999999","36.71","3.6910000000000003","53.0","1019.531","24.51","49.41","435.7","0.0"],
    [1524777,"2026-06-17 07:30:00","71274","2.546","57.99","3.463","46.02","1019.643","24.59","47.34","457.3","0.0"],
    [1524778,"2026-06-17 07:40:00","71275","2.303","68.42","2.9730000000000003","63.0","1019.641","24.55","47.54","502.8","0.0"],
    [1524779,"2026-06-17 07:50:00","71276","2.5340000000000003","58.59","3.103","55.59","1019.57","24.52","49.35","512.5","0.0"],
    [1524780,"2026-06-17 08:00:00","71277","2.09","68.37","2.7769999999999997","83.2","1019.587","24.42","50.88","568.9","0.0"],
    [1524781,"2026-06-17 08:10:00","71278","1.629","77.24","2.254","78.6","1019.589","24.64","49.99","570.9","0.0"],
    [1524782,"2026-06-17 08:20:00","71279","1.666","110.9","2.156","109.4","1019.762","24.73","50.35","628.7","0.0"],
    [1524783,"2026-06-17 08:30:00","71280","2.188","136.6","3.071","140.8","1019.853","24.37","55.4","636.8","0.0"],
    [1524784,"2026-06-17 08:40:00","71281","2.303","140.3","2.7110000000000003","146.3","1019.935","24.0","59.46","667.7","0.0"],
    [1524785,"2026-06-17 08:50:00","71282","2.217","139.1","2.6460000000000004","144.8","1020.048","23.99","59.32","703.9","0.0"],
    [1524786,"2026-06-17 09:00:00","71283","2.397","111.2","3.071","111.5","1020.042","24.01","61.82","703.9","0.0"],
    [1524787,"2026-06-17 09:10:00","71284","2.285","111.6","3.005","114.1","1020.128","23.91","63.37","756.0","0.0"],
    [1524788,"2026-06-17 09:20:00","71285","2.6439999999999997","126.8","3.659","149.3","1020.206","24.02","64.57","770.9","0.0"],
    [1524789,"2026-06-17 09:30:00","71286","2.785","144.4","3.463","144.9","1020.264","23.73","68.9","770.9","0.0"],
    [1524790,"2026-06-17 09:40:00","71287","1.874","127.2","2.7439999999999998","133.8","1020.216","23.77","74.67","816.0","0.0"],
    [1524791,"2026-06-17 09:50:00","71288","1.73","87.3","2.385","89.5","1020.214","23.61","74.56","838.0","0.0"],
    [1524792,"2026-06-17 10:00:00","71289","1.881","81.5","2.483","80.8","1020.19","23.9","65.08","838.0","0.0"],
    [1524793,"2026-06-17 10:10:00","71290","1.994","115.3","2.842","137.3","1020.357","24.29","60.28","838.0","0.0"],
    [1524794,"2026-06-17 10:20:00","71291","2.537","143.1","4.508","163.2","1020.439","24.16","65.05","889.0","0.0"],
    [1524795,"2026-06-17 10:30:00","71292","3.3689999999999998","165.1","5.194","172.2","1020.495","23.75","70.2","905.0","0.0"],
    [1524796,"2026-06-17 10:40:00","71293","2.8080000000000003","165.9","3.7889999999999997","169.9","1020.49","23.69","70.73","905.0","0.0"],
    [1524797,"2026-06-17 10:50:00","71294","2.573","160.7","3.005","166.2","1020.44","23.87","72.7","905.0","0.0"],
    [1524798,"2026-06-17 11:00:00","71295","2.6510000000000002","164.3","2.907","168.1","1020.379","23.94","71.61","905.0","0.0"],
    [1524799,"2026-06-17 11:10:00","71296","2.5340000000000003","159.4","2.94","162.6","1020.36","24.09","70.69","905.0","0.0"],
    [1524800,"2026-06-17 11:20:00","71297","2.611","147.2","3.887","155.5","1020.334","24.19","71.86","929.0","0.0"],
    [1524801,"2026-06-17 11:30:00","71298","3.532","153.3","4.279","158.4","1020.476","24.11","75.56","968.0","0.0"],
    [1524802,"2026-06-17 11:40:00","71299","3.682","159.4","4.475","167.1","1020.475","24.03","79.68","972.0","0.0"],
    [1524803,"2026-06-17 11:50:00","71300","4.1080000000000005","165.7","4.737","165.8","1020.455","23.91","83.2","972.0","0.0"],
    [1524804,"2026-06-17 12:00:00","71301","3.1639999999999997","163.0","4.149","172.2","1020.378","23.89","84.9","972.0","0.0"],
    [1524805,"2026-06-17 12:10:00","71302","3.116","162.9","3.7889999999999997","166.0","1020.388","23.89","84.3","971.0","0.0"],
    [1524806,"2026-06-17 12:20:00","71303","3.091","158.6","4.1160000000000005","169.7","1020.411","24.05","84.4","962.0","0.0"],
    [1524807,"2026-06-17 12:30:00","71304","2.861","135.5","3.5610000000000004","138.9","1020.371","24.09","85.2","945.0","0.0"],
    [1524808,"2026-06-17 12:40:00","71305","2.53","121.1","3.887","118.8","1020.286","24.06","86.3","918.0","0.0"],
    [1524809,"2026-06-17 12:50:00","71306","2.247","111.3","3.267","108.9","1020.26","24.07","85.8","905.0","0.0"],
    [1524810,"2026-06-17 13:00:00","71307","2.9130000000000003","129.6","3.985","142.6","1020.327","24.11","85.8","905.0","0.0"],
    [1524811,"2026-06-17 13:10:00","71308","4.09","155.3","4.933","162.1","1020.431","24.04","86.3","904.0","0.0"],
    [1524812,"2026-06-17 13:20:00","71309","4.476","161.8","5.2589999999999995","161.4","1020.472","23.97","86.6","900.0","0.0"],
    [1524813,"2026-06-17 13:30:00","71310","4.433","168.4","6.0760000000000005","167.1","1020.523","24.0","86.7","890.0","0.0"],
    [1524814,"2026-06-17 13:40:00","71311","4.091","166.2","5.815","163.9","1020.537","24.0","86.6","845.0","0.0"],
    [1524815,"2026-06-17 13:50:00","71312","3.7960000000000003","163.6","4.573","163.0","1020.545","24.0","85.0","838.0","0.0"],
    [1524816,"2026-06-17 14:00:00","71313","3.3960000000000004","163.5","3.9530000000000003","160.2","1020.498","24.09","83.1","838.0","0.0"],
    [1524817,"2026-06-17 14:10:00","71314","2.7889999999999997","163.2","3.528","168.6","1020.409","24.17","81.4","830.0","0.0"],
    [1524818,"2026-06-17 14:20:00","71315","1.93","133.9","3.005","106.1","1020.296","24.3","79.75","772.8","0.0"],
    [1524819,"2026-06-17 14:30:00","71316","2.441","112.8","3.495","98.3","1020.203","24.4","79.83","770.9","0.0"],
    [1524820,"2026-06-17 14:40:00","71317","2.912","114.5","3.7569999999999997","115.7","1020.192","24.39","80.6","764.4","0.0"],
    [1524821,"2026-06-17 14:50:00","71318","2.7119999999999997","106.9","3.495","100.2","1020.055","24.36","81.0","706.8","0.0"],
    [1524822,"2026-06-17 15:00:00","71319","2.5639999999999996","110.9","3.267","97.8","1019.959","24.35","80.0","703.8","0.0"],
    [1524823,"2026-06-17 15:10:00","71320","2.479","132.5","3.136","125.5","1019.983","24.39","79.07","682.9","0.0"],
    [1524824,"2026-06-17 15:20:00","71321","2.1630000000000003","135.7","2.875","127.2","1019.919","24.32","76.99","636.7","0.0"],
    [1524825,"2026-06-17 15:30:00","71322","1.954","140.6","2.679","136.8","1019.903","24.51","73.72","636.4","0.0"],
    [1524826,"2026-06-17 15:40:00","71323","1.882","109.8","2.7439999999999998","124.6","1019.781","24.59","71.18","572.1","0.0"],
    [1524827,"2026-06-17 15:50:00","71324","2.11","104.7","3.136","101.3","1019.581","24.73","68.77","569.6","0.0"],
    [1524828,"2026-06-17 16:00:00","71325","2.025","124.0","2.7110000000000003","143.6","1019.545","24.64","72.62","515.0","0.0"],
    [1524829,"2026-06-17 16:10:00","71326","2.074","94.5","3.0380000000000003","88.1","1019.466","24.56","72.09","502.6","0.0"],
    [1524830,"2026-06-17 16:20:00","71327","2.454","77.39","3.6260000000000003","85.0","1019.304","24.49","72.92","460.7","0.0"],
    [1524831,"2026-06-17 16:30:00","71328","2.18","84.6","3.267","80.5","1019.264","24.47","71.42","435.6","0.0"],
    [1524832,"2026-06-17 16:40:00","71329","2.0380000000000003","69.69","3.103","71.84","1019.117","24.49","70.97","415.2","0.0"],
    [1524833,"2026-06-17 16:50:00","71330","2.149","85.0","3.103","93.3","1019.1","24.44","70.27","402.1","0.0"],
    [1524834,"2026-06-17 17:00:00","71331","2.062","108.7","2.875","102.2","1019.141","24.44","70.15","381.6","0.0"],
    [1524835,"2026-06-17 17:10:00","71332","2.065","79.29","3.103","87.5","1019.047","24.4","69.96","335.1","0.0"],
    [1524836,"2026-06-17 17:20:00","71333","2.549","69.8","3.43","83.3","1018.916","24.44","69.26","322.3","0.0"],
    [1524837,"2026-06-17 17:30:00","71334","3.069","57.73","3.92","59.89","1018.718","24.43","70.5","268.1","0.0"],
    [1524838,"2026-06-17 17:40:00","71335","3.0789999999999997","36.52","4.4430000000000005","40.49","1018.653","24.36","73.63","250.2","0.0"],
    [1524839,"2026-06-17 17:50:00","71336","3.094","33.17","4.312","42.51","1018.658","24.3","73.41","201.1","0.0"],
    [1524840,"2026-06-17 18:00:00","71337","3.6860000000000004","31.6","4.4430000000000005","40.54","1018.57","24.27","72.11","196.4","0.0"],
    [1524841,"2026-06-17 18:10:00","71338","3.208","43.05","4.541","39.39","1018.472","24.46","69.42","136.6","0.0"],
    [1524842,"2026-06-17 18:20:00","71339","2.024","72.06","2.875","66.77","1018.723","24.6","69.09","134.1","0.0"],
    [1524843,"2026-06-17 18:30:00","71340","1.814","79.47","2.417","74.22","1018.825","24.42","70.01","94.4","0.0"],
    [1524844,"2026-06-17 18:40:00","71341","1.182","106.0","1.829","110.1","1018.853","24.41","69.57","67.04","0.0"],
    [1524845,"2026-06-17 18:50:00","71342","1.455","126.4","1.895","155.7","1018.829","24.47","68.02","67.04","0.0"],
    [1524846,"2026-06-17 19:00:00","71343","1.6540000000000001","122.7","2.221","95.7","1018.787","24.31","71.88","18.24","0.0"],
    [1524847,"2026-06-17 19:10:00","71344","1.597","82.3","2.0580000000000003","94.6","1018.715","24.21","73.14","0.0","0.0"],
    [1524848,"2026-06-17 19:20:00","71345","1.4180000000000001","118.1","2.156","104.9","1018.767","24.11","74.13","0.0","0.0"],
    [1524849,"2026-06-17 19:30:00","71346","1.62","118.0","2.0909999999999997","102.2","1018.76","24.03","75.42","0.0","0.0"],
    [1524850,"2026-06-17 19:40:00","71347","1.2570000000000001","131.1","1.96","141.3","1018.718","23.94","75.84","0.0","0.0"],
    [1524851,"2026-06-17 19:50:00","71348","0.257","131.7","0.8170000000000001","123.6","1018.725","23.86","75.74","0.0","0.0"],
    [1524852,"2026-06-17 20:00:00","71349","0.973","96.2","1.9269999999999998","66.05","1018.676","23.82","76.03","0.0","0.0"],
    [1524853,"2026-06-17 20:10:00","71350","1.735","54.51","2.287","61.5","1018.75","23.98","74.46","0.0","0.0"],
    [1524854,"2026-06-17 20:20:00","71351","1.339","90.6","1.797","105.0","1019.03","24.04","76.12","0.0","0.0"],
    [1524855,"2026-06-17 20:30:00","71352","1.202","110.1","2.025","149.7","1019.294","23.91","78.51","0.0","0.0"],
    [1524856,"2026-06-17 20:40:00","71353","1.469","125.2","2.221","129.3","1019.378","23.77","79.8","0.0","0.0"],
    [1524857,"2026-06-17 20:50:00","71354","1.676","137.0","2.45","145.7","1019.495","23.73","80.7","0.0","0.0"],
    [1524858,"2026-06-17 21:00:00","71355","0.705","94.3","1.535","107.6","1019.637","23.66","81.3","0.0","0.0"],
    [1524859,"2026-06-17 21:10:00","71356","1.9780000000000002","123.5","2.94","112.7","1019.741","23.64","81.5","0.0","0.0"],
    [1524860,"2026-06-17 21:20:00","71357","2.7689999999999997","160.8","3.887","164.7","1019.928","23.64","84.1","0.0","0.0"],
    [1524861,"2026-06-17 21:30:00","71358","2.05","156.4","2.8089999999999997","160.1","1019.964","23.59","86.3","0.0","0.0"],
    [1524862,"2026-06-17 21:40:00","71359","1.295","138.0","2.0580000000000003","151.5","1019.945","23.52","87.6","0.0","0.0"],
    [1524863,"2026-06-17 21:50:00","71360","0.986","106.2","1.5030000000000001","120.3","1019.791","23.5","88.6","0.0","0.0"],
    [1524864,"2026-06-17 22:00:00","71361","0.493","109.0","1.2409999999999999","117.8","1019.78","23.45","89.4","0.0","0.0"],
    [1524865,"2026-06-17 22:10:00","71362","0.48100000000000004","89.6","0.8490000000000001","93.2","1019.737","23.35","89.8","0.0","0.0"],
    [1524866,"2026-06-17 22:20:00","71363","0.32299999999999995","69.45","0.98","71.57","1019.772","23.3","90.1","0.0","0.0"],
    [1524867,"2026-06-17 22:30:00","71364","0.373","122.3","1.111","123.2","1019.918","23.24","90.4","0.0","0.0"],
    [1524868,"2026-06-17 22:40:00","71365","0.826","122.6","1.143","113.1","1020","23.25","90.8","0.0","0.0"],
    [1524869,"2026-06-17 22:50:00","71366","1.3780000000000001","152.7","1.895","169.8","1020.106","23.25","91.3","0.0","0.0"],
    [1524870,"2026-06-17 23:00:00","71367","1.4480000000000002","185.0","2.0909999999999997","184.9","1020.171","23.25","91.9","0.0","0.0"],
    [1524871,"2026-06-17 23:10:00","71368","1.253","142.9","2.025","179.4","1020.094","23.22","92.0","0.0","0.0"],
    [1524872,"2026-06-17 23:20:00","71369","0.5529999999999999","140.2","1.2409999999999999","142.0","1020.064","23.14","92.1","0.0","0.0"],
    [1524873,"2026-06-17 23:30:00","71370","0.0","0.0","0.0","0.0","1019.985","22.86","91.5","0.0","0.0"],
    [1524874,"2026-06-17 23:40:00","71371","0.365","7.51","1.274","4.275","1019.988","22.75","91.2","0.0","0.0"],
    [1524875,"2026-06-17 23:50:00","71372","1.855","11.09","2.45","19.77","1019.852","23.03","90.9","0.0","0.0"],
    [1524876,"2026-06-18 00:00:00","71373","1.473","22.39","2.352","18.87","1019.862","23.02","89.9","0.0","0.0"],
    [1524877,"2026-06-18 00:10:00","71374","0.745","26.57","1.307","20.24","1019.879","23.17","89.5","0.0","0.0"],
    [1524878,"2026-06-18 00:20:00","71375","0.5920000000000001","42.26","0.9470000000000001","47.48","1019.753","23.18","89.5","0.0","0.0"],
    [1524879,"2026-06-18 00:30:00","71376","1.1909999999999998","61.63","1.8619999999999999","59.77","1019.728","23.17","89.7","0.0","0.0"],
    [1524880,"2026-06-18 00:40:00","71377","1.5959999999999999","65.15","2.0909999999999997","57.55","1019.681","23.05","89.3","0.0","0.0"],
    [1524881,"2026-06-18 00:50:00","71378","1.935","65.08","2.352","62.05","1019.638","23.12","89.8","0.0","0.0"],
    [1524882,"2026-06-18 01:00:00","71379","2.27","59.25","2.875","39.03","1019.502","23.02","90.2","0.0","0.0"],
    [1524883,"2026-06-18 01:10:00","71380","2.529","45.4","3.136","31.79","1019.354","23.05","90.5","0.0","0.0"],
    [1524884,"2026-06-18 01:20:00","71381","3.016","39.15","3.6910000000000003","47.51","1019.279","23.04","91.1","0.0","0.0"],
    [1524885,"2026-06-18 01:30:00","71382","3.1719999999999997","48.64","3.887","41.96","1019.208","22.95","91.5","0.0","0.0"],
    [1524886,"2026-06-18 01:40:00","71383","2.641","62.69","3.463","60.42","1019.238","22.83","91.1","0.0","0.0"],
    [1524887,"2026-06-18 01:50:00","71384","2.445","71.5","3.43","57.65","1019.221","22.82","90.1","0.0","0.0"],
    [1524888,"2026-06-18 02:00:00","71385","2.073","83.2","2.515","83.8","1019.272","22.91","89.2","0.0","0.0"],
    [1524889,"2026-06-18 02:10:00","71386","2.625","57.97","3.6910000000000003","61.08","1019.074","22.91","88.6","0.0","0.0"],
    [1524890,"2026-06-18 02:20:00","71387","2.374","62.16","3.43","50.7","1019.215","22.65","82.1","0.0","0.0"],
    [1524891,"2026-06-18 02:30:00","71388","2.315","72.79","3.528","105.3","1019.242","22.91","74.46","0.0","0.0"],
    [1524892,"2026-06-18 02:40:00","71389","1.795","48.67","2.7439999999999998","56.69","1019.271","23.2","66.43","0.0","0.0"],
    [1524893,"2026-06-18 02:50:00","71390","1.5130000000000001","27.99","2.0909999999999997","14.87","1019.155","23.12","70.03","0.0","0.0"],
    [1524894,"2026-06-18 03:00:00","71391","1.061","62.44","1.535","59.96","1019.16","22.93","69.74","0.0","0.0"],
    [1524895,"2026-06-18 03:10:00","71392","1.4580000000000002","67.5","2.189","60.19","1019.003","22.99","74.3","0.0","0.0"],
    [1524896,"2026-06-18 03:20:00","71393","0.965","71.27","1.535","82.5","1019.006","22.79","76.69","0.0","0.0"],
    [1524897,"2026-06-18 03:30:00","71394","1.4780000000000002","124.4","1.993","125.1","1018.969","23.07","85.5","0.0","0.0"],
    [1524898,"2026-06-18 03:40:00","71395","1.78","80.2","2.254","70.22","1018.851","22.57","89.0","0.0","0.0"],
    [1524899,"2026-06-18 03:50:00","71396","1.436","76.67","2.025","42.74","1018.821","22.43","89.7","0.0","0.0"],
    [1524900,"2026-06-18 04:00:00","71397","1.6469999999999998","70.95","2.352","75.66","1018.763","22.36","89.7","0.0","0.0"],
    [1524901,"2026-06-18 04:10:00","71398","1.3969999999999998","70.0","1.895","79.01","1018.772","22.27","89.2","0.0","0.0"],
    [1524902,"2026-06-18 04:20:00","71399","2.6239999999999997","25.15","3.201","19.87","1018.617","22.09","86.1","0.0","0.0"],
    [1524903,"2026-06-18 04:30:00","71400","2.759","21.84","3.332","22.69","1018.513","22.37","83.6","0.0","0.0"],
    [1524904,"2026-06-18 04:40:00","71401","2.519","24.36","3.136","13.03","1018.507","22.39","83.2","0.7829999999999999","0.0"],
    [1524905,"2026-06-18 04:50:00","71402","2.13","33.11","2.679","28.36","1018.67","22.47","82.6","45.2","0.0"],
    [1524906,"2026-06-18 05:00:00","71403","1.994","35.01","2.8089999999999997","37.28","1018.648","22.54","83.2","67.08","0.0"],
    [1524907,"2026-06-18 05:10:00","71404","1.7309999999999999","43.44","2.287","42.62","1018.744","22.54","83.1","67.14","0.0"],
    [1524908,"2026-06-18 05:20:00","71405","2.06","40.79","2.548","48.99","1018.805","22.59","82.3","112.9","0.0"],
    [1524909,"2026-06-18 05:30:00","71406","2.126","25.14","3.234","28.84","1018.841","22.62","80.1","134.2","0.0"],
    [1524910,"2026-06-18 05:40:00","71407","2.656","29.27","3.267","26.07","1018.729","22.64","78.95","161.5","0.0"],
    [1524911,"2026-06-18 05:50:00","71408","2.7089999999999996","26.82","3.397","25.01","1018.777","22.66","79.53","201.2","0.0"],
    [1524912,"2026-06-18 06:00:00","71409","3.319","17.33","4.2139999999999995","24.99","1018.732","22.61","79.13","216.5","0.0"],
    [1524913,"2026-06-18 06:10:00","71410","3.178","17.35","3.6910000000000003","16.07","1018.771","22.61","79.39","268.2","0.0"],
    [1524914,"2026-06-18 06:20:00","71411","2.576","33.51","3.234","34.35","1018.805","22.67","78.43","286.3","0.0"],
    [1524915,"2026-06-18 06:30:00","71412","2.431","45.84","3.201","27.75","1018.948","22.79","78.95","328.5","0.0"],
    [1524916,"2026-06-18 06:40:00","71413","2.3680000000000003","47.63","3.5610000000000004","50.28","1019.069","22.76","80.5","346.2","0.0"],
    [1524917,"2026-06-18 06:50:00","71414","2.218","51.62","3.1689999999999996","39.03","1019.25","22.74","79.83","401.8","0.0"],
    [1524918,"2026-06-18 07:00:00","71415","1.416","86.2","2.189","88.1","1019.468","22.85","79.37","402.4","0.0"],
    [1524919,"2026-06-18 07:10:00","71416","2.435","42.36","3.397","33.58","1019.344","22.74","78.96","430.3","0.0"],
    [1524920,"2026-06-18 07:20:00","71417","2.148","50.38","3.103","37.29","1019.496","22.72","78.68","438.7","0.0"],
    [1524921,"2026-06-18 07:30:00","71418","2.267","46.03","3.267","44.1","1019.535","22.81","78.52","498.9","0.0"],
    [1524922,"2026-06-18 07:40:00","71419","2.4530000000000003","47.1","3.985","51.89","1019.627","22.74","79.37","503.0","0.0"],
    [1524923,"2026-06-18 07:50:00","71420","2.299","49.79","3.7239999999999998","29.83","1019.698","22.79","79.41","560.3","0.0"],
    [1524924,"2026-06-18 08:00:00","71421","2.49","39.87","3.7569999999999997","47.42","1019.708","22.87","80.7","569.8","0.0"],
    [1524925,"2026-06-18 08:10:00","71422","1.815","63.82","4.149","106.2","1019.759","22.95","82.5","606.5","0.0"],
    [1524926,"2026-06-18 08:20:00","71423","1.6440000000000001","76.48","3.528","97.0","1019.805","22.99","82.3","621.7","0.0"],
    [1524927,"2026-06-18 08:30:00","71424","2.025","87.7","3.887","96.3","1019.819","22.91","82.9","609.5","0.0"],
    [1524928,"2026-06-18 08:40:00","71425","1.7590000000000001","71.57","3.397","29.52","1019.802","22.87","83.7","682.4","0.0"],
    [1524929,"2026-06-18 08:50:00","71426","2.612","89.0","4.051","77.45","1019.858","22.81","83.8","657.1","0.0"],
    [1524930,"2026-06-18 09:00:00","71427","3.097","88.5","4.508","91.7","1019.941","22.67","84.5","738.4","0.0"],
    [1524931,"2026-06-18 09:10:00","71428","2.7430000000000003","87.3","6.697","83.2","1019.985","22.66","84.2","704.9","0.0"],
    [1524932,"2026-06-18 09:20:00","71429","2.372","84.3","4.933","91.9","1020.016","22.65","83.9","755.8","0.0"],
    [1524933,"2026-06-18 09:30:00","71430","2.537","42.05","4.4430000000000005","12.58","1019.969","22.72","83.4","825.0","0.0"],
    [1524934,"2026-06-18 09:40:00","71431","2.153","57.13","4.802","37.01","1020.067","22.77","83.0","832.0","0.0"],
    [1524935,"2026-06-18 09:50:00","71432","3.1910000000000003","93.7","5.4879999999999995","103.8","1020.151","22.71","83.4","789.0","0.0"],
    [1524936,"2026-06-18 10:00:00","71433","4.162","93.4","5.815","96.1","1020.215","22.63","83.8","865.0","0.0"],
    [1524937,"2026-06-18 10:10:00","71434","4.127","96.2","5.7170000000000005","97.6","1020.284","22.57","83.4","904.0","0.0"],
    [1524938,"2026-06-18 10:20:00","71435","3.56","89.7","5.063","97.7","1020.226","22.65","82.6","905.0","0.0"],
    [1524939,"2026-06-18 10:30:00","71436","2.478","54.42","5.2589999999999995","30.6","1020.307","22.83","82.6","875.0","0.0"],
    [1524940,"2026-06-18 10:40:00","71437","1.925","59.22","4.279","45.43","1020.334","22.85","82.3","868.0","0.0"],
    [1524941,"2026-06-18 10:50:00","71438","2.145","51.34","5.945","50.65","1020.232","22.86","81.8","879.0","0.0"],
    [1524942,"2026-06-18 11:00:00","71439","2.015","53.58","4.867","30.43","1020.21","22.97","81.7","907.0","0.0"],
    [1524943,"2026-06-18 11:10:00","71440","2.499","81.8","5.619","104.6","1020.155","22.91","82.2","885.0","0.0"],
    [1524944,"2026-06-18 11:20:00","71441","3.509","94.8","5.325","96.9","1020.119","22.84","82.7","935.0","0.0"],
    [1524945,"2026-06-18 11:30:00","71442","2.503","89.8","5.063","58.75","1020.058","22.88","82.6","876.0","0.0"],
    [1524946,"2026-06-18 11:40:00","71443","3.1919999999999997","95.1","5.1610000000000005","95.9","1020.001","22.88","82.6","932.0","0.0"],
    [1524947,"2026-06-18 11:50:00","71444","2.6430000000000002","44.1","5.684","58.83","1019.861","22.87","82.4","891.0","0.0"],
    [1524948,"2026-06-18 12:00:00","71445","2.536","76.39","4.9","63.72","1019.964","22.86","82.6","929.0","0.0"],
    [1524949,"2026-06-18 12:10:00","71446","3.113","100.7","5.129","102.2","1019.948","22.85","83.0","940.0","0.0"],
    [1524950,"2026-06-18 12:20:00","71447","2.5839999999999996","77.98","5.521","105.2","1019.81","22.96","82.7","876.0","0.0"],
    [1524951,"2026-06-18 12:30:00","71448","1.791","59.37","4.2139999999999995","114.6","1019.691","22.95","83.1","608.3","0.0"],
    [1524952,"2026-06-18 12:40:00","71449","1.993","54.45","4.933","49.82","1019.612","23.01","83.1","969.0","0.0"],
    [1524953,"2026-06-18 12:50:00","71450","2.2969999999999997","58.63","4.933","36.17","1019.534","23.0","83.2","933.0","0.0"],
    [1524954,"2026-06-18 13:00:00","71451","3.5380000000000003","42.01","5.651","29.83","1019.421","22.97","83.5","910.0","0.0"],
    [1524955,"2026-06-18 13:10:00","71452","3.016","43.93","5.684","40.2","1019.353","22.98","83.7","906.0","0.0"],
    [1524956,"2026-06-18 13:20:00","71453","2.719","43.35","5.7170000000000005","37.26","1019.275","23.08","83.4","905.0","0.0"],
    [1524957,"2026-06-18 13:30:00","71454","3.347","40.51","5.2589999999999995","34.43","1019.252","23.07","83.4","905.0","0.0"],
    [1524958,"2026-06-18 13:40:00","71455","3.594","44.2","5.194","41.44","1019.242","23.1","83.6","902.0","0.0"],
    [1524959,"2026-06-18 13:50:00","71456","3.838","45.34","5.945","52.19","1019.182","23.01","84.1","872.0","0.0"],
    [1524960,"2026-06-18 14:00:00","71457","3.366","47.16","5.096","36.24","1019.194","23.13","83.5","873.0","0.0"],
    [1524961,"2026-06-18 14:10:00","71458","3.2260000000000004","45.17","5.194","44.78","1019.14","23.16","83.2","537.9","0.0"],
    [1524962,"2026-06-18 14:20:00","71459","2.904","44.55","4.933","43.17","1019.143","23.14","82.7","815.0","0.0"],
    [1524963,"2026-06-18 14:30:00","71460","2.8939999999999997","48.24","5.749","43.71","1019.104","23.22","82.3","715.9","0.0"],
    [1524964,"2026-06-18 14:40:00","71461","2.513","65.78","5.325","99.7","1019.127","23.24","82.7","630.2","0.0"],
    [1524965,"2026-06-18 14:50:00","71462","2.589","85.1","4.508","108.4","1019.107","23.19","82.7","737.3","0.0"],
    [1524966,"2026-06-18 15:00:00","71463","3.2760000000000002","92.1","5.684","88.7","1019.037","23.15","83.0","692.5","0.0"],
    [1524967,"2026-06-18 15:10:00","71464","2.736","88.2","5.455","114.2","1018.872","23.16","83.5","651.6","0.0"],
    [1524968,"2026-06-18 15:20:00","71465","2.1180000000000003","54.63","4.965","52.92","1018.78","23.22","83.4","649.0","0.0"],
    [1524969,"2026-06-18 15:30:00","71466","2.359","42.63","4.802","48.11","1018.744","23.23","83.2","635.9","0.0"],
    [1524970,"2026-06-18 15:40:00","71467","2.5180000000000002","56.68","4.9","52.05","1018.667","23.28","82.9","574.9","0.0"],
    [1524971,"2026-06-18 15:50:00","71468","2.061","59.12","4.638999999999999","58.24","1018.629","23.3","83.0","566.3","0.0"],
    [1524972,"2026-06-18 16:00:00","71469","3.3160000000000003","43.2","5.357","31.56","1018.436","23.25","83.2","515.0","0.0"],
    [1524973,"2026-06-18 16:10:00","71470","3.4339999999999997","41.78","5.847","42.96","1018.317","23.24","83.9","493.2","0.0"],
    [1524974,"2026-06-18 16:20:00","71471","4.367","47.9","6.468","50.57","1018.092","23.16","84.5","465.7","0.0"],
    [1524975,"2026-06-18 16:30:00","71472","4.127","46.99","5.455","40.96","1017.988","23.12","84.9","435.7","0.0"],
    [1524976,"2026-06-18 16:40:00","71473","4.104","49.56","5.782","30.97","1017.935","23.14","84.8","406.1","0.0"],
    [1524977,"2026-06-18 16:50:00","71474","4.3069999999999995","50.52","5.357","52.43","1017.763","23.15","85.1","402.2","0.0"],
    [1524978,"2026-06-18 17:00:00","71475","4.503","46.54","5.684","39.89","1017.59","23.1","85.3","376.8","0.0"],
    [1524979,"2026-06-18 17:10:00","71476","4.631","44.59","5.651","43.42","1017.509","23.1","85.8","335.2","0.0"],
    [1524980,"2026-06-18 17:20:00","71477","4.811","45.55","5.847","42.92","1017.41","23.04","85.7","313.6","0.0"],
    [1524981,"2026-06-18 17:30:00","71478","4.4110000000000005","43.43","5.422999999999999","36.74","1017.437","23.1","85.4","268.2","0.0"],
    [1524982,"2026-06-18 17:40:00","71479","3.9960000000000004","48.36","5.227","36.27","1017.466","23.14","84.7","239.7","0.0"],
    [1524983,"2026-06-18 17:50:00","71480","3.8739999999999997","47.15","4.802","47.28","1017.533","23.27","84.2","201.1","0.0"],
    [1524984,"2026-06-18 18:00:00","71481","3.7089999999999996","47.07","4.737","47.36","1017.532","23.19","85.0","184.1","0.0"],
    [1524985,"2026-06-18 18:10:00","71482","3.675","42.81","5.063","46.31","1017.5","23.18","85.1","134.5","0.0"],
    [1524986,"2026-06-18 18:20:00","71483","3.5610000000000004","36.74","5.096","29.59","1017.433","23.23","84.9","134.1","0.0"],
    [1524987,"2026-06-18 18:30:00","71484","2.653","38.53","4.149","40.29","1017.598","23.29","84.8","101.7","0.0"],
    [1524988,"2026-06-18 18:40:00","71485","3.554","35.77","4.573","35.08","1017.587","23.24","84.7","67.06","0.0"],
    [1524989,"2026-06-18 18:50:00","71486","3.625","33.88","4.573","29.07","1017.573","23.15","85.0","67.06","0.0"],
    [1524990,"2026-06-18 19:00:00","71487","3.7039999999999997","33.57","4.541","34.8","1017.579","23.15","84.7","34.14","0.0"],
    [1524991,"2026-06-18 19:10:00","71488","3.593","31.23","4.606","28.52","1017.616","23.11","85.0","0.0","0.0"],
    [1524992,"2026-06-18 19:20:00","71489","3.8560000000000003","31.5","4.638999999999999","28.88","1017.594","23.1","84.9","0.0","0.0"],
    [1524993,"2026-06-18 19:30:00","71490","3.4410000000000003","30.99","4.181","33.77","1017.734","23.1","85.0","0.0","0.0"],
    [1524994,"2026-06-18 19:40:00","71491","3.034","37.33","3.5610000000000004","40.1","1017.798","23.11","84.3","0.0","0.0"],
    [1524995,"2026-06-18 19:50:00","71492","3.235","37.9","4.083","39.67","1017.754","23.14","83.7","0.0","0.0"],
    [1524996,"2026-06-18 20:00:00","71493","3.594","34.02","4.638999999999999","29.97","1017.695","23.16","84.0","0.0","0.0"],
    [1524997,"2026-06-18 20:10:00","71494","4.138999999999999","35.38","5.4879999999999995","30.44","1017.637","23.1","84.6","0.0","0.0"],
    [1524998,"2026-06-18 20:20:00","71495","4.02","35.14","5.422999999999999","48.94","1017.63","23.12","84.8","0.0","0.0"],
    [1524999,"2026-06-18 20:30:00","71496","4.111000000000001","36.1","5.357","34.96","1017.543","23.12","85.3","0.0","0.0"],
    [1525000,"2026-06-18 20:40:00","71497","3.911","40.34","5.1610000000000005","37.34","1017.642","23.09","85.2","0.0","0.0"],
    [1525001,"2026-06-18 20:50:00","71498","3.42","43.21","4.835","46.28","1017.66","23.17","83.7","0.0","0.0"],
    [1525002,"2026-06-18 21:00:00","71499","3.589","51.97","4.933","47.67","1017.606","23.35","80.8","0.0","0.0"],
    [1525003,"2026-06-18 21:10:00","71500","3.585","44.18","5.096","47.92","1017.773","23.39","80.1","0.0","0.0"],
    [1525004,"2026-06-18 21:20:00","71501","3.9939999999999998","40.43","4.704","46.39","1017.759","23.44","79.54","0.0","0.0"],
    [1525005,"2026-06-18 21:30:00","71502","3.99","38.22","5.357","30.38","1017.709","23.37","79.68","0.0","0.0"],
    [1525006,"2026-06-18 21:40:00","71503","3.142","34.28","4.965","32.08","1017.713","23.47","77.38","0.0","0.0"],
    [1525007,"2026-06-18 21:50:00","71504","5.729","41.8","7.187","50.9","1017.242","23.48","78.61","0.0","0.0"],
    [1525008,"2026-06-18 22:00:00","71505","6.101","35.42","7.905","38.28","1017.06","23.39","81.5","0.0","0.0"],
    [1525009,"2026-06-18 22:10:00","71506","5.225","35.32","6.599","27.24","1017.273","23.36","82.6","0.0","0.0"],
    [1525010,"2026-06-18 22:20:00","71507","5.381","30.46","6.893","24.97","1017.393","23.26","81.4","0.0","0.0"],
    [1525011,"2026-06-18 22:30:00","71508","4.546","35.74","5.651","34.05","1017.607","23.36","77.29","0.0","0.0"],
    [1525012,"2026-06-18 22:40:00","71509","3.215","40.37","4.769","44.77","1017.931","23.44","76.64","0.0","0.0"],
    [1525013,"2026-06-18 22:50:00","71510","3.227","47.25","4.083","39.12","1018.037","23.46","78.34","0.0","0.0"],
    [1525014,"2026-06-18 23:00:00","71511","2.8930000000000002","46.62","4.312","54.2","1018.056","23.39","79.19","0.0","0.0"],
    [1525015,"2026-06-18 23:10:00","71512","3.122","39.63","4.018","34.52","1018.157","23.32","78.27","0.0","0.0"],
    [1525016,"2026-06-18 23:20:00","71513","3.8569999999999998","33.38","4.998","32.53","1017.997","23.26","77.28","0.0","0.0"],
    [1525017,"2026-06-18 23:30:00","71514","3.3939999999999997","31.98","5.063","27.04","1018.161","23.27","76.83","0.0","0.0"],
    [1525018,"2026-06-18 23:40:00","71515","2.238","29.2","3.234","23.93","1018.465","23.23","77.57","0.0","0.0"],
    [1525019,"2026-06-18 23:50:00","71516","2.821","17.58","3.659","35.24","1018.407","23.18","78.7","0.0","0.0"],
    [1525020,"2026-06-19 00:00:00","71517","2.823","11.37","3.495","17.07","1018.424","23.14","79.44","0.0","0.0"],
    [1525021,"2026-06-19 00:10:00","71518","2.7960000000000003","29.28","3.6260000000000003","20.5","1018.495","23.15","80.3","0.0","0.0"],
    [1525022,"2026-06-19 00:20:00","71519","2.339","28.44","3.1689999999999996","27.84","1018.698","23.13","80.9","0.0","0.0"],
    [1525023,"2026-06-19 00:30:00","71520","3.685","55.44","5.357","52.59","1018.414","23.21","80.4","0.0","0.0"],
    [1525024,"2026-06-19 00:40:00","71521","3.985","45.59","5.782","60.98","1018.134","23.16","80.3","0.0","0.0"],
    [1525025,"2026-06-19 00:50:00","71522","4.178999999999999","45.25","5.422999999999999","51.54","1018.08","23.1","77.15","0.0","0.0"],
    [1525026,"2026-06-19 01:00:00","71523","4.888999999999999","24.95","6.239","21.59","1017.897","23.12","75.31","0.0","0.0"],
    [1525027,"2026-06-19 01:10:00","71524","3.031","25.97","4.508","17.83","1018.146","23.13","73.75","0.0","0.0"],
    [1525028,"2026-06-19 01:20:00","71525","2.863","20.86","3.822","15.64","1018.17","23.18","71.67","0.0","0.0"],
    [1525029,"2026-06-19 01:30:00","71526","3.3089999999999997","32.8","4.181","34.62","1017.927","23.31","70.38","0.0","0.0"],
    [1525030,"2026-06-19 01:40:00","71527","3.2880000000000003","24.07","4.671","22.38","1017.921","23.39","66.3","0.0","0.0"],
    [1525031,"2026-06-19 01:50:00","71528","2.43","13.14","3.332","19.9","1018.091","23.38","64.53","0.0","0.0"],
    [1525032,"2026-06-19 02:00:00","71529","2.963","14.22","3.6910000000000003","16.61","1017.877","23.42","60.53","0.0","0.0"],
    [1525033,"2026-06-19 02:10:00","71530","2.7110000000000003","48.04","3.822","48.45","1017.927","23.64","55.88","0.0","0.0"],
    [1525034,"2026-06-19 02:20:00","71531","3.4189999999999996","38.17","4.41","42.25","1017.616","23.78","52.96","0.0","0.0"],
    [1525035,"2026-06-19 02:30:00","71532","4.027","26.84","5.357","19.21","1017.488","23.8","52.0","0.0","0.0"],
    [1525036,"2026-06-19 02:40:00","71533","4.598","24.46","5.357","21.36","1017.259","23.72","54.54","0.0","0.0"],
    [1525037,"2026-06-19 02:50:00","71534","4.871","24.95","5.978","23.93","1017.009","23.73","51.79","0.0","0.0"],
    [1525038,"2026-06-19 03:00:00","71535","3.283","12.61","4.9","12.4","1017.098","23.58","54.26","0.0","0.0"],
    [1525039,"2026-06-19 03:10:00","71536","1.5","26.87","2.6460000000000004","8.03","1017.392","23.53","56.51","0.0","0.0"],
    [1525040,"2026-06-19 03:20:00","71537","3.6660000000000004","18.79","5.227","22.09","1016.966","23.4","58.79","0.0","0.0"],
    [1525041,"2026-06-19 03:30:00","71538","4.477","20.02","5.7170000000000005","17.6","1016.723","23.35","57.84","0.0","0.0"],
    [1525042,"2026-06-19 03:40:00","71539","3.7060000000000004","32.74","4.835","32.39","1016.796","23.4","55.28","0.0","0.0"],
    [1525043,"2026-06-19 03:50:00","71540","3.48","29.8","5.096","29.08","1016.786","23.46","56.35","0.0","0.0"],
    [1525044,"2026-06-19 04:00:00","71541","4.034","26.84","5.4879999999999995","31.53","1016.69","23.44","57.05","0.0","0.0"],
    [1525045,"2026-06-19 04:10:00","71542","3.63","28.3","4.671","29.2","1016.829","23.46","54.29","0.0","0.0"],
    [1525046,"2026-06-19 04:20:00","71543","3.213","14.76","4.051","19.46","1016.912","23.5","53.4","0.0","0.0"],
    [1525047,"2026-06-19 04:30:00","71544","3.287","17.51","4.4430000000000005","17.12","1017.014","23.54","51.72","0.0","0.0"],
    [1525048,"2026-06-19 04:40:00","71545","3.299","11.29","4.4430000000000005","13.34","1017.051","23.57","50.66","0.0","0.0"],
    [1525049,"2026-06-19 04:50:00","71546","3.465","16.77","4.508","14.48","1016.983","23.65","48.96","0.055999999999999994","0.0"],
    [1525050,"2026-06-19 05:00:00","71547","3.702","14.44","4.867","17.75","1017.038","23.74","47.61","53.16","0.0"],
    [1525051,"2026-06-19 05:10:00","71548","3.67","11.79","4.475","14.33","1017.103","23.93","46.85","67.08","0.0"],
    [1525052,"2026-06-19 05:20:00","71549","3.36","7.956","4.247","356.6","1017.058","24.1","46.34","67.08","0.0"],
    [1525053,"2026-06-19 05:30:00","71550","3.958","15.0","5.063","14.48","1017.053","24.19","47.42","110.7","0.0"],
    [1525054,"2026-06-19 05:40:00","71551","4.1530000000000005","13.35","5.194","11.27","1016.959","24.17","48.32","134.1","0.0"],
    [1525055,"2026-06-19 05:50:00","71552","4.072","16.56","4.704","13.75","1016.98","24.22","47.63","159.5","0.0"],
    [1525056,"2026-06-19 06:00:00","71553","3.8289999999999997","19.24","4.573","19.01","1017.02","24.52","43.99","201.2","0.0"],
    [1525057,"2026-06-19 06:10:00","71554","3.708","18.6","4.149","16.35","1017.131","24.7","42.54","215.8","0.0"],
    [1525058,"2026-06-19 06:20:00","71555","3.262","19.48","3.92","16.41","1017.161","24.84","41.61","268.2","0.0"],
    [1525059,"2026-06-19 06:30:00","71556","3.036","19.49","3.5610000000000004","20.74","1017.255","25.11","40.89","281.3","0.0"],
    [1525060,"2026-06-19 06:40:00","71557","3.1830000000000003","27.95","4.149","41.0","1017.278","25.22","42.19","335.2","0.0"],
    [1525061,"2026-06-19 06:50:00","71558","3.1180000000000003","27.13","4.018","27.05","1017.264","25.25","43.55","345.9","0.0"],
    [1525062,"2026-06-19 07:00:00","71559","3.137","35.44","4.345","39.61","1017.408","25.49","42.55","402.0","0.0"],
    [1525063,"2026-06-19 07:10:00","71560","2.772","42.49","3.7569999999999997","40.64","1017.522","25.52","43.22","411.8","0.0"],
    [1525064,"2026-06-19 07:20:00","71561","3.048","37.44","4.247","36.13","1017.654","25.53","42.59","435.8","0.0"],
    [1525065,"2026-06-19 07:30:00","71562","3.0839999999999996","34.83","4.083","22.71","1017.715","25.44","43.18","440.3","0.0"],
    [1525066,"2026-06-19 07:40:00","71563","2.861","32.13","5.227","22.78","1017.857","25.36","44.25","494.4","0.0"],
    [1525067,"2026-06-19 07:50:00","71564","1.358","52.42","3.495","32.66","1017.917","25.2","48.15","502.8","0.0"],
    [1525068,"2026-06-19 08:00:00","71565","1.3090000000000002","45.97","3.855","49.06","1017.974","24.99","53.87","519.2","0.0"],
    [1525069,"2026-06-19 08:10:00","71566","1.8219999999999998","72.68","3.7889999999999997","115.9","1018.087","24.63","60.78","549.7","0.0"],
    [1525070,"2026-06-19 08:20:00","71567","2.6639999999999997","72.8","6.0760000000000005","94.5","1018.112","24.59","62.66","606.3","0.0"],
    [1525071,"2026-06-19 08:30:00","71568","2.5869999999999997","61.27","4.933","47.61","1018.178","24.58","60.13","636.8","0.0"],
    [1525072,"2026-06-19 08:40:00","71569","3.3560000000000003","32.05","6.403","31.17","1018.136","24.64","59.54","639.2","0.0"],
    [1525073,"2026-06-19 08:50:00","71570","4.137","33.18","6.272","36.43","1018.178","24.55","59.1","701.4","0.0"],
    [1525074,"2026-06-19 09:00:00","71571","3.823","33.79","5.7170000000000005","40.15","1018.303","24.55","59.61","703.9","0.0"],
    [1525075,"2026-06-19 09:10:00","71572","4.718999999999999","37.46","5.782","34.73","1018.332","24.41","59.47","739.8","0.0"],
    [1525076,"2026-06-19 09:20:00","71573","4.565","37.65","5.815","35.12","1018.383","24.43","59.48","770.9","0.0"],
    [1525077,"2026-06-19 09:30:00","71574","4.186","36.46","6.0760000000000005","39.61","1018.375","24.46","59.48","770.9","0.0"],
    [1525078,"2026-06-19 09:40:00","71575","4.2139999999999995","37.86","6.1739999999999995","34.24","1018.357","24.43","60.8","772.7","0.0"],
    [1525079,"2026-06-19 09:50:00","71576","4.3580000000000005","39.4","5.749","47.37","1018.41","24.41","61.7","828.0","0.0"],
    [1525080,"2026-06-19 10:00:00","71577","4.43","33.99","6.0760000000000005","46.41","1018.348","24.38","61.13","838.0","0.0"],
    [1525081,"2026-06-19 10:10:00","71578","4.648","30.37","6.207000000000001","31.4","1018.328","24.41","61.28","838.0","0.0"],
    [1525082,"2026-06-19 10:20:00","71579","3.9539999999999997","33.37","5.422999999999999","25.33","1018.482","24.49","61.92","838.0","0.0"],
    [1525083,"2026-06-19 10:30:00","71580","4.6930000000000005","39.37","5.815","39.07","1018.492","24.45","63.09","838.0","0.0"],
    [1525084,"2026-06-19 10:40:00","71581","5.051","36.54","6.403","40.1","1018.51","24.43","63.68","882.0","0.0"],
    [1525085,"2026-06-19 10:50:00","71582","4.902","36.18","8.17","34.25","1018.532","24.58","63.25","796.9","0.0"],
    [1525086,"2026-06-19 11:00:00","71583","4.343","33.99","7.252000000000001","28.45","1018.635","24.73","62.19","905.0","0.0"],
    [1525087,"2026-06-19 11:10:00","71584","4.728","37.65","7.056","41.64","1018.661","24.76","62.73","905.0","0.0"],
    [1525088,"2026-06-19 11:20:00","71585","4.8","41.5","7.187","33.49","1018.677","24.79","62.48","905.0","0.0"],
    [1525089,"2026-06-19 11:30:00","71586","4.395","37.38","7.154","40.32","1018.652","24.77","64.98","905.0","0.0"],
    [1525090,"2026-06-19 11:40:00","71587","4.285","37.0","7.611000000000001","40.93","1018.666","24.77","66.06","905.0","0.0"],
    [1525091,"2026-06-19 11:50:00","71588","4.0760000000000005","31.82","6.501","54.06","1018.661","24.8","66.81","905.0","0.0"],
    [1525092,"2026-06-19 12:00:00","71589","3.51","33.22","6.37","30.93","1018.653","24.87","67.43","905.0","0.0"],
    [1525093,"2026-06-19 12:10:00","71590","3.8360000000000003","33.51","8.23","34.46","1018.62","24.87","67.51","905.0","0.0"],
    [1525094,"2026-06-19 12:20:00","71591","3.9730000000000003","31.79","7.252000000000001","24.22","1018.606","24.89","67.33","932.0","0.0"],
    [1525095,"2026-06-19 12:30:00","71592","4.157","38.34","6.795","39.57","1018.578","24.9","67.13","677.1","0.0"],
    [1525096,"2026-06-19 12:40:00","71593","4.587","37.52","6.435","44.21","1018.554","24.89","66.96","962.0","0.0"],
    [1525097,"2026-06-19 12:50:00","71594","3.668","31.12","6.566","44.15","1018.645","24.94","68.9","905.0","0.0"],
    [1525098,"2026-06-19 13:00:00","71595","4.938","38.31","6.5329999999999995","29.75","1018.52","24.78","70.65","953.0","0.0"],
    [1525099,"2026-06-19 13:10:00","71596","5.078","39.81","6.827000000000001","28.37","1018.481","24.68","71.55","922.0","0.0"],
    [1525100,"2026-06-19 13:20:00","71597","5.784","39.86","7.023","38.71","1018.411","24.53","71.6","899.0","0.0"],
    [1525101,"2026-06-19 13:30:00","71598","5.949","41.09","6.893","37.61","1018.357","24.49","73.18","851.0","0.0"],
    [1525102,"2026-06-19 13:40:00","71599","5.2829999999999995","42.76","6.7620000000000005","44.51","1018.446","24.47","74.95","838.0","0.0"],
    [1525103,"2026-06-19 13:50:00","71600","5.265","43.54","6.697","42.36","1018.482","24.45","75.37","838.0","0.0"],
    [1525104,"2026-06-19 14:00:00","71601","5.933","40.68","7.579","42.74","1018.353","24.37","75.97","837.0","0.0"],
    [1525105,"2026-06-19 14:10:00","71602","5.114","42.76","6.925","44.56","1018.295","24.51","76.22","794.7","0.0"],
    [1525106,"2026-06-19 14:20:00","71603","4.886","36.88","6.37","40.59","1018.315","24.62","74.78","771.0","0.0"],
    [1525107,"2026-06-19 14:30:00","71604","5.234","32.34","7.252000000000001","27.94","1018.186","24.67","74.82","768.5","0.0"],
    [1525108,"2026-06-19 14:40:00","71605","5.6610000000000005","40.12","6.566","47.15","1018.164","24.6","74.61","706.3","0.0"],
    [1525109,"2026-06-19 14:50:00","71606","5.329","29.28","7.317","29.79","1017.995","24.71","75.7","703.9","0.0"],
    [1525110,"2026-06-19 15:00:00","71607","5.972","26.62","7.218999999999999","22.84","1017.816","24.72","73.12","688.9","0.0"],
    [1525111,"2026-06-19 15:10:00","71608","5.609","34.78","7.252000000000001","30.89","1017.819","24.92","70.04","636.9","0.0"],
    [1525112,"2026-06-19 15:20:00","71609","5.551","41.04","7.023","31.85","1017.792","25.03","68.2","636.9","0.0"],
    [1525113,"2026-06-19 15:30:00","71610","5.564","41.32","7.056","38.55","1017.679","25.07","66.85","591.4","0.0"],
    [1525114,"2026-06-19 15:40:00","71611","5.2589999999999995","37.64","6.893","39.5","1017.633","25.21","64.2","569.8","0.0"],
    [1525115,"2026-06-19 15:50:00","71612","5.457999999999999","40.77","6.827000000000001","40.13","1017.646","25.24","62.7","541.9","0.0"],
    [1525116,"2026-06-19 16:00:00","71613","5.768","37.92","6.86","38.19","1017.604","25.23","61.81","502.8","0.0"],
    [1525117,"2026-06-19 16:10:00","71614","5.026","35.96","6.729","41.26","1017.483","25.26","62.15","484.6","0.0"],
    [1525118,"2026-06-19 16:20:00","71615","5.003","40.73","6.305","42.64","1017.393","25.25","62.19","435.7","0.0"],
    [1525119,"2026-06-19 16:30:00","71616","4.792","42.14","5.619","47.41","1017.353","25.17","63.63","427.8","0.0"],
    [1525120,"2026-06-19 16:40:00","71617","4.571000000000001","39.06","6.697","9.78","1017.288","25.16","64.18","402.2","0.0"],
    [1525121,"2026-06-19 16:50:00","71618","4.971","45.06","6.011","50.13","1017.188","25.07","65.39","401.9","0.0"],
    [1525122,"2026-06-19 17:00:00","71619","4.738","44.6","5.815","43.04","1017.058","24.99","67.9","337.7","0.0"],
    [1525123,"2026-06-19 17:10:00","71620","4.7989999999999995","44.4","6.37","44.31","1016.971","24.96","67.86","335.1","0.0"],
    [1525124,"2026-06-19 17:20:00","71621","4.828","43.12","6.239","43.73","1017.022","24.92","68.96","278.8","0.0"],
    [1525125,"2026-06-19 17:30:00","71622","4.488","47.62","5.847","44.89","1017.066","24.84","70.32","268.1","0.0"],
    [1525126,"2026-06-19 17:40:00","71623","4.917","30.34","6.5329999999999995","36.17","1016.993","24.87","71.53","216.6","0.0"],
    [1525127,"2026-06-19 17:50:00","71624","4.798","32.98","6.631","28.68","1017.088","24.76","73.14","201.1","0.0"],
    [1525128,"2026-06-19 18:00:00","71625","4.763","31.85","6.501","33.78","1017.14","24.71","73.9","166.9","0.0"],
    [1525129,"2026-06-19 18:10:00","71626","5.255","34.36","6.795","32.16","1017.212","24.63","75.17","134.1","0.0"],
    [1525130,"2026-06-19 18:20:00","71627","5.082","34.4","6.207000000000001","36.77","1017.255","24.53","76.49","129.8","0.0"],
    [1525131,"2026-06-19 18:30:00","71628","5.414","31.64","6.599","33.92","1017.304","24.47","76.58","75.93","0.0"],
    [1525132,"2026-06-19 18:40:00","71629","5.607","32.58","6.827000000000001","29.36","1017.37","24.45","76.15","67.05","0.0"],
    [1525133,"2026-06-19 18:50:00","71630","5.642","32.58","6.599","36.15","1017.48","24.42","76.07","67.06","0.0"],
    [1525134,"2026-06-19 19:00:00","71631","5.831","33.43","6.957999999999999","27.57","1017.573","24.38","75.75","30.2","0.0"],
    [1525135,"2026-06-19 19:10:00","71632","5.579","33.77","6.827000000000001","43.35","1017.614","24.36","76.15","0.0","0.0"],
    [1525136,"2026-06-19 19:20:00","71633","5.547000000000001","33.68","6.925","31.0","1017.634","24.31","76.57","0.0","0.0"],
    [1525137,"2026-06-19 19:30:00","71634","5.415","34.92","7.382999999999999","35.76","1017.644","24.29","77.07","0.0","0.0"],
    [1525138,"2026-06-19 19:40:00","71635","5.622000000000001","34.3","7.285","33.64","1017.615","24.23","77.8","0.0","0.0"],
    [1525139,"2026-06-19 19:50:00","71636","5.371","34.48","6.957999999999999","38.05","1017.613","24.18","78.66","0.0","0.0"],
    [1525140,"2026-06-19 20:00:00","71637","5.369","33.97","6.631","31.49","1017.712","24.13","79.55","0.0","0.0"],
    [1525141,"2026-06-19 20:10:00","71638","5.539","35.3","6.566","37.74","1017.782","24.11","79.87","0.0","0.0"],
    [1525142,"2026-06-19 20:20:00","71639","5.131","32.72","6.664","42.34","1017.815","24.11","80.1","0.0","0.0"],
    [1525143,"2026-06-19 20:30:00","71640","5.622000000000001","32.74","7.252000000000001","38.14","1017.875","24.11","80.1","0.0","0.0"],
    [1525144,"2026-06-19 20:40:00","71641","5.431","33.04","6.893","30.62","1018.047","24.1","80.2","0.0","0.0"],
    [1525145,"2026-06-19 20:50:00","71642","5.524","35.73","6.566","35.23","1018.257","24.1","80.3","0.0","0.0"],
    [1525146,"2026-06-19 21:00:00","71643","4.8919999999999995","35.55","6.042999999999999","44.04","1018.418","24.08","80.9","0.0","0.0"],
    [1525147,"2026-06-19 21:10:00","71644","4.989","36.53","6.042999999999999","30.68","1018.444","24.03","81.0","0.0","0.0"],
    [1525148,"2026-06-19 21:20:00","71645","4.606","35.93","5.912999999999999","24.07","1018.514","24.03","80.5","0.0","0.0"],
    [1525149,"2026-06-19 21:30:00","71646","4.52","35.49","5.651","28.43","1018.537","24.06","80.3","0.0","0.0"],
    [1525150,"2026-06-19 21:40:00","71647","4.918","39.87","6.37","42.41","1018.516","24.05","80.4","0.0","0.0"],
    [1525151,"2026-06-19 21:50:00","71648","4.832","39.34","6.109","45.77","1018.497","24.05","80.6","0.0","0.0"],
    [1525152,"2026-06-19 22:00:00","71649","5.182","41.68","6.729","43.52","1018.471","24.02","80.3","0.0","0.0"],
    [1525153,"2026-06-19 22:10:00","71650","5.165","40.72","6.468","43.28","1018.394","24.04","80.3","0.0","0.0"],
    [1525154,"2026-06-19 22:20:00","71651","4.609","32.46","6.011","31.91","1018.478","24.05","79.99","0.0","0.0"],
    [1525155,"2026-06-19 22:30:00","71652","4.933","33.58","6.305","29.6","1018.498","24.08","79.29","0.0","0.0"],
    [1525156,"2026-06-19 22:40:00","71653","5.006","32.3","6.664","31.14","1018.529","24.12","78.51","0.0","0.0"],
    [1525157,"2026-06-19 22:50:00","71654","5.294","33.01","6.925","34.23","1018.453","24.13","77.7","0.0","0.0"],
    [1525158,"2026-06-19 23:00:00","71655","5.024","33.43","6.207000000000001","33.42","1018.43","24.14","76.58","0.0","0.0"],
    [1525159,"2026-06-19 23:10:00","71656","5.09","30.52","6.011","31.55","1018.439","24.18","75.11","0.0","0.0"],
    [1525160,"2026-06-19 23:20:00","71657","5.347","31.49","6.305","34.07","1018.385","24.21","73.42","0.0","0.0"],
    [1525161,"2026-06-19 23:30:00","71658","5.2","30.13","6.239","29.84","1018.393","24.25","73.05","0.0","0.0"],
    [1525162,"2026-06-19 23:40:00","71659","5.031000000000001","30.49","6.435","30.81","1018.396","24.27","72.0","0.0","0.0"],
    [1525163,"2026-06-19 23:50:00","71660","5.157","31.69","6.109","31.46","1018.319","24.28","71.95","0.0","0.0"],
    [1525164,"2026-06-20 00:00:00","71661","4.667","22.42","5.847","36.08","1018.524","24.24","72.65","0.0","0.0"],
    [1525165,"2026-06-20 00:10:00","71662","4.312","23.93","5.815","14.96","1018.525","24.21","72.03","0.0","0.0"],
    [1525166,"2026-06-20 00:20:00","71663","5.0089999999999995","25.0","6.337000000000001","25.08","1018.419","24.26","70.99","0.0","0.0"],
    [1525167,"2026-06-20 00:30:00","71664","5.221","31.59","6.141","28.04","1018.309","24.3","70.84","0.0","0.0"],
    [1525168,"2026-06-20 00:40:00","71665","5.2860000000000005","31.28","6.5329999999999995","27.28","1018.253","24.26","72.03","0.0","0.0"],
    [1525169,"2026-06-20 00:50:00","71666","5.4879999999999995","31.36","6.501","33.47","1018.238","24.24","71.8","0.0","0.0"],
    [1525170,"2026-06-20 01:00:00","71667","5.256","32.71","6.337000000000001","31.74","1018.183","24.24","71.84","0.0","0.0"],
    [1525171,"2026-06-20 01:10:00","71668","5.131","31.25","6.011","27.11","1018.186","24.23","72.02","0.0","0.0"],
    [1525172,"2026-06-20 01:20:00","71669","4.916","29.55","5.88","28.43","1018.249","24.24","72.09","0.0","0.0"],
    [1525173,"2026-06-20 01:30:00","71670","4.356","28.72","5.586","33.03","1018.293","24.24","72.16","0.0","0.0"],
    [1525174,"2026-06-20 01:40:00","71671","3.938","23.22","5.096","29.06","1018.252","24.19","71.72","0.0","0.0"],
    [1525175,"2026-06-20 01:50:00","71672","3.498","22.88","4.181","25.49","1018.194","24.11","70.48","0.0","0.0"],
    [1525176,"2026-06-20 02:00:00","71673","3.505","18.93","4.704","16.27","1018.171","24.05","69.78","0.0","0.0"],
    [1525177,"2026-06-20 02:10:00","71674","3.53","10.43","4.541","11.54","1018.169","24.07","67.5","0.0","0.0"],
    [1525178,"2026-06-20 02:20:00","71675","3.7260000000000004","9.41","4.573","19.45","1018.233","24.12","66.6","0.0","0.0"],
    [1525179,"2026-06-20 02:30:00","71676","3.8710000000000004","19.71","4.769","16.58","1018.13","24.08","67.07","0.0","0.0"],
    [1525180,"2026-06-20 02:40:00","71677","3.532","19.53","4.1160000000000005","14.36","1018.15","24.02","66.88","0.0","0.0"],
    [1525181,"2026-06-20 02:50:00","71678","3.766","17.56","4.933","17.6","1018.127","24.04","66.27","0.0","0.0"],
    [1525182,"2026-06-20 03:00:00","71679","3.495","17.19","4.965","20.61","1018.201","24.07","65.97","0.0","0.0"],
    [1525183,"2026-06-20 03:10:00","71680","3.697","21.62","4.638999999999999","17.03","1018.147","24.06","65.55","0.0","0.0"],
    [1525184,"2026-06-20 03:20:00","71681","4.081","22.69","5.357","19.68","1018.06","24.05","65.14","0.0","0.0"],
    [1525185,"2026-06-20 03:30:00","71682","4.042","23.83","5.031000000000001","29.59","1018.098","24.12","64.74","0.0","0.0"],
    [1525186,"2026-06-20 03:40:00","71683","3.612","14.22","4.867","19.37","1018.32","24.07","64.38","0.0","0.0"],
    [1525187,"2026-06-20 03:50:00","71684","3.693","14.63","4.998","11.63","1018.466","24.06","63.99","0.0","0.0"],
    [1525188,"2026-06-20 04:00:00","71685","4.138","19.58","5.1610000000000005","17.78","1018.521","24.04","63.45","0.0","0.0"],
    [1525189,"2026-06-20 04:10:00","71686","3.627","18.22","4.377","21.67","1018.607","24.04","63.31","0.0","0.0"],
    [1525190,"2026-06-20 04:20:00","71687","3.778","17.82","4.508","14.01","1018.656","24.06","63.6","0.0","0.0"],
    [1525191,"2026-06-20 04:30:00","71688","3.424","19.39","3.985","20.1","1018.744","24.07","63.37","0.0","0.0"],
    [1525192,"2026-06-20 04:40:00","71689","3.2710000000000004","15.09","3.92","20.57","1018.861","24.03","63.94","0.0","0.0"],
    [1525193,"2026-06-20 04:50:00","71690","3.012","17.62","3.92","22.49","1019.004","24.04","63.86","21.69","0.0"],
    [1525194,"2026-06-20 05:00:00","71691","3.235","14.68","4.2139999999999995","17.26","1019.145","24.16","62.44","66.91","0.0"],
    [1525195,"2026-06-20 05:10:00","71692","2.9530000000000003","13.16","3.9530000000000003","14.56","1019.261","24.23","63.29","67.08","0.0"],
    [1525196,"2026-06-20 05:20:00","71693","2.748","11.58","3.495","9.25","1019.406","24.33","61.88","67.18","0.0"],
    [1525197,"2026-06-20 05:30:00","71694","3.008","12.41","4.541","13.68","1019.372","24.41","61.17","105.4","0.0"],
    [1525198,"2026-06-20 05:40:00","71695","3.031","15.87","4.802","23.65","1019.423","24.58","60.32","134.1","0.0"],
    [1525199,"2026-06-20 05:50:00","71696","3.305","16.47","3.822","10.38","1019.508","24.52","60.31","134.1","0.0"],
    [1525200,"2026-06-20 06:00:00","71697","3.615","17.96","4.149","21.58","1019.49","24.49","60.54","178.5","0.0"],
    [1525201,"2026-06-20 06:10:00","71698","3.948","18.1","4.541","15.64","1019.505","24.53","59.38","201.2","0.0"],
    [1525202,"2026-06-20 06:20:00","71699","3.883","16.3","4.377","15.83","1019.533","24.62","59.04","254.1","0.0"],
    [1525203,"2026-06-20 06:30:00","71700","3.938","16.85","4.541","15.57","1019.629","24.73","57.79","268.3","0.0"],
    [1525204,"2026-06-20 06:40:00","71701","3.8139999999999996","21.11","4.541","20.98","1019.671","24.79","58.7","328.7","0.0"],
    [1525205,"2026-06-20 06:50:00","71702","4.024","21.94","5.063","22.58","1019.779","24.98","57.77","335.3","0.0"],
    [1525206,"2026-06-20 07:00:00","71703","4.852","28.0","5.88","28.04","1019.923","25.17","56.96","391.7","0.0"],
    [1525207,"2026-06-20 07:10:00","71704","4.687","29.34","5.847","27.05","1019.971","25.22","56.6","402.3","0.0"],
    [1525208,"2026-06-20 07:20:00","71705","4.5969999999999995","28.89","5.455","25.22","1020.012","25.23","56.94","426.4","0.0"],
    [1525209,"2026-06-20 07:30:00","71706","4.235","25.46","5.586","23.89","1020.177","25.24","57.7","435.8","0.0"],
    [1525210,"2026-06-20 07:40:00","71707","4.261","25.96","5.194","26.69","1020.273","25.31","57.98","472.0","0.0"],
    [1525211,"2026-06-20 07:50:00","71708","4.4239999999999995","30.8","5.455","29.15","1020.348","25.35","58.03","502.8","0.0"],
    [1525212,"2026-06-20 08:00:00","71709","3.81","34.47","5.031000000000001","28.53","1020.388","25.34","60.58","525.4","0.0"],
    [1525213,"2026-06-20 08:10:00","71710","3.846","39.04","4.998","34.81","1020.502","25.28","62.48","569.9","0.0"],
    [1525214,"2026-06-20 08:20:00","71711","4.022","45.28","5.2589999999999995","48.7","1020.643","25.33","61.29","577.9","0.0"],
    [1525215,"2026-06-20 08:30:00","71712","4.011","44.66","5.031000000000001","43.69","1020.701","25.41","60.49","636.6","0.0"],
    [1525216,"2026-06-20 08:40:00","71713","3.701","44.15","4.769","43.79","1020.719","25.49","60.04","630.4","0.0"],
    [1525217,"2026-06-20 08:50:00","71714","3.1630000000000003","42.09","4.573","47.19","1020.879","25.45","61.38","663.6","0.0"],
    [1525218,"2026-06-20 09:00:00","71715","3.3169999999999997","40.83","4.965","42.01","1020.935","25.53","60.28","703.9","0.0"],
    [1525219,"2026-06-20 09:10:00","71716","3.7230000000000003","42.19","5.455","47.01","1020.908","25.45","61.82","704.1","0.0"],
    [1525220,"2026-06-20 09:20:00","71717","4.2410000000000005","43.27","5.422999999999999","37.16","1020.8","25.35","61.78","759.5","0.0"],
    [1525221,"2026-06-20 09:30:00","71718","3.801","35.78","5.227","34.1","1020.94","25.27","63.67","770.9","0.0"],
    [1525222,"2026-06-20 09:40:00","71719","3.97","45.4","4.867","56.04","1021.01","25.24","63.56","770.9","0.0"],
    [1525223,"2026-06-20 09:50:00","71720","3.695","39.28","4.671","46.93","1021.115","25.24","64.53","792.3","0.0"],
    [1525224,"2026-06-20 10:00:00","71721","4.261","29.28","5.2589999999999995","26.7","1021.05","25.21","64.95","838.0","0.0"],
    [1525225,"2026-06-20 10:10:00","71722","3.903","35.75","5.129","31.69","1021.138","25.26","64.13","838.0","0.0"],
    [1525226,"2026-06-20 10:20:00","71723","3.554","51.55","4.312","43.71","1021.223","25.4","63.89","838.0","0.0"],
    [1525227,"2026-06-20 10:30:00","71724","3.3989999999999996","44.2","3.985","43.95","1021.271","25.39","63.26","838.0","0.0"],
    [1525228,"2026-06-20 10:40:00","71725","3.682","44.2","4.279","48.3","1021.255","25.53","62.49","840.0","0.0"],
    [1525229,"2026-06-20 10:50:00","71726","3.702","45.65","4.149","45.89","1021.285","25.65","61.96","889.0","0.0"],
    [1525230,"2026-06-20 11:00:00","71727","3.64","56.08","4.41","48.67","1021.322","25.65","62.92","898.0","0.0"],
    [1525231,"2026-06-20 11:10:00","71728","3.795","59.14","5.096","54.1","1021.388","25.61","65.07","904.0","0.0"],
    [1525232,"2026-06-20 11:20:00","71729","3.21","45.82","5.7170000000000005","52.2","1021.389","25.5","68.04","905.0","0.0"],
    [1525233,"2026-06-20 11:30:00","71730","4.004","51.15","5.357","57.58","1021.345","25.41","68.83","905.0","0.0"],
    [1525234,"2026-06-20 11:40:00","71731","4.119","49.84","5.292000000000001","44.61","1021.315","25.48","67.9","905.0","0.0"],
    [1525235,"2026-06-20 11:50:00","71732","4.234","40.8","5.325","46.02","1021.302","25.43","69.21","905.0","0.0"],
    [1525236,"2026-06-20 12:00:00","71733","3.8489999999999998","38.95","5.063","48.6","1021.342","25.6","66.79","905.0","0.0"],
    [1525237,"2026-06-20 12:10:00","71734","3.342","35.39","4.247","39.87","1021.329","25.95","63.99","905.0","0.0"],
    [1525238,"2026-06-20 12:20:00","71735","3.469","38.91","4.508","30.65","1021.22","26.97","50.35","905.0","0.0"],
    [1525239,"2026-06-20 12:30:00","71736","2.969","29.96","3.9530000000000003","32.75","1021.223","26.97","54.25","905.0","0.0"],
    [1525240,"2026-06-20 12:40:00","71737","3.1010000000000004","35.79","4.083","44.31","1021.258","27.32","46.77","905.0","0.0"],
    [1525241,"2026-06-20 12:50:00","71738","3.123","32.51","4.835","29.74","1021.255","27.82","41.71","905.0","0.0"],
    [1525242,"2026-06-20 13:00:00","71739","3.238","39.74","4.541","43.79","1021.246","27.84","42.24","873.0","0.0"],
    [1525243,"2026-06-20 13:10:00","71740","3.2310000000000003","37.91","5.194","37.15","1021.243","27.8","42.87","882.0","0.0"],
    [1525244,"2026-06-20 13:20:00","71741","2.99","37.63","4.345","32.48","1021.169","27.8","43.46","905.0","0.0"],
    [1525245,"2026-06-20 13:30:00","71742","2.654","41.51","4.4430000000000005","47.15","1021.165","27.78","44.75","866.0","0.0"],
    [1525246,"2026-06-20 13:40:00","71743","3.46","38.12","5.619","35.38","1021.129","27.74","44.36","838.0","0.0"],
    [1525247,"2026-06-20 13:50:00","71744","3.135","36.51","5.129","39.81","1021.111","27.53","47.7","838.0","0.0"],
    [1525248,"2026-06-20 14:00:00","71745","2.8360000000000003","41.62","5.422999999999999","45.39","1021.158","27.48","48.35","838.0","0.0"],
    [1525249,"2026-06-20 14:10:00","71746","2.8989999999999996","39.95","5.227","42.59","1021.207","27.35","51.28","807.0","0.0"],
    [1525250,"2026-06-20 14:20:00","71747","2.049","52.37","4.149","17.29","1021.259","27.35","51.04","770.6","0.0"],
    [1525251,"2026-06-20 14:30:00","71748","1.785","62.87","4.377","115.9","1021.317","27.31","50.38","770.6","0.0"],
    [1525252,"2026-06-20 14:40:00","71749","2.354","52.46","5.651","41.9","1021.323","27.12","53.46","770.6","0.0"],
    [1525253,"2026-06-20 14:50:00","71750","3.372","39.69","5.782","39.46","1021.266","26.98","52.85","713.4","0.0"],
    [1525254,"2026-06-20 15:00:00","71751","3.911","35.29","5.325","37.29","1021.25","26.77","55.27","698.0","0.0"],
    [1525255,"2026-06-20 15:10:00","71752","4.132","35.84","5.4879999999999995","39.08","1021.212","26.7","54.81","644.2","0.0"],
    [1525256,"2026-06-20 15:20:00","71753","4.353","38.46","5.2589999999999995","32.74","1021.148","26.49","58.33","636.6","0.0"],
    [1525257,"2026-06-20 15:30:00","71754","4.524","34.22","6.272","46.01","1021.052","26.49","60.58","609.1","0.0"],
    [1525258,"2026-06-20 15:40:00","71755","5.385","27.15","6.5329999999999995","24.54","1021.013","26.56","56.57","569.6","0.0"],
    [1525259,"2026-06-20 15:50:00","71756","5.455","27.57","6.403","25.19","1020.943","26.64","55.32","550.7","0.0"],
    [1525260,"2026-06-20 16:00:00","71757","5.472","29.41","6.468","29.05","1020.857","26.8","53.37","502.6","0.0"],
    [1525261,"2026-06-20 16:10:00","71758","5.7410000000000005","29.43","6.599","33.21","1020.868","26.82","51.87","496.2","0.0"],
    [1525262,"2026-06-20 16:20:00","71759","5.735","29.04","6.631","30.71","1020.808","26.86","52.27","437.0","0.0"],
    [1525263,"2026-06-20 16:30:00","71760","5.59","30.2","6.9910000000000005","25.6","1020.823","26.93","50.78","435.3","0.0"],
    [1525264,"2026-06-20 16:40:00","71761","4.913","25.64","6.37","26.84","1020.693","27.07","50.2","403.0","0.0"],
    [1525265,"2026-06-20 16:50:00","71762","5.227","30.59","6.697","31.85","1020.624","27.08","50.44","402.2","0.0"],
    [1525266,"2026-06-20 17:00:00","71763","4.798","34.56","6.0760000000000005","32.96","1020.611","26.94","53.19","347.3","0.0"],
    [1525267,"2026-06-20 17:10:00","71764","4.813","35.25","6.011","34.47","1020.671","26.93","52.77","335.2","0.0"],
    [1525268,"2026-06-20 17:20:00","71765","4.511","38.62","5.521","33.16","1020.675","26.91","54.27","283.3","0.0"],
    [1525269,"2026-06-20 17:30:00","71766","4.453","35.17","6.109","26.2","1020.79","26.89","53.41","268.1","0.0"],
    [1525270,"2026-06-20 17:40:00","71767","4.553","33.44","5.978","36.96","1020.856","26.98","52.33","209.8","0.0"],
    [1525271,"2026-06-20 17:50:00","71768","4.053","34.01","5.455","23.64","1020.91","27.08","50.36","201.1","0.0"],
    [1525272,"2026-06-20 18:00:00","71769","4.51","33.26","5.847","33.85","1020.976","27.1","50.31","149.5","0.0"],
    [1525273,"2026-06-20 18:10:00","71770","4.056","32.0","5.553","34.78","1021.076","27.11","49.96","134.1","0.0"],
    [1525274,"2026-06-20 18:20:00","71771","4.211","31.54","5.4879999999999995","40.16","1021.049","27.06","50.33","122.5","0.0"],
    [1525275,"2026-06-20 18:30:00","71772","4.4239999999999995","28.9","5.129","27.23","1021.145","27.19","45.66","67.04","0.0"],
    [1525276,"2026-06-20 18:40:00","71773","3.8939999999999997","36.44","5.129","31.96","1021.238","27.35","44.87","67.04","0.0"],
    [1525277,"2026-06-20 18:50:00","71774","4.149","40.65","5.096","40.5","1021.164","27.3","44.94","65.0","0.0"],
    [1525278,"2026-06-20 19:00:00","71775","3.549","34.63","4.541","40.54","1021.281","27.32","45.31","11.45","0.0"],
    [1525279,"2026-06-20 19:10:00","71776","3.4139999999999997","41.03","4.345","42.78","1021.328","27.29","44.61","0.0","0.0"],
    [1525280,"2026-06-20 19:20:00","71777","2.7089999999999996","44.52","4.279","40.82","1021.453","27.14","46.8","0.0","0.0"],
    [1525281,"2026-06-20 19:30:00","71778","2.428","41.29","3.9530000000000003","34.49","1021.517","26.92","48.6","0.0","0.0"],
    [1525282,"2026-06-20 19:40:00","71779","2.275","50.89","3.528","52.97","1021.453","26.78","51.88","0.0","0.0"],
    [1525283,"2026-06-20 19:50:00","71780","2.023","48.42","3.299","34.01","1021.485","26.5","55.8","0.0","0.0"],
    [1525284,"2026-06-20 20:00:00","71781","2.363","42.14","3.528","48.58","1021.639","26.55","53.13","0.0","0.0"],
    [1525285,"2026-06-20 20:10:00","71782","2.815","47.01","4.083","47.5","1021.601","26.49","54.93","0.0","0.0"],
    [1525286,"2026-06-20 20:20:00","71783","3.06","42.45","4.279","40.94","1021.615","26.42","55.55","0.0","0.0"],
    [1525287,"2026-06-20 20:30:00","71784","3.4360000000000004","43.75","4.2139999999999995","44.65","1021.653","26.24","60.05","0.0","0.0"],
    [1525288,"2026-06-20 20:40:00","71785","3.47","49.28","4.149","50.39","1021.61","25.96","64.34","0.0","0.0"],
    [1525289,"2026-06-20 20:50:00","71786","3.178","47.6","4.149","44.73","1021.619","25.76","66.11","0.0","0.0"],
    [1525290,"2026-06-20 21:00:00","71787","2.414","37.6","3.7569999999999997","43.19","1021.789","25.98","63.07","0.0","0.0"],
    [1525291,"2026-06-20 21:10:00","71788","2.121","42.88","2.6460000000000004","44.44","1021.918","25.81","65.35","0.0","0.0"],
    [1525292,"2026-06-20 21:20:00","71789","1.993","35.5","2.7769999999999997","44.69","1022.123","25.84","64.88","0.0","0.0"],
    [1525293,"2026-06-20 21:30:00","71790","1.778","38.88","2.189","38.3","1022.23","25.89","64.26","0.0","0.0"],
    [1525294,"2026-06-20 21:40:00","71791","1.385","34.79","2.352","49.26","1022.331","25.95","62.46","0.0","0.0"],
    [1525295,"2026-06-20 21:50:00","71792","1.4509999999999998","37.32","2.0580000000000003","30.03","1022.325","26.06","59.65","0.0","0.0"],
    [1525296,"2026-06-20 22:00:00","71793","1.3090000000000002","35.45","1.829","37.07","1022.276","26.18","58.34","0.0","0.0"],
    [1525297,"2026-06-20 22:10:00","71794","1.776","49.45","2.319","57.43","1022.322","26.24","58.11","0.0","0.0"],
    [1525298,"2026-06-20 22:20:00","71795","1.962","32.05","2.352","35.55","1022.467","26.11","59.22","0.0","0.0"],
    [1525299,"2026-06-20 22:30:00","71796","2.571","31.48","2.907","28.49","1022.485","26.13","58.64","0.0","0.0"],
    [1525300,"2026-06-20 22:40:00","71797","2.8160000000000003","32.67","3.234","35.21","1022.322","26.15","58.74","0.0","0.0"],
    [1525301,"2026-06-20 22:50:00","71798","2.713","47.32","3.495","43.84","1022.034","25.97","63.41","0.0","0.0"],
    [1525302,"2026-06-20 23:00:00","71799","2.562","19.39","3.365","15.98","1022.185","25.71","65.21","0.0","0.0"],
    [1525303,"2026-06-20 23:10:00","71800","3.3110000000000004","23.71","3.7889999999999997","25.42","1022.117","25.85","60.49","0.0","0.0"],
    [1525304,"2026-06-20 23:20:00","71801","2.986","25.95","3.6260000000000003","32.99","1022.149","26.14","58.4","0.0","0.0"],
    [1525305,"2026-06-20 23:30:00","71802","3.2110000000000003","24.31","3.92","19.38","1022.137","26.19","54.59","0.0","0.0"],
    [1525306,"2026-06-20 23:40:00","71803","3.028","36.29","3.528","35.35","1022.018","26.56","49.76","0.0","0.0"],
    [1525307,"2026-06-20 23:50:00","71804","2.092","16.71","3.397","29.41","1022.216","26.62","48.63","0.0","0.0"],
    [1525308,"2026-06-21 00:00:00","71805","1.4169999999999998","341.4","2.0580000000000003","5.86","1022.402","26.6","47.59","0.0","0.0"],
    [1525309,"2026-06-21 00:10:00","71806","1.6030000000000002","337.0","2.6460000000000004","315.7","1022.309","26.69","46.26","0.0","0.0"],
    [1525310,"2026-06-21 00:20:00","71807","1.805","333.4","3.005","318.2","1022.256","26.84","44.31","0.0","0.0"],
    [1525311,"2026-06-21 00:30:00","71808","1.101","340.2","1.829","327.6","1022.187","27.17","40.84","0.0","0.0"],
    [1525312,"2026-06-21 00:40:00","71809","0.42","28.46","1.111","68.47","1022.167","27.0","42.34","0.0","0.0"],
    [1525313,"2026-06-21 00:50:00","71810","1.025","32.09","1.4369999999999998","9.34","1022.143","26.99","42.13","0.0","0.0"],
    [1525314,"2026-06-21 01:00:00","71811","1.6569999999999998","27.02","2.679","34.01","1022.127","26.93","42.0","0.0","0.0"],
    [1525315,"2026-06-21 01:10:00","71812","2.418","38.39","3.267","43.87","1021.957","27.18","40.0","0.0","0.0"],
    [1525316,"2026-06-21 01:20:00","71813","2.6839999999999997","39.48","3.267","39.13","1021.901","26.82","42.63","0.0","0.0"],
    [1525317,"2026-06-21 01:30:00","71814","1.821","35.3","2.483","28.25","1021.847","26.97","40.14","0.0","0.0"],
    [1525318,"2026-06-21 01:40:00","71815","1.5030000000000001","41.34","1.96","21.11","1021.857","26.89","39.47","0.0","0.0"],
    [1525319,"2026-06-21 01:50:00","71816","0.938","47.38","1.568","34.25","1021.94","26.77","42.18","0.0","0.0"],
    [1525320,"2026-06-21 02:00:00","71817","0.7240000000000001","36.47","1.176","20.87","1022.03","26.49","44.89","0.0","0.0"],
    [1525321,"2026-06-21 02:10:00","71818","0.8540000000000001","36.72","1.405","43.72","1022.057","26.34","44.13","0.0","0.0"],
    [1525322,"2026-06-21 02:20:00","71819","0.11","52.07","0.8170000000000001","55.27","1022.076","26.41","43.89","0.0","0.0"],
    [1525323,"2026-06-21 02:30:00","71820","0.207","55.22","0.9470000000000001","35.74","1022.029","25.98","46.03","0.0","0.0"],
    [1525324,"2026-06-21 02:40:00","71821","0.9329999999999999","20.9","1.4369999999999998","20.19","1021.963","26.1","46.34","0.0","0.0"],
    [1525325,"2026-06-21 02:50:00","71822","1.143","4.051","1.633","12.4","1021.893","25.81","45.94","0.0","0.0"],
    [1525326,"2026-06-21 03:00:00","71823","2.164","29.81","3.332","19.01","1021.901","26.29","42.31","0.0","0.0"],
    [1525327,"2026-06-21 03:10:00","71824","2.5269999999999997","11.48","4.051","9.83","1021.903","26.78","38.56","0.0","0.0"],
    [1525328,"2026-06-21 03:20:00","71825","2.094","12.49","3.267","16.3","1022.036","26.52","41.03","0.0","0.0"],
    [1525329,"2026-06-21 03:30:00","71826","1.5730000000000002","1.805","2.679","6.605","1022.199","26.27","42.59","0.0","0.0"],
    [1525330,"2026-06-21 03:40:00","71827","0.278","313.0","1.143","275.9","1022.392","26.1","41.33","0.0","0.0"],
    [1525331,"2026-06-21 03:50:00","71828","0.8270000000000001","5.223","1.339","346.0","1022.356","26.01","45.14","0.0","0.0"],
    [1525332,"2026-06-21 04:00:00","71829","1.091","291.5","1.829","267.9","1022.347","25.32","46.17","0.0","0.0"],
    [1525333,"2026-06-21 04:10:00","71830","1.038","293.8","1.568","291.5","1022.521","25.4","43.25","0.0","0.0"],
    [1525334,"2026-06-21 04:20:00","71831","1.126","296.7","1.7309999999999999","297.1","1022.618","25.43","42.32","0.0","0.0"],
    [1525335,"2026-06-21 04:30:00","71832","0.7609999999999999","359.8","2.0909999999999997","32.21","1022.673","25.72","40.82","0.0","0.0"],
    [1525336,"2026-06-21 04:40:00","71833","1.5490000000000002","26.32","2.417","24.59","1022.69","25.72","43.35","0.0","0.0"],
    [1525337,"2026-06-21 04:50:00","71834","2.335","15.36","2.9730000000000003","18.49","1022.807","25.7","46.77","13.83","0.0"],
    [1525338,"2026-06-21 05:00:00","71835","1.36","355.6","2.483","14.3","1022.891","25.57","49.15","63.86","0.0"],
    [1525339,"2026-06-21 05:10:00","71836","0.266","320.9","0.8490000000000001","349.9","1022.999","25.67","44.83","67.07","0.0"],
    [1525340,"2026-06-21 05:20:00","71837","1.125","279.3","1.764","274.4","1023.116","25.79","41.98","69.97","0.0"],
    [1525341,"2026-06-21 05:30:00","71838","1.516","267.8","2.0580000000000003","265.3","1023.164","25.62","42.69","112.8","0.0"],
    [1525342,"2026-06-21 05:40:00","71839","1.139","259.1","1.666","254.5","1023.202","25.66","41.57","124.9","0.0"],
    [1525343,"2026-06-21 05:50:00","71840","0.299","329.9","0.882","300.8","1023.143","26.02","43.21","145.6","0.0"],
    [1525344,"2026-06-21 06:00:00","71841","0.331","0.419","0.7190000000000001","2.72","1023.143","25.99","43.16","200.8","0.0"],
    [1525345,"2026-06-21 06:10:00","71842","0.182","351.4","0.6859999999999999","349.5","1023.209","26.1","42.06","201.2","0.0"],
    [1525346,"2026-06-21 06:20:00","71843","0.915","12.4","1.895","21.11","1023.195","26.75","39.9","252.5","0.0"],
    [1525347,"2026-06-21 06:30:00","71844","1.662","21.75","2.221","24.86","1023.2","26.62","42.92","268.2","0.0"],
    [1525348,"2026-06-21 06:40:00","71845","2.657","30.41","3.397","32.56","1023.236","27.16","38.87","303.7","0.0"],
    [1525349,"2026-06-21 06:50:00","71846","1.706","21.56","2.417","32.25","1023.432","27.41","38.71","335.2","0.0"],
    [1525350,"2026-06-21 07:00:00","71847","1.9509999999999998","18.78","2.254","19.34","1023.53","27.52","37.83","335.2","0.0"],
    [1525351,"2026-06-21 07:10:00","71848","2.383","32.16","2.94","41.07","1023.49","27.53","39.57","353.2","0.0"],
    [1525352,"2026-06-21 07:20:00","71849","2.489","27.95","3.1689999999999996","19.14","1023.505","27.66","38.62","402.5","0.0"],
    [1525353,"2026-06-21 07:30:00","71850","2.525","25.47","3.201","31.88","1023.577","27.72","38.32","416.1","0.0"],
    [1525354,"2026-06-21 07:40:00","71851","1.942","26.8","2.417","26.67","1023.633","27.86","37.88","449.9","0.0"],
    [1525355,"2026-06-21 07:50:00","71852","2.0069999999999997","32.46","2.5810000000000004","34.3","1023.604","27.91","38.78","502.7","0.0"],
    [1525356,"2026-06-21 08:00:00","71853","2.218","47.19","3.005","42.56","1023.568","27.88","38.84","527.9","0.0"],
    [1525357,"2026-06-21 08:10:00","71854","2.793","44.2","3.6260000000000003","40.86","1023.512","27.9","38.33","569.6","0.0"],
    [1525358,"2026-06-21 08:20:00","71855","3.468","46.08","4.149","45.41","1023.468","27.86","38.76","576.6","0.0"],
    [1525359,"2026-06-21 08:30:00","71856","3.062","54.42","3.9530000000000003","55.44","1023.52","27.93","38.51","634.0","0.0"],
    [1525360,"2026-06-21 08:40:00","71857","3.4330000000000003","57.12","4.312","53.38","1023.487","27.91","39.14","636.6","0.0"],
    [1525361,"2026-06-21 08:50:00","71858","3.2260000000000004","53.53","4.312","51.8","1023.421","27.87","39.6","671.9","0.0"],
    [1525362,"2026-06-21 09:00:00","71859","3.0439999999999996","52.99","3.855","61.89","1023.367","27.91","39.26","703.6","0.0"],
    [1525363,"2026-06-21 09:10:00","71860","3.239","54.59","4.508","45.17","1023.318","28.01","38.6","710.1","0.0"],
    [1525364,"2026-06-21 09:20:00","71861","3.6889999999999996","58.95","4.671","55.02","1023.253","27.92","38.77","761.1","0.0"],
    [1525365,"2026-06-21 09:30:00","71862","2.559","61.47","4.312","61.19","1023.301","27.89","39.31","770.6","0.0"],
    [1525366,"2026-06-21 09:40:00","71863","2.086","87.4","3.495","96.2","1023.409","27.85","41.35","770.8","0.0"],
    [1525367,"2026-06-21 09:50:00","71864","2.8789999999999996","98.0","3.7889999999999997","100.6","1023.364","27.24","47.64","816.0","0.0"],
    [1525368,"2026-06-21 10:00:00","71865","2.984","85.5","3.855","86.6","1023.321","27.3","45.35","838.0","0.0"],
    [1525369,"2026-06-21 10:10:00","71866","2.718","84.4","3.855","79.69","1023.241","27.32","46.36","838.0","0.0"],
    [1525370,"2026-06-21 10:20:00","71867","2.807","88.9","3.822","88.5","1023.296","27.23","47.64","838.0","0.0"],
    [1525371,"2026-06-21 10:30:00","71868","2.82","87.6","3.6260000000000003","89.3","1023.305","27.29","45.99","839.0","0.0"],
    [1525372,"2026-06-21 10:40:00","71869","2.384","82.7","3.495","94.6","1023.306","27.4","45.63","871.0","0.0"],
    [1525373,"2026-06-21 10:50:00","71870","2.727","84.3","4.051","102.3","1023.311","27.47","44.18","896.0","0.0"],
    [1525374,"2026-06-21 11:00:00","71871","2.8930000000000002","100.1","3.92","93.2","1023.386","27.32","47.12","905.0","0.0"],
    [1525375,"2026-06-21 11:10:00","71872","2.995","111.1","3.887","106.8","1023.387","27.33","48.43","905.0","0.0"],
    [1525376,"2026-06-21 11:20:00","71873","3.293","113.4","4.638999999999999","117.8","1023.367","27.02","54.13","902.0","0.0"],
    [1525377,"2026-06-21 11:30:00","71874","3.929","115.9","5.194","119.5","1023.331","26.86","54.79","905.0","0.0"],
    [1525378,"2026-06-21 11:40:00","71875","3.678","115.3","4.867","123.4","1023.359","26.76","56.11","905.0","0.0"],
    [1525379,"2026-06-21 11:50:00","71876","3.3760000000000003","112.7","4.541","112.2","1023.363","26.66","57.99","905.0","0.0"],
    [1525380,"2026-06-21 12:00:00","71877","3.448","106.3","4.508","118.7","1023.392","26.59","58.12","905.0","0.0"],
    [1525381,"2026-06-21 12:10:00","71878","3.613","108.2","4.802","101.7","1023.412","26.53","59.99","901.0","0.0"],
    [1525382,"2026-06-21 12:20:00","71879","3.43","103.0","4.41","100.6","1023.462","26.5","60.83","893.0","0.0"],
    [1525383,"2026-06-21 12:30:00","71880","3.492","100.3","4.737","117.7","1023.484","26.47","60.7","905.0","0.0"],
    [1525384,"2026-06-21 12:40:00","71881","3.633","100.4","4.965","96.9","1023.441","26.47","61.21","905.0","0.0"],
    [1525385,"2026-06-21 12:50:00","71882","3.4410000000000003","89.1","5.194","96.1","1023.483","26.38","63.19","905.0","0.0"],
    [1525386,"2026-06-21 13:00:00","71883","3.799","84.3","5.292000000000001","86.8","1023.505","26.24","65.53","905.0","0.0"],
    [1525387,"2026-06-21 13:10:00","71884","4.081","86.9","5.292000000000001","90.5","1023.554","26.14","67.43","896.0","0.0"],
    [1525388,"2026-06-21 13:20:00","71885","3.236","85.5","5.194","101.7","1023.542","26.11","68.37","839.0","0.0"],
    [1525389,"2026-06-21 13:30:00","71886","2.734","81.4","4.998","92.8","1023.547","26.18","69.02","838.0","0.0"],
    [1525390,"2026-06-21 13:40:00","71887","2.708","80.8","5.2589999999999995","74.21","1023.532","26.19","70.59","838.0","0.0"],
    [1525391,"2026-06-21 13:50:00","71888","2.7039999999999997","84.0","4.345","76.98","1023.516","26.1","71.9","838.0","0.0"],
    [1525392,"2026-06-21 14:00:00","71889","3.178","83.1","4.737","70.77","1023.402","26.07","72.35","825.0","0.0"],
    [1525393,"2026-06-21 14:10:00","71890","2.915","85.8","4.508","87.1","1023.422","26.02","72.86","758.6","0.0"],
    [1525394,"2026-06-21 14:20:00","71891","2.2030000000000003","65.61","4.083","96.2","1023.408","26.05","72.91","770.7","0.0"],
    [1525395,"2026-06-21 14:30:00","71892","2.327","58.14","4.508","42.64","1023.372","26.12","72.66","752.3","0.0"],
    [1525396,"2026-06-21 14:40:00","71893","3.147","44.53","4.867","45.83","1023.332","26.11","72.7","703.6","0.0"],
    [1525397,"2026-06-21 14:50:00","71894","3.471","42.96","4.606","50.29","1023.282","26.0","74.44","703.6","0.0"],
    [1525398,"2026-06-21 15:00:00","71895","3.228","44.48","4.737","38.31","1023.28","26.06","74.05","677.6","0.0"],
    [1525399,"2026-06-21 15:10:00","71896","2.886","50.02","4.541","38.69","1023.231","26.12","74.77","636.6","0.0"],
    [1525400,"2026-06-21 15:20:00","71897","2.655","55.58","5.031000000000001","56.59","1023.167","26.17","74.91","635.2","0.0"],
    [1525401,"2026-06-21 15:30:00","71898","2.4819999999999998","54.71","4.345","58.32","1023.126","26.14","76.2","574.4","0.0"],
    [1525402,"2026-06-21 15:40:00","71899","2.6239999999999997","42.34","4.704","37.74","1023.009","26.09","75.99","569.6","0.0"],
    [1525403,"2026-06-21 15:50:00","71900","1.6880000000000002","67.98","3.822","41.46","1022.929","26.2","74.83","539.4","0.0"],
    [1525404,"2026-06-21 16:00:00","71901","2.372","44.61","3.7889999999999997","42.19","1022.896","26.22","74.18","502.6","0.0"],
    [1525405,"2026-06-21 16:10:00","71902","2.9160000000000004","42.34","3.822","57.36","1022.811","26.07","74.81","502.6","0.0"],
    [1525406,"2026-06-21 16:20:00","71903","2.7039999999999997","40.45","3.7569999999999997","51.78","1022.741","26.06","74.33","501.0","0.0"],
    [1525407,"2026-06-21 16:30:00","71904","2.4290000000000003","41.52","3.332","59.85","1022.672","26.15","71.22","410.9","0.0"],
    [1525408,"2026-06-21 16:40:00","71905","3.0460000000000003","39.4","3.855","37.09","1022.65","26.23","67.86","301.9","0.0"],
    [1525409,"2026-06-21 16:50:00","71906","3.052","45.53","3.6260000000000003","34.57","1022.672","26.23","70.64","268.0","0.0"],
    [1525410,"2026-06-21 17:00:00","71907","2.4090000000000003","46.57","3.201","47.01","1022.707","26.22","70.65","222.8","0.0"],
    [1525411,"2026-06-21 17:10:00","71908","2.4459999999999997","49.64","3.201","44.8","1022.647","26.19","72.88","201.1","0.0"],
    [1525412,"2026-06-21 17:20:00","71909","2.785","54.26","3.43","51.98","1022.685","26.08","70.31","201.1","0.0"],
    [1525413,"2026-06-21 17:30:00","71910","2.478","65.13","3.103","59.97","1022.792","26.3","67.81","201.1","0.0"],
    [1525414,"2026-06-21 17:40:00","71911","2.5540000000000003","55.72","3.5610000000000004","58.27","1022.838","26.38","66.28","198.4","0.0"],
    [1525415,"2026-06-21 17:50:00","71912","2.3369999999999997","50.41","3.136","61.93","1022.925","26.46","63.81","139.4","0.0"],
    [1525416,"2026-06-21 18:00:00","71913","2.269","65.14","2.907","60.88","1022.879","26.6","61.16","134.1","0.0"],
    [1525417,"2026-06-21 18:10:00","71914","2.376","57.79","3.234","48.62","1022.871","26.72","60.11","105.3","0.0"],
    [1525418,"2026-06-21 18:20:00","71915","2.4130000000000003","48.85","3.397","52.95","1022.895","26.58","63.16","67.04","0.0"],
    [1525419,"2026-06-21 18:30:00","71916","2.533","48.33","3.201","43.76","1022.987","26.58","63.33","67.04","0.0"],
    [1525420,"2026-06-21 18:40:00","71917","2.506","52.47","3.1689999999999996","46.13","1023.069","26.62","62.17","67.05","0.0"],
    [1525421,"2026-06-21 18:50:00","71918","2.499","30.22","3.528","48.15","1023.189","26.61","60.9","62.69","0.0"],
    [1525422,"2026-06-21 19:00:00","71919","2.986","41.64","3.822","41.5","1023.246","26.66","59.86","1.983","0.0"],
    [1525423,"2026-06-21 19:10:00","71920","3.0010000000000003","43.61","3.7239999999999998","44.45","1023.21","26.7","59.45","0.0","0.0"],
    [1525424,"2026-06-21 19:20:00","71921","2.46","41.98","2.907","46.13","1023.218","26.74","57.44","0.0","0.0"],
    [1525425,"2026-06-21 19:30:00","71922","2.255","24.61","2.7769999999999997","17.86","1023.305","26.84","56.37","0.0","0.0"],
    [1525426,"2026-06-21 19:40:00","71923","1.329","52.49","1.96","33.2","1023.28","27.08","50.93","0.0","0.0"],
    [1525427,"2026-06-21 19:50:00","71924","1.425","49.55","1.764","44.68","1023.203","27.38","47.56","0.0","0.0"],
    [1525428,"2026-06-21 20:00:00","71925","0.905","50.35","1.633","40.96","1023.282","27.33","47.38","0.0","0.0"],
    [1525429,"2026-06-21 20:10:00","71926","0.9309999999999999","118.7","1.7309999999999999","160.1","1023.15","27.22","49.69","0.0","0.0"],
    [1525430,"2026-06-21 20:20:00","71927","0.951","159.6","1.699","165.5","1023.15","26.88","54.73","0.0","0.0"],
    [1525431,"2026-06-21 20:30:00","71928","0.226","171.4","0.555","192.2","1023.214","26.62","56.53","0.0","0.0"],
    [1525432,"2026-06-21 20:40:00","71929","0.5429999999999999","185.2","1.143","187.2","1023.108","26.72","55.12","0.0","0.0"],
    [1525433,"2026-06-21 20:50:00","71930","2.005","189.1","3.822","187.6","1023.019","26.65","54.74","0.0","0.0"],
    [1525434,"2026-06-21 21:00:00","71931","1.855","197.5","3.5610000000000004","175.4","1022.995","26.82","54.4","0.0","0.0"],
    [1525435,"2026-06-21 21:10:00","71932","2.035","184.9","2.8089999999999997","187.1","1023.035","26.86","51.22","0.0","0.0"],
    [1525436,"2026-06-21 21:20:00","71933","2.325","183.7","3.201","186.2","1022.966","26.83","55.34","0.0","0.0"],
    [1525437,"2026-06-21 21:30:00","71934","2.3169999999999997","197.8","3.234","182.4","1022.887","26.2","69.84","0.0","0.0"],
    [1525438,"2026-06-21 21:40:00","71935","2.823","201.1","3.593","187.9","1022.862","25.81","70.81","0.0","0.0"],
    [1525439,"2026-06-21 21:50:00","71936","1.4280000000000002","200.6","3.136","199.1","1022.858","26.14","60.47","0.0","0.0"],
    [1525440,"2026-06-21 22:00:00","71937","0.612","216.0","1.601","191.0","1022.962","26.5","54.27","0.0","0.0"],
    [1525441,"2026-06-21 22:10:00","71938","0.001","351.3","0.163","351.3","1022.853","26.52","53.59","0.0","0.0"],
    [1525442,"2026-06-21 22:20:00","71939","0.0","0.0","0.0","0.0","1022.621","26.63","51.54","0.0","0.0"],
    [1525443,"2026-06-21 22:30:00","71940","0.285","232.2","1.209","221.8","1022.663","26.62","54.8","0.0","0.0"],
    [1525444,"2026-06-21 22:40:00","71941","0.0","0.0","0.0","0.0","1022.662","26.28","57.91","0.0","0.0"],
    [1525445,"2026-06-21 22:50:00","71942","0.265","227.9","1.013","226.1","1022.622","26.18","56.5","0.0","0.0"],
    [1525446,"2026-06-21 23:00:00","71943","0.499","305.6","1.176","252.5","1022.636","26.41","53.1","0.0","0.0"],
    [1525447,"2026-06-21 23:10:00","71944","0.129","284.1","0.621","294.5","1022.614","26.45","48.34","0.0","0.0"],
    [1525448,"2026-06-21 23:20:00","71945","0.496","206.2","0.8170000000000001","207.2","1022.508","26.57","49.08","0.0","0.0"],
    [1525449,"2026-06-21 23:30:00","71946","0.462","240.9","1.143","247.5","1022.387","26.27","55.16","0.0","0.0"],
    [1525450,"2026-06-21 23:40:00","71947","0.625","249.8","1.339","257.3","1022.31","26.47","48.54","0.0","0.0"],
    [1525451,"2026-06-21 23:50:00","71948","0.606","246.6","1.209","269.8","1022.222","26.73","45.91","0.0","0.0"],
    [1525452,"2026-06-22 00:00:00","71949","0.687","250.3","1.209","246.6","1022.163","26.97","42.35","0.0","0.0"],
    [1525453,"2026-06-22 00:10:00","71950","0.305","239.9","0.882","257.7","1022.069","26.9","41.95","0.0","0.0"],
    [1525454,"2026-06-22 00:20:00","71951","0.387","278.7","0.7509999999999999","271.7","1022.097","26.81","42.58","0.0","0.0"],
    [1525455,"2026-06-22 00:30:00","71952","0.006999999999999999","82.3","0.261","83.7","1022.074","26.42","45.65","0.0","0.0"],
    [1525456,"2026-06-22 00:40:00","71953","0.20800000000000002","286.5","0.9470000000000001","275.8","1022.078","26.16","49.19","0.0","0.0"],
    [1525457,"2026-06-22 00:50:00","71954","0.547","243.5","0.882","246.9","1022.026","25.95","48.28","0.0","0.0"],
    [1525458,"2026-06-22 01:00:00","71955","1.207","208.3","1.601","204.2","1021.888","25.97","49.71","0.0","0.0"],
    [1525459,"2026-06-22 01:10:00","71956","0.9640000000000001","219.4","1.666","226.6","1021.871","25.98","49.52","0.0","0.0"],
    [1525460,"2026-06-22 01:20:00","71957","0.32899999999999996","222.8","1.5030000000000001","221.0","1021.823","25.98","48.69","0.0","0.0"],
    [1525461,"2026-06-22 01:30:00","71958","0.327","230.7","1.2409999999999999","229.8","1021.812","25.72","48.2","0.0","0.0"],
    [1525462,"2026-06-22 01:40:00","71959","0.885","245.3","1.8619999999999999","283.8","1021.735","25.68","47.75","0.0","0.0"],
    [1525463,"2026-06-22 01:50:00","71960","1.517","261.5","2.483","250.7","1021.662","25.45","46.95","0.0","0.0"],
    [1525464,"2026-06-22 02:00:00","71961","1.5219999999999998","254.7","2.548","252.0","1021.526","25.23","47.75","0.0","0.0"],
    [1525465,"2026-06-22 02:10:00","71962","1.734","265.9","2.842","263.6","1021.406","24.81","48.97","0.0","0.0"],
    [1525466,"2026-06-22 02:20:00","71963","1.84","264.7","2.842","264.1","1021.385","24.53","49.31","0.0","0.0"],
    [1525467,"2026-06-22 02:30:00","71964","1.807","266.2","2.613","267.1","1021.368","24.7","48.7","0.0","0.0"],
    [1525468,"2026-06-22 02:40:00","71965","0.902","282.3","1.829","255.6","1021.331","24.69","49.39","0.0","0.0"],
    [1525469,"2026-06-22 02:50:00","71966","0.578","309.3","1.5030000000000001","299.0","1021.172","24.98","53.75","0.0","0.0"],
    [1525470,"2026-06-22 03:00:00","71967","0.049","306.8","0.588","21.0","1021.075","25.02","61.31","0.0","0.0"],
    [1525471,"2026-06-22 03:10:00","71968","0.0","0.0","0.0","0.0","1021.077","24.98","62.17","0.0","0.0"],
    [1525472,"2026-06-22 03:20:00","71969","0.0","0.0","0.0","0.0","1021.074","25.0","60.25","0.0","0.0"],
    [1525473,"2026-06-22 03:30:00","71970","0.349","162.7","1.274","177.7","1021.028","24.86","63.13","0.0","0.0"],
    [1525474,"2026-06-22 03:40:00","71971","1.2209999999999999","189.2","1.535","194.7","1021.073","24.72","61.43","0.0","0.0"],
    [1525475,"2026-06-22 03:50:00","71972","0.581","241.1","1.078","200.3","1021.051","24.8","57.7","0.0","0.0"],
    [1525476,"2026-06-22 04:00:00","71973","1.2309999999999999","262.3","2.025","264.8","1020.961","24.7","54.38","0.0","0.0"],
    [1525477,"2026-06-22 04:10:00","71974","1.9040000000000001","271.3","2.6460000000000004","271.2","1020.967","24.37","51.95","0.0","0.0"],
    [1525478,"2026-06-22 04:20:00","71975","1.974","270.3","2.515","274.5","1020.986","23.99","52.85","0.0","0.0"],
    [1525479,"2026-06-22 04:30:00","71976","1.859","268.5","2.6460000000000004","258.6","1020.924","23.81","52.54","0.0","0.0"],
    [1525480,"2026-06-22 04:40:00","71977","1.535","273.0","2.875","255.6","1020.899","23.66","53.09","0.0","0.0"],
    [1525481,"2026-06-22 04:50:00","71978","1.55","256.6","3.1689999999999996","276.8","1020.816","23.89","51.92","0.027999999999999997","0.0"],
    [1525482,"2026-06-22 05:00:00","71979","2.081","258.9","3.7569999999999997","256.8","1020.774","24.11","50.87","29.54","0.0"],
    [1525483,"2026-06-22 05:10:00","71980","2.026","256.9","3.201","261.8","1020.739","24.06","50.92","67.08","0.0"],
    [1525484,"2026-06-22 05:20:00","71981","1.926","257.0","3.299","254.5","1020.738","24.33","48.99","67.08","0.0"],
    [1525485,"2026-06-22 05:30:00","71982","1.859","260.6","2.7769999999999997","262.7","1020.748","24.4","48.66","73.5","0.0"],
    [1525486,"2026-06-22 05:40:00","71983","1.922","261.4","3.0380000000000003","270.5","1020.69","24.42","48.59","133.3","0.0"],
    [1525487,"2026-06-22 05:50:00","71984","1.9480000000000002","260.8","3.136","254.8","1020.634","24.6","47.98","134.1","0.0"],
    [1525488,"2026-06-22 06:00:00","71985","1.83","257.6","2.94","254.6","1020.635","24.85","46.76","168.3","0.0"],
    [1525489,"2026-06-22 06:10:00","71986","1.4869999999999999","255.5","2.352","253.5","1020.669","25.21","45.66","201.2","0.0"],
    [1525490,"2026-06-22 06:20:00","71987","1.556","267.6","2.417","258.4","1020.688","25.48","44.98","206.7","0.0"],
    [1525491,"2026-06-22 06:30:00","71988","0.599","284.2","1.274","295.1","1020.665","25.92","44.42","264.6","0.0"],
    [1525492,"2026-06-22 06:40:00","71989","0.0","0.0","0.0","0.0","1020.734","26.52","43.79","268.2","0.0"],
    [1525493,"2026-06-22 06:50:00","71990","0.816","14.4","1.274","34.95","1020.843","26.65","42.32","321.2","0.0"],
    [1525494,"2026-06-22 07:00:00","71991","1.5919999999999999","27.44","2.7110000000000003","26.01","1020.964","26.31","47.47","335.2","0.0"],
    [1525495,"2026-06-22 07:10:00","71992","0.873","47.63","1.209","30.46","1020.963","26.05","50.6","376.8","0.0"],
    [1525496,"2026-06-22 07:20:00","71993","1.058","38.71","1.601","34.78","1021","25.99","52.01","402.2","0.0"],
    [1525497,"2026-06-22 07:30:00","71994","0.301","48.69","0.8490000000000001","43.69","1020.908","26.15","53.03","416.0","0.0"],
    [1525498,"2026-06-22 07:40:00","71995","0.0","0.0","0.0","0.0","1020.82","26.87","48.83","435.6","0.0"],
    [1525499,"2026-06-22 07:50:00","71996","0.073","138.5","1.045","128.8","1020.768","26.98","50.5","448.8","0.0"],
    [1525500,"2026-06-22 08:00:00","71997","1.021","135.3","1.633","145.5","1020.624","26.57","60.28","502.6","0.0"],
    [1525501,"2026-06-22 08:10:00","71998","1.544","155.6","1.895","161.2","1020.598","26.26","60.56","502.7","0.0"],
    [1525502,"2026-06-22 08:20:00","71999","1.983","161.8","2.907","166.7","1020.517","26.56","62.51","565.9","0.0"],
    [1525503,"2026-06-22 08:30:00","72000","1.61","166.6","2.7769999999999997","167.3","1020.485","26.73","62.72","569.6","0.0"],
    [1525504,"2026-06-22 08:40:00","72001","2.3209999999999997","175.5","3.659","192.8","1020.388","27.17","59.04","604.9","0.0"],
    [1525505,"2026-06-22 08:50:00","72002","2.557","181.0","3.495","184.9","1020.328","27.89","54.04","636.6","0.0"],
    [1525506,"2026-06-22 09:00:00","72003","3.2739999999999996","172.7","4.279","179.1","1020.331","27.37","57.36","660.7","0.0"],
    [1525507,"2026-06-22 09:10:00","72004","3.055","166.3","4.475","164.2","1020.393","27.12","57.65","703.6","0.0"],
    [1525508,"2026-06-22 09:20:00","72005","3.944","27.44","5.521","40.61","1020.439","26.91","61.76","703.6","0.0"],
    [1525509,"2026-06-22 09:30:00","72006","3.653","34.43","5.292000000000001","22.16","1020.533","26.44","64.94","727.5","0.0"],
    [1525510,"2026-06-22 09:40:00","72007","3.8110000000000004","31.74","4.835","28.83","1020.557","26.28","67.3","770.6","0.0"],
    [1525511,"2026-06-22 09:50:00","72008","4.1339999999999995","34.46","5.194","33.91","1020.565","26.15","69.29","770.6","0.0"],
    [1525512,"2026-06-22 10:00:00","72009","1.992","59.95","3.9530000000000003","34.08","1020.558","26.7","64.7","770.7","0.0"],
    [1525513,"2026-06-22 10:10:00","72010","3.513","144.9","4.769","156.5","1020.578","26.68","64.66","825.0","0.0"],
    [1525514,"2026-06-22 10:20:00","72011","4.114","141.7","4.998","143.5","1020.59","26.59","64.6","838.0","0.0"],
    [1525515,"2026-06-22 10:30:00","72012","4.837","144.9","5.651","143.8","1020.602","26.85","60.39","838.0","0.0"],
    [1525516,"2026-06-22 10:40:00","72013","4.383","139.8","5.782","150.6","1020.698","26.98","58.68","838.0","0.0"],
    [1525517,"2026-06-22 10:50:00","72014","3.8930000000000002","128.3","5.1610000000000005","128.5","1020.732","26.59","65.7","838.0","0.0"],
    [1525518,"2026-06-22 11:00:00","72015","5.055","140.1","7.872999999999999","199.3","1020.602","26.62","64.31","838.0","0.0"],
    [1525519,"2026-06-22 11:10:00","72016","5.4910000000000005","191.0","7.742000000000001","189.9","1020.529","29.28","44.02","852.0","0.0"],
    [1525520,"2026-06-22 11:20:00","72017","6.31","189.8","8.98","190.6","1020.372","29.32","44.97","882.0","0.0"],
    [1525521,"2026-06-22 11:30:00","72018","5.452000000000001","197.6","8.36","191.5","1020.363","29.72","42.55","887.0","0.0"],
    [1525522,"2026-06-22 11:40:00","72019","5.2860000000000005","212.1","8.95","210.2","1020.261","30.56","37.47","902.0","0.0"],
    [1525523,"2026-06-22 11:50:00","72020","5.632000000000001","214.1","9.38","225.6","1020.172","31.13","32.66","905.0","0.0"],
    [1525524,"2026-06-22 12:00:00","72021","5.075","211.4","9.05","203.7","1020.118","31.31","32.58","905.0","0.0"],
    [1525525,"2026-06-22 12:10:00","72022","5.587999999999999","201.6","8.56","189.4","1020.061","31.08","33.67","905.0","0.0"],
    [1525526,"2026-06-22 12:20:00","72023","5.53","194.7","9.31","209.9","1020.052","29.79","43.27","905.0","0.0"],
    [1525527,"2026-06-22 12:30:00","72024","5.103","193.0","7.742000000000001","198.8","1020.05","29.16","47.76","905.0","0.0"],
    [1525528,"2026-06-22 12:40:00","72025","5.226","193.7","7.546","196.8","1019.958","28.81","51.58","905.0","0.0"],
    [1525529,"2026-06-22 12:50:00","72026","5.321000000000001","197.1","7.971","199.1","1019.883","29.16","48.65","904.0","0.0"],
    [1525530,"2026-06-22 13:00:00","72027","4.89","204.4","8.0","190.4","1019.876","30.04","41.38","879.0","0.0"],
    [1525531,"2026-06-22 13:10:00","72028","5.49","202.2","9.18","201.0","1019.822","30.47","37.1","855.0","0.0"],
    [1525532,"2026-06-22 13:20:00","72029","5.485","196.1","9.24","200.7","1019.788","29.83","43.65","838.0","0.0"],
    [1525533,"2026-06-22 13:30:00","72030","5.2410000000000005","192.6","8.79","206.0","1019.77","29.16","46.07","838.0","0.0"],
    [1525534,"2026-06-22 13:40:00","72031","5.977","190.7","8.43","184.9","1019.839","29.65","42.29","838.0","0.0"],
    [1525535,"2026-06-22 13:50:00","72032","5.754","187.8","8.75","188.7","1019.924","29.53","43.41","830.0","0.0"],
    [1525536,"2026-06-22 14:00:00","72033","4.965","193.8","7.154","190.4","1019.922","29.82","43.74","779.6","0.0"],
    [1525537,"2026-06-22 14:10:00","72034","5.75","180.6","7.317","169.7","1019.791","27.9","57.5","770.6","0.0"],
    [1525538,"2026-06-22 14:20:00","72035","6.172999999999999","174.3","7.4479999999999995","170.6","1019.668","27.57","59.61","770.6","0.0"],
    [1525539,"2026-06-22 14:30:00","72036","6.688","172.0","7.938","169.6","1019.573","26.76","64.78","769.0","0.0"],
    [1525540,"2026-06-22 14:40:00","72037","6.151","174.5","7.0889999999999995","174.6","1019.47","26.75","65.95","705.1","0.0"],
    [1525541,"2026-06-22 14:50:00","72038","6.067","167.2","7.0889999999999995","160.0","1019.487","26.63","66.11","698.8","0.0"],
    [1525542,"2026-06-22 15:00:00","72039","6.428","164.4","7.481","161.4","1019.33","26.51","68.22","606.0","0.0"],
    [1525543,"2026-06-22 15:10:00","72040","6.337999999999999","167.9","7.056","162.3","1019.36","26.39","67.97","609.1","0.0"],
    [1525544,"2026-06-22 15:20:00","72041","6.252999999999999","166.0","7.187","163.2","1019.391","26.53","66.7","528.8","0.0"],
    [1525545,"2026-06-22 15:30:00","72042","5.507999999999999","171.2","6.435","168.1","1019.346","26.53","67.9","344.8","0.0"],
    [1525546,"2026-06-22 15:40:00","72043","5.377000000000001","172.4","6.337000000000001","172.9","1019.322","26.41","68.44","389.7","0.0"],
    [1525547,"2026-06-22 15:50:00","72044","5.332999999999999","172.4","6.207000000000001","169.4","1019.42","26.48","65.01","293.1","0.0"],
    [1525548,"2026-06-22 16:00:00","72045","5.001","174.3","5.847","169.6","1019.359","26.49","67.85","268.1","0.0"],
    [1525549,"2026-06-22 16:10:00","72046","4.934","173.3","5.749","172.7","1019.393","26.32","69.26","268.1","0.0"],
    [1525550,"2026-06-22 16:20:00","72047","5.14","176.4","6.501","172.5","1019.321","26.34","68.59","241.7","0.0"],
    [1525551,"2026-06-22 16:30:00","72048","5.25","175.4","6.337000000000001","171.5","1019.187","26.46","67.77","201.1","0.0"],
    [1525552,"2026-06-22 16:40:00","72049","5.477","174.7","6.501","174.3","1019.126","26.3","67.51","286.9","0.0"],
    [1525553,"2026-06-22 16:50:00","72050","4.897","179.4","6.272","185.0","1019.037","26.77","63.11","334.0","0.0"],
    [1525554,"2026-06-22 17:00:00","72051","5.0680000000000005","173.6","6.011","171.1","1018.984","26.36","69.01","331.6","0.0"],
    [1525555,"2026-06-22 17:10:00","72052","4.992","176.4","6.011","171.3","1019.008","26.57","66.02","273.2","0.0"],
    [1525556,"2026-06-22 17:20:00","72053","4.574","179.6","5.749","172.8","1019.143","26.38","68.41","261.1","0.0"],
    [1525557,"2026-06-22 17:30:00","72054","4.77","173.6","5.912999999999999","167.6","1019.159","26.41","70.98","268.1","0.0"],
    [1525558,"2026-06-22 17:40:00","72055","4.974","170.8","5.651","174.2","1019.136","26.03","73.7","268.0","0.0"],
    [1525559,"2026-06-22 17:50:00","72056","2.345","183.6","4.508","167.8","1019.255","26.21","74.35","216.4","0.0"],
    [1525560,"2026-06-22 18:00:00","72057","2.722","172.5","4.508","165.3","1019.212","26.19","74.89","201.1","0.0"],
    [1525561,"2026-06-22 18:10:00","72058","3.3480000000000003","168.3","4.312","156.9","1019.312","26.07","73.92","147.1","0.0"],
    [1525562,"2026-06-22 18:20:00","72059","3.0469999999999997","168.9","4.279","163.5","1019.457","26.22","72.32","70.28","0.0"],
    [1525563,"2026-06-22 18:30:00","72060","2.9730000000000003","189.9","4.018","175.3","1019.354","26.45","70.88","67.04","0.0"],
    [1525564,"2026-06-22 18:40:00","72061","3.077","184.3","4.051","203.7","1019.238","26.35","72.26","67.04","0.0"],
    [1525565,"2026-06-22 18:50:00","72062","2.521","186.2","3.397","186.1","1019.233","26.37","70.86","67.04","0.0"],
    [1525566,"2026-06-22 19:00:00","72063","2.438","177.6","3.397","183.2","1019.191","26.33","70.71","20.06","0.0"],
    [1525567,"2026-06-22 19:10:00","72064","2.215","181.6","3.593","174.9","1019.172","26.53","68.52","0.0","0.0"],
    [1525568,"2026-06-22 19:20:00","72065","1.445","224.9","2.94","244.1","1019.176","26.56","67.42","0.0","0.0"],
    [1525569,"2026-06-22 19:30:00","72066","2.0669999999999997","242.9","4.279","253.2","1019.165","27.15","62.96","0.0","0.0"],
    [1525570,"2026-06-22 19:40:00","72067","2.22","223.5","3.397","202.7","1019.117","27.12","63.55","0.0","0.0"],
    [1525571,"2026-06-22 19:50:00","72068","2.819","209.7","4.41","205.0","1019.068","27.02","64.67","0.0","0.0"],
    [1525572,"2026-06-22 20:00:00","72069","2.78","208.4","4.573","217.5","1019.078","26.95","64.43","0.0","0.0"],
    [1525573,"2026-06-22 20:10:00","72070","2.7430000000000003","199.6","4.9","199.1","1019.157","26.98","64.03","0.0","0.0"],
    [1525574,"2026-06-22 20:20:00","72071","1.864","204.2","3.528","197.7","1019.31","26.91","65.55","0.0","0.0"],
    [1525575,"2026-06-22 20:30:00","72072","1.0590000000000002","203.9","1.993","205.3","1019.472","26.82","67.42","0.0","0.0"],
    [1525576,"2026-06-22 20:40:00","72073","1.124","167.4","2.352","180.8","1019.527","26.62","69.63","0.0","0.0"],
    [1525577,"2026-06-22 20:50:00","72074","2.195","182.2","2.842","171.7","1019.622","26.23","76.19","0.0","0.0"],
    [1525578,"2026-06-22 21:00:00","72075","2.373","193.3","3.136","194.6","1019.615","25.91","78.95","0.0","0.0"],
    [1525579,"2026-06-22 21:10:00","72076","1.723","197.2","2.5810000000000004","194.6","1019.565","25.97","74.84","0.0","0.0"],
    [1525580,"2026-06-22 21:20:00","72077","1.771","215.4","3.201","197.5","1019.541","26.3","72.13","0.0","0.0"],
    [1525581,"2026-06-22 21:30:00","72078","2.6239999999999997","260.8","4.279","264.3","1019.483","26.41","71.34","0.0","0.0"],
    [1525582,"2026-06-22 21:40:00","72079","2.4619999999999997","259.6","3.92","266.6","1019.319","26.34","71.75","0.0","0.0"],
    [1525583,"2026-06-22 21:50:00","72080","2.9019999999999997","256.4","4.933","251.1","1019.233","26.28","72.52","0.0","0.0"],
    [1525584,"2026-06-22 22:00:00","72081","2.842","258.4","4.867","259.1","1019.21","26.26","72.81","0.0","0.0"],
    [1525585,"2026-06-22 22:10:00","72082","2.485","258.9","4.638999999999999","263.6","1019.222","26.23","73.02","0.0","0.0"],
    [1525586,"2026-06-22 22:20:00","72083","1.976","250.0","3.7239999999999998","254.6","1019.216","26.13","73.6","0.0","0.0"],
    [1525587,"2026-06-22 22:30:00","72084","1.636","252.1","3.136","263.8","1019.162","26.09","73.14","0.0","0.0"],
    [1525588,"2026-06-22 22:40:00","72085","1.666","252.2","3.7889999999999997","256.2","1019.209","26.06","73.4","0.0","0.0"],
    [1525589,"2026-06-22 22:50:00","72086","2.23","244.4","3.659","257.9","1019.035","26.05","73.8","0.0","0.0"],
    [1525590,"2026-06-22 23:00:00","72087","2.256","247.3","4.149","254.8","1018.948","26.02","74.32","0.0","0.0"],
    [1525591,"2026-06-22 23:10:00","72088","2.189","246.1","3.6260000000000003","255.8","1018.818","25.92","75.84","0.0","0.0"],
    [1525592,"2026-06-22 23:20:00","72089","1.655","251.5","3.5610000000000004","250.0","1018.701","25.8","76.57","0.0","0.0"],
    [1525593,"2026-06-22 23:30:00","72090","1.115","257.3","2.352","263.7","1018.648","25.76","76.38","0.0","0.0"],
    [1525594,"2026-06-22 23:40:00","72091","1.3869999999999998","253.6","2.515","269.6","1018.566","25.75","75.41","0.0","0.0"],
    [1525595,"2026-06-22 23:50:00","72092","1.3719999999999999","253.3","2.679","257.0","1018.546","25.78","75.17","0.0","0.0"],
    [1525596,"2026-06-23 00:00:00","72093","1.034","255.9","2.319","217.0","1018.544","25.81","74.97","0.0","0.0"],
    [1525597,"2026-06-23 00:10:00","72094","0.972","256.5","2.352","253.0","1018.428","25.68","76.75","0.0","0.0"],
    [1525598,"2026-06-23 00:20:00","72095","1.607","249.7","3.267","270.4","1018.383","25.73","75.58","0.0","0.0"],
    [1525599,"2026-06-23 00:30:00","72096","2.052","242.2","3.397","229.0","1018.314","25.8","75.49","0.0","0.0"],
    [1525600,"2026-06-23 00:40:00","72097","1.8330000000000002","245.4","3.332","264.4","1018.187","25.68","76.09","0.0","0.0"],
    [1525601,"2026-06-23 00:50:00","72098","0.831","253.6","2.156","265.9","1018.21","25.52","77.25","0.0","0.0"],
    [1525602,"2026-06-23 01:00:00","72099","0.986","238.1","1.9269999999999998","231.3","1018.234","25.2","73.96","0.0","0.0"],
    [1525603,"2026-06-23 01:10:00","72100","0.79","262.3","1.7309999999999999","268.8","1018.1","25.13","69.34","0.0","0.0"],
    [1525604,"2026-06-23 01:20:00","72101","1.341","250.4","3.136","259.6","1017.925","24.94","64.97","0.0","0.0"],
    [1525605,"2026-06-23 01:30:00","72102","1.597","262.6","3.005","259.1","1018.016","24.63","63.52","0.0","0.0"],
    [1525606,"2026-06-23 01:40:00","72103","1.945","249.2","3.071","257.8","1017.942","24.63","62.09","0.0","0.0"],
    [1525607,"2026-06-23 01:50:00","72104","1.274","260.5","2.679","257.9","1017.981","24.66","61.29","0.0","0.0"],
    [1525608,"2026-06-23 02:00:00","72105","0.8190000000000001","249.0","1.797","258.3","1017.983","24.59","61.13","0.0","0.0"],
    [1525609,"2026-06-23 02:10:00","72106","1.093","259.1","2.0909999999999997","265.5","1017.994","24.54","60.26","0.0","0.0"],
    [1525610,"2026-06-23 02:20:00","72107","1.385","253.6","2.352","264.9","1017.925","24.52","59.54","0.0","0.0"],
    [1525611,"2026-06-23 02:30:00","72108","1.158","268.2","1.9269999999999998","266.0","1017.909","24.62","58.65","0.0","0.0"],
    [1525612,"2026-06-23 02:40:00","72109","0.39799999999999996","262.4","1.4369999999999998","261.2","1017.928","24.51","58.11","0.0","0.0"],
    [1525613,"2026-06-23 02:50:00","72110","0.504","249.0","1.535","256.3","1017.894","24.56","57.89","0.0","0.0"],
    [1525614,"2026-06-23 03:00:00","72111","0.861","255.4","1.3719999999999999","270.8","1017.884","24.79","55.96","0.0","0.0"],
    [1525615,"2026-06-23 03:10:00","72112","0.9359999999999999","256.0","1.339","259.5","1017.892","25.02","53.59","0.0","0.0"],
    [1525616,"2026-06-23 03:20:00","72113","0.5529999999999999","227.7","1.307","246.3","1017.83","24.95","53.78","0.0","0.0"],
    [1525617,"2026-06-23 03:30:00","72114","0.0","0.0","0.0","0.0","1017.913","24.73","55.46","0.0","0.0"],
    [1525618,"2026-06-23 03:40:00","72115","0.0","0.0","0.0","0.0","1017.861","24.65","54.71","0.0","0.0"],
    [1525619,"2026-06-23 03:50:00","72116","0.073","29.7","0.915","44.19","1017.754","24.69","55.64","0.0","0.0"],
    [1525620,"2026-06-23 04:00:00","72117","0.365","50.73","0.882","55.58","1017.749","24.84","59.17","0.0","0.0"],
    [1525621,"2026-06-23 04:10:00","72118","0.0","0.0","0.0","0.0","1017.752","24.62","61.86","0.0","0.0"],
    [1525622,"2026-06-23 04:20:00","72119","0.0","0.0","0.0","0.0","1017.741","24.47","62.99","0.0","0.0"],
    [1525623,"2026-06-23 04:30:00","72120","0.0","0.0","0.0","0.0","1017.877","24.43","62.66","0.0","0.0"],
    [1525624,"2026-06-23 04:40:00","72121","0.11","124.2","1.045","127.9","1017.972","24.5","65.03","0.0","0.0"],
    [1525625,"2026-06-23 04:50:00","72122","0.8420000000000001","123.3","1.111","130.5","1018.011","24.42","66.01","45.25","0.0"],
    [1525626,"2026-06-23 05:00:00","72123","0.9590000000000001","105.5","1.307","66.71","1017.967","24.37","69.0","67.08","0.0"],
    [1525627,"2026-06-23 05:10:00","72124","0.9","39.85","1.568","45.47","1017.958","24.46","70.0","67.07","0.0"],
    [1525628,"2026-06-23 05:20:00","72125","0.938","12.3","1.339","15.32","1017.962","24.7","69.06","86.6","0.0"],
    [1525629,"2026-06-23 05:30:00","72126","0.9390000000000001","347.3","1.2409999999999999","12.47","1017.908","24.64","66.48","116.6","0.0"],
    [1525630,"2026-06-23 05:40:00","72127","0.812","318.0","1.339","329.0","1017.826","24.87","62.18","134.1","0.0"],
    [1525631,"2026-06-23 05:50:00","72128","0.309","325.0","1.078","6.7989999999999995","1017.878","25.66","57.09","153.5","0.0"],
    [1525632,"2026-06-23 06:00:00","72129","0.442","327.2","1.339","356.6","1017.915","25.93","54.72","201.2","0.0"],
    [1525633,"2026-06-23 06:10:00","72130","0.486","333.2","1.209","329.0","1017.901","26.12","53.3","204.4","0.0"],
    [1525634,"2026-06-23 06:20:00","72131","0.42700000000000005","141.5","1.405","145.4","1017.986","26.67","53.29","265.8","0.0"],
    [1525635,"2026-06-23 06:30:00","72132","0.9840000000000001","86.6","1.895","54.19","1018.035","25.92","57.77","268.7","0.0"],
    [1525636,"2026-06-23 06:40:00","72133","2.773","47.96","3.7889999999999997","48.71","1018.044","26.05","53.56","332.1","0.0"],
    [1525637,"2026-06-23 06:50:00","72134","3.205","44.53","4.083","45.4","1017.962","26.05","55.28","338.8","0.0"],
    [1525638,"2026-06-23 07:00:00","72135","3.301","45.5","4.475","57.96","1017.957","26.08","56.49","401.7","0.0"],
    [1525639,"2026-06-23 07:10:00","72136","3.699","48.35","4.737","47.86","1017.991","25.91","60.54","402.8","0.0"],
    [1525640,"2026-06-23 07:20:00","72137","3.5180000000000002","42.51","4.606","45.86","1018.041","25.67","63.11","435.2","0.0"],
    [1525641,"2026-06-23 07:30:00","72138","3.793","41.17","4.704","42.67","1018.143","25.67","67.87","436.1","0.0"],
    [1525642,"2026-06-23 07:40:00","72139","3.165","33.75","4.181","23.29","1018.213","25.35","74.38","500.3","0.0"],
    [1525643,"2026-06-23 07:50:00","72140","3.2710000000000004","28.51","4.4430000000000005","29.57","1018.229","25.15","78.27","504.1","0.0"],
    [1525644,"2026-06-23 08:00:00","72141","3.435","39.75","4.345","51.69","1018.215","25.1","81.8","567.6","0.0"],
    [1525645,"2026-06-23 08:10:00","72142","3.4730000000000003","47.84","4.247","53.26","1018.256","25.0","86.1","569.8","0.0"],
    [1525646,"2026-06-23 08:20:00","72143","3.4819999999999998","46.16","4.312","48.39","1018.296","24.87","87.9","610.0","0.0"],
    [1525647,"2026-06-23 08:30:00","72144","3.52","46.53","4.737","48.95","1018.25","24.82","88.5","636.8","0.0"],
    [1525648,"2026-06-23 08:40:00","72145","3.444","47.32","4.638999999999999","43.26","1018.258","24.89","89.3","631.5","0.0"],
    [1525649,"2026-06-23 08:50:00","72146","3.4389999999999996","43.58","4.606","41.44","1018.209","24.85","90.0","689.7","0.0"],
    [1525650,"2026-06-23 09:00:00","72147","3.645","48.8","4.541","54.1","1018.169","24.81","90.6","703.9","0.0"],
    [1525651,"2026-06-23 09:10:00","72148","3.7460000000000004","49.4","4.704","47.4","1018.105","24.83","90.6","729.9","0.0"],
    [1525652,"2026-06-23 09:20:00","72149","3.984","52.89","5.096","53.26","1018.045","24.89","90.3","770.9","0.0"],
    [1525653,"2026-06-23 09:30:00","72150","3.9","52.3","4.802","47.72","1018.045","24.96","90.0","770.9","0.0"],
    [1525654,"2026-06-23 09:40:00","72151","3.875","47.38","4.638999999999999","47.88","1018.099","24.96","90.3","784.2","0.0"],
    [1525655,"2026-06-23 09:50:00","72152","3.516","46.36","4.377","37.93","1018.214","24.95","90.1","832.0","0.0"],
    [1525656,"2026-06-23 10:00:00","72153","2.983","45.68","3.9530000000000003","44.42","1018.22","25.05","89.4","838.0","0.0"],
    [1525657,"2026-06-23 10:10:00","72154","2.673","42.32","4.181","51.1","1018.192","25.12","88.5","838.0","0.0"],
    [1525658,"2026-06-23 10:20:00","72155","2.718","42.05","3.659","27.17","1018.229","25.13","87.6","838.0","0.0"],
    [1525659,"2026-06-23 10:30:00","72156","2.577","50.26","4.279","41.73","1018.238","25.24","86.5","864.0","0.0"],
    [1525660,"2026-06-23 10:40:00","72157","3.4010000000000002","48.76","4.541","51.49","1018.167","25.28","86.1","902.0","0.0"],
    [1525661,"2026-06-23 10:50:00","72158","3.657","47.69","4.802","41.62","1018.182","25.28","84.8","905.0","0.0"],
    [1525662,"2026-06-23 11:00:00","72159","3.15","45.64","4.606","61.23","1018.183","25.38","83.4","905.0","0.0"],
    [1525663,"2026-06-23 11:10:00","72160","2.708","45.36","4.345","37.11","1018.162","25.55","82.4","905.0","0.0"],
    [1525664,"2026-06-23 11:20:00","72161","2.282","54.25","4.41","53.22","1018.105","25.54","81.8","905.0","0.0"],
    [1525665,"2026-06-23 11:30:00","72162","2.1109999999999998","48.14","3.7889999999999997","51.91","1018.069","25.63","81.5","905.0","0.0"],
    [1525666,"2026-06-23 11:40:00","72163","2.1180000000000003","62.64","4.1160000000000005","65.76","1018.087","25.69","80.9","905.0","0.0"],
    [1525667,"2026-06-23 11:50:00","72164","2.2640000000000002","85.9","3.201","78.61","1018.051","25.65","80.0","905.0","0.0"],
    [1525668,"2026-06-23 12:00:00","72165","2.4459999999999997","83.0","3.92","79.09","1017.994","25.63","80.9","905.0","0.0"],
    [1525669,"2026-06-23 12:10:00","72166","2.708","85.1","3.528","74.12","1017.867","25.56","81.6","905.0","0.0"],
    [1525670,"2026-06-23 12:20:00","72167","2.6710000000000003","85.6","3.855","95.6","1017.895","25.65","81.8","905.0","0.0"],
    [1525671,"2026-06-23 12:30:00","72168","2.247","85.1","4.083","99.3","1017.829","25.68","81.0","905.0","0.0"],
    [1525672,"2026-06-23 12:40:00","72169","2.028","86.8","3.267","83.4","1017.764","25.85","74.66","905.0","0.0"],
    [1525673,"2026-06-23 12:50:00","72170","2.0469999999999997","59.9","4.149","31.33","1017.737","26.3","65.37","905.0","0.0"],
    [1525674,"2026-06-23 13:00:00","72171","2.753","45.74","3.855","41.33","1017.698","26.32","66.5","905.0","0.0"],
    [1525675,"2026-06-23 13:10:00","72172","2.206","49.67","3.92","52.75","1017.548","26.3","68.14","905.0","0.0"],
    [1525676,"2026-06-23 13:20:00","72173","2.623","84.0","4.2139999999999995","89.3","1017.456","26.23","69.01","905.0","0.0"],
    [1525677,"2026-06-23 13:30:00","72174","2.6010000000000004","79.33","3.6910000000000003","69.94","1017.338","26.1","70.24","888.0","0.0"],
    [1525678,"2026-06-23 13:40:00","72175","2.707","89.4","3.985","100.8","1017.242","26.14","72.83","838.0","0.0"],
    [1525679,"2026-06-23 13:50:00","72176","2.89","85.8","3.9530000000000003","84.5","1017.209","25.92","75.82","838.0","0.0"],
    [1525680,"2026-06-23 14:00:00","72177","2.9419999999999997","88.9","4.018","94.9","1017.159","25.89","76.56","838.0","0.0"],
    [1525681,"2026-06-23 14:10:00","72178","2.642","82.3","3.7889999999999997","78.83","1017.06","25.86","76.7","819.0","0.0"],
    [1525682,"2026-06-23 14:20:00","72179","2.0340000000000003","79.68","3.071","77.02","1016.968","25.95","76.71","770.6","0.0"],
    [1525683,"2026-06-23 14:30:00","72180","2.175","88.7","3.822","95.8","1016.968","26.0","76.86","770.6","0.0"],
    [1525684,"2026-06-23 14:40:00","72181","1.5519999999999998","70.83","2.7110000000000003","81.6","1017.004","25.99","77.39","757.4","0.0"],
    [1525685,"2026-06-23 14:50:00","72182","2.003","83.6","2.8089999999999997","92.9","1016.946","25.98","77.98","704.0","0.0"],
    [1525686,"2026-06-23 15:00:00","72183","2.39","89.8","3.5610000000000004","75.08","1016.863","25.94","79.3","703.6","0.0"],
    [1525687,"2026-06-23 15:10:00","72184","2.26","87.1","3.92","91.3","1016.786","25.89","79.26","672.1","0.0"],
    [1525688,"2026-06-23 15:20:00","72185","2.8689999999999998","96.4","3.887","92.2","1016.62","25.89","79.84","636.6","0.0"],
    [1525689,"2026-06-23 15:30:00","72186","2.6430000000000002","85.8","4.051","99.3","1016.52","25.73","81.4","633.0","0.0"],
    [1525690,"2026-06-23 15:40:00","72187","2.5140000000000002","93.7","3.822","89.8","1016.505","25.74","81.1","573.6","0.0"],
    [1525691,"2026-06-23 15:50:00","72188","2.864","97.1","3.6260000000000003","109.3","1016.441","25.65","83.1","569.6","0.0"],
    [1525692,"2026-06-23 16:00:00","72189","3.03","92.1","3.7239999999999998","84.5","1016.379","25.54","83.9","527.7","0.0"],
    [1525693,"2026-06-23 16:10:00","72190","2.54","97.1","3.9530000000000003","95.7","1016.351","25.51","83.2","502.6","0.0"],
    [1525694,"2026-06-23 16:20:00","72191","1.742","98.3","2.8089999999999997","87.4","1016.303","25.57","82.1","456.1","0.0"],
    [1525695,"2026-06-23 16:30:00","72192","2.056","83.5","2.7769999999999997","72.47","1016.295","25.53","81.5","435.6","0.0"],
    [1525696,"2026-06-23 16:40:00","72193","2.144","84.1","2.94","93.2","1016.237","25.56","80.3","405.3","0.0"],
    [1525697,"2026-06-23 16:50:00","72194","2.449","80.4","3.397","67.89","1016.169","25.61","81.3","402.1","0.0"],
    [1525698,"2026-06-23 17:00:00","72195","2.65","72.85","3.7569999999999997","74.62","1016.214","25.57","81.8","360.5","0.0"],
    [1525699,"2026-06-23 17:10:00","72196","2.477","78.94","3.43","75.5","1016.169","25.52","82.7","335.1","0.0"],
    [1525700,"2026-06-23 17:20:00","72197","2.363","73.58","3.234","84.1","1016.138","25.46","82.9","290.8","0.0"],
    [1525701,"2026-06-23 17:30:00","72198","2.125","69.17","3.234","84.1","1016.085","25.4","83.6","268.0","0.0"],
    [1525702,"2026-06-23 17:40:00","72199","2.5980000000000003","74.05","3.332","79.61","1016.166","25.4","84.1","225.3","0.0"],
    [1525703,"2026-06-23 17:50:00","72200","1.966","77.42","3.103","82.3","1016.184","25.35","84.2","201.0","0.0"],
    [1525704,"2026-06-23 18:00:00","72201","1.89","91.1","2.417","70.13","1016.144","25.32","83.7","173.7","0.0"],
    [1525705,"2026-06-23 18:10:00","72202","1.7280000000000002","84.9","2.515","84.7","1016.208","25.37","83.4","134.0","0.0"],
    [1525706,"2026-06-23 18:20:00","72203","1.876","84.3","2.515","74.65","1016.368","25.42","83.7","131.3","0.0"],
    [1525707,"2026-06-23 18:30:00","72204","2.1","87.6","2.679","93.6","1016.362","25.4","83.9","83.7","0.0"],
    [1525708,"2026-06-23 18:40:00","72205","2.095","86.8","2.548","86.1","1016.289","25.39","84.5","67.04","0.0"],
    [1525709,"2026-06-23 18:50:00","72206","1.6280000000000001","102.1","2.156","85.2","1016.282","25.32","85.5","66.67","0.0"],
    [1525710,"2026-06-23 19:00:00","72207","1.649","104.4","2.352","107.1","1016.338","25.24","85.7","16.95","0.0"],
    [1525711,"2026-06-23 19:10:00","72208","1.639","99.2","2.483","111.8","1016.288","25.21","85.9","0.0","0.0"],
    [1525712,"2026-06-23 19:20:00","72209","1.294","87.3","1.96","84.3","1016.278","25.17","85.8","0.0","0.0"],
    [1525713,"2026-06-23 19:30:00","72210","0.99","95.0","1.568","114.0","1016.239","25.18","86.0","0.0","0.0"],
    [1525714,"2026-06-23 19:40:00","72211","1.6569999999999998","89.8","2.221","94.0","1016.158","25.16","86.4","0.0","0.0"],
    [1525715,"2026-06-23 19:50:00","72212","1.268","80.6","1.895","76.96","1016.254","25.13","86.6","0.0","0.0"],
    [1525716,"2026-06-23 20:00:00","72213","1.038","76.97","1.797","77.25","1016.385","25.12","86.6","0.0","0.0"],
    [1525717,"2026-06-23 20:10:00","72214","1.556","73.09","2.189","69.4","1016.466","25.12","87.0","0.0","0.0"],
    [1525718,"2026-06-23 20:20:00","72215","1.3119999999999998","55.61","2.0909999999999997","52.19","1016.432","25.08","87.1","0.0","0.0"],
    [1525719,"2026-06-23 20:30:00","72216","1.455","68.11","2.0909999999999997","60.15","1016.422","25.08","87.2","0.0","0.0"],
    [1525720,"2026-06-23 20:40:00","72217","1.3880000000000001","41.18","1.96","47.9","1016.448","25.03","87.2","0.0","0.0"],
    [1525721,"2026-06-23 20:50:00","72218","1.015","43.95","1.633","41.05","1016.384","25.01","87.4","0.0","0.0"],
    [1525722,"2026-06-23 21:00:00","72219","0.7759999999999999","71.45","1.535","54.63","1016.266","24.99","87.4","0.0","0.0"],
    [1525723,"2026-06-23 21:10:00","72220","0.8690000000000001","86.3","1.699","98.1","1016.261","25.02","87.6","0.0","0.0"],
    [1525724,"2026-06-23 21:20:00","72221","1.5290000000000001","103.5","1.8619999999999999","109.0","1016.179","25.0","87.7","0.0","0.0"],
    [1525725,"2026-06-23 21:30:00","72222","1.5419999999999998","126.9","1.895","127.1","1016.172","24.98","88.0","0.0","0.0"],
    [1525726,"2026-06-23 21:40:00","72223","1.261","130.6","1.666","117.7","1016.249","24.94","88.3","0.0","0.0"],
    [1525727,"2026-06-23 21:50:00","72224","0.667","152.5","1.176","166.2","1016.237","24.95","88.4","0.0","0.0"],
    [1525728,"2026-06-23 22:00:00","72225","0.7020000000000001","171.4","1.535","171.2","1016.214","24.92","88.4","0.0","0.0"],
    [1525729,"2026-06-23 22:10:00","72226","0.7170000000000001","166.8","0.882","157.3","1016.231","24.91","88.5","0.0","0.0"],
    [1525730,"2026-06-23 22:20:00","72227","0.695","180.1","0.915","174.9","1016.24","24.86","88.7","0.0","0.0"],
    [1525731,"2026-06-23 22:30:00","72228","0.5920000000000001","171.1","0.7509999999999999","186.8","1016.289","24.83","88.8","0.0","0.0"],
    [1525732,"2026-06-23 22:40:00","72229","0.9359999999999999","172.2","1.176","172.4","1016.273","24.77","88.6","0.0","0.0"],
    [1525733,"2026-06-23 22:50:00","72230","1.19","179.1","1.633","173.6","1016.333","24.81","88.6","0.0","0.0"],
    [1525734,"2026-06-23 23:00:00","72231","1.689","176.0","2.025","170.1","1016.351","24.78","88.7","0.0","0.0"],
    [1525735,"2026-06-23 23:10:00","72232","1.401","178.9","1.764","172.1","1016.481","24.77","88.6","0.0","0.0"],
    [1525736,"2026-06-23 23:20:00","72233","1.375","187.9","1.797","193.3","1016.514","24.8","88.8","0.0","0.0"],
    [1525737,"2026-06-23 23:30:00","72234","1.801","192.1","2.287","194.8","1016.534","24.84","89.4","0.0","0.0"],
    [1525738,"2026-06-23 23:40:00","72235","2.202","174.4","2.679","175.0","1016.534","24.82","89.9","0.0","0.0"],
    [1525739,"2026-06-23 23:50:00","72236","1.99","187.4","2.352","170.4","1016.561","24.76","90.2","0.0","0.0"],
    [1525740,"2026-06-24 00:00:00","72237","1.818","195.6","2.352","188.4","1016.525","24.75","90.2","0.0","0.0"],
    [1525741,"2026-06-24 00:10:00","72238","1.406","197.8","1.7309999999999999","193.8","1016.552","24.75","90.3","0.0","0.0"],
    [1525742,"2026-06-24 00:20:00","72239","1.32","190.5","1.699","194.2","1016.499","24.69","89.9","0.0","0.0"],
    [1525743,"2026-06-24 00:30:00","72240","0.8059999999999999","188.8","1.274","195.1","1016.45","24.73","89.8","0.0","0.0"],
    [1525744,"2026-06-24 00:40:00","72241","0.1","173.5","0.653","179.5","1016.346","24.7","90.0","0.0","0.0"],
    [1525745,"2026-06-24 00:50:00","72242","0.018000000000000002","304.9","0.327","306.5","1016.193","24.61","89.8","0.0","0.0"],
    [1525746,"2026-06-24 01:00:00","72243","0.138","90.2","0.555","88.1","1016.161","24.52","89.8","0.0","0.0"],
    [1525747,"2026-06-24 01:10:00","72244","0.325","117.3","0.49","143.4","1016.136","24.61","89.9","0.0","0.0"],
    [1525748,"2026-06-24 01:20:00","72245","0.52","152.5","0.6859999999999999","153.1","1016.148","24.56","89.9","0.0","0.0"],
    [1525749,"2026-06-24 01:30:00","72246","0.682","163.8","0.784","172.8","1016.123","24.58","90.0","0.0","0.0"],
    [1525750,"2026-06-24 01:40:00","72247","0.8059999999999999","169.9","0.9470000000000001","169.9","1016.041","24.53","90.1","0.0","0.0"],
    [1525751,"2026-06-24 01:50:00","72248","0.765","173.8","0.915","172.5","1015.97","24.49","89.8","0.0","0.0"],
    [1525752,"2026-06-24 02:00:00","72249","1.23","156.0","1.633","156.7","1015.841","24.51","89.7","0.0","0.0"],
    [1525753,"2026-06-24 02:10:00","72250","1.2890000000000001","148.8","1.535","157.8","1015.702","24.54","90.1","0.0","0.0"],
    [1525754,"2026-06-24 02:20:00","72251","0.996","115.8","1.274","113.8","1015.71","24.55","90.6","0.0","0.0"],
    [1525755,"2026-06-24 02:30:00","72252","0.061","118.0","0.621","115.0","1015.678","24.51","90.8","0.0","0.0"],
    [1525756,"2026-06-24 02:40:00","72253","0.0","0.0","0.0","0.0","1015.649","24.49","90.9","0.0","0.0"],
    [1525757,"2026-06-24 02:50:00","72254","0.052000000000000005","316.1","0.49","317.9","1015.533","24.42","91.2","0.0","0.0"],
    [1525758,"2026-06-24 03:00:00","72255","0.077","292.4","0.621","185.2","1015.643","24.38","91.4","0.0","0.0"],
    [1525759,"2026-06-24 03:10:00","72256","0.52","178.4","1.111","169.8","1015.664","24.32","91.3","0.0","0.0"],
    [1525760,"2026-06-24 03:20:00","72257","1.4269999999999998","203.0","2.352","210.2","1015.759","24.16","90.2","0.0","0.0"],
    [1525761,"2026-06-24 03:30:00","72258","0.826","260.5","1.339","260.9","1015.769","23.9","86.7","0.0","0.0"],
    [1525762,"2026-06-24 03:40:00","72259","0.845","228.4","1.339","225.9","1015.739","24.03","83.6","0.0","0.0"],
    [1525763,"2026-06-24 03:50:00","72260","0.358","232.4","0.9470000000000001","207.2","1015.774","24.28","83.1","0.0","0.0"],
    [1525764,"2026-06-24 04:00:00","72261","0.244","269.8","0.8490000000000001","267.0","1015.85","24.04","81.3","0.0","0.0"],
    [1525765,"2026-06-24 04:10:00","72262","0.33","249.1","0.6859999999999999","213.4","1015.856","24.19","79.35","0.0","0.0"],
    [1525766,"2026-06-24 04:20:00","72263","0.6729999999999999","218.4","0.8170000000000001","212.8","1015.803","24.39","80.4","0.0","0.0"],
    [1525767,"2026-06-24 04:30:00","72264","0.434","254.4","1.2409999999999999","268.9","1015.799","24.37","80.7","0.0","0.0"],
    [1525768,"2026-06-24 04:40:00","72265","0.418","271.0","1.274","270.2","1015.805","24.13","77.38","0.0","0.0"],
    [1525769,"2026-06-24 04:50:00","72266","0.506","268.2","1.307","269.4","1015.932","24.1","74.53","1.3419999999999999","0.0"],
    [1525770,"2026-06-24 05:00:00","72267","0.0","0.0","0.0","0.0","1015.98","24.28","74.97","55.34","0.0"],
    [1525771,"2026-06-24 05:10:00","72268","0.0","0.0","0.0","0.0","1015.993","24.64","74.95","67.08","0.0"],
    [1525772,"2026-06-24 05:20:00","72269","0.0","0.0","0.0","0.0","1016.007","25.01","75.28","67.07","0.0"],
    [1525773,"2026-06-24 05:30:00","72270","0.0","0.0","0.0","0.0","1015.971","25.13","75.78","113.1","0.0"],
    [1525774,"2026-06-24 05:40:00","72271","0.0","0.0","0.0","0.0","1016.001","24.71","75.46","134.1","0.0"],
    [1525775,"2026-06-24 05:50:00","72272","0.107","103.8","0.7190000000000001","101.8","1016.052","24.84","75.17","139.2","0.0"],
    [1525776,"2026-06-24 06:00:00","72273","0.6779999999999999","107.7","0.882","104.1","1016.095","24.78","76.48","196.1","0.0"],
    [1525777,"2026-06-24 06:10:00","72274","0.946","98.8","1.47","91.1","1016.085","25.04","78.68","201.1","0.0"],
    [1525778,"2026-06-24 06:20:00","72275","0.826","106.7","1.5030000000000001","112.2","1016.042","24.94","80.5","253.7","0.0"],
    [1525779,"2026-06-24 06:30:00","72276","0.195","157.4","0.7190000000000001","158.0","1016.03","25.38","79.6","268.1","0.0"],
    [1525780,"2026-06-24 06:40:00","72277","0.326","139.4","1.111","119.5","1016.022","25.43","80.5","303.5","0.0"],
    [1525781,"2026-06-24 06:50:00","72278","1.054","155.1","1.3719999999999999","155.4","1016.099","25.19","82.5","335.2","0.0"],
    [1525782,"2026-06-24 07:00:00","72279","1.445","167.3","2.025","169.9","1016.107","24.82","83.4","367.8","0.0"],
    [1525783,"2026-06-24 07:10:00","72280","1.801","167.3","1.96","167.7","1016.169","24.71","83.8","402.1","0.0"],
    [1525784,"2026-06-24 07:20:00","72281","1.4569999999999999","174.2","2.123","165.5","1016.24","24.83","85.4","419.6","0.0"],
    [1525785,"2026-06-24 07:30:00","72282","1.51","169.1","1.7309999999999999","166.6","1016.269","24.87","86.3","435.6","0.0"],
    [1525786,"2026-06-24 07:40:00","72283","1.5490000000000002","178.4","1.7309999999999999","184.6","1016.287","24.82","86.6","486.2","0.0"],
    [1525787,"2026-06-24 07:50:00","72284","1.5119999999999998","165.6","1.666","172.9","1016.297","24.9","86.8","502.6","0.0"],
    [1525788,"2026-06-24 08:00:00","72285","1.631","162.9","2.025","168.0","1016.326","24.96","86.5","538.1","0.0"],
    [1525789,"2026-06-24 08:10:00","72286","2.117","161.0","2.548","165.1","1016.336","25.03","85.7","569.6","0.0"],
    [1525790,"2026-06-24 08:20:00","72287","2.188","152.9","2.45","153.3","1016.266","25.06","85.0","590.9","0.0"],
    [1525791,"2026-06-24 08:30:00","72288","2.174","151.2","2.515","155.2","1016.333","25.13","85.0","636.6","0.0"],
    [1525792,"2026-06-24 08:40:00","72289","2.157","151.6","2.613","150.4","1016.354","25.2","84.4","636.6","0.0"],
    [1525793,"2026-06-24 08:50:00","72290","2.455","144.3","2.94","145.4","1016.367","25.26","84.4","684.8","0.0"],
    [1525794,"2026-06-24 09:00:00","72291","2.872","137.6","3.495","134.2","1016.438","25.35","84.3","703.6","0.0"],
    [1525795,"2026-06-24 09:10:00","72292","2.559","144.2","3.234","140.6","1016.548","25.37","84.6","705.9","0.0"],
    [1525796,"2026-06-24 09:20:00","72293","2.417","147.0","2.94","137.4","1016.533","25.39","84.6","761.1","0.0"],
    [1525797,"2026-06-24 09:30:00","72294","2.471","150.0","3.103","145.6","1016.544","25.4","84.4","770.6","0.0"],
    [1525798,"2026-06-24 09:40:00","72295","2.542","148.0","3.0380000000000003","144.3","1016.574","25.47","84.6","771.6","0.0"],
    [1525799,"2026-06-24 09:50:00","72296","2.6239999999999997","148.5","3.234","146.1","1016.576","25.55","84.3","822.0","0.0"],
    [1525800,"2026-06-24 10:00:00","72297","2.865","144.7","3.332","144.8","1016.59","25.59","84.0","838.0","0.0"],
    [1525801,"2026-06-24 10:10:00","72298","2.59","149.1","3.299","146.8","1016.539","25.67","83.8","838.0","0.0"],
    [1525802,"2026-06-24 10:20:00","72299","3.016","152.4","3.495","153.5","1016.476","25.63","83.3","838.0","0.0"],
    [1525803,"2026-06-24 10:30:00","72300","3.1639999999999997","153.7","3.9530000000000003","146.2","1016.466","25.75","82.5","873.0","0.0"],
    [1525804,"2026-06-24 10:40:00","72301","2.67","148.5","3.659","154.1","1016.5","25.84","82.3","904.0","0.0"],
    [1525805,"2026-06-24 10:50:00","72302","2.8289999999999997","150.5","3.7569999999999997","147.1","1016.558","25.95","81.9","905.0","0.0"],
    [1525806,"2026-06-24 11:00:00","72303","3.031","154.2","3.887","152.8","1016.556","25.97","81.9","905.0","0.0"],
    [1525807,"2026-06-24 11:10:00","72304","3.341","156.2","4.018","157.0","1016.485","25.96","82.8","905.0","0.0"],
    [1525808,"2026-06-24 11:20:00","72305","3.176","156.0","4.2139999999999995","159.5","1016.43","25.96","83.3","905.0","0.0"],
    [1525809,"2026-06-24 11:30:00","72306","3.505","155.0","4.149","154.6","1016.398","25.92","81.2","905.0","0.0"],
    [1525810,"2026-06-24 11:40:00","72307","3.387","154.6","3.9530000000000003","152.2","1016.401","26.11","80.1","905.0","0.0"],
    [1525811,"2026-06-24 11:50:00","72308","3.194","152.7","3.855","148.5","1016.354","26.14","81.5","905.0","0.0"],
    [1525812,"2026-06-24 12:00:00","72309","2.924","156.0","3.43","155.2","1016.34","26.16","82.2","905.0","0.0"],
    [1525813,"2026-06-24 12:10:00","72310","3.17","151.8","4.149","160.8","1016.322","26.21","82.9","905.0","0.0"],
    [1525814,"2026-06-24 12:20:00","72311","3.0980000000000003","147.8","4.051","145.6","1016.322","26.22","82.3","905.0","0.0"],
    [1525815,"2026-06-24 12:30:00","72312","3.3360000000000003","150.1","4.149","142.9","1016.354","26.31","82.5","905.0","0.0"],
    [1525816,"2026-06-24 12:40:00","72313","3.443","149.2","4.018","149.7","1016.408","26.29","82.5","905.0","0.0"],
    [1525817,"2026-06-24 12:50:00","72314","3.4210000000000003","155.0","4.083","163.1","1016.426","26.37","79.62","905.0","0.0"],
    [1525818,"2026-06-24 13:00:00","72315","3.363","147.3","3.9530000000000003","145.3","1016.359","26.44","81.8","905.0","0.0"],
    [1525819,"2026-06-24 13:10:00","72316","2.975","149.6","3.6260000000000003","143.8","1016.272","26.3","82.4","905.0","0.0"],
    [1525820,"2026-06-24 13:20:00","72317","3.139","154.1","3.7569999999999997","149.5","1016.215","26.31","80.8","905.0","0.0"],
    [1525821,"2026-06-24 13:30:00","72318","2.9189999999999996","155.0","3.463","151.0","1016.208","26.43","79.25","904.0","0.0"],
    [1525822,"2026-06-24 13:40:00","72319","2.852","153.1","3.332","149.0","1016.19","26.51","78.85","861.0","0.0"],
    [1525823,"2026-06-24 13:50:00","72320","3.0810000000000004","152.6","3.7889999999999997","149.7","1016.161","26.54","78.76","838.0","0.0"],
    [1525824,"2026-06-24 14:00:00","72321","3.3819999999999997","150.7","3.887","146.8","1016.203","26.58","79.62","838.0","0.0"],
    [1525825,"2026-06-24 14:10:00","72322","3.5180000000000002","156.0","3.985","154.9","1016.118","26.5","79.77","832.0","0.0"],
    [1525826,"2026-06-24 14:20:00","72323","3.793","160.5","4.2139999999999995","162.3","1016.026","26.5","80.8","773.5","0.0"],
    [1525827,"2026-06-24 14:30:00","72324","4.002","166.8","4.4430000000000005","164.4","1015.974","26.5","79.67","770.6","0.0"],
    [1525828,"2026-06-24 14:40:00","72325","3.8160000000000003","167.2","4.377","165.7","1015.908","26.61","77.96","768.4","0.0"],
    [1525829,"2026-06-24 14:50:00","72326","3.99","167.0","4.606","170.4","1015.845","26.63","76.2","705.1","0.0"],
    [1525830,"2026-06-24 15:00:00","72327","3.952","168.5","4.475","168.5","1015.8","26.74","73.45","703.6","0.0"],
    [1525831,"2026-06-24 15:10:00","72328","4.306","169.7","5.031000000000001","175.0","1015.743","26.7","75.05","691.1","0.0"],
    [1525832,"2026-06-24 15:20:00","72329","4.138","173.0","5.063","177.0","1015.741","26.75","73.98","636.6","0.0"],
    [1525833,"2026-06-24 15:30:00","72330","3.887","175.7","4.573","169.4","1015.635","26.73","73.98","636.6","0.0"],
    [1525834,"2026-06-24 15:40:00","72331","4.015","177.3","4.704","173.7","1015.524","26.89","68.18","591.6","0.0"],
    [1525835,"2026-06-24 15:50:00","72332","4.532","170.3","5.2589999999999995","172.0","1015.389","26.74","71.57","569.6","0.0"],
    [1525836,"2026-06-24 16:00:00","72333","4.888","172.3","5.4879999999999995","171.5","1015.295","26.71","71.33","537.8","0.0"],
    [1525837,"2026-06-24 16:10:00","72334","4.9830000000000005","172.7","5.4879999999999995","171.9","1015.306","26.76","68.24","502.6","0.0"],
    [1525838,"2026-06-24 16:20:00","72335","4.897","172.4","5.422999999999999","175.0","1015.281","26.87","69.26","482.7","0.0"],
    [1525839,"2026-06-24 16:30:00","72336","4.792","170.2","5.325","168.8","1015.255","26.65","72.89","435.6","0.0"],
    [1525840,"2026-06-24 16:40:00","72337","4.775","170.5","5.39","170.5","1015.215","26.65","71.62","425.2","0.0"],
    [1525841,"2026-06-24 16:50:00","72338","4.504","170.0","5.096","171.2","1015.154","26.55","74.98","402.1","0.0"],
    [1525842,"2026-06-24 17:00:00","72339","4.163","169.9","4.671","169.5","1015.173","26.5","72.54","394.6","0.0"],
    [1525843,"2026-06-24 17:10:00","72340","4.012","167.3","4.541","169.3","1015.229","26.69","68.1","335.3","0.0"],
    [1525844,"2026-06-24 17:20:00","72341","4.04","167.7","4.4430000000000005","168.5","1015.268","26.69","68.71","331.5","0.0"],
    [1525845,"2026-06-24 17:30:00","72342","4.035","167.9","4.377","165.3","1015.303","26.7","70.13","270.8","0.0"],
    [1525846,"2026-06-24 17:40:00","72343","3.592","169.2","3.855","169.4","1015.385","26.58","73.07","265.5","0.0"],
    [1525847,"2026-06-24 17:50:00","72344","3.6239999999999997","169.8","4.018","169.4","1015.414","26.49","74.44","205.0","0.0"],
    [1525848,"2026-06-24 18:00:00","72345","3.2260000000000004","168.2","4.051","167.3","1015.391","26.53","74.31","201.0","0.0"],
    [1525849,"2026-06-24 18:10:00","72346","3.21","167.3","3.5610000000000004","166.2","1015.425","26.48","74.96","150.3","0.0"],
    [1525850,"2026-06-24 18:20:00","72347","3.344","162.2","3.7239999999999998","170.5","1015.408","26.44","74.6","134.0","0.0"],
    [1525851,"2026-06-24 18:30:00","72348","3.0610000000000004","158.5","3.463","155.8","1015.373","26.44","74.61","121.5","0.0"],
    [1525852,"2026-06-24 18:40:00","72349","2.71","161.1","3.071","167.3","1015.367","26.43","74.43","68.37","0.0"],
    [1525853,"2026-06-24 18:50:00","72350","2.405","160.3","2.679","161.4","1015.464","26.4","76.36","67.03","0.0"],
    [1525854,"2026-06-24 19:00:00","72351","2.583","167.3","2.7769999999999997","167.2","1015.574","26.26","77.23","34.91","0.0"],
    [1525855,"2026-06-24 19:10:00","72352","2.7030000000000003","169.6","3.136","172.0","1015.663","26.2","77.4","0.0","0.0"],
    [1525856,"2026-06-24 19:20:00","72353","2.964","168.4","3.267","175.8","1015.54","26.15","77.94","0.0","0.0"],
    [1525857,"2026-06-24 19:30:00","72354","2.141","172.9","2.8089999999999997","172.8","1015.547","26.12","78.18","0.0","0.0"],
    [1525858,"2026-06-24 19:40:00","72355","1.297","183.9","1.8619999999999999","172.0","1015.521","26.13","77.65","0.0","0.0"],
    [1525859,"2026-06-24 19:50:00","72356","1.68","173.8","2.287","166.3","1015.472","26.12","77.77","0.0","0.0"],
    [1525860,"2026-06-24 20:00:00","72357","1.469","179.0","2.385","197.9","1015.521","26.27","75.41","0.0","0.0"],
    [1525861,"2026-06-24 20:10:00","72358","1.1320000000000001","192.9","1.699","178.8","1015.641","26.2","74.55","0.0","0.0"],
    [1525862,"2026-06-24 20:20:00","72359","1.507","184.4","2.45","198.8","1015.645","26.41","71.68","0.0","0.0"],
    [1525863,"2026-06-24 20:30:00","72360","0.7609999999999999","201.9","1.96","229.0","1015.759","26.71","65.08","0.0","0.0"],
    [1525864,"2026-06-24 20:40:00","72361","0.855","193.1","1.47","195.9","1015.854","26.83","63.8","0.0","0.0"],
    [1525865,"2026-06-24 20:50:00","72362","0.68","186.3","1.666","214.8","1015.953","26.86","63.36","0.0","0.0"],
    [1525866,"2026-06-24 21:00:00","72363","1.422","190.4","2.189","190.2","1016.009","26.84","64.57","0.0","0.0"],
    [1525867,"2026-06-24 21:10:00","72364","1.335","188.6","1.96","191.7","1016.033","26.77","66.6","0.0","0.0"],
    [1525868,"2026-06-24 21:20:00","72365","1.472","187.6","2.025","167.0","1016.131","26.66","69.36","0.0","0.0"],
    [1525869,"2026-06-24 21:30:00","72366","1.629","175.2","2.0909999999999997","163.3","1016.26","26.17","77.5","0.0","0.0"],
    [1525870,"2026-06-24 21:40:00","72367","1.6469999999999998","170.4","1.96","170.8","1016.246","25.88","78.6","0.0","0.0"],
    [1525871,"2026-06-24 21:50:00","72368","1.483","190.7","1.829","196.3","1016.146","25.84","78.91","0.0","0.0"],
    [1525872,"2026-06-24 22:00:00","72369","1.2590000000000001","198.9","1.764","193.9","1016.095","25.89","78.81","0.0","0.0"],
    [1525873,"2026-06-24 22:10:00","72370","0.7","213.3","1.666","199.0","1016.1","25.85","78.17","0.0","0.0"],
    [1525874,"2026-06-24 22:20:00","72371","0.429","238.5","1.7309999999999999","246.8","1016.089","26.02","72.69","0.0","0.0"],
    [1525875,"2026-06-24 22:30:00","72372","0.8690000000000001","173.4","2.0909999999999997","171.5","1016.118","26.3","74.02","0.0","0.0"],
    [1525876,"2026-06-24 22:40:00","72373","1.76","179.5","2.515","174.7","1016.078","25.83","79.12","0.0","0.0"],
    [1525877,"2026-06-24 22:50:00","72374","2.489","172.8","2.842","175.6","1016.003","25.74","80.4","0.0","0.0"],
    [1525878,"2026-06-24 23:00:00","72375","1.946","162.9","2.254","169.3","1016.194","25.55","84.0","0.0","0.0"],
    [1525879,"2026-06-24 23:10:00","72376","2.008","192.3","2.679","199.2","1016.136","25.46","85.0","0.0","0.0"],
    [1525880,"2026-06-24 23:20:00","72377","2.043","197.7","2.7769999999999997","198.2","1016.072","25.37","85.9","0.0","0.0"],
    [1525881,"2026-06-24 23:30:00","72378","1.452","201.8","1.96","197.4","1015.986","25.36","85.5","0.0","0.0"],
    [1525882,"2026-06-24 23:40:00","72379","1.723","207.9","2.287","213.4","1015.899","25.47","84.5","0.0","0.0"],
    [1525883,"2026-06-24 23:50:00","72380","1.318","231.7","2.385","212.6","1015.817","25.6","82.1","0.0","0.0"],
    [1525884,"2026-06-25 00:00:00","72381","1.122","265.0","1.797","275.1","1015.845","25.66","80.4","0.0","0.0"],
    [1525885,"2026-06-25 00:10:00","72382","1.005","256.9","1.797","262.9","1015.815","25.5","77.44","0.0","0.0"],
    [1525886,"2026-06-25 00:20:00","72383","0.342","258.8","1.143","260.0","1015.828","25.47","71.89","0.0","0.0"],
    [1525887,"2026-06-25 00:30:00","72384","0.1","266.7","0.653","273.2","1015.895","25.46","66.99","0.0","0.0"],
    [1525888,"2026-06-25 00:40:00","72385","0.22899999999999998","220.4","1.045","219.8","1015.925","25.55","65.68","0.0","0.0"],
    [1525889,"2026-06-25 00:50:00","72386","0.239","233.2","0.7190000000000001","232.7","1015.84","25.69","66.8","0.0","0.0"],
    [1525890,"2026-06-25 01:00:00","72387","1.07","236.8","1.666","235.1","1015.772","25.74","71.23","0.0","0.0"],
    [1525891,"2026-06-25 01:10:00","72388","1.37","242.9","2.319","223.5","1015.675","25.57","74.4","0.0","0.0"],
    [1525892,"2026-06-25 01:20:00","72389","0.977","253.9","1.96","261.1","1015.692","25.42","68.55","0.0","0.0"],
    [1525893,"2026-06-25 01:30:00","72390","0.682","247.4","1.307","254.3","1015.626","25.42","65.53","0.0","0.0"],
    [1525894,"2026-06-25 01:40:00","72391","0.976","251.3","1.633","251.6","1015.607","25.3","62.12","0.0","0.0"],
    [1525895,"2026-06-25 01:50:00","72392","0.76","239.9","1.2409999999999999","260.6","1015.553","25.22","63.26","0.0","0.0"],
    [1525896,"2026-06-25 02:00:00","72393","0.545","259.3","1.111","264.1","1015.601","25.19","65.64","0.0","0.0"],
    [1525897,"2026-06-25 02:10:00","72394","0.006","285.0","0.392","287.8","1015.76","24.95","63.17","0.0","0.0"],
    [1525898,"2026-06-25 02:20:00","72395","0.0","0.0","0.0","0.0","1015.741","24.91","62.79","0.0","0.0"],
    [1525899,"2026-06-25 02:30:00","72396","0.629","210.5","1.274","223.7","1015.674","25.19","65.91","0.0","0.0"],
    [1525900,"2026-06-25 02:40:00","72397","0.816","239.3","1.5030000000000001","236.9","1015.69","25.34","68.94","0.0","0.0"],
    [1525901,"2026-06-25 02:50:00","72398","1.1520000000000001","244.7","2.0580000000000003","227.1","1015.611","25.23","65.93","0.0","0.0"],
    [1525902,"2026-06-25 03:00:00","72399","1.518","239.5","2.221","216.5","1015.524","25.36","65.44","0.0","0.0"],
    [1525903,"2026-06-25 03:10:00","72400","1.321","268.7","2.352","272.5","1015.497","24.8","61.2","0.0","0.0"],
    [1525904,"2026-06-25 03:20:00","72401","1.6640000000000001","272.3","2.0909999999999997","270.3","1015.626","24.47","58.89","0.0","0.0"],
    [1525905,"2026-06-25 03:30:00","72402","1.135","253.2","1.895","259.5","1015.474","24.32","59.19","0.0","0.0"],
    [1525906,"2026-06-25 03:40:00","72403","1.1059999999999999","261.6","1.5030000000000001","258.5","1015.362","24.44","59.12","0.0","0.0"],
    [1525907,"2026-06-25 03:50:00","72404","1.1909999999999998","264.1","1.47","262.2","1015.387","24.37","59.0","0.0","0.0"],
    [1525908,"2026-06-25 04:00:00","72405","0.897","262.6","1.176","256.6","1015.379","24.28","59.44","0.0","0.0"],
    [1525909,"2026-06-25 04:10:00","72406","1.121","275.0","1.633","264.8","1015.405","24.2","59.84","0.0","0.0"],
    [1525910,"2026-06-25 04:20:00","72407","0.914","266.6","1.47","261.0","1015.431","24.44","59.39","0.0","0.0"],
    [1525911,"2026-06-25 04:30:00","72408","1.4980000000000002","264.4","2.025","258.5","1015.429","24.49","59.1","0.0","0.0"],
    [1525912,"2026-06-25 04:40:00","72409","1.413","259.5","2.156","261.0","1015.379","24.19","59.43","0.0","0.0"],
    [1525913,"2026-06-25 04:50:00","72410","2.1830000000000003","262.2","2.45","259.9","1015.284","24.1","58.6","24.48","0.0"],
    [1525914,"2026-06-25 05:00:00","72411","1.899","267.6","2.483","269.2","1015.202","24.05","58.68","67.08","0.0"],
    [1525915,"2026-06-25 05:10:00","72412","1.569","262.0","2.0909999999999997","266.0","1015.2","24.22","57.87","67.07","0.0"],
    [1525916,"2026-06-25 05:20:00","72413","0.055","237.0","0.8170000000000001","245.6","1015.215","24.69","57.9","78.74","0.0"],
    [1525917,"2026-06-25 05:30:00","72414","0.0","0.0","0.0","0.0","1015.227","24.89","59.28","133.4","0.0"],
    [1525918,"2026-06-25 05:40:00","72415","0.0","0.0","0.0","0.0","1015.319","25.21","57.08","125.9","0.0"],
    [1525919,"2026-06-25 05:50:00","72416","0.0","0.0","0.0","0.0","1015.391","25.7","57.15","148.6","0.0"],
    [1525920,"2026-06-25 06:00:00","72417","0.258","239.4","1.111","240.0","1015.277","25.51","59.69","201.1","0.0"],
    [1525921,"2026-06-25 06:10:00","72418","0.40700000000000003","51.28","0.621","62.03","1015.364","25.83","58.88","220.8","0.0"],
    [1525922,"2026-06-25 06:20:00","72419","1.641","64.47","2.7439999999999998","70.98","1015.475","25.55","62.83","267.7","0.0"],
    [1525923,"2026-06-25 06:30:00","72420","1.7280000000000002","63.38","2.8089999999999997","63.08","1015.549","25.13","65.7","278.9","0.0"],
    [1525924,"2026-06-25 06:40:00","72421","1.425","64.11","2.7439999999999998","56.0","1015.619","25.35","64.09","335.1","0.0"],
    [1525925,"2026-06-25 06:50:00","72422","0.848","66.7","2.221","47.96","1015.669","25.8","60.91","335.9","0.0"],
    [1525926,"2026-06-25 07:00:00","72423","1.444","40.13","2.9730000000000003","39.33","1015.789","25.89","58.52","399.3","0.0"],
    [1525927,"2026-06-25 07:10:00","72424","0.865","52.48","1.9269999999999998","42.66","1015.894","25.97","57.78","402.1","0.0"],
    [1525928,"2026-06-25 07:20:00","72425","0.8140000000000001","73.69","1.7309999999999999","62.43","1016.02","26.33","58.21","430.2","0.0"],
    [1525929,"2026-06-25 07:30:00","72426","1.6980000000000002","85.0","2.6460000000000004","67.55","1016.077","26.23","57.88","435.9","0.0"],
    [1525930,"2026-06-25 07:40:00","72427","1.649","98.8","2.189","99.9","1016.179","26.1","60.8","498.4","0.0"],
    [1525931,"2026-06-25 07:50:00","72428","1.87","100.7","2.7110000000000003","96.0","1016.201","26.34","55.95","502.6","0.0"],
    [1525932,"2026-06-25 08:00:00","72429","2.369","91.9","3.299","101.2","1016.213","26.27","59.39","556.6","0.0"],
    [1525933,"2026-06-25 08:10:00","72430","2.113","98.6","2.7769999999999997","86.5","1016.169","26.12","64.28","569.6","0.0"],
    [1525934,"2026-06-25 08:20:00","72431","2.025","130.0","2.7439999999999998","116.2","1016.276","26.08","65.47","607.8","0.0"],
    [1525935,"2026-06-25 08:30:00","72432","1.88","144.7","2.9730000000000003","139.1","1016.373","26.07","69.22","636.6","0.0"],
    [1525936,"2026-06-25 08:40:00","72433","1.3659999999999999","139.4","1.96","135.9","1016.408","26.02","70.57","636.7","0.0"],
    [1525937,"2026-06-25 08:50:00","72434","1.479","118.3","2.189","130.5","1016.342","26.08","72.07","696.6","0.0"],
    [1525938,"2026-06-25 09:00:00","72435","1.835","92.8","2.548","82.9","1016.32","25.96","73.68","703.6","0.0"],
    [1525939,"2026-06-25 09:10:00","72436","1.758","142.7","2.352","156.5","1016.419","25.98","75.57","717.1","0.0"],
    [1525940,"2026-06-25 09:20:00","72437","2.246","160.1","2.7769999999999997","167.1","1016.469","25.86","79.03","770.5","0.0"],
    [1525941,"2026-06-25 09:30:00","72438","2.656","159.4","2.9730000000000003","165.4","1016.406","25.7","81.5","770.6","0.0"],
    [1525942,"2026-06-25 09:40:00","72439","2.345","163.6","2.613","163.0","1016.386","25.66","82.4","779.4","0.0"],
    [1525943,"2026-06-25 09:50:00","72440","2.8080000000000003","166.4","3.299","171.9","1016.43","25.72","83.7","834.0","0.0"],
    [1525944,"2026-06-25 10:00:00","72441","3.122","169.1","3.495","172.3","1016.39","25.66","83.8","838.0","0.0"],
    [1525945,"2026-06-25 10:10:00","72442","2.6830000000000003","163.8","3.136","168.5","1016.366","25.73","83.2","838.0","0.0"],
    [1525946,"2026-06-25 10:20:00","72443","2.807","162.0","3.201","165.2","1016.398","25.84","82.7","838.0","0.0"],
    [1525947,"2026-06-25 10:30:00","72444","3.228","161.6","3.6260000000000003","163.2","1016.31","25.95","80.6","854.0","0.0"],
    [1525948,"2026-06-25 10:40:00","72445","3.5660000000000003","163.8","4.083","161.3","1016.315","26.09","78.47","897.0","0.0"],
    [1525949,"2026-06-25 10:50:00","72446","4.456","166.1","5.031000000000001","167.4","1016.366","26.15","79.3","905.0","0.0"],
    [1525950,"2026-06-25 11:00:00","72447","4.825","172.7","5.357","171.5","1016.359","26.07","81.3","905.0","0.0"],
    [1525951,"2026-06-25 11:10:00","72448","4.925","170.8","5.292000000000001","171.9","1016.315","26.05","81.1","905.0","0.0"],
    [1525952,"2026-06-25 11:20:00","72449","4.865","172.9","5.4879999999999995","170.6","1016.26","26.1","81.4","905.0","0.0"],
    [1525953,"2026-06-25 11:30:00","72450","5.022","169.0","5.651","171.0","1016.283","26.13","82.0","905.0","0.0"],
    [1525954,"2026-06-25 11:40:00","72451","5.666","169.8","6.566","170.6","1016.321","26.22","82.6","905.0","0.0"],
    [1525955,"2026-06-25 11:50:00","72452","6.024","168.7","6.631","173.4","1016.346","26.32","82.7","905.0","0.0"],
    [1525956,"2026-06-25 12:00:00","72453","5.428999999999999","167.8","6.042999999999999","169.5","1016.363","26.31","83.9","905.0","0.0"],
    [1525957,"2026-06-25 12:10:00","72454","4.992","168.0","5.422999999999999","164.4","1016.364","26.45","83.4","905.0","0.0"],
    [1525958,"2026-06-25 12:20:00","72455","5.0760000000000005","167.1","5.7170000000000005","167.1","1016.417","26.44","83.5","905.0","0.0"],
    [1525959,"2026-06-25 12:30:00","72456","5.255","167.5","5.978","163.0","1016.538","26.5","82.4","905.0","0.0"],
    [1525960,"2026-06-25 12:40:00","72457","5.109","169.1","6.141","171.3","1016.564","26.57","82.6","905.0","0.0"],
    [1525961,"2026-06-25 12:50:00","72458","5.655","175.3","6.697","173.7","1016.538","26.68","81.1","905.0","0.0"],
    [1525962,"2026-06-25 13:00:00","72459","4.856","179.3","6.403","177.3","1016.55","26.82","80.2","905.0","0.0"],
    [1525963,"2026-06-25 13:10:00","72460","4.386","180.1","5.749","172.0","1016.505","26.99","78.98","905.0","0.0"],
    [1525964,"2026-06-25 13:20:00","72461","4.766","179.3","5.945","173.3","1016.465","26.9","78.47","905.0","0.0"],
    [1525965,"2026-06-25 13:30:00","72462","5.357","174.3","6.272","171.5","1016.377","26.88","78.07","880.0","0.0"],
    [1525966,"2026-06-25 13:40:00","72463","5.112","179.3","6.795","175.3","1016.348","26.99","76.67","838.0","0.0"],
    [1525967,"2026-06-25 13:50:00","72464","4.968","183.7","6.697","191.4","1016.292","27.2","73.7","838.0","0.0"],
    [1525968,"2026-06-25 14:00:00","72465","5.111000000000001","181.5","6.403","191.8","1016.185","27.5","71.1","838.0","0.0"],
    [1525969,"2026-06-25 14:10:00","72466","6.007999999999999","173.7","7.056","175.6","1016.105","27.12","73.83","808.0","0.0"],
    [1525970,"2026-06-25 14:20:00","72467","5.052","178.0","6.435","177.0","1016.124","27.13","73.26","770.6","0.0"],
    [1525971,"2026-06-25 14:30:00","72468","5.276","178.1","6.86","173.5","1016.097","27.25","70.6","770.6","0.0"],
    [1525972,"2026-06-25 14:40:00","72469","5.245","175.3","6.1739999999999995","178.7","1016.003","27.25","70.34","747.2","0.0"],
    [1525973,"2026-06-25 14:50:00","72470","5.349","174.4","6.042999999999999","175.5","1015.927","27.08","70.35","703.6","0.0"],
    [1525974,"2026-06-25 15:00:00","72471","4.478","178.2","5.782","177.0","1015.895","27.3","68.71","703.6","0.0"],
    [1525975,"2026-06-25 15:10:00","72472","5.309","170.7","5.782","170.8","1015.774","27.16","70.22","662.7","0.0"],
    [1525976,"2026-06-25 15:20:00","72473","4.956","177.2","5.749","177.1","1015.757","27.11","70.41","636.6","0.0"],
    [1525977,"2026-06-25 15:30:00","72474","5.45","176.8","6.435","175.3","1015.678","27.14","71.51","623.2","0.0"],
    [1525978,"2026-06-25 15:40:00","72475","5.309","188.1","7.154","190.9","1015.665","27.49","68.24","569.6","0.0"],
    [1525979,"2026-06-25 15:50:00","72476","5.504","190.8","6.795","196.2","1015.728","28.08","60.49","569.4","0.0"],
    [1525980,"2026-06-25 16:00:00","72477","5.226","200.5","7.056","189.3","1015.685","28.88","54.15","508.3","0.0"],
    [1525981,"2026-06-25 16:10:00","72478","5.392","196.6","7.971","188.9","1015.719","28.92","58.24","502.6","0.0"],
    [1525982,"2026-06-25 16:20:00","72479","4.309","202.4","6.435","213.9","1015.724","28.95","56.63","453.6","0.0"],
    [1525983,"2026-06-25 16:30:00","72480","3.86","196.8","5.684","191.5","1015.723","28.82","61.55","435.6","0.0"],
    [1525984,"2026-06-25 16:40:00","72481","4.703","196.6","6.7620000000000005","204.3","1015.698","28.89","59.07","419.8","0.0"],
    [1525985,"2026-06-25 16:50:00","72482","4.078","205.0","5.749","211.8","1015.707","28.9","61.03","402.1","0.0"],
    [1525986,"2026-06-25 17:00:00","72483","4.367","201.8","6.631","208.3","1015.655","28.73","62.96","377.9","0.0"],
    [1525987,"2026-06-25 17:10:00","72484","4.843999999999999","195.0","6.9910000000000005","193.5","1015.621","28.64","63.5","335.1","0.0"],
    [1525988,"2026-06-25 17:20:00","72485","4.466","198.0","6.011","195.0","1015.605","28.68","60.93","314.0","0.0"],
    [1525989,"2026-06-25 17:30:00","72486","4.534","197.8","6.5329999999999995","199.4","1015.596","28.87","59.79","267.3","0.0"],
    [1525990,"2026-06-25 17:40:00","72487","4.668","197.3","5.912999999999999","191.2","1015.565","28.55","59.65","227.1","0.0"],
    [1525991,"2026-06-25 17:50:00","72488","4.368","194.6","5.815","187.6","1015.479","28.65","57.82","201.0","0.0"],
    [1525992,"2026-06-25 18:00:00","72489","4.084","198.7","6.141","196.1","1015.501","28.7","58.35","180.4","0.0"],
    [1525993,"2026-06-25 18:10:00","72490","3.6260000000000003","201.1","5.39","190.3","1015.545","28.67","58.26","134.0","0.0"],
    [1525994,"2026-06-25 18:20:00","72491","4.436","201.6","6.37","192.1","1015.529","28.61","57.12","134.0","0.0"],
    [1525995,"2026-06-25 18:30:00","72492","4.581","196.8","6.468","195.4","1015.465","28.32","60.31","118.6","0.0"],
    [1525996,"2026-06-25 18:40:00","72493","4.669","195.9","7.056","191.8","1015.419","28.04","61.76","67.01","0.0"],
    [1525997,"2026-06-25 18:50:00","72494","4.9319999999999995","199.8","6.697","204.6","1015.43","27.93","62.46","67.01","0.0"],
    [1525998,"2026-06-25 19:00:00","72495","4.282","202.6","6.501","202.2","1015.401","27.78","63.94","41.52","0.0"],
    [1525999,"2026-06-25 19:10:00","72496","3.6239999999999997","205.1","5.7170000000000005","212.8","1015.479","27.76","63.53","0.0","0.0"],
    [1526000,"2026-06-25 19:20:00","72497","3.3160000000000003","201.0","4.867","190.3","1015.56","27.73","64.66","0.0","0.0"],
    [1526001,"2026-06-25 19:30:00","72498","3.752","201.9","5.4879999999999995","201.5","1015.69","27.54","65.48","0.0","0.0"],
    [1526002,"2026-06-25 19:40:00","72499","3.1489999999999996","205.1","4.933","202.9","1015.807","27.53","66.11","0.0","0.0"],
    [1526003,"2026-06-25 19:50:00","72500","3.073","201.6","4.737","194.3","1015.881","27.45","67.11","0.0","0.0"],
    [1526004,"2026-06-25 20:00:00","72501","3.577","201.4","4.998","198.8","1016.015","27.41","68.15","0.0","0.0"],
    [1526005,"2026-06-25 20:10:00","72502","3.363","209.6","5.292000000000001","228.5","1016.267","27.45","67.72","0.0","0.0"],
    [1526006,"2026-06-25 20:20:00","72503","3.534","204.5","5.1610000000000005","233.9","1016.427","27.55","67.59","0.0","0.0"],
    [1526007,"2026-06-25 20:30:00","72504","3.179","203.5","4.867","199.2","1016.579","27.45","66.88","0.0","0.0"],
    [1526008,"2026-06-25 20:40:00","72505","2.7760000000000002","205.7","4.247","207.8","1016.734","27.46","67.29","0.0","0.0"],
    [1526009,"2026-06-25 20:50:00","72506","3.12","205.3","4.41","205.8","1016.76","27.37","66.62","0.0","0.0"],
    [1526010,"2026-06-25 21:00:00","72507","2.405","214.1","3.887","203.3","1016.843","27.54","62.32","0.0","0.0"],
    [1526011,"2026-06-25 21:10:00","72508","2.685","207.6","4.1160000000000005","215.4","1016.994","27.59","62.25","0.0","0.0"],
    [1526012,"2026-06-25 21:20:00","72509","2.279","210.7","3.9530000000000003","202.1","1017","27.41","64.12","0.0","0.0"],
    [1526013,"2026-06-25 21:30:00","72510","2.291","209.4","3.855","204.4","1017.091","27.39","64.58","0.0","0.0"],
    [1526014,"2026-06-25 21:40:00","72511","2.173","211.5","3.5610000000000004","204.3","1017.128","27.22","64.62","0.0","0.0"],
    [1526015,"2026-06-25 21:50:00","72512","1.662","224.5","2.94","245.8","1017.151","27.34","63.39","0.0","0.0"],
    [1526016,"2026-06-25 22:00:00","72513","2.411","240.7","4.541","262.1","1017.121","27.38","62.14","0.0","0.0"],
    [1526017,"2026-06-25 22:10:00","72514","2.158","245.5","4.1160000000000005","263.0","1017.116","27.37","63.27","0.0","0.0"],
    [1526018,"2026-06-25 22:20:00","72515","2.347","252.6","4.1160000000000005","273.9","1017.077","27.3","62.49","0.0","0.0"],
    [1526019,"2026-06-25 22:30:00","72516","2.7260000000000004","244.9","4.671","247.9","1017.04","27.34","59.4","0.0","0.0"],
    [1526020,"2026-06-25 22:40:00","72517","2.3280000000000003","244.0","4.312","244.5","1017.008","27.43","56.92","0.0","0.0"],
    [1526021,"2026-06-25 22:50:00","72518","1.349","249.5","2.907","257.7","1016.978","27.35","57.88","0.0","0.0"],
    [1526022,"2026-06-25 23:00:00","72519","1.296","253.7","2.352","263.6","1016.994","27.25","57.56","0.0","0.0"],
    [1526023,"2026-06-25 23:10:00","72520","0.9009999999999999","255.5","1.8619999999999999","263.9","1017.031","27.2","58.11","0.0","0.0"],
    [1526024,"2026-06-25 23:20:00","72521","0.653","262.5","1.5030000000000001","247.5","1017.085","27.08","59.02","0.0","0.0"],
    [1526025,"2026-06-25 23:30:00","72522","0.44799999999999995","250.3","1.4369999999999998","265.3","1017.097","27.01","59.6","0.0","0.0"],
    [1526026,"2026-06-25 23:40:00","72523","0.22899999999999998","203.4","1.2409999999999999","204.3","1017.087","26.82","60.27","0.0","0.0"],
    [1526027,"2026-06-25 23:50:00","72524","1.16","208.4","1.5030000000000001","226.1","1017.091","26.9","56.94","0.0","0.0"],
    [1526028,"2026-06-26 00:00:00","72525","1.022","228.1","1.699","226.2","1017.13","27.3","51.55","0.0","0.0"],
    [1526029,"2026-06-26 00:10:00","72526","1.09","202.7","1.764","225.9","1017.129","27.34","55.76","0.0","0.0"],
    [1526030,"2026-06-26 00:20:00","72527","1.652","202.0","2.0909999999999997","216.3","1017.029","26.86","59.42","0.0","0.0"],
    [1526031,"2026-06-26 00:30:00","72528","1.232","209.6","1.699","205.5","1016.998","26.75","59.01","0.0","0.0"],
    [1526032,"2026-06-26 00:40:00","72529","0.38","228.8","1.143","207.0","1016.921","26.72","57.26","0.0","0.0"],
    [1526033,"2026-06-26 00:50:00","72530","1.412","224.2","2.842","208.9","1016.8","26.72","55.54","0.0","0.0"],
    [1526034,"2026-06-26 01:00:00","72531","1.355","251.8","2.352","263.4","1016.934","26.64","53.64","0.0","0.0"],
    [1526035,"2026-06-26 01:10:00","72532","1.746","256.9","2.613","250.1","1016.987","26.07","53.76","0.0","0.0"],
    [1526036,"2026-06-26 01:20:00","72533","1.85","250.1","3.103","252.5","1016.957","25.93","52.52","0.0","0.0"],
    [1526037,"2026-06-26 01:30:00","72534","1.973","243.8","3.103","228.3","1016.941","25.88","51.97","0.0","0.0"],
    [1526038,"2026-06-26 01:40:00","72535","1.473","238.1","2.221","254.1","1016.993","25.7","53.28","0.0","0.0"],
    [1526039,"2026-06-26 01:50:00","72536","1.371","241.4","2.352","252.8","1017.027","25.63","52.99","0.0","0.0"],
    [1526040,"2026-06-26 02:00:00","72537","1.808","254.8","2.7439999999999998","248.7","1016.961","25.75","52.4","0.0","0.0"],
    [1526041,"2026-06-26 02:10:00","72538","1.607","256.0","2.352","261.4","1016.964","25.62","52.81","0.0","0.0"],
    [1526042,"2026-06-26 02:20:00","72539","1.679","259.7","2.7110000000000003","269.4","1016.906","25.74","52.5","0.0","0.0"],
    [1526043,"2026-06-26 02:30:00","72540","1.534","261.9","2.385","265.9","1016.867","25.59","53.41","0.0","0.0"],
    [1526044,"2026-06-26 02:40:00","72541","1.298","253.9","2.254","260.8","1016.843","25.64","53.76","0.0","0.0"],
    [1526045,"2026-06-26 02:50:00","72542","1.056","244.0","1.764","260.6","1016.828","25.7","54.14","0.0","0.0"],
    [1526046,"2026-06-26 03:00:00","72543","0.929","249.5","1.9269999999999998","261.2","1016.861","25.73","53.7","0.0","0.0"],
    [1526047,"2026-06-26 03:10:00","72544","1.003","242.4","1.764","251.1","1016.909","25.63","53.58","0.0","0.0"],
    [1526048,"2026-06-26 03:20:00","72545","0.929","235.1","1.8619999999999999","265.4","1016.937","25.61","53.59","0.0","0.0"],
    [1526049,"2026-06-26 03:30:00","72546","1.258","251.5","1.895","253.3","1016.881","25.6","52.71","0.0","0.0"],
    [1526050,"2026-06-26 03:40:00","72547","1.198","254.2","1.895","257.4","1016.879","25.59","52.73","0.0","0.0"],
    [1526051,"2026-06-26 03:50:00","72548","1.38","259.4","1.8619999999999999","259.8","1016.966","25.62","52.67","0.0","0.0"],
    [1526052,"2026-06-26 04:00:00","72549","1.298","261.5","1.7309999999999999","266.8","1017.08","25.61","52.94","0.0","0.0"],
    [1526053,"2026-06-26 04:10:00","72550","1.548","263.0","2.025","257.6","1017.124","25.65","52.88","0.0","0.0"],
    [1526054,"2026-06-26 04:20:00","72551","1.673","264.1","2.0580000000000003","268.9","1017.197","25.84","52.26","0.0","0.0"],
    [1526055,"2026-06-26 04:30:00","72552","1.6969999999999998","265.4","2.156","270.4","1017.247","26.02","51.69","0.0","0.0"],
    [1526056,"2026-06-26 04:40:00","72553","1.91","271.1","2.385","276.6","1017.31","26.01","51.82","0.0","0.0"],
    [1526057,"2026-06-26 04:50:00","72554","1.7530000000000001","262.6","2.025","263.7","1017.363","26.09","51.6","1.09","0.0"],
    [1526058,"2026-06-26 05:00:00","72555","2.112","260.4","2.613","261.2","1017.467","26.0","52.05","64.33","0.0"],
    [1526059,"2026-06-26 05:10:00","72556","1.744","258.0","2.515","246.0","1017.573","25.61","53.17","67.06","0.0"],
    [1526060,"2026-06-26 05:20:00","72557","2.011","260.4","3.267","264.4","1017.671","25.45","53.48","67.09","0.0"],
    [1526061,"2026-06-26 05:30:00","72558","2.204","261.2","3.0380000000000003","267.6","1017.714","25.24","53.79","127.1","0.0"],
    [1526062,"2026-06-26 05:40:00","72559","2.324","265.6","3.528","263.0","1017.743","25.38","53.11","134.1","0.0"],
    [1526063,"2026-06-26 05:50:00","72560","2.244","265.9","2.842","261.6","1017.771","25.59","52.18","170.9","0.0"],
    [1526064,"2026-06-26 06:00:00","72561","1.784","269.2","2.7439999999999998","270.1","1017.826","25.81","51.41","201.1","0.0"],
    [1526065,"2026-06-26 06:10:00","72562","1.4969999999999999","269.5","2.417","268.7","1017.816","26.2","50.6","218.5","0.0"],
    [1526066,"2026-06-26 06:20:00","72563","1.5430000000000001","270.9","2.189","279.2","1017.883","26.46","49.33","268.1","0.0"],
    [1526067,"2026-06-26 06:30:00","72564","0.97","270.4","2.0580000000000003","272.3","1018.004","26.95","48.35","272.9","0.0"],
    [1526068,"2026-06-26 06:40:00","72565","0.7829999999999999","255.3","1.8619999999999999","249.5","1018.122","27.41","47.31","333.8","0.0"],
    [1526069,"2026-06-26 06:50:00","72566","1.032","265.5","2.025","266.0","1018.22","27.79","45.62","335.1","0.0"],
    [1526070,"2026-06-26 07:00:00","72567","0.5379999999999999","222.4","1.3719999999999999","248.7","1018.158","28.13","45.64","394.9","0.0"],
    [1526071,"2026-06-26 07:10:00","72568","0.6890000000000001","246.3","2.0580000000000003","294.5","1018.161","28.33","44.72","402.1","0.0"],
    [1526072,"2026-06-26 07:20:00","72569","1.8","266.7","2.6460000000000004","269.7","1018.219","28.57","41.08","432.3","0.0"],
    [1526073,"2026-06-26 07:30:00","72570","0.877","249.9","2.254","279.0","1018.265","28.67","42.56","435.6","0.0"],
    [1526074,"2026-06-26 07:40:00","72571","1.287","166.0","2.9730000000000003","174.3","1018.27","28.07","49.77","470.3","0.0"],
    [1526075,"2026-06-26 07:50:00","72572","2.603","174.8","3.593","176.2","1018.325","27.02","53.35","502.5","0.0"],
    [1526076,"2026-06-26 08:00:00","72573","3.438","176.2","4.345","172.3","1018.373","26.92","55.63","557.6","0.0"],
    [1526077,"2026-06-26 08:10:00","72574","3.718","176.2","4.737","171.1","1018.41","26.58","60.92","569.5","0.0"],
    [1526078,"2026-06-26 08:20:00","72575","4.208","173.4","4.867","178.6","1018.575","26.34","62.62","607.8","0.0"],
    [1526079,"2026-06-26 08:30:00","72576","4.652","176.6","5.586","176.3","1018.522","26.32","62.49","636.6","0.0"],
    [1526080,"2026-06-26 08:40:00","72577","4.809","175.7","5.7170000000000005","174.8","1018.489","26.28","64.71","649.9","0.0"],
    [1526081,"2026-06-26 08:50:00","72578","4.551","185.3","5.553","189.1","1018.497","26.51","62.94","703.6","0.0"],
    [1526082,"2026-06-26 09:00:00","72579","4.868","185.2","6.37","184.6","1018.454","26.66","63.04","703.6","0.0"],
    [1526083,"2026-06-26 09:10:00","72580","4.769","182.6","5.978","174.7","1018.44","27.0","62.82","744.8","0.0"],
    [1526084,"2026-06-26 09:20:00","72581","5.212999999999999","172.6","6.011","171.1","1018.469","26.24","70.83","770.6","0.0"],
    [1526085,"2026-06-26 09:30:00","72582","5.343999999999999","168.0","5.847","165.2","1018.459","26.06","72.05","770.6","0.0"],
    [1526086,"2026-06-26 09:40:00","72583","5.428999999999999","167.6","5.945","168.1","1018.469","26.08","73.41","799.2","0.0"],
    [1526087,"2026-06-26 09:50:00","72584","5.3020000000000005","165.7","5.815","163.6","1018.503","26.09","74.0","838.0","0.0"],
    [1526088,"2026-06-26 10:00:00","72585","4.853","171.5","5.422999999999999","173.5","1018.579","26.0","76.64","838.0","0.0"],
    [1526089,"2026-06-26 10:10:00","72586","4.8580000000000005","172.8","5.553","173.6","1018.607","25.99","77.61","838.0","0.0"],
    [1526090,"2026-06-26 10:20:00","72587","4.851","169.4","5.357","166.2","1018.61","25.97","78.7","850.0","0.0"],
    [1526091,"2026-06-26 10:30:00","72588","4.875","169.5","5.227","167.5","1018.59","25.94","79.23","901.0","0.0"],
    [1526092,"2026-06-26 10:40:00","72589","4.584","168.8","4.9","168.9","1018.53","25.96","81.2","905.0","0.0"],
    [1526093,"2026-06-26 10:50:00","72590","4.369","168.4","4.802","168.1","1018.479","25.88","82.9","905.0","0.0"],
    [1526094,"2026-06-26 11:00:00","72591","4.627","167.3","5.194","171.8","1018.47","25.87","82.7","905.0","0.0"],
    [1526095,"2026-06-26 11:10:00","72592","4.454","171.4","4.867","175.3","1018.393","26.0","81.5","905.0","0.0"],
    [1526096,"2026-06-26 11:20:00","72593","4.404","173.4","5.031000000000001","172.7","1018.317","26.0","82.5","905.0","0.0"],
    [1526097,"2026-06-26 11:30:00","72594","4.327","177.8","5.227","170.4","1018.233","26.22","81.5","905.0","0.0"],
    [1526098,"2026-06-26 11:40:00","72595","5.113","172.7","5.88","172.1","1018.211","26.02","82.4","905.0","0.0"],
    [1526099,"2026-06-26 11:50:00","72596","5.082","172.3","5.619","173.2","1018.138","26.07","83.1","905.0","0.0"],
    [1526100,"2026-06-26 12:00:00","72597","5.066","173.3","5.88","175.6","1018.067","26.14","82.7","903.0","0.0"],
    [1526101,"2026-06-26 12:10:00","72598","5.152","172.5","5.782","173.2","1018.03","26.19","82.1","905.0","0.0"],
    [1526102,"2026-06-26 12:20:00","72599","4.953","176.1","5.749","174.3","1017.978","26.28","82.3","905.0","0.0"],
    [1526103,"2026-06-26 12:30:00","72600","4.782","175.4","5.619","170.7","1017.948","26.38","82.1","905.0","0.0"],
    [1526104,"2026-06-26 12:40:00","72601","4.888999999999999","172.9","5.619","169.0","1017.895","26.21","82.5","905.0","0.0"],
    [1526105,"2026-06-26 12:50:00","72602","4.9319999999999995","172.3","5.847","173.2","1017.826","26.39","80.4","905.0","0.0"],
    [1526106,"2026-06-26 13:00:00","72603","4.821000000000001","170.1","5.2589999999999995","170.4","1017.772","26.52","79.28","905.0","0.0"],
    [1526107,"2026-06-26 13:10:00","72604","5.1739999999999995","164.0","5.684","166.2","1017.721","26.56","77.26","905.0","0.0"],
    [1526108,"2026-06-26 13:20:00","72605","4.886","170.8","5.619","168.5","1017.692","26.72","75.77","905.0","0.0"],
    [1526109,"2026-06-26 13:30:00","72606","4.7330000000000005","174.0","5.782","171.7","1017.65","26.81","75.81","900.0","0.0"],
    [1526110,"2026-06-26 13:40:00","72607","4.659","174.7","5.325","174.9","1017.531","26.67","76.12","843.0","0.0"],
    [1526111,"2026-06-26 13:50:00","72608","4.9430000000000005","171.9","5.422999999999999","174.2","1017.457","26.68","75.43","838.0","0.0"],
    [1526112,"2026-06-26 14:00:00","72609","5.422000000000001","171.0","6.0760000000000005","173.0","1017.404","26.67","75.7","838.0","0.0"],
    [1526113,"2026-06-26 14:10:00","72610","5.096","177.7","6.0760000000000005","173.5","1017.384","26.86","73.78","824.0","0.0"],
    [1526114,"2026-06-26 14:20:00","72611","5.314","174.7","6.305","178.8","1017.433","26.89","75.07","770.8","0.0"],
    [1526115,"2026-06-26 14:30:00","72612","5.09","181.0","6.37","188.5","1017.427","26.94","73.25","770.6","0.0"],
    [1526116,"2026-06-26 14:40:00","72613","5.2139999999999995","181.0","6.5329999999999995","186.3","1017.397","27.45","69.67","764.8","0.0"],
    [1526117,"2026-06-26 14:50:00","72614","5.513999999999999","179.5","6.729","171.6","1017.334","27.17","71.79","703.9","0.0"],
    [1526118,"2026-06-26 15:00:00","72615","5.074","182.4","6.272","182.6","1017.314","27.42","70.38","703.6","0.0"],
    [1526119,"2026-06-26 15:10:00","72616","5.129","181.0","6.403","187.2","1017.266","27.39","70.26","675.7","0.0"],
    [1526120,"2026-06-26 15:20:00","72617","4.962","180.6","6.5329999999999995","182.2","1017.222","27.49","69.34","636.6","0.0"],
    [1526121,"2026-06-26 15:30:00","72618","5.256","176.1","6.337000000000001","172.8","1017.192","27.29","71.97","636.0","0.0"],
    [1526122,"2026-06-26 15:40:00","72619","4.928","178.4","6.011","172.8","1017.152","27.16","72.34","571.5","0.0"],
    [1526123,"2026-06-26 15:50:00","72620","4.644","179.5","6.011","172.4","1017.183","27.15","72.15","569.6","0.0"],
    [1526124,"2026-06-26 16:00:00","72621","4.57","180.3","5.651","174.6","1017.168","27.15","72.33","520.4","0.0"],
    [1526125,"2026-06-26 16:10:00","72622","4.2139999999999995","181.3","5.227","189.9","1017.123","27.17","72.58","502.6","0.0"],
    [1526126,"2026-06-26 16:20:00","72623","4.401","177.7","5.847","172.7","1017.073","27.07","73.48","470.9","0.0"],
    [1526127,"2026-06-26 16:30:00","72624","4.538","181.5","5.782","173.2","1017.01","27.07","72.83","435.6","0.0"],
    [1526128,"2026-06-26 16:40:00","72625","4.2589999999999995","185.0","5.651","188.3","1016.991","27.27","71.93","419.3","0.0"],
    [1526129,"2026-06-26 16:50:00","72626","4.245","180.8","5.2589999999999995","173.2","1017.007","27.1","72.21","402.1","0.0"],
    [1526130,"2026-06-26 17:00:00","72627","4.446000000000001","181.2","5.4879999999999995","174.3","1017.022","26.98","71.96","381.0","0.0"],
    [1526131,"2026-06-26 17:10:00","72628","4.381","182.7","5.422999999999999","182.0","1017.063","27.33","69.25","335.1","0.0"],
    [1526132,"2026-06-26 17:20:00","72629","4.468999999999999","177.5","5.7170000000000005","179.6","1017.06","27.2","70.8","321.3","0.0"],
    [1526133,"2026-06-26 17:30:00","72630","4.143","182.7","5.227","174.8","1017.071","27.1","69.13","268.0","0.0"],
    [1526134,"2026-06-26 17:40:00","72631","4.09","180.2","5.357","190.8","1017.104","27.27","67.85","252.6","0.0"],
    [1526135,"2026-06-26 17:50:00","72632","3.9139999999999997","180.7","4.965","173.4","1017.135","27.28","67.72","201.0","0.0"],
    [1526136,"2026-06-26 18:00:00","72633","4.1819999999999995","178.2","5.063","173.4","1017.175","27.24","70.13","196.5","0.0"],
    [1526137,"2026-06-26 18:10:00","72634","3.947","179.3","4.998","172.9","1017.211","27.16","68.68","136.9","0.0"],
    [1526138,"2026-06-26 18:20:00","72635","4.077","176.5","4.998","174.3","1017.288","27.07","70.08","134.0","0.0"],
    [1526139,"2026-06-26 18:30:00","72636","3.6860000000000004","183.8","4.508","172.5","1017.339","27.07","70.47","106.6","0.0"],
    [1526140,"2026-06-26 18:40:00","72637","3.676","183.8","4.835","170.6","1017.4","27.23","68.78","67.04","0.0"],
    [1526141,"2026-06-26 18:50:00","72638","3.355","184.8","4.181","176.1","1017.501","27.12","71.09","67.04","0.0"],
    [1526142,"2026-06-26 19:00:00","72639","3.208","187.9","4.2139999999999995","191.3","1017.511","27.13","68.08","40.81","0.0"],
    [1526143,"2026-06-26 19:10:00","72640","3.2560000000000002","184.4","3.822","186.9","1017.607","27.31","66.05","0.0","0.0"],
    [1526144,"2026-06-26 19:20:00","72641","3.032","183.2","3.985","191.7","1017.615","27.24","66.37","0.0","0.0"],
    [1526145,"2026-06-26 19:30:00","72642","2.742","186.8","3.365","203.7","1017.578","26.91","71.67","0.0","0.0"],
    [1526146,"2026-06-26 19:40:00","72643","2.827","182.3","3.6910000000000003","173.8","1017.634","26.73","74.2","0.0","0.0"],
    [1526147,"2026-06-26 19:50:00","72644","3.051","174.9","3.463","168.6","1017.723","26.63","76.59","0.0","0.0"],
    [1526148,"2026-06-26 20:00:00","72645","2.888","171.7","3.299","167.3","1017.792","26.49","77.83","0.0","0.0"],
    [1526149,"2026-06-26 20:10:00","72646","2.424","175.2","3.103","176.7","1017.867","26.62","76.74","0.0","0.0"],
    [1526150,"2026-06-26 20:20:00","72647","1.617","178.1","2.221","174.4","1017.954","26.5","78.13","0.0","0.0"],
    [1526151,"2026-06-26 20:30:00","72648","1.263","182.3","1.535","194.1","1018.04","26.31","79.2","0.0","0.0"],
    [1526152,"2026-06-26 20:40:00","72649","1.148","192.6","1.5030000000000001","188.7","1018.064","26.33","79.29","0.0","0.0"],
    [1526153,"2026-06-26 20:50:00","72650","1.022","185.4","1.307","173.5","1018.145","26.26","78.89","0.0","0.0"],
    [1526154,"2026-06-26 21:00:00","72651","1.204","174.4","1.5030000000000001","176.1","1018.243","26.38","77.32","0.0","0.0"],
    [1526155,"2026-06-26 21:10:00","72652","0.397","169.1","1.013","182.0","1018.349","26.44","77.28","0.0","0.0"],
    [1526156,"2026-06-26 21:20:00","72653","0.0","0.0","0.0","0.0","1018.385","26.36","77.05","0.0","0.0"],
    [1526157,"2026-06-26 21:30:00","72654","0.353","147.4","0.555","160.5","1018.431","26.31","77.43","0.0","0.0"],
    [1526158,"2026-06-26 21:40:00","72655","0.498","143.8","0.621","133.2","1018.381","26.3","76.77","0.0","0.0"],
    [1526159,"2026-06-26 21:50:00","72656","0.414","126.7","0.523","126.1","1018.351","26.37","76.21","0.0","0.0"],
    [1526160,"2026-06-26 22:00:00","72657","0.595","133.8","0.6859999999999999","135.4","1018.342","26.46","76.07","0.0","0.0"],
    [1526161,"2026-06-26 22:10:00","72658","0.44","134.6","0.653","130.1","1018.374","26.48","75.76","0.0","0.0"],
    [1526162,"2026-06-26 22:20:00","72659","0.5429999999999999","134.5","0.882","131.5","1018.416","26.4","76.06","0.0","0.0"],
    [1526163,"2026-06-26 22:30:00","72660","0.711","117.8","0.9470000000000001","110.2","1018.42","26.22","76.66","0.0","0.0"],
    [1526164,"2026-06-26 22:40:00","72661","0.6459999999999999","104.7","0.9470000000000001","108.9","1018.481","26.07","77.7","0.0","0.0"],
    [1526165,"2026-06-26 22:50:00","72662","0.8640000000000001","93.2","1.111","70.64","1018.402","25.93","78.6","0.0","0.0"],
    [1526166,"2026-06-26 23:00:00","72663","1.085","47.14","1.47","30.5","1018.376","25.87","79.03","0.0","0.0"],
    [1526167,"2026-06-26 23:10:00","72664","1.172","47.94","1.47","46.93","1018.387","25.73","80.0","0.0","0.0"],
    [1526168,"2026-06-26 23:20:00","72665","1.228","33.81","1.4369999999999998","42.8","1018.356","25.64","81.2","0.0","0.0"],
    [1526169,"2026-06-26 23:30:00","72666","0.8440000000000001","29.0","1.4369999999999998","27.13","1018.315","25.64","81.7","0.0","0.0"],
    [1526170,"2026-06-26 23:40:00","72667","0.6809999999999999","45.64","1.176","22.62","1018.328","25.68","80.3","0.0","0.0"],
    [1526171,"2026-06-26 23:50:00","72668","0.627","61.55","0.882","59.83","1018.288","25.79","80.7","0.0","0.0"],
    [1526172,"2026-06-27 00:00:00","72669","0.08800000000000001","64.84","0.425","65.43","1018.216","25.69","80.6","0.0","0.0"],
    [1526173,"2026-06-27 00:10:00","72670","0.0","0.0","0.0","0.0","1018.243","25.55","80.0","0.0","0.0"],
    [1526174,"2026-06-27 00:20:00","72671","0.0","0.0","0.0","0.0","1018.248","25.59","80.0","0.0","0.0"],
    [1526175,"2026-06-27 00:30:00","72672","0.0","0.0","0.0","0.0","1018.198","25.45","78.52","0.0","0.0"],
    [1526176,"2026-06-27 00:40:00","72673","0.0","0.0","0.0","0.0","1018.165","25.59","76.91","0.0","0.0"],
    [1526177,"2026-06-27 00:50:00","72674","0.0","0.0","0.0","0.0","1018.082","25.78","76.81","0.0","0.0"],
    [1526178,"2026-06-27 01:00:00","72675","0.0","0.0","0.0","0.0","1018.031","25.62","77.71","0.0","0.0"],
    [1526179,"2026-06-27 01:10:00","72676","0.065","69.11","0.523","59.43","1017.984","25.56","79.48","0.0","0.0"],
    [1526180,"2026-06-27 01:20:00","72677","0.996","48.33","1.2409999999999999","43.68","1018.006","25.43","78.98","0.0","0.0"],
    [1526181,"2026-06-27 01:30:00","72678","0.725","58.09","1.013","51.29","1017.973","25.43","76.9","0.0","0.0"],
    [1526182,"2026-06-27 01:40:00","72679","0.094","64.47","0.457","67.61","1017.925","25.45","75.3","0.0","0.0"],
    [1526183,"2026-06-27 01:50:00","72680","0.08900000000000001","204.5","0.49","213.1","1017.881","25.46","74.99","0.0","0.0"],
    [1526184,"2026-06-27 02:00:00","72681","0.107","223.8","0.588","223.6","1017.854","25.58","76.07","0.0","0.0"],
    [1526185,"2026-06-27 02:10:00","72682","0.8240000000000001","257.0","1.307","265.8","1017.88","25.28","70.93","0.0","0.0"],
    [1526186,"2026-06-27 02:20:00","72683","1.032","263.2","1.4369999999999998","268.3","1017.894","25.42","64.51","0.0","0.0"],
    [1526187,"2026-06-27 02:30:00","72684","0.961","258.5","1.3719999999999999","260.5","1017.897","25.5","63.0","0.0","0.0"],
    [1526188,"2026-06-27 02:40:00","72685","1.146","266.2","1.47","262.8","1017.852","25.5","61.71","0.0","0.0"],
    [1526189,"2026-06-27 02:50:00","72686","0.718","265.7","1.209","265.9","1017.806","25.44","61.3","0.0","0.0"],
    [1526190,"2026-06-27 03:00:00","72687","0.6659999999999999","275.4","1.111","269.1","1017.79","25.44","61.08","0.0","0.0"],
    [1526191,"2026-06-27 03:10:00","72688","0.0","0.0","0.0","0.0","1017.849","25.18","63.16","0.0","0.0"],
    [1526192,"2026-06-27 03:20:00","72689","0.452","273.2","1.176","273.4","1017.803","25.18","62.81","0.0","0.0"],
    [1526193,"2026-06-27 03:30:00","72690","0.0","0.0","0.0","0.0","1017.815","25.2","62.27","0.0","0.0"],
    [1526194,"2026-06-27 03:40:00","72691","0.0","0.0","0.0","0.0","1017.762","25.1","63.94","0.0","0.0"],
    [1526195,"2026-06-27 03:50:00","72692","0.0","0.0","0.0","0.0","1017.766","24.85","65.04","0.0","0.0"],
    [1526196,"2026-06-27 04:00:00","72693","0.0","0.0","0.0","0.0","1017.806","24.9","64.41","0.0","0.0"],
    [1526197,"2026-06-27 04:10:00","72694","0.13699999999999998","271.3","1.111","270.7","1017.832","24.97","63.69","0.0","0.0"],
    [1526198,"2026-06-27 04:20:00","72695","1.413","269.9","1.764","263.3","1017.85","25.09","62.02","0.0","0.0"],
    [1526199,"2026-06-27 04:30:00","72696","1.6119999999999999","268.1","1.9269999999999998","266.4","1017.844","25.06","61.99","0.0","0.0"],
    [1526200,"2026-06-27 04:40:00","72697","1.6569999999999998","266.0","1.993","269.1","1017.958","24.94","62.64","0.0","0.0"],
    [1526201,"2026-06-27 04:50:00","72698","1.09","258.3","1.666","262.6","1018.096","24.92","63.38","15.62","0.0"],
    [1526202,"2026-06-27 05:00:00","72699","1.295","261.8","1.9269999999999998","262.2","1018.206","24.96","63.15","65.42","0.0"],
    [1526203,"2026-06-27 05:10:00","72700","1.4769999999999999","262.6","1.8619999999999999","263.0","1018.356","25.07","61.88","67.06","0.0"],
    [1526204,"2026-06-27 05:20:00","72701","0.99","260.1","1.601","263.9","1018.418","25.25","61.44","67.17","0.0"],
    [1526205,"2026-06-27 05:30:00","72702","0.045","265.3","0.784","281.9","1018.471","25.5","61.92","108.1","0.0"],
    [1526206,"2026-06-27 05:40:00","72703","0.11800000000000001","263.7","0.9470000000000001","264.0","1018.566","25.68","60.11","134.1","0.0"],
    [1526207,"2026-06-27 05:50:00","72704","0.273","279.7","1.143","297.7","1018.637","25.91","61.55","134.1","0.0"],
    [1526208,"2026-06-27 06:00:00","72705","0.122","92.1","1.143","297.7","1018.736","26.01","60.24","191.1","0.0"],
    [1526209,"2026-06-27 06:10:00","72706","0.319","109.0","0.7190000000000001","122.3","1018.816","26.23","59.64","201.1","0.0"],
    [1526210,"2026-06-27 06:20:00","72707","0.531","145.0","0.7190000000000001","157.4","1018.844","26.04","61.21","259.7","0.0"],
    [1526211,"2026-06-27 06:30:00","72708","0.5670000000000001","155.9","0.7190000000000001","148.2","1018.874","25.97","61.38","268.1","0.0"],
    [1526212,"2026-06-27 06:40:00","72709","0.32799999999999996","147.9","0.882","142.5","1018.959","26.2","61.0","291.9","0.0"],
    [1526213,"2026-06-27 06:50:00","72710","1.0759999999999998","152.9","1.3719999999999999","155.5","1019.017","26.13","57.2","334.8","0.0"],
    [1526214,"2026-06-27 07:00:00","72711","1.0959999999999999","164.8","1.405","164.0","1019.032","26.3","55.77","374.8","0.0"],
    [1526215,"2026-06-27 07:10:00","72712","1.088","164.7","1.4369999999999998","164.7","1019.081","26.59","54.55","402.1","0.0"],
    [1526216,"2026-06-27 07:20:00","72713","1.702","140.0","1.993","134.9","1019.092","26.77","53.22","413.8","0.0"],
    [1526217,"2026-06-27 07:30:00","72714","2.1180000000000003","132.0","2.417","125.7","1019.161","26.73","56.62","435.1","0.0"],
    [1526218,"2026-06-27 07:40:00","72715","1.892","137.1","2.189","135.4","1019.204","26.57","58.72","475.8","0.0"],
    [1526219,"2026-06-27 07:50:00","72716","1.974","132.1","2.319","131.4","1019.24","26.68","60.02","502.6","0.0"],
    [1526220,"2026-06-27 08:00:00","72717","2.237","128.2","3.005","120.8","1019.324","26.53","63.74","502.6","0.0"],
    [1526221,"2026-06-27 08:10:00","72718","2.415","133.7","2.842","137.3","1019.366","26.42","66.67","548.8","0.0"],
    [1526222,"2026-06-27 08:20:00","72719","2.427","132.5","3.201","134.9","1019.409","26.36","68.95","569.6","0.0"],
    [1526223,"2026-06-27 08:30:00","72720","2.444","131.5","3.201","129.3","1019.496","26.38","72.31","605.0","0.0"],
    [1526224,"2026-06-27 08:40:00","72721","2.2880000000000003","121.1","3.005","116.7","1019.494","26.23","74.23","636.6","0.0"],
    [1526225,"2026-06-27 08:50:00","72722","1.867","140.0","2.385","139.7","1019.479","26.25","71.9","692.2","0.0"],
    [1526226,"2026-06-27 09:00:00","72723","1.986","156.9","2.385","158.5","1019.495","26.31","71.88","703.6","0.0"],
    [1526227,"2026-06-27 09:10:00","72724","2.14","160.3","2.385","162.0","1019.547","26.22","72.99","755.3","0.0"],
    [1526228,"2026-06-27 09:20:00","72725","2.517","157.9","2.7110000000000003","159.5","1019.602","26.23","73.54","770.6","0.0"],
    [1526229,"2026-06-27 09:30:00","72726","2.575","154.1","2.94","149.7","1019.666","26.27","73.87","770.6","0.0"],
    [1526230,"2026-06-27 09:40:00","72727","2.7880000000000003","153.0","3.103","150.5","1019.713","26.26","74.51","791.9","0.0"],
    [1526231,"2026-06-27 09:50:00","72728","2.779","153.7","3.136","155.4","1019.693","26.31","74.63","818.0","0.0"],
    [1526232,"2026-06-27 10:00:00","72729","3.0239999999999996","155.4","3.365","152.4","1019.709","26.36","75.51","821.0","0.0"],
    [1526233,"2026-06-27 10:10:00","72730","2.8169999999999997","158.1","3.267","157.5","1019.753","26.43","75.48","838.0","0.0"],
    [1526234,"2026-06-27 10:20:00","72731","2.839","156.0","3.397","158.2","1019.76","26.5","75.79","841.0","0.0"],
    [1526235,"2026-06-27 10:30:00","72732","3.384","158.9","3.887","159.9","1019.783","26.51","76.07","889.0","0.0"],
    [1526236,"2026-06-27 10:40:00","72733","3.605","166.5","3.92","170.2","1019.862","26.46","76.88","885.0","0.0"],
    [1526237,"2026-06-27 10:50:00","72734","3.93","171.4","4.606","173.0","1019.907","26.4","77.81","905.0","0.0"],
    [1526238,"2026-06-27 11:00:00","72735","4.292","172.4","4.671","173.7","1019.875","26.41","78.4","905.0","0.0"],
    [1526239,"2026-06-27 11:10:00","72736","4.543","169.9","4.965","169.4","1019.79","26.38","79.07","905.0","0.0"],
    [1526240,"2026-06-27 11:20:00","72737","4.561","167.8","5.031000000000001","167.2","1019.779","26.39","78.91","905.0","0.0"],
    [1526241,"2026-06-27 11:30:00","72738","4.66","166.7","4.965","167.3","1019.727","26.6","76.0","905.0","0.0"],
    [1526242,"2026-06-27 11:40:00","72739","4.239","162.7","4.867","166.9","1019.743","26.78","75.06","905.0","0.0"],
    [1526243,"2026-06-27 11:50:00","72740","4.4639999999999995","161.0","4.867","162.4","1019.737","26.73","76.27","905.0","0.0"],
    [1526244,"2026-06-27 12:00:00","72741","4.519","161.3","5.096","164.9","1019.661","26.79","75.17","905.0","0.0"],
    [1526245,"2026-06-27 12:10:00","72742","4.816","157.6","5.2589999999999995","156.1","1019.546","26.88","75.45","905.0","0.0"],
    [1526246,"2026-06-27 12:20:00","72743","4.632","157.5","5.39","159.9","1019.418","26.93","75.26","905.0","0.0"],
    [1526247,"2026-06-27 12:30:00","72744","4.513","159.8","4.965","162.5","1019.39","26.9","75.76","905.0","0.0"],
    [1526248,"2026-06-27 12:40:00","72745","3.9010000000000002","161.7","4.541","169.7","1019.389","27.05","74.39","905.0","0.0"],
    [1526249,"2026-06-27 12:50:00","72746","3.639","157.8","4.051","161.3","1019.414","27.06","75.86","905.0","0.0"],
    [1526250,"2026-06-27 13:00:00","72747","3.5210000000000004","159.0","3.92","155.4","1019.393","27.05","76.08","905.0","0.0"],
    [1526251,"2026-06-27 13:10:00","72748","3.285","161.8","3.985","161.6","1019.364","27.18","75.19","905.0","0.0"],
    [1526252,"2026-06-27 13:20:00","72749","3.443","164.6","3.7239999999999998","169.2","1019.395","27.16","74.91","905.0","0.0"],
    [1526253,"2026-06-27 13:30:00","72750","3.423","169.8","4.149","176.4","1019.42","27.19","75.72","887.0","0.0"],
    [1526254,"2026-06-27 13:40:00","72751","3.447","168.6","3.659","170.4","1019.327","27.18","75.53","841.0","0.0"],
    [1526255,"2026-06-27 13:50:00","72752","3.39","168.1","3.7889999999999997","172.2","1019.36","27.23","74.72","838.0","0.0"],
    [1526256,"2026-06-27 14:00:00","72753","3.252","169.9","3.463","165.8","1019.369","27.47","71.64","838.0","0.0"],
    [1526257,"2026-06-27 14:10:00","72754","3.2310000000000003","170.0","3.5610000000000004","165.8","1019.358","27.44","73.98","818.0","0.0"],
    [1526258,"2026-06-27 14:20:00","72755","3.4619999999999997","167.5","3.7239999999999998","170.2","1019.314","27.34","75.73","770.6","0.0"],
    [1526259,"2026-06-27 14:30:00","72756","3.554","168.8","3.855","170.3","1019.288","27.34","75.39","770.6","0.0"],
    [1526260,"2026-06-27 14:40:00","72757","3.383","166.8","3.6260000000000003","165.3","1019.273","27.21","75.01","758.5","0.0"],
    [1526261,"2026-06-27 14:50:00","72758","3.214","173.2","3.5610000000000004","171.5","1019.322","27.62","70.33","703.7","0.0"],
    [1526262,"2026-06-27 15:00:00","72759","2.7039999999999997","168.5","3.234","173.3","1019.301","27.77","70.0","703.6","0.0"],
    [1526263,"2026-06-27 15:10:00","72760","2.825","165.7","3.071","162.7","1019.236","27.72","68.79","663.3","0.0"],
    [1526264,"2026-06-27 15:20:00","72761","2.8680000000000003","164.7","3.201","167.6","1019.195","27.87","67.19","636.6","0.0"],
    [1526265,"2026-06-27 15:30:00","72762","2.722","168.7","3.0380000000000003","166.6","1019.137","27.78","67.0","621.3","0.0"],
    [1526266,"2026-06-27 15:40:00","72763","2.569","156.4","2.94","156.9","1019.068","27.82","67.88","569.6","0.0"],
    [1526267,"2026-06-27 15:50:00","72764","2.53","160.3","2.875","159.8","1018.997","27.79","70.18","569.2","0.0"],
    [1526268,"2026-06-27 16:00:00","72765","2.292","171.0","2.907","178.2","1018.938","27.82","70.63","507.9","0.0"],
    [1526269,"2026-06-27 16:10:00","72766","2.611","167.7","2.94","163.1","1018.896","27.74","70.44","502.5","0.0"],
    [1526270,"2026-06-27 16:20:00","72767","2.8710000000000004","166.8","3.0380000000000003","164.3","1018.802","27.74","69.78","462.4","0.0"],
    [1526271,"2026-06-27 16:30:00","72768","2.825","170.2","3.071","171.5","1018.739","27.68","69.46","435.5","0.0"],
    [1526272,"2026-06-27 16:40:00","72769","2.841","171.2","3.136","173.8","1018.716","27.83","67.7","414.4","0.0"],
    [1526273,"2026-06-27 16:50:00","72770","2.758","174.5","3.136","174.6","1018.645","27.71","70.01","402.0","0.0"],
    [1526274,"2026-06-27 17:00:00","72771","2.702","171.6","3.103","165.9","1018.594","27.68","69.67","372.6","0.0"],
    [1526275,"2026-06-27 17:10:00","72772","2.7060000000000004","177.5","3.234","172.8","1018.597","27.76","67.74","335.1","0.0"],
    [1526276,"2026-06-27 17:20:00","72773","2.639","171.6","2.907","175.5","1018.613","27.7","68.69","309.7","0.0"],
    [1526277,"2026-06-27 17:30:00","72774","2.7030000000000003","164.3","2.875","167.4","1018.628","27.81","67.06","268.0","0.0"],
    [1526278,"2026-06-27 17:40:00","72775","2.4090000000000003","162.1","2.7110000000000003","162.9","1018.709","27.77","67.97","241.7","0.0"],
    [1526279,"2026-06-27 17:50:00","72776","2.3609999999999998","155.7","2.515","157.3","1018.753","27.83","67.43","201.0","0.0"],
    [1526280,"2026-06-27 18:00:00","72777","2.155","149.4","2.417","156.8","1018.738","27.8","68.84","189.3","0.0"],
    [1526281,"2026-06-27 18:10:00","72778","2.164","146.9","2.5810000000000004","152.5","1018.769","27.67","68.32","134.3","0.0"],
    [1526282,"2026-06-27 18:20:00","72779","2.674","148.4","3.103","154.6","1018.718","27.74","69.53","134.0","0.0"],
    [1526283,"2026-06-27 18:30:00","72780","2.895","154.7","3.299","167.6","1018.723","27.68","69.45","100.1","0.0"],
    [1526284,"2026-06-27 18:40:00","72781","2.9819999999999998","161.7","3.234","164.8","1018.721","27.59","69.82","67.01","0.0"],
    [1526285,"2026-06-27 18:50:00","72782","3.017","167.8","3.397","170.1","1018.687","27.46","67.4","67.01","0.0"],
    [1526286,"2026-06-27 19:00:00","72783","2.7119999999999997","166.7","2.907","166.0","1018.706","27.57","67.83","44.04","0.0"],
    [1526287,"2026-06-27 19:10:00","72784","2.551","161.8","2.907","163.5","1018.599","27.47","69.57","0.0","0.0"],
    [1526288,"2026-06-27 19:20:00","72785","2.048","155.3","2.5810000000000004","176.2","1018.577","27.4","70.87","0.0","0.0"],
    [1526289,"2026-06-27 19:30:00","72786","1.9609999999999999","161.8","2.221","149.2","1018.509","27.26","71.13","0.0","0.0"],
    [1526290,"2026-06-27 19:40:00","72787","1.734","171.2","2.0580000000000003","163.0","1018.514","27.32","69.96","0.0","0.0"],
    [1526291,"2026-06-27 19:50:00","72788","0.8270000000000001","195.3","1.5030000000000001","179.2","1018.625","27.18","71.53","0.0","0.0"],
    [1526292,"2026-06-27 20:00:00","72789","0.527","188.7","1.111","183.3","1018.737","27.1","71.34","0.0","0.0"],
    [1526293,"2026-06-27 20:10:00","72790","0.27399999999999997","204.7","0.8170000000000001","211.2","1018.836","27.12","70.6","0.0","0.0"],
    [1526294,"2026-06-27 20:20:00","72791","1.018","170.1","1.47","174.5","1018.953","27.13","69.68","0.0","0.0"],
    [1526295,"2026-06-27 20:30:00","72792","0.875","156.9","1.307","162.1","1019.108","27.17","69.67","0.0","0.0"],
    [1526296,"2026-06-27 20:40:00","72793","1.3619999999999999","149.0","1.797","145.6","1019.249","27.14","69.73","0.0","0.0"],
    [1526297,"2026-06-27 20:50:00","72794","1.7469999999999999","148.8","1.9269999999999998","148.2","1019.329","27.16","69.92","0.0","0.0"],
    [1526298,"2026-06-27 21:00:00","72795","1.6909999999999998","163.9","1.8619999999999999","170.9","1019.395","27.09","70.73","0.0","0.0"],
    [1526299,"2026-06-27 21:10:00","72796","1.511","166.2","1.699","161.9","1019.373","27.02","71.41","0.0","0.0"],
    [1526300,"2026-06-27 21:20:00","72797","1.244","179.8","1.7309999999999999","190.0","1019.354","26.89","72.0","0.0","0.0"],
    [1526301,"2026-06-27 21:30:00","72798","0.685","182.8","1.307","171.4","1019.439","26.85","70.66","0.0","0.0"],
    [1526302,"2026-06-27 21:40:00","72799","0.787","180.7","1.274","179.8","1019.474","26.95","68.2","0.0","0.0"],
    [1526303,"2026-06-27 21:50:00","72800","1.001","174.3","1.209","170.4","1019.505","27.11","67.48","0.0","0.0"],
    [1526304,"2026-06-27 22:00:00","72801","1.053","170.5","1.143","174.0","1019.471","27.05","67.95","0.0","0.0"],
    [1526305,"2026-06-27 22:10:00","72802","0.8420000000000001","170.6","1.078","168.5","1019.431","26.89","69.43","0.0","0.0"],
    [1526306,"2026-06-27 22:20:00","72803","0.15","179.8","0.588","186.7","1019.452","26.71","71.55","0.0","0.0"],
    [1526307,"2026-06-27 22:30:00","72804","0.0","0.0","0.0","0.0","1019.401","26.79","71.79","0.0","0.0"],
    [1526308,"2026-06-27 22:40:00","72805","0.29600000000000004","114.8","0.7509999999999999","106.0","1019.298","26.88","71.92","0.0","0.0"],
    [1526309,"2026-06-27 22:50:00","72806","0.617","134.9","0.7190000000000001","147.8","1019.219","26.88","72.0","0.0","0.0"],
    [1526310,"2026-06-27 23:00:00","72807","0.807","159.1","1.045","154.0","1019.218","26.78","72.64","0.0","0.0"],
    [1526311,"2026-06-27 23:10:00","72808","0.813","151.1","1.013","153.9","1019.156","26.64","73.45","0.0","0.0"],
    [1526312,"2026-06-27 23:20:00","72809","0.706","159.3","1.013","168.1","1019.093","26.66","73.22","0.0","0.0"],
    [1526313,"2026-06-27 23:30:00","72810","0.662","194.6","0.9470000000000001","180.8","1019.094","26.7","73.09","0.0","0.0"],
    [1526314,"2026-06-27 23:40:00","72811","0.212","205.3","0.653","194.4","1019.078","26.61","73.44","0.0","0.0"],
    [1526315,"2026-06-27 23:50:00","72812","0.266","161.5","0.784","165.0","1019.057","26.45","74.16","0.0","0.0"],
    [1526316,"2026-06-28 00:00:00","72813","0.256","148.9","0.7190000000000001","172.3","1019.056","26.13","76.36","0.0","0.0"],
    [1526317,"2026-06-28 00:10:00","72814","0.001","156.3","0.131","160.4","1019.008","25.98","76.48","0.0","0.0"],
    [1526318,"2026-06-28 00:20:00","72815","0.0","0.0","0.0","0.0","1018.969","26.0","73.54","0.0","0.0"],
    [1526319,"2026-06-28 00:30:00","72816","0.20800000000000002","237.5","0.882","268.5","1018.898","26.2","68.44","0.0","0.0"],
    [1526320,"2026-06-28 00:40:00","72817","0.204","235.7","1.013","237.0","1018.799","26.34","64.86","0.0","0.0"],
    [1526321,"2026-06-28 00:50:00","72818","0.836","256.9","1.699","260.5","1018.63","26.41","59.54","0.0","0.0"],
    [1526322,"2026-06-28 01:00:00","72819","0.491","220.1","1.4369999999999998","213.7","1018.608","26.5","58.41","0.0","0.0"],
    [1526323,"2026-06-28 01:10:00","72820","0.9359999999999999","251.5","1.797","264.9","1018.637","26.5","57.38","0.0","0.0"],
    [1526324,"2026-06-28 01:20:00","72821","1.706","267.5","2.0580000000000003","271.6","1018.622","26.34","52.39","0.0","0.0"],
    [1526325,"2026-06-28 01:30:00","72822","1.5490000000000002","252.7","2.0909999999999997","257.4","1018.626","26.21","51.37","0.0","0.0"],
    [1526326,"2026-06-28 01:40:00","72823","1.192","252.4","2.025","262.1","1018.611","26.13","51.13","0.0","0.0"],
    [1526327,"2026-06-28 01:50:00","72824","0.919","247.9","1.895","266.8","1018.624","26.05","51.38","0.0","0.0"],
    [1526328,"2026-06-28 02:00:00","72825","1.6580000000000001","265.6","2.548","274.3","1018.596","25.66","52.58","0.0","0.0"],
    [1526329,"2026-06-28 02:10:00","72826","0.924","222.9","1.797","249.5","1018.502","25.56","52.61","0.0","0.0"],
    [1526330,"2026-06-28 02:20:00","72827","0.735","262.7","1.4369999999999998","268.7","1018.427","25.49","53.44","0.0","0.0"],
    [1526331,"2026-06-28 02:30:00","72828","1.976","264.3","2.6460000000000004","268.6","1018.462","25.52","52.26","0.0","0.0"],
    [1526332,"2026-06-28 02:40:00","72829","1.8430000000000002","262.6","2.6460000000000004","255.4","1018.428","25.38","52.33","0.0","0.0"],
    [1526333,"2026-06-28 02:50:00","72830","1.921","266.2","2.515","267.6","1018.311","25.57","51.89","0.0","0.0"],
    [1526334,"2026-06-28 03:00:00","72831","2.112","266.3","2.613","260.9","1018.264","25.59","52.03","0.0","0.0"],
    [1526335,"2026-06-28 03:10:00","72832","1.88","259.0","2.319","259.3","1018.265","25.65","51.78","0.0","0.0"],
    [1526336,"2026-06-28 03:20:00","72833","1.331","254.8","1.8619999999999999","262.7","1018.282","25.82","51.22","0.0","0.0"],
    [1526337,"2026-06-28 03:30:00","72834","1.411","256.3","2.189","267.5","1018.237","25.79","50.4","0.0","0.0"],
    [1526338,"2026-06-28 03:40:00","72835","1.724","267.9","2.417","263.6","1018.255","25.52","50.11","0.0","0.0"],
    [1526339,"2026-06-28 03:50:00","72836","2.045","260.0","2.548","265.0","1018.246","25.51","49.2","0.0","0.0"],
    [1526340,"2026-06-28 04:00:00","72837","1.565","258.5","2.025","258.1","1018.224","25.48","48.97","0.0","0.0"],
    [1526341,"2026-06-28 04:10:00","72838","1.814","252.6","2.417","250.5","1018.258","25.49","48.88","0.0","0.0"],
    [1526342,"2026-06-28 04:20:00","72839","0.6809999999999999","258.0","1.895","267.7","1018.323","25.33","51.66","0.0","0.0"],
    [1526343,"2026-06-28 04:30:00","72840","1.479","260.8","2.0580000000000003","259.3","1018.38","25.5","48.62","0.0","0.0"],
    [1526344,"2026-06-28 04:40:00","72841","1.359","255.8","2.123","259.9","1018.454","25.49","48.36","0.0","0.0"],
    [1526345,"2026-06-28 04:50:00","72842","0.294","158.2","0.98","269.8","1018.544","25.57","50.83","9.08","0.0"],
    [1526346,"2026-06-28 05:00:00","72843","0.161","158.0","0.882","153.5","1018.55","25.45","53.27","65.52","0.0"],
    [1526347,"2026-06-28 05:10:00","72844","0.01","278.7","0.523","279.1","1018.622","25.57","52.46","57.31","0.0"],
    [1526348,"2026-06-28 05:20:00","72845","0.7170000000000001","265.5","1.176","278.6","1018.656","25.64","49.5","67.06","0.0"],
    [1526349,"2026-06-28 05:30:00","72846","0.8340000000000001","267.6","1.176","273.3","1018.641","25.85","47.74","103.5","0.0"],
    [1526350,"2026-06-28 05:40:00","72847","0.61","294.6","1.013","283.6","1018.691","25.99","47.67","133.7","0.0"],
    [1526351,"2026-06-28 05:50:00","72848","0.797","273.1","1.143","267.8","1018.749","26.12","48.09","139.1","0.0"],
    [1526352,"2026-06-28 06:00:00","72849","0.872","267.3","1.405","272.5","1018.839","26.44","48.09","200.6","0.0"],
    [1526353,"2026-06-28 06:10:00","72850","0.865","260.4","1.666","261.1","1018.969","26.54","48.65","201.1","0.0"],
    [1526354,"2026-06-28 06:20:00","72851","0.315","294.0","1.339","288.7","1019.138","26.91","48.07","248.3","0.0"],
    [1526355,"2026-06-28 06:30:00","72852","0.126","75.23","0.7190000000000001","82.7","1019.236","27.38","47.05","268.1","0.0"],
    [1526356,"2026-06-28 06:40:00","72853","0.045","86.0","0.392","76.84","1019.319","27.17","47.04","308.8","0.0"],
    [1526357,"2026-06-28 06:50:00","72854","0.5770000000000001","105.9","0.915","96.2","1019.319","27.16","51.51","335.1","0.0"],
    [1526358,"2026-06-28 07:00:00","72855","0.10099999999999999","115.4","1.111","113.1","1019.399","27.12","50.81","367.5","0.0"],
    [1526359,"2026-06-28 07:10:00","72856","0.509","90.7","1.143","82.5","1019.519","27.01","51.94","402.1","0.0"],
    [1526360,"2026-06-28 07:20:00","72857","0.932","134.1","1.9269999999999998","106.5","1019.625","26.91","56.92","420.1","0.0"],
    [1526361,"2026-06-28 07:30:00","72858","1.909","101.8","2.287","100.4","1019.745","26.23","59.42","435.6","0.0"],
    [1526362,"2026-06-28 07:40:00","72859","1.949","89.6","2.7769999999999997","89.8","1019.844","26.38","55.89","473.0","0.0"],
    [1526363,"2026-06-28 07:50:00","72860","2.177","57.09","2.94","44.79","1019.89","26.74","53.0","502.6","0.0"],
    [1526364,"2026-06-28 08:00:00","72861","2.322","53.05","3.234","63.14","1019.912","26.75","57.21","526.7","0.0"],
    [1526365,"2026-06-28 08:10:00","72862","2.5380000000000003","55.37","3.463","51.22","1019.876","26.58","63.99","569.6","0.0"],
    [1526366,"2026-06-28 08:20:00","72863","2.721","48.13","3.6260000000000003","50.15","1019.806","26.54","68.56","581.2","0.0"],
    [1526367,"2026-06-28 08:30:00","72864","3.082","41.46","3.92","42.56","1019.821","26.51","70.22","636.6","0.0"],
    [1526368,"2026-06-28 08:40:00","72865","2.656","47.54","4.4430000000000005","53.14","1019.809","26.63","70.45","636.6","0.0"],
    [1526369,"2026-06-28 08:50:00","72866","2.867","39.62","4.2139999999999995","39.07","1019.771","26.66","72.96","676.8","0.0"],
    [1526370,"2026-06-28 09:00:00","72867","2.596","45.54","3.985","40.12","1019.767","26.8","73.15","703.6","0.0"],
    [1526371,"2026-06-28 09:10:00","72868","3.3939999999999997","43.25","4.671","46.57","1019.788","26.54","77.64","703.6","0.0"],
    [1526372,"2026-06-28 09:20:00","72869","3.636","38.4","4.4430000000000005","40.47","1019.778","26.48","77.66","754.1","0.0"],
    [1526373,"2026-06-28 09:30:00","72870","3.617","41.72","4.2139999999999995","33.02","1019.756","26.49","77.23","770.6","0.0"],
    [1526374,"2026-06-28 09:40:00","72871","3.325","44.73","4.4430000000000005","51.1","1019.715","26.68","76.52","770.6","0.0"],
    [1526375,"2026-06-28 09:50:00","72872","2.269","50.42","3.92","50.39","1019.654","26.9","74.33","798.3","0.0"],
    [1526376,"2026-06-28 10:00:00","72873","1.754","72.74","3.103","100.1","1019.649","27.1","73.23","838.0","0.0"],
    [1526377,"2026-06-28 10:10:00","72874","1.5959999999999999","82.3","2.7110000000000003","99.5","1019.673","27.2","66.02","838.0","0.0"],
    [1526378,"2026-06-28 10:20:00","72875","2.043","85.6","2.7769999999999997","88.5","1019.732","27.48","59.59","838.0","0.0"],
    [1526379,"2026-06-28 10:30:00","72876","1.7790000000000001","95.7","2.45","107.0","1019.699","27.62","60.68","850.0","0.0"],
    [1526380,"2026-06-28 10:40:00","72877","1.666","90.1","2.385","105.0","1019.646","27.6","62.69","903.0","0.0"],
    [1526381,"2026-06-28 10:50:00","72878","1.8530000000000002","95.9","2.483","96.4","1019.633","27.6","64.77","905.0","0.0"],
    [1526382,"2026-06-28 11:00:00","72879","1.871","94.1","2.94","86.8","1019.601","27.63","64.68","905.0","0.0"],
    [1526383,"2026-06-28 11:10:00","72880","1.6569999999999998","109.0","2.352","112.0","1019.575","27.83","62.15","905.0","0.0"],
    [1526384,"2026-06-28 11:20:00","72881","2.0580000000000003","98.9","2.7439999999999998","101.7","1019.574","27.88","62.58","905.0","0.0"],
    [1526385,"2026-06-28 11:30:00","72882","2.042","111.0","2.8089999999999997","114.7","1019.553","27.95","61.0","905.0","0.0"],
    [1526386,"2026-06-28 11:40:00","72883","2.303","112.9","3.005","123.3","1019.588","27.98","63.28","905.0","0.0"],
    [1526387,"2026-06-28 11:50:00","72884","2.291","107.9","3.397","98.8","1019.463","27.94","65.74","905.0","0.0"],
    [1526388,"2026-06-28 12:00:00","72885","1.821","110.9","2.9730000000000003","103.3","1019.464","27.99","68.26","905.0","0.0"],
    [1526389,"2026-06-28 12:10:00","72886","2.27","103.3","2.9730000000000003","97.2","1019.409","27.88","69.66","905.0","0.0"],
    [1526390,"2026-06-28 12:20:00","72887","2.573","98.4","3.495","80.6","1019.285","27.83","70.96","905.0","0.0"],
    [1526391,"2026-06-28 12:30:00","72888","2.917","106.4","4.1160000000000005","100.9","1019.25","27.77","73.45","905.0","0.0"],
    [1526392,"2026-06-28 12:40:00","72889","2.798","105.8","3.855","105.2","1019.183","27.75","75.51","905.0","0.0"],
    [1526393,"2026-06-28 12:50:00","72890","2.8360000000000003","106.0","3.495","106.2","1019.141","27.7","76.36","905.0","0.0"],
    [1526394,"2026-06-28 13:00:00","72891","2.7089999999999996","108.7","3.397","116.7","1019.092","27.74","77.72","905.0","0.0"],
    [1526395,"2026-06-28 13:10:00","72892","3.013","112.7","4.051","104.7","1019.046","27.76","79.71","905.0","0.0"],
    [1526396,"2026-06-28 13:20:00","72893","3.375","116.5","4.1160000000000005","116.5","1019.055","27.77","80.9","897.0","0.0"],
    [1526397,"2026-06-28 13:30:00","72894","3.361","115.1","4.41","116.8","1019.033","27.85","80.3","844.0","0.0"],
    [1526398,"2026-06-28 13:40:00","72895","2.9739999999999998","105.2","3.822","108.9","1018.992","27.87","80.7","838.0","0.0"],
    [1526399,"2026-06-28 13:50:00","72896","3.029","106.9","4.051","108.4","1018.925","27.86","81.8","838.0","0.0"],
    [1526400,"2026-06-28 14:00:00","72897","2.9360000000000004","106.8","3.92","99.5","1018.862","27.84","81.6","838.0","0.0"],
    [1526401,"2026-06-28 14:10:00","72898","3.1039999999999996","114.2","3.92","111.9","1018.825","27.91","79.84","780.1","0.0"],
    [1526402,"2026-06-28 14:20:00","72899","3.3480000000000003","106.0","4.41","101.7","1018.677","27.94","78.89","704.9","0.0"],
    [1526403,"2026-06-28 14:30:00","72900","3.7","111.0","4.475","101.2","1018.565","27.92","80.8","780.6","0.0"],
    [1526404,"2026-06-28 14:40:00","72901","3.5980000000000003","112.9","4.769","115.1","1018.457","27.87","82.1","728.3","0.0"],
    [1526405,"2026-06-28 14:50:00","72902","3.3739999999999997","118.8","4.312","113.6","1018.437","27.84","81.6","703.6","0.0"],
    [1526406,"2026-06-28 15:00:00","72903","3.395","110.7","4.475","106.3","1018.398","27.81","82.7","696.6","0.0"],
    [1526407,"2026-06-28 15:10:00","72904","3.4360000000000004","105.0","4.41","110.6","1018.435","27.77","81.4","639.2","0.0"],
    [1526408,"2026-06-28 15:20:00","72905","3.3560000000000003","112.7","4.279","105.3","1018.372","27.79","81.7","636.6","0.0"],
    [1526409,"2026-06-28 15:30:00","72906","3.177","111.7","4.312","115.1","1018.288","27.74","83.0","623.7","0.0"],
    [1526410,"2026-06-28 15:40:00","72907","2.81","112.5","4.149","101.0","1018.081","27.69","82.2","622.5","0.0"],
    [1526411,"2026-06-28 15:50:00","72908","2.818","107.2","3.855","103.4","1017.983","27.67","78.72","347.7","0.0"],
    [1526412,"2026-06-28 16:00:00","72909","1.975","100.8","3.071","113.2","1018.106","27.83","75.65","517.0","0.0"],
    [1526413,"2026-06-28 16:10:00","72910","1.689","115.0","2.483","123.2","1018.219","27.92","74.08","402.4","0.0"],
    [1526414,"2026-06-28 16:20:00","72911","1.59","131.8","2.7110000000000003","103.8","1018.11","27.97","74.16","295.8","0.0"],
    [1526415,"2026-06-28 16:30:00","72912","1.405","107.1","2.254","113.5","1018.145","27.9","74.57","220.9","0.0"],
    [1526416,"2026-06-28 16:40:00","72913","1.641","102.8","2.254","115.2","1018.083","27.77","74.25","198.5","0.0"],
    [1526417,"2026-06-28 16:50:00","72914","0.925","119.6","1.568","117.1","1018.174","27.81","73.94","178.1","0.0"],
    [1526418,"2026-06-28 17:00:00","72915","0.738","156.8","1.3719999999999999","167.5","1018.315","27.86","73.88","141.7","0.0"],
    [1526419,"2026-06-28 17:10:00","72916","0.001","103.3","0.131","103.4","1018.399","27.88","73.1","134.0","0.0"],
    [1526420,"2026-06-28 17:20:00","72917","0.48200000000000004","135.2","1.078","136.4","1018.602","27.9","72.14","127.5","0.0"],
    [1526421,"2026-06-28 17:30:00","72918","0.794","156.2","1.045","155.0","1018.887","27.86","71.93","67.57","0.0"],
    [1526422,"2026-06-28 17:40:00","72919","0.579","167.0","1.143","170.8","1019.058","27.82","71.61","67.01","0.0"],
    [1526423,"2026-06-28 17:50:00","72920","1.14","175.8","1.633","174.0","1019.128","27.76","72.5","67.02","0.0"],
    [1526424,"2026-06-28 18:00:00","72921","1.2990000000000002","176.8","2.221","178.5","1019.148","27.56","73.83","67.03","0.0"],
    [1526425,"2026-06-28 18:10:00","72922","1.604","179.1","2.7110000000000003","188.3","1019.248","27.53","72.44","67.03","0.0"],
    [1526426,"2026-06-28 18:20:00","72923","1.781","175.7","2.483","175.7","1019.044","27.73","71.03","67.04","0.0"],
    [1526427,"2026-06-28 18:30:00","72924","2.603","168.5","3.299","174.0","1018.855","27.66","70.71","67.04","0.0"],
    [1526428,"2026-06-28 18:40:00","72925","3.089","166.3","4.2139999999999995","162.6","1018.559","28.5","64.94","67.04","0.0"],
    [1526429,"2026-06-28 18:50:00","72926","3.91","164.7","4.181","160.4","1018.381","28.12","71.1","67.04","0.0"],
    [1526430,"2026-06-28 19:00:00","72927","3.38","180.6","3.92","174.5","1018.33","27.63","74.75","42.96","0.0"],
    [1526431,"2026-06-28 19:10:00","72928","3.264","193.1","3.7569999999999997","191.6","1018.479","27.41","75.24","0.0","0.0"],
    [1526432,"2026-06-28 19:20:00","72929","3.926","194.4","4.769","200.3","1018.58","27.63","77.38","0.0","0.0"],
    [1526433,"2026-06-28 19:30:00","72930","4.133","187.7","5.096","182.7","1018.632","27.7","79.12","0.0","0.0"],
    [1526434,"2026-06-28 19:40:00","72931","4.666","172.8","5.39","179.8","1018.333","27.44","84.0","0.0","0.0"],
    [1526435,"2026-06-28 19:50:00","72932","3.532","187.2","4.802","196.9","1018.468","27.38","85.5","0.0","0.0"],
    [1526436,"2026-06-28 20:00:00","72933","2.478","203.3","3.365","190.0","1018.614","27.16","82.7","0.0","0.0"],
    [1526437,"2026-06-28 20:10:00","72934","1.3769999999999998","234.7","4.247","245.4","1018.674","28.4","68.73","0.0","0.0"],
    [1526438,"2026-06-28 20:20:00","72935","1.2209999999999999","245.5","2.907","257.7","1018.604","28.92","63.45","0.0","0.0"],
    [1526439,"2026-06-28 20:30:00","72936","1.537","267.9","3.1689999999999996","258.2","1018.583","29.06","59.88","0.0","0.0"],
    [1526440,"2026-06-28 20:40:00","72937","1.087","251.0","2.123","261.4","1018.466","29.21","57.14","0.0","0.0"],
    [1526441,"2026-06-28 20:50:00","72938","1.094","264.7","1.895","261.9","1018.563","29.3","55.62","0.0","0.0"],
    [1526442,"2026-06-28 21:00:00","72939","0.233","255.8","0.882","231.0","1018.589","29.22","55.99","0.0","0.0"],
    [1526443,"2026-06-28 21:10:00","72940","0.652","186.3","1.764","188.7","1018.776","28.87","55.47","0.0","0.0"],
    [1526444,"2026-06-28 21:20:00","72941","0.7340000000000001","174.3","2.025","169.6","1018.799","28.67","57.61","0.0","0.0"],
    [1526445,"2026-06-28 21:30:00","72942","0.483","296.9","1.4369999999999998","287.5","1018.829","28.24","57.31","0.0","0.0"],
    [1526446,"2026-06-28 21:40:00","72943","0.976","227.1","1.96","169.2","1018.718","28.67","55.46","0.0","0.0"],
    [1526447,"2026-06-28 21:50:00","72944","1.229","170.2","1.993","169.4","1018.898","28.3","57.93","0.0","0.0"],
    [1526448,"2026-06-28 22:00:00","72945","0.85","254.5","1.633","308.6","1018.977","28.18","58.65","0.0","0.0"],
    [1526449,"2026-06-28 22:10:00","72946","2.452","313.0","4.051","310.9","1019.097","28.68","56.08","0.0","0.0"],
    [1526450,"2026-06-28 22:20:00","72947","1.7109999999999999","252.3","3.0380000000000003","276.1","1019.211","29.71","50.67","0.0","0.0"],
    [1526451,"2026-06-28 22:30:00","72948","1.29","109.2","2.9730000000000003","105.0","1018.828","29.32","59.66","0.0","0.0"],
    [1526452,"2026-06-28 22:40:00","72949","1.216","133.0","2.907","103.8","1018.691","27.6","78.21","0.0","0.0"],
    [1526453,"2026-06-28 22:50:00","72950","2.276","147.6","3.6910000000000003","151.2","1018.945","27.39","66.78","0.0","0.0"],
    [1526454,"2026-06-28 23:00:00","72951","4.332","312.3","8.43","312.6","1018.799","29.14","45.63","0.0","0.0"],
    [1526455,"2026-06-28 23:10:00","72952","5.853","289.8","8.79","297.6","1018.504","29.69","39.38","0.0","0.0"],
    [1526456,"2026-06-28 23:20:00","72953","3.2260000000000004","268.6","5.194","282.7","1018.473","29.51","39.66","0.0","0.0"],
    [1526457,"2026-06-28 23:30:00","72954","2.4819999999999998","256.6","4.933","228.5","1018.63","29.46","39.74","0.0","0.0"],
    [1526458,"2026-06-28 23:40:00","72955","3.262","293.3","5.521","301.2","1018.36","29.38","39.62","0.0","0.0"],
    [1526459,"2026-06-28 23:50:00","72956","2.373","326.6","3.5610000000000004","306.6","1017.776","29.18","40.64","0.0","0.0"],
    [1526460,"2026-06-29 00:00:00","72957","2.095","209.6","3.267","199.8","1017.95","28.95","42.37","0.0","0.0"],
    [1526461,"2026-06-29 00:10:00","72958","0.757","255.4","2.287","213.0","1017.87","29.02","41.34","0.0","0.0"],
    [1526462,"2026-06-29 00:20:00","72959","1.112","156.6","1.797","134.5","1018.067","28.8","42.55","0.0","0.0"],
    [1526463,"2026-06-29 00:30:00","72960","1.692","235.2","3.267","256.5","1018.24","28.69","44.05","0.0","0.0"],
    [1526464,"2026-06-29 00:40:00","72961","1.093","253.9","2.679","265.3","1017.996","29.1","40.31","0.0","0.0"],
    [1526465,"2026-06-29 00:50:00","72962","1.2890000000000001","258.1","3.495","247.9","1017.933","28.99","40.6","0.0","0.0"],
    [1526466,"2026-06-29 01:00:00","72963","2.251","261.4","3.855","280.8","1018.365","29.05","40.16","0.0","0.0"],
    [1526467,"2026-06-29 01:10:00","72964","2.255","294.7","4.671","293.2","1018.461","29.08","39.56","0.0","0.0"],
    [1526468,"2026-06-29 01:20:00","72965","0.7509999999999999","325.6","1.535","315.6","1018.591","29.05","39.79","0.0","0.0"],
    [1526469,"2026-06-29 01:30:00","72966","2.204","351.4","4.541","16.17","1018.773","28.9","41.17","0.0","0.0"],
    [1526470,"2026-06-29 01:40:00","72967","4.035","14.32","4.998","17.4","1018.715","28.17","62.2","0.0","0.0"],
    [1526471,"2026-06-29 01:50:00","72968","3.3","26.27","4.051","23.05","1018.763","27.08","79.31","0.0","0.0"],
    [1526472,"2026-06-29 02:00:00","72969","2.499","41.45","3.267","46.29","1018.826","27.18","78.26","0.0","0.0"],
    [1526473,"2026-06-29 02:10:00","72970","3.842","22.62","5.4879999999999995","14.03","1018.861","26.98","82.0","0.0","0.0"],
    [1526474,"2026-06-29 02:20:00","72971","4.973","12.7","5.782","8.06","1018.862","26.47","86.1","0.0","0.0"],
    [1526475,"2026-06-29 02:30:00","72972","4.779","18.86","5.847","18.08","1018.892","26.3","86.9","0.0","0.0"],
    [1526476,"2026-06-29 02:40:00","72973","5.507999999999999","21.35","7.4479999999999995","18.11","1018.865","26.31","80.8","0.0","0.0"],
    [1526477,"2026-06-29 02:50:00","72974","4.531000000000001","23.65","5.749","24.65","1018.852","26.59","75.7","0.0","0.0"],
    [1526478,"2026-06-29 03:00:00","72975","4.31","8.2","5.815","4.5169999999999995","1018.94","26.5","76.45","0.0","0.0"],
    [1526479,"2026-06-29 03:10:00","72976","4.133","20.41","5.521","10.7","1018.819","26.47","77.15","0.0","0.0"],
    [1526480,"2026-06-29 03:20:00","72977","4.026","19.77","5.063","21.56","1018.83","26.5","77.98","0.0","0.0"],
    [1526481,"2026-06-29 03:30:00","72978","4.444","21.99","5.2589999999999995","23.1","1018.957","26.52","77.85","0.0","0.0"],
    [1526482,"2026-06-29 03:40:00","72979","4.188","18.44","4.933","14.99","1018.957","26.6","77.77","0.0","0.0"],
    [1526483,"2026-06-29 03:50:00","72980","3.9210000000000003","25.31","5.129","36.86","1019.074","26.52","79.83","0.0","0.0"],
    [1526484,"2026-06-29 04:00:00","72981","3.9539999999999997","22.59","4.769","21.95","1019.09","26.57","80.5","0.0","0.0"],
    [1526485,"2026-06-29 04:10:00","72982","3.431","9.69","4.377","15.61","1019.068","26.51","80.1","0.0","0.0"],
    [1526486,"2026-06-29 04:20:00","72983","2.505","10.62","3.136","10.6","1019.196","26.63","79.37","0.0","0.0"],
    [1526487,"2026-06-29 04:30:00","72984","2.742","12.37","3.7889999999999997","16.4","1019.252","26.66","79.22","0.0","0.0"],
    [1526488,"2026-06-29 04:40:00","72985","1.901","3.554","2.613","8.35","1019.336","26.59","78.33","0.0","0.0"],
    [1526489,"2026-06-29 04:50:00","72986","1.3559999999999999","3.245","2.221","6.638","1019.405","26.63","76.47","0.0","0.0"],
    [1526490,"2026-06-29 05:00:00","72987","1.042","344.0","1.7309999999999999","4.921","1019.496","26.9","74.18","12.94","0.0"],
    [1526491,"2026-06-29 05:10:00","72988","1.158","340.2","1.895","304.9","1019.554","26.92","70.72","22.52","0.0"],
    [1526492,"2026-06-29 05:20:00","72989","0.9129999999999999","20.38","1.9269999999999998","16.06","1019.486","27.1","70.34","33.14","0.0"],
    [1526493,"2026-06-29 05:30:00","72990","0.95","37.97","1.993","37.78","1019.559","27.4","68.45","67.06","0.0"],
    [1526494,"2026-06-29 05:40:00","72991","2.2569999999999997","41.68","2.7769999999999997","45.54","1019.695","27.34","67.41","67.06","0.0"],
    [1526495,"2026-06-29 05:50:00","72992","2.918","14.89","3.593","12.11","1019.747","27.14","64.58","67.06","0.0"],
    [1526496,"2026-06-29 06:00:00","72993","2.13","24.73","2.7110000000000003","15.61","1019.773","27.31","63.53","84.2","0.0"],
    [1526497,"2026-06-29 06:10:00","72994","2.716","6.949","3.463","7.155","1019.872","27.25","61.6","83.2","0.0"],
    [1526498,"2026-06-29 06:20:00","72995","0.23600000000000002","290.2","1.829","323.0","1019.866","27.09","59.85","134.9","0.0"],
    [1526499,"2026-06-29 06:30:00","72996","1.037","284.1","2.417","287.0","1019.884","27.72","55.59","275.2","0.0"],
    [1526500,"2026-06-29 06:40:00","72997","1.5090000000000001","289.8","2.417","289.1","1020.011","27.94","54.33","165.0","0.0"],
    [1526501,"2026-06-29 06:50:00","72998","0.9179999999999999","282.0","1.7309999999999999","261.4","1019.981","28.19","54.76","288.4","0.0"],
    [1526502,"2026-06-29 07:00:00","72999","0.35200000000000004","318.0","1.176","296.8","1020.031","28.41","54.33","294.3","0.0"],
    [1526503,"2026-06-29 07:10:00","73000","0.628","125.9","1.47","127.6","1020.147","28.58","53.57","399.8","0.0"],
    [1526504,"2026-06-29 07:20:00","73001","1.276","129.1","1.797","119.3","1020.205","28.33","56.75","411.3","0.0"],
    [1526505,"2026-06-29 07:30:00","73002","1.228","120.9","1.797","119.3","1020.269","28.12","60.2","428.4","0.0"],
    [1526506,"2026-06-29 07:40:00","73003","1.368","116.8","1.699","107.6","1020.319","28.12","61.26","467.3","0.0"],
    [1526507,"2026-06-29 07:50:00","73004","1.962","130.5","2.548","124.6","1020.362","27.92","62.6","456.9","0.0"],
    [1526508,"2026-06-29 08:00:00","73005","2.271","131.9","2.7110000000000003","137.7","1020.378","27.9","63.52","517.2","0.0"],
    [1526509,"2026-06-29 08:10:00","73006","2.301","137.0","2.7110000000000003","141.7","1020.38","27.77","64.88","493.2","0.0"],
    [1526510,"2026-06-29 08:20:00","73007","2.109","141.0","2.613","136.5","1020.407","27.79","66.49","569.6","0.0"],
    [1526511,"2026-06-29 08:30:00","73008","2.384","141.4","2.875","132.8","1020.466","27.63","67.96","596.2","0.0"],
    [1526512,"2026-06-29 08:40:00","73009","2.843","147.2","3.6260000000000003","148.4","1020.565","27.53","69.4","636.6","0.0"],
    [1526513,"2026-06-29 08:50:00","73010","3.6830000000000003","146.6","4.2139999999999995","144.3","1020.524","27.48","70.0","636.6","0.0"],
    [1526514,"2026-06-29 09:00:00","73011","3.891","146.3","4.312","147.3","1020.482","27.49","70.5","681.3","0.0"],
    [1526515,"2026-06-29 09:10:00","73012","4.288","147.9","4.867","147.2","1020.516","27.47","71.02","703.6","0.0"],
    [1526516,"2026-06-29 09:20:00","73013","4.331","148.5","4.998","149.3","1020.544","27.48","71.15","705.5","0.0"],
    [1526517,"2026-06-29 09:30:00","73014","4.7780000000000005","155.0","5.455","154.9","1020.488","27.41","71.67","768.2","0.0"],
    [1526518,"2026-06-29 09:40:00","73015","4.905","161.9","5.455","163.8","1020.446","26.85","75.16","770.6","0.0"],
    [1526519,"2026-06-29 09:50:00","73016","5.441","164.7","5.782","164.1","1020.443","26.83","75.64","770.6","0.0"],
    [1526520,"2026-06-29 10:00:00","73017","5.279","166.6","5.912999999999999","173.1","1020.455","26.75","77.27","810.0","0.0"],
    [1526521,"2026-06-29 10:10:00","73018","5.621","167.4","6.0760000000000005","167.7","1020.474","26.79","77.7","838.0","0.0"],
    [1526522,"2026-06-29 10:20:00","73019","5.3229999999999995","170.6","6.011","173.2","1020.458","26.65","78.41","838.0","0.0"],
    [1526523,"2026-06-29 10:30:00","73020","5.119","175.5","6.207000000000001","171.0","1020.444","27.06","74.88","838.0","0.0"],
    [1526524,"2026-06-29 10:40:00","73021","5.505","174.4","6.697","170.0","1020.398","27.14","74.12","838.0","0.0"],
    [1526525,"2026-06-29 10:50:00","73022","5.275","179.1","6.729","172.1","1020.43","27.23","73.17","838.0","0.0"],
    [1526526,"2026-06-29 11:00:00","73023","5.497999999999999","183.2","7.218999999999999","176.0","1020.456","27.48","71.7","873.0","0.0"],
    [1526527,"2026-06-29 11:10:00","73024","5.693","186.3","7.481","185.9","1020.512","27.55","71.24","904.0","0.0"],
    [1526528,"2026-06-29 11:20:00","73025","5.055","184.3","6.5329999999999995","192.8","1020.467","27.57","71.73","905.0","0.0"],
    [1526529,"2026-06-29 11:30:00","73026","5.502999999999999","181.1","7.121","186.4","1020.406","27.57","72.01","905.0","0.0"],
    [1526530,"2026-06-29 11:40:00","73027","5.654","184.8","7.513","195.0","1020.326","27.68","71.84","905.0","0.0"],
    [1526531,"2026-06-29 11:50:00","73028","5.905","183.0","8.46","191.1","1020.183","27.74","71.71","905.0","0.0"],
    [1526532,"2026-06-29 12:00:00","73029","5.68","190.8","8.3","201.2","1020.203","27.69","72.29","905.0","0.0"],
    [1526533,"2026-06-29 12:10:00","73030","6.457000000000001","199.7","8.56","210.4","1020.135","28.17","69.04","905.0","0.0"],
    [1526534,"2026-06-29 12:20:00","73031","6.4110000000000005","199.8","9.02","214.5","1020.075","28.58","67.2","905.0","0.0"],
    [1526535,"2026-06-29 12:30:00","73032","6.858","195.4","10.03","188.5","1019.951","28.66","66.22","905.0","0.0"],
    [1526536,"2026-06-29 12:40:00","73033","7.587999999999999","193.2","10.71","191.2","1019.777","28.35","67.81","905.0","0.0"],
    [1526537,"2026-06-29 12:50:00","73034","7.409","193.5","11.34","182.4","1019.704","28.34","68.86","905.0","0.0"],
    [1526538,"2026-06-29 13:00:00","73035","8.18","194.0","10.19","194.3","1019.578","28.38","68.39","905.0","0.0"],
    [1526539,"2026-06-29 13:10:00","73036","7.524","194.3","9.77","193.8","1019.616","28.42","69.36","905.0","0.0"],
    [1526540,"2026-06-29 13:20:00","73037","7.72","192.8","10.32","183.1","1019.638","28.34","69.11","893.0","0.0"],
    [1526541,"2026-06-29 13:30:00","73038","6.455","198.0","9.18","195.0","1019.713","28.72","67.69","838.0","0.0"],
    [1526542,"2026-06-29 13:40:00","73039","7.099","193.6","9.67","195.7","1019.63","28.65","68.37","838.0","0.0"],
    [1526543,"2026-06-29 13:50:00","73040","7.421","191.8","9.8","189.6","1019.511","28.48","69.34","838.0","0.0"],
    [1526544,"2026-06-29 14:00:00","73041","7.166","197.0","10.16","202.2","1019.481","28.67","68.06","837.0","0.0"],
    [1526545,"2026-06-29 14:10:00","73042","7.7170000000000005","196.7","10.0","190.5","1019.391","28.64","68.73","777.3","0.0"],
    [1526546,"2026-06-29 14:20:00","73043","7.3","195.0","10.03","198.4","1019.35","28.68","68.87","770.6","0.0"],
    [1526547,"2026-06-29 14:30:00","73044","5.66","199.2","8.46","198.8","1019.365","28.91","67.61","769.6","0.0"],
    [1526548,"2026-06-29 14:40:00","73045","4.551","211.8","7.415","230.9","1019.448","29.42","64.54","708.5","0.0"],
    [1526549,"2026-06-29 14:50:00","73046","6.257999999999999","196.7","8.79","192.5","1019.223","29.54","61.44","703.6","0.0"],
    [1526550,"2026-06-29 15:00:00","73047","5.229","202.8","8.53","190.2","1019.192","29.9","58.32","691.2","0.0"],
    [1526551,"2026-06-29 15:10:00","73048","6.382999999999999","193.9","8.56","196.2","1019.071","29.8","56.91","637.4","0.0"],
    [1526552,"2026-06-29 15:20:00","73049","5.876","195.7","7.905","201.8","1019.068","30.0","54.82","636.6","0.0"],
    [1526553,"2026-06-29 15:30:00","73050","5.824","196.6","7.6770000000000005","200.7","1018.982","29.83","56.2","599.8","0.0"],
    [1526554,"2026-06-29 15:40:00","73051","6.117000000000001","192.1","8.56","191.0","1018.93","29.68","56.92","569.6","0.0"],
    [1526555,"2026-06-29 15:50:00","73052","6.086","199.4","8.75","197.6","1018.906","29.71","56.55","550.0","0.0"],
    [1526556,"2026-06-29 16:00:00","73053","4.997","207.2","8.66","194.8","1018.848","29.77","57.66","502.5","0.0"],
    [1526557,"2026-06-29 16:10:00","73054","4.635","210.4","7.35","197.9","1018.806","29.94","56.95","497.8","0.0"],
    [1526558,"2026-06-29 16:20:00","73055","3.784","216.4","7.0889999999999995","195.6","1018.755","29.94","57.71","435.8","0.0"],
    [1526559,"2026-06-29 16:30:00","73056","4.981","221.2","7.807","229.5","1018.618","29.95","56.19","435.5","0.0"],
    [1526560,"2026-06-29 16:40:00","73057","5.038","204.0","7.6770000000000005","200.0","1018.474","29.86","55.5","405.6","0.0"],
    [1526561,"2026-06-29 16:50:00","73058","5.8839999999999995","201.8","8.56","207.3","1018.415","29.57","55.27","402.0","0.0"],
    [1526562,"2026-06-29 17:00:00","73059","4.79","206.1","6.86","208.4","1018.42","29.84","52.76","352.3","0.0"],
    [1526563,"2026-06-29 17:10:00","73060","4.717","214.4","7.285","225.4","1018.42","29.85","54.31","335.0","0.0"],
    [1526564,"2026-06-29 17:20:00","73061","4.752","223.8","7.154","225.5","1018.428","29.89","53.49","296.1","0.0"],
    [1526565,"2026-06-29 17:30:00","73062","5.026","214.1","7.4479999999999995","217.7","1018.404","29.86","52.65","268.0","0.0"],
    [1526566,"2026-06-29 17:40:00","73063","3.833","212.0","7.4479999999999995","223.0","1018.265","30.01","51.71","235.5","0.0"],
    [1526567,"2026-06-29 17:50:00","73064","4.274","217.4","7.0889999999999995","219.3","1018.248","29.89","52.6","201.0","0.0"],
    [1526568,"2026-06-29 18:00:00","73065","3.7060000000000004","225.8","7.0889999999999995","219.3","1018.304","29.81","54.9","189.1","0.0"],
    [1526569,"2026-06-29 18:10:00","73066","3.5189999999999997","226.7","6.664","264.3","1018.359","29.83","53.89","134.0","0.0"],
    [1526570,"2026-06-29 18:20:00","73067","3.0980000000000003","212.8","5.227","190.4","1018.387","29.65","53.78","134.0","0.0"],
    [1526571,"2026-06-29 18:30:00","73068","2.475","228.9","4.9","221.3","1018.456","29.57","54.0","88.4","0.0"],
    [1526572,"2026-06-29 18:40:00","73069","2.659","248.6","4.41","270.5","1018.441","29.59","54.35","67.01","0.0"],
    [1526573,"2026-06-29 18:50:00","73070","3.0869999999999997","256.9","5.553","253.1","1018.482","29.45","53.25","67.01","0.0"],
    [1526574,"2026-06-29 19:00:00","73071","3.043","245.1","5.325","263.5","1018.452","29.5","52.3","43.53","0.0"],
    [1526575,"2026-06-29 19:10:00","73072","2.8710000000000004","248.1","4.867","259.9","1018.476","29.41","51.5","0.0","0.0"],
    [1526576,"2026-06-29 19:20:00","73073","2.7510000000000003","244.5","5.455","255.7","1018.477","29.43","51.42","0.0","0.0"],
    [1526577,"2026-06-29 19:30:00","73074","2.572","255.3","5.1610000000000005","265.8","1018.519","29.37","51.37","0.0","0.0"],
    [1526578,"2026-06-29 19:40:00","73075","2.5989999999999998","260.3","4.737","255.9","1018.612","29.32","51.13","0.0","0.0"],
    [1526579,"2026-06-29 19:50:00","73076","2.977","251.9","4.867","253.2","1018.645","29.24","50.01","0.0","0.0"],
    [1526580,"2026-06-29 20:00:00","73077","3.133","249.1","4.933","265.3","1018.798","29.23","48.43","0.0","0.0"],
    [1526581,"2026-06-29 20:10:00","73078","2.755","245.5","4.671","263.9","1018.926","29.23","47.67","0.0","0.0"],
    [1526582,"2026-06-29 20:20:00","73079","3.116","247.2","5.031000000000001","255.9","1019.012","29.29","46.83","0.0","0.0"],
    [1526583,"2026-06-29 20:30:00","73080","2.6210000000000004","246.4","4.802","267.4","1019.154","29.36","46.88","0.0","0.0"],
    [1526584,"2026-06-29 20:40:00","73081","2.605","246.2","4.2139999999999995","265.1","1019.282","29.37","46.28","0.0","0.0"],
    [1526585,"2026-06-29 20:50:00","73082","2.218","245.5","3.92","244.6","1019.368","29.44","45.16","0.0","0.0"],
    [1526586,"2026-06-29 21:00:00","73083","2.184","256.3","3.463","246.9","1019.488","29.49","44.54","0.0","0.0"],
    [1526587,"2026-06-29 21:10:00","73084","2.162","251.2","4.377","256.7","1019.617","29.44","44.53","0.0","0.0"],
    [1526588,"2026-06-29 21:20:00","73085","2.346","255.4","4.312","241.1","1019.666","29.38","44.69","0.0","0.0"],
    [1526589,"2026-06-29 21:30:00","73086","1.963","254.5","4.051","248.2","1019.741","29.33","44.95","0.0","0.0"],
    [1526590,"2026-06-29 21:40:00","73087","2.045","245.1","3.92","253.5","1019.794","29.27","44.95","0.0","0.0"],
    [1526591,"2026-06-29 21:50:00","73088","2.254","255.2","3.822","270.2","1019.779","29.34","44.97","0.0","0.0"],
    [1526592,"2026-06-29 22:00:00","73089","2.114","250.9","4.4430000000000005","266.1","1019.818","29.27","45.62","0.0","0.0"],
    [1526593,"2026-06-29 22:10:00","73090","2.174","254.3","3.659","246.8","1019.784","29.18","45.65","0.0","0.0"],
    [1526594,"2026-06-29 22:20:00","73091","2.355","248.7","4.377","262.9","1019.855","29.06","45.87","0.0","0.0"],
    [1526595,"2026-06-29 22:30:00","73092","2.498","253.6","5.227","267.2","1019.885","28.97","46.9","0.0","0.0"],
    [1526596,"2026-06-29 22:40:00","73093","1.585","247.5","2.907","270.0","1019.843","28.77","48.16","0.0","0.0"],
    [1526597,"2026-06-29 22:50:00","73094","2.051","242.3","3.332","222.9","1019.863","28.65","48.73","0.0","0.0"],
    [1526598,"2026-06-29 23:00:00","73095","2.029","244.5","3.6910000000000003","252.6","1019.808","28.67","49.21","0.0","0.0"],
    [1526599,"2026-06-29 23:10:00","73096","1.556","237.2","2.7769999999999997","227.2","1019.775","28.55","49.1","0.0","0.0"],
    [1526600,"2026-06-29 23:20:00","73097","1.736","211.7","3.103","224.4","1019.961","28.6","48.74","0.0","0.0"],
    [1526601,"2026-06-29 23:30:00","73098","1.466","198.7","2.025","191.2","1019.977","28.11","53.19","0.0","0.0"],
    [1526602,"2026-06-29 23:40:00","73099","0.885","274.4","1.5030000000000001","197.4","1020.044","27.59","55.05","0.0","0.0"],
    [1526603,"2026-06-29 23:50:00","73100","1.058","324.9","2.483","41.73","1020.091","27.99","53.11","0.0","0.0"],
    [1526604,"2026-06-30 00:00:00","73101","2.63","45.86","3.6910000000000003","43.62","1020.098","26.76","71.57","0.0","0.0"],
    [1526605,"2026-06-30 00:10:00","73102","2.7310000000000003","46.52","3.201","48.11","1020.072","26.21","75.92","0.0","0.0"],
    [1526606,"2026-06-30 00:20:00","73103","2.759","44.88","3.495","42.83","1020.118","26.24","75.96","0.0","0.0"],
    [1526607,"2026-06-30 00:30:00","73104","1.9980000000000002","27.38","2.483","39.42","1020.167","26.2","76.14","0.0","0.0"],
    [1526608,"2026-06-30 00:40:00","73105","1.202","31.72","1.8619999999999999","23.63","1020.171","26.31","75.16","0.0","0.0"],
    [1526609,"2026-06-30 00:50:00","73106","0.39799999999999996","130.5","0.98","157.5","1020.11","26.33","75.04","0.0","0.0"],
    [1526610,"2026-06-30 01:00:00","73107","0.748","164.2","1.111","137.3","1020.066","25.96","77.32","0.0","0.0"],
    [1526611,"2026-06-30 01:10:00","73108","0.873","166.5","1.339","158.1","1019.981","25.65","79.08","0.0","0.0"],
    [1526612,"2026-06-30 01:20:00","73109","0.23","147.1","0.8170000000000001","142.1","1019.91","25.48","79.11","0.0","0.0"],
    [1526613,"2026-06-30 01:30:00","73110","0.158","319.8","1.176","280.9","1019.705","25.55","77.81","0.0","0.0"],
    [1526614,"2026-06-30 01:40:00","73111","0.638","242.6","1.339","224.1","1019.676","25.95","71.41","0.0","0.0"],
    [1526615,"2026-06-30 01:50:00","73112","0.615","232.0","1.045","223.7","1019.636","26.64","66.29","0.0","0.0"],
    [1526616,"2026-06-30 02:00:00","73113","0.45399999999999996","248.0","0.9470000000000001","229.6","1019.533","26.69","65.94","0.0","0.0"],
    [1526617,"2026-06-30 02:10:00","73114","0.41","248.9","0.653","199.6","1019.416","26.42","67.29","0.0","0.0"],
    [1526618,"2026-06-30 02:20:00","73115","0.518","208.0","0.882","202.3","1019.407","26.28","67.53","0.0","0.0"],
    [1526619,"2026-06-30 02:30:00","73116","0.532","237.7","1.013","227.8","1019.389","26.48","64.54","0.0","0.0"],
    [1526620,"2026-06-30 02:40:00","73117","0.479","230.1","1.339","208.6","1019.378","26.53","63.23","0.0","0.0"],
    [1526621,"2026-06-30 02:50:00","73118","0.9440000000000001","228.5","1.764","242.5","1019.374","26.56","58.18","0.0","0.0"],
    [1526622,"2026-06-30 03:00:00","73119","0.8009999999999999","236.5","1.2409999999999999","229.7","1019.444","26.71","53.48","0.0","0.0"],
    [1526623,"2026-06-30 03:10:00","73120","1.102","247.5","1.764","254.0","1019.403","26.8","52.12","0.0","0.0"],
    [1526624,"2026-06-30 03:20:00","73121","1.078","248.8","1.568","267.0","1019.385","26.81","51.76","0.0","0.0"],
    [1526625,"2026-06-30 03:30:00","73122","0.7290000000000001","239.4","1.209","245.7","1019.462","26.7","52.49","0.0","0.0"],
    [1526626,"2026-06-30 03:40:00","73123","0.961","244.0","1.47","253.8","1019.522","26.76","52.33","0.0","0.0"],
    [1526627,"2026-06-30 03:50:00","73124","0.995","252.3","1.5030000000000001","254.2","1019.527","26.68","52.88","0.0","0.0"],
    [1526628,"2026-06-30 04:00:00","73125","1.113","254.1","1.699","260.0","1019.559","26.61","52.9","0.0","0.0"],
    [1526629,"2026-06-30 04:10:00","73126","1.159","254.9","1.895","254.4","1019.55","26.65","52.5","0.0","0.0"],
    [1526630,"2026-06-30 04:20:00","73127","1.891","264.2","2.287","263.5","1019.495","26.54","53.37","0.0","0.0"],
    [1526631,"2026-06-30 04:30:00","73128","2.008","268.0","2.45","254.8","1019.523","26.38","54.31","0.0","0.0"],
    [1526632,"2026-06-30 04:40:00","73129","1.0959999999999999","280.2","1.9269999999999998","279.2","1019.547","26.34","54.83","0.0","0.0"],
    [1526633,"2026-06-30 04:50:00","73130","1.16","275.5","1.633","288.7","1019.538","26.45","54.29","4.218999999999999","0.0"],
    [1526634,"2026-06-30 05:00:00","73131","1.24","261.7","2.0580000000000003","261.8","1019.544","26.42","54.03","27.75","0.0"],
    [1526635,"2026-06-30 05:10:00","73132","1.7369999999999999","266.3","2.0909999999999997","266.2","1019.544","26.38","53.92","67.06","0.0"],
    [1526636,"2026-06-30 05:20:00","73133","1.58","265.0","1.8619999999999999","271.7","1019.643","26.38","53.81","67.06","0.0"],
    [1526637,"2026-06-30 05:30:00","73134","1.5130000000000001","266.3","1.96","261.1","1019.631","26.62","53.03","110.4","0.0"],
    [1526638,"2026-06-30 05:40:00","73135","1.287","260.1","2.025","270.1","1019.58","27.04","51.28","134.1","0.0"],
    [1526639,"2026-06-30 05:50:00","73136","1.31","260.6","2.613","272.1","1019.615","27.23","50.67","139.7","0.0"],
    [1526640,"2026-06-30 06:00:00","73137","1.472","272.3","2.7110000000000003","285.9","1019.672","27.37","50.57","200.9","0.0"],
    [1526641,"2026-06-30 06:10:00","73138","1.6869999999999998","268.1","2.7439999999999998","253.0","1019.715","27.63","49.39","201.1","0.0"],
    [1526642,"2026-06-30 06:20:00","73139","1.8780000000000001","272.7","3.365","267.8","1019.717","27.81","48.71","251.6","0.0"],
    [1526643,"2026-06-30 06:30:00","73140","2.166","269.4","3.6910000000000003","266.2","1019.71","28.02","47.6","268.1","0.0"],
    [1526644,"2026-06-30 06:40:00","73141","2.411","271.6","3.6910000000000003","276.0","1019.742","28.16","47.21","294.2","0.0"],
    [1526645,"2026-06-30 06:50:00","73142","2.813","275.8","4.181","283.0","1019.735","28.23","47.08","335.1","0.0"],
    [1526646,"2026-06-30 07:00:00","73143","2.4219999999999997","274.7","4.1160000000000005","248.7","1019.732","28.51","46.28","357.6","0.0"],
    [1526647,"2026-06-30 07:10:00","73144","3.3489999999999998","298.1","5.031000000000001","277.3","1019.753","28.32","46.42","402.1","0.0"],
    [1526648,"2026-06-30 07:20:00","73145","2.464","277.0","4.181","308.3","1019.816","28.54","46.17","412.8","0.0"],
    [1526649,"2026-06-30 07:30:00","73146","3.113","294.0","4.737","304.6","1019.834","28.6","46.14","435.6","0.0"],
    [1526650,"2026-06-30 07:40:00","73147","3.3569999999999998","292.0","5.586","282.1","1019.822","28.67","45.86","447.4","0.0"],
    [1526651,"2026-06-30 07:50:00","73148","3.135","291.9","4.181","293.4","1019.79","28.74","45.54","502.6","0.0"],
    [1526652,"2026-06-30 08:00:00","73149","3.344","288.0","5.39","290.7","1019.691","28.95","45.23","510.1","0.0"],
    [1526653,"2026-06-30 08:10:00","73150","3.5860000000000003","290.0","5.455","284.7","1019.648","29.0","44.94","568.7","0.0"],
    [1526654,"2026-06-30 08:20:00","73151","2.716","267.8","4.704","256.7","1019.575","29.6","43.84","569.6","0.0"],
    [1526655,"2026-06-30 08:30:00","73152","2.6180000000000003","279.1","4.2139999999999995","305.4","1019.608","29.81","43.23","619.8","0.0"],
    [1526656,"2026-06-30 08:40:00","73153","2.783","296.3","4.802","296.1","1019.53","29.54","43.86","636.5","0.0"],
    [1526657,"2026-06-30 08:50:00","73154","2.233","279.5","4.312","257.0","1019.425","29.91","43.02","646.3","0.0"],
    [1526658,"2026-06-30 09:00:00","73155","2.888","230.9","5.194","203.8","1019.386","29.51","49.04","698.5","0.0"],
    [1526659,"2026-06-30 09:10:00","73156","4.961","178.8","6.729","184.7","1019.332","27.36","61.36","703.5","0.0"],
    [1526660,"2026-06-30 09:20:00","73157","5.157","186.8","6.925","195.8","1019.283","28.26","54.89","722.5","0.0"],
    [1526661,"2026-06-30 09:30:00","73158","5.132000000000001","184.9","6.337000000000001","192.1","1019.198","28.65","53.51","770.5","0.0"],
    [1526662,"2026-06-30 09:40:00","73159","5.643","184.9","6.697","189.2","1019.163","28.12","56.45","770.6","0.0"],
    [1526663,"2026-06-30 09:50:00","73160","4.973","179.8","6.1739999999999995","190.3","1019.226","28.09","56.96","811.0","0.0"],
    [1526664,"2026-06-30 10:00:00","73161","5.314","178.8","6.7620000000000005","188.1","1019.182","27.91","57.43","838.0","0.0"],
    [1526665,"2026-06-30 10:10:00","73162","5.4879999999999995","180.3","6.664","181.6","1019.049","27.94","58.37","838.0","0.0"],
    [1526666,"2026-06-30 10:20:00","73163","5.647","180.7","6.697","169.1","1018.971","27.92","58.25","838.0","0.0"],
    [1526667,"2026-06-30 10:30:00","73164","5.557","183.6","6.893","183.8","1018.945","27.82","60.72","838.0","0.0"],
    [1526668,"2026-06-30 10:40:00","73165","5.879","185.2","7.023","190.3","1018.948","27.49","62.98","855.0","0.0"],
    [1526669,"2026-06-30 10:50:00","73166","5.865","188.1","6.925","191.1","1018.933","27.52","63.37","901.0","0.0"],
    [1526670,"2026-06-30 11:00:00","73167","6.825","189.3","8.1","191.0","1018.935","27.48","63.43","905.0","0.0"],
    [1526671,"2026-06-30 11:10:00","73168","6.129","187.3","7.742000000000001","188.6","1018.971","27.92","60.41","905.0","0.0"],
    [1526672,"2026-06-30 11:20:00","73169","5.83","184.4","7.579","186.9","1018.933","28.03","61.56","905.0","0.0"],
    [1526673,"2026-06-30 11:30:00","73170","5.947","186.0","7.971","198.0","1018.859","27.91","63.98","905.0","0.0"],
    [1526674,"2026-06-30 11:40:00","73171","6.546","188.6","8.33","185.6","1018.787","28.2","59.65","905.0","0.0"],
    [1526675,"2026-06-30 11:50:00","73172","6.865","188.2","8.4","188.2","1018.753","28.63","52.8","905.0","0.0"],
    [1526676,"2026-06-30 12:00:00","73173","6.152","184.2","8.17","186.1","1018.783","28.62","53.14","905.0","0.0"],
    [1526677,"2026-06-30 12:10:00","73174","6.704","187.8","8.75","189.1","1018.702","28.71","52.66","905.0","0.0"],
    [1526678,"2026-06-30 12:20:00","73175","7.08","188.5","9.57","197.0","1018.535","28.41","56.94","905.0","0.0"],
    [1526679,"2026-06-30 12:30:00","73176","6.702000000000001","189.7","9.08","192.2","1018.362","28.68","53.99","905.0","0.0"],
    [1526680,"2026-06-30 12:40:00","73177","6.191","183.3","8.75","184.4","1018.305","28.68","54.14","905.0","0.0"],
    [1526681,"2026-06-30 12:50:00","73178","6.199","174.3","8.3","183.1","1018.226","28.36","57.49","905.0","0.0"],
    [1526682,"2026-06-30 13:00:00","73179","6.126","170.1","7.807","169.2","1018.171","27.6","59.98","905.0","0.0"],
    [1526683,"2026-06-30 13:10:00","73180","5.865","172.3","8.07","185.9","1018.072","27.59","60.46","905.0","0.0"],
    [1526684,"2026-06-30 13:20:00","73181","6.193","186.4","8.85","199.4","1017.987","28.77","50.72","857.0","0.0"],
    [1526685,"2026-06-30 13:30:00","73182","7.26","189.5","9.05","196.3","1017.967","29.51","47.98","838.0","0.0"],
    [1526686,"2026-06-30 13:40:00","73183","6.496","186.7","8.95","190.9","1017.933","29.01","50.97","838.0","0.0"],
    [1526687,"2026-06-30 13:50:00","73184","6.242999999999999","173.3","7.971","169.2","1018.095","28.0","58.31","838.0","0.0"],
    [1526688,"2026-06-30 14:00:00","73185","6.136","167.6","7.513","162.8","1018.139","27.45","64.14","836.0","0.0"],
    [1526689,"2026-06-30 14:10:00","73186","4.5","171.7","5.422999999999999","173.3","1018.126","26.78","70.83","777.1","0.0"],
    [1526690,"2026-06-30 14:20:00","73187","4.434","171.2","5.39","169.3","1018.069","26.39","74.49","770.6","0.0"],
    [1526691,"2026-06-30 14:30:00","73188","3.94","182.8","5.096","182.1","1018.057","26.9","71.66","749.0","0.0"],
    [1526692,"2026-06-30 14:40:00","73189","3.8310000000000004","169.7","4.737","171.6","1018.087","27.02","72.71","339.5","0.0"],
    [1526693,"2026-06-30 14:50:00","73190","3.272","158.0","3.855","159.6","1018.059","27.05","74.09","743.0","0.0"],
    [1526694,"2026-06-30 15:00:00","73191","4.079","166.0","4.4430000000000005","166.7","1018.026","26.91","73.57","703.6","0.0"],
    [1526695,"2026-06-30 15:10:00","73192","4.399","162.4","4.737","159.5","1018.013","26.76","74.79","659.6","0.0"],
    [1526696,"2026-06-30 15:20:00","73193","4.364","167.7","4.9","174.2","1018.024","26.9","73.73","636.6","0.0"],
    [1526697,"2026-06-30 15:30:00","73194","4.123","160.7","4.769","158.4","1017.955","27.05","73.83","611.5","0.0"],
    [1526698,"2026-06-30 15:40:00","73195","3.786","150.8","4.704","160.1","1017.919","27.2","73.58","569.6","0.0"],
    [1526699,"2026-06-30 15:50:00","73196","3.467","139.8","4.377","126.6","1017.932","27.1","74.02","563.4","0.0"],
    [1526700,"2026-06-30 16:00:00","73197","3.3339999999999996","132.1","3.92","127.2","1017.962","27.3","73.9","502.6","0.0"],
    [1526701,"2026-06-30 16:10:00","73198","3.5469999999999997","138.0","4.2139999999999995","138.6","1017.931","27.36","73.3","502.6","0.0"],
    [1526702,"2026-06-30 16:20:00","73199","3.1919999999999997","132.5","4.083","128.2","1017.992","27.36","73.01","441.8","0.0"],
    [1526703,"2026-06-30 16:30:00","73200","2.804","124.1","3.9530000000000003","127.5","1018.029","27.54","72.04","435.0","0.0"],
    [1526704,"2026-06-30 16:40:00","73201","2.9419999999999997","120.4","3.7889999999999997","120.3","1017.976","27.59","72.92","405.7","0.0"],
    [1526705,"2026-06-30 16:50:00","73202","4.029","114.4","4.737","114.3","1018.051","27.46","74.28","402.1","0.0"],
    [1526706,"2026-06-30 17:00:00","73203","3.405","125.7","4.541","116.1","1018.11","27.36","75.01","353.4","0.0"],
    [1526707,"2026-06-30 17:10:00","73204","3.7489999999999997","132.3","4.377","139.4","1018.064","27.31","75.06","335.1","0.0"],
    [1526708,"2026-06-30 17:20:00","73205","2.864","139.0","4.018","134.6","1018.093","27.19","75.22","287.1","0.0"],
    [1526709,"2026-06-30 17:30:00","73206","3.1039999999999996","131.6","3.887","129.4","1018.096","27.2","74.49","268.0","0.0"],
    [1526710,"2026-06-30 17:40:00","73207","2.698","131.0","3.495","133.8","1018.144","27.36","74.11","208.0","0.0"],
    [1526711,"2026-06-30 17:50:00","73208","2.588","130.5","3.1689999999999996","128.9","1018.136","27.41","74.4","201.0","0.0"],
    [1526712,"2026-06-30 18:00:00","73209","2.635","127.8","3.267","145.1","1018.157","27.36","75.11","171.5","0.0"],
    [1526713,"2026-06-30 18:10:00","73210","2.435","121.8","3.071","129.9","1018.139","27.26","77.06","134.0","0.0"],
    [1526714,"2026-06-30 18:20:00","73211","2.907","127.9","3.6910000000000003","126.6","1018.09","27.24","77.72","131.6","0.0"],
    [1526715,"2026-06-30 18:30:00","73212","2.944","127.2","3.593","128.8","1018.074","27.12","78.78","79.63","0.0"],
    [1526716,"2026-06-30 18:40:00","73213","3.6310000000000002","126.5","4.933","129.4","1018.115","27.11","76.77","67.02","0.0"],
    [1526717,"2026-06-30 18:50:00","73214","3.552","132.6","4.4430000000000005","129.4","1018.2","27.21","76.37","67.03","0.0"],
    [1526718,"2026-06-30 19:00:00","73215","3.167","137.0","3.7239999999999998","132.9","1018.203","26.93","78.75","47.93","0.0"],
    [1526719,"2026-06-30 19:10:00","73216","3.3310000000000004","156.0","4.475","165.6","1018.15","26.92","77.12","0.0","0.0"],
    [1526720,"2026-06-30 19:20:00","73217","2.957","155.0","3.528","158.6","1018.278","26.61","80.8","0.0","0.0"],
    [1526721,"2026-06-30 19:30:00","73218","2.594","147.1","3.071","155.9","1018.498","26.31","80.6","0.0","0.0"],
    [1526722,"2026-06-30 19:40:00","73219","2.582","159.8","2.907","157.2","1018.585","26.65","79.46","0.0","0.0"],
    [1526723,"2026-06-30 19:50:00","73220","1.75","165.2","2.352","165.0","1018.681","26.58","80.3","0.0","0.0"],
    [1526724,"2026-06-30 20:00:00","73221","0.8640000000000001","155.1","1.4369999999999998","139.3","1018.831","26.48","80.4","0.0","0.0"],
    [1526725,"2026-06-30 20:10:00","73222","0.764","130.9","1.143","124.2","1019.037","26.45","82.5","0.0","0.0"],
    [1526726,"2026-06-30 20:20:00","73223","1.008","145.6","1.405","157.3","1019.15","26.41","81.8","0.0","0.0"],
    [1526727,"2026-06-30 20:30:00","73224","1.26","167.8","1.47","171.0","1019.277","26.55","80.7","0.0","0.0"],
    [1526728,"2026-06-30 20:40:00","73225","1.482","164.8","1.8619999999999999","164.1","1019.375","26.45","82.4","0.0","0.0"],
    [1526729,"2026-06-30 20:50:00","73226","1.605","185.8","2.254","181.6","1019.326","26.18","82.4","0.0","0.0"],
    [1526730,"2026-06-30 21:00:00","73227","1.911","186.8","2.7439999999999998","199.1","1019.428","26.19","81.2","0.0","0.0"],
    [1526731,"2026-06-30 21:10:00","73228","1.7590000000000001","183.6","2.7769999999999997","174.2","1019.544","26.24","80.0","0.0","0.0"],
    [1526732,"2026-06-30 21:20:00","73229","1.52","184.6","2.483","180.6","1019.655","26.1","82.0","0.0","0.0"],
    [1526733,"2026-06-30 21:30:00","73230","1.819","201.8","2.417","200.0","1019.7","25.87","81.9","0.0","0.0"],
    [1526734,"2026-06-30 21:40:00","73231","1.641","199.4","2.483","197.6","1019.636","26.17","76.62","0.0","0.0"],
    [1526735,"2026-06-30 21:50:00","73232","1.632","205.9","2.385","199.6","1019.562","26.37","75.83","0.0","0.0"],
    [1526736,"2026-06-30 22:00:00","73233","1.151","209.5","2.613","195.2","1019.57","26.61","72.09","0.0","0.0"],
    [1526737,"2026-06-30 22:10:00","73234","1.0390000000000001","216.4","1.829","177.8","1019.566","27.01","68.83","0.0","0.0"],
    [1526738,"2026-06-30 22:20:00","73235","0.7659999999999999","226.9","2.0580000000000003","254.1","1019.473","27.16","68.18","0.0","0.0"],
    [1526739,"2026-06-30 22:30:00","73236","0.848","215.7","1.895","224.0","1019.369","27.19","68.51","0.0","0.0"],
    [1526740,"2026-06-30 22:40:00","73237","1.002","198.9","2.025","218.3","1019.349","27.05","69.48","0.0","0.0"],
    [1526741,"2026-06-30 22:50:00","73238","1.054","203.8","2.0580000000000003","183.4","1019.25","26.99","70.15","0.0","0.0"],
    [1526742,"2026-06-30 23:00:00","73239","0.589","214.9","1.535","237.2","1019.168","26.99","70.28","0.0","0.0"],
    [1526743,"2026-06-30 23:10:00","73240","1.193","219.3","2.7110000000000003","241.0","1019.173","26.97","70.58","0.0","0.0"],
    [1526744,"2026-06-30 23:20:00","73241","1.609","237.3","3.659","255.8","1019.195","26.94","71.09","0.0","0.0"],
    [1526745,"2026-06-30 23:30:00","73242","1.594","218.9","2.9730000000000003","199.0","1019.15","26.92","72.02","0.0","0.0"],
    [1526746,"2026-06-30 23:40:00","73243","1.936","231.6","3.43","199.1","1019.097","26.84","72.61","0.0","0.0"],
    [1526747,"2026-06-30 23:50:00","73244","1.704","257.3","3.92","263.1","1019.037","26.83","72.69","0.0","0.0"],
    [1526748,"2026-07-01 00:00:00","73245","2.081","264.1","3.7239999999999998","269.7","1019.092","26.79","73.52","0.0","0.0"],
    [1526749,"2026-07-01 00:10:00","73246","2.82","264.8","4.573","267.4","1019.146","26.73","74.83","0.0","0.0"],
    [1526750,"2026-07-01 00:20:00","73247","2.483","259.3","4.247","272.9","1019.074","26.64","75.84","0.0","0.0"],
    [1526751,"2026-07-01 00:30:00","73248","2.845","255.6","4.933","255.3","1018.991","26.58","76.0","0.0","0.0"],
    [1526752,"2026-07-01 00:40:00","73249","2.835","254.2","5.194","259.1","1018.891","26.55","76.0","0.0","0.0"],
    [1526753,"2026-07-01 00:50:00","73250","2.7030000000000003","254.1","4.737","256.9","1018.879","26.56","75.72","0.0","0.0"],
    [1526754,"2026-07-01 01:00:00","73251","2.602","258.5","4.2139999999999995","265.7","1018.847","26.54","75.69","0.0","0.0"],
    [1526755,"2026-07-01 01:10:00","73252","2.957","253.8","5.586","257.2","1018.795","26.54","75.95","0.0","0.0"],
    [1526756,"2026-07-01 01:20:00","73253","2.539","257.6","4.933","259.7","1018.747","26.49","75.44","0.0","0.0"],
    [1526757,"2026-07-01 01:30:00","73254","2.637","266.7","4.606","259.4","1018.763","26.38","74.17","0.0","0.0"],
    [1526758,"2026-07-01 01:40:00","73255","2.6","269.4","3.6260000000000003","266.0","1018.726","26.21","73.51","0.0","0.0"],
    [1526759,"2026-07-01 01:50:00","73256","2.395","267.1","3.463","258.1","1018.673","26.11","73.25","0.0","0.0"],
    [1526760,"2026-07-01 02:00:00","73257","2.331","263.5","3.528","265.5","1018.59","26.11","73.21","0.0","0.0"],
    [1526761,"2026-07-01 02:10:00","73258","2.439","267.1","4.377","268.2","1018.518","26.19","73.22","0.0","0.0"],
    [1526762,"2026-07-01 02:20:00","73259","2.136","265.2","3.659","256.7","1018.549","26.17","72.7","0.0","0.0"],
    [1526763,"2026-07-01 02:30:00","73260","1.585","261.1","2.7769999999999997","259.6","1018.5","26.07","71.45","0.0","0.0"],
    [1526764,"2026-07-01 02:40:00","73261","1.197","267.4","2.7439999999999998","265.8","1018.555","26.01","69.98","0.0","0.0"],
    [1526765,"2026-07-01 02:50:00","73262","1.261","272.2","2.254","261.0","1018.562","26.09","68.25","0.0","0.0"],
    [1526766,"2026-07-01 03:00:00","73263","0.7929999999999999","277.4","1.47","249.4","1018.545","26.16","67.12","0.0","0.0"],
    [1526767,"2026-07-01 03:10:00","73264","1.3619999999999999","263.5","2.123","268.5","1018.472","26.16","66.72","0.0","0.0"],
    [1526768,"2026-07-01 03:20:00","73265","1.368","268.8","1.895","261.8","1018.334","26.1","67.14","0.0","0.0"],
    [1526769,"2026-07-01 03:30:00","73266","1.64","287.2","2.385","281.9","1018.161","26.13","67.45","0.0","0.0"],
    [1526770,"2026-07-01 03:40:00","73267","1.44","289.2","1.993","279.9","1018.067","26.14","67.7","0.0","0.0"],
    [1526771,"2026-07-01 03:50:00","73268","1.297","279.1","2.189","293.5","1018.085","26.02","68.44","0.0","0.0"],
    [1526772,"2026-07-01 04:00:00","73269","1.345","284.5","1.96","281.6","1018.183","25.95","68.9","0.0","0.0"],
    [1526773,"2026-07-01 04:10:00","73270","1.8159999999999998","286.5","2.613","281.5","1018.23","25.96","68.93","0.0","0.0"],
    [1526774,"2026-07-01 04:20:00","73271","3.0439999999999996","287.5","5.39","286.4","1018.25","25.88","67.63","0.0","0.0"],
    [1526775,"2026-07-01 04:30:00","73272","4.758","294.7","7.4479999999999995","300.4","1018.216","25.92","56.26","0.0","0.0"],
    [1526776,"2026-07-01 04:40:00","73273","4.412","280.5","6.305","282.8","1018.226","25.79","52.69","0.0","0.0"],
    [1526777,"2026-07-01 04:50:00","73274","4.16","281.4","6.1739999999999995","275.6","1018.31","25.6","51.65","0.0","0.0"],
    [1526778,"2026-07-01 05:00:00","73275","3.915","287.9","5.619","285.6","1018.336","25.58","51.1","23.61","0.0"],
    [1526779,"2026-07-01 05:10:00","73276","3.2260000000000004","286.3","4.508","285.3","1018.347","25.56","51.12","67.06","0.0"],
    [1526780,"2026-07-01 05:20:00","73277","2.463","286.7","3.5610000000000004","297.3","1018.425","25.62","51.13","67.06","0.0"],
    [1526781,"2026-07-01 05:30:00","73278","2.12","280.2","3.463","281.4","1018.551","25.76","50.03","97.0","0.0"],
    [1526782,"2026-07-01 05:40:00","73279","2.488","270.1","3.43","259.9","1018.567","25.74","48.19","134.1","0.0"],
    [1526783,"2026-07-01 05:50:00","73280","2.745","283.6","3.9530000000000003","280.5","1018.689","25.65","47.74","134.1","0.0"],
    [1526784,"2026-07-01 06:00:00","73281","3.07","286.7","4.181","291.1","1018.886","25.65","47.29","188.7","0.0"],
    [1526785,"2026-07-01 06:10:00","73282","3.23","287.2","4.638999999999999","306.8","1019.05","25.64","47.06","201.1","0.0"],
    [1526786,"2026-07-01 06:20:00","73283","2.8139999999999996","299.4","4.606","297.2","1019.125","25.61","47.81","240.0","0.0"],
    [1526787,"2026-07-01 06:30:00","73284","4.007","313.7","5.945","321.7","1019.123","25.57","48.36","268.1","0.0"],
    [1526788,"2026-07-01 06:40:00","73285","3.1910000000000003","309.3","4.606","315.7","1019.122","25.61","48.99","305.2","0.0"],
    [1526789,"2026-07-01 06:50:00","73286","2.645","288.3","3.855","283.1","1019.192","25.85","47.13","335.2","0.0"],
    [1526790,"2026-07-01 07:00:00","73287","2.443","293.9","3.593","296.1","1019.226","26.17","48.17","346.3","0.0"],
    [1526791,"2026-07-01 07:10:00","73288","1.317","344.3","3.136","300.2","1019.218","26.51","48.39","402.0","0.0"],
    [1526792,"2026-07-01 07:20:00","73289","1.771","17.82","3.5610000000000004","21.55","1019.118","26.64","53.13","412.7","0.0"],
    [1526793,"2026-07-01 07:30:00","73290","2.151","31.42","3.5610000000000004","17.23","1019.05","26.42","55.94","435.6","0.0"],
    [1526794,"2026-07-01 07:40:00","73291","2.033","26.14","2.5810000000000004","35.85","1019.017","26.48","56.08","446.7","0.0"],
    [1526795,"2026-07-01 07:50:00","73292","2.023","24.21","3.332","38.69","1018.978","26.57","56.14","502.6","0.0"],
    [1526796,"2026-07-01 08:00:00","73293","2.218","42.23","3.822","41.74","1019.059","26.52","56.79","502.6","0.0"],
    [1526797,"2026-07-01 08:10:00","73294","2.68","53.94","3.5610000000000004","47.77","1018.964","26.4","61.23","563.9","0.0"],
    [1526798,"2026-07-01 08:20:00","73295","2.556","62.92","3.103","52.72","1018.984","26.28","64.24","569.6","0.0"],
    [1526799,"2026-07-01 08:30:00","73296","2.6310000000000002","67.14","3.397","62.67","1019.028","26.25","65.47","610.2","0.0"],
    [1526800,"2026-07-01 08:40:00","73297","2.903","74.97","4.1160000000000005","75.45","1019.051","26.16","66.2","636.6","0.0"],
    [1526801,"2026-07-01 08:50:00","73298","3.245","71.47","4.312","76.42","1019.057","26.05","69.0","639.9","0.0"],
    [1526802,"2026-07-01 09:00:00","73299","3.5669999999999997","78.6","4.279","84.4","1019.021","25.8","74.37","703.3","0.0"],
    [1526803,"2026-07-01 09:10:00","73300","3.5039999999999996","76.89","4.312","72.46","1019.012","25.7","76.5","703.6","0.0"],
    [1526804,"2026-07-01 09:20:00","73301","3.1260000000000003","78.18","4.018","81.0","1018.946","25.71","77.66","762.6","0.0"],
    [1526805,"2026-07-01 09:30:00","73302","3.529","68.58","4.345","69.43","1018.999","25.78","78.26","770.6","0.0"],
    [1526806,"2026-07-01 09:40:00","73303","3.096","56.14","4.2139999999999995","54.35","1019.032","26.08","75.89","771.1","0.0"],
    [1526807,"2026-07-01 09:50:00","73304","3.991","48.05","4.802","49.6","1018.977","26.08","76.49","812.0","0.0"],
    [1526808,"2026-07-01 10:00:00","73305","4.433","43.07","5.651","40.95","1018.989","26.03","77.85","837.0","0.0"],
    [1526809,"2026-07-01 10:10:00","73306","5.041","44.09","6.729","46.21","1018.969","25.94","78.98","833.0","0.0"],
    [1526810,"2026-07-01 10:20:00","73307","5.499","44.04","6.5329999999999995","40.3","1018.985","26.1","77.17","838.0","0.0"],
    [1526811,"2026-07-01 10:30:00","73308","5.3660000000000005","57.5","7.546","65.33","1019.124","26.22","74.32","894.0","0.0"],
    [1526812,"2026-07-01 10:40:00","73309","5.885","64.38","8.69","66.54","1019.116","26.33","69.84","895.0","0.0"],
    [1526813,"2026-07-01 10:50:00","73310","7.135","72.12","9.24","69.29","1019.006","26.23","70.09","895.0","0.0"],
    [1526814,"2026-07-01 11:00:00","73311","6.812","84.1","9.64","83.1","1019","26.15","71.21","828.0","0.0"],
    [1526815,"2026-07-01 11:10:00","73312","6.587000000000001","91.3","8.33","89.7","1019.006","26.03","71.97","870.0","0.0"],
    [1526816,"2026-07-01 11:20:00","73313","5.982","95.0","8.26","93.4","1019.084","26.0","71.05","898.0","0.0"],
    [1526817,"2026-07-01 11:30:00","73314","5.26","99.9","6.893","94.9","1019.07","26.05","70.73","905.0","0.0"],
    [1526818,"2026-07-01 11:40:00","73315","5.112","103.7","6.729","104.1","1019.043","25.99","72.46","905.0","0.0"],
    [1526819,"2026-07-01 11:50:00","73316","4.382","113.7","6.893","108.4","1018.982","25.98","74.38","905.0","0.0"],
    [1526820,"2026-07-01 12:00:00","73317","5.117","117.8","6.795","115.0","1018.946","25.99","74.93","905.0","0.0"],
    [1526821,"2026-07-01 12:10:00","73318","4.3660000000000005","116.3","6.5329999999999995","107.1","1018.96","25.95","76.0","875.0","0.0"],
    [1526822,"2026-07-01 12:20:00","73319","4.553999999999999","115.1","5.455","112.2","1018.914","26.01","75.63","904.0","0.0"],
    [1526823,"2026-07-01 12:30:00","73320","4.489","113.2","5.455","116.0","1018.808","26.05","74.89","859.0","0.0"],
    [1526824,"2026-07-01 12:40:00","73321","4.38","116.0","5.749","111.8","1018.711","26.06","75.13","885.0","0.0"],
    [1526825,"2026-07-01 12:50:00","73322","4.421","113.7","5.586","113.0","1018.724","26.03","75.5","885.0","0.0"],
    [1526826,"2026-07-01 13:00:00","73323","4.213","111.1","5.129","114.5","1018.662","26.1","76.08","899.0","0.0"],
    [1526827,"2026-07-01 13:10:00","73324","4.335","106.1","5.749","102.9","1018.567","26.19","75.76","904.0","0.0"],
    [1526828,"2026-07-01 13:20:00","73325","4.122","101.2","5.619","105.7","1018.634","26.13","75.74","870.0","0.0"],
    [1526829,"2026-07-01 13:30:00","73326","4.388","95.9","6.011","87.0","1018.574","26.13","76.23","841.0","0.0"],
    [1526830,"2026-07-01 13:40:00","73327","4.232","94.9","5.7170000000000005","102.8","1018.476","26.36","75.4","838.0","0.0"],
    [1526831,"2026-07-01 13:50:00","73328","3.287","97.3","4.279","98.4","1018.442","26.58","72.42","814.0","0.0"],
    [1526832,"2026-07-01 14:00:00","73329","3.8139999999999996","104.4","4.9","116.2","1018.419","26.72","72.95","775.8","0.0"],
    [1526833,"2026-07-01 14:10:00","73330","4.2010000000000005","137.8","4.965","163.6","1018.358","26.43","73.55","750.3","0.0"],
    [1526834,"2026-07-01 14:20:00","73331","4.533","160.3","5.096","164.5","1018.303","25.93","68.74","770.7","0.0"],
    [1526835,"2026-07-01 14:30:00","73332","4.0","164.5","4.606","166.2","1018.297","25.92","68.17","767.4","0.0"],
    [1526836,"2026-07-01 14:40:00","73333","3.352","157.5","3.7889999999999997","162.0","1018.33","25.86","67.95","761.1","0.0"],
    [1526837,"2026-07-01 14:50:00","73334","3.145","155.6","3.5610000000000004","157.6","1018.297","26.15","65.6","691.4","0.0"],
    [1526838,"2026-07-01 15:00:00","73335","2.725","153.1","3.397","149.5","1018.347","26.22","64.85","648.5","0.0"],
    [1526839,"2026-07-01 15:10:00","73336","2.274","150.7","2.7439999999999998","149.8","1018.285","26.25","65.2","576.2","0.0"],
    [1526840,"2026-07-01 15:20:00","73337","2.628","139.6","4.508","123.1","1018.295","26.37","66.21","567.5","0.0"],
    [1526841,"2026-07-01 15:30:00","73338","3.28","140.9","4.181","143.8","1018.272","26.43","68.85","591.6","0.0"],
    [1526842,"2026-07-01 15:40:00","73339","3.781","142.0","4.965","134.4","1018.239","26.22","69.97","542.7","0.0"],
    [1526843,"2026-07-01 15:50:00","73340","3.909","143.8","4.704","137.4","1018.198","26.11","68.15","508.4","0.0"],
    [1526844,"2026-07-01 16:00:00","73341","3.7","146.7","4.508","147.7","1018.154","26.16","65.36","502.0","0.0"],
    [1526845,"2026-07-01 16:10:00","73342","3.1839999999999997","145.7","4.051","133.4","1018.153","26.21","67.58","468.7","0.0"],
    [1526846,"2026-07-01 16:20:00","73343","3.608","148.1","4.704","147.9","1018.157","26.15","69.42","409.9","0.0"],
    [1526847,"2026-07-01 16:30:00","73344","3.489","148.8","4.312","155.9","1018.07","26.06","69.31","244.2","0.0"],
    [1526848,"2026-07-01 16:40:00","73345","3.387","141.9","4.475","133.6","1018.014","26.05","70.31","294.2","0.0"],
    [1526849,"2026-07-01 16:50:00","73346","3.217","145.2","4.4430000000000005","152.6","1017.936","26.07","70.3","346.2","0.0"],
    [1526850,"2026-07-01 17:00:00","73347","3.5660000000000003","151.7","4.377","160.6","1017.979","26.01","70.36","323.3","0.0"],
    [1526851,"2026-07-01 17:10:00","73348","3.6319999999999997","159.6","4.345","169.8","1017.995","25.97","69.65","331.6","0.0"],
    [1526852,"2026-07-01 17:20:00","73349","3.193","149.8","3.985","152.7","1017.938","25.99","70.47","269.8","0.0"],
    [1526853,"2026-07-01 17:30:00","73350","3.45","147.5","4.345","144.3","1017.897","26.0","70.56","253.2","0.0"],
    [1526854,"2026-07-01 17:40:00","73351","2.92","147.1","4.018","153.4","1017.853","25.97","71.63","183.0","0.0"],
    [1526855,"2026-07-01 17:50:00","73352","2.8510000000000004","139.4","3.887","129.1","1017.91","25.92","72.55","134.1","0.0"],
    [1526856,"2026-07-01 18:00:00","73353","2.682","137.4","3.887","123.9","1018.035","25.98","71.2","125.6","0.0"],
    [1526857,"2026-07-01 18:10:00","73354","2.305","137.0","3.234","138.1","1018.16","25.97","71.71","67.87","0.0"],
    [1526858,"2026-07-01 18:20:00","73355","2.6180000000000003","154.1","3.5610000000000004","144.5","1018.219","26.0","70.8","67.04","0.0"],
    [1526859,"2026-07-01 18:30:00","73356","2.256","140.4","2.9730000000000003","135.9","1018.269","25.95","72.26","67.04","0.0"],
    [1526860,"2026-07-01 18:40:00","73357","2.256","143.0","3.136","130.1","1018.418","25.85","72.33","67.04","0.0"],
    [1526861,"2026-07-01 18:50:00","73358","2.7569999999999997","152.5","3.855","150.0","1018.563","25.88","71.26","63.52","0.0"],
    [1526862,"2026-07-01 19:00:00","73359","2.823","149.8","3.659","129.2","1018.671","25.95","71.12","35.17","0.0"],
    [1526863,"2026-07-01 19:10:00","73360","2.432","157.6","2.94","150.0","1018.765","25.91","72.35","0.0","0.0"],
    [1526864,"2026-07-01 19:20:00","73361","2.835","164.7","3.43","159.2","1018.832","25.82","72.17","0.0","0.0"],
    [1526865,"2026-07-01 19:30:00","73362","2.87","173.0","3.7239999999999998","178.5","1018.835","25.88","72.26","0.0","0.0"],
    [1526866,"2026-07-01 19:40:00","73363","2.576","180.4","3.332","175.6","1018.891","25.92","71.82","0.0","0.0"],
    [1526867,"2026-07-01 19:50:00","73364","2.086","180.7","2.679","172.0","1019.085","25.79","71.25","0.0","0.0"],
    [1526868,"2026-07-01 20:00:00","73365","2.23","185.9","2.7769999999999997","193.2","1019.258","25.86","70.45","0.0","0.0"],
    [1526869,"2026-07-01 20:10:00","73366","2.352","186.3","2.875","189.5","1019.371","25.94","68.58","0.0","0.0"],
    [1526870,"2026-07-01 20:20:00","73367","2.4730000000000003","186.6","3.267","196.0","1019.482","26.02","69.2","0.0","0.0"],
    [1526871,"2026-07-01 20:30:00","73368","3.055","188.2","3.7239999999999998","192.1","1019.533","26.04","67.91","0.0","0.0"],
    [1526872,"2026-07-01 20:40:00","73369","2.609","181.8","3.201","192.9","1019.623","26.09","68.06","0.0","0.0"],
    [1526873,"2026-07-01 20:50:00","73370","2.127","181.3","2.7110000000000003","175.4","1019.727","26.04","68.72","0.0","0.0"],
    [1526874,"2026-07-01 21:00:00","73371","2.281","184.0","3.005","195.6","1019.812","26.04","68.13","0.0","0.0"],
    [1526875,"2026-07-01 21:10:00","73372","1.8519999999999999","180.4","2.5810000000000004","175.2","1019.909","25.87","70.13","0.0","0.0"],
    [1526876,"2026-07-01 21:20:00","73373","1.7369999999999999","185.0","2.352","172.7","1019.948","25.79","70.66","0.0","0.0"],
    [1526877,"2026-07-01 21:30:00","73374","1.5959999999999999","204.6","2.123","196.2","1019.948","25.78","71.02","0.0","0.0"],
    [1526878,"2026-07-01 21:40:00","73375","1.284","213.8","2.7110000000000003","205.9","1019.838","25.89","68.83","0.0","0.0"],
    [1526879,"2026-07-01 21:50:00","73376","2.596","255.1","5.031000000000001","258.9","1019.778","26.31","65.1","0.0","0.0"],
    [1526880,"2026-07-01 22:00:00","73377","1.935","265.1","4.573","269.0","1019.737","26.38","62.81","0.0","0.0"],
    [1526881,"2026-07-01 22:10:00","73378","1.6769999999999998","280.4","2.94","263.7","1019.889","26.38","61.56","0.0","0.0"],
    [1526882,"2026-07-01 22:20:00","73379","1.581","296.0","2.548","307.8","1019.997","26.39","60.96","0.0","0.0"],
    [1526883,"2026-07-01 22:30:00","73380","1.9269999999999998","296.6","2.7110000000000003","301.3","1019.898","26.34","59.55","0.0","0.0"],
    [1526884,"2026-07-01 22:40:00","73381","2.329","287.7","3.103","279.2","1019.802","26.4","58.68","0.0","0.0"],
    [1526885,"2026-07-01 22:50:00","73382","2.381","280.2","3.855","293.6","1019.745","26.45","58.33","0.0","0.0"],
    [1526886,"2026-07-01 23:00:00","73383","2.258","285.6","3.43","271.8","1019.627","26.44","58.64","0.0","0.0"],
    [1526887,"2026-07-01 23:10:00","73384","2.296","288.4","3.7239999999999998","287.0","1019.64","26.32","59.1","0.0","0.0"],
    [1526888,"2026-07-01 23:20:00","73385","2.137","287.3","3.6260000000000003","284.0","1019.639","26.25","58.87","0.0","0.0"],
    [1526889,"2026-07-01 23:30:00","73386","1.284","288.9","2.548","283.1","1019.643","26.24","58.61","0.0","0.0"],
    [1526890,"2026-07-01 23:40:00","73387","0.688","280.0","1.5030000000000001","285.3","1019.646","26.23","58.03","0.0","0.0"],
    [1526891,"2026-07-01 23:50:00","73388","0.228","275.5","0.9470000000000001","306.4","1019.622","26.17","58.27","0.0","0.0"],
    [1526892,"2026-07-02 00:00:00","73389","0.009000000000000001","269.1","0.392","264.7","1019.666","26.01","59.45","0.0","0.0"],
    [1526893,"2026-07-02 00:10:00","73390","0.125","220.3","0.7190000000000001","204.9","1019.681","25.69","60.41","0.0","0.0"],
    [1526894,"2026-07-02 00:20:00","73391","0.799","199.0","1.143","203.0","1019.594","25.73","60.91","0.0","0.0"],
    [1526895,"2026-07-02 00:30:00","73392","0.6859999999999999","235.6","1.307","258.9","1019.536","25.66","61.8","0.0","0.0"],
    [1526896,"2026-07-02 00:40:00","73393","0.8390000000000001","243.2","1.568","219.4","1019.653","25.84","60.06","0.0","0.0"],
    [1526897,"2026-07-02 00:50:00","73394","0.72","265.2","1.176","274.0","1019.614","25.78","60.63","0.0","0.0"],
    [1526898,"2026-07-02 01:00:00","73395","0.341","267.3","1.045","264.7","1019.555","25.65","60.89","0.0","0.0"],
    [1526899,"2026-07-02 01:10:00","73396","0.61","280.6","2.221","281.0","1019.501","25.42","61.81","0.0","0.0"],
    [1526900,"2026-07-02 01:20:00","73397","1.348","269.2","1.829","282.3","1019.446","25.46","61.31","0.0","0.0"],
    [1526901,"2026-07-02 01:30:00","73398","1.247","257.6","1.8619999999999999","258.9","1019.481","25.45","60.77","0.0","0.0"],
    [1526902,"2026-07-02 01:40:00","73399","1.1740000000000002","258.4","1.5030000000000001","253.3","1019.426","25.6","59.95","0.0","0.0"],
    [1526903,"2026-07-02 01:50:00","73400","1.706","261.7","2.385","261.1","1019.437","25.54","60.41","0.0","0.0"],
    [1526904,"2026-07-02 02:00:00","73401","1.709","274.9","3.201","289.0","1019.366","25.52","60.38","0.0","0.0"],
    [1526905,"2026-07-02 02:10:00","73402","2.892","291.1","4.737","315.0","1019.351","25.63","60.81","0.0","0.0"],
    [1526906,"2026-07-02 02:20:00","73403","3.715","294.7","5.619","292.1","1019.359","25.48","61.73","0.0","0.0"],
    [1526907,"2026-07-02 02:30:00","73404","4.079","287.5","5.553","281.4","1019.394","25.33","61.33","0.0","0.0"],
    [1526908,"2026-07-02 02:40:00","73405","3.3139999999999996","288.1","4.606","286.0","1019.335","25.24","60.54","0.0","0.0"],
    [1526909,"2026-07-02 02:50:00","73406","3.4010000000000002","295.3","4.769","303.6","1019.28","25.11","58.94","0.0","0.0"],
    [1526910,"2026-07-02 03:00:00","73407","3.5810000000000004","294.8","5.1610000000000005","301.2","1019.253","25.02","57.18","0.0","0.0"],
    [1526911,"2026-07-02 03:10:00","73408","3.0239999999999996","285.0","3.985","292.6","1019.272","24.94","55.15","0.0","0.0"],
    [1526912,"2026-07-02 03:20:00","73409","2.7739999999999996","282.7","4.051","283.1","1019.314","24.92","53.47","0.0","0.0"],
    [1526913,"2026-07-02 03:30:00","73410","2.727","290.1","3.6910000000000003","275.8","1019.359","24.9","52.47","0.0","0.0"],
    [1526914,"2026-07-02 03:40:00","73411","2.7910000000000004","295.0","3.9530000000000003","284.7","1019.257","24.78","50.82","0.0","0.0"],
    [1526915,"2026-07-02 03:50:00","73412","1.992","282.1","2.907","301.1","1019.201","24.59","49.89","0.0","0.0"],
    [1526916,"2026-07-02 04:00:00","73413","2.0069999999999997","277.5","2.7769999999999997","289.9","1019.215","24.43","49.28","0.0","0.0"],
    [1526917,"2026-07-02 04:10:00","73414","2.51","299.9","3.1689999999999996","303.1","1019.182","24.42","48.64","0.0","0.0"],
    [1526918,"2026-07-02 04:20:00","73415","2.455","303.2","7.317","311.6","1019.287","24.41","48.31","0.0","0.0"],
    [1526919,"2026-07-02 04:30:00","73416","4.037","316.5","6.272","323.0","1019.307","24.49","46.72","0.0","0.0"],
    [1526920,"2026-07-02 04:40:00","73417","4.238","305.2","6.631","322.4","1019.356","24.45","46.39","0.0","0.0"],
    [1526921,"2026-07-02 04:50:00","73418","1.704","279.8","3.7569999999999997","292.8","1019.464","24.23","47.07","0.0","0.0"],
    [1526922,"2026-07-02 05:00:00","73419","3.719","309.6","6.5329999999999995","321.0","1019.496","24.03","47.94","0.0","0.0"],
    [1526923,"2026-07-02 05:10:00","73420","2.952","297.0","6.011","318.0","1019.538","24.02","47.24","48.29","0.0"],
    [1526924,"2026-07-02 05:20:00","73421","2.813","287.2","3.855","276.1","1019.498","23.96","47.0","67.07","0.0"],
    [1526925,"2026-07-02 05:30:00","73422","1.899","272.3","2.875","287.2","1019.517","23.92","47.29","104.8","0.0"],
    [1526926,"2026-07-02 05:40:00","73423","2.041","277.3","2.907","276.0","1019.447","23.97","47.17","134.1","0.0"],
    [1526927,"2026-07-02 05:50:00","73424","1.9509999999999998","270.8","3.234","268.5","1019.436","24.0","47.24","140.9","0.0"],
    [1526928,"2026-07-02 06:00:00","73425","2.8169999999999997","277.6","3.92","256.9","1019.449","23.92","46.88","200.8","0.0"],
    [1526929,"2026-07-02 06:10:00","73426","1.973","272.0","3.201","275.1","1019.465","24.02","46.92","201.2","0.0"],
    [1526930,"2026-07-02 06:20:00","73427","2.069","275.4","2.94","280.7","1019.518","24.12","46.31","251.0","0.0"],
    [1526931,"2026-07-02 06:30:00","73428","2.3569999999999998","281.6","3.495","299.9","1019.626","24.24","45.72","268.2","0.0"],
    [1526932,"2026-07-02 06:40:00","73429","2.289","274.3","3.463","285.2","1019.63","24.36","45.31","296.0","0.0"],
    [1526933,"2026-07-02 06:50:00","73430","2.0140000000000002","289.3","2.842","285.2","1019.717","24.51","44.66","335.2","0.0"],
    [1526934,"2026-07-02 07:00:00","73431","1.3359999999999999","286.9","2.254","280.2","1019.726","24.66","44.38","349.4","0.0"],
    [1526935,"2026-07-02 07:10:00","73432","2.2969999999999997","284.2","3.593","290.2","1019.655","24.91","43.51","402.2","0.0"],
    [1526936,"2026-07-02 07:20:00","73433","2.218","279.4","3.299","281.1","1019.723","25.25","43.04","417.1","0.0"],
    [1526937,"2026-07-02 07:30:00","73434","2.62","286.9","4.018","281.6","1019.794","25.3","42.4","435.7","0.0"],
    [1526938,"2026-07-02 07:40:00","73435","2.9419999999999997","281.2","4.965","262.8","1019.824","25.63","41.53","446.2","0.0"],
    [1526939,"2026-07-02 07:50:00","73436","3.235","271.6","4.867","284.6","1019.93","25.95","40.16","499.1","0.0"],
    [1526940,"2026-07-02 08:00:00","73437","3.9939999999999998","279.0","5.357","290.6","1020.041","25.86","39.67","521.3","0.0"],
    [1526941,"2026-07-02 08:10:00","73438","3.19","285.8","4.867","287.0","1020.052","25.88","40.01","569.6","0.0"],
    [1526942,"2026-07-02 08:20:00","73439","2.687","293.0","3.92","283.5","1020.068","26.16","39.27","572.6","0.0"],
    [1526943,"2026-07-02 08:30:00","73440","2.141","291.5","3.6910000000000003","293.0","1020.073","26.5","38.17","628.7","0.0"],
    [1526944,"2026-07-02 08:40:00","73441","2.512","292.7","3.855","275.8","1020.019","26.88","37.11","636.8","0.0"],
    [1526945,"2026-07-02 08:50:00","73442","1.5030000000000001","322.9","2.842","305.6","1019.927","26.86","37.71","681.6","0.0"],
    [1526946,"2026-07-02 09:00:00","73443","0.825","64.58","1.699","36.03","1019.947","26.96","38.07","703.6","0.0"],
    [1526947,"2026-07-02 09:10:00","73444","1.5919999999999999","102.7","3.005","105.2","1019.942","26.93","40.41","708.2","0.0"],
    [1526948,"2026-07-02 09:20:00","73445","2.092","139.0","3.005","109.4","1019.882","26.61","42.02","761.9","0.0"],
    [1526949,"2026-07-02 09:30:00","73446","2.911","145.1","3.593","142.3","1019.72","26.47","43.89","770.6","0.0"],
    [1526950,"2026-07-02 09:40:00","73447","3.205","152.6","3.92","151.4","1019.66","26.53","42.09","784.4","0.0"],
    [1526951,"2026-07-02 09:50:00","73448","4.0","149.4","4.737","145.1","1019.668","26.5","44.73","830.0","0.0"],
    [1526952,"2026-07-02 10:00:00","73449","4.387","142.0","5.586","144.8","1019.719","26.14","46.99","838.0","0.0"],
    [1526953,"2026-07-02 10:10:00","73450","3.5439999999999996","145.3","4.4430000000000005","147.8","1019.648","26.38","45.29","838.0","0.0"],
    [1526954,"2026-07-02 10:20:00","73451","4.101","140.9","4.704","137.3","1019.675","26.52","42.82","838.0","0.0"],
    [1526955,"2026-07-02 10:30:00","73452","4.55","163.6","5.684","163.3","1019.666","26.17","48.56","850.0","0.0"],
    [1526956,"2026-07-02 10:40:00","73453","5.917999999999999","170.8","6.795","172.2","1019.639","25.69","54.21","887.0","0.0"],
    [1526957,"2026-07-02 10:50:00","73454","5.002","182.1","6.1739999999999995","173.7","1019.637","25.61","56.8","905.0","0.0"],
    [1526958,"2026-07-02 11:00:00","73455","5.843999999999999","189.1","6.957999999999999","187.5","1019.657","25.62","56.95","905.0","0.0"],
    [1526959,"2026-07-02 11:10:00","73456","5.699","177.3","6.957999999999999","175.3","1019.69","25.73","54.71","905.0","0.0"],
    [1526960,"2026-07-02 11:20:00","73457","5.466","181.8","6.599","195.8","1019.714","25.79","53.2","905.0","0.0"],
    [1526961,"2026-07-02 11:30:00","73458","5.943","168.2","6.664","168.4","1019.642","25.3","60.05","905.0","0.0"],
    [1526962,"2026-07-02 11:40:00","73459","4.882","175.6","6.042999999999999","178.5","1019.62","25.23","62.13","905.0","0.0"],
    [1526963,"2026-07-02 11:50:00","73460","5.1739999999999995","170.5","5.815","172.7","1019.64","25.16","61.96","905.0","0.0"],
    [1526964,"2026-07-02 12:00:00","73461","5.122999999999999","172.0","5.88","173.2","1019.707","25.19","62.83","905.0","0.0"],
    [1526965,"2026-07-02 12:10:00","73462","5.303","173.2","6.141","171.0","1019.635","25.44","59.49","905.0","0.0"],
    [1526966,"2026-07-02 12:20:00","73463","5.261","170.8","5.815","167.1","1019.621","25.14","62.67","905.0","0.0"],
    [1526967,"2026-07-02 12:30:00","73464","4.962","173.1","5.912999999999999","174.6","1019.55","25.22","61.07","905.0","0.0"],
    [1526968,"2026-07-02 12:40:00","73465","5.1979999999999995","170.3","5.88","171.1","1019.484","25.32","59.86","905.0","0.0"],
    [1526969,"2026-07-02 12:50:00","73466","4.966","172.3","5.684","175.8","1019.385","25.43","59.68","905.0","0.0"],
    [1526970,"2026-07-02 13:00:00","73467","5.101","169.6","5.847","172.5","1019.301","25.41","59.2","905.0","0.0"],
    [1526971,"2026-07-02 13:10:00","73468","5.147","166.1","5.586","165.8","1019.295","25.51","58.65","905.0","0.0"],
    [1526972,"2026-07-02 13:20:00","73469","5.121","164.0","5.88","161.8","1019.227","25.58","58.45","904.0","0.0"],
    [1526973,"2026-07-02 13:30:00","73470","5.172000000000001","162.5","5.88","169.3","1019.22","25.76","57.51","888.0","0.0"],
    [1526974,"2026-07-02 13:40:00","73471","4.314","171.9","5.782","172.5","1019.243","25.76","61.63","839.0","0.0"],
    [1526975,"2026-07-02 13:50:00","73472","4.515","173.7","5.39","174.2","1019.22","25.92","59.57","838.0","0.0"],
    [1526976,"2026-07-02 14:00:00","73473","4.6","173.0","6.011","172.0","1019.062","25.9","59.92","838.0","0.0"],
    [1526977,"2026-07-02 14:10:00","73474","4.324","167.1","5.194","173.4","1019.092","25.91","58.38","804.0","0.0"],
    [1526978,"2026-07-02 14:20:00","73475","4.258","167.6","4.704","163.6","1019.056","26.1","56.81","770.9","0.0"],
    [1526979,"2026-07-02 14:30:00","73476","3.9210000000000003","179.9","4.737","175.1","1018.935","26.16","56.22","770.9","0.0"],
    [1526980,"2026-07-02 14:40:00","73477","4.237","170.6","5.357","171.7","1018.81","26.15","57.6","731.1","0.0"],
    [1526981,"2026-07-02 14:50:00","73478","4.187","177.1","5.1610000000000005","174.5","1018.748","25.99","58.65","703.7","0.0"],
    [1526982,"2026-07-02 15:00:00","73479","4.2139999999999995","175.4","5.619","174.4","1018.657","26.13","57.05","703.6","0.0"],
    [1526983,"2026-07-02 15:10:00","73480","4.485","169.1","5.2589999999999995","170.8","1018.698","26.15","57.61","648.0","0.0"],
    [1526984,"2026-07-02 15:20:00","73481","4.535","170.6","5.39","176.9","1018.688","26.11","58.36","636.6","0.0"],
    [1526985,"2026-07-02 15:30:00","73482","4.6530000000000005","172.3","5.4879999999999995","172.7","1018.752","26.38","55.62","606.2","0.0"],
    [1526986,"2026-07-02 15:40:00","73483","4.645","173.9","5.586","172.9","1018.64","26.55","53.45","569.6","0.0"],
    [1526987,"2026-07-02 15:50:00","73484","4.979","171.2","6.011","174.3","1018.599","26.46","55.61","548.1","0.0"],
    [1526988,"2026-07-02 16:00:00","73485","5.148","170.7","5.978","172.9","1018.498","26.29","58.06","502.6","0.0"],
    [1526989,"2026-07-02 16:10:00","73486","4.735","181.3","6.109","187.7","1018.383","26.49","59.1","501.0","0.0"],
    [1526990,"2026-07-02 16:20:00","73487","4.965","182.4","6.435","190.8","1018.287","26.57","59.6","438.7","0.0"],
    [1526991,"2026-07-02 16:30:00","73488","5.084","182.2","6.599","170.9","1018.306","26.79","58.25","435.6","0.0"],
    [1526992,"2026-07-02 16:40:00","73489","5.018","180.6","6.37","175.1","1018.322","26.69","58.77","405.7","0.0"],
    [1526993,"2026-07-02 16:50:00","73490","5.232","181.3","6.664","177.3","1018.385","26.72","59.21","402.1","0.0"],
    [1526994,"2026-07-02 17:00:00","73491","4.842","182.4","6.207000000000001","185.5","1018.469","26.72","59.78","354.7","0.0"],
    [1526995,"2026-07-02 17:10:00","73492","5.146","181.9","6.86","196.3","1018.441","26.68","57.79","335.1","0.0"],
    [1526996,"2026-07-02 17:20:00","73493","5.46","187.4","7.513","189.9","1018.468","27.26","50.31","294.3","0.0"],
    [1526997,"2026-07-02 17:30:00","73494","4.961","181.0","6.599","185.8","1018.56","26.97","54.91","268.1","0.0"],
    [1526998,"2026-07-02 17:40:00","73495","4.543","179.5","6.011","185.3","1018.654","26.46","59.24","229.2","0.0"],
    [1526999,"2026-07-02 17:50:00","73496","4.632","185.1","6.0760000000000005","189.5","1018.717","26.68","56.12","201.1","0.0"],
    [1527000,"2026-07-02 18:00:00","73497","4.138","183.7","5.031000000000001","184.9","1018.756","26.73","57.07","174.7","0.0"],
    [1527001,"2026-07-02 18:10:00","73498","4.243","186.5","5.782","190.9","1018.878","26.63","57.0","134.1","0.0"],
    [1527002,"2026-07-02 18:20:00","73499","4.444","192.9","5.88","205.3","1018.939","26.92","53.56","134.1","0.0"],
    [1527003,"2026-07-02 18:30:00","73500","4.542","199.3","6.599","194.6","1019.013","27.22","52.96","96.1","0.0"],
    [1527004,"2026-07-02 18:40:00","73501","4.637","200.3","6.501","195.0","1019.014","27.15","54.6","67.04","0.0"],
    [1527005,"2026-07-02 18:50:00","73502","3.735","205.1","5.325","203.3","1019.045","27.21","55.93","67.04","0.0"],
    [1527006,"2026-07-02 19:00:00","73503","4.276","202.9","6.7620000000000005","186.7","1019.107","27.22","54.47","51.73","0.0"],
    [1527007,"2026-07-02 19:10:00","73504","3.7230000000000003","209.1","6.468","200.3","1019.172","27.26","53.57","0.0","0.0"],
    [1527008,"2026-07-02 19:20:00","73505","2.425","220.7","4.247","192.0","1019.301","27.23","54.67","0.0","0.0"],
    [1527009,"2026-07-02 19:30:00","73506","3.273","205.9","5.553","195.3","1019.386","26.81","57.05","0.0","0.0"],
    [1527010,"2026-07-02 19:40:00","73507","3.4139999999999997","214.0","5.39","206.6","1019.348","26.75","58.0","0.0","0.0"],
    [1527011,"2026-07-02 19:50:00","73508","3.2960000000000003","210.3","5.1610000000000005","213.3","1019.347","26.68","60.33","0.0","0.0"],
    [1527012,"2026-07-02 20:00:00","73509","2.434","212.5","4.051","199.7","1019.407","26.59","59.51","0.0","0.0"],
    [1527013,"2026-07-02 20:10:00","73510","1.6740000000000002","227.6","2.907","223.0","1019.528","26.56","59.9","0.0","0.0"],
    [1527014,"2026-07-02 20:20:00","73511","2.182","238.9","4.802","255.0","1019.63","26.65","59.43","0.0","0.0"],
    [1527015,"2026-07-02 20:30:00","73512","2.439","245.3","4.9","275.2","1019.709","26.74","56.69","0.0","0.0"],
    [1527016,"2026-07-02 20:40:00","73513","3.505","248.7","6.37","275.6","1019.762","26.98","51.16","0.0","0.0"],
    [1527017,"2026-07-02 20:50:00","73514","3.138","248.1","5.586","263.6","1019.809","26.99","51.11","0.0","0.0"],
    [1527018,"2026-07-02 21:00:00","73515","2.617","252.2","4.475","269.9","1019.854","26.83","51.18","0.0","0.0"],
    [1527019,"2026-07-02 21:10:00","73516","2.468","241.6","5.031000000000001","224.6","1019.91","26.87","48.47","0.0","0.0"],
    [1527020,"2026-07-02 21:20:00","73517","2.219","245.3","3.887","237.7","1019.925","26.91","47.1","0.0","0.0"],
    [1527021,"2026-07-02 21:30:00","73518","1.485","257.3","2.679","232.4","1019.959","26.92","47.65","0.0","0.0"],
    [1527022,"2026-07-02 21:40:00","73519","1.694","280.0","2.8089999999999997","269.6","1020.017","26.86","48.65","0.0","0.0"],
    [1527023,"2026-07-02 21:50:00","73520","1.494","261.6","2.5810000000000004","261.2","1020.005","26.78","48.18","0.0","0.0"],
    [1527024,"2026-07-02 22:00:00","73521","1.5","263.5","2.6460000000000004","262.1","1020.058","26.66","48.02","0.0","0.0"],
    [1527025,"2026-07-02 22:10:00","73522","1.379","275.4","2.548","283.2","1020.132","26.6","48.56","0.0","0.0"],
    [1527026,"2026-07-02 22:20:00","73523","1.568","276.8","2.6460000000000004","289.2","1020.254","26.79","46.92","0.0","0.0"],
    [1527027,"2026-07-02 22:30:00","73524","1.57","264.5","2.907","281.7","1020.319","26.79","45.45","0.0","0.0"],
    [1527028,"2026-07-02 22:40:00","73525","2.302","287.0","3.365","292.8","1020.34","26.94","43.25","0.0","0.0"],
    [1527029,"2026-07-02 22:50:00","73526","2.178","288.7","3.201","282.9","1020.349","26.99","41.97","0.0","0.0"],
    [1527030,"2026-07-02 23:00:00","73527","2.414","285.3","3.822","288.5","1020.363","27.06","41.19","0.0","0.0"],
    [1527031,"2026-07-02 23:10:00","73528","2.475","295.1","3.463","300.7","1020.479","27.11","40.15","0.0","0.0"],
    [1527032,"2026-07-02 23:20:00","73529","1.89","291.6","2.907","288.3","1020.473","27.1","39.3","0.0","0.0"],
    [1527033,"2026-07-02 23:30:00","73530","1.765","292.4","2.7769999999999997","282.1","1020.447","27.14","38.44","0.0","0.0"],
    [1527034,"2026-07-02 23:40:00","73531","1.784","291.1","2.254","313.5","1020.412","27.14","38.06","0.0","0.0"],
    [1527035,"2026-07-02 23:50:00","73532","2.09","280.0","2.7439999999999998","296.0","1020.309","27.06","38.14","0.0","0.0"],
    [1527036,"2026-07-03 00:00:00","73533","1.9069999999999998","272.1","2.9730000000000003","279.5","1020.219","26.91","37.8","0.0","0.0"],
    [1527037,"2026-07-03 00:10:00","73534","1.4369999999999998","255.3","2.548","256.9","1020.138","26.89","37.86","0.0","0.0"],
    [1527038,"2026-07-03 00:20:00","73535","1.475","269.7","2.254","263.8","1020.132","26.72","38.21","0.0","0.0"],
    [1527039,"2026-07-03 00:30:00","73536","1.063","272.9","1.993","295.2","1020.087","26.5","39.47","0.0","0.0"],
    [1527040,"2026-07-03 00:40:00","73537","1.219","258.1","1.9269999999999998","272.4","1020.036","26.29","40.07","0.0","0.0"],
    [1527041,"2026-07-03 00:50:00","73538","1.038","258.0","1.993","255.7","1019.975","26.35","39.2","0.0","0.0"],
    [1527042,"2026-07-03 01:00:00","73539","1.3419999999999999","263.9","1.797","255.6","1019.873","26.35","38.88","0.0","0.0"],
    [1527043,"2026-07-03 01:10:00","73540","0.5479999999999999","272.7","1.3719999999999999","263.5","1019.857","26.23","41.06","0.0","0.0"],
    [1527044,"2026-07-03 01:20:00","73541","0.35100000000000003","189.7","0.8170000000000001","207.9","1019.817","25.85","40.4","0.0","0.0"],
    [1527045,"2026-07-03 01:30:00","73542","0.003","348.8","0.261","354.8","1019.851","25.96","39.5","0.0","0.0"],
    [1527046,"2026-07-03 01:40:00","73543","0.244","273.9","0.8490000000000001","266.7","1019.815","25.92","40.02","0.0","0.0"],
    [1527047,"2026-07-03 01:50:00","73544","0.9620000000000001","268.4","1.405","268.0","1019.799","26.06","38.77","0.0","0.0"],
    [1527048,"2026-07-03 02:00:00","73545","1.244","256.2","1.829","260.4","1019.801","26.14","37.98","0.0","0.0"],
    [1527049,"2026-07-03 02:10:00","73546","1.064","259.4","1.568","242.9","1019.773","26.25","38.0","0.0","0.0"],
    [1527050,"2026-07-03 02:20:00","73547","0.7040000000000001","268.9","1.274","264.3","1019.693","25.93","41.55","0.0","0.0"],
    [1527051,"2026-07-03 02:30:00","73548","0.508","300.7","1.143","301.6","1019.704","25.55","44.05","0.0","0.0"],
    [1527052,"2026-07-03 02:40:00","73549","0.601","304.0","1.2409999999999999","296.0","1019.726","25.48","43.07","0.0","0.0"],
    [1527053,"2026-07-03 02:50:00","73550","0.608","24.07","1.209","287.6","1019.69","25.45","45.28","0.0","0.0"],
    [1527054,"2026-07-03 03:00:00","73551","0.556","1.926","0.8490000000000001","62.08","1019.725","25.6","42.48","0.0","0.0"],
    [1527055,"2026-07-03 03:10:00","73552","0.927","293.6","1.274","287.7","1019.649","25.85","41.55","0.0","0.0"],
    [1527056,"2026-07-03 03:20:00","73553","0.147","289.9","0.7509999999999999","270.0","1019.606","25.53","44.11","0.0","0.0"],
    [1527057,"2026-07-03 03:30:00","73554","0.29","5.142","0.9470000000000001","53.92","1019.715","25.4","45.53","0.0","0.0"],
    [1527058,"2026-07-03 03:40:00","73555","1.238","64.15","2.0909999999999997","55.88","1019.742","25.34","56.8","0.0","0.0"],
    [1527059,"2026-07-03 03:50:00","73556","1.6969999999999998","65.46","2.287","68.84","1019.736","25.21","63.93","0.0","0.0"],
    [1527060,"2026-07-03 04:00:00","73557","1.6219999999999999","64.93","2.352","53.35","1019.798","25.02","64.88","0.0","0.0"],
    [1527061,"2026-07-03 04:10:00","73558","0.61","54.22","1.339","41.1","1019.865","24.79","62.39","0.0","0.0"],
    [1527062,"2026-07-03 04:20:00","73559","1.4909999999999999","43.18","2.417","44.53","1019.917","24.56","60.5","0.0","0.0"],
    [1527063,"2026-07-03 04:30:00","73560","1.426","21.82","1.9269999999999998","31.74","1019.95","24.51","55.45","0.0","0.0"],
    [1527064,"2026-07-03 04:40:00","73561","1.242","27.03","2.156","42.23","1020.102","24.54","54.17","0.0","0.0"],
    [1527065,"2026-07-03 04:50:00","73562","1.7180000000000002","43.32","2.319","32.64","1020.15","25.03","49.88","20.54","0.0"],
    [1527066,"2026-07-03 05:00:00","73563","3.535","39.05","4.573","33.82","1020.18","25.06","49.48","67.07","0.0"],
    [1527067,"2026-07-03 05:10:00","73564","3.5580000000000003","27.14","4.377","30.81","1020.276","24.78","50.74","67.07","0.0"],
    [1527068,"2026-07-03 05:20:00","73565","2.81","27.05","3.7569999999999997","32.62","1020.362","25.0","48.86","65.78","0.0"],
    [1527069,"2026-07-03 05:30:00","73566","2.127","28.8","2.7439999999999998","29.46","1020.485","25.25","47.13","114.3","0.0"],
    [1527070,"2026-07-03 05:40:00","73567","2.285","36.39","3.5610000000000004","42.67","1020.527","25.59","46.16","134.1","0.0"],
    [1527071,"2026-07-03 05:50:00","73568","2.707","20.54","3.6260000000000003","23.02","1020.61","25.48","48.98","149.9","0.0"],
    [1527072,"2026-07-03 06:00:00","73569","2.826","12.73","3.9530000000000003","13.99","1020.769","25.52","50.65","201.2","0.0"],
    [1527073,"2026-07-03 06:10:00","73570","3.429","10.88","4.377","12.95","1020.822","25.46","52.4","202.0","0.0"],
    [1527074,"2026-07-03 06:20:00","73571","2.6860000000000004","8.77","3.7569999999999997","16.51","1020.877","25.52","53.12","263.5","0.0"],
    [1527075,"2026-07-03 06:30:00","73572","2.45","3.9789999999999996","3.855","352.3","1020.943","25.88","50.63","268.2","0.0"],
    [1527076,"2026-07-03 06:40:00","73573","2.3930000000000002","22.24","3.495","15.71","1021.036","26.24","48.5","322.2","0.0"],
    [1527077,"2026-07-03 06:50:00","73574","3.0460000000000003","12.69","3.593","17.14","1021.028","26.31","49.24","335.2","0.0"],
    [1527078,"2026-07-03 07:00:00","73575","1.265","16.96","2.5810000000000004","10.66","1021.062","26.66","48.4","381.3","0.0"],
    [1527079,"2026-07-03 07:10:00","73576","0.359","2.327","1.111","23.9","1021.131","27.36","45.43","402.2","0.0"],
    [1527080,"2026-07-03 07:20:00","73577","0.595","91.2","1.307","74.05","1021.262","27.56","45.54","422.3","0.0"],
    [1527081,"2026-07-03 07:30:00","73578","1.117","138.1","3.332","180.7","1021.279","27.35","45.45","435.6","0.0"],
    [1527082,"2026-07-03 07:40:00","73579","0.9","124.0","2.842","183.6","1021.4","27.52","45.61","473.2","0.0"],
    [1527083,"2026-07-03 07:50:00","73580","1.013","135.7","1.764","132.0","1021.486","27.42","47.92","502.6","0.0"],
    [1527084,"2026-07-03 08:00:00","73581","2.122","148.3","3.267","145.8","1021.541","27.06","47.71","537.2","0.0"],
    [1527085,"2026-07-03 08:10:00","73582","1.95","149.7","2.7110000000000003","167.0","1021.621","27.36","44.52","569.6","0.0"],
    [1527086,"2026-07-03 08:20:00","73583","3.693","162.7","4.475","165.1","1021.591","26.84","51.77","585.6","0.0"],
    [1527087,"2026-07-03 08:30:00","73584","4.265","171.7","4.835","177.6","1021.569","26.56","56.48","636.6","0.0"],
    [1527088,"2026-07-03 08:40:00","73585","5.391","170.5","7.0889999999999995","177.6","1021.558","26.27","61.78","643.8","0.0"],
    [1527089,"2026-07-03 08:50:00","73586","4.215","166.1","5.292000000000001","170.9","1021.68","26.22","61.74","703.5","0.0"],
    [1527090,"2026-07-03 09:00:00","73587","3.928","175.0","5.1610000000000005","182.0","1021.829","26.16","61.89","703.6","0.0"],
    [1527091,"2026-07-03 09:10:00","73588","4.248","180.7","5.39","181.6","1021.881","26.14","63.17","735.9","0.0"],
    [1527092,"2026-07-03 09:20:00","73589","3.983","180.2","4.835","180.8","1021.942","26.17","63.73","770.6","0.0"],
    [1527093,"2026-07-03 09:30:00","73590","4.569","179.3","5.586","177.0","1021.932","26.1","65.85","770.6","0.0"],
    [1527094,"2026-07-03 09:40:00","73591","4.917","183.2","5.978","182.4","1021.94","26.1","67.17","809.0","0.0"],
    [1527095,"2026-07-03 09:50:00","73592","4.766","175.7","6.207000000000001","172.1","1022.031","26.18","67.63","838.0","0.0"],
    [1527096,"2026-07-03 10:00:00","73593","4.888","186.4","6.141","188.7","1022.098","26.19","68.19","838.0","0.0"],
    [1527097,"2026-07-03 10:10:00","73594","5.202000000000001","189.8","6.664","192.7","1022.132","26.09","68.5","838.0","0.0"],
    [1527098,"2026-07-03 10:20:00","73595","5.864","190.0","7.187","194.8","1022.115","25.98","69.15","853.0","0.0"],
    [1527099,"2026-07-03 10:30:00","73596","6.1770000000000005","188.8","7.872999999999999","185.2","1022.073","26.05","68.86","904.0","0.0"],
    [1527100,"2026-07-03 10:40:00","73597","6.055","187.6","8.0","185.4","1022.067","26.05","69.33","905.0","0.0"],
    [1527101,"2026-07-03 10:50:00","73598","6.686","189.5","8.4","197.5","1022.019","26.13","69.13","905.0","0.0"],
    [1527102,"2026-07-03 11:00:00","73599","6.732","188.7","8.72","194.0","1022.046","26.24","68.58","905.0","0.0"],
    [1527103,"2026-07-03 11:10:00","73600","6.159","187.8","8.46","206.0","1022.116","26.31","68.83","905.0","0.0"],
    [1527104,"2026-07-03 11:20:00","73601","6.2989999999999995","184.4","8.79","177.0","1022.172","26.32","68.54","905.0","0.0"],
    [1527105,"2026-07-03 11:30:00","73602","6.483","186.4","8.69","195.5","1022.181","26.34","68.76","905.0","0.0"],
    [1527106,"2026-07-03 11:40:00","73603","5.956","184.2","7.905","186.8","1022.122","26.32","69.26","905.0","0.0"],
    [1527107,"2026-07-03 11:50:00","73604","6.061","181.5","8.56","171.2","1022.069","26.37","68.97","905.0","0.0"],
    [1527108,"2026-07-03 12:00:00","73605","6.143","185.1","8.04","188.1","1022.027","26.41","68.96","905.0","0.0"],
    [1527109,"2026-07-03 12:10:00","73606","6.167000000000001","185.2","9.21","186.4","1021.966","26.42","68.78","905.0","0.0"],
    [1527110,"2026-07-03 12:20:00","73607","6.035","187.1","8.43","190.8","1021.988","26.47","68.33","905.0","0.0"],
    [1527111,"2026-07-03 12:30:00","73608","5.936","185.9","9.64","191.3","1021.929","26.39","68.71","905.0","0.0"],
    [1527112,"2026-07-03 12:40:00","73609","6.3389999999999995","184.3","8.82","189.8","1021.799","26.4","68.4","905.0","0.0"],
    [1527113,"2026-07-03 12:50:00","73610","6.846","187.0","9.47","201.3","1021.719","26.4","67.99","905.0","0.0"],
    [1527114,"2026-07-03 13:00:00","73611","6.068","184.0","7.938","186.1","1021.739","26.46","67.98","905.0","0.0"],
    [1527115,"2026-07-03 13:10:00","73612","6.125","184.9","8.1","185.6","1021.714","26.43","68.1","905.0","0.0"],
    [1527116,"2026-07-03 13:20:00","73613","6.082000000000001","184.9","8.33","194.2","1021.692","26.5","67.48","905.0","0.0"],
    [1527117,"2026-07-03 13:30:00","73614","6.2010000000000005","183.1","8.0","189.6","1021.661","26.49","67.2","900.0","0.0"],
    [1527118,"2026-07-03 13:40:00","73615","6.263999999999999","183.2","8.82","188.3","1021.655","26.41","67.69","838.0","0.0"],
    [1527119,"2026-07-03 13:50:00","73616","6.2410000000000005","186.8","8.3","190.9","1021.607","26.47","66.98","838.0","0.0"],
    [1527120,"2026-07-03 14:00:00","73617","6.195","189.7","7.84","189.3","1021.595","26.46","65.66","838.0","0.0"],
    [1527121,"2026-07-03 14:10:00","73618","6.317","185.5","8.59","191.2","1021.452","26.55","64.57","809.0","0.0"],
    [1527122,"2026-07-03 14:20:00","73619","5.968","185.0","8.1","184.7","1021.351","26.65","62.69","770.9","0.0"],
    [1527123,"2026-07-03 14:30:00","73620","5.976","187.5","8.17","192.9","1021.303","26.7","61.22","770.9","0.0"],
    [1527124,"2026-07-03 14:40:00","73621","5.4670000000000005","189.8","7.611000000000001","191.7","1021.308","26.85","58.7","754.3","0.0"],
    [1527125,"2026-07-03 14:50:00","73622","5.083","188.9","7.644","192.7","1021.259","26.78","58.44","703.8","0.0"],
    [1527126,"2026-07-03 15:00:00","73623","4.883","188.6","6.893","185.2","1021.235","26.75","60.51","703.7","0.0"],
    [1527127,"2026-07-03 15:10:00","73624","5.497000000000001","191.6","8.07","211.9","1021.198","26.58","61.02","659.4","0.0"],
    [1527128,"2026-07-03 15:20:00","73625","4.398","200.5","6.272","196.8","1021.171","26.96","58.92","636.6","0.0"],
    [1527129,"2026-07-03 15:30:00","73626","4.931","195.6","8.2","212.3","1021.131","27.12","57.52","627.2","0.0"],
    [1527130,"2026-07-03 15:40:00","73627","5.042","187.5","8.1","198.5","1021.074","26.69","60.48","569.6","0.0"],
    [1527131,"2026-07-03 15:50:00","73628","5.367999999999999","180.7","7.023","174.9","1020.985","26.37","63.15","569.3","0.0"],
    [1527132,"2026-07-03 16:00:00","73629","5.271","185.8","6.893","191.6","1020.972","26.34","63.92","509.3","0.0"],
    [1527133,"2026-07-03 16:10:00","73630","5.083","184.1","6.86","189.0","1020.936","26.29","63.78","502.6","0.0"],
    [1527134,"2026-07-03 16:20:00","73631","5.044","179.5","6.86","170.1","1020.924","26.31","63.64","442.4","0.0"],
    [1527135,"2026-07-03 16:30:00","73632","5.113","178.9","6.7620000000000005","186.2","1020.89","26.26","63.52","435.6","0.0"],
    [1527136,"2026-07-03 16:40:00","73633","4.935","183.1","6.697","189.0","1020.857","26.27","63.49","410.8","0.0"],
    [1527137,"2026-07-03 16:50:00","73634","4.865","186.3","7.023","187.7","1020.886","26.45","61.59","402.1","0.0"],
    [1527138,"2026-07-03 17:00:00","73635","4.213","193.1","6.468","201.7","1020.918","26.59","61.7","365.9","0.0"],
    [1527139,"2026-07-03 17:10:00","73636","4.8","182.3","6.141","186.1","1020.925","26.5","62.93","335.1","0.0"],
    [1527140,"2026-07-03 17:20:00","73637","4.953","178.8","6.631","168.8","1020.943","26.16","66.15","303.1","0.0"],
    [1527141,"2026-07-03 17:30:00","73638","4.888999999999999","183.0","6.435","190.8","1021.001","26.19","64.72","268.1","0.0"],
    [1527142,"2026-07-03 17:40:00","73639","4.96","183.3","6.697","185.4","1021.152","26.28","63.25","241.1","0.0"],
    [1527143,"2026-07-03 17:50:00","73640","4.489","186.3","6.0760000000000005","175.5","1021.304","26.25","65.28","201.1","0.0"],
    [1527144,"2026-07-03 18:00:00","73641","4.3839999999999995","197.9","5.978","192.5","1021.431","26.27","64.29","188.8","0.0"],
    [1527145,"2026-07-03 18:10:00","73642","5.004","202.7","7.35","200.9","1021.499","26.69","57.94","134.1","0.0"],
    [1527146,"2026-07-03 18:20:00","73643","4.452","206.4","6.435","212.4","1021.569","26.67","58.67","134.1","0.0"],
    [1527147,"2026-07-03 18:30:00","73644","4.434","207.4","6.925","210.5","1021.649","26.66","59.76","98.2","0.0"],
    [1527148,"2026-07-03 18:40:00","73645","4.246","209.9","6.664","227.4","1021.681","26.71","59.68","67.04","0.0"],
    [1527149,"2026-07-03 18:50:00","73646","3.8680000000000003","200.4","6.631","195.1","1021.775","26.54","61.16","67.04","0.0"],
    [1527150,"2026-07-03 19:00:00","73647","3.648","211.0","6.1739999999999995","210.7","1021.784","26.54","62.24","53.57","0.0"],
    [1527151,"2026-07-03 19:10:00","73648","3.36","213.3","5.88","229.5","1021.911","26.5","63.41","0.0","0.0"],
    [1527152,"2026-07-03 19:20:00","73649","3.154","216.7","5.422999999999999","228.4","1021.985","26.42","64.7","0.0","0.0"],
    [1527153,"2026-07-03 19:30:00","73650","2.475","236.0","4.018","217.8","1022.082","26.35","65.16","0.0","0.0"],
    [1527154,"2026-07-03 19:40:00","73651","2.242","245.2","3.7569999999999997","265.1","1022.169","26.29","64.49","0.0","0.0"],
    [1527155,"2026-07-03 19:50:00","73652","2.354","251.6","3.7569999999999997","261.2","1022.274","26.3","64.59","0.0","0.0"],
    [1527156,"2026-07-03 20:00:00","73653","2.37","240.6","4.312","263.0","1022.374","26.26","64.07","0.0","0.0"],
    [1527157,"2026-07-03 20:10:00","73654","2.334","237.6","4.312","263.1","1022.503","26.33","64.42","0.0","0.0"],
    [1527158,"2026-07-03 20:20:00","73655","2.1790000000000003","241.0","3.887","262.3","1022.639","26.35","64.86","0.0","0.0"],
    [1527159,"2026-07-03 20:30:00","73656","2.9739999999999998","245.8","4.9","256.5","1022.754","26.3","64.65","0.0","0.0"],
    [1527160,"2026-07-03 20:40:00","73657","2.4859999999999998","244.4","4.312","252.2","1022.957","26.24","64.37","0.0","0.0"],
    [1527161,"2026-07-03 20:50:00","73658","2.688","244.8","4.312","222.1","1023.069","26.17","64.77","0.0","0.0"],
    [1527162,"2026-07-03 21:00:00","73659","2.9160000000000004","243.7","4.377","264.1","1023.125","26.13","64.85","0.0","0.0"],
    [1527163,"2026-07-03 21:10:00","73660","2.7880000000000003","246.3","5.455","232.8","1023.164","26.16","64.9","0.0","0.0"],
    [1527164,"2026-07-03 21:20:00","73661","2.843","247.6","4.541","262.0","1023.149","26.1","65.54","0.0","0.0"],
    [1527165,"2026-07-03 21:30:00","73662","3.032","240.7","5.4879999999999995","224.5","1023.159","26.1","64.04","0.0","0.0"],
    [1527166,"2026-07-03 21:40:00","73663","2.506","239.9","5.031000000000001","230.2","1023.108","26.1","62.74","0.0","0.0"],
    [1527167,"2026-07-03 21:50:00","73664","2.667","240.5","5.2589999999999995","268.3","1023.075","26.16","60.91","0.0","0.0"],
    [1527168,"2026-07-03 22:00:00","73665","2.015","241.8","3.7569999999999997","232.0","1023.085","26.25","59.14","0.0","0.0"],
    [1527169,"2026-07-03 22:10:00","73666","1.985","251.8","3.887","271.2","1023.112","26.26","56.65","0.0","0.0"],
    [1527170,"2026-07-03 22:20:00","73667","1.865","252.2","4.083","263.1","1023.118","26.32","50.33","0.0","0.0"],
    [1527171,"2026-07-03 22:30:00","73668","2.229","268.3","4.4430000000000005","274.3","1023.217","26.47","47.25","0.0","0.0"],
    [1527172,"2026-07-03 22:40:00","73669","2.886","292.1","4.802","290.6","1023.257","26.41","48.16","0.0","0.0"],
    [1527173,"2026-07-03 22:50:00","73670","2.544","290.9","4.345","287.7","1023.191","26.47","48.19","0.0","0.0"],
    [1527174,"2026-07-03 23:00:00","73671","2.193","277.1","3.299","280.1","1023.19","26.51","47.94","0.0","0.0"],
    [1527175,"2026-07-03 23:10:00","73672","1.3559999999999999","268.6","2.6460000000000004","268.2","1023.172","26.45","48.22","0.0","0.0"],
    [1527176,"2026-07-03 23:20:00","73673","1.4269999999999998","268.4","2.123","264.1","1023.159","26.32","48.18","0.0","0.0"],
    [1527177,"2026-07-03 23:30:00","73674","1.466","273.2","2.254","268.4","1023.08","26.32","47.76","0.0","0.0"],
    [1527178,"2026-07-03 23:40:00","73675","1.165","266.4","1.829","270.2","1023.038","26.3","47.5","0.0","0.0"],
    [1527179,"2026-07-03 23:50:00","73676","0.892","249.4","1.8619999999999999","258.3","1022.942","26.21","47.64","0.0","0.0"],
    [1527180,"2026-07-04 00:00:00","73677","1.204","256.4","2.221","264.5","1022.896","26.22","46.9","0.0","0.0"],
    [1527181,"2026-07-04 00:10:00","73678","1.123","253.3","2.189","251.4","1022.858","26.2","47.04","0.0","0.0"],
    [1527182,"2026-07-04 00:20:00","73679","1.131","240.5","2.287","234.5","1022.811","26.15","47.2","0.0","0.0"],
    [1527183,"2026-07-04 00:30:00","73680","1.115","240.3","1.8619999999999999","231.6","1022.806","26.03","48.17","0.0","0.0"],
    [1527184,"2026-07-04 00:40:00","73681","1.165","247.1","1.895","275.3","1022.759","25.86","49.54","0.0","0.0"],
    [1527185,"2026-07-04 00:50:00","73682","1.157","231.2","1.96","226.7","1022.735","25.7","50.42","0.0","0.0"],
    [1527186,"2026-07-04 01:00:00","73683","1.436","234.4","2.613","218.2","1022.712","25.71","50.78","0.0","0.0"],
    [1527187,"2026-07-04 01:10:00","73684","1.213","237.4","1.993","250.1","1022.7","25.59","52.36","0.0","0.0"],
    [1527188,"2026-07-04 01:20:00","73685","1.093","240.2","1.993","251.6","1022.652","25.43","53.27","0.0","0.0"],
    [1527189,"2026-07-04 01:30:00","73686","0.966","237.5","1.829","236.2","1022.655","25.44","53.5","0.0","0.0"],
    [1527190,"2026-07-04 01:40:00","73687","0.927","254.0","1.764","252.4","1022.664","25.43","53.43","0.0","0.0"],
    [1527191,"2026-07-04 01:50:00","73688","1.036","257.8","1.601","266.8","1022.687","25.5","52.75","0.0","0.0"],
    [1527192,"2026-07-04 02:00:00","73689","0.76","249.4","1.405","249.5","1022.681","25.58","52.03","0.0","0.0"],
    [1527193,"2026-07-04 02:10:00","73690","0.43","242.3","1.143","234.1","1022.688","25.63","51.7","0.0","0.0"],
    [1527194,"2026-07-04 02:20:00","73691","0.527","223.6","0.98","272.7","1022.689","25.63","51.9","0.0","0.0"],
    [1527195,"2026-07-04 02:30:00","73692","0.485","227.6","1.045","227.8","1022.678","25.57","52.32","0.0","0.0"],
    [1527196,"2026-07-04 02:40:00","73693","0.8140000000000001","232.9","1.633","264.7","1022.669","25.61","51.58","0.0","0.0"],
    [1527197,"2026-07-04 02:50:00","73694","0.662","241.7","1.568","267.0","1022.681","25.68","51.5","0.0","0.0"],
    [1527198,"2026-07-04 03:00:00","73695","0.39299999999999996","250.0","1.045","258.8","1022.645","25.6","51.84","0.0","0.0"],
    [1527199,"2026-07-04 03:10:00","73696","0.893","263.6","1.764","261.3","1022.638","25.39","53.8","0.0","0.0"],
    [1527200,"2026-07-04 03:20:00","73697","1.272","256.3","1.699","262.5","1022.642","25.15","56.34","0.0","0.0"],
    [1527201,"2026-07-04 03:30:00","73698","0.636","245.9","1.176","254.3","1022.711","24.96","57.29","0.0","0.0"],
    [1527202,"2026-07-04 03:40:00","73699","1.083","259.5","1.601","257.2","1022.764","24.82","58.18","0.0","0.0"],
    [1527203,"2026-07-04 03:50:00","73700","0.917","252.2","1.5030000000000001","260.4","1022.774","24.63","58.08","0.0","0.0"],
    [1527204,"2026-07-04 04:00:00","73701","0.8640000000000001","244.1","1.339","239.4","1022.761","24.55","57.9","0.0","0.0"],
    [1527205,"2026-07-04 04:10:00","73702","1.472","258.2","2.123","267.1","1022.729","24.56","57.78","0.0","0.0"],
    [1527206,"2026-07-04 04:20:00","73703","1.599","260.6","2.189","245.4","1022.729","24.53","58.0","0.0","0.0"],
    [1527207,"2026-07-04 04:30:00","73704","1.7009999999999998","258.0","2.385","257.9","1022.78","24.55","58.16","0.0","0.0"],
    [1527208,"2026-07-04 04:40:00","73705","2.157","264.1","3.071","273.3","1022.849","24.64","57.79","0.0","0.0"],
    [1527209,"2026-07-04 04:50:00","73706","2.331","272.3","3.5610000000000004","277.1","1022.889","24.65","57.14","0.0","0.0"],
    [1527210,"2026-07-04 05:00:00","73707","1.879","271.4","3.332","280.8","1022.908","24.84","55.89","46.5","0.0"],
    [1527211,"2026-07-04 05:10:00","73708","0.919","282.4","1.895","263.2","1022.989","24.82","54.47","67.07","0.0"],
    [1527212,"2026-07-04 05:20:00","73709","1.0090000000000001","280.3","2.0909999999999997","290.3","1023.012","25.12","53.2","67.06","0.0"],
    [1527213,"2026-07-04 05:30:00","73710","1.24","256.9","2.221","271.6","1023.11","25.14","51.37","83.2","0.0"],
    [1527214,"2026-07-04 05:40:00","73711","0.8959999999999999","262.4","1.666","261.2","1023.195","25.3","50.2","134.1","0.0"],
    [1527215,"2026-07-04 05:50:00","73712","0.8109999999999999","245.3","1.633","250.1","1023.23","25.4","48.82","134.1","0.0"],
    [1527216,"2026-07-04 06:00:00","73713","0.736","254.8","1.568","266.0","1023.248","25.52","48.41","170.0","0.0"],
    [1527217,"2026-07-04 06:10:00","73714","0.995","259.6","1.568","275.2","1023.267","25.76","47.62","201.1","0.0"],
    [1527218,"2026-07-04 06:20:00","73715","1.028","282.6","1.633","255.0","1023.264","25.89","47.27","234.1","0.0"],
    [1527219,"2026-07-04 06:30:00","73716","0.965","262.1","1.633","238.4","1023.292","26.09","46.75","268.1","0.0"],
    [1527220,"2026-07-04 06:40:00","73717","0.445","200.3","1.045","217.7","1023.369","26.47","46.58","287.1","0.0"],
    [1527221,"2026-07-04 06:50:00","73718","1.443","112.1","2.287","104.4","1023.327","25.95","54.51","335.1","0.0"],
    [1527222,"2026-07-04 07:00:00","73719","1.861","106.9","2.254","104.1","1023.384","25.15","61.56","355.6","0.0"],
    [1527223,"2026-07-04 07:10:00","73720","1.9969999999999999","91.9","2.5810000000000004","92.6","1023.472","25.16","58.75","402.1","0.0"],
    [1527224,"2026-07-04 07:20:00","73721","1.966","91.1","2.417","97.9","1023.584","25.38","56.34","406.6","0.0"],
    [1527225,"2026-07-04 07:30:00","73722","1.796","111.0","2.417","122.0","1023.628","25.45","57.04","435.6","0.0"],
    [1527226,"2026-07-04 07:40:00","73723","2.055","130.4","2.483","121.4","1023.677","25.36","57.49","445.1","0.0"],
    [1527227,"2026-07-04 07:50:00","73724","2.222","125.2","2.7769999999999997","121.0","1023.672","25.46","56.85","502.6","0.0"],
    [1527228,"2026-07-04 08:00:00","73725","2.042","148.9","2.9730000000000003","155.8","1023.664","25.53","58.68","506.9","0.0"],
    [1527229,"2026-07-04 08:10:00","73726","2.003","145.9","2.483","139.5","1023.632","25.31","59.57","568.3","0.0"],
    [1527230,"2026-07-04 08:20:00","73727","1.6059999999999999","132.7","2.45","165.8","1023.586","25.85","52.34","569.6","0.0"],
    [1527231,"2026-07-04 08:30:00","73728","1.963","124.0","2.842","103.1","1023.607","26.09","50.72","618.2","0.0"],
    [1527232,"2026-07-04 08:40:00","73729","1.954","137.8","2.45","151.1","1023.592","26.07","53.29","636.6","0.0"],
    [1527233,"2026-07-04 08:50:00","73730","2.077","114.7","3.005","96.0","1023.609","25.75","55.29","654.5","0.0"],
    [1527234,"2026-07-04 09:00:00","73731","2.1790000000000003","117.8","3.103","117.5","1023.635","25.94","54.84","703.4","0.0"],
    [1527235,"2026-07-04 09:10:00","73732","2.33","109.9","2.875","119.4","1023.618","25.78","56.37","710.0","0.0"],
    [1527236,"2026-07-04 09:20:00","73733","2.5660000000000003","108.7","3.5610000000000004","100.2","1023.636","25.91","54.72","768.5","0.0"],
    [1527237,"2026-07-04 09:30:00","73734","2.67","113.3","3.593","105.6","1023.677","25.68","59.69","770.6","0.0"],
    [1527238,"2026-07-04 09:40:00","73735","2.6910000000000003","118.3","3.659","115.3","1023.708","25.58","61.87","770.7","0.0"],
    [1527239,"2026-07-04 09:50:00","73736","2.544","122.3","3.332","117.4","1023.693","25.47","63.99","802.0","0.0"],
    [1527240,"2026-07-04 10:00:00","73737","2.372","125.8","3.267","131.4","1023.649","25.49","63.67","838.0","0.0"],
    [1527241,"2026-07-04 10:10:00","73738","2.387","143.2","2.907","140.6","1023.639","25.57","60.0","838.0","0.0"],
    [1527242,"2026-07-04 10:20:00","73739","2.069","156.6","2.548","147.3","1023.614","25.74","58.71","838.0","0.0"],
    [1527243,"2026-07-04 10:30:00","73740","2.62","177.3","3.495","193.6","1023.531","25.61","61.61","838.0","0.0"],
    [1527244,"2026-07-04 10:40:00","73741","3.305","175.0","3.9530000000000003","170.5","1023.484","25.63","62.81","851.0","0.0"],
    [1527245,"2026-07-04 10:50:00","73742","4.091","167.1","5.325","175.9","1023.402","25.69","62.89","899.0","0.0"],
    [1527246,"2026-07-04 11:00:00","73743","4.7","178.2","5.7170000000000005","176.1","1023.358","25.76","66.39","905.0","0.0"],
    [1527247,"2026-07-04 11:10:00","73744","4.857","176.9","5.88","175.0","1023.301","25.82","68.95","905.0","0.0"],
    [1527248,"2026-07-04 11:20:00","73745","5.022","174.2","5.978","171.0","1023.218","25.72","72.08","905.0","0.0"],
    [1527249,"2026-07-04 11:30:00","73746","4.9","180.9","6.042999999999999","172.4","1023.171","26.48","60.12","905.0","0.0"],
    [1527250,"2026-07-04 11:40:00","73747","4.84","182.2","6.239","184.2","1023.088","26.28","68.33","905.0","0.0"],
    [1527251,"2026-07-04 11:50:00","73748","5.3420000000000005","183.6","7.121","183.3","1022.969","26.37","68.98","905.0","0.0"],
    [1527252,"2026-07-04 12:00:00","73749","5.289","181.4","6.7620000000000005","188.4","1022.885","26.41","66.19","905.0","0.0"],
    [1527253,"2026-07-04 12:10:00","73750","5.59","188.1","8.59","187.4","1022.79","26.89","61.21","905.0","0.0"],
    [1527254,"2026-07-04 12:20:00","73751","5.752000000000001","189.1","7.6770000000000005","198.9","1022.761","27.04","60.94","906.0","0.0"],
    [1527255,"2026-07-04 12:30:00","73752","5.9910000000000005","186.8","7.872999999999999","193.9","1022.643","26.84","60.13","910.0","0.0"],
    [1527256,"2026-07-04 12:40:00","73753","6.2860000000000005","191.6","8.82","194.8","1022.493","26.93","59.09","905.0","0.0"],
    [1527257,"2026-07-04 12:50:00","73754","7.763","192.6","11.17","191.6","1022.368","27.26","53.53","905.0","0.0"],
    [1527258,"2026-07-04 13:00:00","73755","7.09","201.4","10.16","194.0","1022.329","27.64","51.61","905.0","0.0"],
    [1527259,"2026-07-04 13:10:00","73756","6.817","207.7","11.24","202.9","1022.222","28.01","49.27","905.0","0.0"],
    [1527260,"2026-07-04 13:20:00","73757","8.08","200.3","11.01","197.3","1022.045","27.88","50.7","905.0","0.0"],
    [1527261,"2026-07-04 13:30:00","73758","7.831","199.2","10.49","202.8","1021.916","27.83","53.18","905.0","0.0"],
    [1527262,"2026-07-04 13:40:00","73759","6.836","198.7","9.9","197.5","1021.893","27.97","53.78","861.0","0.0"],
    [1527263,"2026-07-04 13:50:00","73760","7.059","202.0","11.34","196.7","1021.88","28.09","52.32","838.0","0.0"],
    [1527264,"2026-07-04 14:00:00","73761","6.486000000000001","212.8","11.47","194.2","1021.966","28.48","47.11","838.0","0.0"],
    [1527265,"2026-07-04 14:10:00","73762","6.905","204.2","11.53","198.7","1021.843","28.63","46.06","830.0","0.0"],
    [1527266,"2026-07-04 14:20:00","73763","5.781000000000001","211.2","9.41","199.7","1021.812","28.79","45.76","781.3","0.0"],
    [1527267,"2026-07-04 14:30:00","73764","5.436","216.1","9.41","202.4","1021.788","28.92","45.5","770.6","0.0"],
    [1527268,"2026-07-04 14:40:00","73765","4.909","215.2","8.0","196.2","1021.801","29.04","46.92","767.1","0.0"],
    [1527269,"2026-07-04 14:50:00","73766","5.733","212.9","8.75","202.7","1021.806","28.68","49.85","710.6","0.0"],
    [1527270,"2026-07-04 15:00:00","73767","5.688","217.2","9.77","218.2","1021.807","28.59","51.01","703.6","0.0"],
    [1527271,"2026-07-04 15:10:00","73768","5.585","217.1","8.92","226.6","1021.735","28.53","50.93","676.3","0.0"],
    [1527272,"2026-07-04 15:20:00","73769","5.761","220.7","10.52","218.8","1021.706","28.61","51.03","636.6","0.0"],
    [1527273,"2026-07-04 15:30:00","73770","5.946000000000001","217.6","10.09","221.8","1021.646","28.7","49.1","633.0","0.0"],
    [1527274,"2026-07-04 15:40:00","73771","5.754","219.6","10.42","230.4","1021.671","28.71","46.09","576.4","0.0"],
    [1527275,"2026-07-04 15:50:00","73772","5.0569999999999995","213.3","8.72","198.8","1021.64","29.07","46.18","569.6","0.0"],
    [1527276,"2026-07-04 16:00:00","73773","5.165","213.5","8.49","225.9","1021.65","28.92","47.31","515.8","0.0"],
    [1527277,"2026-07-04 16:10:00","73774","5.147","214.9","8.79","235.5","1021.581","28.83","48.51","502.6","0.0"],
    [1527278,"2026-07-04 16:20:00","73775","4.3660000000000005","215.3","6.957999999999999","209.9","1021.544","28.93","48.14","454.9","0.0"],
    [1527279,"2026-07-04 16:30:00","73776","4.81","220.8","9.77","217.7","1021.555","28.98","47.36","435.6","0.0"],
    [1527280,"2026-07-04 16:40:00","73777","4.087","216.5","7.938","227.9","1021.552","28.88","48.98","418.4","0.0"],
    [1527281,"2026-07-04 16:50:00","73778","5.256","218.9","8.69","223.5","1021.477","28.77","47.46","402.0","0.0"],
    [1527282,"2026-07-04 17:00:00","73779","5.25","220.1","8.95","217.9","1021.494","28.75","47.86","376.0","0.0"],
    [1527283,"2026-07-04 17:10:00","73780","4.749","215.2","7.513","214.9","1021.496","28.63","50.42","335.1","0.0"],
    [1527284,"2026-07-04 17:20:00","73781","5.394","219.3","9.21","224.7","1021.551","28.54","50.62","310.9","0.0"],
    [1527285,"2026-07-04 17:30:00","73782","5.445","221.7","9.38","219.5","1021.617","28.42","50.06","268.0","0.0"],
    [1527286,"2026-07-04 17:40:00","73783","4.006","222.2","7.0889999999999995","217.3","1021.716","28.65","47.37","236.9","0.0"],
    [1527287,"2026-07-04 17:50:00","73784","3.9210000000000003","216.8","7.546","228.9","1021.707","28.76","46.76","201.0","0.0"],
    [1527288,"2026-07-04 18:00:00","73785","4.357","207.3","6.925","220.3","1021.681","28.56","47.85","188.8","0.0"],
    [1527289,"2026-07-04 18:10:00","73786","4.406000000000001","221.8","7.84","217.1","1021.732","28.77","43.83","134.0","0.0"],
    [1527290,"2026-07-04 18:20:00","73787","3.594","214.2","6.011","231.1","1021.727","28.65","46.88","134.0","0.0"],
    [1527291,"2026-07-04 18:30:00","73788","4.601","219.5","8.23","236.8","1021.768","28.67","45.4","101.6","0.0"],
    [1527292,"2026-07-04 18:40:00","73789","4.04","218.4","7.513","231.2","1021.791","28.73","44.45","67.01","0.0"],
    [1527293,"2026-07-04 18:50:00","73790","4.021","217.3","7.84","221.2","1021.856","28.53","45.68","67.01","0.0"],
    [1527294,"2026-07-04 19:00:00","73791","3.98","216.1","6.501","222.6","1021.903","28.41","46.51","58.47","0.0"],
    [1527295,"2026-07-04 19:10:00","73792","3.502","218.6","6.501","217.6","1021.926","28.36","47.23","0.0","0.0"],
    [1527296,"2026-07-04 19:20:00","73793","3.576","221.6","6.501","223.2","1021.947","28.3","46.87","0.0","0.0"],
    [1527297,"2026-07-04 19:30:00","73794","2.832","234.8","5.651","226.5","1021.973","28.29","46.1","0.0","0.0"],
    [1527298,"2026-07-04 19:40:00","73795","2.932","237.4","4.835","232.2","1022.042","28.22","44.62","0.0","0.0"],
    [1527299,"2026-07-04 19:50:00","73796","2.381","236.4","4.508","266.2","1022.063","28.08","46.9","0.0","0.0"],
    [1527300,"2026-07-04 20:00:00","73797","3.237","242.5","5.129","271.5","1022.111","27.89","48.13","0.0","0.0"],
    [1527301,"2026-07-04 20:10:00","73798","3.108","238.7","4.933","253.8","1022.201","27.77","47.6","0.0","0.0"],
    [1527302,"2026-07-04 20:20:00","73799","3.1060000000000003","237.9","4.671","223.2","1022.314","27.79","46.15","0.0","0.0"],
    [1527303,"2026-07-04 20:30:00","73800","3.093","236.4","4.671","220.3","1022.421","27.82","45.18","0.0","0.0"],
    [1527304,"2026-07-04 20:40:00","73801","2.9539999999999997","240.9","4.9","253.0","1022.49","27.91","43.41","0.0","0.0"],
    [1527305,"2026-07-04 20:50:00","73802","2.613","235.1","4.1160000000000005","226.1","1022.543","27.95","42.5","0.0","0.0"],
    [1527306,"2026-07-04 21:00:00","73803","2.9610000000000003","232.6","4.4430000000000005","226.1","1022.606","28.1","40.21","0.0","0.0"],
    [1527307,"2026-07-04 21:10:00","73804","2.213","239.1","4.018","225.0","1022.634","28.21","39.18","0.0","0.0"],
    [1527308,"2026-07-04 21:20:00","73805","1.73","243.1","2.842","256.0","1022.622","28.14","38.54","0.0","0.0"],
    [1527309,"2026-07-04 21:30:00","73806","1.7480000000000002","251.8","3.234","276.3","1022.584","28.12","38.1","0.0","0.0"],
    [1527310,"2026-07-04 21:40:00","73807","1.456","258.7","2.548","270.0","1022.536","27.99","37.7","0.0","0.0"],
    [1527311,"2026-07-04 21:50:00","73808","1.403","267.3","2.352","266.8","1022.53","27.88","37.71","0.0","0.0"],
    [1527312,"2026-07-04 22:00:00","73809","1.4480000000000002","247.1","2.875","266.7","1022.564","27.85","36.98","0.0","0.0"],
    [1527313,"2026-07-04 22:10:00","73810","1.212","264.0","2.287","264.5","1022.579","27.73","37.11","0.0","0.0"],
    [1527314,"2026-07-04 22:20:00","73811","1.43","266.8","2.385","266.0","1022.581","27.66","37.55","0.0","0.0"],
    [1527315,"2026-07-04 22:30:00","73812","1.389","284.0","2.0580000000000003","294.5","1022.562","27.75","37.55","0.0","0.0"],
    [1527316,"2026-07-04 22:40:00","73813","1.575","283.2","2.385","279.2","1022.532","27.89","37.16","0.0","0.0"],
    [1527317,"2026-07-04 22:50:00","73814","1.6019999999999999","273.0","2.319","269.8","1022.535","27.84","37.14","0.0","0.0"],
    [1527318,"2026-07-04 23:00:00","73815","1.715","278.7","2.548","271.3","1022.494","27.73","37.38","0.0","0.0"],
    [1527319,"2026-07-04 23:10:00","73816","2.184","291.4","3.299","302.7","1022.415","27.87","36.93","0.0","0.0"],
    [1527320,"2026-07-04 23:20:00","73817","1.524","282.7","2.417","293.5","1022.382","27.87","37.19","0.0","0.0"],
    [1527321,"2026-07-04 23:30:00","73818","1.8","274.2","2.7439999999999998","275.7","1022.348","27.68","37.61","0.0","0.0"],
    [1527322,"2026-07-04 23:40:00","73819","1.35","258.5","2.287","276.6","1022.267","27.55","38.13","0.0","0.0"],
    [1527323,"2026-07-04 23:50:00","73820","1.2690000000000001","256.1","2.319","282.9","1022.235","27.53","38.23","0.0","0.0"],
    [1527324,"2026-07-05 00:00:00","73821","1.983","275.1","2.9730000000000003","278.6","1022.167","27.47","38.82","0.0","0.0"],
    [1527325,"2026-07-05 00:10:00","73822","2.11","277.6","3.201","278.1","1022.068","27.51","39.19","0.0","0.0"],
    [1527326,"2026-07-05 00:20:00","73823","1.98","271.8","2.7769999999999997","277.5","1021.999","27.44","39.75","0.0","0.0"],
    [1527327,"2026-07-05 00:30:00","73824","1.8940000000000001","266.2","3.267","267.8","1021.957","27.37","40.13","0.0","0.0"],
    [1527328,"2026-07-05 00:40:00","73825","1.5659999999999998","262.7","2.7769999999999997","271.0","1021.91","27.24","40.68","0.0","0.0"],
    [1527329,"2026-07-05 00:50:00","73826","1.98","266.4","3.136","274.7","1021.88","27.16","41.21","0.0","0.0"],
    [1527330,"2026-07-05 01:00:00","73827","1.962","266.4","3.136","278.1","1021.796","27.2","41.43","0.0","0.0"],
    [1527331,"2026-07-05 01:10:00","73828","1.541","248.0","2.842","251.4","1021.747","27.13","41.7","0.0","0.0"],
    [1527332,"2026-07-05 01:20:00","73829","1.636","247.6","2.842","251.4","1021.72","27.16","41.69","0.0","0.0"],
    [1527333,"2026-07-05 01:30:00","73830","1.746","251.9","3.136","250.7","1021.654","27.02","42.29","0.0","0.0"],
    [1527334,"2026-07-05 01:40:00","73831","1.8359999999999999","249.5","3.5610000000000004","268.8","1021.604","26.91","42.81","0.0","0.0"],
    [1527335,"2026-07-05 01:50:00","73832","1.64","248.6","2.7769999999999997","250.8","1021.521","26.88","43.14","0.0","0.0"],
    [1527336,"2026-07-05 02:00:00","73833","1.8840000000000001","249.7","3.234","251.5","1021.453","27.08","42.53","0.0","0.0"],
    [1527337,"2026-07-05 02:10:00","73834","1.797","238.6","3.528","246.0","1021.409","27.03","42.87","0.0","0.0"],
    [1527338,"2026-07-05 02:20:00","73835","1.824","238.4","3.267","241.8","1021.371","26.96","43.59","0.0","0.0"],
    [1527339,"2026-07-05 02:30:00","73836","2.161","233.8","3.365","233.7","1021.302","26.71","44.97","0.0","0.0"],
    [1527340,"2026-07-05 02:40:00","73837","2.194","243.3","3.593","240.9","1021.235","26.22","47.64","0.0","0.0"],
    [1527341,"2026-07-05 02:50:00","73838","1.964","245.8","3.887","268.3","1021.201","25.92","48.85","0.0","0.0"],
    [1527342,"2026-07-05 03:00:00","73839","2.0340000000000003","259.1","3.267","260.2","1021.132","25.74","49.41","0.0","0.0"],
    [1527343,"2026-07-05 03:10:00","73840","1.795","270.5","3.071","254.4","1021.165","25.48","51.03","0.0","0.0"],
    [1527344,"2026-07-05 03:20:00","73841","1.99","261.4","2.7769999999999997","260.2","1021.165","25.09","52.48","0.0","0.0"],
    [1527345,"2026-07-05 03:30:00","73842","2.042","273.9","2.94","259.6","1021.154","24.78","53.69","0.0","0.0"],
    [1527346,"2026-07-05 03:40:00","73843","1.6440000000000001","281.1","2.221","276.7","1021.226","24.67","54.41","0.0","0.0"],
    [1527347,"2026-07-05 03:50:00","73844","1.368","279.9","2.0909999999999997","264.9","1021.236","24.69","54.01","0.0","0.0"],
    [1527348,"2026-07-05 04:00:00","73845","1.004","292.5","1.7309999999999999","270.5","1021.317","24.94","52.86","0.0","0.0"],
    [1527349,"2026-07-05 04:10:00","73846","0.44799999999999995","305.8","1.307","291.5","1021.333","25.13","52.1","0.0","0.0"],
    [1527350,"2026-07-05 04:20:00","73847","0.7","282.8","1.4369999999999998","282.1","1021.371","25.3","51.77","0.0","0.0"],
    [1527351,"2026-07-05 04:30:00","73848","0.069","250.2","0.555","265.9","1021.41","25.18","52.65","0.0","0.0"],
    [1527352,"2026-07-05 04:40:00","73849","0.0","0.0","0.0","0.0","1021.468","25.21","53.47","0.0","0.0"],
    [1527353,"2026-07-05 04:50:00","73850","0.019","57.61","0.425","59.94","1021.456","25.42","53.35","4.499","0.0"],
    [1527354,"2026-07-05 05:00:00","73851","0.0","0.0","0.0","0.0","1021.415","25.41","53.56","59.72","0.0"],
    [1527355,"2026-07-05 05:10:00","73852","0.0","0.0","0.0","0.0","1021.421","25.55","54.32","52.54","0.0"],
    [1527356,"2026-07-05 05:20:00","73853","0.19899999999999998","204.9","0.6859999999999999","178.6","1021.449","25.66","56.18","67.06","0.0"],
    [1527357,"2026-07-05 05:30:00","73854","0.39299999999999996","119.9","1.176","138.1","1021.537","25.49","58.34","99.8","0.0"],
    [1527358,"2026-07-05 05:40:00","73855","1.215","128.5","1.47","124.8","1021.656","25.39","62.27","134.1","0.0"],
    [1527359,"2026-07-05 05:50:00","73856","1.413","142.7","1.797","149.7","1021.694","25.17","65.05","141.7","0.0"],
    [1527360,"2026-07-05 06:00:00","73857","1.3219999999999998","150.4","1.568","150.6","1021.718","24.77","60.75","201.0","0.0"],
    [1527361,"2026-07-05 06:10:00","73858","0.966","156.3","1.339","152.6","1021.783","25.25","52.33","201.1","0.0"],
    [1527362,"2026-07-05 06:20:00","73859","1.139","163.3","1.3719999999999999","175.3","1021.777","25.44","53.18","249.6","0.0"],
    [1527363,"2026-07-05 06:30:00","73860","0.932","172.5","1.633","167.6","1021.813","25.66","51.75","268.1","0.0"],
    [1527364,"2026-07-05 06:40:00","73861","1.12","164.3","1.535","168.7","1021.84","25.69","52.52","304.1","0.0"],
    [1527365,"2026-07-05 06:50:00","73862","1.3430000000000002","169.2","1.601","171.5","1021.834","25.82","51.53","335.1","0.0"],
    [1527366,"2026-07-05 07:00:00","73863","0.981","173.3","1.601","178.5","1021.767","26.4","47.64","363.1","0.0"],
    [1527367,"2026-07-05 07:10:00","73864","1.426","173.0","1.895","174.9","1021.77","26.52","48.84","402.1","0.0"],
    [1527368,"2026-07-05 07:20:00","73865","1.36","174.6","1.797","168.4","1021.763","26.26","50.19","420.3","0.0"],
    [1527369,"2026-07-05 07:30:00","73866","1.5930000000000002","177.4","2.5810000000000004","171.3","1021.715","26.31","51.2","435.6","0.0"],
    [1527370,"2026-07-05 07:40:00","73867","2.166","185.3","2.875","172.5","1021.676","26.14","51.91","466.7","0.0"],
    [1527371,"2026-07-05 07:50:00","73868","1.704","198.6","2.221","204.7","1021.678","26.82","50.36","502.6","0.0"],
    [1527372,"2026-07-05 08:00:00","73869","1.46","233.1","2.679","253.2","1021.705","28.33","44.39","516.4","0.0"],
    [1527373,"2026-07-05 08:10:00","73870","1.912","234.5","3.267","224.3","1021.705","29.24","39.36","568.9","0.0"],
    [1527374,"2026-07-05 08:20:00","73871","1.75","223.9","3.332","249.3","1021.671","29.57","38.21","577.0","0.0"],
    [1527375,"2026-07-05 08:30:00","73872","2.073","184.2","3.6910000000000003","187.3","1021.588","28.52","49.58","630.7","0.0"],
    [1527376,"2026-07-05 08:40:00","73873","3.866","184.8","5.129","190.2","1021.535","26.55","65.09","637.8","0.0"],
    [1527377,"2026-07-05 08:50:00","73874","4.2669999999999995","188.5","5.4879999999999995","192.6","1021.468","26.37","67.5","701.6","0.0"],
    [1527378,"2026-07-05 09:00:00","73875","4.756","189.8","5.815","189.8","1021.41","26.71","63.82","703.6","0.0"],
    [1527379,"2026-07-05 09:10:00","73876","4.184","193.1","5.063","189.7","1021.371","28.02","56.39","725.5","0.0"],
    [1527380,"2026-07-05 09:20:00","73877","4.138999999999999","186.2","5.129","190.1","1021.35","27.61","59.73","770.6","0.0"],
    [1527381,"2026-07-05 09:30:00","73878","4.0889999999999995","185.5","5.096","191.3","1021.333","27.06","59.11","770.6","0.0"],
    [1527382,"2026-07-05 09:40:00","73879","4.184","179.9","4.998","177.0","1021.326","26.88","59.9","808.0","0.0"],
    [1527383,"2026-07-05 09:50:00","73880","4.401","183.2","5.4879999999999995","184.5","1021.353","27.12","56.03","838.0","0.0"],
    [1527384,"2026-07-05 10:00:00","73881","4.62","186.0","5.7170000000000005","189.4","1021.399","27.91","51.28","838.0","0.0"],
    [1527385,"2026-07-05 10:10:00","73882","4.086","182.2","5.4879999999999995","188.1","1021.461","27.11","60.58","838.0","0.0"],
    [1527386,"2026-07-05 10:20:00","73883","4.82","190.8","6.337000000000001","183.7","1021.449","27.79","53.52","853.0","0.0"],
    [1527387,"2026-07-05 10:30:00","73884","4.6819999999999995","187.6","6.042999999999999","193.6","1021.422","27.86","54.39","900.0","0.0"],
    [1527388,"2026-07-05 10:40:00","73885","5.614","190.4","7.023","196.4","1021.346","27.66","55.98","905.0","0.0"],
    [1527389,"2026-07-05 10:50:00","73886","5.101","191.1","6.468","190.4","1021.32","27.6","57.03","905.0","0.0"],
    [1527390,"2026-07-05 11:00:00","73887","4.8660000000000005","189.6","6.37","186.5","1021.284","27.82","58.54","905.0","0.0"],
    [1527391,"2026-07-05 11:10:00","73888","5.23","192.9","7.187","192.7","1021.243","27.92","59.86","905.0","0.0"],
    [1527392,"2026-07-05 11:20:00","73889","5.97","192.7","7.415","186.0","1021.179","27.89","58.65","905.0","0.0"],
    [1527393,"2026-07-05 11:30:00","73890","5.14","193.5","6.893","199.2","1021.082","28.1","59.92","905.0","0.0"],
    [1527394,"2026-07-05 11:40:00","73891","5.615","191.1","7.218999999999999","191.1","1020.949","28.26","57.12","905.0","0.0"],
    [1527395,"2026-07-05 11:50:00","73892","5.222","191.8","6.729","191.2","1020.884","28.65","55.27","905.0","0.0"],
    [1527396,"2026-07-05 12:00:00","73893","5.517","194.4","7.579","191.0","1020.811","28.76","53.36","905.0","0.0"],
    [1527397,"2026-07-05 12:10:00","73894","5.849","195.7","8.1","192.5","1020.765","28.99","51.16","905.0","0.0"],
    [1527398,"2026-07-05 12:20:00","73895","6.186","193.0","8.43","187.6","1020.697","29.14","49.32","910.0","0.0"],
    [1527399,"2026-07-05 12:30:00","73896","6.58","192.8","8.66","192.3","1020.575","29.07","50.49","912.0","0.0"],
    [1527400,"2026-07-05 12:40:00","73897","6.345","196.1","9.34","198.2","1020.518","29.4","46.91","905.0","0.0"],
    [1527401,"2026-07-05 12:50:00","73898","5.997999999999999","194.9","8.89","196.6","1020.452","29.76","44.45","905.0","0.0"],
    [1527402,"2026-07-05 13:00:00","73899","6.061","192.3","9.31","186.6","1020.365","30.29","38.83","905.0","0.0"],
    [1527403,"2026-07-05 13:10:00","73900","6.767","194.7","9.21","190.8","1020.244","30.45","35.55","905.0","0.0"],
    [1527404,"2026-07-05 13:20:00","73901","5.691","200.2","8.4","218.0","1020.265","30.8","33.64","905.0","0.0"],
    [1527405,"2026-07-05 13:30:00","73902","6.352","192.8","9.18","191.1","1020.139","30.71","33.36","893.0","0.0"],
    [1527406,"2026-07-05 13:40:00","73903","6.784","193.7","9.28","190.0","1020.062","30.67","33.88","852.0","0.0"],
    [1527407,"2026-07-05 13:50:00","73904","6.001","197.5","9.41","198.0","1020.047","30.96","32.56","838.0","0.0"],
    [1527408,"2026-07-05 14:00:00","73905","6.702999999999999","195.7","9.08","188.2","1019.997","31.16","31.68","838.0","0.0"],
    [1527409,"2026-07-05 14:10:00","73906","6.595","190.2","8.43","189.7","1019.925","30.16","42.23","825.0","0.0"],
    [1527410,"2026-07-05 14:20:00","73907","5.742000000000001","196.1","7.807","191.3","1019.892","30.1","44.14","772.2","0.0"],
    [1527411,"2026-07-05 14:30:00","73908","5.832999999999999","191.7","8.13","192.2","1019.785","30.09","44.84","770.6","0.0"],
    [1527412,"2026-07-05 14:40:00","73909","5.52","196.2","7.6770000000000005","186.5","1019.702","30.0","44.3","757.2","0.0"],
    [1527413,"2026-07-05 14:50:00","73910","5.075","201.5","7.775","190.1","1019.678","30.31","42.17","709.9","0.0"],
    [1527414,"2026-07-05 15:00:00","73911","5.7170000000000005","196.8","8.36","193.8","1019.561","30.41","40.66","703.5","0.0"],
    [1527415,"2026-07-05 15:10:00","73912","5.58","195.3","9.57","198.3","1019.547","29.98","46.89","676.4","0.0"],
    [1527416,"2026-07-05 15:20:00","73913","5.519","198.4","7.415","193.0","1019.47","30.07","45.36","636.5","0.0"],
    [1527417,"2026-07-05 15:30:00","73914","5.888","195.8","8.36","189.9","1019.418","29.38","51.31","631.7","0.0"],
    [1527418,"2026-07-05 15:40:00","73915","6.599","193.7","8.04","192.2","1019.338","29.42","49.29","575.7","0.0"],
    [1527419,"2026-07-05 15:50:00","73916","6.662000000000001","197.0","9.02","192.7","1019.249","29.31","51.21","569.4","0.0"],
    [1527420,"2026-07-05 16:00:00","73917","6.577999999999999","196.7","8.49","196.5","1019.176","29.22","53.08","512.9","0.0"],
    [1527421,"2026-07-05 16:10:00","73918","4.993","203.8","8.1","191.5","1019.154","29.22","52.98","502.5","0.0"],
    [1527422,"2026-07-05 16:20:00","73919","5.284","195.6","7.513","191.3","1019.052","28.92","57.6","463.7","0.0"],
    [1527423,"2026-07-05 16:30:00","73920","4.748","201.9","7.285","208.9","1019.016","28.75","57.27","435.5","0.0"],
    [1527424,"2026-07-05 16:40:00","73921","4.069","209.0","7.709","221.7","1019.026","29.16","54.16","417.0","0.0"],
    [1527425,"2026-07-05 16:50:00","73922","4.399","204.7","8.07","207.4","1018.984","29.11","55.1","402.0","0.0"],
    [1527426,"2026-07-05 17:00:00","73923","3.6069999999999998","210.6","6.337000000000001","224.1","1018.921","28.88","56.8","372.9","0.0"],
    [1527427,"2026-07-05 17:10:00","73924","4.082","207.6","7.023","211.4","1018.884","29.11","55.15","335.0","0.0"],
    [1527428,"2026-07-05 17:20:00","73925","4.041","218.9","7.611000000000001","228.3","1018.908","29.04","53.05","311.5","0.0"],
    [1527429,"2026-07-05 17:30:00","73926","4.031000000000001","204.2","6.468","187.7","1018.901","29.03","53.59","268.0","0.0"],
    [1527430,"2026-07-05 17:40:00","73927","4.955","189.0","7.4479999999999995","197.9","1018.917","28.12","62.4","245.0","0.0"],
    [1527431,"2026-07-05 17:50:00","73928","4.893","178.1","7.35","195.0","1018.918","26.99","74.52","201.0","0.0"],
    [1527432,"2026-07-05 18:00:00","73929","5.074","176.0","6.1739999999999995","175.5","1018.958","25.87","83.0","181.7","0.0"],
    [1527433,"2026-07-05 18:10:00","73930","4.638","192.9","6.37","202.9","1018.963","26.28","78.46","134.0","0.0"],
    [1527434,"2026-07-05 18:20:00","73931","3.843","207.2","6.566","207.2","1019.005","27.55","66.1","134.0","0.0"],
    [1527435,"2026-07-05 18:30:00","73932","3.445","219.6","5.88","241.8","1019.063","28.05","61.19","79.21","0.0"],
    [1527436,"2026-07-05 18:40:00","73933","3.6289999999999996","221.3","5.978","231.0","1019.096","28.02","61.96","67.02","0.0"],
    [1527437,"2026-07-05 18:50:00","73934","3.26","216.0","5.227","228.2","1019.13","27.94","62.18","67.02","0.0"],
    [1527438,"2026-07-05 19:00:00","73935","3.392","212.0","5.39","207.7","1019.204","27.96","60.18","48.12","0.0"],
    [1527439,"2026-07-05 19:10:00","73936","3.315","217.8","5.847","221.0","1019.229","27.99","57.66","0.0","0.0"],
    [1527440,"2026-07-05 19:20:00","73937","3.513","222.9","5.912999999999999","224.5","1019.246","28.1","55.94","0.0","0.0"],
    [1527441,"2026-07-05 19:30:00","73938","3.8569999999999998","219.4","5.782","216.2","1019.26","28.12","54.73","0.0","0.0"],
    [1527442,"2026-07-05 19:40:00","73939","3.4530000000000003","219.8","4.933","218.5","1019.246","28.02","55.94","0.0","0.0"],
    [1527443,"2026-07-05 19:50:00","73940","3.057","221.0","4.541","230.9","1019.238","27.9","57.1","0.0","0.0"],
    [1527444,"2026-07-05 20:00:00","73941","2.43","227.4","4.475","217.0","1019.381","27.9","56.54","0.0","0.0"],
    [1527445,"2026-07-05 20:10:00","73942","2.779","216.5","4.1160000000000005","223.2","1019.454","27.91","56.12","0.0","0.0"],
    [1527446,"2026-07-05 20:20:00","73943","2.2969999999999997","229.3","3.7569999999999997","225.7","1019.548","27.88","56.28","0.0","0.0"],
    [1527447,"2026-07-05 20:30:00","73944","1.8869999999999998","232.4","3.005","223.1","1019.694","27.86","55.79","0.0","0.0"],
    [1527448,"2026-07-05 20:40:00","73945","2.085","230.3","3.365","223.7","1019.742","27.87","53.68","0.0","0.0"],
    [1527449,"2026-07-05 20:50:00","73946","2.0380000000000003","222.2","3.659","223.7","1019.815","27.97","51.17","0.0","0.0"],
    [1527450,"2026-07-05 21:00:00","73947","2.329","229.1","3.5610000000000004","221.3","1019.89","27.98","49.92","0.0","0.0"],
    [1527451,"2026-07-05 21:10:00","73948","2.397","227.7","4.181","223.2","1019.942","28.03","49.35","0.0","0.0"],
    [1527452,"2026-07-05 21:20:00","73949","1.712","226.1","2.842","226.7","1019.947","27.94","49.64","0.0","0.0"],
    [1527453,"2026-07-05 21:30:00","73950","2.0469999999999997","216.4","2.94","221.6","1019.931","27.94","49.03","0.0","0.0"],
    [1527454,"2026-07-05 21:40:00","73951","2.244","212.1","3.267","201.9","1019.913","27.97","48.58","0.0","0.0"],
    [1527455,"2026-07-05 21:50:00","73952","1.734","219.7","2.679","218.8","1019.901","27.89","48.49","0.0","0.0"],
    [1527456,"2026-07-05 22:00:00","73953","1.466","243.6","2.548","257.9","1019.932","28.05","46.56","0.0","0.0"],
    [1527457,"2026-07-05 22:10:00","73954","1.183","240.4","2.515","220.8","1019.897","27.8","49.92","0.0","0.0"],
    [1527458,"2026-07-05 22:20:00","73955","1.016","240.1","2.123","271.6","1019.912","27.77","49.38","0.0","0.0"],
    [1527459,"2026-07-05 22:30:00","73956","0.715","238.5","1.666","216.3","1019.901","27.81","48.07","0.0","0.0"],
    [1527460,"2026-07-05 22:40:00","73957","0.797","227.0","1.993","210.0","1019.849","27.87","45.76","0.0","0.0"],
    [1527461,"2026-07-05 22:50:00","73958","0.662","236.5","1.143","244.2","1019.827","27.99","43.92","0.0","0.0"],
    [1527462,"2026-07-05 23:00:00","73959","0.635","237.2","1.405","246.0","1019.802","27.99","42.64","0.0","0.0"],
    [1527463,"2026-07-05 23:10:00","73960","0.99","217.9","1.535","221.7","1019.738","27.89","41.05","0.0","0.0"],
    [1527464,"2026-07-05 23:20:00","73961","0.981","229.5","1.4369999999999998","212.1","1019.672","27.81","39.65","0.0","0.0"],
    [1527465,"2026-07-05 23:30:00","73962","1.406","229.3","2.352","225.8","1019.616","27.95","37.12","0.0","0.0"],
    [1527466,"2026-07-05 23:40:00","73963","1.181","246.2","2.385","247.1","1019.539","28.06","34.8","0.0","0.0"],
    [1527467,"2026-07-05 23:50:00","73964","1.671","249.2","2.8089999999999997","242.2","1019.448","28.24","32.18","0.0","0.0"],
    [1527468,"2026-07-06 00:00:00","73965","1.5530000000000002","252.9","2.679","259.6","1019.408","28.23","31.78","0.0","0.0"],
    [1527469,"2026-07-06 00:10:00","73966","1.5659999999999998","246.1","2.548","241.9","1019.322","28.05","32.3","0.0","0.0"],
    [1527470,"2026-07-06 00:20:00","73967","1.624","249.4","2.7110000000000003","245.4","1019.214","28.01","31.72","0.0","0.0"],
    [1527471,"2026-07-06 00:30:00","73968","1.3459999999999999","248.2","2.352","235.7","1019.208","27.88","32.12","0.0","0.0"],
    [1527472,"2026-07-06 00:40:00","73969","1.08","233.6","2.025","241.0","1019.227","27.72","33.45","0.0","0.0"],
    [1527473,"2026-07-06 00:50:00","73970","0.893","241.4","1.47","240.9","1019.246","27.36","34.14","0.0","0.0"],
    [1527474,"2026-07-06 01:00:00","73971","0.9329999999999999","236.5","1.4369999999999998","225.4","1019.179","27.19","35.13","0.0","0.0"],
    [1527475,"2026-07-06 01:10:00","73972","0.541","234.1","1.045","266.4","1019.175","27.22","34.61","0.0","0.0"],
    [1527476,"2026-07-06 01:20:00","73973","0.8490000000000001","233.3","1.111","238.5","1019.132","27.24","34.61","0.0","0.0"],
    [1527477,"2026-07-06 01:30:00","73974","0.907","229.3","1.47","247.1","1019.068","27.43","33.32","0.0","0.0"],
    [1527478,"2026-07-06 01:40:00","73975","0.9179999999999999","246.6","1.764","258.6","1019.042","27.66","32.96","0.0","0.0"],
    [1527479,"2026-07-06 01:50:00","73976","0.7959999999999999","239.1","1.274","253.3","1019.06","27.35","34.66","0.0","0.0"],
    [1527480,"2026-07-06 02:00:00","73977","1.9409999999999998","255.0","2.7769999999999997","248.9","1019.024","27.32","34.24","0.0","0.0"],
    [1527481,"2026-07-06 02:10:00","73978","1.62","238.3","2.515","254.7","1018.909","26.76","37.66","0.0","0.0"],
    [1527482,"2026-07-06 02:20:00","73979","1.983","244.4","3.136","256.5","1018.846","26.56","37.26","0.0","0.0"],
    [1527483,"2026-07-06 02:30:00","73980","2.151","247.4","3.43","249.2","1018.732","26.61","36.87","0.0","0.0"],
    [1527484,"2026-07-06 02:40:00","73981","2.103","254.5","3.299","260.9","1018.725","26.59","36.54","0.0","0.0"],
    [1527485,"2026-07-06 02:50:00","73982","2.104","250.3","3.365","247.4","1018.706","26.45","37.26","0.0","0.0"],
    [1527486,"2026-07-06 03:00:00","73983","2.386","257.0","3.5610000000000004","253.6","1018.616","26.32","37.54","0.0","0.0"],
    [1527487,"2026-07-06 03:10:00","73984","2.226","258.7","3.659","258.6","1018.574","26.54","36.83","0.0","0.0"],
    [1527488,"2026-07-06 03:20:00","73985","2.458","264.2","3.43","263.2","1018.548","26.66","36.62","0.0","0.0"],
    [1527489,"2026-07-06 03:30:00","73986","2.616","259.6","3.855","254.1","1018.488","26.8","35.83","0.0","0.0"],
    [1527490,"2026-07-06 03:40:00","73987","2.654","256.7","3.9530000000000003","255.8","1018.492","27.06","34.79","0.0","0.0"],
    [1527491,"2026-07-06 03:50:00","73988","2.495","264.1","3.7569999999999997","260.3","1018.488","26.91","35.05","0.0","0.0"],
    [1527492,"2026-07-06 04:00:00","73989","2.072","264.5","3.365","261.3","1018.504","26.87","35.2","0.0","0.0"],
    [1527493,"2026-07-06 04:10:00","73990","2.3680000000000003","259.1","3.659","260.7","1018.497","26.88","34.74","0.0","0.0"],
    [1527494,"2026-07-06 04:20:00","73991","2.004","256.8","3.299","246.7","1018.523","26.94","34.29","0.0","0.0"],
    [1527495,"2026-07-06 04:30:00","73992","1.499","259.3","2.7110000000000003","259.4","1018.543","26.91","34.47","0.0","0.0"],
    [1527496,"2026-07-06 04:40:00","73993","1.767","257.1","3.005","266.1","1018.592","26.58","35.27","0.0","0.0"],
    [1527497,"2026-07-06 04:50:00","73994","2.123","260.4","3.267","270.6","1018.627","26.38","35.45","8.61","0.0"],
    [1527498,"2026-07-06 05:00:00","73995","1.94","261.4","3.1689999999999996","261.5","1018.677","26.3","35.93","37.78","0.0"],
    [1527499,"2026-07-06 05:10:00","73996","2.094","266.6","2.8089999999999997","260.0","1018.717","26.29","36.29","67.06","0.0"],
    [1527500,"2026-07-06 05:20:00","73997","1.8219999999999998","277.6","2.45","270.7","1018.777","26.29","36.65","67.06","0.0"],
    [1527501,"2026-07-06 05:30:00","73998","1.212","289.8","2.025","281.0","1018.836","26.57","37.52","97.2","0.0"],
    [1527502,"2026-07-06 05:40:00","73999","1.224","89.1","1.829","82.2","1018.868","26.25","41.03","134.1","0.0"],
    [1527503,"2026-07-06 05:50:00","74000","1.006","95.3","1.3719999999999999","85.2","1018.867","26.12","40.95","134.2","0.0"],
    [1527504,"2026-07-06 06:00:00","74001","1.4509999999999998","89.2","1.829","92.1","1018.904","25.92","42.64","187.3","0.0"],
    [1527505,"2026-07-06 06:10:00","74002","1.495","98.1","2.0580000000000003","83.2","1018.935","25.58","45.55","201.1","0.0"],
    [1527506,"2026-07-06 06:20:00","74003","0.647","82.7","1.4369999999999998","98.0","1019.005","25.79","46.47","234.1","0.0"],
    [1527507,"2026-07-06 06:30:00","74004","0.0","0.0","0.0","0.0","1019.069","27.15","41.29","268.1","0.0"],
    [1527508,"2026-07-06 06:40:00","74005","0.266","168.7","1.078","173.6","1019.075","26.79","39.98","293.5","0.0"],
    [1527509,"2026-07-06 06:50:00","74006","0.983","163.0","1.339","180.2","1019.079","26.1","40.71","335.1","0.0"],
    [1527510,"2026-07-06 07:00:00","74007","1.183","166.4","1.47","169.7","1019.152","26.07","39.09","346.1","0.0"],
    [1527511,"2026-07-06 07:10:00","74008","1.462","160.5","1.568","165.3","1019.214","26.0","41.3","401.4","0.0"],
    [1527512,"2026-07-06 07:20:00","74009","1.646","158.1","2.156","151.4","998.8","25.87","47.08","423.6","0.0"],
    [1527513,"2026-07-06 07:30:00","74010","2.012","145.0","2.45","152.3","1019.548","25.86","51.06","452.9","0.0"],
    [1527514,"2026-07-06 07:40:00","74011","2.035","150.1","2.45","153.1","1019.556","25.73","50.46","481.6","0.0"],
    [1527515,"2026-07-06 07:50:00","74012","1.4069999999999998","136.5","1.993","143.7","1019.56","26.2","47.97","511.1","0.0"],
    [1527516,"2026-07-06 08:00:00","74013","1.329","121.2","1.7309999999999999","114.9","1019.568","26.72","48.97","540.6","0.0"],
    [1527517,"2026-07-06 08:10:00","74014","1.166","112.8","1.4369999999999998","124.8","1019.532","27.35","43.57","575.2","0.0"],
    [1527518,"2026-07-06 08:20:00","74015","1.699","102.2","2.679","109.0","1019.502","27.51","45.71","609.3","0.0"],
    [1527519,"2026-07-06 08:30:00","74016","2.591","158.9","3.397","151.1","1019.463","26.71","63.33","644.0","0.0"],
    [1527520,"2026-07-06 08:40:00","74017","3.9360000000000004","173.5","4.867","175.1","1019.432","25.91","69.75","673.9","0.0"],
    [1527521,"2026-07-06 08:50:00","74018","4.12","177.6","5.194","176.4","1019.471","25.94","71.03","700.1","0.0"],
    [1527522,"2026-07-06 09:00:00","74019","4.112","180.8","5.063","188.3","1019.463","26.27","68.52","721.7","0.0"],
    [1527523,"2026-07-06 09:10:00","74020","4.287","183.2","5.063","177.9","1019.445","26.48","66.33","748.9","0.0"],
    [1527524,"2026-07-06 09:20:00","74021","4.505","182.5","5.357","187.8","1019.439","26.77","65.82","778.0","0.0"],
    [1527525,"2026-07-06 09:30:00","74022","4.543","182.6","5.292000000000001","188.9","1019.401","26.55","68.8","801.0","0.0"],
    [1527526,"2026-07-06 09:40:00","74023","4.584","183.8","5.749","188.0","1019.379","26.56","68.71","818.0","0.0"],
    [1527527,"2026-07-06 09:50:00","74024","4.495","183.3","5.521","191.3","1019.335","26.6","69.07","839.0","0.0"],
    [1527528,"2026-07-06 10:00:00","74025","4.785","179.9","5.782","173.8","1019.362","26.25","73.29","860.0","0.0"],
    [1527529,"2026-07-06 10:10:00","74026","4.909","178.4","5.586","174.0","1019.408","25.65","78.84","872.0","0.0"],
    [1527530,"2026-07-06 10:20:00","74027","5.162000000000001","178.7","6.011","173.7","1019.444","25.28","82.3","882.0","0.0"],
    [1527531,"2026-07-06 10:30:00","74028","4.809","183.5","6.272","184.8","1019.426","25.46","81.5","889.0","0.0"],
    [1527532,"2026-07-06 10:40:00","74029","5.402","179.8","6.501","183.6","1019.376","25.89","79.97","898.0","0.0"],
    [1527533,"2026-07-06 10:50:00","74030","5.16","179.4","6.272","175.3","1019.411","25.63","82.5","911.0","0.0"],
    [1527534,"2026-07-06 11:00:00","74031","5.045","180.4","6.337000000000001","167.4","1019.341","25.61","83.3","920.0","0.0"],
    [1527535,"2026-07-06 11:10:00","74032","5.072","186.6","6.893","189.6","1019.265","25.86","82.4","923.0","0.0"],
    [1527536,"2026-07-06 11:20:00","74033","5.354","185.2","7.154","188.3","1019.221","26.16","80.1","927.0","0.0"],
    [1527537,"2026-07-06 11:30:00","74034","5.801","183.0","7.4479999999999995","181.8","1019.18","26.39","78.87","937.0","0.0"],
    [1527538,"2026-07-06 11:40:00","74035","5.577999999999999","177.3","6.925","179.1","1019.212","26.14","80.8","940.0","0.0"],
    [1527539,"2026-07-06 11:50:00","74036","5.256","175.7","6.566","173.0","1019.157","25.89","82.8","943.0","0.0"],
    [1527540,"2026-07-06 12:00:00","74037","5.391","180.8","6.893","176.1","1019.045","26.0","82.1","943.0","0.0"],
    [1527541,"2026-07-06 12:10:00","74038","6.058","175.8","7.481","175.2","1018.993","26.04","82.1","945.0","0.0"],
    [1527542,"2026-07-06 12:20:00","74039","5.237","181.1","6.697","171.8","1018.886","26.08","82.0","948.0","0.0"],
    [1527543,"2026-07-06 12:30:00","74040","5.472","178.0","6.925","172.6","1018.865","26.22","81.3","944.0","0.0"],
    [1527544,"2026-07-06 12:40:00","74041","5.385","173.8","6.435","176.3","1018.795","26.12","82.1","942.0","0.0"],
    [1527545,"2026-07-06 12:50:00","74042","5.872999999999999","173.2","7.187","174.8","1018.783","26.13","81.7","937.0","0.0"],
    [1527546,"2026-07-06 13:00:00","74043","6.1610000000000005","173.5","7.285","179.9","1018.743","26.08","82.1","929.0","0.0"],
    [1527547,"2026-07-06 13:10:00","74044","6.51","183.3","8.0","178.8","1018.686","26.08","82.0","921.0","0.0"],
    [1527548,"2026-07-06 13:20:00","74045","6.721","180.2","7.938","179.7","1018.622","26.23","80.9","907.0","0.0"],
    [1527549,"2026-07-06 13:30:00","74046","6.305","183.3","7.382999999999999","184.0","1018.617","26.22","80.7","895.0","0.0"],
    [1527550,"2026-07-06 13:40:00","74047","5.599","186.4","7.775","184.2","1018.619","26.49","79.32","883.0","0.0"],
    [1527551,"2026-07-06 13:50:00","74048","5.88","184.9","7.644","199.8","1018.545","26.69","78.31","868.0","0.0"],
    [1527552,"2026-07-06 14:00:00","74049","6.537000000000001","181.7","7.742000000000001","183.6","1018.492","26.53","79.92","848.0","0.0"],
    [1527553,"2026-07-06 14:10:00","74050","5.832000000000001","182.7","7.4479999999999995","178.2","1018.482","26.5","80.4","830.0","0.0"],
    [1527554,"2026-07-06 14:20:00","74051","6.443","180.9","7.546","175.5","1018.374","26.52","79.8","810.0","0.0"],
    [1527555,"2026-07-06 14:30:00","74052","5.727","182.8","7.0889999999999995","180.8","1018.302","26.6","79.89","784.6","0.0"],
    [1527556,"2026-07-06 14:40:00","74053","5.457999999999999","189.2","7.285","198.4","1018.251","27.09","77.59","763.8","0.0"],
    [1527557,"2026-07-06 14:50:00","74054","5.5120000000000005","188.5","8.07","189.7","1018.211","27.39","76.1","742.0","0.0"],
    [1527558,"2026-07-06 15:00:00","74055","5.581","184.4","8.07","186.9","1018.044","27.26","77.68","714.0","0.0"],
    [1527559,"2026-07-06 15:10:00","74056","5.691","189.7","7.775","197.5","1017.927","27.28","77.09","691.7","0.0"],
    [1527560,"2026-07-06 15:20:00","74057","5.687","188.2","8.07","180.5","1017.836","27.63","74.27","665.1","0.0"],
    [1527561,"2026-07-06 15:30:00","74058","5.579","182.0","7.35","194.6","1017.756","27.2","78.2","636.3","0.0"],
    [1527562,"2026-07-06 15:40:00","74059","5.92","177.1","7.415","178.0","1017.658","26.69","82.5","608.0","0.0"],
    [1527563,"2026-07-06 15:50:00","74060","5.857","175.8","7.0889999999999995","173.4","1017.655","26.36","84.5","578.2","0.0"],
    [1527564,"2026-07-06 16:00:00","74061","6.145","171.9","7.742000000000001","174.9","1017.623","26.28","85.5","545.2","0.0"],
    [1527565,"2026-07-06 16:10:00","74062","6.029","173.8","7.317","172.0","1017.576","26.12","86.8","517.3","0.0"],
    [1527566,"2026-07-06 16:20:00","74063","5.4639999999999995","171.7","6.599","173.5","1017.494","26.1","87.4","483.1","0.0"],
    [1527567,"2026-07-06 16:30:00","74064","5.58","163.8","6.403","164.7","1017.456","26.01","88.5","451.0","0.0"],
    [1527568,"2026-07-06 16:40:00","74065","5.723","161.5","6.599","161.2","1017.45","26.0","88.8","417.6","0.0"],
    [1527569,"2026-07-06 16:50:00","74066","5.207000000000001","162.5","5.912999999999999","163.7","1017.456","26.02","88.7","384.5","0.0"],
    [1527570,"2026-07-06 17:00:00","74067","4.668","162.4","5.422999999999999","167.4","1017.463","25.98","89.1","350.2","0.0"],
    [1527571,"2026-07-06 17:10:00","74068","4.795","157.0","5.422999999999999","158.4","1017.469","25.97","89.0","315.6","0.0"],
    [1527572,"2026-07-06 17:20:00","74069","4.745","161.0","5.455","159.7","1017.463","25.96","89.1","279.4","0.0"],
    [1527573,"2026-07-06 17:30:00","74070","4.723","163.6","5.619","159.2","1017.52","25.97","89.0","244.8","0.0"],
    [1527574,"2026-07-06 17:40:00","74071","4.626","162.3","5.096","162.9","1017.535","25.97","88.8","216.2","0.0"],
    [1527575,"2026-07-06 17:50:00","74072","4.508","166.5","4.998","170.9","1017.532","25.96","89.0","184.4","0.0"],
    [1527576,"2026-07-06 18:00:00","74073","4.34","159.5","4.9","158.0","1017.566","26.0","88.9","153.0","0.0"],
    [1527577,"2026-07-06 18:10:00","74074","4.191","153.7","5.031000000000001","148.5","1017.577","25.92","89.1","112.2","0.0"],
    [1527578,"2026-07-06 18:20:00","74075","4.454","154.6","5.325","155.2","1017.585","25.86","88.7","85.6","0.0"],
    [1527579,"2026-07-06 18:30:00","74076","4.276","160.6","5.2589999999999995","163.0","1017.605","25.84","88.9","84.2","0.0"],
    [1527580,"2026-07-06 18:40:00","74077","4.175","163.3","4.965","162.7","1017.689","25.85","88.9","55.78","0.0"],
    [1527581,"2026-07-06 18:50:00","74078","3.674","172.1","4.475","164.7","1017.758","25.79","89.0","40.31","0.0"],
    [1527582,"2026-07-06 19:00:00","74079","2.844","177.4","4.083","179.2","1017.778","25.71","89.0","22.12","0.0"],
    [1527583,"2026-07-06 19:10:00","74080","2.18","185.6","3.299","198.3","1017.81","25.86","86.2","12.12","0.0"],
    [1527584,"2026-07-06 19:20:00","74081","1.536","188.3","3.0380000000000003","176.8","1017.799","25.83","87.9","6.466","0.0"],
    [1527585,"2026-07-06 19:30:00","74082","0.722","186.1","1.535","197.7","1017.811","25.71","88.4","1.595","0.0"],
    [1527586,"2026-07-06 19:40:00","74083","0.389","195.7","1.339","192.2","1017.89","25.64","89.0","0.0","0.0"],
    [1527587,"2026-07-06 19:50:00","74084","1.5","173.8","2.319","170.0","1017.971","25.62","89.1","0.0","0.0"],
    [1527588,"2026-07-06 20:00:00","74085","1.396","175.4","2.287","186.2","1018.033","25.6","88.6","0.0","0.0"],
    [1527589,"2026-07-06 20:10:00","74086","1.072","168.7","1.9269999999999998","179.8","1018.139","25.56","88.6","0.0","0.0"],
    [1527590,"2026-07-06 20:20:00","74087","1.105","172.4","1.5030000000000001","175.8","1018.313","25.53","88.2","0.0","0.0"],
    [1527591,"2026-07-06 20:30:00","74088","1.195","178.0","1.764","187.1","1018.35","25.55","88.0","0.0","0.0"],
    [1527592,"2026-07-06 20:40:00","74089","0.884","175.6","2.287","193.3","1018.428","25.34","84.6","0.0","0.0"],
    [1527593,"2026-07-06 20:50:00","74090","0.6779999999999999","183.1","1.4369999999999998","174.4","1018.529","25.94","79.05","0.0","0.0"],
    [1527594,"2026-07-06 21:00:00","74091","1.021","202.7","1.797","240.9","1018.515","26.36","74.51","0.0","0.0"],
    [1527595,"2026-07-06 21:10:00","74092","0.359","229.3","1.307","229.0","1018.539","26.71","72.28","0.0","0.0"],
    [1527596,"2026-07-06 21:20:00","74093","1.073","238.5","2.0909999999999997","230.9","1018.533","26.75","72.22","0.0","0.0"],
    [1527597,"2026-07-06 21:30:00","74094","1.649","256.0","2.679","257.2","1018.523","26.83","71.56","0.0","0.0"],
    [1527598,"2026-07-06 21:40:00","74095","1.178","261.9","2.45","261.7","1018.587","26.83","72.66","0.0","0.0"],
    [1527599,"2026-07-06 21:50:00","74096","1.055","255.1","2.515","265.3","1018.536","26.7","74.38","0.0","0.0"],
    [1527600,"2026-07-06 22:00:00","74097","1.609","256.0","3.0380000000000003","257.5","1018.482","26.61","75.42","0.0","0.0"],
    [1527601,"2026-07-06 22:10:00","74098","1.385","261.8","2.515","262.8","1018.512","26.52","76.14","0.0","0.0"],
    [1527602,"2026-07-06 22:20:00","74099","2.326","263.2","3.6910000000000003","258.2","1018.556","26.45","76.2","0.0","0.0"],
    [1527603,"2026-07-06 22:30:00","74100","2.319","264.3","3.495","256.4","1018.561","26.45","76.05","0.0","0.0"],
    [1527604,"2026-07-06 22:40:00","74101","1.845","266.7","3.332","254.9","1018.563","26.4","76.47","0.0","0.0"],
    [1527605,"2026-07-06 22:50:00","74102","1.272","264.6","2.319","258.9","1018.639","26.32","76.92","0.0","0.0"],
    [1527606,"2026-07-06 23:00:00","74103","1.347","261.0","2.842","285.7","1018.653","26.26","76.25","0.0","0.0"],
    [1527607,"2026-07-06 23:10:00","74104","0.9840000000000001","221.4","2.189","247.0","1018.626","26.35","74.43","0.0","0.0"],
    [1527608,"2026-07-06 23:20:00","74105","0.9840000000000001","207.4","1.96","223.5","1018.633","26.21","76.05","0.0","0.0"],
    [1527609,"2026-07-06 23:30:00","74106","1.479","211.1","2.45","195.8","1018.651","26.08","76.4","0.0","0.0"],
    [1527610,"2026-07-06 23:40:00","74107","1.189","238.6","2.907","252.2","1018.628","26.02","76.33","0.0","0.0"],
    [1527611,"2026-07-06 23:50:00","74108","1.3719999999999999","255.2","3.332","284.1","1018.58","25.98","75.59","0.0","0.0"],
    [1527612,"2026-07-07 00:00:00","74109","2.0069999999999997","259.3","4.051","265.9","1018.552","25.98","75.95","0.0","0.0"],
    [1527613,"2026-07-07 00:10:00","74110","1.882","277.1","3.201","277.7","1018.54","25.83","77.79","0.0","0.0"],
    [1527614,"2026-07-07 00:20:00","74111","1.8090000000000002","281.1","2.613","283.9","1018.491","25.58","77.69","0.0","0.0"],
    [1527615,"2026-07-07 00:30:00","74112","1.788","269.1","3.005","273.5","1018.448","25.48","75.26","0.0","0.0"],
    [1527616,"2026-07-07 00:40:00","74113","1.4880000000000002","267.4","2.483","263.7","1018.393","25.37","72.16","0.0","0.0"],
    [1527617,"2026-07-07 00:50:00","74114","1.391","260.4","2.94","254.4","1018.301","25.37","69.34","0.0","0.0"],
    [1527618,"2026-07-07 01:00:00","74115","0.903","257.7","2.417","255.2","1018.207","25.34","68.16","0.0","0.0"],
    [1527619,"2026-07-07 01:10:00","74116","0.785","228.7","1.797","231.3","1018.151","25.44","69.44","0.0","0.0"],
    [1527620,"2026-07-07 01:20:00","74117","1.892","265.7","3.299","266.5","1018.097","25.25","66.8","0.0","0.0"],
    [1527621,"2026-07-07 01:30:00","74118","2.435","271.7","3.299","264.2","1018.055","25.15","64.14","0.0","0.0"],
    [1527622,"2026-07-07 01:40:00","74119","2.309","272.4","3.234","258.5","1017.99","25.02","63.89","0.0","0.0"],
    [1527623,"2026-07-07 01:50:00","74120","2.375","272.7","3.234","261.6","1017.973","24.91","62.07","0.0","0.0"],
    [1527624,"2026-07-07 02:00:00","74121","2.6719999999999997","269.5","3.528","269.4","1017.948","24.67","58.48","0.0","0.0"],
    [1527625,"2026-07-07 02:10:00","74122","2.458","266.0","3.5610000000000004","259.0","1017.903","24.52","55.4","0.0","0.0"],
    [1527626,"2026-07-07 02:20:00","74123","2.332","266.0","3.005","255.8","1017.834","24.26","54.26","0.0","0.0"],
    [1527627,"2026-07-07 02:30:00","74124","2.4330000000000003","258.2","3.1689999999999996","259.7","1017.764","24.2","53.2","0.0","0.0"],
    [1527628,"2026-07-07 02:40:00","74125","1.806","256.5","2.7439999999999998","257.3","1017.733","24.19","53.44","0.0","0.0"],
    [1527629,"2026-07-07 02:50:00","74126","1.6909999999999998","256.9","2.613","256.1","1017.653","24.05","53.66","0.0","0.0"],
    [1527630,"2026-07-07 03:00:00","74127","1.379","263.0","2.0580000000000003","267.7","1017.55","24.22","52.5","0.0","0.0"],
    [1527631,"2026-07-07 03:10:00","74128","2.002","263.5","3.332","263.3","1017.471","24.29","51.72","0.0","0.0"],
    [1527632,"2026-07-07 03:20:00","74129","3.053","269.6","3.9530000000000003","266.6","1017.472","24.27","51.56","0.0","0.0"],
    [1527633,"2026-07-07 03:30:00","74130","3.4560000000000004","265.8","3.92","263.7","1017.456","24.23","49.72","0.0","0.0"],
    [1527634,"2026-07-07 03:40:00","74131","3.013","267.0","3.855","270.9","1017.449","24.41","48.25","0.0","0.0"],
    [1527635,"2026-07-07 03:50:00","74132","2.655","265.2","4.1160000000000005","269.4","1017.509","24.32","48.11","0.0","0.0"],
    [1527636,"2026-07-07 04:00:00","74133","2.201","258.7","3.822","245.6","1017.581","24.36","46.88","0.0","0.0"],
    [1527637,"2026-07-07 04:10:00","74134","2.5380000000000003","259.3","4.083","251.6","1017.619","24.25","46.05","0.0","0.0"],
    [1527638,"2026-07-07 04:20:00","74135","2.972","254.3","4.998","259.0","1017.634","24.31","44.55","0.0","0.0"],
    [1527639,"2026-07-07 04:30:00","74136","3.4939999999999998","255.9","5.586","251.9","1017.679","24.39","43.67","1.45","0.0"],
    [1527640,"2026-07-07 04:40:00","74137","2.971","254.9","5.292000000000001","255.0","1017.787","24.35","43.73","7.532","0.0"],
    [1527641,"2026-07-07 04:50:00","74138","3.1719999999999997","255.9","4.965","262.5","1017.867","24.42","42.91","18.58","0.0"],
    [1527642,"2026-07-07 05:00:00","74139","3.06","267.2","4.573","252.4","1017.856","24.4","43.03","37.36","0.0"],
    [1527643,"2026-07-07 05:10:00","74140","2.9330000000000003","275.9","4.573","266.6","1017.958","24.95","40.84","51.01","0.0"],
    [1527644,"2026-07-07 05:20:00","74141","2.542","267.0","4.41","260.3","1017.971","25.5","39.48","77.93","0.0"],
    [1527645,"2026-07-07 05:30:00","74142","2.406","268.9","3.7889999999999997","254.2","1018.002","25.66","39.04","100.3","0.0"],
    [1527646,"2026-07-07 05:40:00","74143","2.122","273.2","3.299","280.7","1018.066","25.67","38.87","111.1","0.0"],
    [1527647,"2026-07-07 05:50:00","74144","3.043","272.8","4.4430000000000005","271.4","1018.046","25.91","37.86","148.5","0.0"],
    [1527648,"2026-07-07 06:00:00","74145","2.8489999999999998","266.0","4.541","274.1","1018.048","25.89","37.98","177.5","0.0"],
    [1527649,"2026-07-07 06:10:00","74146","2.5069999999999997","257.1","3.659","256.3","1018.061","26.07","37.46","206.2","0.0"],
    [1527650,"2026-07-07 06:20:00","74147","2.2640000000000002","255.5","3.5610000000000004","275.8","1018.067","26.29","37.07","235.5","0.0"],
    [1527651,"2026-07-07 06:30:00","74148","1.9580000000000002","255.7","3.7239999999999998","247.0","1018.127","26.53","36.76","265.4","0.0"],
    [1527652,"2026-07-07 06:40:00","74149","1.571","277.5","2.9730000000000003","264.2","1018.21","26.86","36.55","294.0","0.0"],
    [1527653,"2026-07-07 06:50:00","74150","1.229","289.8","2.025","260.8","1018.245","27.24","35.41","323.0","0.0"],
    [1527654,"2026-07-07 07:00:00","74151","1.2670000000000001","48.04","2.842","43.58","1018.316","27.36","37.99","354.6","0.0"],
    [1527655,"2026-07-07 07:10:00","74152","0.934","61.61","2.123","43.84","1018.328","26.33","44.98","389.3","0.0"],
    [1527656,"2026-07-07 07:20:00","74153","1.2890000000000001","51.09","1.993","53.0","1018.356","26.61","43.74","418.8","0.0"],
    [1527657,"2026-07-07 07:30:00","74154","1.2819999999999998","115.0","1.666","107.7","1018.418","26.36","44.15","452.4","0.0"],
    [1527658,"2026-07-07 07:40:00","74155","1.073","126.4","1.47","90.9","1018.488","26.25","46.78","482.5","0.0"],
    [1527659,"2026-07-07 07:50:00","74156","1.1320000000000001","206.2","3.855","257.2","1018.517","27.28","37.18","512.0","0.0"],
    [1527660,"2026-07-07 08:00:00","74157","1.881","268.7","3.365","267.0","1018.561","28.59","32.6","546.9","0.0"],
    [1527661,"2026-07-07 08:10:00","74158","2.16","264.0","3.528","253.3","1018.585","28.7","37.17","581.3","0.0"],
    [1527662,"2026-07-07 08:20:00","74159","3.1710000000000003","179.0","4.279","174.9","1018.473","27.13","62.75","619.9","0.0"],
    [1527663,"2026-07-07 08:30:00","74160","3.2510000000000003","180.5","4.704","174.6","1018.359","25.92","75.12","649.6","0.0"],
    [1527664,"2026-07-07 08:40:00","74161","4.329","175.2","5.063","176.1","1018.274","25.52","79.51","677.9","0.0"],
    [1527665,"2026-07-07 08:50:00","74162","4.154","174.5","4.933","170.0","1018.298","25.22","80.8","702.3","0.0"],
    [1527666,"2026-07-07 09:00:00","74163","4.378","177.9","5.194","173.5","1018.342","25.18","80.6","725.4","0.0"],
    [1527667,"2026-07-07 09:10:00","74164","4.059","182.3","5.096","178.8","1018.366","25.52","78.36","749.8","0.0"],
    [1527668,"2026-07-07 09:20:00","74165","4.433","177.1","5.1610000000000005","179.0","1018.402","25.24","80.3","773.8","0.0"],
    [1527669,"2026-07-07 09:30:00","74166","4.493","175.3","5.1610000000000005","174.4","1018.375","25.4","80.0","797.0","0.0"],
    [1527670,"2026-07-07 09:40:00","74167","4.377","171.8","5.031000000000001","176.7","1018.344","25.22","81.0","820.0","0.0"],
    [1527671,"2026-07-07 09:50:00","74168","3.8369999999999997","164.8","4.2139999999999995","166.5","1018.37","25.22","81.7","838.0","0.0"],
    [1527672,"2026-07-07 10:00:00","74169","3.945","167.3","4.247","168.0","1018.474","25.46","80.6","856.0","0.0"],
    [1527673,"2026-07-07 10:10:00","74170","3.428","163.5","3.9530000000000003","168.6","1018.509","25.52","80.8","871.0","0.0"],
    [1527674,"2026-07-07 10:20:00","74171","3.4160000000000004","166.2","4.1160000000000005","170.1","1018.541","25.72","80.8","882.0","0.0"],
    [1527675,"2026-07-07 10:30:00","74172","3.346","158.6","3.593","155.3","1018.583","25.63","80.7","897.0","0.0"],
    [1527676,"2026-07-07 10:40:00","74173","3.1239999999999997","151.3","3.397","157.7","1018.548","25.68","80.8","909.0","0.0"],
    [1527677,"2026-07-07 10:50:00","74174","2.596","151.8","3.201","158.3","1018.577","25.78","81.5","920.0","0.0"],
    [1527678,"2026-07-07 11:00:00","74175","2.78","140.8","3.43","137.6","1018.526","25.91","82.0","930.0","0.0"],
    [1527679,"2026-07-07 11:10:00","74176","2.555","127.5","3.332","126.1","1018.52","26.2","81.1","937.0","0.0"],
    [1527680,"2026-07-07 11:20:00","74177","2.376","124.7","3.103","122.0","1018.488","26.46","79.87","942.0","0.0"],
    [1527681,"2026-07-07 11:30:00","74178","2.9330000000000003","121.7","3.822","118.2","1018.453","26.5","79.73","949.0","0.0"],
    [1527682,"2026-07-07 11:40:00","74179","2.7430000000000003","110.6","3.5610000000000004","119.9","1018.403","26.64","79.81","955.0","0.0"],
    [1527683,"2026-07-07 11:50:00","74180","2.7460000000000004","94.5","3.659","92.7","1018.39","26.68","80.2","960.0","0.0"],
    [1527684,"2026-07-07 12:00:00","74181","2.727","101.0","3.6910000000000003","97.0","1018.409","26.7","79.48","962.0","0.0"],
    [1527685,"2026-07-07 12:10:00","74182","3.267","113.5","4.247","120.1","1018.369","26.96","76.1","964.0","0.0"],
    [1527686,"2026-07-07 12:20:00","74183","3.0789999999999997","109.5","4.2139999999999995","107.5","1018.385","27.1","75.13","964.0","0.0"],
    [1527687,"2026-07-07 12:30:00","74184","2.984","107.7","3.9530000000000003","119.3","1018.4","27.11","74.82","963.0","0.0"],
    [1527688,"2026-07-07 12:40:00","74185","3.03","98.7","3.92","101.3","1018.396","27.12","74.96","960.0","0.0"],
    [1527689,"2026-07-07 12:50:00","74186","2.964","98.3","3.92","106.6","1018.377","27.14","75.42","953.0","0.0"],
    [1527690,"2026-07-07 13:00:00","74187","2.99","99.4","4.083","109.5","1018.34","27.19","75.58","944.0","0.0"],
    [1527691,"2026-07-07 13:10:00","74188","2.7969999999999997","93.2","3.7569999999999997","98.9","1018.343","27.29","75.4","933.0","0.0"],
    [1527692,"2026-07-07 13:20:00","74189","2.883","95.9","3.855","96.7","1018.298","27.32","75.69","922.0","0.0"],
    [1527693,"2026-07-07 13:30:00","74190","3.0580000000000003","98.4","3.9530000000000003","87.7","1018.268","27.35","76.52","910.0","0.0"],
    [1527694,"2026-07-07 13:40:00","74191","2.819","92.9","4.1160000000000005","85.6","1018.256","27.35","77.63","894.0","0.0"],
    [1527695,"2026-07-07 13:50:00","74192","2.9419999999999997","87.2","4.4430000000000005","91.7","1018.261","27.42","77.76","876.0","0.0"],
    [1527696,"2026-07-07 14:00:00","74193","2.9739999999999998","90.7","4.247","91.9","1018.239","27.45","77.91","856.0","0.0"],
    [1527697,"2026-07-07 14:10:00","74194","2.891","87.3","4.345","86.1","1018.26","27.49","76.46","834.0","0.0"],
    [1527698,"2026-07-07 14:20:00","74195","3.343","89.2","4.737","91.2","1018.254","27.6","75.23","813.0","0.0"],
    [1527699,"2026-07-07 14:30:00","74196","3.1319999999999997","92.5","4.083","84.9","1018.244","27.61","75.55","790.3","0.0"],
    [1527700,"2026-07-07 14:40:00","74197","3.17","87.6","4.149","81.9","1018.174","27.6","75.9","765.7","0.0"],
    [1527701,"2026-07-07 14:50:00","74198","3.262","82.7","4.181","81.2","1018.093","27.52","76.69","744.4","0.0"],
    [1527702,"2026-07-07 15:00:00","74199","3.1439999999999997","87.1","4.377","86.9","1018.082","27.57","75.99","718.1","0.0"],
    [1527703,"2026-07-07 15:10:00","74200","2.576","59.1","4.41","61.33","1018.039","27.57","78.53","690.3","0.0"],
    [1527704,"2026-07-07 15:20:00","74201","4.004","38.65","5.422999999999999","41.51","1017.94","26.92","82.5","664.7","0.0"],
    [1527705,"2026-07-07 15:30:00","74202","4.362","36.51","5.292000000000001","29.67","1017.988","26.52","83.5","635.8","0.0"],
    [1527706,"2026-07-07 15:40:00","74203","4.401","30.99","5.422999999999999","28.52","1018.006","26.53","82.4","607.1","0.0"],
    [1527707,"2026-07-07 15:50:00","74204","3.966","37.14","4.933","31.21","1017.97","26.65","81.9","572.0","0.0"],
    [1527708,"2026-07-07 16:00:00","74205","4.256","40.4","5.2589999999999995","46.27","1017.936","26.67","81.4","526.3","0.0"],
    [1527709,"2026-07-07 16:10:00","74206","4.31","39.68","5.553","39.42","1017.883","26.54","80.5","463.5","0.0"],
    [1527710,"2026-07-07 16:20:00","74207","4.763999999999999","41.28","5.586","50.16","1017.783","26.44","78.92","449.5","0.0"],
    [1527711,"2026-07-07 16:30:00","74208","4.181","41.14","5.357","42.9","1017.813","26.52","77.46","423.6","0.0"],
    [1527712,"2026-07-07 16:40:00","74209","3.9210000000000003","37.75","4.9","46.25","1017.831","26.6","76.21","394.6","0.0"],
    [1527713,"2026-07-07 16:50:00","74210","4.574","30.98","5.422999999999999","29.51","1017.836","26.45","75.84","368.3","0.0"],
    [1527714,"2026-07-07 17:00:00","74211","4.346","32.03","5.684","29.22","1017.853","26.54","75.03","351.9","0.0"],
    [1527715,"2026-07-07 17:10:00","74212","4.938","27.45","6.011","29.94","1017.996","26.45","72.43","324.4","0.0"],
    [1527716,"2026-07-07 17:20:00","74213","4.7410000000000005","30.43","6.011","30.07","1018.087","26.58","69.56","292.7","0.0"],
    [1527717,"2026-07-07 17:30:00","74214","4.461","30.02","5.553","31.79","1018.14","26.75","67.58","256.3","0.0"],
    [1527718,"2026-07-07 17:40:00","74215","4.084","40.1","5.063","34.93","1018.17","26.82","67.42","218.2","0.0"],
    [1527719,"2026-07-07 17:50:00","74216","3.8569999999999998","40.13","4.573","36.72","1018.076","26.75","67.7","166.0","0.0"],
    [1527720,"2026-07-07 18:00:00","74217","3.6069999999999998","37.36","4.475","35.76","1017.984","26.57","68.8","132.4","0.0"],
    [1527721,"2026-07-07 18:10:00","74218","3.405","33.13","4.279","30.92","1018.056","26.59","68.91","121.3","0.0"],
    [1527722,"2026-07-07 18:20:00","74219","1.6840000000000002","47.22","2.6460000000000004","48.63","1018.058","26.82","71.48","79.28","0.0"],
    [1527723,"2026-07-07 18:30:00","74220","1.935","35.61","2.5810000000000004","26.93","1018.025","26.83","72.13","67.39","0.0"],
    [1527724,"2026-07-07 18:40:00","74221","1.599","48.07","2.417","35.6","1018.031","26.91","73.47","64.89","0.0"],
    [1527725,"2026-07-07 18:50:00","74222","0.8170000000000001","85.4","1.829","85.5","1018.001","27.14","77.33","58.53","0.0"],
    [1527726,"2026-07-07 19:00:00","74223","0.58","69.52","1.111","74.39","1018.032","26.89","77.2","31.58","0.0"],
    [1527727,"2026-07-07 19:10:00","74224","0.7559999999999999","150.3","1.633","156.5","1018.021","26.79","77.67","11.45","0.0"],
    [1527728,"2026-07-07 19:20:00","74225","1.225","142.2","1.8619999999999999","159.9","1017.984","26.53","78.83","3.946","0.0"],
    [1527729,"2026-07-07 19:30:00","74226","0.16899999999999998","106.5","0.6859999999999999","140.3","1018.122","26.4","79.41","0.371","0.0"],
    [1527730,"2026-07-07 19:40:00","74227","0.0","0.0","0.0","0.0","1018.198","26.37","79.93","0.0","0.0"],
    [1527731,"2026-07-07 19:50:00","74228","0.878","215.7","2.0580000000000003","219.6","1018.217","26.49","81.2","0.0","0.0"],
    [1527732,"2026-07-07 20:00:00","74229","2.074","205.8","2.907","203.2","1018.29","26.73","81.5","0.0","0.0"],
    [1527733,"2026-07-07 20:10:00","74230","1.466","210.3","2.679","197.3","1018.412","26.82","79.45","0.0","0.0"],
    [1527734,"2026-07-07 20:20:00","74231","1.857","251.1","3.593","270.3","1018.537","27.5","70.5","0.0","0.0"],
    [1527735,"2026-07-07 20:30:00","74232","2.073","253.9","3.593","261.3","1018.551","27.88","69.03","0.0","0.0"],
    [1527736,"2026-07-07 20:40:00","74233","1.666","239.0","3.299","263.3","1018.672","27.78","72.23","0.0","0.0"],
    [1527737,"2026-07-07 20:50:00","74234","1.371","239.9","3.201","254.3","1018.775","27.56","74.89","0.0","0.0"],
    [1527738,"2026-07-07 21:00:00","74235","1.8259999999999998","248.6","3.0380000000000003","252.8","1018.893","27.53","75.35","0.0","0.0"],
    [1527739,"2026-07-07 21:10:00","74236","2.3930000000000002","233.8","3.822","203.5","1018.754","27.61","73.91","0.0","0.0"],
    [1527740,"2026-07-07 21:20:00","74237","4.2219999999999995","203.2","5.684","196.0","1018.465","27.38","75.83","0.0","0.0"],
    [1527741,"2026-07-07 21:30:00","74238","3.327","209.8","4.638999999999999","196.3","1018.412","27.55","75.63","0.0","0.0"],
    [1527742,"2026-07-07 21:40:00","74239","3.5060000000000002","202.6","5.2589999999999995","203.5","1018.32","27.16","77.51","0.0","0.0"],
    [1527743,"2026-07-07 21:50:00","74240","3.074","217.8","4.835","220.1","1018.275","27.35","76.8","0.0","0.0"],
    [1527744,"2026-07-07 22:00:00","74241","2.989","208.4","4.867","206.5","1018.241","27.24","77.66","0.0","0.0"],
    [1527745,"2026-07-07 22:10:00","74242","2.301","241.3","4.149","256.4","1018.166","27.3","78.92","0.0","0.0"],
    [1527746,"2026-07-07 22:20:00","74243","2.41","252.4","4.018","258.7","1018.162","27.09","79.24","0.0","0.0"],
    [1527747,"2026-07-07 22:30:00","74244","2.531","254.0","3.9530000000000003","268.3","1018.15","26.97","80.2","0.0","0.0"],
    [1527748,"2026-07-07 22:40:00","74245","2.432","240.0","4.083","245.6","1018.019","26.99","79.97","0.0","0.0"],
    [1527749,"2026-07-07 22:50:00","74246","2.505","253.9","4.508","263.1","1018.062","27.09","78.58","0.0","0.0"],
    [1527750,"2026-07-07 23:00:00","74247","2.613","246.8","5.031000000000001","248.8","1018.084","27.02","77.8","0.0","0.0"],
    [1527751,"2026-07-07 23:10:00","74248","3.0210000000000004","249.9","5.455","259.4","1018.008","27.12","77.2","0.0","0.0"],
    [1527752,"2026-07-07 23:20:00","74249","3.1639999999999997","250.1","4.998","236.8","1017.892","27.23","76.03","0.0","0.0"],
    [1527753,"2026-07-07 23:30:00","74250","3.055","249.1","5.39","264.4","1017.774","27.1","76.23","0.0","0.0"],
    [1527754,"2026-07-07 23:40:00","74251","3.092","246.3","4.867","238.3","1017.714","27.03","73.18","0.0","0.0"],
    [1527755,"2026-07-07 23:50:00","74252","3.2039999999999997","254.1","5.1610000000000005","252.2","1017.735","27.16","71.33","0.0","0.0"],
    [1527756,"2026-07-08 00:00:00","74253","3.298","260.5","6.207000000000001","253.7","1017.729","27.24","68.88","0.0","0.0"],
    [1527757,"2026-07-08 00:10:00","74254","3.0039999999999996","248.4","4.835","247.6","1017.648","27.52","63.23","0.0","0.0"],
    [1527758,"2026-07-08 00:20:00","74255","2.5869999999999997","226.8","4.933","198.5","1017.531","27.79","60.79","0.0","0.0"],
    [1527759,"2026-07-08 00:30:00","74256","3.487","215.6","5.815","219.0","1017.34","27.81","59.25","0.0","0.0"],
    [1527760,"2026-07-08 00:40:00","74257","3.779","222.0","6.305","221.0","1017.152","27.75","57.89","0.0","0.0"],
    [1527761,"2026-07-08 00:50:00","74258","2.162","233.0","4.279","202.5","1017.075","27.66","57.99","0.0","0.0"],
    [1527762,"2026-07-08 01:00:00","74259","1.801","248.5","3.267","260.5","1017.131","27.36","58.39","0.0","0.0"],
    [1527763,"2026-07-08 01:10:00","74260","2.614","223.9","4.9","217.3","1017.024","27.08","58.53","0.0","0.0"],
    [1527764,"2026-07-08 01:20:00","74261","3.687","221.2","5.031000000000001","213.2","1016.936","27.29","56.09","0.0","0.0"],
    [1527765,"2026-07-08 01:30:00","74262","2.41","219.6","3.495","217.5","1016.801","27.31","54.44","0.0","0.0"],
    [1527766,"2026-07-08 01:40:00","74263","1.261","241.0","2.319","217.4","1016.719","27.13","55.88","0.0","0.0"],
    [1527767,"2026-07-08 01:50:00","74264","1.291","241.0","2.385","257.4","1016.532","26.75","56.54","0.0","0.0"],
    [1527768,"2026-07-08 02:00:00","74265","1.436","242.7","2.7110000000000003","234.9","1016.466","26.56","55.29","0.0","0.0"],
    [1527769,"2026-07-08 02:10:00","74266","2.023","234.6","3.103","249.2","1016.437","26.38","54.45","0.0","0.0"],
    [1527770,"2026-07-08 02:20:00","74267","1.629","251.5","2.483","244.3","1016.318","26.36","54.93","0.0","0.0"],
    [1527771,"2026-07-08 02:30:00","74268","1.619","251.7","2.515","275.8","1016.23","26.28","53.49","0.0","0.0"],
    [1527772,"2026-07-08 02:40:00","74269","1.761","249.8","2.907","273.3","1016.105","26.48","52.09","0.0","0.0"],
    [1527773,"2026-07-08 02:50:00","74270","1.365","228.6","2.189","219.6","1016.036","26.53","52.51","0.0","0.0"],
    [1527774,"2026-07-08 03:00:00","74271","2.061","224.6","3.5610000000000004","226.4","1016.012","26.65","52.78","0.0","0.0"],
    [1527775,"2026-07-08 03:10:00","74272","1.69","239.3","3.267","246.6","1015.978","26.56","53.84","0.0","0.0"],
    [1527776,"2026-07-08 03:20:00","74273","2.69","264.1","4.345","272.0","1015.984","26.6","54.48","0.0","0.0"],
    [1527777,"2026-07-08 03:30:00","74274","2.4530000000000003","260.6","4.606","266.8","1015.921","26.47","54.91","0.0","0.0"],
    [1527778,"2026-07-08 03:40:00","74275","1.617","249.3","2.8089999999999997","274.2","1015.882","26.57","54.44","0.0","0.0"],
    [1527779,"2026-07-08 03:50:00","74276","1.985","255.6","3.005","245.1","1015.865","26.58","53.81","0.0","0.0"],
    [1527780,"2026-07-08 04:00:00","74277","2.213","236.9","3.43","255.0","1015.967","26.74","53.23","0.0","0.0"],
    [1527781,"2026-07-08 04:10:00","74278","1.625","252.9","3.463","251.4","1015.933","26.52","54.05","0.0","0.0"],
    [1527782,"2026-07-08 04:20:00","74279","2.322","264.0","3.7569999999999997","264.8","1015.909","26.01","55.49","0.039","0.0"],
    [1527783,"2026-07-08 04:30:00","74280","1.798","264.9","3.267","255.9","1015.933","25.54","57.38","1.538","0.0"],
    [1527784,"2026-07-08 04:40:00","74281","1.54","244.1","4.247","253.2","1016.011","25.74","55.83","6.337000000000001","0.0"],
    [1527785,"2026-07-08 04:50:00","74282","2.886","245.7","4.704","259.6","1016.081","25.93","54.29","15.59","0.0"],
    [1527786,"2026-07-08 05:00:00","74283","2.648","240.3","4.312","261.9","1016.243","26.28","52.17","29.67","0.0"],
    [1527787,"2026-07-08 05:10:00","74284","1.984","246.2","3.6260000000000003","254.0","1016.21","26.4","51.47","46.37","0.0"],
    [1527788,"2026-07-08 05:20:00","74285","1.236","267.8","2.352","265.1","1016.105","26.52","51.09","68.18","0.0"],
    [1527789,"2026-07-08 05:30:00","74286","1.464","243.5","2.6460000000000004","234.3","1016.159","26.66","49.94","90.5","0.0"],
    [1527790,"2026-07-08 05:40:00","74287","1.4269999999999998","254.5","2.45","264.3","1016.093","26.81","49.75","113.0","0.0"],
    [1527791,"2026-07-08 05:50:00","74288","1.821","244.1","2.842","261.3","1016.179","26.81","49.51","138.5","0.0"],
    [1527792,"2026-07-08 06:00:00","74289","1.655","256.4","3.0380000000000003","263.9","1016.221","26.89","49.75","165.3","0.0"],
    [1527793,"2026-07-08 06:10:00","74290","1.4180000000000001","267.5","2.287","266.1","1016.26","27.08","49.62","192.0","0.0"],
    [1527794,"2026-07-08 06:20:00","74291","0.736","244.8","1.633","232.8","1016.378","27.28","48.75","218.8","0.0"],
    [1527795,"2026-07-08 06:30:00","74292","0.74","269.3","1.666","223.3","1016.403","27.54","47.71","249.2","0.0"],
    [1527796,"2026-07-08 06:40:00","74293","0.633","246.2","1.339","234.1","1016.409","27.84","47.39","278.8","0.0"],
    [1527797,"2026-07-08 06:50:00","74294","0.527","208.7","1.47","264.1","1016.445","28.13","47.04","310.3","0.0"],
    [1527798,"2026-07-08 07:00:00","74295","0.491","194.0","1.339","170.3","1016.581","28.16","47.01","337.8","0.0"],
    [1527799,"2026-07-08 07:10:00","74296","1.55","227.8","3.92","222.7","1016.65","28.51","45.8","372.4","0.0"],
    [1527800,"2026-07-08 07:20:00","74297","2.332","222.8","4.475","218.5","1016.696","28.56","44.66","408.8","0.0"],
    [1527801,"2026-07-08 07:30:00","74298","2.148","227.9","3.985","224.5","1016.704","28.47","51.38","441.2","0.0"],
    [1527802,"2026-07-08 07:40:00","74299","1.85","241.4","3.103","236.5","1016.684","28.58","54.84","472.5","0.0"],
    [1527803,"2026-07-08 07:50:00","74300","1.685","239.1","2.9730000000000003","255.8","1016.64","28.86","53.64","505.7","0.0"],
    [1527804,"2026-07-08 08:00:00","74301","1.7269999999999999","243.0","2.9730000000000003","268.3","1016.653","29.28","51.52","535.6","0.0"],
    [1527805,"2026-07-08 08:10:00","74302","1.93","259.8","3.659","262.5","1016.718","29.88","46.38","565.5","0.0"],
    [1527806,"2026-07-08 08:20:00","74303","1.7269999999999999","290.5","3.234","297.9","1016.706","30.3","43.75","590.9","0.0"],
    [1527807,"2026-07-08 08:30:00","74304","1.5490000000000002","276.8","2.5810000000000004","260.0","1016.666","30.66","40.44","619.4","0.0"],
    [1527808,"2026-07-08 08:40:00","74305","0.9690000000000001","270.4","1.8619999999999999","274.6","1016.647","31.31","37.04","649.5","0.0"],
    [1527809,"2026-07-08 08:50:00","74306","1.392","196.8","2.45","217.2","1016.657","31.46","37.76","679.8","0.0"],
    [1527810,"2026-07-08 09:00:00","74307","2.33","166.2","2.94","162.4","1016.662","29.94","48.17","711.3","0.0"],
    [1527811,"2026-07-08 09:10:00","74308","2.793","179.9","3.7239999999999998","179.5","1016.633","28.55","59.65","736.3","0.0"],
    [1527812,"2026-07-08 09:20:00","74309","2.483","170.4","2.94","168.5","1016.605","28.54","59.3","759.9","0.0"],
    [1527813,"2026-07-08 09:30:00","74310","2.563","169.8","3.103","175.7","1016.568","28.5","59.23","783.6","0.0"],
    [1527814,"2026-07-08 09:40:00","74311","2.635","175.4","3.365","182.4","1016.591","28.18","62.16","807.0","0.0"],
    [1527815,"2026-07-08 09:50:00","74312","2.765","184.0","3.659","181.0","1016.556","28.45","59.97","827.0","0.0"],
    [1527816,"2026-07-08 10:00:00","74313","2.7230000000000003","181.2","3.593","172.1","1016.524","27.89","65.25","847.0","0.0"],
    [1527817,"2026-07-08 10:10:00","74314","2.8280000000000003","185.2","3.6260000000000003","177.5","1016.471","27.75","67.1","868.0","0.0"],
    [1527818,"2026-07-08 10:20:00","74315","2.685","184.1","3.234","186.3","1016.468","28.29","62.38","882.0","0.0"],
    [1527819,"2026-07-08 10:30:00","74316","2.846","186.5","3.5610000000000004","181.1","1016.471","28.26","62.53","895.0","0.0"],
    [1527820,"2026-07-08 10:40:00","74317","3.2110000000000003","182.3","4.247","177.6","1016.473","29.1","56.13","906.0","0.0"],
    [1527821,"2026-07-08 10:50:00","74318","2.835","182.1","3.7889999999999997","176.1","1016.419","28.24","63.31","915.0","0.0"],
    [1527822,"2026-07-08 11:00:00","74319","2.8930000000000002","179.5","3.6260000000000003","176.7","1016.442","28.88","56.41","920.0","0.0"],
    [1527823,"2026-07-08 11:10:00","74320","2.359","185.4","3.5610000000000004","176.0","1016.425","29.02","57.83","931.0","0.0"],
    [1527824,"2026-07-08 11:20:00","74321","2.937","180.2","3.822","174.9","1016.345","29.33","53.74","936.0","0.0"],
    [1527825,"2026-07-08 11:30:00","74322","2.525","183.2","3.43","178.5","1016.3","29.72","49.47","938.0","0.0"],
    [1527826,"2026-07-08 11:40:00","74323","2.238","185.6","3.071","181.1","1016.269","30.44","46.86","941.0","0.0"],
    [1527827,"2026-07-08 11:50:00","74324","2.353","186.6","2.9730000000000003","190.8","1016.195","30.47","46.02","945.0","0.0"],
    [1527828,"2026-07-08 12:00:00","74325","2.481","185.2","2.907","187.6","1016.128","30.66","44.89","948.0","0.0"],
    [1527829,"2026-07-08 12:10:00","74326","2.478","179.2","3.593","171.3","1015.995","30.67","44.21","950.0","0.0"],
    [1527830,"2026-07-08 12:20:00","74327","3.273","176.0","4.083","177.5","1015.863","30.49","44.78","949.0","0.0"],
    [1527831,"2026-07-08 12:30:00","74328","3.035","180.6","4.1160000000000005","174.3","1015.716","30.49","44.97","947.0","0.0"],
    [1527832,"2026-07-08 12:40:00","74329","2.875","183.9","3.593","186.6","1015.602","30.46","45.62","948.0","0.0"],
    [1527833,"2026-07-08 12:50:00","74330","2.968","180.5","4.051","184.1","1015.504","29.87","52.72","944.0","0.0"],
    [1527834,"2026-07-08 13:00:00","74331","2.699","180.0","3.659","172.2","1015.421","29.65","54.27","937.0","0.0"],
    [1527835,"2026-07-08 13:10:00","74332","3.4989999999999997","177.0","5.521","172.3","1015.345","29.2","60.49","930.0","0.0"],
    [1527836,"2026-07-08 13:20:00","74333","4.667","179.5","5.782","173.3","1015.296","28.14","71.42","923.0","0.0"],
    [1527837,"2026-07-08 13:30:00","74334","4.979","177.7","6.1739999999999995","176.1","1015.248","27.6","77.53","907.0","0.0"],
    [1527838,"2026-07-08 13:40:00","74335","5.187","185.5","6.599","190.3","1015.184","27.79","78.42","891.0","0.0"],
    [1527839,"2026-07-08 13:50:00","74336","5.053","186.3","6.305","186.0","1015.131","27.71","78.8","878.0","0.0"],
    [1527840,"2026-07-08 14:00:00","74337","4.8919999999999995","185.4","6.1739999999999995","189.7","1015.057","27.87","76.22","859.0","0.0"],
    [1527841,"2026-07-08 14:10:00","74338","5.437","186.2","6.925","190.3","1014.888","28.12","73.74","839.0","0.0"],
    [1527842,"2026-07-08 14:20:00","74339","5.625","188.6","6.925","187.6","1014.768","28.81","67.36","816.0","0.0"],
    [1527843,"2026-07-08 14:30:00","74340","5.147","184.1","6.827000000000001","186.6","1014.682","29.29","63.39","795.7","0.0"],
    [1527844,"2026-07-08 14:40:00","74341","5.091","183.0","6.403","180.7","1014.602","28.67","69.41","774.8","0.0"],
    [1527845,"2026-07-08 14:50:00","74342","5.867999999999999","189.3","6.957999999999999","186.1","1014.553","29.14","64.96","746.0","0.0"],
    [1527846,"2026-07-08 15:00:00","74343","5.36","186.4","6.729","186.8","1014.56","29.44","63.91","721.0","0.0"],
    [1527847,"2026-07-08 15:10:00","74344","6.07","190.3","7.0889999999999995","190.5","1014.558","29.25","65.13","696.6","0.0"],
    [1527848,"2026-07-08 15:20:00","74345","5.499","192.0","7.481","183.5","1014.529","29.15","66.55","669.8","0.0"],
    [1527849,"2026-07-08 15:30:00","74346","5.307","194.1","6.9910000000000005","200.4","1014.517","29.25","65.86","640.8","0.0"],
    [1527850,"2026-07-08 15:40:00","74347","4.875","193.7","6.599","196.0","1014.486","28.98","68.31","609.9","0.0"],
    [1527851,"2026-07-08 15:50:00","74348","5.2620000000000005","191.4","6.729","196.6","1014.432","29.09","68.93","580.4","0.0"],
    [1527852,"2026-07-08 16:00:00","74349","5.175","191.6","6.957999999999999","195.6","1014.387","28.93","70.3","548.4","0.0"],
    [1527853,"2026-07-08 16:10:00","74350","5.188","189.9","6.5329999999999995","201.2","1014.369","28.89","69.68","517.2","0.0"],
    [1527854,"2026-07-08 16:20:00","74351","4.688","193.7","6.631","168.8","1014.365","28.8","69.88","487.9","0.0"],
    [1527855,"2026-07-08 16:30:00","74352","4.852","190.0","6.501","188.4","1014.343","28.87","69.43","455.5","0.0"],
    [1527856,"2026-07-08 16:40:00","74353","4.343999999999999","194.4","6.337000000000001","191.2","1014.358","28.82","69.92","423.5","0.0"],
    [1527857,"2026-07-08 16:50:00","74354","4.345","193.7","5.847","193.6","1014.39","28.95","69.58","391.6","0.0"],
    [1527858,"2026-07-08 17:00:00","74355","3.4560000000000004","199.5","5.031000000000001","198.2","1014.506","29.22","66.53","357.1","0.0"],
    [1527859,"2026-07-08 17:10:00","74356","3.6210000000000004","194.7","5.096","189.8","1014.49","29.33","65.55","305.7","0.0"],
    [1527860,"2026-07-08 17:20:00","74357","4.07","189.7","5.194","208.2","1014.42","29.32","64.96","265.7","0.0"],
    [1527861,"2026-07-08 17:30:00","74358","4.268","187.7","5.847","190.7","1014.396","28.86","66.82","246.9","0.0"],
    [1527862,"2026-07-08 17:40:00","74359","3.8739999999999997","186.5","5.1610000000000005","192.4","1014.323","28.77","67.25","219.9","0.0"],
    [1527863,"2026-07-08 17:50:00","74360","4.6160000000000005","186.0","5.684","187.4","1014.272","28.57","67.52","185.2","0.0"],
    [1527864,"2026-07-08 18:00:00","74361","3.886","194.8","4.998","196.6","1014.289","28.81","64.36","156.8","0.0"],
    [1527865,"2026-07-08 18:10:00","74362","3.562","186.9","4.377","193.4","1014.31","28.65","67.58","128.0","0.0"],
    [1527866,"2026-07-08 18:20:00","74363","3.5780000000000003","185.1","4.606","185.7","1014.318","28.35","70.98","108.0","0.0"],
    [1527867,"2026-07-08 18:30:00","74364","3.313","189.9","3.985","182.8","1014.213","28.33","71.03","91.4","0.0"],
    [1527868,"2026-07-08 18:40:00","74365","2.633","183.4","3.463","188.0","1014.153","28.23","72.64","72.72","0.0"],
    [1527869,"2026-07-08 18:50:00","74366","2.149","184.0","2.7439999999999998","189.0","1014.126","27.92","74.53","52.69","0.0"],
    [1527870,"2026-07-08 19:00:00","74367","2.29","182.8","3.365","198.5","1014.139","26.93","82.5","32.66","0.0"],
    [1527871,"2026-07-08 19:10:00","74368","3.117","195.0","3.9530000000000003","195.1","1014.158","27.26","77.1","14.98","0.0"],
    [1527872,"2026-07-08 19:20:00","74369","2.0180000000000002","207.2","2.94","214.7","1014.109","28.22","71.7","6.667000000000001","0.0"],
    [1527873,"2026-07-08 19:30:00","74370","1.196","226.4","2.385","255.1","1014.13","28.29","73.22","1.446","0.0"],
    [1527874,"2026-07-08 19:40:00","74371","2.017","219.3","3.593","225.4","1014.101","28.41","71.23","0.0","0.0"],
    [1527875,"2026-07-08 19:50:00","74372","1.791","237.0","3.234","248.4","1014.082","28.28","70.55","0.0","0.0"],
    [1527876,"2026-07-08 20:00:00","74373","1.7730000000000001","254.6","2.94","245.5","1014.108","28.46","70.13","0.0","0.0"],
    [1527877,"2026-07-08 20:10:00","74374","2.168","224.0","3.1689999999999996","195.1","1013.984","28.36","69.68","0.0","0.0"],
    [1527878,"2026-07-08 20:20:00","74375","2.252","202.2","3.43","204.5","1013.822","28.23","72.84","0.0","0.0"],
    [1527879,"2026-07-08 20:30:00","74376","1.155","247.3","1.797","184.3","1013.888","28.02","73.87","0.0","0.0"],
    [1527880,"2026-07-08 20:40:00","74377","1.3090000000000002","224.2","2.417","204.1","1013.94","27.9","74.15","0.0","0.0"],
    [1527881,"2026-07-08 20:50:00","74378","0.444","216.3","1.7309999999999999","186.6","1014.069","27.67","75.79","0.0","0.0"],
    [1527882,"2026-07-08 21:00:00","74379","0.7509999999999999","215.8","1.699","163.5","1014.136","27.5","75.79","0.0","0.0"],
    [1527883,"2026-07-08 21:10:00","74380","1.05","190.2","2.8089999999999997","172.7","1014.084","27.39","76.22","0.0","0.0"],
    [1527884,"2026-07-08 21:20:00","74381","3.647","194.2","5.455","195.3","1013.987","27.45","79.06","0.0","0.0"],
    [1527885,"2026-07-08 21:30:00","74382","3.077","204.2","5.096","196.5","1014.207","27.25","81.3","0.0","0.0"],
    [1527886,"2026-07-08 21:40:00","74383","3.054","204.7","4.508","197.1","1014.171","27.42","81.8","0.0","0.0"],
    [1527887,"2026-07-08 21:50:00","74384","2.126","243.8","4.2139999999999995","261.6","1014.105","27.26","82.4","0.0","0.0"],
    [1527888,"2026-07-08 22:00:00","74385","2.524","251.6","4.377","255.1","1014.234","27.18","81.8","0.0","0.0"],
    [1527889,"2026-07-08 22:10:00","74386","2.2","255.5","4.083","258.7","1014.135","27.14","80.0","0.0","0.0"],
    [1527890,"2026-07-08 22:20:00","74387","2.384","254.4","4.475","263.3","1014.107","27.21","78.46","0.0","0.0"],
    [1527891,"2026-07-08 22:30:00","74388","1.929","254.4","3.43","259.0","1013.994","27.3","76.27","0.0","0.0"],
    [1527892,"2026-07-08 22:40:00","74389","2.503","258.4","4.737","259.8","1013.99","27.51","74.89","0.0","0.0"],
    [1527893,"2026-07-08 22:50:00","74390","1.935","266.3","3.201","256.9","1013.953","27.46","77.41","0.0","0.0"],
    [1527894,"2026-07-08 23:00:00","74391","2.194","261.8","4.149","265.5","1013.903","27.3","77.85","0.0","0.0"],
    [1527895,"2026-07-08 23:10:00","74392","1.869","257.8","3.201","265.8","1013.846","27.34","76.69","0.0","0.0"],
    [1527896,"2026-07-08 23:20:00","74393","1.883","259.9","3.005","257.8","1013.784","27.39","75.37","0.0","0.0"],
    [1527897,"2026-07-08 23:30:00","74394","1.655","265.2","2.9730000000000003","256.2","1013.681","27.45","74.01","0.0","0.0"],
    [1527898,"2026-07-08 23:40:00","74395","0.8809999999999999","247.2","1.7309999999999999","270.6","1013.548","27.63","72.28","0.0","0.0"],
    [1527899,"2026-07-08 23:50:00","74396","1.264","290.6","1.993","303.9","1013.47","27.67","72.59","0.0","0.0"],
    [1527900,"2026-07-09 00:00:00","74397","0.7190000000000001","294.2","1.601","286.4","1013.439","27.5","74.15","0.0","0.0"],
    [1527901,"2026-07-09 00:10:00","74398","1.469","257.3","2.0580000000000003","258.2","1013.432","27.46","75.6","0.0","0.0"],
    [1527902,"2026-07-09 00:20:00","74399","1.3159999999999998","288.1","2.0580000000000003","270.5","1013.424","27.5","76.91","0.0","0.0"],
    [1527903,"2026-07-09 00:30:00","74400","1.507","352.6","1.8619999999999999","353.5","1013.261","27.21","76.87","0.0","0.0"],
    [1527904,"2026-07-09 00:40:00","74401","1.695","5.145","2.025","8.97","1013.126","27.8","68.35","0.0","0.0"],
    [1527905,"2026-07-09 00:50:00","74402","0.9009999999999999","2.185","1.829","12.98","1013.009","27.88","63.49","0.0","0.0"],
    [1527906,"2026-07-09 01:00:00","74403","0.861","33.05","1.4369999999999998","25.27","1012.907","28.03","60.78","0.0","0.0"],
    [1527907,"2026-07-09 01:10:00","74404","0.934","60.81","1.209","59.22","1012.842","27.75","60.92","0.0","0.0"],
    [1527908,"2026-07-09 01:20:00","74405","1.181","40.5","1.568","39.47","1012.754","27.51","58.51","0.0","0.0"],
    [1527909,"2026-07-09 01:30:00","74406","0.16","39.85","0.882","34.01","1012.676","27.21","58.88","0.0","0.0"],
    [1527910,"2026-07-09 01:40:00","74407","0.451","66.0","0.9470000000000001","78.9","1012.587","27.24","58.47","0.0","0.0"],
    [1527911,"2026-07-09 01:50:00","74408","0.154","187.5","0.7190000000000001","207.3","1012.559","27.05","60.24","0.0","0.0"],
    [1527912,"2026-07-09 02:00:00","74409","0.945","185.0","1.5030000000000001","199.7","1012.46","26.79","64.81","0.0","0.0"],
    [1527913,"2026-07-09 02:10:00","74410","0.48","235.5","1.111","268.7","1012.378","26.67","64.88","0.0","0.0"],
    [1527914,"2026-07-09 02:20:00","74411","0.16399999999999998","243.6","1.013","256.5","1012.321","26.83","65.6","0.0","0.0"],
    [1527915,"2026-07-09 02:30:00","74412","1.242","255.1","1.895","257.0","1012.188","26.94","56.98","0.0","0.0"],
    [1527916,"2026-07-09 02:40:00","74413","1.405","258.5","2.319","259.5","1012.073","27.56","47.53","0.0","0.0"],
    [1527917,"2026-07-09 02:50:00","74414","1.114","285.0","1.7309999999999999","248.9","1011.976","27.84","40.82","0.0","0.0"],
    [1527918,"2026-07-09 03:00:00","74415","0.746","335.0","0.915","328.0","1011.969","27.52","46.27","0.0","0.0"],
    [1527919,"2026-07-09 03:10:00","74416","0.517","319.6","0.7509999999999999","318.4","1011.943","27.28","49.36","0.0","0.0"],
    [1527920,"2026-07-09 03:20:00","74417","0.625","3.363","0.9470000000000001","4.63","1011.856","27.17","53.64","0.0","0.0"],
    [1527921,"2026-07-09 03:30:00","74418","0.037000000000000005","17.02","0.425","28.65","1011.795","27.24","53.36","0.0","0.0"],
    [1527922,"2026-07-09 03:40:00","74419","0.345","194.2","1.601","200.0","1011.745","27.21","50.2","0.0","0.0"],
    [1527923,"2026-07-09 03:50:00","74420","1.175","230.7","1.764","199.1","1011.745","26.96","46.38","0.0","0.0"],
    [1527924,"2026-07-09 04:00:00","74421","1.6869999999999998","257.3","2.7110000000000003","266.2","1011.738","27.45","32.94","0.0","0.0"],
    [1527925,"2026-07-09 04:10:00","74422","2.522","255.2","3.397","253.8","1011.736","27.61","29.76","0.0","0.0"],
    [1527926,"2026-07-09 04:20:00","74423","1.311","220.4","3.136","242.3","1011.886","27.68","31.67","0.0","0.0"],
    [1527927,"2026-07-09 04:30:00","74424","2.417","265.5","3.593","275.5","1011.921","27.47","29.91","1.185","0.0"],
    [1527928,"2026-07-09 04:40:00","74425","2.886","269.0","3.528","258.6","1011.996","27.05","31.03","7.666","0.0"],
    [1527929,"2026-07-09 04:50:00","74426","2.193","263.9","3.0380000000000003","263.8","1011.963","27.02","30.77","19.16","0.0"],
    [1527930,"2026-07-09 05:00:00","74427","1.837","263.4","2.94","280.0","1011.995","27.02","31.11","36.74","0.0"],
    [1527931,"2026-07-09 05:10:00","74428","1.565","250.7","2.515","244.1","1012.053","27.04","31.36","56.77","0.0"],
    [1527932,"2026-07-09 05:20:00","74429","1.115","266.8","1.993","244.8","1012.054","27.02","31.7","76.79","0.0"],
    [1527933,"2026-07-09 05:30:00","74430","2.14","270.9","2.679","264.8","1012.124","27.21","31.15","96.9","0.0"],
    [1527934,"2026-07-09 05:40:00","74431","1.3130000000000002","246.8","2.548","260.3","1012.197","27.46","30.52","119.0","0.0"],
    [1527935,"2026-07-09 05:50:00","74432","0.765","257.3","1.9269999999999998","268.3","1012.271","27.88","30.15","140.3","0.0"],
    [1527936,"2026-07-09 06:00:00","74433","1.177","270.3","1.829","260.3","1012.331","27.87","29.95","165.3","0.0"],
    [1527937,"2026-07-09 06:10:00","74434","0.9690000000000001","296.9","1.339","301.2","1012.369","28.18","29.44","192.6","0.0"],
    [1527938,"2026-07-09 06:20:00","74435","0.585","295.4","1.209","295.6","1012.401","28.61","28.76","222.2","0.0"],
    [1527939,"2026-07-09 06:30:00","74436","0.06","25.97","0.7509999999999999","36.75","1012.416","29.52","27.75","247.9","0.0"],
    [1527940,"2026-07-09 06:40:00","74437","0.5539999999999999","23.32","0.9470000000000001","29.85","1012.49","29.48","26.94","279.0","0.0"],
    [1527941,"2026-07-09 06:50:00","74438","0.784","27.1","1.307","23.59","1012.516","29.6","28.67","312.2","0.0"],
    [1527942,"2026-07-09 07:00:00","74439","0.679","47.06","1.111","44.39","1012.605","28.9","32.6","340.7","0.0"],
    [1527943,"2026-07-09 07:10:00","74440","0.281","10.7","0.653","11.94","1012.576","28.49","38.27","365.9","0.0"],
    [1527944,"2026-07-09 07:20:00","74441","0.586","51.54","0.784","16.82","1012.629","28.56","34.64","407.9","0.0"],
    [1527945,"2026-07-09 07:30:00","74442","1.2209999999999999","97.8","1.568","100.4","1012.645","28.78","30.99","446.3","0.0"],
    [1527946,"2026-07-09 07:40:00","74443","1.5619999999999998","61.82","2.352","33.21","1012.612","28.79","32.08","474.8","0.0"],
    [1527947,"2026-07-09 07:50:00","74444","1.133","92.9","2.221","35.32","1012.611","28.6","33.92","511.3","0.0"],
    [1527948,"2026-07-09 08:00:00","74445","1.031","51.64","1.601","47.54","1012.579","29.17","30.96","537.7","0.0"],
    [1527949,"2026-07-09 08:10:00","74446","0.616","78.18","1.4369999999999998","53.5","1012.551","29.74","29.34","571.7","0.0"],
    [1527950,"2026-07-09 08:20:00","74447","0.382","97.9","1.5030000000000001","115.1","1012.568","30.34","30.42","604.6","0.0"],
    [1527951,"2026-07-09 08:30:00","74448","1.3869999999999998","132.5","2.0909999999999997","116.8","1012.624","29.03","38.05","634.8","0.0"],
    [1527952,"2026-07-09 08:40:00","74449","0.8009999999999999","135.7","2.0909999999999997","134.5","1012.57","28.18","42.95","660.4","0.0"],
    [1527953,"2026-07-09 08:50:00","74450","0.897","156.5","1.797","176.7","1012.523","28.41","40.97","689.8","0.0"],
    [1527954,"2026-07-09 09:00:00","74451","0.7040000000000001","102.7","1.4369999999999998","41.84","1012.564","29.43","36.0","712.3","0.0"],
    [1527955,"2026-07-09 09:10:00","74452","0.41200000000000003","71.99","1.307","154.6","1012.54","29.79","35.85","744.7","0.0"],
    [1527956,"2026-07-09 09:20:00","74453","0.562","52.0","2.352","35.8","1012.59","30.25","34.43","772.9","0.0"],
    [1527957,"2026-07-09 09:30:00","74454","2.167","42.82","2.5810000000000004","45.83","1012.579","30.24","30.92","799.4","0.0"],
    [1527958,"2026-07-09 09:40:00","74455","2.046","45.02","2.5810000000000004","53.43","1012.597","30.1","32.43","822.0","0.0"],
    [1527959,"2026-07-09 09:50:00","74456","1.828","82.0","3.071","88.9","1012.54","30.38","32.12","841.0","0.0"],
    [1527960,"2026-07-09 10:00:00","74457","1.808","98.0","2.45","95.4","1012.549","30.42","33.28","859.0","0.0"],
    [1527961,"2026-07-09 10:10:00","74458","1.515","110.2","2.5810000000000004","109.0","1012.595","30.16","35.33","874.0","0.0"],
    [1527962,"2026-07-09 10:20:00","74459","1.228","118.9","1.895","120.4","1012.602","30.14","37.47","884.0","0.0"],
    [1527963,"2026-07-09 10:30:00","74460","0.684","103.8","1.339","142.4","1012.56","30.03","39.19","893.0","0.0"],
    [1527964,"2026-07-09 10:40:00","74461","0.527","93.5","1.143","158.2","1012.532","30.43","37.17","903.0","0.0"],
    [1527965,"2026-07-09 10:50:00","74462","1.1","159.7","1.633","154.4","1012.547","30.24","38.18","916.0","0.0"],
    [1527966,"2026-07-09 11:00:00","74463","1.314","154.3","1.5030000000000001","146.3","1012.504","30.2","37.89","923.0","0.0"],
    [1527967,"2026-07-09 11:10:00","74464","1.3940000000000001","156.7","1.8619999999999999","157.1","1012.464","30.29","37.78","925.0","0.0"],
    [1527968,"2026-07-09 11:20:00","74465","1.97","166.1","2.5810000000000004","170.4","1012.428","30.08","40.51","928.0","0.0"],
    [1527969,"2026-07-09 11:30:00","74466","2.4859999999999998","172.5","3.005","171.6","1012.358","29.61","49.77","935.0","0.0"],
    [1527970,"2026-07-09 11:40:00","74467","2.841","172.9","3.365","176.6","1012.273","28.91","52.34","940.0","0.0"],
    [1527971,"2026-07-09 11:50:00","74468","2.565","177.9","3.495","173.7","1012.213","28.7","52.89","942.0","0.0"],
    [1527972,"2026-07-09 12:00:00","74469","3.01","174.4","3.6910000000000003","171.6","1012.143","28.62","51.05","947.0","0.0"],
    [1527973,"2026-07-09 12:10:00","74470","2.6189999999999998","171.3","3.136","168.5","1011.989","28.43","52.46","948.0","0.0"],
    [1527974,"2026-07-09 12:20:00","74471","2.585","179.6","3.495","174.9","1011.843","29.62","42.97","946.0","0.0"],
    [1527975,"2026-07-09 12:30:00","74472","3.21","176.7","3.887","178.7","1011.73","29.46","42.97","946.0","0.0"],
    [1527976,"2026-07-09 12:40:00","74473","3.2939999999999996","175.9","3.9530000000000003","176.5","1011.707","29.48","44.73","942.0","0.0"],
    [1527977,"2026-07-09 12:50:00","74474","3.326","181.0","4.149","175.3","1011.633","29.42","47.51","935.0","0.0"],
    [1527978,"2026-07-09 13:00:00","74475","3.286","185.1","4.051","195.8","1011.539","29.21","49.42","924.0","0.0"],
    [1527979,"2026-07-09 13:10:00","74476","3.1889999999999996","179.5","4.181","184.4","1011.477","28.97","52.16","916.0","0.0"],
    [1527980,"2026-07-09 13:20:00","74477","3.235","181.6","4.606","188.2","1011.406","28.79","54.64","906.0","0.0"],
    [1527981,"2026-07-09 13:30:00","74478","3.915","188.3","5.063","186.8","1011.341","29.48","46.86","892.0","0.0"],
    [1527982,"2026-07-09 13:40:00","74479","3.128","180.2","4.508","189.0","1011.279","29.29","51.64","878.0","0.0"],
    [1527983,"2026-07-09 13:50:00","74480","3.292","185.1","4.508","185.7","1011.235","28.86","54.66","860.0","0.0"],
    [1527984,"2026-07-09 14:00:00","74481","3.372","184.9","4.4430000000000005","191.3","1011.227","29.32","52.42","841.0","0.0"],
    [1527985,"2026-07-09 14:10:00","74482","2.9960000000000004","176.0","3.9530000000000003","172.1","1011.15","29.04","54.36","820.0","0.0"],
    [1527986,"2026-07-09 14:20:00","74483","3.46","172.5","4.475","176.6","1011.067","29.05","55.02","802.0","0.0"],
    [1527987,"2026-07-09 14:30:00","74484","3.4789999999999996","169.8","4.377","166.6","1011.008","28.93","57.43","783.7","0.0"],
    [1527988,"2026-07-09 14:40:00","74485","3.114","171.7","3.887","164.6","1011.018","28.59","62.53","761.7","0.0"],
    [1527989,"2026-07-09 14:50:00","74486","3.577","169.5","4.377","173.2","1011.038","28.61","64.93","739.4","0.0"],
    [1527990,"2026-07-09 15:00:00","74487","3.5389999999999997","164.1","4.051","173.1","1011.057","28.42","65.94","710.8","0.0"],
    [1527991,"2026-07-09 15:10:00","74488","3.429","159.2","3.7239999999999998","158.6","1011.01","28.67","63.0","685.5","0.0"],
    [1527992,"2026-07-09 15:20:00","74489","3.3080000000000003","162.3","3.7239999999999998","160.1","1010.979","28.75","63.65","659.7","0.0"],
    [1527993,"2026-07-09 15:30:00","74490","2.9389999999999996","162.3","3.365","166.5","1010.911","28.7","62.9","631.5","0.0"],
    [1527994,"2026-07-09 15:40:00","74491","2.937","161.1","3.887","171.1","1010.884","28.77","64.03","603.9","0.0"],
    [1527995,"2026-07-09 15:50:00","74492","2.589","161.7","3.201","166.6","1010.845","28.6","67.21","575.9","0.0"],
    [1527996,"2026-07-09 16:00:00","74493","3.04","169.2","3.397","169.8","1010.802","28.57","68.3","546.6","0.0"],
    [1527997,"2026-07-09 16:10:00","74494","2.62","165.2","2.907","167.3","1010.739","28.59","69.48","516.1","0.0"],
    [1527998,"2026-07-09 16:20:00","74495","2.298","156.5","2.94","164.7","1010.727","28.54","71.09","484.1","0.0"],
    [1527999,"2026-07-09 16:30:00","74496","2.0340000000000003","146.9","2.319","144.5","1010.704","28.52","70.64","450.8","0.0"],
    [1528000,"2026-07-09 16:40:00","74497","1.874","142.6","2.7769999999999997","169.3","1010.659","28.78","66.48","416.7","0.0"],
    [1528001,"2026-07-09 16:50:00","74498","1.8430000000000002","121.3","2.548","114.1","1010.654","28.86","66.86","386.4","0.0"],
    [1528002,"2026-07-09 17:00:00","74499","1.724","100.6","2.287","99.4","1010.65","28.94","66.3","355.3","0.0"],
    [1528003,"2026-07-09 17:10:00","74500","1.692","105.5","2.189","92.7","1010.672","28.99","65.09","320.7","0.0"],
    [1528004,"2026-07-09 17:20:00","74501","1.49","105.3","1.993","125.7","1010.655","29.0","65.64","287.1","0.0"],
    [1528005,"2026-07-09 17:30:00","74502","1.429","82.1","2.483","77.12","1010.66","29.03","66.53","252.6","0.0"],
    [1528006,"2026-07-09 17:40:00","74503","1.733","72.6","2.319","66.01","1010.699","28.78","70.95","222.6","0.0"],
    [1528007,"2026-07-09 17:50:00","74504","2.096","67.5","2.7110000000000003","72.62","1010.666","28.63","69.74","195.2","0.0"],
    [1528008,"2026-07-09 18:00:00","74505","1.6769999999999998","61.85","2.679","53.21","1010.652","28.58","69.98","161.0","0.0"],
    [1528009,"2026-07-09 18:10:00","74506","1.679","72.76","2.319","76.18","1010.668","28.62","66.11","132.4","0.0"],
    [1528010,"2026-07-09 18:20:00","74507","2.33","71.96","2.7110000000000003","71.53","1010.65","28.82","60.03","114.3","0.0"],
    [1528011,"2026-07-09 18:30:00","74508","2.436","51.28","3.1689999999999996","54.19","1010.602","28.84","63.78","90.3","0.0"],
    [1528012,"2026-07-09 18:40:00","74509","2.275","41.11","2.94","46.85","1010.589","28.56","68.82","70.63","0.0"],
    [1528013,"2026-07-09 18:50:00","74510","3.145","29.91","3.92","26.29","1010.67","28.21","70.98","43.21","0.0"],
    [1528014,"2026-07-09 19:00:00","74511","2.594","30.42","3.005","29.68","1010.7","28.26","69.44","23.86","0.0"],
    [1528015,"2026-07-09 19:10:00","74512","2.682","31.36","2.9730000000000003","27.18","1010.748","28.31","67.86","12.52","0.0"],
    [1528016,"2026-07-09 19:20:00","74513","2.307","32.8","2.875","33.6","1010.8","28.38","66.38","4.747","0.0"],
    [1528017,"2026-07-09 19:30:00","74514","2.26","32.32","2.6460000000000004","31.3","1010.843","28.24","67.64","0.495","0.0"],
    [1528018,"2026-07-09 19:40:00","74515","1.9669999999999999","20.67","2.45","21.75","1010.884","28.2","64.96","0.0","0.0"],
    [1528019,"2026-07-09 19:50:00","74516","1.082","36.69","1.568","17.25","1010.916","28.45","59.78","0.0","0.0"],
    [1528020,"2026-07-09 20:00:00","74517","1.117","69.59","1.8619999999999999","45.96","1010.957","28.76","53.89","0.0","0.0"],
    [1528021,"2026-07-09 20:10:00","74518","1.5630000000000002","32.67","2.221","27.87","1011.01","28.57","62.17","0.0","0.0"],
    [1528022,"2026-07-09 20:20:00","74519","0.955","7.667999999999999","1.829","19.29","1011.106","28.46","54.06","0.0","0.0"],
    [1528023,"2026-07-09 20:30:00","74520","0.004","339.7","0.22899999999999998","342.4","1011.167","29.05","46.83","0.0","0.0"],
    [1528024,"2026-07-09 20:40:00","74521","0.134","285.3","0.653","296.4","1011.197","28.97","49.42","0.0","0.0"],
    [1528025,"2026-07-09 20:50:00","74522","0.64","293.8","1.111","300.8","1011.208","29.08","45.59","0.0","0.0"],
    [1528026,"2026-07-09 21:00:00","74523","0.574","281.8","1.143","257.5","1011.239","29.4","43.4","0.0","0.0"],
    [1528027,"2026-07-09 21:10:00","74524","0.28600000000000003","269.2","0.784","255.6","1011.231","29.36","42.4","0.0","0.0"],
    [1528028,"2026-07-09 21:20:00","74525","0.547","245.5","1.339","215.8","1011.213","29.49","40.21","0.0","0.0"],
    [1528029,"2026-07-09 21:30:00","74526","0.34299999999999997","249.6","0.882","269.4","1011.132","29.48","42.05","0.0","0.0"],
    [1528030,"2026-07-09 21:40:00","74527","0.632","236.6","1.078","233.9","1011.08","29.54","40.53","0.0","0.0"],
    [1528031,"2026-07-09 21:50:00","74528","0.511","219.7","0.882","212.5","1011.081","29.44","40.97","0.0","0.0"],
    [1528032,"2026-07-09 22:00:00","74529","0.748","206.6","1.045","199.9","1011.046","29.2","41.95","0.0","0.0"],
    [1528033,"2026-07-09 22:10:00","74530","0.309","257.2","0.9470000000000001","264.3","1011.095","29.15","41.42","0.0","0.0"],
    [1528034,"2026-07-09 22:20:00","74531","0.0","0.0","0.0","0.0","1011.09","29.03","40.9","0.0","0.0"],
    [1528035,"2026-07-09 22:30:00","74532","0.292","271.1","1.078","268.0","1011.036","29.23","39.66","0.0","0.0"],
    [1528036,"2026-07-09 22:40:00","74533","0.35","261.3","0.9470000000000001","250.7","1010.928","29.4","39.69","0.0","0.0"],
    [1528037,"2026-07-09 22:50:00","74534","0.006999999999999999","292.1","0.915","290.1","1010.884","29.18","40.67","0.0","0.0"],
    [1528038,"2026-07-09 23:00:00","74535","1.2790000000000001","245.9","2.287","224.3","1010.915","29.15","39.88","0.0","0.0"],
    [1528039,"2026-07-09 23:10:00","74536","1.635","265.3","2.9730000000000003","263.3","1010.86","29.08","40.31","0.0","0.0"],
    [1528040,"2026-07-09 23:20:00","74537","1.891","274.8","2.189","274.2","1010.702","28.56","42.27","0.0","0.0"],
    [1528041,"2026-07-09 23:30:00","74538","2.0580000000000003","267.5","2.45","267.9","1010.674","28.38","42.72","0.0","0.0"],
    [1528042,"2026-07-09 23:40:00","74539","1.838","265.7","2.254","266.0","1010.675","28.33","42.47","0.0","0.0"],
    [1528043,"2026-07-09 23:50:00","74540","1.2790000000000001","274.7","1.993","265.5","1010.585","28.42","41.98","0.0","0.0"],
    [1528044,"2026-07-10 00:00:00","74541","0.866","226.8","1.2409999999999999","249.3","1010.404","28.52","41.41","0.0","0.0"],
    [1528045,"2026-07-10 00:10:00","74542","1.34","253.0","2.417","263.8","1010.327","28.27","43.18","0.0","0.0"],
    [1528046,"2026-07-10 00:20:00","74543","1.321","265.4","2.483","273.3","1010.315","28.17","42.9","0.0","0.0"],
    [1528047,"2026-07-10 00:30:00","74544","2.104","264.1","2.548","261.0","1010.195","27.59","45.0","0.0","0.0"],
    [1528048,"2026-07-10 00:40:00","74545","1.537","279.3","2.515","263.8","1010.032","27.56","44.37","0.0","0.0"],
    [1528049,"2026-07-10 00:50:00","74546","0.457","248.5","1.274","319.4","1009.85","27.93","44.25","0.0","0.0"],
    [1528050,"2026-07-10 01:00:00","74547","0.46299999999999997","136.6","1.209","105.7","1009.693","27.47","46.24","0.0","0.0"],
    [1528051,"2026-07-10 01:10:00","74548","1.214","74.52","1.535","82.5","1009.459","27.08","50.97","0.0","0.0"],
    [1528052,"2026-07-10 01:20:00","74549","0.9390000000000001","37.43","1.535","43.42","1009.404","26.35","60.3","0.0","0.0"],
    [1528053,"2026-07-10 01:30:00","74550","0.799","22.6","1.5030000000000001","49.11","1009.316","26.03","64.11","0.0","0.0"],
    [1528054,"2026-07-10 01:40:00","74551","0.382","32.16","0.882","10.1","1009.316","26.1","60.06","0.0","0.0"],
    [1528055,"2026-07-10 01:50:00","74552","0.40700000000000003","115.6","0.882","108.0","1009.346","26.07","62.02","0.0","0.0"],
    [1528056,"2026-07-10 02:00:00","74553","0.255","102.5","0.49","124.6","1009.322","26.1","65.03","0.0","0.0"],
    [1528057,"2026-07-10 02:10:00","74554","0.009000000000000001","106.0","0.359","118.3","1009.279","25.98","67.13","0.0","0.0"],
    [1528058,"2026-07-10 02:20:00","74555","0.039","190.7","0.523","183.3","1009.366","26.07","69.56","0.0","0.0"],
    [1528059,"2026-07-10 02:30:00","74556","0.069","313.4","0.555","338.6","1009.317","25.97","69.62","0.0","0.0"],
    [1528060,"2026-07-10 02:40:00","74557","0.7040000000000001","331.3","0.8170000000000001","330.1","1009.294","25.84","66.69","0.0","0.0"],
    [1528061,"2026-07-10 02:50:00","74558","0.898","305.1","1.045","308.2","1009.245","26.06","66.86","0.0","0.0"],
    [1528062,"2026-07-10 03:00:00","74559","1.3330000000000002","270.0","2.254","252.7","1009.257","26.19","61.78","0.0","0.0"],
    [1528063,"2026-07-10 03:10:00","74560","1.844","258.6","2.875","261.4","1009.378","26.07","53.01","0.0","0.0"],
    [1528064,"2026-07-10 03:20:00","74561","2.281","266.2","3.267","271.0","1009.364","25.43","48.14","0.0","0.0"],
    [1528065,"2026-07-10 03:30:00","74562","2.542","269.5","3.332","273.5","1009.33","25.06","47.78","0.0","0.0"],
    [1528066,"2026-07-10 03:40:00","74563","1.808","274.4","2.7769999999999997","263.0","1009.317","25.02","48.22","0.0","0.0"],
    [1528067,"2026-07-10 03:50:00","74564","1.787","251.7","2.842","258.8","1009.474","25.03","47.83","0.0","0.0"],
    [1528068,"2026-07-10 04:00:00","74565","1.383","267.4","2.613","264.6","1009.531","24.73","48.78","0.0","0.0"],
    [1528069,"2026-07-10 04:10:00","74566","0.5329999999999999","241.0","1.601","255.4","1009.582","24.87","49.91","0.0","0.0"],
    [1528070,"2026-07-10 04:20:00","74567","0.838","287.7","1.4369999999999998","278.3","1009.649","24.96","48.04","0.0","0.0"],
    [1528071,"2026-07-10 04:30:00","74568","0.917","322.2","1.5030000000000001","273.8","1009.646","24.97","47.99","0.429","0.0"],
    [1528072,"2026-07-10 04:40:00","74569","0.9620000000000001","359.0","1.4369999999999998","40.83","1009.691","24.93","50.2","5.189","0.0"],
    [1528073,"2026-07-10 04:50:00","74570","1.297","32.07","1.96","29.03","1009.737","25.26","56.96","14.55","0.0"],
    [1528074,"2026-07-10 05:00:00","74571","0.835","53.34","1.307","48.39","1009.821","25.75","56.82","30.89","0.0"],
    [1528075,"2026-07-10 05:10:00","74572","0.6829999999999999","92.9","1.2409999999999999","115.2","1009.882","25.97","58.13","53.11","0.0"],
    [1528076,"2026-07-10 05:20:00","74573","1.114","75.27","1.8619999999999999","58.73","1009.928","25.74","63.92","83.2","0.0"],
    [1528077,"2026-07-10 05:30:00","74574","1.922","24.15","3.985","22.36","1010.076","26.4","47.58","88.1","0.0"],
    [1528078,"2026-07-10 05:40:00","74575","3.088","44.61","4.867","32.8","1010.238","26.7","49.68","127.4","0.0"],
    [1528079,"2026-07-10 05:50:00","74576","3.696","30.07","4.638999999999999","30.29","1010.362","26.33","51.31","141.6","0.0"],
    [1528080,"2026-07-10 06:00:00","74577","3.9530000000000003","31.11","5.227","33.1","1010.538","26.24","51.35","154.0","0.0"],
    [1528081,"2026-07-10 06:10:00","74578","4.162","31.85","4.638999999999999","29.86","1010.628","26.21","48.62","196.7","0.0"],
    [1528082,"2026-07-10 06:20:00","74579","4.2589999999999995","27.5","5.39","27.82","1010.729","26.3","50.68","221.2","0.0"],
    [1528083,"2026-07-10 06:30:00","74580","4.343999999999999","27.51","5.455","26.06","1010.815","26.23","53.52","232.6","0.0"],
    [1528084,"2026-07-10 06:40:00","74581","4.218999999999999","24.16","5.422999999999999","25.64","1010.895","26.21","55.51","280.1","0.0"],
    [1528085,"2026-07-10 06:50:00","74582","4.675","29.48","6.011","29.88","1010.984","26.29","55.81","315.0","0.0"],
    [1528086,"2026-07-10 07:00:00","74583","5.372999999999999","27.75","6.37","21.25","1011.048","26.41","55.59","347.2","0.0"],
    [1528087,"2026-07-10 07:10:00","74584","5.297999999999999","28.57","6.305","29.27","1011.091","26.21","59.8","380.3","0.0"],
    [1528088,"2026-07-10 07:20:00","74585","5.593999999999999","28.12","6.566","27.43","1011.067","25.87","65.77","409.8","0.0"],
    [1528089,"2026-07-10 07:30:00","74586","5.55","29.03","6.631","29.76","1011.138","25.77","65.4","438.7","0.0"],
    [1528090,"2026-07-10 07:40:00","74587","5.609","29.24","6.599","29.74","1011.207","25.73","67.25","478.8","0.0"],
    [1528091,"2026-07-10 07:50:00","74588","5.683","30.29","6.435","32.33","1011.231","25.71","67.69","516.0","0.0"],
    [1528092,"2026-07-10 08:00:00","74589","5.652","29.35","6.566","28.98","1011.243","25.76","68.6","549.5","0.0"],
    [1528093,"2026-07-10 08:10:00","74590","5.471","29.89","6.599","31.07","1011.282","25.87","71.09","576.7","0.0"],
    [1528094,"2026-07-10 08:20:00","74591","5.782","29.58","6.729","35.7","1011.253","25.9","73.85","607.2","0.0"],
    [1528095,"2026-07-10 08:30:00","74592","5.287999999999999","30.79","7.121","36.64","1011.241","25.87","76.04","637.5","0.0"],
    [1528096,"2026-07-10 08:40:00","74593","5.081","28.93","6.501","34.47","1011.317","25.9","77.26","666.0","0.0"],
    [1528097,"2026-07-10 08:50:00","74594","4.791","27.84","5.782","29.05","1011.448","25.95","78.57","699.6","0.0"],
    [1528098,"2026-07-10 09:00:00","74595","4.579","30.37","5.4879999999999995","28.71","1011.508","26.04","80.5","734.9","0.0"],
    [1528099,"2026-07-10 09:10:00","74596","4.194","28.11","4.998","28.48","1011.561","26.05","82.6","764.0","0.0"],
    [1528100,"2026-07-10 09:20:00","74597","3.81","34.85","5.2589999999999995","40.84","1011.576","26.21","83.5","766.7","0.0"],
    [1528101,"2026-07-10 09:30:00","74598","3.926","35.01","5.292000000000001","39.58","1011.572","26.16","84.2","819.0","0.0"],
    [1528102,"2026-07-10 09:40:00","74599","4.4639999999999995","40.08","5.586","39.73","1011.553","26.17","85.0","843.0","0.0"],
    [1528103,"2026-07-10 09:50:00","74600","4.72","38.47","6.0760000000000005","34.27","1011.609","26.18","85.9","708.2","0.0"],
    [1528104,"2026-07-10 10:00:00","74601","4.5760000000000005","37.3","5.7170000000000005","23.46","1011.654","26.29","86.5","866.0","0.0"],
    [1528105,"2026-07-10 10:10:00","74602","5.167000000000001","38.33","6.207000000000001","41.14","1011.61","26.44","87.0","927.0","0.0"],
    [1528106,"2026-07-10 10:20:00","74603","5.239","39.45","6.109","43.35","1011.566","26.49","87.5","851.0","0.0"],
    [1528107,"2026-07-10 10:30:00","74604","5.169","36.22","6.435","35.5","1011.578","26.6","87.3","771.8","0.0"],
    [1528108,"2026-07-10 10:40:00","74605","5.415","39.06","6.501","43.52","1011.59","26.65","87.3","942.0","0.0"],
    [1528109,"2026-07-10 10:50:00","74606","6.308","40.55","7.187","40.33","1011.495","26.54","87.9","473.6","0.0"],
    [1528110,"2026-07-10 11:00:00","74607","6.26","42.15","7.35","45.7","1011.451","26.52","88.4","949.0","0.0"],
    [1528111,"2026-07-10 11:10:00","74608","6.7620000000000005","43.27","8.2","48.34","1011.438","26.52","88.4","999.0","0.0"],
    [1528112,"2026-07-10 11:20:00","74609","7.401","41.39","8.49","36.3","1011.372","26.43","88.9","765.5","0.0"],
    [1528113,"2026-07-10 11:30:00","74610","7.715","42.16","9.05","40.2","1011.3","26.25","89.6","496.6","0.0"],
    [1528114,"2026-07-10 11:40:00","74611","7.433","42.98","8.49","43.82","1011.278","26.29","89.1","994.0","0.0"],
    [1528115,"2026-07-10 11:50:00","74612","7.254","42.13","8.56","40.86","1011.31","26.34","87.5","935.0","0.0"],
    [1528116,"2026-07-10 12:00:00","74613","6.534","41.8","8.26","39.39","1011.344","26.36","86.0","925.0","0.0"],
    [1528117,"2026-07-10 12:10:00","74614","6.305","40.45","7.611000000000001","46.57","1011.39","26.41","85.6","957.0","0.0"],
    [1528118,"2026-07-10 12:20:00","74615","6.465","40.22","7.546","47.06","1011.327","26.35","84.7","950.0","0.0"],
    [1528119,"2026-07-10 12:30:00","74616","5.3870000000000005","35.83","7.187","28.77","1011.4","26.52","83.0","950.0","0.0"],
    [1528120,"2026-07-10 12:40:00","74617","4.178","34.62","7.056","27.48","1011.474","26.74","80.5","942.0","0.0"],
    [1528121,"2026-07-10 12:50:00","74618","3.568","38.26","8.0","35.14","1011.471","26.89","78.49","937.0","0.0"],
    [1528122,"2026-07-10 13:00:00","74619","3.69","82.5","6.141","86.0","1011.635","26.9","78.36","934.0","0.0"],
    [1528123,"2026-07-10 13:10:00","74620","4.879","83.3","7.285","72.86","1011.577","26.85","80.0","928.0","0.0"],
    [1528124,"2026-07-10 13:20:00","74621","3.825","74.6","7.35","91.6","1011.613","26.72","78.87","939.0","0.0"],
    [1528125,"2026-07-10 13:30:00","74622","3.2310000000000003","61.1","6.011","36.9","1011.494","26.7","79.04","819.0","0.0"],
    [1528126,"2026-07-10 13:40:00","74623","3.054","45.04","5.782","29.22","1011.491","26.52","79.91","716.4","0.0"],
    [1528127,"2026-07-10 13:50:00","74624","2.8569999999999998","67.04","5.815","89.6","1011.632","26.34","80.5","574.8","0.0"],
    [1528128,"2026-07-10 14:00:00","74625","3.3080000000000003","65.4","6.893","91.0","1011.677","26.31","81.1","333.9","0.0"],
    [1528129,"2026-07-10 14:10:00","74626","3.469","56.15","6.9910000000000005","28.8","1011.599","26.21","82.3","212.1","0.0"],
    [1528130,"2026-07-10 14:20:00","74627","6.337000000000001","36.63","8.17","41.73","1011.129","26.07","83.2","143.7","0.0"],
    [1528131,"2026-07-10 14:30:00","74628","6.497000000000001","39.2","8.75","40.15","1011.011","25.96","82.8","113.3","0.0"],
    [1528132,"2026-07-10 14:40:00","74629","8.94","43.33","10.91","40.78","1010.14","25.75","83.3","219.8","0.0"],
    [1528133,"2026-07-10 14:50:00","74630","5.506","59.98","8.62","44.27","1010.779","25.94","82.4","759.8","0.0"],
    [1528134,"2026-07-10 15:00:00","74631","4.664","56.83","8.75","27.56","1010.913","26.0","81.6","770.4","0.0"],
    [1528135,"2026-07-10 15:10:00","74632","4.518","79.53","6.566","80.9","1011.294","26.09","79.94","705.4","0.0"],
    [1528136,"2026-07-10 15:20:00","74633","3.735","44.96","7.023","53.44","1011.202","26.11","79.12","682.9","0.0"],
    [1528137,"2026-07-10 15:30:00","74634","6.062","40.2","7.579","42.17","1010.995","26.15","77.39","633.9","0.0"],
    [1528138,"2026-07-10 15:40:00","74635","3.471","64.47","6.042999999999999","28.29","1011.178","26.19","76.51","362.6","0.0"],
    [1528139,"2026-07-10 15:50:00","74636","2.7769999999999997","64.69","5.815","40.28","1011.236","26.25","76.5","591.5","0.0"],
    [1528140,"2026-07-10 16:00:00","74637","3.7119999999999997","46.09","7.187","29.98","1011.089","26.23","77.3","269.4","0.0"],
    [1528141,"2026-07-10 16:10:00","74638","3.016","42.54","5.847","32.75","1011.284","26.17","77.71","129.3","0.0"],
    [1528142,"2026-07-10 16:20:00","74639","4.407","34.52","7.154","25.34","1011.163","26.14","77.15","131.7","0.0"],
    [1528143,"2026-07-10 16:30:00","74640","4.692","44.91","7.644","1.742","1011.062","26.13","77.4","251.4","0.0"],
    [1528144,"2026-07-10 16:40:00","74641","5.946000000000001","42.3","7.611000000000001","44.65","1010.82","26.03","77.9","152.8","0.0"],
    [1528145,"2026-07-10 16:50:00","74642","5.07","55.94","7.0889999999999995","42.12","1010.894","25.89","81.0","107.6","0.0"],
    [1528146,"2026-07-10 17:00:00","74643","3.7910000000000004","71.46","6.631","68.16","1011.351","25.78","80.7","115.2","0.0"],
    [1528147,"2026-07-10 17:10:00","74644","2.897","56.5","4.867","50.03","1011.558","25.86","79.56","103.7","0.0"],
    [1528148,"2026-07-10 17:20:00","74645","3.247","55.38","4.41","76.23","1011.655","25.9","78.66","67.55","0.0"],
    [1528149,"2026-07-10 17:30:00","74646","4.162","34.63","5.1610000000000005","40.12","1011.549","25.84","80.3","60.97","0.0"],
    [1528150,"2026-07-10 17:40:00","74647","4.832","32.55","6.337000000000001","27.45","1011.459","25.71","82.6","54.69","0.0"],
    [1528151,"2026-07-10 17:50:00","74648","4.565","41.71","6.272","33.03","1011.442","25.51","84.8","54.13","0.0"],
    [1528152,"2026-07-10 18:00:00","74649","4.329","44.76","5.978","32.87","1011.518","25.43","85.1","72.11","0.0"],
    [1528153,"2026-07-10 18:10:00","74650","5.581","41.06","7.121","32.49","1011.303","25.36","84.4","53.36","0.0"],
    [1528154,"2026-07-10 18:20:00","74651","5.403","39.92","7.513","39.08","1011.272","25.38","84.1","41.55","0.0"],
    [1528155,"2026-07-10 18:30:00","74652","5.257999999999999","40.44","7.056","52.32","1011.371","25.36","84.0","28.26","0.0"],
    [1528156,"2026-07-10 18:40:00","74653","4.712","47.13","6.5329999999999995","32.73","1011.563","25.41","83.6","20.89","0.0"],
    [1528157,"2026-07-10 18:50:00","74654","5.202000000000001","39.47","7.121","39.74","1011.478","25.38","84.0","16.05","0.0"],
    [1528158,"2026-07-10 19:00:00","74655","5.499","34.4","7.382999999999999","33.67","1011.456","25.33","84.4","11.88","0.0"],
    [1528159,"2026-07-10 19:10:00","74656","6.138999999999999","37.33","7.611000000000001","38.27","1011.417","25.29","84.1","6.662999999999999","0.0"],
    [1528160,"2026-07-10 19:20:00","74657","4.78","29.72","6.141","38.14","1011.63","25.29","83.3","4.192","0.0"],
    [1528161,"2026-07-10 19:30:00","74658","4.5280000000000005","27.43","5.4879999999999995","28.05","1011.81","25.31","83.3","1.05","0.0"],
    [1528162,"2026-07-10 19:40:00","74659","4.363","16.1","5.357","28.75","1011.99","25.25","83.0","0.0","0.0"],
    [1528163,"2026-07-10 19:50:00","74660","4.303","21.49","5.39","27.39","1012.123","25.17","83.9","0.0","0.0"],
    [1528164,"2026-07-10 20:00:00","74661","5.324","28.4","6.697","24.61","1012.055","25.13","85.2","0.0","0.0"],
    [1528165,"2026-07-10 20:10:00","74662","5.819","29.66","6.729","27.84","1012.034","25.02","85.8","0.0","0.0"],
    [1528166,"2026-07-10 20:20:00","74663","6.188","29.05","7.252000000000001","31.55","1012.056","24.96","85.9","0.0","0.0"],
    [1528167,"2026-07-10 20:30:00","74664","5.2","31.21","6.697","26.19","1012.298","24.96","85.2","0.0","0.0"],
    [1528168,"2026-07-10 20:40:00","74665","4.857","38.3","6.893","43.98","1012.524","25.0","83.0","0.0","0.0"],
    [1528169,"2026-07-10 20:50:00","74666","4.571000000000001","51.18","5.912999999999999","36.94","1012.672","25.12","82.1","0.0","0.0"],
    [1528170,"2026-07-10 21:00:00","74667","4.48","57.42","5.945","67.88","1012.692","25.16","82.7","0.0","0.0"],
    [1528171,"2026-07-10 21:10:00","74668","4.796","59.24","6.729","63.02","1012.707","25.21","83.1","0.0","0.0"],
    [1528172,"2026-07-10 21:20:00","74669","5.282","70.11","6.729","71.97","1012.623","25.2","83.2","0.0","0.0"],
    [1528173,"2026-07-10 21:30:00","74670","4.9639999999999995","60.64","6.5329999999999995","74.89","1012.685","25.23","83.4","0.0","0.0"],
    [1528174,"2026-07-10 21:40:00","74671","4.572","65.8","6.0760000000000005","76.8","1012.841","25.23","84.1","0.0","0.0"],
    [1528175,"2026-07-10 21:50:00","74672","5.224","70.06","6.7620000000000005","58.22","1012.8","25.18","83.7","0.0","0.0"],
    [1528176,"2026-07-10 22:00:00","74673","5.138","70.29","6.468","76.47","1012.822","25.21","82.7","0.0","0.0"],
    [1528177,"2026-07-10 22:10:00","74674","5.1080000000000005","70.65","6.305","76.81","1012.766","25.21","83.0","0.0","0.0"],
    [1528178,"2026-07-10 22:20:00","74675","4.981","65.92","6.729","71.52","1012.796","25.17","82.8","0.0","0.0"],
    [1528179,"2026-07-10 22:30:00","74676","4.69","66.15","6.337000000000001","72.62","1012.934","25.16","83.1","0.0","0.0"],
    [1528180,"2026-07-10 22:40:00","74677","4.595","65.71","6.631","73.8","1012.797","25.15","83.2","0.0","0.0"],
    [1528181,"2026-07-10 22:50:00","74678","4.7","66.28","6.631","78.88","1012.726","25.17","83.2","0.0","0.0"],
    [1528182,"2026-07-10 23:00:00","74679","4.689","60.44","6.664","53.63","1012.615","25.18","82.8","0.0","0.0"],
    [1528183,"2026-07-10 23:10:00","74680","5.157","56.37","6.795","49.08","1012.596","25.22","82.3","0.0","0.0"],
    [1528184,"2026-07-10 23:20:00","74681","5.474","53.59","7.644","47.84","1012.494","25.27","82.2","0.0","0.0"],
    [1528185,"2026-07-10 23:30:00","74682","6.52","51.16","8.13","45.33","1012.291","25.26","82.5","0.0","0.0"],
    [1528186,"2026-07-10 23:40:00","74683","5.665","49.81","7.807","58.14","1012.42","25.3","83.3","0.0","0.0"],
    [1528187,"2026-07-10 23:50:00","74684","5.117","53.51","6.7620000000000005","55.62","1012.567","25.28","83.8","0.0","0.0"],
    [1528188,"2026-07-11 00:00:00","74685","5.88","56.18","7.775","56.54","1012.272","25.31","84.0","0.0","0.0"],
    [1528189,"2026-07-11 00:10:00","74686","6.376","54.12","8.59","50.59","1012.06","25.28","84.4","0.0","0.0"],
    [1528190,"2026-07-11 00:20:00","74687","7.257999999999999","55.35","9.8","56.77","1011.898","25.26","84.8","0.0","0.0"],
    [1528191,"2026-07-11 00:30:00","74688","7.211","53.65","9.24","58.15","1011.872","25.17","84.5","0.0","0.0"],
    [1528192,"2026-07-11 00:40:00","74689","7.607","53.37","10.36","62.3","1011.835","25.14","84.7","0.0","0.0"],
    [1528193,"2026-07-11 00:50:00","74690","7.638","49.56","10.45","43.82","1011.805","25.15","85.0","0.0","0.0"],
    [1528194,"2026-07-11 01:00:00","74691","7.046","50.76","8.92","51.75","1011.954","25.09","84.0","0.0","0.0"],
    [1528195,"2026-07-11 01:10:00","74692","6.437","48.08","9.05","47.35","1012.23","25.14","83.2","0.0","0.0"],
    [1528196,"2026-07-11 01:20:00","74693","6.13","51.09","7.775","54.96","1012.29","25.22","81.8","0.0","0.0"],
    [1528197,"2026-07-11 01:30:00","74694","5.376","59.29","7.742000000000001","68.22","1012.267","25.26","81.7","0.0","0.0"],
    [1528198,"2026-07-11 01:40:00","74695","5.334","62.37","7.187","79.11","1012.32","25.27","81.8","0.0","0.0"],
    [1528199,"2026-07-11 01:50:00","74696","5.591","58.16","7.415","69.27","1012.344","25.24","81.9","0.0","0.0"],
    [1528200,"2026-07-11 02:00:00","74697","5.807","47.43","7.938","48.64","1012.254","25.15","82.2","0.0","0.0"],
    [1528201,"2026-07-11 02:10:00","74698","6.457000000000001","55.86","8.69","59.78","1012.318","25.07","83.0","0.0","0.0"],
    [1528202,"2026-07-11 02:20:00","74699","6.771","56.46","8.59","65.02","1012.285","25.02","83.8","0.0","0.0"],
    [1528203,"2026-07-11 02:30:00","74700","6.546","50.93","9.15","36.1","1012.207","25.04","83.7","0.0","0.0"],
    [1528204,"2026-07-11 02:40:00","74701","6.919","52.83","9.28","44.61","1012.283","24.98","84.2","0.0","0.0"],
    [1528205,"2026-07-11 02:50:00","74702","7.471","57.54","9.41","62.86","1012.421","24.96","83.1","0.0","0.0"],
    [1528206,"2026-07-11 03:00:00","74703","6.789","56.71","8.75","59.51","1012.464","25.03","82.3","0.0","0.0"],
    [1528207,"2026-07-11 03:10:00","74704","7.224","49.34","9.7","46.62","1012.441","24.98","82.4","0.0","0.0"],
    [1528208,"2026-07-11 03:20:00","74705","7.403","51.26","10.32","53.19","1012.498","24.81","82.7","0.0","0.0"],
    [1528209,"2026-07-11 03:30:00","74706","6.888","50.79","9.02","48.98","1012.65","24.74","83.0","0.0","0.0"],
    [1528210,"2026-07-11 03:40:00","74707","7.195","51.07","9.77","48.55","1012.783","24.63","82.9","0.0","0.0"],
    [1528211,"2026-07-11 03:50:00","74708","7.309","51.67","9.83","49.02","1012.815","24.64","82.8","0.0","0.0"],
    [1528212,"2026-07-11 04:00:00","74709","7.45","50.07","9.47","46.62","1012.848","24.69","82.4","0.0","0.0"],
    [1528213,"2026-07-11 04:10:00","74710","7.518","50.75","10.13","47.22","1012.725","24.79","82.2","0.0","0.0"],
    [1528214,"2026-07-11 04:20:00","74711","7.813","47.73","10.03","46.03","1012.689","24.77","81.6","0.0","0.0"],
    [1528215,"2026-07-11 04:30:00","74712","7.7860000000000005","46.53","9.96","46.53","1012.773","24.76","81.2","0.626","0.0"],
    [1528216,"2026-07-11 04:40:00","74713","7.4879999999999995","49.44","9.73","52.13","1012.801","24.81","81.3","3.3110000000000004","0.0"],
    [1528217,"2026-07-11 04:50:00","74714","7.51","51.91","9.51","56.44","1012.778","24.84","80.1","8.83","0.0"],
    [1528218,"2026-07-11 05:00:00","74715","7.007999999999999","48.24","9.83","55.45","1012.714","25.01","78.33","20.36","0.0"],
    [1528219,"2026-07-11 05:10:00","74716","8.03","47.17","10.71","45.52","1012.776","25.14","77.03","47.11","0.0"],
    [1528220,"2026-07-11 05:20:00","74717","7.494","42.5","9.93","51.16","1012.936","25.24","76.03","50.19","0.0"],
    [1528221,"2026-07-11 05:30:00","74718","6.122999999999999","58.31","9.67","60.79","1013.022","25.26","76.13","50.92","0.0"],
    [1528222,"2026-07-11 05:40:00","74719","7.672999999999999","42.07","10.98","42.67","1012.846","25.27","76.02","91.1","0.0"],
    [1528223,"2026-07-11 05:50:00","74720","8.14","45.47","10.29","43.56","1012.82","25.29","76.73","129.9","0.0"],
    [1528224,"2026-07-11 06:00:00","74721","6.768","46.39","10.42","41.72","1012.881","25.25","77.35","187.7","0.0"],
    [1528225,"2026-07-11 06:10:00","74722","6.086","42.98","9.34","43.34","1012.96","25.19","78.21","206.5","0.0"],
    [1528226,"2026-07-11 06:20:00","74723","4.324","16.35","6.403","24.44","1013.397","25.14","78.21","185.9","0.0"],
    [1528227,"2026-07-11 06:30:00","74724","3.5439999999999996","26.7","5.063","20.49","1013.469","25.07","77.72","270.7","0.0"],
    [1528228,"2026-07-11 06:40:00","74725","3.61","35.22","4.867","35.84","1013.458","25.08","78.02","173.2","0.0"],
    [1528229,"2026-07-11 06:50:00","74726","4.369","43.77","6.827000000000001","34.59","1013.281","25.05","78.58","146.3","0.0"],
    [1528230,"2026-07-11 07:00:00","74727","5.043","46.2","7.121","45.27","1013.294","25.11","78.8","121.6","0.0"],
    [1528231,"2026-07-11 07:10:00","74728","5.468","43.86","8.3","53.36","1013.275","25.16","78.71","244.6","0.0"],
    [1528232,"2026-07-11 07:20:00","74729","6.058","42.38","8.23","51.29","1013.265","25.34","78.21","337.7","0.0"],
    [1528233,"2026-07-11 07:30:00","74730","6.983","45.59","9.73","51.16","1013.33","25.49","77.71","448.4","0.0"],
    [1528234,"2026-07-11 07:40:00","74731","7.115","47.06","9.11","52.29","1013.497","25.57","75.92","483.2","0.0"],
    [1528235,"2026-07-11 07:50:00","74732","7.277","42.67","9.93","42.5","1013.442","25.72","75.28","498.6","0.0"],
    [1528236,"2026-07-11 08:00:00","74733","6.119","27.83","8.1","26.61","1013.463","25.57","75.22","341.1","0.0"],
    [1528237,"2026-07-11 08:10:00","74734","5.535","32.55","6.9910000000000005","39.05","1013.473","25.57","75.31","494.0","0.0"],
    [1528238,"2026-07-11 08:20:00","74735","4.928999999999999","31.74","6.925","29.72","1013.529","25.7","75.06","581.1","0.0"],
    [1528239,"2026-07-11 08:30:00","74736","4.824","31.98","7.154","42.5","1013.586","25.81","74.78","537.6","0.0"],
    [1528240,"2026-07-11 08:40:00","74737","6.525","45.87","8.1","48.1","1013.492","25.97","73.43","653.4","0.0"],
    [1528241,"2026-07-11 08:50:00","74738","6.66","47.12","8.56","50.86","1013.465","26.08","72.77","677.3","0.0"],
    [1528242,"2026-07-11 09:00:00","74739","6.481","43.94","8.72","41.41","1013.527","26.16","72.55","702.1","0.0"],
    [1528243,"2026-07-11 09:10:00","74740","6.263","39.6","10.68","53.37","1013.469","26.24","72.03","728.4","0.0"],
    [1528244,"2026-07-11 09:20:00","74741","6.322","38.14","9.73","44.0","1013.431","26.34","71.54","750.7","0.0"],
    [1528245,"2026-07-11 09:30:00","74742","5.29","36.95","8.07","34.38","1013.606","26.46","71.17","773.4","0.0"],
    [1528246,"2026-07-11 09:40:00","74743","6.015","38.14","10.58","37.89","1013.573","26.5","71.57","795.5","0.0"],
    [1528247,"2026-07-11 09:50:00","74744","4.751","35.0","8.33","26.77","1013.564","26.58","71.39","811.0","0.0"],
    [1528248,"2026-07-11 10:00:00","74745","3.25","56.74","7.938","33.67","1013.76","26.64","71.25","831.0","0.0"],
    [1528249,"2026-07-11 10:10:00","74746","3.6639999999999997","57.11","6.957999999999999","86.5","1013.794","26.63","71.61","848.0","0.0"],
    [1528250,"2026-07-11 10:20:00","74747","3.2710000000000004","65.81","8.69","99.6","1013.786","26.7","72.17","863.0","0.0"],
    [1528251,"2026-07-11 10:30:00","74748","3.53","75.17","8.36","56.44","1013.763","26.65","73.11","877.0","0.0"],
    [1528252,"2026-07-11 10:40:00","74749","4.101","85.0","7.644","85.4","1013.865","26.68","73.0","890.0","0.0"],
    [1528253,"2026-07-11 10:50:00","74750","5.777","90.4","7.905","87.6","1013.986","26.76","72.91","902.0","0.0"],
    [1528254,"2026-07-11 11:00:00","74751","5.58","90.6","8.17","100.2","1014.006","26.83","73.08","910.0","0.0"],
    [1528255,"2026-07-11 11:10:00","74752","5.779","93.1","8.95","98.5","1013.978","26.78","73.85","918.0","0.0"],
    [1528256,"2026-07-11 11:20:00","74753","4.995","90.4","7.872999999999999","83.2","1014.037","26.79","74.12","925.0","0.0"],
    [1528257,"2026-07-11 11:30:00","74754","5.507999999999999","91.3","8.23","85.1","1014.123","26.79","74.68","932.0","0.0"],
    [1528258,"2026-07-11 11:40:00","74755","5.962999999999999","91.7","8.62","97.4","1014.102","26.69","75.57","937.0","0.0"],
    [1528259,"2026-07-11 11:50:00","74756","6.422000000000001","99.3","8.95","97.0","1014.084","26.57","77.97","943.0","0.0"],
    [1528260,"2026-07-11 12:00:00","74757","5.837000000000001","96.1","8.66","70.42","1014.106","26.57","77.93","944.0","0.0"],
    [1528261,"2026-07-11 12:10:00","74758","6.07","85.9","8.79","92.0","1014.009","26.53","76.5","949.0","0.0"],
    [1528262,"2026-07-11 12:20:00","74759","5.655","86.5","8.85","90.3","1013.976","26.51","77.55","948.0","0.0"],
    [1528263,"2026-07-11 12:30:00","74760","5.727","90.2","9.05","100.4","1013.967","26.43","78.78","947.0","0.0"],
    [1528264,"2026-07-11 12:40:00","74761","6.011","89.8","8.49","89.1","1013.959","26.25","80.8","943.0","0.0"],
    [1528265,"2026-07-11 12:50:00","74762","5.649","89.1","8.49","89.1","1014.019","26.19","81.1","940.0","0.0"],
    [1528266,"2026-07-11 13:00:00","74763","5.742000000000001","88.0","8.53","92.5","1014.013","26.12","81.5","908.0","0.0"],
    [1528267,"2026-07-11 13:10:00","74764","4.257","84.2","8.59","89.2","1014.105","26.12","81.1","903.0","0.0"],
    [1528268,"2026-07-11 13:20:00","74765","3.6439999999999997","69.19","7.775","59.63","1014.131","26.17","80.4","882.0","0.0"],
    [1528269,"2026-07-11 13:30:00","74766","3.216","60.78","6.729","53.16","1014.098","26.28","80.9","809.0","0.0"],
    [1528270,"2026-07-11 13:40:00","74767","3.425","51.11","7.317","48.02","1014.051","26.23","80.9","769.2","0.0"],
    [1528271,"2026-07-11 13:50:00","74768","3.27","64.63","6.566","26.91","1014.108","26.24","80.5","782.3","0.0"],
    [1528272,"2026-07-11 14:00:00","74769","2.992","49.8","6.501","60.87","1014.021","26.17","81.5","612.9","0.0"],
    [1528273,"2026-07-11 14:10:00","74770","3.585","67.5","7.056","95.2","1013.961","26.15","81.3","871.0","0.0"],
    [1528274,"2026-07-11 14:20:00","74771","3.406","71.13","7.579","75.64","1013.881","26.13","80.9","781.0","0.0"],
    [1528275,"2026-07-11 14:30:00","74772","3.135","80.4","6.729","92.5","1013.858","26.16","80.9","646.8","0.0"],
    [1528276,"2026-07-11 14:40:00","74773","3.111","69.97","6.5329999999999995","86.9","1013.835","26.11","81.0","520.6","0.0"],
    [1528277,"2026-07-11 14:50:00","74774","3.055","61.86","5.7170000000000005","28.65","1013.685","26.15","80.4","634.1","0.0"],
    [1528278,"2026-07-11 15:00:00","74775","2.784","81.1","6.272","95.8","1013.621","26.19","80.2","518.4","0.0"],
    [1528279,"2026-07-11 15:10:00","74776","3.535","79.93","5.945","94.0","1013.587","26.17","80.5","500.2","0.0"],
    [1528280,"2026-07-11 15:20:00","74777","3.033","73.38","6.272","36.64","1013.561","26.2","80.6","618.0","0.0"],
    [1528281,"2026-07-11 15:30:00","74778","2.9989999999999997","86.4","6.435","102.9","1013.549","26.13","79.84","440.8","0.0"],
    [1528282,"2026-07-11 15:40:00","74779","2.625","89.3","5.227","85.4","1013.549","26.19","79.92","342.9","0.0"],
    [1528283,"2026-07-11 15:50:00","74780","4.3839999999999995","82.7","5.749","86.5","1013.519","26.13","79.78","395.1","0.0"],
    [1528284,"2026-07-11 16:00:00","74781","4.59","80.0","5.553","82.8","1013.436","26.12","80.4","393.5","0.0"],
    [1528285,"2026-07-11 16:10:00","74782","4.348","76.89","5.651","76.13","1013.433","26.06","79.92","404.3","0.0"],
    [1528286,"2026-07-11 16:20:00","74783","4.35","71.59","5.847","71.38","1013.471","26.08","79.88","504.9","0.0"],
    [1528287,"2026-07-11 16:30:00","74784","4.082","71.8","5.357","72.35","1013.47","26.11","79.66","465.5","0.0"],
    [1528288,"2026-07-11 16:40:00","74785","4.31","74.75","5.325","70.46","1013.46","26.05","79.54","353.1","0.0"],
    [1528289,"2026-07-11 16:50:00","74786","3.478","79.44","5.031000000000001","72.66","1013.449","26.13","80.3","367.4","0.0"],
    [1528290,"2026-07-11 17:00:00","74787","3.906","74.55","4.998","75.75","1013.522","26.07","81.3","260.2","0.0"],
    [1528291,"2026-07-11 17:10:00","74788","3.502","80.2","4.377","77.51","1013.609","26.03","80.7","171.5","0.0"],
    [1528292,"2026-07-11 17:20:00","74789","3.573","73.84","4.638999999999999","76.21","1013.583","26.0","81.2","91.7","0.0"],
    [1528293,"2026-07-11 17:30:00","74790","3.1239999999999997","68.77","4.149","68.19","1013.605","25.95","81.5","100.1","0.0"],
    [1528294,"2026-07-11 17:40:00","74791","3.0239999999999996","63.26","4.737","63.04","1013.606","26.03","81.8","155.5","0.0"],
    [1528295,"2026-07-11 17:50:00","74792","3.201","61.79","4.769","76.56","1013.599","25.96","82.3","117.3","0.0"],
    [1528296,"2026-07-11 18:00:00","74793","3.153","64.8","4.475","81.1","1013.538","25.97","82.4","156.8","0.0"],
    [1528297,"2026-07-11 18:10:00","74794","3.032","64.68","4.345","80.2","1013.584","25.96","81.8","151.1","0.0"],
    [1528298,"2026-07-11 18:20:00","74795","2.489","58.44","4.312","81.7","1013.706","25.99","82.4","108.9","0.0"],
    [1528299,"2026-07-11 18:30:00","74796","3.3139999999999996","72.62","4.247","75.04","1013.796","25.88","82.4","72.08","0.0"],
    [1528300,"2026-07-11 18:40:00","74797","3.03","67.98","4.051","75.34","1013.814","25.84","82.5","47.67","0.0"],
    [1528301,"2026-07-11 18:50:00","74798","2.5860000000000003","73.13","3.7889999999999997","72.75","1014.042","25.83","82.5","35.36","0.0"],
    [1528302,"2026-07-11 19:00:00","74799","2.6039999999999996","43.18","4.247","38.15","1014.107","25.86","82.5","25.18","0.0"],
    [1528303,"2026-07-11 19:10:00","74800","2.884","63.9","3.887","60.55","1014.072","25.75","83.0","13.98","0.0"],
    [1528304,"2026-07-11 19:20:00","74801","3.647","47.0","5.063","39.74","1013.923","25.77","82.4","6.4879999999999995","0.0"],
    [1528305,"2026-07-11 19:30:00","74802","3.4589999999999996","40.22","5.2589999999999995","31.85","1013.867","25.75","82.6","1.7819999999999998","0.0"],
    [1528306,"2026-07-11 19:40:00","74803","3.944","36.61","5.292000000000001","34.64","1013.856","25.7","83.3","0.003","0.0"],
    [1528307,"2026-07-11 19:50:00","74804","4.368","38.48","5.422999999999999","42.25","1014.01","25.68","84.7","0.0","0.0"],
    [1528308,"2026-07-11 20:00:00","74805","3.803","38.74","5.1610000000000005","33.75","1014.159","25.6","84.7","0.0","0.0"],
    [1528309,"2026-07-11 20:10:00","74806","4.463","39.63","5.4879999999999995","38.17","1014.268","25.59","84.5","0.0","0.0"],
    [1528310,"2026-07-11 20:20:00","74807","4.955","36.41","6.37","35.73","1014.31","25.57","84.7","0.0","0.0"],
    [1528311,"2026-07-11 20:30:00","74808","4.824","36.12","6.1739999999999995","40.73","1014.311","25.57","84.9","0.0","0.0"],
    [1528312,"2026-07-11 20:40:00","74809","4.458","43.3","5.619","26.19","1014.439","25.57","85.0","0.0","0.0"],
    [1528313,"2026-07-11 20:50:00","74810","4.734","42.61","5.782","44.05","1014.502","25.54","85.4","0.0","0.0"],
    [1528314,"2026-07-11 21:00:00","74811","4.475","39.26","5.7170000000000005","37.39","1014.676","25.47","86.0","0.0","0.0"],
    [1528315,"2026-07-11 21:10:00","74812","4.73","41.47","5.847","39.01","1014.861","25.46","86.6","0.0","0.0"],
    [1528316,"2026-07-11 21:20:00","74813","4.525","44.99","6.042999999999999","38.71","1014.987","25.4","87.1","0.0","0.0"],
    [1528317,"2026-07-11 21:30:00","74814","4.918","41.82","6.0760000000000005","39.94","1014.875","25.27","86.8","0.0","0.0"],
    [1528318,"2026-07-11 21:40:00","74815","5.122999999999999","43.65","6.729","47.85","1014.861","25.25","86.9","0.0","0.0"],
    [1528319,"2026-07-11 21:50:00","74816","5.406000000000001","46.01","6.827000000000001","48.0","1014.92","25.24","87.1","0.0","0.0"],
    [1528320,"2026-07-11 22:00:00","74817","4.808","44.17","6.501","51.59","1014.963","25.21","87.2","0.0","0.0"],
    [1528321,"2026-07-11 22:10:00","74818","5.06","40.64","6.468","38.3","1015.02","25.22","87.8","0.0","0.0"],
    [1528322,"2026-07-11 22:20:00","74819","4.604","41.02","5.4879999999999995","50.49","1015.163","25.18","88.1","0.0","0.0"],
    [1528323,"2026-07-11 22:30:00","74820","4.316","42.17","5.521","42.4","1015.258","25.2","88.2","0.0","0.0"],
    [1528324,"2026-07-11 22:40:00","74821","4.328","42.19","5.815","38.95","1015.419","25.19","88.0","0.0","0.0"],
    [1528325,"2026-07-11 22:50:00","74822","4.925","39.83","7.35","6.443","1015.474","25.24","88.2","0.0","0.0"],
    [1528326,"2026-07-11 23:00:00","74823","5.091","39.31","6.599","38.61","1015.473","25.26","88.6","0.0","0.0"],
    [1528327,"2026-07-11 23:10:00","74824","5.184","46.28","6.599","46.35","1015.536","25.26","88.2","0.0","0.0"],
    [1528328,"2026-07-11 23:20:00","74825","5.422999999999999","50.37","7.154","59.96","1015.511","25.36","87.3","0.0","0.0"],
    [1528329,"2026-07-11 23:30:00","74826","5.744","58.78","7.218999999999999","58.71","1015.585","25.32","87.1","0.0","0.0"],
    [1528330,"2026-07-11 23:40:00","74827","5.505","67.05","8.26","73.17","1015.466","25.31","87.7","0.0","0.0"],
    [1528331,"2026-07-11 23:50:00","74828","5.904","65.69","8.1","48.89","1015.386","25.3","87.5","0.0","0.0"],
    [1528332,"2026-07-12 00:00:00","74829","6.494","66.04","8.98","73.38","1015.361","25.34","86.9","0.0","0.0"],
    [1528333,"2026-07-12 00:10:00","74830","7.279","62.6","8.95","61.51","1015.301","25.35","87.2","0.0","0.0"],
    [1528334,"2026-07-12 00:20:00","74831","6.73","62.58","8.82","57.27","1015.259","25.32","88.0","0.005","0.0"],
    [1528335,"2026-07-12 00:30:00","74832","6.9239999999999995","61.73","9.54","52.06","1015.14","25.27","88.3","0.0","0.0"],
    [1528336,"2026-07-12 00:40:00","74833","7.394","58.48","10.26","54.04","1014.977","25.22","88.4","0.0","0.0"],
    [1528337,"2026-07-12 00:50:00","74834","6.662000000000001","56.58","9.54","72.94","1014.895","25.15","87.1","0.0","0.0"],
    [1528338,"2026-07-12 01:00:00","74835","6.745","52.15","8.72","49.89","1014.742","25.15","84.7","0.0","0.0"],
    [1528339,"2026-07-12 01:10:00","74836","6.3","51.7","8.07","49.24","1014.623","25.34","82.9","0.0","0.0"],
    [1528340,"2026-07-12 01:20:00","74837","6.789","45.27","8.89","47.51","1014.554","25.46","82.0","0.0","0.0"],
    [1528341,"2026-07-12 01:30:00","74838","6.497999999999999","41.24","7.905","35.39","1014.389","25.45","81.9","0.0","0.0"],
    [1528342,"2026-07-12 01:40:00","74839","6.202999999999999","44.19","7.807","37.18","1014.364","25.41","82.9","0.0","0.0"],
    [1528343,"2026-07-12 01:50:00","74840","6.428","42.87","8.04","42.25","1014.412","25.31","83.8","0.0","0.0"],
    [1528344,"2026-07-12 02:00:00","74841","5.8870000000000005","31.06","8.04","37.13","1014.318","25.25","84.0","0.0","0.0"],
    [1528345,"2026-07-12 02:10:00","74842","5.686","41.11","6.957999999999999","44.66","1014.304","25.27","83.8","0.0","0.0"],
    [1528346,"2026-07-12 02:20:00","74843","5.52","47.6","7.056","47.84","1014.207","25.26","83.5","0.0","0.0"],
    [1528347,"2026-07-12 02:30:00","74844","5.192","47.11","6.7620000000000005","43.72","1014.232","25.23","83.0","0.0","0.0"],
    [1528348,"2026-07-12 02:40:00","74845","4.874","42.74","6.141","38.85","1014.171","25.21","82.7","0.0","0.0"],
    [1528349,"2026-07-12 02:50:00","74846","4.717","48.0","5.945","53.66","1014.129","25.19","82.4","0.0","0.0"],
    [1528350,"2026-07-12 03:00:00","74847","4.615","54.95","5.978","69.08","1014.157","25.21","82.3","0.0","0.0"],
    [1528351,"2026-07-12 03:10:00","74848","4.849","47.65","6.011","39.74","1014.166","25.2","82.4","0.0","0.0"],
    [1528352,"2026-07-12 03:20:00","74849","5.185","49.05","6.403","45.36","1014.079","25.12","82.5","0.0","0.0"],
    [1528353,"2026-07-12 03:30:00","74850","4.169","30.95","7.546","46.39","1014.123","25.07","82.4","0.0","0.0"],
    [1528354,"2026-07-12 03:40:00","74851","4.319","37.56","5.651","42.98","1014.26","25.05","82.7","0.0","0.0"],
    [1528355,"2026-07-12 03:50:00","74852","3.7319999999999998","42.39","4.9","47.43","1014.291","25.03","83.0","0.0","0.0"],
    [1528356,"2026-07-12 04:00:00","74853","3.861","39.25","4.965","40.37","1014.32","24.92","82.5","0.0","0.0"],
    [1528357,"2026-07-12 04:10:00","74854","4.005","42.28","4.737","47.84","1014.397","24.93","82.6","0.0","0.0"],
    [1528358,"2026-07-12 04:20:00","74855","4.111000000000001","35.64","5.063","34.19","1014.376","24.89","83.0","0.0","0.0"],
    [1528359,"2026-07-12 04:30:00","74856","3.9530000000000003","21.65","4.802","13.61","1014.324","24.86","83.0","0.7090000000000001","0.0"],
    [1528360,"2026-07-12 04:40:00","74857","4.144","17.63","5.096","24.62","1014.364","24.92","83.4","5.016","0.0"],
    [1528361,"2026-07-12 04:50:00","74858","3.838","16.74","4.965","6.896","1014.359","24.9","83.4","10.02","0.0"],
    [1528362,"2026-07-12 05:00:00","74859","2.9589999999999996","21.33","4.345","29.41","1014.379","24.94","82.8","18.24","0.0"],
    [1528363,"2026-07-12 05:10:00","74860","3.222","19.76","4.279","18.75","1014.412","25.1","79.25","33.85","0.0"],
    [1528364,"2026-07-12 05:20:00","74861","2.766","9.81","4.181","5.018","1014.48","25.34","75.4","61.77","0.0"],
    [1528365,"2026-07-12 05:30:00","74862","2.987","8.76","4.279","23.2","1014.468","25.53","72.28","75.65","0.0"],
    [1528366,"2026-07-12 05:40:00","74863","2.7539999999999996","9.97","4.573","24.17","1014.545","25.76","69.85","102.6","0.0"],
    [1528367,"2026-07-12 05:50:00","74864","3.305","10.06","4.573","21.17","1014.626","25.9","67.8","121.6","0.0"],
    [1528368,"2026-07-12 06:00:00","74865","3.667","11.99","4.638999999999999","10.83","1014.701","26.06","66.17","141.5","0.0"],
    [1528369,"2026-07-12 06:10:00","74866","3.9960000000000004","15.71","5.129","25.8","1014.776","26.17","64.86","165.3","0.0"],
    [1528370,"2026-07-12 06:20:00","74867","3.764","18.29","4.998","357.5","1014.795","26.25","63.74","190.3","0.0"],
    [1528371,"2026-07-12 06:30:00","74868","3.46","23.7","4.835","38.58","1014.985","26.39","62.91","220.6","0.0"],
    [1528372,"2026-07-12 06:40:00","74869","4.277","26.99","5.2589999999999995","34.25","1014.973","26.59","59.34","253.3","0.0"],
    [1528373,"2026-07-12 06:50:00","74870","4.23","25.8","5.553","31.29","1015.014","26.68","58.66","279.9","0.0"],
    [1528374,"2026-07-12 07:00:00","74871","4.8919999999999995","26.76","6.207000000000001","25.96","1015.029","26.67","57.65","306.8","0.0"],
    [1528375,"2026-07-12 07:10:00","74872","4.636","26.06","6.827000000000001","27.93","1015.055","26.79","56.84","335.2","0.0"],
    [1528376,"2026-07-12 07:20:00","74873","5.565","30.12","6.7620000000000005","33.46","1015.05","26.75","56.94","346.2","0.0"],
    [1528377,"2026-07-12 07:30:00","74874","5.186","31.77","6.827000000000001","29.81","1015.196","26.69","58.73","387.2","0.0"],
    [1528378,"2026-07-12 07:40:00","74875","4.562","38.66","5.782","28.19","1015.372","26.68","60.53","399.7","0.0"],
    [1528379,"2026-07-12 07:50:00","74876","4.998","44.26","6.305","41.67","1015.442","26.64","61.96","457.5","0.0"],
    [1528380,"2026-07-12 08:00:00","74877","5.1370000000000005","48.45","6.1739999999999995","51.3","1015.384","26.52","64.11","349.0","0.0"],
    [1528381,"2026-07-12 08:10:00","74878","4.7780000000000005","48.12","6.042999999999999","57.46","1015.367","26.32","66.08","455.2","0.0"],
    [1528382,"2026-07-12 08:20:00","74879","4.646","44.87","6.0760000000000005","37.41","1015.417","26.25","68.23","490.5","0.0"],
    [1528383,"2026-07-12 08:30:00","74880","5.279","40.62","6.501","42.92","1015.294","26.17","71.12","554.8","0.0"],
    [1528384,"2026-07-12 08:40:00","74881","5.015","43.8","6.599","43.11","1015.4","26.12","74.04","453.1","0.0"],
    [1528385,"2026-07-12 08:50:00","74882","5.329","44.14","6.795","44.65","1015.419","26.15","73.81","414.0","0.0"],
    [1528386,"2026-07-12 09:00:00","74883","5.997999999999999","48.57","7.218999999999999","45.94","1015.432","26.02","77.12","388.2","0.0"],
    [1528387,"2026-07-12 09:10:00","74884","6.602","48.68","8.07","49.4","1015.395","25.97","76.73","464.9","0.0"],
    [1528388,"2026-07-12 09:20:00","74885","6.61","48.24","8.17","47.85","1015.435","26.0","76.23","444.0","0.0"],
    [1528389,"2026-07-12 09:30:00","74886","7.0329999999999995","48.03","8.66","46.51","1015.512","25.95","75.95","483.1","0.0"],
    [1528390,"2026-07-12 09:40:00","74887","7.4110000000000005","48.54","8.92","47.8","1015.409","25.9","75.65","493.2","0.0"],
    [1528391,"2026-07-12 09:50:00","74888","7.028","47.72","8.79","49.81","1015.455","25.93","75.23","477.9","0.0"],
    [1528392,"2026-07-12 10:00:00","74889","7.523","49.38","9.18","56.21","1015.394","25.85","75.57","474.2","0.0"],
    [1528393,"2026-07-12 10:10:00","74890","7.3629999999999995","47.84","8.95","51.79","1015.453","25.87","77.1","522.7","0.0"],
    [1528394,"2026-07-12 10:20:00","74891","6.749","51.65","8.62","53.2","1015.627","25.86","77.72","412.5","0.0"],
    [1528395,"2026-07-12 10:30:00","74892","6.655","50.22","8.26","47.05","1015.705","26.01","76.59","377.7","0.0"],
    [1528396,"2026-07-12 10:40:00","74893","6.455","51.12","7.872999999999999","50.33","1015.76","26.04","77.25","424.8","0.0"],
    [1528397,"2026-07-12 10:50:00","74894","6.263","50.02","7.611000000000001","53.37","1015.875","26.08","76.68","465.0","0.0"],
    [1528398,"2026-07-12 11:00:00","74895","5.7010000000000005","47.16","7.546","43.8","1015.972","26.19","77.11","671.0","0.0"],
    [1528399,"2026-07-12 11:10:00","74896","5.457000000000001","44.5","6.957999999999999","35.33","1015.983","26.35","76.95","781.4","0.0"],
    [1528400,"2026-07-12 11:20:00","74897","4.77","40.53","7.84","41.93","1016.092","26.41","76.83","591.5","0.0"],
    [1528401,"2026-07-12 11:30:00","74898","4.223","41.91","6.9910000000000005","29.39","1016.182","26.48","76.14","615.0","0.0"],
    [1528402,"2026-07-12 11:40:00","74899","4.587","41.25","7.382999999999999","39.79","1016.143","26.47","76.54","663.2","0.0"],
    [1528403,"2026-07-12 11:50:00","74900","3.822","41.17","7.187","43.61","1016.141","26.53","77.5","706.4","0.0"],
    [1528404,"2026-07-12 12:00:00","74901","3.1660000000000004","65.3","6.141","67.32","1016.136","26.43","78.73","769.2","0.0"],
    [1528405,"2026-07-12 12:10:00","74902","2.6310000000000002","62.53","4.867","58.64","1016.084","26.4","79.34","670.1","0.0"],
    [1528406,"2026-07-12 12:20:00","74903","3.114","63.11","6.631","43.42","1016.052","26.43","79.21","884.0","0.0"],
    [1528407,"2026-07-12 12:30:00","74904","4.176","44.29","7.154","46.78","1015.935","26.48","79.17","934.0","0.0"],
    [1528408,"2026-07-12 12:40:00","74905","4.545","42.11","6.664","49.76","1015.894","26.46","79.77","936.0","0.0"],
    [1528409,"2026-07-12 12:50:00","74906","4.664","44.39","7.742000000000001","53.19","1015.908","26.42","80.2","657.3","0.0"],
    [1528410,"2026-07-12 13:00:00","74907","5.092","40.76","7.579","28.85","1015.76","26.28","81.8","404.0","0.0"],
    [1528411,"2026-07-12 13:10:00","74908","4.948","44.16","7.84","44.03","1015.716","26.26","82.8","585.5","0.0"],
    [1528412,"2026-07-12 13:20:00","74909","5.261","45.8","7.481","46.05","1015.567","26.18","83.5","416.7","0.0"],
    [1528413,"2026-07-12 13:30:00","74910","5.6979999999999995","47.76","7.579","42.66","1015.403","26.15","84.1","747.1","0.0"],
    [1528414,"2026-07-12 13:40:00","74911","5.712000000000001","46.15","7.285","46.93","1015.356","26.21","83.7","924.0","0.0"],
    [1528415,"2026-07-12 13:50:00","74912","5.989","42.17","7.252000000000001","39.18","1015.344","26.23","83.9","886.0","0.0"],
    [1528416,"2026-07-12 14:00:00","74913","5.96","42.49","7.742000000000001","40.88","1015.372","26.2","83.6","791.0","0.0"],
    [1528417,"2026-07-12 14:10:00","74914","5.724","45.9","7.4479999999999995","45.55","1015.389","26.2","83.7","738.8","0.0"],
    [1528418,"2026-07-12 14:20:00","74915","5.912999999999999","47.17","7.546","39.79","1015.332","26.15","84.4","648.7","0.0"],
    [1528419,"2026-07-12 14:30:00","74916","6.206","47.22","7.579","43.71","1015.193","25.98","85.2","274.3","0.0"],
    [1528420,"2026-07-12 14:40:00","74917","5.656000000000001","44.62","7.807","58.97","1015.178","25.92","85.9","422.6","0.0"],
    [1528421,"2026-07-12 14:50:00","74918","6.09","47.35","7.579","47.37","1015.136","25.94","85.9","324.4","0.0"],
    [1528422,"2026-07-12 15:00:00","74919","6.544","49.07","7.775","47.16","1015.073","25.89","85.2","327.4","0.0"],
    [1528423,"2026-07-12 15:10:00","74920","6.761","48.07","8.04","48.69","1014.991","25.9","85.4","264.0","0.0"],
    [1528424,"2026-07-12 15:20:00","74921","6.336","45.97","7.611000000000001","47.88","1014.897","25.91","85.7","320.0","0.0"],
    [1528425,"2026-07-12 15:30:00","74922","6.422000000000001","48.28","7.807","43.37","1014.863","25.86","86.8","273.3","0.0"],
    [1528426,"2026-07-12 15:40:00","74923","6.471","49.31","7.938","49.75","1014.796","25.84","87.2","212.8","0.0"],
    [1528427,"2026-07-12 15:50:00","74924","5.914","47.24","7.579","47.52","1014.87","25.81","87.2","177.9","0.0"],
    [1528428,"2026-07-12 16:00:00","74925","6.002000000000001","43.76","7.4479999999999995","45.43","1014.92","25.79","87.5","203.8","0.0"],
    [1528429,"2026-07-12 16:10:00","74926","6.442","49.26","7.872999999999999","48.39","1014.815","25.81","87.2","238.5","0.0"],
    [1528430,"2026-07-12 16:20:00","74927","6.436","49.22","8.72","50.3","1014.723","25.83","87.2","379.1","0.0"],
    [1528431,"2026-07-12 16:30:00","74928","6.602","49.11","8.59","46.37","1014.621","25.83","85.8","296.7","0.0"],
    [1528432,"2026-07-12 16:40:00","74929","5.855","47.53","7.6770000000000005","49.24","1014.633","25.99","85.4","356.8","0.0"],
    [1528433,"2026-07-12 16:50:00","74930","5.747000000000001","46.17","7.807","21.07","1014.521","26.01","84.4","345.0","0.0"],
    [1528434,"2026-07-12 17:00:00","74931","4.945","57.92","6.566","53.46","1014.572","26.08","83.9","211.4","0.0"],
    [1528435,"2026-07-12 17:10:00","74932","4.798","58.05","6.566","46.51","1014.545","26.11","84.7","204.1","0.0"],
    [1528436,"2026-07-12 17:20:00","74933","5.032","56.51","7.252000000000001","66.26","1014.348","26.06","84.7","196.6","0.0"],
    [1528437,"2026-07-12 17:30:00","74934","4.648","46.22","6.631","60.37","1014.437","26.08","85.2","146.1","0.0"],
    [1528438,"2026-07-12 17:40:00","74935","4.8069999999999995","43.0","6.435","38.33","1014.53","26.05","84.9","149.3","0.0"],
    [1528439,"2026-07-12 17:50:00","74936","3.3960000000000004","50.15","6.141","65.31","1014.454","26.07","84.7","120.8","0.0"],
    [1528440,"2026-07-12 18:00:00","74937","3.95","45.35","5.684","39.36","1014.452","26.07","85.0","67.93","0.0"],
    [1528441,"2026-07-12 18:10:00","74938","4.093","48.42","5.978","53.14","1014.444","26.03","85.3","62.11","0.0"],
    [1528442,"2026-07-12 18:20:00","74939","4.447","42.05","5.978","26.05","1014.327","25.98","85.5","82.3","0.0"],
    [1528443,"2026-07-12 18:30:00","74940","4.237","43.31","6.0760000000000005","35.72","1014.292","26.04","85.5","90.7","0.0"],
    [1528444,"2026-07-12 18:40:00","74941","6.035","37.97","7.317","31.4","1014.129","25.98","85.8","61.84","0.0"],
    [1528445,"2026-07-12 18:50:00","74942","5.541","37.35","7.218999999999999","36.21","1014.163","25.93","86.4","40.18","0.0"],
    [1528446,"2026-07-12 19:00:00","74943","5.619","37.36","7.056","37.52","1014.114","25.89","87.1","20.39","0.0"],
    [1528447,"2026-07-12 19:10:00","74944","5.619","36.39","6.599","36.4","1014.119","25.82","88.1","10.03","0.0"],
    [1528448,"2026-07-12 19:20:00","74945","5.654","34.36","6.893","46.83","1014.136","25.75","88.8","5.227","0.0"],
    [1528449,"2026-07-12 19:30:00","74946","5.98","33.44","7.415","36.29","1014.101","25.69","89.0","1.193","0.0"],
    [1528450,"2026-07-12 19:40:00","74947","6.4639999999999995","31.53","7.6770000000000005","28.22","1014.053","25.64","89.5","0.039","0.0"],
    [1528451,"2026-07-12 19:50:00","74948","6.46","30.98","7.644","28.7","1014.07","25.56","89.5","0.0","0.0"],
    [1528452,"2026-07-12 20:00:00","74949","5.909","29.06","6.9910000000000005","29.36","1014.278","25.6","88.7","0.0","0.0"],
    [1528453,"2026-07-12 20:10:00","74950","6.457999999999999","30.58","7.4479999999999995","26.71","1014.301","25.67","86.7","0.0","0.0"],
    [1528454,"2026-07-12 20:20:00","74951","6.011","32.2","7.121","35.73","1014.45","25.79","84.5","0.0","0.0"],
    [1528455,"2026-07-12 20:30:00","74952","6.0920000000000005","32.17","7.187","31.49","1014.428","25.95","82.2","0.0","0.0"],
    [1528456,"2026-07-12 20:40:00","74953","6.497000000000001","32.81","7.382999999999999","31.23","1014.387","26.15","77.7","0.0","0.0"],
    [1528457,"2026-07-12 20:50:00","74954","5.398","29.09","7.187","34.25","1014.346","26.41","74.69","0.0","0.0"],
    [1528458,"2026-07-12 21:00:00","74955","6.497000000000001","31.1","7.611000000000001","28.17","1014.291","26.58","70.26","0.0","0.0"],
    [1528459,"2026-07-12 21:10:00","74956","5.872000000000001","28.73","7.4479999999999995","27.36","1014.266","26.79","67.06","0.0","0.0"],
    [1528460,"2026-07-12 21:20:00","74957","6.957000000000001","31.46","8.49","29.8","1013.811","26.92","64.32","0.0","0.0"],
    [1528461,"2026-07-12 21:30:00","74958","7.683","30.1","8.98","31.83","1013.401","27.1","60.03","0.0","0.0"],
    [1528462,"2026-07-12 21:40:00","74959","6.831","31.4","8.69","32.72","1013.598","27.27","59.2","0.0","0.0"],
    [1528463,"2026-07-12 21:50:00","74960","4.861000000000001","32.34","6.599","32.41","1014.251","27.37","58.23","0.0","0.0"],
    [1528464,"2026-07-12 22:00:00","74961","4.077","34.13","5.455","30.11","1014.509","27.44","56.04","0.0","0.0"],
    [1528465,"2026-07-12 22:10:00","74962","3.975","37.33","4.965","34.19","1014.447","27.53","54.76","0.0","0.0"],
    [1528466,"2026-07-12 22:20:00","74963","3.767","46.75","4.769","50.09","1014.435","27.48","56.79","0.0","0.0"],
    [1528467,"2026-07-12 22:30:00","74964","4.002","46.19","5.129","46.95","1014.561","27.43","56.64","0.0","0.0"],
    [1528468,"2026-07-12 22:40:00","74965","3.656","45.64","4.769","43.29","1014.797","27.41","57.27","0.0","0.0"],
    [1528469,"2026-07-12 22:50:00","74966","4.365","40.95","5.357","44.84","1014.803","27.36","57.82","0.0","0.0"],
    [1528470,"2026-07-12 23:00:00","74967","4.0969999999999995","49.8","5.325","48.73","1014.753","27.24","60.86","0.0","0.0"],
    [1528471,"2026-07-12 23:10:00","74968","4.1419999999999995","46.36","5.194","55.18","1014.87","27.22","60.85","0.0","0.0"],
    [1528472,"2026-07-12 23:20:00","74969","3.91","39.5","5.2589999999999995","10.98","1014.961","27.21","61.85","0.0","0.0"],
    [1528473,"2026-07-12 23:30:00","74970","4.177","44.28","5.227","41.72","1014.921","27.1","63.68","0.0","0.0"],
    [1528474,"2026-07-12 23:40:00","74971","4.21","45.28","5.422999999999999","45.23","1014.854","26.98","64.93","0.0","0.0"],
    [1528475,"2026-07-12 23:50:00","74972","4.3180000000000005","42.93","5.2589999999999995","50.15","1014.913","27.0","63.04","0.0","0.0"],
    [1528476,"2026-07-13 00:00:00","74973","4.269","45.2","5.7170000000000005","46.09","1014.739","27.0","63.83","0.0","0.0"],
    [1528477,"2026-07-13 00:10:00","74974","3.4730000000000003","44.38","4.345","50.54","1014.704","26.94","65.13","0.0","0.0"],
    [1528478,"2026-07-13 00:20:00","74975","3.238","34.84","3.92","38.92","1014.592","26.97","59.93","0.0","0.0"],
    [1528479,"2026-07-13 00:30:00","74976","3.495","34.05","4.181","35.69","1014.47","27.12","54.04","0.0","0.0"],
    [1528480,"2026-07-13 00:40:00","74977","3.02","39.83","4.181","34.71","1014.457","27.19","51.19","0.0","0.0"],
    [1528481,"2026-07-13 00:50:00","74978","2.5980000000000003","39.76","3.7239999999999998","37.78","1014.479","27.17","51.11","0.0","0.0"],
    [1528482,"2026-07-13 01:00:00","74979","2.755","45.16","3.463","56.12","1014.449","27.09","53.35","0.0","0.0"],
    [1528483,"2026-07-13 01:10:00","74980","2.639","55.32","3.92","51.54","1014.504","26.98","58.67","0.0","0.0"],
    [1528484,"2026-07-13 01:20:00","74981","3.0580000000000003","68.1","3.92","71.97","1014.531","26.84","64.27","0.0","0.0"],
    [1528485,"2026-07-13 01:30:00","74982","3.142","71.97","3.985","70.97","1014.578","26.79","65.55","0.0","0.0"],
    [1528486,"2026-07-13 01:40:00","74983","3.094","72.25","4.051","63.89","1014.571","26.68","67.75","0.0","0.0"],
    [1528487,"2026-07-13 01:50:00","74984","2.767","75.07","3.7239999999999998","66.13","1014.616","26.59","70.78","0.0","0.0"],
    [1528488,"2026-07-13 02:00:00","74985","3.17","69.67","4.149","78.24","1014.502","26.46","71.49","0.0","0.0"],
    [1528489,"2026-07-13 02:10:00","74986","2.8810000000000002","70.47","4.018","77.01","1014.412","26.35","73.36","0.0","0.0"],
    [1528490,"2026-07-13 02:20:00","74987","3.052","62.73","4.083","56.93","1014.315","26.3","73.29","0.0","0.0"],
    [1528491,"2026-07-13 02:30:00","74988","3.4419999999999997","63.68","4.4430000000000005","53.24","1014.271","26.26","73.34","0.0","0.0"],
    [1528492,"2026-07-13 02:40:00","74989","3.911","67.39","4.933","69.88","1014.204","26.21","73.96","0.0","0.0"],
    [1528493,"2026-07-13 02:50:00","74990","3.825","67.69","4.867","71.18","1014.209","26.17","74.61","0.0","0.0"],
    [1528494,"2026-07-13 03:00:00","74991","3.7939999999999996","55.95","4.802","58.5","1014.17","26.11","75.54","0.0","0.0"],
    [1528495,"2026-07-13 03:10:00","74992","3.9989999999999997","50.77","5.4879999999999995","46.86","1014.023","26.04","78.19","0.0","0.0"],
    [1528496,"2026-07-13 03:20:00","74993","4.3","49.11","5.553","45.0","1013.931","25.96","77.04","0.0","0.0"],
    [1528497,"2026-07-13 03:30:00","74994","4.69","44.7","5.978","55.28","1013.766","25.98","77.65","0.0","0.0"],
    [1528498,"2026-07-13 03:40:00","74995","5.444","41.79","7.0889999999999995","46.33","1013.604","25.97","75.61","0.0","0.0"],
    [1528499,"2026-07-13 03:50:00","74996","5.313","37.47","6.925","47.84","1013.541","25.95","74.99","0.0","0.0"],
    [1528500,"2026-07-13 04:00:00","74997","4.691","26.21","6.1739999999999995","15.2","1013.535","25.82","70.92","0.0","0.0"],
    [1528501,"2026-07-13 04:10:00","74998","4.064","33.11","5.096","33.44","1013.554","25.81","71.2","0.0","0.0"],
    [1528502,"2026-07-13 04:20:00","74999","3.937","26.04","5.096","34.9","1013.543","25.76","70.48","0.0","0.0"],
    [1528503,"2026-07-13 04:30:00","75000","3.767","24.94","4.965","25.71","1013.608","25.7","66.99","0.013999999999999999","0.0"],
    [1528504,"2026-07-13 04:40:00","75001","4.454","25.44","5.7170000000000005","17.43","1013.631","25.74","67.48","2.106","0.0"],
    [1528505,"2026-07-13 04:50:00","75002","3.37","25.12","4.737","22.16","1013.76","25.73","67.16","9.16","0.0"],
    [1528506,"2026-07-13 05:00:00","75003","3.392","23.79","5.227","14.5","1013.854","25.68","67.66","18.42","0.0"],
    [1528507,"2026-07-13 05:10:00","75004","4.041","25.51","5.4879999999999995","22.16","1013.868","25.66","70.03","33.1","0.0"],
    [1528508,"2026-07-13 05:20:00","75005","3.4419999999999997","24.48","5.847","24.75","1013.902","25.66","70.88","50.23","0.0"],
    [1528509,"2026-07-13 05:30:00","75006","4.16","39.89","5.553","40.92","1013.953","25.82","73.97","64.07","0.0"],
    [1528510,"2026-07-13 05:40:00","75007","4.404","53.27","6.5329999999999995","64.82","1013.963","25.74","82.0","80.3","0.0"],
    [1528511,"2026-07-13 05:50:00","75008","4.8469999999999995","54.92","6.337000000000001","60.96","1013.971","25.62","82.7","97.5","0.0"],
    [1528512,"2026-07-13 06:00:00","75009","5.343999999999999","49.63","6.795","45.47","1013.909","25.65","82.0","100.4","0.0"],
    [1528513,"2026-07-13 06:10:00","75010","5.586","48.83","7.023","45.76","1013.923","25.58","83.9","110.2","0.0"],
    [1528514,"2026-07-13 06:20:00","75011","5.8389999999999995","39.42","7.6770000000000005","39.34","1013.874","25.47","84.6","118.0","0.0"],
    [1528515,"2026-07-13 06:30:00","75012","5.946000000000001","41.87","7.709","37.83","1013.813","25.44","84.7","136.6","0.0"],
    [1528516,"2026-07-13 06:40:00","75013","6.327999999999999","40.81","8.2","41.67","1013.812","25.39","85.1","165.6","0.0"],
    [1528517,"2026-07-13 06:50:00","75014","6.457999999999999","39.98","8.13","42.64","1013.787","25.37","85.1","232.4","0.0"],
    [1528518,"2026-07-13 07:00:00","75015","6.435","37.91","7.872999999999999","41.04","1013.691","25.37","84.6","262.5","0.0"],
    [1528519,"2026-07-13 07:10:00","75016","5.849","36.84","8.56","41.91","1013.668","25.39","83.9","291.8","0.0"],
    [1528520,"2026-07-13 07:20:00","75017","7.195","43.34","8.95","43.14","1013.66","25.44","83.0","356.9","0.0"],
    [1528521,"2026-07-13 07:30:00","75018","7.055","46.6","8.79","45.25","1013.712","25.43","82.2","400.2","0.0"],
    [1528522,"2026-07-13 07:40:00","75019","7.593","43.23","9.38","37.48","1013.733","25.4","83.1","400.7","0.0"],
    [1528523,"2026-07-13 07:50:00","75020","7.669","38.48","10.52","51.26","1013.617","25.17","86.9","326.9","0.0"],
    [1528524,"2026-07-13 08:00:00","75021","8.37","43.39","10.29","36.37","1013.534","25.03","88.6","378.1","0.0"],
    [1528525,"2026-07-13 08:10:00","75022","7.05","44.33","9.54","46.16","1013.671","25.12","89.0","489.5","0.0"],
    [1528526,"2026-07-13 08:20:00","75023","7.236000000000001","50.7","9.21","51.99","1013.791","25.19","88.8","501.5","0.0"],
    [1528527,"2026-07-13 08:30:00","75024","6.925","52.18","9.24","53.02","1013.656","25.32","88.4","599.1","0.0"],
    [1528528,"2026-07-13 08:40:00","75025","6.402","45.12","8.53","58.56","1013.886","25.36","88.4","647.4","0.0"],
    [1528529,"2026-07-13 08:50:00","75026","5.3870000000000005","43.63","7.4479999999999995","47.61","1014.027","25.48","88.1","626.7","0.0"],
    [1528530,"2026-07-13 09:00:00","75027","5.711","51.32","7.317","48.68","1014.017","25.54","88.6","639.1","0.0"],
    [1528531,"2026-07-13 09:10:00","75028","5.018","51.82","6.566","47.82","1014.162","25.65","88.2","623.1","0.0"],
    [1528532,"2026-07-13 09:20:00","75029","5.521","68.48","7.938","71.27","1014.237","25.75","87.3","763.5","0.0"],
    [1528533,"2026-07-13 09:30:00","75030","5.073","71.31","7.252000000000001","75.83","1014.381","25.79","87.7","752.4","0.0"],
    [1528534,"2026-07-13 09:40:00","75031","5.955","84.9","7.84","92.2","1014.471","25.81","87.4","642.9","0.0"],
    [1528535,"2026-07-13 09:50:00","75032","6.127999999999999","90.1","7.579","95.2","1014.645","25.85","87.4","685.8","0.0"],
    [1528536,"2026-07-13 10:00:00","75033","4.777","96.6","6.337000000000001","91.7","1015.044","25.93","87.1","865.0","0.0"],
    [1528537,"2026-07-13 10:10:00","75034","3.915","104.6","5.1610000000000005","106.9","1015.277","26.08","86.7","595.5","0.0"],
    [1528538,"2026-07-13 10:20:00","75035","4.331","94.6","5.4879999999999995","97.2","1015.23","26.02","86.0","498.4","0.0"],
    [1528539,"2026-07-13 10:30:00","75036","3.94","99.2","5.422999999999999","112.1","1015.222","26.08","85.5","368.0","0.0"],
    [1528540,"2026-07-13 10:40:00","75037","4.205","101.1","5.7170000000000005","99.3","1015.163","26.03","85.0","334.7","0.0"],
    [1528541,"2026-07-13 10:50:00","75038","4.196000000000001","83.2","5.684","95.3","1015.109","26.16","84.7","401.7","0.0"],
    [1528542,"2026-07-13 11:00:00","75039","4.149","71.56","5.978","74.47","1015.044","26.22","85.5","498.7","0.0"],
    [1528543,"2026-07-13 11:10:00","75040","4.76","68.7","6.337000000000001","72.72","1015.044","26.08","85.5","273.9","0.0"],
    [1528544,"2026-07-13 11:20:00","75041","4.664","67.35","6.109","70.75","1014.989","26.12","85.3","322.6","0.0"],
    [1528545,"2026-07-13 11:30:00","75042","4.511","68.97","6.207000000000001","65.78","1014.959","26.22","84.4","1062.0","0.0"],
    [1528546,"2026-07-13 11:40:00","75043","4.454","65.84","6.337000000000001","76.09","1014.855","26.34","84.3","795.8","0.0"],
    [1528547,"2026-07-13 11:50:00","75044","4.33","66.36","6.272","81.9","1014.818","26.33","84.2","723.0","0.0"],
    [1528548,"2026-07-13 12:00:00","75045","5.03","66.74","6.729","55.96","1014.71","26.35","84.3","856.0","0.0"],
    [1528549,"2026-07-13 12:10:00","75046","4.7669999999999995","57.19","6.664","58.27","1014.628","26.31","84.9","375.4","0.0"],
    [1528550,"2026-07-13 12:20:00","75047","4.815","51.48","6.9910000000000005","58.5","1014.49","26.34","85.1","972.0","0.0"],
    [1528551,"2026-07-13 12:30:00","75048","4.9110000000000005","44.19","6.664","46.09","1014.446","26.34","85.2","808.0","0.0"],
    [1528552,"2026-07-13 12:40:00","75049","5.165","40.66","6.435","40.31","1014.326","26.27","85.2","938.0","0.0"],
    [1528553,"2026-07-13 12:50:00","75050","4.865","48.18","6.599","51.2","1014.208","26.32","84.8","916.0","0.0"],
    [1528554,"2026-07-13 13:00:00","75051","4.439","50.15","6.1739999999999995","37.97","1014.103","26.41","84.6","909.0","0.0"],
    [1528555,"2026-07-13 13:10:00","75052","4.886","53.5","6.9910000000000005","49.31","1014.052","26.5","83.9","901.0","0.0"],
    [1528556,"2026-07-13 13:20:00","75053","4.852","50.57","6.501","41.49","1013.955","26.55","83.9","892.0","0.0"],
    [1528557,"2026-07-13 13:30:00","75054","4.678999999999999","53.03","6.5329999999999995","61.57","1013.905","26.59","84.5","877.0","0.0"],
    [1528558,"2026-07-13 13:40:00","75055","4.9319999999999995","53.17","6.501","57.11","1013.824","26.53","84.7","868.0","0.0"],
    [1528559,"2026-07-13 13:50:00","75056","4.571000000000001","58.04","6.207000000000001","58.82","1013.802","26.55","85.1","849.0","0.0"],
    [1528560,"2026-07-13 14:00:00","75057","4.8","68.55","6.795","66.24","1013.671","26.49","85.2","834.0","0.0"],
    [1528561,"2026-07-13 14:10:00","75058","4.845","74.56","6.207000000000001","72.92","1013.521","26.42","85.8","817.0","0.0"],
    [1528562,"2026-07-13 14:20:00","75059","4.405","77.48","5.619","76.06","1013.386","26.53","85.7","797.7","0.0"],
    [1528563,"2026-07-13 14:30:00","75060","4.351","68.65","5.815","75.97","1013.302","26.62","85.1","777.3","0.0"],
    [1528564,"2026-07-13 14:40:00","75061","4.381","64.98","6.042999999999999","77.96","1013.219","26.68","84.5","758.3","0.0"],
    [1528565,"2026-07-13 14:50:00","75062","4.4030000000000005","68.13","5.422999999999999","55.52","1013.126","26.69","85.9","718.3","0.0"],
    [1528566,"2026-07-13 15:00:00","75063","4.269","64.31","5.815","46.39","1012.973","26.58","86.2","693.8","0.0"],
    [1528567,"2026-07-13 15:10:00","75064","4.189","69.26","5.521","76.32","1012.798","26.67","85.6","681.9","0.0"],
    [1528568,"2026-07-13 15:20:00","75065","3.739","79.86","4.802","73.54","1012.732","26.61","85.6","658.0","0.0"],
    [1528569,"2026-07-13 15:30:00","75066","3.6069999999999998","70.43","5.227","68.23","1012.721","26.73","85.5","594.6","0.0"],
    [1528570,"2026-07-13 15:40:00","75067","3.154","82.0","4.867","78.13","1012.714","26.64","85.9","590.9","0.0"],
    [1528571,"2026-07-13 15:50:00","75068","3.609","76.16","4.4430000000000005","67.93","1012.676","26.67","85.6","558.3","0.0"],
    [1528572,"2026-07-13 16:00:00","75069","3.7319999999999998","82.9","4.933","94.0","1012.634","26.64","86.3","528.5","0.0"],
    [1528573,"2026-07-13 16:10:00","75070","3.32","81.9","4.606","77.28","1012.66","26.62","86.5","500.1","0.0"],
    [1528574,"2026-07-13 16:20:00","75071","3.5180000000000002","87.1","4.541","85.9","1012.575","26.58","86.7","427.6","0.0"],
    [1528575,"2026-07-13 16:30:00","75072","3.1","91.5","4.018","81.3","1012.55","26.63","86.3","449.4","0.0"],
    [1528576,"2026-07-13 16:40:00","75073","3.0460000000000003","82.9","4.018","78.17","1012.499","26.65","86.5","307.1","0.0"],
    [1528577,"2026-07-13 16:50:00","75074","2.555","81.9","3.985","72.92","1012.538","26.61","86.7","332.2","0.0"],
    [1528578,"2026-07-13 17:00:00","75075","2.6639999999999997","93.7","3.6260000000000003","104.3","1012.522","26.6","86.7","297.5","0.0"],
    [1528579,"2026-07-13 17:10:00","75076","2.489","95.7","3.332","102.7","1012.521","26.61","86.8","308.4","0.0"],
    [1528580,"2026-07-13 17:20:00","75077","2.1590000000000003","100.4","3.005","99.8","1012.527","26.65","86.5","267.0","0.0"],
    [1528581,"2026-07-13 17:30:00","75078","2.311","110.9","3.1689999999999996","109.4","1012.479","26.67","87.0","123.3","0.0"],
    [1528582,"2026-07-13 17:40:00","75079","2.4419999999999997","99.3","3.1689999999999996","105.3","1012.484","26.64","87.0","113.8","0.0"],
    [1528583,"2026-07-13 17:50:00","75080","2.1519999999999997","113.2","2.7110000000000003","112.3","1012.542","26.6","86.6","38.63","0.0"],
    [1528584,"2026-07-13 18:00:00","75081","1.7009999999999998","138.8","2.548","141.1","1012.726","26.6","86.5","38.53","0.0"],
    [1528585,"2026-07-13 18:10:00","75082","1.9469999999999998","126.5","2.7769999999999997","125.4","1012.743","26.62","86.6","48.61","0.0"],
    [1528586,"2026-07-13 18:20:00","75083","1.739","118.2","2.6460000000000004","108.5","1012.761","26.64","86.6","41.34","0.0"],
    [1528587,"2026-07-13 18:30:00","75084","1.9780000000000002","113.1","2.45","111.8","1012.623","26.62","86.9","33.69","0.0"],
    [1528588,"2026-07-13 18:40:00","75085","1.742","111.0","2.287","96.4","1012.812","26.59","86.9","26.12","0.0"],
    [1528589,"2026-07-13 18:50:00","75086","1.645","102.6","2.0909999999999997","112.0","1012.842","26.58","86.8","21.28","0.0"],
    [1528590,"2026-07-13 19:00:00","75087","1.63","107.0","2.0580000000000003","108.8","1012.912","26.57","86.7","15.05","0.0"],
    [1528591,"2026-07-13 19:10:00","75088","1.95","103.1","2.352","103.5","1012.878","26.59","86.7","8.12","0.0"],
    [1528592,"2026-07-13 19:20:00","75089","1.237","82.9","1.829","97.5","1012.943","26.6","87.0","2.351","0.0"],
    [1528593,"2026-07-13 19:30:00","75090","1.0959999999999999","45.18","2.156","36.81","1012.969","26.57","87.2","0.21","0.0"],
    [1528594,"2026-07-13 19:40:00","75091","1.744","38.38","2.319","44.49","1012.977","26.5","87.3","0.0","0.0"],
    [1528595,"2026-07-13 19:50:00","75092","1.67","60.8","2.156","48.72","1012.975","26.51","87.5","0.0","0.0"],
    [1528596,"2026-07-13 20:00:00","75093","1.695","59.51","2.352","65.64","1013.042","26.5","87.6","0.0","0.0"],
    [1528597,"2026-07-13 20:10:00","75094","1.347","63.12","2.483","81.0","1013.263","26.55","88.1","0.0","0.0"],
    [1528598,"2026-07-13 20:20:00","75095","1.544","53.11","2.417","63.5","1013.528","26.49","88.4","0.0","0.0"],
    [1528599,"2026-07-13 20:30:00","75096","1.7469999999999999","32.69","2.319","31.97","1013.734","26.44","88.5","0.0","0.0"],
    [1528600,"2026-07-13 20:40:00","75097","2.2119999999999997","26.52","2.515","29.04","1013.892","26.4","88.5","0.0","0.0"],
    [1528601,"2026-07-13 20:50:00","75098","2.033","23.32","2.679","26.06","1014.069","26.36","88.1","0.0","0.0"],
    [1528602,"2026-07-13 21:00:00","75099","1.361","47.26","2.0580000000000003","33.06","1014.201","26.4","87.7","0.0","0.0"],
    [1528603,"2026-07-13 21:10:00","75100","1.8359999999999999","44.68","2.842","47.32","1014.277","26.46","88.1","0.0","0.0"],
    [1528604,"2026-07-13 21:20:00","75101","2.199","59.58","2.842","53.87","1014.372","26.43","89.0","0.0","0.0"],
    [1528605,"2026-07-13 21:30:00","75102","2.408","48.97","3.201","43.71","1014.435","26.33","89.3","0.0","0.0"],
    [1528606,"2026-07-13 21:40:00","75103","2.1719999999999997","37.95","2.842","29.9","1014.491","26.29","89.6","0.0","0.0"],
    [1528607,"2026-07-13 21:50:00","75104","2.6660000000000004","47.15","3.332","44.22","1014.538","26.25","89.5","0.0","0.0"],
    [1528608,"2026-07-13 22:00:00","75105","2.6830000000000003","50.36","3.397","64.56","1014.574","26.21","89.3","0.0","0.0"],
    [1528609,"2026-07-13 22:10:00","75106","2.407","54.83","3.071","58.02","1014.599","26.2","88.9","0.0","0.0"],
    [1528610,"2026-07-13 22:20:00","75107","2.39","60.54","3.0380000000000003","54.86","1014.652","26.21","88.7","0.0","0.0"],
    [1528611,"2026-07-13 22:30:00","75108","2.358","78.7","2.94","77.69","1014.682","26.18","88.3","0.0","0.0"],
    [1528612,"2026-07-13 22:40:00","75109","2.374","89.8","2.875","96.9","1014.762","26.23","88.0","0.0","0.0"],
    [1528613,"2026-07-13 22:50:00","75110","2.29","99.3","2.94","105.0","1014.825","26.25","88.0","0.0","0.0"],
    [1528614,"2026-07-13 23:00:00","75111","2.144","100.6","2.7439999999999998","109.8","1014.921","26.22","87.9","0.0","0.0"],
    [1528615,"2026-07-13 23:10:00","75112","1.797","93.9","2.483","104.7","1014.978","26.23","87.9","0.0","0.0"],
    [1528616,"2026-07-13 23:20:00","75113","1.459","72.07","1.895","62.18","1015.051","26.26","87.7","0.0","0.0"],
    [1528617,"2026-07-13 23:30:00","75114","1.6380000000000001","55.9","2.287","46.88","1015.124","26.28","87.5","0.0","0.0"],
    [1528618,"2026-07-13 23:40:00","75115","2.004","43.84","2.7439999999999998","44.69","1015.257","26.28","87.5","0.0","0.0"],
    [1528619,"2026-07-13 23:50:00","75116","2.605","40.27","3.299","40.44","1015.315","26.26","87.7","0.0","0.0"],
    [1528620,"2026-07-14 00:00:00","75117","2.367","40.48","2.94","42.27","1015.308","26.18","87.3","0.0","0.0"],
    [1528621,"2026-07-14 00:10:00","75118","2.687","33.94","3.6260000000000003","32.05","1015.366","26.19","87.2","0.0","0.0"],
    [1528622,"2026-07-14 00:20:00","75119","2.965","29.63","3.593","29.92","1015.403","26.06","87.7","0.0","0.0"],
    [1528623,"2026-07-14 00:30:00","75120","2.539","33.5","3.0380000000000003","34.74","1015.445","26.03","87.6","0.0","0.0"],
    [1528624,"2026-07-14 00:40:00","75121","2.6289999999999996","37.29","3.201","31.84","1015.378","26.02","87.7","0.0","0.0"],
    [1528625,"2026-07-14 00:50:00","75122","3.053","33.28","3.5610000000000004","31.53","1015.407","25.97","88.0","0.0","0.0"],
    [1528626,"2026-07-14 01:00:00","75123","3.092","37.48","3.6910000000000003","42.17","1015.397","25.95","88.2","0.0","0.0"],
    [1528627,"2026-07-14 01:10:00","75124","3.096","35.85","3.6910000000000003","36.32","1015.383","25.94","88.7","0.0","0.0"],
    [1528628,"2026-07-14 01:20:00","75125","3.27","34.3","3.887","42.4","1015.302","25.92","89.3","0.0","0.0"],
    [1528629,"2026-07-14 01:30:00","75126","2.986","38.25","3.6910000000000003","46.2","1015.246","25.88","89.7","0.0","0.0"],
    [1528630,"2026-07-14 01:40:00","75127","2.78","49.29","3.528","51.64","1015.29","25.92","90.1","0.0","0.0"],
    [1528631,"2026-07-14 01:50:00","75128","2.883","48.13","3.7569999999999997","46.17","1015.323","25.88","89.9","0.0","0.0"],
    [1528632,"2026-07-14 02:00:00","75129","2.65","58.85","3.7889999999999997","58.62","1015.324","25.96","89.5","0.0","0.0"],
    [1528633,"2026-07-14 02:10:00","75130","2.6660000000000004","62.13","3.495","69.11","1015.325","26.01","88.9","0.0","0.0"],
    [1528634,"2026-07-14 02:20:00","75131","2.903","59.71","4.573","57.69","1015.22","26.08","88.1","0.0","0.0"],
    [1528635,"2026-07-14 02:30:00","75132","2.967","63.63","3.887","73.98","1015.25","26.13","86.1","0.0","0.0"],
    [1528636,"2026-07-14 02:40:00","75133","2.8689999999999998","70.59","3.5610000000000004","59.9","1015.156","26.25","85.4","0.0","0.0"],
    [1528637,"2026-07-14 02:50:00","75134","2.591","62.9","3.6260000000000003","52.0","1015.102","26.26","85.9","0.0","0.0"],
    [1528638,"2026-07-14 03:00:00","75135","2.815","49.68","3.985","47.56","1015.088","26.26","85.9","0.0","0.0"],
    [1528639,"2026-07-14 03:10:00","75136","4.083","37.94","4.933","37.25","1014.979","26.2","84.3","0.0","0.0"],
    [1528640,"2026-07-14 03:20:00","75137","4.65","32.63","5.521","32.76","1014.89","26.12","85.4","0.0","0.0"],
    [1528641,"2026-07-14 03:30:00","75138","4.448","36.4","5.749","41.97","1014.961","25.96","84.6","0.0","0.0"],
    [1528642,"2026-07-14 03:40:00","75139","5.013999999999999","29.97","6.011","33.02","1014.927","25.88","85.6","0.0","0.0"],
    [1528643,"2026-07-14 03:50:00","75140","4.202","31.01","5.782","39.29","1015.018","25.84","85.8","0.0","0.0"],
    [1528644,"2026-07-14 04:00:00","75141","3.9730000000000003","27.72","4.933","30.85","1014.968","25.78","86.5","0.0","0.0"],
    [1528645,"2026-07-14 04:10:00","75142","3.989","19.22","4.769","24.2","1014.928","25.69","87.1","0.0","0.0"],
    [1528646,"2026-07-14 04:20:00","75143","4.029","23.37","5.031000000000001","21.72","1014.884","25.62","86.9","0.0","0.0"],
    [1528647,"2026-07-14 04:30:00","75144","3.9","22.95","4.671","21.74","1014.945","25.61","86.4","0.604","0.0"],
    [1528648,"2026-07-14 04:40:00","75145","3.612","23.38","4.508","20.07","1014.964","25.63","86.0","4.244","0.0"],
    [1528649,"2026-07-14 04:50:00","75146","3.7969999999999997","18.54","4.573","18.13","1015.025","25.61","85.5","11.17","0.0"],
    [1528650,"2026-07-14 05:00:00","75147","3.471","23.43","4.377","27.47","1015.031","25.62","84.6","22.93","0.0"],
    [1528651,"2026-07-14 05:10:00","75148","2.59","16.11","3.365","22.33","1015.183","25.74","83.5","40.18","0.0"],
    [1528652,"2026-07-14 05:20:00","75149","2.6860000000000004","20.19","3.365","15.28","1015.264","25.85","81.7","59.0","0.0"],
    [1528653,"2026-07-14 05:30:00","75150","2.77","24.44","3.365","22.81","1015.209","25.99","80.8","68.26","0.0"],
    [1528654,"2026-07-14 05:40:00","75151","2.463","20.25","3.1689999999999996","14.59","1015.271","26.14","79.51","90.6","0.0"],
    [1528655,"2026-07-14 05:50:00","75152","3.446","27.7","4.2139999999999995","28.49","1015.233","26.19","79.24","114.5","0.0"],
    [1528656,"2026-07-14 06:00:00","75153","3.4389999999999996","22.54","4.41","14.92","1015.162","26.22","78.61","133.5","0.0"],
    [1528657,"2026-07-14 06:10:00","75154","3.505","29.14","4.377","31.16","1015.032","26.36","78.09","158.3","0.0"],
    [1528658,"2026-07-14 06:20:00","75155","2.761","34.63","3.6910000000000003","38.2","1015.014","26.42","78.66","180.1","0.0"],
    [1528659,"2026-07-14 06:30:00","75156","3.668","25.0","4.345","23.81","1015.089","26.46","77.1","201.4","0.0"],
    [1528660,"2026-07-14 06:40:00","75157","3.5039999999999996","26.36","4.2139999999999995","22.06","1015.144","26.64","75.44","224.9","0.0"],
    [1528661,"2026-07-14 06:50:00","75158","3.6630000000000003","32.25","4.9","35.29","1015.274","26.72","74.54","253.2","0.0"],
    [1528662,"2026-07-14 07:00:00","75159","3.1439999999999997","52.29","4.1160000000000005","48.13","1015.446","26.78","75.02","286.7","0.0"],
    [1528663,"2026-07-14 07:10:00","75160","2.138","92.9","3.1689999999999996","95.0","1015.598","26.7","76.47","320.2","0.0"],
    [1528664,"2026-07-14 07:20:00","75161","2.9530000000000003","106.4","3.7569999999999997","106.0","1015.603","26.46","77.89","358.3","0.0"],
    [1528665,"2026-07-14 07:30:00","75162","3.366","116.0","4.083","111.5","1015.64","26.39","79.44","397.7","0.0"],
    [1528666,"2026-07-14 07:40:00","75163","3.023","120.9","3.92","122.0","1015.809","26.35","79.79","436.1","0.0"],
    [1528667,"2026-07-14 07:50:00","75164","2.7969999999999997","119.4","3.5610000000000004","114.1","1015.973","26.46","78.81","474.7","0.0"],
    [1528668,"2026-07-14 08:00:00","75165","3.032","119.3","3.6260000000000003","113.2","1016.084","26.53","79.51","514.7","0.0"],
    [1528669,"2026-07-14 08:10:00","75166","3.22","119.6","3.7889999999999997","109.7","1016.214","26.51","78.93","552.6","0.0"],
    [1528670,"2026-07-14 08:20:00","75167","3.485","120.4","4.377","118.8","1016.402","26.5","79.28","588.0","0.0"],
    [1528671,"2026-07-14 08:30:00","75168","3.522","132.8","4.704","139.9","1016.543","26.48","80.1","621.2","0.0"],
    [1528672,"2026-07-14 08:40:00","75169","3.65","132.4","4.671","131.4","1016.604","26.48","78.65","654.9","0.0"],
    [1528673,"2026-07-14 08:50:00","75170","3.95","136.4","5.292000000000001","135.0","1016.734","26.52","78.3","685.4","0.0"],
    [1528674,"2026-07-14 09:00:00","75171","3.605","134.8","4.802","142.0","1016.899","26.57","77.96","711.4","0.0"],
    [1528675,"2026-07-14 09:10:00","75172","3.367","134.5","4.638999999999999","138.4","1017.074","26.58","78.84","734.9","0.0"],
    [1528676,"2026-07-14 09:20:00","75173","3.516","139.2","4.508","137.5","1017.134","26.51","78.76","756.1","0.0"],
    [1528677,"2026-07-14 09:30:00","75174","3.6919999999999997","145.5","4.769","159.2","1017.275","26.49","79.12","781.4","0.0"],
    [1528678,"2026-07-14 09:40:00","75175","3.7060000000000004","145.4","4.769","138.7","1017.376","26.48","79.75","798.6","0.0"],
    [1528679,"2026-07-14 09:50:00","75176","3.613","140.2","4.1160000000000005","141.2","1017.466","26.48","78.79","816.0","0.0"],
    [1528680,"2026-07-14 10:00:00","75177","3.1310000000000002","146.2","4.149","139.6","1017.47","26.53","78.53","833.0","0.0"],
    [1528681,"2026-07-14 10:10:00","75178","3.497","144.4","4.769","143.4","1017.518","26.56","78.36","860.0","0.0"],
    [1528682,"2026-07-14 10:20:00","75179","3.68","152.4","4.704","165.2","1017.519","26.48","81.1","875.0","0.0"],
    [1528683,"2026-07-14 10:30:00","75180","3.784","159.3","5.521","164.7","1017.601","26.41","81.3","870.0","0.0"],
    [1528684,"2026-07-14 10:40:00","75181","4.051","154.3","5.031000000000001","164.1","1017.667","26.37","81.8","763.2","0.0"],
    [1528685,"2026-07-14 10:50:00","75182","4.101","151.1","5.194","154.1","1017.716","26.3","82.1","870.0","0.0"],
    [1528686,"2026-07-14 11:00:00","75183","4.458","154.9","5.39","156.8","1017.709","26.27","81.4","916.0","0.0"],
    [1528687,"2026-07-14 11:10:00","75184","4.052","152.8","4.835","160.5","1017.667","26.27","80.6","921.0","0.0"],
    [1528688,"2026-07-14 11:20:00","75185","4.354","156.5","5.88","150.9","1017.678","26.28","80.1","910.0","0.0"],
    [1528689,"2026-07-14 11:30:00","75186","4.425","160.6","5.782","160.5","1017.701","26.29","80.8","897.0","0.0"],
    [1528690,"2026-07-14 11:40:00","75187","4.062","153.4","5.292000000000001","160.8","1017.563","26.27","81.3","923.0","0.0"],
    [1528691,"2026-07-14 11:50:00","75188","3.3819999999999997","144.3","4.541","151.6","1017.351","26.27","80.8","926.0","0.0"],
    [1528692,"2026-07-14 12:00:00","75189","3.0010000000000003","138.7","4.018","140.1","1017.178","26.35","80.8","928.0","0.0"],
    [1528693,"2026-07-14 12:10:00","75190","3.635","138.3","4.541","147.6","1017.18","26.35","80.1","931.0","0.0"],
    [1528694,"2026-07-14 12:20:00","75191","3.8360000000000003","140.1","4.998","145.2","1017.215","26.4","80.2","898.0","0.0"],
    [1528695,"2026-07-14 12:30:00","75192","3.9","139.1","4.867","144.3","1017.099","26.33","80.2","937.0","0.0"],
    [1528696,"2026-07-14 12:40:00","75193","3.5210000000000004","139.5","4.573","143.8","1017.061","26.33","80.3","925.0","0.0"],
    [1528697,"2026-07-14 12:50:00","75194","3.5639999999999996","135.9","4.606","124.2","1017.018","26.34","80.1","924.0","0.0"],
    [1528698,"2026-07-14 13:00:00","75195","3.6689999999999996","138.0","4.573","131.0","1016.997","26.41","80.2","905.0","0.0"],
    [1528699,"2026-07-14 13:10:00","75196","3.795","140.5","5.2589999999999995","132.5","1017.001","26.41","80.5","905.0","0.0"],
    [1528700,"2026-07-14 13:20:00","75197","3.705","141.4","4.737","149.4","1016.966","26.44","80.2","913.0","0.0"],
    [1528701,"2026-07-14 13:30:00","75198","3.4189999999999996","137.3","4.606","139.2","1016.915","26.4","79.62","884.0","0.0"],
    [1528702,"2026-07-14 13:40:00","75199","3.216","138.7","4.051","137.6","1016.777","26.51","79.61","873.0","0.0"],
    [1528703,"2026-07-14 13:50:00","75200","3.013","136.1","4.051","134.3","1016.63","26.52","78.7","853.0","0.0"],
    [1528704,"2026-07-14 14:00:00","75201","3.085","145.2","4.1160000000000005","156.8","1016.633","26.54","79.54","792.0","0.0"],
    [1528705,"2026-07-14 14:10:00","75202","3.178","142.9","3.92","140.3","1016.609","26.49","79.53","815.0","0.0"],
    [1528706,"2026-07-14 14:20:00","75203","3.2889999999999997","150.7","4.345","148.7","1016.526","26.52","79.67","793.7","0.0"],
    [1528707,"2026-07-14 14:30:00","75204","3.043","146.7","3.985","139.3","1016.464","26.5","79.45","771.8","0.0"],
    [1528708,"2026-07-14 14:40:00","75205","3.3960000000000004","162.4","4.018","161.0","1016.423","26.46","79.47","750.9","0.0"],
    [1528709,"2026-07-14 14:50:00","75206","2.6639999999999997","160.0","3.43","163.1","1016.401","26.52","79.23","724.1","0.0"],
    [1528710,"2026-07-14 15:00:00","75207","3.071","164.4","3.822","159.2","1016.389","26.57","79.76","702.3","0.0"],
    [1528711,"2026-07-14 15:10:00","75208","3.1039999999999996","168.0","3.9530000000000003","175.5","1016.336","26.52","79.57","677.0","0.0"],
    [1528712,"2026-07-14 15:20:00","75209","3.178","160.4","4.704","163.6","1016.2","26.54","79.68","657.1","0.0"],
    [1528713,"2026-07-14 15:30:00","75210","3.397","168.0","4.083","172.0","1016.136","26.5","80.1","364.7","0.0"],
    [1528714,"2026-07-14 15:40:00","75211","3.287","163.1","3.855","169.4","1016.109","26.47","79.97","279.1","0.0"],
    [1528715,"2026-07-14 15:50:00","75212","3.1010000000000004","157.8","3.7889999999999997","157.9","1016.041","26.47","79.54","341.7","0.0"],
    [1528716,"2026-07-14 16:00:00","75213","3.2289999999999996","162.0","3.7569999999999997","154.7","1015.951","26.57","79.11","594.5","0.0"],
    [1528717,"2026-07-14 16:10:00","75214","3.3789999999999996","172.2","3.887","177.0","1015.967","26.6","79.26","482.8","0.0"],
    [1528718,"2026-07-14 16:20:00","75215","3.77","175.9","4.867","171.2","1015.831","26.64","80.3","468.6","0.0"],
    [1528719,"2026-07-14 16:30:00","75216","4.54","173.9","5.2589999999999995","177.2","1015.718","26.59","79.94","438.7","0.0"],
    [1528720,"2026-07-14 16:40:00","75217","4.4719999999999995","173.0","5.194","171.5","1015.665","26.64","80.2","403.0","0.0"],
    [1528721,"2026-07-14 16:50:00","75218","4.474","172.6","5.1610000000000005","173.6","1015.578","26.69","79.61","372.6","0.0"],
    [1528722,"2026-07-14 17:00:00","75219","4.768","173.8","5.553","172.9","1015.527","26.78","79.49","342.5","0.0"],
    [1528723,"2026-07-14 17:10:00","75220","4.704","178.0","6.011","181.5","1015.503","26.94","78.62","311.7","0.0"],
    [1528724,"2026-07-14 17:20:00","75221","4.402","185.5","5.521","193.1","1015.468","27.32","75.74","277.6","0.0"],
    [1528725,"2026-07-14 17:30:00","75222","4.465","182.0","5.455","183.7","1015.373","27.34","76.96","245.3","0.0"],
    [1528726,"2026-07-14 17:40:00","75223","4.3469999999999995","183.5","5.553","177.3","1015.33","27.37","76.99","213.3","0.0"],
    [1528727,"2026-07-14 17:50:00","75224","4.533","179.4","5.227","180.0","1015.339","27.18","80.2","181.1","0.0"],
    [1528728,"2026-07-14 18:00:00","75225","4.738","184.9","5.651","188.5","1015.477","27.18","79.84","146.5","0.0"],
    [1528729,"2026-07-14 18:10:00","75226","4.8","193.9","6.468","200.6","1015.554","27.37","78.86","120.7","0.0"],
    [1528730,"2026-07-14 18:20:00","75227","5.687","192.2","7.218999999999999","192.9","1015.569","27.27","79.83","99.8","0.0"],
    [1528731,"2026-07-14 18:30:00","75228","4.449","193.8","6.272","185.8","1015.481","27.21","80.4","72.88","0.0"],
    [1528732,"2026-07-14 18:40:00","75229","4.19","196.2","5.7170000000000005","186.1","1015.472","27.34","79.68","53.18","0.0"],
    [1528733,"2026-07-14 18:50:00","75230","4.006","206.5","5.325","212.8","1015.536","27.48","79.65","34.15","0.0"],
    [1528734,"2026-07-14 19:00:00","75231","4.016","202.0","6.272","191.3","1015.509","27.36","79.75","19.05","0.0"],
    [1528735,"2026-07-14 19:10:00","75232","3.426","212.2","6.141","238.9","1015.531","27.46","80.1","7.442","0.0"],
    [1528736,"2026-07-14 19:20:00","75233","3.437","205.0","5.553","197.9","1015.526","27.42","80.3","2.682","0.0"],
    [1528737,"2026-07-14 19:30:00","75234","4.343","201.2","6.566","200.4","1015.557","27.26","81.2","0.594","0.0"],
    [1528738,"2026-07-14 19:40:00","75235","3.6289999999999996","202.7","5.325","212.6","1015.529","27.24","81.7","0.0","0.0"],
    [1528739,"2026-07-14 19:50:00","75236","2.995","207.4","4.704","221.7","1015.626","27.29","82.5","0.0","0.0"],
    [1528740,"2026-07-14 20:00:00","75237","2.2159999999999997","213.5","4.769","197.4","1015.759","27.35","82.6","0.0","0.0"],
    [1528741,"2026-07-14 20:10:00","75238","2.105","223.1","3.9530000000000003","234.2","1015.914","27.43","82.6","0.0","0.0"],
    [1528742,"2026-07-14 20:20:00","75239","2.872","221.3","5.586","220.5","1016.163","27.52","82.6","0.0","0.0"],
    [1528743,"2026-07-14 20:30:00","75240","3.324","255.2","6.272","262.7","1016.372","27.45","82.7","0.0","0.0"],
    [1528744,"2026-07-14 20:40:00","75241","2.345","261.6","4.965","271.6","1016.483","27.37","82.7","0.0","0.0"],
    [1528745,"2026-07-14 20:50:00","75242","2.424","267.2","4.377","261.4","1016.322","27.31","82.1","0.0","0.0"],
    [1528746,"2026-07-14 21:00:00","75243","2.2","275.8","4.247","254.2","1016.069","27.25","81.4","0.0","0.0"],
    [1528747,"2026-07-14 21:10:00","75244","0.486","24.77","1.699","265.5","1015.478","27.19","81.6","0.0","0.0"],
    [1528748,"2026-07-14 21:20:00","75245","0.7020000000000001","87.7","1.274","108.2","1015.463","27.11","81.9","0.0","0.0"],
    [1528749,"2026-07-14 21:30:00","75246","1.082","235.6","2.221","236.3","1016.012","27.11","82.5","0.0","0.0"],
    [1528750,"2026-07-14 21:40:00","75247","1.0759999999999998","205.4","2.221","217.7","1015.93","27.2","81.4","0.0","0.0"],
    [1528751,"2026-07-14 21:50:00","75248","2.713","181.6","3.463","198.9","1015.61","27.13","82.9","0.0","0.0"],
    [1528752,"2026-07-14 22:00:00","75249","2.859","202.7","4.312","223.5","1015.76","26.98","84.0","0.0","0.0"],
    [1528753,"2026-07-14 22:10:00","75250","3.4789999999999996","227.8","5.847","208.7","1016.223","27.13","83.7","0.0","0.0"],
    [1528754,"2026-07-14 22:20:00","75251","2.4219999999999997","241.2","4.638999999999999","254.3","1016.436","27.21","84.4","0.0","0.0"],
    [1528755,"2026-07-14 22:30:00","75252","3.2560000000000002","241.1","5.684","219.3","1016.35","27.09","83.3","0.0","0.0"],
    [1528756,"2026-07-14 22:40:00","75253","2.4530000000000003","245.7","4.9","259.7","1016.198","27.1","82.5","0.0","0.0"],
    [1528757,"2026-07-14 22:50:00","75254","2.325","243.5","4.018","269.5","1016.137","27.11","81.8","0.0","0.0"],
    [1528758,"2026-07-14 23:00:00","75255","2.878","254.2","4.965","262.7","1016.126","27.17","80.3","0.0","0.0"],
    [1528759,"2026-07-14 23:10:00","75256","2.013","223.9","3.495","226.4","1016.092","27.28","81.4","0.0","0.0"],
    [1528760,"2026-07-14 23:20:00","75257","2.1","249.6","4.279","259.2","1016.095","27.13","82.2","0.0","0.0"],
    [1528761,"2026-07-14 23:30:00","75258","3.345","209.1","5.815","219.5","1016.047","27.07","84.8","0.0","0.0"],
    [1528762,"2026-07-14 23:40:00","75259","2.8930000000000002","230.4","5.129","257.0","1016.085","27.06","86.5","0.0","0.0"],
    [1528763,"2026-07-14 23:50:00","75260","3.406","252.5","5.586","244.5","1016.129","26.94","86.5","0.0","0.0"],
    [1528764,"2026-07-15 00:00:00","75261","3.4130000000000003","230.0","6.207000000000001","254.3","1015.931","26.92","86.6","0.0","0.0"],
    [1528765,"2026-07-15 00:10:00","75262","3.6710000000000003","213.6","6.435","235.8","1015.925","26.91","86.9","0.0","0.0"],
    [1528766,"2026-07-15 00:20:00","75263","3.3280000000000003","215.8","6.599","210.7","1016.032","26.97","87.2","0.0","0.0"],
    [1528767,"2026-07-15 00:30:00","75264","3.975","214.9","6.5329999999999995","230.6","1016.128","26.91","87.4","0.0","0.0"],
    [1528768,"2026-07-15 00:40:00","75265","3.8080000000000003","218.0","7.872999999999999","207.9","1016.279","26.99","87.0","0.0","0.0"],
    [1528769,"2026-07-15 00:50:00","75266","3.4130000000000003","242.2","6.1739999999999995","255.2","1016.389","26.96","86.8","0.0","0.0"],
    [1528770,"2026-07-15 01:00:00","75267","3.4730000000000003","248.3","6.631","264.2","1016.408","26.84","87.0","0.0","0.0"],
    [1528771,"2026-07-15 01:10:00","75268","3.553","250.0","6.795","243.9","1016.333","26.7","86.3","0.0","0.0"],
    [1528772,"2026-07-15 01:20:00","75269","3.68","246.7","6.337000000000001","243.9","1016.266","26.7","85.5","0.0","0.0"],
    [1528773,"2026-07-15 01:30:00","75270","2.4019999999999997","244.7","5.096","245.5","1016.228","26.62","84.4","0.0","0.0"],
    [1528774,"2026-07-15 01:40:00","75271","2.36","261.0","4.9","265.8","1016.163","26.54","82.1","0.0","0.0"],
    [1528775,"2026-07-15 01:50:00","75272","2.251","261.8","4.149","261.1","1016.085","26.53","80.7","0.0","0.0"],
    [1528776,"2026-07-15 02:00:00","75273","2.114","264.6","3.822","272.6","1016.021","26.61","81.2","0.0","0.0"],
    [1528777,"2026-07-15 02:10:00","75274","2.336","270.2","3.495","279.2","1015.988","26.53","80.2","0.0","0.0"],
    [1528778,"2026-07-15 02:20:00","75275","2.046","273.3","3.43","272.7","1015.919","26.53","79.84","0.0","0.0"],
    [1528779,"2026-07-15 02:30:00","75276","1.83","268.3","3.299","280.1","1015.892","26.57","80.2","0.0","0.0"],
    [1528780,"2026-07-15 02:40:00","75277","2.195","270.7","3.234","274.2","1015.808","26.56","80.4","0.0","0.0"],
    [1528781,"2026-07-15 02:50:00","75278","2.04","268.9","2.8089999999999997","273.8","1015.79","26.56","80.3","0.0","0.0"],
    [1528782,"2026-07-15 03:00:00","75279","1.8119999999999998","273.8","2.8089999999999997","271.6","1015.759","26.57","80.4","0.0","0.0"],
    [1528783,"2026-07-15 03:10:00","75280","1.589","279.8","2.8089999999999997","289.1","1015.453","26.61","80.4","0.0","0.0"],
    [1528784,"2026-07-15 03:20:00","75281","1.641","268.8","2.5810000000000004","262.4","1015.526","26.58","80.4","0.0","0.0"],
    [1528785,"2026-07-15 03:30:00","75282","2.162","260.0","3.593","255.7","1015.844","26.56","80.6","0.0","0.0"],
    [1528786,"2026-07-15 03:40:00","75283","2.555","259.1","3.887","258.1","1015.921","26.57","80.1","0.0","0.0"],
    [1528787,"2026-07-15 03:50:00","75284","2.146","273.2","3.005","273.9","1015.806","26.53","79.04","0.0","0.0"],
    [1528788,"2026-07-15 04:00:00","75285","2.094","268.7","2.842","274.7","1015.811","26.49","79.25","0.0","0.0"],
    [1528789,"2026-07-15 04:10:00","75286","1.768","265.1","2.875","268.9","1015.829","26.39","80.2","0.0","0.0"],
    [1528790,"2026-07-15 04:20:00","75287","1.8840000000000001","268.2","2.9730000000000003","267.4","1015.773","26.32","81.0","0.0","0.0"],
    [1528791,"2026-07-15 04:30:00","75288","2.457","268.6","3.6910000000000003","258.3","1015.92","26.3","81.8","0.231","0.0"],
    [1528792,"2026-07-15 04:40:00","75289","2.102","270.7","2.875","268.0","1015.934","26.23","81.9","2.9419999999999997","0.0"],
    [1528793,"2026-07-15 04:50:00","75290","1.96","266.3","2.907","253.3","1015.967","26.23","82.4","9.26","0.0"],
    [1528794,"2026-07-15 05:00:00","75291","2.2880000000000003","267.9","3.463","269.6","1016.227","26.25","82.4","20.42","0.0"],
    [1528795,"2026-07-15 05:10:00","75292","2.81","266.1","5.031000000000001","275.8","1016.288","26.35","82.6","36.25","0.0"],
    [1528796,"2026-07-15 05:20:00","75293","2.1319999999999997","263.2","3.6260000000000003","273.7","1016.329","26.39","82.7","56.26","0.0"],
    [1528797,"2026-07-15 05:30:00","75294","1.796","254.5","3.201","262.3","1016.325","26.49","82.4","64.57","0.0"],
    [1528798,"2026-07-15 05:40:00","75295","2.967","263.3","5.096","271.9","1016.392","26.62","82.4","72.93","0.0"],
    [1528799,"2026-07-15 05:50:00","75296","2.28","246.7","4.933","273.0","1016.349","26.77","82.6","104.9","0.0"],
    [1528800,"2026-07-15 06:00:00","75297","3.3689999999999998","206.1","6.011","205.5","1016.641","26.84","83.1","129.2","0.0"],
    [1528801,"2026-07-15 06:10:00","75298","3.717","202.4","6.109","193.7","1016.809","26.81","83.6","155.9","0.0"],
    [1528802,"2026-07-15 06:20:00","75299","3.716","200.1","5.619","189.6","1016.694","26.95","84.2","181.6","0.0"],
    [1528803,"2026-07-15 06:30:00","75300","3.9189999999999996","198.7","6.207000000000001","203.3","1016.652","26.96","85.1","210.3","0.0"],
    [1528804,"2026-07-15 06:40:00","75301","2.3040000000000003","215.1","4.4430000000000005","199.8","1016.683","27.23","84.8","224.3","0.0"],
    [1528805,"2026-07-15 06:50:00","75302","3.2060000000000004","217.8","5.978","223.8","1016.507","27.39","83.5","253.4","0.0"],
    [1528806,"2026-07-15 07:00:00","75303","3.1489999999999996","214.1","5.325","199.1","1016.508","27.5","82.3","289.2","0.0"],
    [1528807,"2026-07-15 07:10:00","75304","2.727","244.9","4.965","254.2","1016.572","27.56","81.0","260.5","0.0"],
    [1528808,"2026-07-15 07:20:00","75305","2.113","238.7","3.822","223.9","1016.38","27.8","79.4","306.5","0.0"],
    [1528809,"2026-07-15 07:30:00","75306","2.555","254.2","4.1160000000000005","275.7","1016.224","27.99","76.57","372.4","0.0"],
    [1528810,"2026-07-15 07:40:00","75307","1.61","254.7","2.875","275.7","1016.044","28.29","74.73","410.7","0.0"],
    [1528811,"2026-07-15 07:50:00","75308","0.6920000000000001","230.4","2.352","258.5","1015.985","28.62","73.03","453.1","0.0"],
    [1528812,"2026-07-15 08:00:00","75309","1.4980000000000002","162.0","4.638999999999999","174.0","1015.951","28.93","73.25","493.6","0.0"],
    [1528813,"2026-07-15 08:10:00","75310","3.605","181.3","5.521","173.8","1015.948","27.33","84.1","545.9","0.0"],
    [1528814,"2026-07-15 08:20:00","75311","4.66","179.4","5.847","177.0","1015.909","27.11","85.1","589.6","0.0"],
    [1528815,"2026-07-15 08:30:00","75312","6.437","189.4","9.57","195.4","1016.069","27.23","83.5","565.4","0.0"],
    [1528816,"2026-07-15 08:40:00","75313","7.442","197.3","9.83","196.5","1016.326","28.0","77.48","623.2","0.0"],
    [1528817,"2026-07-15 08:50:00","75314","5.155","202.1","8.49","205.8","1016.294","28.39","75.66","644.6","0.0"],
    [1528818,"2026-07-15 09:00:00","75315","4.35","197.7","6.664","202.6","1016.017","28.73","73.46","676.0","0.0"],
    [1528819,"2026-07-15 09:10:00","75316","4.152","186.5","6.435","185.6","1015.751","28.74","74.71","700.2","0.0"],
    [1528820,"2026-07-15 09:20:00","75317","4.372","178.8","7.252000000000001","170.8","1015.567","28.11","79.42","730.0","0.0"],
    [1528821,"2026-07-15 09:30:00","75318","6.307","176.0","7.709","175.9","1015.465","27.52","82.8","744.7","0.0"],
    [1528822,"2026-07-15 09:40:00","75319","4.58","184.0","6.239","175.4","1015.17","27.56","81.9","770.8","0.0"],
    [1528823,"2026-07-15 09:50:00","75320","5.886","176.2","6.925","174.5","1015.172","27.42","84.1","812.0","0.0"],
    [1528824,"2026-07-15 10:00:00","75321","5.6339999999999995","181.8","7.415","195.4","1015.157","27.9","80.8","817.0","0.0"],
    [1528825,"2026-07-15 10:10:00","75322","4.599","170.7","6.141","170.1","1014.75","27.68","82.6","755.4","0.0"],
    [1528826,"2026-07-15 10:20:00","75323","5.13","171.7","6.337000000000001","168.9","1014.773","27.34","85.0","838.0","0.0"],
    [1528827,"2026-07-15 10:30:00","75324","5.603","181.0","7.252000000000001","192.6","1014.863","27.39","84.8","856.0","0.0"],
    [1528828,"2026-07-15 10:40:00","75325","4.598","182.4","6.697","176.5","1014.917","27.92","82.0","608.1","0.0"],
    [1528829,"2026-07-15 10:50:00","75326","6.62","183.4","10.0","192.5","1015.174","28.02","81.4","158.3","0.0"],
    [1528830,"2026-07-15 11:00:00","75327","6.297000000000001","189.7","14.96","195.1","1015.181","28.66","77.17","262.6","0.0"],
    [1528831,"2026-07-15 11:10:00","75328","8.5","192.2","13.95","199.6","1015.38","28.07","80.9","447.5","0.0"],
    [1528832,"2026-07-15 11:20:00","75329","6.994","205.4","10.58","211.9","1015.62","27.99","82.5","413.2","0.0"],
    [1528833,"2026-07-15 11:30:00","75330","7.733","202.1","11.63","194.1","1015.993","28.54","80.7","719.7","0.0"],
    [1528834,"2026-07-15 11:40:00","75331","8.46","202.5","14.31","198.7","1015.674","28.45","80.5","423.6","0.0"],
    [1528835,"2026-07-15 11:50:00","75332","6.721","217.0","11.5","224.9","1016.36","28.58","80.2","412.7","0.0"],
    [1528836,"2026-07-15 12:00:00","75333","7.492000000000001","219.8","14.63","220.5","1016.775","29.01","78.57","559.2","0.0"],
    [1528837,"2026-07-15 12:10:00","75334","5.031000000000001","219.9","11.4","216.8","1016.66","29.41","77.27","744.6","0.0"],
    [1528838,"2026-07-15 12:20:00","75335","5.782","221.5","11.01","219.7","1016.655","29.34","76.42","708.1","0.0"],
    [1528839,"2026-07-15 12:30:00","75336","6.605","214.0","10.68","209.4","1016.207","29.32","76.23","687.3","0.0"],
    [1528840,"2026-07-15 12:40:00","75337","4.626","229.6","7.742000000000001","269.1","1016.098","29.63","74.35","717.1","0.0"],
    [1528841,"2026-07-15 12:50:00","75338","5.632000000000001","216.7","9.64","224.8","1015.694","29.46","75.09","327.2","0.0"],
    [1528842,"2026-07-15 13:00:00","75339","4.611000000000001","209.9","7.317","188.1","1015.714","29.37","74.87","393.1","0.0"],
    [1528843,"2026-07-15 13:10:00","75340","5.91","215.9","11.11","210.7","1015.803","28.95","74.77","321.7","0.0"],
    [1528844,"2026-07-15 13:20:00","75341","6.66","220.5","12.18","221.5","1016.107","29.14","75.32","531.9","0.0"],
    [1528845,"2026-07-15 13:30:00","75342","6.558","218.1","11.14","226.2","1015.843","29.29","73.27","748.4","0.0"],
    [1528846,"2026-07-15 13:40:00","75343","4.709","213.9","9.21","198.1","1015.555","29.83","70.84","880.0","0.0"],
    [1528847,"2026-07-15 13:50:00","75344","4.175","220.8","7.023","224.2","1015.261","30.99","64.55","826.0","0.0"],
    [1528848,"2026-07-15 14:00:00","75345","4.015","203.4","7.4479999999999995","200.2","1015.303","31.67","61.14","648.5","0.0"],
    [1528849,"2026-07-15 14:10:00","75346","4.933","196.0","10.88","194.5","1015.363","31.54","62.51","567.2","0.0"],
    [1528850,"2026-07-15 14:20:00","75347","5.8229999999999995","199.0","10.16","195.1","1015.101","30.06","68.78","440.1","0.0"],
    [1528851,"2026-07-15 14:30:00","75348","6.524","200.1","10.36","187.3","1015.024","29.78","67.5","413.3","0.0"],
    [1528852,"2026-07-15 14:40:00","75349","5.8","204.4","10.06","199.8","1015.034","29.38","72.25","228.4","0.0"],
    [1528853,"2026-07-15 14:50:00","75350","5.401","207.0","9.02","204.8","1014.994","28.98","77.2","280.1","0.0"],
    [1528854,"2026-07-15 15:00:00","75351","3.8080000000000003","225.7","7.775","200.5","1014.943","28.89","77.53","203.4","0.0"],
    [1528855,"2026-07-15 15:10:00","75352","4.227","200.8","7.382999999999999","191.0","1014.657","29.11","76.87","162.7","0.0"],
    [1528856,"2026-07-15 15:20:00","75353","4.9110000000000005","192.7","6.37","210.3","1014.619","28.28","83.0","242.8","0.0"],
    [1528857,"2026-07-15 15:30:00","75354","4.6080000000000005","189.5","6.435","191.0","1014.381","28.12","85.0","241.3","0.0"],
    [1528858,"2026-07-15 15:40:00","75355","4.136","207.6","8.3","196.6","1014.564","28.26","84.4","270.3","0.0"],
    [1528859,"2026-07-15 15:50:00","75356","5.6610000000000005","209.0","9.21","200.8","1014.857","28.81","81.0","317.7","0.0"],
    [1528860,"2026-07-15 16:00:00","75357","5.961","218.4","10.78","225.3","1015.487","29.15","81.6","390.4","0.0"],
    [1528861,"2026-07-15 16:10:00","75358","6.037999999999999","207.4","11.14","195.8","1015.322","29.17","80.5","306.6","0.0"],
    [1528862,"2026-07-15 16:20:00","75359","5.553999999999999","213.9","9.15","204.3","1015.189","29.11","78.48","220.3","0.0"],
    [1528863,"2026-07-15 16:30:00","75360","4.81","208.8","9.34","204.2","1014.974","29.24","77.48","284.9","0.0"],
    [1528864,"2026-07-15 16:40:00","75361","4.435","211.3","9.38","205.3","1015.051","29.35","76.9","126.9","0.0"],
    [1528865,"2026-07-15 16:50:00","75362","4.637","209.5","8.46","202.4","1014.978","29.33","75.69","204.8","0.0"],
    [1528866,"2026-07-15 17:00:00","75363","6.341","210.4","10.39","208.6","1015.189","29.51","72.56","166.3","0.0"],
    [1528867,"2026-07-15 17:10:00","75364","5.591","209.8","10.42","203.7","1015.227","29.56","72.29","192.7","0.0"],
    [1528868,"2026-07-15 17:20:00","75365","6.068","209.1","11.01","210.8","1015.267","29.4","74.01","140.7","0.0"],
    [1528869,"2026-07-15 17:30:00","75366","5.4239999999999995","221.0","8.69","227.1","1015.278","29.43","75.31","119.7","0.0"],
    [1528870,"2026-07-15 17:40:00","75367","5.763999999999999","214.4","9.24","211.6","1015.167","29.4","74.93","120.8","0.0"],
    [1528871,"2026-07-15 17:50:00","75368","4.698","218.8","7.905","212.5","1015.089","29.37","76.57","111.7","0.0"],
    [1528872,"2026-07-15 18:00:00","75369","4.37","214.2","7.905","212.5","1015.223","29.51","75.72","72.61","0.0"],
    [1528873,"2026-07-15 18:10:00","75370","5.635","218.2","8.92","225.7","1015.273","29.17","77.48","67.63","0.0"],
    [1528874,"2026-07-15 18:20:00","75371","4.103","225.6","7.905","203.6","1015.292","29.19","78.99","71.09","0.0"],
    [1528875,"2026-07-15 18:30:00","75372","4.081","213.5","6.5329999999999995","217.8","1015.13","29.08","77.99","51.42","0.0"],
    [1528876,"2026-07-15 18:40:00","75373","4.689","217.4","8.2","233.5","1015.076","28.96","79.54","31.44","0.0"],
    [1528877,"2026-07-15 18:50:00","75374","3.159","258.1","5.39","212.2","1015.156","28.84","79.69","34.68","0.0"],
    [1528878,"2026-07-15 19:00:00","75375","2.91","254.5","4.573","262.8","1015.267","28.75","79.51","33.85","0.0"],
    [1528879,"2026-07-15 19:10:00","75376","2.628","268.3","5.1610000000000005","278.7","1015.46","28.82","79.21","25.62","0.0"],
    [1528880,"2026-07-15 19:20:00","75377","2.733","270.2","5.4879999999999995","263.9","1015.345","28.78","79.64","10.89","0.0"],
    [1528881,"2026-07-15 19:30:00","75378","2.7769999999999997","263.0","4.377","270.9","1015.227","28.78","79.26","1.324","0.0"],
    [1528882,"2026-07-15 19:40:00","75379","2.488","263.4","4.345","258.1","1015.276","28.95","77.74","0.0","0.0"],
    [1528883,"2026-07-15 19:50:00","75380","1.579","253.7","2.385","249.2","1015.132","28.89","78.4","0.0","0.0"],
    [1528884,"2026-07-15 20:00:00","75381","2.045","244.0","3.267","232.2","1015.357","28.89","77.32","0.0","0.0"],
    [1528885,"2026-07-15 20:10:00","75382","3.074","218.8","6.37","201.6","1015.583","28.95","77.13","0.0","0.0"],
    [1528886,"2026-07-15 20:20:00","75383","2.71","202.5","5.4879999999999995","193.8","1015.516","28.49","81.9","0.0","0.0"],
    [1528887,"2026-07-15 20:30:00","75384","2.6180000000000003","249.5","5.978","262.1","1015.494","28.25","84.4","0.0","0.0"],
    [1528888,"2026-07-15 20:40:00","75385","2.923","252.3","4.41","225.0","1015.744","28.22","82.9","0.0","0.0"],
    [1528889,"2026-07-15 20:50:00","75386","2.9789999999999996","266.0","5.031000000000001","260.7","1016.1","28.42","81.9","0.0","0.0"],
    [1528890,"2026-07-15 21:00:00","75387","2.755","281.8","4.671","290.6","1015.992","28.32","81.5","0.0","0.0"],
    [1528891,"2026-07-15 21:10:00","75388","1.945","267.2","3.43","261.0","1015.777","28.33","80.8","0.0","0.0"],
    [1528892,"2026-07-15 21:20:00","75389","2.193","255.5","4.051","250.5","1015.911","28.41","79.03","0.0","0.0"],
    [1528893,"2026-07-15 21:30:00","75390","1.764","242.1","3.985","257.9","1015.858","28.83","75.2","0.0","0.0"],
    [1528894,"2026-07-15 21:40:00","75391","1.19","269.4","2.319","254.5","1016.003","28.7","75.5","0.0","0.0"],
    [1528895,"2026-07-15 21:50:00","75392","1.7380000000000002","276.8","2.385","274.6","1016.216","28.65","74.47","0.0","0.0"],
    [1528896,"2026-07-15 22:00:00","75393","1.994","201.5","3.234","209.8","1016.336","28.68","72.03","0.0","0.0"],
    [1528897,"2026-07-15 22:10:00","75394","1.805","259.1","4.2139999999999995","270.8","1016.237","28.71","69.67","0.0","0.0"],
    [1528898,"2026-07-15 22:20:00","75395","1.632","250.6","3.822","238.7","1016.24","28.88","68.16","0.0","0.0"],
    [1528899,"2026-07-15 22:30:00","75396","1.85","314.9","2.7110000000000003","325.9","1015.825","28.66","70.64","0.0","0.0"],
    [1528900,"2026-07-15 22:40:00","75397","1.27","19.12","1.96","8.74","1015.639","28.49","73.53","0.0","0.0"],
    [1528901,"2026-07-15 22:50:00","75398","1.6440000000000001","136.9","2.417","149.1","1015.71","28.48","73.7","0.0","0.0"],
    [1528902,"2026-07-15 23:00:00","75399","3.7060000000000004","184.5","7.056","190.3","1016.026","27.9","78.98","0.0","0.0"],
    [1528903,"2026-07-15 23:10:00","75400","0.539","189.7","2.123","190.5","1015.76","27.62","77.78","0.0","0.0"],
    [1528904,"2026-07-15 23:20:00","75401","0.742","25.49","1.339","22.89","1015.401","27.87","76.39","0.0","0.0"],
    [1528905,"2026-07-15 23:30:00","75402","0.511","111.9","1.078","121.1","1015.617","27.95","76.17","0.0","0.0"],
    [1528906,"2026-07-15 23:40:00","75403","1.324","62.15","2.287","24.57","1015.764","27.78","80.1","0.0","0.0"],
    [1528907,"2026-07-15 23:50:00","75404","2.1919999999999997","24.51","2.907","8.56","1015.538","27.65","79.87","0.0","0.0"],
    [1528908,"2026-07-16 00:00:00","75405","2.888","20.3","4.1160000000000005","21.2","1015.443","27.62","79.19","0.0","0.0"],
    [1528909,"2026-07-16 00:10:00","75406","3.266","21.19","3.92","21.56","1015.576","28.11","76.09","0.0","0.0"],
    [1528910,"2026-07-16 00:20:00","75407","2.4219999999999997","15.19","4.606","16.98","1015.663","28.51","74.51","0.0","0.0"],
    [1528911,"2026-07-16 00:30:00","75408","2.588","30.0","4.018","30.45","1015.855","28.65","74.47","0.0","0.0"],
    [1528912,"2026-07-16 00:40:00","75409","3.2560000000000002","40.18","3.92","48.48","1015.92","28.18","78.36","0.0","0.0"],
    [1528913,"2026-07-16 00:50:00","75410","2.898","45.91","3.6260000000000003","40.48","1016.002","27.41","83.9","0.0","0.0"],
    [1528914,"2026-07-16 01:00:00","75411","3.265","33.88","3.9530000000000003","37.52","1016.041","27.09","86.0","0.0","0.0"],
    [1528915,"2026-07-16 01:10:00","75412","2.67","34.14","3.267","27.56","1016.075","27.12","86.2","0.0","0.0"],
    [1528916,"2026-07-16 01:20:00","75413","2.628","36.94","3.299","33.05","1016.172","27.4","83.7","0.0","0.0"],
    [1528917,"2026-07-16 01:30:00","75414","2.842","51.13","4.41","62.51","1016.125","27.55","82.2","0.0","0.0"],
    [1528918,"2026-07-16 01:40:00","75415","3.085","67.26","4.41","85.7","1016.14","27.37","84.2","0.0","0.0"],
    [1528919,"2026-07-16 01:50:00","75416","2.8510000000000004","67.37","3.92","68.16","1016.237","27.06","86.4","0.0","0.0"],
    [1528920,"2026-07-16 02:00:00","75417","2.329","63.82","4.051","13.63","1016.269","27.13","86.4","0.0","0.0"],
    [1528921,"2026-07-16 02:10:00","75418","1.5219999999999998","58.11","3.0380000000000003","89.2","1016.378","27.04","87.4","0.0","0.0"],
    [1528922,"2026-07-16 02:20:00","75419","1.932","42.07","2.907","39.77","1016.421","26.91","88.5","0.0","0.0"],
    [1528923,"2026-07-16 02:30:00","75420","1.801","40.8","2.7769999999999997","44.74","1016.385","26.87","89.4","0.0","0.0"],
    [1528924,"2026-07-16 02:40:00","75421","1.78","32.53","2.548","27.44","1016.348","26.8","90.0","0.0","0.0"],
    [1528925,"2026-07-16 02:50:00","75422","1.7080000000000002","40.33","2.875","58.24","1016.375","26.73","90.5","0.0","0.0"],
    [1528926,"2026-07-16 03:00:00","75423","1.072","34.49","2.613","48.58","1016.722","26.72","90.7","0.0","0.0"],
    [1528927,"2026-07-16 03:10:00","75424","2.222","315.7","3.822","18.81","1017.24","26.73","90.6","0.0","0.0"],
    [1528928,"2026-07-16 03:20:00","75425","6.296","71.29","8.59","85.1","1015.228","26.75","89.8","0.0","0.0"],
    [1528929,"2026-07-16 03:30:00","75426","4.684","81.2","8.0","81.6","1015.274","26.51","91.0","0.0","0.0"],
    [1528930,"2026-07-16 03:40:00","75427","1.7690000000000001","69.19","5.129","80.9","1016.196","26.51","91.3","0.0","0.0"],
    [1528931,"2026-07-16 03:50:00","75428","1.101","56.76","2.123","114.7","1016.722","26.53","91.1","0.0","0.0"],
    [1528932,"2026-07-16 04:00:00","75429","2.282","15.59","4.051","18.45","1016.874","26.55","90.5","0.0","0.0"],
    [1528933,"2026-07-16 04:10:00","75430","5.577000000000001","29.76","7.121","34.56","1016.107","26.59","89.7","0.0","0.0"],
    [1528934,"2026-07-16 04:20:00","75431","5.156000000000001","31.42","6.305","30.16","1016.328","26.6","89.4","0.0","0.0"],
    [1528935,"2026-07-16 04:30:00","75432","4.802","42.38","6.599","44.42","1016.353","26.42","89.8","0.24100000000000002","0.0"],
    [1528936,"2026-07-16 04:40:00","75433","4.466","43.69","5.521","43.35","1016.593","26.38","89.6","2.67","0.0"],
    [1528937,"2026-07-16 04:50:00","75434","3.8960000000000004","38.86","5.1610000000000005","32.44","1016.789","26.38","89.4","7.888999999999999","0.0"],
    [1528938,"2026-07-16 05:00:00","75435","3.11","46.14","4.1160000000000005","44.01","1016.969","26.38","89.5","17.53","0.0"],
    [1528939,"2026-07-16 05:10:00","75436","2.859","42.77","3.7569999999999997","49.24","1017.129","26.28","89.8","32.52","0.0"],
    [1528940,"2026-07-16 05:20:00","75437","3.8819999999999997","30.28","4.802","26.42","1017.016","26.25","90.3","48.2","0.0"],
    [1528941,"2026-07-16 05:30:00","75438","4.418","42.86","6.795","41.33","1016.88","26.31","90.0","56.68","0.0"],
    [1528942,"2026-07-16 05:40:00","75439","5.553","41.67","7.317","42.2","1016.557","26.18","90.5","72.18","0.0"],
    [1528943,"2026-07-16 05:50:00","75440","5.249","37.44","6.795","36.35","1016.338","26.13","91.0","92.4","0.0"],
    [1528944,"2026-07-16 06:00:00","75441","5.907","38.81","7.971","38.12","1015.997","26.1","91.3","122.6","0.0"],
    [1528945,"2026-07-16 06:10:00","75442","6.523","38.26","8.04","47.67","1015.862","26.15","91.1","137.0","0.0"],
    [1528946,"2026-07-16 06:20:00","75443","6.416","41.86","8.72","44.12","1015.975","26.2","90.4","174.0","0.0"],
    [1528947,"2026-07-16 06:30:00","75444","6.233","41.53","8.13","43.39","1015.936","26.27","88.7","196.2","0.0"],
    [1528948,"2026-07-16 06:40:00","75445","5.805","48.14","7.611000000000001","53.07","1015.904","26.32","88.2","216.4","0.0"],
    [1528949,"2026-07-16 06:50:00","75446","6.0329999999999995","50.52","7.546","53.62","1015.927","26.35","88.3","238.8","9.2"],
    [1528950,"2026-07-16 07:00:00","75447","4.96","47.65","6.403","37.97","1016.269","23.48","80.8","285.1","0.0"],
    [1528951,"2026-07-16 07:10:00","75448","4.021","37.66","6.239","38.12","1016.447","28.55","76.34","344.8","0.0"],
    [1528952,"2026-07-16 07:20:00","75449","4.13","37.21","5.553","43.96","1016.654","27.61","82.3","374.7","0.0"],
    [1528953,"2026-07-16 07:30:00","75450","4.372","27.68","5.455","29.38","1016.669","26.81","87.4","464.0","0.0"],
    [1528954,"2026-07-16 07:40:00","75451","4.651","28.11","5.553","26.48","1016.766","26.57","87.4","493.1","0.0"],
    [1528955,"2026-07-16 07:50:00","0","3.4589999999999996","24.72","4.312","22.43","968.8836","26.9","86.9","454.3","2.3"],
    [1528956,"2026-07-16 08:00:00","1","3.4","36.47","4.475","43.47","1017.107","26.98","86.5","540.2","7.8"],
    [1528957,"2026-07-16 08:10:00","2","3.127","32.25","4.051","28.22","1017.137","27.03","86.1","525.8","0.3"],
    [1528958,"2026-07-16 08:20:00","3","3.3689999999999998","49.17","4.998","48.01","1016.99","26.99","86.2","539.8","0.0"],
    [1528959,"2026-07-16 08:30:00","4","3.636","47.77","7.611000000000001","55.05","1016.659","27.06","83.9","478.0","0.0"],
    [1528960,"2026-07-16 08:40:00","5","3.1430000000000002","56.97","6.468","27.35","1016.782","27.27","81.0","584.7","0.0"],
    [1528961,"2026-07-16 08:50:00","6","5.645","46.96","7.579","50.28","1016.433","27.12","81.8","611.2","0.0"],
    [1528962,"2026-07-16 09:00:00","7","5.5120000000000005","47.86","7.4479999999999995","48.77","1016.224","26.86","84.7","578.9","0.0"],
    [1528963,"2026-07-16 09:10:00","8","5.145","48.23","6.5329999999999995","50.33","1016.39","26.79","85.7","525.4","0.0"],
    [1528964,"2026-07-16 09:20:00","9","5.974","49.28","7.415","59.64","1016.322","26.77","85.9","644.9","0.0"],
    [1528965,"2026-07-16 09:30:00","10","5.917000000000001","49.0","7.481","51.76","1016.334","26.79","85.9","616.8","0.0"],
    [1528966,"2026-07-16 09:40:00","11","5.684","52.54","7.317","59.58","1016.265","26.87","86.2","598.6","0.0"],
    [1528967,"2026-07-16 09:50:00","12","5.744","50.78","7.121","49.43","1016.395","26.93","85.6","564.6","0.0"],
    [1528968,"2026-07-16 10:00:00","13","5.555","46.29","6.827000000000001","38.82","1016.518","26.96","85.6","644.2","0.0"],
    [1528969,"2026-07-16 10:10:00","14","4.563","42.99","7.4479999999999995","46.84","1016.586","27.04","85.7","491.7","0.0"],
    [1528970,"2026-07-16 10:20:00","15","3.216","46.95","6.337000000000001","48.38","1016.571","27.14","85.4","554.2","0.0"],
    [1528971,"2026-07-16 10:30:00","16","3.056","41.93","6.141","33.25","1016.798","27.36","84.2","831.0","0.0"],
    [1528972,"2026-07-16 10:40:00","17","4.33","45.02","5.4879999999999995","37.06","1016.561","27.26","85.2","608.3","0.0"],
    [1528973,"2026-07-16 10:50:00","18","3.7739999999999996","44.53","6.239","47.43","1016.656","27.3","84.6","714.3","0.0"],
    [1528974,"2026-07-16 11:00:00","19","4.444","48.91","7.121","49.83","1016.562","27.26","84.4","709.5","0.0"],
    [1528975,"2026-07-16 11:10:00","20","3.67","49.1","6.337000000000001","55.59","1016.296","27.36","84.0","778.5","0.0"],
    [1528976,"2026-07-16 11:20:00","21","3.485","40.7","6.435","41.74","1016.378","27.48","83.5","714.8","0.0"],
    [1528977,"2026-07-16 11:30:00","22","3.8989999999999996","41.47","5.847","39.85","1016.258","27.49","83.3","628.5","0.0"],
    [1528978,"2026-07-16 11:40:00","23","3.0839999999999996","41.34","6.141","61.29","1016.325","27.46","83.4","537.2","0.0"],
    [1528979,"2026-07-16 11:50:00","24","3.217","73.36","6.5329999999999995","100.6","1016.528","27.52","83.4","742.3","0.0"],
    [1528980,"2026-07-16 12:00:00","25","2.7539999999999996","38.32","5.357","25.21","1016.6","27.65","82.7","913.0","0.0"],
    [1528981,"2026-07-16 12:10:00","26","2.895","48.01","6.272","23.36","1016.599","27.8","81.6","890.0","0.0"],
    [1528982,"2026-07-16 12:20:00","27","3.12","48.72","5.357","48.24","1016.809","27.7","82.0","853.0","0.0"],
    [1528983,"2026-07-16 12:30:00","28","2.705","39.79","5.194","15.29","1016.66","27.79","82.1","917.0","0.0"],
    [1528984,"2026-07-16 12:40:00","29","4.125","96.6","5.912999999999999","87.3","1016.735","27.49","83.5","537.1","0.0"],
    [1528985,"2026-07-16 12:50:00","30","4.59","92.6","6.664","96.5","1016.426","27.1","85.6","619.0","0.0"],
    [1528986,"2026-07-16 13:00:00","31","5.367999999999999","98.7","8.07","87.0","1016.272","26.95","86.5","417.8","0.0"],
    [1528987,"2026-07-16 13:10:00","32","5.397","97.3","8.62","90.0","1016.038","26.86","86.4","579.8","0.0"],
    [1528988,"2026-07-16 13:20:00","33","3.605","87.7","5.782","89.3","1016.47","26.96","86.1","493.9","0.0"],
    [1528989,"2026-07-16 13:30:00","34","2.342","66.31","5.031000000000001","47.87","1016.807","27.07","85.1","366.6","0.0"],
    [1528990,"2026-07-16 13:40:00","35","2.7110000000000003","60.9","5.325","35.44","1016.885","27.13","84.6","265.6","0.0"],
    [1528991,"2026-07-16 13:50:00","36","3.193","45.75","5.749","45.22","1016.818","27.02","85.5","368.4","0.0"],
    [1528992,"2026-07-16 14:00:00","37","2.3680000000000003","96.5","3.6260000000000003","110.4","1017.46","26.96","85.5","252.5","0.0"],
    [1528993,"2026-07-16 14:10:00","38","3.49","98.8","5.325","107.1","1016.876","26.85","86.0","229.4","0.0"],
    [1528994,"2026-07-16 14:20:00","39","3.1180000000000003","100.7","5.227","109.3","1016.748","26.88","86.1","239.6","0.0"],
    [1528995,"2026-07-16 14:30:00","40","3.815","76.55","8.04","79.68","1015.761","26.84","86.0","627.6","0.0"],
    [1528996,"2026-07-16 14:40:00","41","3.324","39.69","5.455","45.86","1016.061","26.91","85.7","403.6","0.0"],
    [1528997,"2026-07-16 14:50:00","42","4.845","29.01","5.88","30.94","1015.738","26.67","87.0","184.4","0.0"],
    [1528998,"2026-07-16 15:00:00","43","6.796","31.31","8.69","30.05","1014.943","26.59","87.6","432.5","0.0"],
    [1528999,"2026-07-16 15:10:00","44","6.1370000000000005","17.85","8.07","22.32","1015.469","26.52","87.8","115.1","0.0"],
    [1529000,"2026-07-16 15:20:00","45","6.465","37.64","11.5","56.88","1015.289","26.54","87.4","117.4","0.0"],
    [1529001,"2026-07-16 15:30:00","46","8.38","32.1","14.41","52.07","1014.027","26.48","88.0","327.7","0.0"],
    [1529002,"2026-07-16 15:40:00","47","6.687","42.74","10.49","12.82","1014.626","26.61","87.6","607.4","0.0"],
    [1529003,"2026-07-16 15:50:00","48","4.084","57.13","9.83","65.1","1015.141","26.75","86.7","535.3","0.0"],
    [1529004,"2026-07-16 16:00:00","49","3.2510000000000003","116.1","5.619","104.1","1015.937","26.85","86.7","299.9","0.0"],
    [1529005,"2026-07-16 16:10:00","50","2.969","100.1","4.247","127.9","1015.806","26.64","87.3","206.2","0.0"],
    [1529006,"2026-07-16 16:20:00","51","2.7430000000000003","56.35","6.0760000000000005","48.06","1015.217","26.74","86.7","223.5","0.0"],
    [1529007,"2026-07-16 16:30:00","52","5.348","34.87","6.337000000000001","36.65","1014.44","26.61","88.0","243.0","0.0"],
    [1529008,"2026-07-16 16:40:00","53","4.311","46.6","6.337000000000001","42.59","1014.714","26.53","88.5","190.5","0.0"],
    [1529009,"2026-07-16 16:50:00","54","4.166","45.35","7.023","24.14","1014.456","26.58","87.9","241.2","0.0"],
    [1529010,"2026-07-16 17:00:00","55","4.479","13.19","5.912999999999999","22.69","1014.637","26.53","88.5","151.4","0.0"],
    [1529011,"2026-07-16 17:10:00","56","4.31","26.87","6.337000000000001","26.07","1014.269","26.53","87.9","240.6","0.0"],
    [1529012,"2026-07-16 17:20:00","57","4.027","35.54","5.422999999999999","21.78","1014.394","26.62","87.3","179.7","0.0"],
    [1529013,"2026-07-16 17:30:00","58","4.102","44.98","5.129","50.44","1014.218","26.58","87.1","184.6","0.0"],
    [1529014,"2026-07-16 17:40:00","59","3.2039999999999997","51.21","4.475","47.11","1014.335","26.68","87.2","256.6","0.0"],
    [1529015,"2026-07-16 17:50:00","60","4.204","40.05","5.39","35.92","1014.225","26.63","88.0","215.8","0.0"],
    [1529016,"2026-07-16 18:00:00","61","4.5089999999999995","58.28","5.815","72.12","1013.818","26.57","88.3","177.2","0.0"],
    [1529017,"2026-07-16 18:10:00","62","4.555","61.14","6.239","64.47","1013.525","26.54","88.6","122.5","0.0"],
    [1529018,"2026-07-16 18:20:00","63","4.897","66.32","6.501","68.18","1013.436","26.57","88.6","78.06","0.0"],
    [1529019,"2026-07-16 18:30:00","64","4.7330000000000005","72.96","5.651","71.8","1013.651","26.51","88.6","76.37","0.0"],
    [1529020,"2026-07-16 18:40:00","65","3.97","74.61","5.292000000000001","73.08","1013.761","26.51","88.4","69.7","0.0"],
    [1529021,"2026-07-16 18:50:00","66","3.4219999999999997","86.6","5.063","101.3","1013.987","26.58","88.5","50.74","0.0"],
    [1529022,"2026-07-16 19:00:00","67","2.968","65.92","4.41","62.17","1014.039","26.54","88.7","41.9","0.0"],
    [1529023,"2026-07-16 19:10:00","68","2.375","60.48","3.299","83.1","1014.22","26.53","88.8","20.99","0.0"],
    [1529024,"2026-07-16 19:20:00","69","2.094","47.89","3.495","31.46","1014.111","26.5","89.2","8.33","0.0"],
    [1529025,"2026-07-16 19:30:00","70","1.67","64.07","2.319","99.0","1014.184","26.47","89.4","1.986","0.0"],
    [1529026,"2026-07-16 19:40:00","71","2.133","83.2","2.679","59.61","1014.123","26.44","89.7","0.0","0.0"],
    [1529027,"2026-07-16 19:50:00","72","2.5860000000000003","68.02","3.267","67.14","1013.889","26.42","90.1","0.0","0.0"],
    [1529028,"2026-07-16 20:00:00","73","2.4459999999999997","69.63","3.332","78.94","1014.128","26.44","90.1","0.0","0.0"],
    [1529029,"2026-07-16 20:10:00","74","2.279","39.65","3.103","33.52","1014.234","26.46","90.0","0.0","0.0"],
    [1529030,"2026-07-16 20:20:00","75","2.3409999999999997","33.2","3.0380000000000003","24.96","1014.439","26.4","90.2","0.0","0.0"],
    [1529031,"2026-07-16 20:30:00","76","1.865","36.13","2.417","27.97","1014.499","26.36","90.3","0.0","0.0"],
    [1529032,"2026-07-16 20:40:00","77","1.252","61.73","1.829","64.99","1014.663","26.38","90.4","0.0","0.0"],
    [1529033,"2026-07-16 20:50:00","78","1.319","66.94","2.189","57.12","1014.704","26.4","90.4","0.0","0.0"],
    [1529034,"2026-07-16 21:00:00","79","1.351","45.21","1.96","56.14","1014.751","26.38","90.4","0.0","0.0"],
    [1529035,"2026-07-16 21:10:00","80","1.463","35.62","1.829","46.26","1014.716","26.33","90.7","0.0","0.0"],
    [1529036,"2026-07-16 21:20:00","81","1.693","31.06","2.352","26.55","1014.529","26.29","90.9","0.0","0.0"],
    [1529037,"2026-07-16 21:30:00","82","2.7430000000000003","29.24","3.495","30.26","1014.343","26.17","91.7","0.0","0.0"],
    [1529038,"2026-07-16 21:40:00","83","3.2089999999999996","29.74","3.6910000000000003","30.56","1014.181","26.24","91.4","0.0","0.0"],
    [1529039,"2026-07-16 21:50:00","84","3.0269999999999997","26.46","3.822","16.84","1014.258","26.21","91.5","0.0","0.0"],
    [1529040,"2026-07-16 22:00:00","85","2.852","37.18","3.659","33.31","1014.163","26.18","91.6","0.0","0.0"],
    [1529041,"2026-07-16 22:10:00","86","2.6439999999999997","36.87","3.234","28.17","1014.262","26.21","91.2","0.0","0.0"],
    [1529042,"2026-07-16 22:20:00","87","2.338","38.45","3.071","42.77","1014.245","26.23","91.2","0.0","0.0"],
    [1529043,"2026-07-16 22:30:00","88","2.485","34.38","3.071","41.88","1014.11","26.2","91.3","0.0","0.0"],
    [1529044,"2026-07-16 22:40:00","89","2.2430000000000003","39.61","3.136","44.82","1013.946","26.16","91.3","0.0","0.0"],
    [1529045,"2026-07-16 22:50:00","90","1.675","71.32","2.123","55.23","1014.064","26.15","90.6","0.0","0.0"],
    [1529046,"2026-07-16 23:00:00","91","1.642","39.09","2.123","34.04","1013.981","26.19","90.4","0.0","0.0"],
    [1529047,"2026-07-16 23:10:00","92","0.78","52.45","1.535","27.2","1013.939","26.17","90.5","0.0","0.0"],
    [1529048,"2026-07-16 23:20:00","93","0.071","80.7","0.6859999999999999","97.9","1013.845","26.2","90.4","0.0","0.0"],
    [1529049,"2026-07-16 23:30:00","94","0.0","0.0","0.0","0.0","1013.795","26.18","90.5","0.0","0.0"],
    [1529050,"2026-07-16 23:40:00","95","0.33799999999999997","155.0","0.6859999999999999","150.9","1013.711","26.18","90.6","0.0","0.0"],
    [1529051,"2026-07-16 23:50:00","96","0.145","151.7","0.555","143.7","1013.559","26.23","90.7","0.0","0.0"],
    [1529052,"2026-07-17 00:00:00","97","0.0","0.0","0.0","0.0","1013.552","26.16","90.7","0.0","0.0"],
    [1529053,"2026-07-17 00:10:00","98","0.0","0.0","0.0","0.0","1013.511","26.09","90.9","0.0","0.0"],
    [1529054,"2026-07-17 00:20:00","99","0.09699999999999999","155.6","0.915","151.7","1013.447","26.08","91.3","0.0","0.0"],
    [1529055,"2026-07-17 00:30:00","100","0.74","156.9","1.078","154.1","1013.505","26.15","91.6","0.0","0.0"],
    [1529056,"2026-07-17 00:40:00","101","0.5429999999999999","153.6","1.078","140.6","1013.459","26.07","91.4","0.0","0.0"],
    [1529057,"2026-07-17 00:50:00","102","0.762","184.2","1.96","161.6","1013.429","26.15","90.7","0.0","0.0"],
    [1529058,"2026-07-17 01:00:00","103","2.363","172.7","3.103","177.7","1013.443","26.15","91.0","0.0","0.0"],
    [1529059,"2026-07-17 01:10:00","104","1.906","201.0","2.875","178.8","1013.391","26.05","89.1","0.0","0.0"],
    [1529060,"2026-07-17 01:20:00","105","0.8270000000000001","188.2","2.352","197.5","1013.308","26.19","87.0","0.0","0.0"],
    [1529061,"2026-07-17 01:30:00","106","1.4609999999999999","187.1","2.0909999999999997","180.9","1013.268","26.31","85.7","0.0","0.0"],
    [1529062,"2026-07-17 01:40:00","107","1.033","244.8","2.7769999999999997","261.4","1013.303","26.37","83.9","0.0","0.0"],
    [1529063,"2026-07-17 01:50:00","108","1.5030000000000001","243.8","3.1689999999999996","261.9","1013.388","26.54","81.4","0.0","0.0"],
    [1529064,"2026-07-17 02:00:00","109","1.3730000000000002","234.4","2.875","232.5","1013.278","26.48","81.4","0.0","0.0"],
    [1529065,"2026-07-17 02:10:00","110","2.089","260.8","3.9530000000000003","260.5","1013.38","26.29","81.5","0.0","0.0"],
    [1529066,"2026-07-17 02:20:00","111","1.574","267.3","2.7769999999999997","283.4","1013.481","26.19","81.9","0.0","0.0"],
    [1529067,"2026-07-17 02:30:00","112","1.5390000000000001","270.0","2.5810000000000004","282.1","1013.393","26.09","82.4","0.0","0.0"],
    [1529068,"2026-07-17 02:40:00","113","1.126","269.1","2.352","278.3","1013.377","26.04","82.8","0.0","0.0"],
    [1529069,"2026-07-17 02:50:00","114","0.7879999999999999","274.1","1.764","274.7","1013.519","25.97","83.0","0.0","0.0"],
    [1529070,"2026-07-17 03:00:00","115","1.153","260.7","2.0580000000000003","264.6","1013.558","25.9","82.4","0.0","0.0"],
    [1529071,"2026-07-17 03:10:00","116","1.012","304.7","1.699","265.7","1013.729","25.88","82.3","0.0","0.0"],
    [1529072,"2026-07-17 03:20:00","117","0.821","346.6","1.797","12.9","1013.903","25.87","84.2","0.0","0.0"],
    [1529073,"2026-07-17 03:30:00","118","1.455","18.4","1.9269999999999998","8.32","1014.05","25.95","84.7","0.0","0.0"],
    [1529074,"2026-07-17 03:40:00","119","0.991","49.19","1.405","48.5","1014.173","26.05","84.6","0.0","0.0"],
    [1529075,"2026-07-17 03:50:00","120","1.9980000000000002","37.68","3.1689999999999996","42.35","1014.339","26.19","84.5","0.0","0.0"],
    [1529076,"2026-07-17 04:00:00","121","3.012","50.08","3.855","59.68","1014.368","26.28","85.0","0.0","0.0"],
    [1529077,"2026-07-17 04:10:00","122","3.853","54.65","7.252000000000001","78.85","1014.475","26.36","86.6","0.0","0.0"],
    [1529078,"2026-07-17 04:20:00","123","5.003","57.07","7.4479999999999995","67.04","1014.49","26.23","88.5","0.07400000000000001","0.0"],
    [1529079,"2026-07-17 04:30:00","124","5.44","59.8","7.187","56.48","1014.539","26.42","85.7","0.31","0.0"],
    [1529080,"2026-07-17 04:40:00","125","5.4670000000000005","64.37","7.252000000000001","78.35","1014.511","26.38","86.6","2.528","0.0"],
    [1529081,"2026-07-17 04:50:00","126","5.537000000000001","53.31","7.579","57.94","1014.609","26.49","86.0","8.23","0.0"],
    [1529082,"2026-07-17 05:00:00","127","6.372999999999999","53.81","8.56","54.54","1014.679","26.28","87.3","19.23","0.0"],
    [1529083,"2026-07-17 05:10:00","128","6.388999999999999","51.52","9.02","52.43","1014.769","26.18","87.2","30.73","0.0"],
    [1529084,"2026-07-17 05:20:00","129","5.978","44.11","7.6770000000000005","41.39","1014.856","26.16","87.4","44.92","0.0"],
    [1529085,"2026-07-17 05:30:00","130","5.402","39.03","7.481","34.79","1014.956","26.11","87.7","61.01","0.0"],
    [1529086,"2026-07-17 05:40:00","131","5.337000000000001","37.42","6.957999999999999","36.21","1015.019","26.14","87.3","80.3","0.0"],
    [1529087,"2026-07-17 05:50:00","132","5.126","35.69","6.795","38.69","1015.065","26.22","87.0","103.2","0.0"],
    [1529088,"2026-07-17 06:00:00","133","5.063","33.38","6.9910000000000005","38.71","1015.061","26.43","86.3","126.8","0.0"],
    [1529089,"2026-07-17 06:10:00","134","4.976","36.93","6.697","35.16","1015.142","26.52","85.2","154.1","0.0"],
    [1529090,"2026-07-17 06:20:00","135","4.537","35.36","6.697","27.26","1015.178","26.64","84.6","180.4","0.0"],
    [1529091,"2026-07-17 06:30:00","136","4.412","31.07","5.227","25.05","1015.174","26.41","86.3","214.0","0.0"],
    [1529092,"2026-07-17 06:40:00","137","4.192","35.24","5.586","35.06","1015.238","26.53","85.5","246.8","0.0"],
    [1529093,"2026-07-17 06:50:00","138","4.035","30.3","4.965","28.97","1015.346","26.5","85.5","272.3","0.0"],
    [1529094,"2026-07-17 07:00:00","139","3.915","24.87","5.063","21.83","1015.454","26.47","84.8","302.2","0.0"],
    [1529095,"2026-07-17 07:10:00","140","3.8080000000000003","26.62","4.802","27.19","1015.495","26.53","83.5","338.1","0.0"],
    [1529096,"2026-07-17 07:20:00","141","3.3560000000000003","26.8","4.181","19.73","1015.432","26.64","83.1","372.7","0.0"],
    [1529097,"2026-07-17 07:30:00","142","3.147","28.25","4.573","35.05","1015.424","26.78","82.2","406.3","0.0"],
    [1529098,"2026-07-17 07:40:00","143","2.261","33.6","3.365","35.73","1015.478","27.02","81.5","443.9","0.0"],
    [1529099,"2026-07-17 07:50:00","144","2.104","28.18","3.332","35.83","1015.481","27.33","80.4","482.9","0.0"],
    [1529100,"2026-07-17 08:00:00","145","2.339","38.32","3.43","44.69","1015.437","27.37","80.2","517.3","0.0"],
    [1529101,"2026-07-17 08:10:00","146","2.8489999999999998","41.37","4.181","38.04","1015.453","27.09","81.8","547.1","0.0"],
    [1529102,"2026-07-17 08:20:00","147","2.521","42.71","3.659","48.16","1015.465","27.17","81.6","578.8","0.0"],
    [1529103,"2026-07-17 08:30:00","148","1.953","45.39","2.8089999999999997","65.55","1015.441","27.31","81.0","613.2","0.0"],
    [1529104,"2026-07-17 08:40:00","149","1.2990000000000002","58.7","3.005","50.39","1015.486","27.6","80.0","640.4","0.0"],
    [1529105,"2026-07-17 08:50:00","150","1.7890000000000001","99.4","3.103","100.0","1015.485","27.7","79.88","670.9","0.0"],
    [1529106,"2026-07-17 09:00:00","151","2.136","115.8","2.94","105.7","1015.472","27.33","82.0","701.7","0.0"],
    [1529107,"2026-07-17 09:10:00","152","2.281","136.2","2.9730000000000003","132.8","1015.47","27.48","81.9","727.0","0.0"],
    [1529108,"2026-07-17 09:20:00","153","2.839","140.2","3.365","137.7","1015.509","27.45","81.6","748.8","0.0"],
    [1529109,"2026-07-17 09:30:00","154","3.137","150.1","4.083","152.9","1015.642","27.64","81.0","763.5","0.0"],
    [1529110,"2026-07-17 09:40:00","155","3.42","153.6","3.92","158.1","1015.613","27.72","80.9","788.5","0.0"],
    [1529111,"2026-07-17 09:50:00","156","3.748","153.8","4.247","159.9","1015.549","27.72","80.2","810.0","0.0"],
    [1529112,"2026-07-17 10:00:00","157","3.755","153.4","4.312","160.3","1015.468","27.78","78.48","828.0","0.0"],
    [1529113,"2026-07-17 10:10:00","158","3.923","156.2","4.541","153.6","1015.328","27.84","77.99","845.0","0.0"],
    [1529114,"2026-07-17 10:20:00","159","4.08","162.5","4.737","163.5","1015.264","28.04","76.51","858.0","0.0"],
    [1529115,"2026-07-17 10:30:00","160","4.404","167.1","5.292000000000001","163.0","1015.226","28.1","78.31","874.0","0.0"],
    [1529116,"2026-07-17 10:40:00","161","4.615","166.4","5.357","161.8","1015.149","28.0","79.44","888.0","0.0"],
    [1529117,"2026-07-17 10:50:00","162","4.888","170.7","5.292000000000001","170.1","1015.14","28.04","78.7","899.0","0.0"],
    [1529118,"2026-07-17 11:00:00","163","4.876","170.9","5.357","169.4","1015.111","28.2","77.88","910.0","0.0"],
    [1529119,"2026-07-17 11:10:00","164","4.912","173.9","5.782","177.1","1015.063","28.32","77.42","918.0","0.0"],
    [1529120,"2026-07-17 11:20:00","165","5.425","173.2","6.1739999999999995","175.9","1014.963","28.32","77.01","926.0","0.0"],
    [1529121,"2026-07-17 11:30:00","166","5.444","171.6","6.011","171.0","1014.925","28.32","77.59","934.0","0.0"],
    [1529122,"2026-07-17 11:40:00","167","5.266","173.3","6.042999999999999","168.5","1014.825","28.33","77.41","940.0","0.0"],
    [1529123,"2026-07-17 11:50:00","168","5.206","175.2","6.141","176.4","1014.74","28.43","76.83","942.0","0.0"],
    [1529124,"2026-07-17 12:00:00","169","4.852","179.2","6.042999999999999","173.1","1014.669","28.52","75.69","944.0","0.0"],
    [1529125,"2026-07-17 12:10:00","170","4.538","184.1","5.749","172.0","1014.664","28.82","75.35","943.0","0.0"],
    [1529126,"2026-07-17 12:20:00","171","4.736000000000001","187.2","5.815","186.3","1014.624","28.81","75.03","942.0","0.0"],
    [1529127,"2026-07-17 12:30:00","172","4.721","182.3","6.011","173.1","1014.562","28.83","74.85","940.0","0.0"],
    [1529128,"2026-07-17 12:40:00","173","4.545","185.8","5.945","194.6","1014.568","28.97","74.28","936.0","0.0"],
    [1529129,"2026-07-17 12:50:00","174","4.577","187.4","5.912999999999999","191.7","1014.487","28.98","73.77","931.0","0.0"],
    [1529130,"2026-07-17 13:00:00","175","4.666","183.8","6.0760000000000005","174.4","1014.487","29.02","73.01","922.0","0.0"],
    [1529131,"2026-07-17 13:10:00","176","4.404","184.3","5.455","196.0","1014.483","29.01","72.78","914.0","0.0"],
    [1529132,"2026-07-17 13:20:00","177","4.7669999999999995","179.2","6.0760000000000005","174.1","1014.447","28.96","72.17","903.0","0.0"],
    [1529133,"2026-07-17 13:30:00","178","4.533","181.1","5.782","177.5","1014.44","28.93","71.53","892.0","0.0"],
    [1529134,"2026-07-17 13:40:00","179","4.456","179.6","6.011","192.0","1014.466","29.14","70.88","876.0","0.0"],
    [1529135,"2026-07-17 13:50:00","180","5.101","175.8","6.109","173.2","1014.423","28.77","73.18","860.0","0.0"],
    [1529136,"2026-07-17 14:00:00","181","4.768","178.5","5.978","177.8","1014.374","28.78","73.3","838.0","0.0"],
    [1529137,"2026-07-17 14:10:00","182","4.9","183.4","6.272","188.1","1014.319","28.96","72.01","817.0","0.0"],
    [1529138,"2026-07-17 14:20:00","183","4.758","182.3","6.37","180.4","1014.272","28.97","72.2","794.2","0.0"],
    [1529139,"2026-07-17 14:30:00","184","5.242000000000001","187.9","6.37","186.4","1014.228","28.98","71.61","773.5","0.0"],
    [1529140,"2026-07-17 14:40:00","185","5.362","184.7","6.925","191.6","1014.171","28.88","72.89","750.0","0.0"],
    [1529141,"2026-07-17 14:50:00","186","5.287999999999999","185.5","6.468","190.2","1014.114","28.81","73.4","719.7","0.0"],
    [1529142,"2026-07-17 15:00:00","187","5.659","179.9","6.893","177.0","1014.01","28.68","74.28","694.9","0.0"],
    [1529143,"2026-07-17 15:10:00","188","5.5329999999999995","186.2","7.023","188.0","1013.933","28.7","73.72","668.6","0.0"],
    [1529144,"2026-07-17 15:20:00","189","5.593","177.3","7.023","172.5","1013.982","28.67","73.35","637.7","0.0"],
    [1529145,"2026-07-17 15:30:00","190","5.314","174.8","6.566","168.5","1014.038","28.58","74.18","612.2","0.0"],
    [1529146,"2026-07-17 15:40:00","191","5.079","174.2","6.239","181.3","1014.076","28.47","74.65","581.5","0.0"],
    [1529147,"2026-07-17 15:50:00","192","5.327000000000001","172.1","6.272","173.3","1014.045","28.42","75.69","551.1","0.0"],
    [1529148,"2026-07-17 16:00:00","193","4.97","172.0","5.782","172.3","1014.076","28.36","76.16","514.1","0.0"],
    [1529149,"2026-07-17 16:10:00","194","4.848","173.7","6.109","174.0","1014.126","28.39","76.3","482.2","0.0"],
    [1529150,"2026-07-17 16:20:00","195","5.06","175.0","5.978","169.0","1014.013","28.33","76.58","454.6","0.0"],
    [1529151,"2026-07-17 16:30:00","196","5.197","172.5","5.912999999999999","169.3","1013.851","28.26","76.84","425.8","0.0"],
    [1529152,"2026-07-17 16:40:00","197","5.055","175.9","5.978","172.9","1013.67","28.29","77.0","395.4","0.0"],
    [1529153,"2026-07-17 16:50:00","198","4.593","178.3","6.239","176.8","1013.529","28.37","76.61","363.3","0.0"],
    [1529154,"2026-07-17 17:00:00","199","4.683","177.5","5.749","174.1","1013.378","28.29","76.44","329.0","0.0"],
    [1529155,"2026-07-17 17:10:00","200","4.694","177.8","5.815","169.8","1013.341","28.3","76.6","295.8","0.0"],
    [1529156,"2026-07-17 17:20:00","201","4.74","177.5","6.011","177.1","1013.359","28.18","78.14","268.8","0.0"],
    [1529157,"2026-07-17 17:30:00","202","4.736000000000001","178.4","5.586","168.0","1013.347","28.17","77.63","235.5","0.0"],
    [1529158,"2026-07-17 17:40:00","203","4.84","178.8","5.815","183.8","1013.341","28.09","78.31","206.8","0.0"],
    [1529159,"2026-07-17 17:50:00","204","4.9030000000000005","177.5","6.239","175.1","1013.319","28.09","78.28","183.5","0.0"],
    [1529160,"2026-07-17 18:00:00","205","4.467","179.9","5.521","173.2","1013.328","27.98","78.92","155.8","0.0"],
    [1529161,"2026-07-17 18:10:00","206","4.482","179.0","5.455","172.8","1013.326","27.95","79.08","128.1","0.0"],
    [1529162,"2026-07-17 18:20:00","207","4.433","177.9","5.455","172.8","1013.333","27.87","80.0","106.4","0.0"],
    [1529163,"2026-07-17 18:30:00","208","3.773","185.8","4.802","195.5","1013.399","27.91","79.43","66.0","0.0"],
    [1529164,"2026-07-17 18:40:00","209","3.6039999999999996","188.3","4.769","185.0","1013.48","27.89","79.91","32.29","0.0"],
    [1529165,"2026-07-17 18:50:00","210","3.387","189.5","4.573","187.4","1013.5","27.91","79.32","17.4","0.0"],
    [1529166,"2026-07-17 19:00:00","211","3.338","201.6","4.9","185.1","1013.526","28.01","77.94","16.69","0.0"],
    [1529167,"2026-07-17 19:10:00","212","3.326","188.5","4.41","194.1","1013.467","27.88","79.24","15.17","0.0"],
    [1529168,"2026-07-17 19:20:00","213","3.9619999999999997","175.9","4.933","171.8","1013.351","27.66","81.5","8.86","0.0"],
    [1529169,"2026-07-17 19:30:00","214","3.263","176.1","4.279","172.1","1013.493","27.5","82.3","2.824","0.0"],
    [1529170,"2026-07-17 19:40:00","215","2.153","181.4","3.528","170.2","1013.708","27.54","82.1","0.001","0.0"],
    [1529171,"2026-07-17 19:50:00","216","2.525","175.9","3.463","172.5","1013.862","27.53","81.8","0.0","0.0"],
    [1529172,"2026-07-17 20:00:00","217","2.379","166.8","2.7769999999999997","160.2","1014.037","27.48","82.3","0.0","0.0"],
    [1529173,"2026-07-17 20:10:00","218","2.6069999999999998","174.3","3.071","180.5","1014.138","27.45","83.1","0.0","0.0"],
    [1529174,"2026-07-17 20:20:00","219","2.8489999999999998","176.8","3.365","178.7","1014.33","27.41","83.1","0.0","0.0"],
    [1529175,"2026-07-17 20:30:00","220","3.228","178.2","3.887","180.5","1014.631","27.41","82.8","0.0","0.0"],
    [1529176,"2026-07-17 20:40:00","221","3.16","179.2","3.855","190.0","1014.823","27.38","83.4","0.0","0.0"],
    [1529177,"2026-07-17 20:50:00","222","3.011","174.6","3.7569999999999997","173.8","1014.957","27.4","83.3","0.0","0.0"],
    [1529178,"2026-07-17 21:00:00","223","2.62","172.1","3.299","181.1","1014.909","27.38","84.0","0.0","0.0"],
    [1529179,"2026-07-17 21:10:00","224","2.296","174.1","2.9730000000000003","175.7","1014.866","27.35","84.3","0.0","0.0"],
    [1529180,"2026-07-17 21:20:00","225","1.736","162.6","2.287","174.7","1014.89","27.31","83.9","0.0","0.0"],
    [1529181,"2026-07-17 21:30:00","226","1.105","145.9","1.5030000000000001","132.3","1014.88","27.1","83.8","0.0","0.0"],
    [1529182,"2026-07-17 21:40:00","227","1.554","140.8","1.895","145.3","1014.967","27.12","84.3","0.0","0.0"],
    [1529183,"2026-07-17 21:50:00","228","1.39","106.1","1.764","90.1","1014.798","27.03","84.2","0.0","0.0"],
    [1529184,"2026-07-17 22:00:00","229","1.544","96.4","2.0909999999999997","96.3","1014.672","26.99","84.0","0.0","0.0"],
    [1529185,"2026-07-17 22:10:00","230","1.891","80.7","2.548","74.88","1014.557","26.99","83.9","0.0","0.0"],
    [1529186,"2026-07-17 22:20:00","231","2.003","82.5","2.45","77.4","1014.589","27.01","83.8","0.0","0.0"],
    [1529187,"2026-07-17 22:30:00","232","2.153","68.96","2.875","61.38","1014.52","27.03","84.0","0.0","0.0"],
    [1529188,"2026-07-17 22:40:00","233","2.0669999999999997","69.54","2.8089999999999997","71.9","1014.623","27.01","83.8","0.0","0.0"],
    [1529189,"2026-07-17 22:50:00","234","2.603","70.39","3.397","64.5","1014.584","27.0","84.2","0.0","0.0"],
    [1529190,"2026-07-17 23:00:00","235","2.611","65.22","3.201","59.65","1014.332","26.97","84.2","0.0","0.0"],
    [1529191,"2026-07-17 23:10:00","236","2.932","57.03","3.985","43.81","1014.075","26.93","84.2","0.0","0.0"],
    [1529192,"2026-07-17 23:20:00","237","3.083","44.42","3.9530000000000003","41.68","1014.006","26.94","84.1","0.0","0.0"],
    [1529193,"2026-07-17 23:30:00","238","2.7710000000000004","50.78","3.528","49.11","1014.047","26.92","84.0","0.0","0.0"],
    [1529194,"2026-07-17 23:40:00","239","2.7089999999999996","53.34","3.6260000000000003","44.19","1014.048","26.92","85.0","0.0","0.0"],
    [1529195,"2026-07-17 23:50:00","240","2.903","47.34","3.528","47.12","1014.035","26.88","85.5","0.0","0.0"],
    [1529196,"2026-07-18 00:00:00","241","2.678","52.5","3.495","42.3","1014.093","26.85","85.9","0.0","0.0"],
    [1529197,"2026-07-18 00:10:00","242","2.415","82.1","3.201","98.6","1014.305","26.83","85.2","0.0","0.0"],
    [1529198,"2026-07-18 00:20:00","243","2.739","76.0","3.7889999999999997","74.93","1014.312","26.84","84.9","0.0","0.0"],
    [1529199,"2026-07-18 00:30:00","244","2.577","68.67","3.7889999999999997","74.93","1014.254","26.85","85.3","0.0","0.0"],
    [1529200,"2026-07-18 00:40:00","245","2.509","99.3","3.234","93.4","1014.474","26.82","85.5","0.0","0.0"],
    [1529201,"2026-07-18 00:50:00","246","2.295","116.7","3.332","119.4","1014.671","26.8","85.4","0.0","0.0"],
    [1529202,"2026-07-18 01:00:00","247","2.513","116.9","3.6260000000000003","118.8","1014.669","26.81","86.1","0.0","0.0"],
    [1529203,"2026-07-18 01:10:00","248","2.813","119.4","3.855","132.2","1014.702","26.74","86.9","0.0","0.0"],
    [1529204,"2026-07-18 01:20:00","249","2.36","107.3","3.136","100.3","1014.703","26.7","87.0","0.0","0.0"],
    [1529205,"2026-07-18 01:30:00","250","2.573","107.1","3.43","102.9","1014.716","26.69","86.4","0.0","0.0"],
    [1529206,"2026-07-18 01:40:00","251","2.032","102.9","3.071","113.3","1014.772","26.71","87.4","0.0","0.0"],
    [1529207,"2026-07-18 01:50:00","252","2.217","97.5","3.234","101.6","1014.797","26.66","87.0","0.0","0.0"],
    [1529208,"2026-07-18 02:00:00","253","1.83","94.6","2.352","86.4","1014.77","26.66","86.5","0.0","0.0"],
    [1529209,"2026-07-18 02:10:00","254","1.857","92.7","2.7769999999999997","93.2","1014.782","26.64","86.3","0.0","0.0"],
    [1529210,"2026-07-18 02:20:00","255","1.578","88.8","2.156","89.8","1014.862","26.65","85.4","0.0","0.0"],
    [1529211,"2026-07-18 02:30:00","256","1.492","97.3","1.993","63.21","1014.91","26.65","86.1","0.0","0.0"],
    [1529212,"2026-07-18 02:40:00","257","1.285","102.7","1.7309999999999999","101.6","1015.004","26.62","86.5","0.0","0.0"],
    [1529213,"2026-07-18 02:50:00","258","1.327","101.3","1.797","90.0","1014.962","26.56","86.1","0.0","0.0"],
    [1529214,"2026-07-18 03:00:00","259","1.4969999999999999","87.7","2.0580000000000003","87.6","1014.922","26.58","85.8","0.0","0.0"],
    [1529215,"2026-07-18 03:10:00","260","1.827","82.2","2.483","78.96","1014.854","26.6","84.6","0.0","0.0"],
    [1529216,"2026-07-18 03:20:00","261","1.931","71.02","2.5810000000000004","72.26","1014.9","26.63","83.9","0.0","0.0"],
    [1529217,"2026-07-18 03:30:00","262","1.339","56.02","2.613","58.86","1014.908","26.67","83.0","0.0","0.0"],
    [1529218,"2026-07-18 03:40:00","263","1.9140000000000001","66.05","2.679","76.42","1014.79","26.63","83.1","0.0","0.0"],
    [1529219,"2026-07-18 03:50:00","264","1.975","70.22","2.842","66.05","1014.725","26.61","83.1","0.0","0.0"],
    [1529220,"2026-07-18 04:00:00","265","1.995","61.58","2.548","57.26","1014.796","26.57","83.1","0.0","0.0"],
    [1529221,"2026-07-18 04:10:00","266","1.88","45.75","2.5810000000000004","49.11","1014.861","26.57","83.6","0.0","0.0"],
    [1529222,"2026-07-18 04:20:00","267","2.096","22.97","3.267","22.89","1014.939","26.55","84.3","0.0","0.0"],
    [1529223,"2026-07-18 04:30:00","268","3.005","30.2","3.593","31.66","1014.91","26.47","85.1","0.131","0.0"],
    [1529224,"2026-07-18 04:40:00","269","2.846","36.33","3.495","43.71","1014.943","26.43","84.4","2.306","0.0"],
    [1529225,"2026-07-18 04:50:00","270","2.761","35.08","3.6260000000000003","31.42","1014.869","26.42","84.3","8.6","0.0"],
    [1529226,"2026-07-18 05:00:00","271","3.173","31.99","3.7569999999999997","33.02","1014.777","26.38","84.6","19.38","0.0"],
    [1529227,"2026-07-18 05:10:00","272","3.1510000000000002","33.66","3.822","33.48","1014.81","26.35","84.5","32.36","0.0"],
    [1529228,"2026-07-18 05:20:00","273","2.984","33.04","3.7889999999999997","30.81","1014.856","26.36","83.0","45.17","0.0"],
    [1529229,"2026-07-18 05:30:00","274","2.821","26.02","3.5610000000000004","4.706","1014.931","26.44","82.9","63.16","0.0"],
    [1529230,"2026-07-18 05:40:00","275","2.491","29.76","3.463","35.95","1014.931","26.46","81.8","84.1","0.0"],
    [1529231,"2026-07-18 05:50:00","276","2.825","29.89","3.7889999999999997","26.86","1014.801","26.51","81.7","109.5","0.0"],
    [1529232,"2026-07-18 06:00:00","277","2.9189999999999996","25.76","3.5610000000000004","26.5","1014.765","26.5","82.0","134.8","0.0"],
    [1529233,"2026-07-18 06:10:00","278","2.497","25.4","3.071","11.96","1014.729","26.52","82.3","153.8","0.0"],
    [1529234,"2026-07-18 06:20:00","279","2.42","24.41","3.365","22.38","1014.699","26.53","81.5","178.7","0.0"],
    [1529235,"2026-07-18 06:30:00","280","1.831","17.7","3.332","359.1","1014.783","26.71","79.01","207.2","0.0"],
    [1529236,"2026-07-18 06:40:00","281","2.113","32.36","3.234","39.33","1014.764","26.86","78.29","223.5","0.0"],
    [1529237,"2026-07-18 06:50:00","282","2.282","31.1","3.234","35.04","1014.483","26.82","77.87","234.8","0.0"],
    [1529238,"2026-07-18 07:00:00","283","2.6","25.61","3.43","28.74","1014.49","26.92","77.68","279.3","0.0"],
    [1529239,"2026-07-18 07:10:00","284","1.847","9.35","2.6460000000000004","13.69","1014.792","27.11","76.47","315.9","0.0"],
    [1529240,"2026-07-18 07:20:00","285","2.055","36.32","3.005","30.0","1014.666","27.39","73.63","355.8","0.0"],
    [1529241,"2026-07-18 07:30:00","286","0.8590000000000001","347.7","1.829","37.51","1015.057","27.95","69.72","376.5","0.0"],
    [1529242,"2026-07-18 07:40:00","287","0.888","23.3","1.5030000000000001","15.24","1015.148","27.92","69.9","418.6","0.0"],
    [1529243,"2026-07-18 07:50:00","288","1.567","53.22","3.1689999999999996","40.43","1014.866","28.16","67.4","451.6","0.0"],
    [1529244,"2026-07-18 08:00:00","289","3.123","42.71","3.822","45.93","1014.403","27.68","68.8","485.5","0.0"],
    [1529245,"2026-07-18 08:10:00","290","3.22","45.27","4.018","46.59","1014.051","27.6","70.84","502.7","0.0"],
    [1529246,"2026-07-18 08:20:00","291","2.378","36.68","3.463","36.59","1014.426","27.74","69.49","533.7","0.0"],
    [1529247,"2026-07-18 08:30:00","292","1.656","51.18","3.136","52.48","1014.677","28.27","63.98","554.0","0.0"],
    [1529248,"2026-07-18 08:40:00","293","0.73","90.2","1.5030000000000001","29.3","1014.98","28.95","62.62","586.0","0.0"],
    [1529249,"2026-07-18 08:50:00","294","1.8119999999999998","159.3","2.9730000000000003","149.5","1015.068","28.96","66.83","620.6","0.0"],
    [1529250,"2026-07-18 09:00:00","295","2.171","155.6","2.613","153.1","1015.048","28.45","67.6","651.6","0.0"],
    [1529251,"2026-07-18 09:10:00","296","2.127","138.6","2.7110000000000003","139.6","1014.775","28.37","65.3","674.3","0.0"],
    [1529252,"2026-07-18 09:20:00","297","1.724","122.8","2.6460000000000004","123.0","1014.657","28.54","63.25","696.7","0.0"],
    [1529253,"2026-07-18 09:30:00","298","2.145","107.6","3.0380000000000003","112.2","1014.51","28.44","61.96","719.4","0.0"],
    [1529254,"2026-07-18 09:40:00","299","2.1390000000000002","133.8","2.875","144.7","1014.789","28.69","60.74","754.2","0.0"],
    [1529255,"2026-07-18 09:50:00","300","2.412","151.3","2.907","151.0","1014.815","28.69","62.35","770.9","0.0"],
    [1529256,"2026-07-18 10:00:00","301","2.674","158.4","3.299","159.2","1014.93","28.83","63.24","795.8","0.0"],
    [1529257,"2026-07-18 10:10:00","302","2.048","158.2","2.5810000000000004","149.2","1014.823","29.01","63.13","797.8","0.0"],
    [1529258,"2026-07-18 10:20:00","303","2.859","148.4","3.43","151.7","1014.713","28.76","62.33","812.0","0.0"],
    [1529259,"2026-07-18 10:30:00","304","2.499","149.7","3.234","146.9","1014.803","28.85","62.02","826.0","0.0"],
    [1529260,"2026-07-18 10:40:00","305","2.818","145.8","3.659","144.3","1014.699","28.75","61.94","837.0","0.0"],
    [1529261,"2026-07-18 10:50:00","306","3.305","151.6","4.083","141.3","1014.925","28.9","62.59","843.0","0.0"],
    [1529262,"2026-07-18 11:00:00","307","3.642","157.2","4.671","159.0","1015.002","28.88","64.01","851.0","0.0"],
    [1529263,"2026-07-18 11:10:00","308","4.154","162.4","4.704","151.3","1015.011","28.89","65.64","862.0","0.0"],
    [1529264,"2026-07-18 11:20:00","309","3.785","159.3","4.606","162.4","1014.928","28.8","66.19","867.0","0.0"],
    [1529265,"2026-07-18 11:30:00","310","3.502","161.8","4.018","159.4","1014.901","28.97","65.07","872.0","0.0"],
    [1529266,"2026-07-18 11:40:00","311","3.8110000000000004","153.1","4.41","151.6","1014.791","28.89","63.74","878.0","0.0"],
    [1529267,"2026-07-18 11:50:00","312","3.6710000000000003","152.1","4.508","154.8","1014.849","28.95","62.6","883.0","0.0"],
    [1529268,"2026-07-18 12:00:00","313","3.0980000000000003","142.2","3.855","133.8","1014.662","28.79","63.62","885.0","0.0"],
    [1529269,"2026-07-18 12:10:00","314","3.57","140.2","4.541","141.7","1014.498","28.68","63.41","890.0","0.0"],
    [1529270,"2026-07-18 12:20:00","315","3.7910000000000004","140.0","4.606","142.2","1014.358","28.63","64.0","887.0","0.0"],
    [1529271,"2026-07-18 12:30:00","316","3.9960000000000004","141.9","4.9","136.4","1014.24","28.71","64.36","880.0","0.0"],
    [1529272,"2026-07-18 12:40:00","317","3.8810000000000002","142.6","4.802","143.1","1014.143","28.68","63.93","869.0","0.0"],
    [1529273,"2026-07-18 12:50:00","318","3.779","145.1","5.194","140.3","1014.153","28.83","63.75","894.0","0.0"],
    [1529274,"2026-07-18 13:00:00","319","3.889","142.9","4.998","142.7","1014.11","28.66","64.86","871.0","0.0"],
    [1529275,"2026-07-18 13:10:00","320","2.9930000000000003","138.7","4.475","143.6","1014.071","28.74","63.17","854.0","0.0"],
    [1529276,"2026-07-18 13:20:00","321","3.343","148.4","4.671","145.9","1014.064","28.93","65.11","847.0","0.0"],
    [1529277,"2026-07-18 13:30:00","322","3.968","141.0","5.129","136.8","1013.969","28.68","64.15","845.0","0.0"],
    [1529278,"2026-07-18 13:40:00","323","3.824","141.8","4.704","155.4","1013.918","28.74","64.18","812.0","0.0"],
    [1529279,"2026-07-18 13:50:00","324","3.614","146.0","4.475","150.3","1013.903","28.78","64.43","799.7","0.0"],
    [1529280,"2026-07-18 14:00:00","325","3.003","135.2","3.593","134.3","1013.941","28.63","64.24","787.2","0.0"],
    [1529281,"2026-07-18 14:10:00","326","3.6010000000000004","142.9","4.671","131.2","1013.939","28.71","64.75","737.0","0.0"],
    [1529282,"2026-07-18 14:20:00","327","3.2939999999999996","140.6","3.92","139.5","1013.912","28.61","64.76","754.1","0.0"],
    [1529283,"2026-07-18 14:30:00","328","3.542","143.4","4.181","138.8","1013.954","28.64","65.0","696.6","0.0"],
    [1529284,"2026-07-18 14:40:00","329","3.752","154.3","5.1610000000000005","155.6","1014.049","28.8","65.33","729.3","0.0"],
    [1529285,"2026-07-18 14:50:00","330","3.6289999999999996","148.7","4.638999999999999","148.4","1013.98","28.74","64.55","652.3","0.0"],
    [1529286,"2026-07-18 15:00:00","331","3.8960000000000004","154.7","4.704","163.7","1013.817","28.69","66.06","644.3","0.0"],
    [1529287,"2026-07-18 15:10:00","332","3.4139999999999997","153.0","4.867","142.0","1013.668","28.74","64.67","634.8","0.0"],
    [1529288,"2026-07-18 15:20:00","333","2.93","151.9","4.018","173.5","1013.478","28.82","63.5","601.8","0.0"],
    [1529289,"2026-07-18 15:30:00","334","2.792","148.5","3.985","146.6","1013.399","28.71","63.39","556.8","0.0"],
    [1529290,"2026-07-18 15:40:00","335","2.861","139.6","3.7239999999999998","153.9","1013.303","28.57","63.35","549.9","0.0"],
    [1529291,"2026-07-18 15:50:00","336","3.127","141.8","3.7239999999999998","130.1","1013.107","28.47","65.12","521.1","0.0"],
    [1529292,"2026-07-18 16:00:00","337","3.322","158.3","4.508","154.6","1013.064","28.66","64.25","492.8","0.0"],
    [1529293,"2026-07-18 16:10:00","338","3.278","151.2","4.149","157.4","1013.194","28.55","64.64","462.4","0.0"],
    [1529294,"2026-07-18 16:20:00","339","3.446","161.5","4.508","155.1","1013.184","28.58","65.63","411.6","0.0"],
    [1529295,"2026-07-18 16:30:00","340","2.891","160.8","4.149","166.3","1013.151","28.63","64.09","328.1","0.0"],
    [1529296,"2026-07-18 16:40:00","341","2.7289999999999996","148.2","3.365","138.9","1012.997","28.31","65.58","255.1","0.0"],
    [1529297,"2026-07-18 16:50:00","342","2.354","166.1","3.267","156.9","1012.939","28.53","65.69","256.8","0.0"],
    [1529298,"2026-07-18 17:00:00","343","1.8159999999999998","147.4","2.7110000000000003","155.5","1012.78","28.34","64.86","211.1","0.0"],
    [1529299,"2026-07-18 17:10:00","344","2.035","158.4","2.679","162.1","1012.781","28.32","66.61","125.1","0.0"],
    [1529300,"2026-07-18 17:20:00","345","2.785","161.2","3.201","152.5","1012.83","28.31","66.62","122.5","0.0"],
    [1529301,"2026-07-18 17:30:00","346","3.531","164.9","4.181","174.0","1012.754","28.22","67.98","131.2","0.0"],
    [1529302,"2026-07-18 17:40:00","347","3.3930000000000002","179.5","4.769","185.6","1012.982","28.31","68.23","133.4","0.0"],
    [1529303,"2026-07-18 17:50:00","348","3.695","169.4","4.41","168.8","1012.734","28.29","67.63","80.4","0.0"],
    [1529304,"2026-07-18 18:00:00","349","2.696","154.0","3.365","155.2","1012.466","27.98","68.94","61.32","0.0"],
    [1529305,"2026-07-18 18:10:00","350","3.4619999999999997","181.7","4.769","189.5","1012.761","28.19","67.77","56.33","0.0"],
    [1529306,"2026-07-18 18:20:00","351","3.1319999999999997","174.6","4.345","168.9","1012.672","28.19","68.42","36.12","0.0"],
    [1529307,"2026-07-18 18:30:00","352","2.154","148.7","3.136","165.8","1012.356","27.91","69.32","23.31","0.0"],
    [1529308,"2026-07-18 18:40:00","353","2.517","178.4","3.659","163.4","1012.633","28.06","69.96","21.47","0.0"],
    [1529309,"2026-07-18 18:50:00","354","3.298","176.4","4.181","168.5","1012.73","28.06","70.23","14.94","0.0"],
    [1529310,"2026-07-18 19:00:00","355","3.1","149.2","4.247","173.5","1012.474","27.82","71.66","8.09","0.0"],
    [1529311,"2026-07-18 19:10:00","356","2.1430000000000002","144.9","2.5810000000000004","135.0","1012.485","27.7","71.12","3.693","0.0"],
    [1529312,"2026-07-18 19:20:00","357","1.973","126.4","2.515","157.7","1012.367","27.72","71.36","1.092","0.0"],
    [1529313,"2026-07-18 19:30:00","358","2.217","95.9","3.071","87.5","1012.253","27.65","71.19","0.138","0.0"],
    [1529314,"2026-07-18 19:40:00","359","2.075","68.2","2.875","48.71","1012.393","27.7","70.47","0.0","0.0"],
    [1529315,"2026-07-18 19:50:00","360","2.4530000000000003","48.02","3.136","78.59","1012.404","27.76","70.53","0.0","0.0"],
    [1529316,"2026-07-18 20:00:00","361","2.501","37.13","3.495","28.42","1012.628","27.71","70.44","0.0","0.0"],
    [1529317,"2026-07-18 20:10:00","362","2.932","30.27","3.985","29.17","1012.869","27.69","71.16","0.0","0.0"],
    [1529318,"2026-07-18 20:20:00","363","2.891","44.31","3.43","34.96","1012.919","27.65","71.67","0.0","0.0"],
    [1529319,"2026-07-18 20:30:00","364","2.637","54.82","3.7239999999999998","65.19","1013.005","27.64","72.19","0.0","0.0"],
    [1529320,"2026-07-18 20:40:00","365","2.897","57.52","3.985","59.33","1012.933","27.59","73.18","0.0","0.0"],
    [1529321,"2026-07-18 20:50:00","366","2.803","53.51","3.6910000000000003","54.95","1012.977","27.54","73.33","0.0","0.0"],
    [1529322,"2026-07-18 21:00:00","367","2.555","66.96","3.267","52.46","1013.04","27.5","72.97","0.0","0.0"],
    [1529323,"2026-07-18 21:10:00","368","2.404","73.51","3.332","81.3","1013.185","27.45","72.87","0.0","0.0"],
    [1529324,"2026-07-18 21:20:00","369","2.262","65.93","2.875","66.84","1013.309","27.43","73.36","0.0","0.0"],
    [1529325,"2026-07-18 21:30:00","370","2.015","58.67","3.103","70.65","1013.2","27.44","72.88","0.0","0.0"],
    [1529326,"2026-07-18 21:40:00","371","2.218","67.36","2.9730000000000003","57.7","1013.199","27.39","73.95","0.0","0.0"],
    [1529327,"2026-07-18 21:50:00","372","1.999","77.42","2.875","70.42","1013.291","27.31","74.5","0.0","0.0"],
    [1529328,"2026-07-18 22:00:00","373","1.547","88.2","2.548","90.3","1013.238","27.31","75.1","0.0","0.0"],
    [1529329,"2026-07-18 22:10:00","374","1.7930000000000001","77.4","2.515","81.6","1013.122","27.29","75.59","0.0","0.0"],
    [1529330,"2026-07-18 22:20:00","375","2.114","78.26","2.7110000000000003","67.81","1013.047","27.27","75.58","0.0","0.0"],
    [1529331,"2026-07-18 22:30:00","376","1.99","95.9","2.842","93.8","1013.078","27.26","75.34","0.0","0.0"],
    [1529332,"2026-07-18 22:40:00","377","1.66","83.1","2.123","79.56","1013.236","27.24","75.93","0.0","0.0"],
    [1529333,"2026-07-18 22:50:00","378","1.545","101.1","2.45","115.8","1013.221","27.24","76.13","0.0","0.0"],
    [1529334,"2026-07-18 23:00:00","379","1.662","101.7","2.515","91.7","1013.194","27.25","76.3","0.0","0.0"],
    [1529335,"2026-07-18 23:10:00","380","1.561","79.52","2.123","93.8","1013.14","27.23","76.13","0.0","0.0"],
    [1529336,"2026-07-18 23:20:00","381","1.392","59.87","2.319","58.45","1013.043","27.28","75.85","0.0","0.0"],
    [1529337,"2026-07-18 23:30:00","382","1.4040000000000001","63.42","1.895","59.3","1013.027","27.22","76.17","0.0","0.0"],
    [1529338,"2026-07-18 23:40:00","383","1.6019999999999999","45.83","2.254","36.45","1013.145","27.19","76.73","0.0","0.0"],
    [1529339,"2026-07-18 23:50:00","384","2.191","29.74","3.103","24.25","1013.075","27.17","77.21","0.0","0.0"],
    [1529340,"2026-07-19 00:00:00","385","2.15","27.52","2.7769999999999997","29.17","1013","27.1","77.7","0.0","0.0"],
    [1529341,"2026-07-19 00:10:00","386","2.074","12.3","2.483","18.34","1012.965","27.07","79.03","0.0","0.0"],
    [1529342,"2026-07-19 00:20:00","387","1.726","20.6","1.993","5.31","1012.978","26.89","80.0","0.0","0.0"],
    [1529343,"2026-07-19 00:30:00","388","1.422","40.86","1.9269999999999998","34.14","1012.918","26.95","77.48","0.0","0.0"],
    [1529344,"2026-07-19 00:40:00","389","1.7630000000000001","47.04","2.319","44.4","1012.777","26.99","77.51","0.0","0.0"],
    [1529345,"2026-07-19 00:50:00","390","2.0380000000000003","37.67","2.483","44.06","1012.794","26.98","78.01","0.0","0.0"],
    [1529346,"2026-07-19 01:00:00","391","2.04","29.79","2.5810000000000004","29.51","1012.73","26.97","78.65","0.0","0.0"],
    [1529347,"2026-07-19 01:10:00","392","1.993","38.32","2.7110000000000003","39.05","1012.661","26.97","77.95","0.0","0.0"],
    [1529348,"2026-07-19 01:20:00","393","2.426","35.39","2.907","39.35","1012.549","26.96","77.75","0.0","0.0"],
    [1529349,"2026-07-19 01:30:00","394","2.162","33.93","2.6460000000000004","29.58","1012.578","26.97","77.97","0.0","0.0"],
    [1529350,"2026-07-19 01:40:00","395","1.347","51.28","1.9269999999999998","47.03","1012.696","26.99","77.61","0.0","0.0"],
    [1529351,"2026-07-19 01:50:00","396","1.103","84.3","1.633","80.6","1012.799","26.99","77.3","0.0","0.0"],
    [1529352,"2026-07-19 02:00:00","397","1.021","89.2","1.274","77.9","1012.797","26.96","76.71","0.0","0.0"],
    [1529353,"2026-07-19 02:10:00","398","1.068","111.0","1.666","110.2","1012.774","27.0","76.45","0.0","0.0"],
    [1529354,"2026-07-19 02:20:00","399","1.198","102.0","1.666","100.2","1012.765","26.98","76.93","0.0","0.0"],
    [1529355,"2026-07-19 02:30:00","400","0.455","89.2","1.339","79.87","1012.776","26.99","77.56","0.0","0.0"],
    [1529356,"2026-07-19 02:40:00","401","0.691","111.6","1.339","109.8","1012.783","26.95","76.45","0.0","0.0"],
    [1529357,"2026-07-19 02:50:00","402","0.7759999999999999","118.8","1.209","136.5","1012.886","27.01","74.88","0.0","0.0"],
    [1529358,"2026-07-19 03:00:00","403","0.92","114.5","1.274","114.1","1012.895","27.0","74.41","0.0","0.0"],
    [1529359,"2026-07-19 03:10:00","404","0.8740000000000001","99.1","1.405","96.4","1012.955","26.96","73.6","0.0","0.0"],
    [1529360,"2026-07-19 03:20:00","405","0.325","78.83","0.653","71.66","1012.983","27.0","72.13","0.0","0.0"],
    [1529361,"2026-07-19 03:30:00","406","0.077","187.3","0.49","191.1","1013.014","27.06","73.93","0.0","0.0"],
    [1529362,"2026-07-19 03:40:00","407","0.273","297.5","1.209","287.4","1013.027","26.97","75.89","0.0","0.0"],
    [1529363,"2026-07-19 03:50:00","408","0.61","300.5","0.98","289.6","1012.981","26.69","75.04","0.0","0.0"],
    [1529364,"2026-07-19 04:00:00","409","0.735","298.6","1.2409999999999999","285.4","1013.044","26.64","75.92","0.0","0.0"],
    [1529365,"2026-07-19 04:10:00","410","0.7240000000000001","269.5","1.176","283.3","1013.209","26.65","74.7","0.0","0.0"],
    [1529366,"2026-07-19 04:20:00","411","0.035","274.8","0.555","277.8","1013.05","26.7","75.7","0.0","0.0"],
    [1529367,"2026-07-19 04:30:00","412","0.838","306.8","1.699","303.3","1012.975","26.56","76.26","0.0","0.0"],
    [1529368,"2026-07-19 04:40:00","413","1.061","297.1","1.5030000000000001","304.4","1013.05","26.42","75.7","1.288","0.0"],
    [1529369,"2026-07-19 04:50:00","414","0.9129999999999999","284.4","1.405","280.3","1013.142","26.5","75.27","6.591","0.0"],
    [1529370,"2026-07-19 05:00:00","415","0.021","277.3","0.457","284.5","1013.199","26.65","75.67","15.49","0.0"],
    [1529371,"2026-07-19 05:10:00","416","0.0","0.0","0.0","0.0","1013.242","26.7","75.19","27.03","0.0"],
    [1529372,"2026-07-19 05:20:00","417","0.10400000000000001","273.6","0.6859999999999999","285.0","1013.296","26.85","75.07","40.43","0.0"],
    [1529373,"2026-07-19 05:30:00","418","0.33799999999999997","272.0","0.784","257.8","1013.378","27.01","74.91","53.99","0.0"],
    [1529374,"2026-07-19 05:40:00","419","0.091","353.5","0.523","262.2","1013.438","27.18","74.32","74.03","0.0"],
    [1529375,"2026-07-19 05:50:00","420","0.0","0.0","0.0","0.0","1013.525","27.59","73.5","92.5","0.0"],
    [1529376,"2026-07-19 06:00:00","421","0.0","0.0","0.0","0.0","1013.54","27.36","73.21","114.6","0.0"],
    [1529377,"2026-07-19 06:10:00","422","0.46799999999999997","145.9","1.274","149.3","1013.546","27.25","73.86","139.8","0.0"],
    [1529378,"2026-07-19 06:20:00","423","0.631","136.2","1.045","144.5","1013.583","27.41","72.15","170.3","0.0"],
    [1529379,"2026-07-19 06:30:00","424","1.025","112.0","1.7309999999999999","107.4","1013.496","27.45","71.91","212.8","0.0"],
    [1529380,"2026-07-19 06:40:00","425","0.47600000000000003","51.33","1.013","54.16","1013.454","27.74","70.97","217.9","0.0"],
    [1529381,"2026-07-19 06:50:00","426","0.562","34.46","1.601","39.16","1013.466","28.08","69.71","201.6","0.0"],
    [1529382,"2026-07-19 07:00:00","427","0.907","42.29","1.699","48.0","1013.395","28.03","68.19","278.0","0.0"],
    [1529383,"2026-07-19 07:10:00","428","1.175","20.85","2.221","16.97","1013.418","28.39","65.53","319.3","0.0"],
    [1529384,"2026-07-19 07:20:00","429","1.956","25.99","2.483","22.18","1013.362","28.22","64.84","357.3","0.0"],
    [1529385,"2026-07-19 07:30:00","430","2.022","42.4","3.005","33.24","1013.453","28.5","61.43","374.8","0.0"],
    [1529386,"2026-07-19 07:40:00","431","2.6319999999999997","32.22","3.234","31.25","1013.531","28.53","61.51","406.6","0.0"],
    [1529387,"2026-07-19 07:50:00","432","2.126","31.82","2.7769999999999997","37.5","1013.584","28.67","60.08","441.4","0.0"],
    [1529388,"2026-07-19 08:00:00","433","2.318","35.79","2.907","32.13","1013.62","28.83","58.96","473.3","0.0"],
    [1529389,"2026-07-19 08:10:00","434","2.201","36.64","2.7110000000000003","47.07","1013.641","28.92","57.79","502.0","0.0"],
    [1529390,"2026-07-19 08:20:00","435","2.263","39.22","3.071","27.63","1013.7","29.09","56.44","535.8","0.0"],
    [1529391,"2026-07-19 08:30:00","436","2.221","31.29","2.8089999999999997","39.54","1013.712","29.06","58.02","566.7","0.0"],
    [1529392,"2026-07-19 08:40:00","437","1.829","25.38","2.352","29.18","1013.781","29.16","58.25","587.2","0.0"],
    [1529393,"2026-07-19 08:50:00","438","1.236","41.94","1.96","33.05","1013.864","29.64","51.9","603.1","0.0"],
    [1529394,"2026-07-19 09:00:00","439","1.263","95.8","1.9269999999999998","83.8","1013.926","29.96","49.55","649.2","0.0"],
    [1529395,"2026-07-19 09:10:00","440","1.192","104.3","1.699","113.3","1013.879","30.09","49.4","675.2","0.0"],
    [1529396,"2026-07-19 09:20:00","441","1.403","111.3","1.96","92.3","1013.973","29.96","49.15","701.9","0.0"],
    [1529397,"2026-07-19 09:30:00","442","1.5219999999999998","128.0","2.025","121.8","1014.043","29.92","52.0","725.4","0.0"],
    [1529398,"2026-07-19 09:40:00","443","1.841","143.1","2.7110000000000003","146.9","1014.037","29.7","55.54","750.0","0.0"],
    [1529399,"2026-07-19 09:50:00","444","2.274","156.7","2.515","158.3","1014.076","29.77","56.7","772.7","0.0"],
    [1529400,"2026-07-19 10:00:00","445","2.062","164.9","2.319","167.1","1014.271","30.03","56.26","789.8","0.0"],
    [1529401,"2026-07-19 10:10:00","446","1.9180000000000001","163.0","2.189","158.4","1014.286","30.09","55.21","808.0","0.0"],
    [1529402,"2026-07-19 10:20:00","447","2.16","170.4","2.613","171.9","1014.24","30.13","56.1","827.0","0.0"],
    [1529403,"2026-07-19 10:30:00","448","2.411","170.7","3.267","167.3","1014.161","30.12","57.12","845.0","0.0"],
    [1529404,"2026-07-19 10:40:00","449","3.187","170.4","3.495","173.1","1014.159","29.89","58.21","859.0","0.0"],
    [1529405,"2026-07-19 10:50:00","450","3.6510000000000002","170.8","4.377","170.4","1014.191","29.72","60.89","869.0","0.0"],
    [1529406,"2026-07-19 11:00:00","451","4.065","172.6","4.475","170.1","1014.232","29.66","62.1","878.0","0.0"],
    [1529407,"2026-07-19 11:10:00","452","3.907","185.6","4.769","191.8","1014.27","29.97","60.87","892.0","0.0"],
    [1529408,"2026-07-19 11:20:00","453","4.132","177.0","5.063","172.8","1014.244","29.8","63.03","897.0","0.0"],
    [1529409,"2026-07-19 11:30:00","454","4.2","188.0","5.031000000000001","184.1","1014.211","29.91","61.36","902.0","0.0"],
    [1529410,"2026-07-19 11:40:00","455","4.436","184.3","5.651","174.8","1014.244","29.99","62.25","908.0","0.0"],
    [1529411,"2026-07-19 11:50:00","456","4.124","182.0","5.945","193.9","1014.229","30.08","60.49","913.0","0.0"],
    [1529412,"2026-07-19 12:00:00","457","3.773","179.8","4.9","173.0","1014.241","30.17","59.83","911.0","0.0"],
    [1529413,"2026-07-19 12:10:00","458","3.877","185.7","5.2589999999999995","198.0","1014.16","30.4","57.83","913.0","0.0"],
    [1529414,"2026-07-19 12:20:00","459","3.875","186.2","4.769","196.3","1014.336","30.4","58.95","914.0","0.0"],
    [1529415,"2026-07-19 12:30:00","460","4.768","189.5","6.337000000000001","188.9","1014.454","30.4","59.36","913.0","0.0"],
    [1529416,"2026-07-19 12:40:00","461","4.829","186.5","6.468","192.8","1014.315","30.34","58.19","905.0","0.0"],
    [1529417,"2026-07-19 12:50:00","462","4.4510000000000005","191.3","5.586","194.8","1014.233","30.35","60.31","901.0","0.0"],
    [1529418,"2026-07-19 13:00:00","463","4.277","185.9","5.325","195.5","1014.084","30.32","60.87","860.0","0.0"],
    [1529419,"2026-07-19 13:10:00","464","4.77","192.7","5.749","194.7","1014.014","30.34","61.38","889.0","0.0"],
    [1529420,"2026-07-19 13:20:00","465","4.7","189.8","6.042999999999999","195.9","1013.951","30.31","60.14","869.0","0.0"],
    [1529421,"2026-07-19 13:30:00","466","3.9739999999999998","194.8","4.638999999999999","191.8","1013.787","30.41","58.22","827.0","0.0"],
    [1529422,"2026-07-19 13:40:00","467","4.113","189.5","5.1610000000000005","187.3","1013.83","30.4","58.5","663.9","0.0"],
    [1529423,"2026-07-19 13:50:00","468","4.588","191.9","5.586","193.1","1013.774","30.24","59.81","682.5","0.0"],
    [1529424,"2026-07-19 14:00:00","469","4.669","190.7","5.651","193.5","1013.762","30.24","61.07","776.1","0.0"],
    [1529425,"2026-07-19 14:10:00","470","4.393","191.2","5.4879999999999995","195.6","1013.705","30.17","62.2","799.6","0.0"],
    [1529426,"2026-07-19 14:20:00","471","4.598","190.5","5.651","192.0","1013.716","30.3","59.49","778.6","0.0"],
    [1529427,"2026-07-19 14:30:00","472","4.475","190.6","5.7170000000000005","186.9","1013.813","30.36","58.91","775.9","0.0"],
    [1529428,"2026-07-19 14:40:00","473","4.272","186.9","5.2589999999999995","189.0","1013.89","30.41","57.89","628.1","0.0"],
    [1529429,"2026-07-19 14:50:00","474","4.431","187.0","6.0760000000000005","191.6","1013.704","30.24","59.67","598.6","0.0"],
    [1529430,"2026-07-19 15:00:00","475","4.218999999999999","189.0","5.553","191.4","1013.623","30.15","62.27","550.6","0.0"],
    [1529431,"2026-07-19 15:10:00","476","4.242","185.0","5.357","185.0","1013.553","29.97","61.81","449.1","0.0"],
    [1529432,"2026-07-19 15:20:00","477","3.8560000000000003","183.5","5.292000000000001","174.7","1013.476","29.94","63.04","409.9","0.0"],
    [1529433,"2026-07-19 15:30:00","478","3.8819999999999997","186.3","4.867","186.5","1013.538","29.84","62.81","394.1","0.0"],
    [1529434,"2026-07-19 15:40:00","479","3.53","185.2","4.541","194.3","1013.653","29.8","62.59","295.0","0.0"],
    [1529435,"2026-07-19 15:50:00","480","3.7769999999999997","177.0","4.606","195.1","1013.421","29.73","62.95","347.9","0.0"],
    [1529436,"2026-07-19 16:00:00","481","3.8310000000000004","180.4","4.9","168.4","1013.301","29.45","65.89","292.0","0.0"],
    [1529437,"2026-07-19 16:10:00","482","3.616","190.8","4.606","197.1","1013.526","29.67","63.5","393.8","0.0"],
    [1529438,"2026-07-19 16:20:00","483","3.3510000000000004","190.5","4.247","194.1","1013.492","29.78","62.97","285.9","0.0"],
    [1529439,"2026-07-19 16:30:00","484","3.688","179.7","5.39","172.8","1013.567","29.6","63.2","214.3","0.0"],
    [1529440,"2026-07-19 16:40:00","485","4.898","181.7","6.631","193.2","1013.435","29.33","64.76","231.6","0.0"],
    [1529441,"2026-07-19 16:50:00","486","4.387","181.4","6.042999999999999","170.3","1013.522","29.45","64.29","183.8","0.0"],
    [1529442,"2026-07-19 17:00:00","487","4.368","181.0","6.1739999999999995","170.6","1013.35","29.41","64.61","121.8","0.0"],
    [1529443,"2026-07-19 17:10:00","488","4.1930000000000005","189.5","5.39","188.4","1013.336","29.2","65.66","104.4","0.0"],
    [1529444,"2026-07-19 17:20:00","489","3.862","195.6","5.4879999999999995","211.3","1013.176","29.46","63.99","113.0","0.0"],
    [1529445,"2026-07-19 17:30:00","490","4.125","184.6","5.521","185.4","1013.066","29.32","64.34","97.1","0.0"],
    [1529446,"2026-07-19 17:40:00","491","3.489","176.2","4.508","169.7","1013.006","29.26","60.89","72.78","0.0"],
    [1529447,"2026-07-19 17:50:00","492","3.1910000000000003","165.9","4.181","173.1","1012.786","29.04","64.08","49.22","0.0"],
    [1529448,"2026-07-19 18:00:00","493","2.71","163.1","3.6910000000000003","168.8","1012.864","29.0","64.89","44.34","0.0"],
    [1529449,"2026-07-19 18:10:00","494","2.612","158.7","3.299","160.0","1012.759","28.91","65.58","41.79","0.0"],
    [1529450,"2026-07-19 18:20:00","495","1.3969999999999998","179.6","2.548","178.5","1012.949","29.06","64.89","48.86","0.0"],
    [1529451,"2026-07-19 18:30:00","496","1.328","124.7","1.601","115.0","1012.655","28.75","67.02","34.92","0.0"],
    [1529452,"2026-07-19 18:40:00","497","1.8090000000000002","85.3","2.613","46.94","1012.319","28.61","66.16","30.48","0.0"],
    [1529453,"2026-07-19 18:50:00","498","1.123","53.78","1.8619999999999999","57.2","1012.423","28.73","64.04","24.46","0.0"],
    [1529454,"2026-07-19 19:00:00","499","1.9580000000000002","42.89","2.7439999999999998","31.35","1012.277","28.67","65.21","16.67","0.0"],
    [1529455,"2026-07-19 19:10:00","500","1.858","45.39","2.548","60.55","1012.234","28.62","64.99","14.57","0.0"],
    [1529456,"2026-07-19 19:20:00","501","1.1840000000000002","59.61","1.797","64.29","1012.474","28.64","64.39","11.96","0.0"],
    [1529457,"2026-07-19 19:30:00","502","0.669","119.8","0.98","146.5","1012.881","28.64","65.93","2.381","0.0"],
    [1529458,"2026-07-19 19:40:00","503","1.676","165.2","2.515","176.5","1013.256","28.73","68.51","0.0","0.0"],
    [1529459,"2026-07-19 19:50:00","504","2.459","186.4","3.299","192.8","1013.59","28.61","68.5","0.0","0.0"],
    [1529460,"2026-07-19 20:00:00","505","3.259","181.1","4.2139999999999995","171.6","1013.806","28.64","69.83","0.0","0.0"],
    [1529461,"2026-07-19 20:10:00","506","3.6239999999999997","178.6","4.606","166.5","1013.94","28.63","71.47","0.0","0.0"],
    [1529462,"2026-07-19 20:20:00","507","3.339","183.7","4.345","187.9","1014.123","28.6","72.6","0.0","0.0"],
    [1529463,"2026-07-19 20:30:00","508","3.468","178.6","4.279","171.6","1014.048","28.51","76.89","0.0","0.0"],
    [1529464,"2026-07-19 20:40:00","509","2.4930000000000003","181.5","3.397","172.8","1014.13","28.39","76.57","0.0","0.0"],
    [1529465,"2026-07-19 20:50:00","510","2.1430000000000002","184.2","3.0380000000000003","200.8","1014.222","28.41","76.1","0.0","0.0"],
    [1529466,"2026-07-19 21:00:00","511","1.901","176.6","2.548","176.6","1014.298","28.35","77.58","0.0","0.0"],
    [1529467,"2026-07-19 21:10:00","512","2.675","186.3","3.6260000000000003","192.8","1014.431","28.3","76.85","0.0","0.0"],
    [1529468,"2026-07-19 21:20:00","513","2.116","189.0","3.1689999999999996","191.2","1014.391","28.31","77.75","0.0","0.0"],
    [1529469,"2026-07-19 21:30:00","514","1.6380000000000001","210.4","2.875","219.7","1014.454","28.36","75.24","0.0","0.0"],
    [1529470,"2026-07-19 21:40:00","515","0.265","197.1","0.98","171.7","1014.382","28.52","73.13","0.0","0.0"],
    [1529471,"2026-07-19 21:50:00","516","0.14","49.71","0.7509999999999999","44.35","1014.131","28.5","74.84","0.0","0.0"],
    [1529472,"2026-07-19 22:00:00","517","0.33899999999999997","112.4","0.6859999999999999","33.24","1013.929","28.4","76.79","0.0","0.0"],
    [1529473,"2026-07-19 22:10:00","518","0.61","77.84","1.209","75.36","1013.808","28.1","77.43","0.0","0.0"],
    [1529474,"2026-07-19 22:20:00","519","1.8719999999999999","69.11","2.189","69.76","1013.598","28.01","78.79","0.0","0.0"],
    [1529475,"2026-07-19 22:30:00","520","2.552","133.3","3.7569999999999997","168.7","1014.016","27.96","80.7","0.0","0.0"],
    [1529476,"2026-07-19 22:40:00","521","2.387","147.0","3.822","170.5","1014.21","27.86","82.3","0.0","0.0"],
    [1529477,"2026-07-19 22:50:00","522","1.4709999999999999","94.5","1.993","111.2","1013.963","27.81","81.6","0.0","0.0"],
    [1529478,"2026-07-19 23:00:00","523","1.8019999999999998","77.51","2.221","81.6","1013.755","27.87","80.5","0.0","0.0"],
    [1529479,"2026-07-19 23:10:00","524","0.542","75.37","1.993","72.67","1014.232","27.91","80.3","0.0","0.0"],
    [1529480,"2026-07-19 23:20:00","525","1.162","109.3","1.7309999999999999","115.7","1013.977","27.82","80.8","0.0","0.0"],
    [1529481,"2026-07-19 23:30:00","526","1.0659999999999998","90.5","1.666","112.6","1013.811","27.73","81.4","0.0","0.0"],
    [1529482,"2026-07-19 23:40:00","527","0.20800000000000002","43.64","0.8490000000000001","38.88","1013.803","27.7","80.8","0.0","0.0"],
    [1529483,"2026-07-19 23:50:00","528","0.10099999999999999","73.91","0.49","82.4","1013.733","27.67","79.89","0.0","0.0"],
    [1529484,"2026-07-20 00:00:00","529","0.884","26.13","1.601","28.04","1013.536","27.68","81.1","0.0","0.0"],
    [1529485,"2026-07-20 00:10:00","530","1.399","50.72","1.829","28.91","1013.531","27.57","80.6","0.0","0.0"],
    [1529486,"2026-07-20 00:20:00","531","1.651","48.76","2.352","43.51","1013.453","27.64","80.2","0.0","0.0"],
    [1529487,"2026-07-20 00:30:00","532","1.8840000000000001","37.76","2.483","34.9","1013.337","27.62","80.2","0.0","0.0"],
    [1529488,"2026-07-20 00:40:00","533","2.556","33.09","3.201","25.49","1013.327","27.63","80.3","0.0","0.0"],
    [1529489,"2026-07-20 00:50:00","534","2.3569999999999998","31.36","3.071","34.06","1013.21","27.58","80.7","0.0","0.0"],
    [1529490,"2026-07-20 01:00:00","535","2.617","39.03","3.234","31.02","1013.177","27.7","70.77","0.0","0.0"],
    [1529491,"2026-07-20 01:10:00","536","2.276","39.62","2.7769999999999997","41.12","1013.141","27.94","66.19","0.0","0.0"],
    [1529492,"2026-07-20 01:20:00","537","1.597","48.68","2.352","48.58","1013.266","27.94","65.3","0.0","0.0"],
    [1529493,"2026-07-20 01:30:00","538","1.885","62.85","2.7439999999999998","56.33","1013.332","27.89","64.35","0.0","0.0"],
    [1529494,"2026-07-20 01:40:00","539","1.565","56.53","2.7439999999999998","62.22","1013.456","27.89","63.66","0.0","0.0"],
    [1529495,"2026-07-20 01:50:00","540","1.053","66.83","1.568","60.69","1013.519","27.87","62.38","0.0","0.0"],
    [1529496,"2026-07-20 02:00:00","541","1.1909999999999998","85.7","1.568","93.9","1013.709","27.85","62.39","0.0","0.0"],
    [1529497,"2026-07-20 02:10:00","542","1.446","93.0","1.8619999999999999","86.7","1013.779","27.81","64.8","0.0","0.0"],
    [1529498,"2026-07-20 02:20:00","543","0.9990000000000001","83.1","1.535","72.1","1013.786","27.71","66.65","0.0","0.0"],
    [1529499,"2026-07-20 02:30:00","544","0.145","308.8","0.915","308.4","1013.815","27.47","65.64","0.0","0.0"],
    [1529500,"2026-07-20 02:40:00","545","0.047","269.6","0.6859999999999999","259.6","1013.961","27.43","66.9","0.0","0.0"],
    [1529501,"2026-07-20 02:50:00","546","0.703","228.1","1.339","228.1","1014.137","27.4","67.91","0.0","0.0"],
    [1529502,"2026-07-20 03:00:00","547","1.186","231.3","1.96","233.0","1014.339","27.45","69.05","0.0","0.0"],
    [1529503,"2026-07-20 03:10:00","548","0.948","237.5","1.797","201.4","1014.357","27.41","70.03","0.0","0.0"],
    [1529504,"2026-07-20 03:20:00","549","1.193","263.5","1.993","276.0","1014.378","27.2","67.81","0.0","0.0"],
    [1529505,"2026-07-20 03:30:00","550","1.5019999999999998","269.4","2.483","269.1","1014.454","27.18","65.79","0.0","0.0"],
    [1529506,"2026-07-20 03:40:00","551","1.714","288.3","2.9730000000000003","276.8","1014.58","27.14","64.21","0.0","0.0"],
    [1529507,"2026-07-20 03:50:00","552","0.615","284.4","1.2409999999999999","303.3","1014.565","26.98","64.28","0.0","0.0"],
    [1529508,"2026-07-20 04:00:00","553","0.652","351.2","1.274","340.7","1014.412","27.01","66.36","0.0","0.0"],
    [1529509,"2026-07-20 04:10:00","554","1.181","25.38","1.8619999999999999","4.97","1014.289","27.14","67.49","0.0","0.0"],
    [1529510,"2026-07-20 04:20:00","555","1.675","9.37","2.025","13.11","1014.227","27.36","71.12","0.0","0.0"],
    [1529511,"2026-07-20 04:30:00","556","1.663","13.22","2.352","14.16","1014.213","27.4","74.92","0.0","0.0"],
    [1529512,"2026-07-20 04:40:00","557","2.148","13.91","2.613","16.54","1014.085","27.25","74.7","1.308","0.0"],
    [1529513,"2026-07-20 04:50:00","558","3.4","23.02","4.671","7.997000000000001","1014.007","27.31","73.34","6.535","0.0"],
    [1529514,"2026-07-20 05:00:00","559","2.568","16.83","4.247","12.16","1014.147","27.4","66.62","15.95","0.0"],
    [1529515,"2026-07-20 05:10:00","560","2.306","11.04","3.071","28.28","1014.106","27.46","62.93","27.94","0.0"],
    [1529516,"2026-07-20 05:20:00","561","1.297","27.0","2.319","42.12","1014.275","27.57","63.07","43.33","0.0"],
    [1529517,"2026-07-20 05:30:00","562","0.919","16.67","1.405","16.67","1014.372","27.5","63.66","59.43","0.0"],
    [1529518,"2026-07-20 05:40:00","563","1.101","19.37","1.307","9.19","1014.32","27.62","64.07","79.08","0.0"],
    [1529519,"2026-07-20 05:50:00","564","1.093","16.56","1.307","33.25","1014.333","27.66","64.2","100.2","0.0"],
    [1529520,"2026-07-20 06:00:00","565","1.227","26.8","1.7309999999999999","26.24","1014.351","27.96","61.52","124.4","0.0"],
    [1529521,"2026-07-20 06:10:00","566","1.821","14.96","2.7439999999999998","20.52","1014.304","28.11","60.02","150.9","0.0"],
    [1529522,"2026-07-20 06:20:00","567","3.025","25.74","3.7239999999999998","29.31","1014.24","28.17","60.48","182.2","0.0"],
    [1529523,"2026-07-20 06:30:00","568","3.238","13.9","4.083","13.17","1014.281","28.1","58.88","209.9","0.0"],
    [1529524,"2026-07-20 06:40:00","569","3.17","17.14","3.9530000000000003","17.74","1014.269","28.07","61.23","239.8","0.0"],
    [1529525,"2026-07-20 06:50:00","570","2.762","21.39","3.7889999999999997","15.21","1014.347","28.11","60.83","270.6","0.0"],
    [1529526,"2026-07-20 07:00:00","571","2.093","32.87","3.103","41.67","1014.526","28.39","61.15","300.5","0.0"],
    [1529527,"2026-07-20 07:10:00","572","3.1430000000000002","29.47","4.2139999999999995","32.72","1014.521","28.27","63.96","336.1","0.0"],
    [1529528,"2026-07-20 07:20:00","573","4.087","32.12","4.802","31.97","1014.402","28.2","62.69","371.5","0.0"],
    [1529529,"2026-07-20 07:30:00","574","3.3310000000000004","39.75","4.541","29.36","1014.582","28.3","61.47","402.3","0.0"],
    [1529530,"2026-07-20 07:40:00","575","2.992","50.55","4.149","62.44","1014.677","28.46","61.11","433.8","0.0"],
    [1529531,"2026-07-20 07:50:00","576","3.1630000000000003","48.65","4.181","53.87","1014.655","28.4","60.89","465.2","0.0"],
    [1529532,"2026-07-20 08:00:00","577","2.92","40.59","4.149","37.52","1014.66","28.33","62.03","495.0","0.0"],
    [1529533,"2026-07-20 08:10:00","578","2.6910000000000003","41.13","4.41","31.85","1014.714","28.3","65.89","524.9","0.0"],
    [1529534,"2026-07-20 08:20:00","579","2.608","43.41","3.659","52.38","1014.752","28.27","68.0","557.2","0.0"],
    [1529535,"2026-07-20 08:30:00","580","2.7880000000000003","47.75","4.508","65.06","1014.763","28.42","67.31","586.6","0.0"],
    [1529536,"2026-07-20 08:40:00","581","3.148","52.42","4.312","49.53","1014.69","28.33","68.44","614.1","0.0"],
    [1529537,"2026-07-20 08:50:00","582","2.529","68.13","4.018","88.9","1014.755","28.38","69.99","642.6","0.0"],
    [1529538,"2026-07-20 09:00:00","583","2.65","67.85","4.377","65.66","1014.729","28.44","70.63","668.9","0.0"],
    [1529539,"2026-07-20 09:10:00","584","2.39","66.56","4.247","79.98","1014.75","28.48","67.92","691.4","0.0"],
    [1529540,"2026-07-20 09:20:00","585","2.504","63.15","3.855","72.67","1014.801","28.53","65.91","714.9","0.0"],
    [1529541,"2026-07-20 09:30:00","586","2.6289999999999996","68.85","4.149","50.8","1014.809","28.51","65.28","735.2","0.0"],
    [1529542,"2026-07-20 09:40:00","587","2.5789999999999997","55.84","4.181","62.96","1014.716","28.6","64.43","757.9","0.0"],
    [1529543,"2026-07-20 09:50:00","588","2.3890000000000002","83.5","3.593","78.17","1014.957","28.75","64.85","773.2","0.0"],
    [1529544,"2026-07-20 10:00:00","589","2.966","88.6","4.998","85.3","1014.948","28.59","65.26","790.8","0.0"],
    [1529545,"2026-07-20 10:10:00","590","3.24","82.3","5.4879999999999995","100.3","1014.835","28.79","60.91","811.0","0.0"],
    [1529546,"2026-07-20 10:20:00","591","3.673","99.1","4.508","90.0","1014.919","28.61","64.39","824.0","0.0"],
    [1529547,"2026-07-20 10:30:00","592","4.013999999999999","104.6","5.063","94.9","1015.039","28.33","67.87","837.0","0.0"],
    [1529548,"2026-07-20 10:40:00","593","4.2010000000000005","117.2","5.39","112.3","1015.16","28.18","69.76","852.0","0.0"],
    [1529549,"2026-07-20 10:50:00","594","4.113","116.0","5.194","117.9","1015.28","28.12","71.27","864.0","0.0"],
    [1529550,"2026-07-20 11:00:00","595","4.125","118.0","5.325","113.2","1015.447","28.23","67.01","872.0","0.0"],
    [1529551,"2026-07-20 11:10:00","596","4.246","116.4","5.553","116.1","1015.566","28.31","63.42","884.0","0.0"],
    [1529552,"2026-07-20 11:20:00","597","3.9810000000000003","111.4","5.422999999999999","115.8","1015.608","28.34","65.02","890.0","0.0"],
    [1529553,"2026-07-20 11:30:00","598","3.761","94.9","5.1610000000000005","90.6","1015.494","28.36","66.33","894.0","0.0"],
    [1529554,"2026-07-20 11:40:00","599","3.4360000000000004","93.9","5.031000000000001","89.5","1015.45","28.3","68.04","894.0","0.0"],
    [1529555,"2026-07-20 11:50:00","600","3.588","89.4","4.769","94.6","1015.48","28.09","68.85","894.0","0.0"],
    [1529556,"2026-07-20 12:00:00","601","3.302","88.8","4.279","83.1","1015.385","28.08","70.12","898.0","0.0"],
    [1529557,"2026-07-20 12:10:00","602","3.455","88.5","4.508","96.4","1015.311","28.06","70.62","897.0","0.0"],
    [1529558,"2026-07-20 12:20:00","603","3.699","95.8","4.965","105.8","1015.288","27.97","70.22","897.0","0.0"],
    [1529559,"2026-07-20 12:30:00","604","3.327","89.2","4.965","92.5","1015.236","28.09","70.2","898.0","0.0"],
    [1529560,"2026-07-20 12:40:00","605","3.193","98.7","4.279","118.8","1015.265","28.14","69.5","883.0","0.0"],
    [1529561,"2026-07-20 12:50:00","606","2.8739999999999997","87.9","4.573","88.8","1015.14","28.19","68.3","883.0","0.0"],
    [1529562,"2026-07-20 13:00:00","607","2.658","70.37","4.4430000000000005","80.8","1014.94","28.31","67.41","878.0","0.0"],
    [1529563,"2026-07-20 13:10:00","608","3.627","85.1","4.933","84.8","1014.758","28.3","67.81","872.0","0.0"],
    [1529564,"2026-07-20 13:20:00","609","3.761","79.92","4.867","88.9","1014.676","28.16","67.68","863.0","0.0"],
    [1529565,"2026-07-20 13:30:00","610","3.052","70.29","4.671","80.1","1014.578","28.29","68.11","850.0","0.0"],
    [1529566,"2026-07-20 13:40:00","611","3.3","83.2","5.031000000000001","74.76","1014.496","28.2","68.48","836.0","0.0"],
    [1529567,"2026-07-20 13:50:00","612","3.375","84.8","4.4430000000000005","87.2","1014.443","28.22","68.4","816.0","0.0"],
    [1529568,"2026-07-20 14:00:00","613","3.492","92.9","4.802","98.6","1014.448","28.14","68.84","801.0","0.0"],
    [1529569,"2026-07-20 14:10:00","614","3.6289999999999996","108.8","4.475","109.2","1014.529","28.13","69.15","782.9","0.0"],
    [1529570,"2026-07-20 14:20:00","615","3.253","105.7","4.181","97.2","1014.433","28.23","69.46","762.2","0.0"],
    [1529571,"2026-07-20 14:30:00","616","3.218","113.2","4.573","123.4","1014.279","28.2","68.15","735.2","0.0"],
    [1529572,"2026-07-20 14:40:00","617","3.4019999999999997","116.1","4.312","122.9","1014.207","28.24","67.67","711.1","0.0"],
    [1529573,"2026-07-20 14:50:00","618","3.049","115.7","3.92","127.5","1014.136","28.29","66.73","682.8","0.0"],
    [1529574,"2026-07-20 15:00:00","619","3.2680000000000002","109.8","4.312","119.7","1014.063","28.27","67.8","656.4","0.0"],
    [1529575,"2026-07-20 15:10:00","620","2.85","115.1","4.149","118.8","1013.959","28.28","67.18","630.0","0.0"],
    [1529576,"2026-07-20 15:20:00","621","3.115","106.9","3.855","117.9","1013.787","28.21","68.56","547.6","0.0"],
    [1529577,"2026-07-20 15:30:00","622","2.991","142.9","3.855","146.2","1014.008","28.17","70.32","237.9","0.0"],
    [1529578,"2026-07-20 15:40:00","623","1.9769999999999999","166.2","3.0380000000000003","142.0","1014.452","28.42","70.9","125.2","0.0"],
    [1529579,"2026-07-20 15:50:00","624","2.424","131.9","3.5610000000000004","119.0","1014.232","28.23","72.37","81.0","0.0"],
    [1529580,"2026-07-20 16:00:00","625","3.659","168.5","5.096","160.9","1014.496","28.15","74.96","46.52","0.0"],
    [1529581,"2026-07-20 16:10:00","626","3.469","169.1","6.5329999999999995","194.1","1015.28","28.51","72.59","15.87","0.0"],
    [1529582,"2026-07-20 16:20:00","627","3.7939999999999996","60.58","7.513","50.83","1013.557","28.06","73.92","8.06","0.0"],
    [1529583,"2026-07-20 16:30:00","628","5.31","66.22","12.97","27.85","1012.633","27.85","76.19","6.421","0.0"],
    [1529584,"2026-07-20 16:40:00","629","8.01","164.5","16.53","212.3","1013.221","28.64","73.4","11.05","0.0"],
    [1529585,"2026-07-20 16:50:00","630","8.89","137.4","11.07","137.3","1011.396","27.67","77.11","43.52","0.0"],
    [1529586,"2026-07-20 17:00:00","631","3.6039999999999996","210.8","7.317","160.5","1013.016","28.07","75.28","36.5","0.0"],
    [1529587,"2026-07-20 17:10:00","632","4.751","204.1","8.1","170.9","1013.383","28.48","73.72","22.79","0.0"],
    [1529588,"2026-07-20 17:20:00","633","1.79","198.5","3.659","175.4","1013.25","28.61","73.91","13.96","0.0"],
    [1529589,"2026-07-20 17:30:00","634","1.7069999999999999","159.6","3.201","141.4","1012.702","28.23","77.1","10.55","0.0"],
    [1529590,"2026-07-20 17:40:00","635","2.753","223.7","4.9","172.1","1013.411","28.36","76.09","14.31","0.0"],
    [1529591,"2026-07-20 17:50:00","636","2.187","223.5","4.606","166.7","1012.891","28.35","77.4","69.4","0.0"],
    [1529592,"2026-07-20 18:00:00","637","1.722","4.126","3.234","3.07","1012.206","28.18","78.72","160.1","0.0"],
    [1529593,"2026-07-20 18:10:00","638","0.95","5.127999999999999","1.96","6.528","1012.149","28.12","78.12","174.4","0.2"],
    [1529594,"2026-07-20 18:20:00","639","0.282","169.8","1.601","174.5","1012.496","28.47","76.09","109.1","0.0"],
    [1529595,"2026-07-20 18:30:00","640","1.935","178.1","3.136","183.4","1012.589","28.55","78.57","74.04","0.0"],
    [1529596,"2026-07-20 18:40:00","641","2.045","170.8","2.613","182.6","1012.598","28.12","81.0","52.03","0.0"],
    [1529597,"2026-07-20 18:50:00","642","3.312","168.6","4.541","175.1","1012.524","28.05","82.9","35.05","0.0"],
    [1529598,"2026-07-20 19:00:00","643","3.4589999999999996","176.0","4.606","174.4","1012.495","28.04","83.1","22.15","0.0"],
    [1529599,"2026-07-20 19:10:00","644","2.26","189.5","3.495","180.0","1012.431","28.04","82.1","11.27","0.0"],
    [1529600,"2026-07-20 19:20:00","645","1.8319999999999999","175.5","2.319","173.3","1012.426","28.1","82.5","4.0360000000000005","0.0"],
    [1529601,"2026-07-20 19:30:00","646","1.41","177.8","1.993","174.3","1012.286","28.08","82.5","0.35700000000000004","0.0"],
    [1529602,"2026-07-20 19:40:00","647","1.011","186.7","1.8619999999999999","234.0","1012.274","27.96","82.0","0.0","0.0"],
    [1529603,"2026-07-20 19:50:00","648","1.203","242.4","2.287","231.5","1012.491","28.13","76.83","0.0","0.0"],
    [1529604,"2026-07-20 20:00:00","649","2.714","191.3","4.802","194.8","1012.88","28.39","77.9","0.0","0.0"],
    [1529605,"2026-07-20 20:10:00","650","4.001","189.1","4.998","199.2","1013.028","28.15","81.3","0.0","0.0"],
    [1529606,"2026-07-20 20:20:00","651","3.736","188.6","5.063","190.6","1013.168","27.94","82.3","0.0","0.0"],
    [1529607,"2026-07-20 20:30:00","652","3.548","192.2","4.737","194.2","1013.447","27.94","82.2","0.0","0.0"],
    [1529608,"2026-07-20 20:40:00","653","3.55","197.8","5.227","193.2","1013.676","28.0","80.5","0.0","0.0"],
    [1529609,"2026-07-20 20:50:00","654","2.983","200.3","4.638999999999999","207.8","1013.969","28.05","81.0","0.0","0.0"],
    [1529610,"2026-07-20 21:00:00","655","1.75","201.8","3.201","200.9","1013.874","28.01","81.4","0.0","0.0"],
    [1529611,"2026-07-20 21:10:00","656","2.758","198.6","4.083","205.0","1013.995","27.99","81.6","0.0","0.0"],
    [1529612,"2026-07-20 21:20:00","657","2.565","198.9","3.92","200.0","1014.131","27.98","81.9","0.0","0.0"],
    [1529613,"2026-07-20 21:30:00","658","2.377","195.6","4.2139999999999995","202.3","1014.163","27.94","82.2","0.0","0.0"],
    [1529614,"2026-07-20 21:40:00","659","1.8969999999999998","192.0","3.6910000000000003","181.9","1014.172","27.93","82.1","0.0","0.0"],
    [1529615,"2026-07-20 21:50:00","660","2.353","188.2","3.365","191.1","1014.189","27.86","82.2","0.0","0.0"],
    [1529616,"2026-07-20 22:00:00","661","1.889","187.3","2.352","186.5","1014.108","27.88","82.7","0.0","0.0"],
    [1529617,"2026-07-20 22:10:00","662","1.173","195.0","2.156","179.4","1014.065","27.89","82.9","0.0","0.0"],
    [1529618,"2026-07-20 22:20:00","663","0.541","236.0","1.7309999999999999","186.6","1014.05","27.86","82.3","0.0","0.0"],
    [1529619,"2026-07-20 22:30:00","664","0.882","201.4","1.535","171.1","1014.034","27.85","82.4","0.0","0.0"],
    [1529620,"2026-07-20 22:40:00","665","0.655","270.4","1.339","272.0","1013.916","27.83","82.1","0.0","0.0"],
    [1529621,"2026-07-20 22:50:00","666","0.342","97.3","1.405","48.06","1013.982","27.82","82.8","0.0","0.0"],
    [1529622,"2026-07-20 23:00:00","667","0.313","100.2","1.307","76.82","1014.015","27.64","83.7","0.0","0.0"],
    [1529623,"2026-07-20 23:10:00","668","0.583","170.6","1.47","187.2","1014.013","27.65","84.8","0.0","0.0"],
    [1529624,"2026-07-20 23:20:00","669","0.9540000000000001","167.8","1.535","160.4","1013.855","27.69","85.2","0.0","0.0"],
    [1529625,"2026-07-20 23:30:00","670","0.392","125.4","1.209","103.0","1013.901","27.55","86.5","0.0","0.0"],
    [1529626,"2026-07-20 23:40:00","671","0.7190000000000001","114.8","1.2409999999999999","106.6","1013.938","27.32","85.7","0.0","0.0"],
    [1529627,"2026-07-20 23:50:00","672","0.975","99.9","1.209","45.58","1013.955","27.4","85.7","0.0","0.0"],
    [1529628,"2026-07-21 00:00:00","673","1.435","47.99","2.287","39.88","1013.881","27.44","85.5","0.0","0.0"],
    [1529629,"2026-07-21 00:10:00","674","1.774","38.71","2.907","40.25","1013.899","27.48","85.1","0.0","0.0"],
    [1529630,"2026-07-21 00:20:00","675","3.676","37.34","4.835","40.81","1013.876","27.37","87.6","0.0","0.0"],
    [1529631,"2026-07-21 00:30:00","676","2.9160000000000004","51.49","3.887","49.91","1014.009","27.13","87.7","0.0","0.0"],
    [1529632,"2026-07-21 00:40:00","677","3.3560000000000003","43.05","4.149","31.52","1014.002","27.24","87.1","0.0","0.0"],
    [1529633,"2026-07-21 00:50:00","678","2.4730000000000003","44.87","3.267","44.13","1014.089","27.23","86.2","0.0","0.0"],
    [1529634,"2026-07-21 01:00:00","679","2.783","52.09","3.855","56.53","1014.064","27.28","87.0","0.0","0.0"],
    [1529635,"2026-07-21 01:10:00","680","2.371","49.18","3.43","45.97","1014.174","27.16","87.1","0.0","0.0"],
    [1529636,"2026-07-21 01:20:00","681","2.312","48.74","3.0380000000000003","37.72","1014.18","27.12","86.8","0.0","0.0"],
    [1529637,"2026-07-21 01:30:00","682","2.2769999999999997","34.12","3.1689999999999996","44.89","1014.116","27.12","87.0","0.0","0.0"],
    [1529638,"2026-07-21 01:40:00","683","2.5780000000000003","42.9","3.267","39.92","1014.031","27.1","87.4","0.0","0.0"],
    [1529639,"2026-07-21 01:50:00","684","2.1590000000000003","31.54","2.7439999999999998","42.61","1013.923","27.04","87.6","0.0","0.0"],
    [1529640,"2026-07-21 02:00:00","685","1.023","38.09","2.156","16.98","1013.846","26.99","87.7","0.0","0.0"],
    [1529641,"2026-07-21 02:10:00","686","0.9129999999999999","7.737","1.764","5.494","1013.743","26.98","88.0","0.0","0.0"],
    [1529642,"2026-07-21 02:20:00","687","1.225","42.4","1.666","40.02","1013.584","26.88","88.4","0.0","0.0"],
    [1529643,"2026-07-21 02:30:00","688","1.547","41.13","2.189","39.85","1013.686","26.87","88.0","0.0","0.0"],
    [1529644,"2026-07-21 02:40:00","689","2.015","58.12","2.907","72.28","1013.691","26.93","87.9","0.0","0.0"],
    [1529645,"2026-07-21 02:50:00","690","2.097","51.59","2.7769999999999997","41.33","1013.807","26.98","88.0","0.0","0.0"],
    [1529646,"2026-07-21 03:00:00","691","2.029","41.31","2.5810000000000004","36.0","1013.974","26.98","88.1","0.0","0.0"],
    [1529647,"2026-07-21 03:10:00","692","2.573","42.48","3.7889999999999997","69.51","1013.814","26.93","88.1","0.0","0.0"],
    [1529648,"2026-07-21 03:20:00","693","3.0380000000000003","80.8","4.279","85.6","1013.381","26.95","88.4","0.0","0.0"],
    [1529649,"2026-07-21 03:30:00","694","3.074","354.7","4.835","332.4","1014.004","26.88","87.0","0.0","0.0"],
    [1529650,"2026-07-21 03:40:00","695","2.363","13.94","2.9730000000000003","3.238","1014.065","26.92","86.2","0.0","0.0"],
    [1529651,"2026-07-21 03:50:00","696","2.008","42.05","2.8089999999999997","25.77","1013.939","26.87","86.5","0.0","0.0"],
    [1529652,"2026-07-21 04:00:00","697","1.341","53.71","1.895","54.12","1014.025","26.93","87.4","0.0","0.0"],
    [1529653,"2026-07-21 04:10:00","698","2.145","30.51","2.8089999999999997","31.02","1014.012","26.9","88.3","0.0","0.0"],
    [1529654,"2026-07-21 04:20:00","699","1.8219999999999998","20.96","2.417","34.63","1014.205","26.89","89.0","0.0","0.0"],
    [1529655,"2026-07-21 04:30:00","700","1.945","4.522","2.45","5.277","1014.484","26.85","89.4","0.0","0.0"],
    [1529656,"2026-07-21 04:40:00","701","1.9140000000000001","10.79","2.287","1.7480000000000002","1014.422","26.82","89.4","0.905","0.0"],
    [1529657,"2026-07-21 04:50:00","702","2.62","24.65","3.495","34.01","1014.172","26.78","89.5","4.731","0.0"],
    [1529658,"2026-07-21 05:00:00","703","2.7910000000000004","20.56","3.332","33.06","1013.988","26.72","89.2","10.99","0.0"],
    [1529659,"2026-07-21 05:10:00","704","1.847","14.26","3.267","2.0069999999999997","1014.283","26.74","88.7","20.51","0.0"],
    [1529660,"2026-07-21 05:20:00","705","1.788","16.91","2.319","8.08","1014.161","26.75","88.0","37.08","0.0"],
    [1529661,"2026-07-21 05:30:00","706","3.225","18.3","4.149","21.11","1014.051","26.78","87.6","56.4","0.0"],
    [1529662,"2026-07-21 05:40:00","707","2.62","16.1","3.7239999999999998","13.58","1014.272","26.87","86.1","73.47","0.0"],
    [1529663,"2026-07-21 05:50:00","708","1.859","15.97","2.842","26.01","1014.505","27.01","84.0","98.4","0.0"],
    [1529664,"2026-07-21 06:00:00","709","1.9140000000000001","6.347","2.45","14.67","1014.634","27.1","82.0","139.9","0.0"],
    [1529665,"2026-07-21 06:10:00","710","0.7190000000000001","10.24","1.699","352.6","1015.038","27.43","78.42","153.9","0.0"],
    [1529666,"2026-07-21 06:20:00","711","0.371","213.2","2.613","230.3","1015.37","27.82","76.25","170.0","0.0"],
    [1529667,"2026-07-21 06:30:00","712","5.494","101.7","9.11","95.9","1013.698","27.61","74.86","56.67","0.0"],
    [1529668,"2026-07-21 06:40:00","713","5.025","26.03","8.3","13.77","1014.048","27.29","76.13","96.1","0.0"],
    [1529669,"2026-07-21 06:50:00","714","2.7969999999999997","35.78","4.312","21.46","1014.956","27.44","73.81","143.7","0.0"],
    [1529670,"2026-07-21 07:00:00","715","3.3480000000000003","35.31","4.508","51.11","1014.761","27.41","74.28","215.0","0.0"],
    [1529671,"2026-07-21 07:10:00","716","3.5","44.89","4.508","38.08","1014.536","27.57","72.87","325.7","0.0"],
    [1529672,"2026-07-21 07:20:00","717","1.646","49.77","2.94","39.7","1015.279","27.62","72.91","357.0","0.0"],
    [1529673,"2026-07-21 07:30:00","718","2.557","127.7","3.267","127.4","1015.368","27.64","73.45","282.5","0.0"],
    [1529674,"2026-07-21 07:40:00","719","3.05","150.0","4.018","169.7","1015.988","27.41","75.39","132.6","0.0"],
    [1529675,"2026-07-21 07:50:00","720","2.336","86.6","3.5610000000000004","32.06","1015.656","27.45","71.76","401.8","0.0"],
    [1529676,"2026-07-21 08:00:00","721","2.971","49.01","3.7889999999999997","51.98","1015.468","27.74","70.6","488.5","0.0"],
    [1529677,"2026-07-21 08:10:00","722","3.679","57.29","7.023","65.34","1014.798","27.53","72.64","260.2","0.0"],
    [1529678,"2026-07-21 08:20:00","723","3.807","73.09","7.84","76.93","1013.911","27.32","71.47","209.4","0.0"],
    [1529679,"2026-07-21 08:30:00","724","2.7039999999999997","14.79","4.867","24.5","1015.003","27.6","70.23","537.8","0.0"],
    [1529680,"2026-07-21 08:40:00","725","3.0669999999999997","24.4","4.737","20.47","1015.315","27.68","70.08","599.2","0.0"],
    [1529681,"2026-07-21 08:50:00","726","2.6","86.6","4.4430000000000005","92.5","1014.844","27.88","68.31","510.8","0.0"],
    [1529682,"2026-07-21 09:00:00","727","2.056","39.34","3.397","25.53","1015.152","28.05","66.6","673.9","0.0"],
    [1529683,"2026-07-21 09:10:00","728","2.178","131.3","4.181","141.0","1015.573","27.97","66.47","215.9","0.0"],
    [1529684,"2026-07-21 09:20:00","729","4.145","150.2","5.227","162.1","1015.611","27.81","68.27","488.8","0.0"],
    [1529685,"2026-07-21 09:30:00","730","3.7969999999999997","149.2","5.031000000000001","176.4","1015.752","28.05","65.4","546.1","0.0"],
    [1529686,"2026-07-21 09:40:00","731","2.8310000000000004","130.2","3.5610000000000004","142.2","1015.631","28.06","64.43","695.4","0.0"],
    [1529687,"2026-07-21 09:50:00","732","2.134","85.0","4.018","103.1","1015.445","28.41","61.83","719.4","0.0"],
    [1529688,"2026-07-21 10:00:00","733","3.665","101.7","5.651","117.7","1015.139","28.35","62.64","648.7","0.0"],
    [1529689,"2026-07-21 10:10:00","734","3.7230000000000003","121.9","5.39","121.5","1015.605","28.12","63.66","659.2","0.0"],
    [1529690,"2026-07-21 10:20:00","735","2.662","115.3","3.5610000000000004","118.8","1016.005","28.3","60.35","758.9","0.0"],
    [1529691,"2026-07-21 10:30:00","736","3.207","116.2","4.737","114.7","1015.922","28.29","61.62","646.0","0.0"],
    [1529692,"2026-07-21 10:40:00","737","2.721","94.9","4.1160000000000005","115.1","1016.102","28.34","60.31","793.4","0.0"],
    [1529693,"2026-07-21 10:50:00","738","3.233","114.7","4.312","111.3","1016.117","28.35","61.55","839.0","0.0"],
    [1529694,"2026-07-21 11:00:00","739","3.937","114.3","5.357","121.6","1016.254","28.31","62.81","852.0","0.0"],
    [1529695,"2026-07-21 11:10:00","740","4.297","110.1","5.586","82.0","1016.127","28.21","63.33","866.0","0.0"],
    [1529696,"2026-07-21 11:20:00","741","4.46","90.4","6.664","100.4","1015.67","28.17","64.04","873.0","0.0"],
    [1529697,"2026-07-21 11:30:00","742","3.4739999999999998","91.5","5.031000000000001","97.8","1015.874","28.14","65.4","873.0","0.0"],
    [1529698,"2026-07-21 11:40:00","743","3.238","92.8","4.933","112.6","1016.045","28.26","63.51","878.0","0.0"],
    [1529699,"2026-07-21 11:50:00","744","3.656","93.0","4.704","101.8","1016.223","28.31","61.48","888.0","0.0"],
    [1529700,"2026-07-21 12:00:00","745","3.4419999999999997","95.6","4.508","93.3","1016.412","28.35","62.85","837.0","0.0"],
    [1529701,"2026-07-21 12:10:00","746","3.782","111.5","4.933","109.9","1016.752","28.25","63.98","882.0","0.0"],
    [1529702,"2026-07-21 12:20:00","747","3.358","121.2","4.41","113.7","1016.881","28.02","64.86","886.0","0.0"],
    [1529703,"2026-07-21 12:30:00","748","3.8160000000000003","116.7","5.194","125.5","1016.688","28.09","66.2","880.0","0.0"],
    [1529704,"2026-07-21 12:40:00","749","3.785","94.8","5.063","99.0","1016.216","28.22","65.98","871.0","0.0"],
    [1529705,"2026-07-21 12:50:00","750","4.064","85.2","6.566","84.8","1015.972","28.29","62.19","862.0","0.0"],
    [1529706,"2026-07-21 13:00:00","751","3.431","74.74","6.042999999999999","98.6","1015.949","28.44","59.55","853.0","0.0"],
    [1529707,"2026-07-21 13:10:00","752","3.2430000000000003","65.47","6.403","38.16","1015.842","28.58","54.95","841.0","0.0"],
    [1529708,"2026-07-21 13:20:00","753","4.407","43.78","8.13","58.59","1015.543","28.58","53.17","832.0","0.0"],
    [1529709,"2026-07-21 13:30:00","754","6.2170000000000005","49.92","7.546","46.83","1015.348","28.4","54.42","820.0","0.0"],
    [1529710,"2026-07-21 13:40:00","755","6.369","49.63","7.905","42.59","1015.333","28.34","54.48","805.0","0.0"],
    [1529711,"2026-07-21 13:50:00","756","6.696000000000001","48.55","9.31","42.69","1015.165","28.4","51.39","792.1","0.0"],
    [1529712,"2026-07-21 14:00:00","757","5.566","45.71","7.971","44.99","1015.319","28.37","52.96","778.5","0.0"],
    [1529713,"2026-07-21 14:10:00","758","5.87","48.4","7.317","50.54","1015.187","28.27","55.7","760.6","0.0"],
    [1529714,"2026-07-21 14:20:00","759","6.031000000000001","47.96","7.775","46.72","1015.018","28.16","59.35","740.9","0.0"],
    [1529715,"2026-07-21 14:30:00","760","5.398","50.47","7.252000000000001","49.91","1015.336","28.15","57.72","719.5","0.0"],
    [1529716,"2026-07-21 14:40:00","761","4.106","41.77","5.815","26.92","1015.487","28.25","58.19","695.7","0.0"],
    [1529717,"2026-07-21 14:50:00","762","2.884","69.19","5.521","109.6","1015.657","28.38","56.74","672.4","0.0"],
    [1529718,"2026-07-21 15:00:00","763","3.0010000000000003","93.8","4.4430000000000005","100.8","1015.915","28.39","58.07","650.3","0.0"],
    [1529719,"2026-07-21 15:10:00","764","3.3339999999999996","111.9","4.835","129.1","1016.122","28.29","58.91","627.4","0.0"],
    [1529720,"2026-07-21 15:20:00","765","3.22","105.5","4.345","104.3","1016.013","28.3","59.74","603.2","0.0"],
    [1529721,"2026-07-21 15:30:00","766","2.888","112.4","4.1160000000000005","111.9","1015.877","28.25","58.64","565.4","0.0"],
    [1529722,"2026-07-21 15:40:00","767","2.494","99.0","3.365","82.9","1015.799","28.23","60.15","547.9","0.0"],
    [1529723,"2026-07-21 15:50:00","768","1.7109999999999999","119.3","2.548","109.0","1016.084","28.33","60.67","446.7","0.0"],
    [1529724,"2026-07-21 16:00:00","769","1.861","120.4","2.875","117.0","1016.095","28.24","59.64","408.0","0.0"],
    [1529725,"2026-07-21 16:10:00","770","2.327","91.6","3.299","88.7","1015.889","28.25","59.68","456.8","0.0"],
    [1529726,"2026-07-21 16:20:00","771","1.617","105.6","2.679","104.9","1016.061","28.5","58.22","429.4","0.0"],
    [1529727,"2026-07-21 16:30:00","772","2.0669999999999997","114.5","3.103","107.9","1016.044","28.25","59.38","365.4","0.0"],
    [1529728,"2026-07-21 16:40:00","773","2.0540000000000003","139.6","2.9730000000000003","151.0","1015.97","28.21","60.9","205.8","0.0"],
    [1529729,"2026-07-21 16:50:00","774","2.122","111.3","2.8089999999999997","94.0","1015.791","28.17","61.02","204.4","0.0"],
    [1529730,"2026-07-21 17:00:00","775","1.9509999999999998","103.5","2.842","95.2","1015.68","28.19","60.72","379.5","0.0"],
    [1529731,"2026-07-21 17:10:00","776","1.4869999999999999","116.9","2.515","144.7","1015.763","28.26","61.15","317.0","0.0"],
    [1529732,"2026-07-21 17:20:00","777","1.3259999999999998","146.5","1.96","159.4","1015.83","28.35","61.22","257.8","0.0"],
    [1529733,"2026-07-21 17:30:00","778","1.122","147.1","1.797","158.6","1015.974","28.4","60.61","224.9","0.0"],
    [1529734,"2026-07-21 17:40:00","779","0.8740000000000001","137.1","1.2409999999999999","159.6","1016.065","28.47","61.33","192.8","0.0"],
    [1529735,"2026-07-21 17:50:00","780","1.633","180.6","2.548","192.0","1016.197","28.57","61.66","163.3","0.0"],
    [1529736,"2026-07-21 18:00:00","781","1.355","190.5","1.797","204.6","1016.22","28.95","61.05","135.3","0.0"],
    [1529737,"2026-07-21 18:10:00","782","1.3419999999999999","150.0","2.189","173.0","1016.194","28.53","61.5","111.2","0.0"],
    [1529738,"2026-07-21 18:20:00","783","1.444","156.0","2.287","174.4","1016.402","28.47","62.53","88.5","0.0"],
    [1529739,"2026-07-21 18:30:00","784","1.79","127.5","2.0909999999999997","126.1","1016.313","28.02","65.3","61.48","0.0"],
    [1529740,"2026-07-21 18:40:00","785","2.31","165.4","2.7439999999999998","169.3","1016.479","28.21","64.61","41.7","0.0"],
    [1529741,"2026-07-21 18:50:00","786","2.1719999999999997","173.3","2.8089999999999997","176.2","1016.548","28.37","64.68","27.85","0.0"],
    [1529742,"2026-07-21 19:00:00","787","1.9880000000000002","179.9","2.7439999999999998","197.2","1016.635","28.37","65.94","16.22","0.0"],
    [1529743,"2026-07-21 19:10:00","788","2.597","198.5","4.018","199.8","1016.896","28.79","58.71","7.917000000000001","0.0"],
    [1529744,"2026-07-21 19:20:00","789","2.7769999999999997","198.6","3.7889999999999997","196.3","1016.982","28.96","58.62","2.503","0.0"],
    [1529745,"2026-07-21 19:30:00","790","3.551","200.5","4.769","205.5","1017.189","28.94","58.39","0.037000000000000005","0.0"],
    [1529746,"2026-07-21 19:40:00","791","1.945","240.7","3.495","203.6","1017.093","28.82","58.68","0.0","0.0"],
    [1529747,"2026-07-21 19:50:00","792","1.8430000000000002","257.2","3.103","260.1","1017.131","28.78","57.51","0.0","0.0"],
    [1529748,"2026-07-21 20:00:00","793","1.5219999999999998","256.1","3.593","257.3","1017.229","28.81","57.63","0.0","0.0"],
    [1529749,"2026-07-21 20:10:00","794","1.278","261.2","2.907","262.6","1017.278","28.8","56.17","0.0","0.0"],
    [1529750,"2026-07-21 20:20:00","795","1.178","227.1","2.6460000000000004","209.8","1017.276","28.85","53.32","0.0","0.0"],
    [1529751,"2026-07-21 20:30:00","796","0.43799999999999994","287.2","1.176","254.6","1017.188","28.91","51.75","0.0","0.0"],
    [1529752,"2026-07-21 20:40:00","797","1.933","326.5","3.005","334.2","1017.02","28.77","53.77","0.0","0.0"],
    [1529753,"2026-07-21 20:50:00","798","1.867","328.6","2.613","324.9","1017.115","28.87","50.91","0.0","0.0"],
    [1529754,"2026-07-21 21:00:00","799","1.796","4.053","2.319","9.14","1017.061","28.87","54.44","0.0","0.0"],
    [1529755,"2026-07-21 21:10:00","800","1.304","22.58","1.699","31.98","1017.048","28.59","56.9","0.0","0.0"],
    [1529756,"2026-07-21 21:20:00","801","1.6769999999999998","10.98","2.45","6.086","1016.994","28.64","57.97","0.0","0.0"],
    [1529757,"2026-07-21 21:30:00","802","2.42","15.28","4.671","18.19","1016.972","28.91","52.44","0.0","0.0"],
    [1529758,"2026-07-21 21:40:00","803","3.19","17.8","4.181","22.85","1016.797","29.1","53.5","0.0","0.0"],
    [1529759,"2026-07-21 21:50:00","804","3.582","23.22","4.541","18.35","1016.621","28.98","54.63","0.0","0.0"],
    [1529760,"2026-07-21 22:00:00","805","3.3539999999999996","16.0","4.1160000000000005","16.31","1016.541","29.02","53.83","0.0","0.0"],
    [1529761,"2026-07-21 22:10:00","806","2.524","357.6","4.312","0.06","1016.477","29.21","50.52","0.0","0.0"],
    [1529762,"2026-07-21 22:20:00","807","3.117","5.11","4.606","13.06","1016.468","29.35","48.27","0.0","0.0"],
    [1529763,"2026-07-21 22:30:00","808","2.542","356.3","4.573","341.1","1016.508","29.63","44.92","0.0","0.0"],
    [1529764,"2026-07-21 22:40:00","809","2.6910000000000003","6.712000000000001","4.083","2.573","1016.477","29.49","46.37","0.0","0.0"],
    [1529765,"2026-07-21 22:50:00","810","2.875","16.36","3.7889999999999997","12.43","1016.379","29.47","48.39","0.0","0.0"],
    [1529766,"2026-07-21 23:00:00","811","2.5660000000000003","7.485","3.6260000000000003","357.4","1016.361","29.33","49.61","0.0","0.0"],
    [1529767,"2026-07-21 23:10:00","812","2.097","10.27","3.7889999999999997","2.5860000000000003","1016.418","29.41","48.42","0.0","0.0"],
    [1529768,"2026-07-21 23:20:00","813","2.312","19.39","2.9730000000000003","21.02","1016.37","29.11","52.72","0.0","0.0"],
    [1529769,"2026-07-21 23:30:00","814","1.751","29.73","2.515","23.94","1016.431","29.29","49.18","0.0","0.0"],
    [1529770,"2026-07-21 23:40:00","815","2.278","21.74","2.7110000000000003","18.35","1016.263","29.34","50.98","0.0","0.0"],
    [1529771,"2026-07-21 23:50:00","816","1.489","53.98","2.287","29.33","1016.214","29.43","47.93","0.0","0.0"],
    [1529772,"2026-07-22 00:00:00","817","0.528","277.5","1.535","270.0","1016.392","29.13","50.84","0.0","0.0"],
    [1529773,"2026-07-22 00:10:00","818","1.857","265.6","2.613","271.7","1016.403","28.64","46.12","0.0","0.0"],
    [1529774,"2026-07-22 00:20:00","819","1.7080000000000002","249.8","2.319","255.7","1016.469","28.57","45.94","0.0","0.0"],
    [1529775,"2026-07-22 00:30:00","820","1.594","252.8","2.7110000000000003","266.1","1016.683","28.64","45.51","0.0","0.0"],
    [1529776,"2026-07-22 00:40:00","821","1.828","266.5","2.0909999999999997","265.4","1016.716","28.25","47.27","0.0","0.0"],
    [1529777,"2026-07-22 00:50:00","822","1.317","270.6","1.829","270.5","1016.635","28.04","48.54","0.0","0.0"],
    [1529778,"2026-07-22 01:00:00","823","0.278","246.5","0.9470000000000001","270.3","1016.803","27.95","49.72","0.0","0.0"],
    [1529779,"2026-07-22 01:10:00","824","1.3259999999999998","92.8","2.548","62.31","1017.177","28.11","53.44","0.0","0.0"],
    [1529780,"2026-07-22 01:20:00","825","2.7289999999999996","60.7","5.1610000000000005","61.66","1017.221","28.37","58.03","0.0","0.0"],
    [1529781,"2026-07-22 01:30:00","826","3.2460000000000004","63.84","4.606","74.8","1017.167","28.36","62.55","0.0","0.0"],
    [1529782,"2026-07-22 01:40:00","827","3.1660000000000004","47.79","4.4430000000000005","56.81","1017.258","28.2","66.58","0.0","0.0"],
    [1529783,"2026-07-22 01:50:00","828","3.444","69.64","5.4879999999999995","75.04","1017.385","28.36","59.92","0.0","0.0"],
    [1529784,"2026-07-22 02:00:00","829","4.756","69.97","7.023","55.64","1017.472","28.76","52.23","0.0","0.0"],
    [1529785,"2026-07-22 02:10:00","830","6.66","58.64","9.34","52.75","1017.431","28.87","48.42","0.0","0.0"],
    [1529786,"2026-07-22 02:20:00","831","6.898","51.99","9.05","47.81","1017.421","28.74","47.91","0.0","0.0"],
    [1529787,"2026-07-22 02:30:00","832","7.357","47.85","9.7","53.07","1017.465","28.71","47.89","0.0","0.0"],
    [1529788,"2026-07-22 02:40:00","833","7.313","47.71","9.44","61.79","1017.488","28.66","47.69","0.0","0.0"],
    [1529789,"2026-07-22 02:50:00","834","7.132000000000001","49.79","9.31","44.4","1017.581","28.57","45.55","0.0","0.0"],
    [1529790,"2026-07-22 03:00:00","835","6.523","49.54","8.49","44.12","1017.583","28.51","45.09","0.0","0.0"],
    [1529791,"2026-07-22 03:10:00","836","6.1","53.98","8.89","56.44","1017.534","28.43","47.11","0.0","0.0"],
    [1529792,"2026-07-22 03:20:00","837","6.471","54.35","8.89","55.32","1017.512","28.41","45.38","0.0","0.0"],
    [1529793,"2026-07-22 03:30:00","838","6.022","51.18","7.709","49.12","1017.556","28.36","48.0","0.0","0.0"],
    [1529794,"2026-07-22 03:40:00","839","6.781000000000001","40.01","9.28","42.79","1017.652","28.29","47.42","0.0","0.0"],
    [1529795,"2026-07-22 03:50:00","840","7.314","42.64","9.05","47.49","1017.695","28.26","43.86","0.0","0.0"],
    [1529796,"2026-07-22 04:00:00","841","6.032","56.22","8.04","45.92","1017.739","28.07","44.68","0.0","0.0"],
    [1529797,"2026-07-22 04:10:00","842","5.962000000000001","55.78","8.0","63.75","1017.635","27.87","47.09","0.0","0.0"],
    [1529798,"2026-07-22 04:20:00","843","6.395","46.2","8.23","34.2","1017.679","28.01","44.33","0.0","0.0"],
    [1529799,"2026-07-22 04:30:00","844","6.355","44.71","8.04","46.31","1017.831","27.98","43.06","0.0","0.0"],
    [1529800,"2026-07-22 04:40:00","845","6.4239999999999995","48.69","8.56","44.85","1017.716","27.87","44.63","1.38","0.0"],
    [1529801,"2026-07-22 04:50:00","846","5.773","51.53","8.07","51.86","1017.715","27.69","47.72","6.699","0.0"],
    [1529802,"2026-07-22 05:00:00","847","6.292000000000001","59.36","8.46","59.4","1017.68","27.56","47.27","16.09","0.0"],
    [1529803,"2026-07-22 05:10:00","848","6.303999999999999","63.25","8.3","49.22","1017.75","27.41","48.27","29.04","0.0"],
    [1529804,"2026-07-22 05:20:00","849","5.797999999999999","59.77","7.579","65.12","1017.789","27.3","50.58","45.42","0.0"],
    [1529805,"2026-07-22 05:30:00","850","5.3839999999999995","57.24","6.957999999999999","62.95","1017.768","27.25","52.45","62.93","0.0"],
    [1529806,"2026-07-22 05:40:00","851","4.938","42.92","6.893","51.94","1017.789","27.18","54.09","80.4","0.0"],
    [1529807,"2026-07-22 05:50:00","852","4.23","33.68","6.893","27.81","1017.885","27.1","53.26","100.2","0.0"],
    [1529808,"2026-07-22 06:00:00","853","4.5760000000000005","54.42","6.7620000000000005","53.72","1017.669","27.13","55.35","125.0","0.0"],
    [1529809,"2026-07-22 06:10:00","854","4.354","43.62","6.403","83.7","1017.74","27.08","55.89","149.9","0.0"],
    [1529810,"2026-07-22 06:20:00","855","3.759","36.05","5.325","25.82","1017.875","27.07","54.66","174.8","0.0"],
    [1529811,"2026-07-22 06:30:00","856","3.865","40.89","5.227","39.94","1017.78","27.02","55.48","204.2","0.0"],
    [1529812,"2026-07-22 06:40:00","857","3.582","41.17","4.671","39.52","1018.018","27.03","57.13","232.0","0.0"],
    [1529813,"2026-07-22 06:50:00","858","3.3930000000000002","38.5","4.671","24.24","1018.111","26.97","55.37","263.4","0.0"],
    [1529814,"2026-07-22 07:00:00","859","2.9610000000000003","34.53","4.051","52.32","1018.27","27.04","54.56","291.7","0.0"],
    [1529815,"2026-07-22 07:10:00","860","2.972","44.58","4.1160000000000005","24.68","1018.281","27.07","56.26","324.7","0.0"],
    [1529816,"2026-07-22 07:20:00","861","2.602","53.66","3.855","43.08","1018.321","27.1","55.61","357.0","0.0"],
    [1529817,"2026-07-22 07:30:00","862","3.062","54.41","4.606","45.03","1018.355","27.18","56.86","387.0","0.0"],
    [1529818,"2026-07-22 07:40:00","863","3.3760000000000003","55.72","4.312","55.13","1018.464","27.16","57.94","417.5","0.0"],
    [1529819,"2026-07-22 07:50:00","864","3.0389999999999997","64.18","4.345","63.61","1018.577","27.28","57.75","446.2","0.0"],
    [1529820,"2026-07-22 08:00:00","865","3.116","72.69","4.41","79.23","1018.576","27.28","55.83","476.7","0.0"],
    [1529821,"2026-07-22 08:10:00","866","3.27","73.52","4.2139999999999995","75.02","1018.463","27.3","54.14","505.8","0.0"],
    [1529822,"2026-07-22 08:20:00","867","3.991","65.42","5.782","75.59","1018.395","27.44","52.87","532.3","0.0"],
    [1529823,"2026-07-22 08:30:00","868","4.49","65.84","6.239","68.37","1018.415","27.52","50.42","561.2","0.0"],
    [1529824,"2026-07-22 08:40:00","869","5.476","68.98","6.697","56.04","1018.485","27.62","47.13","592.2","0.0"],
    [1529825,"2026-07-22 08:50:00","870","4.508","68.4","6.272","69.33","1018.537","27.59","47.51","623.1","0.0"],
    [1529826,"2026-07-22 09:00:00","871","4.428999999999999","73.92","5.619","68.06","1018.59","27.5","47.82","648.2","0.0"],
    [1529827,"2026-07-22 09:10:00","872","4.207","72.05","5.782","71.34","1018.653","27.55","47.99","672.0","0.0"],
    [1529828,"2026-07-22 09:20:00","873","4.437","74.57","5.325","74.3","1018.764","27.49","47.62","696.2","0.0"],
    [1529829,"2026-07-22 09:30:00","874","4.663","76.17","5.815","72.38","1018.567","27.45","50.57","717.5","0.0"],
    [1529830,"2026-07-22 09:40:00","875","4.402","79.33","5.651","81.3","1018.623","27.45","52.02","734.4","0.0"],
    [1529831,"2026-07-22 09:50:00","876","4.551","77.46","5.88","80.0","1018.483","27.25","54.43","754.5","0.0"],
    [1529832,"2026-07-22 10:00:00","877","4.463","75.48","5.88","79.67","1018.515","27.34","53.48","770.3","0.0"],
    [1529833,"2026-07-22 10:10:00","878","4.707","78.43","5.782","81.2","1018.607","27.27","54.28","789.4","0.0"],
    [1529834,"2026-07-22 10:20:00","879","4.648","77.8","6.1739999999999995","76.79","1018.719","27.25","56.32","808.0","0.0"],
    [1529835,"2026-07-22 10:30:00","880","4.243","82.6","5.4879999999999995","77.07","1018.722","27.26","57.69","803.0","0.0"],
    [1529836,"2026-07-22 10:40:00","881","4.665","80.7","5.651","76.0","1018.685","27.39","55.84","841.0","0.0"],
    [1529837,"2026-07-22 10:50:00","882","4.2410000000000005","85.2","5.1610000000000005","84.7","1018.861","27.36","57.72","852.0","0.0"],
    [1529838,"2026-07-22 11:00:00","883","4.863","84.4","6.109","83.4","1018.782","27.35","57.5","862.0","0.0"],
    [1529839,"2026-07-22 11:10:00","884","4.59","88.8","6.403","93.6","1018.88","27.39","57.68","879.0","0.0"],
    [1529840,"2026-07-22 11:20:00","885","4.785","84.2","6.011","92.9","1018.897","27.4","56.5","887.0","0.0"],
    [1529841,"2026-07-22 11:30:00","886","4.4430000000000005","83.5","5.651","81.9","1018.874","27.44","57.82","894.0","0.0"],
    [1529842,"2026-07-22 11:40:00","887","4.893","79.21","6.0760000000000005","70.78","1018.81","27.37","57.17","898.0","0.0"],
    [1529843,"2026-07-22 11:50:00","888","4.803999999999999","75.52","6.925","80.4","1018.771","27.39","55.65","901.0","0.0"],
    [1529844,"2026-07-22 12:00:00","889","5.015","87.6","6.729","92.5","1018.627","27.3","57.3","892.0","0.0"],
    [1529845,"2026-07-22 12:10:00","890","4.968999999999999","90.7","6.1739999999999995","84.9","1018.663","27.33","57.28","905.0","0.0"],
    [1529846,"2026-07-22 12:20:00","891","4.613","94.2","6.207000000000001","93.6","1018.648","27.48","55.55","909.0","0.0"],
    [1529847,"2026-07-22 12:30:00","892","5.172999999999999","97.7","6.795","86.1","1018.592","27.52","55.53","901.0","0.0"],
    [1529848,"2026-07-22 12:40:00","893","5.23","99.1","6.272","103.7","1018.438","27.46","56.89","894.0","0.0"],
    [1529849,"2026-07-22 12:50:00","894","5.019","98.0","6.5329999999999995","108.7","1018.349","27.43","58.45","820.0","0.0"],
    [1529850,"2026-07-22 13:00:00","895","5.712999999999999","101.0","6.9910000000000005","109.2","1018.017","27.28","58.69","814.0","0.0"],
    [1529851,"2026-07-22 13:10:00","896","4.663","108.6","6.5329999999999995","101.8","1018.302","27.38","58.32","886.0","0.0"],
    [1529852,"2026-07-22 13:20:00","897","4.504","113.5","5.455","118.8","1018.414","27.38","58.53","859.0","0.0"],
    [1529853,"2026-07-22 13:30:00","898","4.425","115.3","5.357","117.0","1018.407","27.31","59.23","840.0","0.0"],
    [1529854,"2026-07-22 13:40:00","899","4.245","115.1","5.096","110.7","1018.3","27.42","57.96","830.0","0.0"],
    [1529855,"2026-07-22 13:50:00","900","3.9739999999999998","122.4","4.933","129.4","1018.266","27.53","57.78","804.0","0.0"],
    [1529856,"2026-07-22 14:00:00","901","3.8680000000000003","117.8","5.031000000000001","136.3","1018.062","27.52","57.53","803.0","0.0"],
    [1529857,"2026-07-22 14:10:00","902","3.0639999999999996","123.6","4.1160000000000005","131.9","1018.064","27.53","60.0","681.0","0.0"],
    [1529858,"2026-07-22 14:20:00","903","3.176","124.8","4.083","122.3","1018.013","27.6","59.68","680.7","0.0"],
    [1529859,"2026-07-22 14:30:00","904","3.387","136.8","4.149","142.8","1018.088","27.63","57.1","623.4","0.0"],
    [1529860,"2026-07-22 14:40:00","905","3.7689999999999997","116.5","4.867","115.3","1017.749","27.62","56.65","761.2","0.0"],
    [1529861,"2026-07-22 14:50:00","906","3.2110000000000003","122.6","4.769","116.1","1017.632","27.63","59.28","677.5","0.0"],
    [1529862,"2026-07-22 15:00:00","907","2.605","116.0","3.7569999999999997","104.0","1017.733","27.66","60.26","327.3","0.0"],
    [1529863,"2026-07-22 15:10:00","908","3.865","100.8","5.357","90.7","1016.936","27.41","61.69","175.4","0.0"],
    [1529864,"2026-07-22 15:20:00","909","3.2960000000000003","108.1","4.867","112.3","1016.829","27.36","62.33","253.2","0.0"],
    [1529865,"2026-07-22 15:30:00","910","2.628","121.8","3.593","117.2","1017.194","27.39","61.96","402.4","0.0"],
    [1529866,"2026-07-22 15:40:00","911","2.888","121.2","4.083","109.1","1017.053","27.43","61.29","503.3","0.0"],
    [1529867,"2026-07-22 15:50:00","912","2.2319999999999998","134.4","3.071","140.0","1017.167","27.49","61.1","584.3","0.0"],
    [1529868,"2026-07-22 16:00:00","913","1.791","141.1","2.94","143.4","1017.333","27.73","60.48","516.4","0.0"],
    [1529869,"2026-07-22 16:10:00","914","2.6519999999999997","152.1","4.083","167.6","1017.376","27.64","61.68","377.2","0.0"],
    [1529870,"2026-07-22 16:20:00","915","2.6189999999999998","169.9","3.332","160.6","1017.446","27.79","62.21","364.4","0.0"],
    [1529871,"2026-07-22 16:30:00","916","3.625","165.2","4.41","173.2","1017.405","27.88","62.25","420.1","0.0"],
    [1529872,"2026-07-22 16:40:00","917","3.438","162.2","4.606","160.1","1017.199","27.73","62.0","381.4","0.0"],
    [1529873,"2026-07-22 16:50:00","918","2.9760000000000004","157.7","3.6260000000000003","171.0","1016.944","27.81","62.68","284.9","0.0"],
    [1529874,"2026-07-22 17:00:00","919","2.8280000000000003","110.5","3.6910000000000003","116.5","1016.467","27.39","61.98","227.9","0.0"],
    [1529875,"2026-07-22 17:10:00","920","2.6519999999999997","96.6","3.6910000000000003","93.8","1016.368","27.44","62.08","231.3","0.0"],
    [1529876,"2026-07-22 17:20:00","921","2.7710000000000004","92.5","3.6910000000000003","85.1","1016.459","27.39","64.0","245.0","0.0"],
    [1529877,"2026-07-22 17:30:00","922","2.968","95.2","3.822","92.6","1016.432","27.24","65.2","214.3","0.0"],
    [1529878,"2026-07-22 17:40:00","923","2.945","90.6","3.822","96.7","1016.308","27.19","63.38","192.7","0.0"],
    [1529879,"2026-07-22 17:50:00","924","3.1630000000000003","70.98","3.9530000000000003","73.44","1016.26","27.23","64.57","157.5","0.0"],
    [1529880,"2026-07-22 18:00:00","925","3.405","64.44","4.835","70.43","1016.195","27.18","66.57","120.1","0.0"],
    [1529881,"2026-07-22 18:10:00","926","3.1319999999999997","60.3","4.965","20.79","1016.316","27.12","67.73","126.4","0.0"],
    [1529882,"2026-07-22 18:20:00","927","3.5010000000000003","66.46","4.933","76.61","1016.288","27.0","68.39","105.4","0.0"],
    [1529883,"2026-07-22 18:30:00","928","2.908","72.95","4.769","102.6","1016.403","26.97","68.34","86.3","0.0"],
    [1529884,"2026-07-22 18:40:00","929","2.725","66.14","4.181","100.0","1016.463","26.94","67.3","63.51","0.0"],
    [1529885,"2026-07-22 18:50:00","930","2.772","67.37","3.9530000000000003","76.25","1016.371","27.0","67.04","42.2","0.0"],
    [1529886,"2026-07-22 19:00:00","931","2.758","60.89","4.312","76.04","1016.403","26.96","67.01","27.96","0.0"],
    [1529887,"2026-07-22 19:10:00","932","2.1719999999999997","69.03","3.267","61.58","1016.654","26.98","67.09","13.28","0.0"],
    [1529888,"2026-07-22 19:20:00","933","2.316","63.42","3.005","62.13","1016.671","26.91","66.79","5.932","0.0"],
    [1529889,"2026-07-22 19:30:00","934","2.4330000000000003","63.55","3.528","88.6","1016.793","26.9","66.6","0.9059999999999999","0.0"],
    [1529890,"2026-07-22 19:40:00","935","2.481","63.77","3.5610000000000004","61.45","1016.827","26.89","67.08","0.0","0.0"],
    [1529891,"2026-07-22 19:50:00","936","2.698","64.11","3.822","62.32","1016.781","26.85","67.25","0.0","0.0"],
    [1529892,"2026-07-22 20:00:00","937","2.6510000000000002","59.85","3.855","61.01","1016.793","26.81","66.29","0.0","0.0"],
    [1529893,"2026-07-22 20:10:00","938","2.838","51.54","4.2139999999999995","36.16","1016.663","26.84","67.05","0.0","0.0"],
    [1529894,"2026-07-22 20:20:00","939","2.858","43.99","4.247","45.02","1016.645","26.84","67.37","0.0","0.0"],
    [1529895,"2026-07-22 20:30:00","940","2.775","57.19","3.92","42.9","1016.87","26.76","66.23","0.0","0.0"],
    [1529896,"2026-07-22 20:40:00","941","3.397","56.52","4.345","64.07","1016.696","26.73","66.68","0.0","0.0"],
    [1529897,"2026-07-22 20:50:00","942","2.662","59.07","3.92","44.42","1017.037","26.68","66.96","0.0","0.0"],
    [1529898,"2026-07-22 21:00:00","943","2.396","60.58","3.136","68.28","1017.095","26.64","67.34","0.0","0.0"],
    [1529899,"2026-07-22 21:10:00","944","1.98","61.16","2.679","55.31","1017.292","26.63","67.33","0.0","0.0"],
    [1529900,"2026-07-22 21:20:00","945","1.683","63.92","2.483","69.25","1017.34","26.63","65.79","0.0","0.0"],
    [1529901,"2026-07-22 21:30:00","946","1.805","70.84","2.548","54.16","1017.338","26.73","64.36","0.0","0.0"],
    [1529902,"2026-07-22 21:40:00","947","1.749","61.5","2.548","44.66","1017.359","26.72","66.0","0.0","0.0"],
    [1529903,"2026-07-22 21:50:00","948","2.079","73.76","2.875","69.43","1017.21","26.63","67.24","0.0","0.0"],
    [1529904,"2026-07-22 22:00:00","949","1.474","71.52","2.417","79.14","1017.346","26.59","67.61","0.0","0.0"],
    [1529905,"2026-07-22 22:10:00","950","1.475","83.2","2.123","58.62","1017.425","26.62","68.15","0.0","0.0"],
    [1529906,"2026-07-22 22:20:00","951","1.248","86.3","2.0580000000000003","70.42","1017.514","26.56","66.62","0.0","0.0"],
    [1529907,"2026-07-22 22:30:00","952","0.9329999999999999","124.3","1.339","143.3","1017.62","26.6","67.12","0.0","0.0"],
    [1529908,"2026-07-22 22:40:00","953","1.109","124.8","1.568","145.9","1017.64","26.59","67.15","0.0","0.0"],
    [1529909,"2026-07-22 22:50:00","954","0.769","76.84","1.013","76.23","1017.447","26.55","67.48","0.0","0.0"],
    [1529910,"2026-07-22 23:00:00","955","0.376","78.58","1.045","80.3","1017.275","26.53","67.45","0.0","0.0"],
    [1529911,"2026-07-22 23:10:00","956","0.0","0.0","0.0","0.0","1017.065","26.48","66.91","0.0","0.0"],
    [1529912,"2026-07-22 23:20:00","957","0.691","15.17","1.2409999999999999","17.9","1016.857","26.58","67.74","0.0","0.0"],
    [1529913,"2026-07-22 23:30:00","958","1.209","27.08","1.9269999999999998","47.85","1016.732","26.58","68.89","0.0","0.0"],
    [1529914,"2026-07-22 23:40:00","959","1.555","53.48","2.352","69.88","1016.587","26.52","69.05","0.0","0.0"],
    [1529915,"2026-07-22 23:50:00","960","1.7480000000000002","65.54","2.189","57.6","1016.452","26.49","69.46","0.0","0.0"],
    [1529916,"2026-07-23 00:00:00","961","1.599","57.66","2.417","47.46","1016.472","26.47","69.36","0.0","0.0"],
    [1529917,"2026-07-23 00:10:00","962","1.6909999999999998","60.17","2.352","48.05","1016.301","26.45","69.1","0.0","0.0"],
    [1529918,"2026-07-23 00:20:00","963","1.817","47.55","2.352","59.86","1016.193","26.47","69.8","0.0","0.0"],
    [1529919,"2026-07-23 00:30:00","964","1.889","52.41","2.6460000000000004","43.29","1016.036","26.48","70.7","0.0","0.0"],
    [1529920,"2026-07-23 00:40:00","965","1.8980000000000001","33.25","2.483","43.92","1015.898","26.44","69.72","0.0","0.0"],
    [1529921,"2026-07-23 00:50:00","966","0.9640000000000001","38.8","1.47","37.72","1015.83","26.43","68.82","0.0","0.0"],
    [1529922,"2026-07-23 01:00:00","967","0.66","37.14","1.143","46.31","1015.731","26.45","69.08","0.0","0.0"],
    [1529923,"2026-07-23 01:10:00","968","0.21100000000000002","15.72","1.143","16.25","1015.689","26.39","68.69","0.0","0.0"],
    [1529924,"2026-07-23 01:20:00","969","0.055","287.4","1.209","283.7","1015.642","26.33","68.21","0.0","0.0"],
    [1529925,"2026-07-23 01:30:00","970","0.9640000000000001","254.9","2.156","259.6","1015.55","26.2","66.68","0.0","0.0"],
    [1529926,"2026-07-23 01:40:00","971","1.256","257.1","1.764","246.2","1015.545","26.13","65.04","0.0","0.0"],
    [1529927,"2026-07-23 01:50:00","972","1.4780000000000002","262.5","2.025","260.0","1015.506","26.06","64.16","0.0","0.0"],
    [1529928,"2026-07-23 02:00:00","973","1.486","260.0","2.45","262.8","1015.448","25.94","63.67","0.0","0.0"],
    [1529929,"2026-07-23 02:10:00","974","1.3230000000000002","256.9","2.0580000000000003","268.3","1015.359","25.88","62.91","0.0","0.0"],
    [1529930,"2026-07-23 02:20:00","975","1.422","257.4","1.895","253.7","1015.31","25.92","62.31","0.0","0.0"],
    [1529931,"2026-07-23 02:30:00","976","1.087","261.7","1.764","262.8","1015.284","25.84","62.13","0.0","0.0"],
    [1529932,"2026-07-23 02:40:00","977","1.3119999999999998","264.9","1.699","260.9","1015.266","25.85","61.79","0.0","0.0"],
    [1529933,"2026-07-23 02:50:00","978","1.235","269.1","1.764","267.9","1015.249","25.83","61.42","0.0","0.0"],
    [1529934,"2026-07-23 03:00:00","979","1.158","271.7","1.797","259.7","1015.186","25.73","61.71","0.0","0.0"],
    [1529935,"2026-07-23 03:10:00","980","1.032","268.8","1.666","258.0","1015.105","25.72","61.2","0.0","0.0"],
    [1529936,"2026-07-23 03:20:00","981","1.538","261.1","1.993","257.7","1015.057","25.76","61.13","0.0","0.0"],
    [1529937,"2026-07-23 03:30:00","982","1.165","275.4","1.764","263.9","1014.975","25.8","60.1","0.0","0.0"],
    [1529938,"2026-07-23 03:40:00","983","0.4","281.3","1.176","274.3","1014.864","25.76","60.2","0.0","0.0"],
    [1529939,"2026-07-23 03:50:00","984","0.8270000000000001","280.7","1.143","267.4","1014.858","25.88","59.88","0.0","0.0"],
    [1529940,"2026-07-23 04:00:00","985","0.675","267.8","1.111","271.2","1014.814","25.89","59.98","0.0","0.0"],
    [1529941,"2026-07-23 04:10:00","986","1.239","267.0","1.568","260.2","1014.827","25.92","60.63","0.0","0.0"],
    [1529942,"2026-07-23 04:20:00","987","1.187","278.1","1.633","285.2","1014.765","25.81","60.43","0.0","0.0"],
    [1529943,"2026-07-23 04:30:00","988","0.909","261.0","1.307","265.9","1014.719","25.88","58.88","0.0","0.0"],
    [1529944,"2026-07-23 04:40:00","989","1.4140000000000001","275.2","1.829","282.4","1014.731","25.93","56.56","0.308","0.0"],
    [1529945,"2026-07-23 04:50:00","990","1.321","270.7","1.829","296.5","1014.804","26.0","54.87","4.152","0.0"],
    [1529946,"2026-07-23 05:00:00","991","1.4480000000000002","286.2","1.96","284.0","1014.819","25.99","54.28","12.13","0.0"],
    [1529947,"2026-07-23 05:10:00","992","1.476","265.5","1.8619999999999999","264.8","1014.875","26.0","54.31","23.77","0.0"],
    [1529948,"2026-07-23 05:20:00","993","1.386","273.8","1.895","274.2","1014.877","25.94","55.0","38.2","0.0"],
    [1529949,"2026-07-23 05:30:00","994","0.9990000000000001","284.8","1.3719999999999999","289.2","1014.887","26.14","55.16","54.96","0.0"],
    [1529950,"2026-07-23 05:40:00","995","0.353","286.4","0.8490000000000001","262.0","1014.886","26.39","54.97","72.99","0.0"],
    [1529951,"2026-07-23 05:50:00","996","0.0","0.0","0.0","0.0","1014.974","26.93","54.96","93.5","0.0"],
    [1529952,"2026-07-23 06:00:00","997","0.0","0.0","0.0","0.0","1015.071","27.38","56.8","116.2","0.0"],
    [1529953,"2026-07-23 06:10:00","998","0.092","76.24","0.653","94.5","1015.084","27.55","58.32","141.6","0.0"],
    [1529954,"2026-07-23 06:20:00","999","0.971","50.4","1.797","48.62","1015.099","27.19","62.99","169.9","0.0"],
    [1529955,"2026-07-23 06:30:00","1000","0.6779999999999999","65.92","1.3719999999999999","79.47","1015.203","27.08","62.67","195.5","0.0"],
    [1529956,"2026-07-23 06:40:00","1001","0.5760000000000001","71.98","1.3719999999999999","81.3","1015.126","27.53","60.89","223.3","0.0"],
    [1529957,"2026-07-23 06:50:00","1002","0.263","91.9","1.797","75.28","1015.17","27.46","59.97","252.6","0.0"],
    [1529958,"2026-07-23 07:00:00","1003","1.045","105.8","1.829","89.0","1015.23","27.46","60.6","285.4","0.0"],
    [1529959,"2026-07-23 07:10:00","1004","1.023","80.5","1.666","83.5","1015.26","27.32","61.1","319.2","0.0"],
    [1529960,"2026-07-23 07:20:00","1005","1.565","46.72","2.613","41.11","1015.309","27.36","60.46","353.0","0.0"],
    [1529961,"2026-07-23 07:30:00","1006","1.7169999999999999","47.63","2.7110000000000003","55.29","1015.335","27.27","59.91","386.3","0.0"],
    [1529962,"2026-07-23 07:40:00","1007","1.558","46.93","2.254","45.49","1015.405","27.49","56.87","422.1","0.0"],
    [1529963,"2026-07-23 07:50:00","1008","2.061","41.65","3.071","42.51","1015.436","27.62","52.4","457.7","0.0"],
    [1529964,"2026-07-23 08:00:00","1009","2.062","51.47","2.842","48.27","1015.431","27.78","50.72","491.3","0.0"],
    [1529965,"2026-07-23 08:10:00","1010","2.032","53.19","3.005","42.66","1015.501","27.83","50.21","525.0","0.0"],
    [1529966,"2026-07-23 08:20:00","1011","1.349","77.07","3.071","100.9","1015.574","28.14","50.28","554.3","0.0"],
    [1529967,"2026-07-23 08:30:00","1012","1.838","97.2","2.7439999999999998","105.5","1015.626","27.88","52.04","588.7","0.0"],
    [1529968,"2026-07-23 08:40:00","1013","2.1590000000000003","96.0","3.1689999999999996","90.5","1015.685","27.83","55.19","617.1","0.0"],
    [1529969,"2026-07-23 08:50:00","1014","2.197","96.0","3.7569999999999997","103.8","1015.736","27.59","59.05","641.9","0.0"],
    [1529970,"2026-07-23 09:00:00","1015","1.7930000000000001","83.9","3.659","48.45","1015.734","27.83","58.94","663.8","0.0"],
    [1529971,"2026-07-23 09:10:00","1016","2.64","97.8","4.051","98.4","1015.749","27.7","61.72","692.7","0.0"],
    [1529972,"2026-07-23 09:20:00","1017","3.0260000000000002","98.0","4.279","91.2","1015.77","27.52","63.54","716.0","0.0"],
    [1529973,"2026-07-23 09:30:00","1018","2.964","91.5","3.822","81.0","1015.788","27.51","65.26","739.7","0.0"],
    [1529974,"2026-07-23 09:40:00","1019","2.983","93.4","3.9530000000000003","94.2","1015.795","27.57","64.42","761.9","0.0"],
    [1529975,"2026-07-23 09:50:00","1020","3.157","95.1","4.4430000000000005","98.4","1015.79","27.53","65.92","780.9","0.0"],
    [1529976,"2026-07-23 10:00:00","1021","3.187","93.4","4.4430000000000005","94.0","1015.818","27.62","68.05","797.3","0.0"],
    [1529977,"2026-07-23 10:10:00","1022","2.8689999999999998","89.7","4.508","95.9","1015.824","27.52","68.02","813.0","0.0"],
    [1529978,"2026-07-23 10:20:00","1023","2.401","56.78","4.41","42.67","1015.884","27.88","60.93","830.0","0.0"],
    [1529979,"2026-07-23 10:30:00","1024","2.094","56.13","4.835","45.17","1015.923","27.82","57.84","847.0","0.0"],
    [1529980,"2026-07-23 10:40:00","1025","2.634","75.44","4.541","57.73","1015.931","28.05","58.28","866.0","0.0"],
    [1529981,"2026-07-23 10:50:00","1026","3.136","95.8","4.802","98.1","1015.87","27.67","58.2","881.0","0.0"],
    [1529982,"2026-07-23 11:00:00","1027","3.534","98.6","4.867","109.8","1015.806","27.86","54.03","895.0","0.0"],
    [1529983,"2026-07-23 11:10:00","1028","3.7510000000000003","103.1","5.227","94.9","1015.769","28.03","52.91","907.0","0.0"],
    [1529984,"2026-07-23 11:20:00","1029","3.819","100.8","5.1610000000000005","97.0","1015.729","28.06","51.87","920.0","0.0"],
    [1529985,"2026-07-23 11:30:00","1030","4.15","105.3","5.422999999999999","113.4","1015.714","27.97","50.38","929.0","0.0"],
    [1529986,"2026-07-23 11:40:00","1031","3.863","108.5","5.292000000000001","104.0","1015.685","27.92","52.98","936.0","0.0"],
    [1529987,"2026-07-23 11:50:00","1032","3.822","121.4","5.194","121.9","1015.606","27.91","51.58","936.0","0.0"],
    [1529988,"2026-07-23 12:00:00","1033","3.677","125.8","4.933","125.3","1015.521","27.92","53.47","934.0","0.0"],
    [1529989,"2026-07-23 12:10:00","1034","3.64","123.7","4.998","116.2","1015.363","27.83","54.78","931.0","0.0"],
    [1529990,"2026-07-23 12:20:00","1035","3.5410000000000004","119.8","4.312","134.7","1015.33","27.72","55.01","923.0","0.0"],
    [1529991,"2026-07-23 12:30:00","1036","3.26","114.2","4.018","103.4","1015.272","27.84","56.87","923.0","0.0"],
    [1529992,"2026-07-23 12:40:00","1037","2.8930000000000002","110.2","3.7239999999999998","116.9","1015.235","27.79","55.87","917.0","0.0"],
    [1529993,"2026-07-23 12:50:00","1038","3.2","115.5","4.247","99.7","1015.078","27.79","56.32","904.0","0.0"],
    [1529994,"2026-07-23 13:00:00","1039","2.6910000000000003","91.6","3.6910000000000003","98.4","1015.056","27.99","55.16","899.0","0.0"],
    [1529995,"2026-07-23 13:10:00","1040","2.806","99.4","4.1160000000000005","116.0","1014.927","27.94","57.49","888.0","0.0"],
    [1529996,"2026-07-23 13:20:00","1041","2.6660000000000004","109.7","4.149","109.0","1014.881","28.04","58.02","873.0","0.0"],
    [1529997,"2026-07-23 13:30:00","1042","3.128","99.8","4.181","92.7","1014.824","27.85","59.98","861.0","0.0"],
    [1529998,"2026-07-23 13:40:00","1043","2.9739999999999998","107.0","4.508","133.4","1014.735","27.78","60.36","849.0","0.0"],
    [1529999,"2026-07-23 13:50:00","1044","2.792","108.0","3.7889999999999997","107.2","1014.667","27.73","60.06","830.0","0.0"],
    [1530000,"2026-07-23 14:00:00","1045","2.907","97.9","3.7239999999999998","88.1","1014.568","27.79","61.84","818.0","0.0"],
    [1530001,"2026-07-23 14:10:00","1046","2.928","92.7","4.279","92.5","1014.438","27.78","61.93","801.0","0.0"],
    [1530002,"2026-07-23 14:20:00","1047","2.593","91.6","3.7239999999999998","96.3","1014.343","27.77","61.75","783.1","0.0"],
    [1530003,"2026-07-23 14:30:00","1048","2.9330000000000003","92.8","4.018","91.0","1014.217","27.74","62.07","763.8","0.0"],
    [1530004,"2026-07-23 14:40:00","1049","2.398","86.2","3.6910000000000003","89.5","1014.167","27.7","62.69","744.0","0.0"],
    [1530005,"2026-07-23 14:50:00","1050","2.457","95.3","4.083","88.5","1013.982","27.75","62.85","723.1","0.0"],
    [1530006,"2026-07-23 15:00:00","1051","2.6039999999999996","99.6","3.822","112.7","1013.948","27.62","63.21","703.7","0.0"],
    [1530007,"2026-07-23 15:10:00","1052","2.551","98.9","3.5610000000000004","87.7","1013.826","27.59","63.99","677.8","0.0"],
    [1530008,"2026-07-23 15:20:00","1053","1.9380000000000002","79.86","3.495","43.78","1013.715","27.69","64.29","644.1","0.0"],
    [1530009,"2026-07-23 15:30:00","1054","2.056","100.8","3.593","103.9","1013.663","27.78","64.49","616.7","0.0"],
    [1530010,"2026-07-23 15:40:00","1055","2.454","94.6","3.7889999999999997","92.6","1013.581","27.51","66.23","598.1","0.0"],
    [1530011,"2026-07-23 15:50:00","1056","2.673","108.4","4.051","111.4","1013.51","27.5","67.0","569.9","0.0"],
    [1530012,"2026-07-23 16:00:00","1057","2.521","124.2","3.887","131.9","1013.531","27.5","67.18","541.2","0.0"],
    [1530013,"2026-07-23 16:10:00","1058","2.7319999999999998","115.0","3.887","119.5","1013.396","27.36","67.92","510.3","0.0"],
    [1530014,"2026-07-23 16:20:00","1059","2.151","107.3","3.7239999999999998","118.9","1013.36","27.47","68.24","472.6","0.0"],
    [1530015,"2026-07-23 16:30:00","1060","2.285","105.2","3.397","88.6","1013.471","27.51","68.84","439.2","0.0"],
    [1530016,"2026-07-23 16:40:00","1061","2.394","70.21","4.1160000000000005","30.31","1013.575","27.43","68.27","410.7","0.0"],
    [1530017,"2026-07-23 16:50:00","1062","3.239","45.04","4.541","50.52","1013.579","27.4","69.14","383.1","0.0"],
    [1530018,"2026-07-23 17:00:00","1063","3.884","49.95","5.2589999999999995","45.98","1013.609","27.2","70.36","354.6","0.0"],
    [1530019,"2026-07-23 17:10:00","1064","4.129","49.14","5.325","52.87","1013.553","27.11","70.31","321.4","0.0"],
    [1530020,"2026-07-23 17:20:00","1065","3.986","47.88","5.684","67.96","1013.564","27.11","70.89","288.5","0.0"],
    [1530021,"2026-07-23 17:30:00","1066","3.3560000000000003","52.36","4.4430000000000005","49.66","1013.491","27.13","71.45","254.4","0.0"],
    [1530022,"2026-07-23 17:40:00","1067","3.008","59.41","4.2139999999999995","43.76","1013.373","27.1","72.19","223.5","0.0"],
    [1530023,"2026-07-23 17:50:00","1068","3.176","50.15","4.279","38.95","1013.446","26.99","72.09","188.9","0.0"],
    [1530024,"2026-07-23 18:00:00","1069","2.7119999999999997","50.98","4.051","42.85","1013.417","27.03","73.01","154.4","0.0"],
    [1530025,"2026-07-23 18:10:00","1070","2.168","72.23","3.071","63.13","1013.427","26.99","72.85","126.3","0.0"],
    [1530026,"2026-07-23 18:20:00","1071","1.124","120.1","2.385","120.6","1013.383","27.01","71.04","96.9","0.0"],
    [1530027,"2026-07-23 18:30:00","1072","1.135","114.5","1.96","127.3","1013.289","26.91","72.44","71.86","0.0"],
    [1530028,"2026-07-23 18:40:00","1073","0.6859999999999999","74.93","1.274","54.69","1013.321","27.0","71.97","51.49","0.0"],
    [1530029,"2026-07-23 18:50:00","1074","0.239","77.62","1.078","67.33","1013.409","27.07","71.68","34.22","0.0"],
    [1530030,"2026-07-23 19:00:00","1075","1.347","92.0","2.385","72.48","1013.393","27.05","72.52","20.43","0.0"],
    [1530031,"2026-07-23 19:10:00","1076","1.515","65.2","2.319","55.02","1013.424","26.9","73.61","10.28","0.0"],
    [1530032,"2026-07-23 19:20:00","1077","1.1520000000000001","92.7","1.601","69.42","1013.44","26.91","72.8","3.262","0.0"],
    [1530033,"2026-07-23 19:30:00","1078","0.7859999999999999","75.24","1.3719999999999999","64.26","1013.5","26.9","72.62","0.07400000000000001","0.0"],
    [1530034,"2026-07-23 19:40:00","1079","0.711","93.1","1.078","58.76","1013.674","26.99","73.2","0.0","0.0"],
    [1530035,"2026-07-23 19:50:00","1080","1.045","130.0","1.699","106.1","1013.773","26.97","73.41","0.0","0.0"],
    [1530036,"2026-07-23 20:00:00","1081","1.305","113.3","1.9269999999999998","109.9","1014.01","26.95","73.52","0.0","0.0"],
    [1530037,"2026-07-23 20:10:00","1082","1.148","110.3","1.829","120.7","1014.18","26.89","73.5","0.0","0.0"],
    [1530038,"2026-07-23 20:20:00","1083","1.382","103.3","1.7309999999999999","96.9","1014.394","26.87","73.95","0.0","0.0"],
    [1530039,"2026-07-23 20:30:00","1084","1.28","131.0","1.9269999999999998","138.7","1014.633","26.89","73.9","0.0","0.0"],
    [1530040,"2026-07-23 20:40:00","1085","2.088","167.8","2.8089999999999997","185.2","1014.833","27.11","75.05","0.0","0.0"],
    [1530041,"2026-07-23 20:50:00","1086","2.052","189.8","2.515","186.8","1014.859","27.32","74.48","0.0","0.0"],
    [1530042,"2026-07-23 21:00:00","1087","1.916","170.1","2.385","179.2","1015.015","27.27","75.46","0.0","0.0"],
    [1530043,"2026-07-23 21:10:00","1088","2.271","181.7","3.0380000000000003","185.3","1014.972","27.27","76.03","0.0","0.0"],
    [1530044,"2026-07-23 21:20:00","1089","2.1","184.4","2.7769999999999997","192.8","1015.035","27.27","76.39","0.0","0.0"],
    [1530045,"2026-07-23 21:30:00","1090","1.729","212.1","3.234","204.1","1014.98","27.42","75.76","0.0","0.0"],
    [1530046,"2026-07-23 21:40:00","1091","2.658","207.2","4.247","207.3","1014.948","27.49","74.67","0.0","0.0"],
    [1530047,"2026-07-23 21:50:00","1092","1.956","207.2","3.005","239.2","1014.954","27.51","75.32","0.0","0.0"],
    [1530048,"2026-07-23 22:00:00","1093","1.423","212.6","3.201","202.8","1014.954","27.55","75.89","0.0","0.0"],
    [1530049,"2026-07-23 22:10:00","1094","1.4240000000000002","255.6","2.7769999999999997","258.5","1014.93","27.48","76.55","0.0","0.0"],
    [1530050,"2026-07-23 22:20:00","1095","2.039","270.1","3.7889999999999997","267.3","1014.831","27.47","76.93","0.0","0.0"],
    [1530051,"2026-07-23 22:30:00","1096","1.796","271.2","3.365","263.2","1014.838","27.45","77.58","0.0","0.0"],
    [1530052,"2026-07-23 22:40:00","1097","1.266","291.2","2.417","293.9","1014.795","27.42","78.04","0.0","0.0"],
    [1530053,"2026-07-23 22:50:00","1098","1.4680000000000002","310.5","1.9269999999999998","318.3","1014.814","27.3","78.13","0.0","0.0"],
    [1530054,"2026-07-23 23:00:00","1099","1.666","316.0","2.156","308.9","1014.72","27.32","78.73","0.0","0.0"],
    [1530055,"2026-07-23 23:10:00","1100","1.4680000000000002","320.9","2.0909999999999997","316.3","1014.634","27.36","79.64","0.0","0.0"],
    [1530056,"2026-07-23 23:20:00","1101","1.472","298.1","1.8619999999999999","304.3","1014.485","27.28","80.2","0.0","0.0"],
    [1530057,"2026-07-23 23:30:00","1102","0.78","292.1","1.2409999999999999","265.0","1014.386","27.23","80.7","0.0","0.0"],
    [1530058,"2026-07-23 23:40:00","1103","1.041","334.9","1.666","344.2","1014.336","27.25","81.8","0.0","0.0"],
    [1530059,"2026-07-23 23:50:00","1104","1.3330000000000002","0.528","1.829","340.7","1014.28","27.28","82.2","0.0","0.0"],
    [1530060,"2026-07-24 00:00:00","1105","1.29","13.81","1.666","12.43","1014.201","27.23","81.5","0.0","0.0"],
    [1530061,"2026-07-24 00:10:00","1106","2.102","9.3","2.7439999999999998","11.69","1014.094","27.21","79.63","0.0","0.0"],
    [1530062,"2026-07-24 00:20:00","1107","1.824","30.45","2.385","22.58","1013.925","27.45","65.9","0.0","0.0"],
    [1530063,"2026-07-24 00:30:00","1108","1.166","36.04","1.699","47.16","1013.867","27.73","58.6","0.0","0.0"],
    [1530064,"2026-07-24 00:40:00","1109","1.055","20.43","1.633","33.72","1013.712","27.95","57.13","0.0","0.0"],
    [1530065,"2026-07-24 00:50:00","1110","0.442","21.21","0.915","19.1","1013.559","27.94","56.85","0.0","0.0"],
    [1530066,"2026-07-24 01:00:00","1111","0.0","0.0","0.0","0.0","1013.467","27.76","57.79","0.0","0.0"],
    [1530067,"2026-07-24 01:10:00","1112","0.0","0.0","0.0","0.0","1013.326","27.47","58.67","0.0","0.0"],
    [1530068,"2026-07-24 01:20:00","1113","0.466","222.6","1.045","210.3","1013.286","27.59","57.23","0.0","0.0"],
    [1530069,"2026-07-24 01:30:00","1114","0.693","291.7","1.176","300.6","1013.175","27.47","55.91","0.0","0.0"],
    [1530070,"2026-07-24 01:40:00","1115","1.093","308.5","1.797","330.9","1013.119","27.46","52.68","0.0","0.0"],
    [1530071,"2026-07-24 01:50:00","1116","0.863","280.4","1.339","244.2","1013.109","27.91","49.13","0.0","0.0"],
    [1530072,"2026-07-24 02:00:00","1117","0.981","237.6","2.156","259.9","1013.154","28.24","46.81","0.0","0.0"],
    [1530073,"2026-07-24 02:10:00","1118","2.335","261.9","2.8089999999999997","260.9","1013.14","28.04","51.15","0.0","0.0"],
    [1530074,"2026-07-24 02:20:00","1119","1.854","273.2","2.483","269.5","1012.991","27.14","59.59","0.0","0.0"],
    [1530075,"2026-07-24 02:30:00","1120","1.351","266.0","2.319","262.4","1012.95","27.08","57.29","0.0","0.0"],
    [1530076,"2026-07-24 02:40:00","1121","1.254","265.7","1.993","263.6","1012.961","27.03","57.21","0.0","0.0"],
    [1530077,"2026-07-24 02:50:00","1122","0.475","257.6","1.045","257.6","1012.883","27.12","54.74","0.0","0.0"],
    [1530078,"2026-07-24 03:00:00","1123","1.001","266.2","1.666","263.8","1012.919","27.17","53.13","0.0","0.0"],
    [1530079,"2026-07-24 03:10:00","1124","1.5830000000000002","252.9","2.287","251.1","1013.092","27.29","50.73","0.0","0.0"],
    [1530080,"2026-07-24 03:20:00","1125","1.501","248.9","3.0380000000000003","259.5","1013.275","27.42","48.0","0.0","0.0"],
    [1530081,"2026-07-24 03:30:00","1126","1.4180000000000001","246.2","2.875","258.1","1013.423","27.24","47.45","0.0","0.0"],
    [1530082,"2026-07-24 03:40:00","1127","1.05","118.3","1.601","113.6","1013.469","27.27","52.27","0.0","0.0"],
    [1530083,"2026-07-24 03:50:00","1128","2.154","58.01","4.2139999999999995","29.27","1013.505","27.72","48.29","0.0","0.0"],
    [1530084,"2026-07-24 04:00:00","1129","3.977","25.66","4.933","32.38","1013.552","28.05","45.94","0.0","0.0"],
    [1530085,"2026-07-24 04:10:00","1130","2.254","359.8","3.985","12.87","1013.552","27.94","45.99","0.0","0.0"],
    [1530086,"2026-07-24 04:20:00","1131","1.8219999999999998","13.82","2.907","14.75","1013.604","27.91","41.83","0.0","0.0"],
    [1530087,"2026-07-24 04:30:00","1132","2.448","22.53","2.9730000000000003","28.31","1013.685","27.86","45.6","0.0","0.0"],
    [1530088,"2026-07-24 04:40:00","1133","2.083","24.67","2.7110000000000003","28.51","1013.874","27.74","45.15","0.397","0.0"],
    [1530089,"2026-07-24 04:50:00","1134","1.443","32.38","2.025","33.38","1014.059","27.65","49.16","4.212","0.0"],
    [1530090,"2026-07-24 05:00:00","1135","1.829","23.95","2.5810000000000004","27.66","1014.176","27.59","51.22","11.92","0.0"],
    [1530091,"2026-07-24 05:10:00","1136","1.834","24.77","2.45","24.3","1014.242","27.56","51.11","22.44","0.0"],
    [1530092,"2026-07-24 05:20:00","1137","1.8619999999999999","25.53","2.94","21.93","1014.33","27.54","53.69","31.39","0.0"],
    [1530093,"2026-07-24 05:30:00","1138","2.065","34.96","3.365","30.58","1014.444","27.53","55.6","45.63","0.0"],
    [1530094,"2026-07-24 05:40:00","1139","2.543","30.87","3.9530000000000003","23.26","1014.589","27.61","56.08","67.99","0.0"],
    [1530095,"2026-07-24 05:50:00","1140","2.459","29.46","3.985","31.7","1014.62","27.75","53.07","78.91","0.0"],
    [1530096,"2026-07-24 06:00:00","1141","2.654","39.76","4.247","32.34","1014.577","27.88","49.08","93.7","0.0"],
    [1530097,"2026-07-24 06:10:00","1142","2.741","28.07","4.377","29.83","1014.684","27.9","48.04","112.7","0.0"],
    [1530098,"2026-07-24 06:20:00","1143","2.705","34.02","4.606","34.39","1014.753","27.83","48.35","131.7","0.0"],
    [1530099,"2026-07-24 06:30:00","1144","2.658","28.11","4.083","32.92","1014.807","27.78","48.54","164.5","0.0"],
    [1530100,"2026-07-24 06:40:00","1145","2.859","34.0","4.998","28.1","1014.888","27.81","47.9","184.7","0.0"],
    [1530101,"2026-07-24 06:50:00","1146","3.675","32.07","5.553","28.75","1014.937","27.83","49.42","218.9","0.0"],
    [1530102,"2026-07-24 07:00:00","1147","5.611000000000001","34.97","8.26","31.82","1014.603","27.92","47.22","235.7","0.0"],
    [1530103,"2026-07-24 07:10:00","1148","5.882999999999999","36.93","10.03","31.57","1014.889","27.99","45.11","271.8","0.0"],
    [1530104,"2026-07-24 07:20:00","1149","4.627","37.4","7.84","34.27","1015.144","28.04","43.15","295.0","0.0"],
    [1530105,"2026-07-24 07:30:00","1150","3.2889999999999997","33.95","6.0760000000000005","43.47","1015.26","28.14","43.92","338.1","0.0"],
    [1530106,"2026-07-24 07:40:00","1151","3.596","35.97","6.86","32.79","1015.114","28.17","44.14","374.0","0.0"],
    [1530107,"2026-07-24 07:50:00","1152","4.817","34.66","7.056","27.49","1015.007","28.14","44.39","392.3","0.0"],
    [1530108,"2026-07-24 08:00:00","1153","4.726","33.64","6.5329999999999995","46.2","1015.075","28.11","47.11","415.1","0.0"],
    [1530109,"2026-07-24 08:10:00","1154","4.9030000000000005","39.11","7.0889999999999995","27.98","1015.104","28.13","43.0","433.2","0.0"],
    [1530110,"2026-07-24 08:20:00","1155","4.565","43.49","7.023","37.24","1015.135","28.13","43.04","471.1","0.0"],
    [1530111,"2026-07-24 08:30:00","1156","4.917","38.26","7.154","35.74","1015.117","28.16","41.78","519.5","0.0"],
    [1530112,"2026-07-24 08:40:00","1157","4.537","36.45","7.546","26.01","1014.948","28.12","40.63","519.8","0.0"],
    [1530113,"2026-07-24 08:50:00","1158","3.161","61.93","6.501","97.2","1014.856","28.1","42.61","390.6","0.0"],
    [1530114,"2026-07-24 09:00:00","1159","2.603","65.79","5.684","85.3","1014.779","28.03","43.01","436.3","0.0"],
    [1530115,"2026-07-24 09:10:00","1160","2.748","40.57","5.357","85.1","1014.641","28.02","43.09","370.2","0.0"],
    [1530116,"2026-07-24 09:20:00","1161","2.8789999999999996","44.62","5.7170000000000005","23.05","1014.661","28.19","41.67","618.6","0.0"],
    [1530117,"2026-07-24 09:30:00","1162","2.926","52.77","6.435","88.1","1014.73","28.35","42.8","694.8","0.0"],
    [1530118,"2026-07-24 09:40:00","1163","2.412","53.75","5.455","86.2","1014.714","28.41","40.86","696.1","0.0"],
    [1530119,"2026-07-24 09:50:00","1164","3.363","68.65","6.9910000000000005","74.4","1014.656","28.4","41.2","737.0","0.0"],
    [1530120,"2026-07-24 10:00:00","1165","3.263","66.02","8.17","99.0","1014.481","28.14","42.43","725.1","0.0"],
    [1530121,"2026-07-24 10:10:00","1166","3.292","52.67","5.978","56.62","1014.636","28.15","43.48","799.7","0.0"],
    [1530122,"2026-07-24 10:20:00","1167","3.275","55.41","6.957999999999999","24.56","1014.692","28.12","44.16","799.8","0.0"],
    [1530123,"2026-07-24 10:30:00","1168","2.6839999999999997","38.52","5.422999999999999","25.31","1014.576","28.17","44.86","825.0","0.0"],
    [1530124,"2026-07-24 10:40:00","1169","2.343","33.55","4.671","63.5","1014.399","28.26","45.82","836.0","0.0"],
    [1530125,"2026-07-24 10:50:00","1170","3.5010000000000003","54.04","7.4479999999999995","87.9","1014.326","28.1","48.21","847.0","0.0"],
    [1530126,"2026-07-24 11:00:00","1171","2.6180000000000003","66.01","5.619","96.4","1014.312","28.04","48.09","864.0","0.0"],
    [1530127,"2026-07-24 11:10:00","1172","2.87","73.95","6.566","74.72","1014.355","27.92","49.6","877.0","0.0"],
    [1530128,"2026-07-24 11:20:00","1173","3.197","78.95","5.4879999999999995","81.5","1014.382","27.9","50.66","879.0","0.0"],
    [1530129,"2026-07-24 11:30:00","1174","2.642","72.78","5.847","86.3","1014.359","27.87","51.3","893.0","0.0"],
    [1530130,"2026-07-24 11:40:00","1175","3.195","77.99","6.403","101.4","1014.306","27.83","53.3","900.0","0.0"],
    [1530131,"2026-07-24 11:50:00","1176","3.116","81.3","5.129","81.7","1014.319","27.67","55.51","901.0","0.0"],
    [1530132,"2026-07-24 12:00:00","1177","3.799","84.7","6.207000000000001","91.7","1014.218","27.53","55.97","898.0","0.0"],
    [1530133,"2026-07-24 12:10:00","1178","3.4760000000000004","86.0","5.325","72.79","1014.254","27.45","57.98","895.0","0.0"],
    [1530134,"2026-07-24 12:20:00","1179","2.911","84.4","5.292000000000001","83.8","1014.097","27.59","59.57","889.0","0.0"],
    [1530135,"2026-07-24 12:30:00","1180","3.248","82.9","4.9","82.6","1013.938","27.5","59.07","884.0","0.0"],
    [1530136,"2026-07-24 12:40:00","1181","3.0869999999999997","87.7","4.998","92.4","1013.826","27.49","59.42","878.0","0.0"],
    [1530137,"2026-07-24 12:50:00","1182","2.556","76.18","4.508","96.3","1013.769","27.47","59.52","870.0","0.0"],
    [1530138,"2026-07-24 13:00:00","1183","2.392","70.29","4.41","97.7","1013.657","27.7","59.52","859.0","0.0"],
    [1530139,"2026-07-24 13:10:00","1184","2.09","51.84","5.1610000000000005","16.21","1013.549","27.83","59.85","847.0","0.0"],
    [1530140,"2026-07-24 13:20:00","1185","2.1919999999999997","54.33","3.9530000000000003","13.06","1013.442","27.64","60.34","836.0","0.0"],
    [1530141,"2026-07-24 13:30:00","1186","2.588","83.3","4.508","84.5","1013.301","27.54","61.5","824.0","0.0"],
    [1530142,"2026-07-24 13:40:00","1187","3.264","80.0","4.965","57.81","1013.222","27.4","62.81","809.0","0.0"],
    [1530143,"2026-07-24 13:50:00","1188","2.246","76.23","4.345","80.1","1013.133","27.5","63.36","782.2","0.0"],
    [1530144,"2026-07-24 14:00:00","1189","2.164","77.19","3.92","74.01","1012.985","27.57","63.55","775.4","0.0"],
    [1530145,"2026-07-24 14:10:00","1190","2.421","60.01","4.345","61.8","1012.875","27.58","63.71","758.8","0.0"],
    [1530146,"2026-07-24 14:20:00","1191","2.645","82.9","4.508","84.9","1012.697","27.49","64.49","741.2","0.0"],
    [1530147,"2026-07-24 14:30:00","1192","2.283","67.3","4.377","83.6","1012.553","27.56","64.37","721.5","0.0"],
    [1530148,"2026-07-24 14:40:00","1193","2.104","49.73","4.573","88.0","1012.418","27.64","64.43","699.2","0.0"],
    [1530149,"2026-07-24 14:50:00","1194","3.055","81.8","5.357","86.8","1012.355","27.48","64.39","678.7","0.0"],
    [1530150,"2026-07-24 15:00:00","1195","2.256","73.01","4.671","84.6","1012.368","27.49","64.54","627.4","0.0"],
    [1530151,"2026-07-24 15:10:00","1196","2.092","78.72","3.528","74.33","1012.355","27.5","64.53","628.5","0.0"],
    [1530152,"2026-07-24 15:20:00","1197","2.11","63.6","4.41","82.8","1012.291","27.72","64.7","613.4","0.0"],
    [1530153,"2026-07-24 15:30:00","1198","2.53","78.88","4.737","90.7","1012.232","27.61","64.98","580.4","0.0"],
    [1530154,"2026-07-24 15:40:00","1199","1.993","60.02","3.855","22.58","1012.218","27.56","65.26","551.2","0.0"],
    [1530155,"2026-07-24 15:50:00","1200","1.848","59.3","3.822","19.48","1012.276","27.65","65.34","427.2","0.0"],
    [1530156,"2026-07-24 16:00:00","1201","2.474","86.6","4.083","101.3","1012.003","27.45","66.26","345.0","0.0"],
    [1530157,"2026-07-24 16:10:00","1202","2.396","80.7","4.018","97.6","1011.991","27.51","66.42","374.2","0.0"],
    [1530158,"2026-07-24 16:20:00","1203","2.079","55.98","4.083","27.97","1011.861","27.54","67.26","257.2","0.0"],
    [1530159,"2026-07-24 16:30:00","1204","2.552","79.88","3.92","89.2","1011.81","27.41","68.12","137.4","0.0"],
    [1530160,"2026-07-24 16:40:00","1205","1.722","63.46","3.593","99.2","1011.752","27.32","68.66","160.2","0.0"],
    [1530161,"2026-07-24 16:50:00","1206","1.3259999999999998","57.75","2.679","21.41","1011.927","27.5","67.43","209.8","0.0"],
    [1530162,"2026-07-24 17:00:00","1207","1.784","59.91","2.7439999999999998","47.25","1011.789","27.5","67.91","362.0","0.0"],
    [1530163,"2026-07-24 17:10:00","1208","3.14","75.27","4.573","59.42","1011.462","27.47","68.96","290.9","0.0"],
    [1530164,"2026-07-24 17:20:00","1209","3.125","74.21","4.051","69.98","1011.277","27.29","70.49","246.5","0.0"],
    [1530165,"2026-07-24 17:30:00","1210","3.415","83.3","4.737","90.3","1011.012","27.19","71.41","212.0","0.0"],
    [1530166,"2026-07-24 17:40:00","1211","3.292","77.24","4.573","79.49","1010.931","27.19","71.97","178.3","0.0"],
    [1530167,"2026-07-24 17:50:00","1212","3.641","92.3","4.4430000000000005","84.5","1010.802","27.17","72.94","152.0","0.0"],
    [1530168,"2026-07-24 18:00:00","1213","2.8789999999999996","98.9","4.606","98.4","1010.891","27.18","73.52","125.1","0.0"],
    [1530169,"2026-07-24 18:10:00","1214","2.742","108.9","3.6260000000000003","115.3","1010.999","27.22","73.7","100.0","0.0"],
    [1530170,"2026-07-24 18:20:00","1215","2.696","109.7","3.5610000000000004","99.6","1010.974","27.28","73.33","81.7","0.0"],
    [1530171,"2026-07-24 18:30:00","1216","2.394","124.3","3.528","116.1","1010.939","27.37","72.11","61.2","0.0"],
    [1530172,"2026-07-24 18:40:00","1217","2.426","97.0","3.201","91.8","1010.898","27.36","72.7","40.85","0.0"],
    [1530173,"2026-07-24 18:50:00","1218","2.205","106.2","3.071","115.8","1010.898","27.33","73.0","23.09","0.0"],
    [1530174,"2026-07-24 19:00:00","1219","1.7380000000000002","85.2","2.417","68.68","1010.905","27.38","72.9","12.51","0.0"],
    [1530175,"2026-07-24 19:10:00","1220","1.848","68.2","2.613","73.24","1010.886","27.37","73.33","6.53","0.0"],
    [1530176,"2026-07-24 19:20:00","1221","1.829","71.59","2.679","81.1","1010.898","27.35","72.88","2.3480000000000003","0.0"],
    [1530177,"2026-07-24 19:30:00","1222","2.4330000000000003","54.03","2.9730000000000003","43.41","1010.866","27.37","73.33","0.161","0.0"],
    [1530178,"2026-07-24 19:40:00","1223","1.979","59.79","2.875","81.3","1010.908","27.35","73.55","0.0","0.0"],
    [1530179,"2026-07-24 19:50:00","1224","2.36","60.44","3.659","42.29","1010.956","27.37","73.76","0.0","0.0"],
    [1530180,"2026-07-24 20:00:00","1225","3.554","39.45","4.2139999999999995","34.59","1010.855","27.08","78.91","0.0","0.0"],
    [1530181,"2026-07-24 20:10:00","1226","3.907","30.05","4.9","24.84","1010.743","26.86","79.94","0.0","0.0"],
    [1530182,"2026-07-24 20:20:00","1227","4.322","26.12","5.357","31.32","1010.721","26.76","79.56","0.0","0.0"],
    [1530183,"2026-07-24 20:30:00","1228","4.3","29.52","5.227","28.26","1010.882","26.77","79.34","0.0","0.0"],
    [1530184,"2026-07-24 20:40:00","1229","3.573","31.58","4.41","35.41","1011.042","26.77","78.96","0.0","0.0"],
    [1530185,"2026-07-24 20:50:00","1230","2.935","34.25","3.822","36.35","1011.034","26.83","78.53","0.0","0.0"],
    [1530186,"2026-07-24 21:00:00","1231","2.992","38.36","3.495","37.55","1010.964","26.9","78.48","0.0","0.0"],
    [1530187,"2026-07-24 21:10:00","1232","3.298","36.35","4.312","28.57","1010.871","26.93","78.94","0.0","0.0"],
    [1530188,"2026-07-24 21:20:00","1233","3.287","30.38","3.985","35.32","1010.848","26.91","79.35","0.0","0.0"],
    [1530189,"2026-07-24 21:30:00","1234","3.167","29.65","3.7889999999999997","24.07","1010.894","26.91","78.85","0.0","0.0"],
    [1530190,"2026-07-24 21:40:00","1235","2.978","30.79","3.822","24.78","1010.865","26.93","78.52","0.0","0.0"],
    [1530191,"2026-07-24 21:50:00","1236","3.477","37.55","4.018","32.96","1010.755","26.93","78.58","0.0","0.0"],
    [1530192,"2026-07-24 22:00:00","1237","3.022","51.06","3.855","44.97","1010.695","26.94","77.97","0.0","0.0"],
    [1530193,"2026-07-24 22:10:00","1238","2.77","50.71","3.5610000000000004","49.35","1010.683","26.95","78.12","0.0","0.0"],
    [1530194,"2026-07-24 22:20:00","1239","2.557","46.05","3.593","38.12","1010.698","26.98","78.52","0.0","0.0"],
    [1530195,"2026-07-24 22:30:00","1240","2.835","47.18","3.397","48.47","1010.622","26.97","77.77","0.0","0.0"],
    [1530196,"2026-07-24 22:40:00","1241","2.8480000000000003","41.81","3.397","39.94","1010.563","27.01","77.04","0.0","0.0"],
    [1530197,"2026-07-24 22:50:00","1242","2.414","37.83","3.136","43.8","1010.449","27.08","76.68","0.0","0.0"],
    [1530198,"2026-07-24 23:00:00","1243","2.4859999999999998","38.21","3.267","30.84","1010.334","27.16","76.68","0.0","0.0"],
    [1530199,"2026-07-24 23:10:00","1244","2.42","45.79","2.9730000000000003","43.89","1010.339","27.22","76.89","0.0","0.0"],
    [1530200,"2026-07-24 23:20:00","1245","2.423","56.66","3.299","62.67","1010.265","27.25","76.34","0.0","0.0"],
    [1530201,"2026-07-24 23:30:00","1246","2.379","37.59","3.299","44.89","1010.217","27.3","76.05","0.0","0.0"],
    [1530202,"2026-07-24 23:40:00","1247","2.463","41.75","3.1689999999999996","48.71","1010.128","27.34","75.9","0.0","0.0"],
    [1530203,"2026-07-24 23:50:00","1248","2.437","49.92","3.201","39.59","1010.054","27.35","74.71","0.0","0.0"],
    [1530204,"2026-07-25 00:00:00","1249","2.351","57.31","2.875","50.52","1009.918","27.37","74.44","0.0","0.0"],
    [1530205,"2026-07-25 00:10:00","1250","1.992","55.3","2.417","36.26","1009.91","27.41","74.13","0.0","0.0"],
    [1530206,"2026-07-25 00:20:00","1251","1.642","51.61","2.385","46.51","1009.835","27.44","74.56","0.0","0.0"],
    [1530207,"2026-07-25 00:30:00","1252","1.97","35.66","2.613","48.24","1009.697","27.44","74.55","0.0","0.0"],
    [1530208,"2026-07-25 00:40:00","1253","1.7180000000000002","30.01","2.0580000000000003","33.67","1009.751","27.45","74.18","0.0","0.0"],
    [1530209,"2026-07-25 00:50:00","1254","1.3159999999999998","54.46","1.96","62.91","1009.677","27.45","74.2","0.0","0.0"],
    [1530210,"2026-07-25 01:00:00","1255","1.641","71.61","2.189","67.85","1009.599","27.45","74.19","0.0","0.0"],
    [1530211,"2026-07-25 01:10:00","1256","1.2690000000000001","79.71","1.797","102.7","1009.572","27.44","73.38","0.0","0.0"],
    [1530212,"2026-07-25 01:20:00","1257","1.435","95.8","2.0580000000000003","95.2","1009.475","27.48","73.93","0.0","0.0"],
    [1530213,"2026-07-25 01:30:00","1258","2.061","108.7","2.679","115.1","1009.289","27.46","74.93","0.0","0.0"],
    [1530214,"2026-07-25 01:40:00","1259","1.679","112.5","2.679","117.0","1009.201","27.43","74.14","0.0","0.0"],
    [1530215,"2026-07-25 01:50:00","1260","1.632","112.0","2.189","127.1","1009.176","27.42","75.07","0.0","0.0"],
    [1530216,"2026-07-25 02:00:00","1261","1.56","105.0","1.96","106.5","1009.116","27.4","75.35","0.0","0.0"],
    [1530217,"2026-07-25 02:10:00","1262","1.139","91.8","1.5030000000000001","92.0","1009.092","27.39","75.44","0.0","0.0"],
    [1530218,"2026-07-25 02:20:00","1263","1.395","84.2","1.7309999999999999","91.3","1009.044","27.41","74.99","0.0","0.0"],
    [1530219,"2026-07-25 02:30:00","1264","0.85","72.49","1.666","83.6","1009.048","27.43","74.17","0.0","0.0"],
    [1530220,"2026-07-25 02:40:00","1265","0.561","77.13","1.274","75.72","1009.033","27.47","74.39","0.0","0.0"],
    [1530221,"2026-07-25 02:50:00","1266","1.137","80.8","1.568","88.7","1008.892","27.46","74.9","0.0","0.0"],
    [1530222,"2026-07-25 03:00:00","1267","1.097","80.5","1.764","73.26","1008.86","27.45","76.14","0.0","0.0"],
    [1530223,"2026-07-25 03:10:00","1268","0.828","82.3","1.339","63.11","1008.854","27.39","76.08","0.0","0.0"],
    [1530224,"2026-07-25 03:20:00","1269","0.887","73.23","1.307","74.8","1008.932","27.41","76.28","0.0","0.0"],
    [1530225,"2026-07-25 03:30:00","1270","0.8109999999999999","42.99","1.2409999999999999","35.19","1008.949","27.44","76.93","0.0","0.0"],
    [1530226,"2026-07-25 03:40:00","1271","1.187","31.18","1.797","29.33","1008.925","27.39","76.85","0.0","0.0"],
    [1530227,"2026-07-25 03:50:00","1272","1.736","28.0","2.156","21.25","1008.934","27.4","78.02","0.0","0.0"],
    [1530228,"2026-07-25 04:00:00","1273","1.9040000000000001","34.01","2.417","29.85","1008.934","27.35","78.14","0.0","0.0"],
    [1530229,"2026-07-25 04:10:00","1274","1.6369999999999998","30.11","1.993","27.57","1009.033","27.34","77.63","0.0","0.0"],
    [1530230,"2026-07-25 04:20:00","1275","1.666","35.51","2.025","31.06","1009.049","27.39","77.46","0.0","0.0"],
    [1530231,"2026-07-25 04:30:00","1276","1.886","41.44","2.417","38.53","1009.043","27.41","76.68","0.0","0.0"],
    [1530232,"2026-07-25 04:40:00","1277","1.8980000000000001","33.1","2.352","45.55","1009.164","27.43","76.71","0.35700000000000004","0.0"],
    [1530233,"2026-07-25 04:50:00","1278","2.301","48.27","2.8089999999999997","51.7","1009.216","27.42","76.4","2.8280000000000003","0.0"],
    [1530234,"2026-07-25 05:00:00","1279","2.044","43.05","2.679","53.25","1009.269","27.44","76.42","7.082000000000001","0.0"],
    [1530235,"2026-07-25 05:10:00","1280","2.536","43.26","3.299","39.22","1009.262","27.44","77.72","13.99","0.0"],
    [1530236,"2026-07-25 05:20:00","1281","3.049","43.21","4.149","35.74","1009.34","27.37","78.2","24.09","0.0"],
    [1530237,"2026-07-25 05:30:00","1282","2.984","31.45","4.083","342.2","1009.3","27.36","76.82","35.55","0.0"],
    [1530238,"2026-07-25 05:40:00","1283","3.0260000000000002","38.56","4.018","43.82","1009.235","27.39","76.19","54.49","0.0"],
    [1530239,"2026-07-25 05:50:00","1284","3.0039999999999996","31.33","3.9530000000000003","28.02","1009.253","27.51","73.9","100.1","0.0"],
    [1530240,"2026-07-25 06:00:00","1285","3.093","49.27","4.279","49.41","1009.298","27.4","76.95","125.0","0.0"],
    [1530241,"2026-07-25 06:10:00","1286","2.447","49.71","4.247","49.27","1009.344","27.09","79.12","145.0","0.0"],
    [1530242,"2026-07-25 06:20:00","1287","2.093","49.93","3.136","37.42","1009.291","27.28","77.9","172.2","0.0"],
    [1530243,"2026-07-25 06:30:00","1288","2.283","55.67","3.136","36.48","1009.291","27.3","77.56","200.5","0.0"],
    [1530244,"2026-07-25 06:40:00","1289","2.302","44.17","3.528","37.51","1009.307","27.35","77.06","231.0","0.0"],
    [1530245,"2026-07-25 06:50:00","1290","2.189","45.57","3.0380000000000003","40.21","1009.375","27.46","75.78","259.5","0.0"],
    [1530246,"2026-07-25 07:00:00","1291","2.247","44.49","3.071","43.63","1009.475","27.52","75.19","292.7","0.0"],
    [1530247,"2026-07-25 07:10:00","1292","2.1069999999999998","59.96","3.201","97.9","1009.508","27.68","74.39","323.3","0.0"],
    [1530248,"2026-07-25 07:20:00","1293","2.273","92.3","3.7569999999999997","105.3","1009.471","27.81","73.69","355.5","0.0"],
    [1530249,"2026-07-25 07:30:00","1294","3.258","94.1","4.867","107.4","1009.433","27.69","71.64","393.4","0.0"],
    [1530250,"2026-07-25 07:40:00","1295","3.8289999999999997","85.0","6.011","88.2","1009.411","27.71","70.14","430.5","0.0"],
    [1530251,"2026-07-25 07:50:00","1296","3.263","80.6","6.729","91.7","1009.358","27.6","68.0","404.5","0.0"],
    [1530252,"2026-07-25 08:00:00","1297","3.234","54.48","7.644","48.51","1009.314","27.75","66.41","495.6","0.0"],
    [1530253,"2026-07-25 08:10:00","1298","3.6189999999999998","86.3","6.239","80.5","1009.292","27.6","69.81","525.5","0.0"],
    [1530254,"2026-07-25 08:20:00","1299","3.9389999999999996","84.0","6.011","75.86","1009.287","27.42","71.09","553.0","0.0"],
    [1530255,"2026-07-25 08:30:00","1300","3.264","79.52","7.579","89.9","1009.32","27.36","70.83","586.7","0.0"],
    [1530256,"2026-07-25 08:40:00","1301","3.217","80.3","5.422999999999999","94.0","1009.324","27.31","71.82","618.1","0.0"],
    [1530257,"2026-07-25 08:50:00","1302","3.844","86.2","5.684","96.6","1009.325","27.14","73.17","647.9","0.0"],
    [1530258,"2026-07-25 09:00:00","1303","4.025","87.5","5.847","98.3","1009.326","27.11","72.76","675.6","0.0"],
    [1530259,"2026-07-25 09:10:00","1304","4.095","83.6","6.0760000000000005","97.1","1009.36","27.07","71.35","699.5","0.0"],
    [1530260,"2026-07-25 09:20:00","1305","3.755","91.2","5.4879999999999995","97.2","1009.401","27.27","69.89","723.4","0.0"],
    [1530261,"2026-07-25 09:30:00","1306","4.199","96.8","5.978","92.4","1009.44","27.16","70.57","742.7","0.0"],
    [1530262,"2026-07-25 09:40:00","1307","4.053","102.7","5.194","107.0","1009.418","27.17","71.98","767.3","0.0"],
    [1530263,"2026-07-25 09:50:00","1308","4.6610000000000005","107.7","5.912999999999999","103.2","1009.414","27.01","72.79","784.6","0.0"],
    [1530264,"2026-07-25 10:00:00","1309","4.156000000000001","105.5","5.978","107.2","1009.474","27.2","71.22","807.0","0.0"],
    [1530265,"2026-07-25 10:10:00","1310","3.891","97.2","5.39","91.1","1009.466","27.31","67.99","815.0","0.0"],
    [1530266,"2026-07-25 10:20:00","1311","4.482","92.4","6.141","92.8","1009.428","27.39","64.85","809.0","0.0"],
    [1530267,"2026-07-25 10:30:00","1312","3.8739999999999997","101.3","6.109","103.1","1009.417","27.33","67.03","578.0","0.0"],
    [1530268,"2026-07-25 10:40:00","1313","3.912","99.4","5.521","92.7","1009.406","27.4","66.93","689.6","0.0"],
    [1530269,"2026-07-25 10:50:00","1314","3.98","107.3","5.422999999999999","111.4","1009.379","27.33","68.28","638.0","0.0"],
    [1530270,"2026-07-25 11:00:00","1315","3.9789999999999996","107.3","5.749","116.7","1009.336","27.34","70.77","561.3","0.0"],
    [1530271,"2026-07-25 11:10:00","1316","4.261","110.4","5.521","120.6","1009.282","27.32","72.08","475.1","0.0"],
    [1530272,"2026-07-25 11:20:00","1317","4.647","111.6","6.664","119.9","1009.216","27.32","70.76","577.1","0.0"],
    [1530273,"2026-07-25 11:30:00","1318","4.8389999999999995","113.4","6.435","119.2","1009.137","27.38","69.69","574.6","0.0"],
    [1530274,"2026-07-25 11:40:00","1319","5.439","117.8","6.893","115.7","1009.031","27.26","70.68","740.7","0.0"],
    [1530275,"2026-07-25 11:50:00","1320","5.47","120.8","7.187","122.4","1008.961","27.22","71.13","727.1","0.0"],
    [1530276,"2026-07-25 12:00:00","1321","5.142","123.5","6.957999999999999","115.0","1008.945","27.18","71.89","728.6","0.0"],
    [1530277,"2026-07-25 12:10:00","1322","5.626","119.8","7.121","119.6","1008.878","27.19","71.59","921.0","0.0"],
    [1530278,"2026-07-25 12:20:00","1323","5.586","124.2","7.154","117.8","1008.883","27.13","71.7","949.0","0.0"],
    [1530279,"2026-07-25 12:30:00","1324","5.292000000000001","117.0","6.893","124.6","1008.936","27.14","71.94","936.0","0.0"],
    [1530280,"2026-07-25 12:40:00","1325","5.27","119.7","7.252000000000001","121.1","1008.904","27.19","72.65","923.0","0.0"],
    [1530281,"2026-07-25 12:50:00","1326","5.047","129.1","6.5329999999999995","127.5","1008.864","27.22","73.19","918.0","0.0"],
    [1530282,"2026-07-25 13:00:00","1327","5.088","128.3","6.403","128.8","1008.884","27.13","74.07","903.0","0.0"],
    [1530283,"2026-07-25 13:10:00","1328","5.377999999999999","137.1","6.893","133.3","1008.831","27.15","74.96","919.0","0.0"],
    [1530284,"2026-07-25 13:20:00","1329","5.067","133.8","6.729","135.3","1008.889","27.06","75.98","585.5","0.0"],
    [1530285,"2026-07-25 13:30:00","1330","4.869","123.4","6.337000000000001","126.4","1008.954","27.14","75.31","535.1","0.0"],
    [1530286,"2026-07-25 13:40:00","1331","4.612","118.5","6.435","118.5","1008.961","27.19","75.97","462.4","0.0"],
    [1530287,"2026-07-25 13:50:00","1332","4.62","116.6","5.912999999999999","120.6","1008.978","27.12","76.44","386.5","0.0"],
    [1530288,"2026-07-25 14:00:00","1333","4.545","110.1","6.0760000000000005","137.9","1008.986","27.19","76.85","441.5","0.0"],
    [1530289,"2026-07-25 14:10:00","1334","5.247999999999999","118.2","6.435","120.2","1008.886","27.07","77.25","480.3","0.0"],
    [1530290,"2026-07-25 14:20:00","1335","4.902","118.5","6.305","121.7","1008.836","27.11","77.98","495.3","0.0"],
    [1530291,"2026-07-25 14:30:00","1336","4.731","116.3","6.239","112.5","1008.774","27.2","77.94","697.0","0.0"],
    [1530292,"2026-07-25 14:40:00","1337","4.165","108.4","5.7170000000000005","98.8","1008.73","27.31","78.67","490.1","0.0"],
    [1530293,"2026-07-25 14:50:00","1338","5.067","111.1","6.7620000000000005","97.3","1008.598","27.24","78.4","700.8","0.0"],
    [1530294,"2026-07-25 15:00:00","1339","4.946000000000001","113.4","6.893","117.1","1008.577","27.12","78.02","674.7","0.0"],
    [1530295,"2026-07-25 15:10:00","1340","4.672","127.4","6.207000000000001","116.5","1008.581","27.11","78.22","646.7","0.0"],
    [1530296,"2026-07-25 15:20:00","1341","4.877","116.7","7.382999999999999","107.5","1008.62","27.26","77.76","479.4","0.0"],
    [1530297,"2026-07-25 15:30:00","1342","4.666","106.5","6.5329999999999995","107.6","1008.71","27.14","78.91","329.1","0.0"],
    [1530298,"2026-07-25 15:40:00","1343","4.4430000000000005","117.5","7.775","103.3","1008.73","27.15","78.76","408.6","0.0"],
    [1530299,"2026-07-25 15:50:00","1344","5.382999999999999","96.8","7.513","91.9","1008.778","27.2","79.26","347.2","0.0"],
    [1530300,"2026-07-25 16:00:00","1345","5.604","90.1","7.905","86.7","1008.877","27.08","79.21","213.6","0.0"],
    [1530301,"2026-07-25 16:10:00","1346","5.303","80.9","7.285","87.2","1008.966","27.07","78.01","248.4","0.0"],
    [1530302,"2026-07-25 16:20:00","1347","6.111000000000001","82.1","8.2","78.69","1008.937","27.04","76.96","319.6","0.0"],
    [1530303,"2026-07-25 16:30:00","1348","5.4639999999999995","83.9","7.775","83.4","1008.956","27.09","76.25","188.8","0.0"],
    [1530304,"2026-07-25 16:40:00","1349","5.721","91.1","7.481","93.6","1008.94","27.05","76.43","211.8","0.0"],
    [1530305,"2026-07-25 16:50:00","1350","5.751","90.5","7.84","98.2","1008.981","27.11","76.22","319.1","0.0"],
    [1530306,"2026-07-25 17:00:00","1351","5.67","87.3","7.742000000000001","79.29","1008.978","27.19","76.17","256.2","0.0"],
    [1530307,"2026-07-25 17:10:00","1352","5.9910000000000005","86.2","8.07","92.5","1009.034","27.14","76.57","289.2","0.0"],
    [1530308,"2026-07-25 17:20:00","1353","6.226","79.19","8.69","64.47","1009.101","26.86","76.94","164.8","0.0"],
    [1530309,"2026-07-25 17:30:00","1354","6.2829999999999995","84.3","8.3","81.0","1009.097","26.86","77.23","161.1","0.0"],
    [1530310,"2026-07-25 17:40:00","1355","6.292000000000001","81.6","8.23","90.5","1009.137","26.81","76.47","129.2","0.0"],
    [1530311,"2026-07-25 17:50:00","1356","6.182","85.0","8.0","76.96","1009.122","26.88","75.59","138.7","0.0"],
    [1530312,"2026-07-25 18:00:00","1357","5.96","94.3","7.872999999999999","90.9","1009.1","26.9","75.47","125.7","0.0"],
    [1530313,"2026-07-25 18:10:00","1358","5.294","95.7","7.611000000000001","89.8","1009.155","26.98","75.06","97.2","0.0"],
    [1530314,"2026-07-25 18:20:00","1359","5.667000000000001","91.9","8.53","87.8","1009.265","26.83","77.06","61.49","0.0"],
    [1530315,"2026-07-25 18:30:00","1360","5.321000000000001","93.7","6.7620000000000005","87.7","1009.493","26.74","75.41","40.15","0.0"],
    [1530316,"2026-07-25 18:40:00","1361","5.11","77.94","7.971","67.6","1009.656","26.84","76.18","10.56","0.0"],
    [1530317,"2026-07-25 18:50:00","1362","5.945","55.9","8.23","71.49","1009.848","26.6","77.61","5.034","0.0"],
    [1530318,"2026-07-25 19:00:00","1363","5.375","60.72","8.07","64.43","1009.877","26.43","77.24","5.136","0.0"],
    [1530319,"2026-07-25 19:10:00","1364","4.957","69.71","7.285","74.81","1009.816","26.24","78.31","4.223","0.0"],
    [1530320,"2026-07-25 19:20:00","1365","5.167999999999999","71.95","7.382999999999999","74.47","1009.744","26.2","79.28","1.579","0.0"],
    [1530321,"2026-07-25 19:30:00","1366","4.803999999999999","72.46","6.7620000000000005","73.23","1009.947","26.17","79.11","0.065","0.0"],
    [1530322,"2026-07-25 19:40:00","1367","4.619","87.8","6.664","96.7","1009.953","26.35","77.87","0.0","0.0"],
    [1530323,"2026-07-25 19:50:00","1368","4.28","97.0","6.109","88.7","1010.123","26.34","77.58","0.0","0.0"],
    [1530324,"2026-07-25 20:00:00","1369","4.702","79.12","6.7620000000000005","70.4","1010.373","26.43","77.76","0.0","0.0"],
    [1530325,"2026-07-25 20:10:00","1370","5.6770000000000005","69.98","7.382999999999999","74.33","1010.448","26.39","77.25","0.0","0.0"],
    [1530326,"2026-07-25 20:20:00","1371","5.341","71.5","7.285","79.3","1010.608","26.35","76.2","0.0","0.0"],
    [1530327,"2026-07-25 20:30:00","1372","3.792","21.05","5.096","19.98","1011.338","26.4","74.31","0.0","0.0"],
    [1530328,"2026-07-25 20:40:00","1373","5.377999999999999","27.61","7.84","43.03","1011.242","25.86","75.88","0.732","0.1"],
    [1530329,"2026-07-25 20:50:00","1374","6.027","67.9","8.26","52.22","1011.011","25.25","73.16","0.055999999999999994","0.0"],
    [1530330,"2026-07-25 21:00:00","1375","3.4760000000000004","42.42","6.37","49.37","1011.013","23.9","79.11","0.596","0.0"],
    [1530331,"2026-07-25 21:10:00","1376","2.27","38.71","3.6260000000000003","31.86","1011.156","24.16","75.36","0.0","0.0"],
    [1530332,"2026-07-25 21:20:00","1377","1.8090000000000002","33.58","2.8089999999999997","10.18","1011.25","24.57","70.89","0.0","0.0"],
    [1530333,"2026-07-25 21:30:00","1378","2.246","347.1","3.103","340.9","1011.347","24.95","67.1","0.0","0.0"],
    [1530334,"2026-07-25 21:40:00","1379","1.824","17.16","2.515","3.1889999999999996","1011.471","24.95","61.27","0.0","0.0"],
    [1530335,"2026-07-25 21:50:00","1380","1.919","22.58","2.679","40.81","1011.517","25.27","60.72","0.0","0.0"],
    [1530336,"2026-07-25 22:00:00","1381","1.909","352.3","2.842","13.73","1011.585","25.41","62.79","0.0","0.0"],
    [1530337,"2026-07-25 22:10:00","1382","1.095","341.0","1.993","348.4","1011.662","25.32","64.17","0.0","0.0"],
    [1530338,"2026-07-25 22:20:00","1383","1.43","351.3","1.993","339.5","1011.679","25.46","66.14","0.0","0.0"],
    [1530339,"2026-07-25 22:30:00","1384","2.351","354.5","3.071","353.4","1011.64","25.49","67.22","0.0","0.0"],
    [1530340,"2026-07-25 22:40:00","1385","2.938","11.42","3.659","12.35","1011.66","25.59","68.34","0.0","0.0"],
    [1530341,"2026-07-25 22:50:00","1386","2.5869999999999997","358.2","3.822","13.31","1011.854","25.67","68.13","0.0","0.0"],
    [1530342,"2026-07-25 23:00:00","1387","2.19","357.5","3.7239999999999998","352.7","1011.861","25.6","69.16","0.0","0.0"],
    [1530343,"2026-07-25 23:10:00","1388","1.153","319.6","2.7110000000000003","338.5","1011.886","25.59","69.08","0.0","0.0"],
    [1530344,"2026-07-25 23:20:00","1389","0.948","303.7","1.7309999999999999","285.9","1012.072","25.57","68.84","0.0","0.0"],
    [1530345,"2026-07-25 23:30:00","1390","1.095","300.9","2.0580000000000003","325.8","1012.174","25.65","69.46","0.0","0.0"],
    [1530346,"2026-07-25 23:40:00","1391","0.907","322.1","1.7309999999999999","346.6","1012.178","25.68","70.32","0.0","0.0"],
    [1530347,"2026-07-25 23:50:00","1392","1.587","344.5","2.221","345.1","1011.92","25.65","70.96","0.0","0.0"],
    [1530348,"2026-07-26 00:00:00","1393","0.89","337.5","1.797","337.9","1012.092","25.63","72.0","0.0","0.0"],
    [1530349,"2026-07-26 00:10:00","1394","0.574","346.4","1.4369999999999998","23.5","1012.151","25.51","71.65","0.0","0.0"],
    [1530350,"2026-07-26 00:20:00","1395","0.56","341.2","2.319","340.5","1012.05","25.57","72.35","0.0","0.0"],
    [1530351,"2026-07-26 00:30:00","1396","0.958","344.9","1.7309999999999999","17.31","1011.978","25.51","72.31","0.0","0.0"],
    [1530352,"2026-07-26 00:40:00","1397","0.496","329.4","1.274","349.7","1012.266","25.47","71.93","0.0","0.0"],
    [1530353,"2026-07-26 00:50:00","1398","0.457","323.9","1.111","354.8","1012.329","25.55","72.04","0.0","0.0"],
    [1530354,"2026-07-26 01:00:00","1399","0.473","230.3","1.045","247.0","1012.474","25.67","72.08","0.0","0.0"],
    [1530355,"2026-07-26 01:10:00","1400","0.831","227.2","1.176","260.3","1012.546","25.8","71.77","0.0","0.0"],
    [1530356,"2026-07-26 01:20:00","1401","1.2770000000000001","248.6","1.895","247.5","1012.543","25.71","69.93","0.0","0.0"],
    [1530357,"2026-07-26 01:30:00","1402","0.42200000000000004","200.2","1.176","188.6","1012.482","25.59","68.03","0.0","0.0"],
    [1530358,"2026-07-26 01:40:00","1403","1.222","246.2","2.0909999999999997","248.1","1012.581","25.69","67.51","0.0","0.0"],
    [1530359,"2026-07-26 01:50:00","1404","2.818","207.8","7.644","166.7","1012.569","25.6","69.37","0.0","0.0"],
    [1530360,"2026-07-26 02:00:00","1405","4.1080000000000005","186.2","5.749","199.2","1012.445","25.21","74.15","0.0","0.0"],
    [1530361,"2026-07-26 02:10:00","1406","2.887","196.6","4.737","171.5","1012.464","25.16","75.97","0.0","0.0"],
    [1530362,"2026-07-26 02:20:00","1407","2.735","185.5","4.312","165.7","1012.392","25.01","77.21","0.0","0.0"],
    [1530363,"2026-07-26 02:30:00","1408","1.819","210.1","2.6460000000000004","216.2","1012.356","24.93","75.73","0.0","0.0"],
    [1530364,"2026-07-26 02:40:00","1409","1.391","246.1","2.319","251.3","1012.535","24.97","74.74","0.0","0.0"],
    [1530365,"2026-07-26 02:50:00","1410","1.046","260.5","2.123","256.7","1012.774","25.02","74.17","0.0","0.0"],
    [1530366,"2026-07-26 03:00:00","1411","0.983","264.1","1.895","275.9","1012.87","24.95","73.42","0.0","0.0"],
    [1530367,"2026-07-26 03:10:00","1412","0.997","234.9","2.221","255.2","1013.047","25.02","69.95","0.0","0.0"],
    [1530368,"2026-07-26 03:20:00","1413","1.48","168.8","2.5810000000000004","170.6","1013.101","25.38","69.07","0.0","0.0"],
    [1530369,"2026-07-26 03:30:00","1414","1.337","205.7","2.515","209.1","1013.281","25.52","69.44","0.0","0.0"],
    [1530370,"2026-07-26 03:40:00","1415","1.3869999999999998","265.7","3.267","292.6","1013.344","25.23","66.32","0.0","0.0"],
    [1530371,"2026-07-26 03:50:00","1416","3.313","310.0","4.867","318.7","1013.209","24.99","52.6","0.0","0.0"],
    [1530372,"2026-07-26 04:00:00","1417","3.639","306.1","5.357","303.1","1013.184","25.24","49.33","0.0","0.0"],
    [1530373,"2026-07-26 04:10:00","1418","4.417","315.9","6.239","324.1","1013.093","25.11","48.05","0.0","0.0"],
    [1530374,"2026-07-26 04:20:00","1419","5.023","319.1","6.337000000000001","313.4","1013.004","24.87","47.98","0.0","0.0"],
    [1530375,"2026-07-26 04:30:00","1420","4.118","311.0","5.847","309.7","1013.101","24.77","48.49","0.0","0.0"],
    [1530376,"2026-07-26 04:40:00","1421","3.716","311.4","5.815","311.7","1013.038","24.64","48.02","0.146","0.0"],
    [1530377,"2026-07-26 04:50:00","1422","3.3289999999999997","294.0","5.847","316.6","1013.034","24.41","46.93","2.8510000000000004","0.0"],
    [1530378,"2026-07-26 05:00:00","1423","2.984","305.3","4.345","312.0","1013.044","24.27","48.22","8.48","0.0"],
    [1530379,"2026-07-26 05:10:00","1424","2.938","297.1","4.802","278.3","1013.051","24.2","49.32","17.48","0.0"],
    [1530380,"2026-07-26 05:20:00","1425","3.8369999999999997","286.8","5.619","285.1","1013.119","24.06","48.55","31.71","0.0"],
    [1530381,"2026-07-26 05:30:00","1426","3.7960000000000003","286.5","7.056","293.3","1013.279","23.95","49.37","40.74","0.0"],
    [1530382,"2026-07-26 05:40:00","1427","5.066","294.5","6.827000000000001","297.7","1013.389","23.7","50.07","58.56","0.0"],
    [1530383,"2026-07-26 05:50:00","1428","4.979","294.7","7.644","282.2","1013.475","23.56","50.6","74.8","0.0"],
    [1530384,"2026-07-26 06:00:00","1429","4.539","293.2","7.285","297.4","1013.466","23.59","50.46","99.2","0.0"],
    [1530385,"2026-07-26 06:10:00","1430","5.2170000000000005","298.0","7.154","315.1","1013.489","23.47","50.9","97.8","0.0"],
    [1530386,"2026-07-26 06:20:00","1431","5.226","303.0","7.905","304.6","1013.42","23.47","50.54","144.9","0.0"],
    [1530387,"2026-07-26 06:30:00","1432","5.635","303.3","8.62","304.3","1013.463","23.42","50.25","173.3","0.0"],
    [1530388,"2026-07-26 06:40:00","1433","5.112","303.1","7.4479999999999995","311.6","1013.491","23.46","50.36","205.3","0.0"],
    [1530389,"2026-07-26 06:50:00","1434","6.01","296.7","8.66","297.4","1013.571","23.56","49.68","232.6","0.0"],
    [1530390,"2026-07-26 07:00:00","1435","5.233","296.1","7.807","308.4","1013.747","23.65","49.38","273.2","0.0"],
    [1530391,"2026-07-26 07:10:00","1436","4.5969999999999995","296.8","6.729","300.6","1013.856","23.91","48.64","252.0","0.0"],
    [1530392,"2026-07-26 07:20:00","1437","3.304","296.9","4.965","308.3","1013.963","24.44","47.73","308.0","0.0"],
    [1530393,"2026-07-26 07:30:00","1438","4.198","303.5","6.141","314.6","1014.119","24.41","47.58","305.0","0.0"],
    [1530394,"2026-07-26 07:40:00","1439","4.671","301.5","6.925","298.4","1014.21","24.27","47.63","286.5","0.0"],
    [1530395,"2026-07-26 07:50:00","1440","4.8469999999999995","294.6","7.579","290.1","1014.378","24.38","47.4","194.9","0.0"],
    [1530396,"2026-07-26 08:00:00","1441","5.584","296.2","8.04","298.7","1014.419","24.15","48.12","277.9","0.0"],
    [1530397,"2026-07-26 08:10:00","1442","4.327","296.8","6.795","288.7","1014.429","24.44","47.75","315.3","0.0"],
    [1530398,"2026-07-26 08:20:00","1443","4.687","301.3","7.611000000000001","302.7","1014.495","24.5","47.31","228.6","0.0"],
    [1530399,"2026-07-26 08:30:00","1444","4.154","293.6","7.154","306.7","1014.641","24.61","46.76","279.0","0.0"],
    [1530400,"2026-07-26 08:40:00","1445","3.717","293.5","6.141","284.6","1014.686","25.2","45.61","528.6","0.0"],
    [1530401,"2026-07-26 08:50:00","1446","3.9019999999999997","299.9","6.011","282.2","1014.745","25.6","44.92","536.7","0.0"],
    [1530402,"2026-07-26 09:00:00","1447","4.578","300.8","6.1739999999999995","302.8","1014.887","25.49","45.36","545.6","0.0"],
    [1530403,"2026-07-26 09:10:00","1448","3.4789999999999996","299.8","6.272","297.8","1014.924","25.92","44.76","537.3","0.0"],
    [1530404,"2026-07-26 09:20:00","1449","3.4539999999999997","296.2","5.096","284.9","1014.953","26.22","43.99","576.9","0.0"],
    [1530405,"2026-07-26 09:30:00","1450","3.049","307.2","5.455","285.1","1015.031","26.27","44.53","595.5","0.0"],
    [1530406,"2026-07-26 09:40:00","1451","3.16","298.8","4.965","298.3","1015.077","26.3","44.48","392.0","0.0"],
    [1530407,"2026-07-26 09:50:00","1452","2.716","297.8","4.4430000000000005","300.0","1015.056","26.35","44.01","474.7","0.0"],
    [1530408,"2026-07-26 10:00:00","1453","2.256","298.1","3.397","310.8","1014.999","27.05","41.92","708.6","0.0"],
    [1530409,"2026-07-26 10:10:00","1454","0.9109999999999999","315.5","2.515","313.7","1015.038","27.27","41.85","779.9","0.0"],
    [1530410,"2026-07-26 10:20:00","1455","1.236","275.5","2.613","165.2","1015.058","27.6","42.61","807.0","0.0"],
    [1530411,"2026-07-26 10:30:00","1456","2.133","164.7","3.593","162.1","1015.046","27.35","45.65","824.0","0.0"],
    [1530412,"2026-07-26 10:40:00","1457","2.387","195.7","4.508","165.0","1014.915","27.88","44.79","859.0","0.0"],
    [1530413,"2026-07-26 10:50:00","1458","3.9730000000000003","160.1","5.031000000000001","166.7","1014.842","27.01","49.76","872.0","0.0"],
    [1530414,"2026-07-26 11:00:00","1459","5.033","154.7","5.782","155.5","1014.776","26.59","51.88","876.0","0.0"],
    [1530415,"2026-07-26 11:10:00","1460","4.223","166.8","5.586","168.5","1014.736","26.68","52.8","887.0","0.0"],
    [1530416,"2026-07-26 11:20:00","1461","4.3389999999999995","164.4","5.553","170.7","1014.7","26.61","53.86","896.0","0.0"],
    [1530417,"2026-07-26 11:30:00","1462","4.606","167.4","5.88","179.6","1014.631","26.53","53.48","906.0","0.0"],
    [1530418,"2026-07-26 11:40:00","1463","4.91","166.3","6.37","167.5","1014.698","26.67","55.72","918.0","0.0"],
    [1530419,"2026-07-26 11:50:00","1464","4.948","161.9","6.011","163.9","1014.76","26.53","56.41","918.0","0.0"],
    [1530420,"2026-07-26 12:00:00","1465","5.47","170.3","6.925","166.1","1014.75","26.75","57.48","927.0","0.0"],
    [1530421,"2026-07-26 12:10:00","1466","4.797","174.1","6.403","187.9","1014.754","26.94","54.72","927.0","0.0"],
    [1530422,"2026-07-26 12:20:00","1467","5.374","171.1","6.37","185.8","1014.633","26.84","54.69","928.0","0.0"],
    [1530423,"2026-07-26 12:30:00","1468","5.706","169.0","6.925","170.7","1014.508","26.87","56.77","928.0","0.0"],
    [1530424,"2026-07-26 12:40:00","1469","5.79","173.4","7.4479999999999995","174.8","1014.408","26.9","56.89","927.0","0.0"],
    [1530425,"2026-07-26 12:50:00","1470","6.379","170.5","7.415","161.4","1014.318","26.9","58.14","921.0","0.0"],
    [1530426,"2026-07-26 13:00:00","1471","6.473","167.4","7.872999999999999","163.8","1014.294","26.87","59.17","911.0","0.0"],
    [1530427,"2026-07-26 13:10:00","1472","6.002000000000001","170.0","7.317","167.6","1014.37","27.07","58.59","898.0","0.0"],
    [1530428,"2026-07-26 13:20:00","1473","6.751","161.2","8.4","159.1","1014.321","26.78","59.36","888.0","0.0"],
    [1530429,"2026-07-26 13:30:00","1474","6.875","165.2","8.23","168.5","1014.261","26.8","59.28","875.0","0.0"],
    [1530430,"2026-07-26 13:40:00","1475","6.3629999999999995","174.6","7.905","183.0","1014.242","27.04","59.43","858.0","0.0"],
    [1530431,"2026-07-26 13:50:00","1476","6.04","178.4","7.513","176.4","1014.143","27.29","56.91","835.0","0.0"],
    [1530432,"2026-07-26 14:00:00","1477","6.852","174.0","8.56","165.3","1014.083","27.41","57.88","821.0","0.0"],
    [1530433,"2026-07-26 14:10:00","1478","6.582000000000001","179.4","9.08","177.7","1014.062","27.46","56.09","802.0","0.0"],
    [1530434,"2026-07-26 14:20:00","1479","7.169","186.3","10.91","190.2","1013.971","27.65","55.08","782.8","0.0"],
    [1530435,"2026-07-26 14:30:00","1480","7.936","183.7","10.42","192.6","1013.866","27.57","55.24","762.5","0.0"],
    [1530436,"2026-07-26 14:40:00","1481","7.841","190.4","10.0","191.1","1013.971","27.81","54.73","737.4","0.0"],
    [1530437,"2026-07-26 14:50:00","1482","7.459","191.5","10.0","178.4","1014.001","27.83","52.77","716.8","0.0"],
    [1530438,"2026-07-26 15:00:00","1483","6.941","194.6","10.62","192.2","1014.094","28.28","50.11","690.4","0.0"],
    [1530439,"2026-07-26 15:10:00","1484","7.354","189.2","9.87","190.1","1014.13","27.86","51.98","668.0","0.0"],
    [1530440,"2026-07-26 15:20:00","1485","7.5489999999999995","190.0","9.93","195.1","1014.146","28.03","48.98","639.8","0.0"],
    [1530441,"2026-07-26 15:30:00","1486","7.437","190.2","9.64","184.9","1014.231","27.92","49.4","611.9","0.0"],
    [1530442,"2026-07-26 15:40:00","1487","7.041","193.1","9.57","191.8","1014.267","28.02","49.38","587.1","0.0"],
    [1530443,"2026-07-26 15:50:00","1488","6.341","190.5","8.95","196.8","1014.323","28.03","49.58","557.2","0.0"],
    [1530444,"2026-07-26 16:00:00","1489","6.446000000000001","182.1","8.92","189.6","1014.347","27.87","50.69","526.0","0.0"],
    [1530445,"2026-07-26 16:10:00","1490","5.9239999999999995","182.4","7.611000000000001","181.2","1014.414","27.78","50.58","493.1","0.0"],
    [1530446,"2026-07-26 16:20:00","1491","5.7589999999999995","183.2","8.07","191.7","1014.418","27.76","50.3","462.6","0.0"],
    [1530447,"2026-07-26 16:30:00","1492","5.687","178.9","7.775","174.0","1014.465","27.75","51.36","429.3","0.0"],
    [1530448,"2026-07-26 16:40:00","1493","6.059","175.7","8.04","172.6","1014.471","27.66","52.75","397.0","0.0"],
    [1530449,"2026-07-26 16:50:00","1494","6.215","175.1","7.775","175.1","1014.457","27.64","53.76","364.7","0.0"],
    [1530450,"2026-07-26 17:00:00","1495","5.876","171.3","6.9910000000000005","168.0","1014.547","27.64","54.41","330.3","0.0"],
    [1530451,"2026-07-26 17:10:00","1496","6.513999999999999","162.1","9.28","175.8","1014.529","27.5","54.17","302.0","0.0"],
    [1530452,"2026-07-26 17:20:00","1497","6.255","169.3","7.971","160.4","1014.616","27.51","53.05","270.6","0.0"],
    [1530453,"2026-07-26 17:30:00","1498","6.254","157.2","7.187","146.6","1014.627","27.46","53.72","239.3","0.0"],
    [1530454,"2026-07-26 17:40:00","1499","6.422000000000001","155.0","8.1","163.3","1014.685","27.37","54.21","206.3","0.0"],
    [1530455,"2026-07-26 17:50:00","1500","5.93","161.6","7.644","166.2","1014.806","27.42","53.62","176.4","0.0"],
    [1530456,"2026-07-26 18:00:00","1501","6.131","158.4","7.382999999999999","152.6","1014.887","27.36","55.26","146.6","0.0"],
    [1530457,"2026-07-26 18:10:00","1502","5.615","151.8","6.7620000000000005","143.9","1015.014","27.3","55.14","118.3","0.0"],
    [1530458,"2026-07-26 18:20:00","1503","5.085","163.6","6.599","184.3","1015.086","27.29","54.52","93.0","0.0"],
    [1530459,"2026-07-26 18:30:00","1504","5.6129999999999995","160.9","6.893","160.0","1015.089","27.33","57.57","69.8","0.0"],
    [1530460,"2026-07-26 18:40:00","1505","5.992000000000001","159.1","7.709","171.7","1015.114","27.1","61.37","49.31","0.0"],
    [1530461,"2026-07-26 18:50:00","1506","6.058","150.8","7.317","150.5","1015.156","26.92","64.16","31.53","0.0"],
    [1530462,"2026-07-26 19:00:00","1507","5.768","156.9","6.957999999999999","163.8","1015.155","26.95","63.54","16.47","0.0"],
    [1530463,"2026-07-26 19:10:00","1508","5.832000000000001","159.4","6.631","153.6","1015.216","26.95","63.12","7.395","0.0"],
    [1530464,"2026-07-26 19:20:00","1509","5.7410000000000005","153.9","7.121","149.8","1015.313","26.89","64.03","2.267","0.0"],
    [1530465,"2026-07-26 19:30:00","1510","5.479","158.0","6.729","160.2","1015.403","26.9","63.83","0.07400000000000001","0.0"],
    [1530466,"2026-07-26 19:40:00","1511","5.346","156.9","6.7620000000000005","163.1","1015.567","26.9","63.73","0.0","0.0"],
    [1530467,"2026-07-26 19:50:00","1512","5.2989999999999995","163.5","6.893","164.9","1015.721","26.95","64.01","0.0","0.0"],
    [1530468,"2026-07-26 20:00:00","1513","5.167000000000001","162.2","6.337000000000001","161.8","1015.844","26.96","63.95","0.0","0.0"],
    [1530469,"2026-07-26 20:10:00","1514","5.303999999999999","169.9","7.35","171.3","1016.008","27.0","63.79","0.0","0.0"],
    [1530470,"2026-07-26 20:20:00","1515","5.2379999999999995","166.7","6.207000000000001","168.2","1016.215","27.02","63.89","0.0","0.0"],
    [1530471,"2026-07-26 20:30:00","1516","5.155","163.6","6.37","163.9","1016.391","27.1","62.85","0.0","0.0"],
    [1530472,"2026-07-26 20:40:00","1517","4.9639999999999995","166.6","6.011","164.5","1016.487","27.13","62.54","0.0","0.0"],
    [1530473,"2026-07-26 20:50:00","1518","4.556","165.8","5.651","173.1","1016.567","27.15","62.72","0.0","0.0"],
    [1530474,"2026-07-26 21:00:00","1519","5.21","162.6","6.207000000000001","166.3","1016.596","27.16","63.19","0.0","0.0"],
    [1530475,"2026-07-26 21:10:00","1520","4.966","162.8","5.7170000000000005","161.7","1016.67","27.15","63.81","0.0","0.0"],
    [1530476,"2026-07-26 21:20:00","1521","4.6530000000000005","165.3","5.912999999999999","158.1","1016.685","27.16","63.88","0.0","0.0"],
    [1530477,"2026-07-26 21:30:00","1522","4.218","185.4","5.651","189.0","1016.732","27.33","60.64","0.0","0.0"],
    [1530478,"2026-07-26 21:40:00","1523","4.583","181.0","6.435","167.1","1016.74","27.4","60.86","0.0","0.0"],
    [1530479,"2026-07-26 21:50:00","1524","4.957","184.7","6.207000000000001","174.2","1016.718","27.4","60.09","0.0","0.0"],
    [1530480,"2026-07-26 22:00:00","1525","4.827","190.0","7.0889999999999995","179.7","1016.758","27.44","60.14","0.0","0.0"],
    [1530481,"2026-07-26 22:10:00","1526","3.641","203.7","5.619","211.3","1016.869","27.45","57.48","0.0","0.0"],
    [1530482,"2026-07-26 22:20:00","1527","3.247","207.2","4.933","205.6","1016.99","27.46","56.84","0.0","0.0"],
    [1530483,"2026-07-26 22:30:00","1528","2.47","210.7","4.377","203.6","1017.07","27.44","56.94","0.0","0.0"],
    [1530484,"2026-07-26 22:40:00","1529","3.661","202.6","5.553","189.0","1017.059","27.37","58.34","0.0","0.0"],
    [1530485,"2026-07-26 22:50:00","1530","3.74","200.8","5.1610000000000005","203.0","1016.994","27.32","59.17","0.0","0.0"],
    [1530486,"2026-07-26 23:00:00","1531","2.7310000000000003","206.7","5.455","200.7","1016.995","27.24","59.42","0.0","0.0"],
    [1530487,"2026-07-26 23:10:00","1532","3.032","208.9","4.835","203.7","1016.972","27.22","59.57","0.0","0.0"],
    [1530488,"2026-07-26 23:20:00","1533","2.9960000000000004","201.4","4.802","205.0","1016.945","27.17","61.48","0.0","0.0"],
    [1530489,"2026-07-26 23:30:00","1534","4.046","190.4","6.109","202.2","1016.924","27.16","64.09","0.0","0.0"],
    [1530490,"2026-07-26 23:40:00","1535","4.019","196.6","5.945","192.0","1016.894","27.08","64.85","0.0","0.0"],
    [1530491,"2026-07-26 23:50:00","1536","4.2010000000000005","192.0","6.305","189.9","1016.842","27.04","65.7","0.0","0.0"],
    [1530492,"2026-07-27 00:00:00","1537","4.525","190.0","6.0760000000000005","196.0","1016.778","27.0","67.3","0.0","0.0"],
    [1530493,"2026-07-27 00:10:00","1538","4.353","184.0","5.782","170.3","1016.712","26.93","68.47","0.0","0.0"],
    [1530494,"2026-07-27 00:20:00","1539","5.254","175.7","6.893","166.6","1016.627","26.98","71.05","0.0","0.0"],
    [1530495,"2026-07-27 00:30:00","1540","5.886","166.9","7.187","164.6","1016.539","26.92","72.69","0.0","0.0"],
    [1530496,"2026-07-27 00:40:00","1541","5.957999999999999","161.7","7.056","158.1","1016.415","26.87","73.47","0.0","0.0"],
    [1530497,"2026-07-27 00:50:00","1542","5.6160000000000005","165.7","7.056","161.9","1016.331","26.97","73.57","0.0","0.0"],
    [1530498,"2026-07-27 01:00:00","1543","5.294","170.0","7.546","166.8","1016.33","27.05","71.44","0.0","0.0"],
    [1530499,"2026-07-27 01:10:00","1544","3.364","196.2","6.042999999999999","170.9","1016.335","26.99","68.6","0.0","0.0"],
    [1530500,"2026-07-27 01:20:00","1545","1.006","234.0","2.254","204.9","1016.364","26.84","65.3","0.0","0.0"],
    [1530501,"2026-07-27 01:30:00","1546","0.503","264.2","1.274","260.7","1016.347","26.52","67.24","0.0","0.0"],
    [1530502,"2026-07-27 01:40:00","1547","0.0","0.0","0.0","0.0","1016.365","26.36","68.56","0.0","0.0"],
    [1530503,"2026-07-27 01:50:00","1548","0.441","319.7","1.143","328.4","1016.453","26.25","68.16","0.0","0.0"],
    [1530504,"2026-07-27 02:00:00","1549","1.08","0.244","1.601","35.79","1016.506","26.53","67.05","0.0","0.0"],
    [1530505,"2026-07-27 02:10:00","1550","2.736","18.14","4.41","15.25","1016.494","26.84","66.39","0.0","0.0"],
    [1530506,"2026-07-27 02:20:00","1551","4.311","12.75","5.325","15.77","1016.49","26.17","71.19","0.0","0.0"],
    [1530507,"2026-07-27 02:30:00","1552","4.1739999999999995","8.21","5.553","3.076","1016.494","25.88","71.01","0.0","0.0"],
    [1530508,"2026-07-27 02:40:00","1553","4.046","8.57","5.227","8.48","1016.476","25.73","71.45","0.0","0.0"],
    [1530509,"2026-07-27 02:50:00","1554","4.122","7.99","4.965","13.19","1016.545","25.75","72.22","0.0","0.0"],
    [1530510,"2026-07-27 03:00:00","1555","3.553","5.987","4.41","7.981","1016.592","25.76","72.58","0.0","0.0"],
    [1530511,"2026-07-27 03:10:00","1556","3.432","4.09","4.671","17.37","1016.646","25.8","72.81","0.0","0.0"],
    [1530512,"2026-07-27 03:20:00","1557","3.858","2.193","4.998","3.8139999999999996","1016.666","25.71","72.8","0.0","0.0"],
    [1530513,"2026-07-27 03:30:00","1558","3.391","4.2010000000000005","4.965","2.559","1016.636","25.54","72.77","0.0","0.0"],
    [1530514,"2026-07-27 03:40:00","1559","3.9810000000000003","6.17","5.39","8.76","1016.668","25.53","73.15","0.0","0.0"],
    [1530515,"2026-07-27 03:50:00","1560","3.964","6.147","5.912999999999999","14.1","1016.66","25.56","74.0","0.0","0.0"],
    [1530516,"2026-07-27 04:00:00","1561","3.853","360.0","5.194","5.277","1016.701","25.52","73.7","0.0","0.0"],
    [1530517,"2026-07-27 04:10:00","1562","3.552","0.8140000000000001","5.227","344.3","1016.788","25.45","73.78","0.0","0.0"],
    [1530518,"2026-07-27 04:20:00","1563","4.197","346.0","5.651","342.3","1016.898","25.42","74.53","0.0","0.0"],
    [1530519,"2026-07-27 04:30:00","1564","3.182","351.0","4.737","339.2","1016.967","25.29","73.8","0.0","0.0"],
    [1530520,"2026-07-27 04:40:00","1565","4.2330000000000005","342.2","6.37","346.1","1017.052","25.35","73.3","0.41200000000000003","0.0"],
    [1530521,"2026-07-27 04:50:00","1566","4.047","341.4","5.129","341.2","1017.157","25.34","71.87","3.56","0.0"],
    [1530522,"2026-07-27 05:00:00","1567","3.971","340.4","5.129","339.9","1017.207","25.28","69.77","9.78","0.0"],
    [1530523,"2026-07-27 05:10:00","1568","3.096","343.8","4.933","336.8","1017.26","25.33","68.62","19.5","0.0"],
    [1530524,"2026-07-27 05:20:00","1569","3.102","335.4","4.41","324.5","1017.315","25.31","67.83","33.39","0.0"],
    [1530525,"2026-07-27 05:30:00","1570","3.7230000000000003","321.3","5.422999999999999","319.9","1017.379","25.18","65.0","59.92","0.0"],
    [1530526,"2026-07-27 05:40:00","1571","3.353","320.8","4.769","330.1","1017.486","25.15","62.62","83.0","0.0"],
    [1530527,"2026-07-27 05:50:00","1572","2.7310000000000003","322.8","4.279","321.4","1017.547","25.36","61.1","107.8","0.0"],
    [1530528,"2026-07-27 06:00:00","1573","2.6180000000000003","308.2","4.1160000000000005","315.0","1017.628","25.54","56.37","135.5","0.0"],
    [1530529,"2026-07-27 06:10:00","1574","2.539","307.5","4.41","315.4","1017.713","25.88","54.41","163.9","0.0"],
    [1530530,"2026-07-27 06:20:00","1575","3.1439999999999997","317.6","5.422999999999999","346.7","1017.818","25.79","55.57","193.7","0.0"],
    [1530531,"2026-07-27 06:30:00","1576","2.365","316.5","4.083","331.7","1017.921","26.02","56.8","225.6","0.0"],
    [1530532,"2026-07-27 06:40:00","1577","2.416","338.9","3.6260000000000003","15.49","1018.026","25.98","57.8","260.7","0.0"],
    [1530533,"2026-07-27 06:50:00","1578","3.133","352.0","5.063","349.5","1018.132","25.78","59.44","290.7","0.0"],
    [1530534,"2026-07-27 07:00:00","1579","3.199","12.4","4.933","16.78","1018.257","25.68","62.15","339.0","0.0"],
    [1530535,"2026-07-27 07:10:00","1580","3.677","13.63","4.933","16.89","1018.331","25.73","58.99","368.2","0.0"],
    [1530536,"2026-07-27 07:20:00","1581","3.2319999999999998","5.535","4.671","24.34","1018.409","25.77","58.77","396.8","0.0"],
    [1530537,"2026-07-27 07:30:00","1582","3.37","22.72","6.337000000000001","16.15","1018.443","25.76","58.29","423.9","0.0"],
    [1530538,"2026-07-27 07:40:00","1583","3.41","17.88","6.403","17.4","1018.477","25.67","60.05","451.1","0.0"],
    [1530539,"2026-07-27 07:50:00","1584","3.367","15.5","5.553","27.4","1018.534","25.76","59.67","483.4","0.0"],
    [1530540,"2026-07-27 08:00:00","1585","3.6519999999999997","35.6","4.508","7.8","1018.629","25.68","62.32","523.3","0.0"],
    [1530541,"2026-07-27 08:10:00","1586","3.565","45.68","5.1610000000000005","53.37","1018.619","25.69","64.58","561.1","0.0"],
    [1530542,"2026-07-27 08:20:00","1587","3.813","49.78","5.292000000000001","51.14","1018.615","25.64","64.65","573.3","0.0"],
    [1530543,"2026-07-27 08:30:00","1588","3.6260000000000003","41.84","5.1610000000000005","46.3","1018.647","25.77","65.49","594.6","0.0"],
    [1530544,"2026-07-27 08:40:00","1589","3.948","64.29","5.521","75.72","1018.755","25.7","67.34","627.5","0.0"],
    [1530545,"2026-07-27 08:50:00","1590","4.223","66.48","5.7170000000000005","82.4","1018.841","25.67","67.84","656.6","0.0"],
    [1530546,"2026-07-27 09:00:00","1591","4.456","76.56","5.619","72.22","1018.911","25.6","68.63","679.2","0.0"],
    [1530547,"2026-07-27 09:10:00","1592","4.473","75.29","5.619","75.28","1018.965","25.59","68.66","702.9","0.0"],
    [1530548,"2026-07-27 09:20:00","1593","4.36","76.81","6.042999999999999","71.14","1018.959","25.65","69.02","725.7","0.0"],
    [1530549,"2026-07-27 09:30:00","1594","4.63","83.6","5.88","89.5","1018.995","25.61","68.91","750.9","0.0"],
    [1530550,"2026-07-27 09:40:00","1595","4.729","77.63","6.272","85.6","1019.042","25.57","68.88","772.9","0.0"],
    [1530551,"2026-07-27 09:50:00","1596","4.849","83.0","6.37","79.21","1019.039","25.6","68.02","793.4","0.0"],
    [1530552,"2026-07-27 10:00:00","1597","5.2010000000000005","82.5","6.501","75.2","1019.049","25.61","67.59","812.0","0.0"],
    [1530553,"2026-07-27 10:10:00","1598","4.968999999999999","87.0","6.337000000000001","84.1","1019.075","25.68","67.85","829.0","0.0"],
    [1530554,"2026-07-27 10:20:00","1599","5.267","91.1","6.5329999999999995","94.4","1019.064","25.68","68.62","846.0","0.0"],
    [1530555,"2026-07-27 10:30:00","1600","4.86","93.3","7.546","83.5","1019.016","25.67","68.98","860.0","0.0"],
    [1530556,"2026-07-27 10:40:00","1601","4.92","90.9","6.207000000000001","90.6","1019.011","25.75","70.15","875.0","0.0"],
    [1530557,"2026-07-27 10:50:00","1602","4.987","88.0","6.599","97.6","1019.003","25.62","70.73","889.0","0.0"],
    [1530558,"2026-07-27 11:00:00","1603","4.343999999999999","88.4","6.141","99.2","1019.038","25.73","71.13","898.0","0.0"],
    [1530559,"2026-07-27 11:10:00","1604","4.638","88.9","6.403","82.8","1019.064","25.78","71.01","908.0","0.0"],
    [1530560,"2026-07-27 11:20:00","1605","4.794","90.1","6.305","98.6","1019.032","25.8","71.47","916.0","0.0"],
    [1530561,"2026-07-27 11:30:00","1606","4.928999999999999","97.2","7.0889999999999995","87.6","1018.959","25.84","72.05","923.0","0.0"],
    [1530562,"2026-07-27 11:40:00","1607","4.8580000000000005","94.2","6.566","78.94","1018.916","25.94","71.94","925.0","0.0"],
    [1530563,"2026-07-27 11:50:00","1608","5.002","101.9","6.697","103.3","1018.929","25.9","72.04","928.0","0.0"],
    [1530564,"2026-07-27 12:00:00","1609","4.698","98.7","6.207000000000001","103.2","1018.862","25.93","71.93","929.0","0.0"],
    [1530565,"2026-07-27 12:10:00","1610","4.238","98.5","6.272","100.5","1018.808","26.11","72.31","929.0","0.0"],
    [1530566,"2026-07-27 12:20:00","1611","4.328","94.6","5.978","115.8","1018.709","26.2","72.48","928.0","0.0"],
    [1530567,"2026-07-27 12:30:00","1612","4.124","101.8","5.651","98.4","1018.617","26.29","73.99","922.0","0.0"],
    [1530568,"2026-07-27 12:40:00","1613","4.625","104.2","6.501","108.4","1018.519","26.36","74.13","920.0","0.0"],
    [1530569,"2026-07-27 12:50:00","1614","4.996","112.9","6.468","114.6","1018.45","26.42","74.42","913.0","0.0"],
    [1530570,"2026-07-27 13:00:00","1615","5.476","116.7","7.382999999999999","115.8","1018.384","26.46","75.07","907.0","0.0"],
    [1530571,"2026-07-27 13:10:00","1616","5.524","115.9","6.925","110.9","1018.357","26.57","75.16","895.0","0.0"],
    [1530572,"2026-07-27 13:20:00","1617","5.737","114.8","7.481","113.6","1018.317","26.65","75.87","883.0","0.0"],
    [1530573,"2026-07-27 13:30:00","1618","5.62","119.7","7.0889999999999995","120.2","1018.254","26.73","75.83","871.0","0.0"],
    [1530574,"2026-07-27 13:40:00","1619","4.582","132.4","6.957999999999999","125.9","1018.177","26.91","75.29","858.0","0.0"],
    [1530575,"2026-07-27 13:50:00","1620","5.403","133.5","6.697","128.7","1018.091","26.87","75.21","843.0","0.0"],
    [1530576,"2026-07-27 14:00:00","1621","5.484","134.3","6.925","130.9","1018.043","26.91","74.45","825.0","0.0"],
    [1530577,"2026-07-27 14:10:00","1622","5.321000000000001","135.6","6.86","130.9","1017.967","27.03","74.17","806.0","0.0"],
    [1530578,"2026-07-27 14:20:00","1623","4.968","133.0","6.1739999999999995","136.0","1017.855","27.05","73.23","787.3","0.0"],
    [1530579,"2026-07-27 14:30:00","1624","4.721","134.4","5.7170000000000005","135.3","1017.747","27.12","72.37","764.6","0.0"],
    [1530580,"2026-07-27 14:40:00","1625","4.321000000000001","135.7","5.227","147.2","1017.72","27.38","69.78","741.5","0.0"],
    [1530581,"2026-07-27 14:50:00","1626","3.853","130.7","5.422999999999999","138.9","1017.619","27.48","70.16","717.6","0.0"],
    [1530582,"2026-07-27 15:00:00","1627","4.0169999999999995","150.1","5.684","139.5","1017.557","27.67","69.77","692.4","0.0"],
    [1530583,"2026-07-27 15:10:00","1628","4.0489999999999995","180.8","4.9","190.4","1017.471","28.01","67.61","671.1","0.0"],
    [1530584,"2026-07-27 15:20:00","1629","4.605","181.7","5.619","181.6","1017.382","28.0","67.38","646.3","0.0"],
    [1530585,"2026-07-27 15:30:00","1630","5.1610000000000005","177.1","6.141","181.2","1017.326","27.88","66.78","621.9","0.0"],
    [1530586,"2026-07-27 15:40:00","1631","4.614","183.5","6.37","185.2","1017.34","27.9","62.45","592.9","0.0"],
    [1530587,"2026-07-27 15:50:00","1632","4.498","191.9","6.86","185.2","1017.302","28.4","56.36","567.5","0.0"],
    [1530588,"2026-07-27 16:00:00","1633","5.027","189.7","7.0889999999999995","199.1","1017.311","28.49","52.51","536.6","0.0"],
    [1530589,"2026-07-27 16:10:00","1634","5.0889999999999995","194.2","7.709","193.4","1017.322","28.68","50.4","506.0","0.0"],
    [1530590,"2026-07-27 16:20:00","1635","5.052","197.4","7.252000000000001","203.0","1017.301","28.54","49.25","473.9","0.0"],
    [1530591,"2026-07-27 16:30:00","1636","4.846","201.4","7.35","202.3","1017.263","28.74","51.14","440.1","0.0"],
    [1530592,"2026-07-27 16:40:00","1637","6.127999999999999","197.2","8.0","195.3","1017.256","28.54","51.32","406.0","0.0"],
    [1530593,"2026-07-27 16:50:00","1638","5.794","193.0","8.07","199.5","1017.191","28.23","52.82","373.4","0.0"],
    [1530594,"2026-07-27 17:00:00","1639","4.261","207.7","6.795","201.9","1017.168","28.62","50.33","342.8","0.0"],
    [1530595,"2026-07-27 17:10:00","1640","4.99","200.6","7.218999999999999","191.3","1017.117","28.53","50.22","312.4","0.0"],
    [1530596,"2026-07-27 17:20:00","1641","5.689","199.8","8.36","203.0","1017.107","28.43","49.52","281.8","0.0"],
    [1530597,"2026-07-27 17:30:00","1642","5.809","198.2","8.13","200.3","1017.106","28.32","48.62","249.0","0.0"],
    [1530598,"2026-07-27 17:40:00","1643","4.088","208.2","6.893","192.0","1017.157","28.5","46.71","214.1","0.0"],
    [1530599,"2026-07-27 17:50:00","1644","3.778","217.8","6.827000000000001","214.7","1017.137","28.76","45.69","182.7","0.0"],
    [1530600,"2026-07-27 18:00:00","1645","3.577","215.3","5.815","191.1","1017.096","28.84","44.88","153.3","0.0"],
    [1530601,"2026-07-27 18:10:00","1646","3.307","222.7","6.403","226.3","1017.117","28.65","45.05","125.5","0.0"],
    [1530602,"2026-07-27 18:20:00","1647","3.412","203.0","5.031000000000001","187.0","1017.135","28.58","46.55","99.8","0.0"],
    [1530603,"2026-07-27 18:30:00","1648","2.843","213.7","4.475","196.0","1017.165","28.43","46.18","75.29","0.0"],
    [1530604,"2026-07-27 18:40:00","1649","3.8989999999999996","203.7","6.403","195.6","1017.209","28.25","46.83","53.8","0.0"],
    [1530605,"2026-07-27 18:50:00","1650","4.004","209.4","5.684","223.6","1017.281","28.02","48.52","34.18","0.0"],
    [1530606,"2026-07-27 19:00:00","1651","3.0380000000000003","214.9","5.782","197.9","1017.382","27.95","50.29","17.11","0.0"],
    [1530607,"2026-07-27 19:10:00","1652","2.944","240.2","6.272","255.0","1017.469","27.77","52.58","6.632999999999999","0.0"],
    [1530608,"2026-07-27 19:20:00","1653","2.853","239.7","6.272","274.9","1017.553","27.62","54.01","1.422","0.0"],
    [1530609,"2026-07-27 19:30:00","1654","2.7289999999999996","221.4","4.933","210.3","1017.651","27.63","53.83","0.0","0.0"],
    [1530610,"2026-07-27 19:40:00","1655","2.589","232.7","4.9","254.6","1017.661","27.54","54.58","0.0","0.0"],
    [1530611,"2026-07-27 19:50:00","1656","3.013","232.8","5.782","253.8","1017.749","27.37","56.18","0.0","0.0"],
    [1530612,"2026-07-27 20:00:00","1657","2.877","242.4","5.521","254.8","1017.857","27.26","56.96","0.0","0.0"],
    [1530613,"2026-07-27 20:10:00","1658","2.398","235.1","4.083","229.2","1017.985","27.27","57.15","0.0","0.0"],
    [1530614,"2026-07-27 20:20:00","1659","2.641","235.9","4.606","258.6","1018.072","27.2","57.26","0.0","0.0"],
    [1530615,"2026-07-27 20:30:00","1660","1.845","235.5","4.573","253.3","1018.185","27.16","57.81","0.0","0.0"],
    [1530616,"2026-07-27 20:40:00","1661","2.615","258.2","4.933","262.1","1018.257","27.1","56.89","0.0","0.0"],
    [1530617,"2026-07-27 20:50:00","1662","2.345","268.3","4.312","261.1","1018.321","27.0","55.45","0.0","0.0"],
    [1530618,"2026-07-27 21:00:00","1663","2.358","263.0","3.6910000000000003","267.3","1018.36","26.93","53.39","0.0","0.0"],
    [1530619,"2026-07-27 21:10:00","1664","1.725","256.5","3.659","264.7","1018.349","26.95","51.93","0.0","0.0"],
    [1530620,"2026-07-27 21:20:00","1665","1.124","268.5","2.123","254.8","1018.357","26.91","52.74","0.0","0.0"],
    [1530621,"2026-07-27 21:30:00","1666","1.574","290.2","2.189","283.1","1018.314","26.8","54.31","0.0","0.0"],
    [1530622,"2026-07-27 21:40:00","1667","1.504","286.6","2.319","285.5","1018.344","26.73","54.68","0.0","0.0"],
    [1530623,"2026-07-27 21:50:00","1668","1.113","280.4","1.797","299.5","1018.349","26.71","53.98","0.0","0.0"],
    [1530624,"2026-07-27 22:00:00","1669","1.07","245.1","1.829","221.4","1018.382","26.72","53.66","0.0","0.0"],
    [1530625,"2026-07-27 22:10:00","1670","1.389","205.5","2.679","204.4","1018.407","26.77","54.89","0.0","0.0"],
    [1530626,"2026-07-27 22:20:00","1671","2.1109999999999998","200.7","3.43","198.9","1018.416","26.68","54.32","0.0","0.0"],
    [1530627,"2026-07-27 22:30:00","1672","1.381","229.4","2.9730000000000003","270.4","1018.432","26.68","53.73","0.0","0.0"],
    [1530628,"2026-07-27 22:40:00","1673","1.827","265.5","2.7769999999999997","266.3","1018.455","26.61","53.21","0.0","0.0"],
    [1530629,"2026-07-27 22:50:00","1674","2.0140000000000002","270.7","3.0380000000000003","256.0","1018.486","26.47","53.66","0.0","0.0"],
    [1530630,"2026-07-27 23:00:00","1675","2.009","274.7","2.7110000000000003","264.0","1018.48","26.41","54.6","0.0","0.0"],
    [1530631,"2026-07-27 23:10:00","1676","1.854","293.6","2.417","310.3","1018.425","26.34","55.39","0.0","0.0"],
    [1530632,"2026-07-27 23:20:00","1677","1.886","283.9","2.5810000000000004","272.6","1018.435","26.29","55.62","0.0","0.0"],
    [1530633,"2026-07-27 23:30:00","1678","0.98","272.4","2.221","294.0","1018.4","26.34","55.33","0.0","0.0"],
    [1530634,"2026-07-27 23:40:00","1679","1.161","241.1","2.287","267.1","1018.369","26.28","56.26","0.0","0.0"],
    [1530635,"2026-07-27 23:50:00","1680","1.942","256.6","3.7569999999999997","253.5","1018.367","26.29","55.53","0.0","0.0"],
    [1530636,"2026-07-28 00:00:00","1681","1.567","264.5","2.7110000000000003","271.4","1018.395","26.12","54.43","0.0","0.0"],
    [1530637,"2026-07-28 00:10:00","1682","1.683","272.1","2.6460000000000004","269.6","1018.396","25.99","54.07","0.0","0.0"],
    [1530638,"2026-07-28 00:20:00","1683","1.8880000000000001","275.0","2.7439999999999998","264.0","1018.354","25.96","52.99","0.0","0.0"],
    [1530639,"2026-07-28 00:30:00","1684","1.8219999999999998","275.8","2.5810000000000004","273.6","1018.299","25.92","53.6","0.0","0.0"],
    [1530640,"2026-07-28 00:40:00","1685","1.5730000000000002","274.0","2.254","273.8","1018.266","25.79","53.45","0.0","0.0"],
    [1530641,"2026-07-28 00:50:00","1686","1.5830000000000002","272.5","2.0909999999999997","283.4","1018.236","25.56","53.74","0.0","0.0"],
    [1530642,"2026-07-28 01:00:00","1687","1.483","270.8","1.993","270.1","1018.239","25.4","54.27","0.0","0.0"],
    [1530643,"2026-07-28 01:10:00","1688","1.462","284.9","2.156","293.1","1018.221","25.3","55.34","0.0","0.0"],
    [1530644,"2026-07-28 01:20:00","1689","1.462","272.4","2.025","267.6","1018.234","25.41","54.82","0.0","0.0"],
    [1530645,"2026-07-28 01:30:00","1690","1.671","270.7","2.189","266.8","1018.224","25.31","54.85","0.0","0.0"],
    [1530646,"2026-07-28 01:40:00","1691","1.735","261.6","2.123","264.7","1018.282","25.25","54.95","0.0","0.0"],
    [1530647,"2026-07-28 01:50:00","1692","1.51","271.6","2.025","268.1","1018.27","25.23","55.22","0.0","0.0"],
    [1530648,"2026-07-28 02:00:00","1693","1.3019999999999998","281.0","1.895","283.9","1018.303","25.22","55.66","0.0","0.0"],
    [1530649,"2026-07-28 02:10:00","1694","1.29","282.0","1.764","282.5","1018.309","25.26","55.9","0.0","0.0"],
    [1530650,"2026-07-28 02:20:00","1695","1.146","270.0","1.4369999999999998","272.8","1018.336","25.35","55.17","0.0","0.0"],
    [1530651,"2026-07-28 02:30:00","1696","1.486","264.3","1.797","258.8","1018.353","25.32","55.24","0.0","0.0"],
    [1530652,"2026-07-28 02:40:00","1697","1.2570000000000001","267.7","1.47","261.7","1018.333","25.27","55.63","0.0","0.0"],
    [1530653,"2026-07-28 02:50:00","1698","1.351","275.7","1.96","274.4","1018.343","25.22","56.04","0.0","0.0"],
    [1530654,"2026-07-28 03:00:00","1699","1.331","280.4","1.9269999999999998","276.7","1018.276","25.08","56.82","0.0","0.0"],
    [1530655,"2026-07-28 03:10:00","1700","1.2","262.8","1.9269999999999998","259.8","1018.25","24.95","57.47","0.0","0.0"],
    [1530656,"2026-07-28 03:20:00","1701","1.24","267.8","1.633","272.4","1018.196","24.86","57.42","0.0","0.0"],
    [1530657,"2026-07-28 03:30:00","1702","1.706","269.3","2.0909999999999997","268.5","1018.264","24.81","57.81","0.0","0.0"],
    [1530658,"2026-07-28 03:40:00","1703","1.984","270.6","2.515","268.5","1018.322","24.62","57.71","0.0","0.0"],
    [1530659,"2026-07-28 03:50:00","1704","2.021","273.8","2.515","270.0","1018.322","24.58","57.72","0.0","0.0"],
    [1530660,"2026-07-28 04:00:00","1705","1.72","279.1","1.993","271.7","1018.301","24.55","58.32","0.0","0.0"],
    [1530661,"2026-07-28 04:10:00","1706","1.6130000000000002","281.4","1.9269999999999998","274.9","1018.283","24.49","58.43","0.0","0.0"],
    [1530662,"2026-07-28 04:20:00","1707","1.621","282.2","1.895","274.1","1018.298","24.47","58.88","0.0","0.0"],
    [1530663,"2026-07-28 04:30:00","1708","1.528","283.9","1.797","282.3","1018.297","24.52","59.36","0.0","0.0"],
    [1530664,"2026-07-28 04:40:00","1709","1.7169999999999999","276.2","1.993","270.8","1018.275","24.55","59.68","0.16399999999999998","0.0"],
    [1530665,"2026-07-28 04:50:00","1710","1.508","274.4","1.7309999999999999","274.9","1018.294","24.56","59.91","3.009","0.0"],
    [1530666,"2026-07-28 05:00:00","1711","1.413","271.5","1.666","268.1","1018.29","24.59","60.88","9.56","0.0"],
    [1530667,"2026-07-28 05:10:00","1712","1.308","282.5","1.535","281.4","1018.304","24.75","61.44","21.88","0.0"],
    [1530668,"2026-07-28 05:20:00","1713","1.004","285.4","1.209","274.5","1018.324","24.94","61.72","38.34","0.0"],
    [1530669,"2026-07-28 05:30:00","1714","1.242","280.8","1.666","270.6","1018.302","25.29","60.97","51.48","0.0"],
    [1530670,"2026-07-28 05:40:00","1715","1.1909999999999998","273.6","1.535","266.1","1018.256","25.43","60.88","70.36","0.0"],
    [1530671,"2026-07-28 05:50:00","1716","1.618","266.0","2.0580000000000003","258.8","1018.277","25.47","60.91","99.9","0.0"],
    [1530672,"2026-07-28 06:00:00","1717","1.829","263.1","2.254","259.6","1018.343","25.76","59.95","125.2","0.0"],
    [1530673,"2026-07-28 06:10:00","1718","1.749","265.9","2.352","262.6","1018.41","25.92","59.41","157.9","0.0"],
    [1530674,"2026-07-28 06:20:00","1719","1.692","265.9","2.189","256.6","1018.46","26.27","58.82","190.4","0.0"],
    [1530675,"2026-07-28 06:30:00","1720","1.3159999999999998","266.7","2.483","268.7","1018.527","26.57","59.06","222.7","0.0"],
    [1530676,"2026-07-28 06:40:00","1721","1.3","263.5","2.123","254.5","1018.549","27.06","59.03","253.4","0.0"],
    [1530677,"2026-07-28 06:50:00","1722","1.345","267.3","2.189","265.3","1018.561","27.1","59.48","286.9","0.0"],
    [1530678,"2026-07-28 07:00:00","1723","1.703","266.9","2.679","286.6","1018.637","27.45","60.28","317.8","0.0"],
    [1530679,"2026-07-28 07:10:00","1724","1.734","261.0","2.9730000000000003","263.4","1018.707","27.43","63.16","350.0","0.0"],
    [1530680,"2026-07-28 07:20:00","1725","1.3159999999999998","285.3","2.483","280.6","1018.693","27.7","64.25","378.1","0.0"],
    [1530681,"2026-07-28 07:30:00","1726","0.9470000000000001","262.6","2.352","301.9","1018.749","27.92","63.32","406.8","0.0"],
    [1530682,"2026-07-28 07:40:00","1727","1.113","226.5","2.842","259.0","1018.76","27.78","65.4","441.0","0.0"],
    [1530683,"2026-07-28 07:50:00","1728","1.5930000000000002","211.4","2.45","256.6","1018.779","27.86","65.02","472.2","0.0"],
    [1530684,"2026-07-28 08:00:00","1729","2.841","162.9","3.985","162.1","1018.752","27.07","69.54","506.6","0.0"],
    [1530685,"2026-07-28 08:10:00","1730","3.517","163.5","4.083","169.3","1018.795","26.89","71.17","539.9","0.0"],
    [1530686,"2026-07-28 08:20:00","1731","3.8160000000000003","175.3","5.455","180.7","1018.815","26.86","73.03","567.4","0.0"],
    [1530687,"2026-07-28 08:30:00","1732","4.606","175.6","5.553","168.4","1018.878","26.93","73.77","597.6","0.0"],
    [1530688,"2026-07-28 08:40:00","1733","4.492","176.2","5.815","172.6","1018.877","27.01","73.64","628.4","0.0"],
    [1530689,"2026-07-28 08:50:00","1734","5.166","178.5","6.435","181.0","1018.871","27.05","73.48","654.7","0.0"],
    [1530690,"2026-07-28 09:00:00","1735","4.7219999999999995","175.0","5.782","171.9","1018.919","27.13","74.18","682.4","0.0"],
    [1530691,"2026-07-28 09:10:00","1736","4.688","179.3","5.978","173.6","1018.959","27.21","74.55","705.6","0.0"],
    [1530692,"2026-07-28 09:20:00","1737","5.142","184.0","6.86","195.3","1019.018","27.32","73.6","724.9","0.0"],
    [1530693,"2026-07-28 09:30:00","1738","5.355","186.1","7.154","203.4","1019.063","27.47","73.72","746.3","0.0"],
    [1530694,"2026-07-28 09:40:00","1739","5.676","186.8","7.775","190.0","1019.088","27.42","73.95","767.2","0.0"],
    [1530695,"2026-07-28 09:50:00","1740","6.162000000000001","184.7","8.49","194.2","1019.107","27.42","74.5","785.4","0.0"],
    [1530696,"2026-07-28 10:00:00","1741","6.26","193.8","9.21","189.5","1019.131","27.89","72.43","804.0","0.0"],
    [1530697,"2026-07-28 10:10:00","1742","6.945","194.7","10.13","186.6","1019.059","27.93","71.94","820.0","0.0"],
    [1530698,"2026-07-28 10:20:00","1743","7.684","195.8","10.91","193.8","1019.026","28.04","71.46","839.0","0.0"],
    [1530699,"2026-07-28 10:30:00","1744","8.14","195.2","11.92","196.6","1018.968","28.14","71.21","853.0","0.0"],
    [1530700,"2026-07-28 10:40:00","1745","8.81","193.7","11.4","192.5","1018.873","28.19","70.1","866.0","0.0"],
    [1530701,"2026-07-28 10:50:00","1746","9.01","194.1","12.48","197.8","1018.846","28.16","70.08","879.0","0.0"],
    [1530702,"2026-07-28 11:00:00","1747","7.856","195.8","12.48","200.5","1018.87","28.49","68.82","887.0","0.0"],
    [1530703,"2026-07-28 11:10:00","1748","7.414","202.1","10.55","195.1","1018.924","28.75","67.61","894.0","0.0"],
    [1530704,"2026-07-28 11:20:00","1749","8.31","199.7","12.15","202.0","1018.812","28.55","69.32","903.0","0.0"],
    [1530705,"2026-07-28 11:30:00","1750","6.9910000000000005","201.1","10.0","186.8","1018.84","28.9","68.06","911.0","0.0"],
    [1530706,"2026-07-28 11:40:00","1751","7.89","200.3","12.18","194.5","1018.761","29.07","66.86","913.0","0.0"],
    [1530707,"2026-07-28 11:50:00","1752","7.87","203.1","11.73","191.1","1018.732","29.04","67.26","924.0","0.0"],
    [1530708,"2026-07-28 12:00:00","1753","8.27","201.6","12.58","185.3","1018.651","28.86","68.18","929.0","0.0"],
    [1530709,"2026-07-28 12:10:00","1754","7.497999999999999","205.0","11.53","199.5","1018.608","29.17","66.74","935.0","0.0"],
    [1530710,"2026-07-28 12:20:00","1755","7.584","201.4","11.79","195.9","1018.551","29.02","68.11","939.0","0.0"],
    [1530711,"2026-07-28 12:30:00","1756","7.428","199.8","11.56","189.2","1018.528","29.16","66.82","936.0","0.0"],
    [1530712,"2026-07-28 12:40:00","1757","8.15","201.5","11.83","196.8","1018.5","29.29","65.22","933.0","0.0"],
    [1530713,"2026-07-28 12:50:00","1758","7.757000000000001","202.0","11.04","192.9","1018.435","28.97","64.78","929.0","0.0"],
    [1530714,"2026-07-28 13:00:00","1759","7.537999999999999","200.4","11.66","194.4","1018.387","29.32","62.71","918.0","0.0"],
    [1530715,"2026-07-28 13:10:00","1760","6.481","208.6","10.75","205.0","1018.38","29.58","60.94","909.0","0.0"],
    [1530716,"2026-07-28 13:20:00","1761","5.92","208.9","10.78","215.6","1018.359","29.84","60.69","897.0","0.0"],
    [1530717,"2026-07-28 13:30:00","1762","5.9270000000000005","214.5","10.06","219.7","1018.344","29.73","61.61","886.0","0.0"],
    [1530718,"2026-07-28 13:40:00","1763","6.281000000000001","211.9","10.0","193.4","1018.325","29.73","61.46","865.0","0.0"],
    [1530719,"2026-07-28 13:50:00","1764","5.65","210.5","10.88","195.5","1018.342","29.8","61.07","845.0","0.0"],
    [1530720,"2026-07-28 14:00:00","1765","6.046","215.9","9.57","231.9","1018.326","29.65","60.23","829.0","0.0"],
    [1530721,"2026-07-28 14:10:00","1766","6.199","214.3","10.42","206.4","1018.318","29.81","60.48","804.0","0.0"],
    [1530722,"2026-07-28 14:20:00","1767","6.234","213.5","11.69","196.6","1018.267","29.84","60.99","779.1","0.0"],
    [1530723,"2026-07-28 14:30:00","1768","6.936","207.4","11.56","185.5","1018.227","29.68","61.03","758.1","0.0"],
    [1530724,"2026-07-28 14:40:00","1769","7.287000000000001","206.9","10.71","190.6","1018.214","29.45","62.55","737.0","0.0"],
    [1530725,"2026-07-28 14:50:00","1770","5.992000000000001","212.3","9.47","203.4","1018.226","29.79","61.85","706.6","0.0"],
    [1530726,"2026-07-28 15:00:00","1771","6.678","210.3","10.09","198.1","1018.205","29.62","60.96","683.6","0.0"],
    [1530727,"2026-07-28 15:10:00","1772","6.002000000000001","218.9","10.0","200.3","1018.199","29.81","61.08","654.4","0.0"],
    [1530728,"2026-07-28 15:20:00","1773","7.042000000000001","212.8","10.58","220.1","1018.039","29.5","63.77","630.4","0.0"],
    [1530729,"2026-07-28 15:30:00","1774","6.151","210.8","9.31","200.1","1017.969","29.76","62.26","600.7","0.0"],
    [1530730,"2026-07-28 15:40:00","1775","5.853","220.2","10.19","243.5","1017.943","29.89","61.38","578.7","0.0"],
    [1530731,"2026-07-28 15:50:00","1776","7.122999999999999","212.5","11.86","225.1","1017.929","29.34","63.88","551.8","0.0"],
    [1530732,"2026-07-28 16:00:00","1777","6.002000000000001","219.7","10.98","231.3","1018.023","29.43","62.36","518.9","0.0"],
    [1530733,"2026-07-28 16:10:00","1778","6.955","215.8","10.16","223.3","1018.048","29.29","62.61","485.5","0.0"],
    [1530734,"2026-07-28 16:20:00","1779","6.712999999999999","202.9","10.49","197.8","1017.9","28.97","66.3","454.0","0.0"],
    [1530735,"2026-07-28 16:30:00","1780","5.546","214.7","9.83","233.4","1017.903","29.36","63.69","422.4","0.0"],
    [1530736,"2026-07-28 16:40:00","1781","7.308","217.0","11.37","227.3","1017.834","29.23","62.08","390.5","0.0"],
    [1530737,"2026-07-28 16:50:00","1782","6.313","207.5","9.93","193.5","1017.73","29.03","64.83","358.8","0.0"],
    [1530738,"2026-07-28 17:00:00","1783","5.5729999999999995","218.5","10.98","209.6","1017.699","29.4","63.27","329.9","0.0"],
    [1530739,"2026-07-28 17:10:00","1784","5.612","217.8","8.53","231.0","1017.751","29.29","64.0","298.9","0.0"],
    [1530740,"2026-07-28 17:20:00","1785","6.053999999999999","216.8","10.71","219.0","1017.746","29.18","64.21","269.2","0.0"],
    [1530741,"2026-07-28 17:30:00","1786","4.915","228.3","9.18","237.7","1017.745","29.12","65.45","236.7","0.0"],
    [1530742,"2026-07-28 17:40:00","1787","5.399","219.8","9.7","225.1","1017.753","29.04","65.65","204.1","0.0"],
    [1530743,"2026-07-28 17:50:00","1788","6.345","223.9","10.39","229.0","1017.719","28.97","65.81","172.6","0.0"],
    [1530744,"2026-07-28 18:00:00","1789","5.79","225.5","10.03","224.9","1017.708","28.77","67.55","145.3","0.0"],
    [1530745,"2026-07-28 18:10:00","1790","4.428999999999999","219.2","8.33","243.1","1017.765","28.68","69.56","119.7","0.0"],
    [1530746,"2026-07-28 18:20:00","1791","5.567","218.2","11.01","231.2","1017.804","28.6","70.96","96.3","0.0"],
    [1530747,"2026-07-28 18:30:00","1792","6.207999999999999","222.3","11.56","227.6","1017.816","28.36","72.16","73.77","0.0"],
    [1530748,"2026-07-28 18:40:00","1793","5.11","218.1","10.88","210.9","1017.9","28.22","73.99","51.17","0.0"],
    [1530749,"2026-07-28 18:50:00","1794","4.794","222.3","8.72","225.8","1018.044","28.19","74.17","32.67","0.0"],
    [1530750,"2026-07-28 19:00:00","1795","5.542000000000001","223.2","10.81","227.6","1018.13","27.99","74.64","17.94","0.0"],
    [1530751,"2026-07-28 19:10:00","1796","5.893","221.2","9.28","212.9","1018.156","27.91","75.48","7.209","0.0"],
    [1530752,"2026-07-28 19:20:00","1797","4.211","225.2","7.709","220.6","1018.2","27.8","76.66","1.744","0.0"],
    [1530753,"2026-07-28 19:30:00","1798","4.007","226.8","7.775","221.1","1018.253","27.76","76.38","0.0","0.0"],
    [1530754,"2026-07-28 19:40:00","1799","4.421","217.6","8.66","207.0","1018.399","27.72","77.2","0.0","0.0"],
    [1530755,"2026-07-28 19:50:00","1800","4.059","217.1","6.893","208.0","1018.625","27.72","77.71","0.0","0.0"],
    [1530756,"2026-07-28 20:00:00","1801","4.933","217.4","8.13","221.6","1018.781","27.57","78.1","0.0","0.0"],
    [1530757,"2026-07-28 20:10:00","1802","5.847","217.3","8.92","208.6","1018.938","27.48","77.68","0.0","0.0"],
    [1530758,"2026-07-28 20:20:00","1803","3.892","215.2","7.513","228.0","1019.076","27.52","77.76","0.0","0.0"],
    [1530759,"2026-07-28 20:30:00","1804","4.479","215.0","8.43","214.7","1019.198","27.49","77.17","0.0","0.0"],
    [1530760,"2026-07-28 20:40:00","1805","3.147","218.5","5.912999999999999","214.5","1019.311","27.53","77.35","0.0","0.0"],
    [1530761,"2026-07-28 20:50:00","1806","2.736","220.6","5.521","224.3","1019.395","27.53","77.54","0.0","0.0"],
    [1530762,"2026-07-28 21:00:00","1807","2.949","231.5","5.88","255.1","1019.46","27.42","77.08","0.0","0.0"],
    [1530763,"2026-07-28 21:10:00","1808","2.807","232.7","4.704","265.4","1019.481","27.41","76.84","0.0","0.0"],
    [1530764,"2026-07-28 21:20:00","1809","2.9530000000000003","237.3","5.357","257.2","1019.477","27.38","76.38","0.0","0.0"],
    [1530765,"2026-07-28 21:30:00","1810","3.158","248.5","5.978","258.8","1019.568","27.22","75.67","0.0","0.0"],
    [1530766,"2026-07-28 21:40:00","1811","3.093","246.5","6.109","265.6","1019.668","27.19","75.35","0.0","0.0"],
    [1530767,"2026-07-28 21:50:00","1812","2.713","247.9","4.998","253.9","1019.716","27.19","75.2","0.0","0.0"],
    [1530768,"2026-07-28 22:00:00","1813","2.165","237.4","4.933","266.7","1019.731","27.18","75.28","0.0","0.0"],
    [1530769,"2026-07-28 22:10:00","1814","1.6130000000000002","237.9","3.593","262.6","1019.795","27.17","75.6","0.0","0.0"],
    [1530770,"2026-07-28 22:20:00","1815","1.653","231.3","3.299","260.6","1019.851","27.17","75.87","0.0","0.0"],
    [1530771,"2026-07-28 22:30:00","1816","1.8880000000000001","232.9","6.207000000000001","268.5","1019.877","27.19","76.47","0.0","0.0"],
    [1530772,"2026-07-28 22:40:00","1817","1.96","219.5","3.495","217.4","1019.881","27.14","77.0","0.0","0.0"],
    [1530773,"2026-07-28 22:50:00","1818","1.9709999999999999","218.2","3.593","227.9","1019.92","27.04","77.6","0.0","0.0"],
    [1530774,"2026-07-28 23:00:00","1819","1.956","229.7","3.7569999999999997","235.5","1019.922","27.04","77.95","0.0","0.0"],
    [1530775,"2026-07-28 23:10:00","1820","2.7760000000000002","246.6","5.194","275.6","1019.945","27.03","77.31","0.0","0.0"],
    [1530776,"2026-07-28 23:20:00","1821","3.02","246.3","4.704","262.0","1019.965","26.91","76.65","0.0","0.0"],
    [1530777,"2026-07-28 23:30:00","1822","2.968","243.7","4.835","258.5","1019.95","26.87","76.94","0.0","0.0"],
    [1530778,"2026-07-28 23:40:00","1823","2.185","247.4","4.1160000000000005","245.0","1019.88","26.77","76.46","0.0","0.0"],
    [1530779,"2026-07-28 23:50:00","1824","2.113","256.9","3.92","259.2","1019.813","26.72","76.08","0.0","0.0"],
    [1530780,"2026-07-29 00:00:00","1825","1.671","257.6","3.5610000000000004","266.7","1019.8","26.69","75.94","0.0","0.0"],
    [1530781,"2026-07-29 00:10:00","1826","2.166","273.6","3.5610000000000004","266.7","1019.815","26.64","75.56","0.0","0.0"],
    [1530782,"2026-07-29 00:20:00","1827","1.695","273.9","3.005","283.4","1019.761","26.61","75.5","0.0","0.0"],
    [1530783,"2026-07-29 00:30:00","1828","1.9180000000000001","274.4","2.9730000000000003","283.0","1019.682","26.53","75.52","0.0","0.0"],
    [1530784,"2026-07-29 00:40:00","1829","1.774","274.5","2.7769999999999997","290.8","1019.565","26.54","75.84","0.0","0.0"],
    [1530785,"2026-07-29 00:50:00","1830","2.037","273.4","3.005","269.9","1019.446","26.48","76.0","0.0","0.0"],
    [1530786,"2026-07-29 01:00:00","1831","1.704","276.0","2.548","279.6","1019.38","26.38","76.07","0.0","0.0"],
    [1530787,"2026-07-29 01:10:00","1832","1.6680000000000001","272.7","2.679","262.5","1019.275","26.37","76.08","0.0","0.0"],
    [1530788,"2026-07-29 01:20:00","1833","1.8159999999999998","264.2","3.92","262.6","1019.253","26.32","76.18","0.0","0.0"],
    [1530789,"2026-07-29 01:30:00","1834","1.9040000000000001","261.1","3.332","268.6","1019.226","26.19","76.81","0.0","0.0"],
    [1530790,"2026-07-29 01:40:00","1835","1.713","265.3","3.005","251.7","1019.245","26.07","77.19","0.0","0.0"],
    [1530791,"2026-07-29 01:50:00","1836","1.561","282.5","2.679","267.0","1019.127","26.01","76.88","0.0","0.0"],
    [1530792,"2026-07-29 02:00:00","1837","1.906","283.8","3.397","279.7","1019.073","26.02","76.6","0.0","0.0"],
    [1530793,"2026-07-29 02:10:00","1838","1.617","283.8","2.679","287.7","1019.053","25.98","76.78","0.0","0.0"],
    [1530794,"2026-07-29 02:20:00","1839","1.666","275.8","2.9730000000000003","263.8","1019.046","25.98","76.94","0.0","0.0"],
    [1530795,"2026-07-29 02:30:00","1840","2.061","272.1","2.7110000000000003","274.2","1018.999","25.94","77.24","0.0","0.0"],
    [1530796,"2026-07-29 02:40:00","1841","2.0909999999999997","273.9","2.9730000000000003","269.4","1018.97","25.9","77.57","0.0","0.0"],
    [1530797,"2026-07-29 02:50:00","1842","2.202","269.1","3.136","265.4","1018.981","25.9","77.86","0.0","0.0"],
    [1530798,"2026-07-29 03:00:00","1843","1.746","272.7","3.005","270.6","1018.933","25.86","77.84","0.0","0.0"],
    [1530799,"2026-07-29 03:10:00","1844","1.975","275.4","2.679","277.3","1018.959","25.8","77.87","0.0","0.0"],
    [1530800,"2026-07-29 03:20:00","1845","2.0669999999999997","272.7","2.8089999999999997","270.5","1018.971","25.77","77.75","0.0","0.0"],
    [1530801,"2026-07-29 03:30:00","1846","1.886","270.4","2.5810000000000004","266.9","1019.001","25.69","77.85","0.0","0.0"],
    [1530802,"2026-07-29 03:40:00","1847","2.213","268.3","3.136","269.5","1018.975","25.53","78.12","0.0","0.0"],
    [1530803,"2026-07-29 03:50:00","1848","2.274","268.2","3.103","260.8","1018.907","25.46","78.22","0.0","0.0"],
    [1530804,"2026-07-29 04:00:00","1849","2.17","269.2","2.875","271.6","1018.917","25.37","78.33","0.0","0.0"],
    [1530805,"2026-07-29 04:10:00","1850","1.992","268.9","2.875","267.9","1018.893","25.25","78.5","0.0","0.0"],
    [1530806,"2026-07-29 04:20:00","1851","2.102","269.4","2.907","250.4","1018.957","25.17","78.53","0.0","0.0"],
    [1530807,"2026-07-29 04:30:00","1852","2.182","267.8","3.593","264.5","1019.037","25.09","78.42","0.0","0.0"],
    [1530808,"2026-07-29 04:40:00","1853","1.966","266.1","2.907","228.4","1019.073","25.08","78.31","0.21899999999999997","0.0"],
    [1530809,"2026-07-29 04:50:00","1854","2.103","271.6","2.8089999999999997","274.2","1019.153","25.04","78.57","3.5439999999999996","0.0"],
    [1530810,"2026-07-29 05:00:00","1855","1.9609999999999999","278.9","2.7110000000000003","285.0","1019.206","25.06","78.56","10.41","0.0"],
    [1530811,"2026-07-29 05:10:00","1856","2.167","278.5","2.9730000000000003","269.0","1019.237","25.13","77.99","22.74","0.0"],
    [1530812,"2026-07-29 05:20:00","1857","2.131","280.3","2.8089999999999997","281.3","1019.366","25.27","76.43","37.32","0.0"],
    [1530813,"2026-07-29 05:30:00","1858","2.15","276.2","2.613","277.2","1019.404","25.5","74.67","56.07","0.0"],
    [1530814,"2026-07-29 05:40:00","1859","2.133","273.0","2.842","267.7","1019.408","25.76","72.93","78.07","0.0"],
    [1530815,"2026-07-29 05:50:00","1860","2.097","276.0","2.7110000000000003","274.2","1019.4","26.09","71.41","101.8","0.0"],
    [1530816,"2026-07-29 06:00:00","1861","2.046","278.8","2.548","266.5","1019.457","26.39","69.92","127.3","0.0"],
    [1530817,"2026-07-29 06:10:00","1862","1.855","278.0","2.515","277.3","1019.483","26.78","68.29","154.2","0.0"],
    [1530818,"2026-07-29 06:20:00","1863","1.827","277.1","2.7110000000000003","292.4","1019.536","27.09","67.18","183.8","0.0"],
    [1530819,"2026-07-29 06:30:00","1864","1.99","277.8","2.7769999999999997","272.6","1019.587","27.39","66.35","212.5","0.0"],
    [1530820,"2026-07-29 06:40:00","1865","2.549","272.4","3.887","268.4","1019.665","27.44","66.39","243.3","0.0"],
    [1530821,"2026-07-29 06:50:00","1866","2.311","273.1","3.528","273.5","1019.76","27.51","66.31","272.3","0.0"],
    [1530822,"2026-07-29 07:00:00","1867","2.205","270.8","3.234","286.3","1019.811","27.61","65.75","303.9","0.0"],
    [1530823,"2026-07-29 07:10:00","1868","2.465","255.7","3.887","270.2","1019.834","27.65","66.61","337.2","0.0"],
    [1530824,"2026-07-29 07:20:00","1869","2.32","257.4","4.149","264.1","1019.829","27.69","67.81","367.9","0.0"],
    [1530825,"2026-07-29 07:30:00","1870","2.004","248.7","4.802","267.6","1019.81","28.13","66.97","397.1","0.0"],
    [1530826,"2026-07-29 07:40:00","1871","1.742","241.9","3.6910000000000003","238.9","1019.799","28.34","67.08","430.0","0.0"],
    [1530827,"2026-07-29 07:50:00","1872","2.174","245.7","4.541","253.6","1019.826","28.43","67.01","463.4","0.0"],
    [1530828,"2026-07-29 08:00:00","1873","1.673","223.0","4.181","200.4","1019.875","28.75","65.77","487.9","0.0"],
    [1530829,"2026-07-29 08:10:00","1874","2.517","190.5","3.6910000000000003","199.1","1019.865","28.67","69.34","518.0","0.0"],
    [1530830,"2026-07-29 08:20:00","1875","4.414","190.5","7.218999999999999","205.0","1019.773","28.46","70.1","556.1","0.0"],
    [1530831,"2026-07-29 08:30:00","1876","5.303999999999999","191.7","6.501","190.8","1019.757","28.09","71.91","584.1","0.0"],
    [1530832,"2026-07-29 08:40:00","1877","5.595","188.6","7.218999999999999","180.8","1019.773","28.06","71.7","611.3","0.0"],
    [1530833,"2026-07-29 08:50:00","1878","5.855","189.0","7.187","194.3","1019.849","28.13","70.99","635.2","0.0"],
    [1530834,"2026-07-29 09:00:00","1879","5.75","193.6","7.807","186.6","1019.931","28.2","70.64","658.4","0.0"],
    [1530835,"2026-07-29 09:10:00","1880","5.86","194.2","8.13","187.6","1019.949","28.32","69.89","683.1","0.0"],
    [1530836,"2026-07-29 09:20:00","1881","5.428999999999999","191.3","7.121","196.7","1020.026","28.33","70.63","704.4","0.0"],
    [1530837,"2026-07-29 09:30:00","1882","5.23","183.7","7.579","193.0","1020.104","28.19","73.82","725.3","0.0"],
    [1530838,"2026-07-29 09:40:00","1883","5.195","183.6","6.599","187.8","1020.127","28.04","75.02","745.8","0.0"],
    [1530839,"2026-07-29 09:50:00","1884","5.742999999999999","186.1","7.382999999999999","186.4","1020.105","28.07","74.7","765.7","0.0"],
    [1530840,"2026-07-29 10:00:00","1885","5.541","184.5","7.644","189.6","1020.073","28.13","74.38","784.9","0.0"],
    [1530841,"2026-07-29 10:10:00","1886","6.001","187.7","7.546","189.0","1020.083","28.19","73.79","806.0","0.0"],
    [1530842,"2026-07-29 10:20:00","1887","6.343","188.2","9.38","196.7","1020.06","28.2","74.23","823.0","0.0"],
    [1530843,"2026-07-29 10:30:00","1888","6.204","190.5","9.15","198.5","1020.017","28.37","73.12","835.0","0.0"],
    [1530844,"2026-07-29 10:40:00","1889","6.513999999999999","190.5","9.44","195.5","1019.959","28.42","73.46","850.0","0.0"],
    [1530845,"2026-07-29 10:50:00","1890","6.7410000000000005","197.4","9.24","194.4","1020.022","28.78","68.95","864.0","0.0"],
    [1530846,"2026-07-29 11:00:00","1891","7.091","198.4","9.93","188.5","1020.034","28.97","65.84","877.0","0.0"],
    [1530847,"2026-07-29 11:10:00","1892","6.472","196.8","9.18","193.7","1020.047","29.12","68.11","885.0","0.0"],
    [1530848,"2026-07-29 11:20:00","1893","7.534","193.1","10.39","195.0","1019.893","28.96","68.02","895.0","0.0"],
    [1530849,"2026-07-29 11:30:00","1894","6.351","198.4","10.03","208.3","1019.924","29.08","68.32","902.0","0.0"],
    [1530850,"2026-07-29 11:40:00","1895","6.916","196.8","9.11","209.3","1019.831","29.14","66.96","908.0","0.0"],
    [1530851,"2026-07-29 11:50:00","1896","6.189","199.6","8.85","187.7","1019.78","29.51","64.19","912.0","0.0"],
    [1530852,"2026-07-29 12:00:00","1897","7.3229999999999995","198.2","10.22","197.3","1019.757","29.36","66.45","913.0","0.0"],
    [1530853,"2026-07-29 12:10:00","1898","7.347","198.9","10.42","197.4","1019.674","29.39","66.0","912.0","0.0"],
    [1530854,"2026-07-29 12:20:00","1899","7.068","201.2","10.49","189.8","1019.753","29.31","67.21","910.0","0.0"],
    [1530855,"2026-07-29 12:30:00","1900","7.505","200.9","11.24","202.1","1019.726","29.32","66.39","908.0","0.0"],
    [1530856,"2026-07-29 12:40:00","1901","8.34","200.6","12.02","202.8","1019.649","29.25","66.8","902.0","0.0"],
    [1530857,"2026-07-29 12:50:00","1902","8.08","203.4","10.94","195.7","1019.638","29.32","65.37","891.0","0.0"],
    [1530858,"2026-07-29 13:00:00","1903","5.712000000000001","210.5","9.24","214.5","1019.636","30.04","61.83","881.0","0.0"],
    [1530859,"2026-07-29 13:10:00","1904","6.76","205.5","10.85","208.9","1019.561","30.09","59.6","873.0","0.0"],
    [1530860,"2026-07-29 13:20:00","1905","6.949","201.7","10.42","210.2","1019.511","29.97","62.48","860.0","0.0"],
    [1530861,"2026-07-29 13:30:00","1906","6.317","203.9","10.75","212.0","1019.519","30.14","60.7","847.0","0.0"],
    [1530862,"2026-07-29 13:40:00","1907","6.968","203.1","11.14","202.6","1019.469","30.3","60.08","834.0","0.0"],
    [1530863,"2026-07-29 13:50:00","1908","7.85","199.9","11.6","197.1","1019.378","29.86","64.38","818.0","0.0"],
    [1530864,"2026-07-29 14:00:00","1909","8.2","200.4","11.34","200.7","1019.306","29.81","62.55","800.0","0.0"],
    [1530865,"2026-07-29 14:10:00","1910","7.81","199.4","11.3","187.9","1019.289","29.83","61.42","779.7","0.0"],
    [1530866,"2026-07-29 14:20:00","1911","6.732","203.4","10.52","199.3","1019.232","30.32","60.31","760.9","0.0"],
    [1530867,"2026-07-29 14:30:00","1912","6.665","206.6","9.87","195.0","1019.215","30.16","59.69","736.8","0.0"],
    [1530868,"2026-07-29 14:40:00","1913","7.4079999999999995","200.2","10.78","197.5","1019.121","30.2","59.13","713.4","0.0"],
    [1530869,"2026-07-29 14:50:00","1914","6.4","204.6","10.03","199.7","1019.168","30.35","58.93","686.7","0.0"],
    [1530870,"2026-07-29 15:00:00","1915","6.301","209.1","10.55","206.8","1019.114","30.32","57.45","659.9","0.0"],
    [1530871,"2026-07-29 15:10:00","1916","5.931","216.9","9.83","202.8","1019.096","30.69","55.45","636.4","0.0"],
    [1530872,"2026-07-29 15:20:00","1917","6.436","208.1","9.9","217.1","1019.005","30.53","56.05","611.7","0.0"],
    [1530873,"2026-07-29 15:30:00","1918","6.005","211.7","10.81","212.3","1018.98","30.45","57.0","584.6","0.0"],
    [1530874,"2026-07-29 15:40:00","1919","5.732","208.8","10.65","210.6","1018.926","30.52","57.23","557.1","0.0"],
    [1530875,"2026-07-29 15:50:00","1920","5.672999999999999","216.5","9.08","192.9","1018.87","30.61","56.68","526.4","0.0"],
    [1530876,"2026-07-29 16:00:00","1921","6.31","213.1","10.36","214.6","1018.771","30.52","58.28","498.6","0.0"],
    [1530877,"2026-07-29 16:10:00","1922","6.3870000000000005","205.2","9.57","206.2","1018.751","30.16","59.23","467.2","0.0"],
    [1530878,"2026-07-29 16:20:00","1923","6.167000000000001","206.0","10.29","210.1","1018.753","30.22","59.34","436.6","0.0"],
    [1530879,"2026-07-29 16:30:00","1924","5.1160000000000005","213.1","9.47","233.2","1018.774","30.38","58.41","406.2","0.0"],
    [1530880,"2026-07-29 16:40:00","1925","6.0520000000000005","221.0","9.83","228.4","1018.709","30.4","56.23","375.1","0.0"],
    [1530881,"2026-07-29 16:50:00","1926","5.986000000000001","204.6","9.05","211.4","1018.59","30.21","59.97","342.2","0.0"],
    [1530882,"2026-07-29 17:00:00","1927","6.385","202.0","10.39","206.6","1018.533","30.07","58.98","311.4","0.0"],
    [1530883,"2026-07-29 17:10:00","1928","5.462999999999999","209.4","9.31","195.8","1018.503","30.08","59.67","278.6","0.0"],
    [1530884,"2026-07-29 17:20:00","1929","5.59","219.0","9.18","230.6","1018.474","30.03","58.39","247.6","0.0"],
    [1530885,"2026-07-29 17:30:00","1930","5.425","217.5","9.11","227.3","1018.465","29.86","60.0","218.3","0.0"],
    [1530886,"2026-07-29 17:40:00","1931","4.681","214.4","8.13","240.7","1018.416","29.87","59.23","187.8","0.0"],
    [1530887,"2026-07-29 17:50:00","1932","4.706","214.6","7.84","231.8","1018.387","29.69","60.19","158.8","0.0"],
    [1530888,"2026-07-29 18:00:00","1933","5.271","220.0","9.41","218.6","1018.403","29.59","60.36","131.2","0.0"],
    [1530889,"2026-07-29 18:10:00","1934","4.668","218.6","7.382999999999999","227.8","1018.362","29.51","60.93","106.4","0.0"],
    [1530890,"2026-07-29 18:20:00","1935","5.046","214.0","8.04","196.3","1018.411","29.29","62.61","83.7","0.0"],
    [1530891,"2026-07-29 18:30:00","1936","5.546","224.4","8.79","238.0","1018.468","29.05","63.84","63.34","0.0"],
    [1530892,"2026-07-29 18:40:00","1937","5.212000000000001","219.2","7.742000000000001","228.1","1018.461","28.88","66.58","44.24","0.0"],
    [1530893,"2026-07-29 18:50:00","1938","4.159","212.7","7.938","230.3","1018.459","28.81","66.59","26.96","0.0"],
    [1530894,"2026-07-29 19:00:00","1939","4.251","214.6","6.599","225.4","1018.556","28.77","65.53","13.88","0.0"],
    [1530895,"2026-07-29 19:10:00","1940","4.371","217.3","6.729","215.7","1018.603","28.76","64.39","4.7860000000000005","0.0"],
    [1530896,"2026-07-29 19:20:00","1941","3.9389999999999996","219.8","6.925","212.7","1018.654","28.7","63.79","0.726","0.0"],
    [1530897,"2026-07-29 19:30:00","1942","4.19","218.5","7.252000000000001","241.3","1018.677","28.6","64.93","0.0","0.0"],
    [1530898,"2026-07-29 19:40:00","1943","4.198","218.2","7.023","221.7","1018.714","28.51","65.53","0.0","0.0"],
    [1530899,"2026-07-29 19:50:00","1944","4.1610000000000005","217.1","6.795","237.3","1018.791","28.38","68.87","0.0","0.0"],
    [1530900,"2026-07-29 20:00:00","1945","3.758","214.4","6.337000000000001","234.3","1018.892","28.27","69.6","0.0","0.0"],
    [1530901,"2026-07-29 20:10:00","1946","4.041","210.0","6.7620000000000005","227.1","1019.069","28.16","71.69","0.0","0.0"],
    [1530902,"2026-07-29 20:20:00","1947","3.781","206.6","5.619","209.4","1019.262","28.01","72.6","0.0","0.0"],
    [1530903,"2026-07-29 20:30:00","1948","3.4419999999999997","208.6","5.455","231.1","1019.399","28.01","72.64","0.0","0.0"],
    [1530904,"2026-07-29 20:40:00","1949","3.4960000000000004","208.4","5.945","206.8","1019.454","27.85","73.81","0.0","0.0"],
    [1530905,"2026-07-29 20:50:00","1950","3.2110000000000003","207.8","5.39","225.8","1019.513","27.79","74.4","0.0","0.0"],
    [1530906,"2026-07-29 21:00:00","1951","2.824","207.9","4.704","226.0","1019.574","27.81","75.04","0.0","0.0"],
    [1530907,"2026-07-29 21:10:00","1952","2.9139999999999997","212.4","4.933","222.6","1019.587","27.82","75.88","0.0","0.0"],
    [1530908,"2026-07-29 21:20:00","1953","3.2460000000000004","208.3","4.704","199.1","1019.577","27.73","75.9","0.0","0.0"],
    [1530909,"2026-07-29 21:30:00","1954","2.6210000000000004","220.5","5.4879999999999995","216.6","1019.674","27.7","76.27","0.0","0.0"],
    [1530910,"2026-07-29 21:40:00","1955","2.2840000000000003","233.0","4.41","258.4","1019.643","27.65","76.01","0.0","0.0"],
    [1530911,"2026-07-29 21:50:00","1956","2.099","232.5","4.018","259.6","1019.557","27.6","76.16","0.0","0.0"],
    [1530912,"2026-07-29 22:00:00","1957","2.923","247.2","5.455","267.5","1019.57","27.54","76.07","0.0","0.0"],
    [1530913,"2026-07-29 22:10:00","1958","2.37","248.6","5.096","263.7","1019.539","27.47","76.24","0.0","0.0"],
    [1530914,"2026-07-29 22:20:00","1959","2.763","249.9","5.2589999999999995","261.2","1019.547","27.39","74.76","0.0","0.0"],
    [1530915,"2026-07-29 22:30:00","1960","2.302","253.4","3.887","264.1","1019.554","27.41","73.76","0.0","0.0"],
    [1530916,"2026-07-29 22:40:00","1961","2.449","254.3","4.671","271.6","1019.577","27.39","73.5","0.0","0.0"],
    [1530917,"2026-07-29 22:50:00","1962","2.888","256.1","4.638999999999999","258.1","1019.67","27.3","72.86","0.0","0.0"],
    [1530918,"2026-07-29 23:00:00","1963","2.6289999999999996","254.5","4.377","249.4","1019.745","27.25","73.41","0.0","0.0"],
    [1530919,"2026-07-29 23:10:00","1964","3.056","260.3","5.684","273.4","1019.779","27.2","73.82","0.0","0.0"],
    [1530920,"2026-07-29 23:20:00","1965","2.021","242.5","3.9530000000000003","264.3","1019.797","27.25","73.94","0.0","0.0"],
    [1530921,"2026-07-29 23:30:00","1966","2.423","257.7","4.377","270.3","1019.82","27.23","74.29","0.0","0.0"],
    [1530922,"2026-07-29 23:40:00","1967","1.7480000000000002","236.6","3.7239999999999998","265.2","1019.788","27.1","76.68","0.0","0.0"],
    [1530923,"2026-07-29 23:50:00","1968","1.324","226.8","2.875","250.6","1019.74","26.99","77.96","0.0","0.0"],
    [1530924,"2026-07-30 00:00:00","1969","1.2790000000000001","233.0","2.907","209.2","1019.728","26.94","78.88","0.0","0.0"],
    [1530925,"2026-07-30 00:10:00","1970","1.82","223.3","3.495","263.3","1019.683","26.91","79.95","0.0","0.0"],
    [1530926,"2026-07-30 00:20:00","1971","1.845","222.7","3.5610000000000004","247.4","1019.576","26.89","80.7","0.0","0.0"],
    [1530927,"2026-07-30 00:30:00","1972","2.237","220.3","4.279","250.8","1019.557","26.96","81.1","0.0","0.0"],
    [1530928,"2026-07-30 00:40:00","1973","2.225","213.8","3.7569999999999997","206.5","1019.47","26.87","81.3","0.0","0.0"],
    [1530929,"2026-07-30 00:50:00","1974","2.015","219.1","4.4430000000000005","211.3","1019.385","26.86","81.5","0.0","0.0"],
    [1530930,"2026-07-30 01:00:00","1975","2.287","234.3","6.1739999999999995","260.6","1019.306","26.77","81.4","0.0","0.0"],
    [1530931,"2026-07-30 01:10:00","1976","3.072","258.2","5.1610000000000005","261.8","1019.259","26.64","81.0","0.0","0.0"],
    [1530932,"2026-07-30 01:20:00","1977","2.889","262.6","4.933","253.3","1019.266","26.42","80.9","0.0","0.0"],
    [1530933,"2026-07-30 01:30:00","1978","2.673","276.0","4.377","286.4","1019.254","26.34","80.6","0.0","0.0"],
    [1530934,"2026-07-30 01:40:00","1979","2.206","271.3","3.7569999999999997","264.9","1019.224","26.08","79.62","0.0","0.0"],
    [1530935,"2026-07-30 01:50:00","1980","2.4290000000000003","269.0","3.659","260.1","1019.183","25.86","76.85","0.0","0.0"],
    [1530936,"2026-07-30 02:00:00","1981","1.8980000000000001","268.1","3.0380000000000003","271.5","1019.16","25.71","71.12","0.0","0.0"],
    [1530937,"2026-07-30 02:10:00","1982","1.6780000000000002","269.8","2.483","266.4","1019.192","25.76","66.87","0.0","0.0"],
    [1530938,"2026-07-30 02:20:00","1983","1.9269999999999998","271.1","2.483","278.4","1019.165","25.82","65.38","0.0","0.0"],
    [1530939,"2026-07-30 02:30:00","1984","2.016","270.2","2.483","268.2","1019.073","25.81","63.94","0.0","0.0"],
    [1530940,"2026-07-30 02:40:00","1985","2.135","267.7","2.6460000000000004","271.8","1018.993","25.81","64.13","0.0","0.0"],
    [1530941,"2026-07-30 02:50:00","1986","2.211","271.0","2.7769999999999997","272.5","1019.006","25.89","64.29","0.0","0.0"],
    [1530942,"2026-07-30 03:00:00","1987","1.8980000000000001","271.5","2.483","259.8","1018.948","25.88","64.96","0.0","0.0"],
    [1530943,"2026-07-30 03:10:00","1988","2.0540000000000003","272.1","2.385","270.9","1018.874","25.93","64.92","0.0","0.0"],
    [1530944,"2026-07-30 03:20:00","1989","1.992","272.4","2.385","273.7","1018.798","25.91","65.35","0.0","0.0"],
    [1530945,"2026-07-30 03:30:00","1990","2.042","274.8","2.515","271.0","1018.746","25.81","65.48","0.0","0.0"],
    [1530946,"2026-07-30 03:40:00","1991","2.0580000000000003","274.0","2.515","276.7","1018.728","25.69","66.5","0.0","0.0"],
    [1530947,"2026-07-30 03:50:00","1992","2.0","276.1","2.45","275.3","1018.631","25.6","67.09","0.0","0.0"],
    [1530948,"2026-07-30 04:00:00","1993","2.093","275.5","2.417","274.7","1018.562","25.5","67.87","0.0","0.0"],
    [1530949,"2026-07-30 04:10:00","1994","2.2769999999999997","273.4","2.6460000000000004","274.5","1018.504","25.41","68.59","0.0","0.0"],
    [1530950,"2026-07-30 04:20:00","1995","2.061","273.3","2.6460000000000004","283.3","1018.488","25.28","69.37","0.0","0.0"],
    [1530951,"2026-07-30 04:30:00","1996","2.053","270.3","2.548","272.1","1018.535","25.23","69.74","0.0","0.0"],
    [1530952,"2026-07-30 04:40:00","1997","2.077","270.8","2.613","286.5","1018.582","25.21","70.3","0.0","0.0"],
    [1530953,"2026-07-30 04:50:00","1998","2.039","268.2","2.613","268.1","1018.63","25.19","70.81","1.558","0.0"],
    [1530954,"2026-07-30 05:00:00","1999","1.91","265.6","2.907","261.1","1018.739","25.19","70.99","7.148","0.0"],
    [1530955,"2026-07-30 05:10:00","2000","1.854","267.0","2.875","267.0","1018.807","25.29","70.79","17.77","0.0"],
    [1530956,"2026-07-30 05:20:00","2001","2.102","266.9","3.0380000000000003","274.9","1018.846","25.47","70.52","33.65","0.0"],
    [1530957,"2026-07-30 05:30:00","2002","1.9680000000000002","267.8","2.842","258.9","1018.808","25.7","70.04","52.02","0.0"],
    [1530958,"2026-07-30 05:40:00","2003","1.817","271.7","2.548","283.5","1018.737","25.95","69.15","73.59","0.0"],
    [1530959,"2026-07-30 05:50:00","2004","1.839","270.0","2.483","281.5","1018.769","26.31","68.03","95.8","0.0"],
    [1530960,"2026-07-30 06:00:00","2005","1.733","270.6","2.613","267.8","1018.896","26.55","67.49","120.0","0.0"],
    [1530961,"2026-07-30 06:10:00","2006","1.6480000000000001","271.5","2.548","266.2","1018.889","26.97","66.78","148.2","0.0"],
    [1530962,"2026-07-30 06:20:00","2007","1.761","273.4","2.9730000000000003","298.9","1018.857","27.37","66.0","178.2","0.0"],
    [1530963,"2026-07-30 06:30:00","2008","1.463","270.2","3.332","250.8","1018.86","27.69","66.33","208.8","0.0"],
    [1530964,"2026-07-30 06:40:00","2009","1.9669999999999999","274.6","3.1689999999999996","276.0","1018.925","27.88","65.78","238.9","0.0"],
    [1530965,"2026-07-30 06:50:00","2010","2.1719999999999997","282.7","3.495","283.7","1018.978","28.06","65.94","272.5","0.0"],
    [1530966,"2026-07-30 07:00:00","2011","2.244","283.8","3.887","300.1","1018.953","28.28","65.98","304.4","0.0"],
    [1530967,"2026-07-30 07:10:00","2012","2.197","287.9","3.7569999999999997","304.7","1018.838","28.48","65.7","337.6","0.0"],
    [1530968,"2026-07-30 07:20:00","2013","1.819","277.3","3.136","282.5","1018.841","28.49","66.06","366.8","0.0"],
    [1530969,"2026-07-30 07:30:00","2014","2.0469999999999997","250.7","4.083","256.1","1018.925","28.78","65.86","397.7","0.0"],
    [1530970,"2026-07-30 07:40:00","2015","2.825","255.7","5.129","275.9","1018.947","28.51","66.86","436.8","0.0"],
    [1530971,"2026-07-30 07:50:00","2016","2.535","241.6","4.835","228.3","1019.003","28.54","67.53","470.1","0.0"],
    [1530972,"2026-07-30 08:00:00","2017","2.758","235.6","5.1610000000000005","195.5","1019.1","28.54","67.42","502.4","0.0"],
    [1530973,"2026-07-30 08:10:00","2018","2.819","225.7","5.455","220.9","1019.133","28.81","66.25","534.0","0.0"],
    [1530974,"2026-07-30 08:20:00","2019","2.986","224.0","5.521","212.8","1019.102","29.05","65.31","562.5","0.0"],
    [1530975,"2026-07-30 08:30:00","2020","3.6439999999999997","205.2","6.403","228.5","1019.073","29.24","65.5","589.2","0.0"],
    [1530976,"2026-07-30 08:40:00","2021","3.448","213.0","6.305","211.5","1019.106","29.34","65.39","613.8","0.0"],
    [1530977,"2026-07-30 08:50:00","2022","4.2","206.2","6.631","203.4","1019.09","29.23","66.57","641.6","0.0"],
    [1530978,"2026-07-30 09:00:00","2023","6.096","194.4","8.17","184.0","1018.976","28.93","68.21","671.2","0.0"],
    [1530979,"2026-07-30 09:10:00","2024","6.212999999999999","196.4","8.46","193.5","1018.973","28.75","68.94","694.2","0.0"],
    [1530980,"2026-07-30 09:20:00","2025","5.726","194.4","7.971","190.1","1019.025","28.79","69.97","715.9","0.0"],
    [1530981,"2026-07-30 09:30:00","2026","5.994","193.8","8.36","185.9","1019.002","28.8","69.81","738.9","0.0"],
    [1530982,"2026-07-30 09:40:00","2027","6.9510000000000005","191.5","9.24","193.8","1018.954","28.7","69.72","760.8","0.0"],
    [1530983,"2026-07-30 09:50:00","2028","6.393","188.4","9.34","189.3","1018.902","28.5","72.18","780.2","0.0"],
    [1530984,"2026-07-30 10:00:00","2029","6.603","185.0","9.21","187.5","1018.802","28.28","74.69","798.8","0.0"],
    [1530985,"2026-07-30 10:10:00","2030","7.05","183.9","8.89","187.4","1018.748","28.1","76.09","818.0","0.0"],
    [1530986,"2026-07-30 10:20:00","2031","6.693","182.9","8.53","183.0","1018.739","28.03","77.09","832.0","0.0"],
    [1530987,"2026-07-30 10:30:00","2032","6.947","182.6","9.41","186.8","1018.709","27.99","77.46","846.0","0.0"],
    [1530988,"2026-07-30 10:40:00","2033","7.257999999999999","183.3","9.44","190.8","1018.651","28.0","77.54","862.0","0.0"],
    [1530989,"2026-07-30 10:50:00","2034","7.38","185.0","9.73","191.1","1018.597","28.01","78.03","875.0","0.0"],
    [1530990,"2026-07-30 11:00:00","2035","7.004","185.1","9.38","188.9","1018.583","28.08","78.03","883.0","0.0"],
    [1530991,"2026-07-30 11:10:00","2036","7.877000000000001","184.6","9.73","192.4","1018.599","28.07","77.84","893.0","0.0"],
    [1530992,"2026-07-30 11:20:00","2037","7.207000000000001","186.1","9.44","195.5","1018.63","28.14","77.42","902.0","0.0"],
    [1530993,"2026-07-30 11:30:00","2038","7.045","186.2","8.69","191.7","1018.626","28.25","77.08","913.0","0.0"],
    [1530994,"2026-07-30 11:40:00","2039","7.244","187.0","9.6","189.9","1018.641","28.29","77.31","921.0","0.0"],
    [1530995,"2026-07-30 11:50:00","2040","7.297000000000001","187.4","9.44","187.7","1018.667","28.43","75.81","922.0","0.0"],
    [1530996,"2026-07-30 12:00:00","2041","6.437","186.0","8.75","190.4","1018.769","28.55","75.19","920.0","0.0"],
    [1530997,"2026-07-30 12:10:00","2042","6.608","183.5","8.75","194.3","1018.836","28.47","75.54","919.0","0.0"],
    [1530998,"2026-07-30 12:20:00","2043","7.11","188.7","9.96","187.4","1018.807","28.52","75.72","922.0","0.0"],
    [1530999,"2026-07-30 12:30:00","2044","7.172999999999999","194.3","9.31","204.9","1018.805","28.98","71.12","920.0","0.0"],
    [1531000,"2026-07-30 12:40:00","2045","7.825","196.2","9.9","186.0","1018.807","29.08","69.75","914.0","0.0"],
    [1531001,"2026-07-30 12:50:00","2046","7.436","189.6","9.7","187.2","1018.733","28.88","71.58","906.0","0.0"],
    [1531002,"2026-07-30 13:00:00","2047","7.172000000000001","190.5","9.28","194.2","1018.713","28.91","70.38","901.0","0.0"],
    [1531003,"2026-07-30 13:10:00","2048","7.042999999999999","189.7","9.21","190.4","1018.606","29.08","69.99","887.0","0.0"],
    [1531004,"2026-07-30 13:20:00","2049","6.587999999999999","192.7","9.47","191.6","1018.504","29.14","69.25","876.0","0.0"],
    [1531005,"2026-07-30 13:30:00","2050","6.941","192.3","9.9","195.2","1018.453","29.16","69.91","860.0","0.0"],
    [1531006,"2026-07-30 13:40:00","2051","7.235","191.0","9.54","197.9","1018.396","29.04","69.44","845.0","0.0"],
    [1531007,"2026-07-30 13:50:00","2052","7.1129999999999995","191.7","9.24","196.2","1018.32","29.19","67.14","830.0","0.0"],
    [1531008,"2026-07-30 14:00:00","2053","7.301","190.6","9.64","190.0","1018.201","29.01","69.47","814.0","0.0"],
    [1531009,"2026-07-30 14:10:00","2054","6.915","192.0","9.21","198.0","1018.09","29.12","67.82","793.6","0.0"],
    [1531010,"2026-07-30 14:20:00","2055","7.275","191.5","10.22","190.3","1018.021","29.18","67.34","773.1","0.0"],
    [1531011,"2026-07-30 14:30:00","2056","7.102","194.2","9.57","192.7","1017.921","29.28","65.71","754.1","0.0"],
    [1531012,"2026-07-30 14:40:00","2057","7.164","190.7","10.22","200.2","1017.808","29.36","65.24","733.8","0.0"],
    [1531013,"2026-07-30 14:50:00","2058","6.546","197.8","9.7","198.6","1017.754","29.46","62.68","708.0","0.0"],
    [1531014,"2026-07-30 15:00:00","2059","7.3839999999999995","192.5","9.87","190.5","1017.731","29.29","63.11","682.5","0.0"],
    [1531015,"2026-07-30 15:10:00","2060","6.816","205.3","9.6","215.2","1017.768","29.7","61.46","657.4","0.0"],
    [1531016,"2026-07-30 15:20:00","2061","5.702999999999999","199.3","9.34","199.3","1017.706","29.89","62.13","630.9","0.0"],
    [1531017,"2026-07-30 15:30:00","2062","5.404","202.0","9.34","199.3","1017.678","29.99","61.57","602.3","0.0"],
    [1531018,"2026-07-30 15:40:00","2063","6.24","197.1","9.28","208.0","1017.56","29.67","61.74","574.8","0.0"],
    [1531019,"2026-07-30 15:50:00","2064","6.235","199.8","9.77","191.2","1017.512","29.87","60.84","545.7","0.0"],
    [1531020,"2026-07-30 16:00:00","2065","6.396","199.3","9.47","195.6","1017.447","29.47","62.55","516.9","0.0"],
    [1531021,"2026-07-30 16:10:00","2066","6.357","195.6","9.11","193.7","1017.366","29.65","62.17","484.7","0.0"],
    [1531022,"2026-07-30 16:20:00","2067","5.809","201.7","10.52","196.4","1017.262","29.91","60.61","451.9","0.0"],
    [1531023,"2026-07-30 16:30:00","2068","5.848","202.2","8.75","194.0","1017.247","29.54","61.21","417.9","0.0"],
    [1531024,"2026-07-30 16:40:00","2069","4.305","212.3","6.86","194.5","1017.224","29.96","61.01","384.0","0.0"],
    [1531025,"2026-07-30 16:50:00","2070","5.0760000000000005","219.1","8.13","228.2","1017.099","29.85","61.98","353.3","0.0"],
    [1531026,"2026-07-30 17:00:00","2071","5.537999999999999","208.8","8.89","196.9","1016.99","29.72","61.88","320.4","0.0"],
    [1531027,"2026-07-30 17:10:00","2072","4.438","210.8","7.6770000000000005","206.5","1016.925","29.61","62.0","289.3","0.0"],
    [1531028,"2026-07-30 17:20:00","2073","3.7230000000000003","214.1","6.697","201.4","1016.902","29.91","60.21","258.1","0.0"],
    [1531029,"2026-07-30 17:30:00","2074","4.521","212.0","8.53","212.9","1016.853","29.74","61.16","224.8","0.0"],
    [1531030,"2026-07-30 17:40:00","2075","4.867","210.5","8.49","196.7","1016.84","29.53","61.51","191.1","0.0"],
    [1531031,"2026-07-30 17:50:00","2076","4.107","218.6","7.285","239.9","1016.876","29.5","61.12","158.5","0.0"],
    [1531032,"2026-07-30 18:00:00","2077","5.1770000000000005","212.0","8.0","227.9","1016.858","29.32","60.78","130.5","0.0"],
    [1531033,"2026-07-30 18:10:00","2078","4.963","217.1","8.07","231.2","1016.888","29.19","62.6","107.2","0.0"],
    [1531034,"2026-07-30 18:20:00","2079","4.254","215.7","7.154","217.5","1016.906","29.12","63.18","85.2","0.0"],
    [1531035,"2026-07-30 18:30:00","2080","4.522","210.2","7.382999999999999","227.9","1016.94","28.92","63.82","64.46","0.0"],
    [1531036,"2026-07-30 18:40:00","2081","3.512","211.7","7.317","219.4","1016.981","28.93","64.69","44.78","0.0"],
    [1531037,"2026-07-30 18:50:00","2082","4.262","208.6","6.9910000000000005","200.6","1016.922","28.76","65.69","28.8","0.0"],
    [1531038,"2026-07-30 19:00:00","2083","3.2769999999999997","211.5","5.847","213.3","1016.99","28.59","66.63","14.87","0.0"],
    [1531039,"2026-07-30 19:10:00","2084","3.892","212.6","6.37","198.6","1017.026","28.56","66.42","5.008","0.0"],
    [1531040,"2026-07-30 19:20:00","2085","2.9619999999999997","212.0","6.7620000000000005","219.1","1017.111","28.53","66.12","0.23600000000000002","0.0"],
    [1531041,"2026-07-30 19:30:00","2086","2.432","229.6","5.325","248.3","1017.191","28.46","65.08","0.0","0.0"],
    [1531042,"2026-07-30 19:40:00","2087","2.156","227.8","6.042999999999999","212.9","1017.237","28.43","65.54","0.0","0.0"],
    [1531043,"2026-07-30 19:50:00","2088","2.36","247.3","4.835","266.9","1017.309","28.26","65.33","0.0","0.0"],
    [1531044,"2026-07-30 20:00:00","2089","2.625","259.6","4.508","252.8","1017.477","28.19","65.49","0.0","0.0"],
    [1531045,"2026-07-30 20:10:00","2090","2.272","250.5","4.2139999999999995","260.2","1017.553","28.13","65.93","0.0","0.0"],
    [1531046,"2026-07-30 20:20:00","2091","1.57","231.7","4.083","268.5","1017.669","28.08","66.7","0.0","0.0"],
    [1531047,"2026-07-30 20:30:00","2092","1.261","229.8","2.548","199.0","1017.794","28.01","66.93","0.0","0.0"],
    [1531048,"2026-07-30 20:40:00","2093","1.122","227.8","2.7439999999999998","184.1","1017.866","27.9","67.59","0.0","0.0"],
    [1531049,"2026-07-30 20:50:00","2094","1.367","239.7","3.071","261.2","1017.935","27.82","67.75","0.0","0.0"],
    [1531050,"2026-07-30 21:00:00","2095","1.088","230.1","2.483","258.5","1018.014","27.81","68.5","0.0","0.0"],
    [1531051,"2026-07-30 21:10:00","2096","1.071","219.2","2.6460000000000004","228.2","1017.991","27.76","69.66","0.0","0.0"],
    [1531052,"2026-07-30 21:20:00","2097","1.7069999999999999","249.5","3.267","256.9","1018.096","27.72","70.19","0.0","0.0"],
    [1531053,"2026-07-30 21:30:00","2098","1.094","224.1","2.8089999999999997","255.8","1018.095","27.64","70.48","0.0","0.0"],
    [1531054,"2026-07-30 21:40:00","2099","1.1059999999999999","251.6","3.234","274.3","1018.125","27.56","70.44","0.0","0.0"],
    [1531055,"2026-07-30 21:50:00","2100","1.1320000000000001","224.5","2.548","265.3","1018.058","27.58","71.06","0.0","0.0"],
    [1531056,"2026-07-30 22:00:00","2101","1.73","217.6","3.299","189.4","1017.99","27.46","71.44","0.0","0.0"],
    [1531057,"2026-07-30 22:10:00","2102","1.435","213.8","2.6460000000000004","203.8","1017.973","27.43","71.52","0.0","0.0"],
    [1531058,"2026-07-30 22:20:00","2103","1.4409999999999998","218.2","2.7110000000000003","219.6","1017.944","27.39","71.89","0.0","0.0"],
    [1531059,"2026-07-30 22:30:00","2104","1.4869999999999999","210.4","2.254","201.7","1017.906","27.39","72.47","0.0","0.0"],
    [1531060,"2026-07-30 22:40:00","2105","1.094","207.4","1.993","195.6","1017.916","27.36","73.05","0.0","0.0"],
    [1531061,"2026-07-30 22:50:00","2106","0.823","211.7","1.8619999999999999","228.4","1017.964","27.28","73.66","0.0","0.0"],
    [1531062,"2026-07-30 23:00:00","2107","1.334","267.3","3.071","271.5","1018.08","27.26","74.51","0.0","0.0"],
    [1531063,"2026-07-30 23:10:00","2108","1.767","276.0","2.6460000000000004","274.4","1018.103","27.21","75.14","0.0","0.0"],
    [1531064,"2026-07-30 23:20:00","2109","1.865","278.3","2.6460000000000004","280.7","1018.137","27.16","74.97","0.0","0.0"],
    [1531065,"2026-07-30 23:30:00","2110","1.281","272.7","1.8619999999999999","278.1","1018.081","27.11","74.94","0.0","0.0"],
    [1531066,"2026-07-30 23:40:00","2111","1.736","271.2","2.842","269.1","1018.126","27.04","75.22","0.0","0.0"],
    [1531067,"2026-07-30 23:50:00","2112","1.919","275.7","2.613","270.1","1018.152","27.0","75.57","0.0","0.0"],
    [1531068,"2026-07-31 00:00:00","2113","1.9280000000000002","273.5","2.483","273.8","1018.101","26.93","75.77","0.0","0.0"],
    [1531069,"2026-07-31 00:10:00","2114","1.304","285.2","1.9269999999999998","278.9","1018.061","26.87","76.29","0.0","0.0"],
    [1531070,"2026-07-31 00:20:00","2115","1.6780000000000002","280.4","2.5810000000000004","273.0","1018.04","26.74","75.62","0.0","0.0"],
    [1531071,"2026-07-31 00:30:00","2116","1.8230000000000002","276.0","2.5810000000000004","280.7","1018.054","26.71","74.61","0.0","0.0"],
    [1531072,"2026-07-31 00:40:00","2117","1.798","277.8","2.385","271.9","1018.053","26.63","73.52","0.0","0.0"],
    [1531073,"2026-07-31 00:50:00","2118","1.314","258.5","2.45","274.2","1017.975","26.52","72.34","0.0","0.0"],
    [1531074,"2026-07-31 01:00:00","2119","0.606","263.4","1.3719999999999999","231.4","1017.951","26.51","72.35","0.0","0.0"],
    [1531075,"2026-07-31 01:10:00","2120","0.718","264.7","1.5030000000000001","273.4","1017.96","26.44","71.11","0.0","0.0"],
    [1531076,"2026-07-31 01:20:00","2121","0.496","214.8","1.111","242.4","1017.914","26.51","71.72","0.0","0.0"],
    [1531077,"2026-07-31 01:30:00","2122","0.17800000000000002","215.1","1.013","244.4","1017.901","26.62","73.36","0.0","0.0"],
    [1531078,"2026-07-31 01:40:00","2123","0.159","180.4","0.9470000000000001","235.8","1017.888","26.5","73.03","0.0","0.0"],
    [1531079,"2026-07-31 01:50:00","2124","0.087","179.4","0.653","142.8","1017.904","26.54","72.8","0.0","0.0"],
    [1531080,"2026-07-31 02:00:00","2125","0.13","152.7","0.588","173.5","1017.785","26.61","73.02","0.0","0.0"],
    [1531081,"2026-07-31 02:10:00","2126","0.035","185.1","0.523","165.1","1017.75","26.66","74.39","0.0","0.0"],
    [1531082,"2026-07-31 02:20:00","2127","0.258","167.8","0.98","161.8","1017.691","26.67","75.87","0.0","0.0"],
    [1531083,"2026-07-31 02:30:00","2128","0.0","0.0","0.0","0.0","1017.704","26.57","75.56","0.0","0.0"],
    [1531084,"2026-07-31 02:40:00","2129","0.319","169.3","0.8170000000000001","186.5","1017.557","26.45","75.5","0.0","0.0"],
    [1531085,"2026-07-31 02:50:00","2130","0.435","248.4","0.98","250.1","1017.523","26.29","74.72","0.0","0.0"],
    [1531086,"2026-07-31 03:00:00","2131","0.758","250.9","1.143","259.3","1017.439","26.03","71.67","0.0","0.0"],
    [1531087,"2026-07-31 03:10:00","2132","0.6609999999999999","254.2","1.274","301.1","1017.302","26.15","69.71","0.0","0.0"],
    [1531088,"2026-07-31 03:20:00","2133","0.8859999999999999","309.0","1.274","299.5","1017.224","26.34","73.0","0.0","0.0"],
    [1531089,"2026-07-31 03:30:00","2134","1.107","312.9","1.666","309.9","1017.188","26.36","75.37","0.0","0.0"],
    [1531090,"2026-07-31 03:40:00","2135","0.983","291.6","1.307","290.6","1017.215","25.84","70.91","0.0","0.0"],
    [1531091,"2026-07-31 03:50:00","2136","1.2570000000000001","278.9","1.633","268.1","1017.208","25.77","69.09","0.0","0.0"],
    [1531092,"2026-07-31 04:00:00","2137","1.2429999999999999","275.0","1.4369999999999998","274.2","1017.152","25.89","68.88","0.0","0.0"],
    [1531093,"2026-07-31 04:10:00","2138","1.284","276.5","1.8619999999999999","268.6","1017.134","25.94","68.23","0.0","0.0"],
    [1531094,"2026-07-31 04:20:00","2139","1.286","273.4","1.764","266.5","1017.067","25.91","68.28","0.0","0.0"],
    [1531095,"2026-07-31 04:30:00","2140","1.3559999999999999","278.7","1.797","275.5","1017.085","25.95","68.41","0.0","0.0"],
    [1531096,"2026-07-31 04:40:00","2141","1.153","284.7","1.535","276.2","1016.965","25.87","69.22","0.024","0.0"],
    [1531097,"2026-07-31 04:50:00","2142","0.19699999999999998","357.2","0.784","292.1","1017.047","25.98","71.8","2.445","0.0"],
    [1531098,"2026-07-31 05:00:00","2143","0.171","328.1","0.588","318.9","1017.016","26.09","73.71","10.72","0.0"],
    [1531099,"2026-07-31 05:10:00","2144","0.892","265.1","1.8619999999999999","261.7","1017.065","25.91","71.57","23.88","0.0"],
    [1531100,"2026-07-31 05:20:00","2145","0.6409999999999999","263.0","1.405","266.0","1016.939","25.96","69.12","34.99","0.0"],
    [1531101,"2026-07-31 05:30:00","2146","1.149","261.8","1.699","268.5","1016.934","26.1","68.51","50.27","0.0"],
    [1531102,"2026-07-31 05:40:00","2147","0.635","254.9","1.013","258.5","1016.86","26.2","68.71","80.0","0.0"],
    [1531103,"2026-07-31 05:50:00","2148","0.051","256.7","0.7190000000000001","241.8","1016.873","26.67","67.81","108.8","0.0"],
    [1531104,"2026-07-31 06:00:00","2149","0.6579999999999999","285.7","1.274","270.9","1016.931","27.22","66.38","138.1","0.0"],
    [1531105,"2026-07-31 06:10:00","2150","0.069","284.7","0.8490000000000001","274.7","1016.896","27.75","64.5","162.2","0.0"],
    [1531106,"2026-07-31 06:20:00","2151","0.14800000000000002","279.2","1.176","280.0","1016.918","27.94","64.59","194.7","0.0"],
    [1531107,"2026-07-31 06:30:00","2152","0.35100000000000003","281.3","1.307","268.2","1016.988","28.61","62.39","234.3","0.0"],
    [1531108,"2026-07-31 06:40:00","2153","0.36200000000000004","270.4","1.568","249.1","1016.957","28.56","62.18","259.9","0.0"],
    [1531109,"2026-07-31 06:50:00","2154","0.114","162.6","0.98","160.2","1017.086","28.2","65.63","300.4","0.0"],
    [1531110,"2026-07-31 07:00:00","2155","0.887","290.8","2.9730000000000003","269.1","1017.285","28.23","66.14","330.3","0.0"],
    [1531111,"2026-07-31 07:10:00","2156","1.767","290.6","2.907","292.4","1017.411","28.66","65.89","273.4","0.0"],
    [1531112,"2026-07-31 07:20:00","2157","1.805","277.4","2.613","305.4","1017.419","28.78","67.74","313.2","0.0"],
    [1531113,"2026-07-31 07:30:00","2158","1.8730000000000002","287.2","2.8089999999999997","273.1","1017.427","28.6","68.74","339.6","0.0"],
    [1531114,"2026-07-31 07:40:00","2159","1.325","274.4","2.94","262.3","1017.304","28.63","68.26","349.0","0.0"],
    [1531115,"2026-07-31 07:50:00","2160","1.258","228.5","2.875","179.5","1017.155","29.17","66.29","467.2","0.0"],
    [1531116,"2026-07-31 08:00:00","2161","2.822","172.8","4.2139999999999995","195.5","1017.059","28.32","70.58","490.1","0.0"],
    [1531117,"2026-07-31 08:10:00","2162","3.427","156.8","4.4430000000000005","164.6","1016.956","27.62","74.64","489.2","0.0"],
    [1531118,"2026-07-31 08:20:00","2163","3.5210000000000004","154.1","4.4430000000000005","153.3","1016.845","27.32","75.76","563.7","0.0"],
    [1531119,"2026-07-31 08:30:00","2164","3.3760000000000003","158.3","4.247","155.9","1016.95","27.43","76.17","610.7","0.0"],
    [1531120,"2026-07-31 08:40:00","2165","3.622","160.3","4.475","164.9","1017.089","27.45","76.41","635.7","0.0"],
    [1531121,"2026-07-31 08:50:00","2166","4.208","163.1","4.9","170.7","1017.217","27.37","77.4","430.5","0.0"],
    [1531122,"2026-07-31 09:00:00","2167","4.547","165.4","5.39","184.5","1017.228","27.23","78.37","480.7","0.0"],
    [1531123,"2026-07-31 09:10:00","2168","4.652","170.9","5.4879999999999995","170.8","1017.324","27.35","78.23","473.3","0.0"],
    [1531124,"2026-07-31 09:20:00","2169","4.295","171.1","5.1610000000000005","172.9","1017.422","27.45","77.22","479.3","0.0"],
    [1531125,"2026-07-31 09:30:00","2170","4.418","180.7","5.684","176.4","1017.416","27.89","74.53","547.1","0.0"],
    [1531126,"2026-07-31 09:40:00","2171","4.979","175.7","6.207000000000001","175.5","1017.366","27.65","77.14","433.0","0.0"],
    [1531127,"2026-07-31 09:50:00","2172","4.926","176.3","5.88","169.7","1017.376","27.63","77.53","613.7","0.0"],
    [1531128,"2026-07-31 10:00:00","2173","5.082","174.2","6.697","171.6","1017.321","27.7","77.2","782.7","0.0"],
    [1531129,"2026-07-31 10:10:00","2174","5.433","174.1","6.827000000000001","172.9","1017.244","27.79","77.08","809.0","0.0"],
    [1531130,"2026-07-31 10:20:00","2175","4.888999999999999","172.6","6.207000000000001","166.4","1017.242","27.87","77.44","825.0","0.0"],
    [1531131,"2026-07-31 10:30:00","2176","5.513","174.9","6.9910000000000005","176.3","1017.223","27.87","77.3","837.0","0.0"],
    [1531132,"2026-07-31 10:40:00","2177","5.186","177.8","6.403","170.4","1017.032","27.95","76.49","849.0","0.0"],
    [1531133,"2026-07-31 10:50:00","2178","5.4670000000000005","177.1","7.0889999999999995","178.5","1016.913","28.01","76.08","861.0","0.0"],
    [1531134,"2026-07-31 11:00:00","2179","5.367999999999999","179.0","6.925","170.0","1016.86","28.12","75.81","875.0","0.0"],
    [1531135,"2026-07-31 11:10:00","2180","5.513999999999999","185.3","7.481","184.0","1016.786","28.3","74.41","888.0","0.0"],
    [1531136,"2026-07-31 11:20:00","2181","5.931","187.9","8.0","193.6","1016.759","28.33","74.24","894.0","0.0"],
    [1531137,"2026-07-31 11:30:00","2182","6.026","184.7","8.2","189.1","1016.732","28.41","73.57","899.0","0.0"],
    [1531138,"2026-07-31 11:40:00","2183","5.925","184.7","8.33","189.5","1016.661","28.48","73.37","903.0","0.0"],
    [1531139,"2026-07-31 11:50:00","2184","6.428999999999999","184.9","8.26","184.6","1016.607","28.47","73.31","908.0","0.0"],
    [1531140,"2026-07-31 12:00:00","2185","6.109","184.4","7.807","186.2","1016.552","28.55","72.76","899.0","0.0"],
    [1531141,"2026-07-31 12:10:00","2186","6.687","186.0","8.95","188.9","1016.425","28.53","71.98","907.0","0.0"],
    [1531142,"2026-07-31 12:20:00","2187","6.715","186.5","9.11","182.8","1016.373","28.53","72.38","910.0","0.0"],
    [1531143,"2026-07-31 12:30:00","2188","7.101","186.9","8.95","188.5","1016.352","28.45","72.67","905.0","0.0"],
    [1531144,"2026-07-31 12:40:00","2189","6.676","186.2","8.92","199.8","1016.374","28.48","72.22","901.0","0.0"],
    [1531145,"2026-07-31 12:50:00","2190","6.571000000000001","182.0","8.13","182.5","1016.375","28.53","72.14","888.0","0.0"],
    [1531146,"2026-07-31 13:00:00","2191","5.952000000000001","186.4","7.775","214.1","1016.389","28.6","72.18","880.0","0.0"],
    [1531147,"2026-07-31 13:10:00","2192","5.916","194.7","8.69","202.5","1016.329","28.94","70.44","873.0","0.0"],
    [1531148,"2026-07-31 13:20:00","2193","6.034","190.8","8.07","189.9","1016.285","29.05","70.31","863.0","0.0"],
    [1531149,"2026-07-31 13:30:00","2194","7.002999999999999","190.2","9.41","193.0","1016.144","28.82","70.11","849.0","0.0"],
    [1531150,"2026-07-31 13:40:00","2195","6.183","192.5","8.1","195.5","1016.085","29.19","67.71","830.0","0.0"],
    [1531151,"2026-07-31 13:50:00","2196","6.2989999999999995","189.7","9.24","186.1","1015.99","29.12","69.04","816.0","0.0"],
    [1531152,"2026-07-31 14:00:00","2197","5.912999999999999","186.4","7.742000000000001","191.4","1015.975","28.88","71.25","799.3","0.0"],
    [1531153,"2026-07-31 14:10:00","2198","5.502999999999999","192.7","7.579","185.7","1015.956","28.98","70.27","781.2","0.0"],
    [1531154,"2026-07-31 14:20:00","2199","6.041","189.6","9.08","200.2","1015.795","29.06","69.12","761.8","0.0"],
    [1531155,"2026-07-31 14:30:00","2200","5.747999999999999","186.1","7.971","193.2","1015.703","29.0","69.31","739.1","0.0"],
    [1531156,"2026-07-31 14:40:00","2201","5.5889999999999995","193.8","7.971","188.9","1015.729","29.2","66.98","713.9","0.0"],
    [1531157,"2026-07-31 14:50:00","2202","6.2620000000000005","187.1","9.11","188.8","1015.68","29.05","68.13","687.6","0.0"],
    [1531158,"2026-07-31 15:00:00","2203","5.631","183.9","7.285","172.0","1015.659","28.8","70.89","661.3","0.0"],
    [1531159,"2026-07-31 15:10:00","2204","5.6770000000000005","180.5","7.807","172.2","1015.679","28.55","73.44","638.2","0.0"],
    [1531160,"2026-07-31 15:20:00","2205","5.919","179.3","7.317","173.8","1015.629","28.38","73.47","611.8","0.0"],
    [1531161,"2026-07-31 15:30:00","2206","5.692","179.6","7.252000000000001","169.4","1015.522","28.4","72.99","585.0","0.0"],
    [1531162,"2026-07-31 15:40:00","2207","5.481","179.5","7.0889999999999995","171.6","1015.482","28.35","73.83","557.7","0.0"],
    [1531163,"2026-07-31 15:50:00","2208","5.256","180.9","7.513","185.2","1015.413","28.4","73.36","531.7","0.0"],
    [1531164,"2026-07-31 16:00:00","2209","4.739","181.2","6.207000000000001","171.7","1015.466","28.34","73.86","500.8","0.0"],
    [1531165,"2026-07-31 16:10:00","2210","4.917","182.2","6.305","173.0","1015.509","28.39","73.44","500.2","0.0"],
    [1531166,"2026-07-31 16:20:00","2211","4.5360000000000005","187.3","6.5329999999999995","190.6","1015.598","28.56","72.66","507.1","0.0"],
    [1531167,"2026-07-31 16:30:00","2212","5.109","173.2","6.37","166.2","1015.47","28.3","75.2","357.7","0.0"],
    [1531168,"2026-07-31 16:40:00","2213","4.337","176.6","6.501","168.1","1015.574","28.13","76.66","321.2","0.0"],
    [1531169,"2026-07-31 16:50:00","2214","4.018","184.7","5.325","191.5","1015.546","28.18","76.06","239.7","0.0"],
    [1531170,"2026-07-31 17:00:00","2215","3.9160000000000004","187.0","6.403","194.8","1015.431","28.35","74.9","250.5","0.0"],
    [1531171,"2026-07-31 17:10:00","2216","4.056","179.4","5.978","197.3","1015.202","28.23","75.97","248.5","0.0"],
    [1531172,"2026-07-31 17:20:00","2217","4.706","171.5","5.7170000000000005","172.1","1014.93","27.81","79.32","229.9","0.0"],
    [1531173,"2026-07-31 17:30:00","2218","3.3680000000000003","177.8","4.345","173.2","1014.934","27.73","79.72","202.4","0.0"],
    [1531174,"2026-07-31 17:40:00","2219","3.386","190.5","4.083","198.7","1015.049","28.05","77.5","162.9","0.0"],
    [1531175,"2026-07-31 17:50:00","2220","3.28","179.6","4.181","194.3","1014.996","27.96","78.55","144.1","0.0"],
    [1531176,"2026-07-31 18:00:00","2221","3.577","187.3","4.312","187.5","1015.049","27.91","78.17","113.0","0.0"],
    [1531177,"2026-07-31 18:10:00","2222","3.6310000000000002","186.7","4.638999999999999","185.2","1015.062","27.95","77.97","92.8","0.0"],
    [1531178,"2026-07-31 18:20:00","2223","3.92","179.7","4.965","172.6","1014.98","27.77","78.94","76.65","0.0"],
    [1531179,"2026-07-31 18:30:00","2224","3.753","186.9","4.965","187.5","1014.962","27.85","78.52","28.41","0.0"],
    [1531180,"2026-07-31 18:40:00","2225","3.918","188.9","5.031000000000001","192.5","1015.106","27.73","78.73","13.72","0.0"],
    [1531181,"2026-07-31 18:50:00","2226","3.1430000000000002","185.4","4.508","185.9","1015.288","27.79","78.94","12.87","0.0"],
    [1531182,"2026-07-31 19:00:00","2227","3.187","175.3","4.4430000000000005","188.2","1015.34","27.71","80.7","8.25","0.0"],
    [1531183,"2026-07-31 19:10:00","2228","2.877","187.5","4.312","195.4","1015.429","27.61","80.3","2.5780000000000003","0.0"],
    [1531184,"2026-07-31 19:20:00","2229","2.167","186.1","4.051","205.6","1015.54","27.85","77.64","0.039","0.0"],
    [1531185,"2026-07-31 19:30:00","2230","2.727","183.9","3.593","181.7","1015.495","27.84","76.45","0.0","0.0"],
    [1531186,"2026-07-31 19:40:00","2231","2.145","188.6","2.875","195.3","1015.505","27.85","77.28","0.0","0.0"],
    [1531187,"2026-07-31 19:50:00","2232","1.965","193.0","3.201","169.9","1015.447","27.67","78.22","0.0","0.0"],
    [1531188,"2026-07-31 20:00:00","2233","1.44","192.0","2.548","197.4","1015.583","27.8","76.17","0.0","0.0"],
    [1531189,"2026-07-31 20:10:00","2234","1.891","227.6","4.4430000000000005","269.0","1015.897","27.91","75.14","0.0","0.0"],
    [1531190,"2026-07-31 20:20:00","2235","2.144","242.7","4.279","259.0","1016.25","28.15","73.92","0.0","0.0"],
    [1531191,"2026-07-31 20:30:00","2236","2.076","205.7","3.495","201.4","1016.216","28.18","74.3","0.0","0.0"],
    [1531192,"2026-07-31 20:40:00","2237","1.6840000000000002","214.4","2.875","216.2","1016.288","28.13","74.23","0.0","0.0"],
    [1531193,"2026-07-31 20:50:00","2238","0.98","245.4","2.385","223.3","1016.286","28.15","73.68","0.0","0.0"],
    [1531194,"2026-07-31 21:00:00","2239","1.4780000000000002","259.1","2.875","268.7","1016.344","28.18","73.35","0.0","0.0"],
    [1531195,"2026-07-31 21:10:00","2240","1.06","198.9","2.025","208.1","1016.363","28.09","74.06","0.0","0.0"],
    [1531196,"2026-07-31 21:20:00","2241","1.0170000000000001","223.2","2.7439999999999998","213.9","1016.416","27.97","73.95","0.0","0.0"],
    [1531197,"2026-07-31 21:30:00","2242","0.794","238.7","1.8619999999999999","186.7","1016.467","28.0","74.2","0.0","0.0"],
    [1531198,"2026-07-31 21:40:00","2243","1.57","271.4","2.483","257.2","1016.516","28.13","73.33","0.0","0.0"],
    [1531199,"2026-07-31 21:50:00","2244","1.182","270.4","2.483","276.8","1016.511","28.21","73.18","0.0","0.0"],
    [1531200,"2026-07-31 22:00:00","2245","1.136","215.2","2.025","290.0","1016.412","28.14","74.07","0.0","0.0"],
    [1531201,"2026-07-31 22:10:00","2246","0.627","276.6","1.993","307.3","1016.391","27.96","74.43","0.0","0.0"],
    [1531202,"2026-07-31 22:20:00","2247","1.153","301.4","1.797","304.5","1016.421","27.9","74.34","0.0","0.0"],
    [1531203,"2026-07-31 22:30:00","2248","0.9490000000000001","312.5","1.764","322.0","1016.437","27.86","74.22","0.0","0.0"],
    [1531204,"2026-07-31 22:40:00","2249","0.852","296.6","1.47","288.9","1016.454","27.9","74.2","0.0","0.0"],
    [1531205,"2026-07-31 22:50:00","2250","0.677","292.3","1.535","305.5","1016.449","27.85","74.36","0.0","0.0"],
    [1531206,"2026-07-31 23:00:00","2251","0.32799999999999996","239.8","1.601","262.2","1016.516","27.8","75.61","0.0","0.0"],
    [1531207,"2026-07-31 23:10:00","2252","0.603","153.2","1.143","167.7","1016.456","27.59","77.1","0.0","0.0"],
    [1531208,"2026-07-31 23:20:00","2253","0.563","147.0","1.209","146.9","1016.409","27.41","78.72","0.0","0.0"],
    [1531209,"2026-07-31 23:30:00","2254","0.872","152.2","1.209","142.1","1016.419","27.21","80.7","0.0","0.0"],
    [1531210,"2026-07-31 23:40:00","2255","0.757","161.3","0.8490000000000001","173.7","1016.442","27.15","81.3","0.0","0.0"],
    [1531211,"2026-07-31 23:50:00","2256","0.7559999999999999","144.8","1.045","126.4","1016.463","27.03","81.7","0.0","0.0"],
    [1531212,"2026-08-01 00:00:00","2257","1.067","122.7","1.405","128.4","1016.415","26.74","81.7","0.0","0.0"],
    [1531213,"2026-08-01 00:10:00","2258","0.877","122.9","1.078","120.7","1016.399","26.68","81.4","0.0","0.0"],
    [1531214,"2026-08-01 00:20:00","2259","1.013","136.6","1.3719999999999999","132.2","1016.351","26.81","81.9","0.0","0.0"],
    [1531215,"2026-08-01 00:30:00","2260","1.354","135.4","1.5030000000000001","135.0","1016.25","26.71","81.5","0.0","0.0"],
    [1531216,"2026-08-01 00:40:00","2261","0.9209999999999999","149.3","1.078","142.3","1016.244","26.92","81.8","0.0","0.0"],
    [1531217,"2026-08-01 00:50:00","2262","0.713","147.1","0.882","148.3","1016.309","26.86","82.1","0.0","0.0"],
    [1531218,"2026-08-01 01:00:00","2263","0.5820000000000001","159.1","1.013","158.3","1016.274","26.79","82.4","0.0","0.0"],
    [1531219,"2026-08-01 01:10:00","2264","0.44","183.7","0.555","174.1","1016.221","26.71","81.8","0.0","0.0"],
    [1531220,"2026-08-01 01:20:00","2265","0.278","211.1","0.653","209.7","1016.177","26.79","80.7","0.0","0.0"],
    [1531221,"2026-08-01 01:30:00","2266","1.0659999999999998","42.9","3.463","42.51","1016.184","26.82","80.3","0.0","0.0"],
    [1531222,"2026-08-01 01:40:00","2267","2.6039999999999996","39.5","3.267","43.67","1016.189","26.47","79.88","0.0","0.0"],
    [1531223,"2026-08-01 01:50:00","2268","3.583","43.9","4.508","38.9","1016.14","26.49","76.76","0.0","0.0"],
    [1531224,"2026-08-01 02:00:00","2269","2.955","42.53","4.083","43.74","1016.156","26.53","78.71","0.0","0.0"],
    [1531225,"2026-08-01 02:10:00","2270","2.18","41.9","3.071","44.11","1016.13","26.37","80.4","0.0","0.0"],
    [1531226,"2026-08-01 02:20:00","2271","2.67","31.98","3.495","22.79","1016.134","26.29","81.5","0.0","0.0"],
    [1531227,"2026-08-01 02:30:00","2272","2.353","17.94","3.136","29.64","1016.123","26.16","81.9","0.0","0.0"],
    [1531228,"2026-08-01 02:40:00","2273","2.5580000000000003","29.2","3.7239999999999998","27.63","1016.149","26.26","80.6","0.0","0.0"],
    [1531229,"2026-08-01 02:50:00","2274","3.8110000000000004","27.29","4.769","28.41","1016.06","26.26","79.72","0.0","0.0"],
    [1531230,"2026-08-01 03:00:00","2275","3.5789999999999997","26.04","4.508","24.86","1016.048","26.18","80.6","0.0","0.0"],
    [1531231,"2026-08-01 03:10:00","2276","3.7689999999999997","23.21","5.2589999999999995","24.95","1016.008","26.08","82.1","0.0","0.0"],
    [1531232,"2026-08-01 03:20:00","2277","4.149","19.72","5.096","21.69","1016.03","25.97","83.0","0.0","0.0"],
    [1531233,"2026-08-01 03:30:00","2278","3.91","18.44","4.606","15.12","1016.076","25.91","83.2","0.0","0.0"],
    [1531234,"2026-08-01 03:40:00","2279","4.048","21.77","5.227","18.07","1016.034","25.85","83.2","0.0","0.0"],
    [1531235,"2026-08-01 03:50:00","2280","4.5","24.72","5.782","31.38","1015.931","25.83","81.8","0.0","0.0"],
    [1531236,"2026-08-01 04:00:00","2281","4.506","24.0","5.521","17.29","1015.893","25.87","80.5","0.0","0.0"],
    [1531237,"2026-08-01 04:10:00","2282","4.21","24.9","4.965","19.75","1015.879","25.79","81.4","0.0","0.0"],
    [1531238,"2026-08-01 04:20:00","2283","4.217","25.99","4.965","28.23","1015.762","25.73","82.0","0.0","0.0"],
    [1531239,"2026-08-01 04:30:00","2284","4.263","29.45","5.357","35.76","1015.695","25.7","82.1","0.0","0.0"],
    [1531240,"2026-08-01 04:40:00","2285","4.373","30.57","5.455","31.83","1015.79","25.68","82.9","0.05","0.0"],
    [1531241,"2026-08-01 04:50:00","2286","4.213","28.5","5.096","32.7","1015.818","25.63","83.7","1.798","0.0"],
    [1531242,"2026-08-01 05:00:00","2287","4.016","25.51","4.835","27.16","1015.895","25.69","82.5","6.4910000000000005","0.0"],
    [1531243,"2026-08-01 05:10:00","2288","3.657","20.48","4.671","23.8","1015.964","25.66","82.4","14.16","0.0"],
    [1531244,"2026-08-01 05:20:00","2289","3.355","1.484","4.737","15.23","1015.923","25.67","81.4","21.55","0.0"],
    [1531245,"2026-08-01 05:30:00","2290","2.5610000000000004","17.4","3.822","15.23","1015.923","25.78","80.2","41.2","0.0"],
    [1531246,"2026-08-01 05:40:00","2291","3.59","24.39","4.671","32.83","1015.959","25.76","80.8","65.64","0.0"],
    [1531247,"2026-08-01 05:50:00","2292","3.65","21.36","4.573","25.4","1016.063","25.71","81.3","91.4","0.0"],
    [1531248,"2026-08-01 06:00:00","2293","3.66","20.83","4.606","14.54","1016.095","25.77","81.0","118.1","0.0"],
    [1531249,"2026-08-01 06:10:00","2294","3.6860000000000004","23.6","4.508","29.56","1016.122","25.82","80.9","157.8","0.0"],
    [1531250,"2026-08-01 06:20:00","2295","3.818","25.75","4.802","30.64","1016.11","25.91","80.4","170.8","0.0"],
    [1531251,"2026-08-01 06:30:00","2296","4.1160000000000005","22.73","5.129","19.39","1016.116","25.98","80.0","202.5","0.0"],
    [1531252,"2026-08-01 06:40:00","2297","4.012","24.59","5.194","26.93","1016.181","25.95","79.91","174.5","0.0"],
    [1531253,"2026-08-01 06:50:00","2298","3.733","22.1","4.867","23.97","1016.275","25.99","80.2","294.7","0.0"],
    [1531254,"2026-08-01 07:00:00","2299","3.827","24.27","4.9","25.98","1016.28","26.09","79.96","334.5","0.0"],
    [1531255,"2026-08-01 07:10:00","2300","3.912","26.8","4.9","30.2","1016.277","26.08","80.6","330.6","0.0"],
    [1531256,"2026-08-01 07:20:00","2301","4.246","29.0","5.031000000000001","27.72","1016.274","26.18","80.2","375.1","0.0"],
    [1531257,"2026-08-01 07:30:00","2302","4.529","28.45","5.096","28.6","1016.224","26.17","80.6","420.7","0.0"],
    [1531258,"2026-08-01 07:40:00","2303","4.287","32.65","5.194","38.27","1016.101","26.17","81.0","399.3","0.0"],
    [1531259,"2026-08-01 07:50:00","2304","3.898","29.23","4.704","31.1","1016.181","26.21","81.5","446.6","0.0"],
    [1531260,"2026-08-01 08:00:00","2305","3.1510000000000002","19.41","4.279","22.8","1016.467","26.22","82.5","301.4","0.0"],
    [1531261,"2026-08-01 08:10:00","2306","2.0469999999999997","5.167000000000001","2.6460000000000004","10.16","1016.76","26.29","83.1","317.9","0.0"],
    [1531262,"2026-08-01 08:20:00","2307","1.879","24.68","2.548","28.53","1016.792","26.27","83.9","224.8","0.0"],
    [1531263,"2026-08-01 08:30:00","2308","1.7369999999999999","54.03","2.515","59.39","1016.702","26.62","82.4","533.2","0.0"],
    [1531264,"2026-08-01 08:40:00","2309","1.911","44.0","2.483","36.22","1016.594","27.11","79.92","656.9","0.0"],
    [1531265,"2026-08-01 08:50:00","2310","2.154","46.65","3.267","57.3","1016.582","27.07","80.2","624.1","0.0"],
    [1531266,"2026-08-01 09:00:00","2311","2.005","78.08","3.071","79.91","1016.469","27.32","78.63","647.9","0.0"],
    [1531267,"2026-08-01 09:10:00","2312","2.267","105.0","3.267","119.8","1016.365","27.37","77.76","686.2","0.0"],
    [1531268,"2026-08-01 09:20:00","2313","2.286","138.2","3.071","112.9","1016.397","27.53","76.09","708.9","0.0"],
    [1531269,"2026-08-01 09:30:00","2314","2.324","144.5","2.842","142.2","1016.345","27.75","75.31","736.5","0.0"],
    [1531270,"2026-08-01 09:40:00","2315","2.532","147.1","3.267","145.8","1016.453","27.82","75.33","759.4","0.0"],
    [1531271,"2026-08-01 09:50:00","2316","2.782","150.2","3.659","140.4","1016.484","27.87","75.43","681.5","0.0"],
    [1531272,"2026-08-01 10:00:00","2317","3.3560000000000003","159.6","4.835","146.3","1016.486","27.9","74.97","765.3","0.0"],
    [1531273,"2026-08-01 10:10:00","2318","4.631","151.3","5.684","147.7","1016.44","27.61","75.26","454.5","0.0"],
    [1531274,"2026-08-01 10:20:00","2319","4.7139999999999995","150.5","5.847","158.7","1016.439","27.51","74.34","462.1","0.0"],
    [1531275,"2026-08-01 10:30:00","2320","4.934","154.9","6.1739999999999995","152.7","1016.418","27.53","74.08","449.7","0.0"],
    [1531276,"2026-08-01 10:40:00","2321","5.6","154.7","6.697","150.0","1016.327","27.48","73.52","562.7","0.0"],
    [1531277,"2026-08-01 10:50:00","2322","5.9","156.1","6.957999999999999","157.3","1016.299","27.49","73.3","461.7","0.0"],
    [1531278,"2026-08-01 11:00:00","2323","5.598","157.8","6.435","149.8","1016.316","27.39","74.96","378.0","0.0"],
    [1531279,"2026-08-01 11:10:00","2324","5.795","157.1","6.925","156.6","1016.196","27.34","75.32","414.7","0.0"],
    [1531280,"2026-08-01 11:20:00","2325","5.91","156.3","7.317","159.8","1016.148","27.46","73.33","496.1","0.0"],
    [1531281,"2026-08-01 11:30:00","2326","5.75","161.2","6.795","154.4","1016.034","27.55","73.08","494.0","0.0"],
    [1531282,"2026-08-01 11:40:00","2327","5.909","160.3","7.382999999999999","164.4","1015.947","27.6","73.76","568.6","0.0"],
    [1531283,"2026-08-01 11:50:00","2328","6.11","157.6","6.893","158.6","1015.814","27.43","75.22","457.3","0.0"],
    [1531284,"2026-08-01 12:00:00","2329","6.127999999999999","158.5","7.218999999999999","158.4","1015.764","27.47","73.54","659.3","0.0"],
    [1531285,"2026-08-01 12:10:00","2330","6.586","159.3","7.872999999999999","153.1","1015.73","27.53","74.16","489.3","0.0"],
    [1531286,"2026-08-01 12:20:00","2331","6.853","160.7","7.905","160.0","1015.69","27.46","74.55","431.6","0.0"],
    [1531287,"2026-08-01 12:30:00","2332","6.763","158.9","8.23","161.1","1015.564","27.46","74.22","478.9","0.0"],
    [1531288,"2026-08-01 12:40:00","2333","6.645","161.5","7.709","161.1","1015.428","27.52","74.61","639.2","0.0"],
    [1531289,"2026-08-01 12:50:00","2334","6.595","160.9","7.546","161.6","1015.308","27.55","73.65","484.4","0.0"],
    [1531290,"2026-08-01 13:00:00","2335","6.487","161.5","7.6770000000000005","161.2","1015.186","27.56","74.08","468.8","0.0"],
    [1531291,"2026-08-01 13:10:00","2336","6.227","159.9","7.056","161.5","1015.071","27.62","74.07","469.6","0.0"],
    [1531292,"2026-08-01 13:20:00","2337","6.347","157.6","7.4479999999999995","156.7","1015.041","27.45","74.25","320.1","0.0"],
    [1531293,"2026-08-01 13:30:00","2338","6.2829999999999995","161.4","7.285","165.6","1014.972","27.54","73.74","409.9","0.0"],
    [1531294,"2026-08-01 13:40:00","2339","6.527","162.1","7.611000000000001","156.1","1014.915","27.54","74.04","330.4","0.0"],
    [1531295,"2026-08-01 13:50:00","2340","6.875","161.9","8.17","158.4","1014.846","27.44","75.27","310.0","0.0"],
    [1531296,"2026-08-01 14:00:00","2341","6.852","163.5","8.3","162.3","1014.769","27.39","75.15","304.5","0.0"],
    [1531297,"2026-08-01 14:10:00","2342","7.015","166.2","8.13","168.0","1014.636","27.5","74.83","505.5","0.0"],
    [1531298,"2026-08-01 14:20:00","2343","7.337999999999999","163.2","8.36","167.3","1014.454","27.51","74.63","502.3","0.0"],
    [1531299,"2026-08-01 14:30:00","2344","7.382000000000001","163.7","8.36","165.7","1014.296","27.59","73.96","665.0","0.0"],
    [1531300,"2026-08-01 14:40:00","2345","7.018","163.9","8.1","163.1","1014.23","27.62","74.44","675.7","0.0"],
    [1531301,"2026-08-01 14:50:00","2346","7.041","163.8","7.872999999999999","160.8","1014.152","27.64","74.12","705.9","0.0"],
    [1531302,"2026-08-01 15:00:00","2347","6.831","164.8","7.84","161.8","1014.071","27.65","75.31","664.3","0.0"],
    [1531303,"2026-08-01 15:10:00","2348","6.752999999999999","170.0","8.1","166.1","1013.947","27.64","75.45","641.7","0.0"],
    [1531304,"2026-08-01 15:20:00","2349","6.215","171.1","7.611000000000001","170.5","1013.892","27.61","76.1","613.8","0.0"],
    [1531305,"2026-08-01 15:30:00","2350","6.22","172.0","7.382999999999999","166.2","1013.79","27.65","76.24","583.3","0.0"],
    [1531306,"2026-08-01 15:40:00","2351","6.27","175.8","7.611000000000001","177.7","1013.878","27.9","74.2","559.0","0.0"],
    [1531307,"2026-08-01 15:50:00","2352","5.809","176.8","7.579","174.4","1013.876","27.82","74.28","525.0","0.0"],
    [1531308,"2026-08-01 16:00:00","2353","5.81","174.3","6.9910000000000005","173.3","1013.804","27.85","74.54","499.1","0.0"],
    [1531309,"2026-08-01 16:10:00","2354","5.425","173.7","6.697","173.5","1013.772","27.68","76.64","427.7","0.0"],
    [1531310,"2026-08-01 16:20:00","2355","5.35","175.6","6.893","170.0","1013.895","27.64","77.17","311.6","0.0"],
    [1531311,"2026-08-01 16:30:00","2356","5.05","174.0","6.0760000000000005","173.2","1013.815","27.65","76.91","375.7","0.0"],
    [1531312,"2026-08-01 16:40:00","2357","5.417999999999999","171.9","6.501","168.4","1013.685","27.56","78.48","319.7","0.0"],
    [1531313,"2026-08-01 16:50:00","2358","4.974","178.3","6.337000000000001","174.4","1013.743","27.64","77.5","249.1","0.0"],
    [1531314,"2026-08-01 17:00:00","2359","4.328","171.2","5.357","182.9","1013.944","27.7","78.24","185.2","0.0"],
    [1531315,"2026-08-01 17:10:00","2360","5.034","173.9","6.664","177.9","1013.657","27.45","79.34","211.3","0.0"],
    [1531316,"2026-08-01 17:20:00","2361","4.152","165.7","5.1610000000000005","176.3","1013.678","27.45","79.94","188.9","0.0"],
    [1531317,"2026-08-01 17:30:00","2362","3.915","160.1","4.573","167.6","1013.818","27.36","80.0","155.8","0.0"],
    [1531318,"2026-08-01 17:40:00","2363","3.5260000000000002","160.6","5.031000000000001","173.2","1014.119","27.48","78.37","97.2","0.0"],
    [1531319,"2026-08-01 17:50:00","2364","2.8160000000000003","131.7","4.345","132.9","1014.452","27.33","78.51","65.04","0.0"],
    [1531320,"2026-08-01 18:00:00","2365","3.5260000000000002","135.9","4.345","143.2","1013.984","27.35","78.08","71.49","0.0"],
    [1531321,"2026-08-01 18:10:00","2366","3.577","149.5","4.508","145.5","1014.086","27.29","78.49","51.89","0.0"],
    [1531322,"2026-08-01 18:20:00","2367","3.298","146.5","4.377","156.0","1014.404","27.26","78.75","30.73","0.0"],
    [1531323,"2026-08-01 18:30:00","2368","2.701","145.6","3.528","152.7","1014.61","27.22","78.94","25.59","0.0"],
    [1531324,"2026-08-01 18:40:00","2369","2.597","144.2","3.495","126.7","1014.319","27.23","78.77","24.78","0.0"],
    [1531325,"2026-08-01 18:50:00","2370","2.575","136.9","3.103","139.4","1014.04","27.11","78.9","18.47","0.0"],
    [1531326,"2026-08-01 19:00:00","2371","2.254","155.7","3.005","176.1","1013.857","27.14","79.75","12.36","0.0"],
    [1531327,"2026-08-01 19:10:00","2372","3.553","175.1","4.769","176.5","1013.882","27.18","79.66","4.011","0.0"],
    [1531328,"2026-08-01 19:20:00","2373","3.577","176.8","4.345","176.8","1013.767","27.22","79.18","0.9229999999999999","0.0"],
    [1531329,"2026-08-01 19:30:00","2374","3.737","190.6","5.227","196.5","1013.844","27.18","80.6","0.0","0.0"],
    [1531330,"2026-08-01 19:40:00","2375","2.379","162.1","3.855","191.0","1013.567","27.08","81.5","0.0","0.0"],
    [1531331,"2026-08-01 19:50:00","2376","1.942","152.2","2.8089999999999997","177.9","1013.576","26.87","81.8","0.0","0.0"],
    [1531332,"2026-08-01 20:00:00","2377","2.19","143.1","2.548","146.9","1013.429","26.83","82.0","0.0","0.0"],
    [1531333,"2026-08-01 20:10:00","2378","1.911","164.1","2.548","169.1","1013.632","26.92","81.7","0.0","0.0"],
    [1531334,"2026-08-01 20:20:00","2379","2.501","171.0","3.659","173.4","1013.575","26.94","82.2","0.0","0.0"],
    [1531335,"2026-08-01 20:30:00","2380","2.436","173.1","3.234","187.6","1013.527","27.0","82.4","0.0","0.0"],
    [1531336,"2026-08-01 20:40:00","2381","2.336","168.1","3.005","162.7","1013.712","26.82","83.2","0.0","0.0"],
    [1531337,"2026-08-01 20:50:00","2382","2.3280000000000003","169.4","2.7110000000000003","174.5","1013.92","26.78","84.0","0.0","0.0"],
    [1531338,"2026-08-01 21:00:00","2383","2.884","185.0","3.985","188.3","1014.047","26.79","84.1","0.0","0.0"],
    [1531339,"2026-08-01 21:10:00","2384","2.9339999999999997","188.6","3.887","186.3","1014.01","27.08","81.3","0.0","0.0"],
    [1531340,"2026-08-01 21:20:00","2385","2.285","177.0","2.907","190.0","1013.99","27.08","82.8","0.0","0.0"],
    [1531341,"2026-08-01 21:30:00","2386","3.2239999999999998","185.9","4.41","188.7","1013.992","26.74","84.2","0.0","0.0"],
    [1531342,"2026-08-01 21:40:00","2387","3.1319999999999997","188.4","4.345","192.7","1013.952","27.13","81.2","0.0","0.0"],
    [1531343,"2026-08-01 21:50:00","2388","1.44","191.4","2.8089999999999997","197.9","1013.9","27.23","81.4","0.0","0.0"],
    [1531344,"2026-08-01 22:00:00","2389","0.125","240.9","0.7509999999999999","222.5","1013.603","27.1","82.0","0.0","0.0"],
    [1531345,"2026-08-01 22:10:00","2390","0.9990000000000001","313.2","2.483","312.2","1013.453","27.03","81.4","0.0","0.0"],
    [1531346,"2026-08-01 22:20:00","2391","1.264","296.0","2.254","313.5","1013.393","27.19","79.87","0.0","0.0"],
    [1531347,"2026-08-01 22:30:00","2392","1.288","295.5","1.764","294.3","1013.314","27.25","78.84","0.0","0.0"],
    [1531348,"2026-08-01 22:40:00","2393","1.744","301.3","2.7769999999999997","297.0","1013.29","27.32","78.43","0.0","0.0"],
    [1531349,"2026-08-01 22:50:00","2394","1.729","294.1","2.6460000000000004","301.2","1013.32","27.34","78.5","0.0","0.0"],
    [1531350,"2026-08-01 23:00:00","2395","1.5530000000000002","297.0","2.221","291.8","1013.183","27.39","78.26","0.0","0.0"],
    [1531351,"2026-08-01 23:10:00","2396","2.032","317.7","2.875","326.8","1013.094","27.33","78.58","0.0","0.0"],
    [1531352,"2026-08-01 23:20:00","2397","1.137","329.7","1.993","335.2","1013.071","27.19","78.93","0.0","0.0"],
    [1531353,"2026-08-01 23:30:00","2398","1.101","285.2","1.7309999999999999","320.3","1013","27.02","79.68","0.0","0.0"],
    [1531354,"2026-08-01 23:40:00","2399","1.204","217.0","2.0909999999999997","198.6","1013.007","27.18","78.66","0.0","0.0"],
    [1531355,"2026-08-01 23:50:00","2400","1.7790000000000001","168.7","2.548","166.1","1012.961","26.83","82.2","0.0","0.0"],
    [1531356,"2026-08-02 00:00:00","2401","1.2429999999999999","175.6","1.9269999999999998","167.5","1012.845","26.52","84.2","0.0","0.0"],
    [1531357,"2026-08-02 00:10:00","2402","1.4780000000000002","170.4","1.96","177.1","1012.723","26.47","84.6","0.0","0.0"],
    [1531358,"2026-08-02 00:20:00","2403","1.3030000000000002","191.7","2.0909999999999997","174.7","1012.648","26.36","85.7","0.0","0.0"],
    [1531359,"2026-08-02 00:30:00","2404","0.838","207.2","1.633","192.3","1012.559","26.37","85.5","0.0","0.0"],
    [1531360,"2026-08-02 00:40:00","2405","0.325","233.4","0.915","264.6","1012.505","26.42","84.7","0.0","0.0"],
    [1531361,"2026-08-02 00:50:00","2406","0.147","266.2","0.882","265.9","1012.39","26.44","84.0","0.0","0.0"],
    [1531362,"2026-08-02 01:00:00","2407","0.562","278.3","1.013","272.2","1012.37","26.41","83.5","0.0","0.0"],
    [1531363,"2026-08-02 01:10:00","2408","0.0","0.0","0.0","0.0","1012.305","26.31","84.0","0.0","0.0"],
    [1531364,"2026-08-02 01:20:00","2409","0.0","0.0","0.0","0.0","1012.135","26.17","84.7","0.0","0.0"],
    [1531365,"2026-08-02 01:30:00","2410","0.217","92.0","0.588","100.1","1011.971","26.11","84.8","0.0","0.0"],
    [1531366,"2026-08-02 01:40:00","2411","0.21600000000000003","8.75","0.8170000000000001","7.819","1011.86","25.97","85.8","0.0","0.0"],
    [1531367,"2026-08-02 01:50:00","2412","0.0","0.0","0.0","0.0","1011.833","25.97","85.6","0.0","0.0"],
    [1531368,"2026-08-02 02:00:00","2413","0.107","28.09","0.8170000000000001","26.99","1011.765","26.06","85.0","0.0","0.0"],
    [1531369,"2026-08-02 02:10:00","2414","0.754","28.36","1.143","32.86","1011.718","25.91","85.8","0.0","0.0"],
    [1531370,"2026-08-02 02:20:00","2415","1.095","23.37","1.274","30.04","1011.665","25.81","87.0","0.0","0.0"],
    [1531371,"2026-08-02 02:30:00","2416","1.5019999999999998","21.03","2.156","17.95","1011.572","25.71","87.5","0.0","0.0"],
    [1531372,"2026-08-02 02:40:00","2417","1.6580000000000001","31.16","2.385","34.19","1011.516","25.82","86.4","0.0","0.0"],
    [1531373,"2026-08-02 02:50:00","2418","2.237","33.98","2.613","37.62","1011.538","25.97","85.6","0.0","0.0"],
    [1531374,"2026-08-02 03:00:00","2419","1.973","46.9","2.483","33.07","1011.647","25.94","85.7","0.0","0.0"],
    [1531375,"2026-08-02 03:10:00","2420","1.577","73.41","2.123","60.02","1011.764","25.98","85.4","0.0","0.0"],
    [1531376,"2026-08-02 03:20:00","2421","0.745","125.0","1.2409999999999999","159.6","1011.897","26.01","86.7","0.0","0.0"],
    [1531377,"2026-08-02 03:30:00","2422","1.196","109.5","1.7309999999999999","108.2","1011.964","25.79","87.6","0.0","0.0"],
    [1531378,"2026-08-02 03:40:00","2423","1.071","103.7","1.47","102.4","1012.038","25.68","87.7","0.0","0.0"],
    [1531379,"2026-08-02 03:50:00","2424","0.9420000000000001","101.7","1.274","105.3","1012.064","25.64","87.6","0.0","0.0"],
    [1531380,"2026-08-02 04:00:00","2425","0.523","72.02","0.6859999999999999","89.8","1012.062","25.64","87.2","0.0","0.0"],
    [1531381,"2026-08-02 04:10:00","2426","0.321","25.88","0.621","39.98","1012.044","25.7","86.4","0.0","0.0"],
    [1531382,"2026-08-02 04:20:00","2427","0.8490000000000001","2.616","1.5030000000000001","340.7","1012.031","25.64","87.0","0.0","0.0"],
    [1531383,"2026-08-02 04:30:00","2428","1.204","334.4","1.535","333.1","1012.007","25.56","86.8","0.0","0.0"],
    [1531384,"2026-08-02 04:40:00","2429","1.405","313.2","1.699","317.5","1012.047","25.58","86.1","0.0","0.0"],
    [1531385,"2026-08-02 04:50:00","2430","0.976","305.0","1.307","321.0","1012.158","25.66","85.3","0.6459999999999999","0.0"],
    [1531386,"2026-08-02 05:00:00","2431","0.47200000000000003","316.7","1.013","291.6","1012.19","25.74","84.5","3.9730000000000003","0.0"],
    [1531387,"2026-08-02 05:10:00","2432","0.45799999999999996","30.7","1.045","25.97","1012.247","25.79","84.6","10.74","0.0"],
    [1531388,"2026-08-02 05:20:00","2433","1.113","34.53","1.96","22.57","1012.278","25.86","84.2","20.78","0.0"],
    [1531389,"2026-08-02 05:30:00","2434","2.181","24.8","3.201","23.34","1012.338","25.98","83.1","36.89","0.0"],
    [1531390,"2026-08-02 05:40:00","2435","3.0189999999999997","32.06","3.593","34.76","1012.283","26.11","78.01","52.73","0.0"],
    [1531391,"2026-08-02 05:50:00","2436","3.5389999999999997","23.39","4.083","31.15","1012.212","26.15","77.26","64.41","0.0"],
    [1531392,"2026-08-02 06:00:00","2437","3.748","16.88","4.4430000000000005","19.77","1012.163","25.88","77.67","81.8","0.0"],
    [1531393,"2026-08-02 06:10:00","2438","4.104","15.35","4.835","16.09","1012.054","25.87","79.69","104.3","0.0"],
    [1531394,"2026-08-02 06:20:00","2439","4.006","15.53","4.737","13.92","1012.023","25.83","81.5","152.4","0.0"],
    [1531395,"2026-08-02 06:30:00","2440","4.33","13.68","4.835","12.69","1011.986","25.86","82.0","174.0","0.0"],
    [1531396,"2026-08-02 06:40:00","2441","4.52","13.94","5.325","10.46","1011.975","25.91","82.2","185.7","0.0"],
    [1531397,"2026-08-02 06:50:00","2442","4.154","14.71","4.998","15.04","1011.981","26.03","82.6","234.9","0.0"],
    [1531398,"2026-08-02 07:00:00","2443","3.591","14.39","4.573","15.72","1012.068","26.19","82.7","301.7","0.0"],
    [1531399,"2026-08-02 07:10:00","2444","2.799","16.88","3.528","9.29","1012.095","26.35","82.1","330.5","0.0"],
    [1531400,"2026-08-02 07:20:00","2445","2.079","37.13","2.7769999999999997","38.84","1012.252","26.72","80.6","352.6","0.0"],
    [1531401,"2026-08-02 07:30:00","2446","1.423","47.49","1.9269999999999998","53.05","1012.321","27.1","78.65","388.9","0.0"],
    [1531402,"2026-08-02 07:40:00","2447","1.3159999999999998","38.01","1.993","27.11","1012.362","27.33","77.88","420.2","0.0"],
    [1531403,"2026-08-02 07:50:00","2448","1.5230000000000001","61.99","2.123","54.41","1012.41","27.46","77.65","452.9","0.0"],
    [1531404,"2026-08-02 08:00:00","2449","1.515","78.72","2.548","98.1","1012.385","27.48","76.94","482.9","0.0"],
    [1531405,"2026-08-02 08:10:00","2450","2.237","94.4","3.136","97.0","1012.324","27.0","78.97","513.9","0.0"],
    [1531406,"2026-08-02 08:20:00","2451","1.8419999999999999","56.04","3.397","42.37","1012.263","27.24","79.31","543.6","0.0"],
    [1531407,"2026-08-02 08:30:00","2452","1.865","48.76","2.842","42.58","1012.24","27.44","80.1","573.7","0.0"],
    [1531408,"2026-08-02 08:40:00","2453","1.7890000000000001","57.01","2.679","61.49","1012.299","27.25","82.0","598.1","0.0"],
    [1531409,"2026-08-02 08:50:00","2454","1.565","65.53","2.45","58.04","1012.261","27.49","81.1","625.3","0.0"],
    [1531410,"2026-08-02 09:00:00","2455","1.494","58.77","2.352","51.13","1012.216","27.67","80.2","652.4","0.0"],
    [1531411,"2026-08-02 09:10:00","2456","1.682","79.98","2.7110000000000003","80.1","1012.217","27.76","79.6","677.4","0.0"],
    [1531412,"2026-08-02 09:20:00","2457","2.106","83.4","3.267","97.7","1012.232","27.52","80.8","705.6","0.0"],
    [1531413,"2026-08-02 09:30:00","2458","2.687","89.3","3.365","96.3","1012.181","27.33","82.2","728.4","0.0"],
    [1531414,"2026-08-02 09:40:00","2459","3.187","94.1","3.92","95.7","1012.112","27.28","83.4","749.6","0.0"],
    [1531415,"2026-08-02 09:50:00","2460","2.9819999999999998","98.5","4.083","103.0","1012.079","27.31","83.4","770.4","0.0"],
    [1531416,"2026-08-02 10:00:00","2461","2.983","107.6","4.083","106.5","1012.073","27.36","83.1","776.6","0.0"],
    [1531417,"2026-08-02 10:10:00","2462","3.063","104.3","4.1160000000000005","113.6","1012.043","27.43","82.7","803.0","0.0"],
    [1531418,"2026-08-02 10:20:00","2463","3.0869999999999997","103.2","4.018","102.4","1012.025","27.46","82.1","815.0","0.0"],
    [1531419,"2026-08-02 10:30:00","2464","3.236","98.8","4.377","98.4","1012.006","27.62","81.0","834.0","0.0"],
    [1531420,"2026-08-02 10:40:00","2465","2.948","97.2","3.7239999999999998","92.6","1011.951","27.64","80.3","848.0","0.0"],
    [1531421,"2026-08-02 10:50:00","2466","3.287","102.2","4.2139999999999995","102.8","1011.935","27.68","79.74","862.0","0.0"],
    [1531422,"2026-08-02 11:00:00","2467","3.1889999999999996","117.4","4.345","117.8","1011.945","27.59","79.96","871.0","0.0"],
    [1531423,"2026-08-02 11:10:00","2468","3.312","128.7","4.475","130.9","1011.935","27.64","79.73","880.0","0.0"],
    [1531424,"2026-08-02 11:20:00","2469","3.7089999999999996","137.5","4.41","135.8","1011.917","27.65","80.1","890.0","0.0"],
    [1531425,"2026-08-02 11:30:00","2470","4.0360000000000005","136.1","5.096","129.9","1011.839","27.53","80.9","896.0","0.0"],
    [1531426,"2026-08-02 11:40:00","2471","4.5760000000000005","137.0","5.4879999999999995","137.5","1011.772","27.51","82.1","899.0","0.0"],
    [1531427,"2026-08-02 11:50:00","2472","4.742","136.9","5.912999999999999","134.5","1011.72","27.43","83.3","900.0","0.0"],
    [1531428,"2026-08-02 12:00:00","2473","4.566","139.7","5.553","128.7","1011.697","27.48","82.9","901.0","0.0"],
    [1531429,"2026-08-02 12:10:00","2474","4.266","140.3","5.063","143.6","1011.633","27.69","82.1","900.0","0.0"],
    [1531430,"2026-08-02 12:20:00","2475","4.396","136.4","5.521","141.1","1011.503","27.64","82.5","897.0","0.0"],
    [1531431,"2026-08-02 12:30:00","2476","4.132","136.9","5.063","131.3","1011.424","27.71","82.2","893.0","0.0"],
    [1531432,"2026-08-02 12:40:00","2477","3.7939999999999996","130.4","5.325","125.7","1011.357","27.79","82.2","885.0","0.0"],
    [1531433,"2026-08-02 12:50:00","2478","3.9760000000000004","136.4","4.769","142.7","1011.312","27.92","82.2","878.0","0.0"],
    [1531434,"2026-08-02 13:00:00","2479","3.548","140.9","4.606","142.4","1011.359","27.98","82.6","865.0","0.0"],
    [1531435,"2026-08-02 13:10:00","2480","3.91","149.5","4.606","149.5","1011.383","28.28","81.1","851.0","0.0"],
    [1531436,"2026-08-02 13:20:00","2481","3.93","146.2","4.737","151.8","1011.372","28.26","82.2","836.0","0.0"],
    [1531437,"2026-08-02 13:30:00","2482","3.998","148.7","6.1739999999999995","152.2","1011.303","28.35","82.0","824.0","0.0"],
    [1531438,"2026-08-02 13:40:00","2483","4.314","155.7","5.325","163.0","1011.246","28.54","80.1","817.0","0.0"],
    [1531439,"2026-08-02 13:50:00","2484","5.0360000000000005","164.4","5.749","164.1","1011.227","28.66","80.3","798.3","0.0"],
    [1531440,"2026-08-02 14:00:00","2485","5.025","169.8","5.847","173.6","1011.184","28.74","79.34","778.9","0.0"],
    [1531441,"2026-08-02 14:10:00","2486","4.361000000000001","163.3","4.835","159.1","1011.17","28.8","79.58","757.3","0.0"],
    [1531442,"2026-08-02 14:20:00","2487","4.632","163.6","5.227","163.2","1011.096","28.71","79.92","741.8","0.0"],
    [1531443,"2026-08-02 14:30:00","2488","4.173","161.0","4.998","165.3","1011.003","28.77","78.45","718.9","0.0"],
    [1531444,"2026-08-02 14:40:00","2489","3.63","153.7","4.2139999999999995","146.4","1010.886","28.71","78.28","699.1","0.0"],
    [1531445,"2026-08-02 14:50:00","2490","3.675","151.7","4.2139999999999995","148.3","1010.769","28.59","79.4","681.0","0.0"],
    [1531446,"2026-08-02 15:00:00","2491","3.8819999999999997","153.4","4.4430000000000005","149.6","1010.659","28.59","79.06","664.9","0.0"],
    [1531447,"2026-08-02 15:10:00","2492","3.7439999999999998","156.1","4.149","158.3","1010.618","28.63","79.85","640.9","0.0"],
    [1531448,"2026-08-02 15:20:00","2493","3.721","153.5","4.377","158.2","1010.586","28.62","79.77","612.0","0.0"],
    [1531449,"2026-08-02 15:30:00","2494","3.8339999999999996","155.0","4.541","154.9","1010.573","28.61","80.0","521.6","0.0"],
    [1531450,"2026-08-02 15:40:00","2495","3.588","153.1","4.279","146.1","1010.519","28.58","80.1","574.6","0.0"],
    [1531451,"2026-08-02 15:50:00","2496","3.557","160.0","4.4430000000000005","167.8","1010.457","28.57","79.76","439.1","0.0"],
    [1531452,"2026-08-02 16:00:00","2497","3.9419999999999997","153.8","4.573","160.1","1010.358","28.54","80.4","506.2","0.0"],
    [1531453,"2026-08-02 16:10:00","2498","3.877","154.6","4.541","156.7","1010.331","28.46","80.7","472.1","0.0"],
    [1531454,"2026-08-02 16:20:00","2499","3.735","158.6","4.377","156.4","1010.261","28.42","81.2","302.9","0.0"],
    [1531455,"2026-08-02 16:30:00","2500","3.037","159.8","4.279","169.1","1010.207","28.53","80.0","358.2","0.0"],
    [1531456,"2026-08-02 16:40:00","2501","3.3739999999999997","151.6","4.247","151.2","1010.109","28.43","81.3","374.9","0.0"],
    [1531457,"2026-08-02 16:50:00","2502","2.6830000000000003","152.3","3.528","153.2","1010.071","28.37","81.7","338.0","0.0"],
    [1531458,"2026-08-02 17:00:00","2503","2.7739999999999996","154.3","3.332","163.5","1010.001","28.42","81.4","267.9","0.0"],
    [1531459,"2026-08-02 17:10:00","2504","2.444","150.1","3.495","144.4","1009.909","28.35","82.0","200.2","0.0"],
    [1531460,"2026-08-02 17:20:00","2505","2.371","152.8","3.201","143.2","1009.84","28.29","82.3","157.5","0.0"],
    [1531461,"2026-08-02 17:30:00","2506","2.0580000000000003","144.1","2.7439999999999998","152.9","1009.844","28.31","82.5","88.4","0.0"],
    [1531462,"2026-08-02 17:40:00","2507","2.546","151.2","3.332","145.7","1009.84","28.23","83.3","109.6","0.0"],
    [1531463,"2026-08-02 17:50:00","2508","3.241","161.0","4.018","163.8","1009.794","28.25","83.0","121.0","0.0"],
    [1531464,"2026-08-02 18:00:00","2509","3.0810000000000004","165.7","3.6260000000000003","167.5","1009.84","28.28","82.1","104.7","0.0"],
    [1531465,"2026-08-02 18:10:00","2510","2.753","161.3","3.299","171.2","1009.857","28.34","81.6","81.5","0.0"],
    [1531466,"2026-08-02 18:20:00","2511","3.036","159.4","3.397","169.6","1009.789","28.21","82.7","59.62","0.0"],
    [1531467,"2026-08-02 18:30:00","2512","2.611","152.5","2.9730000000000003","161.3","1009.736","28.12","82.6","42.87","0.0"],
    [1531468,"2026-08-02 18:40:00","2513","2.6630000000000003","152.2","4.2139999999999995","167.4","1009.767","28.13","82.9","23.31","0.0"],
    [1531469,"2026-08-02 18:50:00","2514","2.125","155.9","2.7769999999999997","149.0","1009.859","28.21","82.9","13.91","0.0"],
    [1531470,"2026-08-02 19:00:00","2515","2.64","168.7","3.299","173.2","1009.895","28.12","83.8","7.4239999999999995","0.0"],
    [1531471,"2026-08-02 19:10:00","2516","2.821","167.5","3.201","164.7","1009.849","28.02","84.5","2.864","0.0"],
    [1531472,"2026-08-02 19:20:00","2517","2.8080000000000003","165.7","3.103","163.0","1009.866","27.96","84.6","0.151","0.0"],
    [1531473,"2026-08-02 19:30:00","2518","2.377","164.2","2.907","165.4","1009.922","27.83","85.9","0.0","0.0"],
    [1531474,"2026-08-02 19:40:00","2519","2.498","162.0","2.8089999999999997","150.4","1010.021","27.8","86.0","0.0","0.0"],
    [1531475,"2026-08-02 19:50:00","2520","2.465","153.3","2.94","151.2","1010.227","27.85","85.2","0.0","0.0"],
    [1531476,"2026-08-02 20:00:00","2521","2.7310000000000003","161.9","3.299","170.2","1010.321","27.93","84.0","0.0","0.0"],
    [1531477,"2026-08-02 20:10:00","2522","3.261","175.2","3.9530000000000003","188.1","1010.471","27.94","83.2","0.0","0.0"],
    [1531478,"2026-08-02 20:20:00","2523","2.793","184.7","3.6910000000000003","186.6","1010.655","28.25","80.6","0.0","0.0"],
    [1531479,"2026-08-02 20:30:00","2524","2.208","179.9","2.9730000000000003","174.5","1010.775","28.29","80.7","0.0","0.0"],
    [1531480,"2026-08-02 20:40:00","2525","2.379","171.1","2.7769999999999997","177.2","1010.849","27.94","83.4","0.0","0.0"],
    [1531481,"2026-08-02 20:50:00","2526","2.312","179.2","2.875","175.6","1010.88","27.7","84.1","0.0","0.0"],
    [1531482,"2026-08-02 21:00:00","2527","2.238","180.7","2.8089999999999997","178.7","1010.947","27.81","82.6","0.0","0.0"],
    [1531483,"2026-08-02 21:10:00","2528","1.992","185.9","2.352","185.0","1011.003","27.84","82.0","0.0","0.0"],
    [1531484,"2026-08-02 21:20:00","2529","2.36","191.9","2.6460000000000004","192.8","1011.054","27.94","80.8","0.0","0.0"],
    [1531485,"2026-08-02 21:30:00","2530","2.0469999999999997","204.9","2.483","197.0","1011.104","28.04","80.3","0.0","0.0"],
    [1531486,"2026-08-02 21:40:00","2531","1.5819999999999999","202.3","2.483","197.8","1011.133","28.22","79.2","0.0","0.0"],
    [1531487,"2026-08-02 21:50:00","2532","1.268","218.0","2.483","246.9","1011.146","28.3","78.02","0.0","0.0"],
    [1531488,"2026-08-02 22:00:00","2533","0.66","197.8","1.339","194.7","1011.129","28.33","78.05","0.0","0.0"],
    [1531489,"2026-08-02 22:10:00","2534","0.787","183.9","1.045","183.8","1011.127","28.2","79.58","0.0","0.0"],
    [1531490,"2026-08-02 22:20:00","2535","0.637","185.8","1.111","180.3","1011.205","27.86","81.9","0.0","0.0"],
    [1531491,"2026-08-02 22:30:00","2536","1.256","175.6","1.829","169.9","1011.289","27.59","83.7","0.0","0.0"],
    [1531492,"2026-08-02 22:40:00","2537","1.652","161.9","1.8619999999999999","163.3","1011.292","27.27","85.7","0.0","0.0"],
    [1531493,"2026-08-02 22:50:00","2538","1.518","163.8","1.7309999999999999","175.1","1011.41","27.15","85.9","0.0","0.0"],
    [1531494,"2026-08-02 23:00:00","2539","1.7830000000000001","162.4","1.96","162.8","1011.424","27.09","86.1","0.0","0.0"],
    [1531495,"2026-08-02 23:10:00","2540","1.8119999999999998","169.7","1.96","166.9","1011.433","27.07","86.3","0.0","0.0"],
    [1531496,"2026-08-02 23:20:00","2541","1.8030000000000002","160.5","1.993","166.8","1011.45","27.09","86.4","0.0","0.0"],
    [1531497,"2026-08-02 23:30:00","2542","1.46","156.1","1.8619999999999999","157.5","1011.474","27.05","85.8","0.0","0.0"],
    [1531498,"2026-08-02 23:40:00","2543","0.91","161.0","1.339","151.6","1011.507","27.02","86.1","0.0","0.0"],
    [1531499,"2026-08-02 23:50:00","2544","0.653","180.2","1.143","186.0","1011.486","26.98","85.1","0.0","0.0"],
    [1531500,"2026-08-03 00:00:00","2545","0.055","187.0","0.555","163.0","1011.483","27.14","84.0","0.0","0.0"],
    [1531501,"2026-08-03 00:10:00","2546","0.0","0.0","0.0","0.0","1011.444","27.15","83.9","0.0","0.0"],
    [1531502,"2026-08-03 00:20:00","2547","0.0","0.0","0.0","0.0","1011.42","27.17","83.2","0.0","0.0"],
    [1531503,"2026-08-03 00:30:00","2548","0.0","0.0","0.0","0.0","1011.334","27.2","82.7","0.0","0.0"],
    [1531504,"2026-08-03 00:40:00","2549","0.3","96.6","1.045","96.0","1011.309","27.25","82.4","0.0","0.0"],
    [1531505,"2026-08-03 00:50:00","2550","0.6759999999999999","91.0","1.013","87.5","1011.243","27.25","82.6","0.0","0.0"],
    [1531506,"2026-08-03 01:00:00","2551","0.031","90.0","0.327","89.7","1011.234","27.28","82.7","0.0","0.0"],
    [1531507,"2026-08-03 01:10:00","2552","0.474","57.9","0.98","55.39","1011.162","27.23","83.0","0.0","0.0"],
    [1531508,"2026-08-03 01:20:00","2553","1.044","50.0","1.601","48.82","1011.08","27.01","83.6","0.0","0.0"],
    [1531509,"2026-08-03 01:30:00","2554","1.568","45.51","2.221","40.87","1010.924","27.04","84.0","0.0","0.0"],
    [1531510,"2026-08-03 01:40:00","2555","2.237","45.52","2.8089999999999997","49.63","1010.908","27.19","84.0","0.0","0.0"],
    [1531511,"2026-08-03 01:50:00","2556","2.194","43.88","3.201","36.67","1010.892","27.23","83.7","0.0","0.0"],
    [1531512,"2026-08-03 02:00:00","2557","3.8360000000000003","34.11","4.4430000000000005","37.41","1010.801","27.16","85.0","0.0","0.0"],
    [1531513,"2026-08-03 02:10:00","2558","3.5389999999999997","28.24","4.41","28.68","1010.844","26.94","86.9","0.0","0.0"],
    [1531514,"2026-08-03 02:20:00","2559","3.7769999999999997","28.58","4.4430000000000005","25.16","1010.812","26.85","87.6","0.0","0.0"],
    [1531515,"2026-08-03 02:30:00","2560","2.6719999999999997","19.92","4.279","23.49","1010.767","26.93","86.9","0.0","0.0"],
    [1531516,"2026-08-03 02:40:00","2561","3.056","22.33","3.985","19.78","1010.732","26.93","87.0","0.0","0.0"],
    [1531517,"2026-08-03 02:50:00","2562","2.7489999999999997","19.86","3.528","23.63","1010.696","26.79","87.8","0.0","0.0"],
    [1531518,"2026-08-03 03:00:00","2563","2.716","18.13","3.495","14.86","1010.704","26.7","88.2","0.0","0.0"],
    [1531519,"2026-08-03 03:10:00","2564","2.8310000000000004","25.34","3.397","21.24","1010.595","26.66","88.4","0.0","0.0"],
    [1531520,"2026-08-03 03:20:00","2565","3.3480000000000003","29.47","4.1160000000000005","28.73","1010.499","26.68","88.0","0.0","0.0"],
    [1531521,"2026-08-03 03:30:00","2566","3.714","23.81","4.475","29.48","1010.479","26.75","87.2","0.0","0.0"],
    [1531522,"2026-08-03 03:40:00","2567","3.384","24.41","4.541","25.8","1010.504","26.79","87.1","0.0","0.0"],
    [1531523,"2026-08-03 03:50:00","2568","3.321","26.98","4.345","29.95","1010.585","26.77","87.1","0.0","0.0"],
    [1531524,"2026-08-03 04:00:00","2569","3.642","29.81","4.345","34.97","1010.648","26.73","87.3","0.0","0.0"],
    [1531525,"2026-08-03 04:10:00","2570","3.574","28.62","4.149","28.52","1010.7","26.69","87.4","0.0","0.0"],
    [1531526,"2026-08-03 04:20:00","2571","3.3960000000000004","26.2","4.377","26.61","1010.776","26.6","87.0","0.0","0.0"],
    [1531527,"2026-08-03 04:30:00","2572","4.013999999999999","29.1","4.998","29.83","1010.786","26.57","86.9","0.0","0.0"],
    [1531528,"2026-08-03 04:40:00","2573","4.335","30.39","4.9","28.23","1010.816","26.51","87.2","0.0","0.0"],
    [1531529,"2026-08-03 04:50:00","2574","3.823","25.18","4.638999999999999","33.07","1010.929","26.47","87.2","1.189","0.0"],
    [1531530,"2026-08-03 05:00:00","2575","3.8689999999999998","28.33","5.096","31.21","1011.05","26.38","87.1","4.4319999999999995","0.0"],
    [1531531,"2026-08-03 05:10:00","2576","3.779","29.21","4.737","24.91","1011.186","26.43","86.7","6.3660000000000005","0.0"],
    [1531532,"2026-08-03 05:20:00","2577","3.8960000000000004","24.4","4.802","27.05","1011.202","26.43","86.9","14.06","0.0"],
    [1531533,"2026-08-03 05:30:00","2578","3.984","16.24","5.031000000000001","27.29","1011.281","26.38","87.5","14.71","0.0"],
    [1531534,"2026-08-03 05:40:00","2579","3.69","24.68","5.031000000000001","5.471","1011.375","26.41","87.7","37.68","0.0"],
    [1531535,"2026-08-03 05:50:00","2580","4.495","43.93","6.305","53.08","1011.517","26.67","87.6","88.6","0.0"],
    [1531536,"2026-08-03 06:00:00","2581","5.207000000000001","49.9","6.272","54.76","1011.64","26.82","85.7","128.5","0.0"],
    [1531537,"2026-08-03 06:10:00","2582","5.084","46.3","6.141","54.05","1011.571","26.77","85.1","81.5","0.0"],
    [1531538,"2026-08-03 06:20:00","2583","4.9910000000000005","44.14","6.337000000000001","52.61","1011.702","26.84","84.8","118.4","0.0"],
    [1531539,"2026-08-03 06:30:00","2584","5.322","50.28","6.5329999999999995","55.88","1011.776","26.87","84.6","133.2","0.0"],
    [1531540,"2026-08-03 06:40:00","2585","4.731","42.33","6.631","36.82","1011.866","26.78","85.0","142.5","0.0"],
    [1531541,"2026-08-03 06:50:00","2586","4.938","41.36","6.37","43.0","1011.985","26.75","85.6","105.3","0.0"],
    [1531542,"2026-08-03 07:00:00","2587","4.9510000000000005","31.29","6.893","7.8660000000000005","1012.03","26.64","85.1","87.9","0.0"],
    [1531543,"2026-08-03 07:10:00","2588","5.801","30.35","7.218999999999999","37.76","1012.019","26.62","84.0","173.3","0.0"],
    [1531544,"2026-08-03 07:20:00","2589","5.275","36.25","6.7620000000000005","35.23","1012.017","26.65","84.0","226.3","0.0"],
    [1531545,"2026-08-03 07:30:00","2590","5.582000000000001","34.35","6.86","28.07","1011.966","26.63","84.0","303.2","0.0"],
    [1531546,"2026-08-03 07:40:00","2591","5.492000000000001","34.05","6.86","31.64","1011.959","26.75","83.2","450.8","0.0"],
    [1531547,"2026-08-03 07:50:00","2592","5.667999999999999","32.93","6.795","29.32","1011.984","26.85","83.2","436.2","0.0"],
    [1531548,"2026-08-03 08:00:00","2593","5.23","32.88","7.0889999999999995","34.8","1012.033","26.92","82.8","469.6","0.0"],
    [1531549,"2026-08-03 08:10:00","2594","6.0120000000000005","42.8","7.546","40.38","1011.992","26.94","82.7","465.0","0.0"],
    [1531550,"2026-08-03 08:20:00","2595","5.996","49.55","7.252000000000001","54.96","1012.08","27.04","82.1","558.8","0.0"],
    [1531551,"2026-08-03 08:30:00","2596","6.223","44.21","7.611000000000001","47.82","1012.124","27.11","81.5","587.9","0.0"],
    [1531552,"2026-08-03 08:40:00","2597","5.756","49.63","7.154","50.97","1012.187","27.21","81.4","629.5","0.0"],
    [1531553,"2026-08-03 08:50:00","2598","5.716","49.17","7.382999999999999","50.88","1012.314","27.31","80.8","600.1","0.0"],
    [1531554,"2026-08-03 09:00:00","2599","5.667999999999999","52.88","7.187","61.83","1012.489","27.42","80.6","653.9","0.0"],
    [1531555,"2026-08-03 09:10:00","2600","5.542999999999999","51.26","7.056","47.8","1012.543","27.44","80.2","612.2","0.0"],
    [1531556,"2026-08-03 09:20:00","2601","5.303999999999999","50.52","7.187","49.68","1012.634","27.48","80.2","541.5","0.0"],
    [1531557,"2026-08-03 09:30:00","2602","5.446000000000001","51.0","6.664","49.8","1012.674","27.62","79.42","803.0","0.0"],
    [1531558,"2026-08-03 09:40:00","2603","5.928","52.05","7.187","47.11","1012.675","27.5","79.94","371.8","0.0"],
    [1531559,"2026-08-03 09:50:00","2604","5.419","49.78","6.86","51.76","1012.702","27.56","79.17","815.0","0.0"],
    [1531560,"2026-08-03 10:00:00","2605","5.364","50.1","6.7620000000000005","45.0","1012.696","27.63","78.56","674.2","0.0"],
    [1531561,"2026-08-03 10:10:00","2606","5.183","47.91","7.285","42.07","1012.723","27.72","78.36","741.3","0.0"],
    [1531562,"2026-08-03 10:20:00","2607","5.093999999999999","46.28","7.121","52.29","1012.725","27.81","78.22","824.0","0.0"],
    [1531563,"2026-08-03 10:30:00","2608","5.2829999999999995","49.19","7.252000000000001","51.02","1012.608","27.81","77.65","857.0","0.0"],
    [1531564,"2026-08-03 10:40:00","2609","5.3260000000000005","50.14","7.546","42.0","1012.56","27.86","76.73","876.0","0.0"],
    [1531565,"2026-08-03 10:50:00","2610","5.122000000000001","50.52","6.435","52.16","1012.519","27.9","76.89","881.0","0.0"],
    [1531566,"2026-08-03 11:00:00","2611","5.659","51.62","6.501","47.84","1012.463","27.76","78.03","706.4","0.0"],
    [1531567,"2026-08-03 11:10:00","2612","4.9639999999999995","49.03","6.631","62.78","1012.435","27.81","78.25","793.9","0.0"],
    [1531568,"2026-08-03 11:20:00","2613","4.921","48.96","6.664","49.78","1012.377","27.86","78.45","810.0","0.0"],
    [1531569,"2026-08-03 11:30:00","2614","4.939","46.17","7.579","59.28","1012.336","27.92","79.15","793.2","0.0"],
    [1531570,"2026-08-03 11:40:00","2615","4.613","49.29","6.305","46.25","1012.367","27.89","79.49","904.0","0.0"],
    [1531571,"2026-08-03 11:50:00","2616","3.275","59.45","5.684","84.3","1012.4","28.13","77.53","852.0","0.0"],
    [1531572,"2026-08-03 12:00:00","2617","3.727","80.2","5.912999999999999","84.2","1012.383","28.15","76.37","805.0","0.0"],
    [1531573,"2026-08-03 12:10:00","2618","3.926","80.1","6.0760000000000005","83.9","1012.269","28.09","77.15","665.2","0.0"],
    [1531574,"2026-08-03 12:20:00","2619","4.575","82.9","6.337000000000001","79.64","1012.235","28.05","78.72","740.5","0.0"],
    [1531575,"2026-08-03 12:30:00","2620","4.868","83.4","6.86","82.9","1012.168","27.83","79.59","501.2","0.0"],
    [1531576,"2026-08-03 12:40:00","2621","4.467","89.0","5.978","85.6","1012.063","27.88","78.85","597.3","0.0"],
    [1531577,"2026-08-03 12:50:00","2622","4.478","93.9","6.272","82.5","1012.038","27.89","79.06","639.8","0.0"],
    [1531578,"2026-08-03 13:00:00","2623","4.843","98.1","6.501","103.9","1011.999","27.81","79.17","606.6","0.0"],
    [1531579,"2026-08-03 13:10:00","2624","4.592","103.4","6.207000000000001","103.9","1011.976","27.91","79.49","909.0","0.0"],
    [1531580,"2026-08-03 13:20:00","2625","4.602","107.4","5.945","99.7","1011.958","27.99","79.81","870.0","0.0"],
    [1531581,"2026-08-03 13:30:00","2626","4.345","101.8","6.141","103.1","1011.861","28.02","80.1","847.0","0.0"],
    [1531582,"2026-08-03 13:40:00","2627","3.866","105.5","5.521","105.3","1011.727","28.05","80.1","637.4","0.0"],
    [1531583,"2026-08-03 13:50:00","2628","3.9530000000000003","100.8","5.2589999999999995","100.4","1011.633","27.9","81.3","732.4","0.0"],
    [1531584,"2026-08-03 14:00:00","2629","4.176","99.6","5.553","97.3","1011.439","27.91","81.2","577.3","0.0"],
    [1531585,"2026-08-03 14:10:00","2630","4.132","100.8","5.39","89.8","1011.412","27.88","80.8","667.7","0.0"],
    [1531586,"2026-08-03 14:20:00","2631","3.464","99.7","5.2589999999999995","95.3","1011.506","27.94","80.7","730.3","0.0"],
    [1531587,"2026-08-03 14:30:00","2632","3.634","101.1","4.835","86.4","1011.441","27.93","80.9","559.0","0.0"],
    [1531588,"2026-08-03 14:40:00","2633","3.612","104.7","4.573","119.8","1011.392","27.93","82.0","556.0","0.0"],
    [1531589,"2026-08-03 14:50:00","2634","3.3089999999999997","101.6","4.4430000000000005","100.3","1011.318","27.9","82.1","418.9","0.0"],
    [1531590,"2026-08-03 15:00:00","2635","3.44","100.9","4.769","97.1","1011.285","27.84","82.7","460.7","0.0"],
    [1531591,"2026-08-03 15:10:00","2636","3.1310000000000002","105.5","4.149","94.7","1011.21","27.91","81.8","511.8","0.0"],
    [1531592,"2026-08-03 15:20:00","2637","3.391","112.4","4.312","120.8","1011.08","28.08","82.2","628.0","0.0"],
    [1531593,"2026-08-03 15:30:00","2638","2.747","152.3","4.541","133.6","1011.11","28.28","80.4","570.5","0.0"],
    [1531594,"2026-08-03 15:40:00","2639","3.577","143.9","4.475","148.4","1011.064","28.07","81.7","351.0","0.0"],
    [1531595,"2026-08-03 15:50:00","2640","3.7260000000000004","159.4","4.9","157.1","1010.942","28.18","82.1","421.1","0.0"],
    [1531596,"2026-08-03 16:00:00","2641","3.9360000000000004","156.8","4.638999999999999","163.7","1011.07","28.3","81.0","485.2","0.0"],
    [1531597,"2026-08-03 16:10:00","2642","3.753","159.5","4.377","163.3","1011.217","28.34","81.4","369.1","0.0"],
    [1531598,"2026-08-03 16:20:00","2643","3.275","147.5","4.149","161.2","1011.085","28.23","80.8","312.8","0.0"],
    [1531599,"2026-08-03 16:30:00","2644","2.792","141.3","3.528","143.2","1010.945","28.12","81.3","196.3","0.0"],
    [1531600,"2026-08-03 16:40:00","2645","2.82","117.5","3.9530000000000003","90.2","1010.656","28.07","81.7","151.4","0.0"],
    [1531601,"2026-08-03 16:50:00","2646","3.338","92.0","4.312","96.6","1010.181","28.03","82.2","168.2","0.0"],
    [1531602,"2026-08-03 17:00:00","2647","4.013999999999999","88.2","5.063","84.8","1009.785","28.02","82.0","135.7","0.0"],
    [1531603,"2026-08-03 17:10:00","2648","3.568","91.2","4.933","93.0","1009.81","28.02","82.3","122.6","0.0"],
    [1531604,"2026-08-03 17:20:00","2649","3.312","111.3","4.508","95.4","1010.103","28.04","82.5","103.9","0.0"],
    [1531605,"2026-08-03 17:30:00","2650","3.945","94.2","5.357","91.8","1009.679","28.02","82.7","81.3","0.0"],
    [1531606,"2026-08-03 17:40:00","2651","3.966","81.1","5.422999999999999","81.7","1009.523","27.94","82.7","69.69","0.0"],
    [1531607,"2026-08-03 17:50:00","2652","3.048","88.9","5.129","84.3","1009.703","27.91","82.7","55.69","0.0"],
    [1531608,"2026-08-03 18:00:00","2653","1.456","150.3","2.842","180.4","1010.586","28.02","82.3","36.85","0.0"],
    [1531609,"2026-08-03 18:10:00","2654","2.222","184.4","2.7439999999999998","172.9","1011.01","28.3","80.8","28.49","0.0"],
    [1531610,"2026-08-03 18:20:00","2655","2.695","177.5","3.855","167.7","1011.078","28.42","81.3","22.07","0.0"],
    [1531611,"2026-08-03 18:30:00","2656","3.373","158.9","4.1160000000000005","164.8","1010.951","28.14","83.2","20.78","0.0"],
    [1531612,"2026-08-03 18:40:00","2657","3.128","161.4","3.528","166.5","1010.808","27.95","84.4","29.86","0.0"],
    [1531613,"2026-08-03 18:50:00","2658","3.1239999999999997","160.7","3.397","156.5","1010.753","27.92","84.4","17.9","0.0"],
    [1531614,"2026-08-03 19:00:00","2659","2.8510000000000004","161.3","3.234","159.6","1010.621","27.96","83.9","9.76","0.0"],
    [1531615,"2026-08-03 19:10:00","2660","2.7089999999999996","156.2","3.267","162.8","1010.562","27.98","84.6","4.802","0.0"],
    [1531616,"2026-08-03 19:20:00","2661","2.4219999999999997","148.1","2.9730000000000003","149.9","1010.422","27.91","84.3","1.751","0.0"],
    [1531617,"2026-08-03 19:30:00","2662","2.565","157.2","3.299","161.1","1010.52","27.93","84.2","0.0","0.0"],
    [1531618,"2026-08-03 19:40:00","2663","1.5030000000000001","140.6","1.993","153.8","1010.596","27.95","83.8","0.0","0.0"],
    [1531619,"2026-08-03 19:50:00","2664","1.088","122.6","1.4369999999999998","127.0","1010.617","27.9","84.1","0.0","0.0"],
    [1531620,"2026-08-03 20:00:00","2665","0.35600000000000004","68.09","1.013","135.0","1010.838","27.9","83.9","0.0","0.0"],
    [1531621,"2026-08-03 20:10:00","2666","0.342","315.2","0.784","306.2","1011.155","27.8","84.3","0.0","0.0"],
    [1531622,"2026-08-03 20:20:00","2667","0.627","20.88","1.274","26.16","1011.484","27.78","83.8","0.0","0.0"],
    [1531623,"2026-08-03 20:30:00","2668","1.0979999999999999","76.35","1.9269999999999998","61.63","1011.639","27.82","83.5","0.0","0.0"],
    [1531624,"2026-08-03 20:40:00","2669","1.609","47.81","2.123","52.15","1011.84","27.93","83.8","0.0","0.0"],
    [1531625,"2026-08-03 20:50:00","2670","1.608","61.43","2.287","33.39","1012.014","27.87","84.5","0.0","0.0"],
    [1531626,"2026-08-03 21:00:00","2671","1.645","78.38","2.287","95.1","1012.065","27.91","84.1","0.0","0.0"],
    [1531627,"2026-08-03 21:10:00","2672","1.611","63.86","2.123","67.01","1012.14","27.92","83.9","0.0","0.0"],
    [1531628,"2026-08-03 21:20:00","2673","1.9","64.06","2.7439999999999998","74.9","1012.067","27.93","84.2","0.0","0.0"],
    [1531629,"2026-08-03 21:30:00","2674","1.662","85.8","2.483","77.12","1012.151","27.89","84.6","0.0","0.0"],
    [1531630,"2026-08-03 21:40:00","2675","1.7080000000000002","57.31","2.254","34.7","1012.271","27.88","84.1","0.0","0.0"],
    [1531631,"2026-08-03 21:50:00","2676","2.099","67.67","2.6460000000000004","71.67","1012.165","27.92","83.9","0.0","0.0"],
    [1531632,"2026-08-03 22:00:00","2677","2.19","64.83","2.842","59.78","1012.162","27.9","83.9","0.0","0.0"],
    [1531633,"2026-08-03 22:10:00","2678","2.336","43.64","3.103","32.84","1012.26","27.88","84.6","0.0","0.0"],
    [1531634,"2026-08-03 22:20:00","2679","2.096","54.63","2.94","37.27","1012.203","27.83","84.9","0.0","0.0"],
    [1531635,"2026-08-03 22:30:00","2680","2.02","68.58","2.842","69.03","1012.193","27.83","84.8","0.0","0.0"],
    [1531636,"2026-08-03 22:40:00","2681","2.65","66.1","3.822","70.82","1012.119","27.83","84.9","0.0","0.0"],
    [1531637,"2026-08-03 22:50:00","2682","2.971","71.05","3.985","75.52","1012.037","27.81","85.6","0.0","0.0"],
    [1531638,"2026-08-03 23:00:00","2683","2.36","61.58","3.136","55.92","1012.153","27.72","85.7","0.0","0.0"],
    [1531639,"2026-08-03 23:10:00","2684","2.1519999999999997","63.85","2.94","62.67","1012.187","27.7","85.5","0.0","0.0"],
    [1531640,"2026-08-03 23:20:00","2685","2.142","65.32","2.9730000000000003","62.36","1012.177","27.7","85.2","0.0","0.0"],
    [1531641,"2026-08-03 23:30:00","2686","2.144","68.91","2.7110000000000003","75.9","1012.136","27.67","85.3","0.0","0.0"],
    [1531642,"2026-08-03 23:40:00","2687","2.062","68.12","2.842","74.86","1012.165","27.65","85.3","0.0","0.0"],
    [1531643,"2026-08-03 23:50:00","2688","2.0909999999999997","69.11","2.548","76.85","1012.138","27.62","85.4","0.0","0.0"],
    [1531644,"2026-08-04 00:00:00","2689","1.979","64.02","2.417","61.83","1012.176","27.59","85.5","0.0","0.0"],
    [1531645,"2026-08-04 00:10:00","2690","1.785","61.41","2.319","58.56","1012.194","27.61","85.2","0.0","0.0"],
    [1531646,"2026-08-04 00:20:00","2691","1.764","52.86","2.254","60.59","1012.2","27.6","85.7","0.0","0.0"],
    [1531647,"2026-08-04 00:30:00","2692","1.615","50.27","2.254","49.56","1012.21","27.53","85.8","0.0","0.0"],
    [1531648,"2026-08-04 00:40:00","2693","1.4769999999999999","54.65","1.96","54.73","1012.266","27.48","85.9","0.0","0.0"],
    [1531649,"2026-08-04 00:50:00","2694","1.871","45.71","2.483","29.9","1012.228","27.49","85.7","0.0","0.0"],
    [1531650,"2026-08-04 01:00:00","2695","2.7439999999999998","35.04","3.463","31.57","1012.244","27.43","86.0","0.0","0.0"],
    [1531651,"2026-08-04 01:10:00","2696","3.5239999999999996","32.04","4.018","32.88","1012.259","27.32","86.7","0.0","0.0"],
    [1531652,"2026-08-04 01:20:00","2697","3.2230000000000003","31.75","4.083","31.81","1012.22","27.26","86.9","0.0","0.0"],
    [1531653,"2026-08-04 01:30:00","2698","3.074","30.56","3.659","25.06","1012.229","27.26","86.9","0.0","0.0"],
    [1531654,"2026-08-04 01:40:00","2699","3.233","31.0","3.7569999999999997","30.29","1012.281","27.19","87.0","0.0","0.0"],
    [1531655,"2026-08-04 01:50:00","2700","2.9810000000000003","32.14","3.659","31.15","1012.341","27.2","86.8","0.0","0.0"],
    [1531656,"2026-08-04 02:00:00","2701","3.0439999999999996","35.27","3.659","50.8","1012.377","27.21","86.5","0.0","0.0"],
    [1531657,"2026-08-04 02:10:00","2702","3.5860000000000003","26.8","4.181","23.33","1012.326","27.06","85.6","0.0","0.0"],
    [1531658,"2026-08-04 02:20:00","2703","3.6039999999999996","19.9","4.247","17.77","1012.297","26.85","84.7","0.0","0.0"],
    [1531659,"2026-08-04 02:30:00","2704","3.4189999999999996","23.81","3.6910000000000003","23.67","1012.244","26.87","82.8","0.0","0.0"],
    [1531660,"2026-08-04 02:40:00","2705","3.3989999999999996","14.41","4.051","11.8","1012.224","26.89","82.2","0.0","0.0"],
    [1531661,"2026-08-04 02:50:00","2706","3.562","19.2","3.985","19.47","1012.275","26.96","80.2","0.0","0.0"],
    [1531662,"2026-08-04 03:00:00","2707","3.306","12.79","4.1160000000000005","15.62","1012.291","26.97","81.1","0.0","0.0"],
    [1531663,"2026-08-04 03:10:00","2708","3.301","19.85","3.7239999999999998","23.7","1012.3","26.72","82.7","0.0","0.0"],
    [1531664,"2026-08-04 03:20:00","2709","3.108","16.22","3.495","13.03","1012.316","26.65","83.0","0.0","0.0"],
    [1531665,"2026-08-04 03:30:00","2710","2.755","19.06","3.071","12.58","1012.288","26.6","83.1","0.0","0.0"],
    [1531666,"2026-08-04 03:40:00","2711","2.806","20.99","3.201","22.89","1012.233","26.64","81.7","0.0","0.0"],
    [1531667,"2026-08-04 03:50:00","2712","2.6260000000000003","20.17","2.907","19.31","1012.216","26.74","81.4","0.0","0.0"],
    [1531668,"2026-08-04 04:00:00","2713","2.492","21.7","2.8089999999999997","25.29","1012.309","26.75","81.3","0.0","0.0"],
    [1531669,"2026-08-04 04:10:00","2714","2.372","18.67","2.7439999999999998","14.65","1012.39","26.71","81.7","0.0","0.0"],
    [1531670,"2026-08-04 04:20:00","2715","2.571","15.68","2.94","15.86","1012.492","26.64","82.7","0.0","0.0"],
    [1531671,"2026-08-04 04:30:00","2716","2.404","18.3","2.94","20.01","1012.536","26.55","83.7","0.0","0.0"],
    [1531672,"2026-08-04 04:40:00","2717","2.645","23.7","2.9730000000000003","22.6","1012.636","26.54","82.6","0.0","0.0"],
    [1531673,"2026-08-04 04:50:00","2718","2.827","18.56","3.234","17.29","1012.648","26.63","81.4","0.863","0.0"],
    [1531674,"2026-08-04 05:00:00","2719","2.7769999999999997","12.78","3.593","18.75","1012.709","26.62","81.2","5.398","0.0"],
    [1531675,"2026-08-04 05:10:00","2720","2.432","8.82","2.94","14.54","1012.806","26.64","80.1","19.89","0.0"],
    [1531676,"2026-08-04 05:20:00","2721","1.7919999999999998","355.2","2.417","348.5","1012.927","26.56","80.4","38.34","0.0"],
    [1531677,"2026-08-04 05:30:00","2722","1.354","357.7","2.0580000000000003","340.2","1013.029","26.65","79.94","42.21","0.0"],
    [1531678,"2026-08-04 05:40:00","2723","1.4880000000000002","25.1","1.797","31.19","1013.114","26.6","79.16","32.12","0.0"],
    [1531679,"2026-08-04 05:50:00","2724","1.99","26.57","2.45","24.49","1013.175","26.5","78.86","52.9","0.0"],
    [1531680,"2026-08-04 06:00:00","2725","2.58","24.27","3.1689999999999996","17.39","1013.286","26.55","76.8","129.4","0.0"],
    [1531681,"2026-08-04 06:10:00","2726","2.168","20.44","2.613","18.58","1013.33","26.68","74.81","167.7","0.0"],
    [1531682,"2026-08-04 06:20:00","2727","1.891","13.9","2.679","12.17","1013.38","26.55","75.5","114.7","0.0"],
    [1531683,"2026-08-04 06:30:00","2728","1.889","12.88","2.221","11.48","1013.475","26.49","76.89","105.3","0.0"],
    [1531684,"2026-08-04 06:40:00","2729","2.28","15.35","2.842","15.68","1013.569","26.49","76.92","133.7","0.0"],
    [1531685,"2026-08-04 06:50:00","2730","2.062","10.36","2.515","9.66","1013.654","26.68","76.74","226.1","0.0"],
    [1531686,"2026-08-04 07:00:00","2731","1.87","5.355","2.0580000000000003","2.46","1013.723","26.79","77.7","155.2","0.0"],
    [1531687,"2026-08-04 07:10:00","2732","1.82","9.54","2.189","11.49","1013.784","26.74","77.48","127.4","0.0"],
    [1531688,"2026-08-04 07:20:00","2733","2.07","7.426","2.483","4.952","1013.837","26.83","78.17","198.9","0.0"],
    [1531689,"2026-08-04 07:30:00","2734","2.01","10.51","2.5810000000000004","15.21","1013.907","27.08","75.95","422.1","0.0"],
    [1531690,"2026-08-04 07:40:00","2735","2.18","24.22","2.842","13.5","1013.973","27.35","76.82","437.6","0.0"],
    [1531691,"2026-08-04 07:50:00","2736","2.11","36.45","3.365","45.25","1014.059","27.38","77.74","461.1","0.0"],
    [1531692,"2026-08-04 08:00:00","2737","1.78","40.65","2.5810000000000004","42.93","1014.137","27.59","76.22","507.1","0.0"],
    [1531693,"2026-08-04 08:10:00","2738","1.935","41.55","2.907","61.58","1014.215","27.63","76.02","547.3","0.0"],
    [1531694,"2026-08-04 08:20:00","2739","2.178","42.48","3.0380000000000003","35.7","1014.227","27.66","75.53","571.5","0.0"],
    [1531695,"2026-08-04 08:30:00","2740","2.206","45.94","2.94","43.13","1014.289","27.63","76.16","567.5","0.0"],
    [1531696,"2026-08-04 08:40:00","2741","2.251","52.03","4.051","44.47","1014.339","27.79","75.07","550.7","0.0"],
    [1531697,"2026-08-04 08:50:00","2742","1.7790000000000001","68.6","3.495","69.59","1014.361","27.81","75.05","524.9","0.0"],
    [1531698,"2026-08-04 09:00:00","2743","1.5719999999999998","61.24","3.92","51.86","1014.412","28.0","73.58","649.4","0.0"],
    [1531699,"2026-08-04 09:10:00","2744","1.693","86.0","2.9730000000000003","105.1","1014.456","28.3","72.32","686.8","0.0"],
    [1531700,"2026-08-04 09:20:00","2745","2.6689999999999996","88.5","3.887","85.9","1014.54","27.96","74.1","693.2","0.0"],
    [1531701,"2026-08-04 09:30:00","2746","3.022","88.6","4.312","93.1","1014.589","27.89","74.56","737.8","0.0"],
    [1531702,"2026-08-04 09:40:00","2747","3.534","96.3","4.933","86.0","1014.597","27.89","75.3","750.4","0.0"],
    [1531703,"2026-08-04 09:50:00","2748","3.213","98.5","5.129","102.3","1014.596","27.95","74.55","768.9","0.0"],
    [1531704,"2026-08-04 10:00:00","2749","3.639","95.1","4.802","93.2","1014.628","27.95","73.37","787.5","0.0"],
    [1531705,"2026-08-04 10:10:00","2750","3.435","95.7","4.769","90.0","1014.642","28.03","73.24","804.0","0.0"],
    [1531706,"2026-08-04 10:20:00","2751","3.716","107.2","4.998","101.5","1014.706","28.03","73.6","832.0","0.0"],
    [1531707,"2026-08-04 10:30:00","2752","3.858","104.5","5.553","106.5","1014.791","27.93","76.77","847.0","0.0"],
    [1531708,"2026-08-04 10:40:00","2753","4.329","110.4","5.782","119.4","1014.84","27.77","78.1","853.0","0.0"],
    [1531709,"2026-08-04 10:50:00","2754","3.957","115.9","6.109","127.6","1014.829","27.76","77.85","735.6","0.0"],
    [1531710,"2026-08-04 11:00:00","2755","4.48","115.7","5.619","123.4","1014.794","27.69","77.24","893.0","0.0"],
    [1531711,"2026-08-04 11:10:00","2756","4.617","120.0","5.553","114.9","1014.727","27.67","77.75","900.0","0.0"],
    [1531712,"2026-08-04 11:20:00","2757","4.48","118.1","5.815","119.7","1014.73","27.82","77.08","900.0","0.0"],
    [1531713,"2026-08-04 11:30:00","2758","4.482","132.6","5.945","138.4","1014.736","27.74","78.12","907.0","0.0"],
    [1531714,"2026-08-04 11:40:00","2759","4.351","135.3","5.521","142.6","1014.694","27.71","77.4","927.0","0.0"],
    [1531715,"2026-08-04 11:50:00","2760","4.016","132.9","5.553","131.6","1014.661","27.81","76.84","837.0","0.0"],
    [1531716,"2026-08-04 12:00:00","2761","4.374","135.2","5.88","140.0","1014.659","27.75","77.52","792.9","0.0"],
    [1531717,"2026-08-04 12:10:00","2762","4.331","131.3","6.011","136.5","1014.658","27.84","76.45","1015.0","0.0"],
    [1531718,"2026-08-04 12:20:00","2763","4.453","133.8","6.141","144.5","1014.665","27.97","76.21","1016.0","0.0"],
    [1531719,"2026-08-04 12:30:00","2764","4.598","126.4","5.749","108.3","1014.537","27.97","76.92","979.0","0.0"],
    [1531720,"2026-08-04 12:40:00","2765","4.045","126.5","6.272","109.4","1014.546","28.06","76.55","931.0","0.0"],
    [1531721,"2026-08-04 12:50:00","2766","4.131","119.2","5.521","135.5","1014.505","27.9","77.24","530.3","0.0"],
    [1531722,"2026-08-04 13:00:00","2767","4.138","113.7","5.684","103.9","1014.739","27.67","77.28","213.8","0.0"],
    [1531723,"2026-08-04 13:10:00","2768","4.377","118.0","5.847","110.2","1014.614","27.55","78.23","136.9","0.0"],
    [1531724,"2026-08-04 13:20:00","2769","3.3110000000000004","116.7","5.031000000000001","119.5","1014.913","27.47","77.15","80.9","0.0"],
    [1531725,"2026-08-04 13:30:00","2770","3.378","128.9","4.279","142.4","1014.994","27.49","77.71","65.04","0.0"],
    [1531726,"2026-08-04 13:40:00","2771","2.657","133.1","4.41","131.6","1015.085","27.43","77.78","58.99","0.0"],
    [1531727,"2026-08-04 13:50:00","2772","2.5669999999999997","136.0","3.299","125.3","1015.075","27.49","78.09","64.56","0.0"],
    [1531728,"2026-08-04 14:00:00","2773","2.83","138.8","3.593","139.2","1014.966","27.4","78.11","82.2","0.0"],
    [1531729,"2026-08-04 14:10:00","2774","2.823","138.6","3.6260000000000003","142.7","1015.026","27.47","77.91","102.9","0.0"],
    [1531730,"2026-08-04 14:20:00","2775","2.094","136.5","3.103","138.4","1015.033","27.5","77.7","217.5","0.0"],
    [1531731,"2026-08-04 14:30:00","2776","2.614","132.5","3.397","128.9","1014.938","27.72","77.02","863.0","0.0"],
    [1531732,"2026-08-04 14:40:00","2777","2.7060000000000004","146.7","3.593","141.2","1014.844","28.04","75.34","853.0","0.0"],
    [1531733,"2026-08-04 14:50:00","2778","3.073","133.4","3.985","136.0","1014.652","27.86","76.29","772.9","0.0"],
    [1531734,"2026-08-04 15:00:00","2779","2.924","137.5","3.822","139.7","1014.608","27.86","75.79","694.7","0.0"],
    [1531735,"2026-08-04 15:10:00","2780","3.005","129.4","4.1160000000000005","111.5","1014.534","27.75","76.25","652.4","0.0"],
    [1531736,"2026-08-04 15:20:00","2781","3.1010000000000004","140.0","3.7569999999999997","137.8","1014.491","27.78","76.34","620.9","0.0"],
    [1531737,"2026-08-04 15:30:00","2782","2.9810000000000003","136.1","3.593","140.8","1014.466","27.81","75.93","579.7","0.0"],
    [1531738,"2026-08-04 15:40:00","2783","3.174","144.1","4.312","144.9","1014.363","27.84","76.58","568.3","0.0"],
    [1531739,"2026-08-04 15:50:00","2784","3.258","153.9","4.018","161.4","1014.424","28.08","76.09","537.0","0.0"],
    [1531740,"2026-08-04 16:00:00","2785","2.957","142.9","3.7239999999999998","152.2","1014.383","27.96","75.97","511.1","0.0"],
    [1531741,"2026-08-04 16:10:00","2786","2.761","144.9","3.855","135.2","1014.446","28.0","75.48","478.4","0.0"],
    [1531742,"2026-08-04 16:20:00","2787","2.8819999999999997","120.0","3.6910000000000003","111.8","1014.543","27.92","75.71","437.1","0.0"],
    [1531743,"2026-08-04 16:30:00","2788","2.544","100.5","3.659","100.7","1014.757","27.89","74.55","386.5","0.0"],
    [1531744,"2026-08-04 16:40:00","2789","2.345","105.1","3.397","104.3","1014.832","28.04","73.31","360.2","0.0"],
    [1531745,"2026-08-04 16:50:00","2790","2.327","117.2","3.1689999999999996","123.8","1014.773","27.93","73.37","355.1","0.0"],
    [1531746,"2026-08-04 17:00:00","2791","2.332","97.8","3.43","88.6","1014.804","27.96","73.37","325.6","0.0"],
    [1531747,"2026-08-04 17:10:00","2792","2.213","85.6","3.005","83.4","1014.999","27.99","73.34","304.7","0.0"],
    [1531748,"2026-08-04 17:20:00","2793","2.4659999999999997","83.6","3.201","68.65","1014.764","27.95","73.77","265.0","0.0"],
    [1531749,"2026-08-04 17:30:00","2794","2.5140000000000002","76.87","3.463","70.01","1014.732","27.91","74.91","223.4","0.0"],
    [1531750,"2026-08-04 17:40:00","2795","2.603","80.5","3.6910000000000003","88.1","1014.543","27.78","75.83","189.7","0.0"],
    [1531751,"2026-08-04 17:50:00","2796","2.029","93.8","2.94","83.4","1014.601","27.68","77.53","154.9","0.0"],
    [1531752,"2026-08-04 18:00:00","2797","1.28","99.2","2.319","103.1","1014.817","27.63","76.77","124.6","0.0"],
    [1531753,"2026-08-04 18:10:00","2798","1.4680000000000002","149.9","2.189","159.4","1014.723","27.76","76.7","100.2","0.0"],
    [1531754,"2026-08-04 18:20:00","2799","1.7930000000000001","173.1","2.385","170.3","1014.579","28.02","76.55","81.6","0.0"],
    [1531755,"2026-08-04 18:30:00","2800","0.941","124.7","1.7309999999999999","154.8","1014.801","27.73","77.67","60.79","0.0"],
    [1531756,"2026-08-04 18:40:00","2801","0.754","129.3","1.078","130.0","1014.842","27.64","77.9","41.92","0.0"],
    [1531757,"2026-08-04 18:50:00","2802","0.639","135.4","0.98","106.7","1014.815","27.78","77.77","25.83","0.0"],
    [1531758,"2026-08-04 19:00:00","2803","1.052","129.5","1.7309999999999999","127.0","1014.932","27.59","78.23","11.79","0.0"],
    [1531759,"2026-08-04 19:10:00","2804","0.701","169.2","1.47","182.3","1015.061","27.69","77.85","6.097","0.0"],
    [1531760,"2026-08-04 19:20:00","2805","1.672","191.8","2.5810000000000004","197.6","1015.011","27.86","77.68","3.305","0.0"],
    [1531761,"2026-08-04 19:30:00","2806","2.283","193.9","3.397","178.1","1014.993","27.89","76.86","0.0","0.0"],
    [1531762,"2026-08-04 19:40:00","2807","2.4819999999999998","191.8","3.1689999999999996","193.1","1015.014","27.9","76.82","0.0","0.0"],
    [1531763,"2026-08-04 19:50:00","2808","1.005","211.3","2.319","202.4","1015.109","27.96","75.53","0.0","0.0"],
    [1531764,"2026-08-04 20:00:00","2809","0.233","215.0","0.621","179.4","1015.341","28.12","74.51","0.0","0.0"],
    [1531765,"2026-08-04 20:10:00","2810","0.344","304.3","1.4369999999999998","254.8","1015.567","28.15","74.19","0.0","0.0"],
    [1531766,"2026-08-04 20:20:00","2811","0.278","0.7240000000000001","0.8170000000000001","50.77","1015.734","27.94","74.72","0.0","0.0"],
    [1531767,"2026-08-04 20:30:00","2812","0.0","0.0","0.0","0.0","1015.794","28.02","74.28","0.0","0.0"],
    [1531768,"2026-08-04 20:40:00","2813","0.25","196.0","1.307","214.3","1015.863","27.98","75.51","0.0","0.0"],
    [1531769,"2026-08-04 20:50:00","2814","1.412","191.3","2.319","202.2","1015.846","28.04","74.36","0.0","0.0"],
    [1531770,"2026-08-04 21:00:00","2815","2.094","196.3","2.483","198.6","1015.815","28.14","75.22","0.0","0.0"],
    [1531771,"2026-08-04 21:10:00","2816","1.818","196.5","2.45","197.4","1015.818","28.04","76.12","0.0","0.0"],
    [1531772,"2026-08-04 21:20:00","2817","0.637","213.4","1.666","207.8","1015.818","27.97","75.58","0.0","0.0"],
    [1531773,"2026-08-04 21:30:00","2818","0.7290000000000001","214.6","1.2409999999999999","231.7","1015.823","27.96","75.56","0.0","0.0"],
    [1531774,"2026-08-04 21:40:00","2819","1.04","250.8","2.0580000000000003","258.7","1015.82","27.96","74.02","0.0","0.0"],
    [1531775,"2026-08-04 21:50:00","2820","1.589","248.6","2.548","252.3","1015.873","27.96","73.98","0.0","0.0"],
    [1531776,"2026-08-04 22:00:00","2821","1.6769999999999998","263.7","2.907","255.1","1015.86","27.96","74.1","0.0","0.0"],
    [1531777,"2026-08-04 22:10:00","2822","1.48","255.5","2.5810000000000004","258.8","1015.918","27.88","74.82","0.0","0.0"],
    [1531778,"2026-08-04 22:20:00","2823","1.9480000000000002","252.2","3.495","265.0","1015.92","27.82","75.56","0.0","0.0"],
    [1531779,"2026-08-04 22:30:00","2824","2.261","243.3","4.083","258.4","1015.978","27.64","75.0","0.0","0.0"],
    [1531780,"2026-08-04 22:40:00","2825","1.6640000000000001","251.3","3.071","263.4","1016.017","27.59","75.22","0.0","0.0"],
    [1531781,"2026-08-04 22:50:00","2826","1.525","255.0","2.7769999999999997","252.7","1016.062","27.43","74.76","0.0","0.0"],
    [1531782,"2026-08-04 23:00:00","2827","1.8630000000000002","263.0","3.495","255.4","1016.074","27.27","73.5","0.0","0.0"],
    [1531783,"2026-08-04 23:10:00","2828","1.99","262.8","3.267","273.1","1016.114","27.21","73.36","0.0","0.0"],
    [1531784,"2026-08-04 23:20:00","2829","1.993","259.1","3.6910000000000003","264.3","1016.114","27.15","73.59","0.0","0.0"],
    [1531785,"2026-08-04 23:30:00","2830","1.723","258.4","3.495","253.7","1016.002","27.05","73.83","0.0","0.0"],
    [1531786,"2026-08-04 23:40:00","2831","2.073","250.3","3.6910000000000003","258.5","1015.926","26.99","73.63","0.0","0.0"],
    [1531787,"2026-08-04 23:50:00","2832","1.703","262.1","3.7239999999999998","251.9","1015.873","27.06","74.04","0.0","0.0"],
    [1531788,"2026-08-05 00:00:00","2833","2.129","282.8","3.659","279.5","1015.782","26.96","74.14","0.0","0.0"],
    [1531789,"2026-08-05 00:10:00","2834","2.162","276.1","3.0380000000000003","274.5","1015.834","26.82","73.32","0.0","0.0"],
    [1531790,"2026-08-05 00:20:00","2835","1.5859999999999999","281.6","2.515","276.8","1015.849","26.68","73.16","0.0","0.0"],
    [1531791,"2026-08-05 00:30:00","2836","1.494","267.6","1.764","258.3","1015.862","26.57","73.01","0.0","0.0"],
    [1531792,"2026-08-05 00:40:00","2837","1.442","273.1","2.025","270.9","1015.875","26.56","72.94","0.0","0.0"],
    [1531793,"2026-08-05 00:50:00","2838","1.021","284.8","1.601","280.4","1015.852","26.48","73.37","0.0","0.0"],
    [1531794,"2026-08-05 01:00:00","2839","0.9159999999999999","294.0","1.829","281.7","1015.836","26.4","73.38","0.0","0.0"],
    [1531795,"2026-08-05 01:10:00","2840","1.319","280.3","1.829","281.0","1015.872","26.36","73.27","0.0","0.0"],
    [1531796,"2026-08-05 01:20:00","2841","1.591","278.6","2.417","268.6","1015.834","26.33","73.33","0.0","0.0"],
    [1531797,"2026-08-05 01:30:00","2842","2.411","270.7","2.8089999999999997","274.1","1015.818","26.3","73.41","0.0","0.0"],
    [1531798,"2026-08-05 01:40:00","2843","1.7730000000000001","270.4","2.189","267.2","1015.847","26.22","74.26","0.0","0.0"],
    [1531799,"2026-08-05 01:50:00","2844","1.6059999999999999","277.9","1.993","272.9","1015.985","26.19","74.53","0.0","0.0"],
    [1531800,"2026-08-05 02:00:00","2845","1.8090000000000002","283.8","3.43","269.8","1016.091","26.28","74.78","0.0","0.0"],
    [1531801,"2026-08-05 02:10:00","2846","2.319","274.4","3.43","271.7","1016.059","26.32","74.47","0.0","0.0"],
    [1531802,"2026-08-05 02:20:00","2847","0.738","298.9","1.3719999999999999","275.0","1016.081","26.3","74.44","0.0","0.0"],
    [1531803,"2026-08-05 02:30:00","2848","0.5579999999999999","36.47","1.993","52.97","1016.095","26.5","74.78","0.0","0.0"],
    [1531804,"2026-08-05 02:40:00","2849","2.424","34.99","3.985","21.38","1016.095","27.1","69.9","0.0","0.0"],
    [1531805,"2026-08-05 02:50:00","2850","3.057","0.693","4.018","22.87","1016.072","27.45","66.61","0.0","0.0"],
    [1531806,"2026-08-05 03:00:00","2851","1.705","320.4","3.332","352.3","1016.037","27.16","64.62","0.0","0.0"],
    [1531807,"2026-08-05 03:10:00","2852","1.148","260.8","1.9269999999999998","249.2","1015.992","27.06","67.31","0.0","0.0"],
    [1531808,"2026-08-05 03:20:00","2853","1.594","257.6","2.189","249.0","1015.998","26.95","68.67","0.0","0.0"],
    [1531809,"2026-08-05 03:30:00","2854","1.331","258.5","2.025","261.1","1015.936","26.7","69.43","0.0","0.0"],
    [1531810,"2026-08-05 03:40:00","2855","2.138","266.3","2.6460000000000004","261.5","1015.901","26.39","70.11","0.0","0.0"],
    [1531811,"2026-08-05 03:50:00","2856","1.87","270.3","2.7439999999999998","268.7","1015.957","26.07","69.15","0.0","0.0"],
    [1531812,"2026-08-05 04:00:00","2857","1.955","268.0","2.254","266.3","1016.012","25.99","68.39","0.0","0.0"],
    [1531813,"2026-08-05 04:10:00","2858","2.165","267.0","2.417","267.2","1016.047","25.92","68.1","0.0","0.0"],
    [1531814,"2026-08-05 04:20:00","2859","1.7719999999999998","272.5","2.0580000000000003","273.3","1015.999","25.86","68.31","0.0","0.0"],
    [1531815,"2026-08-05 04:30:00","2860","2.101","269.5","2.679","266.2","1016.097","25.82","68.32","0.0","0.0"],
    [1531816,"2026-08-05 04:40:00","2861","2.36","266.4","2.94","264.1","1016.196","25.7","68.4","0.0","0.0"],
    [1531817,"2026-08-05 04:50:00","2862","2.366","264.9","3.103","264.4","1016.279","25.63","68.08","0.276","0.0"],
    [1531818,"2026-08-05 05:00:00","2863","2.634","271.6","2.94","271.6","1016.315","25.68","67.41","3.548","0.0"],
    [1531819,"2026-08-05 05:10:00","2864","2.202","272.1","3.005","273.7","1016.415","25.7","67.4","11.19","0.0"],
    [1531820,"2026-08-05 05:20:00","2865","2.105","267.4","2.7439999999999998","277.0","1016.451","25.78","66.39","26.0","0.0"],
    [1531821,"2026-08-05 05:30:00","2866","2.09","265.0","2.7110000000000003","276.9","1016.457","26.14","64.7","45.39","0.0"],
    [1531822,"2026-08-05 05:40:00","2867","2.072","269.1","2.842","266.0","1016.489","26.48","62.84","68.24","0.0"],
    [1531823,"2026-08-05 05:50:00","2868","2.221","272.4","2.548","275.2","1016.499","26.9","61.01","91.0","0.0"],
    [1531824,"2026-08-05 06:00:00","2869","1.755","266.4","2.613","275.4","1016.569","27.33","59.52","114.4","0.0"],
    [1531825,"2026-08-05 06:10:00","2870","1.621","266.3","1.993","263.0","1016.57","27.7","57.72","140.8","0.0"],
    [1531826,"2026-08-05 06:20:00","2871","1.136","271.8","1.699","257.8","1016.633","28.21","56.45","153.1","0.0"],
    [1531827,"2026-08-05 06:30:00","2872","1.4169999999999998","262.5","1.993","262.1","1016.721","28.43","55.22","193.8","0.0"],
    [1531828,"2026-08-05 06:40:00","2873","1.671","261.3","2.0909999999999997","259.6","1016.891","28.81","54.08","233.0","0.0"],
    [1531829,"2026-08-05 06:50:00","2874","1.5219999999999998","261.6","2.515","253.5","1017.027","29.05","53.69","264.9","0.0"],
    [1531830,"2026-08-05 07:00:00","2875","1.2229999999999999","271.9","1.895","274.3","1017.097","29.62","53.16","295.6","0.0"],
    [1531831,"2026-08-05 07:10:00","2876","0.934","247.5","1.7309999999999999","259.6","1017.239","29.7","51.5","329.9","0.0"],
    [1531832,"2026-08-05 07:20:00","2877","0.213","246.0","0.98","227.1","1017.288","30.1","52.72","362.2","0.0"],
    [1531833,"2026-08-05 07:30:00","2878","0.105","122.1","0.621","119.4","1017.37","30.15","51.54","393.4","0.0"],
    [1531834,"2026-08-05 07:40:00","2879","0.011000000000000001","107.6","0.327","110.9","1017.403","30.11","52.45","428.8","0.0"],
    [1531835,"2026-08-05 07:50:00","2880","0.345","63.75","1.2409999999999999","53.96","1017.393","29.86","54.57","462.9","0.0"],
    [1531836,"2026-08-05 08:00:00","2881","1.077","72.46","1.9269999999999998","90.0","1017.32","29.83","55.2","498.8","0.0"],
    [1531837,"2026-08-05 08:10:00","2882","1.56","57.31","2.221","56.77","1017.264","29.49","58.27","532.7","0.0"],
    [1531838,"2026-08-05 08:20:00","2883","1.2590000000000001","63.72","1.9269999999999998","67.04","1017.323","29.39","60.49","562.0","0.0"],
    [1531839,"2026-08-05 08:30:00","2884","1.2570000000000001","67.4","1.8619999999999999","68.1","1017.341","29.5","60.79","592.5","0.0"],
    [1531840,"2026-08-05 08:40:00","2885","1.504","78.7","2.287","80.6","1017.426","29.38","62.06","622.6","0.0"],
    [1531841,"2026-08-05 08:50:00","2886","1.449","48.02","2.221","52.17","1017.442","29.28","63.46","648.1","0.0"],
    [1531842,"2026-08-05 09:00:00","2887","1.5119999999999998","63.91","2.319","73.08","1017.396","29.31","64.45","677.0","0.0"],
    [1531843,"2026-08-05 09:10:00","2888","1.534","87.1","2.221","103.4","1017.423","29.33","64.57","704.4","0.0"],
    [1531844,"2026-08-05 09:20:00","2889","1.685","95.5","2.319","109.6","1017.528","29.33","64.47","728.5","0.0"],
    [1531845,"2026-08-05 09:30:00","2890","1.722","106.8","2.483","108.7","1017.562","29.2","64.72","749.1","0.0"],
    [1531846,"2026-08-05 09:40:00","2891","1.7309999999999999","116.4","2.45","119.8","1017.588","29.25","65.19","769.8","0.0"],
    [1531847,"2026-08-05 09:50:00","2892","1.749","141.4","2.515","139.1","1017.647","29.48","63.2","788.4","0.0"],
    [1531848,"2026-08-05 10:00:00","2893","2.029","140.9","2.515","140.9","1017.75","29.45","64.14","805.0","0.0"],
    [1531849,"2026-08-05 10:10:00","2894","2.127","138.3","2.7769999999999997","151.3","1017.782","29.38","63.61","823.0","0.0"],
    [1531850,"2026-08-05 10:20:00","2895","2.636","150.2","3.234","153.4","1017.876","29.61","63.19","839.0","0.0"],
    [1531851,"2026-08-05 10:30:00","2896","3.122","153.8","3.855","155.6","1017.92","29.71","62.99","854.0","0.0"],
    [1531852,"2026-08-05 10:40:00","2897","3.529","159.3","4.1160000000000005","165.1","1017.987","29.78","64.7","867.0","0.0"],
    [1531853,"2026-08-05 10:50:00","2898","4.215","165.8","4.737","168.9","1017.961","29.85","63.67","880.0","0.0"],
    [1531854,"2026-08-05 11:00:00","2899","4.325","167.5","4.769","166.0","1017.917","29.83","63.2","890.0","0.0"],
    [1531855,"2026-08-05 11:10:00","2900","4.477","167.8","5.129","176.2","1017.879","29.82","64.21","898.0","0.0"],
    [1531856,"2026-08-05 11:20:00","2901","4.746","171.0","5.325","171.3","1017.844","29.72","66.93","908.0","0.0"],
    [1531857,"2026-08-05 11:30:00","2902","5.289","173.5","6.1739999999999995","172.3","1017.81","29.87","63.48","913.0","0.0"],
    [1531858,"2026-08-05 11:40:00","2903","5.33","177.3","7.218999999999999","196.0","1017.779","30.01","60.74","913.0","0.0"],
    [1531859,"2026-08-05 11:50:00","2904","5.2829999999999995","182.2","6.827000000000001","164.7","1017.766","30.37","54.25","909.0","0.0"],
    [1531860,"2026-08-05 12:00:00","2905","5.501","185.8","7.872999999999999","195.3","1017.706","30.74","48.33","903.0","0.0"],
    [1531861,"2026-08-05 12:10:00","2906","5.885","188.1","7.218999999999999","176.8","1017.663","30.69","50.4","899.0","0.0"],
    [1531862,"2026-08-05 12:20:00","2907","5.757000000000001","186.7","7.905","188.5","1017.643","30.72","49.93","890.0","0.0"],
    [1531863,"2026-08-05 12:30:00","2908","6.067","188.9","7.905","197.2","1017.604","30.64","52.07","880.0","0.0"],
    [1531864,"2026-08-05 12:40:00","2909","6.276","188.5","7.742000000000001","188.2","1017.517","30.61","51.98","867.0","0.0"],
    [1531865,"2026-08-05 12:50:00","2910","6.069","187.7","8.33","197.6","1017.495","30.51","55.46","853.0","0.0"],
    [1531866,"2026-08-05 13:00:00","2911","6.165","186.9","7.938","193.6","1017.502","30.42","56.53","834.0","0.0"],
    [1531867,"2026-08-05 13:10:00","2912","5.975","185.4","7.84","181.2","1017.456","30.46","55.51","817.0","0.0"],
    [1531868,"2026-08-05 13:20:00","2913","5.857","187.3","8.26","197.9","1017.48","30.49","56.52","803.0","0.0"],
    [1531869,"2026-08-05 13:30:00","2914","6.112","194.4","10.09","186.9","1017.496","30.8","55.35","787.2","0.0"],
    [1531870,"2026-08-05 13:40:00","2915","5.901","193.9","7.807","189.4","1017.442","30.87","55.2","772.7","0.0"],
    [1531871,"2026-08-05 13:50:00","2916","6.176","195.1","8.26","198.9","1017.349","30.93","56.83","758.5","0.0"],
    [1531872,"2026-08-05 14:00:00","2917","5.694","198.4","8.17","187.5","1017.256","30.91","57.7","746.0","0.0"],
    [1531873,"2026-08-05 14:10:00","2918","5.4","201.8","8.17","203.2","1017.254","31.13","57.7","731.7","0.0"],
    [1531874,"2026-08-05 14:20:00","2919","5.209","201.8","8.07","204.4","1017.226","31.39","58.2","719.3","0.0"],
    [1531875,"2026-08-05 14:30:00","2920","5.968","201.9","8.56","196.7","1017.125","31.05","57.98","706.6","0.0"],
    [1531876,"2026-08-05 14:40:00","2921","5.882999999999999","202.1","8.62","197.7","1017.066","31.28","58.59","690.6","0.0"],
    [1531877,"2026-08-05 14:50:00","2922","6.59","200.8","9.24","192.6","1016.968","31.05","58.91","674.5","0.0"],
    [1531878,"2026-08-05 15:00:00","2923","7.475","200.7","9.73","205.9","1016.954","30.91","58.55","657.0","0.0"],
    [1531879,"2026-08-05 15:10:00","2924","4.872","206.9","8.53","213.1","1016.955","31.14","58.16","636.5","0.0"],
    [1531880,"2026-08-05 15:20:00","2925","6.485","199.6","9.15","199.4","1016.845","30.95","59.99","616.7","0.0"],
    [1531881,"2026-08-05 15:30:00","2926","6.575","205.1","9.18","199.3","1016.874","30.77","60.42","592.7","0.0"],
    [1531882,"2026-08-05 15:40:00","2927","5.89","205.6","10.19","197.8","1016.797","30.77","60.84","568.9","0.0"],
    [1531883,"2026-08-05 15:50:00","2928","4.7219999999999995","210.7","7.285","192.0","1016.788","31.3","58.21","542.1","0.0"],
    [1531884,"2026-08-05 16:00:00","2929","6.13","202.4","9.34","186.1","1016.753","30.87","57.2","511.8","0.0"],
    [1531885,"2026-08-05 16:10:00","2930","5.857","200.2","10.49","205.0","1016.749","30.93","57.67","478.4","0.0"],
    [1531886,"2026-08-05 16:20:00","2931","5.422999999999999","209.5","8.62","196.5","1016.776","30.91","58.02","443.3","0.0"],
    [1531887,"2026-08-05 16:30:00","2932","5.36","209.7","8.89","199.8","1016.819","30.91","58.52","409.7","0.0"],
    [1531888,"2026-08-05 16:40:00","2933","6.072","196.5","7.807","206.1","1016.712","30.55","58.58","377.2","0.0"],
    [1531889,"2026-08-05 16:50:00","2934","4.808","205.7","7.579","206.3","1016.688","30.67","60.02","343.6","0.0"],
    [1531890,"2026-08-05 17:00:00","2935","4.513999999999999","207.8","7.285","200.8","1016.63","30.73","59.9","310.8","0.0"],
    [1531891,"2026-08-05 17:10:00","2936","5.211","199.2","8.17","190.1","1016.637","30.45","60.19","280.6","0.0"],
    [1531892,"2026-08-05 17:20:00","2937","4.67","201.5","7.611000000000001","199.8","1016.78","30.2","61.42","248.7","0.0"],
    [1531893,"2026-08-05 17:30:00","2938","5.138","195.4","8.13","199.2","1016.753","30.16","61.81","215.6","0.0"],
    [1531894,"2026-08-05 17:40:00","2939","4.195","201.2","6.1739999999999995","191.0","1016.9","30.16","62.21","183.8","0.0"],
    [1531895,"2026-08-05 17:50:00","2940","4.5360000000000005","195.2","6.697","173.3","1016.999","29.96","62.46","154.1","0.0"],
    [1531896,"2026-08-05 18:00:00","2941","5.027","199.1","7.023","195.2","1017.081","29.96","61.25","127.4","0.0"],
    [1531897,"2026-08-05 18:10:00","2942","4.578","194.3","6.37","194.1","1017.219","29.9","63.29","103.8","0.0"],
    [1531898,"2026-08-05 18:20:00","2943","4.603","195.8","6.599","192.3","1017.288","29.65","64.71","81.9","0.0"],
    [1531899,"2026-08-05 18:30:00","2944","4.131","197.5","6.0760000000000005","189.3","1017.436","29.67","62.7","58.89","0.0"],
    [1531900,"2026-08-05 18:40:00","2945","3.713","193.3","5.292000000000001","189.8","1017.465","29.6","63.64","29.25","0.0"],
    [1531901,"2026-08-05 18:50:00","2946","3.957","190.6","5.031000000000001","192.7","1017.469","29.35","64.87","14.22","0.0"],
    [1531902,"2026-08-05 19:00:00","2947","3.861","182.9","4.867","186.2","1017.545","29.12","67.64","5.6979999999999995","0.0"],
    [1531903,"2026-08-05 19:10:00","2948","3.549","186.0","4.541","194.2","1017.571","29.04","67.4","1.6340000000000001","0.0"],
    [1531904,"2026-08-05 19:20:00","2949","3.3710000000000004","186.0","4.541","191.2","1017.759","29.02","67.88","0.001","0.0"],
    [1531905,"2026-08-05 19:30:00","2950","3.18","183.1","3.92","198.5","1017.849","29.02","68.84","0.0","0.0"],
    [1531906,"2026-08-05 19:40:00","2951","3.1919999999999997","186.0","3.985","189.3","1017.936","28.93","68.91","0.0","0.0"],
    [1531907,"2026-08-05 19:50:00","2952","3.0869999999999997","177.1","3.92","175.4","1017.984","28.88","69.55","0.0","0.0"],
    [1531908,"2026-08-05 20:00:00","2953","3.182","187.0","3.92","191.9","1018.13","28.84","69.36","0.0","0.0"],
    [1531909,"2026-08-05 20:10:00","2954","3.1069999999999998","185.9","3.7239999999999998","189.9","1018.229","28.75","68.8","0.0","0.0"],
    [1531910,"2026-08-05 20:20:00","2955","3.0","174.6","3.6260000000000003","189.3","1018.312","28.83","70.22","0.0","0.0"],
    [1531911,"2026-08-05 20:30:00","2956","2.432","174.0","3.0380000000000003","170.9","1018.407","28.7","71.83","0.0","0.0"],
    [1531912,"2026-08-05 20:40:00","2957","2.372","189.9","2.907","193.4","1018.554","28.64","69.98","0.0","0.0"],
    [1531913,"2026-08-05 20:50:00","2958","2.094","196.0","2.842","189.6","1018.606","28.76","67.95","0.0","0.0"],
    [1531914,"2026-08-05 21:00:00","2959","1.203","191.4","2.123","189.9","1018.556","28.81","66.88","0.0","0.0"],
    [1531915,"2026-08-05 21:10:00","2960","0.565","164.4","1.013","175.8","1018.571","28.76","68.95","0.0","0.0"],
    [1531916,"2026-08-05 21:20:00","2961","0.33","190.4","0.784","182.9","1018.664","28.61","68.4","0.0","0.0"],
    [1531917,"2026-08-05 21:30:00","2962","0.223","199.3","0.7509999999999999","206.5","1018.573","28.71","70.44","0.0","0.0"],
    [1531918,"2026-08-05 21:40:00","2963","0.154","136.3","0.555","109.9","1018.479","28.6","70.94","0.0","0.0"],
    [1531919,"2026-08-05 21:50:00","2964","0.055","99.2","0.425","93.4","1018.428","28.46","70.12","0.0","0.0"],
    [1531920,"2026-08-05 22:00:00","2965","0.125","161.9","0.457","161.2","1018.502","28.45","70.75","0.0","0.0"],
    [1531921,"2026-08-05 22:10:00","2966","0.525","142.6","0.7509999999999999","130.3","1018.52","28.45","73.01","0.0","0.0"],
    [1531922,"2026-08-05 22:20:00","2967","0.777","116.7","1.176","118.3","1018.441","28.16","72.26","0.0","0.0"],
    [1531923,"2026-08-05 22:30:00","2968","0.774","173.4","1.078","183.7","1018.473","28.32","72.63","0.0","0.0"],
    [1531924,"2026-08-05 22:40:00","2969","0.7170000000000001","173.0","1.143","201.1","1018.438","28.41","72.42","0.0","0.0"],
    [1531925,"2026-08-05 22:50:00","2970","1.09","199.8","1.3719999999999999","204.6","1018.428","28.3","71.91","0.0","0.0"],
    [1531926,"2026-08-05 23:00:00","2971","1.287","187.9","1.829","200.8","1018.375","28.35","72.2","0.0","0.0"],
    [1531927,"2026-08-05 23:10:00","2972","1.188","199.6","1.633","200.3","1018.375","28.34","72.42","0.0","0.0"],
    [1531928,"2026-08-05 23:20:00","2973","1.1540000000000001","193.1","1.633","210.4","1018.279","28.25","73.08","0.0","0.0"],
    [1531929,"2026-08-05 23:30:00","2974","1.506","205.0","2.679","190.5","1018.262","28.26","72.03","0.0","0.0"],
    [1531930,"2026-08-05 23:40:00","2975","2.338","197.6","3.0380000000000003","209.1","1018.292","28.24","71.3","0.0","0.0"],
    [1531931,"2026-08-05 23:50:00","2976","2.219","198.9","3.234","206.7","1018.239","28.27","69.99","0.0","0.0"],
    [1531932,"2026-08-06 00:00:00","2977","1.272","206.7","2.483","190.4","1018.125","28.31","70.37","0.0","0.0"],
    [1531933,"2026-08-06 00:10:00","2978","1.2209999999999999","244.9","2.352","292.0","1017.986","28.2","69.37","0.0","0.0"],
    [1531934,"2026-08-06 00:20:00","2979","1.876","260.9","3.43","261.1","1017.978","28.2","68.67","0.0","0.0"],
    [1531935,"2026-08-06 00:30:00","2980","2.106","265.7","3.1689999999999996","263.8","1018.003","28.12","68.78","0.0","0.0"],
    [1531936,"2026-08-06 00:40:00","2981","1.915","266.0","3.0380000000000003","270.3","1018.009","27.89","68.84","0.0","0.0"],
    [1531937,"2026-08-06 00:50:00","2982","2.0","275.7","3.103","271.0","1017.978","27.74","68.86","0.0","0.0"],
    [1531938,"2026-08-06 01:00:00","2983","1.923","272.7","3.0380000000000003","279.4","1018.034","27.61","68.9","0.0","0.0"],
    [1531939,"2026-08-06 01:10:00","2984","1.401","279.6","2.385","272.6","1018.089","27.58","69.12","0.0","0.0"],
    [1531940,"2026-08-06 01:20:00","2985","1.569","277.3","2.156","288.5","1018.077","27.59","68.9","0.0","0.0"],
    [1531941,"2026-08-06 01:30:00","2986","1.5630000000000002","292.1","2.254","296.3","1017.964","27.61","69.01","0.0","0.0"],
    [1531942,"2026-08-06 01:40:00","2987","0.884","286.5","2.123","281.9","1017.88","27.65","68.87","0.0","0.0"],
    [1531943,"2026-08-06 01:50:00","2988","0.11699999999999999","239.3","0.653","243.7","1017.838","27.69","69.72","0.0","0.0"],
    [1531944,"2026-08-06 02:00:00","2989","0.382","262.8","0.784","266.9","1017.755","27.62","68.58","0.0","0.0"],
    [1531945,"2026-08-06 02:10:00","2990","0.201","250.8","0.6859999999999999","247.8","1017.745","27.63","68.65","0.0","0.0"],
    [1531946,"2026-08-06 02:20:00","2991","0.122","243.2","0.882","250.8","1017.74","27.69","68.48","0.0","0.0"],
    [1531947,"2026-08-06 02:30:00","2992","0.217","280.7","1.143","277.3","1017.788","27.66","68.65","0.0","0.0"],
    [1531948,"2026-08-06 02:40:00","2993","0.8420000000000001","284.3","2.254","257.4","1017.832","27.54","68.02","0.0","0.0"],
    [1531949,"2026-08-06 02:50:00","2994","1.631","263.8","2.6460000000000004","266.2","1017.806","27.37","68.81","0.0","0.0"],
    [1531950,"2026-08-06 03:00:00","2995","1.849","266.6","2.6460000000000004","268.5","1017.792","26.9","69.58","0.0","0.0"],
    [1531951,"2026-08-06 03:10:00","2996","1.278","280.0","1.993","270.1","1017.695","26.68","70.53","0.0","0.0"],
    [1531952,"2026-08-06 03:20:00","2997","0.78","283.3","1.339","274.8","1017.639","26.49","70.88","0.0","0.0"],
    [1531953,"2026-08-06 03:30:00","2998","0.622","282.4","1.405","264.0","1017.643","26.47","70.93","0.0","0.0"],
    [1531954,"2026-08-06 03:40:00","2999","1.4080000000000001","254.9","1.7309999999999999","258.1","1017.616","26.62","70.49","0.0","0.0"],
    [1531955,"2026-08-06 03:50:00","3000","1.396","245.8","2.875","265.1","1017.753","26.69","70.53","0.0","0.0"],
    [1531956,"2026-08-06 04:00:00","3001","0.8440000000000001","251.4","1.9269999999999998","246.8","1017.758","26.49","71.61","0.0","0.0"],
    [1531957,"2026-08-06 04:10:00","3002","1.926","266.1","3.071","259.2","1017.821","26.28","72.16","0.0","0.0"],
    [1531958,"2026-08-06 04:20:00","3003","2.3040000000000003","276.8","3.267","274.8","1017.789","26.14","72.52","0.0","0.0"],
    [1531959,"2026-08-06 04:30:00","3004","1.515","266.8","2.319","277.5","1017.667","26.09","72.26","0.0","0.0"],
    [1531960,"2026-08-06 04:40:00","3005","1.475","255.6","2.352","283.4","1017.753","26.19","71.83","0.0","0.0"],
    [1531961,"2026-08-06 04:50:00","3006","2.036","274.2","2.875","260.3","1017.811","26.12","72.25","0.595","0.0"],
    [1531962,"2026-08-06 05:00:00","3007","2.0069999999999997","265.8","2.7769999999999997","264.3","1017.881","26.08","71.72","3.406","0.0"],
    [1531963,"2026-08-06 05:10:00","3008","1.669","278.7","2.352","280.5","1017.971","26.17","72.08","7.394","0.0"],
    [1531964,"2026-08-06 05:20:00","3009","1.383","285.6","2.254","279.1","1018.005","26.32","71.85","29.98","0.0"],
    [1531965,"2026-08-06 05:30:00","3010","1.854","268.8","2.7110000000000003","270.4","1018.124","26.68","70.13","54.65","0.0"],
    [1531966,"2026-08-06 05:40:00","3011","1.422","273.1","2.254","268.6","1018.249","27.13","68.4","82.5","0.0"],
    [1531967,"2026-08-06 05:50:00","3012","1.176","282.6","1.601","271.0","1018.275","27.69","66.84","84.1","0.0"],
    [1531968,"2026-08-06 06:00:00","3013","0.6509999999999999","302.6","1.209","332.4","1018.331","27.63","67.81","74.95","0.0"],
    [1531969,"2026-08-06 06:10:00","3014","0.312","282.4","0.9470000000000001","275.8","1018.438","27.68","67.46","82.8","0.0"],
    [1531970,"2026-08-06 06:20:00","3015","0.122","347.0","0.588","339.2","1018.495","27.85","67.8","76.31","0.0"],
    [1531971,"2026-08-06 06:30:00","3016","0.0","0.0","0.0","0.0","1018.652","27.9","68.95","80.2","0.0"],
    [1531972,"2026-08-06 06:40:00","3017","0.024","68.62","0.621","68.54","1018.736","28.61","68.61","201.8","0.0"],
    [1531973,"2026-08-06 06:50:00","3018","0.065","47.26","0.8170000000000001","44.66","1018.756","29.12","67.89","242.7","0.0"],
    [1531974,"2026-08-06 07:00:00","3019","1.67","53.53","2.907","52.71","1018.724","28.54","70.16","280.7","0.0"],
    [1531975,"2026-08-06 07:10:00","3020","1.755","48.56","3.103","32.07","1018.809","27.96","70.2","314.9","0.0"],
    [1531976,"2026-08-06 07:20:00","3021","1.857","51.12","2.94","57.58","1018.937","28.18","67.43","350.6","0.0"],
    [1531977,"2026-08-06 07:30:00","3022","1.508","50.55","2.221","38.58","1019.075","28.34","66.64","385.6","0.0"],
    [1531978,"2026-08-06 07:40:00","3023","1.595","84.5","2.548","51.91","1019.078","28.41","66.2","410.8","0.0"],
    [1531979,"2026-08-06 07:50:00","3024","1.61","57.57","2.9730000000000003","41.35","1018.999","28.45","66.52","443.3","0.0"],
    [1531980,"2026-08-06 08:00:00","3025","1.875","53.47","3.887","50.92","1019.05","28.56","67.66","476.8","0.0"],
    [1531981,"2026-08-06 08:10:00","3026","1.5959999999999999","49.25","3.234","44.24","1019.07","28.68","68.86","505.8","0.0"],
    [1531982,"2026-08-06 08:20:00","3027","1.5590000000000002","105.9","2.8089999999999997","119.1","1019.132","28.71","69.35","536.0","0.0"],
    [1531983,"2026-08-06 08:30:00","3028","1.476","130.0","2.45","137.6","1019.258","28.69","69.1","566.8","0.0"],
    [1531984,"2026-08-06 08:40:00","3029","1.564","109.2","2.417","84.5","1019.278","28.82","69.53","596.3","0.0"],
    [1531985,"2026-08-06 08:50:00","3030","1.9080000000000001","95.3","2.679","93.8","1019.265","28.66","70.66","627.0","0.0"],
    [1531986,"2026-08-06 09:00:00","3031","2.1630000000000003","97.0","2.9730000000000003","80.9","1019.306","28.56","71.75","652.8","0.0"],
    [1531987,"2026-08-06 09:10:00","3032","1.911","107.8","2.94","94.0","1019.407","28.6","72.0","676.6","0.0"],
    [1531988,"2026-08-06 09:20:00","3033","1.929","97.9","2.679","101.0","1019.444","28.72","71.64","708.8","0.0"],
    [1531989,"2026-08-06 09:30:00","3034","1.5859999999999999","130.4","2.189","110.6","1019.501","28.9","70.54","727.2","0.0"],
    [1531990,"2026-08-06 09:40:00","3035","1.766","130.0","2.679","128.1","1019.511","29.24","69.91","741.4","0.0"],
    [1531991,"2026-08-06 09:50:00","3036","2.189","148.4","2.7769999999999997","144.6","1019.52","29.01","71.01","766.1","0.0"],
    [1531992,"2026-08-06 10:00:00","3037","2.322","136.4","3.005","138.2","1019.463","28.88","71.71","784.4","0.0"],
    [1531993,"2026-08-06 10:10:00","3038","2.787","139.1","3.855","126.1","1019.48","28.88","72.77","799.6","0.0"],
    [1531994,"2026-08-06 10:20:00","3039","3.392","147.0","4.802","148.1","1019.445","29.02","73.21","817.0","0.0"],
    [1531995,"2026-08-06 10:30:00","3040","3.633","150.8","4.933","153.6","1019.388","29.09","72.98","835.0","0.0"],
    [1531996,"2026-08-06 10:40:00","3041","3.897","156.0","5.096","165.6","1019.36","29.24","72.8","859.0","0.0"],
    [1531997,"2026-08-06 10:50:00","3042","4.34","161.4","5.063","167.0","1019.259","29.29","73.31","913.0","0.0"],
    [1531998,"2026-08-06 11:00:00","3043","4.244","166.3","4.998","175.9","1019.236","29.36","72.1","958.0","0.0"],
    [1531999,"2026-08-06 11:10:00","3044","4.534","167.1","6.042999999999999","168.8","1019.173","29.38","69.76","651.5","0.0"],
    [1532000,"2026-08-06 11:20:00","3045","4.583","170.0","5.88","176.4","1019.086","29.28","71.13","647.7","0.0"],
    [1532001,"2026-08-06 11:30:00","3046","4.415","171.5","5.422999999999999","172.2","1019.029","29.39","71.99","789.6","0.0"],
    [1532002,"2026-08-06 11:40:00","3047","4.4639999999999995","178.4","6.305","180.0","1019.016","29.75","69.93","954.0","0.0"],
    [1532003,"2026-08-06 11:50:00","3048","5.236000000000001","169.5","6.141","174.0","1018.853","29.61","72.61","948.0","0.0"],
    [1532004,"2026-08-06 12:00:00","3049","5.024","175.3","6.239","170.5","1018.772","29.58","71.63","918.0","0.0"],
    [1532005,"2026-08-06 12:10:00","3050","4.539","176.2","5.749","172.5","1018.683","29.75","70.52","900.0","0.0"],
    [1532006,"2026-08-06 12:20:00","3051","4.55","180.1","6.109","176.5","1018.568","29.87","69.65","890.0","0.0"],
    [1532007,"2026-08-06 12:30:00","3052","4.667","182.9","6.37","187.9","1018.452","29.82","69.23","879.0","0.0"],
    [1532008,"2026-08-06 12:40:00","3053","4.905","178.7","6.272","173.9","1018.298","29.87","70.08","871.0","0.0"],
    [1532009,"2026-08-06 12:50:00","3054","4.681","185.1","5.945","166.1","1018.229","29.85","69.38","863.0","0.0"],
    [1532010,"2026-08-06 13:00:00","3055","4.917","184.6","6.141","193.2","1018.165","29.96","69.42","846.0","0.0"],
    [1532011,"2026-08-06 13:10:00","3056","4.9430000000000005","185.9","6.925","194.7","1018.037","29.92","69.74","833.0","0.0"],
    [1532012,"2026-08-06 13:20:00","3057","5.327000000000001","185.7","6.893","190.8","1017.891","29.9","69.09","824.0","0.0"],
    [1532013,"2026-08-06 13:30:00","3058","5.189","185.8","7.0889999999999995","186.4","1017.77","29.92","68.3","809.0","0.0"],
    [1532014,"2026-08-06 13:40:00","3059","4.881","182.9","6.305","185.1","1017.729","29.95","68.08","803.0","0.0"],
    [1532015,"2026-08-06 13:50:00","3060","5.025","184.5","6.729","183.6","1017.732","29.88","68.32","565.0","0.0"],
    [1532016,"2026-08-06 14:00:00","3061","5.456","184.8","7.056","196.5","1017.642","29.78","69.25","720.3","0.0"],
    [1532017,"2026-08-06 14:10:00","3062","5.54","184.3","7.218999999999999","175.1","1017.578","29.84","68.08","769.4","0.0"],
    [1532018,"2026-08-06 14:20:00","3063","6.023","184.9","8.26","198.2","1017.575","29.8","68.13","732.8","0.0"],
    [1532019,"2026-08-06 14:30:00","3064","6.3870000000000005","186.1","8.0","185.7","1017.644","29.83","67.23","712.3","0.0"],
    [1532020,"2026-08-06 14:40:00","3065","5.7170000000000005","184.8","7.382999999999999","183.3","1017.7","29.77","68.79","689.4","0.0"],
    [1532021,"2026-08-06 14:50:00","3066","5.977","180.1","7.807","175.8","1017.597","29.68","69.79","671.7","0.0"],
    [1532022,"2026-08-06 15:00:00","3067","6.461","183.2","8.43","183.6","1017.407","29.67","69.27","656.9","0.0"],
    [1532023,"2026-08-06 15:10:00","3068","6.0520000000000005","187.4","7.971","188.2","1017.321","29.73","68.34","642.7","0.0"],
    [1532024,"2026-08-06 15:20:00","3069","6.143","186.5","8.17","188.4","1017.523","29.79","67.8","611.1","0.0"],
    [1532025,"2026-08-06 15:30:00","3070","6.319","188.3","8.2","187.9","1017.68","29.81","67.7","440.8","0.0"],
    [1532026,"2026-08-06 15:40:00","3071","6.141","186.8","8.07","191.4","1017.882","29.48","69.01","115.1","0.0"],
    [1532027,"2026-08-06 15:50:00","3072","4.987","184.1","6.5329999999999995","191.4","1018.042","29.43","69.36","91.8","0.0"],
    [1532028,"2026-08-06 16:00:00","3073","5.037","191.6","6.435","193.4","1018.011","29.4","69.41","73.24","0.0"],
    [1532029,"2026-08-06 16:10:00","3074","4.781000000000001","194.1","6.468","195.6","1018.033","29.38","68.53","61.0","0.0"],
    [1532030,"2026-08-06 16:20:00","3075","2.766","206.8","4.671","204.9","1018.43","29.69","67.39","41.35","0.0"],
    [1532031,"2026-08-06 16:30:00","3076","1.986","207.0","3.92","188.6","1018.875","29.88","66.33","24.98","0.0"],
    [1532032,"2026-08-06 16:40:00","3077","1.9480000000000002","267.6","3.495","317.5","1019.436","29.75","66.51","16.4","0.0"],
    [1532033,"2026-08-06 16:50:00","3078","2.455","302.9","8.23","20.45","1019.275","29.71","58.99","8.68","0.0"],
    [1532034,"2026-08-06 17:00:00","3079","6.292000000000001","13.99","9.6","17.48","1019.57","28.9","50.52","7.9079999999999995","0.0"],
    [1532035,"2026-08-06 17:10:00","3080","8.73","24.67","11.07","30.94","1020.049","28.1","62.69","6.2860000000000005","0.0"],
    [1532036,"2026-08-06 17:20:00","3081","7.03","354.5","9.93","347.6","1020.486","27.7","65.76","3.333","0.0"],
    [1532037,"2026-08-06 17:30:00","3082","5.3","331.5","9.38","342.0","1020.587","26.62","66.18","4.372","0.5"],
    [1532038,"2026-08-06 17:40:00","3083","4.093","34.1","5.749","10.98","1019.766","26.47","66.88","1.003","0.0"],
    [1532039,"2026-08-06 17:50:00","3084","2.384","53.13","4.377","42.35","1018.907","26.57","65.69","1.994","0.0"],
    [1532040,"2026-08-06 18:00:00","3085","2.153","112.7","3.6910000000000003","113.3","1018.065","26.91","65.82","3.3789999999999996","0.0"],
    [1532041,"2026-08-06 18:10:00","3086","1.3780000000000001","294.9","2.025","306.7","1018.284","27.21","65.88","4.218","0.0"],
    [1532042,"2026-08-06 18:20:00","3087","2.434","289.7","4.149","275.0","1018.375","27.22","65.43","4.937","0.0"],
    [1532043,"2026-08-06 18:30:00","3088","2.22","293.7","4.018","281.0","1018.326","26.95","65.6","14.52","0.1"],
    [1532044,"2026-08-06 18:40:00","3089","1.814","275.4","3.0380000000000003","315.6","1018.311","26.78","66.24","26.72","0.0"],
    [1532045,"2026-08-06 18:50:00","3090","1.815","280.5","2.907","267.7","1018.232","26.72","66.46","17.66","0.0"],
    [1532046,"2026-08-06 19:00:00","3091","1.653","254.6","3.103","265.8","1018.047","26.71","67.72","5.015","0.0"],
    [1532047,"2026-08-06 19:10:00","3092","2.205","254.7","4.606","268.5","1018.116","26.35","67.57","0.5589999999999999","0.0"],
    [1532048,"2026-08-06 19:20:00","3093","2.955","274.8","5.096","275.1","1018.174","26.0","68.52","0.0","0.0"],
    [1532049,"2026-08-06 19:30:00","3094","3.266","284.0","4.835","281.7","1018.028","25.9","67.12","0.0","0.0"],
    [1532050,"2026-08-06 19:40:00","3095","2.4019999999999997","274.0","3.528","285.9","1017.815","26.07","66.65","0.0","0.0"],
    [1532051,"2026-08-06 19:50:00","3096","2.734","276.2","5.2589999999999995","288.2","1017.913","26.19","66.45","0.0","0.0"],
    [1532052,"2026-08-06 20:00:00","3097","2.421","266.1","4.083","278.0","1017.836","26.28","65.41","0.0","0.0"],
    [1532053,"2026-08-06 20:10:00","3098","2.336","281.4","3.299","276.8","1017.768","26.42","64.39","0.0","0.0"],
    [1532054,"2026-08-06 20:20:00","3099","2.292","287.4","3.7889999999999997","288.9","1017.916","26.84","62.32","0.0","0.0"],
    [1532055,"2026-08-06 20:30:00","3100","1.815","277.2","3.463","285.5","1018.134","27.09","62.09","0.0","0.0"],
    [1532056,"2026-08-06 20:40:00","3101","1.7180000000000002","266.7","2.8089999999999997","277.9","1018.364","27.0","63.87","0.0","0.0"],
    [1532057,"2026-08-06 20:50:00","3102","2.3680000000000003","272.7","4.377","285.5","1018.395","26.99","63.41","0.0","0.0"],
    [1532058,"2026-08-06 21:00:00","3103","2.7939999999999996","281.2","4.9","276.2","1018.322","26.96","62.25","0.0","0.0"],
    [1532059,"2026-08-06 21:10:00","3104","3.179","285.4","4.998","285.0","1018.439","26.73","62.19","0.0","0.0"],
    [1532060,"2026-08-06 21:20:00","3105","1.656","284.8","3.332","288.2","1018.357","26.69","62.48","0.0","0.0"],
    [1532061,"2026-08-06 21:30:00","3106","0.708","23.17","1.633","58.21","1018.117","26.84","63.05","0.0","0.0"],
    [1532062,"2026-08-06 21:40:00","3107","0.5770000000000001","165.6","1.339","61.55","1017.982","26.96","64.85","0.0","0.0"],
    [1532063,"2026-08-06 21:50:00","3108","0.092","296.3","0.653","261.9","1017.998","26.91","65.0","0.0","0.0"],
    [1532064,"2026-08-06 22:00:00","3109","0.87","260.1","1.535","254.0","1018.014","26.86","63.54","0.0","0.0"],
    [1532065,"2026-08-06 22:10:00","3110","0.556","340.0","1.111","347.5","1018.147","26.88","63.2","0.0","0.0"],
    [1532066,"2026-08-06 22:20:00","3111","0.721","271.2","1.764","252.1","1018.292","26.75","60.84","0.0","0.0"],
    [1532067,"2026-08-06 22:30:00","3112","1.083","246.9","2.156","253.5","1018.433","26.7","60.63","0.0","0.0"],
    [1532068,"2026-08-06 22:40:00","3113","1.3630000000000002","279.8","2.189","266.9","1018.638","26.57","60.94","0.0","0.0"],
    [1532069,"2026-08-06 22:50:00","3114","0.375","324.8","1.209","340.3","1018.641","26.6","61.75","0.0","0.0"],
    [1532070,"2026-08-06 23:00:00","3115","0.596","212.6","1.111","194.3","1018.551","26.67","62.81","0.0","0.0"],
    [1532071,"2026-08-06 23:10:00","3116","0.945","183.4","1.274","190.2","1018.377","26.85","63.1","0.0","0.0"],
    [1532072,"2026-08-06 23:20:00","3117","0.436","112.9","0.9470000000000001","138.5","1018.275","26.88","62.58","0.0","0.0"],
    [1532073,"2026-08-06 23:30:00","3118","0.29600000000000004","48.13","1.045","53.61","1018.379","26.95","64.97","0.0","0.0"],
    [1532074,"2026-08-06 23:40:00","3119","0.7190000000000001","348.6","1.2409999999999999","353.3","1018.411","26.92","64.9","0.0","0.0"],
    [1532075,"2026-08-06 23:50:00","3120","1.723","263.9","2.483","266.4","1018.397","26.75","61.3","0.0","0.0"],
    [1532076,"2026-08-07 00:00:00","3121","1.4169999999999998","253.7","2.221","272.3","1018.407","26.5","61.11","0.0","0.0"],
    [1532077,"2026-08-07 00:10:00","3122","0.978","273.9","1.47","278.7","1018.395","26.43","61.62","0.0","0.0"],
    [1532078,"2026-08-07 00:20:00","3123","1.4869999999999999","261.9","2.0580000000000003","259.4","1018.343","26.38","62.54","0.0","0.0"],
    [1532079,"2026-08-07 00:30:00","3124","1.5519999999999998","265.1","2.123","263.7","1018.385","26.27","63.16","0.0","0.0"],
    [1532080,"2026-08-07 00:40:00","3125","1.5930000000000002","266.4","2.123","270.9","1018.463","26.09","63.9","0.0","0.0"],
    [1532081,"2026-08-07 00:50:00","3126","1.921","268.3","2.417","279.7","1018.41","26.04","63.67","0.0","0.0"],
    [1532082,"2026-08-07 01:00:00","3127","1.403","267.9","2.0909999999999997","262.7","1018.317","26.06","63.18","0.0","0.0"],
    [1532083,"2026-08-07 01:10:00","3128","0.99","267.5","1.7309999999999999","264.4","1018.211","25.99","63.24","0.0","0.0"],
    [1532084,"2026-08-07 01:20:00","3129","1.0","273.1","1.5030000000000001","256.2","1018.23","26.03","63.51","0.0","0.0"],
    [1532085,"2026-08-07 01:30:00","3130","0.019","315.8","0.425","303.6","1018.152","26.03","64.18","0.0","0.0"],
    [1532086,"2026-08-07 01:40:00","3131","0.435","311.8","1.078","301.7","1018.165","26.12","64.35","0.0","0.0"],
    [1532087,"2026-08-07 01:50:00","3132","0.9690000000000001","282.6","1.47","261.9","1018.14","26.13","64.0","0.0","0.0"],
    [1532088,"2026-08-07 02:00:00","3133","1.244","262.3","1.666","264.4","1018.136","26.02","63.97","0.0","0.0"],
    [1532089,"2026-08-07 02:10:00","3134","1.022","264.9","1.764","270.5","1018.175","25.88","64.95","0.0","0.0"],
    [1532090,"2026-08-07 02:20:00","3135","1.4669999999999999","268.1","1.9269999999999998","273.4","1018.132","25.73","65.83","0.0","0.0"],
    [1532091,"2026-08-07 02:30:00","3136","1.161","268.8","1.699","266.5","1018.068","25.64","65.87","0.0","0.0"],
    [1532092,"2026-08-07 02:40:00","3137","1.015","269.7","1.4369999999999998","266.5","1018.025","25.64","65.88","0.0","0.0"],
    [1532093,"2026-08-07 02:50:00","3138","1.2770000000000001","267.9","1.96","261.3","1018.008","25.64","66.92","0.0","0.0"],
    [1532094,"2026-08-07 03:00:00","3139","2.14","271.4","2.7439999999999998","266.4","1017.995","25.45","67.78","0.0","0.0"],
    [1532095,"2026-08-07 03:10:00","3140","2.302","264.3","2.7769999999999997","261.9","1018.025","25.06","68.57","0.0","0.0"],
    [1532096,"2026-08-07 03:20:00","3141","2.0909999999999997","272.2","2.7439999999999998","273.1","1018.059","25.01","69.57","0.0","0.0"],
    [1532097,"2026-08-07 03:30:00","3142","1.795","275.4","2.548","268.7","1018.041","25.0","69.92","0.0","0.0"],
    [1532098,"2026-08-07 03:40:00","3143","1.578","280.6","1.993","289.4","1018.029","24.97","69.85","0.0","0.0"],
    [1532099,"2026-08-07 03:50:00","3144","1.682","267.0","2.0909999999999997","259.1","1018.01","25.09","69.05","0.0","0.0"],
    [1532100,"2026-08-07 04:00:00","3145","0.978","271.7","1.8619999999999999","268.9","1017.877","25.08","69.28","0.0","0.0"],
    [1532101,"2026-08-07 04:10:00","3146","0.249","265.0","0.9470000000000001","275.5","1017.838","25.03","69.37","0.0","0.0"],
    [1532102,"2026-08-07 04:20:00","3147","0.856","257.8","1.2409999999999999","263.9","1017.929","25.16","69.04","0.0","0.0"],
    [1532103,"2026-08-07 04:30:00","3148","1.4040000000000001","260.5","1.993","261.8","1018.023","25.28","68.69","0.0","0.0"],
    [1532104,"2026-08-07 04:40:00","3149","1.39","260.1","2.156","263.5","1018.142","25.26","68.96","0.0","0.0"],
    [1532105,"2026-08-07 04:50:00","3150","1.916","259.1","2.6460000000000004","260.6","1018.278","25.17","69.27","0.425","0.0"],
    [1532106,"2026-08-07 05:00:00","3151","1.7380000000000002","262.8","2.287","262.8","1018.323","25.08","70.3","3.293","0.0"],
    [1532107,"2026-08-07 05:10:00","3152","1.771","260.4","2.6460000000000004","264.4","1018.349","25.04","70.56","8.55","0.0"],
    [1532108,"2026-08-07 05:20:00","3153","1.273","261.7","1.895","268.3","1018.359","25.02","70.4","17.0","0.0"],
    [1532109,"2026-08-07 05:30:00","3154","1.909","264.4","2.5810000000000004","254.2","1018.448","25.11","70.03","28.86","0.0"],
    [1532110,"2026-08-07 05:40:00","3155","1.9869999999999999","277.8","2.907","273.0","1018.459","25.18","69.91","38.72","0.0"],
    [1532111,"2026-08-07 05:50:00","3156","1.5619999999999998","277.6","2.221","299.5","1018.524","25.38","69.13","62.08","0.0"],
    [1532112,"2026-08-07 06:00:00","3157","1.3659999999999999","271.7","2.0909999999999997","270.7","1018.555","25.71","67.9","66.98","0.0"],
    [1532113,"2026-08-07 06:10:00","3158","1.308","262.6","1.9269999999999998","261.3","1018.484","26.03","66.35","123.4","0.0"],
    [1532114,"2026-08-07 06:20:00","3159","1.587","262.3","2.254","266.8","1018.535","26.74","63.64","175.3","0.0"],
    [1532115,"2026-08-07 06:30:00","3160","1.7269999999999999","269.7","2.5810000000000004","256.8","1018.608","27.07","61.55","196.6","0.0"],
    [1532116,"2026-08-07 06:40:00","3161","0.9259999999999999","286.1","1.405","263.9","1018.557","27.92","59.53","234.0","0.0"],
    [1532117,"2026-08-07 06:50:00","3162","0.349","311.3","0.8490000000000001","303.6","1018.608","28.43","58.67","259.8","0.0"],
    [1532118,"2026-08-07 07:00:00","3163","0.0","0.0","0.0","0.0","1018.625","28.47","60.09","285.4","0.0"],
    [1532119,"2026-08-07 07:10:00","3164","0.0","0.0","0.0","0.0","1018.658","28.91","57.64","326.5","0.0"],
    [1532120,"2026-08-07 07:20:00","3165","0.0","0.0","0.0","0.0","1018.694","28.56","59.43","366.6","0.0"],
    [1532121,"2026-08-07 07:30:00","3166","0.0","0.0","0.0","0.0","1018.758","28.89","59.3","393.0","0.0"],
    [1532122,"2026-08-07 07:40:00","3167","0.977","138.6","1.8619999999999999","141.8","1018.782","28.22","63.01","422.9","0.0"],
    [1532123,"2026-08-07 07:50:00","3168","1.476","132.4","1.895","130.3","1018.758","27.73","65.46","458.5","0.0"],
    [1532124,"2026-08-07 08:00:00","3169","1.601","139.0","2.025","146.5","1018.677","27.75","66.97","497.9","0.0"],
    [1532125,"2026-08-07 08:10:00","3170","1.7519999999999998","140.8","2.352","144.3","1018.69","27.59","68.52","537.8","0.0"],
    [1532126,"2026-08-07 08:20:00","3171","1.6909999999999998","141.0","1.9269999999999998","139.0","1018.682","27.53","69.06","543.5","0.0"],
    [1532127,"2026-08-07 08:30:00","3172","1.57","139.7","1.9269999999999998","141.9","1018.669","27.79","69.0","568.9","0.0"],
    [1532128,"2026-08-07 08:40:00","3173","1.5190000000000001","142.9","1.895","148.7","1018.621","27.89","69.22","599.7","0.0"],
    [1532129,"2026-08-07 08:50:00","3174","1.4380000000000002","148.7","1.7309999999999999","148.2","1018.586","28.41","68.35","627.9","0.0"],
    [1532130,"2026-08-07 09:00:00","3175","1.791","153.2","2.385","155.2","1018.564","28.51","68.71","649.8","0.0"],
    [1532131,"2026-08-07 09:10:00","3176","2.654","141.4","3.365","130.5","1018.629","28.34","70.87","672.1","0.0"],
    [1532132,"2026-08-07 09:20:00","3177","3.0469999999999997","134.1","3.593","130.0","1018.605","27.95","72.19","698.6","0.0"],
    [1532133,"2026-08-07 09:30:00","3178","3.3289999999999997","135.1","3.985","129.6","1018.529","27.92","72.54","723.9","0.0"],
    [1532134,"2026-08-07 09:40:00","3179","3.8569999999999998","138.6","4.41","142.0","1018.519","27.9","73.18","745.3","0.0"],
    [1532135,"2026-08-07 09:50:00","3180","3.875","140.7","4.671","140.2","1018.533","27.94","72.79","767.9","0.0"],
    [1532136,"2026-08-07 10:00:00","3181","4.0569999999999995","148.8","4.671","150.6","1018.459","28.21","73.03","791.0","0.0"],
    [1532137,"2026-08-07 10:10:00","3182","3.926","145.5","4.638999999999999","141.8","1018.454","28.21","73.69","807.0","0.0"],
    [1532138,"2026-08-07 10:20:00","3183","4.415","148.2","5.521","153.5","1018.359","28.27","74.71","820.0","0.0"],
    [1532139,"2026-08-07 10:30:00","3184","4.865","149.8","5.7170000000000005","149.7","1018.328","28.3","74.99","833.0","0.0"],
    [1532140,"2026-08-07 10:40:00","3185","5.08","150.5","5.945","152.7","1018.333","28.3","75.83","844.0","0.0"],
    [1532141,"2026-08-07 10:50:00","3186","5.235","152.6","6.109","155.1","1018.362","28.38","76.34","855.0","0.0"],
    [1532142,"2026-08-07 11:00:00","3187","5.292000000000001","157.0","6.011","158.8","1018.377","28.46","76.65","864.0","0.0"],
    [1532143,"2026-08-07 11:10:00","3188","5.257000000000001","160.4","6.109","157.1","1018.356","28.61","76.02","876.0","0.0"],
    [1532144,"2026-08-07 11:20:00","3189","5.321000000000001","157.3","5.978","160.2","1018.224","28.61","76.6","882.0","0.0"],
    [1532145,"2026-08-07 11:30:00","3190","5.319","159.3","6.86","149.1","1018.085","28.7","76.88","887.0","0.0"],
    [1532146,"2026-08-07 11:40:00","3191","5.188","161.1","5.782","162.4","1018.07","28.78","77.06","889.0","0.0"],
    [1532147,"2026-08-07 11:50:00","3192","5.3629999999999995","162.5","6.729","180.5","1018.052","28.82","77.33","890.0","0.0"],
    [1532148,"2026-08-07 12:00:00","3193","5.053","163.0","6.0760000000000005","164.1","1017.999","28.94","77.74","890.0","0.0"],
    [1532149,"2026-08-07 12:10:00","3194","4.732","166.2","5.325","170.9","1017.886","29.02","78.17","897.0","0.0"],
    [1532150,"2026-08-07 12:20:00","3195","4.626","168.1","5.325","169.4","1017.79","29.19","77.23","907.0","0.0"],
    [1532151,"2026-08-07 12:30:00","3196","4.619","166.4","5.815","171.9","1017.686","29.27","77.31","923.0","0.0"],
    [1532152,"2026-08-07 12:40:00","3197","5.044","171.1","6.566","172.4","1017.584","29.37","75.78","944.0","0.0"],
    [1532153,"2026-08-07 12:50:00","3198","5.2170000000000005","184.3","6.729","187.4","1017.44","29.77","72.55","897.0","0.0"],
    [1532154,"2026-08-07 13:00:00","3199","5.797000000000001","183.6","7.579","174.6","1017.339","29.86","72.15","846.0","0.0"],
    [1532155,"2026-08-07 13:10:00","3200","6.042000000000001","181.0","7.938","188.4","1017.271","29.76","72.94","837.0","0.0"],
    [1532156,"2026-08-07 13:20:00","3201","6.224","181.3","8.0","181.4","1017.171","29.56","74.55","661.7","0.0"],
    [1532157,"2026-08-07 13:30:00","3202","6.193","178.7","8.3","186.3","1017.089","29.53","74.56","682.1","0.0"],
    [1532158,"2026-08-07 13:40:00","3203","5.984","184.7","8.07","170.8","1017.009","29.61","73.98","694.9","0.0"],
    [1532159,"2026-08-07 13:50:00","3204","6.042999999999999","187.9","8.07","191.2","1016.889","29.77","73.12","758.7","0.0"],
    [1532160,"2026-08-07 14:00:00","3205","6.001","187.3","8.82","181.0","1016.845","29.81","72.73","779.4","0.0"],
    [1532161,"2026-08-07 14:10:00","3206","5.989","195.9","8.98","188.9","1016.854","30.18","71.1","766.3","0.0"],
    [1532162,"2026-08-07 14:20:00","3207","5.766","207.7","8.4","204.9","1016.834","30.51","69.05","754.9","0.0"],
    [1532163,"2026-08-07 14:30:00","3208","6.242000000000001","194.3","8.2","200.6","1016.713","30.21","71.23","760.2","0.0"],
    [1532164,"2026-08-07 14:40:00","3209","6.053999999999999","189.9","8.13","188.2","1016.648","29.92","72.89","667.3","0.0"],
    [1532165,"2026-08-07 14:50:00","3210","6.002000000000001","189.6","7.905","187.2","1016.577","29.72","72.79","618.2","0.0"],
    [1532166,"2026-08-07 15:00:00","3211","5.567","195.5","7.971","196.8","1016.572","29.98","71.22","668.0","0.0"],
    [1532167,"2026-08-07 15:10:00","3212","5.897","198.3","9.15","202.0","1016.489","30.13","70.69","646.4","0.0"],
    [1532168,"2026-08-07 15:20:00","3213","4.813","211.0","7.415","202.2","1016.49","30.51","68.45","630.9","0.0"],
    [1532169,"2026-08-07 15:30:00","3214","4.876","208.6","7.742000000000001","188.0","1016.436","30.58","68.58","576.9","0.0"],
    [1532170,"2026-08-07 15:40:00","3215","4.407","207.3","8.3","189.9","1016.329","30.7","68.39","552.0","0.0"],
    [1532171,"2026-08-07 15:50:00","3216","5.4","204.5","8.72","219.1","1016.186","30.18","70.66","513.5","0.0"],
    [1532172,"2026-08-07 16:00:00","3217","4.729","214.1","7.709","224.2","1016.183","30.44","69.42","463.1","0.0"],
    [1532173,"2026-08-07 16:10:00","3218","4.895","205.2","7.709","187.3","1016.141","30.29","69.97","457.5","0.0"],
    [1532174,"2026-08-07 16:20:00","3219","6.754","195.1","9.8","187.8","1015.887","29.88","72.0","422.4","0.0"],
    [1532175,"2026-08-07 16:30:00","3220","5.019","207.6","8.13","196.0","1015.792","29.86","72.1","375.1","0.0"],
    [1532176,"2026-08-07 16:40:00","3221","5.16","207.2","7.971","198.8","1015.712","29.94","71.48","319.3","0.0"],
    [1532177,"2026-08-07 16:50:00","3222","4.828","214.7","7.187","189.2","1015.675","29.79","71.97","289.5","0.0"],
    [1532178,"2026-08-07 17:00:00","3223","4.4","206.7","7.218999999999999","195.6","1015.698","29.89","71.79","161.5","0.0"],
    [1532179,"2026-08-07 17:10:00","3224","4.518","202.7","7.218999999999999","200.9","1015.88","29.79","72.9","190.2","0.0"],
    [1532180,"2026-08-07 17:20:00","3225","4.273","201.0","6.925","204.3","1016.089","29.87","72.37","187.3","0.0"],
    [1532181,"2026-08-07 17:30:00","3226","4.228","201.7","7.023","196.8","1016.255","29.72","73.04","194.6","0.0"],
    [1532182,"2026-08-07 17:40:00","3227","4.058","206.5","6.403","203.4","1016.328","29.81","72.4","197.1","0.0"],
    [1532183,"2026-08-07 17:50:00","3228","5.301","191.0","7.579","195.9","1016.398","29.46","73.94","142.2","0.0"],
    [1532184,"2026-08-07 18:00:00","3229","4.324","210.8","7.579","182.4","1016.481","29.61","72.77","74.5","0.0"],
    [1532185,"2026-08-07 18:10:00","3230","3.7489999999999997","202.7","6.403","193.5","1016.65","29.6","72.87","41.66","0.0"],
    [1532186,"2026-08-07 18:20:00","3231","4.218","197.6","6.827000000000001","199.3","1016.744","29.47","74.28","30.17","0.0"],
    [1532187,"2026-08-07 18:30:00","3232","2.693","246.0","5.031000000000001","230.1","1017.225","29.38","72.88","36.93","0.0"],
    [1532188,"2026-08-07 18:40:00","3233","1.8359999999999999","248.4","3.43","215.1","1017.684","29.54","70.52","36.76","0.0"],
    [1532189,"2026-08-07 18:50:00","3234","1.5119999999999998","246.9","2.6460000000000004","270.2","1017.688","29.72","70.66","21.32","0.0"],
    [1532190,"2026-08-07 19:00:00","3235","2.923","205.7","5.619","190.7","1017.273","29.54","71.28","9.45","0.0"],
    [1532191,"2026-08-07 19:10:00","3236","3.074","204.5","5.586","198.5","1016.993","29.44","71.23","2.428","0.0"],
    [1532192,"2026-08-07 19:20:00","3237","3.372","199.4","5.096","196.1","1016.845","29.41","72.13","0.262","0.0"],
    [1532193,"2026-08-07 19:30:00","3238","4.687","187.9","6.011","186.6","1016.62","29.15","73.87","0.0","0.0"],
    [1532194,"2026-08-07 19:40:00","3239","4.422","186.5","6.109","191.4","1016.671","28.88","76.15","0.0","0.0"],
    [1532195,"2026-08-07 19:50:00","3240","3.798","189.8","5.031000000000001","183.2","1016.794","28.84","76.8","0.0","0.0"],
    [1532196,"2026-08-07 20:00:00","3241","3.958","198.3","5.749","208.7","1016.709","28.85","76.1","0.0","0.0"],
    [1532197,"2026-08-07 20:10:00","3242","3.867","202.0","5.619","195.4","1016.599","28.92","75.48","0.0","0.0"],
    [1532198,"2026-08-07 20:20:00","3243","2.654","203.0","4.41","187.9","1016.712","28.96","75.18","0.0","0.0"],
    [1532199,"2026-08-07 20:30:00","3244","1.778","220.9","4.083","266.8","1016.805","28.98","74.64","0.0","0.0"],
    [1532200,"2026-08-07 20:40:00","3245","2.6260000000000003","207.2","4.769","208.3","1016.74","28.9","75.62","0.0","0.0"],
    [1532201,"2026-08-07 20:50:00","3246","1.956","221.7","3.5610000000000004","199.2","1016.542","28.89","75.62","0.0","0.0"],
    [1532202,"2026-08-07 21:00:00","3247","2.435","250.0","4.802","263.2","1016.439","28.89","75.32","0.0","0.0"],
    [1532203,"2026-08-07 21:10:00","3248","2.6489999999999996","265.1","4.377","272.8","1016.345","28.86","74.86","0.0","0.0"],
    [1532204,"2026-08-07 21:20:00","3249","2.157","290.9","3.593","259.0","1016.415","28.76","74.94","0.0","0.0"],
    [1532205,"2026-08-07 21:30:00","3250","1.402","296.4","2.679","321.7","1016.565","28.57","75.25","0.0","0.0"],
    [1532206,"2026-08-07 21:40:00","3251","1.675","266.8","3.103","248.7","1016.458","28.69","73.92","0.0","0.0"],
    [1532207,"2026-08-07 21:50:00","3252","1.639","256.7","2.7439999999999998","275.4","1016.282","28.72","74.13","0.0","0.0"],
    [1532208,"2026-08-07 22:00:00","3253","2.001","273.2","3.071","276.3","1016.211","28.67","75.1","0.0","0.0"],
    [1532209,"2026-08-07 22:10:00","3254","2.716","251.4","5.096","262.2","1016.066","28.59","75.75","0.0","0.0"],
    [1532210,"2026-08-07 22:20:00","3255","2.513","239.3","4.867","277.4","1015.911","28.58","74.85","0.0","0.0"],
    [1532211,"2026-08-07 22:30:00","3256","2.7060000000000004","234.7","4.802","253.8","1015.994","28.46","74.71","0.0","0.0"],
    [1532212,"2026-08-07 22:40:00","3257","2.472","254.9","4.541","251.8","1016.267","28.21","73.35","0.0","0.0"],
    [1532213,"2026-08-07 22:50:00","3258","2.294","245.6","4.018","267.3","1016.313","28.08","72.51","0.0","0.0"],
    [1532214,"2026-08-07 23:00:00","3259","2.498","287.5","4.018","253.6","1016.38","27.91","72.32","0.0","0.0"],
    [1532215,"2026-08-07 23:10:00","3260","2.432","313.1","3.397","311.1","1016.465","27.8","72.54","0.0","0.0"],
    [1532216,"2026-08-07 23:20:00","3261","1.806","306.9","2.417","290.5","1016.355","27.9","71.98","0.0","0.0"],
    [1532217,"2026-08-07 23:30:00","3262","1.84","276.8","2.875","271.4","1016.33","27.99","72.08","0.0","0.0"],
    [1532218,"2026-08-07 23:40:00","3263","1.391","296.4","4.181","275.5","1016.409","28.11","73.42","0.0","0.0"],
    [1532219,"2026-08-07 23:50:00","3264","1.17","202.1","3.593","205.6","1016.379","28.07","75.15","0.0","0.0"],
    [1532220,"2026-08-08 00:00:00","3265","2.2","179.2","3.7239999999999998","196.4","1016.456","28.13","78.26","0.0","0.0"],
    [1532221,"2026-08-08 00:10:00","3266","1.094","292.2","2.221","188.7","1016.579","27.96","78.44","0.0","0.0"],
    [1532222,"2026-08-08 00:20:00","3267","1.392","0.21899999999999997","2.5810000000000004","342.7","1016.596","27.87","78.26","0.0","0.0"],
    [1532223,"2026-08-08 00:30:00","3268","2.767","10.43","3.267","10.89","1016.486","27.85","78.94","0.0","0.0"],
    [1532224,"2026-08-08 00:40:00","3269","2.924","9.88","3.9530000000000003","7.236000000000001","1016.51","27.72","77.55","0.0","0.0"],
    [1532225,"2026-08-08 00:50:00","3270","3.4","9.65","4.835","19.15","1016.514","27.75","71.54","0.0","0.0"],
    [1532226,"2026-08-08 01:00:00","3271","3.065","9.81","3.92","12.01","1016.537","27.88","69.99","0.0","0.0"],
    [1532227,"2026-08-08 01:10:00","3272","2.415","357.8","3.9530000000000003","333.6","1016.504","27.93","67.92","0.0","0.0"],
    [1532228,"2026-08-08 01:20:00","3273","2.431","326.1","3.299","317.9","1016.506","27.94","67.23","0.0","0.0"],
    [1532229,"2026-08-08 01:30:00","3274","1.76","298.8","2.679","305.1","1016.418","27.69","66.89","0.0","0.0"],
    [1532230,"2026-08-08 01:40:00","3275","1.28","299.4","2.156","304.8","1016.328","27.5","67.37","0.0","0.0"],
    [1532231,"2026-08-08 01:50:00","3276","2.173","316.2","3.103","318.6","1016.181","27.47","66.8","0.0","0.0"],
    [1532232,"2026-08-08 02:00:00","3277","2.546","311.5","3.234","321.5","1016.09","27.54","65.13","0.0","0.0"],
    [1532233,"2026-08-08 02:10:00","3278","2.013","296.2","3.136","310.9","1015.979","27.65","63.39","0.0","0.0"],
    [1532234,"2026-08-08 02:20:00","3279","1.768","258.1","2.515","270.2","1015.928","27.47","63.97","0.0","0.0"],
    [1532235,"2026-08-08 02:30:00","3280","2.043","249.1","3.397","252.8","1015.875","27.44","63.28","0.0","0.0"],
    [1532236,"2026-08-08 02:40:00","3281","2.9989999999999997","263.8","4.998","262.5","1015.871","26.97","64.82","0.0","0.0"],
    [1532237,"2026-08-08 02:50:00","3282","3.2439999999999998","259.6","4.508","261.0","1015.791","26.26","65.83","0.0","0.0"],
    [1532238,"2026-08-08 03:00:00","3283","3.032","267.8","3.822","264.4","1015.665","26.08","66.16","0.0","0.0"],
    [1532239,"2026-08-08 03:10:00","3284","3.446","263.5","5.129","260.9","1015.646","26.03","65.66","0.0","0.0"],
    [1532240,"2026-08-08 03:20:00","3285","3.054","270.8","4.2139999999999995","265.4","1015.619","26.1","65.68","0.0","0.0"],
    [1532241,"2026-08-08 03:30:00","3286","2.8289999999999997","275.3","3.6260000000000003","275.6","1015.633","26.14","65.78","0.0","0.0"],
    [1532242,"2026-08-08 03:40:00","3287","3.0869999999999997","269.3","3.887","268.6","1015.662","26.15","65.86","0.0","0.0"],
    [1532243,"2026-08-08 03:50:00","3288","3.176","268.9","4.247","272.2","1015.555","26.15","66.84","0.0","0.0"],
    [1532244,"2026-08-08 04:00:00","3289","2.378","280.9","4.1160000000000005","261.3","1015.57","26.15","67.98","0.0","0.0"],
    [1532245,"2026-08-08 04:10:00","3290","1.892","291.8","2.613","297.7","1015.596","26.23","69.06","0.0","0.0"],
    [1532246,"2026-08-08 04:20:00","3291","1.74","288.3","2.483","273.7","1015.62","26.26","69.24","0.0","0.0"],
    [1532247,"2026-08-08 04:30:00","3292","1.42","305.2","2.123","310.3","1015.601","26.26","70.0","0.0","0.0"],
    [1532248,"2026-08-08 04:40:00","3293","1.445","280.0","2.123","262.6","1015.615","26.29","69.73","0.0","0.0"],
    [1532249,"2026-08-08 04:50:00","3294","1.432","254.0","2.483","264.7","1015.711","26.32","69.74","0.11699999999999999","0.0"],
    [1532250,"2026-08-08 05:00:00","3295","1.808","259.3","3.071","267.5","1015.847","26.14","69.33","3.3689999999999998","0.0"],
    [1532251,"2026-08-08 05:10:00","3296","2.752","263.8","3.7239999999999998","254.1","1016.042","25.51","67.93","11.07","0.0"],
    [1532252,"2026-08-08 05:20:00","3297","2.457","265.8","3.299","263.5","1016.103","25.43","66.82","23.42","0.0"],
    [1532253,"2026-08-08 05:30:00","3298","2.154","276.8","2.94","269.5","1016.109","25.65","66.09","41.91","0.0"],
    [1532254,"2026-08-08 05:40:00","3299","2.386","272.8","2.842","272.3","1016.203","25.93","65.17","52.27","0.0"],
    [1532255,"2026-08-08 05:50:00","3300","2.505","273.3","3.234","273.4","1016.265","26.34","64.53","85.6","0.0"],
    [1532256,"2026-08-08 06:00:00","3301","2.386","276.5","3.0380000000000003","273.2","1016.339","26.82","63.08","116.9","0.0"],
    [1532257,"2026-08-08 06:10:00","3302","2.103","269.4","2.7769999999999997","265.8","1016.331","27.14","60.87","144.8","0.0"],
    [1532258,"2026-08-08 06:20:00","3303","1.986","270.3","2.548","270.2","1016.289","27.53","59.07","174.5","0.0"],
    [1532259,"2026-08-08 06:30:00","3304","1.5759999999999998","279.3","2.319","284.1","1016.343","28.02","58.0","191.6","0.0"],
    [1532260,"2026-08-08 06:40:00","3305","0.44299999999999995","298.4","1.013","321.1","1016.328","28.57","58.19","230.3","0.0"],
    [1532261,"2026-08-08 06:50:00","3306","0.191","94.8","0.784","77.22","1016.459","28.62","60.33","256.4","0.0"],
    [1532262,"2026-08-08 07:00:00","3307","1.031","48.35","2.417","33.78","1016.608","28.71","59.72","295.8","0.0"],
    [1532263,"2026-08-08 07:10:00","3308","2.3040000000000003","27.06","2.94","30.74","1016.646","27.98","58.43","318.6","0.0"],
    [1532264,"2026-08-08 07:20:00","3309","1.7690000000000001","28.44","2.45","28.28","1016.757","27.97","58.99","351.6","0.0"],
    [1532265,"2026-08-08 07:30:00","3310","2.0580000000000003","27.94","2.613","36.91","1016.772","27.99","61.07","383.0","0.0"],
    [1532266,"2026-08-08 07:40:00","3311","2.182","37.01","3.0380000000000003","41.57","1016.815","28.08","59.71","418.6","0.0"],
    [1532267,"2026-08-08 07:50:00","3312","1.906","39.96","2.352","43.4","1016.914","28.11","59.87","449.1","0.0"],
    [1532268,"2026-08-08 08:00:00","3313","2.138","44.41","2.907","44.87","1016.965","28.23","60.61","470.5","0.0"],
    [1532269,"2026-08-08 08:10:00","3314","2.477","51.33","3.136","43.32","1017.027","28.32","62.77","510.8","0.0"],
    [1532270,"2026-08-08 08:20:00","3315","2.636","53.95","3.397","52.7","1017.135","28.33","63.25","543.1","0.0"],
    [1532271,"2026-08-08 08:30:00","3316","2.33","59.29","3.234","60.13","1017.135","28.48","63.06","571.8","0.0"],
    [1532272,"2026-08-08 08:40:00","3317","2.266","61.09","3.0380000000000003","55.76","1017.144","28.51","64.76","601.1","0.0"],
    [1532273,"2026-08-08 08:50:00","3318","2.006","70.72","2.875","57.75","1017.175","28.66","66.41","628.7","0.0"],
    [1532274,"2026-08-08 09:00:00","3319","2.049","65.5","3.103","46.41","1017.252","28.66","68.76","656.4","0.0"],
    [1532275,"2026-08-08 09:10:00","3320","1.775","82.9","3.0380000000000003","87.6","1017.347","28.78","69.51","681.1","0.0"],
    [1532276,"2026-08-08 09:20:00","3321","2.326","81.7","3.299","87.6","1017.36","28.8","71.07","706.6","0.0"],
    [1532277,"2026-08-08 09:30:00","3322","2.987","83.3","4.018","83.6","1017.382","28.6","73.45","730.0","0.0"],
    [1532278,"2026-08-08 09:40:00","3323","3.213","86.5","3.9530000000000003","95.4","1017.392","28.52","75.0","751.6","0.0"],
    [1532279,"2026-08-08 09:50:00","3324","3.096","81.4","4.149","84.2","1017.338","28.6","75.27","772.0","0.0"],
    [1532280,"2026-08-08 10:00:00","3325","2.623","78.84","4.4430000000000005","76.44","1017.329","28.63","75.38","789.4","0.0"],
    [1532281,"2026-08-08 10:10:00","3326","2.094","53.05","4.769","43.95","1017.332","28.99","74.23","805.0","0.0"],
    [1532282,"2026-08-08 10:20:00","3327","1.819","54.82","4.083","32.79","1017.385","29.17","71.23","820.0","0.0"],
    [1532283,"2026-08-08 10:30:00","3328","2.4530000000000003","89.6","3.985","99.7","1017.412","29.23","67.97","835.0","0.0"],
    [1532284,"2026-08-08 10:40:00","3329","2.285","88.2","3.855","80.6","1017.414","29.26","66.66","847.0","0.0"],
    [1532285,"2026-08-08 10:50:00","3330","2.721","93.8","4.1160000000000005","92.0","1017.401","29.19","65.18","858.0","0.0"],
    [1532286,"2026-08-08 11:00:00","3331","2.4459999999999997","87.9","4.312","98.9","1017.348","29.2","64.22","866.0","0.0"],
    [1532287,"2026-08-08 11:10:00","3332","3.051","92.7","3.887","96.3","1017.327","29.1","65.43","874.0","0.0"],
    [1532288,"2026-08-08 11:20:00","3333","2.78","94.9","3.463","95.3","1017.33","29.09","67.67","880.0","0.0"],
    [1532289,"2026-08-08 11:30:00","3334","2.7939999999999996","115.7","3.9530000000000003","122.3","1017.273","29.11","68.74","885.0","0.0"],
    [1532290,"2026-08-08 11:40:00","3335","3.1319999999999997","115.0","4.149","117.3","1017.266","29.03","69.23","890.0","0.0"],
    [1532291,"2026-08-08 11:50:00","3336","2.853","126.6","3.855","120.1","1017.227","29.07","69.96","889.0","0.0"],
    [1532292,"2026-08-08 12:00:00","3337","3.1510000000000002","137.7","4.1160000000000005","138.4","1017.211","29.33","69.63","889.0","0.0"],
    [1532293,"2026-08-08 12:10:00","3338","3.487","138.3","4.508","133.2","1017.145","29.09","71.74","887.0","0.0"],
    [1532294,"2026-08-08 12:20:00","3339","3.5639999999999996","136.5","4.737","131.4","1017.046","29.0","72.21","883.0","0.0"],
    [1532295,"2026-08-08 12:30:00","3340","3.353","134.0","4.475","134.0","1016.964","29.06","73.1","875.0","0.0"],
    [1532296,"2026-08-08 12:40:00","3341","3.037","128.4","4.312","114.7","1016.93","29.06","74.05","866.0","0.0"],
    [1532297,"2026-08-08 12:50:00","3342","3.198","142.5","4.051","141.6","1016.868","29.11","74.03","855.0","0.0"],
    [1532298,"2026-08-08 13:00:00","3343","3.0210000000000004","140.1","3.7889999999999997","124.9","1016.864","29.27","73.34","842.0","0.0"],
    [1532299,"2026-08-08 13:10:00","3344","3.358","140.6","4.181","143.0","1016.771","29.06","74.18","832.0","0.0"],
    [1532300,"2026-08-08 13:20:00","3345","3.362","148.9","4.279","154.5","1016.681","29.32","73.88","819.0","0.0"],
    [1532301,"2026-08-08 13:30:00","3346","3.542","153.4","4.247","162.8","1016.628","29.49","73.38","809.0","0.0"],
    [1532302,"2026-08-08 13:40:00","3347","3.658","157.6","4.573","170.6","1016.533","29.44","74.16","797.8","0.0"],
    [1532303,"2026-08-08 13:50:00","3348","3.6510000000000002","153.4","4.377","160.7","1016.397","29.43","73.82","784.9","0.0"],
    [1532304,"2026-08-08 14:00:00","3349","3.8710000000000004","155.1","4.737","152.4","1016.273","29.33","74.0","770.4","0.0"],
    [1532305,"2026-08-08 14:10:00","3350","3.647","142.8","4.606","127.7","1016.131","29.21","72.38","755.8","0.0"],
    [1532306,"2026-08-08 14:20:00","3351","3.799","134.9","4.737","136.2","1015.942","28.9","73.0","742.8","0.0"],
    [1532307,"2026-08-08 14:30:00","3352","3.3089999999999997","138.0","4.312","136.7","1015.917","28.96","72.62","724.9","0.0"],
    [1532308,"2026-08-08 14:40:00","3353","3.407","140.1","4.312","143.8","1015.898","29.01","73.24","704.5","0.0"],
    [1532309,"2026-08-08 14:50:00","3354","3.241","142.5","4.181","146.6","1015.837","29.05","73.85","682.5","0.0"],
    [1532310,"2026-08-08 15:00:00","3355","3.195","148.5","4.704","155.2","1015.795","29.12","74.92","660.7","0.0"],
    [1532311,"2026-08-08 15:10:00","3356","4.485","166.9","5.422999999999999","168.8","1015.746","29.48","76.39","638.1","0.0"],
    [1532312,"2026-08-08 15:20:00","3357","4.802","165.0","5.39","169.6","1015.591","29.4","76.86","617.4","0.0"],
    [1532313,"2026-08-08 15:30:00","3358","4.463","167.4","5.684","174.0","1015.41","29.5","76.36","590.2","0.0"],
    [1532314,"2026-08-08 15:40:00","3359","3.928","159.5","4.638999999999999","160.4","1015.333","29.37","76.65","560.8","0.0"],
    [1532315,"2026-08-08 15:50:00","3360","3.6310000000000002","165.4","4.345","167.1","1015.266","29.47","75.42","528.3","0.0"],
    [1532316,"2026-08-08 16:00:00","3361","3.627","172.0","4.867","175.0","1015.51","29.63","74.82","495.7","0.0"],
    [1532317,"2026-08-08 16:10:00","3362","3.8339999999999996","181.3","4.606","195.0","1015.709","29.76","74.26","467.3","0.0"],
    [1532318,"2026-08-08 16:20:00","3363","3.661","168.4","4.9","165.0","1015.716","29.59","76.33","418.2","0.0"],
    [1532319,"2026-08-08 16:30:00","3364","4.059","168.3","5.553","164.9","1015.641","29.43","78.03","397.4","0.0"],
    [1532320,"2026-08-08 16:40:00","3365","4.133","171.0","5.1610000000000005","175.4","1015.468","29.39","77.89","292.0","0.0"],
    [1532321,"2026-08-08 16:50:00","3366","3.9930000000000003","175.8","4.671","170.0","1015.506","29.37","77.77","182.6","0.0"],
    [1532322,"2026-08-08 17:00:00","3367","3.995","177.4","5.194","169.2","1015.524","29.45","77.95","204.7","0.0"],
    [1532323,"2026-08-08 17:10:00","3368","4.365","178.2","5.357","178.9","1015.459","29.42","77.63","216.5","0.0"],
    [1532324,"2026-08-08 17:20:00","3369","4.883","174.3","6.0760000000000005","191.5","1015.329","29.22","78.96","147.0","0.0"],
    [1532325,"2026-08-08 17:30:00","3370","4.582","179.4","6.37","170.3","1015.23","29.19","78.6","107.7","0.0"],
    [1532326,"2026-08-08 17:40:00","3371","3.839","186.9","5.684","189.2","1015.201","29.33","76.26","66.65","0.0"],
    [1532327,"2026-08-08 17:50:00","3372","3.179","172.5","3.92","168.4","1015.146","29.24","78.1","48.39","0.0"],
    [1532328,"2026-08-08 18:00:00","3373","3.0","176.6","3.7569999999999997","169.0","1015.076","29.01","78.97","44.7","0.0"],
    [1532329,"2026-08-08 18:10:00","3374","3.228","193.9","4.2139999999999995","191.6","1015.205","29.13","78.46","52.83","0.0"],
    [1532330,"2026-08-08 18:20:00","3375","3.85","189.6","4.4430000000000005","186.5","1015.257","29.13","77.24","47.61","0.0"],
    [1532331,"2026-08-08 18:30:00","3376","3.708","191.1","5.063","186.4","1015.442","29.22","76.75","36.67","0.0"],
    [1532332,"2026-08-08 18:40:00","3377","3.0069999999999997","197.3","4.606","205.9","1015.736","29.37","76.27","24.67","0.0"],
    [1532333,"2026-08-08 18:50:00","3378","2.208","211.2","4.312","206.6","1016.079","29.5","75.17","11.44","0.0"],
    [1532334,"2026-08-08 19:00:00","3379","1.1340000000000001","217.6","3.103","209.3","1016.123","29.41","75.45","2.717","0.0"],
    [1532335,"2026-08-08 19:10:00","3380","2.476","194.1","3.365","194.2","1016.14","29.27","76.45","0.062","0.0"],
    [1532336,"2026-08-08 19:20:00","3381","2.149","193.2","3.659","189.3","1016.149","29.26","75.78","0.0","0.0"],
    [1532337,"2026-08-08 19:30:00","3382","1.042","230.9","2.352","185.7","1016.042","29.25","74.21","0.0","0.0"],
    [1532338,"2026-08-08 19:40:00","3383","2.0269999999999997","173.9","3.397","171.4","1015.934","29.17","77.74","0.0","0.0"],
    [1532339,"2026-08-08 19:50:00","3384","2.88","179.1","3.397","167.8","1015.865","28.71","80.7","0.0","0.0"],
    [1532340,"2026-08-08 20:00:00","3385","2.182","188.5","3.103","194.4","1016.017","28.72","78.85","0.0","0.0"],
    [1532341,"2026-08-08 20:10:00","3386","1.824","195.2","3.071","200.4","1016.191","28.8","78.89","0.0","0.0"],
    [1532342,"2026-08-08 20:20:00","3387","0.28300000000000003","238.3","1.568","276.8","1016.382","28.76","76.53","0.0","0.0"],
    [1532343,"2026-08-08 20:30:00","3388","1.077","218.7","2.287","199.3","1016.344","28.99","75.62","0.0","0.0"],
    [1532344,"2026-08-08 20:40:00","3389","2.657","203.3","3.7569999999999997","206.6","1016.212","29.06","75.42","0.0","0.0"],
    [1532345,"2026-08-08 20:50:00","3390","2.385","209.4","3.6260000000000003","202.4","1016.148","29.05","75.25","0.0","0.0"],
    [1532346,"2026-08-08 21:00:00","3391","1.685","231.5","4.541","260.5","1016.257","29.07","74.79","0.0","0.0"],
    [1532347,"2026-08-08 21:10:00","3392","1.5519999999999998","246.4","3.103","198.0","1016.315","29.05","74.84","0.0","0.0"],
    [1532348,"2026-08-08 21:20:00","3393","1.494","243.9","2.679","262.5","1016.402","28.96","74.63","0.0","0.0"],
    [1532349,"2026-08-08 21:30:00","3394","1.8519999999999999","250.1","3.7569999999999997","270.7","1016.338","28.96","74.65","0.0","0.0"],
    [1532350,"2026-08-08 21:40:00","3395","1.614","245.9","3.463","256.1","1016.336","28.94","74.5","0.0","0.0"],
    [1532351,"2026-08-08 21:50:00","3396","1.682","263.4","2.94","269.7","1016.436","28.88","73.82","0.0","0.0"],
    [1532352,"2026-08-08 22:00:00","3397","1.795","252.2","3.332","250.8","1016.428","28.9","73.54","0.0","0.0"],
    [1532353,"2026-08-08 22:10:00","3398","1.8259999999999998","252.5","3.1689999999999996","263.9","1016.352","28.92","73.33","0.0","0.0"],
    [1532354,"2026-08-08 22:20:00","3399","2.024","271.4","3.463","266.1","1016.383","28.88","73.79","0.0","0.0"],
    [1532355,"2026-08-08 22:30:00","3400","2.299","256.6","3.855","256.8","1016.406","28.84","74.48","0.0","0.0"],
    [1532356,"2026-08-08 22:40:00","3401","1.307","205.9","2.679","193.6","1016.413","28.81","75.31","0.0","0.0"],
    [1532357,"2026-08-08 22:50:00","3402","0.877","205.7","1.895","206.5","1016.488","28.7","76.13","0.0","0.0"],
    [1532358,"2026-08-08 23:00:00","3403","1.3730000000000002","236.3","3.1689999999999996","257.0","1016.59","28.59","75.85","0.0","0.0"],
    [1532359,"2026-08-08 23:10:00","3404","2.056","205.6","3.822","201.2","1016.465","28.63","75.51","0.0","0.0"],
    [1532360,"2026-08-08 23:20:00","3405","2.858","200.6","4.247","196.6","1016.337","28.64","76.09","0.0","0.0"],
    [1532361,"2026-08-08 23:30:00","3406","3.44","197.3","5.031000000000001","196.0","1016.203","28.55","77.17","0.0","0.0"],
    [1532362,"2026-08-08 23:40:00","3407","2.38","205.2","4.181","193.4","1016.173","28.51","77.51","0.0","0.0"],
    [1532363,"2026-08-08 23:50:00","3408","0.43200000000000005","191.0","1.633","203.2","1016.093","28.45","77.4","0.0","0.0"],
    [1532364,"2026-08-09 00:00:00","3409","1.245","207.7","2.45","204.3","1015.927","28.42","77.74","0.0","0.0"],
    [1532365,"2026-08-09 00:10:00","3410","1.483","211.7","2.7110000000000003","210.5","1015.813","28.42","78.15","0.0","0.0"],
    [1532366,"2026-08-09 00:20:00","3411","1.227","216.9","2.907","223.1","1015.837","28.34","77.86","0.0","0.0"],
    [1532367,"2026-08-09 00:30:00","3412","1.105","215.3","2.679","186.9","1015.789","28.32","78.0","0.0","0.0"],
    [1532368,"2026-08-09 00:40:00","3413","0.7509999999999999","244.4","2.417","279.6","1015.847","28.27","78.0","0.0","0.0"],
    [1532369,"2026-08-09 00:50:00","3414","2.977","281.3","4.41","291.1","1016.034","28.2","77.84","0.0","0.0"],
    [1532370,"2026-08-09 01:00:00","3415","2.6","287.8","3.985","279.6","1015.987","28.01","76.65","0.0","0.0"],
    [1532371,"2026-08-09 01:10:00","3416","2.116","288.0","3.593","284.0","1015.875","27.96","76.01","0.0","0.0"],
    [1532372,"2026-08-09 01:20:00","3417","1.456","292.9","2.6460000000000004","320.0","1015.604","27.91","75.98","0.0","0.0"],
    [1532373,"2026-08-09 01:30:00","3418","0.8420000000000001","294.2","1.307","308.4","1015.383","27.86","76.17","0.0","0.0"],
    [1532374,"2026-08-09 01:40:00","3419","1.0190000000000001","286.8","2.0909999999999997","285.7","1015.328","27.78","76.44","0.0","0.0"],
    [1532375,"2026-08-09 01:50:00","3420","0.9540000000000001","319.2","1.535","304.8","1015.199","27.81","76.17","0.0","0.0"],
    [1532376,"2026-08-09 02:00:00","3421","0.953","342.0","1.4369999999999998","343.4","1015.202","27.84","76.95","0.0","0.0"],
    [1532377,"2026-08-09 02:10:00","3422","0.8390000000000001","331.5","1.274","336.2","1015.15","27.71","77.09","0.0","0.0"],
    [1532378,"2026-08-09 02:20:00","3423","0.177","329.0","0.8170000000000001","343.8","1015.163","27.6","76.61","0.0","0.0"],
    [1532379,"2026-08-09 02:30:00","3424","0.6940000000000001","263.6","1.568","259.6","1015.184","27.57","75.94","0.0","0.0"],
    [1532380,"2026-08-09 02:40:00","3425","1.032","254.5","1.3719999999999999","251.5","1015.178","27.75","74.69","0.0","0.0"],
    [1532381,"2026-08-09 02:50:00","3426","0.7070000000000001","243.2","1.307","265.5","1015.278","27.88","74.36","0.0","0.0"],
    [1532382,"2026-08-09 03:00:00","3427","1.4180000000000001","253.8","2.515","263.1","1015.315","27.84","74.18","0.0","0.0"],
    [1532383,"2026-08-09 03:10:00","3428","2.026","275.3","2.9730000000000003","273.5","1015.36","27.64","74.82","0.0","0.0"],
    [1532384,"2026-08-09 03:20:00","3429","2.9160000000000004","277.7","4.9","287.7","1015.616","27.48","75.76","0.0","0.0"],
    [1532385,"2026-08-09 03:30:00","3430","3.3160000000000003","280.9","5.684","286.1","1015.893","27.31","76.29","0.0","0.0"],
    [1532386,"2026-08-09 03:40:00","3431","2.5580000000000003","291.5","3.985","307.1","1015.724","27.38","76.03","0.0","0.0"],
    [1532387,"2026-08-09 03:50:00","3432","2.532","295.1","4.41","298.7","1015.718","27.42","75.89","0.0","0.0"],
    [1532388,"2026-08-09 04:00:00","3433","3.1710000000000003","295.3","4.704","299.9","1015.657","27.42","74.09","0.0","0.0"],
    [1532389,"2026-08-09 04:10:00","3434","2.707","296.3","4.018","284.9","1015.586","27.51","70.36","0.0","0.0"],
    [1532390,"2026-08-09 04:20:00","3435","2.332","290.5","3.495","290.5","1015.568","27.62","67.38","0.0","0.0"],
    [1532391,"2026-08-09 04:30:00","3436","1.5330000000000001","301.6","2.0909999999999997","289.4","1015.476","27.65","66.31","0.0","0.0"],
    [1532392,"2026-08-09 04:40:00","3437","0.636","52.53","1.143","102.8","1015.302","27.69","69.41","0.0","0.0"],
    [1532393,"2026-08-09 04:50:00","3438","1.401","98.4","2.025","106.4","1015.138","27.54","71.19","0.6759999999999999","0.0"],
    [1532394,"2026-08-09 05:00:00","3439","1.37","343.4","2.0909999999999997","308.0","1015.2","27.63","71.48","6.695","0.0"],
    [1532395,"2026-08-09 05:10:00","3440","1.258","355.1","1.9269999999999998","17.79","1015.199","27.51","68.72","15.76","0.0"],
    [1532396,"2026-08-09 05:20:00","3441","0.7909999999999999","25.48","1.9269999999999998","50.09","1015.289","27.74","70.11","34.94","0.0"],
    [1532397,"2026-08-09 05:30:00","3442","0.0","0.0","0.0","0.0","1015.278","27.9","68.48","52.32","0.0"],
    [1532398,"2026-08-09 05:40:00","3443","0.873","124.8","1.4369999999999998","122.0","1015.165","27.94","66.44","63.86","0.0"],
    [1532399,"2026-08-09 05:50:00","3444","1.696","136.9","2.417","132.9","1015.225","27.62","69.02","69.13","0.0"],
    [1532400,"2026-08-09 06:00:00","3445","2.452","126.5","3.005","141.8","1015.168","27.56","70.8","118.0","0.0"],
    [1532401,"2026-08-09 06:10:00","3446","2.162","111.0","3.234","102.0","1015.228","27.68","71.7","150.4","0.0"],
    [1532402,"2026-08-09 06:20:00","3447","1.844","67.05","2.548","28.55","1015.379","27.67","70.92","172.8","0.0"],
    [1532403,"2026-08-09 06:30:00","3448","1.574","43.85","2.483","51.3","1015.436","27.66","68.43","202.6","0.0"],
    [1532404,"2026-08-09 06:40:00","3449","1.192","26.42","1.7309999999999999","39.42","1015.544","27.87","68.05","240.4","0.0"],
    [1532405,"2026-08-09 06:50:00","3450","0.885","354.2","1.2409999999999999","344.9","1015.716","28.03","68.12","274.6","0.0"],
    [1532406,"2026-08-09 07:00:00","3451","0.321","86.8","1.274","126.3","1015.696","28.43","65.33","252.4","0.0"],
    [1532407,"2026-08-09 07:10:00","3452","1.099","128.0","1.3719999999999999","138.6","1015.693","28.4","65.34","332.5","0.0"],
    [1532408,"2026-08-09 07:20:00","3453","0.498","87.2","1.013","115.0","1015.805","29.06","64.28","350.6","0.0"],
    [1532409,"2026-08-09 07:30:00","3454","0.665","41.52","1.2409999999999999","42.19","1015.963","28.85","66.07","284.2","0.0"],
    [1532410,"2026-08-09 07:40:00","3455","0.7979999999999999","36.25","1.405","42.19","1016.01","28.67","66.54","362.8","0.0"],
    [1532411,"2026-08-09 07:50:00","3456","0.9540000000000001","22.25","1.339","8.75","1016.082","28.98","69.37","412.4","0.0"],
    [1532412,"2026-08-09 08:00:00","3457","0.6509999999999999","21.85","1.3719999999999999","2.1790000000000003","1016.11","28.69","70.78","403.4","0.0"],
    [1532413,"2026-08-09 08:10:00","3458","0.795","62.21","1.013","61.34","1016.12","29.09","69.98","515.5","0.0"],
    [1532414,"2026-08-09 08:20:00","3459","0.537","64.16","0.8490000000000001","66.87","1016.1","29.39","71.46","514.0","0.0"],
    [1532415,"2026-08-09 08:30:00","3460","0.9390000000000001","110.4","1.633","161.4","1016.2","29.48","70.21","587.0","0.0"],
    [1532416,"2026-08-09 08:40:00","3461","1.261","129.7","1.764","126.2","1016.197","29.43","70.61","603.0","0.0"],
    [1532417,"2026-08-09 08:50:00","3462","1.545","136.8","2.9730000000000003","134.2","1016.228","29.53","71.15","626.7","0.0"],
    [1532418,"2026-08-09 09:00:00","3463","3.4019999999999997","142.1","4.051","140.0","1016.17","28.82","75.46","649.6","0.0"],
    [1532419,"2026-08-09 09:10:00","3464","2.944","145.8","3.463","147.2","1016.234","28.85","75.12","680.3","0.0"],
    [1532420,"2026-08-09 09:20:00","3465","2.9410000000000003","152.1","3.495","154.0","1016.237","29.24","74.21","705.6","0.0"],
    [1532421,"2026-08-09 09:30:00","3466","3.388","160.2","4.312","169.2","1016.227","29.37","74.58","729.8","0.0"],
    [1532422,"2026-08-09 09:40:00","3467","4.132","164.6","4.4430000000000005","164.2","1016.183","29.32","76.3","687.9","0.0"],
    [1532423,"2026-08-09 09:50:00","3468","3.7230000000000003","162.2","4.051","164.9","1016.205","29.03","77.41","372.7","0.0"],
    [1532424,"2026-08-09 10:00:00","3469","3.6039999999999996","154.6","4.083","159.7","1016.157","29.08","76.43","802.0","0.0"],
    [1532425,"2026-08-09 10:10:00","3470","3.362","157.4","3.822","152.6","1016.191","29.29","75.93","813.0","0.0"],
    [1532426,"2026-08-09 10:20:00","3471","3.5989999999999998","156.0","3.9530000000000003","154.2","1016.177","29.3","75.56","827.0","0.0"],
    [1532427,"2026-08-09 10:30:00","3472","3.283","155.5","3.593","163.2","1016.136","29.36","75.7","840.0","0.0"],
    [1532428,"2026-08-09 10:40:00","3473","2.9810000000000003","152.5","3.495","148.8","1016.133","29.52","74.14","851.0","0.0"],
    [1532429,"2026-08-09 10:50:00","3474","2.8819999999999997","155.6","3.267","154.7","1016.129","29.67","72.41","861.0","0.0"],
    [1532430,"2026-08-09 11:00:00","3475","2.635","152.4","2.9730000000000003","150.3","1016.153","29.85","70.57","868.0","0.0"],
    [1532431,"2026-08-09 11:10:00","3476","2.955","159.3","3.332","166.6","1016.156","30.13","70.22","876.0","0.0"],
    [1532432,"2026-08-09 11:20:00","3477","3.215","159.1","3.5610000000000004","159.5","1016.127","30.09","70.8","881.0","0.0"],
    [1532433,"2026-08-09 11:30:00","3478","2.806","164.8","3.5610000000000004","158.1","1016.108","30.32","69.05","882.0","0.0"],
    [1532434,"2026-08-09 11:40:00","3479","2.8810000000000002","164.9","3.43","164.5","1016.082","30.5","69.36","886.0","0.0"],
    [1532435,"2026-08-09 11:50:00","3480","3.0669999999999997","164.5","3.43","163.1","1016.041","30.25","71.45","889.0","0.0"],
    [1532436,"2026-08-09 12:00:00","3481","3.384","164.0","4.1160000000000005","159.8","1016.023","30.26","71.81","891.0","0.0"],
    [1532437,"2026-08-09 12:10:00","3482","3.27","169.5","3.6260000000000003","170.1","1016.014","30.25","70.17","886.0","0.0"],
    [1532438,"2026-08-09 12:20:00","3483","2.937","165.6","3.299","163.6","1015.972","30.45","69.57","882.0","0.0"],
    [1532439,"2026-08-09 12:30:00","3484","2.821","157.9","3.365","155.1","1015.948","30.39","69.31","877.0","0.0"],
    [1532440,"2026-08-09 12:40:00","3485","3.1919999999999997","160.9","3.659","160.4","1015.865","30.37","68.65","877.0","0.0"],
    [1532441,"2026-08-09 12:50:00","3486","3.6889999999999996","165.3","4.1160000000000005","165.0","1015.796","30.4","68.91","854.0","0.0"],
    [1532442,"2026-08-09 13:00:00","3487","4.05","168.6","4.4430000000000005","169.2","1015.71","30.43","68.39","733.1","0.0"],
    [1532443,"2026-08-09 13:10:00","3488","4.402","163.9","4.933","165.8","1015.634","30.12","70.13","740.4","0.0"],
    [1532444,"2026-08-09 13:20:00","3489","4.3580000000000005","164.5","4.998","162.7","1015.514","30.09","71.97","862.0","0.0"],
    [1532445,"2026-08-09 13:30:00","3490","4.192","170.3","4.573","169.0","1015.476","30.14","71.19","835.0","0.0"],
    [1532446,"2026-08-09 13:40:00","3491","3.595","168.1","4.475","168.8","1015.479","30.4","70.8","601.0","0.0"],
    [1532447,"2026-08-09 13:50:00","3492","3.602","168.3","4.345","173.1","1015.338","30.26","71.52","577.5","0.0"],
    [1532448,"2026-08-09 14:00:00","3493","3.944","167.1","4.638999999999999","161.5","1015.304","30.47","70.03","886.0","0.0"],
    [1532449,"2026-08-09 14:10:00","3494","4.294","165.3","5.096","167.5","1015.143","30.37","70.88","794.8","0.0"],
    [1532450,"2026-08-09 14:20:00","3495","4.63","169.0","5.39","172.1","1015.066","30.34","69.46","726.0","0.0"],
    [1532451,"2026-08-09 14:30:00","3496","4.485","167.0","4.998","167.7","1014.978","30.2","72.38","757.7","0.0"],
    [1532452,"2026-08-09 14:40:00","3497","4.238","170.6","4.933","166.8","1015.01","30.23","72.15","729.9","0.0"],
    [1532453,"2026-08-09 14:50:00","3498","4.623","168.0","5.39","161.3","1014.834","30.19","71.27","699.0","0.0"],
    [1532454,"2026-08-09 15:00:00","3499","4.356","170.7","5.292000000000001","169.9","1014.784","30.05","73.12","674.5","0.0"],
    [1532455,"2026-08-09 15:10:00","3500","3.678","170.0","4.606","177.4","1014.758","30.14","73.13","645.2","0.0"],
    [1532456,"2026-08-09 15:20:00","3501","3.4960000000000004","168.9","4.279","168.3","1014.746","30.08","73.65","619.1","0.0"],
    [1532457,"2026-08-09 15:30:00","3502","3.595","170.9","4.181","172.9","1014.622","30.07","74.35","587.5","0.0"],
    [1532458,"2026-08-09 15:40:00","3503","3.6910000000000003","181.9","4.345","174.8","1014.558","30.35","72.28","559.6","0.0"],
    [1532459,"2026-08-09 15:50:00","3504","3.967","176.3","4.835","174.6","1014.505","30.43","72.25","528.7","0.0"],
    [1532460,"2026-08-09 16:00:00","3505","3.528","171.3","4.671","169.3","1014.484","30.28","70.9","496.1","0.0"],
    [1532461,"2026-08-09 16:10:00","3506","3.4930000000000003","172.3","4.279","177.0","1014.538","30.16","72.01","460.5","0.0"],
    [1532462,"2026-08-09 16:20:00","3507","3.412","173.9","4.1160000000000005","171.2","1014.637","30.32","70.09","431.1","0.0"],
    [1532463,"2026-08-09 16:30:00","3508","3.653","167.5","4.4430000000000005","167.6","1014.644","29.9","73.44","403.4","0.0"],
    [1532464,"2026-08-09 16:40:00","3509","3.705","168.2","4.4430000000000005","173.7","1014.662","29.95","71.92","378.3","0.0"],
    [1532465,"2026-08-09 16:50:00","3510","3.675","167.6","4.671","173.3","1014.651","29.88","72.77","337.5","0.0"],
    [1532466,"2026-08-09 17:00:00","3511","3.676","171.3","4.4430000000000005","172.8","1014.597","29.98","72.6","304.6","0.0"],
    [1532467,"2026-08-09 17:10:00","3512","3.7039999999999997","169.2","4.2139999999999995","167.5","1014.55","29.79","75.26","270.8","0.0"],
    [1532468,"2026-08-09 17:20:00","3513","3.906","169.8","4.4430000000000005","172.8","1014.534","29.49","76.47","232.9","0.0"],
    [1532469,"2026-08-09 17:30:00","3514","3.8280000000000003","169.2","4.345","168.7","1014.51","29.6","75.57","202.6","0.0"],
    [1532470,"2026-08-09 17:40:00","3515","3.9939999999999998","173.9","4.867","174.4","1014.475","29.62","75.92","176.2","0.0"],
    [1532471,"2026-08-09 17:50:00","3516","3.7510000000000003","180.1","4.998","175.8","1014.434","29.76","73.88","137.9","0.0"],
    [1532472,"2026-08-09 18:00:00","3517","4.073","175.5","4.9","171.6","1014.428","29.72","75.09","70.56","0.0"],
    [1532473,"2026-08-09 18:10:00","3518","3.875","176.3","5.031000000000001","172.4","1014.46","29.38","77.75","83.9","0.0"],
    [1532474,"2026-08-09 18:20:00","3519","3.4360000000000004","175.7","4.1160000000000005","170.8","1014.541","29.44","77.65","58.59","0.0"],
    [1532475,"2026-08-09 18:30:00","3520","4.0","169.1","4.802","174.4","1014.371","29.21","78.53","18.47","0.0"],
    [1532476,"2026-08-09 18:40:00","3521","3.174","174.2","3.887","175.1","1014.501","29.24","79.48","8.67","0.0"],
    [1532477,"2026-08-09 18:50:00","3522","3.681","174.7","4.41","172.3","1014.393","29.26","78.57","4.445","0.0"],
    [1532478,"2026-08-09 19:00:00","3523","3.5780000000000003","180.6","4.671","169.2","1014.306","29.32","76.56","1.385","0.0"],
    [1532479,"2026-08-09 19:10:00","3524","3.353","188.4","4.769","189.9","1014.252","29.41","76.61","0.011000000000000001","0.0"],
    [1532480,"2026-08-09 19:20:00","3525","2.8760000000000003","190.3","3.7569999999999997","190.6","1014.173","29.29","78.02","0.0","0.0"],
    [1532481,"2026-08-09 19:30:00","3526","3.112","180.8","4.1160000000000005","171.1","1014.114","29.19","77.97","0.0","0.0"],
    [1532482,"2026-08-09 19:40:00","3527","2.258","181.4","3.43","196.2","1014.327","29.24","78.17","0.0","0.0"],
    [1532483,"2026-08-09 19:50:00","3528","2.367","187.4","3.201","189.3","1014.537","29.07","77.61","0.0","0.0"],
    [1532484,"2026-08-09 20:00:00","3529","2.415","185.6","3.267","194.3","1014.641","29.18","75.53","0.0","0.0"],
    [1532485,"2026-08-09 20:10:00","3530","2.09","184.6","2.6460000000000004","173.6","1014.87","29.32","74.41","0.0","0.0"],
    [1532486,"2026-08-09 20:20:00","3531","1.839","189.6","2.907","182.8","1014.876","29.31","74.01","0.0","0.0"],
    [1532487,"2026-08-09 20:30:00","3532","2.064","169.7","2.548","171.6","1014.855","29.23","76.94","0.0","0.0"],
    [1532488,"2026-08-09 20:40:00","3533","1.3659999999999999","166.1","1.633","153.5","1014.918","28.95","77.83","0.0","0.0"],
    [1532489,"2026-08-09 20:50:00","3534","0.474","183.1","1.3719999999999999","173.6","1014.959","28.8","76.29","0.0","0.0"],
    [1532490,"2026-08-09 21:00:00","3535","0.655","137.9","1.764","140.9","1014.9","28.8","75.11","0.0","0.0"],
    [1532491,"2026-08-09 21:10:00","3536","1.7080000000000002","156.2","1.895","158.4","1014.857","28.89","76.66","0.0","0.0"],
    [1532492,"2026-08-09 21:20:00","3537","1.751","149.5","2.0580000000000003","147.0","1014.812","28.74","79.12","0.0","0.0"],
    [1532493,"2026-08-09 21:30:00","3538","2.06","147.3","2.287","143.5","1014.796","28.45","79.59","0.0","0.0"],
    [1532494,"2026-08-09 21:40:00","3539","1.681","149.9","1.96","149.8","1014.908","28.68","80.6","0.0","0.0"],
    [1532495,"2026-08-09 21:50:00","3540","1.147","127.8","1.4369999999999998","135.9","1014.96","28.37","80.7","0.0","0.0"],
    [1532496,"2026-08-09 22:00:00","3541","0.171","121.9","0.588","120.8","1015.128","28.59","78.99","0.0","0.0"],
    [1532497,"2026-08-09 22:10:00","3542","0.624","312.8","1.209","305.1","1015.162","28.59","78.03","0.0","0.0"],
    [1532498,"2026-08-09 22:20:00","3543","0.315","31.31","0.555","13.17","1015.213","28.5","78.96","0.0","0.0"],
    [1532499,"2026-08-09 22:30:00","3544","0.276","126.6","0.98","131.5","1015.191","28.39","79.27","0.0","0.0"],
    [1532500,"2026-08-09 22:40:00","3545","0.516","159.9","1.2409999999999999","125.0","1015.222","28.49","79.89","0.0","0.0"],
    [1532501,"2026-08-09 22:50:00","3546","0.365","299.1","0.8490000000000001","312.0","1015.258","28.32","78.97","0.0","0.0"],
    [1532502,"2026-08-09 23:00:00","3547","0.45299999999999996","311.4","1.2409999999999999","320.9","1015.149","28.37","78.26","0.0","0.0"],
    [1532503,"2026-08-09 23:10:00","3548","0.239","331.0","1.013","324.0","1015.157","28.49","77.16","0.0","0.0"],
    [1532504,"2026-08-09 23:20:00","3549","0.0","0.0","0.0","0.0","1015.108","28.59","78.65","0.0","0.0"],
    [1532505,"2026-08-09 23:30:00","3550","0.092","96.2","0.49","91.1","1015.057","28.38","79.08","0.0","0.0"],
    [1532506,"2026-08-09 23:40:00","3551","0.695","106.2","0.98","101.6","1015.062","28.33","78.95","0.0","0.0"],
    [1532507,"2026-08-09 23:50:00","3552","0.792","115.2","0.9470000000000001","114.2","1015.069","28.4","80.1","0.0","0.0"],
    [1532508,"2026-08-10 00:00:00","3553","0.59","104.8","0.8490000000000001","105.8","1015.081","28.31","80.9","0.0","0.0"],
    [1532509,"2026-08-10 00:10:00","3554","0.599","100.8","0.8170000000000001","96.5","1015.073","28.27","80.7","0.0","0.0"],
    [1532510,"2026-08-10 00:20:00","3555","0.619","72.81","1.111","69.46","1014.98","28.27","80.8","0.0","0.0"],
    [1532511,"2026-08-10 00:30:00","3556","1.328","46.15","1.993","33.73","1014.843","28.24","80.4","0.0","0.0"],
    [1532512,"2026-08-10 00:40:00","3557","2.0340000000000003","32.44","2.613","34.09","1014.687","28.25","82.2","0.0","0.0"],
    [1532513,"2026-08-10 00:50:00","3558","2.549","31.24","2.842","31.31","1014.737","28.13","81.1","0.0","0.0"],
    [1532514,"2026-08-10 01:00:00","3559","2.5610000000000004","32.07","2.842","32.79","1014.696","28.2","79.48","0.0","0.0"],
    [1532515,"2026-08-10 01:10:00","3560","2.082","24.48","2.548","19.83","1014.682","28.13","80.2","0.0","0.0"],
    [1532516,"2026-08-10 01:20:00","3561","2.206","30.31","2.7439999999999998","22.47","1014.623","28.08","79.19","0.0","0.0"],
    [1532517,"2026-08-10 01:30:00","3562","2.233","25.54","2.679","21.64","1014.648","28.0","78.1","0.0","0.0"],
    [1532518,"2026-08-10 01:40:00","3563","1.8530000000000002","38.23","2.189","34.12","1014.643","28.09","76.34","0.0","0.0"],
    [1532519,"2026-08-10 01:50:00","3564","1.8359999999999999","40.94","2.385","42.59","1014.634","28.19","76.29","0.0","0.0"],
    [1532520,"2026-08-10 02:00:00","3565","2.0469999999999997","19.73","2.94","24.93","1014.729","28.08","77.64","0.0","0.0"],
    [1532521,"2026-08-10 02:10:00","3566","2.8369999999999997","30.67","3.136","28.29","1014.643","27.94","77.62","0.0","0.0"],
    [1532522,"2026-08-10 02:20:00","3567","2.394","35.96","2.94","36.61","1014.661","28.12","75.39","0.0","0.0"],
    [1532523,"2026-08-10 02:30:00","3568","3.174","22.82","3.985","20.17","1014.736","28.02","76.19","0.0","0.0"],
    [1532524,"2026-08-10 02:40:00","3569","2.775","22.94","3.397","19.73","1014.82","27.83","77.09","0.0","0.0"],
    [1532525,"2026-08-10 02:50:00","3570","3.4539999999999997","19.49","3.985","18.58","1014.889","27.74","77.93","0.0","0.0"],
    [1532526,"2026-08-10 03:00:00","3571","3.197","17.86","4.051","17.45","1014.942","27.72","77.75","0.0","0.0"],
    [1532527,"2026-08-10 03:10:00","3572","3.4130000000000003","16.81","4.1160000000000005","17.72","1014.965","27.63","77.89","0.0","0.0"],
    [1532528,"2026-08-10 03:20:00","3573","4.121","18.43","4.965","26.58","1014.946","27.62","77.45","0.0","0.0"],
    [1532529,"2026-08-10 03:30:00","3574","3.9930000000000003","18.97","4.965","25.41","1015.089","27.61","77.43","0.0","0.0"],
    [1532530,"2026-08-10 03:40:00","3575","4.54","26.87","6.109","30.13","1015.191","27.68","76.18","0.0","0.0"],
    [1532531,"2026-08-10 03:50:00","3576","4.592","15.44","7.35","335.8","1015.209","27.77","75.12","0.0","0.0"],
    [1532532,"2026-08-10 04:00:00","3577","4.942","20.91","6.37","22.52","1015.192","27.64","77.39","0.0","0.0"],
    [1532533,"2026-08-10 04:10:00","3578","5.125","33.65","6.631","39.16","1015.231","27.65","79.81","0.0","0.0"],
    [1532534,"2026-08-10 04:20:00","3579","5.997000000000001","44.55","7.742000000000001","40.21","1015.204","27.81","80.2","0.0","0.0"],
    [1532535,"2026-08-10 04:30:00","3580","6.428999999999999","47.39","10.06","43.19","1015.302","28.16","72.59","0.0","0.0"],
    [1532536,"2026-08-10 04:40:00","3581","7.604","62.13","10.06","51.99","1015.38","28.21","75.34","0.0","0.0"],
    [1532537,"2026-08-10 04:50:00","3582","7.82","66.95","11.14","69.72","1015.389","28.16","70.59","0.042","0.0"],
    [1532538,"2026-08-10 05:00:00","3583","6.962000000000001","48.89","10.06","56.85","1015.47","28.21","71.86","2.911","0.0"],
    [1532539,"2026-08-10 05:10:00","3584","7.479","52.4","10.52","48.48","1015.563","28.07","71.88","9.97","0.0"],
    [1532540,"2026-08-10 05:20:00","3585","8.27","51.21","10.62","58.14","1015.63","27.85","77.07","23.46","0.0"],
    [1532541,"2026-08-10 05:30:00","3586","7.832999999999999","52.88","10.32","55.57","1015.617","27.54","80.5","41.85","0.0"],
    [1532542,"2026-08-10 05:40:00","3587","7.784","49.9","10.36","52.78","1015.58","27.5","82.9","66.74","0.0"],
    [1532543,"2026-08-10 05:50:00","3588","8.04","50.76","10.42","55.58","1015.603","27.42","83.7","80.2","0.0"],
    [1532544,"2026-08-10 06:00:00","3589","7.727","52.97","10.32","44.56","1015.599","27.44","83.7","77.54","0.0"],
    [1532545,"2026-08-10 06:10:00","3590","7.292000000000001","52.44","9.44","51.4","1015.66","27.4","83.9","121.1","0.0"],
    [1532546,"2026-08-10 06:20:00","3591","6.358","50.31","8.53","46.94","1015.885","27.42","83.9","156.1","0.0"],
    [1532547,"2026-08-10 06:30:00","3592","5.775","45.25","8.43","51.08","1015.946","27.44","83.3","180.3","0.0"],
    [1532548,"2026-08-10 06:40:00","3593","5.5760000000000005","53.79","7.807","59.66","1015.926","27.48","82.8","213.3","0.0"],
    [1532549,"2026-08-10 06:50:00","3594","5.652","51.55","7.513","56.16","1016.063","27.57","81.5","248.4","0.0"],
    [1532550,"2026-08-10 07:00:00","3595","5.724","42.91","7.121","36.12","1016.181","27.55","80.4","279.8","0.0"],
    [1532551,"2026-08-10 07:10:00","3596","5.718","42.83","7.382999999999999","39.65","1016.357","27.59","78.85","315.3","0.0"],
    [1532552,"2026-08-10 07:20:00","3597","4.76","48.45","6.1739999999999995","37.64","1016.537","27.73","77.95","353.5","0.0"],
    [1532553,"2026-08-10 07:30:00","3598","4.838","56.95","6.141","53.4","1016.618","27.94","76.1","421.2","0.0"],
    [1532554,"2026-08-10 07:40:00","3599","5.355","54.65","7.0889999999999995","57.3","1016.332","28.08","74.16","445.7","0.0"],
    [1532555,"2026-08-10 07:50:00","3600","5.2010000000000005","44.38","6.697","49.93","1016.258","27.95","75.94","204.8","0.0"],
    [1532556,"2026-08-10 08:00:00","3601","3.5260000000000002","45.52","5.194","41.56","1016.566","27.87","76.49","150.1","0.0"],
    [1532557,"2026-08-10 08:10:00","3602","2.439","44.36","3.593","17.93","1016.691","27.92","76.08","213.3","0.0"],
    [1532558,"2026-08-10 08:20:00","3603","3.944","63.37","5.39","55.47","1016.399","28.22","74.0","545.0","0.0"],
    [1532559,"2026-08-10 08:30:00","3604","3.2960000000000003","58.9","5.227","70.18","1016.369","28.41","73.04","567.7","0.0"],
    [1532560,"2026-08-10 08:40:00","3605","3.042","55.67","4.018","49.95","1016.434","28.55","72.84","599.2","0.0"],
    [1532561,"2026-08-10 08:50:00","3606","3.011","66.27","4.1160000000000005","80.6","1016.464","28.62","71.6","629.6","0.0"],
    [1532562,"2026-08-10 09:00:00","3607","3.613","68.87","4.769","82.5","1016.411","28.67","71.12","657.9","0.0"],
    [1532563,"2026-08-10 09:10:00","3608","4.022","77.26","5.422999999999999","82.4","1016.551","28.8","68.87","679.8","0.0"],
    [1532564,"2026-08-10 09:20:00","3609","5.192","87.3","7.252000000000001","85.2","1016.553","29.02","67.0","701.4","0.0"],
    [1532565,"2026-08-10 09:30:00","3610","5.957000000000001","86.3","7.775","90.5","1016.476","28.96","66.96","724.4","0.0"],
    [1532566,"2026-08-10 09:40:00","3611","5.59","86.8","7.546","82.2","1016.573","28.91","66.06","752.3","0.0"],
    [1532567,"2026-08-10 09:50:00","3612","5.079","91.3","6.9910000000000005","96.8","1016.709","28.98","65.92","761.0","0.0"],
    [1532568,"2026-08-10 10:00:00","3613","4.535","95.3","6.207000000000001","88.9","1016.733","28.98","67.22","783.6","0.0"],
    [1532569,"2026-08-10 10:10:00","3614","4.482","95.8","5.651","93.0","1016.765","28.99","66.55","810.0","0.0"],
    [1532570,"2026-08-10 10:20:00","3615","4.8389999999999995","103.0","6.5329999999999995","105.0","1016.827","29.01","66.83","840.0","0.0"],
    [1532571,"2026-08-10 10:30:00","3616","4.668","100.0","6.337000000000001","99.4","1016.832","29.02","67.35","851.0","0.0"],
    [1532572,"2026-08-10 10:40:00","3617","4.551","100.5","6.207000000000001","104.3","1016.945","29.0","68.53","867.0","0.0"],
    [1532573,"2026-08-10 10:50:00","3618","4.2410000000000005","102.8","5.553","114.9","1016.947","28.97","69.9","866.0","0.0"],
    [1532574,"2026-08-10 11:00:00","3619","4.224","100.1","5.586","105.7","1016.963","29.0","68.9","874.0","0.0"],
    [1532575,"2026-08-10 11:10:00","3620","4.256","100.9","5.88","103.6","1016.915","29.21","68.5","880.0","0.0"],
    [1532576,"2026-08-10 11:20:00","3621","4.736000000000001","99.0","6.599","98.3","1016.799","29.22","66.54","887.0","0.0"],
    [1532577,"2026-08-10 11:30:00","3622","4.237","100.7","5.912999999999999","98.2","1016.813","29.29","66.24","893.0","0.0"],
    [1532578,"2026-08-10 11:40:00","3623","4.165","96.0","5.586","91.8","1016.824","29.39","64.96","895.0","0.0"],
    [1532579,"2026-08-10 11:50:00","3624","4.035","94.5","5.227","93.9","1016.802","29.45","65.28","895.0","0.0"],
    [1532580,"2026-08-10 12:00:00","3625","4.1339999999999995","95.9","5.619","96.4","1016.697","29.52","65.83","892.0","0.0"],
    [1532581,"2026-08-10 12:10:00","3626","4.516","92.2","5.88","94.0","1016.7","29.53","65.59","891.0","0.0"],
    [1532582,"2026-08-10 12:20:00","3627","4.497","95.3","6.729","92.5","1016.663","29.5","66.77","886.0","0.0"],
    [1532583,"2026-08-10 12:30:00","3628","5.252000000000001","98.2","7.023","99.8","1016.543","29.3","69.16","883.0","0.0"],
    [1532584,"2026-08-10 12:40:00","3629","5.367999999999999","98.7","6.631","99.8","1016.464","29.13","72.23","883.0","0.0"],
    [1532585,"2026-08-10 12:50:00","3630","5.329","95.8","7.0889999999999995","93.6","1016.338","29.01","72.99","893.0","0.0"],
    [1532586,"2026-08-10 13:00:00","3631","4.512","98.9","6.501","102.9","1016.339","29.13","73.49","891.0","0.0"],
    [1532587,"2026-08-10 13:10:00","3632","5.337000000000001","102.8","7.0889999999999995","99.2","1016.281","29.04","73.62","863.0","0.0"],
    [1532588,"2026-08-10 13:20:00","3633","5.083","98.4","6.305","107.8","1016.295","28.93","74.76","836.0","0.0"],
    [1532589,"2026-08-10 13:30:00","3634","5.099","97.9","6.599","95.2","1016.284","28.82","75.87","785.4","0.0"],
    [1532590,"2026-08-10 13:40:00","3635","4.311","98.6","6.011","100.1","1016.262","28.82","76.02","739.8","0.0"],
    [1532591,"2026-08-10 13:50:00","3636","4.831","102.2","6.305","88.9","1016.243","28.72","76.22","795.3","0.0"],
    [1532592,"2026-08-10 14:00:00","3637","4.6160000000000005","109.6","5.586","119.1","1016.272","28.56","77.24","779.5","0.0"],
    [1532593,"2026-08-10 14:10:00","3638","4.422","116.5","5.7170000000000005","116.4","1016.213","28.49","78.2","753.1","0.0"],
    [1532594,"2026-08-10 14:20:00","3639","3.687","118.4","4.671","119.3","1016.2","28.47","79.06","748.7","0.0"],
    [1532595,"2026-08-10 14:30:00","3640","3.266","115.7","4.181","126.5","1016.131","28.44","79.56","654.4","0.0"],
    [1532596,"2026-08-10 14:40:00","3641","4.0","111.3","5.325","102.8","1015.97","28.36","79.49","720.0","0.0"],
    [1532597,"2026-08-10 14:50:00","3642","3.752","102.7","4.769","101.2","1015.928","28.34","80.5","686.4","0.0"],
    [1532598,"2026-08-10 15:00:00","3643","3.6310000000000002","103.8","4.573","100.0","1015.941","28.3","81.0","658.9","0.0"],
    [1532599,"2026-08-10 15:10:00","3644","3.7560000000000002","104.8","4.671","116.6","1015.824","28.23","81.3","530.9","0.0"],
    [1532600,"2026-08-10 15:20:00","3645","3.404","93.1","4.345","88.7","1015.719","28.21","81.5","611.6","0.0"],
    [1532601,"2026-08-10 15:30:00","3646","3.051","95.0","4.2139999999999995","95.1","1015.657","28.29","81.7","572.2","0.0"],
    [1532602,"2026-08-10 15:40:00","3647","3.5389999999999997","83.6","4.606","81.1","1015.398","28.22","82.0","548.9","0.0"],
    [1532603,"2026-08-10 15:50:00","3648","2.967","81.1","4.541","79.41","1015.27","28.27","81.3","529.5","0.0"],
    [1532604,"2026-08-10 16:00:00","3649","3.333","79.14","4.41","84.6","1015.268","28.23","81.7","492.0","0.0"],
    [1532605,"2026-08-10 16:10:00","3650","2.878","81.4","3.822","76.65","1015.367","28.21","81.5","424.7","0.0"],
    [1532606,"2026-08-10 16:20:00","3651","3.162","89.3","4.377","87.7","1015.345","28.17","81.9","327.0","0.0"],
    [1532607,"2026-08-10 16:30:00","3652","2.532","86.3","4.018","104.3","1015.408","28.28","81.9","340.9","0.0"],
    [1532608,"2026-08-10 16:40:00","3653","2.439","82.0","3.397","92.1","1015.569","28.27","82.4","225.0","0.0"],
    [1532609,"2026-08-10 16:50:00","3654","2.2569999999999997","99.1","3.1689999999999996","92.2","1015.746","28.22","83.2","159.3","0.0"],
    [1532610,"2026-08-10 17:00:00","3655","1.865","104.8","2.7439999999999998","95.4","1015.872","28.22","83.4","130.2","0.0"],
    [1532611,"2026-08-10 17:10:00","3656","1.909","97.3","2.679","85.9","1015.713","28.23","83.6","112.6","0.0"],
    [1532612,"2026-08-10 17:20:00","3657","2.469","102.7","3.528","118.0","1015.557","28.22","83.7","78.92","0.0"],
    [1532613,"2026-08-10 17:30:00","3658","2.47","88.2","3.43","76.85","1015.21","28.19","83.9","77.22","0.0"],
    [1532614,"2026-08-10 17:40:00","3659","2.588","94.3","3.5610000000000004","102.4","1015.306","28.17","83.7","71.98","0.0"],
    [1532615,"2026-08-10 17:50:00","3660","2.563","79.67","3.267","74.66","1015.393","28.19","83.5","63.19","0.0"],
    [1532616,"2026-08-10 18:00:00","3661","2.443","103.0","3.1689999999999996","92.2","1015.469","28.18","83.7","52.34","0.0"],
    [1532617,"2026-08-10 18:10:00","3662","2.128","92.2","3.136","103.1","1015.532","28.19","83.7","38.95","0.0"],
    [1532618,"2026-08-10 18:20:00","3663","2.407","118.3","3.267","130.1","1015.678","28.2","83.3","26.41","0.0"],
    [1532619,"2026-08-10 18:30:00","3664","2.03","122.7","2.875","111.6","1015.696","28.2","84.2","15.17","0.0"],
    [1532620,"2026-08-10 18:40:00","3665","2.244","99.7","3.0380000000000003","110.8","1015.635","28.16","84.5","7.856","0.0"],
    [1532621,"2026-08-10 18:50:00","3666","1.588","90.5","2.385","87.6","1015.823","28.17","84.5","2.932","0.0"],
    [1532622,"2026-08-10 19:00:00","3667","1.169","96.1","1.895","99.7","1015.889","28.17","84.2","0.172","0.0"],
    [1532623,"2026-08-10 19:10:00","3668","0.963","80.2","1.666","91.6","1015.995","28.2","84.2","0.0","0.0"],
    [1532624,"2026-08-10 19:20:00","3669","0.779","33.51","1.47","47.67","1015.997","28.19","84.3","0.0","0.0"],
    [1532625,"2026-08-10 19:30:00","3670","0.833","57.39","1.797","32.97","1016.075","28.17","84.7","0.0","0.0"],
    [1532626,"2026-08-10 19:40:00","3671","0.39299999999999996","114.3","1.176","119.4","1016.107","28.19","84.5","0.0","0.0"],
    [1532627,"2026-08-10 19:50:00","3672","1.163","65.5","1.797","47.75","1016.02","28.15","85.0","0.0","0.0"],
    [1532628,"2026-08-10 20:00:00","3673","1.665","42.3","2.123","28.45","1016.051","28.08","85.1","0.0","0.0"],
    [1532629,"2026-08-10 20:10:00","3674","1.4380000000000002","43.24","2.417","50.77","1016.257","28.04","85.1","0.0","0.0"],
    [1532630,"2026-08-10 20:20:00","3675","1.1420000000000001","78.01","1.764","59.45","1016.523","28.08","84.7","0.0","0.0"],
    [1532631,"2026-08-10 20:30:00","3676","1.655","96.0","2.319","97.5","1016.77","28.11","84.3","0.0","0.0"],
    [1532632,"2026-08-10 20:40:00","3677","1.7519999999999998","135.9","2.417","132.6","1017.151","28.17","84.2","0.0","0.0"],
    [1532633,"2026-08-10 20:50:00","3678","2.156","140.2","2.679","147.4","1017.311","28.22","84.6","0.0","0.0"],
    [1532634,"2026-08-10 21:00:00","3679","1.3630000000000002","115.3","1.96","131.4","1017.399","28.18","84.7","0.0","0.0"],
    [1532635,"2026-08-10 21:10:00","3680","0.929","112.5","1.339","95.1","1017.473","28.23","84.8","0.0","0.0"],
    [1532636,"2026-08-10 21:20:00","3681","1.29","141.6","2.287","164.3","1017.465","28.3","85.2","0.0","0.0"],
    [1532637,"2026-08-10 21:30:00","3682","1.7530000000000001","160.6","2.515","160.4","1017.384","28.47","84.7","0.0","0.0"],
    [1532638,"2026-08-10 21:40:00","3683","0.045","140.0","0.392","156.5","1017.013","28.39","84.2","0.0","0.0"],
    [1532639,"2026-08-10 21:50:00","3684","0.043","224.3","0.588","233.7","1016.963","28.49","83.8","0.0","0.0"],
    [1532640,"2026-08-10 22:00:00","3685","0.209","97.9","0.621","79.08","1016.977","28.44","82.9","0.0","0.0"],
    [1532641,"2026-08-10 22:10:00","3686","0.625","104.4","1.176","118.1","1016.882","28.41","82.2","0.0","0.0"],
    [1532642,"2026-08-10 22:20:00","3687","0.727","78.06","1.274","51.0","1016.764","28.46","81.4","0.0","0.0"],
    [1532643,"2026-08-10 22:30:00","3688","1.882","64.78","3.071","33.26","1016.635","28.58","82.3","0.0","0.0"],
    [1532644,"2026-08-10 22:40:00","3689","2.57","21.0","3.397","25.46","1016.388","28.43","84.3","0.0","0.0"],
    [1532645,"2026-08-10 22:50:00","3690","4.324","14.77","5.096","14.97","1015.987","28.28","85.1","0.0","0.0"],
    [1532646,"2026-08-10 23:00:00","3691","3.755","17.45","4.769","13.9","1015.825","28.2","85.2","0.0","0.0"],
    [1532647,"2026-08-10 23:10:00","3692","3.516","12.95","4.247","15.78","1015.636","28.24","84.2","0.0","0.0"],
    [1532648,"2026-08-10 23:20:00","3693","4.414","348.9","6.925","358.3","1015.363","28.42","79.85","0.0","0.0"],
    [1532649,"2026-08-10 23:30:00","3694","4.8469999999999995","352.5","6.827000000000001","351.0","1015.002","28.6","75.93","0.0","0.0"],
    [1532650,"2026-08-10 23:40:00","3695","3.8339999999999996","336.3","5.651","358.6","1014.528","28.61","75.31","0.0","0.0"],
    [1532651,"2026-08-10 23:50:00","3696","1.556","38.06","3.1689999999999996","328.8","1014.383","28.65","73.34","0.0","0.0"],
    [1532652,"2026-08-11 00:00:00","3697","2.443","53.17","3.6910000000000003","48.73","1014.381","28.84","70.83","0.0","0.0"],
    [1532653,"2026-08-11 00:10:00","3698","2.6489999999999996","45.07","4.541","23.82","1014.369","28.93","70.19","0.0","0.0"],
    [1532654,"2026-08-11 00:20:00","3699","3.383","48.01","5.194","61.88","1014.427","28.84","68.1","0.0","0.0"],
    [1532655,"2026-08-11 00:30:00","3700","6.558","59.22","10.22","70.39","1014.639","28.69","69.15","0.177","0.0"],
    [1532656,"2026-08-11 00:40:00","3701","6.574","41.75","8.3","39.8","1014.684","28.38","68.48","0.048","0.0"],
    [1532657,"2026-08-11 00:50:00","3702","5.207999999999999","34.59","7.056","29.68","1014.598","28.63","70.68","0.0","0.0"],
    [1532658,"2026-08-11 01:00:00","3703","4.376","27.91","5.847","24.31","1014.661","28.44","76.25","0.0","0.0"],
    [1532659,"2026-08-11 01:10:00","3704","3.1460000000000004","59.93","4.802","40.69","1014.702","28.39","78.19","0.0","0.0"],
    [1532660,"2026-08-11 01:20:00","3705","3.1430000000000002","73.06","4.1160000000000005","74.6","1014.471","28.45","75.13","0.0","0.0"],
    [1532661,"2026-08-11 01:30:00","3706","2.859","42.42","4.41","59.62","1014.233","28.47","76.33","0.0","0.0"],
    [1532662,"2026-08-11 01:40:00","3707","2.472","28.23","3.005","21.54","1014.192","28.33","76.75","0.0","0.0"],
    [1532663,"2026-08-11 01:50:00","3708","0.583","222.2","1.699","35.09","1014.442","28.39","76.21","0.0","0.0"],
    [1532664,"2026-08-11 02:00:00","3709","2.285","267.1","4.247","250.9","1014.762","28.01","68.9","0.016","0.0"],
    [1532665,"2026-08-11 02:10:00","3710","1.0859999999999999","290.6","2.5810000000000004","297.3","1014.836","27.85","64.58","0.0","0.0"],
    [1532666,"2026-08-11 02:20:00","3711","1.004","153.6","1.895","138.0","1015.245","28.03","64.16","0.0","0.0"],
    [1532667,"2026-08-11 02:30:00","3712","0.501","303.7","1.601","335.3","1015.153","28.17","64.19","0.0","0.0"],
    [1532668,"2026-08-11 02:40:00","3713","0.845","11.03","2.0580000000000003","338.4","1015.131","28.23","66.99","0.0","0.0"],
    [1532669,"2026-08-11 02:50:00","3714","1.0590000000000002","38.7","2.45","32.42","1015.196","28.26","67.67","0.0","0.0"],
    [1532670,"2026-08-11 03:00:00","3715","1.6340000000000001","81.5","2.679","65.79","1015.203","28.69","71.65","0.0","0.0"],
    [1532671,"2026-08-11 03:10:00","3716","1.865","34.14","3.136","32.65","1015.284","28.63","72.96","0.0","0.0"],
    [1532672,"2026-08-11 03:20:00","3717","2.009","5.274","2.7110000000000003","4.386","1015.294","28.36","73.38","0.0","0.0"],
    [1532673,"2026-08-11 03:30:00","3718","2.28","267.0","2.875","259.0","1015.372","27.48","66.1","0.0","0.0"],
    [1532674,"2026-08-11 03:40:00","3719","2.293","267.3","3.005","262.7","1015.453","27.58","65.05","0.0","0.0"],
    [1532675,"2026-08-11 03:50:00","3720","1.849","263.7","2.45","263.3","1015.587","27.6","64.79","0.0","0.0"],
    [1532676,"2026-08-11 04:00:00","3721","1.966","279.6","2.5810000000000004","284.1","1015.581","27.57","65.33","0.0","0.0"],
    [1532677,"2026-08-11 04:10:00","3722","1.944","277.6","2.7769999999999997","281.4","1015.675","27.57","64.91","0.0","0.0"],
    [1532678,"2026-08-11 04:20:00","3723","2.388","293.5","3.299","299.8","1015.739","27.75","64.0","0.0","0.0"],
    [1532679,"2026-08-11 04:30:00","3724","1.558","305.4","2.613","307.1","1015.7","27.87","64.38","0.0","0.0"],
    [1532680,"2026-08-11 04:40:00","3725","1.128","6.479","3.463","25.63","1015.827","27.87","65.15","0.0","0.0"],
    [1532681,"2026-08-11 04:50:00","3726","2.531","23.44","3.201","32.76","1015.912","28.34","63.55","0.0","0.0"],
    [1532682,"2026-08-11 05:00:00","3727","2.792","20.69","3.659","24.17","1016.025","28.1","65.69","2.54","0.0"],
    [1532683,"2026-08-11 05:10:00","3728","1.7469999999999999","21.25","2.7439999999999998","17.78","1016.134","28.07","64.26","11.4","0.0"],
    [1532684,"2026-08-11 05:20:00","3729","1.686","35.65","2.254","31.16","1016.439","28.03","66.97","20.79","0.0"],
    [1532685,"2026-08-11 05:30:00","3730","2.029","20.18","3.0380000000000003","13.14","1016.689","28.02","67.88","28.89","0.0"],
    [1532686,"2026-08-11 05:40:00","3731","2.274","11.46","3.365","0.664","1016.642","27.99","67.61","43.53","0.0"],
    [1532687,"2026-08-11 05:50:00","3732","2.8160000000000003","9.56","3.6910000000000003","14.02","1016.719","27.92","69.23","68.88","0.0"],
    [1532688,"2026-08-11 06:00:00","3733","1.713","11.75","2.221","11.93","1016.777","28.02","69.34","126.7","0.0"],
    [1532689,"2026-08-11 06:10:00","3734","2.217","19.94","3.822","46.53","1016.858","28.17","69.28","160.7","0.0"],
    [1532690,"2026-08-11 06:20:00","3735","3.74","48.88","8.66","37.61","1016.894","28.41","69.03","117.1","0.0"],
    [1532691,"2026-08-11 06:30:00","3736","4.937","35.57","8.17","38.68","1017.042","28.34","70.0","188.1","0.0"],
    [1532692,"2026-08-11 06:40:00","3737","4.5680000000000005","30.89","5.978","29.73","1017.12","28.31","71.69","231.6","0.0"],
    [1532693,"2026-08-11 06:50:00","3738","5.827000000000001","46.18","7.579","49.62","1017.118","28.34","78.44","192.9","0.0"],
    [1532694,"2026-08-11 07:00:00","3739","6.081","48.95","7.807","44.96","1017.075","28.07","82.0","190.1","0.0"],
    [1532695,"2026-08-11 07:10:00","3740","5.742999999999999","46.4","7.611000000000001","40.38","1017.147","28.05","82.5","265.8","0.0"],
    [1532696,"2026-08-11 07:20:00","3741","5.707000000000001","47.9","8.0","44.91","1017.302","28.2","79.86","331.5","0.0"],
    [1532697,"2026-08-11 07:30:00","3742","6.523","51.28","8.2","62.46","1017.39","28.11","76.43","380.8","0.0"],
    [1532698,"2026-08-11 07:40:00","3743","7.005","47.92","8.59","51.27","1017.421","28.06","75.3","409.7","0.0"],
    [1532699,"2026-08-11 07:50:00","3744","7.018","48.7","8.53","38.27","1017.441","27.95","77.57","445.6","0.0"],
    [1532700,"2026-08-11 08:00:00","3745","6.19","45.9","8.2","50.28","1017.541","27.93","77.12","455.7","0.0"],
    [1532701,"2026-08-11 08:10:00","3746","5.5329999999999995","46.31","7.742000000000001","51.31","1017.662","28.06","76.5","261.4","0.0"],
    [1532702,"2026-08-11 08:20:00","3747","6.247000000000001","48.52","8.23","53.22","1017.744","27.88","78.64","345.7","0.0"],
    [1532703,"2026-08-11 08:30:00","3748","6.095","45.82","9.11","46.41","1017.821","27.82","77.77","452.7","0.0"],
    [1532704,"2026-08-11 08:40:00","3749","4.578","42.47","8.17","27.8","1017.847","27.85","78.06","566.0","0.0"],
    [1532705,"2026-08-11 08:50:00","3750","4.531000000000001","44.69","7.938","50.28","1017.89","27.9","77.53","587.8","0.0"],
    [1532706,"2026-08-11 09:00:00","3751","4.609","40.64","8.4","48.53","1017.964","27.85","77.72","650.1","0.0"],
    [1532707,"2026-08-11 09:10:00","3752","4.958","48.96","6.337000000000001","44.39","1017.854","27.76","77.66","671.6","0.0"],
    [1532708,"2026-08-11 09:20:00","3753","4.886","50.31","6.042999999999999","45.58","1017.797","27.76","77.74","684.1","0.0"],
    [1532709,"2026-08-11 09:30:00","3754","4.387","47.26","5.684","50.56","1017.816","27.79","78.23","712.4","0.0"],
    [1532710,"2026-08-11 09:40:00","3755","3.9219999999999997","40.81","6.337000000000001","35.35","1017.891","27.88","78.58","759.3","0.0"],
    [1532711,"2026-08-11 09:50:00","3756","3.6189999999999998","40.59","6.011","40.04","1017.841","27.93","78.13","787.0","0.0"],
    [1532712,"2026-08-11 10:00:00","3757","3.86","46.03","5.39","45.15","1017.855","27.87","78.1","727.7","0.0"],
    [1532713,"2026-08-11 10:10:00","3758","3.6069999999999998","40.73","5.455","44.99","1017.79","27.95","78.01","783.4","0.0"],
    [1532714,"2026-08-11 10:20:00","3759","3.1010000000000004","38.49","5.7170000000000005","41.6","1017.823","28.14","77.37","799.5","0.0"],
    [1532715,"2026-08-11 10:30:00","3760","2.4859999999999998","37.32","4.606","39.3","1017.954","28.25","76.76","820.0","0.0"],
    [1532716,"2026-08-11 10:40:00","3761","2.167","54.6","3.887","23.57","1017.95","28.48","74.93","832.0","0.0"],
    [1532717,"2026-08-11 10:50:00","3762","2.685","88.2","4.737","92.2","1017.911","28.5","75.39","851.0","0.0"],
    [1532718,"2026-08-11 11:00:00","3763","3.4139999999999997","91.9","4.737","86.2","1017.877","28.23","76.68","843.0","0.0"],
    [1532719,"2026-08-11 11:10:00","3764","2.86","89.2","4.606","78.91","1017.769","28.37","75.91","827.0","0.0"],
    [1532720,"2026-08-11 11:20:00","3765","2.6260000000000003","81.6","5.063","78.3","1017.599","28.57","73.94","879.0","0.0"],
    [1532721,"2026-08-11 11:30:00","3766","2.436","69.35","5.357","59.48","1017.49","28.72","73.6","845.0","0.0"],
    [1532722,"2026-08-11 11:40:00","3767","3.073","85.4","5.2589999999999995","98.5","1017.475","28.82","73.38","890.0","0.0"],
    [1532723,"2026-08-11 11:50:00","3768","3.305","86.7","5.912999999999999","88.5","1017.411","28.72","73.31","888.0","0.0"],
    [1532724,"2026-08-11 12:00:00","3769","3.658","88.0","5.553","90.5","1017.358","28.75","71.97","889.0","0.0"],
    [1532725,"2026-08-11 12:10:00","3770","2.597","80.4","5.292000000000001","96.9","1017.248","28.97","71.25","888.0","0.0"],
    [1532726,"2026-08-11 12:20:00","3771","2.637","83.0","4.704","101.5","1017.119","29.11","69.88","885.0","0.0"],
    [1532727,"2026-08-11 12:30:00","3772","3.26","89.1","4.704","89.7","1017.034","29.15","70.34","882.0","0.0"],
    [1532728,"2026-08-11 12:40:00","3773","3.642","88.8","4.802","89.4","1016.943","29.05","69.82","875.0","0.0"],
    [1532729,"2026-08-11 12:50:00","3774","3.702","93.3","4.573","91.2","1016.818","29.14","70.03","865.0","0.0"],
    [1532730,"2026-08-11 13:00:00","3775","3.678","106.1","4.835","112.7","1016.738","29.21","68.18","855.0","0.0"],
    [1532731,"2026-08-11 13:10:00","3776","3.4330000000000003","121.5","4.9","121.6","1016.646","29.29","70.49","845.0","0.0"],
    [1532732,"2026-08-11 13:20:00","3777","3.95","119.7","4.933","113.0","1016.563","29.14","69.21","835.0","0.0"],
    [1532733,"2026-08-11 13:30:00","3778","3.7439999999999998","119.2","5.39","121.4","1016.479","29.05","70.83","825.0","0.0"],
    [1532734,"2026-08-11 13:40:00","3779","3.429","124.5","4.345","121.5","1016.395","28.9","73.93","814.0","0.0"],
    [1532735,"2026-08-11 13:50:00","3780","3.2510000000000003","118.7","4.018","114.0","1016.243","28.83","76.17","803.0","0.0"],
    [1532736,"2026-08-11 14:00:00","3781","3.173","122.8","4.345","128.9","1016.189","28.75","78.18","789.5","0.0"],
    [1532737,"2026-08-11 14:10:00","3782","3.08","122.2","4.149","117.1","1016.164","28.7","78.64","772.4","0.0"],
    [1532738,"2026-08-11 14:20:00","3783","2.9610000000000003","118.4","4.181","114.6","1016.077","28.63","79.22","754.1","0.0"],
    [1532739,"2026-08-11 14:30:00","3784","3.392","118.5","4.737","119.4","1015.929","28.67","79.86","732.4","0.0"],
    [1532740,"2026-08-11 14:40:00","3785","3.2560000000000002","108.5","4.181","102.8","1015.88","28.55","80.3","709.6","0.0"],
    [1532741,"2026-08-11 14:50:00","3786","3.312","112.7","4.41","118.6","1015.832","28.65","80.9","684.5","0.0"],
    [1532742,"2026-08-11 15:00:00","3787","3.4560000000000004","116.5","4.345","119.0","1015.734","28.67","81.8","658.8","0.0"],
    [1532743,"2026-08-11 15:10:00","3788","3.1460000000000004","122.4","5.031000000000001","127.7","1015.715","28.58","83.1","573.9","0.0"],
    [1532744,"2026-08-11 15:20:00","3789","2.821","126.6","4.1160000000000005","121.4","1015.728","28.62","83.3","567.2","0.0"],
    [1532745,"2026-08-11 15:30:00","3790","2.8169999999999997","124.2","3.9530000000000003","117.1","1015.702","28.65","83.8","558.2","0.0"],
    [1532746,"2026-08-11 15:40:00","3791","2.9210000000000003","134.6","3.985","139.8","1015.662","28.66","83.3","525.2","0.0"],
    [1532747,"2026-08-11 15:50:00","3792","2.7110000000000003","119.7","3.6260000000000003","130.0","1015.646","28.7","83.5","483.9","0.0"],
    [1532748,"2026-08-11 16:00:00","3793","2.28","129.0","3.593","159.0","1015.704","28.73","83.9","482.4","0.0"],
    [1532749,"2026-08-11 16:10:00","3794","2.492","140.6","3.593","134.0","1015.733","28.9","83.2","455.8","0.0"],
    [1532750,"2026-08-11 16:20:00","3795","2.211","132.1","3.299","136.3","1015.776","28.78","83.6","388.4","0.0"],
    [1532751,"2026-08-11 16:30:00","3796","1.979","111.7","2.679","119.0","1015.705","28.76","83.3","181.9","0.0"],
    [1532752,"2026-08-11 16:40:00","3797","1.992","126.8","3.201","138.9","1015.667","28.7","83.7","160.6","0.0"],
    [1532753,"2026-08-11 16:50:00","3798","2.214","127.1","3.1689999999999996","129.2","1015.599","28.74","84.0","160.5","0.0"],
    [1532754,"2026-08-11 17:00:00","3799","2.177","112.6","2.875","110.5","1015.459","28.7","84.5","170.3","0.0"],
    [1532755,"2026-08-11 17:10:00","3800","2.312","102.2","3.201","110.7","1015.428","28.7","84.6","166.9","0.0"],
    [1532756,"2026-08-11 17:20:00","3801","2.04","97.3","3.103","96.6","1015.467","28.73","84.9","195.5","0.0"],
    [1532757,"2026-08-11 17:30:00","3802","1.7990000000000002","106.4","2.842","120.7","1015.486","28.8","84.3","186.6","0.0"],
    [1532758,"2026-08-11 17:40:00","3803","2.483","90.3","3.6910000000000003","96.1","1015.432","28.8","84.7","154.1","0.0"],
    [1532759,"2026-08-11 17:50:00","3804","2.539","81.3","3.43","69.92","1015.447","28.76","85.1","131.4","0.0"],
    [1532760,"2026-08-11 18:00:00","3805","2.54","69.28","3.463","93.3","1015.682","28.79","84.4","123.1","0.0"],
    [1532761,"2026-08-11 18:10:00","3806","2.88","69.11","4.1160000000000005","80.3","1015.835","28.83","84.4","89.1","0.0"],
    [1532762,"2026-08-11 18:20:00","3807","3.014","77.44","3.92","67.36","1015.997","28.78","84.3","71.74","0.0"],
    [1532763,"2026-08-11 18:30:00","3808","3.031","59.01","4.149","58.84","1016.428","28.86","84.3","46.5","0.0"],
    [1532764,"2026-08-11 18:40:00","3809","4.2860000000000005","47.81","5.7170000000000005","41.64","1016.711","28.91","85.0","26.25","0.0"],
    [1532765,"2026-08-11 18:50:00","3810","3.805","46.99","4.9","41.39","1016.625","28.76","87.3","13.63","0.0"],
    [1532766,"2026-08-11 19:00:00","3811","3.5189999999999997","53.83","4.704","45.52","1016.512","28.67","87.4","3.932","0.0"],
    [1532767,"2026-08-11 19:10:00","3812","3.9539999999999997","38.9","5.4879999999999995","41.44","1016.626","28.66","87.3","0.498","0.0"],
    [1532768,"2026-08-11 19:20:00","3813","4.157","39.53","5.422999999999999","42.25","1016.717","28.59","87.6","0.0","0.0"],
    [1532769,"2026-08-11 19:30:00","3814","4.077","31.27","5.194","22.45","1016.691","28.51","87.9","0.0","0.0"],
    [1532770,"2026-08-11 19:40:00","3815","4.129","35.21","5.227","42.29","1016.712","28.48","87.9","0.0","0.0"],
    [1532771,"2026-08-11 19:50:00","3816","3.7030000000000003","47.89","5.227","47.64","1016.776","28.48","88.1","0.0","0.0"],
    [1532772,"2026-08-11 20:00:00","3817","3.444","44.77","4.769","24.79","1017.076","28.5","88.0","0.0","0.0"],
    [1532773,"2026-08-11 20:10:00","3818","3.431","36.06","4.4430000000000005","23.31","1017.366","28.51","87.6","0.0","0.0"],
    [1532774,"2026-08-11 20:20:00","3819","3.9739999999999998","24.16","5.063","19.24","1017.492","28.49","88.1","0.0","0.0"],
    [1532775,"2026-08-11 20:30:00","3820","3.411","40.36","4.2139999999999995","45.61","1017.671","28.47","87.6","0.0","0.0"],
    [1532776,"2026-08-11 20:40:00","3821","3.417","33.55","4.345","37.37","1017.859","28.51","87.5","0.0","0.0"],
    [1532777,"2026-08-11 20:50:00","3822","4.263","26.45","5.063","26.35","1017.947","28.51","87.9","0.0","0.0"],
    [1532778,"2026-08-11 21:00:00","3823","3.7430000000000003","39.28","4.475","48.31","1017.824","28.47","87.8","0.0","0.0"],
    [1532779,"2026-08-11 21:10:00","3824","3.761","44.27","4.606","47.68","1017.791","28.5","87.1","0.0","0.0"],
    [1532780,"2026-08-11 21:20:00","3825","3.259","49.38","4.149","55.29","1017.73","28.55","85.4","0.0","0.0"],
    [1532781,"2026-08-11 21:30:00","3826","3.2439999999999998","47.08","3.985","53.54","1017.734","28.67","84.8","0.0","0.0"],
    [1532782,"2026-08-11 21:40:00","3827","2.6489999999999996","59.25","3.822","50.01","1017.535","28.62","84.4","0.0","0.0"],
    [1532783,"2026-08-11 21:50:00","3828","2.295","67.52","3.103","72.12","1017.464","28.67","84.9","0.0","0.0"],
    [1532784,"2026-08-11 22:00:00","3829","1.202","101.4","1.895","64.09","1017.416","28.61","85.7","0.0","0.0"],
    [1532785,"2026-08-11 22:10:00","3830","0.95","130.1","1.829","162.2","1017.391","28.52","85.7","0.0","0.0"],
    [1532786,"2026-08-11 22:20:00","3831","1.689","185.4","2.123","178.2","1017.254","28.72","86.4","0.0","0.0"],
    [1532787,"2026-08-11 22:30:00","3832","1.061","177.4","1.601","205.0","1017.153","28.75","86.7","0.0","0.0"],
    [1532788,"2026-08-11 22:40:00","3833","0.325","163.0","1.47","163.8","1017.194","28.64","87.4","0.0","0.0"],
    [1532789,"2026-08-11 22:50:00","3834","1.4069999999999998","180.8","2.123","167.5","1017.085","28.51","88.0","0.0","0.0"],
    [1532790,"2026-08-11 23:00:00","3835","1.012","185.8","1.4369999999999998","173.6","1017.121","28.48","87.3","0.0","0.0"],
    [1532791,"2026-08-11 23:10:00","3836","0.19","219.8","0.784","214.4","1017.123","28.51","86.9","0.0","0.0"],
    [1532792,"2026-08-11 23:20:00","3837","0.0","0.0","0.0","0.0","1017.334","28.45","86.7","0.0","0.0"],
    [1532793,"2026-08-11 23:30:00","3838","0.114","316.4","0.7509999999999999","315.4","1017.409","28.38","87.4","0.0","0.0"],
    [1532794,"2026-08-11 23:40:00","3839","1.053","338.7","1.699","344.2","1017.614","28.1","85.6","0.0","0.0"],
    [1532795,"2026-08-11 23:50:00","3840","0.038","24.34","0.588","22.61","1017.522","28.01","82.4","0.0","0.0"],
    [1532796,"2026-08-12 00:00:00","3841","0.5710000000000001","41.06","2.385","30.98","1017.537","28.61","84.3","0.0","0.0"],
    [1532797,"2026-08-12 00:10:00","3842","1.4409999999999998","39.62","2.319","32.24","1017.604","28.58","85.9","0.0","0.0"],
    [1532798,"2026-08-12 00:20:00","3843","1.3719999999999999","41.5","2.0909999999999997","32.01","1017.539","28.47","86.2","0.0","0.0"],
    [1532799,"2026-08-12 00:30:00","3844","1.341","20.57","2.385","5.7620000000000005","1017.57","28.5","87.2","0.0","0.0"],
    [1532800,"2026-08-12 00:40:00","3845","1.797","27.04","2.385","10.91","1017.606","28.39","88.1","0.0","0.0"],
    [1532801,"2026-08-12 00:50:00","3846","2.417","27.59","3.1689999999999996","20.36","1017.642","28.3","87.6","0.0","0.0"],
    [1532802,"2026-08-12 01:00:00","3847","2.656","27.95","3.136","37.31","1017.573","28.32","86.7","0.0","0.0"],
    [1532803,"2026-08-12 01:10:00","3848","3.008","16.02","3.43","21.43","1017.473","28.17","84.1","0.0","0.0"],
    [1532804,"2026-08-12 01:20:00","3849","2.833","15.85","3.495","8.04","1017.384","28.22","82.9","0.0","0.0"],
    [1532805,"2026-08-12 01:30:00","3850","2.5669999999999997","12.62","3.299","16.07","1017.407","28.29","81.4","0.0","0.0"],
    [1532806,"2026-08-12 01:40:00","3851","2.984","15.08","3.7889999999999997","17.76","1017.417","28.2","81.6","0.0","0.0"],
    [1532807,"2026-08-12 01:50:00","3852","3.1489999999999996","16.88","3.855","20.6","1017.335","28.21","78.88","0.0","0.0"],
    [1532808,"2026-08-12 02:00:00","3853","2.862","12.81","3.822","15.93","1017.338","28.39","75.47","0.0","0.0"],
    [1532809,"2026-08-12 02:10:00","3854","2.9610000000000003","18.64","3.43","15.54","1017.319","28.4","73.16","0.0","0.0"],
    [1532810,"2026-08-12 02:20:00","3855","2.988","16.56","3.593","16.48","1017.32","28.42","67.01","0.0","0.0"],
    [1532811,"2026-08-12 02:30:00","3856","2.77","21.83","3.267","25.31","1017.413","28.52","65.73","0.0","0.0"],
    [1532812,"2026-08-12 02:40:00","3857","2.802","21.22","3.267","22.55","1017.446","28.49","65.56","0.0","0.0"],
    [1532813,"2026-08-12 02:50:00","3858","2.858","14.63","3.136","17.19","1017.485","28.37","67.69","0.0","0.0"],
    [1532814,"2026-08-12 03:00:00","3859","2.498","9.44","3.43","11.7","1017.429","28.36","69.06","0.0","0.0"],
    [1532815,"2026-08-12 03:10:00","3860","2.053","1.945","3.005","12.46","1017.402","28.28","67.78","0.0","0.0"],
    [1532816,"2026-08-12 03:20:00","3861","2.044","3.178","2.94","16.85","1017.421","28.35","67.77","0.0","0.0"],
    [1532817,"2026-08-12 03:30:00","3862","2.345","13.12","2.9730000000000003","14.47","1017.449","28.3","69.87","0.0","0.0"],
    [1532818,"2026-08-12 03:40:00","3863","2.8289999999999997","17.6","3.299","19.04","1017.426","28.17","70.44","0.0","0.0"],
    [1532819,"2026-08-12 03:50:00","3864","2.985","16.02","3.43","21.11","1017.429","28.08","70.91","0.0","0.0"],
    [1532820,"2026-08-12 04:00:00","3865","2.9360000000000004","10.25","3.397","7.996","1017.455","28.01","71.91","0.0","0.0"],
    [1532821,"2026-08-12 04:10:00","3866","2.41","7.528","3.299","3.95","1017.473","28.03","71.49","0.0","0.0"],
    [1532822,"2026-08-12 04:20:00","3867","1.536","3.46","2.123","14.6","1017.613","28.0","71.27","0.0","0.0"],
    [1532823,"2026-08-12 04:30:00","3868","1.571","355.0","2.189","1.943","1017.721","27.98","71.61","0.0","0.0"],
    [1532824,"2026-08-12 04:40:00","3869","1.4909999999999999","1.5230000000000001","1.8619999999999999","2.461","1017.781","28.0","72.76","0.0","0.0"],
    [1532825,"2026-08-12 04:50:00","3870","1.392","351.9","1.9269999999999998","0.09699999999999999","1017.78","27.99","74.5","0.0","0.0"],
    [1532826,"2026-08-12 05:00:00","3871","1.444","358.0","2.025","16.4","1017.786","27.85","74.96","0.835","0.0"],
    [1532827,"2026-08-12 05:10:00","3872","1.6380000000000001","0.7170000000000001","2.189","18.34","1017.881","27.86","74.86","5.027","0.0"],
    [1532828,"2026-08-12 05:20:00","3873","1.6230000000000002","0.305","2.221","9.62","1017.972","27.91","75.12","15.43","0.0"],
    [1532829,"2026-08-12 05:30:00","3874","1.225","345.8","1.895","0.504","1018.037","27.88","74.65","30.49","0.0"],
    [1532830,"2026-08-12 05:40:00","3875","1.4980000000000002","8.33","2.287","17.61","1018.058","27.99","74.28","51.47","0.0"],
    [1532831,"2026-08-12 05:50:00","3876","2.272","16.27","2.94","21.27","1018.136","27.99","73.26","73.73","0.0"],
    [1532832,"2026-08-12 06:00:00","3877","2.41","14.51","2.9730000000000003","12.98","1018.257","28.02","74.24","98.3","0.0"],
    [1532833,"2026-08-12 06:10:00","3878","2.7060000000000004","13.02","3.136","14.84","1018.305","27.98","74.2","125.0","0.0"],
    [1532834,"2026-08-12 06:20:00","3879","2.681","14.69","3.267","12.17","1018.37","28.01","76.79","152.7","0.0"],
    [1532835,"2026-08-12 06:30:00","3880","3.023","19.32","3.659","19.45","1018.442","27.98","77.35","185.8","0.0"],
    [1532836,"2026-08-12 06:40:00","3881","3.281","19.13","3.985","27.72","1018.552","28.01","77.95","218.7","0.0"],
    [1532837,"2026-08-12 06:50:00","3882","3.4560000000000004","15.17","4.181","16.67","1018.615","28.03","78.89","251.0","0.0"],
    [1532838,"2026-08-12 07:00:00","3883","3.2569999999999997","22.07","4.1160000000000005","20.31","1018.641","28.07","77.63","281.4","0.0"],
    [1532839,"2026-08-12 07:10:00","3884","3.1510000000000002","27.04","4.279","32.14","1018.744","28.2","75.47","284.5","0.0"],
    [1532840,"2026-08-12 07:20:00","3885","3.4010000000000002","34.21","4.4430000000000005","40.81","1018.824","28.22","78.5","335.1","0.0"],
    [1532841,"2026-08-12 07:30:00","3886","3.319","35.17","4.541","21.5","1018.818","28.15","79.16","375.8","0.0"],
    [1532842,"2026-08-12 07:40:00","3887","3.363","33.12","4.541","26.68","1018.842","28.13","79.29","403.8","0.0"],
    [1532843,"2026-08-12 07:50:00","3888","3.44","31.47","4.279","24.64","1018.899","28.06","79.64","339.2","0.0"],
    [1532844,"2026-08-12 08:00:00","3889","3.917","25.24","5.063","29.27","1018.82","28.09","80.5","413.4","0.0"],
    [1532845,"2026-08-12 08:10:00","3890","3.9560000000000004","36.15","5.063","33.12","1018.83","28.05","79.61","500.7","0.0"],
    [1532846,"2026-08-12 08:20:00","3891","4.032","37.41","5.1610000000000005","32.92","1018.889","28.18","77.62","529.8","0.0"],
    [1532847,"2026-08-12 08:30:00","3892","3.82","59.76","4.998","58.32","1018.936","28.36","77.79","559.4","0.0"],
    [1532848,"2026-08-12 08:40:00","3893","3.53","58.52","4.802","54.44","1019.02","28.41","78.37","585.1","0.0"],
    [1532849,"2026-08-12 08:50:00","3894","3.667","55.01","4.671","62.2","1019.107","28.32","78.15","613.8","0.0"],
    [1532850,"2026-08-12 09:00:00","3895","3.563","57.98","4.769","57.86","1019.196","28.37","78.35","639.7","0.0"],
    [1532851,"2026-08-12 09:10:00","3896","3.425","66.67","4.671","78.91","1019.263","28.38","79.41","661.1","0.0"],
    [1532852,"2026-08-12 09:20:00","3897","3.625","74.4","5.1610000000000005","82.2","1019.327","28.34","80.7","683.4","0.0"],
    [1532853,"2026-08-12 09:30:00","3898","3.823","71.45","4.671","82.8","1019.376","28.27","81.5","704.8","0.0"],
    [1532854,"2026-08-12 09:40:00","3899","4.3180000000000005","70.6","5.292000000000001","68.01","1019.441","28.28","81.0","729.7","0.0"],
    [1532855,"2026-08-12 09:50:00","3900","4.071000000000001","77.25","4.965","85.2","1019.484","28.41","80.5","751.9","0.0"],
    [1532856,"2026-08-12 10:00:00","3901","4.016","82.3","4.933","79.78","1019.58","28.52","80.6","766.9","0.0"],
    [1532857,"2026-08-12 10:10:00","3902","3.9530000000000003","81.5","4.998","87.7","1019.675","28.49","80.3","786.3","0.0"],
    [1532858,"2026-08-12 10:20:00","3903","4.1","86.6","5.2589999999999995","86.7","1019.709","28.61","81.0","802.0","0.0"],
    [1532859,"2026-08-12 10:30:00","3904","4.138","91.4","5.7170000000000005","94.2","1019.734","28.54","82.0","813.0","0.0"],
    [1532860,"2026-08-12 10:40:00","3905","4.047","86.3","5.292000000000001","84.9","1019.744","28.55","81.8","831.0","0.0"],
    [1532861,"2026-08-12 10:50:00","3906","4.315","88.3","5.521","108.9","1019.763","28.41","81.7","846.0","0.0"],
    [1532862,"2026-08-12 11:00:00","3907","3.931","97.3","4.998","91.2","1019.774","28.5","81.1","857.0","0.0"],
    [1532863,"2026-08-12 11:10:00","3908","3.576","100.3","4.802","100.2","1019.714","28.57","80.7","867.0","0.0"],
    [1532864,"2026-08-12 11:20:00","3909","3.2289999999999996","95.4","4.41","89.1","1019.667","28.7","78.96","876.0","0.0"],
    [1532865,"2026-08-12 11:30:00","3910","3.367","104.3","4.671","104.9","1019.624","28.87","78.59","886.0","0.0"],
    [1532866,"2026-08-12 11:40:00","3911","3.9619999999999997","99.9","4.769","106.2","1019.515","28.84","78.55","886.0","0.0"],
    [1532867,"2026-08-12 11:50:00","3912","3.693","108.6","4.573","109.8","1019.474","28.85","77.52","886.0","0.0"],
    [1532868,"2026-08-12 12:00:00","3913","3.772","116.3","4.606","121.1","1019.409","28.87","76.87","893.0","0.0"],
    [1532869,"2026-08-12 12:10:00","3914","3.445","111.6","4.377","112.3","1019.327","28.93","75.88","891.0","0.0"],
    [1532870,"2026-08-12 12:20:00","3915","3.068","116.4","4.181","113.5","1019.227","29.05","75.98","891.0","0.0"],
    [1532871,"2026-08-12 12:30:00","3916","3.345","115.9","4.083","117.3","1019.217","29.02","76.48","887.0","0.0"],
    [1532872,"2026-08-12 12:40:00","3917","3.43","118.4","4.051","128.9","1019.186","28.97","76.04","882.0","0.0"],
    [1532873,"2026-08-12 12:50:00","3918","3.397","111.9","4.475","114.4","1019.245","29.08","76.75","875.0","0.0"],
    [1532874,"2026-08-12 13:00:00","3919","3.595","115.1","4.377","112.3","1019.268","29.02","76.67","862.0","0.0"],
    [1532875,"2026-08-12 13:10:00","3920","3.4330000000000003","117.6","4.312","125.1","1019.246","29.03","77.41","853.0","0.0"],
    [1532876,"2026-08-12 13:20:00","3921","3.568","114.8","4.149","116.5","1019.267","28.99","76.77","843.0","0.0"],
    [1532877,"2026-08-12 13:30:00","3922","3.0469999999999997","108.0","4.1160000000000005","106.7","1019.219","29.16","78.08","834.0","0.0"],
    [1532878,"2026-08-12 13:40:00","3923","3.301","112.2","4.704","123.8","1019.211","29.14","78.77","824.0","0.0"],
    [1532879,"2026-08-12 13:50:00","3924","3.71","110.4","4.638999999999999","101.1","1019.202","29.04","77.98","810.0","0.0"],
    [1532880,"2026-08-12 14:00:00","3925","3.512","105.1","4.867","113.9","1019.123","29.07","78.37","795.8","0.0"],
    [1532881,"2026-08-12 14:10:00","3926","3.782","109.1","4.835","114.5","1019.077","29.1","78.36","783.3","0.0"],
    [1532882,"2026-08-12 14:20:00","3927","4.337","116.3","4.998","119.2","1019.026","29.01","77.52","764.0","0.0"],
    [1532883,"2026-08-12 14:30:00","3928","4.331","116.4","5.194","120.6","1018.96","28.96","77.16","739.5","0.0"],
    [1532884,"2026-08-12 14:40:00","3929","4.208","117.0","5.7170000000000005","117.0","1018.902","29.15","75.16","711.3","0.0"],
    [1532885,"2026-08-12 14:50:00","3930","4.032","115.4","4.867","119.1","1018.856","29.25","73.27","686.6","0.0"],
    [1532886,"2026-08-12 15:00:00","3931","4.141","117.9","4.933","115.8","1018.835","29.3","72.64","662.7","0.0"],
    [1532887,"2026-08-12 15:10:00","3932","3.958","115.1","4.802","107.7","1018.792","29.31","73.87","636.2","0.0"],
    [1532888,"2026-08-12 15:20:00","3933","3.5789999999999997","118.5","4.867","114.7","1018.784","29.36","74.38","606.4","0.0"],
    [1532889,"2026-08-12 15:30:00","3934","3.819","116.9","4.704","113.3","1018.748","29.35","74.72","577.4","0.0"],
    [1532890,"2026-08-12 15:40:00","3935","3.648","113.7","4.769","115.2","1018.708","29.41","75.12","545.5","0.0"],
    [1532891,"2026-08-12 15:50:00","3936","3.542","121.4","4.638999999999999","131.2","1018.677","29.31","75.75","511.4","0.0"],
    [1532892,"2026-08-12 16:00:00","3937","3.4939999999999998","130.4","4.606","119.8","1018.653","29.27","75.69","480.5","0.0"],
    [1532893,"2026-08-12 16:10:00","3938","3.486","125.8","4.41","121.2","1018.657","29.26","76.07","448.9","0.0"],
    [1532894,"2026-08-12 16:20:00","3939","3.32","117.3","4.606","121.4","1018.74","29.23","74.97","420.0","0.0"],
    [1532895,"2026-08-12 16:30:00","3940","3.092","112.5","3.92","116.0","1018.817","29.33","72.95","383.4","0.0"],
    [1532896,"2026-08-12 16:40:00","3941","3.16","110.9","4.2139999999999995","114.1","1018.776","29.35","73.24","349.7","0.0"],
    [1532897,"2026-08-12 16:50:00","3942","2.7039999999999997","117.0","3.7569999999999997","112.1","1018.728","29.38","72.44","315.2","0.0"],
    [1532898,"2026-08-12 17:00:00","3943","3.091","115.0","3.9530000000000003","114.6","1018.767","29.32","73.29","285.9","0.0"],
    [1532899,"2026-08-12 17:10:00","3944","3.228","110.0","4.247","113.5","1018.733","29.31","73.59","255.9","0.0"],
    [1532900,"2026-08-12 17:20:00","3945","3.2489999999999997","104.3","4.2139999999999995","100.0","1018.718","29.3","74.05","220.5","0.0"],
    [1532901,"2026-08-12 17:30:00","3946","3.18","111.7","4.018","112.1","1018.764","29.24","74.58","132.9","0.0"],
    [1532902,"2026-08-12 17:40:00","3947","3.1639999999999997","118.8","3.822","112.4","1018.899","29.14","74.36","60.94","0.0"],
    [1532903,"2026-08-12 17:50:00","3948","2.841","115.5","3.463","114.1","1018.986","29.07","75.7","58.63","0.0"],
    [1532904,"2026-08-12 18:00:00","3949","3.012","102.4","3.528","97.8","1019.089","29.01","75.12","48.74","0.0"],
    [1532905,"2026-08-12 18:10:00","3950","2.372","97.2","3.365","84.9","1018.992","29.06","74.04","37.35","0.0"],
    [1532906,"2026-08-12 18:20:00","3951","2.46","104.4","3.365","102.5","1018.96","29.06","74.86","15.24","0.0"],
    [1532907,"2026-08-12 18:30:00","3952","2.27","114.8","3.234","112.7","1019.07","29.01","75.27","1.405","0.0"],
    [1532908,"2026-08-12 18:40:00","3953","2.074","100.9","2.6460000000000004","112.5","1019.04","29.03","75.0","0.114","0.0"],
    [1532909,"2026-08-12 18:50:00","3954","1.8730000000000002","97.8","2.94","99.0","1019.075","29.04","73.52","0.929","0.0"],
    [1532910,"2026-08-12 19:00:00","3955","2.079","83.9","3.005","80.3","1019.064","29.06","74.05","0.228","0.0"],
    [1532911,"2026-08-12 19:10:00","3956","2.2159999999999997","68.1","2.8089999999999997","74.7","1019.014","29.0","72.95","0.0","0.0"],
    [1532912,"2026-08-12 19:20:00","3957","1.923","83.6","2.6460000000000004","77.97","1018.921","29.01","72.57","0.0","0.0"],
    [1532913,"2026-08-12 19:30:00","3958","1.5130000000000001","102.5","2.417","116.4","1019.027","29.03","72.11","0.0","0.0"],
    [1532914,"2026-08-12 19:40:00","3959","1.4480000000000002","107.2","2.0580000000000003","112.6","1019.075","29.0","72.4","0.0","0.0"],
    [1532915,"2026-08-12 19:50:00","3960","1.619","106.0","2.254","100.9","1019.185","28.99","73.82","0.0","0.0"],
    [1532916,"2026-08-12 20:00:00","3961","1.25","91.0","1.895","78.58","1019.424","28.95","73.6","0.0","0.0"],
    [1532917,"2026-08-12 20:10:00","3962","0.395","110.2","0.8490000000000001","120.3","1019.669","28.95","72.9","0.0","0.0"],
    [1532918,"2026-08-12 20:20:00","3963","0.48","98.1","0.915","94.5","1019.804","28.94","72.75","0.0","0.0"],
    [1532919,"2026-08-12 20:30:00","3964","0.8390000000000001","130.2","1.339","121.7","1019.938","28.92","73.01","0.0","0.0"],
    [1532920,"2026-08-12 20:40:00","3965","0.085","142.2","0.49","148.3","1020.099","28.9","72.51","0.0","0.0"],
    [1532921,"2026-08-12 20:50:00","3966","0.0","0.0","0.0","0.0","1020.157","28.88","72.42","0.0","0.0"],
    [1532922,"2026-08-12 21:00:00","3967","0.19899999999999998","134.7","0.653","134.7","1020.12","28.94","71.9","0.0","0.0"],
    [1532923,"2026-08-12 21:10:00","3968","0.133","156.7","1.013","166.5","1020.14","28.92","72.61","0.0","0.0"],
    [1532924,"2026-08-12 21:20:00","3969","1.088","182.0","1.535","187.5","1020.203","29.0","74.0","0.0","0.0"],
    [1532925,"2026-08-12 21:30:00","3970","1.3030000000000002","175.6","1.601","183.4","1020.279","29.02","74.31","0.0","0.0"],
    [1532926,"2026-08-12 21:40:00","3971","1.2229999999999999","182.5","1.7309999999999999","173.0","1020.355","28.94","74.45","0.0","0.0"],
    [1532927,"2026-08-12 21:50:00","3972","0.287","207.1","0.8490000000000001","204.5","1020.408","28.94","74.39","0.0","0.0"],
    [1532928,"2026-08-12 22:00:00","3973","0.505","182.9","1.176","172.8","1020.473","28.85","74.53","0.0","0.0"],
    [1532929,"2026-08-12 22:10:00","3974","0.509","184.5","1.176","174.7","1020.518","28.87","75.69","0.0","0.0"],
    [1532930,"2026-08-12 22:20:00","3975","0.48700000000000004","285.6","1.111","286.1","1020.618","28.69","75.36","0.0","0.0"],
    [1532931,"2026-08-12 22:30:00","3976","0.8109999999999999","259.8","1.9269999999999998","250.1","1020.602","28.61","74.06","0.0","0.0"],
    [1532932,"2026-08-12 22:40:00","3977","1.339","262.6","2.287","266.9","1020.555","28.67","73.38","0.0","0.0"],
    [1532933,"2026-08-12 22:50:00","3978","1.196","251.8","1.797","252.0","1020.45","28.67","73.39","0.0","0.0"],
    [1532934,"2026-08-12 23:00:00","3979","1.3","268.2","2.287","285.6","1020.416","28.65","73.02","0.0","0.0"],
    [1532935,"2026-08-12 23:10:00","3980","1.2830000000000001","272.9","2.156","286.6","1020.42","28.63","72.91","0.0","0.0"],
    [1532936,"2026-08-12 23:20:00","3981","1.306","283.2","2.123","282.0","1020.386","28.65","73.18","0.0","0.0"],
    [1532937,"2026-08-12 23:30:00","3982","1.44","264.1","2.254","265.5","1020.334","28.58","72.9","0.0","0.0"],
    [1532938,"2026-08-12 23:40:00","3983","1.383","270.5","2.483","259.9","1020.247","28.5","72.91","0.0","0.0"],
    [1532939,"2026-08-12 23:50:00","3984","1.733","283.1","2.7769999999999997","279.4","1020.134","28.45","73.11","0.0","0.0"],
    [1532940,"2026-08-13 00:00:00","3985","1.881","284.8","3.136","290.1","1020.076","28.44","73.14","0.0","0.0"],
    [1532941,"2026-08-13 00:10:00","3986","1.298","273.8","2.221","281.4","1019.961","28.34","72.82","0.0","0.0"],
    [1532942,"2026-08-13 00:20:00","3987","1.402","269.6","2.515","258.5","1019.846","28.25","72.91","0.0","0.0"],
    [1532943,"2026-08-13 00:30:00","3988","1.109","265.1","2.025","273.3","1019.732","28.22","73.03","0.0","0.0"],
    [1532944,"2026-08-13 00:40:00","3989","0.48200000000000004","227.0","1.111","266.2","1019.681","28.23","72.9","0.0","0.0"],
    [1532945,"2026-08-13 00:50:00","3990","1.121","265.1","1.993","257.6","1019.633","28.17","72.71","0.0","0.0"],
    [1532946,"2026-08-13 01:00:00","3991","1.321","272.1","2.025","267.4","1019.578","27.99","73.9","0.0","0.0"],
    [1532947,"2026-08-13 01:10:00","3992","1.3159999999999998","262.7","1.797","261.6","1019.527","27.77","74.01","0.0","0.0"],
    [1532948,"2026-08-13 01:20:00","3993","1.25","272.6","1.699","270.9","1019.52","27.71","74.24","0.0","0.0"],
    [1532949,"2026-08-13 01:30:00","3994","1.452","270.0","1.699","265.8","1019.481","27.67","74.41","0.0","0.0"],
    [1532950,"2026-08-13 01:40:00","3995","1.041","279.3","1.47","271.5","1019.388","27.61","74.47","0.0","0.0"],
    [1532951,"2026-08-13 01:50:00","3996","1.3659999999999999","274.8","1.7309999999999999","270.9","1019.369","27.57","74.85","0.0","0.0"],
    [1532952,"2026-08-13 02:00:00","3997","1.033","280.2","1.2409999999999999","280.2","1019.309","27.56","75.11","0.0","0.0"],
    [1532953,"2026-08-13 02:10:00","3998","0.598","257.9","1.274","268.7","1019.305","27.59","74.75","0.0","0.0"],
    [1532954,"2026-08-13 02:20:00","3999","0.171","268.5","0.6859999999999999","270.2","1019.313","27.67","74.06","0.0","0.0"],
    [1532955,"2026-08-13 02:30:00","4000","0.66","280.2","1.111","271.2","1019.294","27.53","74.39","0.0","0.0"],
    [1532956,"2026-08-13 02:40:00","4001","0.711","267.0","1.96","265.5","1019.223","27.35","74.37","0.0","0.0"],
    [1532957,"2026-08-13 02:50:00","4002","1.8359999999999999","260.5","2.679","262.4","1019.199","27.1","73.1","0.0","0.0"],
    [1532958,"2026-08-13 03:00:00","4003","1.692","259.5","2.417","264.4","1019.21","27.01","71.24","0.0","0.0"],
    [1532959,"2026-08-13 03:10:00","4004","1.868","261.8","2.45","257.5","1019.288","27.05","70.58","0.0","0.0"],
    [1532960,"2026-08-13 03:20:00","4005","2.156","264.5","2.7110000000000003","268.8","1019.288","27.08","71.81","0.0","0.0"],
    [1532961,"2026-08-13 03:30:00","4006","1.955","264.8","2.417","269.2","1019.211","26.89","73.66","0.0","0.0"],
    [1532962,"2026-08-13 03:40:00","4007","2.097","270.4","2.7439999999999998","274.8","1019.206","26.69","73.97","0.0","0.0"],
    [1532963,"2026-08-13 03:50:00","4008","2.16","272.0","2.907","271.8","1019.224","26.45","73.02","0.0","0.0"],
    [1532964,"2026-08-13 04:00:00","4009","2.035","266.4","2.515","259.3","1019.209","26.22","71.08","0.0","0.0"],
    [1532965,"2026-08-13 04:10:00","4010","2.039","266.0","2.7769999999999997","264.3","1019.24","26.17","69.19","0.0","0.0"],
    [1532966,"2026-08-13 04:20:00","4011","1.912","271.5","2.45","270.6","1019.293","26.12","67.92","0.0","0.0"],
    [1532967,"2026-08-13 04:30:00","4012","1.635","268.1","2.189","273.8","1019.273","26.11","67.33","0.0","0.0"],
    [1532968,"2026-08-13 04:40:00","4013","2.435","267.7","3.234","269.7","1019.318","26.02","67.34","0.0","0.0"],
    [1532969,"2026-08-13 04:50:00","4014","2.397","272.8","2.94","273.2","1019.39","26.04","67.39","0.0","0.0"],
    [1532970,"2026-08-13 05:00:00","4015","2.307","268.4","2.875","261.5","1019.396","26.12","66.56","1.177","0.0"],
    [1532971,"2026-08-13 05:10:00","4016","1.865","266.2","2.385","278.3","1019.407","26.26","66.06","7.044","0.0"],
    [1532972,"2026-08-13 05:20:00","4017","2.283","271.5","2.613","264.8","1019.46","26.41","65.65","19.51","0.0"],
    [1532973,"2026-08-13 05:30:00","4018","2.4219999999999997","264.4","3.0380000000000003","263.9","1019.507","26.66","64.82","37.55","0.0"],
    [1532974,"2026-08-13 05:40:00","4019","2.187","266.1","2.842","262.9","1019.488","27.0","64.24","54.96","0.0"],
    [1532975,"2026-08-13 05:50:00","4020","2.311","263.3","2.7769999999999997","260.9","1019.525","27.31","63.46","70.5","0.0"],
    [1532976,"2026-08-13 06:00:00","4021","2.329","263.2","2.7439999999999998","264.8","1019.589","27.56","62.2","87.1","0.0"],
    [1532977,"2026-08-13 06:10:00","4022","2.074","270.4","2.5810000000000004","270.1","1019.771","27.86","61.08","107.2","0.0"],
    [1532978,"2026-08-13 06:20:00","4023","1.911","261.8","2.483","262.1","1019.883","28.16","59.35","129.4","0.0"],
    [1532979,"2026-08-13 06:30:00","4024","1.385","267.1","1.8619999999999999","272.3","1019.952","28.5","57.53","159.3","0.0"],
    [1532980,"2026-08-13 06:40:00","4025","1.692","260.3","2.352","256.8","1019.971","28.82","55.44","181.9","0.0"],
    [1532981,"2026-08-13 06:50:00","4026","1.4269999999999998","263.4","2.417","265.6","1020.014","29.02","54.25","204.0","0.0"],
    [1532982,"2026-08-13 07:00:00","4027","0.6859999999999999","260.8","1.601","259.9","1020.105","29.22","53.53","235.9","0.0"],
    [1532983,"2026-08-13 07:10:00","4028","0.098","282.8","0.7509999999999999","274.4","1020.122","30.12","53.6","254.3","0.0"],
    [1532984,"2026-08-13 07:20:00","4029","0.0","0.0","0.0","0.0","1020.037","30.44","52.58","288.8","0.0"],
    [1532985,"2026-08-13 07:30:00","4030","0.205","182.3","1.111","180.1","1019.96","30.26","54.9","323.3","0.0"],
    [1532986,"2026-08-13 07:40:00","4031","1.064","169.9","1.2409999999999999","173.8","1019.961","29.46","61.17","358.7","0.0"],
    [1532987,"2026-08-13 07:50:00","4032","1.138","155.0","1.339","162.1","1020.009","29.28","63.59","389.9","0.0"],
    [1532988,"2026-08-13 08:00:00","4033","1.445","130.1","1.895","117.2","1019.996","29.13","64.28","418.3","0.0"],
    [1532989,"2026-08-13 08:10:00","4034","1.7919999999999998","114.2","2.287","113.3","1020.023","28.85","67.49","460.2","0.0"],
    [1532990,"2026-08-13 08:20:00","4035","2.0669999999999997","115.1","2.679","120.9","1020.047","28.76","68.69","495.5","0.0"],
    [1532991,"2026-08-13 08:30:00","4036","1.996","113.7","2.548","117.9","1020.073","28.96","69.97","522.4","0.0"],
    [1532992,"2026-08-13 08:40:00","4037","2.105","110.4","2.7439999999999998","107.3","1020.058","28.97","72.43","544.9","0.0"],
    [1532993,"2026-08-13 08:50:00","4038","1.9","130.3","2.6460000000000004","146.7","1020.052","29.09","73.02","561.1","0.0"],
    [1532994,"2026-08-13 09:00:00","4039","2.354","139.0","3.136","135.7","1020.079","29.07","72.07","587.5","0.0"],
    [1532995,"2026-08-13 09:10:00","4040","2.336","135.4","2.9730000000000003","137.7","1020.116","29.21","70.49","623.6","0.0"],
    [1532996,"2026-08-13 09:20:00","4041","2.7739999999999996","121.1","3.7239999999999998","130.0","1020.168","29.23","67.29","656.4","0.0"],
    [1532997,"2026-08-13 09:30:00","4042","2.7230000000000003","134.0","3.659","139.3","1020.242","29.44","66.41","680.2","0.0"],
    [1532998,"2026-08-13 09:40:00","4043","2.966","133.4","3.9530000000000003","141.1","1020.339","29.55","65.93","701.1","0.0"],
    [1532999,"2026-08-13 09:50:00","4044","3.091","137.6","3.7889999999999997","135.2","1020.344","29.57","61.68","726.5","0.0"],
    [1533000,"2026-08-13 10:00:00","4045","2.988","143.8","3.659","143.3","1020.372","30.07","56.72","739.1","0.0"],
    [1533001,"2026-08-13 10:10:00","4046","2.8289999999999997","154.1","3.7569999999999997","157.3","1020.376","30.19","64.29","761.9","0.0"],
    [1533002,"2026-08-13 10:20:00","4047","2.6180000000000003","158.6","3.365","158.5","1020.386","30.03","68.63","779.0","0.0"],
    [1533003,"2026-08-13 10:30:00","4048","3.025","163.6","3.593","171.3","1020.395","30.03","63.31","804.0","0.0"],
    [1533004,"2026-08-13 10:40:00","4049","3.489","169.7","4.247","171.6","1020.397","30.26","62.06","809.0","0.0"],
    [1533005,"2026-08-13 10:50:00","4050","3.889","171.2","4.606","183.0","1020.447","30.47","58.16","814.0","0.0"],
    [1533006,"2026-08-13 11:00:00","4051","3.986","170.8","4.638999999999999","170.1","1020.452","30.5","58.18","825.0","0.0"],
    [1533007,"2026-08-13 11:10:00","4052","4.342","172.1","5.129","170.7","1020.46","30.57","58.12","831.0","0.0"],
    [1533008,"2026-08-13 11:20:00","4053","4.428","171.6","4.965","169.8","1020.451","30.51","57.36","839.0","0.0"],
    [1533009,"2026-08-13 11:30:00","4054","4.6","172.8","5.194","176.8","1020.483","30.52","57.6","840.0","0.0"],
    [1533010,"2026-08-13 11:40:00","4055","4.62","172.9","5.782","173.0","1020.471","30.61","56.89","847.0","0.0"],
    [1533011,"2026-08-13 11:50:00","4056","4.779","172.8","5.455","173.1","1020.454","30.66","58.96","856.0","0.0"],
    [1533012,"2026-08-13 12:00:00","4057","4.41","176.1","5.586","174.4","1020.436","30.63","60.22","861.0","0.0"],
    [1533013,"2026-08-13 12:10:00","4058","4.4639999999999995","181.7","6.011","175.8","1020.444","30.9","59.06","859.0","0.0"],
    [1533014,"2026-08-13 12:20:00","4059","4.333","181.2","6.011","175.8","1020.415","30.77","61.35","861.0","0.0"],
    [1533015,"2026-08-13 12:30:00","4060","4.383","182.1","5.815","170.9","1020.413","30.8","62.79","854.0","0.0"],
    [1533016,"2026-08-13 12:40:00","4061","4.53","181.1","5.586","185.1","1020.426","30.78","63.05","849.0","0.0"],
    [1533017,"2026-08-13 12:50:00","4062","4.577","179.4","5.945","167.0","1020.421","30.84","59.69","836.0","0.0"],
    [1533018,"2026-08-13 13:00:00","4063","4.354","179.5","5.521","174.7","1020.388","30.85","61.04","823.0","0.0"],
    [1533019,"2026-08-13 13:10:00","4064","4.706","176.5","5.88","172.3","1020.3","30.75","63.34","811.0","0.0"],
    [1533020,"2026-08-13 13:20:00","4065","4.633","175.6","5.357","173.6","1020.222","30.48","67.55","801.0","0.0"],
    [1533021,"2026-08-13 13:30:00","4066","4.47","186.6","5.586","191.3","1020.196","30.55","67.91","791.0","0.0"],
    [1533022,"2026-08-13 13:40:00","4067","4.412","184.2","5.847","171.9","1020.094","30.71","67.29","781.1","0.0"],
    [1533023,"2026-08-13 13:50:00","4068","4.933","185.1","5.912999999999999","192.0","1020.024","30.57","68.09","777.5","0.0"],
    [1533024,"2026-08-13 14:00:00","4069","4.622","179.8","5.978","175.0","1020.028","30.5","68.31","762.7","0.0"],
    [1533025,"2026-08-13 14:10:00","4070","4.404","181.9","5.521","171.8","1019.937","30.6","68.73","763.3","0.0"],
    [1533026,"2026-08-13 14:20:00","4071","4.781000000000001","177.1","5.782","170.0","1019.771","30.51","68.7","746.8","0.0"],
    [1533027,"2026-08-13 14:30:00","4072","4.8","174.3","6.109","168.9","1019.682","30.39","68.83","728.3","0.0"],
    [1533028,"2026-08-13 14:40:00","4073","4.7860000000000005","173.2","5.586","171.3","1019.559","30.3","69.56","707.5","0.0"],
    [1533029,"2026-08-13 14:50:00","4074","4.6","175.3","6.0760000000000005","173.9","1019.515","30.34","69.3","685.6","0.0"],
    [1533030,"2026-08-13 15:00:00","4075","4.165","179.7","5.292000000000001","172.7","1019.504","30.47","70.16","656.5","0.0"],
    [1533031,"2026-08-13 15:10:00","4076","4.721","172.7","5.619","174.3","1019.341","30.36","69.78","627.3","0.0"],
    [1533032,"2026-08-13 15:20:00","4077","4.768","172.6","5.357","168.2","1019.189","30.26","71.38","596.6","0.0"],
    [1533033,"2026-08-13 15:30:00","4078","4.694","172.5","5.422999999999999","174.3","1019.098","30.16","71.38","564.6","0.0"],
    [1533034,"2026-08-13 15:40:00","4079","4.081","171.9","4.867","168.9","1019.241","30.2","71.74","532.9","0.0"],
    [1533035,"2026-08-13 15:50:00","4080","4.132","169.6","4.835","171.4","1019.338","30.14","71.31","503.6","0.0"],
    [1533036,"2026-08-13 16:00:00","4081","4.365","171.5","4.998","172.6","1019.369","30.16","72.18","471.7","0.0"],
    [1533037,"2026-08-13 16:10:00","4082","4.617","168.2","5.129","170.9","1019.384","30.03","72.83","438.7","0.0"],
    [1533038,"2026-08-13 16:20:00","4083","4.692","170.5","5.129","171.1","1019.216","30.06","73.62","418.9","0.0"],
    [1533039,"2026-08-13 16:30:00","4084","4.53","172.1","5.031000000000001","170.7","1019.106","29.97","74.95","388.9","0.0"],
    [1533040,"2026-08-13 16:40:00","4085","4.39","172.3","4.998","171.2","1018.978","29.94","74.34","352.7","0.0"],
    [1533041,"2026-08-13 16:50:00","4086","4.348","176.7","5.031000000000001","171.8","1018.907","29.91","74.79","318.8","0.0"],
    [1533042,"2026-08-13 17:00:00","4087","4.007","175.7","4.802","170.4","1018.902","30.09","74.38","295.9","0.0"],
    [1533043,"2026-08-13 17:10:00","4088","3.9130000000000003","170.5","4.541","169.7","1018.821","29.99","75.1","267.2","0.0"],
    [1533044,"2026-08-13 17:20:00","4089","4.138","174.4","4.508","177.4","1018.637","29.87","76.01","236.8","0.0"],
    [1533045,"2026-08-13 17:30:00","4090","4.093999999999999","174.2","4.573","174.6","1018.569","29.86","76.21","194.1","0.0"],
    [1533046,"2026-08-13 17:40:00","4091","3.647","171.3","4.345","174.4","1018.609","29.72","76.33","163.4","0.0"],
    [1533047,"2026-08-13 17:50:00","4092","3.077","175.3","3.6910000000000003","176.8","1018.69","29.76","75.18","128.5","0.0"],
    [1533048,"2026-08-13 18:00:00","4093","3.1319999999999997","173.7","3.6910000000000003","176.5","1018.682","29.76","76.77","94.0","0.0"],
    [1533049,"2026-08-13 18:10:00","4094","2.855","168.4","3.528","173.4","1018.761","29.63","77.65","69.77","0.0"],
    [1533050,"2026-08-13 18:20:00","4095","2.543","172.8","2.94","170.8","1018.9","29.49","77.56","45.07","0.0"],
    [1533051,"2026-08-13 18:30:00","4096","2.9339999999999997","172.3","3.6260000000000003","174.0","1018.912","29.52","78.44","32.52","0.0"],
    [1533052,"2026-08-13 18:40:00","4097","2.928","177.5","3.822","169.5","1019.032","29.38","78.05","15.41","0.0"],
    [1533053,"2026-08-13 18:50:00","4098","2.792","179.5","3.6910000000000003","177.6","1019.096","29.43","77.97","3.984","0.0"],
    [1533054,"2026-08-13 19:00:00","4099","3.0989999999999998","188.2","4.247","188.9","1019.104","29.4","77.65","0.23199999999999998","0.0"],
    [1533055,"2026-08-13 19:10:00","4100","3.3169999999999997","188.4","4.2139999999999995","188.6","1019.184","29.41","77.32","0.0","0.0"],
    [1533056,"2026-08-13 19:20:00","4101","3.095","199.4","4.149","189.8","1019.35","29.5","76.5","0.0","0.0"],
    [1533057,"2026-08-13 19:30:00","4102","2.835","210.3","4.4430000000000005","208.6","1019.419","29.6","76.28","0.0","0.0"],
    [1533058,"2026-08-13 19:40:00","4103","2.681","208.2","4.312","197.0","1019.461","29.57","76.47","0.0","0.0"],
    [1533059,"2026-08-13 19:50:00","4104","3.391","205.0","5.455","197.8","1019.441","29.47","77.04","0.0","0.0"],
    [1533060,"2026-08-13 20:00:00","4105","2.908","203.2","5.847","196.1","1019.389","29.43","76.9","0.0","0.0"],
    [1533061,"2026-08-13 20:10:00","4106","2.883","207.5","4.541","193.5","1019.425","29.41","77.01","0.0","0.0"],
    [1533062,"2026-08-13 20:20:00","4107","3.39","196.2","4.835","190.1","1019.41","29.33","77.13","0.0","0.0"],
    [1533063,"2026-08-13 20:30:00","4108","3.31","197.6","4.9","191.9","1019.349","29.27","76.9","0.0","0.0"],
    [1533064,"2026-08-13 20:40:00","4109","2.9389999999999996","203.8","4.965","196.1","1019.336","29.24","76.47","0.0","0.0"],
    [1533065,"2026-08-13 20:50:00","4110","2.155","213.1","3.6260000000000003","195.2","1019.294","29.25","76.13","0.0","0.0"],
    [1533066,"2026-08-13 21:00:00","4111","1.3430000000000002","242.7","3.267","251.8","1019.272","29.17","75.15","0.0","0.0"],
    [1533067,"2026-08-13 21:10:00","4112","2.036","222.1","3.299","237.6","1019.192","29.19","74.68","0.0","0.0"],
    [1533068,"2026-08-13 21:20:00","4113","1.7790000000000001","222.4","3.234","209.8","1019.168","29.25","74.53","0.0","0.0"],
    [1533069,"2026-08-13 21:30:00","4114","2.213","248.4","4.671","260.7","1019.092","29.22","73.86","0.0","0.0"],
    [1533070,"2026-08-13 21:40:00","4115","2.521","253.8","5.357","263.4","1019.152","29.15","71.97","0.0","0.0"],
    [1533071,"2026-08-13 21:50:00","4116","2.28","255.2","4.051","243.7","1019.079","29.16","71.08","0.0","0.0"],
    [1533072,"2026-08-13 22:00:00","4117","2.487","259.9","4.671","271.9","1019.078","29.1","71.08","0.0","0.0"],
    [1533073,"2026-08-13 22:10:00","4118","2.0980000000000003","256.8","4.508","263.8","1019.047","29.08","71.44","0.0","0.0"],
    [1533074,"2026-08-13 22:20:00","4119","2.08","247.9","3.855","217.2","1018.956","28.97","72.27","0.0","0.0"],
    [1533075,"2026-08-13 22:30:00","4120","2.508","245.2","4.41","254.0","1018.984","28.9","73.31","0.0","0.0"],
    [1533076,"2026-08-13 22:40:00","4121","2.5610000000000004","242.6","3.855","252.6","1019.003","28.81","73.75","0.0","0.0"],
    [1533077,"2026-08-13 22:50:00","4122","1.673","253.4","2.94","251.2","1019.014","28.79","73.5","0.0","0.0"],
    [1533078,"2026-08-13 23:00:00","4123","1.819","257.5","3.071","275.0","1019.019","28.64","71.41","0.0","0.0"],
    [1533079,"2026-08-13 23:10:00","4124","2.327","243.4","3.9530000000000003","210.7","1018.891","28.63","68.32","0.0","0.0"],
    [1533080,"2026-08-13 23:20:00","4125","2.524","240.2","4.2139999999999995","229.4","1018.771","28.85","65.94","0.0","0.0"],
    [1533081,"2026-08-13 23:30:00","4126","2.1430000000000002","247.9","3.6910000000000003","260.2","1018.658","28.87","62.34","0.0","0.0"],
    [1533082,"2026-08-13 23:40:00","4127","1.643","247.9","3.071","255.0","1018.649","28.93","59.95","0.0","0.0"],
    [1533083,"2026-08-13 23:50:00","4128","1.857","244.6","2.7439999999999998","245.4","1018.508","28.87","58.7","0.0","0.0"],
    [1533084,"2026-08-14 00:00:00","4129","1.942","262.6","3.1689999999999996","269.1","1018.417","28.72","58.34","0.0","0.0"],
    [1533085,"2026-08-14 00:10:00","4130","1.88","261.9","3.0380000000000003","265.9","1018.392","28.42","58.71","0.0","0.0"],
    [1533086,"2026-08-14 00:20:00","4131","2.113","260.1","3.071","259.7","1018.208","28.31","58.35","0.0","0.0"],
    [1533087,"2026-08-14 00:30:00","4132","1.671","255.6","2.5810000000000004","255.6","1018.063","28.24","58.01","0.0","0.0"],
    [1533088,"2026-08-14 00:40:00","4133","2.086","267.3","2.842","269.9","1017.963","28.24","58.19","0.0","0.0"],
    [1533089,"2026-08-14 00:50:00","4134","1.564","264.3","2.6460000000000004","266.4","1017.845","28.02","58.85","0.0","0.0"],
    [1533090,"2026-08-14 01:00:00","4135","1.5419999999999998","272.4","2.352","272.0","1017.769","27.88","59.91","0.0","0.0"],
    [1533091,"2026-08-14 01:10:00","4136","2.18","263.4","3.299","280.6","1017.677","27.86","59.1","0.0","0.0"],
    [1533092,"2026-08-14 01:20:00","4137","2.151","255.5","4.149","253.1","1017.582","28.0","58.62","0.0","0.0"],
    [1533093,"2026-08-14 01:30:00","4138","2.705","266.1","4.2139999999999995","270.8","1017.549","28.04","58.64","0.0","0.0"],
    [1533094,"2026-08-14 01:40:00","4139","2.512","256.4","4.867","269.0","1017.606","27.95","58.59","0.0","0.0"],
    [1533095,"2026-08-14 01:50:00","4140","2.262","258.9","4.573","273.4","1017.484","28.09","56.68","0.0","0.0"],
    [1533096,"2026-08-14 02:00:00","4141","2.209","256.3","3.463","264.4","1017.421","28.09","56.01","0.0","0.0"],
    [1533097,"2026-08-14 02:10:00","4142","1.8130000000000002","254.6","3.659","260.4","1017.289","28.02","55.36","0.0","0.0"],
    [1533098,"2026-08-14 02:20:00","4143","2.131","247.8","3.299","259.8","1017.321","28.17","54.34","0.0","0.0"],
    [1533099,"2026-08-14 02:30:00","4144","2.343","253.6","4.181","270.0","1017.287","28.24","54.17","0.0","0.0"],
    [1533100,"2026-08-14 02:40:00","4145","2.458","264.0","4.377","254.2","1017.228","27.97","54.25","0.0","0.0"],
    [1533101,"2026-08-14 02:50:00","4146","2.545","269.1","4.345","269.0","1017.139","28.01","53.04","0.0","0.0"],
    [1533102,"2026-08-14 03:00:00","4147","2.695","256.3","4.573","250.9","1016.931","28.12","51.81","0.0","0.0"],
    [1533103,"2026-08-14 03:10:00","4148","2.4659999999999997","272.5","4.051","289.1","1016.901","28.15","51.93","0.0","0.0"],
    [1533104,"2026-08-14 03:20:00","4149","2.3609999999999998","286.8","3.7889999999999997","268.4","1016.867","28.17","52.47","0.0","0.0"],
    [1533105,"2026-08-14 03:30:00","4150","2.474","282.8","3.528","286.1","1016.919","28.21","51.88","0.0","0.0"],
    [1533106,"2026-08-14 03:40:00","4151","1.725","284.9","2.679","271.0","1016.934","28.16","50.7","0.0","0.0"],
    [1533107,"2026-08-14 03:50:00","4152","0.9620000000000001","270.3","1.666","254.2","1016.953","28.45","49.95","0.0","0.0"],
    [1533108,"2026-08-14 04:00:00","4153","1.246","297.2","1.895","281.0","1016.932","28.38","51.66","0.0","0.0"],
    [1533109,"2026-08-14 04:10:00","4154","2.218","280.8","3.43","284.4","1016.934","28.15","51.12","0.0","0.0"],
    [1533110,"2026-08-14 04:20:00","4155","1.992","267.1","2.679","268.2","1016.89","28.09","50.58","0.0","0.0"],
    [1533111,"2026-08-14 04:30:00","4156","2.141","270.9","3.0380000000000003","274.1","1016.907","27.75","50.8","0.0","0.0"],
    [1533112,"2026-08-14 04:40:00","4157","2.225","272.4","2.94","271.2","1016.827","27.72","49.15","0.0","0.0"],
    [1533113,"2026-08-14 04:50:00","4158","1.865","266.1","2.875","249.9","1016.816","27.9","47.52","0.0","0.0"],
    [1533114,"2026-08-14 05:00:00","4159","2.153","266.5","3.528","269.3","1016.86","28.11","46.57","0.35","0.0"],
    [1533115,"2026-08-14 05:10:00","4160","2.6010000000000004","271.6","3.528","273.5","1016.8","27.97","48.83","5.529","0.0"],
    [1533116,"2026-08-14 05:20:00","4161","2.339","265.9","3.528","256.3","1016.796","27.84","49.54","15.0","0.0"],
    [1533117,"2026-08-14 05:30:00","4162","1.815","266.5","3.234","252.9","1016.804","28.18","48.07","27.51","0.0"],
    [1533118,"2026-08-14 05:40:00","4163","2.175","265.8","4.051","265.1","1016.796","28.4","47.89","47.84","0.0"],
    [1533119,"2026-08-14 05:50:00","4164","2.045","290.4","2.94","280.0","1016.893","28.26","49.55","62.74","0.0"],
    [1533120,"2026-08-14 06:00:00","4165","1.619","258.6","3.332","253.2","1017.049","28.47","48.56","89.2","0.0"],
    [1533121,"2026-08-14 06:10:00","4166","2.668","253.2","5.978","262.2","1017.147","28.34","48.07","114.6","0.0"],
    [1533122,"2026-08-14 06:20:00","4167","2.992","278.0","4.965","274.0","1017.192","28.48","47.65","141.8","0.0"],
    [1533123,"2026-08-14 06:30:00","4168","1.734","268.8","3.234","257.0","1017.223","29.06","46.29","170.9","0.0"],
    [1533124,"2026-08-14 06:40:00","4169","2.258","270.6","3.6260000000000003","269.7","1017.258","29.38","44.29","200.9","0.0"],
    [1533125,"2026-08-14 06:50:00","4170","1.882","278.4","3.103","271.1","1017.347","29.67","44.65","231.9","0.0"],
    [1533126,"2026-08-14 07:00:00","4171","2.002","268.6","3.332","277.1","1017.333","29.97","43.86","266.8","0.0"],
    [1533127,"2026-08-14 07:10:00","4172","1.9469999999999998","260.2","3.234","268.1","1017.351","30.0","44.08","301.0","0.0"],
    [1533128,"2026-08-14 07:20:00","4173","2.265","267.0","3.6260000000000003","285.3","1017.345","30.21","44.37","334.5","0.0"],
    [1533129,"2026-08-14 07:30:00","4174","1.545","253.6","3.136","255.5","1017.313","30.47","43.8","365.7","0.0"],
    [1533130,"2026-08-14 07:40:00","4175","1.444","266.0","3.201","250.3","1017.324","30.74","41.51","395.7","0.0"],
    [1533131,"2026-08-14 07:50:00","4176","1.645","242.6","3.1689999999999996","239.6","1017.289","31.05","39.06","429.9","0.0"],
    [1533132,"2026-08-14 08:00:00","4177","1.679","265.3","2.875","274.6","1017.258","31.13","39.63","463.7","0.0"],
    [1533133,"2026-08-14 08:10:00","4178","1.653","233.7","2.94","255.4","1017.198","31.71","38.91","493.9","0.0"],
    [1533134,"2026-08-14 08:20:00","4179","1.715","239.4","2.875","259.7","1017.194","31.89","37.77","525.8","0.0"],
    [1533135,"2026-08-14 08:30:00","4180","2.063","238.6","3.659","249.9","1017.237","32.15","36.69","554.0","0.0"],
    [1533136,"2026-08-14 08:40:00","4181","2.085","235.8","3.267","251.3","1017.244","32.04","36.82","586.6","0.0"],
    [1533137,"2026-08-14 08:50:00","4182","2.19","241.9","3.92","222.8","1017.168","32.6","35.59","616.4","0.0"],
    [1533138,"2026-08-14 09:00:00","4183","2.4619999999999997","240.0","4.41","224.3","1017.148","33.3","33.86","641.4","0.0"],
    [1533139,"2026-08-14 09:10:00","4184","2.412","234.8","4.247","263.4","1017.122","33.29","35.41","664.7","0.0"],
    [1533140,"2026-08-14 09:20:00","4185","2.633","216.9","5.619","194.0","1017.135","33.24","40.11","690.3","0.0"],
    [1533141,"2026-08-14 09:30:00","4186","3.841","198.5","5.88","203.9","1017.16","32.41","49.54","708.9","0.0"],
    [1533142,"2026-08-14 09:40:00","4187","4.883","197.4","6.86","188.3","1017.159","32.19","48.52","728.8","0.0"],
    [1533143,"2026-08-14 09:50:00","4188","3.7710000000000004","205.7","6.631","192.0","1017.177","32.34","50.03","750.9","0.0"],
    [1533144,"2026-08-14 10:00:00","4189","5.3020000000000005","194.4","7.187","213.7","1017.112","32.13","55.52","775.3","0.0"],
    [1533145,"2026-08-14 10:10:00","4190","4.71","196.9","7.056","193.0","1017.124","31.97","56.41","796.9","0.0"],
    [1533146,"2026-08-14 10:20:00","4191","5.544","195.6","7.709","198.6","1017.07","31.78","59.43","819.0","0.0"],
    [1533147,"2026-08-14 10:30:00","4192","5.172999999999999","197.1","7.709","200.4","1017.008","31.94","58.7","829.0","0.0"],
    [1533148,"2026-08-14 10:40:00","4193","4.6819999999999995","207.8","7.154","192.9","1016.946","32.21","58.33","840.0","0.0"],
    [1533149,"2026-08-14 10:50:00","4194","5.233","198.5","7.84","198.7","1016.889","32.14","59.31","852.0","0.0"],
    [1533150,"2026-08-14 11:00:00","4195","5.582000000000001","193.0","7.905","186.0","1016.809","31.96","59.84","864.0","0.0"],
    [1533151,"2026-08-14 11:10:00","4196","5.093","197.5","7.775","192.0","1016.77","31.82","62.91","872.0","0.0"],
    [1533152,"2026-08-14 11:20:00","4197","4.658","201.2","6.7620000000000005","203.3","1016.697","32.5","58.54","879.0","0.0"],
    [1533153,"2026-08-14 11:30:00","4198","5.45","192.2","7.154","196.7","1016.596","32.12","61.12","888.0","0.0"],
    [1533154,"2026-08-14 11:40:00","4199","5.422000000000001","190.5","7.415","186.2","1016.507","31.82","62.89","892.0","0.0"],
    [1533155,"2026-08-14 11:50:00","4200","4.89","202.1","7.252000000000001","205.1","1016.43","32.78","53.02","892.0","0.0"],
    [1533156,"2026-08-14 12:00:00","4201","4.31","206.0","7.481","189.6","1016.384","33.59","50.39","870.0","0.0"],
    [1533157,"2026-08-14 12:10:00","4202","4.913","206.7","7.644","195.5","1016.291","33.39","52.86","904.0","0.0"],
    [1533158,"2026-08-14 12:20:00","4203","4.835","205.5","7.872999999999999","202.4","1016.234","33.48","55.04","902.0","0.0"],
    [1533159,"2026-08-14 12:30:00","4204","5.57","201.3","7.742000000000001","199.6","1016.127","33.0","58.05","896.0","0.0"],
    [1533160,"2026-08-14 12:40:00","4205","4.692","206.4","9.11","207.0","1016.089","33.33","56.25","900.0","0.0"],
    [1533161,"2026-08-14 12:50:00","4206","5.9879999999999995","197.4","8.3","197.0","1015.984","32.65","61.69","881.0","0.0"],
    [1533162,"2026-08-14 13:00:00","4207","6.308","201.5","8.72","198.1","1015.927","32.37","61.76","792.8","0.0"],
    [1533163,"2026-08-14 13:10:00","4208","5.031000000000001","206.9","9.31","197.3","1015.881","32.6","60.53","760.6","0.0"],
    [1533164,"2026-08-14 13:20:00","4209","6.045","203.2","9.05","190.2","1015.755","32.19","60.79","706.6","0.0"],
    [1533165,"2026-08-14 13:30:00","4210","5.023","211.1","8.85","200.8","1015.666","32.38","58.58","637.2","0.0"],
    [1533166,"2026-08-14 13:40:00","4211","5.57","203.7","8.89","202.2","1015.516","32.5","57.97","654.6","0.0"],
    [1533167,"2026-08-14 13:50:00","4212","5.5489999999999995","205.6","9.05","207.4","1015.388","32.26","59.89","710.8","0.0"],
    [1533168,"2026-08-14 14:00:00","4213","5.68","201.2","8.79","195.2","1015.273","32.35","58.86","748.3","0.0"],
    [1533169,"2026-08-14 14:10:00","4214","5.87","200.6","8.92","208.5","1015.201","32.35","58.43","755.9","0.0"],
    [1533170,"2026-08-14 14:20:00","4215","6.502000000000001","191.3","8.89","191.1","1015.122","31.91","62.11","739.2","0.0"],
    [1533171,"2026-08-14 14:30:00","4216","6.245","195.4","8.46","198.6","1015.087","31.77","62.86","709.3","0.0"],
    [1533172,"2026-08-14 14:40:00","4217","6.452000000000001","194.6","8.89","192.4","1015.051","31.44","64.82","690.0","0.0"],
    [1533173,"2026-08-14 14:50:00","4218","6.247999999999999","198.4","8.82","197.5","1015.043","31.64","63.73","642.9","0.0"],
    [1533174,"2026-08-14 15:00:00","4219","5.752000000000001","198.9","8.07","206.7","1014.964","31.66","62.19","656.7","0.0"],
    [1533175,"2026-08-14 15:10:00","4220","6.35","196.6","8.56","189.8","1014.82","31.51","62.49","632.7","0.0"],
    [1533176,"2026-08-14 15:20:00","4221","6.202999999999999","194.7","8.13","208.8","1014.786","31.43","62.84","588.4","0.0"],
    [1533177,"2026-08-14 15:30:00","4222","6.218999999999999","199.0","8.72","191.8","1014.774","31.48","62.59","566.4","0.0"],
    [1533178,"2026-08-14 15:40:00","4223","5.777","200.7","8.46","193.9","1014.764","31.65","60.88","505.3","0.0"],
    [1533179,"2026-08-14 15:50:00","4224","4.609","214.8","7.382999999999999","210.7","1014.721","31.95","60.03","508.2","0.0"],
    [1533180,"2026-08-14 16:00:00","4225","4.532","206.3","6.827000000000001","208.8","1014.581","32.17","59.06","484.4","0.0"],
    [1533181,"2026-08-14 16:10:00","4226","5.56","204.4","8.79","204.5","1014.539","32.07","57.3","411.4","0.0"],
    [1533182,"2026-08-14 16:20:00","4227","5.188","198.8","8.1","198.6","1014.427","31.76","58.93","383.9","0.0"],
    [1533183,"2026-08-14 16:30:00","4228","5.395","201.5","8.1","219.0","1014.399","31.81","56.43","366.4","0.0"],
    [1533184,"2026-08-14 16:40:00","4229","4.781000000000001","217.5","6.9910000000000005","223.5","1014.408","31.99","54.76","336.5","0.0"],
    [1533185,"2026-08-14 16:50:00","4230","4.26","217.3","7.187","239.6","1014.362","31.94","57.3","288.1","0.0"],
    [1533186,"2026-08-14 17:00:00","4231","5.031000000000001","215.1","7.579","223.8","1014.313","31.68","58.0","240.0","0.0"],
    [1533187,"2026-08-14 17:10:00","4232","4.397","221.5","6.925","224.0","1014.259","31.78","59.09","225.0","0.0"],
    [1533188,"2026-08-14 17:20:00","4233","3.839","218.5","5.912999999999999","232.1","1014.241","31.91","60.84","208.6","0.0"],
    [1533189,"2026-08-14 17:30:00","4234","3.2710000000000004","225.2","7.252000000000001","219.1","1014.277","31.87","59.65","176.8","0.0"],
    [1533190,"2026-08-14 17:40:00","4235","3.51","216.6","6.337000000000001","235.9","1014.158","31.82","57.91","138.4","0.0"],
    [1533191,"2026-08-14 17:50:00","4236","3.6630000000000003","210.9","6.599","238.4","1014.128","31.58","56.84","61.61","0.0"],
    [1533192,"2026-08-14 18:00:00","4237","2.9789999999999996","234.4","5.88","221.5","1014.356","31.76","51.4","39.34","0.0"],
    [1533193,"2026-08-14 18:10:00","4238","3.0589999999999997","220.4","5.292000000000001","205.6","1014.433","31.96","49.91","28.88","0.0"],
    [1533194,"2026-08-14 18:20:00","4239","3.407","208.5","5.586","192.8","1014.476","31.6","53.43","23.73","0.0"],
    [1533195,"2026-08-14 18:30:00","4240","3.145","205.6","5.88","217.4","1014.606","31.3","57.03","17.92","0.0"],
    [1533196,"2026-08-14 18:40:00","4241","3.105","212.6","4.835","225.6","1014.658","31.08","56.82","10.42","0.0"],
    [1533197,"2026-08-14 18:50:00","4242","3.407","214.6","6.0760000000000005","217.3","1014.724","30.94","59.67","2.541","0.0"],
    [1533198,"2026-08-14 19:00:00","4243","3.295","214.5","5.1610000000000005","218.0","1014.721","30.86","61.54","0.066","0.0"],
    [1533199,"2026-08-14 19:10:00","4244","3.063","216.4","5.129","218.7","1014.812","30.73","62.69","0.0","0.0"],
    [1533200,"2026-08-14 19:20:00","4245","2.677","243.2","4.965","264.6","1014.922","30.74","61.18","0.0","0.0"],
    [1533201,"2026-08-14 19:30:00","4246","2.5469999999999997","250.6","4.835","272.2","1014.986","30.73","59.72","0.0","0.0"],
    [1533202,"2026-08-14 19:40:00","4247","2.168","255.4","4.2139999999999995","274.7","1014.994","30.67","58.35","0.0","0.0"],
    [1533203,"2026-08-14 19:50:00","4248","1.993","261.8","3.463","250.6","1015.002","30.7","57.65","0.0","0.0"],
    [1533204,"2026-08-14 20:00:00","4249","1.64","256.0","2.94","265.1","1015.007","30.67","58.64","0.0","0.0"],
    [1533205,"2026-08-14 20:10:00","4250","1.686","202.9","2.515","219.2","1015.062","30.58","62.79","0.0","0.0"],
    [1533206,"2026-08-14 20:20:00","4251","1.392","225.2","3.332","262.7","1015.153","30.29","64.32","0.0","0.0"],
    [1533207,"2026-08-14 20:30:00","4252","1.8530000000000002","253.1","3.005","263.6","1015.299","30.49","60.63","0.0","0.0"],
    [1533208,"2026-08-14 20:40:00","4253","1.983","241.9","3.495","222.0","1015.188","30.61","58.49","0.0","0.0"],
    [1533209,"2026-08-14 20:50:00","4254","2.302","241.6","3.6910000000000003","227.5","1015.132","30.85","56.84","0.0","0.0"],
    [1533210,"2026-08-14 21:00:00","4255","2.7119999999999997","240.0","4.312","228.6","1014.941","31.07","54.13","0.0","0.0"],
    [1533211,"2026-08-14 21:10:00","4256","2.6310000000000002","240.6","4.41","218.5","1014.77","30.98","50.81","0.0","0.0"],
    [1533212,"2026-08-14 21:20:00","4257","2.642","239.8","4.181","221.2","1014.697","30.92","46.48","0.0","0.0"],
    [1533213,"2026-08-14 21:30:00","4258","2.8810000000000002","240.3","4.9","233.4","1014.634","30.93","47.69","0.0","0.0"],
    [1533214,"2026-08-14 21:40:00","4259","2.605","242.4","4.181","252.9","1014.602","30.9","43.44","0.0","0.0"],
    [1533215,"2026-08-14 21:50:00","4260","2.069","249.3","3.92","245.9","1014.612","30.97","39.38","0.0","0.0"],
    [1533216,"2026-08-14 22:00:00","4261","2.255","241.9","4.606","255.8","1014.55","30.94","39.62","0.0","0.0"],
    [1533217,"2026-08-14 22:10:00","4262","2.825","238.2","4.802","224.2","1014.393","30.66","53.24","0.0","0.0"],
    [1533218,"2026-08-14 22:20:00","4263","3.3310000000000004","242.1","5.2589999999999995","257.0","1014.336","30.0","67.98","0.0","0.0"],
    [1533219,"2026-08-14 22:30:00","4264","3.259","243.0","5.1610000000000005","230.0","1014.278","29.6","70.14","0.0","0.0"],
    [1533220,"2026-08-14 22:40:00","4265","2.688","254.4","4.671","271.2","1014.192","29.59","70.74","0.0","0.0"],
    [1533221,"2026-08-14 22:50:00","4266","2.224","252.4","4.41","266.0","1014.085","29.38","70.45","0.0","0.0"],
    [1533222,"2026-08-14 23:00:00","4267","2.188","255.1","3.528","250.3","1014.081","29.35","71.34","0.0","0.0"],
    [1533223,"2026-08-14 23:10:00","4268","2.4859999999999998","253.6","4.312","239.9","1014.051","29.28","72.49","0.0","0.0"],
    [1533224,"2026-08-14 23:20:00","4269","2.8480000000000003","248.3","5.1610000000000005","271.9","1014.049","29.25","73.66","0.0","0.0"],
    [1533225,"2026-08-14 23:30:00","4270","2.642","243.2","4.965","270.3","1014.078","29.23","75.75","0.0","0.0"],
    [1533226,"2026-08-14 23:40:00","4271","3.043","213.4","7.6770000000000005","224.3","1014.095","29.18","77.28","0.0","0.0"],
    [1533227,"2026-08-14 23:50:00","4272","3.1289999999999996","216.8","4.769","213.9","1014.064","29.12","76.76","0.0","0.0"],
    [1533228,"2026-08-15 00:00:00","4273","2.35","217.8","4.149","215.9","1014.07","29.13","75.5","0.0","0.0"],
    [1533229,"2026-08-15 00:10:00","4274","2.717","210.8","5.129","188.5","1014.076","28.97","74.78","0.0","0.0"],
    [1533230,"2026-08-15 00:20:00","4275","2.634","224.4","5.357","200.5","1014.048","28.98","74.38","0.0","0.0"],
    [1533231,"2026-08-15 00:30:00","4276","2.694","249.9","4.769","262.9","1014.036","28.88","73.31","0.0","0.0"],
    [1533232,"2026-08-15 00:40:00","4277","2.655","253.1","4.279","274.4","1013.936","28.76","72.33","0.0","0.0"],
    [1533233,"2026-08-15 00:50:00","4278","1.6580000000000001","250.4","3.463","265.6","1013.929","28.7","71.07","0.0","0.0"],
    [1533234,"2026-08-15 01:00:00","4279","1.828","239.9","3.659","248.9","1013.845","28.6","69.85","0.0","0.0"],
    [1533235,"2026-08-15 01:10:00","4280","1.847","251.5","2.9730000000000003","256.7","1013.793","28.64","68.46","0.0","0.0"],
    [1533236,"2026-08-15 01:20:00","4281","0.7829999999999999","238.7","1.307","251.6","1013.816","28.46","67.12","0.0","0.0"],
    [1533237,"2026-08-15 01:30:00","4282","0.674","214.4","1.307","235.2","1013.856","28.19","64.34","0.0","0.0"],
    [1533238,"2026-08-15 01:40:00","4283","0.228","242.1","0.98","198.8","1013.868","28.2","65.5","0.0","0.0"],
    [1533239,"2026-08-15 01:50:00","4284","0.86","236.4","2.254","268.2","1013.885","28.0","63.02","0.0","0.0"],
    [1533240,"2026-08-15 02:00:00","4285","1.376","259.6","2.613","263.7","1013.864","27.74","55.04","0.0","0.0"],
    [1533241,"2026-08-15 02:10:00","4286","0.89","253.3","2.0580000000000003","253.1","1013.945","27.74","50.69","0.0","0.0"],
    [1533242,"2026-08-15 02:20:00","4287","1.7819999999999998","266.2","2.417","268.3","1013.956","27.58","50.34","0.0","0.0"],
    [1533243,"2026-08-15 02:30:00","4288","1.797","273.9","2.45","277.5","1013.969","27.34","49.68","0.0","0.0"],
    [1533244,"2026-08-15 02:40:00","4289","1.433","262.1","2.417","262.9","1013.925","27.32","49.79","0.0","0.0"],
    [1533245,"2026-08-15 02:50:00","4290","0.6","206.7","2.548","200.4","1013.983","27.49","50.57","0.0","0.0"],
    [1533246,"2026-08-15 03:00:00","4291","1.943","227.5","3.136","205.2","1014.032","27.75","50.83","0.0","0.0"],
    [1533247,"2026-08-15 03:10:00","4292","1.4980000000000002","252.3","2.515","261.9","1014.005","27.73","47.82","0.0","0.0"],
    [1533248,"2026-08-15 03:20:00","4293","1.665","269.7","2.352","264.4","1013.975","27.53","49.4","0.0","0.0"],
    [1533249,"2026-08-15 03:30:00","4294","1.8519999999999999","262.4","2.7110000000000003","244.4","1013.86","27.34","49.19","0.0","0.0"],
    [1533250,"2026-08-15 03:40:00","4295","1.476","270.7","1.993","274.7","1013.716","27.08","50.12","0.0","0.0"],
    [1533251,"2026-08-15 03:50:00","4296","1.5919999999999999","265.3","1.9269999999999998","265.9","1013.666","26.99","49.85","0.0","0.0"],
    [1533252,"2026-08-15 04:00:00","4297","1.53","261.3","2.319","263.1","1013.677","26.96","49.92","0.0","0.0"],
    [1533253,"2026-08-15 04:10:00","4298","1.368","269.2","1.895","263.6","1013.636","26.91","51.45","0.0","0.0"],
    [1533254,"2026-08-15 04:20:00","4299","1.48","265.6","1.993","260.3","1013.69","26.8","50.87","0.0","0.0"],
    [1533255,"2026-08-15 04:30:00","4300","1.3840000000000001","269.2","1.96","276.5","1013.684","26.73","50.82","0.0","0.0"],
    [1533256,"2026-08-15 04:40:00","4301","1.2819999999999998","267.1","1.797","259.2","1013.699","26.65","51.53","0.0","0.0"],
    [1533257,"2026-08-15 04:50:00","4302","1.1340000000000001","257.2","1.993","259.1","1013.795","26.69","51.01","0.0","0.0"],
    [1533258,"2026-08-15 05:00:00","4303","1.222","252.3","2.0909999999999997","269.9","1013.786","26.7","51.08","0.195","0.0"],
    [1533259,"2026-08-15 05:10:00","4304","2.123","263.4","2.45","263.1","1013.864","26.63","50.46","4.414","0.0"],
    [1533260,"2026-08-15 05:20:00","4305","2.1109999999999998","261.2","2.6460000000000004","262.9","1013.861","26.62","50.26","14.07","0.0"],
    [1533261,"2026-08-15 05:30:00","4306","1.989","263.1","2.613","265.9","1013.935","26.85","49.79","28.96","0.0"],
    [1533262,"2026-08-15 05:40:00","4307","1.892","272.8","2.515","266.1","1013.989","26.99","49.2","46.99","0.0"],
    [1533263,"2026-08-15 05:50:00","4308","0.552","290.3","1.568","280.5","1014.035","27.29","48.93","58.27","0.0"],
    [1533264,"2026-08-15 06:00:00","4309","0.026000000000000002","271.1","0.588","273.5","1014.112","27.81","50.83","85.1","0.0"],
    [1533265,"2026-08-15 06:10:00","4310","0.0","0.0","0.0","0.0","1014.221","28.46","48.76","112.2","0.0"],
    [1533266,"2026-08-15 06:20:00","4311","0.7020000000000001","23.08","2.123","32.4","1014.311","28.73","50.19","136.4","0.0"],
    [1533267,"2026-08-15 06:30:00","4312","2.589","30.5","4.573","23.32","1014.387","28.18","54.82","164.6","0.0"],
    [1533268,"2026-08-15 06:40:00","4313","4.236000000000001","18.21","5.194","19.58","1014.366","28.14","53.5","196.3","0.0"],
    [1533269,"2026-08-15 06:50:00","4314","3.014","12.54","3.7569999999999997","14.53","1014.42","28.14","56.46","226.4","0.0"],
    [1533270,"2026-08-15 07:00:00","4315","3.028","12.89","3.7239999999999998","8.45","1014.474","28.23","59.17","255.6","0.0"],
    [1533271,"2026-08-15 07:10:00","4316","2.713","12.02","3.365","12.12","1014.58","28.34","62.24","286.4","0.0"],
    [1533272,"2026-08-15 07:20:00","4317","3.077","17.26","4.737","12.53","1014.605","28.46","65.23","321.0","0.0"],
    [1533273,"2026-08-15 07:30:00","4318","4.455","21.75","6.337000000000001","26.47","1014.617","28.52","73.33","360.0","0.0"],
    [1533274,"2026-08-15 07:40:00","4319","5.109","34.08","6.272","44.57","1014.651","28.34","77.89","390.3","0.0"],
    [1533275,"2026-08-15 07:50:00","4320","5.3870000000000005","46.99","6.468","41.43","1014.707","28.27","79.12","423.6","0.0"],
    [1533276,"2026-08-15 08:00:00","4321","5.667000000000001","49.03","7.252000000000001","43.19","1014.705","28.47","76.56","461.0","0.0"],
    [1533277,"2026-08-15 08:10:00","4322","6.6739999999999995","41.16","8.66","40.45","1014.698","28.39","82.9","480.9","0.0"],
    [1533278,"2026-08-15 08:20:00","4323","7.126","40.93","8.82","44.68","1014.694","28.04","84.7","517.1","0.0"],
    [1533279,"2026-08-15 08:30:00","4324","6.816","40.28","9.31","45.89","1014.701","28.04","84.7","543.5","0.0"],
    [1533280,"2026-08-15 08:40:00","4325","6.492999999999999","37.73","8.17","30.87","1014.799","28.06","84.8","573.4","0.0"],
    [1533281,"2026-08-15 08:50:00","4326","6.432","39.55","8.98","41.7","1014.883","28.09","84.9","600.5","0.0"],
    [1533282,"2026-08-15 09:00:00","4327","6.291","40.77","8.2","44.53","1014.951","28.16","84.8","608.2","0.0"],
    [1533283,"2026-08-15 09:10:00","4328","6.252000000000001","43.76","7.742000000000001","37.1","1015.027","28.22","84.1","627.8","0.0"],
    [1533284,"2026-08-15 09:20:00","4329","6.178","44.68","7.513","45.71","1015.039","28.34","83.4","680.1","0.0"],
    [1533285,"2026-08-15 09:30:00","4330","4.981","39.77","6.729","48.77","1015.139","28.55","81.3","707.3","0.0"],
    [1533286,"2026-08-15 09:40:00","4331","4.526","38.98","6.893","32.21","1015.193","28.8","78.94","728.6","0.0"],
    [1533287,"2026-08-15 09:50:00","4332","2.91","50.94","5.945","29.3","1015.321","29.02","78.95","750.7","0.0"],
    [1533288,"2026-08-15 10:00:00","4333","2.685","65.76","6.011","86.9","1015.46","28.99","79.13","767.2","0.0"],
    [1533289,"2026-08-15 10:10:00","4334","3.1289999999999996","84.4","6.109","111.4","1015.572","28.89","79.24","727.9","0.0"],
    [1533290,"2026-08-15 10:20:00","4335","3.6260000000000003","81.0","6.042999999999999","99.0","1015.565","28.94","78.83","802.0","0.0"],
    [1533291,"2026-08-15 10:30:00","4336","4.3919999999999995","84.6","6.011","82.3","1015.541","28.79","79.25","813.0","0.0"],
    [1533292,"2026-08-15 10:40:00","4337","4.19","87.8","5.978","92.3","1015.562","28.78","78.86","825.0","0.0"],
    [1533293,"2026-08-15 10:50:00","4338","4.1930000000000005","96.2","5.586","107.9","1015.6","28.86","78.0","834.0","0.0"],
    [1533294,"2026-08-15 11:00:00","4339","4.159","98.9","5.521","99.2","1015.665","28.91","78.12","836.0","0.0"],
    [1533295,"2026-08-15 11:10:00","4340","3.989","104.2","5.684","94.9","1015.718","28.86","77.9","736.5","0.0"],
    [1533296,"2026-08-15 11:20:00","4341","3.947","114.6","4.835","106.2","1015.703","28.81","77.34","892.0","0.0"],
    [1533297,"2026-08-15 11:30:00","4342","3.577","118.9","4.9","123.4","1015.647","28.91","77.02","878.0","0.0"],
    [1533298,"2026-08-15 11:40:00","4343","3.784","118.2","4.671","118.2","1015.535","28.76","77.31","839.0","0.0"],
    [1533299,"2026-08-15 11:50:00","4344","3.694","122.5","4.769","113.1","1015.4","28.8","77.13","869.0","0.0"],
    [1533300,"2026-08-15 12:00:00","4345","3.7239999999999998","133.4","4.867","135.9","1015.313","28.84","77.12","868.0","0.0"],
    [1533301,"2026-08-15 12:10:00","4346","3.821","127.3","5.063","135.9","1015.166","28.8","76.82","869.0","0.0"],
    [1533302,"2026-08-15 12:20:00","4347","3.617","133.4","4.704","131.1","1015.093","28.87","77.11","866.0","0.0"],
    [1533303,"2026-08-15 12:30:00","4348","4.255","135.5","5.227","136.6","1014.948","28.79","77.36","862.0","0.0"],
    [1533304,"2026-08-15 12:40:00","4349","4.551","136.9","5.619","132.2","1014.798","28.74","77.61","859.0","0.0"],
    [1533305,"2026-08-15 12:50:00","4350","3.56","137.4","4.769","140.5","1014.898","28.78","77.17","848.0","0.0"],
    [1533306,"2026-08-15 13:00:00","4351","3.638","131.8","4.835","139.8","1014.893","29.05","76.86","836.0","0.0"],
    [1533307,"2026-08-15 13:10:00","4352","3.3560000000000003","125.5","4.573","133.7","1014.945","28.87","77.75","827.0","0.0"],
    [1533308,"2026-08-15 13:20:00","4353","3.47","112.4","4.671","110.1","1014.97","28.92","77.56","814.0","0.0"],
    [1533309,"2026-08-15 13:30:00","4354","3.7430000000000003","117.1","4.835","132.8","1014.832","28.77","78.0","806.0","0.0"],
    [1533310,"2026-08-15 13:40:00","4355","3.911","130.4","5.325","143.1","1014.561","28.86","78.65","795.2","0.0"],
    [1533311,"2026-08-15 13:50:00","4356","4.388999999999999","134.1","5.292000000000001","127.4","1014.271","28.74","79.29","783.1","0.0"],
    [1533312,"2026-08-15 14:00:00","4357","4.275","141.0","5.749","144.9","1014.103","28.79","80.1","770.6","0.0"],
    [1533313,"2026-08-15 14:10:00","4358","3.662","142.7","4.508","153.0","1014.307","28.94","80.1","755.7","0.0"],
    [1533314,"2026-08-15 14:20:00","4359","3.045","132.2","3.92","138.8","1014.525","28.93","80.4","719.8","0.0"],
    [1533315,"2026-08-15 14:30:00","4360","3.627","127.1","4.704","128.6","1014.345","29.01","79.83","604.8","0.0"],
    [1533316,"2026-08-15 14:40:00","4361","3.708","138.9","4.965","152.2","1014.215","29.1","78.88","572.4","0.0"],
    [1533317,"2026-08-15 14:50:00","4362","3.832","164.5","4.835","152.9","1014.195","29.64","74.64","698.1","0.0"],
    [1533318,"2026-08-15 15:00:00","4363","4.02","165.4","5.063","164.1","1014.085","30.0","71.71","663.7","0.0"],
    [1533319,"2026-08-15 15:10:00","4364","3.801","162.9","4.867","162.5","1014.069","29.87","71.47","667.9","0.0"],
    [1533320,"2026-08-15 15:20:00","4365","4.021","160.0","4.671","160.2","1013.991","29.92","70.27","652.8","0.0"],
    [1533321,"2026-08-15 15:30:00","4366","3.0180000000000002","166.5","3.7889999999999997","174.2","1013.933","29.95","71.73","349.9","0.0"],
    [1533322,"2026-08-15 15:40:00","4367","2.4130000000000003","128.1","2.9730000000000003","128.9","1013.997","29.53","71.76","298.2","0.0"],
    [1533323,"2026-08-15 15:50:00","4368","3.208","42.88","10.09","2.474","1014.402","29.55","71.21","110.4","0.0"],
    [1533324,"2026-08-15 16:00:00","4369","9.39","350.3","12.97","343.5","1014.542","29.43","48.91","67.42","0.0"],
    [1533325,"2026-08-15 16:10:00","4370","7.0729999999999995","357.6","11.27","347.9","1014.108","29.13","47.17","143.0","0.0"],
    [1533326,"2026-08-15 16:20:00","4371","6.085","11.59","9.15","20.9","1013.782","29.01","48.86","122.4","0.0"],
    [1533327,"2026-08-15 16:30:00","4372","3.7539999999999996","0.8270000000000001","6.0760000000000005","343.8","1013.644","29.14","47.22","100.3","0.0"],
    [1533328,"2026-08-15 16:40:00","4373","4.947","337.0","7.709","336.8","1013.306","29.39","46.23","84.5","0.0"],
    [1533329,"2026-08-15 16:50:00","4374","4.3839999999999995","5.591","7.252000000000001","342.0","1013.237","29.38","48.6","76.48","0.0"],
    [1533330,"2026-08-15 17:00:00","4375","3.0439999999999996","4.25","4.475","8.53","1013.24","29.3","48.74","70.41","0.0"],
    [1533331,"2026-08-15 17:10:00","4376","2.494","355.5","4.737","351.1","1013.34","29.36","46.74","65.89","0.0"],
    [1533332,"2026-08-15 17:20:00","4377","3.7939999999999996","14.78","5.4879999999999995","7.492000000000001","1013.356","28.79","51.13","77.48","0.0"],
    [1533333,"2026-08-15 17:30:00","4378","1.919","264.2","4.181","351.0","1013.301","28.82","49.31","62.17","0.0"],
    [1533334,"2026-08-15 17:40:00","4379","2.2319999999999998","227.3","3.7569999999999997","202.6","1013.293","29.42","47.25","50.28","0.0"],
    [1533335,"2026-08-15 17:50:00","4380","1.683","232.3","4.345","227.7","1013.419","29.52","46.19","44.36","0.0"],
    [1533336,"2026-08-15 18:00:00","4381","3.154","255.8","5.096","268.1","1013.45","28.99","47.53","29.88","0.0"],
    [1533337,"2026-08-15 18:10:00","4382","2.733","258.0","4.508","257.1","1013.599","28.82","47.94","19.96","0.0"],
    [1533338,"2026-08-15 18:20:00","4383","2.47","267.0","4.475","263.8","1013.72","28.81","48.89","12.95","0.0"],
    [1533339,"2026-08-15 18:30:00","4384","3.076","285.1","4.508","289.2","1013.731","28.69","48.74","7.247999999999999","0.0"],
    [1533340,"2026-08-15 18:40:00","4385","3.487","285.3","5.88","281.1","1013.903","28.48","48.4","3.253","0.0"],
    [1533341,"2026-08-15 18:50:00","4386","4.513999999999999","285.9","6.272","286.7","1014.093","28.33","47.89","1.078","0.0"],
    [1533342,"2026-08-15 19:00:00","4387","3.8930000000000002","285.9","5.749","283.8","1014.159","28.16","48.48","0.083","0.0"],
    [1533343,"2026-08-15 19:10:00","4388","3.1010000000000004","285.1","4.4430000000000005","293.5","1014.236","28.37","47.27","0.0","0.0"],
    [1533344,"2026-08-15 19:20:00","4389","2.397","278.4","3.7569999999999997","274.1","1014.363","28.49","47.31","0.0","0.0"],
    [1533345,"2026-08-15 19:30:00","4390","2.61","288.6","3.7569999999999997","274.1","1014.366","28.53","47.53","0.0","0.0"],
    [1533346,"2026-08-15 19:40:00","4391","1.895","297.5","2.483","303.2","1014.438","28.64","45.62","0.0","0.0"],
    [1533347,"2026-08-15 19:50:00","4392","1.814","304.9","2.7110000000000003","299.4","1014.695","28.81","43.96","0.0","0.0"],
    [1533348,"2026-08-15 20:00:00","4393","1.8659999999999999","332.4","2.7769999999999997","296.7","1014.785","28.84","44.39","0.0","0.0"],
    [1533349,"2026-08-15 20:10:00","4394","1.4669999999999999","312.2","2.94","337.3","1014.842","28.85","44.56","0.0","0.0"],
    [1533350,"2026-08-15 20:20:00","4395","1.254","286.5","1.96","306.7","1014.97","29.14","41.71","0.0","0.0"],
    [1533351,"2026-08-15 20:30:00","4396","1.403","286.5","2.025","279.9","1014.939","29.1","43.22","0.0","0.0"],
    [1533352,"2026-08-15 20:40:00","4397","0.655","287.5","1.143","276.1","1014.84","29.02","43.43","0.0","0.0"],
    [1533353,"2026-08-15 20:50:00","4398","0.523","247.6","1.143","256.5","1014.803","28.98","43.93","0.0","0.0"],
    [1533354,"2026-08-15 21:00:00","4399","0.852","247.4","1.405","229.4","1014.832","29.13","42.92","0.0","0.0"],
    [1533355,"2026-08-15 21:10:00","4400","1.8019999999999998","276.7","2.515","281.9","1014.93","29.01","42.07","0.0","0.0"],
    [1533356,"2026-08-15 21:20:00","4401","1.9069999999999998","267.6","2.94","247.9","1014.969","28.96","42.69","0.0","0.0"],
    [1533357,"2026-08-15 21:30:00","4402","1.8","255.8","3.005","262.0","1015.128","28.96","42.67","0.0","0.0"],
    [1533358,"2026-08-15 21:40:00","4403","2.145","267.7","2.6460000000000004","258.6","1015.077","28.59","44.22","0.0","0.0"],
    [1533359,"2026-08-15 21:50:00","4404","1.966","273.0","2.7769999999999997","270.9","1015.057","28.34","46.32","0.0","0.0"],
    [1533360,"2026-08-15 22:00:00","4405","2.066","258.8","3.0380000000000003","262.3","1015.138","28.34","45.92","0.0","0.0"],
    [1533361,"2026-08-15 22:10:00","4406","1.7109999999999999","263.1","3.332","263.0","1015.157","28.45","45.46","0.0","0.0"],
    [1533362,"2026-08-15 22:20:00","4407","2.217","270.5","3.332","270.9","1015.18","28.21","47.25","0.0","0.0"],
    [1533363,"2026-08-15 22:30:00","4408","1.839","288.9","2.7769999999999997","285.7","1015.134","28.01","48.23","0.0","0.0"],
    [1533364,"2026-08-15 22:40:00","4409","1.459","291.7","2.025","294.7","1015.087","28.01","48.03","0.0","0.0"],
    [1533365,"2026-08-15 22:50:00","4410","1.591","279.4","2.156","266.6","1015.148","28.21","47.04","0.0","0.0"],
    [1533366,"2026-08-15 23:00:00","4411","1.405","272.0","2.352","281.8","1015.302","28.27","47.55","0.0","0.0"],
    [1533367,"2026-08-15 23:10:00","4412","1.442","273.7","1.9269999999999998","266.1","1015.354","28.08","48.69","0.0","0.0"],
    [1533368,"2026-08-15 23:20:00","4413","1.8219999999999998","262.1","2.189","255.5","1015.397","28.0","49.04","0.0","0.0"],
    [1533369,"2026-08-15 23:30:00","4414","1.639","266.7","2.45","271.6","1015.386","27.73","50.3","0.0","0.0"],
    [1533370,"2026-08-15 23:40:00","4415","2.024","271.6","2.7439999999999998","266.7","1015.332","27.28","52.14","0.0","0.0"],
    [1533371,"2026-08-15 23:50:00","4416","2.3209999999999997","267.1","3.136","260.9","1015.159","27.18","52.69","0.0","0.0"],
    [1533372,"2026-08-16 00:00:00","4417","1.954","277.0","2.5810000000000004","266.3","1015.038","27.13","53.6","0.0","0.0"],
    [1533373,"2026-08-16 00:10:00","4418","1.4680000000000002","280.5","2.483","259.9","1015.071","27.09","53.67","0.0","0.0"],
    [1533374,"2026-08-16 00:20:00","4419","1.992","266.4","2.6460000000000004","256.5","1015.195","27.24","53.14","0.0","0.0"],
    [1533375,"2026-08-16 00:30:00","4420","2.193","256.8","3.855","261.4","1015.367","27.11","51.8","0.0","0.0"],
    [1533376,"2026-08-16 00:40:00","4421","2.543","256.6","4.2139999999999995","260.7","1015.53","26.63","53.76","0.0","0.0"],
    [1533377,"2026-08-16 00:50:00","4422","2.6719999999999997","261.0","4.377","248.5","1015.58","26.4","54.56","0.0","0.0"],
    [1533378,"2026-08-16 01:00:00","4423","2.6039999999999996","280.9","4.312","292.1","1015.404","26.42","54.32","0.0","0.0"],
    [1533379,"2026-08-16 01:10:00","4424","2.496","294.3","4.051","285.9","1015.298","26.56","53.39","0.0","0.0"],
    [1533380,"2026-08-16 01:20:00","4425","1.5230000000000001","299.2","2.319","301.4","1015.025","26.73","52.7","0.0","0.0"],
    [1533381,"2026-08-16 01:30:00","4426","1.305","353.6","1.96","337.4","1014.702","27.13","53.06","0.0","0.0"],
    [1533382,"2026-08-16 01:40:00","4427","0.465","338.7","1.3719999999999999","21.8","1014.613","27.34","53.48","0.0","0.0"],
    [1533383,"2026-08-16 01:50:00","4428","0.644","339.9","2.842","260.1","1014.634","27.68","53.53","0.0","0.0"],
    [1533384,"2026-08-16 02:00:00","4429","1.999","258.0","3.9530000000000003","255.6","1014.644","27.3","52.7","0.0","0.0"],
    [1533385,"2026-08-16 02:10:00","4430","2.025","265.3","2.94","268.3","1014.56","26.5","56.14","0.0","0.0"],
    [1533386,"2026-08-16 02:20:00","4431","2.121","256.0","3.299","262.0","1014.654","26.44","56.46","0.0","0.0"],
    [1533387,"2026-08-16 02:30:00","4432","1.564","249.8","2.842","253.9","1014.705","26.47","55.87","0.0","0.0"],
    [1533388,"2026-08-16 02:40:00","4433","1.757","257.4","2.613","264.1","1014.715","26.43","54.95","0.0","0.0"],
    [1533389,"2026-08-16 02:50:00","4434","1.482","258.9","2.5810000000000004","248.1","1014.754","26.38","55.44","0.0","0.0"],
    [1533390,"2026-08-16 03:00:00","4435","2.129","261.0","3.43","269.5","1014.595","26.21","55.1","0.0","0.0"],
    [1533391,"2026-08-16 03:10:00","4436","2.2969999999999997","267.4","3.201","262.2","1014.555","26.11","55.08","0.0","0.0"],
    [1533392,"2026-08-16 03:20:00","4437","2.42","279.5","3.6910000000000003","275.3","1014.541","26.19","54.51","0.0","0.0"],
    [1533393,"2026-08-16 03:30:00","4438","2.342","272.8","3.332","263.8","1014.496","26.39","52.98","0.0","0.0"],
    [1533394,"2026-08-16 03:40:00","4439","2.617","265.7","3.528","268.8","1014.472","26.21","54.04","0.0","0.0"],
    [1533395,"2026-08-16 03:50:00","4440","2.383","267.4","3.593","261.1","1014.536","25.97","56.22","0.0","0.0"],
    [1533396,"2026-08-16 04:00:00","4441","2.608","263.9","3.593","261.1","1014.542","25.79","57.32","0.0","0.0"],
    [1533397,"2026-08-16 04:10:00","4442","2.736","268.1","4.2139999999999995","271.9","1014.547","25.53","59.03","0.0","0.0"],
    [1533398,"2026-08-16 04:20:00","4443","2.924","268.5","4.051","268.3","1014.493","25.33","59.31","0.0","0.0"],
    [1533399,"2026-08-16 04:30:00","4444","2.597","276.7","3.7239999999999998","264.1","1014.375","25.38","58.88","0.0","0.0"],
    [1533400,"2026-08-16 04:40:00","4445","2.415","264.6","3.332","261.8","1014.323","25.55","57.8","0.0","0.0"],
    [1533401,"2026-08-16 04:50:00","4446","2.701","269.0","3.365","268.7","1014.433","25.69","57.35","0.0","0.0"],
    [1533402,"2026-08-16 05:00:00","4447","2.108","276.5","3.1689999999999996","293.4","1014.483","25.78","56.4","0.001","0.0"],
    [1533403,"2026-08-16 05:10:00","4448","1.9580000000000002","286.9","3.136","285.1","1014.511","26.04","55.5","2.674","0.0"],
    [1533404,"2026-08-16 05:20:00","4449","1.703","251.5","2.875","259.5","1014.548","26.13","55.24","11.19","0.0"],
    [1533405,"2026-08-16 05:30:00","4450","1.899","263.8","2.842","264.7","1014.606","25.94","56.18","22.69","0.0"],
    [1533406,"2026-08-16 05:40:00","4451","2.287","267.3","3.071","265.1","1014.59","25.8","56.55","39.99","0.0"],
    [1533407,"2026-08-16 05:50:00","4452","1.993","268.8","3.0380000000000003","258.5","1014.632","25.88","55.8","62.48","0.0"],
    [1533408,"2026-08-16 06:00:00","4453","2.189","272.5","3.201","271.5","1014.644","26.07","55.77","56.95","0.0"],
    [1533409,"2026-08-16 06:10:00","4454","2.2969999999999997","269.4","3.593","266.0","1014.763","26.35","54.5","118.1","0.0"],
    [1533410,"2026-08-16 06:20:00","4455","2.066","255.2","3.7889999999999997","261.0","1014.942","26.73","52.48","145.2","0.0"],
    [1533411,"2026-08-16 06:30:00","4456","2.537","262.9","3.7239999999999998","256.0","1014.994","27.07","51.04","174.9","0.0"],
    [1533412,"2026-08-16 06:40:00","4457","2.491","269.4","4.018","267.1","1015.094","27.34","50.56","201.0","0.0"],
    [1533413,"2026-08-16 06:50:00","4458","1.589","270.4","2.7110000000000003","260.4","1015.147","27.8","50.39","237.2","0.0"],
    [1533414,"2026-08-16 07:00:00","4459","2.072","260.9","3.234","261.5","1015.172","28.08","48.92","269.0","0.0"],
    [1533415,"2026-08-16 07:10:00","4460","2.198","272.1","3.0380000000000003","275.8","1015.115","28.25","47.58","301.7","0.0"],
    [1533416,"2026-08-16 07:20:00","4461","1.734","272.9","3.005","271.4","1015.061","28.96","45.71","333.8","0.0"],
    [1533417,"2026-08-16 07:30:00","4462","1.555","262.3","2.417","285.6","1015.034","29.32","44.69","365.5","0.0"],
    [1533418,"2026-08-16 07:40:00","4463","1.7080000000000002","233.4","2.8089999999999997","230.2","1015.018","29.31","44.16","401.1","0.0"],
    [1533419,"2026-08-16 07:50:00","4464","1.9469999999999998","249.3","3.201","260.8","1015.042","29.98","41.8","433.8","0.0"],
    [1533420,"2026-08-16 08:00:00","4465","1.7690000000000001","241.6","2.7439999999999998","241.8","1015.062","30.07","41.73","466.5","0.0"],
    [1533421,"2026-08-16 08:10:00","4466","2.068","232.4","3.005","227.0","1015.054","30.09","41.94","498.4","0.0"],
    [1533422,"2026-08-16 08:20:00","4467","1.505","234.1","3.332","226.5","1015.075","30.78","40.58","528.4","0.0"],
    [1533423,"2026-08-16 08:30:00","4468","1.744","231.5","3.332","226.5","1015.135","31.17","39.46","560.6","0.0"],
    [1533424,"2026-08-16 08:40:00","4469","1.635","238.3","2.6460000000000004","263.4","1015.143","31.46","39.34","589.6","0.0"],
    [1533425,"2026-08-16 08:50:00","4470","1.806","221.7","3.332","197.1","1015.272","31.8","39.03","616.1","0.0"],
    [1533426,"2026-08-16 09:00:00","4471","4.343999999999999","180.6","5.88","172.9","1015.317","30.15","53.08","648.5","0.0"],
    [1533427,"2026-08-16 09:10:00","4472","4.263999999999999","181.1","5.684","173.4","1015.421","29.63","55.64","672.3","0.0"],
    [1533428,"2026-08-16 09:20:00","4473","4.066","185.5","5.619","175.4","1015.439","29.51","58.85","695.0","0.0"],
    [1533429,"2026-08-16 09:30:00","4474","4.94","175.4","6.011","171.4","1015.356","29.15","64.53","720.0","0.0"],
    [1533430,"2026-08-16 09:40:00","4475","5.3839999999999995","177.6","6.337000000000001","175.5","1015.334","28.84","66.52","744.0","0.0"],
    [1533431,"2026-08-16 09:50:00","4476","5.433","185.5","6.5329999999999995","187.6","1015.432","28.98","65.97","766.3","0.0"],
    [1533432,"2026-08-16 10:00:00","4477","5.492000000000001","187.1","6.729","189.8","1015.506","28.95","66.88","785.1","0.0"],
    [1533433,"2026-08-16 10:10:00","4478","5.25","184.8","6.5329999999999995","188.5","1015.509","29.02","67.82","801.0","0.0"],
    [1533434,"2026-08-16 10:20:00","4479","4.9830000000000005","183.8","6.468","185.3","1015.526","29.15","68.44","816.0","0.0"],
    [1533435,"2026-08-16 10:30:00","4480","4.853","182.0","6.468","187.4","1015.536","29.29","70.68","829.0","0.0"],
    [1533436,"2026-08-16 10:40:00","4481","4.887","182.5","6.272","191.9","1015.524","29.28","71.13","839.0","0.0"],
    [1533437,"2026-08-16 10:50:00","4482","4.949","183.3","6.468","192.5","1015.528","29.37","71.55","849.0","0.0"],
    [1533438,"2026-08-16 11:00:00","4483","5.178999999999999","183.1","6.893","188.0","1015.45","29.47","71.39","860.0","0.0"],
    [1533439,"2026-08-16 11:10:00","4484","5.38","182.2","6.893","190.5","1015.368","29.44","71.74","871.0","0.0"],
    [1533440,"2026-08-16 11:20:00","4485","5.337000000000001","185.2","6.827000000000001","192.1","1015.318","29.51","71.7","882.0","0.0"],
    [1533441,"2026-08-16 11:30:00","4486","5.626","185.7","7.84","185.0","1015.29","29.54","72.61","889.0","0.0"],
    [1533442,"2026-08-16 11:40:00","4487","5.86","188.3","7.35","187.1","1015.283","29.63","71.17","895.0","0.0"],
    [1533443,"2026-08-16 11:50:00","4488","6.297999999999999","188.8","7.971","192.7","1015.265","29.67","71.03","900.0","0.0"],
    [1533444,"2026-08-16 12:00:00","4489","6.881","190.1","9.11","190.4","1015.252","29.63","71.39","904.0","0.0"],
    [1533445,"2026-08-16 12:10:00","4490","6.357","188.5","8.26","192.1","1015.19","29.65","71.4","898.0","0.0"],
    [1533446,"2026-08-16 12:20:00","4491","6.792999999999999","188.5","8.2","189.4","1015.121","29.69","69.83","894.0","0.0"],
    [1533447,"2026-08-16 12:30:00","4492","7.132000000000001","191.6","8.72","191.8","1015.106","29.78","70.25","892.0","0.0"],
    [1533448,"2026-08-16 12:40:00","4493","7.178","190.3","9.02","189.5","1015.06","29.78","69.12","889.0","0.0"],
    [1533449,"2026-08-16 12:50:00","4494","6.68","190.9","8.66","190.1","1015.24","29.87","68.08","886.0","0.0"],
    [1533450,"2026-08-16 13:00:00","4495","6.275","187.6","7.971","186.6","1015.364","29.92","67.41","903.0","0.0"],
    [1533451,"2026-08-16 13:10:00","4496","5.882000000000001","185.1","8.1","193.6","1015.457","30.02","66.88","794.8","0.0"],
    [1533452,"2026-08-16 13:20:00","4497","5.727","187.2","7.905","187.9","1015.486","29.93","68.52","306.1","0.0"],
    [1533453,"2026-08-16 13:30:00","4498","5.257999999999999","189.8","7.513","190.4","1015.477","29.63","69.31","164.8","0.0"],
    [1533454,"2026-08-16 13:40:00","4499","5.904","188.3","7.905","193.8","1015.319","29.57","69.24","153.9","0.0"],
    [1533455,"2026-08-16 13:50:00","4500","5.778","190.7","7.382999999999999","190.0","1015.294","29.54","68.9","148.6","0.0"],
    [1533456,"2026-08-16 14:00:00","4501","5.314","185.8","6.795","188.3","1015.225","29.54","69.81","169.2","0.0"],
    [1533457,"2026-08-16 14:10:00","4502","5.38","189.2","6.893","197.7","1015.199","29.48","70.92","181.7","0.0"],
    [1533458,"2026-08-16 14:20:00","4503","4.535","189.8","6.337000000000001","189.5","1015.377","29.5","70.7","156.7","0.0"],
    [1533459,"2026-08-16 14:30:00","4504","4.393","195.7","6.501","204.9","1015.379","29.76","68.57","171.2","0.0"],
    [1533460,"2026-08-16 14:40:00","4505","4.745","193.5","6.337000000000001","192.5","1015.314","29.73","68.18","204.1","0.0"],
    [1533461,"2026-08-16 14:50:00","4506","4.072","195.7","5.88","196.8","1015.337","29.86","68.52","181.0","0.0"],
    [1533462,"2026-08-16 15:00:00","4507","3.286","205.5","5.455","200.4","1015.233","29.97","66.52","160.9","0.0"],
    [1533463,"2026-08-16 15:10:00","4508","4.126","195.9","5.815","203.8","1015.12","29.87","67.18","178.7","0.0"],
    [1533464,"2026-08-16 15:20:00","4509","3.832","196.2","5.4879999999999995","190.5","1015.069","29.86","65.84","189.1","0.0"],
    [1533465,"2026-08-16 15:30:00","4510","3.985","188.8","5.978","195.0","1015.021","29.87","66.52","195.2","0.0"],
    [1533466,"2026-08-16 15:40:00","4511","3.568","181.6","4.541","181.0","1015.017","29.67","69.78","187.1","0.0"],
    [1533467,"2026-08-16 15:50:00","4512","3.9530000000000003","183.6","5.129","191.2","1015","29.55","69.76","179.4","0.0"],
    [1533468,"2026-08-16 16:00:00","4513","4.562","189.8","5.912999999999999","185.3","1014.937","29.57","70.68","181.2","0.0"],
    [1533469,"2026-08-16 16:10:00","4514","4.51","193.4","6.37","193.1","1014.767","29.68","69.9","186.7","0.0"],
    [1533470,"2026-08-16 16:20:00","4515","3.593","184.8","5.357","189.2","1014.782","29.74","71.63","421.7","0.0"],
    [1533471,"2026-08-16 16:30:00","4516","3.3960000000000004","166.7","4.279","167.7","1015.108","29.61","72.62","280.9","0.0"],
    [1533472,"2026-08-16 16:40:00","4517","3.242","155.7","4.279","148.1","1015.311","29.36","74.53","160.8","0.0"],
    [1533473,"2026-08-16 16:50:00","4518","2.801","146.2","3.6910000000000003","142.6","1015.305","29.3","74.95","162.0","0.0"],
    [1533474,"2026-08-16 17:00:00","4519","3.225","151.2","4.345","160.6","1015.12","29.22","75.85","188.8","0.0"],
    [1533475,"2026-08-16 17:10:00","4520","3.48","162.6","4.247","157.0","1015.019","29.23","76.43","194.0","0.0"],
    [1533476,"2026-08-16 17:20:00","4521","3.6910000000000003","167.5","4.541","170.2","1014.98","29.18","78.12","119.8","0.0"],
    [1533477,"2026-08-16 17:30:00","4522","3.634","157.4","4.247","163.7","1014.935","28.93","78.22","64.85","0.0"],
    [1533478,"2026-08-16 17:40:00","4523","2.9739999999999998","150.6","3.659","147.1","1015.01","29.02","76.25","90.7","0.0"],
    [1533479,"2026-08-16 17:50:00","4524","2.935","152.4","3.495","154.9","1014.991","29.08","76.39","95.7","0.0"],
    [1533480,"2026-08-16 18:00:00","4525","2.7680000000000002","156.1","3.365","155.2","1014.969","29.0","76.58","75.17","0.0"],
    [1533481,"2026-08-16 18:10:00","4526","2.225","126.7","2.6460000000000004","141.7","1015.001","28.94","76.78","92.2","0.0"],
    [1533482,"2026-08-16 18:20:00","4527","2.194","124.3","2.679","145.7","1015.161","28.91","76.51","66.52","0.0"],
    [1533483,"2026-08-16 18:30:00","4528","3.0180000000000002","158.6","3.5610000000000004","168.3","1015.078","28.92","77.71","38.19","0.0"],
    [1533484,"2026-08-16 18:40:00","4529","2.998","158.9","3.593","153.4","1015.124","28.78","78.93","17.22","0.0"],
    [1533485,"2026-08-16 18:50:00","4530","2.725","152.9","3.299","150.7","1015.245","28.66","79.81","4.744","0.0"],
    [1533486,"2026-08-16 19:00:00","4531","3.1189999999999998","166.2","3.6260000000000003","165.4","1015.235","28.66","79.85","0.599","0.0"],
    [1533487,"2026-08-16 19:10:00","4532","3.305","166.4","3.9530000000000003","168.8","1015.185","28.67","80.2","0.0","0.0"],
    [1533488,"2026-08-16 19:20:00","4533","1.849","115.5","2.842","154.6","1015.498","28.36","81.0","0.0","0.0"],
    [1533489,"2026-08-16 19:30:00","4534","1.021","66.61","1.9269999999999998","58.05","1015.728","28.57","77.77","0.0","0.0"],
    [1533490,"2026-08-16 19:40:00","4535","0.6629999999999999","82.3","1.209","74.52","1015.704","28.73","76.67","0.0","0.0"],
    [1533491,"2026-08-16 19:50:00","4536","2.295","57.87","4.1160000000000005","63.48","1015.708","28.54","78.8","0.0","0.0"],
    [1533492,"2026-08-16 20:00:00","4537","2.887","73.84","4.247","63.2","1015.85","28.28","79.13","0.0","0.0"],
    [1533493,"2026-08-16 20:10:00","4538","2.498","99.3","3.267","100.1","1015.889","28.28","78.52","0.0","0.0"],
    [1533494,"2026-08-16 20:20:00","4539","2.388","99.2","3.365","105.5","1016.084","28.25","78.63","0.0","0.0"],
    [1533495,"2026-08-16 20:30:00","4540","2.613","116.3","3.234","115.0","1016.233","28.29","78.54","0.0","0.0"],
    [1533496,"2026-08-16 20:40:00","4541","2.495","120.4","3.234","122.8","1016.267","28.28","78.95","0.0","0.0"],
    [1533497,"2026-08-16 20:50:00","4542","2.476","131.5","3.267","147.6","1016.225","28.31","79.21","0.0","0.0"],
    [1533498,"2026-08-16 21:00:00","4543","2.4219999999999997","103.7","2.94","95.9","1016.316","28.29","79.35","0.0","0.0"],
    [1533499,"2026-08-16 21:10:00","4544","2.1830000000000003","119.5","2.907","122.6","1016.301","28.31","78.52","0.0","0.0"],
    [1533500,"2026-08-16 21:20:00","4545","2.45","105.3","2.9730000000000003","99.0","1016.37","28.36","78.81","0.0","0.0"],
    [1533501,"2026-08-16 21:30:00","4546","2.443","121.0","2.907","118.7","1016.448","28.36","78.78","0.0","0.0"],
    [1533502,"2026-08-16 21:40:00","4547","2.057","112.2","2.515","108.3","1016.555","28.35","79.44","0.0","0.0"],
    [1533503,"2026-08-16 21:50:00","4548","2.0140000000000002","104.1","2.417","103.0","1016.47","28.31","79.28","0.0","0.0"],
    [1533504,"2026-08-16 22:00:00","4549","1.703","107.3","2.319","108.7","1016.518","28.35","79.52","0.0","0.0"],
    [1533505,"2026-08-16 22:10:00","4550","1.54","103.5","1.993","109.5","1016.621","28.32","79.99","0.0","0.0"],
    [1533506,"2026-08-16 22:20:00","4551","1.629","90.3","2.221","89.5","1016.653","28.27","80.2","0.0","0.0"],
    [1533507,"2026-08-16 22:30:00","4552","0.903","79.83","1.339","106.0","1016.704","28.27","79.42","0.0","0.0"],
    [1533508,"2026-08-16 22:40:00","4553","0.8809999999999999","63.04","1.339","62.98","1016.746","28.31","79.27","0.0","0.0"],
    [1533509,"2026-08-16 22:50:00","4554","1.3769999999999998","50.98","2.221","28.47","1016.713","28.31","79.58","0.0","0.0"],
    [1533510,"2026-08-16 23:00:00","4555","2.045","35.21","2.548","37.34","1016.622","28.21","80.8","0.0","0.0"],
    [1533511,"2026-08-16 23:10:00","4556","2.99","38.05","3.5610000000000004","39.74","1016.551","28.11","81.8","0.0","0.0"],
    [1533512,"2026-08-16 23:20:00","4557","3.3339999999999996","44.2","5.063","27.99","1016.572","28.05","80.3","0.0","0.0"],
    [1533513,"2026-08-16 23:30:00","4558","3.85","30.72","5.031000000000001","32.83","1016.568","27.92","79.94","0.0","0.0"],
    [1533514,"2026-08-16 23:40:00","4559","3.61","27.66","4.606","18.31","1016.619","27.87","80.0","0.0","0.0"],
    [1533515,"2026-08-16 23:50:00","4560","3.263","29.66","3.92","23.99","1016.653","27.84","79.44","0.0","0.0"],
    [1533516,"2026-08-17 00:00:00","4561","2.117","23.09","3.5610000000000004","40.32","1016.677","27.87","79.01","0.0","0.0"],
    [1533517,"2026-08-17 00:10:00","4562","2.753","29.59","3.463","26.21","1016.634","27.86","79.47","0.0","0.0"],
    [1533518,"2026-08-17 00:20:00","4563","2.787","29.57","3.495","27.23","1016.669","27.79","79.58","0.0","0.0"],
    [1533519,"2026-08-17 00:30:00","4564","2.783","28.24","3.365","36.02","1016.671","27.78","79.64","0.0","0.0"],
    [1533520,"2026-08-17 00:40:00","4565","3.003","26.42","3.6260000000000003","26.77","1016.53","27.65","80.0","0.0","0.0"],
    [1533521,"2026-08-17 00:50:00","4566","2.6260000000000003","23.24","3.332","16.79","1016.566","27.63","80.8","0.0","0.0"],
    [1533522,"2026-08-17 01:00:00","4567","1.8619999999999999","34.29","2.417","31.86","1016.545","27.57","80.1","0.0","0.0"],
    [1533523,"2026-08-17 01:10:00","4568","1.9480000000000002","31.13","2.7769999999999997","31.19","1016.541","27.67","79.96","0.0","0.0"],
    [1533524,"2026-08-17 01:20:00","4569","2.617","30.99","3.005","32.81","1016.369","27.51","80.6","0.0","0.0"],
    [1533525,"2026-08-17 01:30:00","4570","1.905","25.18","2.548","34.11","1016.382","27.59","79.92","0.0","0.0"],
    [1533526,"2026-08-17 01:40:00","4571","1.485","12.2","2.0909999999999997","10.2","1016.409","27.56","79.84","0.0","0.0"],
    [1533527,"2026-08-17 01:50:00","4572","1.625","13.71","1.895","13.6","1016.296","27.44","80.8","0.0","0.0"],
    [1533528,"2026-08-17 02:00:00","4573","1.713","15.58","2.025","17.77","1016.31","27.4","81.6","0.0","0.0"],
    [1533529,"2026-08-17 02:10:00","4574","1.405","23.32","1.666","23.96","1016.273","27.33","82.2","0.0","0.0"],
    [1533530,"2026-08-17 02:20:00","4575","1.224","25.82","1.7309999999999999","42.25","1016.218","27.26","82.4","0.0","0.0"],
    [1533531,"2026-08-17 02:30:00","4576","0.985","17.16","1.405","14.42","1016.278","27.34","81.5","0.0","0.0"],
    [1533532,"2026-08-17 02:40:00","4577","0.9109999999999999","26.52","1.568","31.55","1016.33","27.33","81.5","0.0","0.0"],
    [1533533,"2026-08-17 02:50:00","4578","0.996","306.6","1.7309999999999999","249.5","1016.277","27.19","80.8","0.0","0.0"],
    [1533534,"2026-08-17 03:00:00","4579","0.8590000000000001","270.0","1.4369999999999998","269.7","1016.196","26.91","78.33","0.0","0.0"],
    [1533535,"2026-08-17 03:10:00","4580","1.3019999999999998","257.5","1.699","253.3","1016.179","26.9","77.31","0.0","0.0"],
    [1533536,"2026-08-17 03:20:00","4581","1.689","266.8","2.123","270.1","1016.101","26.89","76.65","0.0","0.0"],
    [1533537,"2026-08-17 03:30:00","4582","1.591","271.1","1.8619999999999999","257.8","1016.016","26.63","76.08","0.0","0.0"],
    [1533538,"2026-08-17 03:40:00","4583","1.541","273.8","1.96","262.9","1015.945","26.47","75.74","0.0","0.0"],
    [1533539,"2026-08-17 03:50:00","4584","1.7819999999999998","259.5","2.254","251.6","1015.907","26.51","74.93","0.0","0.0"],
    [1533540,"2026-08-17 04:00:00","4585","1.7380000000000002","263.8","2.221","260.7","1015.938","26.48","74.21","0.0","0.0"],
    [1533541,"2026-08-17 04:10:00","4586","1.171","254.8","1.7309999999999999","264.5","1015.949","26.49","74.3","0.0","0.0"],
    [1533542,"2026-08-17 04:20:00","4587","0.917","247.5","1.4369999999999998","262.8","1015.916","26.56","74.68","0.0","0.0"],
    [1533543,"2026-08-17 04:30:00","4588","1.173","255.6","1.764","256.0","1015.87","26.39","73.22","0.0","0.0"],
    [1533544,"2026-08-17 04:40:00","4589","1.6880000000000002","259.1","2.189","263.2","1015.869","26.28","71.16","0.0","0.0"],
    [1533545,"2026-08-17 04:50:00","4590","1.395","268.1","1.797","266.0","1015.845","26.28","69.94","0.0","0.0"],
    [1533546,"2026-08-17 05:00:00","4591","1.3630000000000002","253.6","1.8619999999999999","257.8","1015.848","26.33","70.2","0.09","0.0"],
    [1533547,"2026-08-17 05:10:00","4592","1.136","258.5","1.633","264.2","1015.978","26.36","70.03","2.888","0.0"],
    [1533548,"2026-08-17 05:20:00","4593","1.337","289.3","1.96","280.6","1016.083","26.42","71.02","9.42","0.0"],
    [1533549,"2026-08-17 05:30:00","4594","1.3159999999999998","284.3","1.797","285.3","1016.101","26.56","72.36","18.59","0.0"],
    [1533550,"2026-08-17 05:40:00","4595","0.674","259.4","1.209","257.2","1016.123","26.61","71.33","43.39","0.0"],
    [1533551,"2026-08-17 05:50:00","4596","0.519","222.3","1.176","232.8","1016.112","27.09","71.41","68.96","0.0"],
    [1533552,"2026-08-17 06:00:00","4597","1.2670000000000001","258.6","2.483","260.7","1016.136","27.18","69.06","93.1","0.0"],
    [1533553,"2026-08-17 06:10:00","4598","1.54","268.3","2.515","258.8","1016.133","27.68","68.22","115.6","0.0"],
    [1533554,"2026-08-17 06:20:00","4599","1.544","265.4","2.221","259.1","1016.213","28.05","67.2","142.1","0.0"],
    [1533555,"2026-08-17 06:30:00","4600","1.807","266.0","2.417","272.4","1016.308","28.03","66.04","172.4","0.0"],
    [1533556,"2026-08-17 06:40:00","4601","1.8319999999999999","271.6","2.613","270.9","1016.361","28.33","65.17","204.9","0.0"],
    [1533557,"2026-08-17 06:50:00","4602","1.594","281.7","2.352","284.8","1016.377","28.8","64.37","239.7","0.0"],
    [1533558,"2026-08-17 07:00:00","4603","1.9340000000000002","293.1","2.842","289.7","1016.372","29.09","64.23","270.5","0.0"],
    [1533559,"2026-08-17 07:10:00","4604","1.704","297.8","2.385","297.2","1016.311","29.29","63.9","299.4","0.0"],
    [1533560,"2026-08-17 07:20:00","4605","1.632","307.5","2.0580000000000003","299.7","1016.276","29.13","64.46","332.3","0.0"],
    [1533561,"2026-08-17 07:30:00","4606","1.671","307.0","2.548","308.7","1016.278","29.04","66.37","360.9","0.0"],
    [1533562,"2026-08-17 07:40:00","4607","1.198","302.9","2.123","305.4","1016.284","29.83","66.31","391.3","0.0"],
    [1533563,"2026-08-17 07:50:00","4608","1.042","311.6","2.45","90.2","1016.344","29.77","66.29","431.2","0.0"],
    [1533564,"2026-08-17 08:00:00","4609","2.338","102.0","3.136","117.8","1016.395","28.45","70.64","456.2","0.0"],
    [1533565,"2026-08-17 08:10:00","4610","2.947","81.2","4.051","86.0","1016.442","28.0","72.75","477.6","0.0"],
    [1533566,"2026-08-17 08:20:00","4611","3.049","86.3","4.083","78.7","1016.461","27.82","73.12","506.5","0.0"],
    [1533567,"2026-08-17 08:30:00","4612","3.2560000000000002","84.5","4.1160000000000005","80.6","1016.5","27.83","71.93","545.2","0.0"],
    [1533568,"2026-08-17 08:40:00","4613","3.1719999999999997","98.5","4.345","106.2","1016.608","27.89","71.39","578.4","0.0"],
    [1533569,"2026-08-17 08:50:00","4614","3.352","114.5","4.1160000000000005","118.9","1016.624","27.86","72.43","609.7","0.0"],
    [1533570,"2026-08-17 09:00:00","4615","3.2030000000000003","120.3","4.345","121.2","1016.686","27.84","74.24","634.7","0.0"],
    [1533571,"2026-08-17 09:10:00","4616","2.696","126.2","3.659","117.1","1016.74","28.08","74.89","659.2","0.0"],
    [1533572,"2026-08-17 09:20:00","4617","3.082","131.2","3.7569999999999997","129.8","1016.712","28.06","75.46","681.0","0.0"],
    [1533573,"2026-08-17 09:30:00","4618","3.6","140.8","4.671","145.6","1016.733","28.13","76.94","704.1","0.0"],
    [1533574,"2026-08-17 09:40:00","4619","4.046","150.4","5.031000000000001","157.7","1016.671","28.31","77.27","726.3","0.0"],
    [1533575,"2026-08-17 09:50:00","4620","4.38","149.5","5.129","146.3","1016.658","28.37","77.21","754.6","0.0"],
    [1533576,"2026-08-17 10:00:00","4621","4.048","148.2","5.1610000000000005","160.4","1016.649","28.37","76.87","772.9","0.0"],
    [1533577,"2026-08-17 10:10:00","4622","4.2989999999999995","151.2","5.194","155.2","1016.653","28.48","77.11","792.2","0.0"],
    [1533578,"2026-08-17 10:20:00","4623","4.121","151.1","4.998","156.7","1016.712","28.61","77.02","798.3","0.0"],
    [1533579,"2026-08-17 10:30:00","4624","4.887","157.1","5.912999999999999","159.0","1016.709","28.64","77.02","815.0","0.0"],
    [1533580,"2026-08-17 10:40:00","4625","4.994","155.9","5.847","156.7","1016.703","28.7","77.36","827.0","0.0"],
    [1533581,"2026-08-17 10:50:00","4626","5.2589999999999995","157.8","6.272","157.9","1016.634","28.73","76.77","839.0","0.0"],
    [1533582,"2026-08-17 11:00:00","4627","5.374","160.0","6.141","164.0","1016.574","28.88","76.16","850.0","0.0"],
    [1533583,"2026-08-17 11:10:00","4628","5.736000000000001","161.3","6.468","162.2","1016.487","28.9","75.6","862.0","0.0"],
    [1533584,"2026-08-17 11:20:00","4629","5.459","163.4","6.501","161.4","1016.482","29.01","75.33","841.0","0.0"],
    [1533585,"2026-08-17 11:30:00","4630","5.497999999999999","169.2","6.435","172.2","1016.505","29.11","75.52","867.0","0.0"],
    [1533586,"2026-08-17 11:40:00","4631","5.627999999999999","172.9","7.6770000000000005","163.1","1016.438","29.23","74.49","871.0","0.0"],
    [1533587,"2026-08-17 11:50:00","4632","5.6739999999999995","172.4","6.697","171.2","1016.415","29.34","73.34","867.0","0.0"],
    [1533588,"2026-08-17 12:00:00","4633","5.825","174.7","6.957999999999999","170.7","1016.468","29.46","72.01","881.0","0.0"],
    [1533589,"2026-08-17 12:10:00","4634","5.013","177.5","6.141","175.6","1016.503","29.61","71.11","882.0","0.0"],
    [1533590,"2026-08-17 12:20:00","4635","5.7620000000000005","174.5","7.023","196.1","1016.384","29.56","71.33","880.0","0.0"],
    [1533591,"2026-08-17 12:30:00","4636","5.291","175.3","6.403","172.9","1016.341","29.65","70.4","875.0","0.0"],
    [1533592,"2026-08-17 12:40:00","4637","5.131","175.6","6.664","166.8","1016.333","29.71","70.71","867.0","0.0"],
    [1533593,"2026-08-17 12:50:00","4638","5.004","182.4","6.403","185.1","1016.229","29.8","70.89","764.9","0.0"],
    [1533594,"2026-08-17 13:00:00","4639","5.5520000000000005","181.2","7.742000000000001","175.1","1016.054","29.85","68.83","858.0","0.0"],
    [1533595,"2026-08-17 13:10:00","4640","5.244","186.5","6.795","184.3","1016.084","30.01","68.55","921.0","0.0"],
    [1533596,"2026-08-17 13:20:00","4641","5.22","182.0","6.893","185.6","1016.107","29.86","69.12","379.6","0.0"],
    [1533597,"2026-08-17 13:30:00","4642","4.777","183.2","6.403","190.7","1016.184","29.59","69.94","172.3","0.0"],
    [1533598,"2026-08-17 13:40:00","4643","5.013999999999999","189.2","6.729","191.4","1016.096","29.52","70.06","169.8","0.0"],
    [1533599,"2026-08-17 13:50:00","4644","5.321000000000001","187.3","7.218999999999999","196.9","1015.924","29.56","69.13","169.5","0.0"],
    [1533600,"2026-08-17 14:00:00","4645","5.295","189.2","7.382999999999999","192.6","1015.868","29.5","69.7","182.8","0.0"],
    [1533601,"2026-08-17 14:10:00","4646","5.236000000000001","182.6","6.827000000000001","195.6","1015.823","29.52","69.22","324.8","0.0"],
    [1533602,"2026-08-17 14:20:00","4647","4.963","185.1","7.056","188.6","1015.671","29.78","68.33","752.1","0.0"],
    [1533603,"2026-08-17 14:30:00","4648","4.7780000000000005","188.9","6.827000000000001","187.6","1015.657","30.01","67.84","743.5","0.0"],
    [1533604,"2026-08-17 14:40:00","4649","4.755","186.8","6.435","189.3","1015.483","30.0","69.65","682.8","0.0"],
    [1533605,"2026-08-17 14:50:00","4650","5.046","184.6","6.435","196.1","1015.328","29.86","69.44","613.3","0.0"],
    [1533606,"2026-08-17 15:00:00","4651","5.207999999999999","185.4","7.218999999999999","192.1","1015.321","29.88","67.24","499.5","0.0"],
    [1533607,"2026-08-17 15:10:00","4652","5.957999999999999","189.6","8.3","189.0","1015.228","29.97","68.0","579.3","0.0"],
    [1533608,"2026-08-17 15:20:00","4653","5.806","179.9","7.415","171.6","1015.13","29.79","70.43","602.1","0.0"],
    [1533609,"2026-08-17 15:30:00","4654","5.925","182.3","8.1","182.0","1015.259","29.81","70.79","543.5","0.0"],
    [1533610,"2026-08-17 15:40:00","4655","5.252999999999999","185.2","7.382999999999999","197.7","1015.239","29.78","71.4","359.8","0.0"],
    [1533611,"2026-08-17 15:50:00","4656","5.01","198.8","8.33","199.2","1015.331","29.79","69.85","128.1","0.0"],
    [1533612,"2026-08-17 16:00:00","4657","5.2","197.5","7.84","196.3","1015.312","29.84","69.79","86.0","0.0"],
    [1533613,"2026-08-17 16:10:00","4658","5.301","196.0","7.742000000000001","199.3","1015.239","29.67","70.14","65.57","0.0"],
    [1533614,"2026-08-17 16:20:00","4659","4.698","196.7","7.023","204.7","1015.281","29.64","70.26","53.15","0.0"],
    [1533615,"2026-08-17 16:30:00","4660","4.396","194.4","6.239","200.7","1015.213","29.61","69.51","44.31","0.0"],
    [1533616,"2026-08-17 16:40:00","4661","4.466","186.7","6.435","186.7","1015.328","29.55","70.22","39.58","0.0"],
    [1533617,"2026-08-17 16:50:00","4662","3.3489999999999998","190.9","5.4879999999999995","195.3","1015.34","29.56","71.52","35.38","0.0"],
    [1533618,"2026-08-17 17:00:00","4663","3.52","187.6","5.39","187.7","1015.223","29.47","70.75","32.59","0.0"],
    [1533619,"2026-08-17 17:10:00","4664","2.7710000000000004","183.9","4.508","188.0","1015.358","29.52","70.6","35.56","0.0"],
    [1533620,"2026-08-17 17:20:00","4665","2.8280000000000003","173.5","3.887","168.5","1015.314","29.45","70.61","43.21","0.0"],
    [1533621,"2026-08-17 17:30:00","4666","3.0239999999999996","169.4","3.887","174.1","1015.145","29.3","72.2","51.24","0.0"],
    [1533622,"2026-08-17 17:40:00","4667","3.717","165.8","4.41","162.4","1015.041","29.05","75.6","48.4","0.0"],
    [1533623,"2026-08-17 17:50:00","4668","3.66","171.2","4.377","174.8","1015.029","29.08","75.31","40.34","0.0"],
    [1533624,"2026-08-17 18:00:00","4669","3.1860000000000004","165.5","3.985","162.2","1015.14","28.9","75.8","28.94","0.0"],
    [1533625,"2026-08-17 18:10:00","4670","2.715","165.2","3.332","168.2","1015.217","29.0","75.36","22.1","0.0"],
    [1533626,"2026-08-17 18:20:00","4671","2.432","164.7","3.0380000000000003","165.4","1015.263","28.96","75.57","19.61","0.0"],
    [1533627,"2026-08-17 18:30:00","4672","1.808","149.4","2.385","163.2","1015.456","28.9","75.33","10.22","0.0"],
    [1533628,"2026-08-17 18:40:00","4673","2.065","150.5","2.287","156.7","1015.382","28.84","75.94","3.695","0.0"],
    [1533629,"2026-08-17 18:50:00","4674","2.271","156.0","2.548","157.5","1015.39","28.81","76.52","0.9059999999999999","0.0"],
    [1533630,"2026-08-17 19:00:00","4675","2.499","162.4","2.907","160.2","1015.415","28.84","77.08","0.0","0.0"],
    [1533631,"2026-08-17 19:10:00","4676","2.4459999999999997","168.8","3.071","174.7","1015.415","28.78","77.1","0.0","0.0"],
    [1533632,"2026-08-17 19:20:00","4677","1.82","156.3","2.319","164.2","1015.513","28.76","77.98","0.0","0.0"],
    [1533633,"2026-08-17 19:30:00","4678","1.966","161.8","2.254","158.6","1015.578","28.73","76.65","0.0","0.0"],
    [1533634,"2026-08-17 19:40:00","4679","1.484","145.7","1.829","148.7","1015.701","28.75","76.53","0.0","0.0"],
    [1533635,"2026-08-17 19:50:00","4680","1.474","147.4","1.764","153.7","1015.797","28.66","76.78","0.0","0.0"],
    [1533636,"2026-08-17 20:00:00","4681","0.9059999999999999","129.2","1.176","149.5","1015.932","28.65","77.38","0.0","0.0"],
    [1533637,"2026-08-17 20:10:00","4682","0.521","126.2","1.013","103.2","1015.969","28.66","77.1","0.0","0.0"],
    [1533638,"2026-08-17 20:20:00","4683","0.42200000000000004","98.5","0.882","71.13","1015.919","28.69","77.28","0.0","0.0"],
    [1533639,"2026-08-17 20:30:00","4684","0.275","152.5","0.6859999999999999","138.9","1015.985","28.72","77.97","0.0","0.0"],
    [1533640,"2026-08-17 20:40:00","4685","0.006","343.9","0.261","343.0","1016.063","28.56","78.11","0.0","0.0"],
    [1533641,"2026-08-17 20:50:00","4686","0.41200000000000003","351.5","0.784","324.4","1016.19","28.39","77.54","0.0","0.0"],
    [1533642,"2026-08-17 21:00:00","4687","0.013000000000000001","64.98","0.294","46.13","1016.224","28.44","76.6","0.0","0.0"],
    [1533643,"2026-08-17 21:10:00","4688","0.504","65.48","0.8490000000000001","73.32","1016.309","28.52","76.16","0.0","0.0"],
    [1533644,"2026-08-17 21:20:00","4689","0.45799999999999996","77.33","0.784","99.3","1016.253","28.57","76.33","0.0","0.0"],
    [1533645,"2026-08-17 21:30:00","4690","0.877","94.8","1.111","87.9","1016.166","28.54","76.6","0.0","0.0"],
    [1533646,"2026-08-17 21:40:00","4691","0.843","76.2","1.111","92.4","1016.153","28.58","77.24","0.0","0.0"],
    [1533647,"2026-08-17 21:50:00","4692","0.8079999999999999","50.52","1.2409999999999999","57.78","1016.198","28.55","78.66","0.0","0.0"],
    [1533648,"2026-08-17 22:00:00","4693","1.048","25.34","1.3719999999999999","28.1","1016.249","28.36","80.8","0.0","0.0"],
    [1533649,"2026-08-17 22:10:00","4694","0.743","45.1","1.111","44.85","1016.216","28.25","79.7","0.0","0.0"],
    [1533650,"2026-08-17 22:20:00","4695","0.517","62.65","0.9470000000000001","62.8","1016.156","28.34","78.81","0.0","0.0"],
    [1533651,"2026-08-17 22:30:00","4696","0.65","48.24","0.8170000000000001","56.49","1016.156","28.46","77.9","0.0","0.0"],
    [1533652,"2026-08-17 22:40:00","4697","0.8170000000000001","24.83","1.045","20.78","1016.191","28.36","80.6","0.0","0.0"],
    [1533653,"2026-08-17 22:50:00","4698","0.34","43.48","0.7190000000000001","29.04","1016.159","28.1","80.7","0.0","0.0"],
    [1533654,"2026-08-17 23:00:00","4699","0.147","92.0","0.6859999999999999","92.6","1016.079","28.16","80.2","0.0","0.0"],
    [1533655,"2026-08-17 23:10:00","4700","0.11199999999999999","96.3","0.621","95.8","1016.077","28.17","79.72","0.0","0.0"],
    [1533656,"2026-08-17 23:20:00","4701","0.0","0.0","0.0","0.0","1016.114","28.25","78.71","0.0","0.0"],
    [1533657,"2026-08-17 23:30:00","4702","0.302","119.5","0.588","140.7","1016.089","28.34","78.85","0.0","0.0"],
    [1533658,"2026-08-17 23:40:00","4703","0.23","149.6","0.588","171.6","1016.119","28.38","79.33","0.0","0.0"],
    [1533659,"2026-08-17 23:50:00","4704","0.0","0.0","0.0","0.0","1016.094","28.2","79.29","0.0","0.0"],
    [1533660,"2026-08-18 00:00:00","4705","0.065","260.9","0.588","260.4","1016.039","28.17","78.6","0.0","0.0"],
    [1533661,"2026-08-18 00:10:00","4706","0.157","127.7","0.6859999999999999","133.7","1016.003","28.25","79.49","0.0","0.0"],
    [1533662,"2026-08-18 00:20:00","4707","0.0","0.0","0.0","0.0","1015.99","28.16","79.67","0.0","0.0"],
    [1533663,"2026-08-18 00:30:00","4708","0.1","181.7","0.621","184.5","1015.994","28.16","79.96","0.0","0.0"],
    [1533664,"2026-08-18 00:40:00","4709","0.045","178.2","0.49","180.4","1015.987","28.24","79.28","0.0","0.0"],
    [1533665,"2026-08-18 00:50:00","4710","0.0","0.0","0.0","0.0","1015.993","28.23","79.65","0.0","0.0"],
    [1533666,"2026-08-18 01:00:00","4711","0.065","96.2","0.653","94.7","1015.992","28.16","80.7","0.0","0.0"],
    [1533667,"2026-08-18 01:10:00","4712","0.35600000000000004","123.2","1.143","120.1","1015.983","27.99","79.2","0.0","0.0"],
    [1533668,"2026-08-18 01:20:00","4713","0.09","341.6","0.49","144.0","1015.963","28.22","77.72","0.0","0.0"],
    [1533669,"2026-08-18 01:30:00","4714","0.008","342.6","0.294","13.49","1015.971","28.26","78.81","0.0","0.0"],
    [1533670,"2026-08-18 01:40:00","4715","0.19899999999999998","15.84","0.784","22.57","1015.987","28.12","79.93","0.0","0.0"],
    [1533671,"2026-08-18 01:50:00","4716","0.10300000000000001","25.06","0.7190000000000001","6.523","1015.919","28.05","78.53","0.0","0.0"],
    [1533672,"2026-08-18 02:00:00","4717","0.32299999999999995","59.64","0.8490000000000001","65.4","1015.872","28.1","77.31","0.0","0.0"],
    [1533673,"2026-08-18 02:10:00","4718","0.0","0.0","0.0","0.0","1015.873","28.17","77.3","0.0","0.0"],
    [1533674,"2026-08-18 02:20:00","4719","0.316","15.41","0.8490000000000001","5.18","1015.818","28.06","77.57","0.0","0.0"],
    [1533675,"2026-08-18 02:30:00","4720","0.02","3.864","0.523","13.24","1015.798","27.99","78.42","0.0","0.0"],
    [1533676,"2026-08-18 02:40:00","4721","0.0","0.0","0.0","0.0","1015.763","28.03","79.72","0.0","0.0"],
    [1533677,"2026-08-18 02:50:00","4722","0.19899999999999998","255.2","0.9470000000000001","254.8","1015.724","27.97","80.1","0.0","0.0"],
    [1533678,"2026-08-18 03:00:00","4723","0.893","258.6","1.4369999999999998","266.8","1015.683","27.58","78.62","0.0","0.0"],
    [1533679,"2026-08-18 03:10:00","4724","0.255","233.2","0.9470000000000001","253.7","1015.721","27.59","78.37","0.0","0.0"],
    [1533680,"2026-08-18 03:20:00","4725","0.78","183.4","1.111","197.6","1015.678","27.79","79.15","0.0","0.0"],
    [1533681,"2026-08-18 03:30:00","4726","1.008","188.3","1.274","188.3","1015.745","27.75","79.7","0.0","0.0"],
    [1533682,"2026-08-18 03:40:00","4727","0.987","155.6","1.4369999999999998","144.8","1015.796","27.73","80.2","0.0","0.0"],
    [1533683,"2026-08-18 03:50:00","4728","1.71","74.24","2.6460000000000004","45.54","1015.792","27.66","80.5","0.0","0.0"],
    [1533684,"2026-08-18 04:00:00","4729","2.2119999999999997","45.28","2.679","44.32","1015.803","27.56","80.3","0.0","0.0"],
    [1533685,"2026-08-18 04:10:00","4730","2.38","34.08","2.875","35.76","1015.808","27.47","79.89","0.0","0.0"],
    [1533686,"2026-08-18 04:20:00","4731","2.449","20.77","3.005","32.07","1015.849","27.55","79.75","0.0","0.0"],
    [1533687,"2026-08-18 04:30:00","4732","1.8159999999999998","9.04","2.7110000000000003","7.122999999999999","1015.883","27.5","80.3","0.0","0.0"],
    [1533688,"2026-08-18 04:40:00","4733","1.083","13.05","1.568","17.4","1015.946","27.43","80.1","0.0","0.0"],
    [1533689,"2026-08-18 04:50:00","4734","1.256","21.72","1.699","21.09","1015.972","27.49","79.38","0.0","0.0"],
    [1533690,"2026-08-18 05:00:00","4735","1.6680000000000001","20.96","2.0580000000000003","24.78","1016.039","27.45","80.5","0.091","0.0"],
    [1533691,"2026-08-18 05:10:00","4736","1.631","17.68","1.829","9.65","1016.174","27.43","80.4","2.4659999999999997","0.0"],
    [1533692,"2026-08-18 05:20:00","4737","1.236","309.8","1.601","354.9","1016.305","27.45","79.78","7.056","0.0"],
    [1533693,"2026-08-18 05:30:00","4738","1.266","268.3","1.895","270.7","1016.353","27.15","78.47","18.53","0.0"],
    [1533694,"2026-08-18 05:40:00","4739","1.137","259.7","1.764","262.9","1016.424","27.1","78.13","30.35","0.0"],
    [1533695,"2026-08-18 05:50:00","4740","1.344","258.4","1.829","263.0","1016.471","27.13","77.52","39.97","0.0"],
    [1533696,"2026-08-18 06:00:00","4741","0.6970000000000001","250.4","1.8619999999999999","262.7","1016.508","27.24","77.15","39.36","0.0"],
    [1533697,"2026-08-18 06:10:00","4742","0.5589999999999999","259.1","1.274","265.3","1016.601","27.5","77.07","43.32","0.0"],
    [1533698,"2026-08-18 06:20:00","4743","1.263","262.7","1.764","252.9","1016.649","27.47","76.28","45.19","0.0"],
    [1533699,"2026-08-18 06:30:00","4744","1.226","259.6","1.764","261.2","1016.749","27.42","76.24","52.34","0.0"],
    [1533700,"2026-08-18 06:40:00","4745","1.359","262.1","1.8619999999999999","262.6","1016.789","27.48","75.75","57.68","0.0"],
    [1533701,"2026-08-18 06:50:00","4746","0.8490000000000001","228.8","2.0580000000000003","95.7","1016.829","27.79","75.32","157.2","0.0"],
    [1533702,"2026-08-18 07:00:00","4747","0.862","79.66","1.274","89.0","1016.921","28.27","75.11","319.2","0.0"],
    [1533703,"2026-08-18 07:10:00","4748","1.1440000000000001","94.0","1.96","103.1","1017.082","28.55","74.15","374.7","0.0"],
    [1533704,"2026-08-18 07:20:00","4749","0.76","103.3","1.535","106.2","1017.169","28.67","75.4","351.1","0.0"],
    [1533705,"2026-08-18 07:30:00","4750","0.797","95.8","2.189","27.02","1017.226","28.53","76.14","112.8","0.0"],
    [1533706,"2026-08-18 07:40:00","4751","2.104","33.72","2.5810000000000004","22.98","1017.212","27.91","77.28","113.4","0.0"],
    [1533707,"2026-08-18 07:50:00","4752","1.829","32.16","2.515","33.49","1017.105","27.85","77.27","149.6","0.0"],
    [1533708,"2026-08-18 08:00:00","4753","0.625","36.58","1.3719999999999999","48.41","1017.053","28.41","75.53","520.3","0.0"],
    [1533709,"2026-08-18 08:10:00","4754","0.159","128.0","3.201","131.5","1017.017","29.25","71.21","587.1","0.0"],
    [1533710,"2026-08-18 08:20:00","4755","2.303","139.3","4.835","174.5","1016.955","29.43","69.86","588.4","0.0"],
    [1533711,"2026-08-18 08:30:00","4756","3.906","163.6","5.194","161.4","1016.97","29.21","69.21","573.6","0.0"],
    [1533712,"2026-08-18 08:40:00","4757","3.498","164.1","4.573","167.6","1016.966","29.24","69.18","516.7","0.0"],
    [1533713,"2026-08-18 08:50:00","4758","3.8510000000000004","162.4","5.129","169.7","1016.942","29.11","69.7","331.4","0.0"],
    [1533714,"2026-08-18 09:00:00","4759","5.172999999999999","160.6","6.435","160.1","1016.865","29.11","70.27","602.8","0.0"],
    [1533715,"2026-08-18 09:10:00","4760","6.604","160.0","7.579","158.1","1016.795","29.17","68.83","723.5","0.0"],
    [1533716,"2026-08-18 09:20:00","4761","6.226","155.7","7.285","153.8","1016.766","29.09","70.15","729.5","0.0"],
    [1533717,"2026-08-18 09:30:00","4762","5.983","158.6","7.415","165.1","1016.764","29.14","69.35","732.6","0.0"],
    [1533718,"2026-08-18 09:40:00","4763","5.787999999999999","158.1","6.664","155.6","1016.763","29.28","67.4","741.4","0.0"],
    [1533719,"2026-08-18 09:50:00","4764","5.776","160.5","6.729","156.9","1016.677","29.37","66.92","753.4","0.0"],
    [1533720,"2026-08-18 10:00:00","4765","6.021","161.5","6.599","159.5","1016.628","29.38","67.97","780.2","0.0"],
    [1533721,"2026-08-18 10:10:00","4766","5.138999999999999","169.6","6.631","160.2","1016.605","29.56","70.66","810.0","0.0"],
    [1533722,"2026-08-18 10:20:00","4767","4.643","184.2","5.912999999999999","189.8","1016.546","29.83","71.63","867.0","0.0"],
    [1533723,"2026-08-18 10:30:00","4768","5.657","178.6","7.579","166.5","1016.425","29.81","70.88","935.0","0.0"],
    [1533724,"2026-08-18 10:40:00","4769","6.197","184.1","7.84","193.3","1016.329","29.95","69.14","888.0","0.0"],
    [1533725,"2026-08-18 10:50:00","4770","6.166","180.0","7.905","188.1","1016.252","29.96","69.21","928.0","0.0"],
    [1533726,"2026-08-18 11:00:00","4771","6.171","180.3","8.75","173.3","1016.251","29.94","69.67","942.0","0.0"],
    [1533727,"2026-08-18 11:10:00","4772","6.131","179.1","8.36","197.6","1016.2","29.94","70.04","968.0","0.0"],
    [1533728,"2026-08-18 11:20:00","4773","6.186","183.4","8.36","184.9","1016.162","29.97","69.35","797.5","0.0"],
    [1533729,"2026-08-18 11:30:00","4774","6.152","182.9","7.905","176.8","1016.119","30.06","69.89","918.0","0.0"],
    [1533730,"2026-08-18 11:40:00","4775","6.579","178.4","8.59","176.3","1016.07","29.93","71.32","820.0","0.0"],
    [1533731,"2026-08-18 11:50:00","4776","6.176","184.7","7.938","185.4","1015.979","29.99","69.68","869.0","0.0"],
    [1533732,"2026-08-18 12:00:00","4777","6.142","182.3","7.971","182.3","1015.907","30.09","68.28","818.0","0.0"],
    [1533733,"2026-08-18 12:10:00","4778","6.045","181.0","7.971","178.7","1015.79","30.13","68.01","942.0","0.0"],
    [1533734,"2026-08-18 12:20:00","4779","6.267","179.4","7.905","168.5","1015.724","30.19","67.71","891.0","0.0"],
    [1533735,"2026-08-18 12:30:00","4780","7.155","174.6","8.98","170.7","1015.634","29.95","67.54","895.0","0.0"],
    [1533736,"2026-08-18 12:40:00","4781","7.983","170.9","9.41","169.9","1015.574","29.82","67.55","884.0","0.0"],
    [1533737,"2026-08-18 12:50:00","4782","7.617000000000001","172.8","8.98","170.5","1015.573","29.78","66.94","875.0","0.0"],
    [1533738,"2026-08-18 13:00:00","4783","7.247999999999999","173.2","8.95","171.3","1015.509","29.74","67.11","832.0","0.0"],
    [1533739,"2026-08-18 13:10:00","4784","7.476","173.2","9.18","164.6","1015.376","29.87","66.66","852.0","0.0"],
    [1533740,"2026-08-18 13:20:00","4785","7.82","173.9","9.57","168.5","1015.18","29.64","67.75","734.6","0.0"],
    [1533741,"2026-08-18 13:30:00","4786","7.435","179.4","9.41","174.6","1015.026","29.78","65.77","817.0","0.0"],
    [1533742,"2026-08-18 13:40:00","4787","6.999","178.8","9.34","167.8","1014.935","29.79","67.62","497.6","0.0"],
    [1533743,"2026-08-18 13:50:00","4788","6.631","184.3","8.75","194.4","1014.802","29.88","67.54","811.0","0.0"],
    [1533744,"2026-08-18 14:00:00","4789","7.053999999999999","185.0","9.67","186.7","1014.663","29.92","67.14","716.7","0.0"],
    [1533745,"2026-08-18 14:10:00","4790","6.696000000000001","186.7","8.95","193.7","1014.661","29.89","68.3","741.4","0.0"],
    [1533746,"2026-08-18 14:20:00","4791","7.419","188.6","9.93","190.6","1014.533","29.9","68.12","731.1","0.0"],
    [1533747,"2026-08-18 14:30:00","4792","8.05","188.5","10.65","191.6","1014.376","29.87","68.3","714.9","0.0"],
    [1533748,"2026-08-18 14:40:00","4793","7.545","189.0","9.7","191.6","1014.267","29.91","69.3","694.2","0.0"],
    [1533749,"2026-08-18 14:50:00","4794","8.05","190.6","10.71","186.2","1014.179","29.85","70.25","670.4","0.0"],
    [1533750,"2026-08-18 15:00:00","4795","8.22","190.5","10.49","192.8","1014.145","29.84","69.94","647.3","0.0"],
    [1533751,"2026-08-18 15:10:00","4796","7.395","189.9","10.0","200.5","1014.113","29.83","70.71","626.1","0.0"],
    [1533752,"2026-08-18 15:20:00","4797","8.06","191.1","10.19","198.5","1014.048","29.84","70.51","566.5","0.0"],
    [1533753,"2026-08-18 15:30:00","4798","7.53","189.7","10.13","181.3","1014.061","29.87","71.13","464.1","0.0"],
    [1533754,"2026-08-18 15:40:00","4799","7.652","186.1","9.64","186.9","1014.038","29.66","71.76","554.1","0.0"],
    [1533755,"2026-08-18 15:50:00","4800","7.071000000000001","186.4","9.41","192.1","1014.074","29.75","71.87","585.6","0.0"],
    [1533756,"2026-08-18 16:00:00","4801","7.04","184.7","9.7","184.8","1014.059","29.75","71.81","502.6","0.0"],
    [1533757,"2026-08-18 16:10:00","4802","7.097","184.9","9.8","193.1","1013.999","29.69","72.11","443.9","0.0"],
    [1533758,"2026-08-18 16:20:00","4803","6.625","185.1","8.92","183.8","1013.957","29.61","73.21","398.0","0.0"],
    [1533759,"2026-08-18 16:30:00","4804","6.374","184.3","8.53","188.4","1013.943","29.6","73.37","361.4","0.0"],
    [1533760,"2026-08-18 16:40:00","4805","6.343999999999999","182.9","8.4","178.2","1013.966","29.48","73.83","366.6","0.0"],
    [1533761,"2026-08-18 16:50:00","4806","5.6160000000000005","184.1","7.709","188.9","1013.984","29.52","74.51","319.7","0.0"],
    [1533762,"2026-08-18 17:00:00","4807","6.192","184.0","7.971","192.0","1013.961","29.42","74.77","221.9","0.0"],
    [1533763,"2026-08-18 17:10:00","4808","5.45","183.8","7.285","184.5","1014.016","29.35","75.68","155.5","0.0"],
    [1533764,"2026-08-18 17:20:00","4809","5.399","181.1","6.827000000000001","169.0","1013.933","29.29","76.33","140.2","0.0"],
    [1533765,"2026-08-18 17:30:00","4810","5.406000000000001","181.8","6.7620000000000005","174.8","1013.846","29.2","76.82","99.1","0.0"],
    [1533766,"2026-08-18 17:40:00","4811","5.249","181.4","7.6770000000000005","180.3","1013.805","29.16","77.35","68.56","0.0"],
    [1533767,"2026-08-18 17:50:00","4812","5.182","178.4","6.599","173.5","1013.826","29.13","77.98","56.07","0.0"],
    [1533768,"2026-08-18 18:00:00","4813","4.85","180.0","6.37","177.5","1013.863","29.09","78.78","45.8","0.0"],
    [1533769,"2026-08-18 18:10:00","4814","5.555","172.6","6.893","171.6","1013.913","29.07","79.09","35.91","0.0"],
    [1533770,"2026-08-18 18:20:00","4815","5.171","173.2","6.272","165.1","1013.955","28.98","81.1","24.86","0.0"],
    [1533771,"2026-08-18 18:30:00","4816","5.684","171.7","6.86","173.2","1013.986","28.89","81.8","17.63","0.0"],
    [1533772,"2026-08-18 18:40:00","4817","5.803999999999999","171.4","6.827000000000001","169.4","1014.044","28.85","81.6","9.5","0.0"],
    [1533773,"2026-08-18 18:50:00","4818","5.004","179.0","6.729","169.8","1014.144","28.78","82.4","3.295","0.0"],
    [1533774,"2026-08-18 19:00:00","4819","4.541","169.9","5.2589999999999995","169.6","1014.211","28.89","82.2","0.451","0.0"],
    [1533775,"2026-08-18 19:10:00","4820","4.012","172.5","4.737","182.0","1014.296","28.83","82.1","0.0","0.0"],
    [1533776,"2026-08-18 19:20:00","4821","4.035","178.7","4.704","182.2","1014.383","28.89","81.1","0.0","0.0"],
    [1533777,"2026-08-18 19:30:00","4822","4.015","174.8","4.867","174.3","1014.497","28.99","80.3","0.0","0.0"],
    [1533778,"2026-08-18 19:40:00","4823","4.124","178.2","5.586","182.7","1014.633","28.96","80.6","0.0","0.0"],
    [1533779,"2026-08-18 19:50:00","4824","3.515","177.2","4.638999999999999","179.9","1014.793","28.94","80.6","0.0","0.0"],
    [1533780,"2026-08-18 20:00:00","4825","3.0039999999999996","189.1","4.4430000000000005","192.7","1014.901","28.99","79.78","0.0","0.0"],
    [1533781,"2026-08-18 20:10:00","4826","3.5439999999999996","180.4","5.325","174.7","1014.934","29.02","79.1","0.0","0.0"],
    [1533782,"2026-08-18 20:20:00","4827","4.492","173.4","5.227","176.9","1014.97","28.87","80.8","0.0","0.0"],
    [1533783,"2026-08-18 20:30:00","4828","4.98","160.3","5.847","150.6","1015.057","28.82","81.4","0.0","0.0"],
    [1533784,"2026-08-18 20:40:00","4829","4.763999999999999","164.5","5.619","162.9","1015.098","28.74","82.3","0.0","0.0"],
    [1533785,"2026-08-18 20:50:00","4830","4.869","161.7","5.586","162.6","1015.128","28.66","81.3","0.0","0.0"],
    [1533786,"2026-08-18 21:00:00","4831","5.277","157.5","5.912999999999999","158.0","1015.099","28.71","80.5","0.0","0.0"],
    [1533787,"2026-08-18 21:10:00","4832","4.9510000000000005","161.9","6.011","162.7","1015.082","28.72","80.2","0.0","0.0"],
    [1533788,"2026-08-18 21:20:00","4833","4.914","171.9","5.815","161.9","1014.994","28.63","81.8","0.0","0.0"],
    [1533789,"2026-08-18 21:30:00","4834","4.631","174.9","5.422999999999999","176.7","1014.948","28.5","82.8","0.0","0.0"],
    [1533790,"2026-08-18 21:40:00","4835","4.363","170.8","5.1610000000000005","173.6","1015.006","28.5","83.2","0.0","0.0"],
    [1533791,"2026-08-18 21:50:00","4836","4.438","174.6","4.9","173.6","1015.042","28.35","83.1","0.0","0.0"],
    [1533792,"2026-08-18 22:00:00","4837","3.665","172.1","4.377","167.7","1015.085","28.34","83.5","0.0","0.0"],
    [1533793,"2026-08-18 22:10:00","4838","2.835","176.8","3.365","171.6","1015.099","28.31","84.4","0.0","0.0"],
    [1533794,"2026-08-18 22:20:00","4839","2.9219999999999997","184.8","3.7239999999999998","180.3","1015.111","28.23","84.2","0.0","0.0"],
    [1533795,"2026-08-18 22:30:00","4840","3.557","177.4","3.92","176.8","1015.014","28.23","84.8","0.0","0.0"],
    [1533796,"2026-08-18 22:40:00","4841","3.516","178.0","3.985","177.5","1014.957","28.2","85.6","0.0","0.0"],
    [1533797,"2026-08-18 22:50:00","4842","3.5260000000000002","186.7","4.1160000000000005","177.7","1014.934","28.14","85.1","0.0","0.0"],
    [1533798,"2026-08-18 23:00:00","4843","3.054","195.8","3.92","208.2","1014.939","28.23","80.6","0.0","0.0"],
    [1533799,"2026-08-18 23:10:00","4844","3.2119999999999997","187.0","3.7239999999999998","184.9","1014.88","28.6","81.5","0.0","0.0"],
    [1533800,"2026-08-18 23:20:00","4845","3.145","189.2","4.1160000000000005","197.8","1014.824","28.44","83.8","0.0","0.0"],
    [1533801,"2026-08-18 23:30:00","4846","2.815","198.1","4.1160000000000005","198.7","1014.787","28.31","82.3","0.0","0.0"],
    [1533802,"2026-08-18 23:40:00","4847","2.938","192.9","4.181","195.8","1014.766","28.49","81.6","0.0","0.0"],
    [1533803,"2026-08-18 23:50:00","4848","2.707","196.3","3.92","193.2","1014.704","28.46","81.1","0.0","0.0"],
    [1533804,"2026-08-19 00:00:00","4849","2.526","198.3","4.247","186.5","1014.658","28.41","79.41","0.0","0.0"],
    [1533805,"2026-08-19 00:10:00","4850","2.645","204.6","3.7569999999999997","206.2","1014.585","28.53","79.66","0.0","0.0"],
    [1533806,"2026-08-19 00:20:00","4851","1.359","222.8","2.7769999999999997","217.1","1014.493","28.46","79.0","0.0","0.0"],
    [1533807,"2026-08-19 00:30:00","4852","0.982","208.2","1.993","197.5","1014.375","28.43","78.47","0.0","0.0"],
    [1533808,"2026-08-19 00:40:00","4853","0.196","233.3","0.915","185.9","1014.263","28.36","78.07","0.0","0.0"],
    [1533809,"2026-08-19 00:50:00","4854","0.282","276.6","1.307","313.9","1014.169","28.33","78.23","0.0","0.0"],
    [1533810,"2026-08-19 01:00:00","4855","0.9470000000000001","286.3","2.319","278.1","1014.103","28.29","78.8","0.0","0.0"],
    [1533811,"2026-08-19 01:10:00","4856","1.54","284.6","2.319","268.4","1014.037","28.2","78.78","0.0","0.0"],
    [1533812,"2026-08-19 01:20:00","4857","0.862","270.4","2.221","268.2","1013.972","28.21","78.69","0.0","0.0"],
    [1533813,"2026-08-19 01:30:00","4858","1.538","278.5","2.613","279.8","1013.935","28.19","78.54","0.0","0.0"],
    [1533814,"2026-08-19 01:40:00","4859","1.9680000000000002","280.4","2.417","270.1","1013.951","28.2","78.45","0.0","0.0"],
    [1533815,"2026-08-19 01:50:00","4860","1.899","280.9","2.7439999999999998","286.4","1013.91","28.2","78.5","0.0","0.0"],
    [1533816,"2026-08-19 02:00:00","4861","1.84","290.6","2.679","280.8","1013.8","28.18","78.55","0.0","0.0"],
    [1533817,"2026-08-19 02:10:00","4862","2.039","300.8","2.515","305.6","1013.752","28.1","79.15","0.0","0.0"],
    [1533818,"2026-08-19 02:20:00","4863","2.0","301.1","2.7110000000000003","308.8","1013.656","27.99","79.55","0.0","0.0"],
    [1533819,"2026-08-19 02:30:00","4864","1.273","294.9","2.287","304.8","1013.629","27.98","79.75","0.0","0.0"],
    [1533820,"2026-08-19 02:40:00","4865","1.788","305.2","2.352","302.4","1013.534","27.96","80.1","0.0","0.0"],
    [1533821,"2026-08-19 02:50:00","4866","0.172","204.6","1.013","304.1","1013.446","27.92","80.6","0.0","0.0"],
    [1533822,"2026-08-19 03:00:00","4867","1.071","304.0","2.352","303.5","1013.398","27.89","80.5","0.0","0.0"],
    [1533823,"2026-08-19 03:10:00","4868","1.6969999999999998","283.5","2.515","271.2","1013.376","27.87","80.1","0.0","0.0"],
    [1533824,"2026-08-19 03:20:00","4869","2.052","295.8","2.679","302.8","1013.357","27.82","79.81","0.0","0.0"],
    [1533825,"2026-08-19 03:30:00","4870","1.7990000000000002","297.5","2.385","307.5","1013.289","27.8","79.52","0.0","0.0"],
    [1533826,"2026-08-19 03:40:00","4871","1.669","296.0","2.352","307.6","1013.214","27.76","79.35","0.0","0.0"],
    [1533827,"2026-08-19 03:50:00","4872","1.41","278.4","1.9269999999999998","274.1","1013.214","27.7","78.97","0.0","0.0"],
    [1533828,"2026-08-19 04:00:00","4873","1.625","280.5","1.993","286.8","1013.157","27.52","78.99","0.0","0.0"],
    [1533829,"2026-08-19 04:10:00","4874","1.621","284.4","2.0580000000000003","275.7","1013.004","27.43","79.3","0.0","0.0"],
    [1533830,"2026-08-19 04:20:00","4875","1.413","280.3","1.8619999999999999","270.0","1012.977","27.38","79.16","0.0","0.0"],
    [1533831,"2026-08-19 04:30:00","4876","1.511","277.0","1.895","281.1","1012.99","27.28","79.35","0.0","0.0"],
    [1533832,"2026-08-19 04:40:00","4877","1.569","269.7","1.96","269.3","1012.932","27.25","79.42","0.0","0.0"],
    [1533833,"2026-08-19 04:50:00","4878","1.5430000000000001","274.0","1.993","269.4","1012.917","27.21","79.52","0.0","0.0"],
    [1533834,"2026-08-19 05:00:00","4879","1.6019999999999999","276.2","1.9269999999999998","268.7","1012.884","27.2","79.57","0.046","0.0"],
    [1533835,"2026-08-19 05:10:00","4880","1.8159999999999998","270.6","2.319","263.1","1012.884","27.16","79.52","2.653","0.0"],
    [1533836,"2026-08-19 05:20:00","4881","1.8159999999999998","272.8","2.254","275.9","1012.875","27.15","79.58","10.18","0.0"],
    [1533837,"2026-08-19 05:30:00","4882","1.6159999999999999","268.8","1.993","272.5","1012.876","27.18","79.55","23.05","0.0"],
    [1533838,"2026-08-19 05:40:00","4883","1.722","266.7","2.123","270.8","1012.871","27.32","78.96","41.81","0.0"],
    [1533839,"2026-08-19 05:50:00","4884","1.598","270.9","2.123","276.1","1012.857","27.56","78.13","61.84","0.0"],
    [1533840,"2026-08-19 06:00:00","4885","1.421","275.6","1.96","272.3","1012.883","27.93","76.8","84.7","0.0"],
    [1533841,"2026-08-19 06:10:00","4886","1.629","285.2","2.548","276.3","1012.828","28.34","75.25","109.4","0.0"],
    [1533842,"2026-08-19 06:20:00","4887","1.926","289.2","2.548","284.1","1012.826","28.63","73.96","136.2","0.0"],
    [1533843,"2026-08-19 06:30:00","4888","2.1069999999999998","289.1","2.94","278.7","1012.851","28.88","73.02","164.3","0.0"],
    [1533844,"2026-08-19 06:40:00","4889","2.109","292.8","3.005","283.4","1012.774","29.1","72.09","194.3","0.0"],
    [1533845,"2026-08-19 06:50:00","4890","1.956","291.0","2.907","310.6","1012.774","29.17","71.96","224.4","0.0"],
    [1533846,"2026-08-19 07:00:00","4891","2.004","277.2","3.463","288.5","1012.808","29.66","70.14","257.7","0.0"],
    [1533847,"2026-08-19 07:10:00","4892","1.98","276.2","3.299","261.8","1012.792","29.73","69.68","290.3","0.0"],
    [1533848,"2026-08-19 07:20:00","4893","2.092","282.7","3.103","287.1","1012.711","30.04","68.98","321.3","0.0"],
    [1533849,"2026-08-19 07:30:00","4894","1.985","272.9","3.267","251.4","1012.689","30.03","69.01","352.4","0.0"],
    [1533850,"2026-08-19 07:40:00","4895","2.408","275.1","3.659","271.1","1012.695","30.14","69.09","386.2","0.0"],
    [1533851,"2026-08-19 07:50:00","4896","2.471","267.7","4.4430000000000005","275.6","1012.706","30.18","69.01","418.2","0.0"],
    [1533852,"2026-08-19 08:00:00","4897","1.8159999999999998","239.8","4.1160000000000005","259.8","1012.66","30.09","69.54","450.2","0.0"],
    [1533853,"2026-08-19 08:10:00","4898","2.562","209.4","6.011","197.6","1012.585","30.06","69.84","481.8","0.0"],
    [1533854,"2026-08-19 08:20:00","4899","2.209","209.3","3.822","212.2","1012.545","29.99","70.06","514.7","0.0"],
    [1533855,"2026-08-19 08:30:00","4900","3.273","177.5","4.704","174.5","1012.511","29.65","73.5","540.2","0.0"],
    [1533856,"2026-08-19 08:40:00","4901","4.636","189.1","6.697","183.0","1012.496","29.28","73.28","558.8","0.0"],
    [1533857,"2026-08-19 08:50:00","4902","4.747","193.6","6.566","193.5","1012.51","29.79","70.55","602.2","0.0"],
    [1533858,"2026-08-19 09:00:00","4903","4.698","187.1","6.239","197.1","1012.537","29.68","72.47","629.3","0.0"],
    [1533859,"2026-08-19 09:10:00","4904","4.761","178.5","6.337000000000001","186.7","1012.507","29.34","76.55","654.8","0.0"],
    [1533860,"2026-08-19 09:20:00","4905","4.669","176.2","5.782","177.7","1012.479","29.11","78.27","679.4","0.0"],
    [1533861,"2026-08-19 09:30:00","4906","5.044","175.7","6.501","194.2","1012.413","29.03","79.16","703.5","0.0"],
    [1533862,"2026-08-19 09:40:00","4907","5.077","178.7","6.272","168.4","1012.391","29.19","77.34","724.9","0.0"],
    [1533863,"2026-08-19 09:50:00","4908","5.2589999999999995","177.7","6.729","169.2","1012.39","29.24","77.48","743.2","0.0"],
    [1533864,"2026-08-19 10:00:00","4909","5.271","180.2","6.957999999999999","194.3","1012.382","29.38","75.66","759.6","0.0"],
    [1533865,"2026-08-19 10:10:00","4910","5.113","178.2","6.5329999999999995","171.9","1012.286","29.45","76.53","774.8","0.0"],
    [1533866,"2026-08-19 10:20:00","4911","5.42","182.8","6.729","186.5","1012.258","29.57","74.67","788.6","0.0"],
    [1533867,"2026-08-19 10:30:00","4912","5.553999999999999","182.1","7.6770000000000005","188.9","1012.186","29.78","72.65","803.0","0.0"],
    [1533868,"2026-08-19 10:40:00","4913","5.402","181.7","6.86","169.4","1012.148","29.84","71.96","815.0","0.0"],
    [1533869,"2026-08-19 10:50:00","4914","5.249","177.5","6.827000000000001","189.3","1012.069","29.87","73.22","826.0","0.0"],
    [1533870,"2026-08-19 11:00:00","4915","5.481","182.4","6.7620000000000005","193.9","1011.969","29.74","73.94","838.0","0.0"],
    [1533871,"2026-08-19 11:10:00","4916","4.6819999999999995","179.0","5.978","185.1","1011.887","29.91","74.06","843.0","0.0"],
    [1533872,"2026-08-19 11:20:00","4917","4.77","179.4","6.1739999999999995","193.9","1011.805","29.86","74.9","850.0","0.0"],
    [1533873,"2026-08-19 11:30:00","4918","5.127000000000001","179.3","6.305","181.5","1011.718","30.02","74.16","854.0","0.0"],
    [1533874,"2026-08-19 11:40:00","4919","5.284","174.9","6.7620000000000005","171.4","1011.685","29.79","76.45","859.0","0.0"],
    [1533875,"2026-08-19 11:50:00","4920","5.268","175.5","7.154","182.6","1011.63","29.81","76.29","862.0","0.0"],
    [1533876,"2026-08-19 12:00:00","4921","4.927","178.8","6.207000000000001","184.0","1011.495","30.07","74.92","862.0","0.0"],
    [1533877,"2026-08-19 12:10:00","4922","4.9110000000000005","179.4","7.056","183.5","1011.4","30.04","75.65","860.0","0.0"],
    [1533878,"2026-08-19 12:20:00","4923","5.6579999999999995","181.9","7.481","192.0","1011.291","30.23","73.99","858.0","0.0"],
    [1533879,"2026-08-19 12:30:00","4924","5.902","185.0","7.187","197.6","1011.239","30.29","73.35","851.0","0.0"],
    [1533880,"2026-08-19 12:40:00","4925","6.095","187.4","7.611000000000001","184.9","1011.106","30.29","73.76","845.0","0.0"],
    [1533881,"2026-08-19 12:50:00","4926","6.107","188.1","7.382999999999999","187.8","1010.975","30.29","74.14","837.0","0.0"],
    [1533882,"2026-08-19 13:00:00","4927","5.364","184.7","7.121","180.5","1010.901","30.38","74.62","824.0","0.0"],
    [1533883,"2026-08-19 13:10:00","4928","5.3","184.1","7.023","188.2","1010.803","30.28","75.38","816.0","0.0"],
    [1533884,"2026-08-19 13:20:00","4929","5.337000000000001","182.6","7.154","194.0","1010.726","30.31","75.69","805.0","0.0"],
    [1533885,"2026-08-19 13:30:00","4930","5.624","184.4","7.415","184.7","1010.635","30.26","75.94","794.9","0.0"],
    [1533886,"2026-08-19 13:40:00","4931","5.227","186.4","7.187","192.6","1010.532","30.37","75.82","784.0","0.0"],
    [1533887,"2026-08-19 13:50:00","4932","5.45","183.1","7.252000000000001","190.8","1010.418","30.33","76.52","771.8","0.0"],
    [1533888,"2026-08-19 14:00:00","4933","5.566","185.0","7.285","189.7","1010.319","30.41","77.28","757.9","0.0"],
    [1533889,"2026-08-19 14:10:00","4934","5.917999999999999","184.7","8.43","185.5","1010.232","30.43","76.41","742.4","0.0"],
    [1533890,"2026-08-19 14:20:00","4935","6.109","184.4","7.415","191.2","1010.125","30.42","76.59","721.4","0.0"],
    [1533891,"2026-08-19 14:30:00","4936","6.375","183.0","9.05","185.7","1010.022","30.35","77.81","695.9","0.0"],
    [1533892,"2026-08-19 14:40:00","4937","6.059","182.6","8.2","183.9","1009.863","30.35","78.7","665.8","0.0"],
    [1533893,"2026-08-19 14:50:00","4938","5.187","181.3","7.121","189.2","1009.737","30.28","80.0","632.2","0.0"],
    [1533894,"2026-08-19 15:00:00","4939","5.249","190.2","7.579","195.0","1009.942","30.51","78.75","659.4","0.0"],
    [1533895,"2026-08-19 15:10:00","4940","5.58","191.3","7.807","197.6","1009.829","30.97","75.72","586.3","0.0"],
    [1533896,"2026-08-19 15:20:00","4941","6.285","191.0","8.62","194.8","1009.535","30.64","75.56","375.2","0.0"],
    [1533897,"2026-08-19 15:30:00","4942","5.718","198.1","8.04","200.2","1009.74","30.77","75.48","427.0","0.0"],
    [1533898,"2026-08-19 15:40:00","4943","6.525","198.9","8.85","212.7","1009.712","30.76","75.19","271.7","0.0"],
    [1533899,"2026-08-19 15:50:00","4944","4.944","204.1","7.6770000000000005","205.8","1009.513","30.96","73.92","200.2","0.0"],
    [1533900,"2026-08-19 16:00:00","4945","4.918","207.3","8.0","202.5","1009.405","30.74","75.2","195.5","0.0"],
    [1533901,"2026-08-19 16:10:00","4946","4.782","211.1","7.742000000000001","200.3","1009.504","30.99","74.74","192.2","0.0"],
    [1533902,"2026-08-19 16:20:00","4947","5.787999999999999","204.5","8.4","200.3","1009.371","30.61","75.4","185.5","0.0"],
    [1533903,"2026-08-19 16:30:00","4948","4.974","206.3","8.23","198.1","1009.415","30.68","74.78","202.5","0.0"],
    [1533904,"2026-08-19 16:40:00","4949","5.856","200.8","8.82","205.2","1009.419","30.65","73.64","240.1","0.0"],
    [1533905,"2026-08-19 16:50:00","4950","4.164","209.1","6.893","211.5","1009.482","30.94","73.13","239.8","0.0"],
    [1533906,"2026-08-19 17:00:00","4951","4.776","206.8","7.513","223.3","1009.393","30.87","73.01","217.9","0.0"],
    [1533907,"2026-08-19 17:10:00","4952","5.117","198.6","6.697","189.3","1009.269","30.43","75.02","131.8","0.0"],
    [1533908,"2026-08-19 17:20:00","4953","5.513","199.5","8.1","198.2","1009.184","30.26","75.49","101.2","0.0"],
    [1533909,"2026-08-19 17:30:00","4954","6.045","199.2","8.23","212.4","1009.187","30.07","75.35","88.6","0.0"],
    [1533910,"2026-08-19 17:40:00","4955","5.026","199.7","7.35","189.5","1009.109","30.14","75.0","103.9","0.0"],
    [1533911,"2026-08-19 17:50:00","4956","4.598","199.4","6.827000000000001","215.7","1009.093","30.12","76.6","81.4","0.0"],
    [1533912,"2026-08-19 18:00:00","4957","5.691","194.4","7.6770000000000005","198.6","1009.02","29.91","78.07","68.59","0.0"],
    [1533913,"2026-08-19 18:10:00","4958","6.025","191.8","7.35","191.1","1009.076","29.62","79.56","76.32","0.0"],
    [1533914,"2026-08-19 18:20:00","4959","5.834","196.8","8.33","201.2","1009.085","29.56","79.16","51.19","0.0"],
    [1533915,"2026-08-19 18:30:00","4960","6.218999999999999","197.7","8.13","193.7","1009.247","29.54","78.8","27.25","0.0"],
    [1533916,"2026-08-19 18:40:00","4961","5.362","198.8","7.415","203.2","1009.399","29.51","78.91","8.32","0.0"],
    [1533917,"2026-08-19 18:50:00","4962","4.678999999999999","198.1","7.872999999999999","198.0","1009.426","29.47","78.71","1.305","0.0"],
    [1533918,"2026-08-19 19:00:00","4963","4.534","200.2","6.337000000000001","203.6","1009.591","29.39","78.75","0.0","0.0"],
    [1533919,"2026-08-19 19:10:00","4964","4.377","199.4","5.912999999999999","201.6","1009.615","29.46","77.96","0.0","0.0"],
    [1533920,"2026-08-19 19:20:00","4965","5.002","198.8","7.382999999999999","194.1","1009.677","29.43","78.02","0.0","0.0"],
    [1533921,"2026-08-19 19:30:00","4966","4.17","203.5","6.9910000000000005","209.0","1009.779","29.47","78.99","0.0","0.0"],
    [1533922,"2026-08-19 19:40:00","4967","4.5889999999999995","200.0","6.729","214.3","1009.829","29.43","79.95","0.0","0.0"],
    [1533923,"2026-08-19 19:50:00","4968","3.5980000000000003","208.5","6.435","233.3","1009.933","29.38","80.1","0.0","0.0"],
    [1533924,"2026-08-19 20:00:00","4969","3.16","228.6","5.39","209.8","1009.972","29.53","79.23","0.0","0.0"],
    [1533925,"2026-08-19 20:10:00","4970","2.213","255.0","4.4430000000000005","236.2","1009.954","29.5","78.88","0.0","0.0"],
    [1533926,"2026-08-19 20:20:00","4971","1.722","259.9","3.0380000000000003","267.2","1010.024","29.42","79.03","0.0","0.0"],
    [1533927,"2026-08-19 20:30:00","4972","0.956","223.2","2.123","262.3","1010.038","29.35","79.23","0.0","0.0"],
    [1533928,"2026-08-19 20:40:00","4973","1.693","206.1","2.417","209.3","1010.17","29.32","79.83","0.0","0.0"],
    [1533929,"2026-08-19 20:50:00","4974","1.305","211.1","2.025","200.4","1010.269","29.25","80.1","0.0","0.0"],
    [1533930,"2026-08-19 21:00:00","4975","1.505","193.6","3.0380000000000003","190.6","1010.332","29.2","80.5","0.0","0.0"],
    [1533931,"2026-08-19 21:10:00","4976","0.8809999999999999","198.4","2.156","204.8","1010.325","29.13","80.6","0.0","0.0"],
    [1533932,"2026-08-19 21:20:00","4977","1.516","184.9","2.123","194.0","1010.183","29.07","81.1","0.0","0.0"],
    [1533933,"2026-08-19 21:30:00","4978","0.789","159.6","1.5030000000000001","182.4","1010.146","28.99","81.5","0.0","0.0"],
    [1533934,"2026-08-19 21:40:00","4979","1.179","137.2","1.535","154.5","1010.118","28.73","82.8","0.0","0.0"],
    [1533935,"2026-08-19 21:50:00","4980","1.449","144.7","1.764","117.2","1010.019","28.62","83.6","0.0","0.0"],
    [1533936,"2026-08-19 22:00:00","4981","1.86","118.4","2.319","118.0","1009.915","28.43","84.5","0.0","0.0"],
    [1533937,"2026-08-19 22:10:00","4982","1.5619999999999998","131.6","2.025","131.3","1010.028","28.45","85.4","0.0","0.0"],
    [1533938,"2026-08-19 22:20:00","4983","1.655","170.3","2.319","173.1","1010.064","28.51","86.7","0.0","0.0"],
    [1533939,"2026-08-19 22:30:00","4984","2.195","177.8","2.9730000000000003","177.5","1010","28.52","87.5","0.0","0.0"],
    [1533940,"2026-08-19 22:40:00","4985","0.8290000000000001","189.9","1.5030000000000001","195.2","1010.057","28.55","87.7","0.0","0.0"],
    [1533941,"2026-08-19 22:50:00","4986","0.32","192.6","0.8490000000000001","179.5","1010.108","28.62","87.6","0.0","0.0"],
    [1533942,"2026-08-19 23:00:00","4987","0.0","0.0","0.0","0.0","1010.139","28.52","87.6","0.0","0.0"],
    [1533943,"2026-08-19 23:10:00","4988","0.624","40.46","1.535","30.43","1010.246","28.35","88.7","0.0","0.0"],
    [1533944,"2026-08-19 23:20:00","4989","1.985","16.13","3.103","9.57","1010.301","28.23","89.1","0.0","0.0"],
    [1533945,"2026-08-19 23:30:00","4990","2.673","18.58","3.136","11.83","1010.227","28.05","89.6","0.0","0.0"],
    [1533946,"2026-08-19 23:40:00","4991","2.379","33.8","2.7769999999999997","27.89","1010.189","28.24","88.5","0.0","0.0"],
    [1533947,"2026-08-19 23:50:00","4992","2.088","44.04","2.613","47.18","1010.267","28.38","87.5","0.0","0.0"],
    [1533948,"2026-08-20 00:00:00","4993","3.279","44.32","4.737","35.77","1010.301","28.29","87.7","0.0","0.0"],
    [1533949,"2026-08-20 00:10:00","4994","4.731","38.4","5.553","36.48","1010.299","28.03","87.8","0.0","0.0"],
    [1533950,"2026-08-20 00:20:00","4995","4.117","44.79","5.1610000000000005","39.38","1010.229","28.13","87.0","0.0","0.0"],
    [1533951,"2026-08-20 00:30:00","4996","4.2219999999999995","33.5","5.227","32.4","1010.309","28.14","87.1","0.0","0.0"],
    [1533952,"2026-08-20 00:40:00","4997","4.082","25.57","5.553","21.88","1010.481","28.19","87.1","0.0","0.0"],
    [1533953,"2026-08-20 00:50:00","4998","4.456","32.96","5.194","31.43","1010.339","28.25","86.5","0.0","0.0"],
    [1533954,"2026-08-20 01:00:00","4999","4.462","32.03","5.292000000000001","35.8","1010.141","28.18","86.5","0.0","0.0"],
    [1533955,"2026-08-20 01:10:00","5000","4.085","33.85","4.9","34.86","1010.031","28.19","86.9","0.0","0.0"],
    [1533956,"2026-08-20 01:20:00","5001","3.0260000000000002","31.77","3.7239999999999998","34.1","1010.24","28.2","87.6","0.0","0.0"],
    [1533957,"2026-08-20 01:30:00","5002","2.641","28.51","3.495","30.88","1010.31","28.11","88.4","0.0","0.0"],
    [1533958,"2026-08-20 01:40:00","5003","2.349","24.81","2.7439999999999998","31.85","1010.434","28.01","88.8","0.0","0.0"],
    [1533959,"2026-08-20 01:50:00","5004","2.552","30.81","3.234","31.6","1010.375","28.06","88.6","0.0","0.0"],
    [1533960,"2026-08-20 02:00:00","5005","2.844","28.81","3.5610000000000004","37.86","1010.252","28.11","87.8","0.0","0.0"],
    [1533961,"2026-08-20 02:10:00","5006","2.333","46.25","3.136","36.47","1010.184","28.09","87.5","0.0","0.0"],
    [1533962,"2026-08-20 02:20:00","5007","2.45","34.95","3.234","24.13","1010.196","28.06","87.9","0.0","0.0"],
    [1533963,"2026-08-20 02:30:00","5008","2.471","28.21","3.593","27.31","1010.18","28.12","87.5","0.0","0.0"],
    [1533964,"2026-08-20 02:40:00","5009","3.0180000000000002","22.41","4.083","29.62","1010.174","28.03","87.1","0.0","0.0"],
    [1533965,"2026-08-20 02:50:00","5010","3.583","28.62","4.247","29.59","1010.194","28.01","85.2","0.0","0.0"],
    [1533966,"2026-08-20 03:00:00","5011","3.1180000000000003","27.85","4.051","37.67","1010.395","28.12","83.1","0.0","0.0"],
    [1533967,"2026-08-20 03:10:00","5012","3.432","30.18","4.606","34.04","1010.484","28.2","82.8","0.0","0.0"],
    [1533968,"2026-08-20 03:20:00","5013","4.158","28.67","5.031000000000001","23.38","1010.403","28.18","83.6","0.0","0.0"],
    [1533969,"2026-08-20 03:30:00","5014","3.761","27.54","4.867","33.09","1010.467","28.21","84.3","0.0","0.0"],
    [1533970,"2026-08-20 03:40:00","5015","4.935","30.37","6.86","48.35","1010.522","28.16","84.2","0.001","0.0"],
    [1533971,"2026-08-20 03:50:00","5016","5.869","33.15","7.481","32.19","1010.505","28.14","82.8","0.0","0.0"],
    [1533972,"2026-08-20 04:00:00","5017","5.919","37.92","7.6770000000000005","39.25","1010.557","28.14","84.0","0.0","0.0"],
    [1533973,"2026-08-20 04:10:00","5018","5.256","36.62","7.056","43.99","1010.645","28.05","85.9","0.0","0.0"],
    [1533974,"2026-08-20 04:20:00","5019","6.518","40.47","8.56","45.21","1010.581","28.05","87.1","0.0","0.0"],
    [1533975,"2026-08-20 04:30:00","5020","6.0889999999999995","30.15","8.33","35.19","1010.646","27.93","84.9","0.0","0.0"],
    [1533976,"2026-08-20 04:40:00","5021","4.566","49.26","6.501","45.14","1010.744","28.34","81.6","0.0","0.0"],
    [1533977,"2026-08-20 04:50:00","5022","4.7669999999999995","78.76","7.742000000000001","92.6","1011.058","28.36","80.7","0.377","0.0"],
    [1533978,"2026-08-20 05:00:00","5023","4.461","85.2","8.49","92.9","1011.294","28.31","75.97","0.049","0.0"],
    [1533979,"2026-08-20 05:10:00","5024","7.244","100.3","10.16","93.6","1011.176","28.41","73.37","0.973","0.0"],
    [1533980,"2026-08-20 05:20:00","5025","6.87","98.2","9.54","103.3","1011.153","28.35","76.45","8.81","0.0"],
    [1533981,"2026-08-20 05:30:00","5026","5.099","88.5","7.481","95.1","1011.403","28.23","76.61","5.251","0.0"],
    [1533982,"2026-08-20 05:40:00","5027","4.169","86.9","6.501","75.47","1011.539","28.27","75.76","7.104","0.0"],
    [1533983,"2026-08-20 05:50:00","5028","4.602","95.0","7.187","99.9","1011.627","28.36","74.62","5.855","0.0"],
    [1533984,"2026-08-20 06:00:00","5029","4.027","97.8","5.651","96.0","1011.729","28.49","73.12","5.5520000000000005","0.0"],
    [1533985,"2026-08-20 06:10:00","5030","4.5169999999999995","100.1","6.925","101.3","1011.811","28.6","72.36","5.914","0.0"],
    [1533986,"2026-08-20 06:20:00","5031","4.251","91.1","6.468","81.9","1011.873","28.68","71.41","4.636","0.0"],
    [1533987,"2026-08-20 06:30:00","5032","4.302","66.03","5.586","68.15","1011.875","28.53","72.82","6.0","0.0"],
    [1533988,"2026-08-20 06:40:00","5033","5.0760000000000005","38.94","6.305","35.33","1011.717","28.26","74.34","8.03","0.0"],
    [1533989,"2026-08-20 06:50:00","5034","4.863","38.82","6.5329999999999995","48.83","1011.653","28.17","73.32","12.72","0.0"],
    [1533990,"2026-08-20 07:00:00","5035","4.493","41.75","6.403","44.64","1011.642","28.24","73.74","11.06","0.0"],
    [1533991,"2026-08-20 07:10:00","5036","4.398","37.83","5.7170000000000005","38.38","1011.641","28.16","73.99","19.38","0.0"],
    [1533992,"2026-08-20 07:20:00","5037","3.7880000000000003","49.49","5.357","33.4","1011.605","28.08","74.1","26.66","0.0"],
    [1533993,"2026-08-20 07:30:00","5038","3.3489999999999998","39.42","5.4879999999999995","32.94","1011.76","28.06","74.27","11.63","0.0"],
    [1533994,"2026-08-20 07:40:00","5039","4.083","47.16","5.292000000000001","44.64","1011.74","28.13","72.66","32.18","0.0"],
    [1533995,"2026-08-20 07:50:00","5040","4.048","42.79","5.7170000000000005","42.51","1011.843","28.25","73.0","47.48","0.0"],
    [1533996,"2026-08-20 08:00:00","5041","3.6069999999999998","31.7","4.671","27.4","1011.911","27.99","76.77","26.0","0.0"],
    [1533997,"2026-08-20 08:10:00","5042","3.812","30.49","5.063","28.47","1011.825","27.78","77.85","40.1","0.0"],
    [1533998,"2026-08-20 08:20:00","5043","3.785","25.31","4.9","26.63","1011.775","27.78","77.75","65.87","0.0"],
    [1533999,"2026-08-20 08:30:00","5044","3.795","35.55","4.802","35.77","1011.785","27.82","77.0","90.3","0.0"],
    [1534000,"2026-08-20 08:40:00","5045","4.025","41.06","4.835","43.41","1011.823","27.82","77.43","137.7","0.0"],
    [1534001,"2026-08-20 08:50:00","5046","3.33","35.38","4.638999999999999","45.52","1011.939","27.86","77.61","145.3","0.0"],
    [1534002,"2026-08-20 09:00:00","5047","3.997","42.84","4.541","41.94","1011.935","27.77","77.21","144.4","0.0"],
    [1534003,"2026-08-20 09:10:00","5048","4.21","34.47","5.39","32.66","1011.934","27.81","77.21","200.3","0.0"],
    [1534004,"2026-08-20 09:20:00","5049","4.4","30.97","5.39","37.27","1011.906","27.86","76.06","182.6","0.0"],
    [1534005,"2026-08-20 09:30:00","5050","4.454","32.05","5.357","29.72","1011.891","27.92","75.87","180.0","0.0"],
    [1534006,"2026-08-20 09:40:00","5051","4.757","30.12","5.325","28.68","1011.862","27.88","76.04","222.8","0.0"],
    [1534007,"2026-08-20 09:50:00","5052","4.895","30.33","5.4879999999999995","27.71","1011.811","27.92","75.83","288.2","0.0"],
    [1534008,"2026-08-20 10:00:00","5053","4.705","30.91","6.239","35.93","1011.779","27.96","76.21","315.4","0.0"],
    [1534009,"2026-08-20 10:10:00","5054","4.426","27.81","5.357","26.4","1011.921","27.96","76.55","286.7","0.0"],
    [1534010,"2026-08-20 10:20:00","5055","4.252","32.71","5.39","31.53","1011.852","27.92","76.87","269.9","0.0"],
    [1534011,"2026-08-20 10:30:00","5056","3.964","33.51","4.737","37.34","1011.988","27.99","76.59","357.6","0.0"],
    [1534012,"2026-08-20 10:40:00","5057","4.717","25.68","5.455","27.27","1011.891","28.0","76.36","348.0","0.0"],
    [1534013,"2026-08-20 10:50:00","5058","4.2410000000000005","25.39","5.422999999999999","16.02","1011.881","27.98","76.8","281.5","0.0"],
    [1534014,"2026-08-20 11:00:00","5059","4.32","30.52","5.227","28.13","1011.924","28.09","75.51","861.0","0.0"],
    [1534015,"2026-08-20 11:10:00","5060","4.699","24.07","5.455","22.85","1011.771","28.25","75.35","853.0","0.0"],
    [1534016,"2026-08-20 11:20:00","5061","4.535","25.91","5.357","24.74","1011.88","28.23","75.57","841.0","0.0"],
    [1534017,"2026-08-20 11:30:00","5062","3.983","38.15","4.802","40.36","1011.883","28.31","75.26","861.0","0.0"],
    [1534018,"2026-08-20 11:40:00","5063","3.4619999999999997","40.92","5.586","51.99","1011.812","28.59","71.41","858.0","0.0"],
    [1534019,"2026-08-20 11:50:00","5064","3.937","45.87","5.4879999999999995","36.62","1011.705","28.97","66.23","862.0","0.0"],
    [1534020,"2026-08-20 12:00:00","5065","2.909","42.3","5.4879999999999995","44.24","1011.742","29.13","65.59","848.0","0.0"],
    [1534021,"2026-08-20 12:10:00","5066","1.7369999999999999","57.02","3.495","31.71","1011.699","29.35","65.24","843.0","0.0"],
    [1534022,"2026-08-20 12:20:00","5067","3.49","86.5","5.39","92.5","1011.483","29.19","66.86","842.0","0.0"],
    [1534023,"2026-08-20 12:30:00","5068","3.787","92.0","5.129","93.1","1011.293","28.99","67.85","838.0","0.0"],
    [1534024,"2026-08-20 12:40:00","5069","2.556","69.79","4.9","85.3","1011.296","29.09","68.48","828.0","0.0"],
    [1534025,"2026-08-20 12:50:00","5070","2.835","47.83","5.749","35.81","1011.18","29.19","69.33","817.0","0.0"],
    [1534026,"2026-08-20 13:00:00","5071","3.343","44.56","5.945","51.62","1010.901","29.12","70.65","811.0","0.0"],
    [1534027,"2026-08-20 13:10:00","5072","3.358","40.41","6.337000000000001","53.62","1010.624","29.15","71.53","807.0","0.0"],
    [1534028,"2026-08-20 13:20:00","5073","4.231","45.7","6.566","97.7","1010.784","29.17","72.73","799.1","0.0"],
    [1534029,"2026-08-20 13:30:00","5074","2.332","47.38","5.227","113.8","1011.036","29.27","73.48","799.0","0.0"],
    [1534030,"2026-08-20 13:40:00","5075","3.9560000000000004","12.6","5.7170000000000005","6.228","1011.096","29.2","75.87","790.3","0.0"],
    [1534031,"2026-08-20 13:50:00","5076","6.21","18.9","8.33","40.41","1011.224","28.75","77.92","616.8","0.0"],
    [1534032,"2026-08-20 14:00:00","5077","7.476","30.99","8.59","27.69","1011.042","28.55","77.03","467.7","0.0"],
    [1534033,"2026-08-20 14:10:00","5078","7.318","31.85","8.85","31.27","1010.904","28.48","77.61","542.4","0.0"],
    [1534034,"2026-08-20 14:20:00","5079","7.542999999999999","32.64","9.7","36.28","1010.773","28.48","76.01","640.0","0.0"],
    [1534035,"2026-08-20 14:30:00","5080","7.25","36.84","9.96","37.51","1010.493","28.52","73.24","431.3","0.0"],
    [1534036,"2026-08-20 14:40:00","5081","5.938","39.46","7.611000000000001","31.96","1010.49","28.56","70.57","241.8","0.0"],
    [1534037,"2026-08-20 14:50:00","5082","7.11","32.51","8.79","37.81","1010.769","28.33","71.02","154.2","0.0"],
    [1534038,"2026-08-20 15:00:00","5083","5.597","34.46","7.938","29.33","1011.064","28.12","73.42","62.26","0.0"],
    [1534039,"2026-08-20 15:10:00","5084","4.8469999999999995","46.03","6.0760000000000005","49.61","1011.352","28.12","72.57","33.25","0.3"],
    [1534040,"2026-08-20 15:20:00","5085","4.146","35.69","5.651","36.01","1011.258","27.72","74.68","61.62","0.4"],
    [1534041,"2026-08-20 15:30:00","5086","3.966","35.99","5.227","32.79","1011.084","27.83","77.72","87.1","0.0"],
    [1534042,"2026-08-20 15:40:00","5087","4.984","51.72","6.1739999999999995","45.48","1010.93","27.89","78.22","84.8","0.0"],
    [1534043,"2026-08-20 15:50:00","5088","5.3260000000000005","57.59","6.109","55.09","1010.86","28.08","74.18","119.4","0.0"],
    [1534044,"2026-08-20 16:00:00","5089","4.155","59.19","5.1610000000000005","66.2","1010.699","28.56","69.83","143.0","0.0"],
    [1534045,"2026-08-20 16:10:00","5090","3.855","48.87","4.835","50.25","1010.515","28.54","71.12","168.4","0.0"],
    [1534046,"2026-08-20 16:20:00","5091","3.908","42.77","4.9","44.62","1010.556","28.46","73.25","142.1","0.0"],
    [1534047,"2026-08-20 16:30:00","5092","3.84","34.62","5.684","34.91","1010.394","28.33","72.43","115.6","0.0"],
    [1534048,"2026-08-20 16:40:00","5093","3.984","28.18","5.455","40.9","1010.207","28.16","72.61","97.6","0.0"],
    [1534049,"2026-08-20 16:50:00","5094","3.8939999999999997","25.51","5.063","36.13","1010.087","28.14","72.54","80.0","0.0"],
    [1534050,"2026-08-20 17:00:00","5095","3.984","29.76","4.965","26.66","1010.114","28.28","71.44","64.69","0.0"],
    [1534051,"2026-08-20 17:10:00","5096","3.775","39.68","5.4879999999999995","40.74","1010.101","28.21","73.45","53.46","0.0"],
    [1534052,"2026-08-20 17:20:00","5097","4.489","32.56","5.194","33.84","1009.992","27.99","74.52","40.34","0.0"],
    [1534053,"2026-08-20 17:30:00","5098","3.446","25.39","4.181","25.51","1010.089","28.08","74.32","28.98","0.0"],
    [1534054,"2026-08-20 17:40:00","5099","3.109","34.26","4.312","18.68","1010.2","28.19","71.4","18.99","0.0"],
    [1534055,"2026-08-20 17:50:00","5100","1.36","19.04","2.417","30.83","1010.289","28.34","70.9","13.85","0.0"],
    [1534056,"2026-08-20 18:00:00","5101","1.6119999999999999","252.5","4.867","235.5","1010.389","28.53","69.2","10.54","0.0"],
    [1534057,"2026-08-20 18:10:00","5102","2.314","218.2","4.737","207.9","1010.372","28.94","64.51","7.364","0.0"],
    [1534058,"2026-08-20 18:20:00","5103","4.36","207.5","6.893","200.3","1010.428","29.54","58.98","3.5180000000000002","0.0"],
    [1534059,"2026-08-20 18:30:00","5104","6.484","201.8","12.51","212.4","1010.286","29.8","54.62","0.87","0.0"],
    [1534060,"2026-08-20 18:40:00","5105","6.098","216.0","10.45","221.4","1010.09","29.97","53.15","0.001","0.0"],
    [1534061,"2026-08-20 18:50:00","5106","5.19","224.5","10.13","220.2","1009.747","30.1","52.6","0.0","0.0"],
    [1534062,"2026-08-20 19:00:00","5107","5.747000000000001","224.5","9.28","202.6","1009.579","30.32","48.05","0.0","0.0"],
    [1534063,"2026-08-20 19:10:00","5108","7.101","221.1","11.99","223.2","1009.619","30.47","43.68","0.0","0.0"],
    [1534064,"2026-08-20 19:20:00","5109","5.397","237.4","11.2","217.8","1009.573","30.19","46.17","0.0","0.1"],
    [1534065,"2026-08-20 19:30:00","5110","4.114","268.5","7.023","226.9","1009.185","28.36","59.64","0.0","0.0"],
    [1534066,"2026-08-20 19:40:00","5111","5.025","285.9","7.84","299.9","1009.048","28.06","58.95","0.0","0.0"],
    [1534067,"2026-08-20 19:50:00","5112","4.643","297.7","8.49","286.8","1008.839","27.96","58.13","0.0","0.0"],
    [1534068,"2026-08-20 20:00:00","5113","3.925","295.7","6.501","304.6","1008.756","28.02","56.16","0.0","0.0"],
    [1534069,"2026-08-20 20:10:00","5114","2.426","275.9","4.247","284.7","1008.979","28.21","54.66","0.0","0.0"],
    [1534070,"2026-08-20 20:20:00","5115","1.8019999999999998","245.6","2.907","256.9","1009.253","28.16","54.03","0.0","0.0"],
    [1534071,"2026-08-20 20:30:00","5116","2.9019999999999997","239.6","4.2139999999999995","231.8","1009.682","28.28","54.32","0.0","0.0"],
    [1534072,"2026-08-20 20:40:00","5117","2.872","249.5","5.553","251.3","1009.936","27.69","60.23","0.0","0.0"],
    [1534073,"2026-08-20 20:50:00","5118","2.733","256.8","5.292000000000001","257.4","1010","27.42","61.92","0.0","0.0"],
    [1534074,"2026-08-20 21:00:00","5119","2.61","253.4","4.9","255.9","1009.89","27.48","60.19","0.0","0.0"],
    [1534075,"2026-08-20 21:10:00","5120","4.086","242.6","8.56","222.0","1009.994","27.89","59.04","0.0","0.0"],
    [1534076,"2026-08-20 21:20:00","5121","4.981","240.5","10.06","241.2","1010.169","27.75","60.31","0.0","0.0"],
    [1534077,"2026-08-20 21:30:00","5122","3.938","237.8","7.84","256.9","1009.988","27.57","60.27","0.0","0.0"],
    [1534078,"2026-08-20 21:40:00","5123","3.866","239.4","8.2","236.4","1009.78","27.39","62.03","0.0","0.0"],
    [1534079,"2026-08-20 21:50:00","5124","3.1189999999999998","242.0","6.239","243.1","1009.823","27.3","63.26","0.0","0.0"],
    [1534080,"2026-08-20 22:00:00","5125","3.6","236.8","7.709","206.9","1009.908","27.32","65.69","0.0","0.0"],
    [1534081,"2026-08-20 22:10:00","5126","3.9219999999999997","244.0","7.546","218.3","1010.067","27.07","67.67","0.0","0.0"],
    [1534082,"2026-08-20 22:20:00","5127","4.078","278.6","6.925","268.7","1009.688","26.89","67.59","0.0","0.0"],
    [1534083,"2026-08-20 22:30:00","5128","5.188","290.3","8.75","288.2","1009.649","26.74","66.48","0.0","0.0"],
    [1534084,"2026-08-20 22:40:00","5129","5.609","285.9","9.51","284.1","1009.938","26.72","66.82","0.0","0.0"],
    [1534085,"2026-08-20 22:50:00","5130","4.825","285.3","8.36","276.3","1010.463","26.48","68.76","0.0","0.2"],
    [1534086,"2026-08-20 23:00:00","5131","4.654","282.5","7.4479999999999995","276.3","1010.925","25.93","70.74","0.0","0.2"],
    [1534087,"2026-08-20 23:10:00","5132","4.24","289.5","7.4479999999999995","287.7","1011.117","25.41","71.29","0.0","0.2"],
    [1534088,"2026-08-20 23:20:00","5133","5.084","285.3","7.382999999999999","291.9","1011.204","25.27","69.72","0.0","0.1"],
    [1534089,"2026-08-20 23:30:00","5134","4.631","289.3","6.9910000000000005","279.7","1010.972","24.82","69.98","0.0","0.1"],
    [1534090,"2026-08-20 23:40:00","5135","2.688","297.7","4.769","282.5","1010.497","24.58","70.6","0.0","0.0"],
    [1534091,"2026-08-20 23:50:00","5136","2.452","287.9","3.528","286.2","1010.169","24.61","69.93","0.0","0.0"],
    [1534092,"2026-08-21 00:00:00","5137","3.01","286.9","5.455","281.9","1010.096","24.79","68.24","0.0","0.0"],
    [1534093,"2026-08-21 00:10:00","5138","2.858","278.4","4.345","292.1","1010.104","25.04","68.45","0.0","0.0"],
    [1534094,"2026-08-21 00:20:00","5139","2.597","277.3","3.9530000000000003","271.2","1009.919","25.06","69.61","0.0","0.0"],
    [1534095,"2026-08-21 00:30:00","5140","2.274","264.7","4.181","264.8","1009.774","25.04","69.1","0.0","0.0"],
    [1534096,"2026-08-21 00:40:00","5141","3.218","238.7","7.6770000000000005","259.0","1009.834","25.11","68.86","0.0","0.1"],
    [1534097,"2026-08-21 00:50:00","5142","3.7710000000000004","252.7","7.218999999999999","257.9","1009.805","24.55","71.58","0.0","0.5"],
    [1534098,"2026-08-21 01:00:00","5143","1.84","244.3","4.835","277.6","1009.287","23.6","76.24","0.0","0.2"],
    [1534099,"2026-08-21 01:10:00","5144","2.285","225.8","4.638999999999999","225.2","1009.119","23.39","78.74","0.0","0.2"],
    [1534100,"2026-08-21 01:20:00","5145","2.2969999999999997","227.2","3.7889999999999997","219.3","1009.107","23.07","79.78","0.0","0.0"],
    [1534101,"2026-08-21 01:30:00","5146","1.351","227.3","2.483","237.7","1008.881","23.1","80.2","0.0","0.0"],
    [1534102,"2026-08-21 01:40:00","5147","2.238","281.6","3.495","286.8","1008.828","23.1","80.6","0.0","0.0"],
    [1534103,"2026-08-21 01:50:00","5148","2.6289999999999996","292.6","3.7569999999999997","290.1","1008.768","23.03","81.5","0.0","0.0"],
    [1534104,"2026-08-21 02:00:00","5149","2.9989999999999997","290.3","4.573","286.2","1008.87","23.15","82.1","0.0","0.0"],
    [1534105,"2026-08-21 02:10:00","5150","2.681","288.0","4.508","282.0","1008.885","23.24","81.7","0.0","0.0"],
    [1534106,"2026-08-21 02:20:00","5151","2.12","274.1","3.103","280.9","1008.93","23.43","81.8","0.0","0.0"],
    [1534107,"2026-08-21 02:30:00","5152","2.52","260.7","4.018","270.5","1009.01","23.46","81.1","0.0","0.0"],
    [1534108,"2026-08-21 02:40:00","5153","1.6769999999999998","256.0","3.234","267.8","1009.075","23.57","80.1","0.0","0.0"],
    [1534109,"2026-08-21 02:50:00","5154","1.776","240.5","3.397","241.8","1009.002","23.56","79.16","0.0","0.0"],
    [1534110,"2026-08-21 03:00:00","5155","1.858","252.3","3.136","265.9","1009.077","23.62","79.13","0.0","0.0"],
    [1534111,"2026-08-21 03:10:00","5156","2.029","242.4","3.201","256.0","1009.154","23.61","78.71","0.0","0.0"],
    [1534112,"2026-08-21 03:20:00","5157","2.164","233.5","3.397","227.9","1009.239","23.78","76.34","0.0","0.0"],
    [1534113,"2026-08-21 03:30:00","5158","2.229","243.2","3.5610000000000004","240.2","1009.353","23.92","76.08","0.0","0.0"],
    [1534114,"2026-08-21 03:40:00","5159","2.5069999999999997","267.0","4.051","258.1","1009.435","23.82","77.74","0.0","0.0"],
    [1534115,"2026-08-21 03:50:00","5160","3.7710000000000004","291.7","5.749","302.2","1009.557","23.67","75.77","0.0","0.0"],
    [1534116,"2026-08-21 04:00:00","5161","2.66","296.0","4.9","288.0","1009.677","23.96","73.72","0.0","0.0"],
    [1534117,"2026-08-21 04:10:00","5162","3.3739999999999997","300.4","5.684","312.0","1009.742","23.98","73.36","0.0","0.0"],
    [1534118,"2026-08-21 04:20:00","5163","3.034","295.2","6.468","291.8","1009.833","23.96","71.67","0.0","0.0"],
    [1534119,"2026-08-21 04:30:00","5164","3.312","290.2","5.325","282.8","1009.867","23.91","68.06","0.0","0.0"],
    [1534120,"2026-08-21 04:40:00","5165","4.086","279.3","6.337000000000001","285.0","1010.016","23.75","68.52","0.0","0.0"],
    [1534121,"2026-08-21 04:50:00","5166","5.066","286.8","7.187","273.1","1010.14","23.55","68.91","0.0","0.0"],
    [1534122,"2026-08-21 05:00:00","5167","3.7510000000000003","282.8","5.1610000000000005","290.4","1010.272","23.46","69.79","0.0","0.0"],
    [1534123,"2026-08-21 05:10:00","5168","2.344","290.8","3.005","286.1","1010.417","23.45","70.06","0.599","0.0"],
    [1534124,"2026-08-21 05:20:00","5169","1.7269999999999999","327.4","3.234","6.499","1010.563","23.57","69.57","3.7769999999999997","0.0"],
    [1534125,"2026-08-21 05:30:00","5170","3.4019999999999997","322.2","4.867","326.6","1010.701","23.9","67.02","8.58","0.0"],
    [1534126,"2026-08-21 05:40:00","5171","2.457","289.3","4.835","299.0","1010.833","23.95","67.26","30.52","0.0"],
    [1534127,"2026-08-21 05:50:00","5172","1.36","326.1","1.96","335.5","1010.896","23.95","67.34","57.65","0.0"],
    [1534128,"2026-08-21 06:00:00","5173","1.571","327.0","2.221","327.6","1011.156","24.23","65.88","85.6","0.0"],
    [1534129,"2026-08-21 06:10:00","5174","2.454","295.7","3.7889999999999997","291.6","1011.374","24.61","64.3","117.3","0.0"],
    [1534130,"2026-08-21 06:20:00","5175","1.6780000000000002","305.4","3.267","287.9","1011.339","24.88","62.58","159.5","0.0"],
    [1534131,"2026-08-21 06:30:00","5176","1.4069999999999998","295.6","2.7110000000000003","277.3","1011.334","25.4","61.3","177.0","0.0"],
    [1534132,"2026-08-21 06:40:00","5177","2.135","317.6","3.92","320.8","1011.563","25.39","62.27","202.9","0.0"],
    [1534133,"2026-08-21 06:50:00","5178","1.881","322.3","2.613","295.3","1011.721","25.11","62.99","239.2","0.0"],
    [1534134,"2026-08-21 07:00:00","5179","3.6069999999999998","321.1","5.684","338.6","1011.815","25.19","63.17","275.8","0.0"],
    [1534135,"2026-08-21 07:10:00","5180","3.694","328.5","5.684","321.5","1011.93","24.87","64.22","307.2","0.0"],
    [1534136,"2026-08-21 07:20:00","5181","2.302","318.7","3.985","289.2","1012.006","25.12","62.36","336.7","0.0"],
    [1534137,"2026-08-21 07:30:00","5182","3.037","305.8","4.737","318.6","1012.047","25.47","61.92","368.1","0.0"],
    [1534138,"2026-08-21 07:40:00","5183","2.5","278.9","4.051","281.2","1012.125","25.9","59.84","394.8","0.0"],
    [1534139,"2026-08-21 07:50:00","5184","2.347","292.3","5.2589999999999995","303.4","1012.166","25.96","59.97","427.0","0.0"],
    [1534140,"2026-08-21 08:00:00","5185","3.4810000000000003","305.0","5.227","302.5","1012.079","25.46","61.8","459.0","0.0"],
    [1534141,"2026-08-21 08:10:00","5186","3.034","308.6","4.606","318.7","1012.06","25.57","61.89","485.3","0.0"],
    [1534142,"2026-08-21 08:20:00","5187","3.147","311.7","4.769","309.5","1012.143","25.89","60.3","514.8","0.0"],
    [1534143,"2026-08-21 08:30:00","5188","3.127","304.5","4.541","292.5","1012.234","26.11","59.15","542.1","0.0"],
    [1534144,"2026-08-21 08:40:00","5189","2.785","317.3","4.606","322.2","1012.349","26.18","58.71","571.7","0.0"],
    [1534145,"2026-08-21 08:50:00","5190","2.294","322.6","3.822","310.5","1012.501","26.02","59.76","590.3","0.0"],
    [1534146,"2026-08-21 09:00:00","5191","2.291","336.2","4.508","322.3","1012.651","26.26","58.85","609.5","0.0"],
    [1534147,"2026-08-21 09:10:00","5192","1.8519999999999999","345.8","3.234","313.5","1012.727","26.33","58.8","646.6","0.0"],
    [1534148,"2026-08-21 09:20:00","5193","1.013","82.2","2.287","105.1","1012.764","26.81","56.47","662.1","0.0"],
    [1534149,"2026-08-21 09:30:00","5194","2.048","102.1","3.1689999999999996","92.9","1012.935","26.56","58.98","689.1","0.0"],
    [1534150,"2026-08-21 09:40:00","5195","1.374","69.7","2.875","48.11","1013.022","26.82","57.67","711.1","0.0"],
    [1534151,"2026-08-21 09:50:00","5196","2.059","44.44","4.181","32.76","1013.083","26.87","56.46","743.2","0.0"],
    [1534152,"2026-08-21 10:00:00","5197","1.784","68.12","3.365","35.04","1013.092","26.7","57.81","764.3","0.0"],
    [1534153,"2026-08-21 10:10:00","5198","2.7760000000000002","91.8","3.9530000000000003","96.0","1013.126","26.59","59.13","779.2","0.0"],
    [1534154,"2026-08-21 10:20:00","5199","2.3680000000000003","94.4","3.9530000000000003","98.4","1013.172","26.63","59.17","796.5","0.0"],
    [1534155,"2026-08-21 10:30:00","5200","2.427","89.6","3.5610000000000004","83.4","1013.177","26.63","58.72","811.0","0.0"],
    [1534156,"2026-08-21 10:40:00","5201","2.88","90.5","4.2139999999999995","87.0","1013.17","26.59","59.39","825.0","0.0"],
    [1534157,"2026-08-21 10:50:00","5202","3.0789999999999997","95.2","4.606","75.56","1013.17","26.59","59.04","838.0","0.0"],
    [1534158,"2026-08-21 11:00:00","5203","3.319","92.8","4.2139999999999995","89.5","1013.185","26.49","57.55","843.0","0.0"],
    [1534159,"2026-08-21 11:10:00","5204","3.2739999999999996","96.3","4.475","90.4","1013.188","26.6","59.61","856.0","0.0"],
    [1534160,"2026-08-21 11:20:00","5205","3.325","99.6","4.345","105.6","1013.198","26.53","59.84","871.0","0.0"],
    [1534161,"2026-08-21 11:30:00","5206","3.5010000000000003","106.3","4.867","118.6","1013.171","26.64","58.5","878.0","0.0"],
    [1534162,"2026-08-21 11:40:00","5207","4.7","112.8","6.109","113.7","1013.09","26.7","57.35","891.0","0.0"],
    [1534163,"2026-08-21 11:50:00","5208","4.157","106.1","6.109","117.7","1013.215","26.88","58.37","889.0","0.0"],
    [1534164,"2026-08-21 12:00:00","5209","5.242000000000001","118.4","6.5329999999999995","119.7","1013.159","26.76","58.75","884.0","0.0"],
    [1534165,"2026-08-21 12:10:00","5210","4.891","120.1","6.403","123.6","1013.182","26.54","61.51","882.0","0.0"],
    [1534166,"2026-08-21 12:20:00","5211","4.7860000000000005","117.6","6.337000000000001","121.7","1013.26","26.5","63.01","874.0","0.0"],
    [1534167,"2026-08-21 12:30:00","5212","4.105","118.9","5.619","111.4","1013.343","26.53","64.59","869.0","0.0"],
    [1534168,"2026-08-21 12:40:00","5213","3.2569999999999997","119.4","4.9","104.9","1013.402","26.68","66.34","803.0","0.0"],
    [1534169,"2026-08-21 12:50:00","5214","5.268","138.4","6.957999999999999","137.1","1013.407","26.68","69.79","883.0","0.0"],
    [1534170,"2026-08-21 13:00:00","5215","6.0120000000000005","120.0","7.709","139.4","1013.526","26.49","71.96","248.3","0.0"],
    [1534171,"2026-08-21 13:10:00","5216","5.2170000000000005","108.7","7.35","111.4","1013.52","26.35","72.79","184.3","0.0"],
    [1534172,"2026-08-21 13:20:00","5217","6.5089999999999995","117.3","9.08","111.0","1013.412","26.19","73.06","196.5","0.0"],
    [1534173,"2026-08-21 13:30:00","5218","7.0329999999999995","124.2","9.24","119.1","1013.342","25.99","73.13","251.3","0.0"],
    [1534174,"2026-08-21 13:40:00","5219","7.013","125.7","9.44","118.1","1013.239","26.05","72.65","410.7","0.0"],
    [1534175,"2026-08-21 13:50:00","5220","6.59","117.4","9.18","113.2","1013.213","26.04","73.84","412.5","0.0"],
    [1534176,"2026-08-21 14:00:00","5221","6.688","119.8","9.83","125.2","1013.17","26.1","73.91","530.8","0.0"],
    [1534177,"2026-08-21 14:10:00","5222","7.314","121.2","9.31","119.6","1013.125","25.99","74.29","434.7","0.0"],
    [1534178,"2026-08-21 14:20:00","5223","6.937","121.1","8.72","122.9","1013.218","25.96","74.96","230.7","0.0"],
    [1534179,"2026-08-21 14:30:00","5224","7.184","122.5","9.31","121.6","1013.138","25.93","74.67","331.0","0.0"],
    [1534180,"2026-08-21 14:40:00","5225","6.739","125.6","8.85","123.1","1013.147","25.88","74.82","205.1","0.0"],
    [1534181,"2026-08-21 14:50:00","5226","6.191","127.9","8.4","121.9","1013.187","25.87","74.89","223.0","0.0"],
    [1534182,"2026-08-21 15:00:00","5227","5.9110000000000005","122.0","7.6770000000000005","118.8","1013.247","25.92","74.79","275.4","0.0"],
    [1534183,"2026-08-21 15:10:00","5228","6.529","119.9","8.4","127.8","1013.174","25.91","74.39","164.0","0.0"],
    [1534184,"2026-08-21 15:20:00","5229","5.652","117.1","7.513","112.6","1013.313","25.97","74.21","190.7","0.0"],
    [1534185,"2026-08-21 15:30:00","5230","6.064","120.8","8.23","118.9","1013.28","25.9","74.09","197.2","0.0"],
    [1534186,"2026-08-21 15:40:00","5231","6.017","119.9","8.46","113.0","1013.357","26.06","73.57","340.4","0.0"],
    [1534187,"2026-08-21 15:50:00","5232","6.135","116.9","7.84","109.2","1013.436","26.03","73.03","288.1","0.0"],
    [1534188,"2026-08-21 16:00:00","5233","5.643","111.6","8.17","114.1","1013.519","26.13","72.92","324.2","0.0"],
    [1534189,"2026-08-21 16:10:00","5234","5.656000000000001","113.0","7.415","123.4","1013.602","26.14","72.56","436.0","0.0"],
    [1534190,"2026-08-21 16:20:00","5235","4.68","119.4","6.664","107.2","1013.655","26.25","71.84","394.6","0.0"],
    [1534191,"2026-08-21 16:30:00","5236","4.27","125.4","6.7620000000000005","98.0","1013.683","26.28","71.95","310.5","0.0"],
    [1534192,"2026-08-21 16:40:00","5237","5.106","102.8","6.631","103.8","1013.888","26.26","73.12","266.9","0.0"],
    [1534193,"2026-08-21 16:50:00","5238","5.106","96.4","6.7620000000000005","86.9","1013.848","26.15","72.28","135.3","0.0"],
    [1534194,"2026-08-21 17:00:00","5239","4.296","98.2","5.978","88.4","1013.941","26.16","71.96","104.2","0.0"],
    [1534195,"2026-08-21 17:10:00","5240","4.583","101.2","6.337000000000001","108.3","1013.995","26.13","72.55","91.4","0.0"],
    [1534196,"2026-08-21 17:20:00","5241","4.678","95.2","6.729","107.7","1014.075","26.13","72.29","131.7","0.0"],
    [1534197,"2026-08-21 17:30:00","5242","5.167999999999999","93.5","6.925","89.5","1014.132","26.09","72.26","76.14","0.0"],
    [1534198,"2026-08-21 17:40:00","5243","4.906000000000001","98.0","6.599","100.3","1014.26","26.12","71.77","68.08","0.0"],
    [1534199,"2026-08-21 17:50:00","5244","5.2620000000000005","99.0","6.925","89.6","1014.237","26.09","72.43","69.47","0.0"],
    [1534200,"2026-08-21 18:00:00","5245","5.72","104.5","7.611000000000001","105.9","1014.273","26.04","72.24","60.23","0.0"],
    [1534201,"2026-08-21 18:10:00","5246","5.3229999999999995","106.4","7.938","115.7","1014.43","26.07","71.83","21.29","0.0"],
    [1534202,"2026-08-21 18:20:00","5247","5.695","110.2","7.579","119.7","1014.482","26.09","71.44","17.76","0.0"],
    [1534203,"2026-08-21 18:30:00","5248","6.027","108.7","7.579","100.4","1014.631","26.03","71.11","12.7","0.0"],
    [1534204,"2026-08-21 18:40:00","5249","6.077999999999999","113.3","7.971","120.3","1014.711","26.03","71.0","4.869","0.0"],
    [1534205,"2026-08-21 18:50:00","5250","6.396","108.7","8.1","109.3","1014.746","26.03","70.4","1.778","0.0"],
    [1534206,"2026-08-21 19:00:00","5251","6.6339999999999995","110.2","8.4","106.8","1014.811","26.03","69.96","0.085","0.0"],
    [1534207,"2026-08-21 19:10:00","5252","6.667999999999999","111.8","8.62","108.1","1014.96","26.08","70.4","0.0","0.0"],
    [1534208,"2026-08-21 19:20:00","5253","6.81","107.5","9.08","110.0","1015.096","26.05","70.85","0.0","0.0"],
    [1534209,"2026-08-21 19:30:00","5254","6.544","117.3","8.75","114.5","1015.235","26.04","70.25","0.0","0.0"],
    [1534210,"2026-08-21 19:40:00","5255","6.852","103.0","8.43","114.2","1015.421","26.01","70.58","0.0","0.0"],
    [1534211,"2026-08-21 19:50:00","5256","7.274","110.4","9.18","101.8","1015.533","26.0","70.23","0.0","0.0"],
    [1534212,"2026-08-21 20:00:00","5257","7.055","103.1","9.67","84.3","1015.526","26.01","70.84","0.0","0.0"],
    [1534213,"2026-08-21 20:10:00","5258","6.4479999999999995","107.3","8.95","111.8","1015.664","26.03","70.28","0.0","0.0"],
    [1534214,"2026-08-21 20:20:00","5259","5.645","111.1","7.709","98.6","1015.91","26.02","68.74","0.0","0.0"],
    [1534215,"2026-08-21 20:30:00","5260","5.882000000000001","110.3","7.807","101.7","1016.114","26.08","69.03","0.0","0.0"],
    [1534216,"2026-08-21 20:40:00","5261","5.396","103.7","7.872999999999999","100.8","1016.241","26.1","67.85","0.0","0.0"],
    [1534217,"2026-08-21 20:50:00","5262","5.843999999999999","103.7","8.59","103.8","1016.253","26.11","67.7","0.0","0.0"],
    [1534218,"2026-08-21 21:00:00","5263","6.442","103.9","8.26","99.2","1016.182","26.09","67.03","0.0","0.0"],
    [1534219,"2026-08-21 21:10:00","5264","5.69","98.2","7.285","99.0","1016.212","26.13","67.42","0.0","0.0"],
    [1534220,"2026-08-21 21:20:00","5265","5.78","113.5","7.382999999999999","107.5","1016.211","26.13","66.83","0.0","0.0"],
    [1534221,"2026-08-21 21:30:00","5266","5.5120000000000005","114.2","7.0889999999999995","104.8","1016.392","26.16","65.67","0.0","0.0"],
    [1534222,"2026-08-21 21:40:00","5267","5.247999999999999","103.5","7.218999999999999","99.3","1016.374","26.23","64.65","0.0","0.0"],
    [1534223,"2026-08-21 21:50:00","5268","5.257999999999999","98.3","7.154","95.8","1016.239","26.25","64.93","0.0","0.0"],
    [1534224,"2026-08-21 22:00:00","5269","5.131","103.1","6.9910000000000005","86.4","1016.184","26.29","65.01","0.0","0.0"],
    [1534225,"2026-08-21 22:10:00","5270","4.83","104.7","6.664","106.7","1016.241","26.3","64.19","0.0","0.0"],
    [1534226,"2026-08-21 22:20:00","5271","5.32","98.0","7.187","99.8","1016.139","26.31","63.63","0.0","0.0"],
    [1534227,"2026-08-21 22:30:00","5272","5.189","101.5","7.382999999999999","88.4","1016.181","26.31","64.79","0.0","0.0"],
    [1534228,"2026-08-21 22:40:00","5273","5.67","107.2","7.023","107.1","1016.236","26.26","63.96","0.0","0.0"],
    [1534229,"2026-08-21 22:50:00","5274","5.291","105.3","7.285","107.4","1016.246","26.27","63.95","0.0","0.0"],
    [1534230,"2026-08-21 23:00:00","5275","5.981","90.8","8.33","89.7","1016.2","26.27","64.66","0.0","0.0"],
    [1534231,"2026-08-21 23:10:00","5276","5.401","85.4","8.07","68.41","1016.368","26.23","63.47","0.0","0.0"],
    [1534232,"2026-08-21 23:20:00","5277","5.662999999999999","82.8","7.709","88.3","1016.391","26.18","62.51","0.0","0.0"],
    [1534233,"2026-08-21 23:30:00","5278","5.815","80.7","7.513","80.8","1016.542","26.13","61.63","0.0","0.0"],
    [1534234,"2026-08-21 23:40:00","5279","5.251","79.14","6.9910000000000005","79.24","1016.591","26.1","61.73","0.0","0.0"],
    [1534235,"2026-08-21 23:50:00","5280","5.632000000000001","78.85","7.644","84.4","1016.499","26.04","60.89","0.0","0.0"],
    [1534236,"2026-08-22 00:00:00","5281","5.817","73.95","7.807","60.99","1016.487","26.0","62.88","0.0","0.0"],
    [1534237,"2026-08-22 00:10:00","5282","6.122999999999999","63.29","8.4","69.93","1016.273","25.89","61.71","0.0","0.0"],
    [1534238,"2026-08-22 00:20:00","5283","5.357","52.93","7.415","51.49","1016.305","25.71","64.65","0.0","0.0"],
    [1534239,"2026-08-22 00:30:00","5284","5.6739999999999995","48.23","7.579","68.25","1016.254","25.6","63.75","0.0","0.0"],
    [1534240,"2026-08-22 00:40:00","5285","5.641","50.62","7.513","53.15","1016.315","25.55","63.71","0.0","0.0"],
    [1534241,"2026-08-22 00:50:00","5286","5.938","53.28","7.644","48.03","1016.226","25.49","63.12","0.0","0.0"],
    [1534242,"2026-08-22 01:00:00","5287","5.3870000000000005","49.41","7.285","59.2","1016.259","25.46","62.87","0.0","0.0"],
    [1534243,"2026-08-22 01:10:00","5288","5.031000000000001","54.02","6.697","66.63","1016.35","25.47","63.21","0.0","0.0"],
    [1534244,"2026-08-22 01:20:00","5289","4.856","51.04","6.042999999999999","39.36","1016.419","25.42","63.05","0.0","0.0"],
    [1534245,"2026-08-22 01:30:00","5290","5.515","46.61","8.17","43.6","1016.439","25.36","62.49","0.0","0.0"],
    [1534246,"2026-08-22 01:40:00","5291","5.9270000000000005","42.87","7.611000000000001","56.95","1016.41","25.33","61.94","0.0","0.0"],
    [1534247,"2026-08-22 01:50:00","5292","5.141","49.04","7.218999999999999","31.42","1016.433","25.32","62.0","0.0","0.0"],
    [1534248,"2026-08-22 02:00:00","5293","5.164","53.85","6.957999999999999","68.79","1016.234","25.32","61.54","0.0","0.0"],
    [1534249,"2026-08-22 02:10:00","5294","4.979","56.44","7.023","59.28","1016.262","25.31","60.69","0.0","0.0"],
    [1534250,"2026-08-22 02:20:00","5295","4.7780000000000005","69.03","6.7620000000000005","67.83","1016.36","25.25","59.15","0.0","0.0"],
    [1534251,"2026-08-22 02:30:00","5296","4.165","68.35","6.0760000000000005","83.2","1016.306","25.28","59.17","0.0","0.0"],
    [1534252,"2026-08-22 02:40:00","5297","4.422","63.49","5.912999999999999","50.59","1016.373","25.31","59.51","0.0","0.0"],
    [1534253,"2026-08-22 02:50:00","5298","3.995","65.41","5.847","67.15","1016.454","25.29","57.96","0.0","0.0"],
    [1534254,"2026-08-22 03:00:00","5299","5.07","76.95","6.893","92.7","1016.473","25.3","57.91","0.0","0.0"],
    [1534255,"2026-08-22 03:10:00","5300","4.637","76.44","6.957999999999999","68.67","1016.51","25.36","56.67","0.0","0.0"],
    [1534256,"2026-08-22 03:20:00","5301","4.992","70.48","7.0889999999999995","79.91","1016.278","25.36","59.08","0.0","0.0"],
    [1534257,"2026-08-22 03:30:00","5302","4.921","61.29","6.86","48.96","1016.391","25.23","58.05","0.0","0.0"],
    [1534258,"2026-08-22 03:40:00","5303","4.371","64.91","5.651","67.75","1016.357","25.19","57.04","0.0","0.0"],
    [1534259,"2026-08-22 03:50:00","5304","4.021","60.84","5.619","81.7","1016.302","25.14","57.44","0.0","0.0"],
    [1534260,"2026-08-22 04:00:00","5305","4.056","54.33","5.553","55.51","1016.352","25.13","58.23","0.0","0.0"],
    [1534261,"2026-08-22 04:10:00","5306","4.223","59.07","6.86","63.07","1016.373","25.14","59.6","0.0","0.0"],
    [1534262,"2026-08-22 04:20:00","5307","4.085","64.55","5.815","50.9","1016.442","25.13","59.85","0.0","0.0"],
    [1534263,"2026-08-22 04:30:00","5308","4.119","64.79","5.684","55.94","1016.461","25.11","60.33","0.0","0.0"],
    [1534264,"2026-08-22 04:40:00","5309","4.485","67.76","6.1739999999999995","64.68","1016.421","25.11","60.4","0.0","0.0"],
    [1534265,"2026-08-22 04:50:00","5310","4.4639999999999995","66.33","7.121","66.77","1016.405","25.05","61.05","0.0","0.0"],
    [1534266,"2026-08-22 05:00:00","5311","5.269","70.46","7.023","61.03","1016.397","24.96","59.58","0.19899999999999998","0.0"],
    [1534267,"2026-08-22 05:10:00","5312","4.934","71.1","6.631","80.6","1016.617","25.01","58.8","1.723","0.0"],
    [1534268,"2026-08-22 05:20:00","5313","4.577","69.69","6.1739999999999995","72.81","1016.803","25.0","59.65","2.133","0.0"],
    [1534269,"2026-08-22 05:30:00","5314","4.297","66.59","6.305","74.95","1016.981","24.94","60.65","1.953","0.0"],
    [1534270,"2026-08-22 05:40:00","5315","4.891","62.49","6.86","63.61","1016.982","24.92","59.88","2.81","0.0"],
    [1534271,"2026-08-22 05:50:00","5316","3.5869999999999997","51.5","6.631","74.93","1017.217","24.92","58.22","4.2219999999999995","0.0"],
    [1534272,"2026-08-22 06:00:00","5317","2.7030000000000003","50.93","6.566","76.38","1017.355","24.82","60.04","6.85","0.0"],
    [1534273,"2026-08-22 06:10:00","5318","3.823","46.09","6.795","36.73","1017.401","24.75","60.33","10.51","0.0"],
    [1534274,"2026-08-22 06:20:00","5319","3.363","43.32","6.0760000000000005","25.29","1017.464","24.73","59.29","17.84","0.0"],
    [1534275,"2026-08-22 06:30:00","5320","3.556","43.35","7.709","53.65","1017.573","24.78","57.83","29.85","0.0"],
    [1534276,"2026-08-22 06:40:00","5321","3.3360000000000003","73.45","6.141","91.0","1017.646","24.86","57.35","39.96","0.0"],
    [1534277,"2026-08-22 06:50:00","5322","3.2889999999999997","50.85","7.4479999999999995","48.05","1017.643","24.98","57.85","55.08","0.0"],
    [1534278,"2026-08-22 07:00:00","5323","3.102","46.05","5.847","37.14","1017.771","24.97","57.25","84.9","0.0"],
    [1534279,"2026-08-22 07:10:00","5324","5.1579999999999995","43.62","8.62","42.29","1017.664","24.92","56.97","94.4","0.0"],
    [1534280,"2026-08-22 07:20:00","5325","5.018","45.2","6.86","41.69","1017.696","24.96","57.89","183.0","0.0"],
    [1534281,"2026-08-22 07:30:00","5326","5.2860000000000005","44.52","7.317","27.99","1017.696","25.01","58.3","175.9","0.0"],
    [1534282,"2026-08-22 07:40:00","5327","4.845","41.33","6.9910000000000005","37.23","1017.801","24.93","59.17","115.8","0.0"],
    [1534283,"2026-08-22 07:50:00","5328","5.041","43.2","7.0889999999999995","42.43","1017.911","24.88","60.62","133.4","0.0"],
    [1534284,"2026-08-22 08:00:00","5329","5.422999999999999","47.62","6.566","32.7","1017.874","24.84","60.08","158.7","0.0"],
    [1534285,"2026-08-22 08:10:00","5330","5.631","47.18","7.481","30.39","1017.822","24.83","58.96","205.0","0.0"],
    [1534286,"2026-08-22 08:20:00","5331","5.178","46.56","7.056","40.0","1017.896","24.86","58.45","155.1","0.0"],
    [1534287,"2026-08-22 08:30:00","5332","4.302","42.87","6.925","57.84","1018.001","24.92","55.82","190.0","0.0"],
    [1534288,"2026-08-22 08:40:00","5333","4.316","43.25","7.579","38.14","1018.077","24.97","55.53","244.4","0.0"],
    [1534289,"2026-08-22 08:50:00","5334","3.842","39.16","6.141","34.71","1018.251","25.12","55.53","365.4","0.0"],
    [1534290,"2026-08-22 09:00:00","5335","3.299","50.25","5.227","21.78","1018.415","25.26","53.97","462.1","0.0"],
    [1534291,"2026-08-22 09:10:00","5336","3.177","59.24","6.1739999999999995","52.76","1018.461","25.49","53.55","672.4","0.0"],
    [1534292,"2026-08-22 09:20:00","5337","4.234","41.33","6.109","38.02","1018.427","25.37","55.76","669.8","0.0"],
    [1534293,"2026-08-22 09:30:00","5338","4.1160000000000005","39.55","6.5329999999999995","45.33","1018.398","25.3","55.37","695.4","0.0"],
    [1534294,"2026-08-22 09:40:00","5339","3.32","45.46","6.664","32.35","1018.524","25.64","52.07","725.8","0.0"],
    [1534295,"2026-08-22 09:50:00","5340","3.062","70.64","6.925","84.0","1018.579","25.57","52.19","745.5","0.0"],
    [1534296,"2026-08-22 10:00:00","5341","3.759","45.53","6.9910000000000005","53.94","1018.415","25.5","53.66","767.1","0.0"],
    [1534297,"2026-08-22 10:10:00","5342","4.263999999999999","41.9","8.07","37.76","1018.325","25.36","54.71","785.1","0.0"],
    [1534298,"2026-08-22 10:20:00","5343","4.211","40.99","7.121","42.79","1018.298","25.42","52.94","802.0","0.0"],
    [1534299,"2026-08-22 10:30:00","5344","5.148","45.7","7.35","37.45","1018.292","25.35","54.51","820.0","0.0"],
    [1534300,"2026-08-22 10:40:00","5345","4.863","43.67","7.285","23.09","1018.35","25.27","53.49","832.0","0.0"],
    [1534301,"2026-08-22 10:50:00","5346","4.107","35.93","6.925","35.96","1018.307","25.46","54.6","845.0","0.0"],
    [1534302,"2026-08-22 11:00:00","5347","3.332","46.29","7.742000000000001","16.3","1018.314","25.46","54.8","862.0","0.0"],
    [1534303,"2026-08-22 11:10:00","5348","3.259","47.43","6.86","34.91","1018.28","25.5","54.88","825.0","0.0"],
    [1534304,"2026-08-22 11:20:00","5349","4.011","37.73","6.957999999999999","20.41","1018.211","25.44","55.9","679.7","0.0"],
    [1534305,"2026-08-22 11:30:00","5350","3.83","39.52","6.011","46.77","1018.068","25.47","56.17","745.0","0.0"],
    [1534306,"2026-08-22 11:40:00","5351","3.7119999999999997","37.31","5.978","43.23","1018.018","25.39","56.25","869.0","0.0"],
    [1534307,"2026-08-22 11:50:00","5352","3.272","41.42","6.925","47.44","1018.027","25.51","55.92","819.0","0.0"],
    [1534308,"2026-08-22 12:00:00","5353","3.734","41.9","6.631","52.34","1017.885","25.41","56.65","576.3","0.0"],
    [1534309,"2026-08-22 12:10:00","5354","2.4930000000000003","55.53","5.815","72.27","1017.956","25.52","56.74","623.0","0.0"],
    [1534310,"2026-08-22 12:20:00","5355","2.8569999999999998","61.0","5.422999999999999","43.34","1017.906","25.56","58.43","642.0","0.0"],
    [1534311,"2026-08-22 12:30:00","5356","2.219","56.12","5.521","30.94","1017.921","25.71","58.48","553.0","0.0"],
    [1534312,"2026-08-22 12:40:00","5357","2.51","86.2","4.835","87.7","1017.974","25.68","59.18","615.5","0.0"],
    [1534313,"2026-08-22 12:50:00","5358","2.4","77.59","4.345","29.16","1017.914","25.81","58.98","737.3","0.0"],
    [1534314,"2026-08-22 13:00:00","5359","2.997","84.2","4.867","105.2","1017.866","25.94","58.59","817.0","0.0"],
    [1534315,"2026-08-22 13:10:00","5360","3.156","101.3","5.2589999999999995","103.0","1017.835","25.93","59.09","734.5","0.0"],
    [1534316,"2026-08-22 13:20:00","5361","4.374","115.4","6.011","111.9","1017.707","25.67","59.18","748.2","0.0"],
    [1534317,"2026-08-22 13:30:00","5362","3.187","101.4","4.998","105.5","1017.59","25.7","58.35","837.0","0.0"],
    [1534318,"2026-08-22 13:40:00","5363","4.133","112.5","5.4879999999999995","118.6","1017.608","25.73","60.05","833.0","0.0"],
    [1534319,"2026-08-22 13:50:00","5364","3.985","108.2","5.815","84.6","1017.582","25.72","60.88","796.2","0.0"],
    [1534320,"2026-08-22 14:00:00","5365","4.418","117.2","5.88","111.5","1017.47","25.64","59.91","780.6","0.0"],
    [1534321,"2026-08-22 14:10:00","5366","3.8160000000000003","122.0","5.292000000000001","130.1","1017.4","25.73","60.31","749.6","0.0"],
    [1534322,"2026-08-22 14:20:00","5367","3.698","125.4","5.1610000000000005","123.5","1017.427","25.66","61.11","755.8","0.0"],
    [1534323,"2026-08-22 14:30:00","5368","3.33","104.3","5.422999999999999","101.7","1017.274","25.67","61.03","741.1","0.0"],
    [1534324,"2026-08-22 14:40:00","5369","3.6460000000000004","110.3","5.096","104.0","1017.13","25.69","62.47","709.3","0.0"],
    [1534325,"2026-08-22 14:50:00","5370","4.315","112.8","5.88","116.3","1017.058","25.63","62.67","671.8","0.0"],
    [1534326,"2026-08-22 15:00:00","5371","4.032","131.6","5.782","118.8","1017.035","25.59","61.69","639.2","0.0"],
    [1534327,"2026-08-22 15:10:00","5372","3.721","108.0","5.357","118.4","1016.917","25.68","61.4","610.1","0.0"],
    [1534328,"2026-08-22 15:20:00","5373","3.575","117.8","5.1610000000000005","109.7","1016.847","25.58","61.84","577.9","0.0"],
    [1534329,"2026-08-22 15:30:00","5374","2.958","126.5","4.867","118.5","1016.781","25.66","62.39","543.5","0.0"],
    [1534330,"2026-08-22 15:40:00","5375","3.8680000000000003","131.2","5.521","117.0","1016.681","25.6","64.16","514.0","0.0"],
    [1534331,"2026-08-22 15:50:00","5376","3.739","131.5","5.096","138.8","1016.675","25.51","64.75","481.8","0.0"],
    [1534332,"2026-08-22 16:00:00","5377","3.435","112.8","4.573","100.5","1016.576","25.52","65.56","451.2","0.0"],
    [1534333,"2026-08-22 16:10:00","5378","3.287","141.9","4.671","160.4","1016.556","25.67","65.15","419.4","0.0"],
    [1534334,"2026-08-22 16:20:00","5379","3.887","128.8","4.638999999999999","144.2","1016.543","25.57","66.32","388.9","0.0"],
    [1534335,"2026-08-22 16:30:00","5380","3.418","132.6","4.377","137.2","1016.555","25.5","65.38","354.8","0.0"],
    [1534336,"2026-08-22 16:40:00","5381","3.398","129.9","4.671","127.3","1016.537","25.53","65.11","321.6","0.0"],
    [1534337,"2026-08-22 16:50:00","5382","2.927","119.9","4.312","119.7","1016.532","25.56","65.23","287.5","0.0"],
    [1534338,"2026-08-22 17:00:00","5383","2.827","116.2","3.855","111.2","1016.595","25.55","65.5","252.4","0.0"],
    [1534339,"2026-08-22 17:10:00","5384","2.565","105.8","3.6910000000000003","108.8","1016.558","25.59","66.27","220.4","0.0"],
    [1534340,"2026-08-22 17:20:00","5385","2.582","124.0","3.659","128.9","1016.533","25.62","65.89","185.4","0.0"],
    [1534341,"2026-08-22 17:30:00","5386","2.074","121.7","3.365","118.9","1016.502","25.61","65.91","155.0","0.0"],
    [1534342,"2026-08-22 17:40:00","5387","2.092","124.7","3.43","144.4","1016.443","25.62","66.55","126.2","0.0"],
    [1534343,"2026-08-22 17:50:00","5388","2.299","98.6","3.7569999999999997","97.4","1016.433","25.66","66.75","99.0","0.0"],
    [1534344,"2026-08-22 18:00:00","5389","1.7719999999999998","105.0","2.907","102.8","1016.42","25.6","66.46","73.87","0.0"],
    [1534345,"2026-08-22 18:10:00","5390","1.8130000000000002","117.5","2.7769999999999997","104.1","1016.437","25.57","66.36","51.27","0.0"],
    [1534346,"2026-08-22 18:20:00","5391","1.5230000000000001","119.4","2.319","135.6","1016.523","25.54","66.68","30.21","0.0"],
    [1534347,"2026-08-22 18:30:00","5392","0.82","77.25","1.568","63.99","1016.621","25.55","67.08","14.32","0.0"],
    [1534348,"2026-08-22 18:40:00","5393","1.4","78.55","2.123","72.78","1016.614","25.61","68.23","4.263999999999999","0.0"],
    [1534349,"2026-08-22 18:50:00","5394","1.755","87.5","2.5810000000000004","97.8","1016.601","25.55","67.87","0.32899999999999996","0.0"],
    [1534350,"2026-08-22 19:00:00","5395","1.412","104.4","2.0909999999999997","88.6","1016.684","25.54","67.5","0.0","0.0"],
    [1534351,"2026-08-22 19:10:00","5396","1.726","113.6","2.417","125.9","1016.782","25.58","67.98","0.0","0.0"],
    [1534352,"2026-08-22 19:20:00","5397","1.725","123.4","2.352","121.3","1016.79","25.55","67.56","0.0","0.0"],
    [1534353,"2026-08-22 19:30:00","5398","1.9140000000000001","126.8","2.8089999999999997","96.2","1016.881","25.57","67.45","0.0","0.0"],
    [1534354,"2026-08-22 19:40:00","5399","2.005","113.4","2.7110000000000003","124.5","1016.905","25.62","68.22","0.0","0.0"],
    [1534355,"2026-08-22 19:50:00","5400","1.195","111.2","2.287","134.2","1017.018","25.55","67.14","0.0","0.0"],
    [1534356,"2026-08-22 20:00:00","5401","1.5430000000000001","100.1","2.6460000000000004","98.7","1017.067","25.61","67.75","0.0","0.0"],
    [1534357,"2026-08-22 20:10:00","5402","1.486","81.0","3.43","79.39","1016.982","25.66","68.08","0.0","0.0"],
    [1534358,"2026-08-22 20:20:00","5403","1.4240000000000002","87.2","2.7110000000000003","96.1","1016.996","25.67","68.25","0.0","0.0"],
    [1534359,"2026-08-22 20:30:00","5404","1.1640000000000001","88.3","1.9269999999999998","69.28","1016.983","25.59","67.78","0.0","0.0"],
    [1534360,"2026-08-22 20:40:00","5405","1.68","99.3","2.6460000000000004","118.8","1017.027","25.67","68.57","0.0","0.0"],
    [1534361,"2026-08-22 20:50:00","5406","1.344","57.86","1.993","66.41","1017.103","25.63","68.42","0.0","0.0"],
    [1534362,"2026-08-22 21:00:00","5407","1.386","97.4","2.025","92.5","1017.186","25.63","68.37","0.0","0.0"],
    [1534363,"2026-08-22 21:10:00","5408","1.03","78.72","1.895","77.32","1017.337","25.66","68.43","0.0","0.0"],
    [1534364,"2026-08-22 21:20:00","5409","0.349","114.7","0.98","141.4","1017.399","25.58","67.84","0.0","0.0"],
    [1534365,"2026-08-22 21:30:00","5410","0.165","106.2","0.9470000000000001","114.0","1017.496","25.58","67.96","0.0","0.0"],
    [1534366,"2026-08-22 21:40:00","5411","0.5920000000000001","111.8","1.633","115.3","1017.508","25.58","67.64","0.0","0.0"],
    [1534367,"2026-08-22 21:50:00","5412","1.177","98.1","1.633","102.0","1017.501","25.7","68.53","0.0","0.0"],
    [1534368,"2026-08-22 22:00:00","5413","1.151","98.4","1.568","85.4","1017.467","25.73","69.12","0.0","0.0"],
    [1534369,"2026-08-22 22:10:00","5414","0.43","111.0","1.045","113.3","1017.596","25.62","68.06","0.0","0.0"],
    [1534370,"2026-08-22 22:20:00","5415","0.507","112.8","1.143","114.1","1017.545","25.62","68.11","0.0","0.0"],
    [1534371,"2026-08-22 22:30:00","5416","0.435","116.7","0.98","112.0","1017.562","25.64","67.81","0.0","0.0"],
    [1534372,"2026-08-22 22:40:00","5417","0.0","0.0","0.0","0.0","1017.595","25.63","68.06","0.0","0.0"],
    [1534373,"2026-08-22 22:50:00","5418","0.35100000000000003","72.58","1.078","104.4","1017.537","25.62","68.69","0.0","0.0"],
    [1534374,"2026-08-22 23:00:00","5419","0.28","104.7","0.9470000000000001","95.6","1017.586","25.61","68.35","0.0","0.0"],
    [1534375,"2026-08-22 23:10:00","5420","0.17300000000000001","354.2","0.6859999999999999","354.8","1017.627","25.61","68.49","0.0","0.0"],
    [1534376,"2026-08-22 23:20:00","5421","0.0","0.0","0.0","0.0","1017.629","25.58","68.12","0.0","0.0"],
    [1534377,"2026-08-22 23:30:00","5422","0.0","0.0","0.0","0.0","1017.664","25.59","68.28","0.0","0.0"],
    [1534378,"2026-08-22 23:40:00","5423","0.0","0.0","0.0","0.0","1017.66","25.59","68.53","0.0","0.0"],
    [1534379,"2026-08-22 23:50:00","5424","0.0","0.0","0.0","0.0","1017.664","25.61","69.15","0.0","0.0"],
    [1534380,"2026-08-23 00:00:00","5425","0.445","15.87","2.0580000000000003","14.21","1017.635","25.6","69.58","0.0","0.0"],
    [1534381,"2026-08-23 00:10:00","5426","1.6980000000000002","354.5","2.483","350.5","1017.519","25.73","70.64","0.0","0.0"],
    [1534382,"2026-08-23 00:20:00","5427","2.372","7.7860000000000005","3.299","18.76","1017.488","25.71","71.21","0.0","0.0"],
    [1534383,"2026-08-23 00:30:00","5428","2.763","17.5","3.593","15.25","1017.41","25.52","70.22","0.0","0.0"],
    [1534384,"2026-08-23 00:40:00","5429","3.031","15.08","3.528","15.98","1017.32","25.51","71.08","0.0","0.0"],
    [1534385,"2026-08-23 00:50:00","5430","2.681","12.91","3.332","13.45","1017.241","25.43","70.55","0.0","0.0"],
    [1534386,"2026-08-23 01:00:00","5431","2.141","354.8","3.071","7.996","1017.169","25.34","70.45","0.0","0.0"],
    [1534387,"2026-08-23 01:10:00","5432","1.867","4.133","2.483","15.88","1017.036","25.3","70.55","0.0","0.0"],
    [1534388,"2026-08-23 01:20:00","5433","2.103","16.3","2.907","15.98","1016.946","25.26","70.36","0.0","0.0"],
    [1534389,"2026-08-23 01:30:00","5434","2.24","19.43","2.7110000000000003","23.4","1016.843","25.16","70.01","0.0","0.0"],
    [1534390,"2026-08-23 01:40:00","5435","1.841","8.04","2.417","22.49","1016.805","25.16","70.26","0.0","0.0"],
    [1534391,"2026-08-23 01:50:00","5436","1.5630000000000002","354.4","1.993","353.0","1016.844","25.17","70.27","0.0","0.0"],
    [1534392,"2026-08-23 02:00:00","5437","1.249","335.0","1.7309999999999999","328.4","1016.853","25.15","70.08","0.0","0.0"],
    [1534393,"2026-08-23 02:10:00","5438","1.235","310.8","1.829","334.0","1016.833","25.08","69.97","0.0","0.0"],
    [1534394,"2026-08-23 02:20:00","5439","1.594","272.5","2.319","315.2","1016.857","24.84","69.69","0.0","0.0"],
    [1534395,"2026-08-23 02:30:00","5440","1.527","258.3","2.156","256.6","1016.861","24.74","70.41","0.0","0.0"],
    [1534396,"2026-08-23 02:40:00","5441","1.6369999999999998","267.1","2.319","263.0","1016.757","24.7","70.37","0.0","0.0"],
    [1534397,"2026-08-23 02:50:00","5442","1.3359999999999999","281.6","2.0580000000000003","279.3","1016.639","24.66","70.45","0.0","0.0"],
    [1534398,"2026-08-23 03:00:00","5443","1.2930000000000001","271.7","1.993","283.7","1016.557","24.7","70.58","0.0","0.0"],
    [1534399,"2026-08-23 03:10:00","5444","1.2409999999999999","273.1","2.45","281.9","1016.538","24.67","70.86","0.0","0.0"],
    [1534400,"2026-08-23 03:20:00","5445","0.9279999999999999","268.9","1.633","275.3","1016.49","24.67","70.93","0.0","0.0"],
    [1534401,"2026-08-23 03:30:00","5446","0.251","270.6","0.7509999999999999","280.6","1016.417","24.74","71.01","0.0","0.0"],
    [1534402,"2026-08-23 03:40:00","5447","0.017","283.5","0.392","282.9","1016.434","24.73","70.86","0.0","0.0"],
    [1534403,"2026-08-23 03:50:00","5448","0.397","295.6","0.9470000000000001","294.6","1016.391","24.68","71.15","0.0","0.0"],
    [1534404,"2026-08-23 04:00:00","5449","0.17","273.5","1.339","265.1","1016.301","24.64","71.38","0.0","0.0"],
    [1534405,"2026-08-23 04:10:00","5450","1.93","266.4","2.45","270.7","1016.336","24.52","71.43","0.0","0.0"],
    [1534406,"2026-08-23 04:20:00","5451","2.029","267.6","2.515","264.1","1016.373","24.25","71.96","0.0","0.0"],
    [1534407,"2026-08-23 04:30:00","5452","1.735","268.4","2.221","264.1","1016.429","24.17","72.4","0.0","0.0"],
    [1534408,"2026-08-23 04:40:00","5453","1.579","266.8","2.0580000000000003","274.8","1016.444","24.16","72.52","0.0","0.0"],
    [1534409,"2026-08-23 04:50:00","5454","0.809","290.2","1.2409999999999999","252.3","1016.39","24.33","72.3","0.0","0.0"],
    [1534410,"2026-08-23 05:00:00","5455","0.889","310.3","1.5030000000000001","330.0","1016.399","24.62","72.64","0.0","0.0"],
    [1534411,"2026-08-23 05:10:00","5456","0.731","282.7","1.339","254.9","1016.526","24.59","72.18","1.013","0.0"],
    [1534412,"2026-08-23 05:20:00","5457","1.258","259.2","1.829","263.0","1016.634","24.55","71.91","6.336","0.0"],
    [1534413,"2026-08-23 05:30:00","5458","1.989","260.7","2.8089999999999997","261.4","1016.702","24.33","71.86","20.1","0.0"],
    [1534414,"2026-08-23 05:40:00","5459","1.91","259.2","2.7110000000000003","258.4","1016.739","24.28","71.89","33.32","0.0"],
    [1534415,"2026-08-23 05:50:00","5460","2.042","261.5","2.613","262.2","1016.782","24.19","71.56","41.7","0.0"],
    [1534416,"2026-08-23 06:00:00","5461","2.037","266.0","2.875","250.4","1016.913","24.3","70.85","80.7","0.0"],
    [1534417,"2026-08-23 06:10:00","5462","2.26","265.6","2.907","266.6","1017.056","24.64","69.23","104.9","0.0"],
    [1534418,"2026-08-23 06:20:00","5463","1.742","259.8","2.548","273.3","1017.133","24.98","68.03","133.0","0.0"],
    [1534419,"2026-08-23 06:30:00","5464","1.444","267.0","1.895","263.9","1017.205","25.54","66.82","165.5","0.0"],
    [1534420,"2026-08-23 06:40:00","5465","1.535","265.6","2.0909999999999997","279.7","1017.265","25.97","65.49","195.9","0.0"],
    [1534421,"2026-08-23 06:50:00","5466","1.4709999999999999","267.0","2.0580000000000003","262.0","1017.256","26.4","64.1","228.1","0.0"],
    [1534422,"2026-08-23 07:00:00","5467","1.1340000000000001","245.5","2.025","268.4","1017.251","26.55","63.59","259.6","0.0"],
    [1534423,"2026-08-23 07:10:00","5468","1.1159999999999999","255.3","1.47","256.0","1017.296","26.38","64.05","293.4","0.0"],
    [1534424,"2026-08-23 07:20:00","5469","0.733","249.9","1.601","252.8","1017.289","26.93","63.3","317.4","0.0"],
    [1534425,"2026-08-23 07:30:00","5470","0.6679999999999999","256.7","1.47","269.2","1017.346","27.25","62.7","358.0","0.0"],
    [1534426,"2026-08-23 07:40:00","5471","0.382","189.3","1.176","181.0","1017.359","27.94","62.49","389.5","0.0"],
    [1534427,"2026-08-23 07:50:00","5472","0.746","141.4","1.2409999999999999","134.7","1017.329","27.3","64.78","421.1","0.0"],
    [1534428,"2026-08-23 08:00:00","5473","1.315","143.4","1.829","138.9","1017.287","26.93","67.31","454.8","0.0"],
    [1534429,"2026-08-23 08:10:00","5474","1.469","154.5","1.96","154.5","1017.33","26.71","68.35","486.4","0.0"],
    [1534430,"2026-08-23 08:20:00","5475","1.864","141.1","2.907","144.9","1017.283","26.67","68.79","517.2","0.0"],
    [1534431,"2026-08-23 08:30:00","5476","2.2230000000000003","124.7","2.7439999999999998","113.3","1017.261","26.41","69.9","549.5","0.0"],
    [1534432,"2026-08-23 08:40:00","5477","2.533","132.0","3.332","137.6","1017.378","26.38","70.59","577.9","0.0"],
    [1534433,"2026-08-23 08:50:00","5478","2.56","131.7","3.495","119.6","1017.391","26.48","70.89","601.8","0.0"],
    [1534434,"2026-08-23 09:00:00","5479","2.481","114.6","3.103","102.8","1017.328","26.39","71.25","624.4","0.0"],
    [1534435,"2026-08-23 09:10:00","5480","2.7230000000000003","114.9","3.495","116.8","1017.251","26.38","71.32","651.6","0.0"],
    [1534436,"2026-08-23 09:20:00","5481","2.793","127.8","4.1160000000000005","149.8","1017.268","26.42","71.77","674.3","0.0"],
    [1534437,"2026-08-23 09:30:00","5482","3.022","133.1","3.7239999999999998","121.9","1017.289","26.58","71.73","696.9","0.0"],
    [1534438,"2026-08-23 09:40:00","5483","3.512","141.7","4.541","132.2","1017.371","26.61","72.1","721.5","0.0"],
    [1534439,"2026-08-23 09:50:00","5484","3.6719999999999997","139.8","4.312","142.2","1017.373","26.61","72.68","745.4","0.0"],
    [1534440,"2026-08-23 10:00:00","5485","3.862","143.2","4.671","140.9","1017.398","26.66","73.29","766.1","0.0"],
    [1534441,"2026-08-23 10:10:00","5486","3.9010000000000002","144.5","4.933","155.8","1017.422","26.79","73.9","783.8","0.0"],
    [1534442,"2026-08-23 10:20:00","5487","4.508","149.1","5.619","154.1","1017.389","26.85","73.96","802.0","0.0"],
    [1534443,"2026-08-23 10:30:00","5488","4.566","152.6","5.684","148.6","1017.341","26.99","73.82","818.0","0.0"],
    [1534444,"2026-08-23 10:40:00","5489","4.753","153.5","5.88","162.8","1017.272","26.95","74.56","833.0","0.0"],
    [1534445,"2026-08-23 10:50:00","5490","5.1160000000000005","157.4","6.109","159.1","1017.195","27.1","74.77","842.0","0.0"],
    [1534446,"2026-08-23 11:00:00","5491","5.144","158.5","6.042999999999999","150.7","1017.157","27.13","74.87","852.0","0.0"],
    [1534447,"2026-08-23 11:10:00","5492","5.61","161.1","6.697","162.0","1017.104","27.23","75.55","859.0","0.0"],
    [1534448,"2026-08-23 11:20:00","5493","5.603","163.9","6.893","161.9","1017.019","27.33","75.28","866.0","0.0"],
    [1534449,"2026-08-23 11:30:00","5494","5.24","168.6","6.207000000000001","172.5","1016.975","27.55","75.19","869.0","0.0"],
    [1534450,"2026-08-23 11:40:00","5495","5.365","170.7","6.435","171.7","1016.946","27.58","74.38","871.0","0.0"],
    [1534451,"2026-08-23 11:50:00","5496","5.365","171.5","6.272","175.0","1016.894","27.7","73.86","872.0","0.0"],
    [1534452,"2026-08-23 12:00:00","5497","5.523","169.9","7.546","168.9","1016.878","27.67","73.69","873.0","0.0"],
    [1534453,"2026-08-23 12:10:00","5498","5.392","173.3","6.566","169.7","1016.803","27.75","73.32","871.0","0.0"],
    [1534454,"2026-08-23 12:20:00","5499","5.181","168.8","6.272","168.3","1016.679","27.8","74.16","870.0","0.0"],
    [1534455,"2026-08-23 12:30:00","5500","5.308","168.4","6.109","160.8","1016.588","27.74","74.52","866.0","0.0"],
    [1534456,"2026-08-23 12:40:00","5501","5.182","165.3","5.978","165.1","1016.54","27.73","74.6","861.0","0.0"],
    [1534457,"2026-08-23 12:50:00","5502","4.8260000000000005","160.9","5.7170000000000005","155.3","1016.467","27.74","74.03","854.0","0.0"],
    [1534458,"2026-08-23 13:00:00","5503","4.498","157.3","5.651","162.4","1016.372","27.72","73.48","848.0","0.0"],
    [1534459,"2026-08-23 13:10:00","5504","4.279","154.9","5.357","154.6","1016.205","27.71","73.54","841.0","0.0"],
    [1534460,"2026-08-23 13:20:00","5505","5.0089999999999995","153.8","5.978","147.0","1016.146","27.74","73.93","830.0","0.0"],
    [1534461,"2026-08-23 13:30:00","5506","5.043","155.0","6.37","163.3","1016.063","27.7","73.59","818.0","0.0"],
    [1534462,"2026-08-23 13:40:00","5507","4.944","159.7","6.305","157.3","1015.972","27.86","72.69","805.0","0.0"],
    [1534463,"2026-08-23 13:50:00","5508","5.675","164.7","6.468","165.7","1015.993","27.96","72.95","787.6","0.0"],
    [1534464,"2026-08-23 14:00:00","5509","5.772","163.4","6.729","169.3","1015.987","27.91","72.9","768.5","0.0"],
    [1534465,"2026-08-23 14:10:00","5510","5.912999999999999","163.7","7.84","166.9","1015.889","27.86","73.32","749.6","0.0"],
    [1534466,"2026-08-23 14:20:00","5511","5.943","167.3","7.0889999999999995","170.4","1015.843","27.9","72.46","728.7","0.0"],
    [1534467,"2026-08-23 14:30:00","5512","6.337999999999999","168.3","7.513","170.3","1015.839","27.97","71.76","706.0","0.0"],
    [1534468,"2026-08-23 14:40:00","5513","6.465","167.8","7.971","163.9","1015.802","28.02","71.88","683.7","0.0"],
    [1534469,"2026-08-23 14:50:00","5514","6.306","171.2","7.775","173.8","1015.87","28.04","71.29","659.0","0.0"],
    [1534470,"2026-08-23 15:00:00","5515","5.784","178.0","7.35","167.0","1015.956","28.21","70.26","629.8","0.0"],
    [1534471,"2026-08-23 15:10:00","5516","5.9110000000000005","182.6","7.513","170.6","1016.015","28.28","68.63","599.0","0.0"],
    [1534472,"2026-08-23 15:20:00","5517","5.421","184.9","6.925","194.3","1016.12","28.45","67.76","570.1","0.0"],
    [1534473,"2026-08-23 15:30:00","5518","5.899","180.2","7.0889999999999995","177.6","1016.091","28.31","68.03","541.3","0.0"],
    [1534474,"2026-08-23 15:40:00","5519","5.001","184.3","6.795","170.7","1015.949","28.37","68.22","483.6","0.0"],
    [1534475,"2026-08-23 15:50:00","5520","4.857","183.6","6.042999999999999","169.0","1015.874","28.45","67.54","478.4","0.0"],
    [1534476,"2026-08-23 16:00:00","5521","4.957","182.2","6.0760000000000005","190.4","1015.808","28.44","67.38","447.9","0.0"],
    [1534477,"2026-08-23 16:10:00","5522","4.708","183.4","5.88","181.8","1015.885","28.32","68.15","412.5","0.0"],
    [1534478,"2026-08-23 16:20:00","5523","4.746","184.3","6.141","176.0","1015.842","28.42","67.58","387.1","0.0"],
    [1534479,"2026-08-23 16:30:00","5524","4.38","184.8","5.749","185.2","1015.701","28.45","67.44","355.8","0.0"],
    [1534480,"2026-08-23 16:40:00","5525","4.215","187.4","5.357","198.6","1015.685","28.46","67.5","323.5","0.0"],
    [1534481,"2026-08-23 16:50:00","5526","4.05","183.8","5.096","164.0","1015.751","28.39","67.54","290.0","0.0"],
    [1534482,"2026-08-23 17:00:00","5527","4.202","181.9","5.39","173.7","1015.734","28.25","68.86","185.5","0.0"],
    [1534483,"2026-08-23 17:10:00","5528","4.1610000000000005","184.8","5.292000000000001","172.1","1015.638","28.12","67.67","101.1","0.0"],
    [1534484,"2026-08-23 17:20:00","5529","4.151","186.8","5.357","189.1","1015.795","28.12","67.84","51.98","0.0"],
    [1534485,"2026-08-23 17:30:00","5530","4.047","180.2","4.998","181.9","1015.572","28.03","68.89","39.81","0.0"],
    [1534486,"2026-08-23 17:40:00","5531","3.946","183.7","5.096","191.6","1015.506","27.97","68.84","35.82","0.0"],
    [1534487,"2026-08-23 17:50:00","5532","3.852","181.4","4.835","184.2","1015.406","27.91","68.57","33.63","0.0"],
    [1534488,"2026-08-23 18:00:00","5533","3.8480000000000003","182.1","4.9","173.0","1015.29","27.91","67.51","25.9","0.0"],
    [1534489,"2026-08-23 18:10:00","5534","3.888","181.9","5.292000000000001","175.0","1015.219","27.83","68.44","17.64","0.0"],
    [1534490,"2026-08-23 18:20:00","5535","3.7560000000000002","184.6","4.638999999999999","198.0","1015.365","27.8","67.99","14.77","0.0"],
    [1534491,"2026-08-23 18:30:00","5536","3.904","180.5","4.835","169.5","1015.302","27.78","68.57","6.006","0.0"],
    [1534492,"2026-08-23 18:40:00","5537","3.6910000000000003","181.6","4.671","185.9","1015.263","27.71","70.2","2.0140000000000002","0.0"],
    [1534493,"2026-08-23 18:50:00","5538","3.7039999999999997","174.3","4.737","176.7","1015.088","27.65","71.09","0.024","0.0"],
    [1534494,"2026-08-23 19:00:00","5539","2.83","179.4","3.822","179.0","1015.279","27.62","70.06","0.0","0.0"],
    [1534495,"2026-08-23 19:10:00","5540","2.6039999999999996","189.1","3.822","186.5","1015.514","27.64","69.89","0.0","0.0"],
    [1534496,"2026-08-23 19:20:00","5541","2.412","188.6","3.201","192.3","1015.798","27.59","69.58","0.0","0.0"],
    [1534497,"2026-08-23 19:30:00","5542","1.188","191.8","1.96","193.8","1016.006","27.72","69.58","0.0","0.0"],
    [1534498,"2026-08-23 19:40:00","5543","1.416","212.0","3.5610000000000004","204.0","1015.995","27.63","68.03","0.0","0.0"],
    [1534499,"2026-08-23 19:50:00","5544","1.591","195.6","2.613","205.0","1015.975","27.63","67.39","0.0","0.0"],
    [1534500,"2026-08-23 20:00:00","5545","2.169","182.9","2.94","191.8","1016.022","27.66","69.01","0.0","0.0"],
    [1534501,"2026-08-23 20:10:00","5546","2.292","184.3","2.907","180.2","1016.227","27.57","68.88","0.0","0.0"],
    [1534502,"2026-08-23 20:20:00","5547","2.877","178.3","3.659","179.8","1016.389","27.57","70.39","0.0","0.0"],
    [1534503,"2026-08-23 20:30:00","5548","2.932","185.4","3.6910000000000003","184.3","1016.507","27.53","70.48","0.0","0.0"],
    [1534504,"2026-08-23 20:40:00","5549","2.8489999999999998","173.1","3.6910000000000003","170.7","1016.338","27.5","72.08","0.0","0.0"],
    [1534505,"2026-08-23 20:50:00","5550","2.5639999999999996","178.5","3.397","175.5","1016.269","27.45","71.94","0.0","0.0"],
    [1534506,"2026-08-23 21:00:00","5551","2.072","184.6","2.94","163.7","1016.248","27.38","71.53","0.0","0.0"],
    [1534507,"2026-08-23 21:10:00","5552","2.224","191.0","2.7769999999999997","194.7","1016.225","27.38","71.21","0.0","0.0"],
    [1534508,"2026-08-23 21:20:00","5553","1.86","187.3","2.287","187.8","1015.98","27.34","71.4","0.0","0.0"],
    [1534509,"2026-08-23 21:30:00","5554","1.7690000000000001","191.9","2.254","193.1","1015.992","27.3","71.36","0.0","0.0"],
    [1534510,"2026-08-23 21:40:00","5555","1.4480000000000002","190.9","1.993","174.9","1015.903","27.27","71.49","0.0","0.0"],
    [1534511,"2026-08-23 21:50:00","5556","1.652","174.5","2.0909999999999997","174.9","1015.737","27.3","72.14","0.0","0.0"],
    [1534512,"2026-08-23 22:00:00","5557","1.892","187.5","2.319","177.1","1015.664","27.25","72.43","0.0","0.0"],
    [1534513,"2026-08-23 22:10:00","5558","1.55","201.4","2.287","191.2","1015.747","27.24","72.78","0.0","0.0"],
    [1534514,"2026-08-23 22:20:00","5559","1.416","196.8","1.895","201.9","1015.798","27.19","72.33","0.0","0.0"],
    [1534515,"2026-08-23 22:30:00","5560","1.631","201.4","2.319","199.5","1015.835","27.18","72.14","0.0","0.0"],
    [1534516,"2026-08-23 22:40:00","5561","1.0659999999999998","194.4","1.7309999999999999","197.4","1015.908","27.15","71.77","0.0","0.0"],
    [1534517,"2026-08-23 22:50:00","5562","0.32299999999999995","254.3","0.784","202.0","1016.023","27.08","71.7","0.0","0.0"],
    [1534518,"2026-08-23 23:00:00","5563","0.188","256.2","0.98","268.2","1016.008","26.96","71.66","0.0","0.0"],
    [1534519,"2026-08-23 23:10:00","5564","0.076","253.7","0.621","259.0","1016.003","26.83","71.67","0.0","0.0"],
    [1534520,"2026-08-23 23:20:00","5565","0.583","265.5","0.9470000000000001","265.8","1015.895","26.85","71.67","0.0","0.0"],
    [1534521,"2026-08-23 23:30:00","5566","0.552","258.7","1.111","248.3","1015.922","26.88","71.53","0.0","0.0"],
    [1534522,"2026-08-23 23:40:00","5567","0.18","266.8","0.8170000000000001","250.3","1015.866","26.89","71.67","0.0","0.0"],
    [1534523,"2026-08-23 23:50:00","5568","0.774","263.9","1.143","257.2","1015.891","26.8","71.81","0.0","0.0"],
    [1534524,"2026-08-24 00:00:00","5569","0.667","265.4","1.013","266.9","1015.867","26.77","71.65","0.0","0.0"],
    [1534525,"2026-08-24 00:10:00","5570","0.511","258.7","0.9470000000000001","259.9","1015.867","26.75","71.6","0.0","0.0"],
    [1534526,"2026-08-24 00:20:00","5571","0.11900000000000001","277.4","0.49","284.3","1015.807","26.75","71.55","0.0","0.0"],
    [1534527,"2026-08-24 00:30:00","5572","0.16","276.1","0.653","280.7","1015.594","26.66","71.93","0.0","0.0"],
    [1534528,"2026-08-24 00:40:00","5573","0.534","318.9","1.339","311.7","1015.484","26.66","72.91","0.0","0.0"],
    [1534529,"2026-08-24 00:50:00","5574","1.162","327.6","1.8619999999999999","329.3","1015.268","26.74","73.55","0.0","0.0"],
    [1534530,"2026-08-24 01:00:00","5575","1.392","346.0","1.895","345.0","1015.132","26.75","73.81","0.0","0.0"],
    [1534531,"2026-08-24 01:10:00","5576","1.475","347.1","1.895","343.7","1015.037","26.79","74.67","0.0","0.0"],
    [1534532,"2026-08-24 01:20:00","5577","0.89","5.893","1.4369999999999998","344.5","1014.956","26.65","73.81","0.0","0.0"],
    [1534533,"2026-08-24 01:30:00","5578","1.125","17.36","1.699","13.02","1015.025","26.67","73.85","0.0","0.0"],
    [1534534,"2026-08-24 01:40:00","5579","1.906","30.11","2.515","30.11","1014.862","26.64","74.28","0.0","0.0"],
    [1534535,"2026-08-24 01:50:00","5580","2.553","23.86","3.005","23.0","1014.722","26.54","75.36","0.0","0.0"],
    [1534536,"2026-08-24 02:00:00","5581","1.889","21.52","2.6460000000000004","18.89","1014.743","26.5","75.98","0.0","0.0"],
    [1534537,"2026-08-24 02:10:00","5582","1.921","18.91","2.613","14.31","1014.724","26.53","75.71","0.0","0.0"],
    [1534538,"2026-08-24 02:20:00","5583","1.994","11.39","2.5810000000000004","10.94","1014.606","26.44","75.89","0.0","0.0"],
    [1534539,"2026-08-24 02:30:00","5584","1.551","7.888","2.0909999999999997","2.396","1014.741","26.38","74.66","0.0","0.0"],
    [1534540,"2026-08-24 02:40:00","5585","1.3130000000000002","5.36","1.666","5.245","1014.683","26.35","74.37","0.0","0.0"],
    [1534541,"2026-08-24 02:50:00","5586","1.247","0.919","1.8619999999999999","34.84","1014.593","26.33","74.43","0.0","0.0"],
    [1534542,"2026-08-24 03:00:00","5587","1.465","349.6","2.025","343.3","1014.508","26.32","74.43","0.0","0.0"],
    [1534543,"2026-08-24 03:10:00","5588","1.278","8.96","2.156","16.04","1014.352","26.3","74.06","0.0","0.0"],
    [1534544,"2026-08-24 03:20:00","5589","1.9680000000000002","13.46","2.6460000000000004","12.48","1014.213","26.36","74.82","0.0","0.0"],
    [1534545,"2026-08-24 03:30:00","5590","2.036","9.86","2.417","13.82","1014.133","26.34","75.36","0.0","0.0"],
    [1534546,"2026-08-24 03:40:00","5591","1.524","0.068","2.189","6.815","1014.114","26.31","75.16","0.0","0.0"],
    [1534547,"2026-08-24 03:50:00","5592","0.885","332.7","1.3719999999999999","337.1","1014.337","26.23","74.97","0.0","0.0"],
    [1534548,"2026-08-24 04:00:00","5593","1.186","351.2","1.601","354.8","1014.271","26.2","74.6","0.0","0.0"],
    [1534549,"2026-08-24 04:10:00","5594","1.232","293.7","1.9269999999999998","262.9","1014.333","26.1","74.48","0.0","0.0"],
    [1534550,"2026-08-24 04:20:00","5595","1.58","257.2","2.287","257.6","1014.358","25.65","74.96","0.0","0.0"],
    [1534551,"2026-08-24 04:30:00","5596","1.483","262.7","2.156","272.0","1014.467","25.52","75.44","0.0","0.0"],
    [1534552,"2026-08-24 04:40:00","5597","1.882","268.1","2.287","269.8","1014.365","25.33","76.04","0.0","0.0"],
    [1534553,"2026-08-24 04:50:00","5598","1.92","267.9","2.287","269.4","1014.184","25.12","76.37","0.0","0.0"],
    [1534554,"2026-08-24 05:00:00","5599","1.7169999999999999","264.7","1.993","261.6","1014.226","25.07","76.96","0.03","0.0"],
    [1534555,"2026-08-24 05:10:00","5600","1.329","277.4","1.666","269.8","1014.199","25.06","76.87","2.1","0.0"],
    [1534556,"2026-08-24 05:20:00","5601","0.306","279.4","0.8170000000000001","299.3","1014.093","25.15","77.02","8.07","0.0"],
    [1534557,"2026-08-24 05:30:00","5602","0.223","312.7","0.784","305.4","1014.237","25.35","76.82","18.28","0.0"],
    [1534558,"2026-08-24 05:40:00","5603","0.424","225.1","0.784","217.3","1014.466","25.69","76.26","31.74","0.0"],
    [1534559,"2026-08-24 05:50:00","5604","0.649","209.8","1.176","200.2","1014.769","25.89","74.94","49.94","0.0"],
    [1534560,"2026-08-24 06:00:00","5605","0.43","251.3","1.013","266.2","1014.878","26.29","73.6","72.49","0.0"],
    [1534561,"2026-08-24 06:10:00","5606","1.167","278.2","2.0580000000000003","268.4","1014.955","26.55","71.84","93.3","0.0"],
    [1534562,"2026-08-24 06:20:00","5607","1.046","286.0","1.307","288.3","1015.009","26.76","70.86","126.0","0.0"],
    [1534563,"2026-08-24 06:30:00","5608","0.825","314.7","1.4369999999999998","324.9","1015.063","27.01","70.48","153.0","0.0"],
    [1534564,"2026-08-24 06:40:00","5609","1.073","355.8","1.535","23.89","1014.92","27.02","71.55","181.4","0.0"],
    [1534565,"2026-08-24 06:50:00","5610","1.849","32.88","2.679","37.55","1014.839","26.9","73.05","211.7","0.0"],
    [1534566,"2026-08-24 07:00:00","5611","2.322","35.22","3.103","26.56","1014.649","26.87","73.74","244.3","0.0"],
    [1534567,"2026-08-24 07:10:00","5612","3.097","29.23","3.887","30.38","1014.405","26.81","74.26","274.1","0.0"],
    [1534568,"2026-08-24 07:20:00","5613","3.4010000000000002","27.44","4.051","30.89","1014.222","26.73","74.04","309.6","0.0"],
    [1534569,"2026-08-24 07:30:00","5614","3.452","26.38","4.149","26.6","1014.164","26.81","74.26","335.1","0.0"],
    [1534570,"2026-08-24 07:40:00","5615","3.483","21.48","4.4430000000000005","20.86","1014.024","26.86","75.14","348.8","0.0"],
    [1534571,"2026-08-24 07:50:00","5616","2.635","27.8","4.247","10.17","1014.212","26.85","74.16","388.0","0.0"],
    [1534572,"2026-08-24 08:00:00","5617","1.558","47.62","2.319","78.32","1014.438","27.23","73.01","428.6","0.0"],
    [1534573,"2026-08-24 08:10:00","5618","1.5390000000000001","45.41","2.319","52.56","1014.635","27.3","72.45","474.1","0.0"],
    [1534574,"2026-08-24 08:20:00","5619","1.52","61.01","2.221","83.8","1014.877","27.37","72.43","508.3","0.0"],
    [1534575,"2026-08-24 08:30:00","5620","1.636","76.12","2.319","58.17","1014.9","27.44","71.7","496.5","0.0"],
    [1534576,"2026-08-24 08:40:00","5621","1.9380000000000002","86.6","2.7110000000000003","77.67","1015.054","27.23","72.32","436.4","0.0"],
    [1534577,"2026-08-24 08:50:00","5622","2.3209999999999997","113.7","3.0380000000000003","114.5","1015.21","27.19","72.93","489.5","0.0"],
    [1534578,"2026-08-24 09:00:00","5623","2.714","105.7","3.528","108.0","1015.028","27.15","73.22","517.4","0.0"],
    [1534579,"2026-08-24 09:10:00","5624","3.301","96.6","4.312","85.2","1014.566","27.19","74.0","504.3","0.0"],
    [1534580,"2026-08-24 09:20:00","5625","3.267","89.1","4.312","91.6","1014.409","27.17","74.04","510.9","0.0"],
    [1534581,"2026-08-24 09:30:00","5626","3.1439999999999997","101.3","3.985","96.1","1014.653","27.15","74.35","561.9","0.0"],
    [1534582,"2026-08-24 09:40:00","5627","2.971","93.1","4.247","92.8","1014.508","27.13","75.29","431.5","0.0"],
    [1534583,"2026-08-24 09:50:00","5628","3.09","100.7","3.985","96.6","1014.458","27.15","75.7","537.4","0.0"],
    [1534584,"2026-08-24 10:00:00","5629","3.0260000000000002","93.5","3.7239999999999998","94.1","1014.165","27.25","75.92","554.1","0.0"],
    [1534585,"2026-08-24 10:10:00","5630","2.964","80.5","3.9530000000000003","85.9","1013.822","27.27","75.67","534.9","0.0"],
    [1534586,"2026-08-24 10:20:00","5631","2.6830000000000003","73.6","3.365","70.84","1013.758","27.41","74.35","757.5","0.0"],
    [1534587,"2026-08-24 10:30:00","5632","2.428","75.23","3.136","67.86","1013.716","27.55","71.92","776.0","0.0"],
    [1534588,"2026-08-24 10:40:00","5633","2.406","84.9","3.43","93.9","1013.596","27.65","71.95","559.0","0.0"],
    [1534589,"2026-08-24 10:50:00","5634","2.8139999999999996","80.0","3.659","89.3","1013.405","27.48","72.55","484.3","0.0"],
    [1534590,"2026-08-24 11:00:00","5635","3.0239999999999996","87.1","4.083","97.2","1013.456","27.54","73.13","770.6","0.0"],
    [1534591,"2026-08-24 11:10:00","5636","3.0010000000000003","93.0","4.2139999999999995","94.3","1013.464","27.6","73.38","759.5","0.0"],
    [1534592,"2026-08-24 11:20:00","5637","3.154","97.7","4.181","98.0","1013.532","27.62","73.83","802.0","0.0"],
    [1534593,"2026-08-24 11:30:00","5638","3.2689999999999997","110.9","4.181","103.1","1013.685","27.62","73.75","653.7","0.0"],
    [1534594,"2026-08-24 11:40:00","5639","3.27","109.0","4.279","115.6","1013.803","27.61","74.71","677.1","0.0"],
    [1534595,"2026-08-24 11:50:00","5640","3.2230000000000003","119.2","4.41","114.6","1013.688","27.65","76.7","684.1","0.0"],
    [1534596,"2026-08-24 12:00:00","5641","3.022","123.8","4.181","128.6","1013.562","27.52","78.87","700.6","0.0"],
    [1534597,"2026-08-24 12:10:00","5642","2.844","119.5","3.6910000000000003","106.5","1013.332","27.64","78.15","850.0","0.0"],
    [1534598,"2026-08-24 12:20:00","5643","2.9560000000000004","132.4","4.149","129.2","1013.254","27.76","77.86","849.0","0.0"],
    [1534599,"2026-08-24 12:30:00","5644","3.988","141.4","5.2589999999999995","138.4","1013.018","27.91","74.71","839.0","0.0"],
    [1534600,"2026-08-24 12:40:00","5645","3.78","139.1","4.638999999999999","144.3","1012.792","27.94","73.76","730.6","0.0"],
    [1534601,"2026-08-24 12:50:00","5646","4.088","139.2","5.292000000000001","142.2","1012.623","27.95","73.18","925.0","0.0"],
    [1534602,"2026-08-24 13:00:00","5647","4.393","145.7","5.129","157.1","1012.556","28.03","73.01","702.2","0.0"],
    [1534603,"2026-08-24 13:10:00","5648","3.906","148.4","4.867","148.7","1012.354","28.13","73.97","707.9","0.0"],
    [1534604,"2026-08-24 13:20:00","5649","4.538","152.1","5.39","150.0","1012.17","28.1","74.34","392.2","0.0"],
    [1534605,"2026-08-24 13:30:00","5650","4.755","157.6","6.0760000000000005","166.5","1012.177","28.03","75.98","302.8","0.0"],
    [1534606,"2026-08-24 13:40:00","5651","3.5980000000000003","157.7","4.737","149.9","1012.162","28.03","76.64","352.4","0.0"],
    [1534607,"2026-08-24 13:50:00","5652","3.839","164.7","4.508","165.9","1012.331","28.14","76.0","293.9","0.0"],
    [1534608,"2026-08-24 14:00:00","5653","3.7060000000000004","167.9","4.4430000000000005","170.7","1012.166","28.3","74.72","375.8","0.0"],
    [1534609,"2026-08-24 14:10:00","5654","4.207","168.3","5.129","170.5","1011.854","28.21","75.29","473.2","0.0"],
    [1534610,"2026-08-24 14:20:00","5655","4.0280000000000005","162.2","5.194","173.6","1011.336","28.27","74.5","484.8","0.0"],
    [1534611,"2026-08-24 14:30:00","5656","3.7960000000000003","151.9","4.769","150.2","1010.914","28.1","74.32","676.5","0.0"],
    [1534612,"2026-08-24 14:40:00","5657","2.512","157.7","3.855","151.6","1010.835","28.33","73.36","579.1","0.0"],
    [1534613,"2026-08-24 14:50:00","5658","2.55","157.9","3.495","157.3","1010.744","28.38","72.7","459.2","0.0"],
    [1534614,"2026-08-24 15:00:00","5659","2.872","155.7","4.181","168.9","1010.503","28.3","72.34","612.2","0.0"],
    [1534615,"2026-08-24 15:10:00","5660","3.362","161.5","4.1160000000000005","166.9","1010.443","28.29","73.21","469.6","0.0"],
    [1534616,"2026-08-24 15:20:00","5661","4.691","168.0","6.109","162.3","1010.386","28.25","74.82","139.5","0.0"],
    [1534617,"2026-08-24 15:30:00","5662","4.797","175.6","5.782","173.5","1010.229","28.03","75.46","126.0","0.0"],
    [1534618,"2026-08-24 15:40:00","5663","5.311","173.1","6.5329999999999995","167.8","1009.96","28.01","75.26","80.7","0.0"],
    [1534619,"2026-08-24 15:50:00","5664","5.992999999999999","179.6","7.252000000000001","182.3","1009.729","27.88","74.01","37.68","0.0"],
    [1534620,"2026-08-24 16:00:00","5665","6.0089999999999995","177.2","7.775","175.5","1009.531","27.95","75.25","27.77","0.0"],
    [1534621,"2026-08-24 16:10:00","5666","5.729","183.6","7.415","192.5","1009.599","27.84","75.84","23.39","0.0"],
    [1534622,"2026-08-24 16:20:00","5667","5.691","186.7","7.382999999999999","189.2","1009.698","27.89","76.57","18.27","0.0"],
    [1534623,"2026-08-24 16:30:00","5668","6.505","182.0","8.07","196.0","1009.452","27.76","76.68","12.67","0.0"],
    [1534624,"2026-08-24 16:40:00","5669","6.103","191.8","8.56","190.2","1009.768","27.84","77.02","7.403","0.0"],
    [1534625,"2026-08-24 16:50:00","5670","5.569","202.5","9.05","206.4","1010.414","27.92","75.35","3.326","0.0"],
    [1534626,"2026-08-24 17:00:00","5671","6.744","203.0","10.39","192.6","1010.509","28.02","77.34","0.07400000000000001","0.0"],
    [1534627,"2026-08-24 17:10:00","5672","4.994","217.4","9.47","204.6","1010.935","27.75","81.2","1.7109999999999999","0.3"],
    [1534628,"2026-08-24 17:20:00","5673","7.542999999999999","208.5","11.69","200.8","1009.365","26.78","82.5","15.91","0.1"],
    [1534629,"2026-08-24 17:30:00","5674","8.64","204.3","12.77","212.6","1009.686","26.08","74.29","14.22","0.0"],
    [1534630,"2026-08-24 17:40:00","5675","8.4","194.2","13.26","169.4","1009.495","25.76","68.35","14.23","0.0"],
    [1534631,"2026-08-24 17:50:00","5676","9.99","183.4","14.83","180.8","1009.272","25.59","67.62","13.06","0.0"],
    [1534632,"2026-08-24 18:00:00","5677","5.547999999999999","206.7","11.3","194.2","1009.894","25.41","67.69","10.81","0.0"],
    [1534633,"2026-08-24 18:10:00","5678","3.142","269.3","6.207000000000001","218.1","1010.346","25.83","62.89","25.14","0.0"],
    [1534634,"2026-08-24 18:20:00","5679","4.081","271.7","5.7170000000000005","262.8","1010.411","25.53","63.52","15.23","0.0"],
    [1534635,"2026-08-24 18:30:00","5680","3.737","266.9","6.697","265.6","1010.396","25.11","66.45","12.75","0.0"],
    [1534636,"2026-08-24 18:40:00","5681","3.5439999999999996","281.6","5.194","275.7","1010.34","24.91","67.01","7.7010000000000005","0.0"],
    [1534637,"2026-08-24 18:50:00","5682","3.245","277.2","5.945","285.3","1010.173","24.95","66.95","0.523","0.0"],
    [1534638,"2026-08-24 19:00:00","5683","2.8360000000000003","253.5","5.4879999999999995","285.0","1010.091","25.03","67.15","0.0","0.0"],
    [1534639,"2026-08-24 19:10:00","5684","4.269","278.8","7.252000000000001","279.1","1010.203","25.04","68.41","0.0","0.0"],
    [1534640,"2026-08-24 19:20:00","5685","3.605","261.4","6.1739999999999995","266.8","1010.185","24.99","66.18","0.0","0.0"],
    [1534641,"2026-08-24 19:30:00","5686","3.6630000000000003","252.9","6.0760000000000005","250.0","1010.347","25.34","61.83","0.0","0.0"],
    [1534642,"2026-08-24 19:40:00","5687","3.088","248.2","5.586","252.8","1010.569","25.51","60.38","0.0","0.0"],
    [1534643,"2026-08-24 19:50:00","5688","3.217","286.3","5.227","304.8","1010.618","25.36","59.09","0.0","0.0"],
    [1534644,"2026-08-24 20:00:00","5689","2.946","290.5","5.194","300.5","1010.858","25.55","54.3","0.0","0.0"],
    [1534645,"2026-08-24 20:10:00","5690","2.331","282.5","3.136","302.8","1011.057","25.72","52.39","0.0","0.0"],
    [1534646,"2026-08-24 20:20:00","5691","1.14","278.2","2.123","273.1","1011.102","25.69","52.72","0.0","0.0"],
    [1534647,"2026-08-24 20:30:00","5692","1.1079999999999999","230.5","2.613","222.3","1011.173","25.58","53.8","0.0","0.0"],
    [1534648,"2026-08-24 20:40:00","5693","1.5090000000000001","243.0","2.483","256.6","1011.258","25.73","52.01","0.0","0.0"],
    [1534649,"2026-08-24 20:50:00","5694","1.218","249.2","2.221","273.4","1011.167","25.61","53.11","0.0","0.0"],
    [1534650,"2026-08-24 21:00:00","5695","1.301","253.3","2.0580000000000003","272.8","1011.103","25.56","52.45","0.0","0.0"],
    [1534651,"2026-08-24 21:10:00","5696","1.175","252.9","1.993","251.0","1011.022","25.46","52.36","0.0","0.0"],
    [1534652,"2026-08-24 21:20:00","5697","0.71","205.4","1.601","183.9","1010.993","25.55","53.11","0.0","0.0"],
    [1534653,"2026-08-24 21:30:00","5698","1.364","182.2","1.829","199.3","1010.93","25.85","55.93","0.0","0.0"],
    [1534654,"2026-08-24 21:40:00","5699","0.33399999999999996","191.8","1.666","214.0","1010.928","25.85","58.35","0.0","0.0"],
    [1534655,"2026-08-24 21:50:00","5700","0.0","0.0","0.0","0.0","1011.034","25.79","55.55","0.0","0.0"],
    [1534656,"2026-08-24 22:00:00","5701","0.435","85.9","1.143","88.0","1011.065","25.88","57.12","0.0","0.0"],
    [1534657,"2026-08-24 22:10:00","5702","0.026000000000000002","15.65","0.98","15.19","1011.098","25.91","57.18","0.0","0.0"],
    [1534658,"2026-08-24 22:20:00","5703","1.473","13.76","1.993","28.69","1011.164","26.13","58.06","0.0","0.0"],
    [1534659,"2026-08-24 22:30:00","5704","0.214","33.86","0.8490000000000001","44.05","1011.218","26.15","56.96","0.0","0.0"],
    [1534660,"2026-08-24 22:40:00","5705","0.0","0.0","0.0","0.0","1011.159","26.18","56.72","0.0","0.0"],
    [1534661,"2026-08-24 22:50:00","5706","2.323","27.02","3.365","25.76","1011.256","26.36","60.78","0.0","0.0"],
    [1534662,"2026-08-24 23:00:00","5707","2.7889999999999997","32.05","3.528","36.23","1011.299","26.15","59.75","0.0","0.0"],
    [1534663,"2026-08-24 23:10:00","5708","1.261","42.12","1.993","36.74","1011.336","26.11","58.53","0.0","0.0"],
    [1534664,"2026-08-24 23:20:00","5709","1.114","41.2","1.7309999999999999","38.63","1011.433","26.15","59.1","0.0","0.0"],
    [1534665,"2026-08-24 23:30:00","5710","1.776","27.4","2.254","33.85","1011.47","26.21","59.3","0.0","0.0"],
    [1534666,"2026-08-24 23:40:00","5711","1.5530000000000002","29.91","2.548","22.97","1011.46","26.22","59.49","0.0","0.0"],
    [1534667,"2026-08-24 23:50:00","5712","1.641","24.91","2.0909999999999997","24.14","1011.433","26.27","60.79","0.0","0.0"],
    [1534668,"2026-08-25 00:00:00","5713","1.31","23.49","1.797","19.25","1011.311","26.25","59.8","0.0","0.0"],
    [1534669,"2026-08-25 00:10:00","5714","1.4669999999999999","11.55","2.515","8.58","1011.249","26.27","61.14","0.0","0.0"],
    [1534670,"2026-08-25 00:20:00","5715","2.384","11.01","3.0380000000000003","15.95","1011.212","26.27","62.0","0.0","0.0"],
    [1534671,"2026-08-25 00:30:00","5716","1.936","13.89","2.45","11.51","1011.171","26.3","62.28","0.0","0.0"],
    [1534672,"2026-08-25 00:40:00","5717","1.314","0.7070000000000001","2.319","11.4","1011.159","26.3","62.52","0.0","0.0"],
    [1534673,"2026-08-25 00:50:00","5718","0.5489999999999999","275.4","1.895","262.7","1011.16","25.98","60.75","0.0","0.0"],
    [1534674,"2026-08-25 01:00:00","5719","1.557","266.3","1.96","265.2","1011.167","25.33","61.04","0.0","0.0"],
    [1534675,"2026-08-25 01:10:00","5720","0.863","274.6","1.829","257.5","1011.055","25.08","61.59","0.0","0.0"],
    [1534676,"2026-08-25 01:20:00","5721","0.006999999999999999","270.4","0.327","263.1","1011.028","25.11","61.91","0.0","0.0"],
    [1534677,"2026-08-25 01:30:00","5722","0.0","0.0","0.0","0.0","1011.041","25.09","63.9","0.0","0.0"],
    [1534678,"2026-08-25 01:40:00","5723","1.291","264.2","1.829","271.9","1010.976","24.99","64.46","0.0","0.0"],
    [1534679,"2026-08-25 01:50:00","5724","2.238","268.0","2.907","273.0","1010.941","24.85","64.29","0.0","0.0"],
    [1534680,"2026-08-25 02:00:00","5725","2.533","263.6","3.0380000000000003","265.9","1010.943","24.62","63.88","0.0","0.0"],
    [1534681,"2026-08-25 02:10:00","5726","2.356","266.5","2.875","259.2","1010.922","24.43","63.89","0.0","0.0"],
    [1534682,"2026-08-25 02:20:00","5727","1.915","267.6","2.613","263.9","1010.912","24.29","64.35","0.0","0.0"],
    [1534683,"2026-08-25 02:30:00","5728","1.6840000000000002","276.4","2.189","276.9","1010.839","24.28","64.53","0.0","0.0"],
    [1534684,"2026-08-25 02:40:00","5729","1.475","269.9","1.993","271.2","1010.767","24.2","63.71","0.0","0.0"],
    [1534685,"2026-08-25 02:50:00","5730","1.8419999999999999","267.8","2.123","276.1","1010.783","24.2","64.24","0.0","0.0"],
    [1534686,"2026-08-25 03:00:00","5731","1.706","259.3","2.483","260.7","1010.803","24.48","64.59","0.0","0.0"],
    [1534687,"2026-08-25 03:10:00","5732","1.456","257.9","2.123","260.0","1010.906","24.48","64.49","0.0","0.0"],
    [1534688,"2026-08-25 03:20:00","5733","1.413","254.7","2.515","262.3","1010.917","24.44","62.7","0.0","0.0"],
    [1534689,"2026-08-25 03:30:00","5734","1.911","261.2","2.679","265.8","1010.991","24.34","62.02","0.0","0.0"],
    [1534690,"2026-08-25 03:40:00","5735","1.8330000000000002","268.1","2.385","266.0","1011.018","24.36","62.3","0.0","0.0"],
    [1534691,"2026-08-25 03:50:00","5736","2.059","263.5","2.5810000000000004","266.1","1010.984","24.32","61.63","0.0","0.0"],
    [1534692,"2026-08-25 04:00:00","5737","2.234","269.6","2.7769999999999997","278.6","1010.999","24.18","62.27","0.0","0.0"],
    [1534693,"2026-08-25 04:10:00","5738","1.653","270.6","2.515","265.1","1011.072","24.17","62.61","0.0","0.0"],
    [1534694,"2026-08-25 04:20:00","5739","1.5419999999999998","264.6","2.189","279.7","1011.085","24.42","62.95","0.0","0.0"],
    [1534695,"2026-08-25 04:30:00","5740","1.9480000000000002","280.4","2.548","286.1","1011.175","24.49","62.01","0.0","0.0"],
    [1534696,"2026-08-25 04:40:00","5741","1.65","248.7","2.483","258.5","1011.256","24.52","61.76","0.0","0.0"],
    [1534697,"2026-08-25 04:50:00","5742","1.273","248.5","2.385","260.3","1011.283","24.46","62.43","0.0","0.0"],
    [1534698,"2026-08-25 05:00:00","5743","1.6640000000000001","259.0","2.6460000000000004","250.3","1011.277","24.32","62.8","0.11","0.0"],
    [1534699,"2026-08-25 05:10:00","5744","1.4240000000000002","253.8","2.0580000000000003","265.2","1011.344","24.15","64.06","0.855","0.0"],
    [1534700,"2026-08-25 05:20:00","5745","1.0070000000000001","241.8","2.123","254.8","1011.405","24.18","64.59","1.7269999999999999","0.0"],
    [1534701,"2026-08-25 05:30:00","5746","1.287","248.3","2.548","270.7","1011.445","24.07","64.74","7.455","0.0"],
    [1534702,"2026-08-25 05:40:00","5747","1.3730000000000002","228.0","2.254","220.3","1011.614","24.16","64.93","15.15","0.0"],
    [1534703,"2026-08-25 05:50:00","5748","1.514","248.5","2.385","256.0","1011.691","24.25","64.39","24.51","0.0"],
    [1534704,"2026-08-25 06:00:00","5749","1.962","271.8","2.94","279.4","1011.663","24.1","65.05","34.6","0.0"],
    [1534705,"2026-08-25 06:10:00","5750","2.451","286.5","3.6910000000000003","285.6","1011.703","24.2","64.67","44.97","0.0"],
    [1534706,"2026-08-25 06:20:00","5751","2.339","274.9","3.7889999999999997","276.5","1011.798","24.38","63.54","52.17","0.0"],
    [1534707,"2026-08-25 06:30:00","5752","1.966","261.5","3.005","253.3","1011.877","24.47","62.81","81.5","0.0"],
    [1534708,"2026-08-25 06:40:00","5753","1.857","267.5","2.9730000000000003","256.4","1011.9","25.06","61.49","170.5","0.0"],
    [1534709,"2026-08-25 06:50:00","5754","1.755","279.0","2.548","279.4","1011.973","25.87","58.93","235.3","0.0"],
    [1534710,"2026-08-25 07:00:00","5755","2.362","282.9","4.2139999999999995","292.8","1012.018","26.5","56.07","283.1","0.0"],
    [1534711,"2026-08-25 07:10:00","5756","2.5180000000000002","291.5","4.051","282.2","1012.131","26.77","54.6","266.4","0.0"],
    [1534712,"2026-08-25 07:20:00","5757","2.5269999999999997","298.0","3.92","309.6","1012.205","26.72","53.89","308.7","0.0"],
    [1534713,"2026-08-25 07:30:00","5758","2.5580000000000003","293.2","4.2139999999999995","287.1","1012.243","27.09","51.58","312.1","0.0"],
    [1534714,"2026-08-25 07:40:00","5759","2.1959999999999997","288.9","3.1689999999999996","277.2","1012.351","27.63","50.1","373.3","0.0"],
    [1534715,"2026-08-25 07:50:00","5760","2.435","289.4","4.345","294.1","1012.358","28.05","48.04","437.2","0.0"],
    [1534716,"2026-08-25 08:00:00","5761","3.0989999999999998","290.6","5.096","282.4","1012.299","28.38","46.15","483.0","0.0"],
    [1534717,"2026-08-25 08:10:00","5762","3.2460000000000004","289.6","5.4879999999999995","286.2","1012.362","28.61","45.56","490.7","0.0"],
    [1534718,"2026-08-25 08:20:00","5763","3.095","281.5","4.9","275.3","1012.423","28.68","44.37","533.5","0.0"],
    [1534719,"2026-08-25 08:30:00","5764","3.23","277.7","5.4879999999999995","282.0","1012.452","29.15","43.34","561.8","0.0"],
    [1534720,"2026-08-25 08:40:00","5765","2.819","289.6","4.508","308.0","1012.485","29.31","42.72","592.1","0.0"],
    [1534721,"2026-08-25 08:50:00","5766","3.022","285.8","5.815","282.6","1012.547","29.73","41.66","606.4","0.0"],
    [1534722,"2026-08-25 09:00:00","5767","3.08","269.3","6.501","261.7","1012.577","30.12","39.67","643.9","0.0"],
    [1534723,"2026-08-25 09:10:00","5768","2.543","288.4","4.998","286.0","1012.604","30.32","39.49","663.8","0.0"],
    [1534724,"2026-08-25 09:20:00","5769","2.7939999999999996","274.3","5.586","276.9","1012.627","30.58","38.48","685.5","0.0"],
    [1534725,"2026-08-25 09:30:00","5770","3.3760000000000003","292.5","6.5329999999999995","270.8","1012.645","30.89","37.51","716.4","0.0"],
    [1534726,"2026-08-25 09:40:00","5771","4.427","303.6","7.187","318.8","1012.598","30.78","37.64","731.5","0.0"],
    [1534727,"2026-08-25 09:50:00","5772","3.0060000000000002","298.9","5.455","297.7","1012.64","30.84","36.9","761.4","0.0"],
    [1534728,"2026-08-25 10:00:00","5773","2.7439999999999998","275.4","6.109","257.9","1012.682","31.79","34.08","777.8","0.0"],
    [1534729,"2026-08-25 10:10:00","5774","3.8539999999999996","278.9","6.599","289.0","1012.693","32.23","32.63","793.5","0.0"],
    [1534730,"2026-08-25 10:20:00","5775","1.7","294.4","3.7569999999999997","279.1","1012.574","32.14","33.32","821.0","0.0"],
    [1534731,"2026-08-25 10:30:00","5776","5.022","174.8","6.827000000000001","184.1","1012.457","29.68","53.17","849.0","0.0"],
    [1534732,"2026-08-25 10:40:00","5777","6.042000000000001","185.8","7.807","189.7","1012.412","29.41","51.81","848.0","0.0"],
    [1534733,"2026-08-25 10:50:00","5778","5.733","182.7","7.154","188.9","1012.396","29.54","50.46","850.0","0.0"],
    [1534734,"2026-08-25 11:00:00","5779","6.2010000000000005","182.5","7.84","173.1","1012.354","29.78","49.48","864.0","0.0"],
    [1534735,"2026-08-25 11:10:00","5780","7.1739999999999995","185.6","9.15","191.1","1012.292","29.72","50.04","875.0","0.0"],
    [1534736,"2026-08-25 11:20:00","5781","6.144","189.3","8.46","190.8","1012.251","30.24","46.52","881.0","0.0"],
    [1534737,"2026-08-25 11:30:00","5782","6.2410000000000005","190.2","8.79","192.9","1012.253","30.56","44.45","888.0","0.0"],
    [1534738,"2026-08-25 11:40:00","5783","7.27","187.6","9.67","195.8","1012.238","30.38","46.62","896.0","0.0"],
    [1534739,"2026-08-25 11:50:00","5784","7.324","191.4","9.47","185.3","1012.248","30.26","48.09","895.0","0.0"],
    [1534740,"2026-08-25 12:00:00","5785","7.317","188.4","9.93","191.0","1012.206","30.13","48.32","892.0","0.0"],
    [1534741,"2026-08-25 12:10:00","5786","5.957000000000001","192.5","8.36","190.0","1012.146","30.74","43.76","894.0","0.0"],
    [1534742,"2026-08-25 12:20:00","5787","5.461","198.7","8.79","191.5","1012.123","31.1","44.76","889.0","0.0"],
    [1534743,"2026-08-25 12:30:00","5788","7.692","197.5","12.28","206.2","1012.053","31.1","45.5","886.0","0.0"],
    [1534744,"2026-08-25 12:40:00","5789","6.475","204.1","9.38","186.0","1012.042","30.93","45.76","882.0","0.0"],
    [1534745,"2026-08-25 12:50:00","5790","6.035","203.7","9.47","197.7","1011.961","31.44","43.32","876.0","0.0"],
    [1534746,"2026-08-25 13:00:00","5791","6.5360000000000005","201.3","10.32","187.9","1011.803","31.53","43.67","871.0","0.0"],
    [1534747,"2026-08-25 13:10:00","5792","5.582999999999999","205.2","8.75","219.4","1011.69","31.8","42.05","862.0","0.0"],
    [1534748,"2026-08-25 13:20:00","5793","7.575","197.7","11.34","201.3","1011.564","31.51","44.17","853.0","0.0"],
    [1534749,"2026-08-25 13:30:00","5794","7.6739999999999995","197.3","10.71","213.2","1011.61","30.83","47.78","842.0","0.0"],
    [1534750,"2026-08-25 13:40:00","5795","8.05","205.4","12.22","203.9","1011.631","30.94","44.4","825.0","0.0"],
    [1534751,"2026-08-25 13:50:00","5796","7.912000000000001","203.3","12.15","208.2","1011.591","30.71","46.58","807.0","0.0"],
    [1534752,"2026-08-25 14:00:00","5797","7.716","203.1","11.4","215.6","1011.623","30.81","46.91","786.6","0.0"],
    [1534753,"2026-08-25 14:10:00","5798","7.629","200.1","11.79","203.1","1011.506","30.93","45.79","767.2","0.0"],
    [1534754,"2026-08-25 14:20:00","5799","7.4239999999999995","200.5","10.55","202.1","1011.435","30.93","46.59","743.2","0.0"],
    [1534755,"2026-08-25 14:30:00","5800","8.37","198.9","11.37","191.7","1011.394","30.6","48.81","719.7","0.0"],
    [1534756,"2026-08-25 14:40:00","5801","8.0","200.8","12.25","202.0","1011.397","30.48","48.8","693.0","0.0"],
    [1534757,"2026-08-25 14:50:00","5802","6.683","203.2","10.49","223.1","1011.364","30.72","48.62","667.0","0.0"],
    [1534758,"2026-08-25 15:00:00","5803","7.507000000000001","194.1","10.88","186.9","1011.349","30.59","50.96","639.3","0.0"],
    [1534759,"2026-08-25 15:10:00","5804","7.987","190.4","10.32","188.0","1011.247","29.78","54.68","610.3","0.0"],
    [1534760,"2026-08-25 15:20:00","5805","7.997999999999999","189.7","10.39","180.9","1011.216","29.89","52.45","580.9","0.0"],
    [1534761,"2026-08-25 15:30:00","5806","8.06","189.7","10.49","200.3","1011.235","29.47","57.37","549.4","0.0"],
    [1534762,"2026-08-25 15:40:00","5807","7.79","189.7","10.55","186.3","1011.239","29.36","58.35","517.0","0.0"],
    [1534763,"2026-08-25 15:50:00","5808","7.736000000000001","190.7","10.26","197.0","1011.246","29.29","58.81","485.6","0.0"],
    [1534764,"2026-08-25 16:00:00","5809","7.579","195.3","10.55","191.4","1011.274","29.54","56.82","454.7","0.0"],
    [1534765,"2026-08-25 16:10:00","5810","6.553999999999999","204.1","9.6","213.5","1011.31","30.01","52.7","421.9","0.0"],
    [1534766,"2026-08-25 16:20:00","5811","6.767","202.5","10.29","209.2","1011.351","30.42","49.68","388.9","0.0"],
    [1534767,"2026-08-25 16:30:00","5812","6.63","207.2","10.45","214.3","1011.405","30.41","49.94","356.5","0.0"],
    [1534768,"2026-08-25 16:40:00","5813","6.3839999999999995","210.8","10.03","200.8","1011.415","30.13","51.35","321.5","0.0"],
    [1534769,"2026-08-25 16:50:00","5814","5.904","212.9","10.29","206.3","1011.492","30.4","50.04","288.2","0.0"],
    [1534770,"2026-08-25 17:00:00","5815","5.742000000000001","211.8","9.77","199.7","1011.581","30.11","53.35","255.8","0.0"],
    [1534771,"2026-08-25 17:10:00","5816","4.8389999999999995","213.5","7.971","195.0","1011.668","29.99","55.97","222.3","0.0"],
    [1534772,"2026-08-25 17:20:00","5817","5.5760000000000005","216.8","9.44","199.6","1011.7","29.79","57.51","190.1","0.0"],
    [1534773,"2026-08-25 17:30:00","5818","5.34","215.2","7.971","224.6","1011.756","29.82","57.24","158.6","0.0"],
    [1534774,"2026-08-25 17:40:00","5819","3.8289999999999997","219.3","7.644","216.9","1011.779","29.75","59.21","127.6","0.0"],
    [1534775,"2026-08-25 17:50:00","5820","5.107","212.1","8.56","207.3","1011.789","29.44","59.43","100.1","0.0"],
    [1534776,"2026-08-25 18:00:00","5821","4.795","212.2","7.546","216.3","1011.878","29.35","59.58","72.34","0.0"],
    [1534777,"2026-08-25 18:10:00","5822","4.728","215.8","8.36","221.5","1011.963","29.16","60.21","48.47","0.0"],
    [1534778,"2026-08-25 18:20:00","5823","3.8489999999999998","226.9","7.35","218.9","1012.061","29.19","60.89","27.49","0.0"],
    [1534779,"2026-08-25 18:30:00","5824","3.667","227.4","8.95","208.3","1012.092","29.14","61.94","10.63","0.0"],
    [1534780,"2026-08-25 18:40:00","5825","3.0610000000000004","226.7","6.435","210.2","1012.162","28.91","62.53","2.052","0.0"],
    [1534781,"2026-08-25 18:50:00","5826","3.977","215.1","7.382999999999999","219.2","1012.289","28.72","63.47","0.0","0.0"],
    [1534782,"2026-08-25 19:00:00","5827","4.31","221.2","7.775","201.3","1012.326","28.61","63.36","0.0","0.0"],
    [1534783,"2026-08-25 19:10:00","5828","3.635","243.9","6.729","263.8","1012.393","28.67","62.07","0.0","0.0"],
    [1534784,"2026-08-25 19:20:00","5829","3.468","246.1","6.109","267.2","1012.577","28.5","58.69","0.0","0.0"],
    [1534785,"2026-08-25 19:30:00","5830","3.347","254.2","5.945","258.9","1012.734","28.48","56.38","0.0","0.0"],
    [1534786,"2026-08-25 19:40:00","5831","2.7319999999999998","254.5","4.638999999999999","282.5","1012.854","28.43","55.58","0.0","0.0"],
    [1534787,"2026-08-25 19:50:00","5832","1.98","247.4","3.822","234.7","1012.972","28.36","54.73","0.0","0.0"],
    [1534788,"2026-08-25 20:00:00","5833","2.6639999999999997","195.7","4.2139999999999995","182.5","1013.116","28.28","59.28","0.0","0.0"],
    [1534789,"2026-08-25 20:10:00","5834","3.134","201.1","4.671","183.4","1013.306","27.96","60.12","0.0","0.0"],
    [1534790,"2026-08-25 20:20:00","5835","2.661","205.3","4.4430000000000005","194.1","1013.487","28.05","59.7","0.0","0.0"],
    [1534791,"2026-08-25 20:30:00","5836","1.989","228.1","3.7239999999999998","218.2","1013.648","27.98","59.58","0.0","0.0"],
    [1534792,"2026-08-25 20:40:00","5837","1.891","253.7","4.2139999999999995","259.2","1013.834","28.05","57.63","0.0","0.0"],
    [1534793,"2026-08-25 20:50:00","5838","1.97","248.4","4.4430000000000005","267.5","1013.85","28.0","58.14","0.0","0.0"],
    [1534794,"2026-08-25 21:00:00","5839","1.75","254.2","3.593","278.2","1013.925","27.97","58.71","0.0","0.0"],
    [1534795,"2026-08-25 21:10:00","5840","1.239","214.3","2.842","277.7","1013.987","27.89","60.3","0.0","0.0"],
    [1534796,"2026-08-25 21:20:00","5841","2.149","270.8","3.822","257.7","1013.942","27.74","59.57","0.0","0.0"],
    [1534797,"2026-08-25 21:30:00","5842","0.885","331.5","1.4369999999999998","318.7","1014.1","27.66","62.09","0.0","0.0"],
    [1534798,"2026-08-25 21:40:00","5843","0.259","2.069","0.98","331.8","1014.084","27.56","61.11","0.0","0.0"],
    [1534799,"2026-08-25 21:50:00","5844","0.78","172.8","1.405","177.0","1014.012","27.63","62.88","0.0","0.0"],
    [1534800,"2026-08-25 22:00:00","5845","0.78","133.9","1.307","168.5","1014.008","27.45","67.37","0.0","0.0"],
    [1534801,"2026-08-25 22:10:00","5846","1.2930000000000001","184.2","1.699","188.4","1013.97","27.27","66.01","0.0","0.0"],
    [1534802,"2026-08-25 22:20:00","5847","0.914","179.3","1.339","170.2","1013.985","27.32","65.25","0.0","0.0"],
    [1534803,"2026-08-25 22:30:00","5848","1.265","175.8","1.568","178.3","1014.086","27.33","68.11","0.0","0.0"],
    [1534804,"2026-08-25 22:40:00","5849","0.488","153.3","1.274","165.3","1014.163","27.22","66.29","0.0","0.0"],
    [1534805,"2026-08-25 22:50:00","5850","0.062","141.8","0.6859999999999999","147.6","1014.066","27.45","70.7","0.0","0.0"],
    [1534806,"2026-08-25 23:00:00","5851","0.514","128.0","0.7190000000000001","106.9","1014.129","27.18","71.39","0.0","0.0"],
    [1534807,"2026-08-25 23:10:00","5852","0.73","112.2","1.3719999999999999","80.1","1014.145","26.76","68.59","0.0","0.0"],
    [1534808,"2026-08-25 23:20:00","5853","1.482","57.8","2.613","79.87","1014.252","27.0","64.57","0.0","0.0"],
    [1534809,"2026-08-25 23:30:00","5854","2.306","42.81","3.7889999999999997","31.08","1014.181","27.13","62.56","0.0","0.0"],
    [1534810,"2026-08-25 23:40:00","5855","3.0839999999999996","31.84","3.7889999999999997","32.55","1014.171","27.17","61.34","0.0","0.0"],
    [1534811,"2026-08-25 23:50:00","5856","3.205","33.89","4.312","40.94","1014.25","27.07","64.97","0.0","0.0"],
    [1534812,"2026-08-26 00:00:00","5857","3.534","28.46","4.345","31.15","1014.325","26.96","67.98","0.0","0.0"],
    [1534813,"2026-08-26 00:10:00","5858","2.9760000000000004","30.63","4.181","35.19","1014.538","26.9","69.72","0.0","0.0"],
    [1534814,"2026-08-26 00:20:00","5859","3.662","33.65","5.227","32.78","1014.538","26.91","71.43","0.0","0.0"],
    [1534815,"2026-08-26 00:30:00","5860","3.758","19.98","5.325","15.33","1014.205","26.9","74.01","0.0","0.0"],
    [1534816,"2026-08-26 00:40:00","5861","4.0569999999999995","15.03","4.737","15.7","1014.025","26.63","74.45","0.0","0.0"],
    [1534817,"2026-08-26 00:50:00","5862","2.043","11.59","3.7569999999999997","23.86","1014.586","26.66","74.87","0.0","0.0"],
    [1534818,"2026-08-26 01:00:00","5863","2.1919999999999997","32.23","3.299","35.9","1014.454","26.67","75.11","0.0","0.0"],
    [1534819,"2026-08-26 01:10:00","5864","2.568","22.0","4.345","19.49","1014.006","26.63","75.17","0.0","0.0"],
    [1534820,"2026-08-26 01:20:00","5865","3.489","22.63","5.422999999999999","20.45","1013.593","26.63","76.06","0.0","0.0"],
    [1534821,"2026-08-26 01:30:00","5866","1.7009999999999998","315.3","2.189","293.0","1014.976","26.56","74.01","0.0","0.0"],
    [1534822,"2026-08-26 01:40:00","5867","1.625","359.1","3.659","50.96","1014.591","26.52","73.8","0.0","0.0"],
    [1534823,"2026-08-26 01:50:00","5868","2.813","46.54","3.7239999999999998","47.54","1013.836","26.62","75.49","0.0","0.0"],
    [1534824,"2026-08-26 02:00:00","5869","1.8940000000000001","10.05","2.613","3.853","1014.493","26.56","76.9","0.0","0.0"],
    [1534825,"2026-08-26 02:10:00","5870","2.7880000000000003","14.78","3.43","22.47","1014.161","26.48","77.04","0.0","0.0"],
    [1534826,"2026-08-26 02:20:00","5871","3.508","32.43","5.129","14.54","1013.718","26.41","77.78","0.0","0.0"],
    [1534827,"2026-08-26 02:30:00","5872","3.4760000000000004","14.38","4.606","11.32","1014.043","26.36","79.6","0.0","0.0"],
    [1534828,"2026-08-26 02:40:00","5873","3.2560000000000002","19.4","4.508","27.23","1013.773","26.23","78.52","0.0","0.0"],
    [1534829,"2026-08-26 02:50:00","5874","2.7260000000000004","13.53","3.7239999999999998","4.856","1013.897","26.2","77.91","0.0","0.0"],
    [1534830,"2026-08-26 03:00:00","5875","2.32","356.3","3.0380000000000003","348.9","1014.165","26.2","78.16","0.0","0.0"],
    [1534831,"2026-08-26 03:10:00","5876","2.952","22.89","3.985","36.62","1013.77","26.18","78.36","0.0","0.0"],
    [1534832,"2026-08-26 03:20:00","5877","2.7319999999999998","25.69","4.181","36.42","1013.966","26.08","77.77","0.0","0.0"],
    [1534833,"2026-08-26 03:30:00","5878","2.504","347.2","3.201","3.642","1014.581","26.17","77.81","0.0","0.0"],
    [1534834,"2026-08-26 03:40:00","5879","2.6260000000000003","17.89","3.9530000000000003","39.14","1013.979","26.17","78.1","0.0","0.0"],
    [1534835,"2026-08-26 03:50:00","5880","3.0239999999999996","323.5","4.638999999999999","313.1","1014.313","26.2","78.3","0.0","0.0"],
    [1534836,"2026-08-26 04:00:00","5881","3.3960000000000004","344.4","5.2589999999999995","328.4","1013.601","26.16","77.89","0.0","0.0"],
    [1534837,"2026-08-26 04:10:00","5882","3.8","1.6019999999999999","5.521","8.85","1013.307","26.24","77.22","0.0","0.0"],
    [1534838,"2026-08-26 04:20:00","5883","4.601","20.75","6.435","12.0","1012.961","26.11","76.32","0.0","0.0"],
    [1534839,"2026-08-26 04:30:00","5884","2.6010000000000004","318.6","4.247","305.9","1014.348","26.0","74.68","0.0","0.0"],
    [1534840,"2026-08-26 04:40:00","5885","1.031","328.8","2.45","317.4","1014.291","26.03","73.21","0.0","0.0"],
    [1534841,"2026-08-26 04:50:00","5886","2.1","21.08","3.071","11.88","1013.905","26.03","72.17","0.0","0.0"],
    [1534842,"2026-08-26 05:00:00","5887","1.652","52.24","2.319","70.19","1014.116","25.83","67.82","0.0","0.0"],
    [1534843,"2026-08-26 05:10:00","5888","2.5989999999999998","68.49","3.332","72.44","1013.677","25.85","68.76","0.099","0.0"],
    [1534844,"2026-08-26 05:20:00","5889","2.3169999999999997","25.63","3.136","10.91","1013.929","25.77","69.6","2.886","0.0"],
    [1534845,"2026-08-26 05:30:00","5890","2.2030000000000003","352.2","3.299","326.7","1014.284","25.72","68.56","14.5","0.0"],
    [1534846,"2026-08-26 05:40:00","5891","0.445","313.9","1.078","2.395","1014.342","25.81","67.57","22.57","0.0"],
    [1534847,"2026-08-26 05:50:00","5892","0.5579999999999999","295.5","1.601","258.5","1014.478","25.91","67.51","32.91","0.0"],
    [1534848,"2026-08-26 06:00:00","5893","1.712","289.1","2.287","265.6","1014.639","25.95","66.95","49.93","0.0"],
    [1534849,"2026-08-26 06:10:00","5894","1.689","307.5","2.94","318.0","1014.474","26.05","66.37","54.48","0.0"],
    [1534850,"2026-08-26 06:20:00","5895","1.53","320.9","2.907","316.0","1014.47","26.42","67.89","67.22","0.0"],
    [1534851,"2026-08-26 06:30:00","5896","1.834","308.7","3.234","289.2","1014.816","26.69","67.34","93.0","0.0"],
    [1534852,"2026-08-26 06:40:00","5897","2.41","21.38","4.377","54.7","1014.041","26.75","67.31","135.3","0.0"],
    [1534853,"2026-08-26 06:50:00","5898","3.8819999999999997","15.05","5.1610000000000005","29.41","1013.951","26.82","70.21","94.6","0.0"],
    [1534854,"2026-08-26 07:00:00","5899","4.749","23.78","5.455","16.88","1013.594","26.68","71.16","44.56","0.0"],
    [1534855,"2026-08-26 07:10:00","5900","5.19","34.16","6.207000000000001","40.86","1013.181","26.56","70.96","127.1","0.0"],
    [1534856,"2026-08-26 07:20:00","5901","5.824","56.52","9.11","57.39","1012.246","26.26","70.45","183.9","0.0"],
    [1534857,"2026-08-26 07:30:00","5902","5.522","45.74","7.35","43.63","1012.2","26.13","73.48","182.9","0.0"],
    [1534858,"2026-08-26 07:40:00","5903","5.8420000000000005","34.82","7.742000000000001","44.0","1012.513","26.51","75.19","154.2","0.0"],
    [1534859,"2026-08-26 07:50:00","5904","4.04","0.111","5.586","3.529","1013.41","26.71","73.66","185.7","0.0"],
    [1534860,"2026-08-26 08:00:00","5905","3.5069999999999997","11.25","4.933","5.319","1013.357","26.85","73.62","161.9","0.0"],
    [1534861,"2026-08-26 08:10:00","5906","4.854","79.38","6.272","84.8","1013.417","26.81","75.85","82.4","0.0"],
    [1534862,"2026-08-26 08:20:00","5907","3.735","105.3","5.39","101.1","1014.09","26.75","77.99","88.1","0.0"],
    [1534863,"2026-08-26 08:30:00","5908","2.488","100.1","4.083","91.1","1014.609","26.74","78.35","148.5","0.0"],
    [1534864,"2026-08-26 08:40:00","5909","2.667","64.52","3.855","51.62","1014.419","26.83","77.93","237.2","0.0"],
    [1534865,"2026-08-26 08:50:00","5910","3.262","91.2","4.737","80.9","1014.023","26.92","78.81","250.4","0.0"],
    [1534866,"2026-08-26 09:00:00","5911","3.983","81.3","5.88","72.43","1013.735","26.87","80.5","120.2","0.0"],
    [1534867,"2026-08-26 09:10:00","5912","7.37","80.5","11.53","82.7","1012.456","26.79","79.03","82.9","0.0"],
    [1534868,"2026-08-26 09:20:00","5913","8.42","83.0","12.25","91.3","1011.3","26.92","78.21","175.7","0.0"],
    [1534869,"2026-08-26 09:30:00","5914","6.8629999999999995","80.3","9.54","79.83","1012.185","26.99","80.6","165.1","0.0"],
    [1534870,"2026-08-26 09:40:00","5915","6.343999999999999","116.0","8.07","119.2","1013.314","26.95","81.5","220.3","0.0"],
    [1534871,"2026-08-26 09:50:00","5916","5.382000000000001","126.2","7.481","102.9","1014.076","27.05","79.06","169.9","0.0"],
    [1534872,"2026-08-26 10:00:00","5917","5.261","146.6","6.435","148.1","1014.893","27.16","77.75","112.9","0.0"],
    [1534873,"2026-08-26 10:10:00","5918","5.193","126.1","6.925","138.9","1014.213","27.15","77.15","118.4","0.0"],
    [1534874,"2026-08-26 10:20:00","5919","3.139","123.4","4.867","117.2","1014.201","27.17","76.24","161.0","0.0"],
    [1534875,"2026-08-26 10:30:00","5920","2.909","89.6","4.1160000000000005","112.0","1013.84","27.22","75.31","228.3","0.0"],
    [1534876,"2026-08-26 10:40:00","5921","2.525","84.3","3.5610000000000004","85.2","1013.726","27.3","74.87","279.2","0.0"],
    [1534877,"2026-08-26 10:50:00","5922","3.017","69.88","4.051","79.86","1013.281","27.3","74.43","302.8","0.0"],
    [1534878,"2026-08-26 11:00:00","5923","2.46","101.9","3.201","100.9","1013.881","27.38","73.34","292.0","0.0"],
    [1534879,"2026-08-26 11:10:00","5924","2.71","121.1","3.6260000000000003","135.6","1014.293","27.42","73.09","169.3","0.0"],
    [1534880,"2026-08-26 11:20:00","5925","2.9330000000000003","123.6","3.9530000000000003","128.9","1014.259","27.37","73.9","181.6","0.0"],
    [1534881,"2026-08-26 11:30:00","5926","3.0380000000000003","88.8","3.5610000000000004","85.1","1013.903","27.4","73.6","283.4","0.0"],
    [1534882,"2026-08-26 11:40:00","5927","3.238","74.12","4.149","78.74","1013.622","27.43","72.76","422.6","0.0"],
    [1534883,"2026-08-26 11:50:00","5928","3.3339999999999996","47.79","4.41","32.08","1013.301","27.68","71.78","844.0","0.0"],
    [1534884,"2026-08-26 12:00:00","5929","4.211","30.03","5.063","49.67","1012.942","27.66","70.87","889.0","0.0"],
    [1534885,"2026-08-26 12:10:00","5930","4.809","18.86","6.0760000000000005","14.22","1012.607","27.77","70.16","689.6","0.0"],
    [1534886,"2026-08-26 12:20:00","5931","5.065","19.19","6.239","19.06","1012.356","27.59","71.01","388.0","0.0"],
    [1534887,"2026-08-26 12:30:00","5932","4.439","25.72","5.455","11.88","1012.451","27.56","69.25","453.4","0.0"],
    [1534888,"2026-08-26 12:40:00","5933","4.606","37.5","5.782","47.01","1012.315","27.77","67.94","585.7","0.0"],
    [1534889,"2026-08-26 12:50:00","5934","5.019","42.59","6.207000000000001","42.56","1012.084","27.65","69.27","450.0","0.0"],
    [1534890,"2026-08-26 13:00:00","5935","4.928999999999999","34.76","6.011","38.51","1011.733","27.7","69.61","608.0","0.0"],
    [1534891,"2026-08-26 13:10:00","5936","4.735","32.11","6.37","36.23","1011.663","27.84","68.39","822.0","0.0"],
    [1534892,"2026-08-26 13:20:00","5937","3.457","60.02","5.129","53.18","1011.97","27.99","65.95","814.0","0.0"],
    [1534893,"2026-08-26 13:30:00","5938","3.179","80.1","4.149","76.76","1012.126","28.08","66.19","779.3","0.0"],
    [1534894,"2026-08-26 13:40:00","5939","2.465","127.9","3.92","123.3","1012.501","28.17","68.33","733.8","0.0"],
    [1534895,"2026-08-26 13:50:00","5940","2.7089999999999996","114.0","3.855","116.1","1012.59","28.06","69.12","716.5","0.0"],
    [1534896,"2026-08-26 14:00:00","5941","2.116","102.9","3.234","97.6","1012.495","28.01","68.56","693.6","0.0"],
    [1534897,"2026-08-26 14:10:00","5942","2.71","105.4","3.463","113.6","1012.425","27.92","69.86","671.8","0.0"],
    [1534898,"2026-08-26 14:20:00","5943","2.373","98.3","3.136","92.9","1012.382","27.89","70.52","658.5","0.0"],
    [1534899,"2026-08-26 14:30:00","5944","2.611","79.37","3.6910000000000003","88.1","1012.271","27.93","70.67","629.3","0.0"],
    [1534900,"2026-08-26 14:40:00","5945","3.3369999999999997","95.9","4.377","100.6","1012.164","27.88","71.32","594.8","0.0"],
    [1534901,"2026-08-26 14:50:00","5946","3.932","90.9","4.933","86.9","1011.943","27.83","71.88","571.8","0.0"],
    [1534902,"2026-08-26 15:00:00","5947","4.198","93.3","5.227","96.2","1011.832","27.82","73.61","544.1","0.0"],
    [1534903,"2026-08-26 15:10:00","5948","4.401","95.7","5.684","99.9","1011.786","27.74","75.54","516.5","0.0"],
    [1534904,"2026-08-26 15:20:00","5949","4.261","93.5","6.37","94.9","1011.723","27.69","76.45","487.2","0.0"],
    [1534905,"2026-08-26 15:30:00","5950","4.543","92.4","6.37","94.9","1011.648","27.66","77.74","462.7","0.0"],
    [1534906,"2026-08-26 15:40:00","5951","4.165","81.8","6.011","78.76","1011.521","27.64","77.95","428.9","0.0"],
    [1534907,"2026-08-26 15:50:00","5952","4.252","81.6","5.586","75.82","1011.344","27.64","79.21","401.5","0.0"],
    [1534908,"2026-08-26 16:00:00","5953","3.804","79.11","5.063","77.52","1011.285","27.62","79.33","373.2","0.0"],
    [1534909,"2026-08-26 16:10:00","5954","3.94","84.1","6.042999999999999","73.64","1011.271","27.67","79.65","341.8","0.0"],
    [1534910,"2026-08-26 16:20:00","5955","4.688","93.1","5.815","94.4","1011.295","27.64","79.71","316.7","0.0"],
    [1534911,"2026-08-26 16:30:00","5956","3.9789999999999996","84.4","5.586","93.7","1011.359","27.65","79.23","281.8","0.0"],
    [1534912,"2026-08-26 16:40:00","5957","4.071000000000001","83.1","5.129","81.6","1011.229","27.69","79.41","254.5","0.0"],
    [1534913,"2026-08-26 16:50:00","5958","3.4789999999999996","83.2","4.769","72.25","1011.236","27.7","79.95","214.9","0.0"],
    [1534914,"2026-08-26 17:00:00","5959","3.156","80.0","4.475","85.1","1011.116","27.67","79.5","185.9","0.0"],
    [1534915,"2026-08-26 17:10:00","5960","3.263","86.0","4.41","87.7","1011.126","27.71","79.42","161.5","0.0"],
    [1534916,"2026-08-26 17:20:00","5961","3.347","79.87","4.377","91.6","1011.126","27.66","79.43","137.6","0.0"],
    [1534917,"2026-08-26 17:30:00","5962","3.117","81.0","4.312","91.6","1011.024","27.69","79.92","111.2","0.0"],
    [1534918,"2026-08-26 17:40:00","5963","4.031000000000001","91.0","4.998","88.3","1010.975","27.65","79.75","86.1","0.0"],
    [1534919,"2026-08-26 17:50:00","5964","3.8080000000000003","99.1","4.965","99.0","1011.104","27.63","79.19","65.12","0.0"],
    [1534920,"2026-08-26 18:00:00","5965","4.195","102.0","5.325","111.0","1011.164","27.65","77.84","46.94","0.0"],
    [1534921,"2026-08-26 18:10:00","5966","3.5260000000000002","102.7","4.802","99.5","1011.173","27.69","77.66","29.37","0.0"],
    [1534922,"2026-08-26 18:20:00","5967","2.96","97.8","4.2139999999999995","107.7","1011.141","27.74","77.83","14.76","0.0"],
    [1534923,"2026-08-26 18:30:00","5968","2.202","97.2","3.6910000000000003","91.6","1011.146","27.66","77.25","4.38","0.0"],
    [1534924,"2026-08-26 18:40:00","5969","1.936","84.4","2.5810000000000004","97.2","1011.051","27.71","77.14","0.51","0.0"],
    [1534925,"2026-08-26 18:50:00","5970","1.6909999999999998","62.52","2.352","73.46","1011.008","27.65","77.33","0.0","0.0"],
    [1534926,"2026-08-26 19:00:00","5971","1.511","61.28","2.0909999999999997","50.19","1011.047","27.66","77.33","0.0","0.0"],
    [1534927,"2026-08-26 19:10:00","5972","1.4880000000000002","47.35","2.025","38.95","1011.146","27.69","77.0","0.0","0.0"],
    [1534928,"2026-08-26 19:20:00","5973","1.3459999999999999","37.71","1.8619999999999999","36.06","1011.274","27.64","77.34","0.0","0.0"],
    [1534929,"2026-08-26 19:30:00","5974","1.255","53.26","1.633","65.51","1011.324","27.6","77.42","0.0","0.0"],
    [1534930,"2026-08-26 19:40:00","5975","1.5419999999999998","72.77","2.0909999999999997","88.2","1011.354","27.59","76.72","0.0","0.0"],
    [1534931,"2026-08-26 19:50:00","5976","1.59","91.5","2.254","108.8","1011.479","27.71","77.32","0.0","0.0"],
    [1534932,"2026-08-26 20:00:00","5977","1.91","121.5","2.613","144.7","1011.576","27.67","80.1","0.0","0.0"],
    [1534933,"2026-08-26 20:10:00","5978","1.7209999999999999","144.0","2.319","151.5","1011.655","27.54","80.9","0.0","0.0"],
    [1534934,"2026-08-26 20:20:00","5979","1.368","155.3","2.287","162.2","1011.639","27.51","81.7","0.0","0.0"],
    [1534935,"2026-08-26 20:30:00","5980","0.899","126.0","1.601","142.4","1011.615","27.44","82.0","0.0","0.0"],
    [1534936,"2026-08-26 20:40:00","5981","0.45799999999999996","122.2","0.882","141.3","1011.653","27.38","82.1","0.0","0.0"],
    [1534937,"2026-08-26 20:50:00","5982","1.3840000000000001","95.5","1.7309999999999999","97.0","1011.641","27.36","82.0","0.0","0.0"],
    [1534938,"2026-08-26 21:00:00","5983","1.42","104.2","1.8619999999999999","100.7","1011.542","27.39","82.1","0.0","0.0"],
    [1534939,"2026-08-26 21:10:00","5984","1.4","107.9","1.829","128.9","1011.513","27.37","82.7","0.0","0.0"],
    [1534940,"2026-08-26 21:20:00","5985","1.456","78.52","1.9269999999999998","93.8","1011.513","27.33","83.3","0.0","0.0"],
    [1534941,"2026-08-26 21:30:00","5986","1.4","47.8","1.699","42.7","1011.627","27.35","83.8","0.0","0.0"],
    [1534942,"2026-08-26 21:40:00","5987","1.6880000000000002","30.73","2.025","36.33","1011.563","27.29","85.2","0.0","0.0"],
    [1534943,"2026-08-26 21:50:00","5988","1.979","32.36","2.319","40.76","1011.599","27.23","85.7","0.0","0.0"],
    [1534944,"2026-08-26 22:00:00","5989","2.03","22.48","2.352","23.57","1011.688","27.28","86.2","0.0","0.0"],
    [1534945,"2026-08-26 22:10:00","5990","1.9780000000000002","32.38","2.385","26.13","1011.722","27.14","86.7","0.0","0.0"],
    [1534946,"2026-08-26 22:20:00","5991","1.594","40.31","2.0909999999999997","30.5","1011.772","27.14","85.1","0.0","0.0"],
    [1534947,"2026-08-26 22:30:00","5992","1.125","88.8","1.633","77.65","1011.983","27.29","84.4","0.0","0.0"],
    [1534948,"2026-08-26 22:40:00","5993","1.375","83.0","1.764","78.14","1012.046","27.37","84.6","0.0","0.0"],
    [1534949,"2026-08-26 22:50:00","5994","1.3980000000000001","48.57","2.025","27.23","1011.983","27.3","84.6","0.0","0.0"],
    [1534950,"2026-08-26 23:00:00","5995","1.61","30.21","2.0909999999999997","30.81","1011.876","27.29","85.3","0.0","0.0"],
    [1534951,"2026-08-26 23:10:00","5996","0.978","62.58","1.47","50.41","1012.1","27.21","85.9","0.0","0.0"],
    [1534952,"2026-08-26 23:20:00","5997","1.245","79.08","1.699","83.7","1012.149","27.23","85.8","0.0","0.0"],
    [1534953,"2026-08-26 23:30:00","5998","0.929","56.52","1.699","40.66","1012.153","27.27","85.6","0.0","0.0"],
    [1534954,"2026-08-26 23:40:00","5999","1.295","48.43","1.601","44.68","1012.078","27.27","85.7","0.0","0.0"],
    [1534955,"2026-08-26 23:50:00","6000","1.5959999999999999","48.49","2.189","37.2","1012.058","27.3","85.9","0.0","0.0"],
    [1534956,"2026-08-27 00:00:00","6001","2.783","26.4","3.659","20.23","1011.822","27.23","86.3","0.0","0.0"],
    [1534957,"2026-08-27 00:10:00","6002","3.4960000000000004","18.99","3.6910000000000003","17.63","1011.475","27.13","87.0","0.0","0.0"],
    [1534958,"2026-08-27 00:20:00","6003","3.667","16.9","3.985","12.95","1011.324","27.08","87.4","0.0","0.0"],
    [1534959,"2026-08-27 00:30:00","6004","2.8369999999999997","16.6","3.365","20.22","1011.267","27.09","87.5","0.0","0.0"],
    [1534960,"2026-08-27 00:40:00","6005","2.465","25.69","3.299","25.69","1011.116","27.09","86.9","0.0","0.0"],
    [1534961,"2026-08-27 00:50:00","6006","3.03","28.99","3.659","33.17","1010.852","27.03","83.7","0.0","0.0"],
    [1534962,"2026-08-27 01:00:00","6007","2.947","40.95","4.051","44.26","1010.922","27.17","81.5","0.0","0.0"],
    [1534963,"2026-08-27 01:10:00","6008","2.722","37.17","3.299","34.69","1010.781","27.22","80.5","0.0","0.0"],
    [1534964,"2026-08-27 01:20:00","6009","3.2060000000000004","36.25","3.9530000000000003","27.37","1010.538","27.11","79.65","0.0","0.0"],
    [1534965,"2026-08-27 01:30:00","6010","3.714","21.62","4.345","22.73","1010.381","27.03","77.58","0.0","0.0"],
    [1534966,"2026-08-27 01:40:00","6011","2.687","16.92","3.7239999999999998","20.22","1010.537","26.99","76.02","0.0","0.0"],
    [1534967,"2026-08-27 01:50:00","6012","2.8989999999999996","19.46","3.6260000000000003","20.69","1010.491","27.05","76.91","0.0","0.0"],
    [1534968,"2026-08-27 02:00:00","6013","3.075","21.92","3.9530000000000003","18.52","1010.458","27.01","77.49","0.0","0.0"],
    [1534969,"2026-08-27 02:10:00","6014","2.497","39.36","3.0380000000000003","29.01","1010.678","27.06","75.98","0.0","0.0"],
    [1534970,"2026-08-27 02:20:00","6015","1.65","35.18","2.548","37.56","1010.662","27.15","76.31","0.0","0.0"],
    [1534971,"2026-08-27 02:30:00","6016","1.286","11.19","2.221","29.49","1010.51","27.11","77.02","0.0","0.0"],
    [1534972,"2026-08-27 02:40:00","6017","2.169","42.23","2.907","33.7","1010.302","27.07","76.73","0.0","0.0"],
    [1534973,"2026-08-27 02:50:00","6018","1.075","279.8","2.45","259.2","1010.405","27.11","75.47","0.0","0.0"],
    [1534974,"2026-08-27 03:00:00","6019","0.418","310.3","1.2409999999999999","323.8","1010.307","27.14","74.44","0.0","0.0"],
    [1534975,"2026-08-27 03:10:00","6020","0.0","0.0","0.0","0.0","1010.281","27.22","75.5","0.0","0.0"],
    [1534976,"2026-08-27 03:20:00","6021","0.7809999999999999","138.4","1.176","143.0","1010.325","27.06","77.02","0.0","0.0"],
    [1534977,"2026-08-27 03:30:00","6022","0.768","178.9","1.209","152.0","1010.406","27.15","78.35","0.0","0.0"],
    [1534978,"2026-08-27 03:40:00","6023","0.5760000000000001","220.7","1.2409999999999999","200.2","1010.406","27.11","77.34","0.0","0.0"],
    [1534979,"2026-08-27 03:50:00","6024","0.0","0.0","0.0","0.0","1010.214","27.03","76.31","0.0","0.0"],
    [1534980,"2026-08-27 04:00:00","6025","0.212","359.0","0.8170000000000001","171.8","1010.057","27.08","77.24","0.0","0.0"],
    [1534981,"2026-08-27 04:10:00","6026","0.659","152.8","1.3719999999999999","3.7230000000000003","1010.072","27.06","79.01","0.0","0.0"],
    [1534982,"2026-08-27 04:20:00","6027","1.104","304.5","1.568","282.2","1010.194","26.87","78.67","0.0","0.0"],
    [1534983,"2026-08-27 04:30:00","6028","0.945","290.2","2.025","284.0","1010.25","26.76","76.78","0.0","0.0"],
    [1534984,"2026-08-27 04:40:00","6029","0.83","253.2","1.274","260.9","1010.261","26.85","75.96","0.0","0.0"],
    [1534985,"2026-08-27 04:50:00","6030","0.19899999999999998","149.8","0.555","220.0","1010.083","27.0","76.13","0.0","0.0"],
    [1534986,"2026-08-27 05:00:00","6031","0.414","99.7","1.013","114.3","1009.982","27.03","79.28","0.0","0.0"],
    [1534987,"2026-08-27 05:10:00","6032","0.645","330.8","0.9470000000000001","344.2","1010.143","26.82","80.4","0.17600000000000002","0.0"],
    [1534988,"2026-08-27 05:20:00","6033","0.225","257.2","0.784","236.7","1010.501","26.57","79.66","2.8710000000000004","0.0"],
    [1534989,"2026-08-27 05:30:00","6034","0.281","113.2","1.405","104.0","1010.569","26.72","79.26","9.21","0.0"],
    [1534990,"2026-08-27 05:40:00","6035","0.465","61.42","1.405","139.6","1010.445","27.06","79.87","21.02","0.0"],
    [1534991,"2026-08-27 05:50:00","6036","0.38","36.82","0.915","50.7","1010.489","27.07","79.63","36.26","0.0"],
    [1534992,"2026-08-27 06:00:00","6037","1.129","25.36","1.4369999999999998","45.33","1010.471","27.18","80.8","45.56","0.0"],
    [1534993,"2026-08-27 06:10:00","6038","0.361","334.1","0.784","31.21","1010.613","27.23","82.3","26.76","0.0"],
    [1534994,"2026-08-27 06:20:00","6039","1.409","179.4","2.8089999999999997","200.2","1010.816","27.11","82.1","44.05","0.0"],
    [1534995,"2026-08-27 06:30:00","6040","2.187","185.3","3.397","192.8","1010.911","27.16","81.8","140.0","0.0"],
    [1534996,"2026-08-27 06:40:00","6041","2.725","201.5","4.1160000000000005","211.9","1011.053","27.5","79.45","143.1","0.0"],
    [1534997,"2026-08-27 06:50:00","6042","2.448","216.7","4.377","229.7","1011.162","27.73","76.1","208.2","0.0"],
    [1534998,"2026-08-27 07:00:00","6043","1.6119999999999999","231.3","2.7110000000000003","229.5","1011.237","28.09","73.54","237.1","0.0"],
    [1534999,"2026-08-27 07:10:00","6044","2.2030000000000003","223.5","5.1610000000000005","193.6","1011.195","28.42","71.68","281.0","0.0"],
    [1535000,"2026-08-27 07:20:00","6045","2.8760000000000003","211.0","5.096","198.1","1011.17","28.44","72.17","325.8","0.0"],
    [1535001,"2026-08-27 07:30:00","6046","3.201","211.6","5.227","225.6","1011.26","28.49","72.59","356.2","0.0"],
    [1535002,"2026-08-27 07:40:00","6047","3.301","206.9","6.011","197.9","1011.262","28.61","70.75","391.4","0.0"],
    [1535003,"2026-08-27 07:50:00","6048","4.404","197.2","6.239","197.8","1011.347","28.46","68.25","427.8","0.0"],
    [1535004,"2026-08-27 08:00:00","6049","3.972","197.7","6.272","194.1","1011.485","28.54","68.41","409.3","0.0"],
    [1535005,"2026-08-27 08:10:00","6050","3.55","209.7","6.305","193.2","1011.742","28.81","66.8","456.8","0.0"],
    [1535006,"2026-08-27 08:20:00","6051","4.651","195.7","7.611000000000001","191.2","1011.852","28.62","67.87","455.2","0.0"],
    [1535007,"2026-08-27 08:30:00","6052","3.1519999999999997","207.7","4.998","188.6","1011.996","28.65","68.41","275.9","0.0"],
    [1535008,"2026-08-27 08:40:00","6053","4.606","198.1","6.403","211.8","1012.045","28.6","68.59","450.0","0.0"],
    [1535009,"2026-08-27 08:50:00","6054","4.046","208.9","6.795","199.2","1012.064","28.72","68.3","602.4","0.0"],
    [1535010,"2026-08-27 09:00:00","6055","3.7030000000000003","219.3","6.141","225.1","1012.116","29.12","66.6","601.2","0.0"],
    [1535011,"2026-08-27 09:10:00","6056","3.612","202.3","6.86","185.9","1012.153","29.27","67.0","665.4","0.0"],
    [1535012,"2026-08-27 09:20:00","6057","4.156000000000001","187.5","6.468","178.7","1012.108","28.83","70.43","716.0","0.0"],
    [1535013,"2026-08-27 09:30:00","6058","4.421","176.2","5.749","173.4","1012.01","28.66","71.83","661.0","0.0"],
    [1535014,"2026-08-27 09:40:00","6059","4.167","169.9","5.031000000000001","171.2","1012.032","28.66","71.67","712.2","0.0"],
    [1535015,"2026-08-27 09:50:00","6060","3.841","173.1","4.802","171.0","1012.055","28.6","71.68","697.8","0.0"],
    [1535016,"2026-08-27 10:00:00","6061","4.412","168.4","5.455","165.4","1012.119","28.65","71.64","766.7","0.0"],
    [1535017,"2026-08-27 10:10:00","6062","3.5269999999999997","169.6","4.9","177.0","1011.997","28.68","71.9","751.0","0.0"],
    [1535018,"2026-08-27 10:20:00","6063","2.779","166.6","3.332","164.0","1011.823","28.88","71.82","767.3","0.0"],
    [1535019,"2026-08-27 10:30:00","6064","2.4419999999999997","156.3","3.332","145.4","1011.769","28.71","72.97","769.2","0.0"],
    [1535020,"2026-08-27 10:40:00","6065","2.295","149.1","3.071","151.0","1011.636","28.76","71.8","773.6","0.0"],
    [1535021,"2026-08-27 10:50:00","6066","2.4459999999999997","145.6","3.136","139.3","1011.613","28.59","73.67","780.4","0.0"],
    [1535022,"2026-08-27 11:00:00","6067","3.01","151.8","4.018","153.9","1011.512","28.72","73.89","793.9","0.0"],
    [1535023,"2026-08-27 11:10:00","6068","3.862","156.1","5.651","151.1","1011.42","28.68","74.51","800.0","0.0"],
    [1535024,"2026-08-27 11:20:00","6069","3.8369999999999997","160.2","4.279","159.4","1011.309","28.74","74.68","801.0","0.0"],
    [1535025,"2026-08-27 11:30:00","6070","4.322","164.0","5.7170000000000005","156.6","1011.297","28.78","75.62","807.0","0.0"],
    [1535026,"2026-08-27 11:40:00","6071","4.779","168.4","6.141","184.4","1011.313","28.74","77.16","811.0","0.0"],
    [1535027,"2026-08-27 11:50:00","6072","5.005","173.1","6.1739999999999995","171.1","1011.321","28.66","78.16","820.0","0.0"],
    [1535028,"2026-08-27 12:00:00","6073","4.376","177.1","5.619","174.9","1011.231","28.82","76.73","809.0","0.0"],
    [1535029,"2026-08-27 12:10:00","6074","4.093","180.9","5.129","174.1","1011.154","28.99","75.55","789.5","0.0"],
    [1535030,"2026-08-27 12:20:00","6075","4.516","177.2","5.749","179.0","1011.096","29.02","75.58","840.0","0.0"],
    [1535031,"2026-08-27 12:30:00","6076","5.232","188.0","6.599","188.4","1011.08","29.05","74.54","857.0","0.0"],
    [1535032,"2026-08-27 12:40:00","6077","5.865","186.1","7.546","185.7","1011.09","29.04","74.43","845.0","0.0"],
    [1535033,"2026-08-27 12:50:00","6078","5.922999999999999","183.4","7.6770000000000005","191.1","1010.967","28.91","74.46","842.0","0.0"],
    [1535034,"2026-08-27 13:00:00","6079","6.581","183.3","9.11","182.7","1010.921","28.93","74.02","785.5","0.0"],
    [1535035,"2026-08-27 13:10:00","6080","6.608","189.7","9.11","196.2","1010.985","28.94","75.21","816.0","0.0"],
    [1535036,"2026-08-27 13:20:00","6081","6.454","187.5","8.75","183.0","1011.006","29.01","74.99","788.2","0.0"],
    [1535037,"2026-08-27 13:30:00","6082","7.417000000000001","187.4","9.44","182.0","1011.046","28.84","76.11","767.1","0.0"],
    [1535038,"2026-08-27 13:40:00","6083","8.38","188.1","10.55","198.4","1011.095","28.76","76.17","793.5","0.0"],
    [1535039,"2026-08-27 13:50:00","6084","7.659","188.5","10.16","188.6","1011.047","28.74","75.74","752.3","0.0"],
    [1535040,"2026-08-27 14:00:00","6085","7.193","193.7","10.42","195.3","1010.993","28.97","73.96","755.0","0.0"],
    [1535041,"2026-08-27 14:10:00","6086","6.519","196.6","9.93","195.5","1011.129","29.56","70.87","776.6","0.0"],
    [1535042,"2026-08-27 14:20:00","6087","7.132999999999999","203.8","9.93","201.8","1011.383","29.62","69.94","811.0","0.0"],
    [1535043,"2026-08-27 14:30:00","6088","6.877000000000001","203.2","10.55","202.3","1011.479","29.61","70.27","602.0","0.0"],
    [1535044,"2026-08-27 14:40:00","6089","6.466","201.1","9.51","195.7","1011.48","29.51","71.81","616.2","0.0"],
    [1535045,"2026-08-27 14:50:00","6090","6.08","197.1","9.11","186.1","1011.326","29.17","70.49","568.2","0.0"],
    [1535046,"2026-08-27 15:00:00","6091","5.18","200.9","7.317","210.8","1011.272","29.56","66.98","547.6","0.0"],
    [1535047,"2026-08-27 15:10:00","6092","5.847","191.7","7.35","189.0","1011.157","29.31","68.2","540.1","0.0"],
    [1535048,"2026-08-27 15:20:00","6093","5.16","192.0","6.86","186.7","1011.147","29.13","71.18","485.4","0.0"],
    [1535049,"2026-08-27 15:30:00","6094","5.119","193.0","7.382999999999999","184.5","1011.18","29.0","73.04","473.0","0.0"],
    [1535050,"2026-08-27 15:40:00","6095","5.847","196.1","8.13","195.2","1011.246","28.93","72.74","372.8","0.0"],
    [1535051,"2026-08-27 15:50:00","6096","5.4670000000000005","199.3","7.4479999999999995","198.8","1011.128","28.63","74.23","219.2","0.0"],
    [1535052,"2026-08-27 16:00:00","6097","4.868","206.9","7.35","191.2","1011.195","28.66","74.6","222.4","0.0"],
    [1535053,"2026-08-27 16:10:00","6098","5.393","193.8","8.62","189.9","1011.072","28.59","71.9","157.7","0.0"],
    [1535054,"2026-08-27 16:20:00","6099","5.622999999999999","192.7","8.07","173.9","1011.097","28.37","66.73","208.8","0.0"],
    [1535055,"2026-08-27 16:30:00","6100","4.907","204.2","7.4479999999999995","206.4","1011.195","28.64","62.65","143.3","0.0"],
    [1535056,"2026-08-27 16:40:00","6101","4.716","204.9","7.546","196.3","1011.087","28.79","60.65","111.9","0.0"],
    [1535057,"2026-08-27 16:50:00","6102","4.343999999999999","210.7","6.7620000000000005","205.8","1011.097","28.95","58.75","75.98","0.0"],
    [1535058,"2026-08-27 17:00:00","6103","3.787","207.9","5.815","211.3","1011.023","28.92","60.7","51.87","0.0"],
    [1535059,"2026-08-27 17:10:00","6104","4.175","198.3","6.011","200.3","1010.921","28.78","64.76","64.86","0.0"],
    [1535060,"2026-08-27 17:20:00","6105","3.4960000000000004","205.7","5.88","195.2","1011.169","28.65","66.08","61.13","0.0"],
    [1535061,"2026-08-27 17:30:00","6106","4.587","198.5","6.403","201.6","1011.368","28.54","64.21","67.98","0.0"],
    [1535062,"2026-08-27 17:40:00","6107","3.9210000000000003","199.3","5.978","217.4","1011.249","28.64","62.45","67.26","0.0"],
    [1535063,"2026-08-27 17:50:00","6108","4.522","200.4","6.7620000000000005","199.5","1011.151","28.56","62.96","48.47","0.0"],
    [1535064,"2026-08-27 18:00:00","6109","3.792","199.6","5.586","219.3","1011.056","28.51","62.64","39.8","0.0"],
    [1535065,"2026-08-27 18:10:00","6110","2.728","197.2","4.2139999999999995","190.1","1010.759","28.54","62.39","24.54","0.0"],
    [1535066,"2026-08-27 18:20:00","6111","1.555","240.4","3.0380000000000003","204.5","1010.657","28.66","61.03","6.812","0.0"],
    [1535067,"2026-08-27 18:30:00","6112","2.262","261.8","4.083","261.5","1010.664","28.7","59.89","0.7909999999999999","0.0"],
    [1535068,"2026-08-27 18:40:00","6113","2.608","256.1","4.149","278.9","1010.821","28.63","60.03","0.037000000000000005","0.0"],
    [1535069,"2026-08-27 18:50:00","6114","2.676","247.4","4.475","257.6","1011.098","28.53","60.84","0.0","0.0"],
    [1535070,"2026-08-27 19:00:00","6115","2.319","249.2","4.247","268.1","1011.161","28.52","60.4","0.0","0.0"],
    [1535071,"2026-08-27 19:10:00","6116","1.9869999999999999","262.0","3.822","276.0","1011.361","28.52","61.66","0.0","0.0"],
    [1535072,"2026-08-27 19:20:00","6117","2.052","245.2","3.299","256.7","1011.563","28.42","61.95","0.0","0.0"],
    [1535073,"2026-08-27 19:30:00","6118","4.314","181.2","5.292000000000001","166.6","1011.874","28.28","66.29","0.0","0.0"],
    [1535074,"2026-08-27 19:40:00","6119","2.617","196.5","3.9530000000000003","185.2","1012.21","28.06","68.14","0.0","0.0"],
    [1535075,"2026-08-27 19:50:00","6120","2.37","261.1","4.4430000000000005","272.0","1012.383","28.01","65.3","0.0","0.0"],
    [1535076,"2026-08-27 20:00:00","6121","1.859","259.6","3.495","265.1","1012.182","28.2","64.17","0.0","0.0"],
    [1535077,"2026-08-27 20:10:00","6122","1.8659999999999999","261.3","3.659","265.8","1012.313","28.21","64.15","0.0","0.0"],
    [1535078,"2026-08-27 20:20:00","6123","2.174","259.1","3.528","296.3","1012.517","28.26","63.99","0.0","0.0"],
    [1535079,"2026-08-27 20:30:00","6124","1.771","208.4","3.365","192.2","1012.583","28.3","64.59","0.0","0.0"],
    [1535080,"2026-08-27 20:40:00","6125","2.5669999999999997","203.3","4.704","198.3","1012.468","28.22","65.68","0.0","0.0"],
    [1535081,"2026-08-27 20:50:00","6126","3.097","222.4","5.455","187.6","1013.297","28.29","65.54","0.0","0.0"],
    [1535082,"2026-08-27 21:00:00","6127","2.9930000000000003","221.0","4.933","284.6","1013.375","28.29","65.85","0.0","0.0"],
    [1535083,"2026-08-27 21:10:00","6128","2.119","200.3","3.136","184.8","1013.194","28.12","67.07","0.0","0.0"],
    [1535084,"2026-08-27 21:20:00","6129","2.3040000000000003","280.0","3.528","299.0","1012.43","28.07","65.49","0.0","0.0"],
    [1535085,"2026-08-27 21:30:00","6130","2.266","278.2","3.463","274.9","1012.512","28.13","65.15","0.0","0.0"],
    [1535086,"2026-08-27 21:40:00","6131","2.0380000000000003","282.5","3.528","281.4","1012.279","28.24","64.74","0.0","0.0"],
    [1535087,"2026-08-27 21:50:00","6132","2.307","229.4","4.2139999999999995","215.2","1012.513","28.23","64.69","0.0","0.0"],
    [1535088,"2026-08-27 22:00:00","6133","1.6669999999999998","252.7","3.332","223.5","1012.857","28.27","64.41","0.0","0.0"],
    [1535089,"2026-08-27 22:10:00","6134","3.2030000000000003","225.8","5.455","230.4","1013.312","28.38","63.66","0.0","0.0"],
    [1535090,"2026-08-27 22:20:00","6135","2.318","246.8","4.541","231.5","1013.444","28.3","64.1","0.0","0.0"],
    [1535091,"2026-08-27 22:30:00","6136","2.475","254.2","4.345","263.5","1013.363","28.23","63.92","0.0","0.0"],
    [1535092,"2026-08-27 22:40:00","6137","2.676","236.3","5.586","214.0","1013.839","28.27","63.83","0.0","0.0"],
    [1535093,"2026-08-27 22:50:00","6138","2.8710000000000004","228.9","5.2589999999999995","231.7","1013.789","28.27","65.4","0.0","0.0"],
    [1535094,"2026-08-27 23:00:00","6139","2.7969999999999997","222.9","5.292000000000001","225.0","1013.847","28.19","66.42","0.0","0.0"],
    [1535095,"2026-08-27 23:10:00","6140","2.166","226.2","4.835","228.0","1013.948","28.12","65.93","0.0","0.0"],
    [1535096,"2026-08-27 23:20:00","6141","2.44","289.8","3.7239999999999998","300.8","1013.237","28.05","66.26","0.0","0.0"],
    [1535097,"2026-08-27 23:30:00","6142","3.07","298.4","4.181","300.9","1012.777","27.92","65.02","0.0","0.0"],
    [1535098,"2026-08-27 23:40:00","6143","2.174","282.9","3.6910000000000003","273.5","1012.965","27.97","63.13","0.0","0.0"],
    [1535099,"2026-08-27 23:50:00","6144","1.587","189.5","3.071","157.2","1013.395","28.11","62.65","0.0","0.0"],
    [1535100,"2026-08-28 00:00:00","6145","2.031","188.4","3.234","158.4","1013.454","28.03","66.33","0.0","0.0"],
    [1535101,"2026-08-28 00:10:00","6146","1.561","221.2","4.4430000000000005","254.7","1013.165","27.87","65.91","0.0","0.0"],
    [1535102,"2026-08-28 00:20:00","6147","2.383","246.3","4.083","255.8","1013.466","28.17","49.23","0.0","0.0"],
    [1535103,"2026-08-28 00:30:00","6148","2.592","217.6","5.063","203.8","1013.934","28.51","45.89","0.0","0.0"],
    [1535104,"2026-08-28 00:40:00","6149","2.381","213.7","4.2139999999999995","212.6","1014.556","28.59","46.45","0.0","0.0"],
    [1535105,"2026-08-28 00:50:00","6150","2.253","234.7","4.377","221.7","1014.717","28.47","43.83","0.0","0.0"],
    [1535106,"2026-08-28 01:00:00","6151","2.517","262.1","5.227","273.6","1014.262","28.21","45.37","0.0","0.1"],
    [1535107,"2026-08-28 01:10:00","6152","2.582","223.4","5.88","222.5","1014.429","27.74","44.06","0.0","0.0"],
    [1535108,"2026-08-28 01:20:00","6153","1.909","212.3","3.365","210.0","1014.503","27.59","46.48","0.0","0.0"],
    [1535109,"2026-08-28 01:30:00","6154","2.435","227.0","4.475","225.7","1014.414","27.64","44.23","0.0","0.0"],
    [1535110,"2026-08-28 01:40:00","6155","1.59","254.6","3.0380000000000003","236.6","1013.962","27.49","46.14","0.0","0.0"],
    [1535111,"2026-08-28 01:50:00","6156","1.995","266.1","4.606","259.0","1014.001","27.26","45.06","0.0","0.0"],
    [1535112,"2026-08-28 02:00:00","6157","1.824","244.3","3.299","232.4","1014.181","27.37","41.58","0.0","0.0"],
    [1535113,"2026-08-28 02:10:00","6158","2.336","259.7","5.782","268.1","1014.175","27.53","39.13","0.0","0.0"],
    [1535114,"2026-08-28 02:20:00","6159","3.843","286.6","6.1739999999999995","284.9","1013.796","27.56","34.65","0.0","0.0"],
    [1535115,"2026-08-28 02:30:00","6160","3.9","279.4","6.729","281.2","1014.15","27.56","34.22","0.0","0.0"],
    [1535116,"2026-08-28 02:40:00","6161","2.924","277.9","5.096","288.1","1013.912","27.45","34.06","0.0","0.0"],
    [1535117,"2026-08-28 02:50:00","6162","3.4189999999999996","272.9","5.4879999999999995","289.2","1013.974","27.36","32.59","0.0","0.0"],
    [1535118,"2026-08-28 03:00:00","6163","4.834","286.1","8.33","288.5","1014.026","27.31","32.6","0.0","0.0"],
    [1535119,"2026-08-28 03:10:00","6164","3.3339999999999996","283.8","5.912999999999999","286.3","1014.044","27.33","32.2","0.0","0.0"],
    [1535120,"2026-08-28 03:20:00","6165","2.838","278.2","5.325","289.8","1014.107","27.14","32.67","0.0","0.0"],
    [1535121,"2026-08-28 03:30:00","6166","3.0389999999999997","275.8","6.207000000000001","279.3","1014.26","26.98","33.55","0.0","0.0"],
    [1535122,"2026-08-28 03:40:00","6167","3.92","288.6","6.305","301.2","1014.219","27.01","33.02","0.0","0.0"],
    [1535123,"2026-08-28 03:50:00","6168","4.7010000000000005","283.9","6.827000000000001","269.1","1014.428","27.01","32.51","0.0","0.0"],
    [1535124,"2026-08-28 04:00:00","6169","3.721","285.6","6.631","296.3","1014.639","26.95","32.82","0.0","0.0"],
    [1535125,"2026-08-28 04:10:00","6170","4.648","299.1","7.513","296.0","1014.57","26.87","33.51","0.0","0.0"],
    [1535126,"2026-08-28 04:20:00","6171","4.59","297.4","7.35","313.2","1014.429","26.82","33.04","0.0","0.0"],
    [1535127,"2026-08-28 04:30:00","6172","5.034","296.2","9.44","302.2","1014.273","26.7","33.3","0.0","0.0"],
    [1535128,"2026-08-28 04:40:00","6173","4.748","298.6","7.4479999999999995","287.4","1014.417","26.62","33.45","0.0","0.0"],
    [1535129,"2026-08-28 04:50:00","6174","4.492","302.9","8.26","303.6","1014.277","26.58","34.92","0.0","0.0"],
    [1535130,"2026-08-28 05:00:00","6175","5.624","296.8","7.905","319.4","1014.365","26.47","34.75","0.0","0.0"],
    [1535131,"2026-08-28 05:10:00","6176","5.84","298.1","8.53","293.3","1014.29","26.38","34.74","0.0","0.0"],
    [1535132,"2026-08-28 05:20:00","6177","5.278","296.9","8.98","309.5","1014.541","26.38","34.9","0.38799999999999996","0.0"],
    [1535133,"2026-08-28 05:30:00","6178","5.414","295.3","9.24","285.0","1014.649","26.38","34.19","4.852","0.0"],
    [1535134,"2026-08-28 05:40:00","6179","4.69","298.4","7.4479999999999995","293.9","1014.912","26.36","34.4","11.82","0.0"],
    [1535135,"2026-08-28 05:50:00","6180","4.971","302.0","7.382999999999999","309.3","1014.995","26.32","35.07","18.37","0.0"],
    [1535136,"2026-08-28 06:00:00","6181","5.29","302.3","8.89","303.6","1015.048","26.32","34.39","31.38","0.0"],
    [1535137,"2026-08-28 06:10:00","6182","5.1339999999999995","300.2","9.28","292.7","1015.089","26.32","34.36","46.55","0.0"],
    [1535138,"2026-08-28 06:20:00","6183","5.114","297.4","7.382999999999999","300.9","1015.209","26.27","34.08","63.74","0.0"],
    [1535139,"2026-08-28 06:30:00","6184","5.57","297.1","9.28","275.1","1015.404","26.27","34.24","84.4","0.0"],
    [1535140,"2026-08-28 06:40:00","6185","5.252000000000001","304.8","7.6770000000000005","311.1","1015.278","26.24","34.41","111.1","0.0"],
    [1535141,"2026-08-28 06:50:00","6186","7.476","306.4","12.38","300.5","1015.259","26.38","32.65","139.1","0.0"],
    [1535142,"2026-08-28 07:00:00","6187","6.162000000000001","301.1","11.2","302.1","1015.721","26.57","31.97","150.6","0.0"],
    [1535143,"2026-08-28 07:10:00","6188","6.187","300.2","9.44","293.4","1015.955","26.66","31.59","152.0","0.0"],
    [1535144,"2026-08-28 07:20:00","6189","5.995","301.6","10.62","304.6","1016.237","26.52","31.75","134.3","0.0"],
    [1535145,"2026-08-28 07:30:00","6190","5.82","299.5","10.16","303.4","1016.359","26.56","31.32","189.5","0.0"],
    [1535146,"2026-08-28 07:40:00","6191","6.801","301.1","10.52","303.0","1016.355","26.52","31.34","166.5","0.0"],
    [1535147,"2026-08-28 07:50:00","6192","5.9639999999999995","305.7","11.2","313.1","1016.298","26.53","31.17","183.9","0.0"],
    [1535148,"2026-08-28 08:00:00","6193","6.218","304.6","11.01","318.1","1016.437","26.59","31.18","185.3","0.0"],
    [1535149,"2026-08-28 08:10:00","6194","6.872999999999999","308.5","12.51","324.4","1016.558","26.5","31.68","209.9","0.0"],
    [1535150,"2026-08-28 08:20:00","6195","5.518","302.4","9.64","309.2","1016.774","26.53","31.14","181.1","0.0"],
    [1535151,"2026-08-28 08:30:00","6196","6.412999999999999","293.8","10.42","298.7","1016.91","26.53","30.11","188.8","0.0"],
    [1535152,"2026-08-28 08:40:00","6197","7.4910000000000005","304.4","13.23","311.9","1017.021","26.42","31.26","249.1","0.0"],
    [1535153,"2026-08-28 08:50:00","6198","7.59","299.0","11.2","307.7","1017.12","26.49","30.16","284.7","0.0"],
    [1535154,"2026-08-28 09:00:00","6199","7.265","295.9","11.14","297.9","1017.25","26.67","29.08","343.6","0.0"],
    [1535155,"2026-08-28 09:10:00","6200","5.3020000000000005","302.3","10.68","306.4","1017.431","26.82","29.15","357.1","0.0"],
    [1535156,"2026-08-28 09:20:00","6201","6.832999999999999","295.3","12.9","299.5","1017.315","26.89","26.63","338.3","0.0"],
    [1535157,"2026-08-28 09:30:00","6202","6.0329999999999995","284.5","9.47","279.4","1017.358","27.41","24.0","401.4","0.0"],
    [1535158,"2026-08-28 09:40:00","6203","4.9319999999999995","287.2","8.92","282.4","1017.32","27.64","24.32","413.0","0.0"],
    [1535159,"2026-08-28 09:50:00","6204","6.757999999999999","284.2","10.42","272.6","1017.154","27.69","23.42","323.2","0.0"],
    [1535160,"2026-08-28 10:00:00","6205","5.263999999999999","297.1","8.2","298.2","1017.22","27.75","24.28","388.8","0.0"],
    [1535161,"2026-08-28 10:10:00","6206","5.734","301.3","10.36","303.1","1017.018","27.8","24.93","420.3","0.0"],
    [1535162,"2026-08-28 10:20:00","6207","5.502000000000001","303.8","8.82","316.9","1016.909","27.89","25.29","445.2","0.0"],
    [1535163,"2026-08-28 10:30:00","6208","5.652","298.0","8.59","280.6","1016.888","28.13","24.45","424.8","0.0"],
    [1535164,"2026-08-28 10:40:00","6209","5.066","299.0","8.2","320.6","1017.171","28.44","24.75","545.9","0.0"],
    [1535165,"2026-08-28 10:50:00","6210","5.598","297.6","9.31","306.3","1017.372","28.68","24.47","529.0","0.0"],
    [1535166,"2026-08-28 11:00:00","6211","5.486000000000001","302.8","8.79","310.9","1017.479","28.54","25.09","489.4","0.0"],
    [1535167,"2026-08-28 11:10:00","6212","5.877999999999999","298.5","9.83","301.7","1017.557","28.51","24.02","452.8","0.0"],
    [1535168,"2026-08-28 11:20:00","6213","4.846","306.9","6.925","316.3","1017.532","28.61","24.37","526.8","0.0"],
    [1535169,"2026-08-28 11:30:00","6214","4.962","307.0","7.4479999999999995","318.7","1017.388","28.47","25.37","582.5","0.0"],
    [1535170,"2026-08-28 11:40:00","6215","4.523","294.2","6.925","308.8","1017.318","29.06","23.49","589.0","0.0"],
    [1535171,"2026-08-28 11:50:00","6216","3.969","287.6","6.305","277.8","1017.257","29.5","22.68","636.5","0.0"],
    [1535172,"2026-08-28 12:00:00","6217","3.545","291.6","6.042999999999999","294.7","1017.18","29.83","22.38","884.0","0.0"],
    [1535173,"2026-08-28 12:10:00","6218","3.4189999999999996","283.6","5.88","274.1","1017.159","30.47","21.62","614.5","0.0"],
    [1535174,"2026-08-28 12:20:00","6219","2.622","266.0","4.247","259.8","1017.162","30.63","21.36","562.7","0.0"],
    [1535175,"2026-08-28 12:30:00","6220","2.6239999999999997","241.6","6.0760000000000005","210.6","1017.161","30.97","21.33","693.8","0.0"],
    [1535176,"2026-08-28 12:40:00","6221","2.9339999999999997","243.4","7.023","286.0","1017.166","30.23","29.18","691.5","0.0"],
    [1535177,"2026-08-28 12:50:00","6222","3.565","250.2","6.827000000000001","267.6","1017.093","31.19","21.73","648.7","0.0"],
    [1535178,"2026-08-28 13:00:00","6223","4.9830000000000005","191.0","9.44","188.9","1016.919","30.46","27.55","641.8","0.0"],
    [1535179,"2026-08-28 13:10:00","6224","6.004","201.4","8.43","208.0","1016.854","29.95","29.96","814.0","0.0"],
    [1535180,"2026-08-28 13:20:00","6225","5.875","190.0","8.75","191.4","1016.695","29.6","33.15","694.3","0.0"],
    [1535181,"2026-08-28 13:30:00","6226","5.827999999999999","185.9","8.53","192.6","1016.464","29.06","39.64","710.1","0.0"],
    [1535182,"2026-08-28 13:40:00","6227","5.374","213.6","9.41","225.7","1016.346","30.58","27.47","675.4","0.0"],
    [1535183,"2026-08-28 13:50:00","6228","5.459","213.1","10.13","228.6","1016.299","31.14","25.24","683.3","0.0"],
    [1535184,"2026-08-28 14:00:00","6229","6.4110000000000005","214.8","11.2","203.3","1016.178","30.99","26.73","687.6","0.0"],
    [1535185,"2026-08-28 14:10:00","6230","6.011","205.8","10.98","201.5","1016.036","30.88","26.94","676.3","0.0"],
    [1535186,"2026-08-28 14:20:00","6231","6.121","205.8","9.83","195.4","1015.828","30.67","28.51","559.6","0.0"],
    [1535187,"2026-08-28 14:30:00","6232","6.5729999999999995","210.9","9.96","213.3","1015.784","30.33","28.23","703.7","0.0"],
    [1535188,"2026-08-28 14:40:00","6233","5.66","204.3","8.79","190.9","1015.759","30.16","31.03","541.2","0.0"],
    [1535189,"2026-08-28 14:50:00","6234","5.515","206.3","9.28","186.4","1015.736","30.21","30.22","440.6","0.0"],
    [1535190,"2026-08-28 15:00:00","6235","4.6930000000000005","213.4","8.4","201.5","1015.711","30.26","29.54","426.2","0.0"],
    [1535191,"2026-08-28 15:10:00","6236","5.801","201.5","9.31","203.0","1015.792","29.82","32.32","475.7","0.0"],
    [1535192,"2026-08-28 15:20:00","6237","6.225","207.9","9.31","211.5","1015.978","29.69","30.01","357.8","0.0"],
    [1535193,"2026-08-28 15:30:00","6238","6.274","201.8","9.15","207.0","1016.079","29.33","34.45","323.9","0.0"],
    [1535194,"2026-08-28 15:40:00","6239","5.138999999999999","211.0","7.84","211.4","1016.021","29.3","33.23","340.9","0.0"],
    [1535195,"2026-08-28 15:50:00","6240","5.331","211.0","8.72","183.1","1015.973","29.36","33.42","317.9","0.0"],
    [1535196,"2026-08-28 16:00:00","6241","4.662","207.6","8.04","195.7","1016.031","29.27","37.49","340.6","0.0"],
    [1535197,"2026-08-28 16:10:00","6242","4.6419999999999995","209.6","8.26","203.8","1016.104","29.28","37.08","255.9","0.0"],
    [1535198,"2026-08-28 16:20:00","6243","5.507999999999999","212.0","8.98","210.2","1016.073","28.89","37.24","207.6","0.0"],
    [1535199,"2026-08-28 16:30:00","6244","4.728","220.9","8.72","238.5","1016.049","28.95","36.48","170.6","0.0"],
    [1535200,"2026-08-28 16:40:00","6245","4.978","221.6","8.07","227.4","1016.035","29.07","36.6","151.1","0.0"],
    [1535201,"2026-08-28 16:50:00","6246","4.905","218.6","8.17","218.8","1015.955","28.94","37.2","127.6","0.0"],
    [1535202,"2026-08-28 17:00:00","6247","3.906","222.0","7.546","224.3","1015.834","29.03","37.05","113.5","0.0"],
    [1535203,"2026-08-28 17:10:00","6248","4.978","219.1","8.92","213.5","1015.838","29.13","35.27","102.7","0.0"],
    [1535204,"2026-08-28 17:20:00","6249","4.103","225.0","8.49","223.7","1015.81","29.23","34.29","89.7","0.0"],
    [1535205,"2026-08-28 17:30:00","6250","2.9760000000000004","222.8","5.619","205.1","1015.747","29.51","33.71","159.7","0.0"],
    [1535206,"2026-08-28 17:40:00","6251","2.415","225.3","4.279","270.6","1015.669","29.81","33.31","126.9","0.0"],
    [1535207,"2026-08-28 17:50:00","6252","2.26","244.8","4.41","239.5","1015.756","29.71","32.37","97.1","0.0"],
    [1535208,"2026-08-28 18:00:00","6253","2.432","290.8","5.031000000000001","305.6","1015.742","29.88","22.24","77.41","0.0"],
    [1535209,"2026-08-28 18:10:00","6254","3.221","281.9","4.9","294.7","1015.76","30.15","17.08","34.35","0.0"],
    [1535210,"2026-08-28 18:20:00","6255","3.5660000000000003","284.8","5.031000000000001","283.9","1015.854","29.95","17.67","25.33","0.0"],
    [1535211,"2026-08-28 18:30:00","6256","3.637","294.0","5.553","301.3","1015.841","29.77","17.81","9.8","0.0"],
    [1535212,"2026-08-28 18:40:00","6257","3.215","297.5","4.638999999999999","305.5","1015.915","29.5","18.68","4.271","0.0"],
    [1535213,"2026-08-28 18:50:00","6258","4.244","292.1","6.86","287.1","1016.157","29.27","19.68","0.243","0.0"],
    [1535214,"2026-08-28 19:00:00","6259","4.409","295.8","6.305","304.3","1016.37","29.1","20.91","0.0","0.0"],
    [1535215,"2026-08-28 19:10:00","6260","4.7589999999999995","298.5","7.056","302.0","1016.406","28.86","21.31","0.0","0.0"],
    [1535216,"2026-08-28 19:20:00","6261","4.196000000000001","295.5","6.141","311.4","1016.484","28.63","21.23","0.0","0.0"],
    [1535217,"2026-08-28 19:30:00","6262","3.4819999999999998","299.2","5.422999999999999","276.8","1016.577","28.5","21.45","0.0","0.0"],
    [1535218,"2026-08-28 19:40:00","6263","3.529","305.8","6.141","292.6","1016.75","28.29","22.32","0.0","0.0"],
    [1535219,"2026-08-28 19:50:00","6264","3.483","296.4","5.357","303.3","1016.998","28.15","22.49","0.0","0.0"],
    [1535220,"2026-08-28 20:00:00","6265","3.865","296.1","6.403","305.9","1017.069","27.94","23.52","0.0","0.0"],
    [1535221,"2026-08-28 20:10:00","6266","4.64","320.0","7.187","309.8","1017.185","27.86","25.11","0.0","0.0"],
    [1535222,"2026-08-28 20:20:00","6267","3.903","314.1","5.782","315.4","1017.287","27.72","26.28","0.0","0.0"],
    [1535223,"2026-08-28 20:30:00","6268","4.162","318.6","5.684","317.3","1017.375","27.66","26.63","0.0","0.0"],
    [1535224,"2026-08-28 20:40:00","6269","3.9419999999999997","297.4","5.553","287.0","1017.417","27.58","25.38","0.0","0.0"],
    [1535225,"2026-08-28 20:50:00","6270","3.713","328.1","6.042999999999999","300.6","1017.515","27.43","28.78","0.0","0.0"],
    [1535226,"2026-08-28 21:00:00","6271","2.912","334.9","4.4430000000000005","311.7","1017.573","27.3","27.67","0.0","0.0"],
    [1535227,"2026-08-28 21:10:00","6272","2.293","16.15","3.985","27.1","1017.803","27.3","29.94","0.0","0.0"],
    [1535228,"2026-08-28 21:20:00","6273","3.03","16.14","4.769","21.71","1018.147","27.25","29.86","0.0","0.0"],
    [1535229,"2026-08-28 21:30:00","6274","2.839","22.28","3.7889999999999997","17.53","1018.31","27.04","33.84","0.0","0.0"],
    [1535230,"2026-08-28 21:40:00","6275","3.234","29.67","4.41","34.09","1018.385","26.8","34.14","0.0","0.0"],
    [1535231,"2026-08-28 21:50:00","6276","3.845","33.4","4.769","28.34","1018.387","26.61","38.22","0.0","0.0"],
    [1535232,"2026-08-28 22:00:00","6277","4.0760000000000005","59.11","5.945","60.74","1018.67","25.85","60.48","0.0","0.0"],
    [1535233,"2026-08-28 22:10:00","6278","4.08","60.39","5.847","55.46","1018.853","25.68","60.67","0.0","0.0"],
    [1535234,"2026-08-28 22:20:00","6279","3.9610000000000003","51.93","5.325","54.93","1018.822","25.59","61.53","0.0","0.0"],
    [1535235,"2026-08-28 22:30:00","6280","3.878","39.97","4.835","43.01","1018.796","25.52","62.24","0.0","0.0"],
    [1535236,"2026-08-28 22:40:00","6281","3.864","24.7","4.835","24.31","1018.921","25.54","63.36","0.0","0.0"],
    [1535237,"2026-08-28 22:50:00","6282","3.495","19.19","4.4430000000000005","18.81","1018.951","25.49","64.88","0.0","0.0"],
    [1535238,"2026-08-28 23:00:00","6283","3.375","12.34","4.051","11.11","1019.107","25.47","63.69","0.0","0.0"],
    [1535239,"2026-08-28 23:10:00","6284","1.9080000000000001","356.3","3.103","6.136","1019.317","25.55","60.64","0.0","0.0"],
    [1535240,"2026-08-28 23:20:00","6285","1.33","351.4","1.9269999999999998","349.0","1019.465","25.55","59.06","0.0","0.0"],
    [1535241,"2026-08-28 23:30:00","6286","0.861","346.9","1.5030000000000001","343.0","1019.596","25.61","58.07","0.0","0.0"],
    [1535242,"2026-08-28 23:40:00","6287","0.9279999999999999","344.2","1.405","335.0","1019.665","25.6","57.41","0.0","0.0"],
    [1535243,"2026-08-28 23:50:00","6288","1.844","33.0","2.7769999999999997","25.03","1019.598","25.67","56.75","0.0","0.0"],
    [1535244,"2026-08-29 00:00:00","6289","1.7690000000000001","29.29","2.352","40.66","1019.496","25.63","57.17","0.0","0.0"],
    [1535245,"2026-08-29 00:10:00","6290","1.6219999999999999","34.62","2.352","39.6","1019.552","25.61","55.73","0.0","0.0"],
    [1535246,"2026-08-29 00:20:00","6291","1.405","11.91","2.025","348.2","1019.559","25.63","54.78","0.0","0.0"],
    [1535247,"2026-08-29 00:30:00","6292","1.508","26.18","2.025","13.1","1019.429","25.57","54.98","0.0","0.0"],
    [1535248,"2026-08-29 00:40:00","6293","1.827","12.51","2.319","17.05","1019.332","25.53","55.59","0.0","0.0"],
    [1535249,"2026-08-29 00:50:00","6294","2.286","17.58","3.201","10.87","1019.293","25.51","55.92","0.0","0.0"],
    [1535250,"2026-08-29 01:00:00","6295","2.27","23.18","2.875","14.88","1019.143","25.48","56.2","0.0","0.0"],
    [1535251,"2026-08-29 01:10:00","6296","2.793","20.96","3.528","12.29","1018.946","25.39","55.24","0.0","0.0"],
    [1535252,"2026-08-29 01:20:00","6297","2.58","17.37","3.234","20.81","1018.9","25.37","54.19","0.0","0.0"],
    [1535253,"2026-08-29 01:30:00","6298","2.311","1.287","3.659","2.88","1018.772","25.33","51.08","0.0","0.0"],
    [1535254,"2026-08-29 01:40:00","6299","2.8989999999999996","11.28","4.051","4.777","1018.607","25.31","52.7","0.0","0.0"],
    [1535255,"2026-08-29 01:50:00","6300","2.866","2.574","3.9530000000000003","6.037999999999999","1018.531","25.26","51.29","0.0","0.0"],
    [1535256,"2026-08-29 02:00:00","6301","2.323","350.9","3.365","2.1919999999999997","1018.496","25.25","50.8","0.0","0.0"],
    [1535257,"2026-08-29 02:10:00","6302","2.543","355.8","3.495","348.3","1018.486","25.23","49.27","0.0","0.0"],
    [1535258,"2026-08-29 02:20:00","6303","2.463","357.7","3.7239999999999998","4.449","1018.476","25.21","48.68","0.0","0.0"],
    [1535259,"2026-08-29 02:30:00","6304","2.21","1.7919999999999998","2.907","356.4","1018.404","25.15","49.55","0.0","0.0"],
    [1535260,"2026-08-29 02:40:00","6305","2.09","4.245","3.1689999999999996","2.9960000000000004","1018.324","25.07","49.67","0.0","0.0"],
    [1535261,"2026-08-29 02:50:00","6306","2.174","354.3","3.299","5.003","1018.306","24.96","49.77","0.0","0.0"],
    [1535262,"2026-08-29 03:00:00","6307","2.23","1.4269999999999998","3.1689999999999996","338.6","1018.265","24.84","48.49","0.0","0.0"],
    [1535263,"2026-08-29 03:10:00","6308","2.102","359.9","3.299","5.376","1018.21","24.82","47.81","0.0","0.0"],
    [1535264,"2026-08-29 03:20:00","6309","2.189","4.245","2.94","11.85","1018.159","24.78","48.3","0.0","0.0"],
    [1535265,"2026-08-29 03:30:00","6310","1.972","358.0","3.267","6.996","1018.144","24.76","47.76","0.0","0.0"],
    [1535266,"2026-08-29 03:40:00","6311","1.899","354.3","2.94","352.3","1018.163","24.8","47.37","0.0","0.0"],
    [1535267,"2026-08-29 03:50:00","6312","2.173","354.5","2.8089999999999997","353.2","1018.133","24.73","50.24","0.0","0.0"],
    [1535268,"2026-08-29 04:00:00","6313","2.104","352.3","2.875","356.2","1018.123","24.72","48.81","0.0","0.0"],
    [1535269,"2026-08-29 04:10:00","6314","1.6119999999999999","320.1","2.875","349.5","1018.186","24.55","48.29","0.0","0.0"],
    [1535270,"2026-08-29 04:20:00","6315","1.818","277.2","2.287","275.4","1018.192","23.51","49.89","0.0","0.0"],
    [1535271,"2026-08-29 04:30:00","6316","1.8459999999999999","276.2","2.515","279.1","1018.233","23.15","50.58","0.0","0.0"],
    [1535272,"2026-08-29 04:40:00","6317","1.9780000000000002","281.8","2.679","282.0","1018.223","22.87","51.57","0.0","0.0"],
    [1535273,"2026-08-29 04:50:00","6318","1.094","280.8","1.797","279.8","1018.283","22.87","51.95","0.0","0.0"],
    [1535274,"2026-08-29 05:00:00","6319","1.205","282.8","1.797","283.3","1018.372","23.02","52.14","0.0","0.0"],
    [1535275,"2026-08-29 05:10:00","6320","1.3430000000000002","275.0","2.254","261.4","1018.518","22.99","51.9","0.0","0.0"],
    [1535276,"2026-08-29 05:20:00","6321","1.68","262.4","2.5810000000000004","264.8","1018.712","22.82","51.79","1.7719999999999998","0.0"],
    [1535277,"2026-08-29 05:30:00","6322","2.377","266.2","3.0380000000000003","261.8","1018.861","22.68","52.25","10.93","0.0"],
    [1535278,"2026-08-29 05:40:00","6323","2.412","260.1","3.1689999999999996","262.2","1018.898","22.68","51.34","19.11","0.0"],
    [1535279,"2026-08-29 05:50:00","6324","2.478","263.2","2.907","259.8","1018.891","22.58","50.96","19.82","0.0"],
    [1535280,"2026-08-29 06:00:00","6325","2.588","265.9","2.9730000000000003","269.3","1018.882","22.52","50.92","53.04","0.0"],
    [1535281,"2026-08-29 06:10:00","6326","2.185","270.5","2.8089999999999997","269.5","1018.88","23.11","49.51","104.8","0.0"],
    [1535282,"2026-08-29 06:20:00","6327","1.896","272.3","2.45","271.9","1018.808","23.82","47.33","131.7","0.0"],
    [1535283,"2026-08-29 06:30:00","6328","1.7530000000000001","267.3","2.417","263.5","1018.851","24.29","45.88","164.9","0.0"],
    [1535284,"2026-08-29 06:40:00","6329","2.019","267.1","2.613","259.1","1018.918","24.75","44.52","195.7","0.0"],
    [1535285,"2026-08-29 06:50:00","6330","1.7280000000000002","266.5","2.679","264.2","1018.96","25.17","42.71","227.8","0.0"],
    [1535286,"2026-08-29 07:00:00","6331","1.8769999999999998","268.6","2.385","269.2","1019.016","25.37","41.31","261.3","0.0"],
    [1535287,"2026-08-29 07:10:00","6332","1.886","264.4","3.005","263.3","1019.078","25.63","39.93","295.2","0.0"],
    [1535288,"2026-08-29 07:20:00","6333","1.546","271.5","2.254","272.6","1019.06","25.93","39.25","327.7","0.0"],
    [1535289,"2026-08-29 07:30:00","6334","1.3319999999999999","278.9","2.189","273.9","1019.125","26.52","37.94","359.7","0.0"],
    [1535290,"2026-08-29 07:40:00","6335","0.794","309.5","1.307","287.5","1019.211","26.93","37.81","387.3","0.0"],
    [1535291,"2026-08-29 07:50:00","6336","0.565","299.8","1.4369999999999998","302.3","1019.208","26.91","37.5","414.1","0.0"],
    [1535292,"2026-08-29 08:00:00","6337","1.401","23.39","2.548","33.92","1019.25","26.99","41.21","452.1","0.0"],
    [1535293,"2026-08-29 08:10:00","6338","2.0469999999999997","30.59","2.7769999999999997","36.43","1019.393","25.94","43.48","482.2","0.0"],
    [1535294,"2026-08-29 08:20:00","6339","1.8619999999999999","32.27","2.679","43.68","1019.51","25.96","43.47","517.0","0.0"],
    [1535295,"2026-08-29 08:30:00","6340","2.072","32.3","2.907","34.69","1019.584","25.98","42.55","547.7","0.0"],
    [1535296,"2026-08-29 08:40:00","6341","2.3080000000000003","33.2","3.0380000000000003","30.03","1019.669","25.97","41.69","580.2","0.0"],
    [1535297,"2026-08-29 08:50:00","6342","2.1180000000000003","38.17","2.9730000000000003","33.19","1019.811","25.99","41.71","605.9","0.0"],
    [1535298,"2026-08-29 09:00:00","6343","2.184","45.41","3.1689999999999996","34.03","1019.919","26.13","38.31","633.3","0.0"],
    [1535299,"2026-08-29 09:10:00","6344","2.209","38.91","3.495","31.9","1019.983","26.21","38.96","658.7","0.0"],
    [1535300,"2026-08-29 09:20:00","6345","1.8730000000000002","43.46","3.103","69.99","1020.094","26.22","41.8","680.5","0.0"],
    [1535301,"2026-08-29 09:30:00","6346","2.086","39.45","3.463","33.2","1020.102","26.12","46.06","700.9","0.0"],
    [1535302,"2026-08-29 09:40:00","6347","1.6269999999999998","60.42","2.6460000000000004","50.89","1020.099","26.12","47.33","718.9","0.0"],
    [1535303,"2026-08-29 09:50:00","6348","0.98","93.9","1.8619999999999999","108.1","1020.1","26.49","46.04","738.4","0.0"],
    [1535304,"2026-08-29 10:00:00","6349","1.742","96.4","2.8089999999999997","91.9","1020.002","26.25","47.63","759.0","0.0"],
    [1535305,"2026-08-29 10:10:00","6350","1.829","91.9","3.005","95.4","1019.907","26.15","48.37","777.7","0.0"],
    [1535306,"2026-08-29 10:20:00","6351","2.3480000000000003","101.8","3.299","110.9","1019.839","26.02","50.21","796.3","0.0"],
    [1535307,"2026-08-29 10:30:00","6352","1.879","121.0","3.071","129.7","1019.803","26.05","50.51","810.0","0.0"],
    [1535308,"2026-08-29 10:40:00","6353","1.9709999999999999","138.7","3.1689999999999996","148.0","1019.745","26.25","50.16","824.0","0.0"],
    [1535309,"2026-08-29 10:50:00","6354","3.07","142.6","4.2139999999999995","138.4","1019.554","26.25","49.98","839.0","0.0"],
    [1535310,"2026-08-29 11:00:00","6355","3.2430000000000003","144.5","5.749","137.5","1019.448","26.1","51.77","850.0","0.0"],
    [1535311,"2026-08-29 11:10:00","6356","3.582","142.0","4.933","132.8","1019.357","25.99","52.66","859.0","0.0"],
    [1535312,"2026-08-29 11:20:00","6357","3.471","148.9","4.345","132.9","1019.355","26.18","52.67","865.0","0.0"],
    [1535313,"2026-08-29 11:30:00","6358","3.6180000000000003","150.9","4.671","147.0","1019.319","26.25","53.28","870.0","0.0"],
    [1535314,"2026-08-29 11:40:00","6359","3.642","158.2","5.292000000000001","164.9","1019.266","26.43","53.68","874.0","0.0"],
    [1535315,"2026-08-29 11:50:00","6360","3.647","154.3","4.573","151.9","1019.176","26.38","52.94","873.0","0.0"],
    [1535316,"2026-08-29 12:00:00","6361","3.725","151.0","4.933","152.0","1019.096","26.36","52.79","875.0","0.0"],
    [1535317,"2026-08-29 12:10:00","6362","3.7039999999999997","153.4","4.345","166.9","1019.018","26.42","52.97","873.0","0.0"],
    [1535318,"2026-08-29 12:20:00","6363","4.194","159.0","4.737","157.5","1018.918","26.45","55.64","869.0","0.0"],
    [1535319,"2026-08-29 12:30:00","6364","4.412","165.8","5.194","169.7","1018.829","26.55","56.44","863.0","0.0"],
    [1535320,"2026-08-29 12:40:00","6365","4.922","164.4","6.109","162.8","1018.697","26.56","55.93","857.0","0.0"],
    [1535321,"2026-08-29 12:50:00","6366","5.053999999999999","166.8","6.0760000000000005","179.9","1018.591","26.52","56.19","849.0","0.0"],
    [1535322,"2026-08-29 13:00:00","6367","5.257000000000001","168.9","6.207000000000001","166.6","1018.516","26.57","57.4","840.0","0.0"],
    [1535323,"2026-08-29 13:10:00","6368","5.76","170.5","7.023","169.5","1018.394","26.56","57.82","828.0","0.0"],
    [1535324,"2026-08-29 13:20:00","6369","6.093999999999999","176.2","7.35","178.0","1018.307","26.44","57.9","814.0","0.0"],
    [1535325,"2026-08-29 13:30:00","6370","6.426","176.5","7.742000000000001","181.0","1018.204","26.33","60.68","801.0","0.0"],
    [1535326,"2026-08-29 13:40:00","6371","6.922000000000001","179.7","7.807","182.0","1018.042","26.4","60.0","786.2","0.0"],
    [1535327,"2026-08-29 13:50:00","6372","6.672000000000001","183.6","8.07","183.0","1018.005","26.49","60.26","767.0","0.0"],
    [1535328,"2026-08-29 14:00:00","6373","6.952000000000001","181.1","8.46","175.1","1017.96","26.46","61.56","747.9","0.0"],
    [1535329,"2026-08-29 14:10:00","6374","6.8629999999999995","178.5","7.872999999999999","180.3","1017.877","26.43","62.46","726.5","0.0"],
    [1535330,"2026-08-29 14:20:00","6375","6.829","185.6","8.23","181.8","1017.853","26.7","58.51","704.1","0.0"],
    [1535331,"2026-08-29 14:30:00","6376","7.064","189.1","9.41","185.0","1017.728","26.89","56.4","680.7","0.0"],
    [1535332,"2026-08-29 14:40:00","6377","6.655","191.0","8.56","187.5","1017.64","27.05","56.61","655.6","0.0"],
    [1535333,"2026-08-29 14:50:00","6378","6.472","188.9","8.2","191.7","1017.552","27.08","56.41","629.0","0.0"],
    [1535334,"2026-08-29 15:00:00","6379","6.805","189.3","9.34","202.5","1017.458","27.05","55.78","600.9","0.0"],
    [1535335,"2026-08-29 15:10:00","6380","6.5729999999999995","186.8","8.75","191.5","1017.429","27.0","57.31","571.6","0.0"],
    [1535336,"2026-08-29 15:20:00","6381","6.534","185.7","8.66","181.9","1017.278","27.03","56.71","545.0","0.0"],
    [1535337,"2026-08-29 15:30:00","6382","5.952999999999999","195.5","8.26","188.0","1017.219","27.25","56.09","517.0","0.0"],
    [1535338,"2026-08-29 15:40:00","6383","5.477","201.1","7.807","196.9","1017.13","27.63","54.19","488.4","0.0"],
    [1535339,"2026-08-29 15:50:00","6384","5.7860000000000005","195.7","8.3","192.6","1017.055","27.54","54.64","461.2","0.0"],
    [1535340,"2026-08-29 16:00:00","6385","5.309","202.8","9.18","196.9","1017.047","27.81","53.15","433.2","0.0"],
    [1535341,"2026-08-29 16:10:00","6386","5.915","202.4","8.59","208.0","1016.969","27.76","53.3","406.8","0.0"],
    [1535342,"2026-08-29 16:20:00","6387","5.871","197.9","8.82","199.5","1016.923","27.7","53.83","375.8","0.0"],
    [1535343,"2026-08-29 16:30:00","6388","5.494","195.6","8.75","190.9","1016.834","27.47","55.15","343.6","0.0"],
    [1535344,"2026-08-29 16:40:00","6389","5.71","199.1","7.415","199.3","1016.806","27.51","54.86","309.0","0.0"],
    [1535345,"2026-08-29 16:50:00","6390","4.834","205.2","7.546","185.0","1016.801","27.51","55.48","273.2","0.0"],
    [1535346,"2026-08-29 17:00:00","6391","4.475","215.3","7.938","226.6","1016.767","27.62","54.55","238.2","0.0"],
    [1535347,"2026-08-29 17:10:00","6392","4.417","210.3","6.9910000000000005","212.5","1016.72","27.62","54.76","203.3","0.0"],
    [1535348,"2026-08-29 17:20:00","6393","4.25","215.9","7.35","237.2","1016.671","27.63","55.46","169.7","0.0"],
    [1535349,"2026-08-29 17:30:00","6394","4.965","201.6","7.6770000000000005","203.0","1016.556","27.31","57.13","139.5","0.0"],
    [1535350,"2026-08-29 17:40:00","6395","5.194","195.8","7.285","195.9","1016.568","27.2","58.78","110.4","0.0"],
    [1535351,"2026-08-29 17:50:00","6396","5.079","199.5","7.611000000000001","191.2","1016.57","27.04","59.44","84.2","0.0"],
    [1535352,"2026-08-29 18:00:00","6397","4.632","197.7","6.697","199.3","1016.568","26.98","60.3","59.16","0.0"],
    [1535353,"2026-08-29 18:10:00","6398","2.819","212.9","5.096","218.9","1016.65","26.94","59.82","35.38","0.0"],
    [1535354,"2026-08-29 18:20:00","6399","2.5469999999999997","214.8","4.638999999999999","230.3","1016.735","26.99","59.77","17.0","0.0"],
    [1535355,"2026-08-29 18:30:00","6400","3.563","203.5","6.0760000000000005","197.7","1016.714","26.79","61.21","4.814","0.0"],
    [1535356,"2026-08-29 18:40:00","6401","2.867","213.9","4.638999999999999","232.6","1016.726","26.83","61.07","0.535","0.0"],
    [1535357,"2026-08-29 18:50:00","6402","3.515","223.2","5.325","201.5","1016.725","26.79","60.9","0.0","0.0"],
    [1535358,"2026-08-29 19:00:00","6403","3.477","223.1","5.619","230.0","1016.757","26.73","61.36","0.0","0.0"],
    [1535359,"2026-08-29 19:10:00","6404","3.2110000000000003","221.1","6.37","223.6","1016.845","26.71","61.42","0.0","0.0"],
    [1535360,"2026-08-29 19:20:00","6405","1.557","218.1","3.7239999999999998","225.0","1017.01","26.65","61.67","0.0","0.0"],
    [1535361,"2026-08-29 19:30:00","6406","1.834","224.2","3.495","228.2","1017.097","26.63","62.03","0.0","0.0"],
    [1535362,"2026-08-29 19:40:00","6407","2.923","232.0","5.945","210.5","1017.157","26.65","61.41","0.0","0.0"],
    [1535363,"2026-08-29 19:50:00","6408","2.115","236.0","3.332","222.5","1017.265","26.58","61.51","0.0","0.0"],
    [1535364,"2026-08-29 20:00:00","6409","2.61","233.8","4.638999999999999","224.1","1017.37","26.49","61.67","0.0","0.0"],
    [1535365,"2026-08-29 20:10:00","6410","2.093","230.9","3.234","245.7","1017.46","26.43","62.05","0.0","0.0"],
    [1535366,"2026-08-29 20:20:00","6411","1.406","249.8","3.299","267.1","1017.553","26.4","61.76","0.0","0.0"],
    [1535367,"2026-08-29 20:30:00","6412","1.126","277.6","2.613","281.7","1017.725","26.33","62.09","0.0","0.0"],
    [1535368,"2026-08-29 20:40:00","6413","0.44299999999999995","292.4","1.7309999999999999","248.0","1017.791","26.25","62.63","0.0","0.0"],
    [1535369,"2026-08-29 20:50:00","6414","0.9079999999999999","267.0","1.7309999999999999","288.0","1017.825","26.1","63.21","0.0","0.0"],
    [1535370,"2026-08-29 21:00:00","6415","0.324","185.0","1.143","240.7","1017.887","26.14","64.7","0.0","0.0"],
    [1535371,"2026-08-29 21:10:00","6416","0.32799999999999996","215.9","0.9470000000000001","229.0","1017.931","25.99","63.67","0.0","0.0"],
    [1535372,"2026-08-29 21:20:00","6417","1.531","205.5","2.123","207.7","1017.899","26.06","63.48","0.0","0.0"],
    [1535373,"2026-08-29 21:30:00","6418","1.3219999999999998","185.5","1.8619999999999999","165.9","1017.93","26.11","64.78","0.0","0.0"],
    [1535374,"2026-08-29 21:40:00","6419","1.5290000000000001","218.7","2.417","230.4","1017.932","25.9","64.59","0.0","0.0"],
    [1535375,"2026-08-29 21:50:00","6420","1.274","212.2","2.287","213.1","1017.935","26.01","64.54","0.0","0.0"],
    [1535376,"2026-08-29 22:00:00","6421","2.0140000000000002","202.6","2.907","196.8","1017.94","25.94","66.25","0.0","0.0"],
    [1535377,"2026-08-29 22:10:00","6422","1.653","207.5","2.7110000000000003","200.0","1017.96","25.81","66.25","0.0","0.0"],
    [1535378,"2026-08-29 22:20:00","6423","1.056","210.0","1.797","206.7","1018.034","25.82","63.97","0.0","0.0"],
    [1535379,"2026-08-29 22:30:00","6424","0.731","223.7","1.3719999999999999","209.9","1018.097","25.82","63.23","0.0","0.0"],
    [1535380,"2026-08-29 22:40:00","6425","1.101","249.3","2.0580000000000003","252.8","1018.087","25.85","63.13","0.0","0.0"],
    [1535381,"2026-08-29 22:50:00","6426","0.905","262.1","1.764","264.9","1018.119","25.72","64.19","0.0","0.0"],
    [1535382,"2026-08-29 23:00:00","6427","1.5619999999999998","268.8","2.189","270.3","1018.122","25.5","64.68","0.0","0.0"],
    [1535383,"2026-08-29 23:10:00","6428","1.0070000000000001","277.1","1.699","257.6","1018.125","25.34","65.31","0.0","0.0"],
    [1535384,"2026-08-29 23:20:00","6429","1.143","282.4","1.633","259.5","1018.181","25.11","65.71","0.0","0.0"],
    [1535385,"2026-08-29 23:30:00","6430","0.934","290.9","1.405","280.5","1018.135","25.02","65.36","0.0","0.0"],
    [1535386,"2026-08-29 23:40:00","6431","1.033","295.0","1.666","304.1","1018.118","25.02","65.83","0.0","0.0"],
    [1535387,"2026-08-29 23:50:00","6432","1.617","299.3","2.287","297.0","1018.103","25.09","65.23","0.0","0.0"],
    [1535388,"2026-08-30 00:00:00","6433","1.9040000000000001","282.1","2.548","287.1","1018.041","25.21","63.79","0.0","0.0"],
    [1535389,"2026-08-30 00:10:00","6434","1.194","277.9","1.895","280.2","1018.062","25.2","63.99","0.0","0.0"],
    [1535390,"2026-08-30 00:20:00","6435","1.48","265.4","1.96","265.6","1017.958","25.07","64.68","0.0","0.0"],
    [1535391,"2026-08-30 00:30:00","6436","0.856","286.1","1.699","274.2","1017.9","24.85","65.42","0.0","0.0"],
    [1535392,"2026-08-30 00:40:00","6437","0.983","305.2","1.535","336.4","1017.805","24.83","66.36","0.0","0.0"],
    [1535393,"2026-08-30 00:50:00","6438","1.117","278.3","1.601","269.7","1017.706","24.8","65.8","0.0","0.0"],
    [1535394,"2026-08-30 01:00:00","6439","1.511","259.3","1.96","263.7","1017.664","24.75","65.32","0.0","0.0"],
    [1535395,"2026-08-30 01:10:00","6440","1.016","245.6","1.633","267.8","1017.701","24.79","64.83","0.0","0.0"],
    [1535396,"2026-08-30 01:20:00","6441","1.19","252.1","1.699","262.7","1017.673","24.71","64.84","0.0","0.0"],
    [1535397,"2026-08-30 01:30:00","6442","0.948","259.1","1.3719999999999999","278.2","1017.746","24.65","65.61","0.0","0.0"],
    [1535398,"2026-08-30 01:40:00","6443","1.1179999999999999","269.1","1.535","258.5","1017.737","24.43","66.01","0.0","0.0"],
    [1535399,"2026-08-30 01:50:00","6444","1.6219999999999999","270.1","2.254","262.9","1017.751","24.19","67.02","0.0","0.0"],
    [1535400,"2026-08-30 02:00:00","6445","1.66","265.3","2.254","264.3","1017.698","23.99","67.49","0.0","0.0"],
    [1535401,"2026-08-30 02:10:00","6446","1.723","261.6","2.0580000000000003","259.5","1017.611","23.95","67.57","0.0","0.0"],
    [1535402,"2026-08-30 02:20:00","6447","1.037","259.7","1.8619999999999999","255.9","1017.548","23.92","67.81","0.0","0.0"],
    [1535403,"2026-08-30 02:30:00","6448","1.185","255.8","1.4369999999999998","257.2","1017.494","23.88","68.04","0.0","0.0"],
    [1535404,"2026-08-30 02:40:00","6449","1.162","248.6","1.8619999999999999","261.3","1017.455","23.87","68.06","0.0","0.0"],
    [1535405,"2026-08-30 02:50:00","6450","1.3980000000000001","252.4","1.993","262.6","1017.378","23.76","68.62","0.0","0.0"],
    [1535406,"2026-08-30 03:00:00","6451","1.3530000000000002","257.3","1.797","264.6","1017.365","23.72","69.0","0.0","0.0"],
    [1535407,"2026-08-30 03:10:00","6452","1.839","264.4","2.483","262.6","1017.402","23.66","69.73","0.0","0.0"],
    [1535408,"2026-08-30 03:20:00","6453","1.9909999999999999","262.2","2.6460000000000004","265.0","1017.384","23.56","69.78","0.0","0.0"],
    [1535409,"2026-08-30 03:30:00","6454","2.233","264.3","2.8089999999999997","265.0","1017.363","23.56","70.22","0.0","0.0"],
    [1535410,"2026-08-30 03:40:00","6455","1.7590000000000001","263.9","2.875","269.6","1017.358","23.55","70.43","0.0","0.0"],
    [1535411,"2026-08-30 03:50:00","6456","1.673","259.5","2.5810000000000004","267.9","1017.392","23.46","70.86","0.0","0.0"],
    [1535412,"2026-08-30 04:00:00","6457","1.817","262.3","3.005","262.0","1017.411","23.52","70.7","0.0","0.0"],
    [1535413,"2026-08-30 04:10:00","6458","2.068","259.4","3.1689999999999996","263.2","1017.371","23.46","70.96","0.0","0.0"],
    [1535414,"2026-08-30 04:20:00","6459","1.89","260.7","3.136","261.7","1017.365","23.43","70.86","0.0","0.0"],
    [1535415,"2026-08-30 04:30:00","6460","1.659","261.3","2.352","247.1","1017.343","23.36","70.78","0.0","0.0"],
    [1535416,"2026-08-30 04:40:00","6461","2.202","265.4","2.842","272.6","1017.277","23.26","70.61","0.0","0.0"],
    [1535417,"2026-08-30 04:50:00","6462","1.8159999999999998","260.5","2.7439999999999998","259.5","1017.246","23.13","70.21","0.0","0.0"],
    [1535418,"2026-08-30 05:00:00","6463","2.122","265.4","2.94","281.0","1017.266","23.03","70.19","0.0","0.0"],
    [1535419,"2026-08-30 05:10:00","6464","1.148","248.8","1.8619999999999999","250.6","1017.3","23.03","70.17","0.0","0.0"],
    [1535420,"2026-08-30 05:20:00","6465","0.903","260.5","1.9269999999999998","246.9","1017.374","22.99","69.52","2.006","0.0"],
    [1535421,"2026-08-30 05:30:00","6466","1.757","254.8","2.9730000000000003","264.8","1017.396","22.99","68.86","11.13","0.0"],
    [1535422,"2026-08-30 05:40:00","6467","1.536","258.4","2.319","259.5","1017.452","23.08","67.54","28.63","0.0"],
    [1535423,"2026-08-30 05:50:00","6468","2.353","261.9","3.0380000000000003","261.0","1017.569","23.3","66.24","41.23","0.0"],
    [1535424,"2026-08-30 06:00:00","6469","1.757","253.6","3.234","256.7","1017.645","23.25","66.3","59.44","0.0"],
    [1535425,"2026-08-30 06:10:00","6470","2.088","265.5","3.332","269.3","1017.692","23.53","65.04","102.0","0.0"],
    [1535426,"2026-08-30 06:20:00","6471","2.065","263.8","2.907","265.0","1017.685","24.12","62.58","130.4","0.0"],
    [1535427,"2026-08-30 06:30:00","6472","1.715","281.1","2.613","273.7","1017.693","24.76","60.67","160.5","0.0"],
    [1535428,"2026-08-30 06:40:00","6473","1.48","274.9","2.483","264.2","1017.757","25.45","58.44","192.1","0.0"],
    [1535429,"2026-08-30 06:50:00","6474","1.6269999999999998","266.3","2.8089999999999997","264.4","1017.802","25.63","57.14","223.8","0.0"],
    [1535430,"2026-08-30 07:00:00","6475","1.685","273.4","2.8089999999999997","281.6","1017.826","26.0","55.9","258.1","0.0"],
    [1535431,"2026-08-30 07:10:00","6476","1.3159999999999998","259.9","2.0909999999999997","265.1","1017.858","26.39","54.25","290.0","0.0"],
    [1535432,"2026-08-30 07:20:00","6477","0.965","234.2","1.829","260.2","1017.905","26.32","53.68","320.4","0.0"],
    [1535433,"2026-08-30 07:30:00","6478","0.284","201.5","1.209","188.4","1017.942","26.45","54.75","350.7","0.0"],
    [1535434,"2026-08-30 07:40:00","6479","0.313","99.5","1.274","95.0","1017.951","26.04","57.52","381.8","0.0"],
    [1535435,"2026-08-30 07:50:00","6480","1.494","103.7","2.254","93.3","1017.983","25.4","63.94","414.5","0.0"],
    [1535436,"2026-08-30 08:00:00","6481","1.1740000000000002","111.5","1.666","97.6","1018.043","25.21","65.43","443.1","0.0"],
    [1535437,"2026-08-30 08:10:00","6482","0.968","126.0","1.3719999999999999","108.9","1018.117","25.59","63.12","470.4","0.0"],
    [1535438,"2026-08-30 08:20:00","6483","1.47","105.0","1.993","94.1","1018.159","25.56","63.0","503.7","0.0"],
    [1535439,"2026-08-30 08:30:00","6484","1.7009999999999998","109.1","1.993","111.5","1018.189","25.32","63.78","537.6","0.0"],
    [1535440,"2026-08-30 08:40:00","6485","1.4669999999999999","121.1","1.797","129.4","1018.25","25.54","63.52","566.8","0.0"],
    [1535441,"2026-08-30 08:50:00","6486","2.016","113.5","2.5810000000000004","109.7","1018.3","25.62","64.71","596.4","0.0"],
    [1535442,"2026-08-30 09:00:00","6487","2.319","136.8","2.9730000000000003","132.6","1018.278","25.7","64.44","624.6","0.0"],
    [1535443,"2026-08-30 09:10:00","6488","2.367","143.2","3.397","151.1","1018.228","25.93","63.82","649.3","0.0"],
    [1535444,"2026-08-30 09:20:00","6489","2.073","150.7","2.7110000000000003","145.1","1018.203","26.29","62.5","669.8","0.0"],
    [1535445,"2026-08-30 09:30:00","6490","2.7939999999999996","175.4","4.247","168.0","1018.19","27.01","62.22","691.0","0.0"],
    [1535446,"2026-08-30 09:40:00","6491","4.27","175.8","5.357","171.6","1018.107","26.65","70.48","712.6","0.0"],
    [1535447,"2026-08-30 09:50:00","6492","4.638","180.8","5.782","187.5","1018.086","26.5","71.21","729.3","0.0"],
    [1535448,"2026-08-30 10:00:00","6493","4.922","180.4","6.042999999999999","177.3","1017.982","26.61","71.7","746.9","0.0"],
    [1535449,"2026-08-30 10:10:00","6494","4.937","184.4","6.305","189.5","1018.008","26.58","70.9","764.3","0.0"],
    [1535450,"2026-08-30 10:20:00","6495","4.986000000000001","180.8","6.141","174.4","1017.985","26.71","73.17","783.1","0.0"],
    [1535451,"2026-08-30 10:30:00","6496","5.228","178.4","6.468","171.6","1017.973","26.54","75.38","799.4","0.0"],
    [1535452,"2026-08-30 10:40:00","6497","4.975","183.0","6.305","187.7","1017.983","26.56","74.49","813.0","0.0"],
    [1535453,"2026-08-30 10:50:00","6498","4.752","182.8","6.1739999999999995","186.0","1017.91","26.77","74.46","826.0","0.0"],
    [1535454,"2026-08-30 11:00:00","6499","4.926","184.1","6.435","189.8","1017.88","26.69","75.5","836.0","0.0"],
    [1535455,"2026-08-30 11:10:00","6500","5.111000000000001","185.7","6.272","190.8","1017.826","26.81","74.75","846.0","0.0"],
    [1535456,"2026-08-30 11:20:00","6501","5.1579999999999995","181.9","6.37","175.5","1017.785","26.85","74.06","853.0","0.0"],
    [1535457,"2026-08-30 11:30:00","6502","5.146","181.7","6.957999999999999","184.2","1017.679","26.97","74.19","859.0","0.0"],
    [1535458,"2026-08-30 11:40:00","6503","5.615","178.1","7.154","173.9","1017.589","26.8","75.56","862.0","0.0"],
    [1535459,"2026-08-30 11:50:00","6504","5.566","181.1","7.0889999999999995","191.2","1017.515","26.99","73.33","865.0","0.0"],
    [1535460,"2026-08-30 12:00:00","6505","5.769","184.8","7.285","182.5","1017.48","27.15","71.52","867.0","0.0"],
    [1535461,"2026-08-30 12:10:00","6506","5.736000000000001","184.4","7.35","187.5","1017.421","27.21","68.35","863.0","0.0"],
    [1535462,"2026-08-30 12:20:00","6507","6.114","184.5","7.382999999999999","184.9","1017.337","27.3","66.29","859.0","0.0"],
    [1535463,"2026-08-30 12:30:00","6508","5.856","180.5","7.4479999999999995","179.5","1017.249","27.25","67.14","852.0","0.0"],
    [1535464,"2026-08-30 12:40:00","6509","5.829","184.9","7.4479999999999995","172.3","1017.212","27.41","66.44","846.0","0.0"],
    [1535465,"2026-08-30 12:50:00","6510","5.577999999999999","187.8","7.546","184.6","1017.173","27.49","66.49","840.0","0.0"],
    [1535466,"2026-08-30 13:00:00","6511","5.099","193.5","7.0889999999999995","213.7","1017.111","27.75","66.12","833.0","0.0"],
    [1535467,"2026-08-30 13:10:00","6512","5.747000000000001","197.3","8.13","197.7","1016.989","27.88","64.81","826.0","0.0"],
    [1535468,"2026-08-30 13:20:00","6513","6.555","189.6","8.85","187.2","1016.882","27.86","64.15","815.0","0.0"],
    [1535469,"2026-08-30 13:30:00","6514","5.827000000000001","193.7","7.84","194.4","1016.875","27.98","62.56","802.0","0.0"],
    [1535470,"2026-08-30 13:40:00","6515","5.8870000000000005","196.2","8.2","195.6","1016.801","28.27","60.6","785.2","0.0"],
    [1535471,"2026-08-30 13:50:00","6516","6.6129999999999995","194.1","8.66","191.9","1016.691","28.14","61.97","767.7","0.0"],
    [1535472,"2026-08-30 14:00:00","6517","6.422999999999999","193.7","8.4","202.4","1016.6","28.17","61.8","749.4","0.0"],
    [1535473,"2026-08-30 14:10:00","6518","6.202000000000001","194.2","8.43","210.1","1016.527","28.14","62.78","729.9","0.0"],
    [1535474,"2026-08-30 14:20:00","6519","6.297000000000001","195.3","9.31","198.5","1016.466","28.28","61.9","707.4","0.0"],
    [1535475,"2026-08-30 14:30:00","6520","5.395","199.3","8.2","198.8","1016.372","28.64","60.76","681.8","0.0"],
    [1535476,"2026-08-30 14:40:00","6521","6.8","196.0","10.0","189.5","1016.218","28.31","61.89","657.6","0.0"],
    [1535477,"2026-08-30 14:50:00","6522","7.186","199.7","9.77","203.6","1016.119","28.1","61.2","630.0","0.0"],
    [1535478,"2026-08-30 15:00:00","6523","7.08","197.8","9.21","208.2","1016.02","28.21","60.25","602.4","0.0"],
    [1535479,"2026-08-30 15:10:00","6524","5.705","201.7","10.06","185.5","1016.019","28.36","59.47","574.6","0.0"],
    [1535480,"2026-08-30 15:20:00","6525","5.605","206.4","8.26","208.4","1015.918","28.5","57.14","546.6","0.0"],
    [1535481,"2026-08-30 15:30:00","6526","5.226","205.1","8.26","215.5","1015.818","28.77","53.55","519.4","0.0"],
    [1535482,"2026-08-30 15:40:00","6527","5.957999999999999","201.6","8.3","198.8","1015.769","28.61","57.02","491.4","0.0"],
    [1535483,"2026-08-30 15:50:00","6528","4.959","210.7","7.807","180.0","1015.739","28.68","58.32","461.6","0.0"],
    [1535484,"2026-08-30 16:00:00","6529","4.547","206.7","7.187","207.4","1015.685","28.94","58.76","435.1","0.0"],
    [1535485,"2026-08-30 16:10:00","6530","4.636","206.8","7.415","185.0","1015.693","28.89","57.61","406.5","0.0"],
    [1535486,"2026-08-30 16:20:00","6531","4.172","213.9","8.13","218.3","1015.716","28.92","55.69","375.9","0.0"],
    [1535487,"2026-08-30 16:30:00","6532","5.175","225.2","8.3","235.6","1015.769","28.72","55.4","344.2","0.0"],
    [1535488,"2026-08-30 16:40:00","6533","4.8069999999999995","221.0","8.23","230.9","1015.78","28.46","58.12","309.2","0.0"],
    [1535489,"2026-08-30 16:50:00","6534","4.57","218.0","6.893","234.4","1015.766","28.43","58.13","271.8","0.0"],
    [1535490,"2026-08-30 17:00:00","6535","3.8539999999999996","214.9","6.827000000000001","198.1","1015.705","28.53","59.83","235.8","0.0"],
    [1535491,"2026-08-30 17:10:00","6536","4.567","217.1","6.893","196.3","1015.688","28.28","59.47","202.0","0.0"],
    [1535492,"2026-08-30 17:20:00","6537","5.3229999999999995","211.8","7.938","193.8","1015.657","27.95","61.56","168.4","0.0"],
    [1535493,"2026-08-30 17:30:00","6538","4.564","211.7","7.252000000000001","219.8","1015.611","27.75","63.39","137.1","0.0"],
    [1535494,"2026-08-30 17:40:00","6539","3.687","214.1","7.4479999999999995","215.5","1015.625","27.8","64.2","107.3","0.0"],
    [1535495,"2026-08-30 17:50:00","6540","4.227","213.1","6.664","223.4","1015.626","27.63","65.85","81.4","0.0"],
    [1535496,"2026-08-30 18:00:00","6541","4.296","218.9","7.611000000000001","221.2","1015.647","27.44","65.83","55.8","0.0"],
    [1535497,"2026-08-30 18:10:00","6542","3.759","219.6","6.403","207.3","1015.717","27.29","67.06","32.75","0.0"],
    [1535498,"2026-08-30 18:20:00","6543","3.4810000000000003","221.2","5.357","213.1","1015.737","27.14","66.71","14.25","0.0"],
    [1535499,"2026-08-30 18:30:00","6544","2.971","235.2","5.227","257.6","1015.702","27.13","67.07","3.33","0.0"],
    [1535500,"2026-08-30 18:40:00","6545","2.23","235.8","5.096","207.9","1015.694","27.06","67.04","0.114","0.0"],
    [1535501,"2026-08-30 18:50:00","6546","2.927","233.3","6.1739999999999995","209.5","1015.794","26.98","67.52","0.0","0.0"],
    [1535502,"2026-08-30 19:00:00","6547","2.753","223.0","4.9","208.6","1015.871","26.93","68.11","0.0","0.0"],
    [1535503,"2026-08-30 19:10:00","6548","3.745","218.1","5.847","222.2","1015.973","26.78","68.81","0.0","0.0"],
    [1535504,"2026-08-30 19:20:00","6549","4.003","222.8","6.697","228.3","1016.149","26.65","68.65","0.0","0.0"],
    [1535505,"2026-08-30 19:30:00","6550","3.957","223.2","6.957999999999999","233.0","1016.276","26.61","68.37","0.0","0.0"],
    [1535506,"2026-08-30 19:40:00","6551","3.995","218.5","6.566","213.0","1016.405","26.58","67.84","0.0","0.0"],
    [1535507,"2026-08-30 19:50:00","6552","3.15","214.7","5.782","225.1","1016.478","26.54","67.85","0.0","0.0"],
    [1535508,"2026-08-30 20:00:00","6553","3.7460000000000004","218.9","5.651","224.6","1016.504","26.5","66.94","0.0","0.0"],
    [1535509,"2026-08-30 20:10:00","6554","3.892","219.7","6.5329999999999995","225.9","1016.546","26.5","66.71","0.0","0.0"],
    [1535510,"2026-08-30 20:20:00","6555","3.213","220.0","5.749","226.0","1016.532","26.47","66.6","0.0","0.0"],
    [1535511,"2026-08-30 20:30:00","6556","3.014","212.9","5.684","209.1","1016.605","26.38","66.36","0.0","0.0"],
    [1535512,"2026-08-30 20:40:00","6557","3.11","218.3","5.619","212.9","1016.68","26.28","66.27","0.0","0.0"],
    [1535513,"2026-08-30 20:50:00","6558","2.875","220.0","5.684","217.5","1016.724","26.27","66.24","0.0","0.0"],
    [1535514,"2026-08-30 21:00:00","6559","3.2430000000000003","219.4","5.782","213.4","1016.736","26.25","66.01","0.0","0.0"],
    [1535515,"2026-08-30 21:10:00","6560","2.371","221.1","4.247","236.0","1016.726","26.21","67.28","0.0","0.0"],
    [1535516,"2026-08-30 21:20:00","6561","2.295","220.4","4.541","200.8","1016.69","26.15","68.37","0.0","0.0"],
    [1535517,"2026-08-30 21:30:00","6562","2.8089999999999997","220.1","4.737","199.7","1016.742","26.06","68.94","0.0","0.0"],
    [1535518,"2026-08-30 21:40:00","6563","3.266","221.5","5.129","207.5","1016.802","25.96","69.16","0.0","0.0"],
    [1535519,"2026-08-30 21:50:00","6564","2.372","220.8","3.528","221.9","1016.873","25.96","69.66","0.0","0.0"],
    [1535520,"2026-08-30 22:00:00","6565","2.178","225.8","3.822","212.2","1016.983","25.92","70.21","0.0","0.0"],
    [1535521,"2026-08-30 22:10:00","6566","1.973","232.1","3.5610000000000004","224.9","1017.074","25.86","70.25","0.0","0.0"],
    [1535522,"2026-08-30 22:20:00","6567","1.835","241.3","3.528","221.5","1017.12","25.77","70.12","0.0","0.0"],
    [1535523,"2026-08-30 22:30:00","6568","1.181","253.3","2.7110000000000003","240.5","1017.046","25.67","70.37","0.0","0.0"],
    [1535524,"2026-08-30 22:40:00","6569","1.026","235.5","2.319","229.1","1017.026","25.55","70.68","0.0","0.0"],
    [1535525,"2026-08-30 22:50:00","6570","0.815","248.0","1.797","235.9","1017.084","25.42","70.63","0.0","0.0"],
    [1535526,"2026-08-30 23:00:00","6571","1.008","250.1","1.96","241.3","1017.071","25.22","69.26","0.0","0.0"],
    [1535527,"2026-08-30 23:10:00","6572","0.818","249.1","1.601","242.6","1017.077","24.98","66.65","0.0","0.0"],
    [1535528,"2026-08-30 23:20:00","6573","0.528","251.8","1.339","232.1","1017.159","24.88","63.92","0.0","0.0"],
    [1535529,"2026-08-30 23:30:00","6574","0.787","252.0","1.601","261.4","1017.182","24.78","60.91","0.0","0.0"],
    [1535530,"2026-08-30 23:40:00","6575","0.645","228.7","1.405","264.9","1017.217","25.0","59.47","0.0","0.0"],
    [1535531,"2026-08-30 23:50:00","6576","1.141","221.3","1.8619999999999999","226.4","1017.247","25.09","59.39","0.0","0.0"],
    [1535532,"2026-08-31 00:00:00","6577","1.4980000000000002","226.1","2.221","216.1","1017.212","25.32","59.24","0.0","0.0"],
    [1535533,"2026-08-31 00:10:00","6578","1.4180000000000001","229.3","2.0909999999999997","226.1","1017.22","25.41","59.94","0.0","0.0"],
    [1535534,"2026-08-31 00:20:00","6579","1.546","232.7","2.319","231.7","1017.239","25.42","59.84","0.0","0.0"],
    [1535535,"2026-08-31 00:30:00","6580","1.253","243.2","2.0580000000000003","236.3","1017.304","25.28","60.3","0.0","0.0"],
    [1535536,"2026-08-31 00:40:00","6581","1.2930000000000001","259.9","2.417","225.3","1017.307","24.85","60.82","0.0","0.0"],
    [1535537,"2026-08-31 00:50:00","6582","1.042","222.8","2.287","234.9","1017.333","24.83","62.84","0.0","0.0"],
    [1535538,"2026-08-31 01:00:00","6583","1.3090000000000002","249.3","1.895","239.5","1017.341","24.66","61.66","0.0","0.0"],
    [1535539,"2026-08-31 01:10:00","6584","1.311","261.1","2.287","220.7","1017.326","24.36","61.04","0.0","0.0"],
    [1535540,"2026-08-31 01:20:00","6585","1.49","270.4","2.287","224.2","1017.373","24.33","62.36","0.0","0.0"],
    [1535541,"2026-08-31 01:30:00","6586","1.787","265.6","2.45","270.0","1017.432","24.26","62.81","0.0","0.0"],
    [1535542,"2026-08-31 01:40:00","6587","1.168","253.3","2.0909999999999997","264.0","1017.446","24.35","62.24","0.0","0.0"],
    [1535543,"2026-08-31 01:50:00","6588","0.9840000000000001","253.2","1.274","249.7","1017.407","24.35","61.52","0.0","0.0"],
    [1535544,"2026-08-31 02:00:00","6589","0.903","248.4","1.274","250.0","1017.414","24.33","61.34","0.0","0.0"],
    [1535545,"2026-08-31 02:10:00","6590","0.491","239.8","1.013","238.9","1017.44","24.38","61.82","0.0","0.0"],
    [1535546,"2026-08-31 02:20:00","6591","0.608","251.4","1.47","249.5","1017.443","24.43","62.8","0.0","0.0"],
    [1535547,"2026-08-31 02:30:00","6592","0.938","250.2","1.633","266.9","1017.393","24.43","63.58","0.0","0.0"],
    [1535548,"2026-08-31 02:40:00","6593","1.9080000000000001","266.3","2.417","267.9","1017.427","24.32","62.9","0.0","0.0"],
    [1535549,"2026-08-31 02:50:00","6594","1.931","278.2","2.385","275.7","1017.454","24.19","64.08","0.0","0.0"],
    [1535550,"2026-08-31 03:00:00","6595","1.6","290.5","2.0580000000000003","292.9","1017.476","24.18","65.09","0.0","0.0"],
    [1535551,"2026-08-31 03:10:00","6596","1.284","268.4","1.797","270.8","1017.513","24.34","66.03","0.0","0.0"],
    [1535552,"2026-08-31 03:20:00","6597","1.3419999999999999","265.1","1.8619999999999999","277.4","1017.514","24.51","66.71","0.0","0.0"],
    [1535553,"2026-08-31 03:30:00","6598","1.681","268.1","1.993","259.8","1017.508","24.23","66.17","0.0","0.0"],
    [1535554,"2026-08-31 03:40:00","6599","1.675","264.7","1.96","265.1","1017.55","24.09","66.0","0.0","0.0"],
    [1535555,"2026-08-31 03:50:00","6600","1.595","272.3","1.96","266.0","1017.555","24.03","66.4","0.0","0.0"],
    [1535556,"2026-08-31 04:00:00","6601","1.157","267.9","1.601","277.7","1017.558","24.34","68.68","0.0","0.0"],
    [1535557,"2026-08-31 04:10:00","6602","1.196","270.8","1.568","275.2","1017.537","24.41","69.07","0.0","0.0"],
    [1535558,"2026-08-31 04:20:00","6603","1.212","268.9","1.5030000000000001","261.5","1017.522","24.2","68.94","0.0","0.0"],
    [1535559,"2026-08-31 04:30:00","6604","0.789","251.1","1.5030000000000001","255.2","1017.523","24.06","69.24","0.0","0.0"],
    [1535560,"2026-08-31 04:40:00","6605","0.0","0.0","0.0","0.0","1017.576","24.23","70.8","0.0","0.0"],
    [1535561,"2026-08-31 04:50:00","6606","0.0","0.0","0.0","0.0","1017.621","24.42","71.57","0.0","0.0"],
    [1535562,"2026-08-31 05:00:00","6607","0.62","246.3","1.143","243.4","1017.653","23.85","70.13","0.0","0.0"],
    [1535563,"2026-08-31 05:10:00","6608","1.169","256.8","2.0580000000000003","267.1","1017.675","23.46","69.54","0.0","0.0"],
    [1535564,"2026-08-31 05:20:00","6609","1.073","249.2","1.895","265.4","1017.734","23.26","68.95","1.8319999999999999","0.0"],
    [1535565,"2026-08-31 05:30:00","6610","1.786","261.3","2.613","261.4","1017.82","23.22","68.17","7.534","0.0"],
    [1535566,"2026-08-31 05:40:00","6611","2.7560000000000002","264.3","3.6260000000000003","256.3","1017.93","23.23","67.02","23.65","0.0"],
    [1535567,"2026-08-31 05:50:00","6612","2.623","264.0","3.397","258.9","1018.014","23.49","65.85","45.8","0.0"],
    [1535568,"2026-08-31 06:00:00","6613","2.605","260.2","3.136","262.2","1018.153","23.9","64.86","71.53","0.0"],
    [1535569,"2026-08-31 06:10:00","6614","1.44","251.6","2.515","259.1","1018.355","24.3","64.49","98.4","0.0"],
    [1535570,"2026-08-31 06:20:00","6615","0.102","240.5","1.2409999999999999","263.7","1018.473","25.04","64.36","124.3","0.0"],
    [1535571,"2026-08-31 06:30:00","6616","0.03","262.9","0.6859999999999999","287.9","1018.56","25.58","62.75","151.5","0.0"],
    [1535572,"2026-08-31 06:40:00","6617","0.47200000000000003","296.3","1.7309999999999999","273.8","1018.659","25.84","63.31","180.7","0.0"],
    [1535573,"2026-08-31 06:50:00","6618","0.593","300.5","1.7309999999999999","273.8","1018.782","25.83","57.87","210.8","0.0"],
    [1535574,"2026-08-31 07:00:00","6619","0.0","0.0","0.0","0.0","1018.864","25.75","60.84","239.3","0.0"],
    [1535575,"2026-08-31 07:10:00","6620","0.0","0.0","0.0","0.0","1018.937","25.56","62.7","272.3","0.0"],
    [1535576,"2026-08-31 07:20:00","6621","0.568","92.3","1.699","93.2","1018.992","25.59","65.19","307.5","0.0"],
    [1535577,"2026-08-31 07:30:00","6622","0.805","31.09","1.3719999999999999","93.9","1018.988","25.2","66.23","343.5","0.0"],
    [1535578,"2026-08-31 07:40:00","6623","1.4569999999999999","350.1","4.051","80.8","1019.009","25.1","68.52","371.3","0.0"],
    [1535579,"2026-08-31 07:50:00","6624","2.394","73.98","3.7239999999999998","69.41","1019.144","24.88","67.08","403.2","0.0"],
    [1535580,"2026-08-31 08:00:00","6625","1.714","44.75","2.842","44.1","1019.195","25.17","66.74","430.6","0.0"],
    [1535581,"2026-08-31 08:10:00","6626","3.425","46.04","4.181","47.24","1019.294","24.94","66.32","461.0","0.0"],
    [1535582,"2026-08-31 08:20:00","6627","3.627","52.17","4.377","66.38","1019.392","24.93","66.24","494.0","0.0"],
    [1535583,"2026-08-31 08:30:00","6628","2.9010000000000002","47.73","3.9530000000000003","52.96","1019.484","25.07","67.29","526.5","0.0"],
    [1535584,"2026-08-31 08:40:00","6629","2.479","54.04","3.299","42.71","1019.534","25.16","67.39","555.2","0.0"],
    [1535585,"2026-08-31 08:50:00","6630","1.7630000000000001","70.26","3.43","61.48","1019.642","25.53","66.27","580.4","0.0"],
    [1535586,"2026-08-31 09:00:00","6631","0.9390000000000001","64.92","1.9269999999999998","82.4","1019.702","26.05","65.68","604.3","0.0"],
    [1535587,"2026-08-31 09:10:00","6632","1.581","64.91","2.875","73.34","1019.742","26.05","66.2","631.0","0.0"],
    [1535588,"2026-08-31 09:20:00","6633","2.201","58.8","3.495","52.22","1019.803","25.92","68.35","655.3","0.0"],
    [1535589,"2026-08-31 09:30:00","6634","1.8230000000000002","54.73","2.9730000000000003","47.57","1019.797","25.89","70.35","673.2","0.0"],
    [1535590,"2026-08-31 09:40:00","6635","2.608","76.93","4.083","76.16","1019.743","26.14","70.35","696.3","0.0"],
    [1535591,"2026-08-31 09:50:00","6636","3.392","85.6","4.4430000000000005","83.2","1019.706","25.97","72.5","717.8","0.0"],
    [1535592,"2026-08-31 10:00:00","6637","3.5410000000000004","89.9","4.475","89.0","1019.713","25.95","73.28","736.2","0.0"],
    [1535593,"2026-08-31 10:10:00","6638","3.452","93.7","4.41","102.0","1019.736","25.91","73.61","753.2","0.0"],
    [1535594,"2026-08-31 10:20:00","6639","3.438","99.4","4.671","108.2","1019.711","25.93","73.99","769.7","0.0"],
    [1535595,"2026-08-31 10:30:00","6640","3.818","107.3","4.737","110.0","1019.766","25.92","74.81","785.2","0.0"],
    [1535596,"2026-08-31 10:40:00","6641","4.04","115.8","4.704","108.8","1019.8","25.93","74.81","799.0","0.0"],
    [1535597,"2026-08-31 10:50:00","6642","3.861","115.6","4.933","112.3","1019.807","25.92","75.69","811.0","0.0"],
    [1535598,"2026-08-31 11:00:00","6643","3.903","115.9","4.704","113.4","1019.805","25.95","75.34","823.0","0.0"],
    [1535599,"2026-08-31 11:10:00","6644","3.8280000000000003","116.3","4.475","107.5","1019.786","25.89","75.16","831.0","0.0"],
    [1535600,"2026-08-31 11:20:00","6645","3.3760000000000003","121.5","4.181","109.2","1019.725","26.04","75.46","837.0","0.0"],
    [1535601,"2026-08-31 11:30:00","6646","3.3569999999999998","117.2","4.181","113.5","1019.779","26.11","75.84","841.0","0.0"],
    [1535602,"2026-08-31 11:40:00","6647","2.9589999999999996","117.5","3.6910000000000003","121.5","1019.761","26.15","76.19","844.0","0.0"],
    [1535603,"2026-08-31 11:50:00","6648","2.45","118.7","3.528","121.8","1019.718","26.38","76.34","845.0","0.0"],
    [1535604,"2026-08-31 12:00:00","6649","2.415","131.0","4.965","133.4","1019.697","26.55","76.87","846.0","0.0"],
    [1535605,"2026-08-31 12:10:00","6650","2.102","125.4","2.842","131.3","1019.664","26.61","77.57","845.0","0.0"],
    [1535606,"2026-08-31 12:20:00","6651","2.282","131.0","3.103","139.9","1019.559","26.72","78.28","842.0","0.0"],
    [1535607,"2026-08-31 12:30:00","6652","2.3819999999999997","130.1","3.528","140.9","1019.502","26.81","78.09","838.0","0.0"],
    [1535608,"2026-08-31 12:40:00","6653","2.63","140.0","3.463","140.7","1019.526","26.91","76.98","833.0","0.0"],
    [1535609,"2026-08-31 12:50:00","6654","4.3660000000000005","143.6","5.945","140.1","1019.463","27.01","73.13","809.0","0.0"],
    [1535610,"2026-08-31 13:00:00","6655","4.828","151.1","5.978","150.0","1019.354","27.08","71.87","821.0","0.0"],
    [1535611,"2026-08-31 13:10:00","6656","5.377000000000001","154.1","6.501","153.4","1019.351","27.09","71.36","809.0","0.0"],
    [1535612,"2026-08-31 13:20:00","6657","5.367999999999999","159.9","6.599","168.8","1019.408","27.18","71.2","798.4","0.0"],
    [1535613,"2026-08-31 13:30:00","6658","6.04","161.0","6.827000000000001","160.9","1019.374","27.09","72.64","782.6","0.0"],
    [1535614,"2026-08-31 13:40:00","6659","6.176","163.8","7.187","165.5","1019.3","27.06","72.49","767.7","0.0"],
    [1535615,"2026-08-31 13:50:00","6660","6.146","162.7","8.07","170.6","1019.26","27.13","72.46","754.6","0.0"],
    [1535616,"2026-08-31 14:00:00","6661","6.7139999999999995","168.1","7.971","169.6","1019.241","27.07","73.67","738.1","0.0"],
    [1535617,"2026-08-31 14:10:00","6662","6.16","171.7","7.317","167.7","1019.284","27.0","74.3","716.4","0.0"],
    [1535618,"2026-08-31 14:20:00","6663","5.561","172.7","6.925","175.5","1019.238","27.15","73.44","693.6","0.0"],
    [1535619,"2026-08-31 14:30:00","6664","5.789","174.5","6.9910000000000005","175.2","1019.175","27.26","71.63","666.5","0.0"],
    [1535620,"2026-08-31 14:40:00","6665","5.901","173.2","7.252000000000001","174.9","1019.129","27.16","72.48","650.2","0.0"],
    [1535621,"2026-08-31 14:50:00","6666","6.06","170.3","6.86","165.8","1019.12","26.95","72.44","619.4","0.0"],
    [1535622,"2026-08-31 15:00:00","6667","5.782","173.7","6.957999999999999","171.4","1019.153","26.97","69.91","586.1","0.0"],
    [1535623,"2026-08-31 15:10:00","6668","5.59","175.2","7.218999999999999","168.6","1019.179","27.1","69.2","556.7","0.0"],
    [1535624,"2026-08-31 15:20:00","6669","5.393","175.2","6.925","172.0","1019.182","27.04","68.63","531.4","0.0"],
    [1535625,"2026-08-31 15:30:00","6670","5.335","175.3","6.501","178.7","1019.218","27.08","68.95","503.6","0.0"],
    [1535626,"2026-08-31 15:40:00","6671","5.227","176.1","6.5329999999999995","182.8","1019.171","26.93","69.41","473.8","0.0"],
    [1535627,"2026-08-31 15:50:00","6672","5.516","174.1","6.566","173.3","1019.157","26.9","70.4","444.4","0.0"],
    [1535628,"2026-08-31 16:00:00","6673","4.838","178.2","6.631","174.6","1019.131","26.87","72.0","415.7","0.0"],
    [1535629,"2026-08-31 16:10:00","6674","4.867","177.5","6.729","176.1","1019.08","26.9","71.11","386.6","0.0"],
    [1535630,"2026-08-31 16:20:00","6675","4.542","176.0","5.4879999999999995","167.0","1019.011","26.76","71.54","355.4","0.0"],
    [1535631,"2026-08-31 16:30:00","6676","4.763","173.4","6.042999999999999","173.5","1018.965","26.69","71.35","320.2","0.0"],
    [1535632,"2026-08-31 16:40:00","6677","4.253","172.7","5.422999999999999","166.3","1018.903","26.58","71.8","283.8","0.0"],
    [1535633,"2026-08-31 16:50:00","6678","3.905","172.4","4.933","174.8","1018.875","26.53","72.82","246.9","0.0"],
    [1535634,"2026-08-31 17:00:00","6679","3.9939999999999998","170.1","4.4430000000000005","172.1","1018.811","26.42","73.98","212.3","0.0"],
    [1535635,"2026-08-31 17:10:00","6680","4.145","171.0","5.227","184.4","1018.77","26.33","74.05","179.7","0.0"],
    [1535636,"2026-08-31 17:20:00","6681","3.985","169.7","4.965","187.5","1018.757","26.34","73.5","148.6","0.0"],
    [1535637,"2026-08-31 17:30:00","6682","3.767","167.6","4.606","169.6","1018.719","26.33","73.95","120.6","0.0"],
    [1535638,"2026-08-31 17:40:00","6683","4.301","161.6","4.933","157.2","1018.711","26.17","73.59","93.8","0.0"],
    [1535639,"2026-08-31 17:50:00","6684","4.239","162.0","5.292000000000001","157.3","1018.735","26.18","73.56","69.97","0.0"],
    [1535640,"2026-08-31 18:00:00","6685","3.898","169.9","4.835","173.1","1018.725","26.17","74.32","47.73","0.0"],
    [1535641,"2026-08-31 18:10:00","6686","4.144","162.9","5.4879999999999995","165.4","1018.744","26.15","74.93","25.21","0.0"],
    [1535642,"2026-08-31 18:20:00","6687","4.033","163.1","4.965","166.9","1018.856","26.08","75.37","10.61","0.0"],
    [1535643,"2026-08-31 18:30:00","6688","3.859","158.0","5.063","152.7","1018.883","26.01","75.46","3.196","0.0"],
    [1535644,"2026-08-31 18:40:00","6689","3.347","160.0","4.377","158.9","1018.933","25.94","77.32","0.26","0.0"],
    [1535645,"2026-08-31 18:50:00","6690","3.3510000000000004","154.3","4.149","158.3","1019.026","25.85","76.68","0.0","0.0"],
    [1535646,"2026-08-31 19:00:00","6691","3.1719999999999997","150.1","4.2139999999999995","146.4","1019.175","25.84","76.1","0.0","0.0"],
    [1535647,"2026-08-31 19:10:00","6692","2.702","145.1","3.593","147.1","1019.306","25.84","76.83","0.0","0.0"],
    [1535648,"2026-08-31 19:20:00","6693","2.376","134.6","3.5610000000000004","124.9","1019.421","25.68","77.15","0.0","0.0"],
    [1535649,"2026-08-31 19:30:00","6694","2.344","131.3","3.103","144.8","1019.563","25.72","76.82","0.0","0.0"],
    [1535650,"2026-08-31 19:40:00","6695","2.191","106.2","2.9730000000000003","109.3","1019.744","25.71","77.88","0.0","0.0"],
    [1535651,"2026-08-31 19:50:00","6696","2.753","106.1","3.463","111.5","1019.873","25.56","79.55","0.0","0.0"],
    [1535652,"2026-08-31 20:00:00","6697","2.6189999999999998","103.1","3.43","102.4","1019.928","25.41","80.2","0.0","0.0"],
    [1535653,"2026-08-31 20:10:00","6698","2.32","95.9","3.234","105.1","1020.009","25.48","78.52","0.0","0.0"],
    [1535654,"2026-08-31 20:20:00","6699","2.238","87.3","2.9730000000000003","88.0","1020.15","25.57","78.77","0.0","0.0"],
    [1535655,"2026-08-31 20:30:00","6700","2.218","80.9","3.495","82.6","1020.243","25.5","78.76","0.0","0.0"],
    [1535656,"2026-08-31 20:40:00","6701","2.187","79.99","3.234","80.6","1020.42","25.49","78.98","0.0","0.0"],
    [1535657,"2026-08-31 20:50:00","6702","2.011","86.4","2.7110000000000003","88.6","1020.507","25.45","79.19","0.0","0.0"],
    [1535658,"2026-08-31 21:00:00","6703","1.925","81.0","3.005","87.1","1020.508","25.44","79.75","0.0","0.0"],
    [1535659,"2026-08-31 21:10:00","6704","2.144","89.0","2.842","90.5","1020.567","25.36","80.2","0.0","0.0"],
    [1535660,"2026-08-31 21:20:00","6705","1.9569999999999999","89.7","3.071","88.2","1020.616","25.31","79.0","0.0","0.0"],
    [1535661,"2026-08-31 21:30:00","6706","1.5919999999999999","84.9","2.287","87.5","1020.651","25.36","78.4","0.0","0.0"],
    [1535662,"2026-08-31 21:40:00","6707","1.357","83.4","2.0580000000000003","63.54","1020.653","25.38","78.21","0.0","0.0"],
    [1535663,"2026-08-31 21:50:00","6708","1.101","83.0","1.7309999999999999","86.3","1020.746","25.36","78.46","0.0","0.0"],
    [1535664,"2026-08-31 22:00:00","6709","0.97","65.62","1.2409999999999999","58.49","1020.76","25.33","78.26","0.0","0.0"],
    [1535665,"2026-08-31 22:10:00","6710","1.256","61.0","1.764","55.94","1020.761","25.36","77.42","0.0","0.0"],
    [1535666,"2026-08-31 22:20:00","6711","1.0190000000000001","56.01","1.601","42.4","1020.802","25.41","76.58","0.0","0.0"],
    [1535667,"2026-08-31 22:30:00","6712","0.871","39.89","1.7309999999999999","62.4","1020.796","25.38","77.6","0.0","0.0"],
    [1535668,"2026-08-31 22:40:00","6713","0.586","36.43","0.915","32.12","1020.85","25.18","78.87","0.0","0.0"],
    [1535669,"2026-08-31 22:50:00","6714","0.37200000000000005","45.23","0.8170000000000001","50.13","1020.892","25.12","78.56","0.0","0.0"],
    [1535670,"2026-08-31 23:00:00","6715","0.078","43.11","0.457","28.56","1020.951","25.07","78.13","0.0","0.0"],
    [1535671,"2026-08-31 23:10:00","6716","0.282","24.22","0.653","24.09","1020.889","25.03","78.48","0.0","0.0"],
    [1535672,"2026-08-31 23:20:00","6717","0.217","17.17","0.784","12.86","1020.905","24.95","78.95","0.0","0.0"],
    [1535673,"2026-08-31 23:30:00","6718","0.564","10.11","0.8490000000000001","7.059","1020.903","24.92","78.25","0.0","0.0"],
    [1535674,"2026-08-31 23:40:00","6719","0.542","358.4","0.7190000000000001","7.157","1020.986","24.97","77.14","0.0","0.0"],
    [1535675,"2026-08-31 23:50:00","6720","0.545","0.706","0.7509999999999999","3.012","1021.045","24.97","75.09","0.0","0.0"],
    [1535676,"2026-09-01 00:00:00","6721","0.653","315.9","0.7509999999999999","328.2","1021.04","25.07","74.09","0.0","0.0"],
    [1535677,"2026-09-01 00:10:00","6722","0.743","260.9","1.078","255.6","1021.058","25.28","73.43","0.0","0.0"],
    [1535678,"2026-09-01 00:20:00","6723","0.7879999999999999","265.9","1.568","281.8","1021.053","25.34","72.04","0.0","0.0"],
    [1535679,"2026-09-01 00:30:00","6724","1.178","272.3","1.535","273.6","1020.99","25.38","71.84","0.0","0.0"],
    [1535680,"2026-09-01 00:40:00","6725","1.354","278.7","1.666","278.8","1020.949","25.39","71.49","0.0","0.0"],
    [1535681,"2026-09-01 00:50:00","6726","1.5490000000000002","285.5","2.0580000000000003","275.6","1020.933","25.46","71.03","0.0","0.0"],
    [1535682,"2026-09-01 01:00:00","6727","1.621","286.9","2.123","291.4","1020.887","25.48","71.56","0.0","0.0"],
    [1535683,"2026-09-01 01:10:00","6728","1.33","274.4","1.666","277.2","1020.893","25.42","71.53","0.0","0.0"],
    [1535684,"2026-09-01 01:20:00","6729","1.128","271.1","1.568","271.6","1020.841","25.43","71.62","0.0","0.0"],
    [1535685,"2026-09-01 01:30:00","6730","1.182","272.2","1.633","268.8","1020.753","25.42","71.73","0.0","0.0"],
    [1535686,"2026-09-01 01:40:00","6731","0.993","275.1","1.535","278.9","1020.731","25.36","72.13","0.0","0.0"],
    [1535687,"2026-09-01 01:50:00","6732","0.7809999999999999","277.3","1.633","309.6","1020.736","25.28","72.6","0.0","0.0"],
    [1535688,"2026-09-01 02:00:00","6733","0.196","254.1","1.078","263.9","1020.685","25.19","73.13","0.0","0.0"],
    [1535689,"2026-09-01 02:10:00","6734","0.442","260.7","1.078","272.5","1020.623","25.1","73.4","0.0","0.0"],
    [1535690,"2026-09-01 02:20:00","6735","0.271","257.0","1.633","307.6","1020.512","25.09","73.45","0.0","0.0"],
    [1535691,"2026-09-01 02:30:00","6736","0.596","295.1","1.535","314.0","1020.356","25.03","73.66","0.0","0.0"],
    [1535692,"2026-09-01 02:40:00","6737","0.32299999999999995","251.9","1.143","253.7","1020.257","25.02","73.93","0.0","0.0"],
    [1535693,"2026-09-01 02:50:00","6738","0.491","254.1","0.915","228.2","1020.212","25.0","74.24","0.0","0.0"],
    [1535694,"2026-09-01 03:00:00","6739","0.365","291.5","1.601","308.7","1020.17","24.95","75.02","0.0","0.0"],
    [1535695,"2026-09-01 03:10:00","6740","1.016","285.4","1.9269999999999998","303.5","1020.121","24.85","74.43","0.0","0.0"],
    [1535696,"2026-09-01 03:20:00","6741","1.446","297.6","2.123","303.0","1020.073","24.88","74.12","0.0","0.0"],
    [1535697,"2026-09-01 03:30:00","6742","0.625","283.8","1.4369999999999998","293.4","1020.014","24.9","73.78","0.0","0.0"],
    [1535698,"2026-09-01 03:40:00","6743","0.01","220.2","0.261","199.6","1019.977","24.91","75.35","0.0","0.0"],
    [1535699,"2026-09-01 03:50:00","6744","0.0","0.0","0.0","0.0","1019.942","24.76","75.33","0.0","0.0"],
    [1535700,"2026-09-01 04:00:00","6745","0.45","288.7","1.829","285.6","1019.913","24.66","75.01","0.0","0.0"],
    [1535701,"2026-09-01 04:10:00","6746","1.3940000000000001","296.7","1.895","285.1","1019.851","24.67","73.05","0.0","0.0"],
    [1535702,"2026-09-01 04:20:00","6747","1.675","296.4","2.254","295.4","1019.816","24.82","72.32","0.0","0.0"],
    [1535703,"2026-09-01 04:30:00","6748","1.8130000000000002","304.6","2.319","312.0","1019.804","24.86","72.05","0.0","0.0"],
    [1535704,"2026-09-01 04:40:00","6749","1.547","307.5","2.0580000000000003","307.2","1019.797","24.94","71.03","0.0","0.0"],
    [1535705,"2026-09-01 04:50:00","6750","1.545","310.0","2.189","307.2","1019.782","25.02","70.36","0.0","0.0"],
    [1535706,"2026-09-01 05:00:00","6751","1.5390000000000001","294.2","2.0580000000000003","302.4","1019.734","24.97","69.7","0.0","0.0"],
    [1535707,"2026-09-01 05:10:00","6752","1.6219999999999999","288.5","2.123","294.9","1019.743","24.91","69.66","0.0","0.0"],
    [1535708,"2026-09-01 05:20:00","6753","1.473","288.8","1.797","288.0","1019.704","24.88","70.22","1.48","0.0"],
    [1535709,"2026-09-01 05:30:00","6754","1.124","289.3","1.535","290.9","1019.732","24.8","70.66","8.17","0.0"],
    [1535710,"2026-09-01 05:40:00","6755","0.175","300.3","0.882","313.0","1019.731","25.01","72.74","19.21","0.0"],
    [1535711,"2026-09-01 05:50:00","6756","0.07200000000000001","150.0","0.7509999999999999","155.7","1019.796","24.81","73.13","22.55","0.0"],
    [1535712,"2026-09-01 06:00:00","6757","0.0","0.0","0.0","0.0","1019.867","24.7","72.8","40.09","0.0"],
    [1535713,"2026-09-01 06:10:00","6758","0.0","0.0","0.0","0.0","1019.935","25.01","70.98","88.2","0.0"],
    [1535714,"2026-09-01 06:20:00","6759","0.626","256.9","1.4369999999999998","245.8","1019.989","25.76","67.54","115.0","0.0"],
    [1535715,"2026-09-01 06:30:00","6760","0.863","244.5","1.666","261.1","1020.023","25.94","66.36","141.7","0.0"],
    [1535716,"2026-09-01 06:40:00","6761","1.232","275.9","1.699","277.6","1020.008","26.42","64.72","172.0","0.0"],
    [1535717,"2026-09-01 06:50:00","6762","1.692","311.5","2.7769999999999997","316.5","1019.868","26.59","63.19","206.1","0.0"],
    [1535718,"2026-09-01 07:00:00","6763","1.8659999999999999","332.6","3.0380000000000003","349.6","1019.724","26.27","64.98","239.6","0.0"],
    [1535719,"2026-09-01 07:10:00","6764","0.917","77.22","2.9730000000000003","347.0","1019.813","26.19","67.46","271.8","0.0"],
    [1535720,"2026-09-01 07:20:00","6765","1.093","95.6","1.568","109.6","1019.904","25.88","70.04","307.2","0.0"],
    [1535721,"2026-09-01 07:30:00","6766","1.501","116.9","2.319","101.8","1019.957","25.79","70.94","338.0","0.0"],
    [1535722,"2026-09-01 07:40:00","6767","1.9040000000000001","91.3","2.352","100.6","1019.911","25.68","70.43","368.7","0.0"],
    [1535723,"2026-09-01 07:50:00","6768","1.82","96.7","2.254","95.8","1019.909","25.86","69.08","398.0","0.0"],
    [1535724,"2026-09-01 08:00:00","6769","1.433","97.3","1.9269999999999998","99.1","1019.937","26.07","68.09","425.8","0.0"],
    [1535725,"2026-09-01 08:10:00","6770","1.588","111.4","2.254","105.8","1019.959","26.1","67.8","459.9","0.0"],
    [1535726,"2026-09-01 08:20:00","6771","1.6640000000000001","111.5","2.254","119.1","1020.056","26.17","67.24","485.0","0.0"],
    [1535727,"2026-09-01 08:30:00","6772","2.339","122.3","3.005","133.6","1020.194","26.16","67.66","514.4","0.0"],
    [1535728,"2026-09-01 08:40:00","6773","3.02","137.9","3.43","136.8","1020.294","25.94","70.16","548.3","0.0"],
    [1535729,"2026-09-01 08:50:00","6774","3.1639999999999997","148.3","3.593","148.1","1020.381","25.99","70.71","571.5","0.0"],
    [1535730,"2026-09-01 09:00:00","6775","3.3169999999999997","147.3","3.985","144.0","1020.476","26.04","71.05","600.2","0.0"],
    [1535731,"2026-09-01 09:10:00","6776","4.5489999999999995","154.8","5.227","158.8","1020.613","25.92","72.84","624.2","0.0"],
    [1535732,"2026-09-01 09:20:00","6777","4.843","154.9","5.357","157.3","1020.741","25.85","74.98","651.9","0.0"],
    [1535733,"2026-09-01 09:30:00","6778","4.771","160.2","5.357","167.1","1020.897","25.84","76.62","677.1","0.0"],
    [1535734,"2026-09-01 09:40:00","6779","5.268","166.7","5.684","166.0","1021.028","25.93","76.31","697.4","0.0"],
    [1535735,"2026-09-01 09:50:00","6780","4.902","169.9","5.945","177.6","1021.069","26.07","75.33","714.9","0.0"],
    [1535736,"2026-09-01 10:00:00","6781","4.5280000000000005","178.8","6.109","170.6","1021.235","26.3","71.66","732.5","0.0"],
    [1535737,"2026-09-01 10:10:00","6782","4.3660000000000005","181.0","5.945","171.0","1021.312","26.75","69.26","749.4","0.0"],
    [1535738,"2026-09-01 10:20:00","6783","4.441","182.9","5.88","173.0","1021.281","26.82","69.11","767.4","0.0"],
    [1535739,"2026-09-01 10:30:00","6784","5.041","185.2","6.403","186.0","1021.343","26.9","68.19","788.2","0.0"],
    [1535740,"2026-09-01 10:40:00","6785","4.855","178.0","5.978","178.8","1021.207","26.78","70.36","813.0","0.0"],
    [1535741,"2026-09-01 10:50:00","6786","4.715","187.2","6.207000000000001","187.7","1021.149","26.95","69.26","718.1","0.0"],
    [1535742,"2026-09-01 11:00:00","6787","4.312","183.3","5.521","172.4","1021.161","27.0","69.02","593.5","0.0"],
    [1535743,"2026-09-01 11:10:00","6788","4.506","184.0","6.272","167.6","1021.151","26.93","68.75","600.8","0.0"],
    [1535744,"2026-09-01 11:20:00","6789","5.025","186.9","6.435","196.2","1021.025","27.06","67.96","729.2","0.0"],
    [1535745,"2026-09-01 11:30:00","6790","5.274","186.6","7.644","188.7","1020.967","27.05","68.71","880.0","0.0"],
    [1535746,"2026-09-01 11:40:00","6791","5.098","183.3","6.795","195.9","1020.972","27.21","66.78","941.0","0.0"],
    [1535747,"2026-09-01 11:50:00","6792","5.109","183.5","7.0889999999999995","193.3","1020.861","27.05","68.09","463.5","0.0"],
    [1535748,"2026-09-01 12:00:00","6793","5.044","184.3","6.5329999999999995","182.0","1020.9","26.91","68.82","655.3","0.0"],
    [1535749,"2026-09-01 12:10:00","6794","5.072","182.5","6.957999999999999","172.6","1020.851","27.05","68.24","707.3","0.0"],
    [1535750,"2026-09-01 12:20:00","6795","4.979","175.8","6.7620000000000005","179.1","1020.782","26.77","70.41","485.4","0.0"],
    [1535751,"2026-09-01 12:30:00","6796","5.263","179.5","6.7620000000000005","171.9","1020.636","26.63","68.55","324.6","0.0"],
    [1535752,"2026-09-01 12:40:00","6797","4.497","177.4","5.422999999999999","172.4","1020.531","26.9","66.89","631.9","0.0"],
    [1535753,"2026-09-01 12:50:00","6798","4.88","174.4","5.945","164.2","1020.447","26.81","67.92","676.7","0.0"],
    [1535754,"2026-09-01 13:00:00","6799","5.4110000000000005","173.7","6.37","172.5","1020.395","26.62","68.13","480.2","0.0"],
    [1535755,"2026-09-01 13:10:00","6800","5.185","179.5","6.468","176.4","1020.349","26.78","64.11","284.9","0.0"],
    [1535756,"2026-09-01 13:20:00","6801","4.9030000000000005","180.7","6.272","184.3","1020.143","26.65","66.9","303.5","0.0"],
    [1535757,"2026-09-01 13:30:00","6802","5.05","183.8","6.042999999999999","182.9","1020.075","26.71","66.92","280.6","0.0"],
    [1535758,"2026-09-01 13:40:00","6803","5.084","186.6","6.403","188.3","1019.955","26.78","67.61","256.2","0.0"],
    [1535759,"2026-09-01 13:50:00","6804","5.05","184.1","6.827000000000001","191.2","1019.778","26.62","69.55","252.4","0.0"],
    [1535760,"2026-09-01 14:00:00","6805","4.348","174.1","5.651","168.1","1019.451","26.52","72.22","238.1","0.0"],
    [1535761,"2026-09-01 14:10:00","6806","4.325","184.9","6.207000000000001","193.3","1019.638","26.24","74.19","219.3","0.0"],
    [1535762,"2026-09-01 14:20:00","6807","5.166","187.8","6.795","193.4","1019.825","26.48","68.84","370.9","0.0"],
    [1535763,"2026-09-01 14:30:00","6808","5.412999999999999","183.4","7.252000000000001","196.8","1019.766","26.7","64.82","274.3","0.0"],
    [1535764,"2026-09-01 14:40:00","6809","5.004","184.9","6.631","193.2","1019.726","26.74","63.51","216.9","0.0"],
    [1535765,"2026-09-01 14:50:00","6810","5.207000000000001","185.8","6.86","192.4","1019.726","26.78","64.95","250.8","0.0"],
    [1535766,"2026-09-01 15:00:00","6811","4.457","183.4","5.978","193.7","1019.632","26.66","65.52","142.6","0.0"],
    [1535767,"2026-09-01 15:10:00","6812","3.735","183.6","4.638999999999999","194.5","1019.379","26.46","68.54","140.5","0.0"],
    [1535768,"2026-09-01 15:20:00","6813","4.1930000000000005","186.7","5.129","186.5","1019.331","26.34","69.66","93.1","0.0"],
    [1535769,"2026-09-01 15:30:00","6814","4.453","189.3","6.0760000000000005","189.2","1019.299","26.28","68.9","175.6","0.0"],
    [1535770,"2026-09-01 15:40:00","6815","4.595","186.3","6.011","189.2","1019.364","26.63","66.17","464.5","0.0"],
    [1535771,"2026-09-01 15:50:00","6816","4.601","178.8","5.684","188.7","1019.178","26.65","64.8","359.5","0.0"],
    [1535772,"2026-09-01 16:00:00","6817","4.7","185.6","5.847","187.9","1019.246","26.78","63.93","347.0","0.0"],
    [1535773,"2026-09-01 16:10:00","6818","4.806","181.2","6.272","172.2","1019.151","26.67","63.97","205.4","0.0"],
    [1535774,"2026-09-01 16:20:00","6819","4.126","187.3","5.553","175.5","1019.084","26.6","64.4","189.8","0.0"],
    [1535775,"2026-09-01 16:30:00","6820","3.861","181.8","5.455","186.8","1019.002","26.64","63.39","157.1","0.0"],
    [1535776,"2026-09-01 16:40:00","6821","3.907","176.5","4.638999999999999","173.6","1018.709","26.36","68.06","104.3","0.0"],
    [1535777,"2026-09-01 16:50:00","6822","4.011","190.4","5.455","186.5","1018.845","26.24","66.49","85.8","0.0"],
    [1535778,"2026-09-01 17:00:00","6823","3.725","192.7","5.2589999999999995","190.6","1018.958","26.4","65.32","94.2","0.0"],
    [1535779,"2026-09-01 17:10:00","6824","3.4989999999999997","199.8","5.227","196.6","1018.856","26.72","62.12","92.2","0.0"],
    [1535780,"2026-09-01 17:20:00","6825","3.266","197.3","5.2589999999999995","193.8","1018.738","26.8","62.19","99.9","0.0"],
    [1535781,"2026-09-01 17:30:00","6826","3.267","203.0","5.129","201.2","1018.653","26.84","61.73","63.72","0.0"],
    [1535782,"2026-09-01 17:40:00","6827","2.506","213.2","4.41","193.2","1018.584","26.88","62.06","32.76","0.0"],
    [1535783,"2026-09-01 17:50:00","6828","1.723","249.7","4.181","278.0","1018.469","26.97","61.25","37.33","0.0"],
    [1535784,"2026-09-01 18:00:00","6829","1.8330000000000002","254.1","3.7239999999999998","282.7","1018.172","26.92","60.23","32.95","0.0"],
    [1535785,"2026-09-01 18:10:00","6830","1.09","271.1","1.829","298.9","1017.995","26.9","60.25","15.91","0.0"],
    [1535786,"2026-09-01 18:20:00","6831","1.263","244.5","2.0909999999999997","227.9","1017.897","26.89","60.43","8.74","0.0"],
    [1535787,"2026-09-01 18:30:00","6832","1.73","225.3","4.541","213.5","1018.031","26.85","60.72","0.654","0.0"],
    [1535788,"2026-09-01 18:40:00","6833","3.6310000000000002","196.7","5.749","201.0","1018.18","26.69","62.46","0.0","0.0"],
    [1535789,"2026-09-01 18:50:00","6834","3.8369999999999997","200.9","5.325","209.8","1018.257","26.5","63.42","0.0","0.0"],
    [1535790,"2026-09-01 19:00:00","6835","3.7939999999999996","200.5","5.1610000000000005","201.1","1018.213","26.36","63.99","0.0","0.0"],
    [1535791,"2026-09-01 19:10:00","6836","3.423","204.9","4.671","223.6","1018.231","26.44","63.56","0.0","0.0"],
    [1535792,"2026-09-01 19:20:00","6837","3.38","201.8","5.1610000000000005","209.3","1018.335","26.4","63.98","0.0","0.0"],
    [1535793,"2026-09-01 19:30:00","6838","2.299","208.4","4.312","195.1","1018.278","26.39","63.8","0.0","0.0"],
    [1535794,"2026-09-01 19:40:00","6839","2.149","207.6","3.463","207.8","1018.404","26.4","64.14","0.0","0.0"],
    [1535795,"2026-09-01 19:50:00","6840","1.672","246.7","3.887","259.2","1018.589","26.39","63.4","0.0","0.0"],
    [1535796,"2026-09-01 20:00:00","6841","1.757","227.8","3.365","257.6","1018.766","26.38","64.03","0.0","0.0"],
    [1535797,"2026-09-01 20:10:00","6842","2.184","214.6","4.475","194.9","1018.975","26.33","64.96","0.0","0.0"],
    [1535798,"2026-09-01 20:20:00","6843","3.574","198.7","5.39","203.1","1019.039","26.23","65.56","0.0","0.0"],
    [1535799,"2026-09-01 20:30:00","6844","3.083","203.1","4.279","193.9","1018.97","26.11","66.46","0.0","0.0"],
    [1535800,"2026-09-01 20:40:00","6845","2.213","210.0","3.6910000000000003","193.3","1019.045","26.13","66.34","0.0","0.0"],
    [1535801,"2026-09-01 20:50:00","6846","2.061","208.8","3.365","199.5","1019.117","26.1","66.86","0.0","0.0"],
    [1535802,"2026-09-01 21:00:00","6847","2.424","205.6","4.2139999999999995","197.8","1019.207","26.06","66.99","0.0","0.0"],
    [1535803,"2026-09-01 21:10:00","6848","2.795","200.7","3.9530000000000003","199.8","1019.258","26.04","67.42","0.0","0.0"],
    [1535804,"2026-09-01 21:20:00","6849","2.2569999999999997","206.9","3.855","208.6","1019.323","26.03","67.44","0.0","0.0"],
    [1535805,"2026-09-01 21:30:00","6850","2.654","202.6","3.887","207.6","1019.382","26.03","67.83","0.0","0.0"],
    [1535806,"2026-09-01 21:40:00","6851","2.037","227.1","3.397","202.0","1019.5","26.0","68.23","0.0","0.0"],
    [1535807,"2026-09-01 21:50:00","6852","1.7919999999999998","264.9","3.201","276.0","1019.479","25.97","68.33","0.0","0.0"],
    [1535808,"2026-09-01 22:00:00","6853","1.953","285.2","2.907","274.5","1019.453","25.85","68.8","0.0","0.0"],
    [1535809,"2026-09-01 22:10:00","6854","2.145","279.2","3.0380000000000003","275.2","1019.532","25.75","68.88","0.0","0.0"],
    [1535810,"2026-09-01 22:20:00","6855","1.995","281.8","2.842","268.1","1019.725","25.71","68.98","0.0","0.0"],
    [1535811,"2026-09-01 22:30:00","6856","1.652","290.7","2.548","284.7","1019.816","25.66","69.11","0.0","0.0"],
    [1535812,"2026-09-01 22:40:00","6857","1.4680000000000002","280.7","2.45","280.5","1019.888","25.59","69.17","0.0","0.0"],
    [1535813,"2026-09-01 22:50:00","6858","2.026","275.3","2.907","272.2","1020.009","25.53","68.89","0.0","0.0"],
    [1535814,"2026-09-01 23:00:00","6859","1.78","272.1","2.6460000000000004","270.9","1020.091","25.42","68.97","0.0","0.0"],
    [1535815,"2026-09-01 23:10:00","6860","1.893","282.6","2.7110000000000003","281.5","1020.118","25.32","69.14","0.0","0.0"],
    [1535816,"2026-09-01 23:20:00","6861","1.694","296.3","2.287","289.0","1020.203","25.32","69.19","0.0","0.0"],
    [1535817,"2026-09-01 23:30:00","6862","1.597","280.4","2.5810000000000004","276.4","1020.25","25.31","68.95","0.0","0.0"],
    [1535818,"2026-09-01 23:40:00","6863","1.9280000000000002","290.0","2.7110000000000003","295.9","1020.144","25.29","69.24","0.0","0.0"],
    [1535819,"2026-09-01 23:50:00","6864","1.4269999999999998","272.3","2.417","277.3","1020.132","25.32","69.05","0.0","0.0"],
    [1535820,"2026-09-02 00:00:00","6865","1.521","264.7","2.385","270.7","1020.124","25.36","68.6","0.0","0.0"],
    [1535821,"2026-09-02 00:10:00","6866","1.649","278.1","2.221","284.7","1020.176","25.27","69.4","0.0","0.0"],
    [1535822,"2026-09-02 00:20:00","6867","1.702","275.9","2.189","280.6","1020.253","25.18","69.26","0.0","0.0"],
    [1535823,"2026-09-02 00:30:00","6868","1.48","276.4","2.0580000000000003","277.6","1020.257","25.19","69.48","0.0","0.0"],
    [1535824,"2026-09-02 00:40:00","6869","1.661","272.4","2.156","269.1","1020.224","25.12","69.23","0.0","0.0"],
    [1535825,"2026-09-02 00:50:00","6870","1.556","291.1","2.156","290.0","1020.153","25.03","69.58","0.0","0.0"],
    [1535826,"2026-09-02 01:00:00","6871","1.617","300.1","2.254","296.4","1020.117","25.03","70.13","0.0","0.0"],
    [1535827,"2026-09-02 01:10:00","6872","1.854","320.9","2.483","323.0","1020.027","25.1","71.14","0.0","0.0"],
    [1535828,"2026-09-02 01:20:00","6873","1.849","317.7","2.5810000000000004","321.9","1019.939","25.11","71.8","0.0","0.0"],
    [1535829,"2026-09-02 01:30:00","6874","1.495","299.2","2.123","304.5","1019.921","25.14","71.87","0.0","0.0"],
    [1535830,"2026-09-02 01:40:00","6875","1.473","281.2","2.025","289.2","1019.905","25.11","71.17","0.0","0.0"],
    [1535831,"2026-09-02 01:50:00","6876","1.6780000000000002","297.9","2.548","300.7","1019.852","25.01","71.3","0.0","0.0"],
    [1535832,"2026-09-02 02:00:00","6877","1.4580000000000002","294.1","1.829","299.2","1019.771","25.03","71.27","0.0","0.0"],
    [1535833,"2026-09-02 02:10:00","6878","1.5190000000000001","289.1","1.96","295.1","1019.778","25.02","71.62","0.0","0.0"],
    [1535834,"2026-09-02 02:20:00","6879","1.2690000000000001","283.9","1.829","271.8","1019.718","24.9","71.74","0.0","0.0"],
    [1535835,"2026-09-02 02:30:00","6880","1.723","266.9","2.123","262.2","1019.773","24.71","71.89","0.0","0.0"],
    [1535836,"2026-09-02 02:40:00","6881","1.909","263.0","2.287","260.4","1019.792","24.52","72.22","0.0","0.0"],
    [1535837,"2026-09-02 02:50:00","6882","1.851","268.9","2.221","267.4","1019.789","24.4","72.74","0.0","0.0"],
    [1535838,"2026-09-02 03:00:00","6883","2.0780000000000003","271.5","2.483","262.8","1019.699","24.25","73.24","0.0","0.0"],
    [1535839,"2026-09-02 03:10:00","6884","2.219","263.0","2.679","265.2","1019.628","24.19","73.38","0.0","0.0"],
    [1535840,"2026-09-02 03:20:00","6885","2.242","265.1","2.679","269.1","1019.635","24.15","73.74","0.0","0.0"],
    [1535841,"2026-09-02 03:30:00","6886","2.319","264.5","2.875","257.8","1019.711","24.05","74.0","0.0","0.0"],
    [1535842,"2026-09-02 03:40:00","6887","2.233","266.0","3.0380000000000003","269.9","1019.728","23.95","74.07","0.0","0.0"],
    [1535843,"2026-09-02 03:50:00","6888","2.074","265.1","3.0380000000000003","259.3","1019.675","23.93","74.3","0.0","0.0"],
    [1535844,"2026-09-02 04:00:00","6889","1.7480000000000002","257.8","2.842","264.6","1019.595","23.95","74.64","0.0","0.0"],
    [1535845,"2026-09-02 04:10:00","6890","1.534","262.1","2.483","263.3","1019.471","23.92","75.06","0.0","0.0"],
    [1535846,"2026-09-02 04:20:00","6891","1.5630000000000002","279.3","2.548","295.0","1019.478","23.87","75.65","0.0","0.0"],
    [1535847,"2026-09-02 04:30:00","6892","1.979","288.0","3.0380000000000003","286.5","1019.456","24.01","75.91","0.0","0.0"],
    [1535848,"2026-09-02 04:40:00","6893","1.88","281.7","2.875","280.5","1019.46","24.14","75.39","0.0","0.0"],
    [1535849,"2026-09-02 04:50:00","6894","1.722","273.7","2.613","272.3","1019.461","24.2","74.65","0.0","0.0"],
    [1535850,"2026-09-02 05:00:00","6895","2.23","265.5","3.267","252.0","1019.5","24.11","74.27","0.0","0.0"],
    [1535851,"2026-09-02 05:10:00","6896","2.113","266.3","3.005","263.8","1019.514","23.97","73.77","0.0","0.0"],
    [1535852,"2026-09-02 05:20:00","6897","1.87","266.1","2.254","263.0","1019.574","23.84","73.87","1.083","0.0"],
    [1535853,"2026-09-02 05:30:00","6898","1.56","262.6","2.5810000000000004","252.9","1019.67","23.87","74.17","6.466","0.0"],
    [1535854,"2026-09-02 05:40:00","6899","1.775","263.4","2.515","253.8","1019.725","23.97","73.84","18.79","0.0"],
    [1535855,"2026-09-02 05:50:00","6900","1.422","259.9","2.417","246.0","1019.796","24.15","72.3","37.97","0.0"],
    [1535856,"2026-09-02 06:00:00","6901","1.3519999999999999","248.8","3.234","282.0","1019.821","24.45","70.89","61.92","0.0"],
    [1535857,"2026-09-02 06:10:00","6902","2.342","263.3","3.6910000000000003","263.6","1019.909","24.63","68.96","87.2","0.0"],
    [1535858,"2026-09-02 06:20:00","6903","2.15","266.9","3.201","264.0","1019.957","24.82","67.98","114.2","0.0"],
    [1535859,"2026-09-02 06:30:00","6904","2.237","283.8","3.267","293.4","1019.988","25.18","66.96","142.0","0.0"],
    [1535860,"2026-09-02 06:40:00","6905","2.491","283.6","3.136","283.0","1020.046","25.49","65.6","172.1","0.0"],
    [1535861,"2026-09-02 06:50:00","6906","2.2680000000000002","283.5","2.8089999999999997","280.9","1020.067","25.76","64.58","204.6","0.0"],
    [1535862,"2026-09-02 07:00:00","6907","1.8019999999999998","288.7","2.45","295.5","1020.135","26.13","63.31","236.2","0.0"],
    [1535863,"2026-09-02 07:10:00","6908","0.9279999999999999","302.5","1.568","296.2","1020.206","26.6","62.11","265.4","0.0"],
    [1535864,"2026-09-02 07:20:00","6909","0.163","20.44","0.8170000000000001","23.61","1020.323","26.92","62.21","292.4","0.0"],
    [1535865,"2026-09-02 07:30:00","6910","0.531","108.1","0.8170000000000001","113.7","1020.393","26.42","65.07","325.2","0.0"],
    [1535866,"2026-09-02 07:40:00","6911","0.852","143.3","1.2409999999999999","166.0","1020.469","26.33","69.25","357.3","0.0"],
    [1535867,"2026-09-02 07:50:00","6912","1.375","158.8","1.9269999999999998","155.9","1020.428","26.09","71.43","391.7","0.0"],
    [1535868,"2026-09-02 08:00:00","6913","1.391","158.5","2.254","153.1","1020.467","25.78","72.49","424.4","0.0"],
    [1535869,"2026-09-02 08:10:00","6914","1.453","185.7","2.0909999999999997","190.2","1020.503","26.06","70.86","456.2","0.0"],
    [1535870,"2026-09-02 08:20:00","6915","1.6119999999999999","187.4","2.319","188.9","1020.556","26.11","70.45","488.8","0.0"],
    [1535871,"2026-09-02 08:30:00","6916","1.229","168.1","2.156","189.1","1020.578","26.4","67.88","518.9","0.0"],
    [1535872,"2026-09-02 08:40:00","6917","2.275","41.29","3.234","34.26","1020.626","26.75","62.11","550.4","0.0"],
    [1535873,"2026-09-02 08:50:00","6918","3.12","42.65","3.985","46.36","1020.711","26.68","62.03","581.6","0.0"],
    [1535874,"2026-09-02 09:00:00","6919","2.997","49.28","3.855","47.37","1020.765","26.88","61.56","609.7","0.0"],
    [1535875,"2026-09-02 09:10:00","6920","2.985","45.49","3.7239999999999998","41.64","1020.88","26.93","61.51","633.9","0.0"],
    [1535876,"2026-09-02 09:20:00","6921","2.5610000000000004","51.08","3.397","45.72","1020.981","26.98","62.01","655.6","0.0"],
    [1535877,"2026-09-02 09:30:00","6922","2.23","60.0","2.842","66.05","1021.147","27.12","62.41","677.1","0.0"],
    [1535878,"2026-09-02 09:40:00","6923","2.263","53.09","2.907","56.04","1021.199","27.06","63.74","696.4","0.0"],
    [1535879,"2026-09-02 09:50:00","6924","2.449","56.94","3.267","52.95","1021.216","26.89","64.96","715.4","0.0"],
    [1535880,"2026-09-02 10:00:00","6925","2.109","62.81","2.94","76.79","1021.306","26.85","66.56","730.3","0.0"],
    [1535881,"2026-09-02 10:10:00","6926","2.002","65.57","2.515","61.5","1021.392","26.81","67.22","748.5","0.0"],
    [1535882,"2026-09-02 10:20:00","6927","1.995","52.59","2.613","41.35","1021.483","26.72","68.11","764.6","0.0"],
    [1535883,"2026-09-02 10:30:00","6928","2.193","48.27","2.94","41.88","1021.502","26.63","67.67","780.5","0.0"],
    [1535884,"2026-09-02 10:40:00","6929","1.692","67.65","2.417","54.0","1021.522","26.78","66.66","794.5","0.0"],
    [1535885,"2026-09-02 10:50:00","6930","1.8840000000000001","75.56","2.483","75.68","1021.514","26.91","67.2","803.0","0.0"],
    [1535886,"2026-09-02 11:00:00","6931","1.912","82.2","2.6460000000000004","63.53","1021.502","26.89","68.87","818.0","0.0"],
    [1535887,"2026-09-02 11:10:00","6932","1.994","102.2","2.842","95.4","1021.535","26.92","69.91","826.0","0.0"],
    [1535888,"2026-09-02 11:20:00","6933","1.8330000000000002","122.8","2.907","119.8","1021.556","27.0","70.92","830.0","0.0"],
    [1535889,"2026-09-02 11:30:00","6934","2.003","123.7","3.005","115.9","1021.594","26.95","71.08","834.0","0.0"],
    [1535890,"2026-09-02 11:40:00","6935","2.481","142.7","3.332","135.8","1021.615","26.95","72.73","832.0","0.0"],
    [1535891,"2026-09-02 11:50:00","6936","2.641","144.1","3.397","143.2","1021.581","26.99","73.84","834.0","0.0"],
    [1535892,"2026-09-02 12:00:00","6937","2.6710000000000003","139.3","3.463","132.2","1021.544","26.91","72.91","842.0","0.0"],
    [1535893,"2026-09-02 12:10:00","6938","2.532","148.5","3.6910000000000003","150.9","1021.49","27.1","72.36","838.0","0.0"],
    [1535894,"2026-09-02 12:20:00","6939","3.049","155.2","3.6260000000000003","155.2","1021.447","27.43","68.38","834.0","0.0"],
    [1535895,"2026-09-02 12:30:00","6940","3.333","154.8","4.4430000000000005","153.0","1021.495","27.4","68.21","829.0","0.0"],
    [1535896,"2026-09-02 12:40:00","6941","3.614","154.7","4.181","154.5","1021.499","27.37","68.15","826.0","0.0"],
    [1535897,"2026-09-02 12:50:00","6942","3.659","155.5","4.377","150.1","1021.513","27.41","68.55","817.0","0.0"],
    [1535898,"2026-09-02 13:00:00","6943","3.438","154.0","4.279","157.4","1021.464","27.44","68.58","808.0","0.0"],
    [1535899,"2026-09-02 13:10:00","6944","3.677","150.9","4.671","154.2","1021.427","27.4","67.39","793.2","0.0"],
    [1535900,"2026-09-02 13:20:00","6945","3.898","156.0","4.606","158.2","1021.401","27.33","69.27","787.1","0.0"],
    [1535901,"2026-09-02 13:30:00","6946","4.194","160.6","4.867","156.3","1021.322","27.37","70.07","773.9","0.0"],
    [1535902,"2026-09-02 13:40:00","6947","4.61","164.2","5.292000000000001","166.8","1021.254","27.38","70.81","756.6","0.0"],
    [1535903,"2026-09-02 13:50:00","6948","4.37","165.9","4.998","164.2","1021.167","27.31","73.71","738.6","0.0"],
    [1535904,"2026-09-02 14:00:00","6949","4.11","166.6","4.802","165.8","1021.06","27.31","73.67","721.3","0.0"],
    [1535905,"2026-09-02 14:10:00","6950","4.143","171.3","4.737","168.6","1020.982","27.14","74.58","698.7","0.0"],
    [1535906,"2026-09-02 14:20:00","6951","3.725","169.6","4.638999999999999","171.5","1020.913","27.07","75.09","673.9","0.0"],
    [1535907,"2026-09-02 14:30:00","6952","3.734","170.7","4.606","167.7","1020.859","27.07","74.44","648.8","0.0"],
    [1535908,"2026-09-02 14:40:00","6953","3.503","169.6","4.1160000000000005","168.7","1020.851","27.21","75.11","621.0","0.0"],
    [1535909,"2026-09-02 14:50:00","6954","3.5069999999999997","169.8","4.279","169.0","1020.737","27.18","74.55","593.2","0.0"],
    [1535910,"2026-09-02 15:00:00","6955","2.986","164.1","3.7889999999999997","159.4","1020.727","27.27","74.3","564.4","0.0"],
    [1535911,"2026-09-02 15:10:00","6956","2.9219999999999997","168.1","3.528","169.0","1020.689","27.23","74.73","536.4","0.0"],
    [1535912,"2026-09-02 15:20:00","6957","2.891","168.9","3.6260000000000003","164.8","1020.686","27.24","74.59","509.5","0.0"],
    [1535913,"2026-09-02 15:30:00","6958","2.786","166.3","3.201","166.6","1020.638","27.3","74.49","482.8","0.0"],
    [1535914,"2026-09-02 15:40:00","6959","2.533","166.3","2.9730000000000003","178.0","1020.585","27.27","73.69","452.9","0.0"],
    [1535915,"2026-09-02 15:50:00","6960","2.544","165.0","3.005","165.7","1020.549","27.4","73.1","424.8","0.0"],
    [1535916,"2026-09-02 16:00:00","6961","2.5610000000000004","165.9","3.1689999999999996","166.6","1020.572","27.36","72.79","396.8","0.0"],
    [1535917,"2026-09-02 16:10:00","6962","2.5340000000000003","166.2","3.397","169.1","1020.529","27.31","74.1","366.3","0.0"],
    [1535918,"2026-09-02 16:20:00","6963","2.416","164.6","2.7110000000000003","167.5","1020.442","27.23","75.42","334.3","0.0"],
    [1535919,"2026-09-02 16:30:00","6964","2.025","165.1","2.45","158.2","1020.422","27.21","74.66","298.6","0.0"],
    [1535920,"2026-09-02 16:40:00","6965","1.8330000000000002","162.8","2.221","168.8","1020.365","27.1","75.02","256.2","0.0"],
    [1535921,"2026-09-02 16:50:00","6966","1.7530000000000001","162.6","2.156","170.9","1020.342","27.16","74.0","231.1","0.0"],
    [1535922,"2026-09-02 17:00:00","6967","1.825","157.8","2.6460000000000004","164.7","1020.362","27.09","74.08","194.5","0.0"],
    [1535923,"2026-09-02 17:10:00","6968","1.4069999999999998","156.7","1.96","158.4","1020.354","26.91","75.22","166.3","0.0"],
    [1535924,"2026-09-02 17:20:00","6969","1.65","147.4","1.993","152.6","1020.296","26.77","74.42","137.3","0.0"],
    [1535925,"2026-09-02 17:30:00","6970","1.095","151.9","1.4369999999999998","152.6","1020.343","26.93","75.38","106.1","0.0"],
    [1535926,"2026-09-02 17:40:00","6971","1.195","152.2","1.568","150.9","1020.393","26.81","73.29","86.3","0.0"],
    [1535927,"2026-09-02 17:50:00","6972","1.057","145.7","1.3719999999999999","149.2","1020.452","26.83","72.07","69.99","0.0"],
    [1535928,"2026-09-02 18:00:00","6973","1.151","143.0","1.535","139.9","1020.527","26.73","73.31","47.82","0.0"],
    [1535929,"2026-09-02 18:10:00","6974","1.185","141.0","1.7309999999999999","151.4","1020.619","26.54","73.97","24.08","0.0"],
    [1535930,"2026-09-02 18:20:00","6975","1.681","142.0","2.0580000000000003","147.3","1020.557","26.5","73.29","9.28","0.0"],
    [1535931,"2026-09-02 18:30:00","6976","1.891","143.3","2.189","140.8","1020.566","26.46","74.28","1.9140000000000001","0.0"],
    [1535932,"2026-09-02 18:40:00","6977","2.114","138.1","2.483","141.2","1020.704","26.37","74.24","0.0","0.0"],
    [1535933,"2026-09-02 18:50:00","6978","2.161","146.7","2.385","139.4","1020.778","26.35","76.24","0.0","0.0"],
    [1535934,"2026-09-02 19:00:00","6979","1.3","168.0","2.189","162.9","1020.834","26.44","76.94","0.0","0.0"],
    [1535935,"2026-09-02 19:10:00","6980","0.001","195.8","0.065","194.4","1020.945","26.45","75.58","0.0","0.0"],
    [1535936,"2026-09-02 19:20:00","6981","0.0","0.0","0.0","0.0","1021.023","26.45","75.59","0.0","0.0"],
    [1535937,"2026-09-02 19:30:00","6982","0.35200000000000004","96.6","0.98","95.4","1021.039","26.34","75.77","0.0","0.0"],
    [1535938,"2026-09-02 19:40:00","6983","0.956","94.7","1.405","104.6","1021.144","26.25","76.53","0.0","0.0"],
    [1535939,"2026-09-02 19:50:00","6984","1.281","64.63","1.633","60.15","1021.291","26.17","78.62","0.0","0.0"],
    [1535940,"2026-09-02 20:00:00","6985","1.202","55.3","1.568","32.54","1021.354","26.1","78.39","0.0","0.0"],
    [1535941,"2026-09-02 20:10:00","6986","1.348","35.37","1.699","31.15","1021.424","25.96","78.97","0.0","0.0"],
    [1535942,"2026-09-02 20:20:00","6987","0.7040000000000001","47.71","1.111","46.75","1021.495","25.93","77.23","0.0","0.0"],
    [1535943,"2026-09-02 20:30:00","6988","0.205","25.63","0.8490000000000001","35.45","1021.545","26.14","77.46","0.0","0.0"],
    [1535944,"2026-09-02 20:40:00","6989","0.615","18.49","0.98","17.97","1021.435","25.9","78.46","0.0","0.0"],
    [1535945,"2026-09-02 20:50:00","6990","0.627","6.122999999999999","0.8490000000000001","20.59","1021.378","25.74","78.8","0.0","0.0"],
    [1535946,"2026-09-02 21:00:00","6991","0.7070000000000001","332.5","1.078","346.6","1021.416","25.69","79.09","0.0","0.0"],
    [1535947,"2026-09-02 21:10:00","6992","0.27699999999999997","271.5","0.882","296.0","1021.499","25.74","78.45","0.0","0.0"],
    [1535948,"2026-09-02 21:20:00","6993","0.062","301.9","0.98","307.4","1021.454","25.93","79.3","0.0","0.0"],
    [1535949,"2026-09-02 21:30:00","6994","1.3219999999999998","289.1","2.156","282.3","1021.436","25.82","78.0","0.0","0.0"],
    [1535950,"2026-09-02 21:40:00","6995","1.8159999999999998","290.1","2.613","278.4","1021.51","26.21","73.35","0.0","0.0"],
    [1535951,"2026-09-02 21:50:00","6996","1.4380000000000002","315.2","2.221","315.8","1021.442","26.46","71.47","0.0","0.0"],
    [1535952,"2026-09-02 22:00:00","6997","0.8170000000000001","340.2","1.601","325.2","1021.422","26.34","71.2","0.0","0.0"],
    [1535953,"2026-09-02 22:10:00","6998","0.303","130.1","1.307","134.7","1021.554","26.37","73.09","0.0","0.0"],
    [1535954,"2026-09-02 22:20:00","6999","1.7009999999999998","146.4","2.385","157.9","1021.706","26.23","77.66","0.0","0.0"],
    [1535955,"2026-09-02 22:30:00","7000","1.969","148.1","2.319","147.6","1021.754","25.91","80.1","0.0","0.0"],
    [1535956,"2026-09-02 22:40:00","7001","1.653","141.9","2.025","146.0","1021.679","25.91","80.2","0.0","0.0"],
    [1535957,"2026-09-02 22:50:00","7002","1.64","149.6","2.0580000000000003","152.5","1021.615","25.83","81.9","0.0","0.0"],
    [1535958,"2026-09-02 23:00:00","7003","2.266","164.9","2.8089999999999997","175.7","1021.622","25.69","84.2","0.0","0.0"],
    [1535959,"2026-09-02 23:10:00","7004","2.2840000000000003","172.1","2.613","166.6","1021.568","25.47","84.3","0.0","0.0"],
    [1535960,"2026-09-02 23:20:00","7005","2.158","175.4","2.515","172.7","1021.594","25.28","82.3","0.0","0.0"],
    [1535961,"2026-09-02 23:30:00","7006","1.902","189.2","2.7769999999999997","171.3","1021.62","25.46","82.7","0.0","0.0"],
    [1535962,"2026-09-02 23:40:00","7007","1.306","188.7","1.895","177.9","1021.646","25.51","83.8","0.0","0.0"],
    [1535963,"2026-09-02 23:50:00","7008","0.8320000000000001","212.4","1.176","178.1","1021.747","25.37","83.8","0.0","0.0"],
    [1535964,"2026-09-03 00:00:00","7009","0.35200000000000004","225.2","0.98","208.7","1021.756","25.27","82.6","0.0","0.0"],
    [1535965,"2026-09-03 00:10:00","7010","0.396","260.8","0.784","285.3","1021.736","25.09","80.7","0.0","0.0"],
    [1535966,"2026-09-03 00:20:00","7011","0.408","241.2","0.7190000000000001","232.4","1021.663","24.63","75.83","0.0","0.0"],
    [1535967,"2026-09-03 00:30:00","7012","0.9","271.1","1.339","271.3","1021.623","24.94","73.01","0.0","0.0"],
    [1535968,"2026-09-03 00:40:00","7013","0.581","289.7","0.915","301.1","1021.579","24.99","72.15","0.0","0.0"],
    [1535969,"2026-09-03 00:50:00","7014","0.111","257.7","0.49","260.9","1021.615","25.25","71.38","0.0","0.0"],
    [1535970,"2026-09-03 01:00:00","7015","0.006","183.2","0.425","183.2","1021.552","25.41","73.1","0.0","0.0"],
    [1535971,"2026-09-03 01:10:00","7016","0.426","187.0","0.653","156.0","1021.534","25.42","74.14","0.0","0.0"],
    [1535972,"2026-09-03 01:20:00","7017","0.311","172.5","0.7190000000000001","166.9","1021.585","25.37","77.01","0.0","0.0"],
    [1535973,"2026-09-03 01:30:00","7018","0.701","287.4","1.013","286.2","1021.624","24.64","73.43","0.0","0.0"],
    [1535974,"2026-09-03 01:40:00","7019","1.218","272.3","1.47","263.4","1021.588","24.68","70.86","0.0","0.0"],
    [1535975,"2026-09-03 01:50:00","7020","1.115","268.8","1.307","275.6","1021.543","24.86","69.47","0.0","0.0"],
    [1535976,"2026-09-03 02:00:00","7021","0.953","284.8","1.111","288.7","1021.501","24.92","68.47","0.0","0.0"],
    [1535977,"2026-09-03 02:10:00","7022","0.736","282.2","0.98","285.3","1021.477","24.97","68.84","0.0","0.0"],
    [1535978,"2026-09-03 02:20:00","7023","0.259","252.7","0.7190000000000001","250.4","1021.5","25.05","69.49","0.0","0.0"],
    [1535979,"2026-09-03 02:30:00","7024","0.258","263.8","1.013","272.6","1021.471","24.96","69.98","0.0","0.0"],
    [1535980,"2026-09-03 02:40:00","7025","0.904","277.9","1.2409999999999999","270.8","1021.472","24.76","70.84","0.0","0.0"],
    [1535981,"2026-09-03 02:50:00","7026","1.2819999999999998","271.8","1.5030000000000001","267.6","1021.473","24.74","70.56","0.0","0.0"],
    [1535982,"2026-09-03 03:00:00","7027","1.046","270.0","1.209","268.2","1021.444","24.84","69.93","0.0","0.0"],
    [1535983,"2026-09-03 03:10:00","7028","0.6729999999999999","262.5","1.013","260.9","1021.381","24.87","69.64","0.0","0.0"],
    [1535984,"2026-09-03 03:20:00","7029","0.648","270.6","0.9470000000000001","265.1","1021.336","24.78","69.29","0.0","0.0"],
    [1535985,"2026-09-03 03:30:00","7030","0.391","263.5","0.7190000000000001","258.2","1021.26","24.83","69.41","0.0","0.0"],
    [1535986,"2026-09-03 03:40:00","7031","0.695","285.4","0.9470000000000001","282.2","1021.23","24.72","69.3","0.0","0.0"],
    [1535987,"2026-09-03 03:50:00","7032","1.0270000000000001","269.7","1.3719999999999999","268.3","1021.205","24.67","68.37","0.0","0.0"],
    [1535988,"2026-09-03 04:00:00","7033","1.355","259.2","1.601","258.1","1021.189","24.68","66.88","0.0","0.0"],
    [1535989,"2026-09-03 04:10:00","7034","1.239","258.3","1.764","260.8","1021.165","24.69","66.27","0.0","0.0"],
    [1535990,"2026-09-03 04:20:00","7035","1.5130000000000001","262.4","1.993","261.7","1021.152","24.5","65.67","0.0","0.0"],
    [1535991,"2026-09-03 04:30:00","7036","1.7819999999999998","262.9","2.0580000000000003","261.2","1021.141","24.38","65.1","0.0","0.0"],
    [1535992,"2026-09-03 04:40:00","7037","1.98","261.6","2.189","263.8","1021.125","24.31","65.28","0.0","0.0"],
    [1535993,"2026-09-03 04:50:00","7038","1.92","259.9","2.156","260.8","1021.181","24.27","64.71","0.0","0.0"],
    [1535994,"2026-09-03 05:00:00","7039","1.7919999999999998","261.1","2.352","265.2","1021.245","24.37","63.97","0.0","0.0"],
    [1535995,"2026-09-03 05:10:00","7040","1.946","262.3","2.483","263.4","1021.302","24.29","64.16","0.0","0.0"],
    [1535996,"2026-09-03 05:20:00","7041","1.939","266.2","2.156","263.2","1021.388","24.23","64.61","0.662","0.0"],
    [1535997,"2026-09-03 05:30:00","7042","1.857","267.0","2.123","268.0","1021.458","24.14","64.78","6.235","0.0"],
    [1535998,"2026-09-03 05:40:00","7043","1.9480000000000002","267.9","2.254","267.2","1021.574","24.16","64.54","18.69","0.0"],
    [1535999,"2026-09-03 05:50:00","7044","1.507","270.8","1.7309999999999999","267.5","1021.651","24.48","63.66","39.33","0.0"],
    [1536000,"2026-09-03 06:00:00","7045","1.3159999999999998","272.8","1.666","265.0","1021.75","25.02","61.92","62.88","0.0"],
    [1536001,"2026-09-03 06:10:00","7046","1.143","273.4","1.4369999999999998","264.4","1021.835","25.51","60.27","87.9","0.0"],
    [1536002,"2026-09-03 06:20:00","7047","1.192","260.4","1.666","261.8","1021.953","26.05","57.97","113.9","0.0"],
    [1536003,"2026-09-03 06:30:00","7048","1.4140000000000001","265.0","2.156","264.3","1022.079","26.35","56.81","140.9","0.0"],
    [1536004,"2026-09-03 06:40:00","7049","1.476","257.8","2.254","263.2","1022.268","26.29","56.52","167.7","0.0"],
    [1536005,"2026-09-03 06:50:00","7050","1.4","264.7","2.189","266.2","1022.317","26.51","55.27","197.3","0.0"],
    [1536006,"2026-09-03 07:00:00","7051","1.5619999999999998","280.6","2.287","262.8","1022.405","26.77","54.59","231.8","0.0"],
    [1536007,"2026-09-03 07:10:00","7052","1.048","273.4","1.535","282.8","1022.483","27.33","52.88","260.1","0.0"],
    [1536008,"2026-09-03 07:20:00","7053","0.6970000000000001","264.3","1.339","269.6","1022.546","27.62","51.57","291.1","0.0"],
    [1536009,"2026-09-03 07:30:00","7054","0.002","265.3","0.22899999999999998","270.7","1022.557","27.78","54.33","319.9","0.0"],
    [1536010,"2026-09-03 07:40:00","7055","0.0","0.0","0.0","0.0","1022.543","27.25","57.06","346.5","0.0"],
    [1536011,"2026-09-03 07:50:00","7056","0.0","0.0","0.0","0.0","1022.542","26.81","59.3","383.2","0.0"],
    [1536012,"2026-09-03 08:00:00","7057","0.423","136.0","1.3719999999999999","139.0","1022.538","26.85","58.72","415.6","0.0"],
    [1536013,"2026-09-03 08:10:00","7058","1.032","141.8","1.5030000000000001","138.7","1022.514","27.09","56.39","445.0","0.0"],
    [1536014,"2026-09-03 08:20:00","7059","1.34","131.2","1.633","135.4","1022.526","26.98","57.0","478.1","0.0"],
    [1536015,"2026-09-03 08:30:00","7060","1.589","110.9","2.0909999999999997","115.4","1022.565","27.15","55.85","511.5","0.0"],
    [1536016,"2026-09-03 08:40:00","7061","1.5630000000000002","114.9","2.0580000000000003","108.7","1022.669","27.12","56.11","543.3","0.0"],
    [1536017,"2026-09-03 08:50:00","7062","1.808","98.1","2.45","93.6","1022.729","27.15","57.58","574.9","0.0"],
    [1536018,"2026-09-03 09:00:00","7063","1.867","105.6","2.352","103.1","1022.865","27.0","59.71","600.8","0.0"],
    [1536019,"2026-09-03 09:10:00","7064","1.881","117.1","2.45","124.5","1022.982","27.01","61.05","624.9","0.0"],
    [1536020,"2026-09-03 09:20:00","7065","2.109","122.6","2.483","119.3","1023.071","27.04","59.9","648.4","0.0"],
    [1536021,"2026-09-03 09:30:00","7066","1.699","130.3","2.156","128.2","1023.112","27.33","60.69","668.0","0.0"],
    [1536022,"2026-09-03 09:40:00","7067","1.891","124.5","2.287","109.2","1023.15","27.24","62.08","689.8","0.0"],
    [1536023,"2026-09-03 09:50:00","7068","2.155","112.1","2.5810000000000004","108.3","1023.105","27.17","62.6","710.7","0.0"],
    [1536024,"2026-09-03 10:00:00","7069","2.31","135.2","2.7769999999999997","131.5","1023.074","27.16","63.15","729.5","0.0"],
    [1536025,"2026-09-03 10:10:00","7070","2.246","141.0","2.8089999999999997","188.4","1023.075","27.34","60.6","747.3","0.0"],
    [1536026,"2026-09-03 10:20:00","7071","2.645","152.4","3.103","159.1","1023.065","27.55","62.06","764.9","0.0"],
    [1536027,"2026-09-03 10:30:00","7072","2.733","150.4","3.299","152.4","1022.988","27.6","61.85","779.0","0.0"],
    [1536028,"2026-09-03 10:40:00","7073","3.011","156.8","3.495","150.4","1022.844","27.63","63.93","792.0","0.0"],
    [1536029,"2026-09-03 10:50:00","7074","3.327","163.4","3.7569999999999997","166.9","1022.695","27.62","67.18","805.0","0.0"],
    [1536030,"2026-09-03 11:00:00","7075","3.773","169.6","4.2139999999999995","172.5","1022.622","27.42","70.05","814.0","0.0"],
    [1536031,"2026-09-03 11:10:00","7076","4.018","168.5","4.573","168.8","1022.586","27.38","70.49","822.0","0.0"],
    [1536032,"2026-09-03 11:20:00","7077","4.5169999999999995","170.0","4.9","169.9","1022.46","27.38","72.14","830.0","0.0"],
    [1536033,"2026-09-03 11:30:00","7078","4.271","175.9","4.998","172.2","1022.392","27.34","70.17","832.0","0.0"],
    [1536034,"2026-09-03 11:40:00","7079","4.02","177.8","4.998","168.8","1022.353","27.84","67.7","836.0","0.0"],
    [1536035,"2026-09-03 11:50:00","7080","4.966","168.3","5.521","168.9","1022.277","27.51","68.25","837.0","0.0"],
    [1536036,"2026-09-03 12:00:00","7081","4.643","177.0","5.553","175.8","1022.268","27.7","67.5","836.0","0.0"],
    [1536037,"2026-09-03 12:10:00","7082","4.088","178.1","5.521","175.9","1022.292","27.96","70.58","833.0","0.0"],
    [1536038,"2026-09-03 12:20:00","7083","4.88","170.2","5.684","159.8","1022.234","27.64","72.41","829.0","0.0"],
    [1536039,"2026-09-03 12:30:00","7084","4.845","183.8","5.847","177.3","1022.156","27.76","72.47","827.0","0.0"],
    [1536040,"2026-09-03 12:40:00","7085","4.542","178.0","6.272","192.4","1022.211","27.82","73.24","821.0","0.0"],
    [1536041,"2026-09-03 12:50:00","7086","5.0680000000000005","173.0","7.285","155.7","1022.269","27.6","74.96","812.0","0.0"],
    [1536042,"2026-09-03 13:00:00","7087","4.773","177.1","6.305","174.3","1022.239","27.59","74.94","802.0","0.0"],
    [1536043,"2026-09-03 13:10:00","7088","5.188","173.9","6.337000000000001","172.3","1022.185","27.69","74.48","791.7","0.0"],
    [1536044,"2026-09-03 13:20:00","7089","5.459","177.5","6.599","170.2","1022.059","27.62","74.51","777.4","0.0"],
    [1536045,"2026-09-03 13:30:00","7090","5.7620000000000005","186.1","7.252000000000001","189.4","1021.932","27.89","72.18","765.1","0.0"],
    [1536046,"2026-09-03 13:40:00","7091","5.98","183.7","7.775","186.1","1021.833","27.96","71.97","751.5","0.0"],
    [1536047,"2026-09-03 13:50:00","7092","5.917000000000001","181.6","7.611000000000001","175.4","1021.71","27.94","72.27","733.9","0.0"],
    [1536048,"2026-09-03 14:00:00","7093","6.087999999999999","185.4","7.84","191.9","1021.664","27.93","72.36","716.4","0.0"],
    [1536049,"2026-09-03 14:10:00","7094","6.31","184.1","8.79","189.8","1021.571","27.89","72.94","695.2","0.0"],
    [1536050,"2026-09-03 14:20:00","7095","7.175","190.2","8.82","192.2","1021.479","27.85","72.17","672.5","0.0"],
    [1536051,"2026-09-03 14:30:00","7096","6.99","189.8","9.57","192.6","1021.416","27.9","71.92","648.5","0.0"],
    [1536052,"2026-09-03 14:40:00","7097","6.901","188.3","8.82","191.8","1021.427","27.88","71.88","623.0","0.0"],
    [1536053,"2026-09-03 14:50:00","7098","6.419","189.9","9.21","189.4","1021.512","28.13","69.9","594.2","0.0"],
    [1536054,"2026-09-03 15:00:00","7099","6.626","192.0","8.92","193.9","1021.435","28.18","70.6","568.5","0.0"],
    [1536055,"2026-09-03 15:10:00","7100","6.063","194.1","8.33","198.0","1021.372","28.23","70.52","542.0","0.0"],
    [1536056,"2026-09-03 15:20:00","7101","6.143","189.7","8.95","191.4","1021.37","28.2","70.57","513.5","0.0"],
    [1536057,"2026-09-03 15:30:00","7102","6.617999999999999","191.2","9.18","190.3","1021.301","28.18","70.52","485.2","0.0"],
    [1536058,"2026-09-03 15:40:00","7103","5.797000000000001","202.3","8.07","210.7","1021.165","28.59","68.83","457.3","0.0"],
    [1536059,"2026-09-03 15:50:00","7104","6.263","201.8","10.78","203.4","1021.059","28.7","68.08","429.7","0.0"],
    [1536060,"2026-09-03 16:00:00","7105","7.045","196.5","11.27","210.0","1021.049","28.42","69.45","398.9","0.0"],
    [1536061,"2026-09-03 16:10:00","7106","5.0280000000000005","210.9","8.89","201.8","1021.098","28.8","68.45","366.1","0.0"],
    [1536062,"2026-09-03 16:20:00","7107","5.182","202.5","8.0","205.9","1020.98","28.83","68.62","333.1","0.0"],
    [1536063,"2026-09-03 16:30:00","7108","5.606","212.4","8.79","201.7","1020.933","28.76","68.75","301.4","0.0"],
    [1536064,"2026-09-03 16:40:00","7109","5.282","216.3","8.46","232.2","1020.905","28.66","69.4","262.7","0.0"],
    [1536065,"2026-09-03 16:50:00","7110","5.4670000000000005","214.9","8.26","226.4","1020.925","28.62","69.41","231.7","0.0"],
    [1536066,"2026-09-03 17:00:00","7111","5.931","224.6","8.56","238.1","1020.968","28.51","70.31","204.0","0.0"],
    [1536067,"2026-09-03 17:10:00","7112","5.513999999999999","219.0","9.28","226.5","1020.979","28.43","70.3","157.3","0.0"],
    [1536068,"2026-09-03 17:20:00","7113","4.975","214.5","8.23","215.2","1021.01","28.39","70.81","155.3","0.0"],
    [1536069,"2026-09-03 17:30:00","7114","5.4670000000000005","216.3","7.6770000000000005","229.4","1021.018","28.27","71.95","100.3","0.0"],
    [1536070,"2026-09-03 17:40:00","7115","3.738","214.3","6.795","203.8","1021.11","28.26","72.11","93.1","0.0"],
    [1536071,"2026-09-03 17:50:00","7116","4.956","198.9","7.4479999999999995","185.6","1021.094","28.06","72.51","68.5","0.0"],
    [1536072,"2026-09-03 18:00:00","7117","4.069","211.0","8.56","225.9","1021.156","27.98","72.71","42.07","0.0"],
    [1536073,"2026-09-03 18:10:00","7118","4.537","199.7","7.0889999999999995","192.0","1021.164","27.9","73.49","20.37","0.0"],
    [1536074,"2026-09-03 18:20:00","7119","5.1","200.7","7.35","190.1","1021.166","27.68","74.19","7.492000000000001","0.0"],
    [1536075,"2026-09-03 18:30:00","7120","4.57","201.2","7.513","198.2","1021.143","27.66","73.95","1.51","0.0"],
    [1536076,"2026-09-03 18:40:00","7121","3.895","202.0","6.893","196.0","1021.239","27.62","74.35","0.0","0.0"],
    [1536077,"2026-09-03 18:50:00","7122","4.211","203.9","6.435","196.7","1021.241","27.63","74.3","0.0","0.0"],
    [1536078,"2026-09-03 19:00:00","7123","3.9819999999999998","203.6","6.109","210.4","1021.372","27.53","74.46","0.0","0.0"],
    [1536079,"2026-09-03 19:10:00","7124","3.43","202.4","5.521","210.1","1021.47","27.59","73.87","0.0","0.0"],
    [1536080,"2026-09-03 19:20:00","7125","3.3169999999999997","207.8","5.063","195.6","1021.584","27.56","73.96","0.0","0.0"],
    [1536081,"2026-09-03 19:30:00","7126","4.043","199.6","5.194","201.7","1021.688","27.38","71.25","0.0","0.0"],
    [1536082,"2026-09-03 19:40:00","7127","3.997","200.9","5.2589999999999995","205.8","1021.839","27.48","69.74","0.0","0.0"],
    [1536083,"2026-09-03 19:50:00","7128","2.786","208.0","4.998","195.6","1021.987","27.47","70.31","0.0","0.0"],
    [1536084,"2026-09-03 20:00:00","7129","2.1630000000000003","220.6","3.7569999999999997","237.3","1022.002","27.55","70.05","0.0","0.0"],
    [1536085,"2026-09-03 20:10:00","7130","2.247","217.1","4.083","201.3","1022.02","27.52","69.76","0.0","0.0"],
    [1536086,"2026-09-03 20:20:00","7131","1.7919999999999998","228.5","3.5610000000000004","202.8","1022.032","27.57","70.07","0.0","0.0"],
    [1536087,"2026-09-03 20:30:00","7132","2.171","240.5","4.508","251.5","1022.014","27.56","70.29","0.0","0.0"],
    [1536088,"2026-09-03 20:40:00","7133","3.113","258.6","4.508","257.7","1021.98","27.41","70.03","0.0","0.0"],
    [1536089,"2026-09-03 20:50:00","7134","3.4819999999999998","253.6","5.4879999999999995","258.7","1021.967","27.35","70.2","0.0","0.0"],
    [1536090,"2026-09-03 21:00:00","7135","2.87","246.0","5.194","250.0","1021.915","27.33","70.35","0.0","0.0"],
    [1536091,"2026-09-03 21:10:00","7136","3.625","246.0","5.422999999999999","269.2","1021.871","27.35","70.28","0.0","0.0"],
    [1536092,"2026-09-03 21:20:00","7137","3.3960000000000004","245.8","5.684","255.7","1021.856","27.3","70.44","0.0","0.0"],
    [1536093,"2026-09-03 21:30:00","7138","3.3710000000000004","248.8","6.011","255.5","1021.872","27.27","70.68","0.0","0.0"],
    [1536094,"2026-09-03 21:40:00","7139","3.1289999999999996","244.5","5.586","266.9","1021.781","27.22","71.1","0.0","0.0"],
    [1536095,"2026-09-03 21:50:00","7140","2.678","246.4","5.1610000000000005","249.1","1021.761","27.13","71.66","0.0","0.0"]
]}
